# Tue Sep 02 09:44:16 PDT 2008
#
# DATABASE
# jdbc:jtds:sqlserver://solstice.shore.mbari.org:1433/VARS
#
# QUERY
# SELECT ObservationID_FK,  Associations,  CameraDirection,  ConceptName,  Depth,  DiveNumber,  Image,  Latitude,  Longitude,  Oxygen,  RecordedDate,  RovName,  Salinity,  TapeTimeCode,  Temperature,  videoArchiveName FROM Annotations WHERE   DiveNumber >= 2669 AND   DiveNumber <= 2696 AND   RovName LIKE '%Ventana%' 
#
# TOTAL RECORDS: 24691
Associations	CameraDirection	ConceptName	Depth	DiveNumber	Image	Latitude	Longitude	ObservationID_FK	Oxygen	RecordedDate	RovName	Salinity	TapeTimeCode	Temperature	videoArchiveName
comment | self | this tape continues after a very short previous dive (V2668) 	stationary	physical object	999.37	2669	 	36.730442	-122.22678	1649029	0.45	2005-05-25 17:49:47.0	Ventana	34.521	00:12:24:18	3.911	V2669-01
population-quantity | self | 999	cruise	Ophiurida	998.83	2669	http://search.mbari.org/ARCHIVE/frameGrabs/Ventana/images/2669/00_41_53_11.jpg	36.731087	-122.23067	20003778	0.45	2005-05-25 18:19:26.0	Ventana	34.522	00:41:53:11	3.912	V2669-01
population-quantity | self | 999	cruise	Ophiurida	998.53	2669	http://search.mbari.org/ARCHIVE/frameGrabs/Ventana/images/2669/00_42_33_10.jpg	36.73111	-122.23071	20003780	0.45	2005-05-25 18:20:07.0	Ventana	34.521	00:42:33:10	3.912	V2669-01
posture | self | closed	cruise	Stomphia	998.9	2669	http://search.mbari.org/ARCHIVE/frameGrabs/Ventana/images/2669/01_09_49_16.jpg	36.731133	-122.234764	20003785	0.45	2005-05-25 18:47:48.0	Ventana	34.522	01:09:49:16	3.916	V2669-02
population-density | self | dense, image-quality | self | good	cruise	Mesomyaria	999.82	2669	http://search.mbari.org/ARCHIVE/frameGrabs/Ventana/images/2669/01_18_56_13.jpg	36.731308	-122.235916	20003787	0.44	2005-05-25 18:56:57.0	Ventana	34.52	01:18:56:13	3.936	V2669-02
population-density | self | dense	cruise	Ophiurida	999.23	2669	http://search.mbari.org/ARCHIVE/frameGrabs/Ventana/images/2669/01_19_56_11.jpg	36.73139	-122.23607	20003788	0.44	2005-05-25 18:57:56.0	Ventana	34.52	01:19:56:11	3.939	V2669-02
population-quantity | self | 999	cruise	Mesomyaria	999.87	2669	http://search.mbari.org/ARCHIVE/frameGrabs/Ventana/images/2669/01_42_47_14.jpg	36.731094	-122.238884	20003795	0.43	2005-05-25 19:20:48.0	Ventana	34.517	01:42:47:14	3.969	V2669-02
comment | self | start V2669 1000m transect	starttransect	physical object	997.74	2669	 	36.730656	-122.2269	1649048	0.45	2005-05-25 17:52:47.0	Ventana	34.521	00:15:16:17	3.91	V2669-01
life-stage | self | juvenile	transect	Solaster	997.49	2669	 	36.73066	-122.22751	1649161	0.45	2005-05-25 17:57:19.0	Ventana	34.521	00:19:47:13	3.909	V2669-01
life-stage | self | juvenile	transect	Solaster	998.64	2669	http://search.mbari.org/ARCHIVE/frameGrabs/Ventana/images/2669/00_26_17_24.jpg	36.73052	-122.228516	1650900	0.45	2005-05-25 18:03:49.0	Ventana	34.523	00:26:17:24	3.907	V2669-01
comment | self | doesn't look as "full" as normal	transect	Anthoptilum grandiflorum	999.49	2669	http://search.mbari.org/ARCHIVE/frameGrabs/Ventana/images/2669/00_26_52_10.jpg	36.730495	-122.22861	1650910	0.45	2005-05-25 18:04:24.0	Ventana	34.522	00:26:52:10	3.906	V2669-01
comment | self | really big head, tiny fins, identity-certainty | self | unusual, identity-certainty | self | maybe, relative-size | self | large	transect	Lycenchelys crotalinus	999.43	2669	http://search.mbari.org/ARCHIVE/frameGrabs/Ventana/images/2669/00_28_01_08.jpg	36.73049	-122.228836	1650928	0.45	2005-05-25 18:05:33.0	Ventana	34.522	00:28:01:08	3.906	V2669-01
life-stage | self | juvenile	transect	Ophiuroidea	999.76	2669	 	36.73068	-122.22941	1651086	0.45	2005-05-25 18:09:31.0	Ventana	34.522	00:31:59:00	3.908	V2669-01
life-stage | self | juvenile	transect	Sebastolobus	998.81	2669	 	36.73083	-122.22959	1651138	0.45	2005-05-25 18:11:35.0	Ventana	34.522	00:34:02:09	3.906	V2669-01
life-stage | self | juvenile	transect	Sebastolobus	998.68	2669	 	36.730858	-122.22965	1651142	0.45	2005-05-25 18:12:00.4	Ventana	34.522	00:34:27:22	3.907	V2669-01
life-stage | self | juvenile	transect	Sebastolobus	998.98	2669	 	36.730938	-122.22991	1651190	0.45	2005-05-25 18:13:41.1	Ventana	34.521	00:36:07:28	3.908	V2669-01
life-stage | self | juvenile	transect	Solaster	998.88	2669	 	36.730953	-122.229996	1651197	0.45	2005-05-25 18:14:01.85	Ventana	34.521	00:36:28:28	3.909	V2669-01
life-stage | self | juvenile	transect	Solaster	998.53	2669	 	36.730965	-122.230034	1651206	0.45	2005-05-25 18:14:25.117	Ventana	34.521	00:36:51:28	3.913	V2669-01
life-stage | self | juvenile	transect	Sebastolobus	998.65	2669	 	36.730953	-122.23004	1651213	0.45	2005-05-25 18:14:17.2	Ventana	34.522	00:36:44:03	3.907	V2669-01
comment | self | really big head, tiny fins, identity-certainty | self | unusual, identity-certainty | self | maybe, relative-size | self | large, comment | self | different species or others are juveniles	transect	Lycenchelys crotalinus	998.67	2669	http://search.mbari.org/ARCHIVE/frameGrabs/Ventana/images/2669/00_37_23_18.jpg	36.730957	-122.23008	1651234	0.45	2005-05-25 18:14:56.15	Ventana	34.522	00:37:23:18	3.912	V2669-01
life-stage | self | juvenile	transect	Sebastolobus	998.58	2669	 	36.73098	-122.23019	1651257	0.45	2005-05-25 18:15:47.767	Ventana	34.52	00:38:15:19	3.911	V2669-01
life-stage | self | juvenile	transect	Sebastolobus	998.8	2669	 	36.73099	-122.23022	1651263	0.45	2005-05-25 18:16:03.297	Ventana	34.521	00:38:30:11	3.91	V2669-01
life-stage | self | juvenile	transect	Sebastolobus	998.73	2669	 	36.73099	-122.230225	1651267	0.45	2005-05-25 18:16:15.0	Ventana	34.523	00:38:42:02	3.908	V2669-01
life-stage | self | juvenile	transect	Solaster	998.83	2669	 	36.730984	-122.23024	1651269	0.45	2005-05-25 18:16:14.0	Ventana	34.523	00:38:41:07	3.908	V2669-01
life-stage | self | juvenile	transect	Solaster	998.83	2669	 	36.730984	-122.23024	1651270	0.45	2005-05-25 18:16:14.0	Ventana	34.523	00:38:41:07	3.908	V2669-01
relative-length | self | long, relative-size | self | small	transect	Gastropoda	998.94	2669	http://search.mbari.org/ARCHIVE/frameGrabs/Ventana/images/2669/00_38_38_03.jpg	36.73099	-122.23024	1651273	0.45	2005-05-25 18:16:11.0	Ventana	34.523	00:38:38:03	3.908	V2669-01
identity-certainty | self | maybe	transect	Embassichthys bathybius	998.39	2669	 	36.731064	-122.230385	1651298	0.45	2005-05-25 18:17:36.0	Ventana	34.521	00:40:02:24	3.908	V2669-01
life-stage | self | juvenile	transect	Sebastolobus	998.48	2669	http://search.mbari.org/ARCHIVE/frameGrabs/Ventana/images/2669/00_40_49_13.jpg	36.731037	-122.23051	1651309	0.45	2005-05-25 18:18:21.75	Ventana	34.522	00:40:49:13	3.91	V2669-01
identity-certainty | self | maybe	transect	Mesomyaria	998.4	2669	 	36.731075	-122.230576	1651352	0.45	2005-05-25 18:18:52.0	Ventana	34.522	00:41:18:17	3.911	V2669-01
life-stage | self | juvenile	transect	Sebastolobus	998.83	2669	 	36.731087	-122.23067	1651360	0.45	2005-05-25 18:19:25.25	Ventana	34.522	00:41:52:11	3.912	V2669-01
comment | self | no video for this aborted dive	transect	physical object	 	2684	 	 	 	1667456	 	2005-07-12 22:28:35.0	Ventana	 	01:35:45:09	 	V2684-01
sampled-by | Suction Sampler | nil, sample-reference | self | V2673-A2	cruise	Chionoecetes tanneri	1284.55	2673	http://search.mbari.org/ARCHIVE/frameGrabs/Ventana/images/2673/00_25_59_05.jpg	36.802937	-121.804695	20003868	0.8	2005-06-07 17:34:27.0	Ventana	34.582	00:25:59:05	3.236	V2673-01
identity-reference | self | 1	stationary	Chionoecetes tanneri	1283.19	2673	 	36.802937	-121.804695	1668292	0.81	2005-06-07 17:16:48.0	Ventana	34.583	00:00:39:28	3.223	V2673-01
identity-reference | self | 1	stationary	Chionoecetes tanneri	 	2673	 	 	 	1668308	 	 	Ventana	 	00:01:45:27	 	V2673-01
grabbing | manipulator | nil	stationary	manipulator	1284.16	2673	 	36.802937	-121.804695	1668312	0.81	2005-06-07 17:18:38.0	Ventana	34.578	00:02:30:07	3.227	V2673-01
sampled-by | Suction Sampler | nil, sample-reference | self | V2673-A1, identity-reference | self | 1	stationary	Chionoecetes tanneri	1283.67	2673	http://search.mbari.org/ARCHIVE/frameGrabs/Ventana/images/2673/00_03_27_22.jpg	36.802937	-121.804695	1668327	0.8	2005-06-07 17:19:35.0	Ventana	34.579	00:03:27:22	3.235	V2673-01
sampled-by | Suction Sampler | nil, sample-reference | self | V2673-A2	cruise	Chionoecetes tanneri	 	2673	 	 	 	1668329	 	 	Ventana	 	00:05:24:03	 	V2673-01
population-quantity | self | 999	cruise	marine snow	1283.11	2673	 	36.802937	-121.804695	1668333	0.81	2005-06-07 17:23:10.0	Ventana	34.583	00:07:01:25	3.225	V2673-01
sample-reference | self | V2673-A3, sampled-by | Suction Sampler | nil	cruise	Chionoecetes tanneri	 	2673	 	 	 	1668343	 	 	Ventana	 	00:09:50:25	 	V2673-01
sampled-by | Suction Sampler | nil, sample-reference | self | V2673-A4	cruise	Chionoecetes tanneri	 	2673	 	 	 	1668345	 	 	Ventana	 	00:11:11:16	 	V2673-01
sampled-by | Suction Sampler | nil, sample-reference | self | V2673-A5	cruise	Chionoecetes tanneri	 	2673	 	 	 	1668346	 	 	Ventana	 	00:12:16:07	 	V2673-01
sampled-by | Suction Sampler | nil, sample-reference | self | V2673-A6	cruise	Chionoecetes tanneri	 	2673	 	 	 	1668350	 	 	Ventana	 	00:14:40:00	 	V2673-01
sampled-by | Suction Sampler | nil, sample-reference | self | V2673-A7	cruise	Chionoecetes tanneri	 	2673	 	 	 	1668385	 	 	Ventana	 	00:18:26:08	 	V2673-01
sampled-by | Suction Sampler | nil, sample-reference | self | V2673-A8	cruise	Chionoecetes tanneri	 	2673	 	 	 	1668390	 	 	Ventana	 	00:20:19:17	 	V2673-01
sampled-by | Suction Sampler | nil, sample-reference | self | V2673-A9	cruise	Chionoecetes tanneri	 	2673	 	 	 	1668393	 	 	Ventana	 	00:21:49:00	 	V2673-01
sampled-by | Suction Sampler | nil, sample-reference | self | V2673-A10	cruise	Chionoecetes tanneri	 	2673	 	 	 	1668394	 	 	Ventana	 	00:22:41:26	 	V2673-01
sampled-by | Suction Sampler | nil, sample-reference | self | V2673-A11	cruise	Chionoecetes tanneri	 	2673	 	 	 	1668398	 	 	Ventana	 	00:25:59:02	 	V2673-01
sampled-by | Suction Sampler | nil, sample-reference | self | V2673-A12	cruise	Chionoecetes tanneri	 	2673	 	 	 	1668399	 	 	Ventana	 	00:26:53:03	 	V2673-01
sampled-by | Suction Sampler | nil, sample-reference | self | V2673-A13	cruise	Chionoecetes tanneri	 	2673	 	 	 	1668401	 	 	Ventana	 	00:28:21:24	 	V2673-01
sampled-by | Suction Sampler | nil, sample-reference | self | V2673-A14	cruise	Chionoecetes tanneri	 	2673	 	 	 	1668404	 	 	Ventana	 	00:29:51:10	 	V2673-01
sampled-by | Suction Sampler | nil, sample-reference | self | V2673-A15	cruise	Chionoecetes tanneri	 	2673	 	 	 	1668405	 	 	Ventana	 	00:31:35:15	 	V2673-01
identity-certainty | self | maybe	cruise	Anoplopoma fimbria	1014.16	2689	 	36.77143	-122.082886	1669607	0.53	2005-07-18 16:38:00.0	Ventana	34.526	00:01:05:04	3.909	V2689-01
population-quantity | self | 999	cruise	Chionoecetes tanneri	1009.25	2689	 	36.771423	-122.082794	1669612	0.54	2005-07-18 16:38:31.0	Ventana	34.528	00:01:35:24	3.905	V2689-01
population-quantity | self | 999	cruise	Gorgonacea	1008.12	2689	http://search.mbari.org/ARCHIVE/frameGrabs/Ventana/images/2689/00_01_39_13.jpg	36.771423	-122.08278	1669614	0.54	2005-07-18 16:38:37.0	Ventana	34.528	00:01:39:13	3.905	V2689-01
population-quantity | self | 999	cruise	Actiniaria	1006.99	2689	 	36.77142	-122.08276	1669616	0.54	2005-07-18 16:38:47.0	Ventana	34.527	00:01:52:07	3.916	V2689-01
identity-certainty | self | maybe	cruise	Bathylagidae	1006.78	2689	 	36.77142	-122.082756	1669617	0.54	2005-07-18 16:38:48.0	Ventana	34.527	00:01:53:10	3.916	V2689-01
identity-certainty | self | maybe	cruise	Anoplopoma fimbria	1004.74	2689	 	36.771416	-122.08274	1669618	0.54	2005-07-18 16:39:07.0	Ventana	34.531	00:02:11:09	3.914	V2689-01
life-stage | self | juvenile	cruise	Poralia	985.79	2689	 	36.77153	-122.082825	1669625	0.46	2005-07-18 16:43:34.0	Ventana	34.519	00:06:37:03	3.97	V2689-01
identity-certainty | self | maybe, population-quantity | self | 999	cruise	Actiniaria	1008.64	2689	 	36.77158	-122.082855	1669629	0.48	2005-07-18 16:45:17.0	Ventana	34.527	00:08:21:10	3.894	V2689-01
identity-certainty | self | maybe	cruise	Rathbunaster	1013.31	2689	 	36.77156	-122.08287	1669632	0.49	2005-07-18 16:46:51.0	Ventana	34.527	00:09:55:11	3.885	V2689-01
identity-reference | self | 3	cruise	whale carcass	1015.86	2689	http://search.mbari.org/ARCHIVE/frameGrabs/Ventana/images/2689/00_11_01_22.jpg	36.771572	-122.08293	1669637	0.5	2005-07-18 16:47:59.0	Ventana	34.532	00:11:01:22	3.851	V2689-01
identity-reference | self | 4	cruise	wood	1016.44	2689	http://search.mbari.org/ARCHIVE/frameGrabs/Ventana/images/2689/00_15_05_16.jpg	36.77157	-122.08296	20005340	0.51	2005-07-18 16:52:03.0	Ventana	34.53	00:15:05:16	3.847	V2689-01
identity-reference | self | 4	cruise	wood	1016.68	2689	http://search.mbari.org/ARCHIVE/frameGrabs/Ventana/images/2689/00_16_32_29.jpg	36.771584	-122.08294	20005341	0.5	2005-07-18 16:53:29.0	Ventana	34.53	00:16:32:29	3.841	V2689-01
identity-reference | self | 4	cruise	wood	1016.67	2689	http://search.mbari.org/ARCHIVE/frameGrabs/Ventana/images/2689/00_17_06_28.jpg	36.771584	-122.08294	20005342	0.5	2005-07-18 16:54:03.0	Ventana	34.531	00:17:06:28	3.835	V2689-01
identity-reference | self | 4	cruise	wood	1016.67	2689	http://search.mbari.org/ARCHIVE/frameGrabs/Ventana/images/2689/00_17_14_12.jpg	36.771584	-122.08293	20005343	0.5	2005-07-18 16:54:11.0	Ventana	34.533	00:17:14:12	3.817	V2689-01
identity-reference | self | 3	cruise	whale carcass	1016.42	2689	http://search.mbari.org/ARCHIVE/frameGrabs/Ventana/images/2689/00_17_47_26.jpg	36.771584	-122.08293	20005344	0.51	2005-07-18 16:54:45.0	Ventana	34.535	00:17:47:26	3.825	V2689-01
identity-reference | self | 3	cruise	whale carcass	1016.36	2689	http://search.mbari.org/ARCHIVE/frameGrabs/Ventana/images/2689/00_17_53_11.jpg	36.771584	-122.08293	20005345	0.51	2005-07-18 16:54:49.0	Ventana	34.535	00:17:53:11	3.825	V2689-01
eating | physical object | nil	cruise	Chionoecetes tanneri	1016.59	2689	http://search.mbari.org/ARCHIVE/frameGrabs/Ventana/images/2689/00_18_17_10.jpg	36.77158	-122.08294	20005347	0.51	2005-07-18 16:55:14.0	Ventana	34.532	00:18:17:10	3.839	V2689-01
population-density | self | dense, population-quantity | self | 999	cruise	Osedax	1016.57	2689	http://search.mbari.org/ARCHIVE/frameGrabs/Ventana/images/2689/00_18_56_09.jpg	36.771576	-122.08294	20005348	0.5	2005-07-18 16:55:54.0	Ventana	34.532	00:18:56:09	3.835	V2689-01
population-density | self | dense, population-quantity | self | 999	cruise	Osedax	1016.37	2689	http://search.mbari.org/ARCHIVE/frameGrabs/Ventana/images/2689/00_20_31_06.jpg	36.771564	-122.08295	20005350	0.52	2005-07-18 16:57:28.0	Ventana	34.538	00:20:31:06	3.808	V2689-01
population-density | self | dense, population-quantity | self | 999	cruise	Osedax	1016.28	2689	http://search.mbari.org/ARCHIVE/frameGrabs/Ventana/images/2689/00_20_51_05.jpg	36.771564	-122.08295	20005351	0.51	2005-07-18 16:57:48.0	Ventana	34.537	00:20:51:05	3.814	V2689-01
population-density | self | dense, population-quantity | self | 999	cruise	Osedax	1016.25	2689	http://search.mbari.org/ARCHIVE/frameGrabs/Ventana/images/2689/00_21_41_19.jpg	36.77156	-122.082954	20005353	0.51	2005-07-18 16:58:39.0	Ventana	34.535	00:21:41:19	3.784	V2689-01
population-density | self | dense, population-quantity | self | 999	cruise	Osedax	1016.39	2689	http://search.mbari.org/ARCHIVE/frameGrabs/Ventana/images/2689/00_21_03_05.jpg	36.771564	-122.082954	20005352	0.51	2005-07-18 16:58:00.0	Ventana	34.532	00:21:03:05	3.807	V2689-01
identity-reference | self | 3	cruise	whale carcass	1016.19	2689	http://search.mbari.org/ARCHIVE/frameGrabs/Ventana/images/2689/00_22_00_03.jpg	36.77156	-122.08295	20005354	 	2005-07-18 16:58:57.0	Ventana	 	00:22:00:03	 	V2689-01
perspective | self | close-up	cruise	Vertebrata	1016.03	2689	http://search.mbari.org/ARCHIVE/frameGrabs/Ventana/images/2689/00_24_53_28.jpg	36.771564	-122.08297	1669707	0.53	2005-07-18 17:01:52.0	Ventana	34.54	00:24:53:28	3.758	V2689-01
population-quantity | self | 999	stationary	Push Corer	410.95	2685	http://search.mbari.org/ARCHIVE/frameGrabs/Ventana/images/2685/00_27_41_20.jpg	36.793167	-121.8795	20005023	0.99	2005-07-12 20:30:07.0	Ventana	34.256	00:27:41:20	7.063	V2685-01
identity-certainty | self | maybe	cruise	Microstomus pacificus	1015.66	2689	http://search.mbari.org/ARCHIVE/frameGrabs/Ventana/images/2689/00_25_47_07.jpg	36.77155	-122.08299	1669712	0.53	2005-07-18 17:02:46.0	Ventana	34.54	00:25:47:07	3.754	V2689-01
population-density | self | dense	descend	marine snow	320.25	2685	 	36.793133	-121.88162	1669715	1.15	2005-07-12 20:19:58.0	Ventana	34.233	00:17:33:12	7.374	V2685-01
population-density | self | dense	descend	marine snow	325.29	2685	 	36.79312	-121.88149	1669716	1.14	2005-07-12 20:20:20.8	Ventana	34.236	00:17:56:17	7.355	V2685-01
identity-certainty | self | maybe	cruise	Microstomus pacificus	1015.77	2689	http://search.mbari.org/ARCHIVE/frameGrabs/Ventana/images/2689/00_30_14_11.jpg	36.771526	-122.08295	1669722	0.56	2005-07-18 17:07:13.0	Ventana	34.553	00:30:14:11	3.683	V2689-01
identity-certainty | self | maybe	cruise	Microstomus pacificus	1016.05	2689	http://search.mbari.org/ARCHIVE/frameGrabs/Ventana/images/2689/00_30_38_11.jpg	36.77153	-122.08295	1669724	0.56	2005-07-18 17:07:37.0	Ventana	34.541	00:30:38:11	3.697	V2689-01
identity-certainty | self | maybe	cruise	Microstomus pacificus	1015.72	2689	http://search.mbari.org/ARCHIVE/frameGrabs/Ventana/images/2689/00_30_54_18.jpg	36.77153	-122.082954	1669726	0.55	2005-07-18 17:07:53.0	Ventana	34.55	00:30:54:18	3.747	V2689-01
identity-certainty | self | maybe, population-quantity | self | 2	cruise	Microstomus pacificus	1015.95	2689	http://search.mbari.org/ARCHIVE/frameGrabs/Ventana/images/2689/00_31_05_10.jpg	36.771534	-122.082954	1669727	0.55	2005-07-18 17:08:04.0	Ventana	34.55	00:31:05:10	3.747	V2689-01
comment | self | ribs, identity-reference | self | 3	cruise	whale carcass	1015.48	2689	http://search.mbari.org/ARCHIVE/frameGrabs/Ventana/images/2689/00_32_33_05.jpg	36.771545	-122.08298	1669734	0.55	2005-07-18 17:09:35.0	Ventana	34.552	00:32:33:05	3.725	V2689-01
population-density | self | dense, population-quantity | self | 999	cruise	Osedax	1015.87	2689	http://search.mbari.org/ARCHIVE/frameGrabs/Ventana/images/2689/00_33_12_26.jpg	36.77155	-122.08298	1669736	0.56	2005-07-18 17:10:14.0	Ventana	34.546	00:33:12:26	3.661	V2689-01
population-density | self | dense	descend	marine snow	171.03	2685	 	36.79368	-121.88333	1669738	1.96	2005-07-12 20:12:15.797	Ventana	34.103	00:09:51:17	8.812	V2685-01
identity-certainty | self | maybe	cruise	Microstomus pacificus	1016.19	2689	http://search.mbari.org/ARCHIVE/frameGrabs/Ventana/images/2689/00_34_16_06.jpg	36.77157	-122.08297	1669742	0.57	2005-07-18 17:11:15.0	Ventana	34.546	00:34:16:06	3.657	V2689-01
population-quantity | self | 999	descend	Nanomia bijuga	170.02	2685	 	36.793674	-121.88333	1669744	1.96	2005-07-12 20:12:14.0	Ventana	34.103	00:09:49:28	8.812	V2685-01
population-quantity | self | 999	descend	Nanomia bijuga	177.38	2685	 	36.793694	-121.88333	1669745	1.95	2005-07-12 20:12:29.0	Ventana	34.104	00:10:04:29	8.793	V2685-01
identity-reference | self | 3	cruise	whale carcass	1016.0	2689	http://search.mbari.org/ARCHIVE/frameGrabs/Ventana/images/2689/00_35_50_24.jpg	36.771564	-122.082954	1669746	0.56	2005-07-18 17:12:52.0	Ventana	34.545	00:35:50:24	3.711	V2689-01
population-quantity | self | 999	descend	Sergestes similis	184.39	2685	 	36.793694	-121.88331	1669747	1.94	2005-07-12 20:12:51.0	Ventana	34.107	00:10:26:19	8.779	V2685-01
contains | Osedax | nil, identity-reference | self | 3	cruise	whale carcass	1018.0	2689	http://search.mbari.org/ARCHIVE/frameGrabs/Ventana/images/2689/00_36_58_09.jpg	36.771545	-122.08295	1669749	0.57	2005-07-18 17:14:00.0	Ventana	34.548	00:36:58:09	3.636	V2689-01
population-quantity | self | 999	descend	Lobata	209.68	2685	 	36.793602	-121.88309	1669756	1.81	2005-07-12 20:14:07.0	Ventana	34.107	00:11:43:07	8.496	V2685-01
population-density | self | dense, relative-size | self | small	descend	Appendicularia	218.77	2685	 	36.793568	-121.883	1669757	1.67	2005-07-12 20:14:30.0	Ventana	34.144	00:12:06:05	8.335	V2685-01
population-quantity | self | 999	descend	Ctenophora	223.45	2685	 	36.793552	-121.88296	1669759	1.66	2005-07-12 20:14:43.0	Ventana	34.148	00:12:18:28	8.322	V2685-01
population-density | self | dense, relative-size | self | small	descend	Appendicularia	229.32	2685	 	36.79353	-121.882904	1669760	1.65	2005-07-12 20:14:58.727	Ventana	34.147	00:12:33:25	8.312	V2685-01
population-quantity | self | 999	descend	Nanomia bijuga	239.02	2685	 	36.793488	-121.88282	1669761	1.59	2005-07-12 20:15:27.0	Ventana	34.159	00:13:02:03	8.22	V2685-01
population-density | self | dense, relative-size | self | small	descend	Appendicularia	241.55	2685	 	36.79348	-121.882805	1669762	1.59	2005-07-12 20:15:32.5	Ventana	34.159	00:13:08:02	8.22	V2685-01
population-density | self | dense, relative-size | self | small	descend	Appendicularia	250.67	2685	 	36.79345	-121.88275	1669764	1.56	2005-07-12 20:15:54.147	Ventana	34.163	00:13:29:21	8.152	V2685-01
population-density | self | dense, relative-size | self | small	descend	Appendicularia	259.22	2685	 	36.793415	-121.882706	1669766	1.54	2005-07-12 20:16:14.7	Ventana	34.164	00:13:50:07	8.106	V2685-01
population-density | self | dense, relative-size | self | small	descend	Appendicularia	270.06	2685	 	36.79336	-121.88261	1669767	1.42	2005-07-12 20:16:45.0	Ventana	34.189	00:14:20:15	7.841	V2685-01
identity-certainty | self | maybe	descend	Merluccius productus	281.42	2685	 	36.793293	-121.882454	1669769	1.36	2005-07-12 20:17:18.0	Ventana	34.199	00:14:53:04	7.79	V2685-01
population-density | self | dense	descend	marine snow	333.41	2685	 	36.79311	-121.881325	1669778	1.13	2005-07-12 20:20:47.0	Ventana	34.235	00:18:22:11	7.337	V2685-01
population-density | self | dense	descend	marine snow	351.87	2685	 	36.79307	-121.881004	1669780	1.04	2005-07-12 20:21:43.467	Ventana	34.251	00:19:18:05	7.144	V2685-01
population-density | self | dense	descend	marine snow	386.08	2685	 	36.79299	-121.88039	1669781	1.02	2005-07-12 20:23:20.693	Ventana	34.258	00:20:55:23	7.103	V2685-01
population-density | self | dense	descend	marine snow	403.54	2685	 	36.79295	-121.87996	1669782	1.02	2005-07-12 20:24:19.2	Ventana	34.257	00:21:53:22	7.108	V2685-01
population-density | self | dense	descend	marine snow	409.46	2685	 	36.79301	-121.87959	1669783	1.01	2005-07-12 20:25:34.82	Ventana	34.256	00:23:09:23	7.105	V2685-01
population-density | self | dense	descend	marine snow	411.15	2685	 	36.793156	-121.8795	1669784	1.01	2005-07-12 20:26:42.827	Ventana	34.257	00:24:17:28	7.089	V2685-01
population-density | self | dense	stationary	marine snow	411.06	2685	 	36.793148	-121.87952	1669786	1.0	2005-07-12 20:28:14.013	Ventana	34.259	00:25:48:16	7.075	V2685-01
population-quantity | self | 999	stationary	Push Corer	411.0	2685	 	36.793144	-121.879524	1669787	0.99	2005-07-12 20:29:03.1	Ventana	34.259	00:26:37:25	7.072	V2685-01
population-density | self | dense	stationary	marine snow	410.97	2685	 	36.793156	-121.87951	1669788	0.99	2005-07-12 20:29:45.733	Ventana	34.259	00:27:20:13	7.073	V2685-01
identity-reference | self | 6, fail | nil | nil	stationary	Push Corer	410.91	2685	 	36.79318	-121.879486	1669789	0.98	2005-07-12 20:30:43.0	Ventana	34.262	00:28:17:26	7.049	V2685-01
identity-reference | self | 6, fail | nil | nil	stationary	Push Corer	410.82	2685	 	36.79318	-121.879486	1669790	0.98	2005-07-12 20:33:00.0	Ventana	34.259	00:30:34:15	7.048	V2685-01
identity-reference | self | 6, fail | nil | nil	stationary	Push Corer	410.71	2685	 	36.793175	-121.879486	1669792	0.99	2005-07-12 20:35:09.1	Ventana	34.261	00:32:43:14	7.065	V2685-01
population-density | self | dense	stationary	marine snow	410.1	2685	 	36.793194	-121.87948	1669793	0.99	2005-07-12 20:35:42.56	Ventana	34.258	00:33:16:26	7.065	V2685-01
population-density | self | dense	cruise	marine snow	410.33	2685	 	36.79321	-121.87947	1669794	0.96	2005-07-12 20:36:08.633	Ventana	34.27	00:33:42:28	7.007	V2685-01
identity-reference | self | 6, fail | nil | nil	stationary	Push Corer	410.29	2685	 	36.793205	-121.87947	1669796	0.95	2005-07-12 20:37:28.543	Ventana	34.265	00:35:02:08	6.992	V2685-01
population-density | self | dense	stationary	marine snow	410.31	2685	 	36.7932	-121.87947	1669797	0.95	2005-07-12 20:38:02.933	Ventana	34.265	00:35:36:18	6.996	V2685-01
population-density | self | dense	stationary	marine snow	410.25	2685	 	36.79321	-121.87947	1669798	0.96	2005-07-12 20:39:10.733	Ventana	34.266	00:36:44:25	6.997	V2685-01
sampled-by | Push Corer | nil, sample-reference | self | V2685-C6	stationary	sediment	410.24	2685	http://search.mbari.org/ARCHIVE/frameGrabs/Ventana/images/2685/00_37_21_22.jpg	36.79321	-121.87947	1669799	0.96	2005-07-12 20:39:47.0	Ventana	34.266	00:37:21:22	7.005	V2685-01
population-density | self | dense	cruise	marine snow	409.98	2685	 	36.79322	-121.87948	1669800	0.98	2005-07-12 20:41:17.8	Ventana	34.263	00:38:51:08	7.037	V2685-01
sampled-by | Push Corer | nil, sample-reference | self | V2685-C3	stationary	sediment	409.98	2685	http://search.mbari.org/ARCHIVE/frameGrabs/Ventana/images/2685/00_39_18_06.jpg	36.79323	-121.87947	1669801	0.97	2005-07-12 20:41:46.0	Ventana	34.261	00:39:18:06	7.035	V2685-01
fail | nil | nil	stationary	Push Corer	409.96	2685	http://search.mbari.org/ARCHIVE/frameGrabs/Ventana/images/2685/00_41_03_09.jpg	36.79319	-121.87946	1669802	0.93	2005-07-12 20:43:32.0	Ventana	34.269	00:41:03:09	6.956	V2685-01
dropped-by | manipulator | nil	stationary	Push Corer	409.93	2685	 	36.793198	-121.87947	1669803	0.93	2005-07-12 20:44:54.0	Ventana	34.268	00:42:27:23	6.943	V2685-01
population-density | self | dense	stationary	marine snow	409.91	2685	 	36.7932	-121.87947	1669804	0.92	2005-07-12 20:45:37.333	Ventana	34.271	00:43:11:01	6.939	V2685-01
population-density | self | dense	stationary	marine snow	409.92	2685	 	36.793205	-121.87947	1669805	0.93	2005-07-12 20:46:21.933	Ventana	34.27	00:43:55:18	6.945	V2685-01
population-density | self | dense	stationary	marine snow	409.9	2685	 	36.79321	-121.87947	1669806	0.93	2005-07-12 20:47:04.5	Ventana	34.27	00:44:38:18	6.945	V2685-01
retrieved | Push Corer | nil	stationary	manipulator	409.89	2685	 	36.793236	-121.87947	1669807	0.93	2005-07-12 20:48:37.0	Ventana	34.267	00:46:10:28	6.944	V2685-01
fail | nil | nil	stationary	Push Corer	380.74	2685	 	36.7932	-121.87935	1669809	1.0	2005-07-12 20:51:53.66	Ventana	34.26	00:49:26:29	7.075	V2685-01
population-density | self | dense	ascend	marine snow	348.34	2685	 	36.79309	-121.87941	1669810	1.03	2005-07-12 20:53:18.267	Ventana	34.255	00:50:52:00	7.116	V2685-01
population-density | self | dense	ascend	marine snow	347.17	2685	 	36.79311	-121.87963	1669811	1.04	2005-07-12 20:54:06.667	Ventana	34.256	00:51:39:10	7.137	V2685-01
population-density | self | dense	ascend	marine snow	345.76	2685	 	36.793137	-121.87973	1669812	1.05	2005-07-12 20:54:32.287	Ventana	34.254	00:52:04:28	7.147	V2685-01
population-density | self | dense	ascend	marine snow	343.36	2685	 	36.79317	-121.879814	1669813	1.05	2005-07-12 20:55:03.633	Ventana	34.254	00:52:36:22	7.153	V2685-01
identity-certainty | self | maybe, nil | nil | nil, relative-size | self | small, population-quantity | self | 999	ascend	Appendicularia	338.23	2685	 	36.793194	-121.879875	1669814	1.05	2005-07-12 20:55:22.8	Ventana	34.25	00:52:55:27	7.18	V2685-01
population-quantity | self | 999	ascend	sinker	327.61	2685	 	36.79325	-121.88001	1669815	1.1	2005-07-12 20:56:00.0	Ventana	34.241	00:53:33:05	7.3	V2685-01
image-quality | self | poor	ascend	lights	324.43	2685	 	36.793274	-121.88008	1669816	1.11	2005-07-12 20:56:17.0	Ventana	34.242	00:53:50:01	7.31	V2685-01
population-density | self | dense, relative-size | self | small	ascend	Appendicularia	255.19	2685	 	36.7936	-121.88119	1669818	1.48	2005-07-12 20:59:51.05	Ventana	34.179	00:57:23:26	8.038	V2685-01
population-quantity | self | 999	ascend	Nanomia bijuga	253.7	2685	 	36.793606	-121.88122	1669819	1.5	2005-07-12 20:59:58.0	Ventana	34.185	00:57:30:13	8.066	V2685-01
population-density | self | dense, relative-size | self | small	ascend	Appendicularia	245.84	2685	 	36.79364	-121.8814	1669820	1.6	2005-07-12 21:00:28.2	Ventana	34.16	00:58:01:14	8.238	V2685-01
population-density | self | dense, relative-size | self | small	ascend	Appendicularia	229.86	2685	 	36.793728	-121.88181	1669822	1.62	2005-07-12 21:01:33.643	Ventana	34.154	00:59:06:11	8.274	V2685-01
identity-reference | self | 5	cruise	probe	1017.96	2689	http://search.mbari.org/ARCHIVE/frameGrabs/Ventana/images/2689/00_39_36_12.jpg	36.77155	-122.08294	1669849	0.56	2005-07-18 17:16:36.0	Ventana	34.548	00:39:36:12	3.702	V2689-01
deployed-by | manipulator | nil	cruise	equipment	1017.93	2689	http://search.mbari.org/ARCHIVE/frameGrabs/Ventana/images/2689/00_41_32_22.jpg	36.771545	-122.08293	1669860	0.56	2005-07-18 17:18:32.0	Ventana	34.548	00:41:32:22	3.669	V2689-01
population-quantity | self | 999	cruise	equipment	1017.95	2689	http://search.mbari.org/ARCHIVE/frameGrabs/Ventana/images/2689/00_41_01_23.jpg	36.77154	-122.08294	1669856	0.55	2005-07-18 17:18:03.0	Ventana	34.549	00:41:01:23	3.682	V2689-01
sampled-by | Push Corer | nil, sample-reference | self | V2689-PC31	cruise	mud	1017.92	2689	http://search.mbari.org/ARCHIVE/frameGrabs/Ventana/images/2689/00_43_23_11.jpg	36.77154	-122.08293	1669869	0.54	2005-07-18 17:20:25.0	Ventana	34.537	00:43:23:11	3.754	V2689-01
sampled-by | Push Corer | nil, sample-reference | self | V2689-PC5	cruise	mud	1017.93	2689	http://search.mbari.org/ARCHIVE/frameGrabs/Ventana/images/2689/00_44_45_00.jpg	36.771545	-122.08295	1669872	0.54	2005-07-18 17:21:44.0	Ventana	34.538	00:44:45:00	3.761	V2689-01
deployed-by | manipulator | nil	cruise	equipment	1017.91	2689	http://search.mbari.org/ARCHIVE/frameGrabs/Ventana/images/2689/00_47_25_14.jpg	36.77155	-122.08295	1669876	0.54	2005-07-18 17:24:25.0	Ventana	34.537	00:47:25:14	3.76	V2689-01
population-density | self | dense, population-quantity | self | 999	cruise	Osedax	1017.91	2689	 	36.771557	-122.08295	1669880	0.53	2005-07-18 17:27:19.0	Ventana	34.528	00:50:21:08	3.808	V2689-01
sampled-by | manipulator | nil, sample-reference | self | V2689-01	cruise	bone	1017.9	2689	http://search.mbari.org/ARCHIVE/frameGrabs/Ventana/images/2689/00_50_36_25.jpg	36.771557	-122.08295	1669881	0.51	2005-07-18 17:27:39.0	Ventana	34.533	00:50:36:25	3.825	V2689-01
sample-reference | self | T2689-02, sampled-by | manipulator | nil	cruise	bone	1017.92	2689	http://search.mbari.org/ARCHIVE/frameGrabs/Ventana/images/2689/00_52_10_26.jpg	36.771557	-122.08294	1669883	0.51	2005-07-18 17:29:11.0	Ventana	34.538	00:52:10:26	3.816	V2689-01
sampled-by | Push Corer | nil, sample-reference | self | V2689-PC8	cruise	mud	1017.67	2689	http://search.mbari.org/ARCHIVE/frameGrabs/Ventana/images/2689/00_58_38_19.jpg	36.771606	-122.083015	1669898	0.5	2005-07-18 17:35:42.0	Ventana	34.531	00:58:38:19	3.833	V2689-01
population-density | self | dense	stationary	marine snow	208.39	2686	 	36.79371	-121.88108	1669916	1.7	2005-07-12 21:58:40.0	Ventana	34.132	01:05:49:17	8.401	V2686-01
sampled-by | Push Corer | nil, sample-reference | self | V2686-C11	stationary	sediment	208.32	2686	http://search.mbari.org/ARCHIVE/frameGrabs/Ventana/images/2686/01_06_36_05.jpg	36.79371	-121.88108	1669917	1.68	2005-07-12 21:59:26.0	Ventana	34.135	01:06:36:05	8.376	V2686-01
sample-reference | self | V2686-C3?, sampled-by | Push Corer | nil	stationary	sediment	208.18	2686	http://search.mbari.org/ARCHIVE/frameGrabs/Ventana/images/2686/01_07_40_18.jpg	36.79371	-121.88108	1669918	1.66	2005-07-12 22:00:35.0	Ventana	34.139	01:07:40:18	8.354	V2686-01
sample-reference | self | V2686-C4, sampled-by | Push Corer | nil	stationary	sediment	208.12	2686	http://search.mbari.org/ARCHIVE/frameGrabs/Ventana/images/2686/01_08_48_14.jpg	36.79371	-121.88108	1669922	1.67	2005-07-12 22:01:39.0	Ventana	34.136	01:08:48:14	8.365	V2686-01
population-density | self | dense	stationary	marine snow	208.05	2686	 	36.79371	-121.88108	1669923	1.67	2005-07-12 22:02:36.41	Ventana	34.14	01:09:46:05	8.365	V2686-01
perspective | self | close-up	stationary	mud	207.9	2686	 	36.79371	-121.88108	1669926	1.64	2005-07-12 22:04:22.767	Ventana	34.14	01:11:31:27	8.315	V2686-01
population-density | self | dense	cruise	marine snow	206.93	2686	 	36.79371	-121.88108	1669928	1.7	2005-07-12 22:04:51.967	Ventana	34.131	01:12:01:17	8.406	V2686-01
comment | self | not visible	cruise	benthos	207.32	2686	 	36.79371	-121.88108	1669929	1.66	2005-07-12 22:05:08.0	Ventana	34.137	01:12:17:09	8.319	V2686-01
population-density | self | dense	cruise	marine snow	207.27	2686	 	36.79371	-121.88108	1669930	1.63	2005-07-12 22:05:26.633	Ventana	34.145	01:12:36:06	8.294	V2686-01
comment | self | not visible	cruise	benthos	207.17	2686	 	36.79371	-121.88108	1669931	1.61	2005-07-12 22:05:45.933	Ventana	34.148	01:12:55:15	8.274	V2686-01
population-density | self | dense	stationary	marine snow	207.42	2686	 	36.79371	-121.88108	1669932	1.6	2005-07-12 22:06:03.6	Ventana	34.154	01:13:13:04	8.27	V2686-01
fail | nil | nil	stationary	Push Corer	207.42	2686	http://search.mbari.org/ARCHIVE/frameGrabs/Ventana/images/2686/01_14_34_07.jpg	36.79371	-121.88108	1669933	1.6	2005-07-12 22:07:27.0	Ventana	34.153	01:14:34:07	8.257	V2686-01
fail | nil | nil	stationary	Push Corer	207.33	2686	 	36.79371	-121.88108	1669934	1.6	2005-07-12 22:08:19.433	Ventana	34.152	01:15:28:25	8.257	V2686-01
population-density | self | dense	stationary	marine snow	207.29	2686	 	36.79371	-121.88108	1669935	1.6	2005-07-12 22:09:02.323	Ventana	34.152	01:16:11:20	8.257	V2686-01
population-density | self | dense	cruise	marine snow	206.89	2686	 	36.79371	-121.88108	1669936	1.6	2005-07-12 22:09:40.567	Ventana	34.151	01:16:49:26	8.257	V2686-01
fail | nil | nil	stationary	Push Corer	206.86	2686	 	36.79371	-121.88108	1669937	1.6	2005-07-12 22:10:15.367	Ventana	34.152	01:17:25:04	8.258	V2686-01
sample-reference | self | V2686-C24, sampled-by | Push Corer | nil	stationary	sediment	206.84	2686	http://search.mbari.org/ARCHIVE/frameGrabs/Ventana/images/2686/01_17_36_10.jpg	36.79371	-121.88108	1669938	1.6	2005-07-12 22:10:30.0	Ventana	34.15	01:17:36:10	8.263	V2686-01
sample-reference | self | V2686-C5, sampled-by | Push Corer | nil	stationary	sediment	206.81	2686	http://search.mbari.org/ARCHIVE/frameGrabs/Ventana/images/2686/01_18_38_15.jpg	36.79371	-121.88108	1669939	1.61	2005-07-12 22:11:32.0	Ventana	34.151	01:18:38:15	8.267	V2686-01
sample-reference | self | V2686-C27, sampled-by | Push Corer | nil	stationary	sediment	206.82	2686	http://search.mbari.org/ARCHIVE/frameGrabs/Ventana/images/2686/01_19_30_02.jpg	36.79371	-121.88108	1669940	1.59	2005-07-12 22:12:24.0	Ventana	34.154	01:19:30:02	8.255	V2686-01
population-density | self | dense	stationary	marine snow	206.79	2686	 	36.79371	-121.88108	1669941	1.61	2005-07-12 22:13:12.6	Ventana	34.149	01:20:22:05	8.265	V2686-01
comment | self | not visible	stationary	benthos	206.76	2686	 	0.0	0.0	1669942	1.6	2005-07-12 22:13:49.233	Ventana	34.154	01:20:58:23	8.258	V2686-01
relative-size | self | small, population-quantity | self | 999	ascend	Appendicularia	194.81	2686	 	0.0	0.0	1669943	1.81	2005-07-12 22:14:42.0	Ventana	34.108	01:21:51:09	8.578	V2686-01
relative-size | self | small, population-quantity | self | 999	ascend	Appendicularia	189.19	2686	 	0.0	0.0	1669944	1.88	2005-07-12 22:14:58.233	Ventana	34.101	01:22:07:06	8.651	V2686-01
comment | self | tape 2 of the day, tape 1 of this dive	stationary	benthos	208.41	2686	 	36.79371	-121.88108	1669914	1.7	2005-07-12 21:58:35.0	Ventana	34.127	01:05:45:08	8.418	V2686-01
relative-size | self | small, population-quantity | self | 999	ascend	Appendicularia	179.83	2686	 	0.0	0.0	1669945	1.9	2005-07-12 22:15:36.9	Ventana	34.096	01:22:45:25	8.684	V2686-01
relative-size | self | small, population-quantity | self | 999	ascend	Appendicularia	174.26	2686	 	0.0	0.0	1669946	1.95	2005-07-12 22:16:01.71	Ventana	34.09	01:23:10:19	8.73	V2686-01
relative-size | self | small, population-quantity | self | 999	ascend	Appendicularia	163.19	2686	 	0.0	0.0	1669947	1.96	2005-07-12 22:16:44.367	Ventana	34.086	01:23:53:22	8.742	V2686-01
relative-size | self | small, population-quantity | self | 999	ascend	Appendicularia	152.87	2686	 	0.0	0.0	1669948	1.97	2005-07-12 22:17:28.833	Ventana	34.086	01:24:37:05	8.765	V2686-01
population-quantity | self | 999	descend	Merluccius productus	303.81	2690	 	36.790207	-121.887375	1669949	1.14	2005-07-18 19:45:15.0	Ventana	34.237	01:00:23:00	7.287	V2690-01
relative-size | self | small, population-quantity | self | 999	ascend	Appendicularia	144.28	2686	 	0.0	0.0	1669950	2.03	2005-07-12 22:18:06.373	Ventana	34.082	01:25:15:05	8.841	V2686-01
population-quantity | self | 999	descend	Appendicularia	310.35	2690	 	36.790207	-121.88738	1669951	1.09	2005-07-18 19:45:27.0	Ventana	34.244	01:00:34:19	7.222	V2690-01
population-quantity | self | 999	descend	Merluccius productus	312.56	2690	 	36.79021	-121.88738	1669952	1.09	2005-07-18 19:45:31.0	Ventana	34.244	01:00:39:01	7.222	V2690-01
identity-certainty | self | maybe	descend	Solmissus	348.39	2690	 	36.79025	-121.88755	1669955	0.97	2005-07-18 19:46:43.0	Ventana	34.264	01:01:50:26	6.968	V2690-01
population-quantity | self | 999	cruise	Merluccius productus	382.74	2690	 	36.790134	-121.88782	1669974	0.94	2005-07-18 19:49:17.0	Ventana	34.27	01:04:24:23	6.946	V2690-01
identity-reference | self | 1	cruise	whale carcass	381.28	2690	http://search.mbari.org/ARCHIVE/frameGrabs/Ventana/images/2690/01_10_54_04.jpg	36.79015	-121.88731	1670264	0.94	2005-07-18 19:55:49.0	Ventana	34.268	01:10:54:04	6.96	V2690-01
identity-reference | self | 99	cruise	Homerpro	380.02	2690	http://search.mbari.org/ARCHIVE/frameGrabs/Ventana/images/2690/01_11_46_07.jpg	36.790157	-121.88725	1670265	0.94	2005-07-18 19:56:41.0	Ventana	34.268	01:11:46:07	6.959	V2690-01
identity-reference | self | 1	cruise	whale carcass	381.99	2690	http://search.mbari.org/ARCHIVE/frameGrabs/Ventana/images/2690/01_13_18_03.jpg	36.79013	-121.887215	1670266	0.94	2005-07-18 19:58:16.0	Ventana	34.268	01:13:18:03	6.959	V2690-01
identity-reference | self | 1	cruise	whale carcass	382.1	2690	http://search.mbari.org/ARCHIVE/frameGrabs/Ventana/images/2690/01_13_43_21.jpg	36.790127	-121.887215	1670267	0.94	2005-07-18 19:58:39.0	Ventana	34.269	01:13:43:21	6.957	V2690-01
population-quantity | self | 999, perspective | self | close-up	cruise	Vertebrata	381.76	2690	http://search.mbari.org/ARCHIVE/frameGrabs/Ventana/images/2690/01_17_22_08.jpg	36.79013	-121.8872	20005438	0.94	2005-07-18 20:02:16.0	Ventana	34.268	01:17:22:08	6.969	V2690-01
perspective | self | close-up	cruise	Vertebrata	381.6	2690	http://search.mbari.org/ARCHIVE/frameGrabs/Ventana/images/2690/01_17_40_23.jpg	36.79013	-121.8872	20005439	0.95	2005-07-18 20:02:34.0	Ventana	34.268	01:17:40:23	6.972	V2690-01
perspective | self | close-up	cruise	Vertebrata	381.52	2690	http://search.mbari.org/ARCHIVE/frameGrabs/Ventana/images/2690/01_17_55_22.jpg	36.79013	-121.8872	20005440	0.95	2005-07-18 20:02:50.0	Ventana	34.267	01:17:55:22	6.97	V2690-01
population-quantity | self | 999	cruise	Vertebrata	381.82	2690	http://search.mbari.org/ARCHIVE/frameGrabs/Ventana/images/2690/01_17_12_23.jpg	36.790134	-121.8872	20005436	0.95	2005-07-18 20:02:06.0	Ventana	34.267	01:17:12:23	6.97	V2690-01
population-quantity | self | 999	cruise	Vertebrata	381.54	2690	http://search.mbari.org/ARCHIVE/frameGrabs/Ventana/images/2690/01_20_19_03.jpg	36.79013	-121.887184	20005445	0.95	2005-07-18 20:05:13.0	Ventana	34.268	01:20:19:03	6.977	V2690-01
population-quantity | self | 999	cruise	Vertebrata	381.59	2690	http://search.mbari.org/ARCHIVE/frameGrabs/Ventana/images/2690/01_18_53_05.jpg	36.79013	-121.8872	20005442	0.94	2005-07-18 20:03:46.0	Ventana	34.268	01:18:53:05	6.969	V2690-01
population-quantity | self | 999	cruise	Vertebrata	381.54	2690	http://search.mbari.org/ARCHIVE/frameGrabs/Ventana/images/2690/01_18_11_06.jpg	36.79013	-121.8872	20005441	0.94	2005-07-18 20:03:04.0	Ventana	34.267	01:18:11:06	6.969	V2690-01
population-quantity | self | 999	cruise	Vertebrata	381.24	2690	http://search.mbari.org/ARCHIVE/frameGrabs/Ventana/images/2690/01_16_38_24.jpg	36.79013	-121.88721	20005435	0.94	2005-07-18 20:01:34.0	Ventana	34.266	01:16:38:24	6.972	V2690-01
comment | self | epiphyseal plates, perspective | self | close-up	cruise	Vertebrata	381.53	2690	http://search.mbari.org/ARCHIVE/frameGrabs/Ventana/images/2690/01_20_58_16.jpg	36.79013	-121.88718	20005446	0.95	2005-07-18 20:05:53.0	Ventana	34.266	01:20:58:16	6.992	V2690-01
population-quantity | self | 999	cruise	Vertebrata	381.56	2690	http://search.mbari.org/ARCHIVE/frameGrabs/Ventana/images/2690/01_21_18_00.jpg	36.79013	-121.88718	20005447	0.95	2005-07-18 20:06:11.0	Ventana	34.265	01:21:18:00	6.992	V2690-01
population-quantity | self | 999	cruise	Vertebrata	381.56	2690	http://search.mbari.org/ARCHIVE/frameGrabs/Ventana/images/2690/01_21_44_15.jpg	36.790127	-121.887184	20005448	0.95	2005-07-18 20:06:39.0	Ventana	34.265	01:21:44:15	6.997	V2690-01
identity-reference | self | 1, perspective | self | close-up	cruise	whale carcass	381.59	2690	http://search.mbari.org/ARCHIVE/frameGrabs/Ventana/images/2690/01_22_22_14.jpg	36.790127	-121.887184	20005449	0.96	2005-07-18 20:07:17.0	Ventana	34.265	01:22:22:14	6.995	V2690-01
holding | bone | nil	cruise	manipulator	381.57	2690	http://search.mbari.org/ARCHIVE/frameGrabs/Ventana/images/2690/01_25_10_12.jpg	36.790092	-121.88719	1670342	0.96	2005-07-18 20:10:06.0	Ventana	34.266	01:25:10:12	6.999	V2690-01
holding | equipment | nil	cruise	manipulator	381.58	2690	http://search.mbari.org/ARCHIVE/frameGrabs/Ventana/images/2690/01_26_10_11.jpg	36.790085	-121.8872	1670343	0.96	2005-07-18 20:11:06.0	Ventana	34.264	01:26:10:11	6.998	V2690-01
deployed-by | manipulator | nil	cruise	equipment	381.58	2690	http://search.mbari.org/ARCHIVE/frameGrabs/Ventana/images/2690/01_26_52_16.jpg	36.790092	-121.8872	1670344	0.95	2005-07-18 20:11:48.0	Ventana	34.265	01:26:52:16	6.993	V2690-01
touching | bone | nil	cruise	manipulator	381.57	2690	http://search.mbari.org/ARCHIVE/frameGrabs/Ventana/images/2690/01_29_47_00.jpg	36.790157	-121.8872	20005451	0.95	2005-07-18 20:14:42.0	Ventana	34.266	01:29:47:00	6.999	V2690-01
population-quantity | self | 999	cruise	Vertebrata	381.58	2690	http://search.mbari.org/ARCHIVE/frameGrabs/Ventana/images/2690/01_30_44_28.jpg	36.79018	-121.8872	20005452	0.96	2005-07-18 20:15:40.0	Ventana	34.265	01:30:44:28	7.01	V2690-01
sampled-by | Push Corer | nil, sample-reference | self | V2690-PC30	cruise	mud	381.48	2690	http://search.mbari.org/ARCHIVE/frameGrabs/Ventana/images/2690/01_33_22_18.jpg	36.790173	-121.887276	1670345	0.97	2005-07-18 20:18:21.0	Ventana	34.263	01:33:22:18	7.027	V2690-01
sampled-by | Push Corer | nil, sample-reference | self | T2690-PC	cruise	mud	381.48	2690	http://search.mbari.org/ARCHIVE/frameGrabs/Ventana/images/2690/01_34_32_07.jpg	36.79016	-121.88731	1670346	0.97	2005-07-18 20:19:31.0	Ventana	34.261	01:34:32:07	7.032	V2690-01
population-quantity | self | 999	cruise	Vertebrata	381.38	2690	http://search.mbari.org/ARCHIVE/frameGrabs/Ventana/images/2690/01_37_26_17.jpg	36.79013	-121.88731	20005454	0.98	2005-07-18 20:22:22.0	Ventana	34.262	01:37:26:17	7.042	V2690-01
comment | self | epiphyseal plates, population-quantity | self | 999	cruise	bone	381.38	2690	http://search.mbari.org/ARCHIVE/frameGrabs/Ventana/images/2690/01_37_37_16.jpg	36.79013	-121.88731	20005456	0.98	2005-07-18 20:22:32.0	Ventana	34.262	01:37:37:16	7.044	V2690-01
population-quantity | self | 999	cruise	bone	381.37	2690	http://search.mbari.org/ARCHIVE/frameGrabs/Ventana/images/2690/01_37_32_01.jpg	36.79013	-121.88731	20005455	0.98	2005-07-18 20:22:28.0	Ventana	34.262	01:37:32:01	7.044	V2690-01
sample-reference | self | T2690-A2, comment | self | epiphyseal plate, sampled-by | manipulator | nil	cruise	bone	381.42	2690	http://search.mbari.org/ARCHIVE/frameGrabs/Ventana/images/2690/01_39_13_28.jpg	36.790108	-121.88729	20005457	0.98	2005-07-18 20:24:08.0	Ventana	34.262	01:39:13:28	7.04	V2690-01
sampled-by | Push Corer | nil, sample-reference | self | V2690-PC3	cruise	mud	381.37	2690	http://search.mbari.org/ARCHIVE/frameGrabs/Ventana/images/2690/01_40_55_25.jpg	36.790096	-121.887276	20005460	0.98	2005-07-18 20:25:51.0	Ventana	34.262	01:40:55:25	7.04	V2690-01
surface-color | self | black	cruise	mud	381.37	2690	http://search.mbari.org/ARCHIVE/frameGrabs/Ventana/images/2690/01_40_51_25.jpg	36.790096	-121.887276	20005459	0.98	2005-07-18 20:25:47.0	Ventana	34.262	01:40:51:25	7.04	V2690-01
identity-reference | self | 3, state | self | full	cruise	Push Corer	381.37	2690	http://search.mbari.org/ARCHIVE/frameGrabs/Ventana/images/2690/01_41_04_24.jpg	36.790092	-121.887276	20005461	0.98	2005-07-18 20:25:59.0	Ventana	34.262	01:41:04:24	7.041	V2690-01
identity-reference | self | 1	cruise	whale carcass	381.49	2690	http://search.mbari.org/ARCHIVE/frameGrabs/Ventana/images/2690/01_43_26_05.jpg	36.790108	-121.887314	20005463	0.98	2005-07-18 20:28:22.0	Ventana	34.261	01:43:26:05	7.045	V2690-01
identity-reference | self | 1	cruise	whale carcass	381.27	2690	http://search.mbari.org/ARCHIVE/frameGrabs/Ventana/images/2690/01_36_13_03.jpg	36.79013	-121.88734	20005453	0.98	2005-07-18 20:21:07.0	Ventana	34.263	01:36:13:03	7.042	V2690-01
identity-reference | self | 28, state | self | full	cruise	Push Corer	381.52	2690	http://search.mbari.org/ARCHIVE/frameGrabs/Ventana/images/2690/01_45_48_16.jpg	36.790146	-121.887405	20005465	0.98	2005-07-18 20:30:44.0	Ventana	34.262	01:45:48:16	7.05	V2690-01
sampled-by | Push Corer | nil, sample-reference | self | V2690-PC28	cruise	mud	381.52	2690	http://search.mbari.org/ARCHIVE/frameGrabs/Ventana/images/2690/01_45_43_16.jpg	36.790146	-121.887405	20005464	0.98	2005-07-18 20:30:38.0	Ventana	34.262	01:45:43:16	7.05	V2690-01
identity-certainty | self | maybe	cruise	Anoplopoma fimbria	381.19	2690	 	36.79002	-121.8875	1670550	0.98	2005-07-18 20:32:53.0	Ventana	34.259	01:47:58:15	7.057	V2690-01
deployed-by | manipulator | nil	cruise	anchor	502.76	2694	 	36.78448	-122.20043	1676171	0.75	2005-07-27 17:13:10.0	Ventana	34.288	00:06:18:13	6.477	V2694-01
identity-reference | self | FOCE	stationary	equipment	499.38	2694	 	36.784557	-122.20046	1676177	0.76	2005-07-27 17:15:23.0	Ventana	34.286	00:08:31:05	6.476	V2694-01
grabbing | line | nil	stationary	manipulator	501.84	2694	 	36.78469	-122.20052	1676181	0.76	2005-07-27 17:27:06.0	Ventana	34.284	00:20:13:20	6.468	V2694-01
grabbing | cable | nil	stationary	manipulator	501.81	2694	 	36.78456	-122.200485	1676183	0.77	2005-07-27 17:36:13.533	Ventana	34.286	00:29:20:20	6.46	V2694-01
holding | connector | nil	stationary	manipulator	501.79	2694	 	36.784546	-122.20049	1676184	0.79	2005-07-27 17:38:12.0	Ventana	34.287	00:31:19:03	6.46	V2694-01
attaching-to | ROV | nil	stationary	connector	501.79	2694	 	36.784546	-122.20049	1676186	0.73	2005-07-27 17:40:59.0	Ventana	34.286	00:34:05:17	6.46	V2694-01
population-quantity | self | 999	descend	Merluccius productus	213.69	2676	 	36.805096	-122.0318	1676195	1.6	2005-06-14 16:15:56.0	Ventana	34.195	00:00:06:17	8.097	V2676-01
population-density | self | dense, population-quantity | self | 999	descend	Appendicularia	218.71	2676	 	36.805096	-122.0318	1676199	1.6	2005-06-14 16:16:06.0	Ventana	34.195	00:00:16:18	8.097	V2676-01
population-quantity | self | 999	descend	Merluccius productus	236.13	2676	 	36.8051	-122.0318	1676201	1.5	2005-06-14 16:16:42.0	Ventana	34.211	00:00:51:24	7.929	V2676-01
population-quantity | self | 999	descend	Appendicularia	255.34	2676	 	36.805122	-122.0318	1676205	1.52	2005-06-14 16:17:22.0	Ventana	34.207	00:01:31:24	7.95	V2676-01
identity-certainty | self | maybe	cruise	Phialidium	305.09	2676	 	36.805103	-122.03164	1676215	1.25	2005-06-14 16:20:45.0	Ventana	34.231	00:04:55:13	7.59	V2676-01
population-density | self | dense, population-quantity | self | 999	cruise	Pasiphaea	317.79	2676	 	36.804916	-122.03151	1676220	1.24	2005-06-14 16:21:22.533	Ventana	34.234	00:05:32:12	7.559	V2676-01
population-quantity | self | 999	cruise	Appendicularia	324.62	2676	 	36.804813	-122.03141	1676223	1.23	2005-06-14 16:21:41.0	Ventana	34.236	00:05:50:17	7.522	V2676-01
population-quantity | self | 999	cruise	Appendicularia	327.39	2676	 	36.80477	-122.03137	1676225	1.23	2005-06-14 16:21:48.0	Ventana	34.236	00:05:58:04	7.522	V2676-01
population-quantity | self | 999	cruise	Pasiphaea	328.72	2676	 	36.80475	-122.03135	1676227	1.22	2005-06-14 16:21:53.0	Ventana	34.238	00:06:02:29	7.509	V2676-01
population-quantity | self | 999	cruise	Pasiphaea	339.37	2676	 	36.804585	-122.03119	1676231	1.2	2005-06-14 16:22:24.4	Ventana	34.239	00:06:33:06	7.461	V2676-01
population-quantity | self | 999	cruise	Zoarcidae	358.26	2676	 	36.804317	-122.030945	1676237	1.06	2005-06-14 16:23:16.0	Ventana	34.258	00:07:25:23	7.22	V2676-01
population-quantity | self | 999	cruise	Appendicularia	364.66	2676	 	36.804222	-122.03085	1676238	1.05	2005-06-14 16:23:34.0	Ventana	34.257	00:07:43:18	7.205	V2676-01
population-density | self | dense, population-quantity | self | 999	cruise	Zoarcidae	372.07	2676	 	36.804104	-122.03074	1676240	0.97	2005-06-14 16:23:56.0	Ventana	34.266	00:08:05:24	7.064	V2676-01
population-quantity | self | 999	cruise	Pasiphaea	387.78	2676	 	36.803867	-122.03052	1676241	0.89	2005-06-14 16:24:45.333	Ventana	34.278	00:08:55:00	6.939	V2676-01
population-quantity | self | 999	cruise	Zoarcidae	401.97	2676	 	36.803593	-122.03028	1676245	0.83	2005-06-14 16:25:32.0	Ventana	34.286	00:09:41:11	6.812	V2676-01
population-quantity | self | 999	cruise	Phialidium	416.57	2676	 	36.80338	-122.03009	1676247	0.74	2005-06-14 16:26:20.0	Ventana	34.298	00:10:29:02	6.642	V2676-01
population-density | self | dense, population-quantity | self | 999	cruise	Appendicularia	419.09	2676	 	36.80334	-122.03005	1676248	0.74	2005-06-14 16:26:27.0	Ventana	34.298	00:10:36:20	6.641	V2676-01
population-quantity | self | 999	cruise	Phialidium	434.71	2676	 	36.803154	-122.02981	1676250	0.69	2005-06-14 16:27:19.267	Ventana	34.309	00:11:28:08	6.517	V2676-01
population-density | self | dense, population-quantity | self | 999	cruise	Appendicularia	446.42	2676	 	36.802933	-122.029655	1676251	0.59	2005-06-14 16:27:53.467	Ventana	34.329	00:12:02:28	6.252	V2676-01
identity-certainty | self | maybe	cruise	Mediaster	472.04	2676	 	36.80232	-122.02936	1676260	0.56	2005-06-14 16:32:37.0	Ventana	34.338	00:16:46:06	6.147	V2676-01
identity-certainty | self | maybe	cruise	Sebastolobus	471.49	2676	 	36.80234	-122.02936	1676264	0.56	2005-06-14 16:32:59.0	Ventana	34.339	00:17:08:11	6.142	V2676-01
identity-certainty | self | maybe, population-quantity | self | 2	cruise	Mediaster	471.34	2676	 	36.802353	-122.02936	1676267	0.56	2005-06-14 16:33:05.933	Ventana	34.339	00:17:14:17	6.142	V2676-01
population-quantity | self | 2	cruise	Rathbunaster californicus	471.07	2676	http://search.mbari.org/ARCHIVE/frameGrabs/Ventana/images/2676/00_17_20_20.jpg	36.802364	-122.029366	1676270	0.56	2005-06-14 16:33:13.0	Ventana	34.337	00:17:20:20	6.154	V2676-01
population-quantity | self | 999	cruise	Ophiurida	469.73	2676	 	36.80243	-122.02938	1676275	0.56	2005-06-14 16:33:43.0	Ventana	34.336	00:17:52:08	6.159	V2676-01
population-quantity | self | 999	cruise	Ophiurida	469.41	2676	http://search.mbari.org/ARCHIVE/frameGrabs/Ventana/images/2676/00_18_08_28.jpg	36.80248	-122.02939	1676279	0.56	2005-06-14 16:34:01.0	Ventana	34.337	00:18:08:28	6.158	V2676-01
bioturbated | nil | nil, contains | shell fragment | nil	cruise	mud	463.56	2676	 	36.802658	-122.029366	1676292	0.57	2005-06-14 16:35:05.0	Ventana	34.332	00:19:13:25	6.197	V2676-01
identity-certainty | self | maybe	cruise	Mediaster	462.23	2676	 	36.802692	-122.02935	1676295	0.58	2005-06-14 16:35:15.0	Ventana	34.34	00:19:24:14	6.231	V2676-01
identity-certainty | self | maybe	cruise	Mediaster	461.56	2676	 	36.80271	-122.02934	1676298	0.58	2005-06-14 16:35:20.0	Ventana	34.34	00:19:29:10	6.231	V2676-01
curled-around-by | Asteronyx | nil	cruise	Pennatulacea	458.42	2676	http://search.mbari.org/ARCHIVE/frameGrabs/Ventana/images/2676/00_19_56_25.jpg	36.802803	-122.02932	1676305	0.6	2005-06-14 16:35:48.0	Ventana	34.324	00:19:56:25	6.285	V2676-01
identity-certainty | self | maybe	cruise	marine organism	457.18	2676	 	36.80283	-122.029305	1676309	0.59	2005-06-14 16:35:58.0	Ventana	34.326	00:20:07:10	6.241	V2676-01
identity-certainty | self | maybe	cruise	Microstomus pacificus	453.73	2676	http://search.mbari.org/ARCHIVE/frameGrabs/Ventana/images/2676/00_20_33_25.jpg	36.80289	-122.02929	1676319	0.61	2005-06-14 16:36:26.0	Ventana	34.323	00:20:33:25	6.332	V2676-01
contains | Psolus | nil	descend	rock outcrop	450.34	2676	http://search.mbari.org/ARCHIVE/frameGrabs/Ventana/images/2676/00_21_25_11.jpg	36.802982	-122.02927	20003903	0.62	2005-06-14 16:37:17.0	Ventana	34.321	00:21:25:11	6.332	V2676-01
contains | Psolus | nil	cruise	rock outcrop	450.25	2676	http://search.mbari.org/ARCHIVE/frameGrabs/Ventana/images/2676/00_21_19_24.jpg	36.802975	-122.02927	1676330	0.62	2005-06-14 16:37:12.0	Ventana	34.321	00:21:19:24	6.332	V2676-01
identity-certainty | self | maybe	descend	Glyptocephalus zachirus	443.41	2676	http://search.mbari.org/ARCHIVE/frameGrabs/Ventana/images/2676/00_23_06_23.jpg	36.80315	-122.02924	20003905	0.63	2005-06-14 16:39:04.0	Ventana	34.334	00:23:06:23	6.371	V2676-01
population-quantity | self | 999	cruise	Pannychia moseleyi	446.32	2676	http://search.mbari.org/ARCHIVE/frameGrabs/Ventana/images/2676/00_22_33_06.jpg	36.80308	-122.02924	1676334	0.61	2005-06-14 16:38:25.0	Ventana	34.325	00:22:33:06	6.327	V2676-01
population-quantity | self | 999	descend	Pannychia moseleyi	442.26	2676	http://search.mbari.org/ARCHIVE/frameGrabs/Ventana/images/2676/00_23_23_08.jpg	36.803173	-122.02924	20003907	0.64	2005-06-14 16:39:16.0	Ventana	34.318	00:23:23:08	6.4	V2676-01
population-quantity | self | 999	cruise	Rathbunaster californicus	443.41	2676	 	36.80315	-122.02924	1676345	0.63	2005-06-14 16:39:03.0	Ventana	34.334	00:23:11:18	6.371	V2676-01
population-quantity | self | 999	cruise	Pannychia moseleyi	440.96	2676	 	36.80319	-122.02924	1676352	0.64	2005-06-14 16:39:24.0	Ventana	34.312	00:23:33:02	6.37	V2676-01
identity-certainty | self | maybe	cruise	Microstomus pacificus	441.78	2676	 	36.80318	-122.02924	1676350	0.64	2005-06-14 16:39:19.0	Ventana	34.318	00:23:27:11	6.4	V2676-01
population-quantity | self | 999	descend	rock outcrop	440.42	2676	http://search.mbari.org/ARCHIVE/frameGrabs/Ventana/images/2676/00_23_35_22.jpg	36.8032	-122.02924	20003908	0.64	2005-06-14 16:39:28.0	Ventana	34.312	00:23:35:22	6.37	V2676-01
contains | Psolus | nil	cruise	rock outcrop	437.87	2676	http://search.mbari.org/ARCHIVE/frameGrabs/Ventana/images/2676/00_24_13_06.jpg	36.80327	-122.02925	20003909	0.64	2005-06-14 16:40:06.0	Ventana	34.316	00:24:13:06	6.387	V2676-01
population-quantity | self | 999	cruise	Ophiurida	439.89	2676	 	36.803207	-122.02924	1676355	0.64	2005-06-14 16:39:31.0	Ventana	34.312	00:23:39:22	6.37	V2676-01
population-quantity | self | 999	cruise	Pannychia moseleyi	439.51	2676	 	36.803223	-122.02924	1676357	0.63	2005-06-14 16:39:40.0	Ventana	34.327	00:23:49:06	6.38	V2676-01
identity-certainty | self | maybe	cruise	Macrouridae	437.87	2676	 	36.80327	-122.02925	1676371	0.64	2005-06-14 16:40:05.0	Ventana	34.316	00:24:13:24	6.387	V2676-01
population-quantity | self | 999	cruise	Pannychia moseleyi	436.99	2676	http://search.mbari.org/ARCHIVE/frameGrabs/Ventana/images/2676/00_24_22_15.jpg	36.803288	-122.02926	1676393	0.64	2005-06-14 16:40:15.0	Ventana	34.316	00:24:22:15	6.383	V2676-01
population-quantity | self | 999	cruise	Psolus squamatus	433.26	2676	 	36.803406	-122.029236	1676402	0.66	2005-06-14 16:41:14.0	Ventana	34.31	00:25:22:22	6.464	V2676-01
identity-certainty | self | maybe	cruise	Microstomus pacificus	432.79	2676	http://search.mbari.org/ARCHIVE/frameGrabs/Ventana/images/2676/00_25_26_20.jpg	36.80342	-122.029236	1676405	0.66	2005-06-14 16:41:19.0	Ventana	34.31	00:25:26:20	6.464	V2676-01
identity-certainty | self | maybe	cruise	Microstomus pacificus	431.57	2676	 	36.80344	-122.029236	1676407	0.67	2005-06-14 16:41:27.467	Ventana	34.313	00:25:36:03	6.466	V2676-01
population-quantity | self | 999	cruise	Psolus squamatus	429.05	2676	 	36.803493	-122.02923	1676411	0.67	2005-06-14 16:41:48.567	Ventana	34.311	00:25:56:05	6.476	V2676-01
population-quantity | self | 999	cruise	Sebastolobus	428.82	2676	 	36.8035	-122.02923	1676412	0.67	2005-06-14 16:41:50.0	Ventana	34.311	00:25:58:25	6.476	V2676-01
population-quantity | self | 999	cruise	rock outcrop	429.56	2676	http://search.mbari.org/ARCHIVE/frameGrabs/Ventana/images/2676/00_25_52_03.jpg	36.803486	-122.02923	20003914	0.67	2005-06-14 16:41:45.0	Ventana	34.311	00:25:52:03	6.476	V2676-01
population-quantity | self | 999	cruise	rock outcrop	432.1	2676	http://search.mbari.org/ARCHIVE/frameGrabs/Ventana/images/2676/00_25_33_18.jpg	36.80343	-122.029236	20003913	0.67	2005-06-14 16:41:24.0	Ventana	34.313	00:25:33:18	6.466	V2676-01
population-quantity | self | 999	cruise	boulder	421.01	2676	http://search.mbari.org/ARCHIVE/frameGrabs/Ventana/images/2676/00_26_45_17.jpg	36.803673	-122.02921	20003916	0.68	2005-06-14 16:42:37.0	Ventana	34.311	00:26:45:17	6.496	V2676-01
population-quantity | self | 999	cruise	Pleuronectiformes	427.19	2676	 	36.80354	-122.02922	1676416	0.67	2005-06-14 16:42:03.0	Ventana	34.311	00:26:12:03	6.482	V2676-01
population-quantity | self | 999	cruise	Ophiurida	426.26	2676	 	36.803562	-122.02922	1676417	0.68	2005-06-14 16:42:08.0	Ventana	34.31	00:26:16:09	6.489	V2676-01
population-quantity | self | 999	cruise	Lycodes	418.8	2676	 	36.803722	-122.02921	1676427	0.68	2005-06-14 16:42:48.333	Ventana	34.307	00:26:56:11	6.498	V2676-01
population-quantity | self | 999	cruise	Pleuronectiformes	418.8	2676	 	36.803722	-122.02921	1676428	0.68	2005-06-14 16:42:48.0	Ventana	34.307	00:26:56:13	6.498	V2676-01
population-quantity | self | 999	cruise	pebble	406.15	2676	http://search.mbari.org/ARCHIVE/frameGrabs/Ventana/images/2676/00_27_58_29.jpg	36.804	-122.029205	20003919	0.72	2005-06-14 16:43:51.0	Ventana	34.312	00:27:58:29	6.641	V2676-01
population-quantity | self | 999	cruise	boulder	406.15	2676	http://search.mbari.org/ARCHIVE/frameGrabs/Ventana/images/2676/00_27_58_29.jpg	36.804	-122.029205	1676432	0.72	2005-06-14 16:43:51.0	Ventana	34.312	00:27:58:29	6.641	V2676-01
population-quantity | self | 999	cruise	pebble	421.01	2676	http://search.mbari.org/ARCHIVE/frameGrabs/Ventana/images/2676/00_26_45_17.jpg	36.803673	-122.02921	1676435	0.68	2005-06-14 16:42:37.0	Ventana	34.311	00:26:45:17	6.496	V2676-01
population-quantity | self | 999	cruise	Lycodes	413.42	2676	 	36.80386	-122.02921	1676447	0.68	2005-06-14 16:43:20.1	Ventana	34.309	00:27:28:03	6.499	V2676-01
population-quantity | self | 999	cruise	Allocentrotus fragilis	411.03	2676	 	36.803905	-122.029205	1676454	0.69	2005-06-14 16:43:30.633	Ventana	34.308	00:27:38:19	6.547	V2676-01
population-quantity | self | 999	cruise	Allocentrotus fragilis	408.61	2676	 	36.803947	-122.029205	1676457	0.72	2005-06-14 16:43:41.1	Ventana	34.312	00:27:49:02	6.641	V2676-01
population-quantity | self | 999	cruise	Psolus squamatus	389.63	2676	 	36.804276	-122.02919	1676468	0.86	2005-06-14 16:44:49.427	Ventana	34.281	00:28:57:25	6.902	V2676-01
population-quantity | self | 999	cruise	Psolus squamatus	405.56	2676	 	36.80401	-122.029205	1676459	0.77	2005-06-14 16:43:53.0	Ventana	34.303	00:28:01:16	6.762	V2676-01
population-quantity | self | 999	cruise	Allocentrotus fragilis	380.07	2676	 	36.80439	-122.02916	1676469	0.92	2005-06-14 16:45:19.18	Ventana	34.274	00:29:26:17	7.015	V2676-01
curling | nil | nil	cruise	Lycodapus	378.87	2676	 	36.8044	-122.02916	1676477	0.94	2005-06-14 16:45:23.0	Ventana	34.269	00:29:31:15	7.032	V2676-01
curling | nil | nil	cruise	Lycodapus	373.27	2676	 	36.80446	-122.02911	1676481	0.94	2005-06-14 16:45:44.333	Ventana	34.271	00:29:51:21	7.034	V2676-01
contains | Psolus | nil	cruise	rock outcrop	371.92	2676	http://search.mbari.org/ARCHIVE/frameGrabs/Ventana/images/2676/00_29_54_29.jpg	36.804466	-122.029106	1676483	0.94	2005-06-14 16:45:48.0	Ventana	34.271	00:29:54:29	7.034	V2676-01
curling | nil | nil	cruise	Lycodapus	366.95	2676	 	36.804512	-122.02908	1676491	0.95	2005-06-14 16:46:04.8	Ventana	34.27	00:30:12:19	7.042	V2676-01
population-quantity | self | 999	cruise	Allocentrotus fragilis	365.0	2676	 	36.80453	-122.029076	1676493	0.95	2005-06-14 16:46:10.2	Ventana	34.271	00:30:18:01	7.046	V2676-01
curling | nil | nil	cruise	Lycodapus	359.3	2676	 	36.80459	-122.02905	1676501	0.96	2005-06-14 16:46:29.567	Ventana	34.268	00:30:37:11	7.072	V2676-01
relative-size | self | large, contains | Psolus | nil	cruise	rock outcrop	358.18	2676	http://search.mbari.org/ARCHIVE/frameGrabs/Ventana/images/2676/00_30_40_09.jpg	36.8046	-122.029045	1676503	0.96	2005-06-14 16:46:33.0	Ventana	34.268	00:30:40:09	7.072	V2676-01
identity-reference | self | FOCE	stationary	equipment	501.87	2694	 	36.784557	-122.200485	1676563	0.79	2005-07-27 18:22:41.0	Ventana	34.28	01:05:51:07	6.57	V2694-02
holding | probe | nil	stationary	manipulator	501.92	2694	 	36.78454	-122.20048	1676567	0.77	2005-07-27 18:35:43.0	Ventana	34.281	01:18:25:13	6.536	V2694-02
holding | probe | nil	stationary	manipulator	501.98	2694	 	36.784637	-122.20049	1676573	0.78	2005-07-27 18:50:03.867	Ventana	34.28	01:32:44:14	6.543	V2694-02
population-quantity | self | 999	cruise	Actiniaria	357.7	2676	 	36.80467	-122.029015	1676578	0.96	2005-06-14 16:47:21.0	Ventana	34.268	00:31:28:28	7.072	V2676-01
curling | nil | nil	cruise	Lycodapus	358.71	2676	 	36.804684	-122.029	1676583	0.99	2005-06-14 16:49:43.567	Ventana	34.27	00:33:51:05	7.109	V2676-01
population-quantity | self | 999	cruise	Parastichopus	359.55	2676	 	36.804672	-122.029	1676585	1.1	2005-06-14 16:52:21.0	Ventana	34.259	00:36:28:26	7.251	V2676-01
sample-reference | self | V2676-PC6, sampled-by | Push Corer | nil	cruise	mud	359.58	2676	http://search.mbari.org/ARCHIVE/frameGrabs/Ventana/images/2676/00_37_16_27.jpg	36.804676	-122.029	20003937	1.11	2005-06-14 16:53:10.0	Ventana	34.256	00:37:16:27	7.358	V2676-01
population-density | self | dense, population-quantity | self | 999	cruise	Psolus squamatus	359.57	2676	http://search.mbari.org/ARCHIVE/frameGrabs/Ventana/images/2676/00_40_33_13.jpg	36.80467	-122.028984	20003969	1.18	2005-06-14 16:56:27.0	Ventana	34.252	00:40:33:13	7.382	V2676-01
contains | Psolus squamatus | nil	cruise	rock outcrop	359.62	2676	http://search.mbari.org/ARCHIVE/frameGrabs/Ventana/images/2676/00_44_46_28.jpg	36.804653	-122.028984	20003938	1.21	2005-06-14 17:00:40.0	Ventana	34.225	00:44:46:28	7.512	V2676-01
contains | Psolus squamatus | nil	cruise	rock outcrop	358.17	2676	http://search.mbari.org/ARCHIVE/frameGrabs/Ventana/images/2676/00_45_17_27.jpg	36.80466	-122.029	20003940	1.21	2005-06-14 17:01:10.0	Ventana	34.246	00:45:17:27	7.462	V2676-01
holding | probe | nil	stationary	manipulator	502.07	2694	 	36.784576	-122.20046	1676592	0.79	2005-07-27 19:10:11.967	Ventana	34.277	01:52:51:10	6.575	V2694-02
contains | Psolus squamatus | nil	cruise	rock outcrop	355.07	2676	http://search.mbari.org/ARCHIVE/frameGrabs/Ventana/images/2676/00_45_42_26.jpg	36.80468	-122.02899	20003942	1.21	2005-06-14 17:01:37.0	Ventana	34.237	00:45:42:26	7.486	V2676-01
contains | Psolus squamatus | nil	cruise	rock outcrop	354.39	2676	http://search.mbari.org/ARCHIVE/frameGrabs/Ventana/images/2676/00_45_49_11.jpg	36.804684	-122.02899	20003943	1.21	2005-06-14 17:01:43.0	Ventana	34.237	00:45:49:11	7.505	V2676-01
population-quantity | self | 999	cruise	Porifera	353.84	2676	 	36.804688	-122.02899	1676597	1.21	2005-06-14 17:01:46.0	Ventana	34.237	00:45:52:29	7.505	V2676-01
population-quantity | self | 999	cruise	Actiniaria	353.0	2676	 	36.804695	-122.028984	1676598	1.22	2005-06-14 17:01:52.0	Ventana	34.234	00:45:59:04	7.518	V2676-01
population-quantity | self | 999	cruise	Porifera	350.63	2676	 	36.8047	-122.028984	1676600	1.23	2005-06-14 17:02:09.467	Ventana	34.238	00:46:15:24	7.502	V2676-01
grabbing | rock | nil	cruise	manipulator	348.48	2676	http://search.mbari.org/ARCHIVE/frameGrabs/Ventana/images/2676/00_46_45_24.jpg	36.8047	-122.02901	20003946	1.22	2005-06-14 17:02:56.0	Ventana	34.238	00:47:06:24	7.513	V2676-01
identity-reference | self | FOCE	stationary	equipment	502.2	2694	 	36.784565	-122.20046	1676609	0.81	2005-07-27 19:39:20.0	Ventana	34.275	02:11:30:25	6.61	V2694-03
curling | nil | nil	cruise	Zoarcidae	348.14	2676	 	36.80468	-122.02898	1676614	1.25	2005-06-14 17:10:38.0	Ventana	34.23	00:54:44:05	7.597	V2676-01
holding | probe | nil	stationary	manipulator	502.26	2694	 	36.784626	-122.20046	1676615	0.84	2005-07-27 19:50:03.0	Ventana	34.272	02:22:13:25	6.677	V2694-03
population-quantity | self | 999	cruise	Actiniaria	349.14	2676	 	36.804684	-122.029015	1676628	1.26	2005-06-14 17:14:54.0	Ventana	34.234	00:59:00:14	7.594	V2676-01
grabbing | rock | nil	cruise	manipulator	349.42	2676	http://search.mbari.org/ARCHIVE/frameGrabs/Ventana/images/2676/00_59_50_16.jpg	36.804703	-122.02902	20003954	1.25	2005-06-14 17:15:45.0	Ventana	34.237	00:59:50:16	7.586	V2676-01
sampled-by | manipulator | nil	cruise	rock	347.3	2676	http://search.mbari.org/ARCHIVE/frameGrabs/Ventana/images/2676/01_00_21_00.jpg	36.80471	-122.02904	20003957	1.26	2005-06-14 17:16:15.0	Ventana	34.241	01:00:21:00	7.589	V2676-01
relative-shape | self | rounded	cruise	rock outcrop	339.28	2676	http://search.mbari.org/ARCHIVE/frameGrabs/Ventana/images/2676/01_01_47_17.jpg	36.80474	-122.02908	1676641	1.26	2005-06-14 17:17:45.0	Ventana	34.231	01:01:47:17	7.596	V2676-01
identity-certainty | self | maybe	cruise	Sebastes	325.96	2676	 	36.804867	-122.029015	1676645	1.32	2005-06-14 17:19:39.0	Ventana	34.228	01:03:45:02	7.688	V2676-01
identity-certainty | self | maybe	cruise	Sebastolobus	324.52	2676	 	36.804886	-122.02901	1676652	1.32	2005-06-14 17:19:55.0	Ventana	34.228	01:04:01:17	7.686	V2676-01
population-quantity | self | 999	cruise	Sebastes	321.3	2676	 	36.804955	-122.028984	1676658	1.34	2005-06-14 17:20:48.0	Ventana	34.22	01:04:53:26	7.732	V2676-01
part-of | scarp | nil	cruise	rock outcrop	296.54	2676	http://search.mbari.org/ARCHIVE/frameGrabs/Ventana/images/2676/01_05_54_02.jpg	36.805096	-122.029175	1676680	1.45	2005-06-14 17:26:10.0	Ventana	34.214	01:05:54:02	7.868	V2676-02
population-quantity | self | 999	cruise	Actiniaria	292.59	2676	 	36.80513	-122.02919	1676685	1.46	2005-06-14 17:27:13.0	Ventana	34.218	01:06:57:25	7.875	V2676-02
population-quantity | self | 999	cruise	Asteroidea	291.31	2676	 	36.80515	-122.0292	1676688	1.46	2005-06-14 17:27:30.0	Ventana	34.212	01:07:15:25	7.888	V2676-02
population-quantity | self | 999	cruise	Psolus squamatus	291.31	2676	 	36.80515	-122.0292	1676689	1.46	2005-06-14 17:27:30.0	Ventana	34.212	01:07:15:25	7.888	V2676-02
contains | eggcase | nil, identity-reference | self | 1	cruise	rock outcrop	284.18	2676	http://search.mbari.org/ARCHIVE/frameGrabs/Ventana/images/2676/01_08_20_26.jpg	36.805202	-122.0292	1676693	1.5	2005-06-14 17:28:38.0	Ventana	34.21	01:08:20:26	7.946	V2676-02
identity-reference | self | 1	cruise	rock outcrop	283.91	2676	http://search.mbari.org/ARCHIVE/frameGrabs/Ventana/images/2676/01_08_28_18.jpg	36.805202	-122.0292	1676694	1.5	2005-06-14 17:28:46.0	Ventana	34.21	01:08:28:18	7.946	V2676-02
identity-reference | self | 1	cruise	rock outcrop	283.41	2676	http://search.mbari.org/ARCHIVE/frameGrabs/Ventana/images/2676/01_08_56_01.jpg	36.80521	-122.0292	1676695	1.5	2005-06-14 17:29:12.0	Ventana	34.209	01:08:56:01	7.956	V2676-02
population-density | self | dense, population-quantity | self | 999, part-of | Scyliorhinidae | nil	cruise	eggcase	284.45	2676	http://search.mbari.org/ARCHIVE/frameGrabs/Ventana/images/2676/01_09_44_15.jpg	36.80523	-122.02921	1676697	1.5	2005-06-14 17:30:01.0	Ventana	34.21	01:09:44:15	7.954	V2676-02
contains | eggcase | nil, identity-reference | self | 1	cruise	rock outcrop	284.09	2676	http://search.mbari.org/ARCHIVE/frameGrabs/Ventana/images/2676/01_09_18_00.jpg	36.805218	-122.029205	1676696	1.5	2005-06-14 17:29:34.0	Ventana	34.21	01:09:18:00	7.946	V2676-02
identity-reference | self | 1	cruise	rock outcrop	284.59	2676	http://search.mbari.org/ARCHIVE/frameGrabs/Ventana/images/2676/01_10_49_29.jpg	36.80521	-122.02924	1676699	1.5	2005-06-14 17:31:08.0	Ventana	34.212	01:10:49:29	7.941	V2676-02
identity-reference | self | 1	cruise	rock outcrop	284.47	2676	http://search.mbari.org/ARCHIVE/frameGrabs/Ventana/images/2676/01_11_00_24.jpg	36.80521	-122.02926	1676700	1.5	2005-06-14 17:31:19.0	Ventana	34.212	01:11:00:24	7.941	V2676-02
population-quantity | self | 999	cruise	Sebastes	278.99	2676	http://search.mbari.org/ARCHIVE/frameGrabs/Ventana/images/2676/01_11_49_26.jpg	36.805237	-122.029305	1676704	1.5	2005-06-14 17:32:06.0	Ventana	34.209	01:11:49:26	7.955	V2676-02
population-quantity | self | 999	cruise	Porifera	276.3	2676	 	36.805252	-122.02932	1676706	1.5	2005-06-14 17:32:24.0	Ventana	34.21	01:12:09:01	7.944	V2676-02
population-quantity | self | 999	cruise	Psolus squamatus	275.9	2676	 	36.805256	-122.02932	1676707	1.5	2005-06-14 17:32:26.0	Ventana	34.21	01:12:10:21	7.944	V2676-02
contains | Porifera | nil	cruise	rock outcrop	275.4	2676	http://search.mbari.org/ARCHIVE/frameGrabs/Ventana/images/2676/01_12_48_08.jpg	36.80527	-122.02936	1676709	1.5	2005-06-14 17:33:04.0	Ventana	34.21	01:12:48:08	7.959	V2676-02
population-quantity | self | 999	cruise	Sebastes	276.14	2676	 	36.805264	-122.029366	1676710	1.5	2005-06-14 17:33:30.0	Ventana	34.209	01:13:14:15	7.953	V2676-02
population-quantity | self | 999	cruise	Ophiurida	276.45	2676	 	36.805267	-122.02937	1676711	1.5	2005-06-14 17:33:36.0	Ventana	34.209	01:13:20:10	7.953	V2676-02
identity-certainty | self | maybe	cruise	Ophiodon elongatus	271.6	2676	http://search.mbari.org/ARCHIVE/frameGrabs/Ventana/images/2676/01_14_02_25.jpg	36.805305	-122.0294	1676713	1.5	2005-06-14 17:34:21.0	Ventana	34.21	01:14:02:25	7.957	V2676-02
population-quantity | self | 999	cruise	Sebastes	270.85	2676	http://search.mbari.org/ARCHIVE/frameGrabs/Ventana/images/2676/01_14_12_20.jpg	36.805313	-122.02941	1676714	1.51	2005-06-14 17:34:29.0	Ventana	34.209	01:14:12:20	7.964	V2676-02
population-quantity | self | 999	cruise	rock outcrop	269.67	2676	http://search.mbari.org/ARCHIVE/frameGrabs/Ventana/images/2676/01_14_23_04.jpg	36.805325	-122.02941	1676715	1.52	2005-06-14 17:34:39.0	Ventana	34.208	01:14:23:04	7.966	V2676-02
contains | eggcase | nil	cruise	rock outcrop	268.16	2676	http://search.mbari.org/ARCHIVE/frameGrabs/Ventana/images/2676/01_14_31_29.jpg	36.80534	-122.02942	1676717	1.52	2005-06-14 17:34:48.0	Ventana	34.208	01:14:31:29	7.966	V2676-02
population-quantity | self | 999	cruise	Porifera	266.68	2676	 	36.80537	-122.02944	1676719	1.52	2005-06-14 17:35:10.0	Ventana	34.207	01:14:54:11	7.969	V2676-02
population-quantity | self | 999	cruise	Sebastes	264.98	2676	 	36.80541	-122.02946	1676721	1.52	2005-06-14 17:35:31.0	Ventana	34.212	01:15:15:09	7.976	V2676-02
population-quantity | self | 999	cruise	Sebastes	264.48	2676	http://search.mbari.org/ARCHIVE/frameGrabs/Ventana/images/2676/01_15_21_22.jpg	36.805428	-122.029465	1676722	1.53	2005-06-14 17:35:38.0	Ventana	34.207	01:15:21:22	7.983	V2676-02
population-quantity | self | 999	cruise	Allocentrotus fragilis	250.91	2676	 	36.80566	-122.02948	1676737	1.55	2005-06-14 17:37:13.0	Ventana	34.202	01:16:58:00	8.024	V2676-02
population-quantity | self | 999	cruise	Allocentrotus fragilis	247.0	2676	 	36.805737	-122.02947	1676744	1.57	2005-06-14 17:37:45.0	Ventana	34.2	01:17:29:15	8.033	V2676-02
population-quantity | self | 999	cruise	Sebastes	245.2	2676	 	36.80576	-122.029465	1676745	1.56	2005-06-14 17:37:56.0	Ventana	34.204	01:17:40:24	8.054	V2676-02
population-quantity | self | 999	cruise	pebble	243.28	2676	 	36.80578	-122.02946	1676747	1.56	2005-06-14 17:38:06.0	Ventana	34.204	01:17:50:27	8.054	V2676-02
population-quantity | self | 999	cruise	Sebastes	237.79	2676	 	36.805836	-122.02944	1676750	1.56	2005-06-14 17:38:35.0	Ventana	34.205	01:18:19:26	8.044	V2676-02
contains | eggcase | nil, life-stage | self | dead	cruise	Porifera	237.43	2676	http://search.mbari.org/ARCHIVE/frameGrabs/Ventana/images/2676/01_18_36_04.jpg	36.80586	-122.02943	1676752	1.57	2005-06-14 17:38:54.0	Ventana	34.204	01:18:36:04	8.047	V2676-02
population-quantity | self | 999	cruise	Sebastes	232.1	2676	 	36.805893	-122.029396	1676754	1.58	2005-06-14 17:39:43.0	Ventana	34.202	01:19:27:01	8.063	V2676-02
identity-reference | self | FOCE	stationary	equipment	502.36	2694	 	36.784584	-122.20044	1676755	0.58	2005-07-27 20:45:44.0	Ventana	34.323	03:17:05:15	6.142	V2694-04
disconnecting | connector | nil	stationary	manipulator	502.36	2694	 	36.784584	-122.20044	1676758	0.58	2005-07-27 20:45:44.0	Ventana	34.323	03:17:05:18	6.142	V2694-04
dropped-by | manipulator | nil	stationary	connector	502.35	2694	 	36.784634	-122.200485	1676759	0.52	2005-07-27 20:54:49.0	Ventana	34.332	03:26:10:04	6.021	V2694-04
attaching-to | equipment | nil	stationary	connector	502.33	2694	 	36.78462	-122.20048	1676760	0.51	2005-07-27 20:56:17.0	Ventana	34.335	03:27:37:27	6.006	V2694-04
population-quantity | self | 999	ascend	Appendicularia	444.27	2694	 	36.784878	-122.2007	1676763	1.04	2005-07-27 21:02:18.0	Ventana	34.249	03:33:38:21	7.135	V2694-04
population-quantity | self | 999	ascend	Appendicularia	437.36	2694	 	36.784916	-122.20074	1676764	1.1	2005-07-27 21:02:41.373	Ventana	34.252	03:34:02:15	7.274	V2694-04
population-quantity | self | 999	ascend	Appendicularia	426.38	2694	 	36.78499	-122.20085	1676766	1.12	2005-07-27 21:03:20.467	Ventana	34.253	03:34:41:01	7.364	V2694-04
population-quantity | self | 999	ascend	Appendicularia	348.56	2694	 	36.78504	-122.200806	1676769	1.39	2005-07-27 21:06:02.78	Ventana	34.229	03:37:23:21	7.769	V2694-04
population-quantity | self | 999	ascend	Euphausiacea	146.75	2694	 	36.784416	-122.200096	1676777	1.74	2005-07-27 21:13:35.0	Ventana	34.099	03:44:55:23	9.329	V2694-04
population-quantity | self | 999	cruise	Sebastes	230.94	2676	 	36.805893	-122.02939	1676779	1.58	2005-06-14 17:39:50.0	Ventana	34.202	01:19:34:08	8.063	V2676-02
population-quantity | self | 999	cruise	Porifera	226.07	2676	 	36.806026	-122.029305	1676783	1.58	2005-06-14 17:40:14.0	Ventana	34.203	01:19:58:27	8.064	V2676-02
population-quantity | self | 999	cruise	boulder	221.52	2676	 	36.806072	-122.02928	1676787	1.59	2005-06-14 17:40:40.0	Ventana	34.202	01:20:23:24	8.07	V2676-02
population-quantity | self | 999	cruise	Porifera	220.78	2676	 	36.806084	-122.029274	1676788	1.59	2005-06-14 17:40:45.0	Ventana	34.202	01:20:29:07	8.07	V2676-02
population-quantity | self | 999	cruise	boulder	212.79	2676	http://search.mbari.org/ARCHIVE/frameGrabs/Ventana/images/2676/01_21_02_05.jpg	36.806175	-122.029236	1676792	1.59	2005-06-14 17:41:19.0	Ventana	34.203	01:21:02:05	8.075	V2676-02
population-quantity | self | 999	cruise	Gorgonocephalus	207.33	2676	http://search.mbari.org/ARCHIVE/frameGrabs/Ventana/images/2676/01_21_18_12.jpg	36.80622	-122.02922	1676793	1.6	2005-06-14 17:41:35.0	Ventana	34.2	01:21:18:12	8.091	V2676-02
population-quantity | self | 999	cruise	Gorgonocephalus	204.93	2676	http://search.mbari.org/ARCHIVE/frameGrabs/Ventana/images/2676/01_21_25_19.jpg	36.806248	-122.02922	1676796	1.63	2005-06-14 17:41:42.0	Ventana	34.199	01:21:25:19	8.104	V2676-02
population-quantity | self | 999	cruise	Florometra	204.93	2676	http://search.mbari.org/ARCHIVE/frameGrabs/Ventana/images/2676/01_21_25_19.jpg	36.806248	-122.02922	1676797	1.63	2005-06-14 17:41:42.0	Ventana	34.199	01:21:25:19	8.104	V2676-02
population-quantity | self | 999	cruise	Sebastes	203.02	2676	 	36.806316	-122.02923	1676798	1.63	2005-06-14 17:42:07.0	Ventana	34.198	01:21:51:02	8.103	V2676-02
population-quantity | self | 999	cruise	Sebastes	197.51	2676	 	36.806488	-122.029305	1676800	1.64	2005-06-14 17:43:03.0	Ventana	34.198	01:22:47:02	8.107	V2676-02
population-quantity | self | 999	cruise	Gorgonocephalus	196.74	2676	 	36.806507	-122.02931	1676801	1.64	2005-06-14 17:43:09.0	Ventana	34.198	01:22:52:20	8.107	V2676-02
comment | self | stegosaurus sponges, population-quantity | self | 999	cruise	Porifera	195.93	2676	 	36.806534	-122.02933	1676802	1.64	2005-06-14 17:43:17.0	Ventana	34.198	01:23:01:11	8.107	V2676-02
population-quantity | self | 999	cruise	Florometra	193.5	2676	 	36.806602	-122.02937	1676803	1.64	2005-06-14 17:43:37.0	Ventana	34.199	01:23:21:00	8.107	V2676-02
population-quantity | self | 999	cruise	Sebastes	192.81	2676	 	36.806633	-122.029396	1676804	1.61	2005-06-14 17:43:45.0	Ventana	34.198	01:23:29:11	8.109	V2676-02
population-quantity | self | 999	cruise	Gorgonocephalus	191.13	2676	 	36.80671	-122.02945	1676805	1.61	2005-06-14 17:44:03.0	Ventana	34.198	01:23:46:17	8.108	V2676-02
population-quantity | self | 999	cruise	Sebastes	192.78	2676	 	36.807	-122.02955	1676812	1.59	2005-06-14 17:45:12.0	Ventana	34.2	01:24:56:02	8.094	V2676-02
contains | Porifera | nil	cruise	rock outcrop	192.34	2676	http://search.mbari.org/ARCHIVE/frameGrabs/Ventana/images/2676/01_25_21_20.jpg	36.80714	-122.02957	1676817	1.59	2005-06-14 17:45:39.0	Ventana	34.202	01:25:21:20	8.09	V2676-02
population-quantity | self | 999	cruise	Sebastes	192.1	2676	 	36.807293	-122.029594	1676819	1.6	2005-06-14 17:46:09.0	Ventana	34.2	01:25:53:01	8.099	V2676-02
contains | eggcase | nil	cruise	ledge	188.92	2676	http://search.mbari.org/ARCHIVE/frameGrabs/Ventana/images/2676/01_26_36_29.jpg	36.807533	-122.02964	1676824	1.6	2005-06-14 17:46:54.0	Ventana	34.199	01:26:36:29	8.097	V2676-02
comment | self | stegosaurus sponges, population-quantity | self | 999	cruise	Porifera	185.89	2676	 	36.80763	-122.02968	1676825	1.61	2005-06-14 17:47:14.0	Ventana	34.198	01:26:57:13	8.108	V2676-02
population-quantity | self | 999	cruise	Appendicularia	183.06	2676	 	36.80771	-122.02975	1676827	1.62	2005-06-14 17:47:32.0	Ventana	34.196	01:27:16:02	8.121	V2676-02
retracting | tentacle | nil	cruise	Ceriantharia sp. 1	183.33	2676	 	36.80773	-122.02977	1676828	1.62	2005-06-14 17:47:38.0	Ventana	34.195	01:27:21:16	8.125	V2676-02
population-quantity | self | 999	cruise	Rathbunaster californicus	181.25	2676	 	36.80786	-122.02993	1676833	1.64	2005-06-14 17:48:15.0	Ventana	34.193	01:27:58:27	8.143	V2676-02
population-quantity | self | 999	cruise	Sebastes	180.22	2676	 	36.807884	-122.02996	1676834	1.64	2005-06-14 17:48:21.0	Ventana	34.193	01:28:05:00	8.143	V2676-02
population-quantity | self | 999	cruise	Sebastes	170.61	2676	 	36.80811	-122.03021	1676841	1.64	2005-06-14 17:49:12.0	Ventana	34.191	01:28:56:03	8.171	V2676-02
population-quantity | self | 999	cruise	Rathbunaster californicus	168.59	2676	 	36.80815	-122.03026	1676842	1.65	2005-06-14 17:49:22.0	Ventana	34.192	01:29:05:22	8.19	V2676-02
population-quantity | self | 999	cruise	Allocentrotus fragilis	167.19	2676	 	36.808186	-122.03029	1676843	1.65	2005-06-14 17:49:31.0	Ventana	34.192	01:29:15:01	8.19	V2676-02
population-quantity | self | 999	cruise	Rathbunaster californicus	159.94	2676	 	36.808357	-122.03044	1676845	1.66	2005-06-14 17:50:08.0	Ventana	34.18	01:29:51:13	8.235	V2676-02
identity-certainty | self | maybe, population-quantity | self | 999	cruise	Mediaster	153.39	2676	 	36.8085	-122.03055	1676846	1.67	2005-06-14 17:50:42.0	Ventana	34.181	01:30:25:26	8.259	V2676-02
identity-certainty | self | maybe	cruise	Mediaster	178.37	2676	 	36.807926	-122.03001	1676835	1.64	2005-06-14 17:48:30.0	Ventana	34.193	01:28:13:18	8.145	V2676-02
population-quantity | self | 999	cruise	Euphausiacea	152.28	2676	 	36.808674	-122.03061	1676849	1.68	2005-06-14 17:53:00.0	Ventana	34.181	01:32:43:21	8.26	V2676-02
population-quantity | self | 999	cruise	Euphausiacea	152.13	2676	 	36.808693	-122.030624	1676851	1.68	2005-06-14 17:53:24.0	Ventana	34.18	01:33:06:18	8.261	V2676-02
population-quantity | self | 999	cruise	Appendicularia	145.01	2676	 	36.80875	-122.030716	1676856	1.69	2005-06-14 17:54:36.0	Ventana	34.181	01:34:19:05	8.284	V2676-02
population-quantity | self | 999	cruise	Rathbunaster californicus	145.0	2676	 	36.808758	-122.03074	1676857	1.7	2005-06-14 17:54:47.0	Ventana	34.177	01:34:30:00	8.297	V2676-02
population-quantity | self | 2	cruise	Pandalus platyceros	145.44	2676	 	36.80876	-122.03077	1676860	1.71	2005-06-14 17:55:04.0	Ventana	34.176	01:34:47:13	8.303	V2676-02
population-quantity | self | 999	cruise	Rathbunaster californicus	142.22	2676	 	36.80875	-122.03081	1676862	1.71	2005-06-14 17:55:32.0	Ventana	34.176	01:35:15:27	8.303	V2676-02
population-quantity | self | 999	cruise	Parastichopus	141.75	2676	 	36.808735	-122.03083	1676863	1.71	2005-06-14 17:55:47.0	Ventana	34.176	01:35:30:20	8.31	V2676-02
population-quantity | self | 999	cruise	Florometra	138.87	2676	 	36.808704	-122.03087	1676865	1.72	2005-06-14 17:56:15.0	Ventana	34.174	01:35:58:07	8.317	V2676-02
population-quantity | self | 999	cruise	Rathbunaster californicus	140.25	2676	 	36.808678	-122.030876	1676868	1.72	2005-06-14 17:56:50.0	Ventana	34.174	01:36:33:02	8.313	V2676-02
population-quantity | self | 999	cruise	Mediaster	140.31	2676	 	36.80868	-122.030876	1676867	1.72	2005-06-14 17:56:45.0	Ventana	34.174	01:36:29:11	8.313	V2676-02
population-quantity | self | 999	cruise	Rathbunaster californicus	135.98	2676	 	36.808647	-122.030914	1676873	1.72	2005-06-14 17:57:35.0	Ventana	34.172	01:37:18:00	8.33	V2676-02
population-quantity | self | 999	cruise	boulder	135.12	2676	 	36.80863	-122.03093	1676878	1.73	2005-06-14 17:57:58.0	Ventana	34.171	01:37:41:14	8.328	V2676-02
population-quantity | self | 999	cruise	Sebastes	134.58	2676	 	36.80863	-122.03093	1676879	1.73	2005-06-14 17:58:04.0	Ventana	34.171	01:37:46:26	8.328	V2676-02
population-quantity | self | 999	cruise	Florometra	134.47	2676	 	36.808628	-122.03093	1676880	1.73	2005-06-14 17:58:07.0	Ventana	34.175	01:37:50:25	8.323	V2676-02
population-quantity | self | 999	cruise	Caryophylliina	136.46	2676	 	36.80862	-122.03094	1676881	1.72	2005-06-14 17:59:09.0	Ventana	34.17	01:38:52:24	8.319	V2676-02
population-density | self | dense, identity-certainty | self | maybe, population-quantity | self | 999	cruise	Caryophylliina	135.6	2676	 	36.80859	-122.03095	1676885	1.72	2005-06-14 17:59:56.0	Ventana	34.175	01:39:39:27	8.305	V2676-02
population-quantity | self | 999	cruise	Sebastes	135.61	2676	 	36.808575	-122.03095	1676886	1.72	2005-06-14 18:00:03.0	Ventana	34.175	01:39:46:13	8.305	V2676-02
surface-color | self | yellow	cruise	Porifera	136.18	2676	http://search.mbari.org/ARCHIVE/frameGrabs/Ventana/images/2676/01_40_31_14.jpg	36.808495	-122.03101	1676889	1.71	2005-06-14 18:00:51.0	Ventana	34.174	01:40:31:14	8.297	V2676-02
population-quantity | self | 999	cruise	Parastichopus	134.85	2676	 	36.80849	-122.03107	1676891	1.71	2005-06-14 18:01:18.0	Ventana	34.176	01:41:01:16	8.301	V2676-02
population-quantity | self | 999	cruise	Mediaster	132.69	2676	 	36.80848	-122.031105	1676894	1.71	2005-06-14 18:01:40.0	Ventana	34.179	01:41:22:22	8.305	V2676-02
population-quantity | self | 999	cruise	Parastichopus	127.77	2676	 	36.80848	-122.031166	1676897	1.73	2005-06-14 18:02:15.0	Ventana	34.173	01:41:57:29	8.328	V2676-02
population-quantity | self | 999	cruise	Florometra	126.36	2676	http://search.mbari.org/ARCHIVE/frameGrabs/Ventana/images/2676/01_42_20_22.jpg	36.80849	-122.031204	1676899	1.73	2005-06-14 18:02:41.0	Ventana	34.172	01:42:20:22	8.332	V2676-02
population-quantity | self | 999	cruise	Florometra	125.86	2676	 	36.80851	-122.0313	1676903	1.74	2005-06-14 18:03:15.0	Ventana	34.172	01:42:57:02	8.345	V2676-02
population-quantity | self | 999	cruise	Pennatulacea	124.43	2676	 	36.808517	-122.03137	1676904	1.75	2005-06-14 18:03:36.0	Ventana	34.171	01:43:19:06	8.36	V2676-02
population-quantity | self | 999	cruise	Parastichopus	119.68	2676	 	36.80853	-122.031456	1676906	1.79	2005-06-14 18:04:20.0	Ventana	34.159	01:44:01:18	8.389	V2676-02
population-quantity | self | 999	cruise	Sebastes	118.1	2676	 	36.808548	-122.03148	1676907	1.77	2005-06-14 18:04:35.0	Ventana	34.166	01:44:17:28	8.382	V2676-02
population-density | self | dense, population-quantity | self | 999	cruise	Sebastes	116.64	2676	http://search.mbari.org/ARCHIVE/frameGrabs/Ventana/images/2676/01_44_51_08.jpg	36.80866	-122.03157	1676908	1.82	2005-06-14 18:05:11.0	Ventana	34.165	01:44:51:08	8.421	V2676-02
population-quantity | self | 999	cruise	Pennatulacea	116.55	2676	 	36.80883	-122.03173	1676909	1.83	2005-06-14 18:05:53.0	Ventana	34.155	01:45:35:27	8.423	V2676-02
population-quantity | self | 999	cruise	Mediaster	112.77	2676	 	36.809002	-122.03192	1676910	1.8	2005-06-14 18:06:32.0	Ventana	34.162	01:46:15:14	8.413	V2676-02
population-quantity | self | 999	cruise	Rathbunaster californicus	112.7	2676	 	36.809032	-122.03195	1676911	1.83	2005-06-14 18:06:37.0	Ventana	34.158	01:46:19:24	8.43	V2676-02
near | benthos | nil	cruise	Euphausia 2	110.39	2676	 	36.80932	-122.03231	1676913	1.85	2005-06-14 18:07:31.0	Ventana	34.155	01:47:13:20	8.451	V2676-02
population-quantity | self | 999	cruise	Parastichopus	108.91	2676	 	36.80951	-122.03256	1676914	1.88	2005-06-14 18:08:03.0	Ventana	34.151	01:47:45:01	8.472	V2676-02
population-density | self | dense, population-quantity | self | 999	cruise	shell hash	108.91	2676	 	36.80951	-122.03256	1676915	1.88	2005-06-14 18:08:03.0	Ventana	34.151	01:47:45:28	8.472	V2676-02
population-quantity | self | 999	cruise	Pleuronectiformes	106.97	2676	 	36.80964	-122.03273	1676916	1.84	2005-06-14 18:08:25.0	Ventana	34.149	01:48:07:24	8.469	V2676-02
population-density | self | dense, population-quantity | self | 999	cruise	Florometra	105.55	2676	 	36.80972	-122.03281	1676917	1.84	2005-06-14 18:08:40.0	Ventana	34.149	01:48:22:12	8.473	V2676-02
population-quantity | self | 999	cruise	Parastichopus	100.35	2676	 	36.80992	-122.03292	1676921	1.86	2005-06-14 18:09:19.0	Ventana	34.148	01:49:00:07	8.48	V2676-02
population-quantity | self | 999	cruise	Sebastes	99.9	2676	 	36.809937	-122.03293	1676922	1.87	2005-06-14 18:09:23.0	Ventana	34.146	01:49:05:15	8.484	V2676-02
population-quantity | self | 2	cruise	Metridium farcimen	98.49	2676	 	36.80998	-122.03294	1676923	1.87	2005-06-14 18:09:34.0	Ventana	34.146	01:49:16:19	8.484	V2676-02
audio-comment | self | too crumbly, trying | nil | nil	cruise	manipulator	100.82	2676	http://search.mbari.org/ARCHIVE/frameGrabs/Ventana/images/2676/01_50_20_15.jpg	36.810093	-122.03296	1676927	1.85	2005-06-14 18:10:39.0	Ventana	34.148	01:50:20:15	8.475	V2676-02
population-quantity | self | 999	cruise	Euphausiacea	100.82	2676	 	36.810104	-122.03295	1676928	1.84	2005-06-14 18:11:56.0	Ventana	34.149	01:51:38:05	8.473	V2676-02
trying | nil | nil, audio-comment | self | looks like coquina	cruise	manipulator	100.92	2676	http://search.mbari.org/ARCHIVE/frameGrabs/Ventana/images/2676/01_52_45_05.jpg	36.81012	-122.032936	1676929	1.83	2005-06-14 18:13:04.0	Ventana	34.149	01:52:45:05	8.47	V2676-02
sampled-by | manipulator | nil, sample-reference | self | V2676-RS2	cruise	rock	100.96	2676	http://search.mbari.org/ARCHIVE/frameGrabs/Ventana/images/2676/01_54_27_15.jpg	36.810135	-122.03292	1676931	1.84	2005-06-14 18:14:48.0	Ventana	34.149	01:54:27:15	8.472	V2676-02
population-quantity | self | 999	cruise	Parastichopus	100.07	2676	 	36.81008	-122.032936	1676933	1.87	2005-06-14 18:16:41.0	Ventana	34.147	01:56:23:25	8.479	V2676-02
population-quantity | self | 999	cruise	Florometra	99.41	2676	http://search.mbari.org/ARCHIVE/frameGrabs/Ventana/images/2676/01_56_42_24.jpg	36.810074	-122.03296	1676935	1.87	2005-06-14 18:17:03.0	Ventana	34.148	01:56:42:24	8.48	V2676-02
population-quantity | self | 999	cruise	Metridium farcimen	96.23	2676	http://search.mbari.org/ARCHIVE/frameGrabs/Ventana/images/2676/01_56_59_01.jpg	36.810078	-122.03299	1676937	1.87	2005-06-14 18:17:20.0	Ventana	34.147	01:56:59:01	8.484	V2676-02
population-density | self | dense, population-quantity | self | 999	cruise	Florometra	93.8	2676	http://search.mbari.org/ARCHIVE/frameGrabs/Ventana/images/2676/01_57_39_09.jpg	36.81011	-122.033066	1676940	1.88	2005-06-14 18:17:58.0	Ventana	34.148	01:57:39:09	8.481	V2676-02
population-quantity | self | 999	cruise	Sebastes	92.22	2676	http://search.mbari.org/ARCHIVE/frameGrabs/Ventana/images/2676/01_57_52_25.jpg	36.81012	-122.03309	1676941	1.89	2005-06-14 18:18:12.0	Ventana	34.145	01:57:52:25	8.491	V2676-02
population-density | self | dense, image-quality | self | good, population-quantity | self | 999	cruise	Sebastes	93.31	2676	http://search.mbari.org/ARCHIVE/frameGrabs/Ventana/images/2676/01_58_33_10.jpg	36.810143	-122.033104	1676943	1.93	2005-06-14 18:18:54.0	Ventana	34.141	01:58:33:10	8.508	V2676-02
population-density | self | dense, population-quantity | self | 999	cruise	Sebastes	93.37	2676	http://search.mbari.org/ARCHIVE/frameGrabs/Ventana/images/2676/01_59_03_16.jpg	36.81018	-122.0331	1676944	1.91	2005-06-14 18:19:23.0	Ventana	34.144	01:59:03:16	8.5	V2676-02
population-quantity | self | 999	cruise	Parastichopus	99.67	2676	 	36.810043	-122.03329	1676945	1.88	2005-06-14 18:21:18.0	Ventana	34.147	02:00:59:11	8.477	V2676-02
population-density | self | dense, population-quantity | self | 999	cruise	Metridium farcimen	97.47	2676	http://search.mbari.org/ARCHIVE/frameGrabs/Ventana/images/2676/02_01_48_27.jpg	36.809986	-122.03342	1676947	1.89	2005-06-14 18:22:10.0	Ventana	34.148	02:01:48:27	8.477	V2676-02
population-density | self | dense, population-quantity | self | 999	cruise	Sebastes	97.56	2676	http://search.mbari.org/ARCHIVE/frameGrabs/Ventana/images/2676/02_01_59_12.jpg	36.80998	-122.03344	1676948	1.89	2005-06-14 18:22:20.0	Ventana	34.148	02:01:59:12	8.477	V2676-02
population-density | self | dense, population-quantity | self | 999	cruise	Florometra	98.84	2676	 	36.809963	-122.03348	1676949	1.87	2005-06-14 18:22:39.0	Ventana	34.149	02:02:20:05	8.477	V2676-02
population-quantity | self | 999	cruise	Metridium farcimen	98.66	2676	http://search.mbari.org/ARCHIVE/frameGrabs/Ventana/images/2676/02_03_27_18.jpg	36.809887	-122.033646	1676951	1.89	2005-06-14 18:23:49.0	Ventana	34.148	02:03:27:18	8.481	V2676-02
population-density | self | dense, population-quantity | self | 999	cruise	Sebastes	98.42	2676	http://search.mbari.org/ARCHIVE/frameGrabs/Ventana/images/2676/02_03_54_23.jpg	36.809868	-122.03369	1676952	1.9	2005-06-14 18:24:16.0	Ventana	34.147	02:03:54:23	8.482	V2676-02
population-density | self | dense, population-quantity | self | 999	cruise	Metridium farcimen	94.29	2676	http://search.mbari.org/ARCHIVE/frameGrabs/Ventana/images/2676/02_04_25_22.jpg	36.80985	-122.033745	1676953	1.91	2005-06-14 18:24:47.0	Ventana	34.145	02:04:25:22	8.491	V2676-02
population-density | self | dense, population-quantity | self | 999	cruise	Florometra	93.78	2676	 	36.8098	-122.03378	1676954	1.94	2005-06-14 18:25:18.0	Ventana	34.144	02:04:59:25	8.498	V2676-02
population-quantity | self | 999	cruise	Metridium farcimen	94.78	2676	http://search.mbari.org/ARCHIVE/frameGrabs/Ventana/images/2676/02_05_04_20.jpg	36.809788	-122.0338	1676955	1.93	2005-06-14 18:25:26.0	Ventana	34.144	02:05:04:20	8.499	V2676-02
population-density | self | dense, identity-certainty | self | maybe, population-quantity | self | 999	cruise	Sebastes paucispinis	98.13	2676	http://search.mbari.org/ARCHIVE/frameGrabs/Ventana/images/2676/02_05_36_25.jpg	36.809753	-122.033844	1676956	1.9	2005-06-14 18:25:56.0	Ventana	34.147	02:05:36:25	8.482	V2676-02
population-density | self | dense, identity-certainty | self | maybe, image-quality | self | good, population-quantity | self | 999	cruise	Sebastes paucispinis	99.35	2676	http://search.mbari.org/ARCHIVE/frameGrabs/Ventana/images/2676/02_05_48_06.jpg	36.809746	-122.03387	1676957	1.89	2005-06-14 18:26:08.0	Ventana	34.147	02:05:48:06	8.48	V2676-02
population-quantity | self | 999	cruise	boulder	101.62	2676	http://search.mbari.org/ARCHIVE/frameGrabs/Ventana/images/2676/02_07_15_18.jpg	36.809658	-122.03396	1676958	1.88	2005-06-14 18:27:37.0	Ventana	34.149	02:07:15:18	8.476	V2676-02
population-density | self | dense, population-quantity | self | 999	cruise	Metridium farcimen	102.94	2676	 	36.809483	-122.03414	1676959	1.91	2005-06-14 18:29:01.0	Ventana	34.148	02:08:42:10	8.481	V2676-02
population-density | self | dense, population-quantity | self | 999	cruise	Florometra	102.95	2676	 	36.80947	-122.03416	1676960	1.91	2005-06-14 18:29:09.0	Ventana	34.148	02:08:49:20	8.48	V2676-02
population-quantity | self | 999	cruise	Florometra	101.38	2676	http://search.mbari.org/ARCHIVE/frameGrabs/Ventana/images/2676/02_09_37_14.jpg	36.80945	-122.034195	1676961	1.92	2005-06-14 18:29:57.0	Ventana	34.148	02:09:37:14	8.481	V2676-02
population-density | self | dense, identity-certainty | self | maybe, population-quantity | self | 999	cruise	Sebastes paucispinis	100.05	2676	http://search.mbari.org/ARCHIVE/frameGrabs/Ventana/images/2676/02_09_46_00.jpg	36.809444	-122.03421	1676962	1.92	2005-06-14 18:30:06.0	Ventana	34.148	02:09:46:00	8.481	V2676-02
population-density | self | dense, population-quantity | self | 999	cruise	Metridium farcimen	97.61	2676	http://search.mbari.org/ARCHIVE/frameGrabs/Ventana/images/2676/02_10_22_13.jpg	36.80942	-122.03427	1676964	1.95	2005-06-14 18:30:44.0	Ventana	34.146	02:10:22:13	8.493	V2676-02
population-density | self | dense, population-quantity | self | 999	cruise	Metridium farcimen	102.83	2676	http://search.mbari.org/ARCHIVE/frameGrabs/Ventana/images/2676/02_11_28_29.jpg	36.809002	-122.03541	1676995	1.94	2005-06-14 18:32:42.0	Ventana	34.147	02:11:28:29	8.481	V2676-03
identity-certainty | self | maybe, population-quantity | self | 999	cruise	Sebastes paucispinis	102.83	2676	http://search.mbari.org/ARCHIVE/frameGrabs/Ventana/images/2676/02_11_28_29.jpg	36.809002	-122.03541	1676999	1.94	2005-06-14 18:32:42.0	Ventana	34.147	02:11:28:29	8.481	V2676-03
population-density | self | dense, identity-certainty | self | maybe, population-quantity | self | 999	cruise	Sebastes paucispinis	103.06	2676	http://search.mbari.org/ARCHIVE/frameGrabs/Ventana/images/2676/02_12_19_06.jpg	36.808872	-122.03576	1677002	1.93	2005-06-14 18:33:32.0	Ventana	34.149	02:12:19:06	8.478	V2676-03
population-density | self | dense, population-quantity | self | 999	cruise	Metridium farcimen	104.02	2676	 	36.808834	-122.03584	1677004	1.93	2005-06-14 18:34:09.367	Ventana	34.148	02:12:57:06	8.479	V2676-03
population-density | self | dense, population-quantity | self | 999	cruise	Metridium farcimen	104.8	2676	 	36.808834	-122.03585	1677006	1.93	2005-06-14 18:34:15.82	Ventana	34.148	02:13:02:19	8.479	V2676-03
contains | Sebastes | nil	cruise	crack	99.03	2676	http://search.mbari.org/ARCHIVE/frameGrabs/Ventana/images/2676/02_15_27_12.jpg	36.808933	-122.035385	1677015	1.96	2005-06-14 18:36:42.0	Ventana	34.145	02:15:27:12	8.491	V2676-03
surface-color | self | yellow	cruise	Porifera	98.61	2676	 	36.808956	-122.03535	1677018	1.97	2005-06-14 18:37:26.0	Ventana	34.145	02:16:13:18	8.497	V2676-03
population-quantity | self | 999	cruise	Sebastes	106.84	2676	 	36.809	-122.03527	1677020	1.93	2005-06-14 18:38:36.0	Ventana	34.149	02:17:23:05	8.474	V2676-03
identity-certainty | self | maybe	cruise	Actiniaria	106.6	2676	 	36.809025	-122.03529	1677026	1.92	2005-06-14 18:39:27.0	Ventana	34.154	02:18:14:18	8.451	V2676-03
identity-reference | self | 2	cruise	rock outcrop	106.4	2676	http://search.mbari.org/ARCHIVE/frameGrabs/Ventana/images/2676/02_18_18_01.jpg	36.80903	-122.03529	1677027	1.92	2005-06-14 18:39:32.0	Ventana	34.154	02:18:18:01	8.451	V2676-03
identity-reference | self | 2	cruise	rock outcrop	106.35	2676	http://search.mbari.org/ARCHIVE/frameGrabs/Ventana/images/2676/02_18_26_26.jpg	36.809032	-122.0353	1677028	1.92	2005-06-14 18:39:40.0	Ventana	34.153	02:18:26:26	8.458	V2676-03
population-quantity | self | 999	cruise	Sebastes	105.32	2676	 	36.80905	-122.03533	1677032	1.92	2005-06-14 18:40:04.0	Ventana	34.154	02:18:51:06	8.461	V2676-03
population-density | self | dense, population-quantity | self | 999	cruise	Florometra	99.85	2676	http://search.mbari.org/ARCHIVE/frameGrabs/Ventana/images/2676/02_20_12_19.jpg	36.809204	-122.03539	1677040	1.93	2005-06-14 18:41:26.0	Ventana	34.151	02:20:12:19	8.465	V2676-03
surface-color | self | yellow	cruise	Porifera	105.43	2676	 	36.80916	-122.03557	1677044	1.93	2005-06-14 18:42:55.867	Ventana	34.152	02:21:42:19	8.462	V2676-03
population-quantity | self | 999	cruise	Sebastes	105.55	2676	 	36.809155	-122.03559	1677045	1.93	2005-06-14 18:43:03.0	Ventana	34.152	02:21:50:14	8.462	V2676-03
population-quantity | self | 999	cruise	boulder	106.74	2676	http://search.mbari.org/ARCHIVE/frameGrabs/Ventana/images/2676/02_23_06_05.jpg	36.80916	-122.035805	1677051	1.94	2005-06-14 18:44:22.0	Ventana	34.151	02:23:06:05	8.459	V2676-03
sample-reference | self | V2676-RS3, sampled-by | manipulator | nil	cruise	rock	106.74	2676	http://search.mbari.org/ARCHIVE/frameGrabs/Ventana/images/2676/02_23_55_25.jpg	36.80919	-122.03589	1677057	1.93	2005-06-14 18:45:12.0	Ventana	34.153	02:23:55:25	8.458	V2676-03
within | crevice | nil	cruise	Sebastes	106.84	2676	http://search.mbari.org/ARCHIVE/frameGrabs/Ventana/images/2676/02_25_18_27.jpg	36.809193	-122.035866	1677060	1.93	2005-06-14 18:46:35.0	Ventana	34.152	02:25:18:27	8.46	V2676-03
population-quantity | self | 999	cruise	block	105.03	2676	http://search.mbari.org/ARCHIVE/frameGrabs/Ventana/images/2676/02_27_15_21.jpg	36.80888	-122.03587	1677061	1.95	2005-06-14 18:48:32.0	Ventana	34.149	02:27:15:21	8.477	V2676-03
population-quantity | self | 999	cruise	Florometra	102.51	2676	http://search.mbari.org/ARCHIVE/frameGrabs/Ventana/images/2676/02_27_36_03.jpg	36.808872	-122.03591	1677066	1.95	2005-06-14 18:48:52.0	Ventana	34.149	02:27:36:03	8.483	V2676-03
population-density | self | dense, population-quantity | self | 999	cruise	Florometra	100.37	2676	 	36.808765	-122.03651	1677080	1.98	2005-06-14 18:52:40.73	Ventana	34.147	02:31:27:03	8.492	V2676-03
population-density | self | dense, population-quantity | self | 999	cruise	Florometra	105.33	2676	 	36.808487	-122.03712	1677099	1.97	2005-06-14 18:55:15.5	Ventana	34.153	02:34:01:16	8.468	V2676-03
population-density | self | dense, population-quantity | self | 999	cruise	Florometra	99.24	2676	http://search.mbari.org/ARCHIVE/frameGrabs/Ventana/images/2676/02_36_20_15.jpg	36.808353	-122.03758	1677115	1.98	2005-06-14 18:57:37.0	Ventana	34.151	02:36:20:15	8.476	V2676-03
population-dispersal | self | school	cruise	Sebastes	99.33	2676	http://search.mbari.org/ARCHIVE/frameGrabs/Ventana/images/2676/02_36_37_29.jpg	36.80836	-122.03762	1677121	1.97	2005-06-14 18:57:53.0	Ventana	34.15	02:36:37:29	8.475	V2676-03
population-density | self | dense, population-quantity | self | 999	cruise	Florometra	100.78	2676	 	36.808193	-122.03781	1677125	1.98	2005-06-14 19:00:12.0	Ventana	34.149	02:38:58:01	8.482	V2676-03
identity-certainty | self | maybe, population-quantity | self | 999	cruise	Sebastes paucispinis	104.27	2676	 	36.80793	-122.038315	1677128	1.99	2005-06-14 19:02:07.0	Ventana	34.149	02:40:52:28	8.48	V2676-03
drifting | nil | nil	cruise	Macrocystis	102.48	2676	http://search.mbari.org/ARCHIVE/frameGrabs/Ventana/images/2676/02_42_58_05.jpg	36.80778	-122.03869	1677130	1.99	2005-06-14 19:04:13.0	Ventana	34.146	02:42:58:05	8.492	V2676-03
population-quantity | self | 999	cruise	Sebastes	104.87	2676	http://search.mbari.org/ARCHIVE/frameGrabs/Ventana/images/2676/02_43_47_24.jpg	36.807716	-122.03885	1677134	1.93	2005-06-14 19:05:03.0	Ventana	34.157	02:43:47:24	8.441	V2676-03
population-quantity | self | 999	cruise	Florometra	104.72	2676	 	36.807575	-122.03927	1677138	1.97	2005-06-14 19:07:26.0	Ventana	34.153	02:46:12:04	8.462	V2676-03
population-quantity | self | 999	cruise	Metridium farcimen	105.78	2676	 	36.807472	-122.039474	1677140	1.97	2005-06-14 19:08:10.0	Ventana	34.153	02:46:55:17	8.468	V2676-03
drifting | nil | nil	cruise	Macrocystis	105.54	2676	 	36.807423	-122.03956	1677142	1.97	2005-06-14 19:08:29.867	Ventana	34.152	02:47:15:03	8.466	V2676-03
population-density | self | dense, population-quantity | self | 999	cruise	Florometra	104.83	2676	 	36.807686	-122.03895	1677143	1.93	2005-06-14 19:05:56.0	Ventana	34.157	02:44:42:05	8.44	V2676-03
population-quantity | self | 999	cruise	Metridium farcimen	104.56	2676	http://search.mbari.org/ARCHIVE/frameGrabs/Ventana/images/2676/02_44_59_09.jpg	36.80767	-122.038994	1677144	1.93	2005-06-14 19:06:16.0	Ventana	34.157	02:44:59:09	8.44	V2676-03
population-quantity | self | 999	cruise	Parastichopus	104.09	2676	 	36.806698	-122.04095	1677155	1.93	2005-06-14 19:14:38.0	Ventana	34.157	02:53:23:12	8.436	V2676-03
population-quantity | self | 999	cruise	Florometra	104.4	2676	 	36.80667	-122.041016	1677156	1.93	2005-06-14 19:14:48.0	Ventana	34.157	02:53:33:27	8.436	V2676-03
population-quantity | self | 999	cruise	Rathbunaster californicus	104.35	2676	 	36.80663	-122.041115	1677157	1.93	2005-06-14 19:15:04.0	Ventana	34.158	02:53:49:14	8.423	V2676-03
population-quantity | self | 999	cruise	Parastichopus	103.42	2676	 	36.806324	-122.04175	1677163	1.93	2005-06-14 19:16:56.0	Ventana	34.155	02:55:41:18	8.429	V2676-03
population-quantity | self | 999	cruise	Metridium farcimen	102.97	2676	 	36.80627	-122.04183	1677164	1.93	2005-06-14 19:17:11.0	Ventana	34.162	02:55:56:13	8.431	V2676-03
identity-certainty | self | maybe	cruise	stipe	103.28	2676	 	36.806255	-122.041855	1677165	1.93	2005-06-14 19:17:15.0	Ventana	34.162	02:56:00:14	8.431	V2676-03
population-quantity | self | 999	cruise	Rathbunaster californicus	105.14	2676	 	36.806	-122.04227	1677171	1.93	2005-06-14 19:18:25.0	Ventana	34.157	02:57:09:23	8.43	V2676-03
population-density | self | dense, life-stage | self | dead, population-quantity | self | 999	cruise	Brachiopoda	105.21	2676	http://search.mbari.org/ARCHIVE/frameGrabs/Ventana/images/2676/02_58_05_16.jpg	36.80586	-122.04254	1677174	1.93	2005-06-14 19:19:23.0	Ventana	34.16	02:58:05:16	8.424	V2676-03
population-density | self | dense, life-stage | self | dead, population-quantity | self | 999	cruise	Brachiopoda	105.61	2676	http://search.mbari.org/ARCHIVE/frameGrabs/Ventana/images/2676/02_58_17_07.jpg	36.80584	-122.04258	1677175	1.93	2005-06-14 19:19:33.0	Ventana	34.16	02:58:17:07	8.424	V2676-03
population-density | self | dense, life-stage | self | dead, population-quantity | self | 999	cruise	Brachiopoda	105.97	2676	http://search.mbari.org/ARCHIVE/frameGrabs/Ventana/images/2676/02_58_31_12.jpg	36.805817	-122.04261	1677177	1.92	2005-06-14 19:19:47.0	Ventana	34.16	02:58:31:12	8.423	V2676-03
population-density | self | dense, life-stage | self | dead, population-quantity | self | 999	cruise	Brachiopoda	105.74	2676	http://search.mbari.org/ARCHIVE/frameGrabs/Ventana/images/2676/02_58_40_09.jpg	36.805805	-122.042625	1677178	1.92	2005-06-14 19:19:56.0	Ventana	34.16	02:58:40:09	8.42	V2676-03
population-quantity | self | 999	cruise	Florometra	107.47	2676	 	36.805794	-122.042656	1677181	1.93	2005-06-14 19:20:44.0	Ventana	34.16	02:59:29:04	8.417	V2676-03
population-quantity | self | 999	cruise	Mediaster	105.89	2676	 	36.805798	-122.04269	1677182	1.92	2005-06-14 19:21:14.133	Ventana	34.16	02:59:58:18	8.416	V2676-03
population-quantity | self | 999	cruise	Sebastes	104.66	2676	 	36.805798	-122.0427	1677183	1.93	2005-06-14 19:21:24.0	Ventana	34.16	03:00:08:26	8.423	V2676-03
contains | Florometra | nil	cruise	rock outcrop	105.03	2676	http://search.mbari.org/ARCHIVE/frameGrabs/Ventana/images/2676/03_00_19_07.jpg	36.805794	-122.042725	1677184	1.93	2005-06-14 19:21:37.0	Ventana	34.16	03:00:19:07	8.423	V2676-03
population-quantity | self | 999	cruise	Sebastes	104.61	2676	 	36.805584	-122.043076	1677186	1.94	2005-06-14 19:23:32.0	Ventana	34.155	03:02:17:00	8.43	V2676-03
population-density | self | dense, life-stage | self | dead, population-quantity | self | 999	cruise	Brachiopoda	106.69	2676	 	36.805344	-122.04344	1677188	1.96	2005-06-14 19:25:30.767	Ventana	34.16	03:04:14:29	8.423	V2676-03
population-density | self | dense, population-quantity | self | 999	cruise	Brachiopoda	107.74	2676	http://search.mbari.org/ARCHIVE/frameGrabs/Ventana/images/2676/03_05_28_21.jpg	36.805084	-122.04354	1677192	1.97	2005-06-14 19:26:48.0	Ventana	34.16	03:05:28:21	8.418	V2676-03
population-density | self | dense, population-quantity | self | 999	cruise	Brachiopoda	109.0	2676	http://search.mbari.org/ARCHIVE/frameGrabs/Ventana/images/2676/03_05_49_00.jpg	36.80502	-122.04347	1677193	1.95	2005-06-14 19:27:07.0	Ventana	34.163	03:05:49:00	8.408	V2676-03
population-quantity | self | 999	cruise	Rathbunaster californicus	109.19	2676	 	36.804947	-122.04339	1677195	1.94	2005-06-14 19:27:24.0	Ventana	34.163	03:06:08:13	8.398	V2676-03
population-quantity | self | 999	cruise	Florometra	109.24	2676	 	36.8049	-122.043335	1677197	1.94	2005-06-14 19:27:34.0	Ventana	34.163	03:06:18:26	8.398	V2676-03
population-quantity | self | 999	cruise	Parastichopus	111.87	2676	 	36.80469	-122.04311	1677201	1.94	2005-06-14 19:28:15.0	Ventana	34.165	03:06:59:02	8.397	V2676-03
population-quantity | self | 999	cruise	Florometra	114.67	2676	 	36.804615	-122.043045	1677203	1.94	2005-06-14 19:28:28.0	Ventana	34.166	03:07:12:29	8.395	V2676-03
population-quantity | self | 999	cruise	Euphausiacea	126.13	2676	 	36.804333	-122.042854	1677204	 	2005-06-14 19:29:14.0	Ventana	34.17	03:07:58:10	8.42	V2676-03
population-quantity | self | 999	cruise	Sebastes	135.11	2676	 	36.804104	-122.04273	1677205	1.72	2005-06-14 19:29:48.0	Ventana	34.165	03:08:32:04	8.396	V2676-03
population-quantity | self | 999	cruise	Euphausiacea	139.34	2676	 	36.80401	-122.042694	1677206	1.75	2005-06-14 19:30:05.4	Ventana	34.158	03:08:49:24	8.434	V2676-03
population-density | self | dense, population-quantity | self | 999	ascend	Euphausiacea	 	2676	 	 	 	1677211	 	2005-06-14 19:32:35.0	Ventana	 	03:11:19:12	 	V2676-03
population-density | self | dense, population-quantity | self | 999	ascend	Euphausiacea	 	2676	http://search.mbari.org/ARCHIVE/frameGrabs/Ventana/images/2676/03_11_42_02.jpg	 	 	1677213	 	2005-06-14 19:32:59.0	Ventana	 	03:11:42:02	 	V2676-03
population-quantity | self | 999	descend	Appendicularia	449.14	2688	 	36.793446	-122.0183	1677220	0.93	2005-07-14 16:14:02.0	Ventana	34.267	00:00:23:17	6.911	V2688-01
population-quantity | self | 999	descend	Salpida	473.19	2688	 	36.79343	-122.0183	1677224	0.87	2005-07-14 16:14:49.0	Ventana	34.276	00:01:10:09	6.809	V2688-01
population-quantity | self | 999	descend	Appendicularia	487.73	2688	 	36.793423	-122.018295	1677227	0.85	2005-07-14 16:15:16.0	Ventana	34.28	00:01:37:23	6.752	V2688-01
population-quantity | self | 999	descend	Leuroglossus stilbius	500.37	2688	 	36.79343	-122.01828	1677229	0.81	2005-07-14 16:15:47.0	Ventana	34.288	00:02:08:16	6.672	V2688-01
population-quantity | self | 999	descend	Appendicularia	537.37	2688	 	36.793438	-122.018265	1677237	0.66	2005-07-14 16:17:11.0	Ventana	34.316	00:03:32:05	6.319	V2688-01
identity-certainty | self | maybe, population-quantity | self | 999	descend	Leuroglossus stilbius	542.66	2688	 	36.793434	-122.018265	1677238	0.66	2005-07-14 16:17:20.0	Ventana	34.316	00:03:40:26	6.319	V2688-01
identity-certainty | self | maybe	descend	Merluccius productus	589.7	2688	 	36.793373	-122.018295	1677246	0.53	2005-07-14 16:19:03.0	Ventana	34.356	00:05:24:19	5.903	V2688-01
population-quantity | self | 999	cruise	Asteroidea	593.76	2688	 	36.79336	-122.01827	1677248	0.52	2005-07-14 16:19:54.0	Ventana	34.37	00:06:14:25	5.876	V2688-01
population-quantity | self | 999	cruise	Pleuronectiformes	594.37	2688	 	36.79336	-122.018265	1677250	0.52	2005-07-14 16:20:18.0	Ventana	34.361	00:06:38:26	5.868	V2688-01
population-density | self | dense, population-quantity | self | 999	cruise	Asteroidea	594.56	2688	http://search.mbari.org/ARCHIVE/frameGrabs/Ventana/images/2688/00_06_46_18.jpg	36.793358	-122.018265	20005067	0.51	2005-07-14 16:20:26.0	Ventana	34.36	00:06:46:18	5.829	V2688-01
bioturbated | nil | nil	cruise	mud	594.51	2688	http://search.mbari.org/ARCHIVE/frameGrabs/Ventana/images/2688/00_07_20_02.jpg	36.793358	-122.01826	20005068	0.5	2005-07-14 16:21:00.0	Ventana	34.367	00:07:20:02	5.815	V2688-01
bioturbated | nil | nil, perspective | self | close-up	cruise	mud	594.48	2688	http://search.mbari.org/ARCHIVE/frameGrabs/Ventana/images/2688/00_07_40_16.jpg	36.79336	-122.01824	20005069	0.5	2005-07-14 16:21:20.0	Ventana	34.359	00:07:40:16	5.856	V2688-01
surface-color | self | red	cruise	Brisingida	594.47	2688	 	36.79337	-122.018234	1677251	0.52	2005-07-14 16:21:41.577	Ventana	34.361	00:08:01:18	5.878	V2688-01
curled-around-by | Asteronyx | nil	cruise	Halipteris	594.17	2688	http://search.mbari.org/ARCHIVE/frameGrabs/Ventana/images/2688/00_08_42_06.jpg	36.793385	-122.01825	1677252	0.52	2005-07-14 16:22:23.0	Ventana	34.355	00:08:42:06	5.881	V2688-01
curling | nil | nil	cruise	Lycodapus	594.2	2688	 	36.793385	-122.01825	1677253	0.52	2005-07-14 16:22:24.0	Ventana	34.355	00:08:44:28	5.881	V2688-01
population-density | self | dense, population-quantity | self | 999	cruise	Asteroidea	597.75	2688	 	36.793385	-122.01837	1677255	0.5	2005-07-14 16:23:03.0	Ventana	34.363	00:09:23:20	5.786	V2688-01
bioturbated | nil | nil	cruise	mud	600.41	2688	 	36.793392	-122.01848	1677258	0.5	2005-07-14 16:23:25.59	Ventana	34.363	00:09:46:00	5.774	V2688-01
population-quantity | self | 2, curling | nil | nil	cruise	Lycodapus	601.41	2688	 	36.793404	-122.018555	1677261	0.49	2005-07-14 16:23:38.5	Ventana	34.369	00:09:58:27	5.745	V2688-01
curling | nil | nil	cruise	Lycodapus	608.48	2688	 	36.793594	-122.01895	1677266	0.48	2005-07-14 16:24:48.7	Ventana	34.374	00:11:08:29	5.687	V2688-01
population-density | self | dense, population-quantity | self | 999	cruise	Asteroidea	609.22	2688	 	36.79361	-122.01899	1677267	0.48	2005-07-14 16:24:56.0	Ventana	34.373	00:11:16:24	5.678	V2688-01
population-quantity | self | 999	cruise	Lycodapus	613.19	2688	 	36.79365	-122.01913	1677269	0.48	2005-07-14 16:25:18.233	Ventana	34.371	00:11:38:01	5.667	V2688-01
identity-certainty | self | maybe	cruise	Anoplopoma fimbria	613.9	2688	 	36.79366	-122.01916	1677271	0.45	2005-07-14 16:25:23.0	Ventana	34.374	00:11:43:26	5.45	V2688-01
population-quantity | self | 999	cruise	Asteroidea	616.55	2688	 	36.793682	-122.01926	1677273	0.43	2005-07-14 16:25:44.0	Ventana	34.398	00:12:05:00	5.313	V2688-01
bioturbated | nil | nil	cruise	mud	622.54	2688	 	36.79378	-122.019455	1677277	0.41	2005-07-14 16:26:45.733	Ventana	34.413	00:13:05:28	5.202	V2688-01
population-quantity | self | 2	cruise	Pleuronectiformes	622.84	2688	http://search.mbari.org/ARCHIVE/frameGrabs/Ventana/images/2688/00_13_22_14.jpg	36.793823	-122.01948	1677280	0.41	2005-07-14 16:27:04.0	Ventana	34.413	00:13:22:14	5.195	V2688-01
identity-certainty | self | maybe	cruise	Microstomus pacificus	622.72	2688	http://search.mbari.org/ARCHIVE/frameGrabs/Ventana/images/2688/00_14_13_19.jpg	36.79398	-122.01954	20005077	0.41	2005-07-14 16:27:54.0	Ventana	34.416	00:14:13:19	5.208	V2688-01
population-quantity | self | 999	cruise	Asteroidea	622.77	2688	 	36.79392	-122.01952	1677282	0.42	2005-07-14 16:27:36.0	Ventana	34.411	00:13:56:12	5.216	V2688-01
identity-certainty | self | maybe	cruise	Gnathophausia	622.69	2688	http://search.mbari.org/ARCHIVE/frameGrabs/Ventana/images/2688/00_14_12_23.jpg	36.793983	-122.01954	1677286	0.41	2005-07-14 16:27:55.0	Ventana	34.416	00:14:12:23	5.208	V2688-01
curled-around-by | Asteronyx | nil	cruise	Halipteris	621.75	2688	http://search.mbari.org/ARCHIVE/frameGrabs/Ventana/images/2688/00_14_50_28.jpg	36.79413	-122.01955	1677289	0.42	2005-07-14 16:28:35.0	Ventana	34.418	00:14:50:28	5.239	V2688-01
bioturbated | nil | nil	cruise	mud	621.64	2688	 	36.794155	-122.019554	1677291	0.42	2005-07-14 16:28:42.017	Ventana	34.411	00:15:01:18	5.264	V2688-01
population-quantity | self | 999	cruise	Asteroidea	621.59	2688	 	36.794163	-122.019554	1677292	0.42	2005-07-14 16:28:45.667	Ventana	34.411	00:15:05:08	5.264	V2688-01
curled-around-by | Asteronyx | nil	cruise	Halipteris	619.97	2688	 	36.794373	-122.01951	1677299	0.42	2005-07-14 16:29:37.2	Ventana	34.402	00:15:57:07	5.299	V2688-01
bioturbated | nil | nil	cruise	mud	619.12	2688	 	36.794422	-122.019485	1677301	0.42	2005-07-14 16:29:48.017	Ventana	34.411	00:16:08:01	5.317	V2688-01
population-density | self | dense, population-quantity | self | 999	cruise	Asteroidea	618.84	2688	 	36.794544	-122.019424	1677304	0.43	2005-07-14 16:30:14.0	Ventana	34.402	00:16:34:26	5.349	V2688-01
population-quantity | self | 999	cruise	Asteroidea	615.28	2688	 	36.794895	-122.01916	1677318	0.44	2005-07-14 16:31:43.0	Ventana	34.4	00:18:03:14	5.42	V2688-01
bioturbated | nil | nil	cruise	mud	615.2	2688	 	36.79491	-122.01914	1677319	0.44	2005-07-14 16:31:48.767	Ventana	34.4	00:18:08:05	5.42	V2688-01
population-density | self | dense, population-quantity | self | 999	cruise	Asteroidea	612.12	2688	 	36.795322	-122.019104	1677336	0.45	2005-07-14 16:33:45.0	Ventana	34.386	00:20:04:27	5.538	V2688-01
identity-reference | self | 1	cruise	Porifera	612.43	2688	http://search.mbari.org/ARCHIVE/frameGrabs/Ventana/images/2688/00_20_47_22.jpg	36.795444	-122.019165	20005082	0.45	2005-07-14 16:34:28.0	Ventana	34.385	00:20:47:22	5.529	V2688-01
identity-reference | self | 1	cruise	Porifera	612.49	2688	http://search.mbari.org/ARCHIVE/frameGrabs/Ventana/images/2688/00_20_52_22.jpg	36.795452	-122.01917	20005083	0.45	2005-07-14 16:34:32.0	Ventana	34.385	00:20:52:22	5.529	V2688-01
bioturbated | nil | nil	cruise	mud	611.55	2688	 	36.795555	-122.0193	1677339	0.45	2005-07-14 16:35:29.267	Ventana	34.383	00:21:48:13	5.503	V2688-01
population-density | self | dense, population-quantity | self | 999	cruise	Asteroidea	611.34	2688	 	36.795563	-122.01932	1677340	0.45	2005-07-14 16:35:32.7	Ventana	34.383	00:21:51:26	5.503	V2688-01
comment | self | plume of mud rising from benthos probably from cat shark	cruise	physical object	611.77	2688	http://search.mbari.org/ARCHIVE/frameGrabs/Ventana/images/2688/00_22_27_09.jpg	36.795654	-122.01946	1677349	0.45	2005-07-14 16:36:09.0	Ventana	34.389	00:22:27:09	5.475	V2688-01
population-quantity | self | 999	cruise	Asteroidea	611.32	2688	 	36.795708	-122.019554	1677351	0.45	2005-07-14 16:36:29.0	Ventana	34.392	00:22:49:01	5.497	V2688-01
comment | self | plume of mud rising from benthos probably from cat shark	cruise	physical object	611.24	2688	 	36.795765	-122.019646	1677354	0.45	2005-07-14 16:36:47.847	Ventana	34.387	00:23:07:13	5.494	V2688-01
identity-certainty | self | maybe	cruise	Myctophidae	611.0	2688	 	36.79582	-122.01976	1677359	0.45	2005-07-14 16:37:09.0	Ventana	34.387	00:23:29:15	5.524	V2688-01
population-quantity | self | 999	cruise	Sebastolobus	610.88	2688	 	36.795895	-122.02002	1677369	0.45	2005-07-14 16:37:51.0	Ventana	34.382	00:24:10:27	5.517	V2688-01
identity-certainty | self | maybe	cruise	Anoplopoma fimbria	609.52	2688	 	36.79594	-122.02013	1677373	0.45	2005-07-14 16:38:13.0	Ventana	34.387	00:24:32:21	5.499	V2688-01
bioturbated | nil | nil	cruise	mud	604.0	2688	 	36.7961	-122.020226	1677378	0.45	2005-07-14 16:39:04.4	Ventana	34.381	00:25:23:10	5.545	V2688-01
population-quantity | self | 999	cruise	Asteroidea	595.9	2688	 	36.79648	-122.02017	1677387	0.47	2005-07-14 16:40:24.0	Ventana	34.376	00:26:43:14	5.635	V2688-01
bioturbated | nil | nil	cruise	mud	594.73	2688	 	36.79652	-122.02015	1677388	0.47	2005-07-14 16:40:34.0	Ventana	34.376	00:26:53:10	5.635	V2688-01
comment | self | making sand plume	cruise	Scyliorhinidae	594.42	2688	 	36.796543	-122.02014	1677390	0.47	2005-07-14 16:40:40.0	Ventana	34.374	00:27:00:09	5.618	V2688-01
population-quantity | self | 999	cruise	Anthomastus ritteri	583.7	2688	 	36.796906	-122.020004	1677400	0.48	2005-07-14 16:43:17.0	Ventana	34.369	00:29:37:06	5.724	V2688-01
population-quantity | self | 999	cruise	Asteroidea	582.26	2688	 	36.796864	-122.02003	1677402	0.49	2005-07-14 16:46:46.0	Ventana	34.369	00:33:05:05	5.743	V2688-01
population-quantity | self | 999	cruise	Anthomastus ritteri	582.59	2688	http://search.mbari.org/ARCHIVE/frameGrabs/Ventana/images/2688/00_34_51_24.jpg	36.7969	-122.02002	1677404	0.49	2005-07-14 16:48:34.0	Ventana	34.363	00:34:51:24	5.753	V2688-01
sampled-by | Push Corer | nil	cruise	mud	583.28	2688	http://search.mbari.org/ARCHIVE/frameGrabs/Ventana/images/2688/00_35_14_25.jpg	36.79691	-122.02002	20005094	0.49	2005-07-14 16:48:57.0	Ventana	34.365	00:35:14:25	5.745	V2688-01
state | self | full	cruise	Push Corer	583.18	2688	http://search.mbari.org/ARCHIVE/frameGrabs/Ventana/images/2688/00_35_25_25.jpg	36.796913	-122.02002	20005095	0.49	2005-07-14 16:49:07.0	Ventana	34.365	00:35:25:25	5.745	V2688-01
perspective | self | close-up	cruise	corehole	582.28	2688	http://search.mbari.org/ARCHIVE/frameGrabs/Ventana/images/2688/00_37_27_06.jpg	36.796932	-122.02002	20005096	0.49	2005-07-14 16:51:09.0	Ventana	34.364	00:37:27:06	5.767	V2688-01
population-quantity | self | 999	cruise	Anthomastus ritteri	581.0	2688	 	36.79695	-122.02005	1677407	0.49	2005-07-14 16:52:58.9	Ventana	34.363	00:39:17:15	5.782	V2688-01
bioturbated | nil | nil	cruise	mud	519.15	2688	http://search.mbari.org/ARCHIVE/frameGrabs/Ventana/images/2688/00_55_13_03.jpg	36.799862	-122.01899	20005106	0.66	2005-07-14 17:08:55.0	Ventana	34.315	00:55:13:03	6.367	V2688-01
population-density | self | dense, population-quantity | self | 999	cruise	Asteroidea	575.86	2688	 	36.79699	-122.02003	1677408	0.5	2005-07-14 16:54:00.0	Ventana	34.359	00:40:19:01	5.812	V2688-01
population-quantity | self | 999	cruise	mound	566.64	2688	 	36.797142	-122.01997	1677412	0.51	2005-07-14 16:56:02.0	Ventana	34.362	00:42:20:18	5.855	V2688-01
population-quantity | self | 999	cruise	burrow	565.66	2688	 	36.797165	-122.01997	1677413	0.51	2005-07-14 16:56:12.0	Ventana	34.356	00:42:30:21	5.869	V2688-01
population-density | self | dense, population-quantity | self | 999	cruise	Asteroidea	562.6	2688	 	36.797237	-122.01997	1677415	0.52	2005-07-14 16:56:43.0	Ventana	34.354	00:43:01:19	5.894	V2688-01
population-quantity | self | 999	cruise	Sebastolobus	561.15	2688	 	36.797264	-122.01997	1677416	0.51	2005-07-14 16:56:52.0	Ventana	34.356	00:43:10:15	5.854	V2688-01
population-quantity | self | 999	cruise	mound	558.91	2688	 	36.797344	-122.01998	1677419	0.51	2005-07-14 16:57:28.187	Ventana	34.358	00:43:46:15	5.864	V2688-01
population-quantity | self | 999	cruise	burrow	558.66	2688	 	36.797356	-122.01998	1677420	0.51	2005-07-14 16:57:33.623	Ventana	34.358	00:43:52:08	5.864	V2688-01
bioturbated | nil | nil	cruise	mud	554.59	2688	 	36.79744	-122.01999	1677422	0.54	2005-07-14 16:58:07.267	Ventana	34.354	00:44:25:01	6.033	V2688-01
population-density | self | dense, population-quantity | self | 999	cruise	Asteroidea	549.66	2688	 	36.797604	-122.01995	1677425	0.58	2005-07-14 16:58:47.0	Ventana	34.343	00:45:06:03	6.115	V2688-01
curled-around-by | Asteronyx | nil	cruise	Halipteris	552.35	2688	 	36.797504	-122.01998	1677424	0.58	2005-07-14 16:58:23.0	Ventana	34.336	00:44:42:10	6.112	V2688-01
population-quantity | self | 999	cruise	Pleuronectiformes	541.59	2688	 	36.79813	-122.01969	1677436	0.62	2005-07-14 17:00:46.0	Ventana	34.322	00:47:04:26	6.264	V2688-01
bioturbated | nil | nil	cruise	mud	538.76	2688	 	36.798306	-122.019615	1677441	0.62	2005-07-14 17:01:27.467	Ventana	34.323	00:47:45:01	6.254	V2688-01
population-quantity | self | 999	cruise	Asteroidea	538.81	2688	 	36.79833	-122.01961	1677443	0.62	2005-07-14 17:01:32.0	Ventana	34.323	00:47:50:19	6.254	V2688-01
population-quantity | self | 999	cruise	Pleuronectiformes	535.04	2688	 	36.798584	-122.01951	1677450	0.62	2005-07-14 17:02:25.0	Ventana	34.324	00:48:43:13	6.248	V2688-01
population-quantity | self | 2	cruise	Scyliorhinidae	531.65	2688	http://search.mbari.org/ARCHIVE/frameGrabs/Ventana/images/2688/00_49_37_28.jpg	36.79882	-122.01939	20005102	0.61	2005-07-14 17:03:21.0	Ventana	34.326	00:49:37:28	6.222	V2688-01
population-quantity | self | 999	cruise	LRJ Complex	529.24	2688	 	36.798874	-122.01936	1677460	0.6	2005-07-14 17:03:40.0	Ventana	34.336	00:49:58:27	6.216	V2688-01
bioturbated | nil | nil	cruise	mud	527.29	2688	 	36.799053	-122.01929	1677465	0.62	2005-07-14 17:04:03.067	Ventana	34.331	00:50:20:29	6.273	V2688-01
population-quantity | self | 999	cruise	burrow	525.64	2688	 	36.799232	-122.0192	1677468	0.65	2005-07-14 17:04:42.0	Ventana	34.318	00:50:59:10	6.336	V2688-01
population-quantity | self | 999	cruise	Asteroidea	523.66	2688	 	36.799408	-122.01912	1677470	0.65	2005-07-14 17:05:23.0	Ventana	34.316	00:51:40:26	6.341	V2688-01
population-quantity | self | 999	cruise	Asteroidea	521.62	2688	 	36.799652	-122.01902	1677476	0.66	2005-07-14 17:07:28.0	Ventana	34.314	00:53:45:28	6.354	V2688-01
population-quantity | self | 999	cruise	burrow	520.36	2688	 	36.79973	-122.019005	1677478	0.65	2005-07-14 17:08:05.467	Ventana	34.316	00:54:22:19	6.352	V2688-01
population-density | self | dense, population-quantity | self | 999	cruise	Asteroidea	519.67	2688	 	36.79978	-122.019	1677480	0.66	2005-07-14 17:08:25.0	Ventana	34.315	00:54:42:23	6.359	V2688-01
population-quantity | self | 999	cruise	Pannychia moseleyi	518.73	2688	 	36.799934	-122.01898	1677486	0.66	2005-07-14 17:09:19.0	Ventana	34.313	00:55:36:07	6.368	V2688-01
identity-certainty | self | maybe	cruise	Pennatulacea	518.55	2688	 	36.79997	-122.01898	1677488	0.66	2005-07-14 17:09:29.0	Ventana	34.316	00:55:47:01	6.37	V2688-01
population-quantity | self | 999	cruise	Asteroidea	518.05	2688	 	36.800095	-122.01897	1677496	0.66	2005-07-14 17:10:09.0	Ventana	34.313	00:56:26:17	6.365	V2688-01
population-quantity | self | 999	cruise	LRJ Complex	516.85	2688	 	36.800297	-122.01891	1677500	0.66	2005-07-14 17:11:42.0	Ventana	34.311	00:57:59:15	6.375	V2688-01
bioturbated | nil | nil	cruise	mud	517.17	2688	 	36.800323	-122.018936	1677501	0.66	2005-07-14 17:12:11.033	Ventana	34.314	00:58:27:28	6.381	V2688-01
identity-reference | self | 2	cruise	wood	516.33	2688	http://search.mbari.org/ARCHIVE/frameGrabs/Ventana/images/2688/00_59_40_25.jpg	36.80035	-122.01909	20005111	0.67	2005-07-14 17:13:24.0	Ventana	34.31	00:59:40:25	6.401	V2688-01
identity-reference | self | 2	cruise	wood	516.45	2688	http://search.mbari.org/ARCHIVE/frameGrabs/Ventana/images/2688/00_59_54_01.jpg	36.800354	-122.01912	1677506	0.67	2005-07-14 17:13:39.0	Ventana	34.312	00:59:54:01	6.394	V2688-01
identity-reference | self | 2	cruise	wood	516.26	2688	http://search.mbari.org/ARCHIVE/frameGrabs/Ventana/images/2688/01_00_01_25.jpg	36.800358	-122.01912	20005112	0.67	2005-07-14 17:13:44.0	Ventana	34.312	01:00:01:25	6.394	V2688-01
identity-reference | self | 2	cruise	wood	516.94	2688	http://search.mbari.org/ARCHIVE/frameGrabs/Ventana/images/2688/01_01_35_07.jpg	36.80039	-122.01916	20005115	0.67	2005-07-14 17:15:19.0	Ventana	34.309	01:01:35:07	6.398	V2688-01
identity-reference | self | 2	cruise	wood	517.01	2688	http://search.mbari.org/ARCHIVE/frameGrabs/Ventana/images/2688/01_01_39_06.jpg	36.80039	-122.01916	20005116	0.67	2005-07-14 17:15:23.0	Ventana	34.311	01:01:39:06	6.397	V2688-01
identity-reference | self | 2	cruise	wood	517.04	2688	http://search.mbari.org/ARCHIVE/frameGrabs/Ventana/images/2688/01_01_48_06.jpg	36.80039	-122.01916	20005118	0.67	2005-07-14 17:15:31.0	Ventana	34.311	01:01:48:06	6.397	V2688-01
identity-reference | self | 2	cruise	wood	517.02	2688	http://search.mbari.org/ARCHIVE/frameGrabs/Ventana/images/2688/01_02_04_06.jpg	36.800385	-122.01916	20005120	0.67	2005-07-14 17:15:47.0	Ventana	34.312	01:02:04:06	6.396	V2688-01
identity-reference | self | 2	cruise	wood	517.04	2688	http://search.mbari.org/ARCHIVE/frameGrabs/Ventana/images/2688/01_02_22_05.jpg	36.800385	-122.01916	20005123	0.67	2005-07-14 17:16:05.0	Ventana	34.311	01:02:22:05	6.396	V2688-01
identity-reference | self | 2	cruise	wood	516.8	2688	http://search.mbari.org/ARCHIVE/frameGrabs/Ventana/images/2688/01_02_31_20.jpg	36.800385	-122.01916	20005124	0.67	2005-07-14 17:16:15.0	Ventana	34.311	01:02:31:20	6.395	V2688-01
identity-reference | self | 2	cruise	wood	516.66	2688	http://search.mbari.org/ARCHIVE/frameGrabs/Ventana/images/2688/01_02_41_20.jpg	36.80039	-122.019165	20005125	0.67	2005-07-14 17:16:25.0	Ventana	34.311	01:02:41:20	6.394	V2688-01
under | wood | nil	cruise	Sebastes	517.15	2688	http://search.mbari.org/ARCHIVE/frameGrabs/Ventana/images/2688/01_02_12_29.jpg	36.800385	-122.01916	1677510	0.67	2005-07-14 17:15:56.0	Ventana	34.311	01:02:12:29	6.396	V2688-01
population-quantity | self | 999	cruise	Allocentrotus fragilis	516.8	2688	http://search.mbari.org/ARCHIVE/frameGrabs/Ventana/images/2688/01_02_46_29.jpg	36.80039	-122.019165	1677513	0.67	2005-07-14 17:16:32.0	Ventana	34.311	01:02:46:29	6.394	V2688-01
population-quantity | self | 999	cruise	Asteroidea	517.05	2688	 	36.80042	-122.019165	1677514	0.67	2005-07-14 17:17:17.0	Ventana	34.312	01:03:34:11	6.394	V2688-01
bioturbated | nil | nil	cruise	mud	516.88	2688	 	36.800434	-122.01915	1677515	0.67	2005-07-14 17:17:29.88	Ventana	34.312	01:03:47:14	6.39	V2688-01
audio-comment | self | shark, identity-certainty | self | maybe	cruise	Anoplopoma fimbria	516.46	2688	http://search.mbari.org/ARCHIVE/frameGrabs/Ventana/images/2688/01_04_03_00.jpg	36.80047	-122.01912	1677518	0.67	2005-07-14 17:17:47.0	Ventana	34.313	01:04:03:00	6.395	V2688-01
population-quantity | self | 999	cruise	burrow	515.73	2688	 	36.800503	-122.0191	1677519	0.67	2005-07-14 17:18:01.0	Ventana	34.312	01:04:17:16	6.402	V2688-01
upon | Porifera | nil, population-quantity | self | 999	cruise	Asteronyx	516.42	2688	http://search.mbari.org/ARCHIVE/frameGrabs/Ventana/images/2688/01_05_13_23.jpg	36.800667	-122.01899	1677524	0.68	2005-07-14 17:19:01.0	Ventana	34.31	01:05:13:23	6.425	V2688-01
bioturbated | nil | nil	cruise	mud	515.46	2688	 	36.800777	-122.01888	1677525	0.69	2005-07-14 17:20:13.0	Ventana	34.308	01:05:57:29	6.435	V2688-02
identity-certainty | self | maybe	cruise	Anoplopoma fimbria	515.33	2688	 	36.80081	-122.01885	1677526	0.68	2005-07-14 17:20:31.0	Ventana	34.31	01:06:16:16	6.418	V2688-02
population-quantity | self | 999	cruise	Asteroidea	514.8	2688	 	36.80083	-122.01884	1677527	0.68	2005-07-14 17:20:42.0	Ventana	34.307	01:06:26:20	6.422	V2688-02
population-quantity | self | 2	cruise	Sebastes	512.76	2688	http://search.mbari.org/ARCHIVE/frameGrabs/Ventana/images/2688/01_07_04_19.jpg	36.800903	-122.01877	1677530	0.68	2005-07-14 17:21:21.0	Ventana	34.309	01:07:04:19	6.445	V2688-02
population-quantity | self | 999	cruise	LRJ Complex	509.29	2688	 	36.800972	-122.018715	1677533	0.68	2005-07-14 17:22:00.0	Ventana	34.31	01:07:44:14	6.426	V2688-02
identity-certainty | self | maybe	cruise	LRJ Complex	508.56	2688	http://search.mbari.org/ARCHIVE/frameGrabs/Ventana/images/2688/01_07_50_03.jpg	36.800983	-122.01871	1677537	0.68	2005-07-14 17:22:07.0	Ventana	34.31	01:07:50:03	6.426	V2688-02
population-density | self | dense, population-quantity | self | 999	cruise	Asteroidea	508.01	2688	 	36.801003	-122.01869	1677538	0.68	2005-07-14 17:22:14.0	Ventana	34.307	01:07:58:20	6.433	V2688-02
population-quantity | self | 999	cruise	Pleuronectiformes	501.22	2688	 	36.801167	-122.018616	1677543	0.71	2005-07-14 17:23:06.0	Ventana	34.316	01:08:51:06	6.512	V2688-02
population-quantity | self | 999	cruise	LRJ Complex	499.92	2688	 	36.801205	-122.0186	1677545	0.75	2005-07-14 17:23:16.0	Ventana	34.295	01:09:00:25	6.598	V2688-02
population-quantity | self | 999	cruise	Sebastolobus	495.5	2688	 	36.80135	-122.01856	1677549	0.76	2005-07-14 17:23:51.0	Ventana	34.294	01:09:35:09	6.609	V2688-02
population-quantity | self | 999	cruise	LRJ Complex	494.8	2688	 	36.80139	-122.018555	1677550	0.77	2005-07-14 17:24:00.0	Ventana	34.295	01:09:44:26	6.618	V2688-02
identity-certainty | self | maybe	cruise	Zoarcidae	493.29	2688	 	36.801468	-122.01854	1677551	0.77	2005-07-14 17:24:18.0	Ventana	34.291	01:10:03:15	6.622	V2688-02
identity-certainty | self | maybe, population-quantity | self | 999	cruise	Lycenchelys	490.91	2688	 	36.801605	-122.0185	1677555	0.77	2005-07-14 17:24:58.0	Ventana	34.292	01:10:42:29	6.63	V2688-02
population-quantity | self | 999	cruise	Zoarcidae	488.92	2688	 	36.8017	-122.01847	1677559	0.77	2005-07-14 17:25:29.0	Ventana	34.292	01:11:13:15	6.634	V2688-02
population-quantity | self | 999	cruise	Pannychia moseleyi	477.71	2688	 	36.802048	-122.01828	1677577	0.8	2005-07-14 17:27:55.0	Ventana	34.289	01:13:39:03	6.677	V2688-02
population-quantity | self | 999	cruise	Zoarcidae	471.68	2688	 	36.802265	-122.01822	1677586	0.82	2005-07-14 17:29:28.0	Ventana	34.282	01:15:12:11	6.74	V2688-02
population-quantity | self | 999	cruise	Rathbunaster californicus	465.5	2688	 	36.80248	-122.018234	1677596	0.82	2005-07-14 17:30:51.0	Ventana	34.283	01:16:35:04	6.738	V2688-02
population-quantity | self | 999	cruise	Pleuronectiformes	464.53	2688	 	36.802517	-122.018234	1677597	0.83	2005-07-14 17:31:01.0	Ventana	34.284	01:16:45:02	6.756	V2688-02
population-quantity | self | 999	cruise	Pleuronectiformes	462.25	2688	 	36.80263	-122.018234	1677598	0.85	2005-07-14 17:31:30.267	Ventana	34.278	01:17:14:04	6.787	V2688-02
population-density | self | dense, population-quantity | self | 999	cruise	Psolus squamatus	291.63	2688	http://search.mbari.org/ARCHIVE/frameGrabs/Ventana/images/2688/02_00_08_22.jpg	36.808895	-122.02033	20005166	1.39	2005-07-14 18:14:27.0	Ventana	34.215	02:00:08:22	7.909	V2688-02
population-quantity | self | 999	cruise	Rathbunaster californicus	461.22	2688	 	36.802742	-122.01821	1677603	0.85	2005-07-14 17:31:55.0	Ventana	34.278	01:17:38:29	6.796	V2688-02
population-quantity | self | 999	cruise	Zoarcidae	460.99	2688	 	36.802807	-122.0182	1677604	0.85	2005-07-14 17:32:11.0	Ventana	34.275	01:17:55:14	6.804	V2688-02
population-quantity | self | 999	cruise	Rathbunaster californicus	460.27	2688	 	36.802895	-122.01817	1677607	0.86	2005-07-14 17:32:33.0	Ventana	34.281	01:18:16:26	6.811	V2688-02
population-quantity | self | 999	cruise	Anthomastus ritteri	460.17	2688	http://search.mbari.org/ARCHIVE/frameGrabs/Ventana/images/2688/01_18_30_08.jpg	36.80295	-122.01816	1677609	0.87	2005-07-14 17:32:48.0	Ventana	34.276	01:18:30:08	6.839	V2688-02
population-quantity | self | 999	cruise	Asteronyx	458.79	2688	 	36.803032	-122.018135	1677611	0.88	2005-07-14 17:33:07.0	Ventana	34.271	01:18:51:03	6.847	V2688-02
identity-certainty | self | maybe	cruise	wood	458.62	2688	http://search.mbari.org/ARCHIVE/frameGrabs/Ventana/images/2688/01_18_52_29.jpg	36.803047	-122.01813	1677616	0.88	2005-07-14 17:33:11.0	Ventana	34.271	01:18:52:29	6.847	V2688-02
population-quantity | self | 999	cruise	Asteronyx	452.54	2688	 	36.80337	-122.01809	1677624	0.9	2005-07-14 17:35:15.983	Ventana	34.268	01:20:59:19	6.893	V2688-02
population-quantity | self | 999	cruise	Asteronyx	451.71	2688	http://search.mbari.org/ARCHIVE/frameGrabs/Ventana/images/2688/01_21_51_18.jpg	36.80342	-122.01808	20005144	0.9	2005-07-14 17:36:07.0	Ventana	34.269	01:21:51:18	6.889	V2688-02
population-quantity | self | 999	cruise	Asteronyx	448.57	2688	 	36.80352	-122.01808	1677634	0.9	2005-07-14 17:37:21.833	Ventana	34.273	01:23:05:25	6.891	V2688-02
population-quantity | self | 999	cruise	Anthomastus ritteri	445.04	2688	 	36.803635	-122.01808	1677640	0.89	2005-07-14 17:38:08.267	Ventana	34.272	01:23:51:22	6.873	V2688-02
population-quantity | self | 999	cruise	Anthomastus ritteri	442.29	2688	 	36.80374	-122.01811	1677645	0.9	2005-07-14 17:38:42.2	Ventana	34.271	01:24:25:19	6.889	V2688-02
population-quantity | self | 999	cruise	Halipteris	443.28	2688	 	36.803703	-122.0181	1677643	0.89	2005-07-14 17:38:29.0	Ventana	34.272	01:24:12:16	6.881	V2688-02
population-quantity | self | 999	cruise	Asteronyx	442.09	2688	 	36.80375	-122.01811	1677646	0.9	2005-07-14 17:38:44.667	Ventana	34.271	01:24:28:03	6.889	V2688-02
identity-certainty | self | maybe	cruise	Myctophidae	441.31	2688	 	36.803913	-122.0182	1677650	0.9	2005-07-14 17:39:28.0	Ventana	34.271	01:25:12:01	6.883	V2688-02
population-quantity | self | 999	cruise	Pleuronectiformes	441.78	2688	 	36.803963	-122.01824	1677651	0.9	2005-07-14 17:39:40.0	Ventana	34.269	01:25:23:27	6.887	V2688-02
identity-certainty | self | maybe	cruise	Merluccius productus	440.48	2688	 	36.80431	-122.01847	1677663	0.87	2005-07-14 17:40:57.0	Ventana	34.275	01:26:40:15	6.839	V2688-02
population-quantity | self | 999	cruise	Rathbunaster californicus	440.71	2688	 	36.804348	-122.018486	1677664	0.87	2005-07-14 17:41:06.0	Ventana	34.275	01:26:49:14	6.839	V2688-02
population-quantity | self | 999	cruise	Sebastolobus	438.39	2688	 	36.804527	-122.01855	1677667	0.88	2005-07-14 17:41:43.0	Ventana	34.275	01:27:26:25	6.842	V2688-02
population-quantity | self | 999	cruise	Rathbunaster californicus	433.04	2688	 	36.80502	-122.01878	1677676	0.92	2005-07-14 17:43:53.0	Ventana	34.266	01:29:36:20	6.946	V2688-02
population-quantity | self | 999	cruise	Appendicularia	433.09	2688	 	36.805016	-122.018776	1677680	0.93	2005-07-14 17:43:51.0	Ventana	34.266	01:29:35:06	6.946	V2688-02
population-quantity | self | 999	cruise	Pleuronectiformes	432.27	2688	 	36.805073	-122.01883	1677684	0.93	2005-07-14 17:44:14.0	Ventana	34.265	01:29:57:07	6.949	V2688-02
population-quantity | self | 999	cruise	Glyptocephalus zachirus	433.39	2688	 	36.805256	-122.019005	1677699	0.92	2005-07-14 17:45:36.033	Ventana	34.27	01:31:19:01	6.923	V2688-02
identity-certainty | self | maybe	cruise	Luidia	432.24	2688	http://search.mbari.org/ARCHIVE/frameGrabs/Ventana/images/2688/01_31_41_23.jpg	36.80533	-122.01903	1677701	0.92	2005-07-14 17:46:00.0	Ventana	34.27	01:31:41:23	6.93	V2688-02
population-quantity | self | 999	cruise	Rathbunaster californicus	430.72	2688	 	36.805393	-122.01904	1677705	0.92	2005-07-14 17:46:17.0	Ventana	34.267	01:32:00:16	6.931	V2688-02
population-quantity | self | 999	cruise	Rathbunaster californicus	429.31	2688	 	36.805454	-122.01905	1677709	0.92	2005-07-14 17:46:33.0	Ventana	34.271	01:32:17:01	6.931	V2688-02
population-quantity | self | 999	cruise	Pleuronectiformes	427.6	2688	 	36.805542	-122.01907	1677712	0.93	2005-07-14 17:46:54.0	Ventana	34.264	01:32:37:07	6.952	V2688-02
curled-around-by | Asteronyx | nil	cruise	Halipteris	426.79	2688	 	36.805565	-122.01908	1677713	0.93	2005-07-14 17:47:00.0	Ventana	34.264	01:32:43:09	6.952	V2688-02
identity-certainty | self | maybe	cruise	Zoarcidae	422.86	2688	 	36.805733	-122.01913	1677716	0.92	2005-07-14 17:47:40.0	Ventana	34.269	01:33:23:15	6.94	V2688-02
population-quantity | self | 999	cruise	Pleuronectiformes	420.9	2688	 	36.8058	-122.01914	1677718	0.93	2005-07-14 17:47:58.0	Ventana	34.264	01:33:41:18	6.949	V2688-02
population-quantity | self | 999	cruise	Asteronyx	419.77	2688	 	36.80586	-122.01916	1677720	0.93	2005-07-14 17:48:12.0	Ventana	34.264	01:33:55:17	6.94	V2688-02
population-quantity | self | 999	cruise	Pleuronectiformes	414.31	2688	 	36.806084	-122.01923	1677730	0.94	2005-07-14 17:49:09.0	Ventana	34.262	01:34:52:15	6.981	V2688-02
identity-certainty | self | maybe	cruise	Lycenchelys	403.77	2688	 	36.806538	-122.01941	1677738	1.04	2005-07-14 17:50:49.0	Ventana	34.25	01:36:32:05	7.165	V2688-02
population-quantity | self | 999	cruise	Pasiphaea	402.93	2688	 	36.80657	-122.019424	1677739	1.04	2005-07-14 17:50:58.0	Ventana	34.255	01:36:41:10	7.168	V2688-02
population-quantity | self | 999	cruise	Pleuronectiformes	397.11	2688	 	36.80677	-122.01951	1677742	1.03	2005-07-14 17:51:51.0	Ventana	34.252	01:37:33:25	7.135	V2688-02
population-quantity | self | 999	cruise	Glyptocephalus zachirus	391.44	2688	 	36.806908	-122.01956	1677745	1.02	2005-07-14 17:52:25.167	Ventana	34.255	01:38:08:08	7.115	V2688-02
population-quantity | self | 999	cruise	Allocentrotus fragilis	388.9	2688	 	36.806976	-122.019585	1677746	1.02	2005-07-14 17:52:44.233	Ventana	34.253	01:38:27:09	7.13	V2688-02
population-quantity | self | 999	cruise	Asteronyx	386.31	2688	 	36.80705	-122.019615	1677747	1.02	2005-07-14 17:53:02.427	Ventana	34.257	01:38:45:14	7.146	V2688-02
population-quantity | self | 999	cruise	Allocentrotus fragilis	381.42	2688	 	36.807144	-122.019646	1677749	1.05	2005-07-14 17:53:28.733	Ventana	34.262	01:39:11:23	7.226	V2688-02
identity-certainty | self | maybe	cruise	Lycenchelys	377.93	2688	 	36.807224	-122.01968	1677751	1.09	2005-07-14 17:53:48.0	Ventana	34.248	01:39:30:20	7.24	V2688-02
identity-certainty | self | maybe, population-quantity | self | 999	cruise	pebble	374.73	2688	 	36.807285	-122.0197	1677752	1.13	2005-07-14 17:54:08.0	Ventana	34.241	01:39:50:29	7.35	V2688-02
population-quantity | self | 999	cruise	Glyptocephalus zachirus	369.18	2688	 	36.807392	-122.01973	1677753	1.15	2005-07-14 17:54:47.133	Ventana	34.239	01:40:29:18	7.366	V2688-02
population-quantity | self | 999	cruise	boulder	366.08	2688	 	36.807453	-122.019745	1677755	1.15	2005-07-14 17:55:10.0	Ventana	34.238	01:40:52:19	7.368	V2688-02
population-quantity | self | 999	cruise	Allocentrotus fragilis	362.99	2688	 	36.807503	-122.01975	1677756	1.15	2005-07-14 17:55:30.66	Ventana	34.238	01:41:13:17	7.37	V2688-02
population-quantity | self | 999	cruise	Psolus squamatus	352.43	2688	http://search.mbari.org/ARCHIVE/frameGrabs/Ventana/images/2688/01_45_54_04.jpg	36.807663	-122.020004	20005154	1.19	2005-07-14 18:00:12.0	Ventana	34.228	01:45:54:04	7.458	V2688-02
population-quantity | self | 999	cruise	Pasiphaea	345.08	2688	 	36.807735	-122.0198	1677793	1.2	2005-07-14 17:57:26.0	Ventana	34.232	01:43:08:15	7.483	V2688-02
population-quantity | self | 999	cruise	Psolus squamatus	342.93	2688	 	36.807766	-122.01983	1677794	1.2	2005-07-14 17:57:44.0	Ventana	34.23	01:43:26:21	7.485	V2688-02
population-quantity | self | 999	cruise	Pleuronectiformes	339.86	2688	 	36.8078	-122.01989	1677798	1.21	2005-07-14 17:58:11.0	Ventana	34.231	01:43:53:29	7.492	V2688-02
population-quantity | self | 999	cruise	Allocentrotus fragilis	339.04	2688	 	36.807808	-122.019905	1677799	1.21	2005-07-14 17:58:21.033	Ventana	34.231	01:44:03:08	7.492	V2688-02
population-quantity | self | 999	cruise	Psolus squamatus	339.83	2688	 	36.80779	-122.01996	1677801	1.21	2005-07-14 17:58:48.0	Ventana	34.231	01:44:30:04	7.491	V2688-02
sample-reference | self | V2688-RS1a, sampled-by | manipulator | nil	cruise	rock	352.84	2688	http://search.mbari.org/ARCHIVE/frameGrabs/Ventana/images/2688/01_46_39_18.jpg	36.807655	-122.02	20005156	1.17	2005-07-14 18:00:57.0	Ventana	34.235	01:46:39:18	7.416	V2688-02
grabbing | rock | nil	cruise	manipulator	353.02	2688	http://search.mbari.org/ARCHIVE/frameGrabs/Ventana/images/2688/01_46_20_18.jpg	36.807655	-122.020004	20005155	1.18	2005-07-14 18:00:38.0	Ventana	34.229	01:46:20:18	7.408	V2688-02
population-quantity | self | 999	cruise	Psolus squamatus	352.02	2688	 	36.807655	-122.01998	1677804	1.18	2005-07-14 18:01:56.0	Ventana	34.238	01:47:38:04	7.439	V2688-02
population-quantity | self | 999	cruise	Actiniaria	352.87	2688	 	36.807674	-122.01997	1677805	1.17	2005-07-14 18:03:02.0	Ventana	34.233	01:48:44:06	7.406	V2688-02
sample-reference | self | V2688-RS1b, sampled-by | manipulator | nil	cruise	rock	353.04	2688	http://search.mbari.org/ARCHIVE/frameGrabs/Ventana/images/2688/01_48_56_04.jpg	36.807682	-122.01997	1677806	1.17	2005-07-14 18:03:18.0	Ventana	34.236	01:48:56:04	7.402	V2688-02
perspective | self | close-up	cruise	mud	336.47	2688	http://search.mbari.org/ARCHIVE/frameGrabs/Ventana/images/2688/01_53_49_04.jpg	36.808086	-122.02016	20005158	1.22	2005-07-14 18:08:07.0	Ventana	34.23	01:53:49:04	7.529	V2688-02
population-quantity | self | 999	cruise	Psolus squamatus	350.74	2688	 	36.80772	-122.02001	1677810	1.16	2005-07-14 18:04:35.0	Ventana	34.238	01:50:17:03	7.391	V2688-02
population-quantity | self | 999	cruise	Allocentrotus fragilis	341.16	2688	 	36.807938	-122.02012	1677819	1.21	2005-07-14 18:06:33.0	Ventana	34.232	01:52:15:11	7.502	V2688-02
population-quantity | self | 999	cruise	Pleuronectiformes	336.47	2688	 	36.808083	-122.02015	1677823	1.22	2005-07-14 18:08:03.0	Ventana	34.23	01:53:44:23	7.529	V2688-02
population-quantity | self | 999	cruise	Allocentrotus fragilis	331.86	2688	 	36.808178	-122.02019	1677827	1.22	2005-07-14 18:09:19.533	Ventana	34.23	01:55:01:18	7.532	V2688-02
population-quantity | self | 999	cruise	boulder	330.68	2688	 	36.808197	-122.020195	1677828	1.22	2005-07-14 18:09:31.0	Ventana	34.231	01:55:13:16	7.54	V2688-02
population-quantity | self | 999	cruise	Psolus squamatus	326.51	2688	 	36.808285	-122.02022	1677832	1.24	2005-07-14 18:10:19.0	Ventana	34.238	01:56:00:16	7.597	V2688-02
population-quantity | self | 999	cruise	Allocentrotus fragilis	324.22	2688	 	36.808342	-122.02023	1677835	1.28	2005-07-14 18:10:45.833	Ventana	34.222	01:56:27:09	7.661	V2688-02
contains | Psolus squamatus | nil	cruise	boulder	330.82	2688	http://search.mbari.org/ARCHIVE/frameGrabs/Ventana/images/2688/01_55_11_16.jpg	36.808193	-122.020195	20005159	1.22	2005-07-14 18:09:29.0	Ventana	34.231	01:55:11:16	7.54	V2688-02
identity-certainty | self | maybe, population-quantity | self | 999	cruise	mud ball	319.31	2688	http://search.mbari.org/ARCHIVE/frameGrabs/Ventana/images/2688/01_57_15_28.jpg	36.80845	-122.020256	20005160	1.31	2005-07-14 18:11:34.0	Ventana	34.222	01:57:15:28	7.745	V2688-02
population-quantity | self | 999	cruise	Asteroidea	317.24	2688	http://search.mbari.org/ARCHIVE/frameGrabs/Ventana/images/2688/01_57_28_22.jpg	36.808483	-122.02026	1677845	1.32	2005-07-14 18:11:47.0	Ventana	34.226	01:57:28:22	7.753	V2688-02
identity-reference | self | 3, life-stage | self | juvenile	cruise	Raja rhina	316.77	2688	http://search.mbari.org/ARCHIVE/frameGrabs/Ventana/images/2688/01_57_32_27.jpg	36.808495	-122.02026	20005161	1.32	2005-07-14 18:11:52.0	Ventana	34.226	01:57:32:27	7.753	V2688-02
population-quantity | self | 999	cruise	boulder	313.48	2688	http://search.mbari.org/ARCHIVE/frameGrabs/Ventana/images/2688/01_57_53_26.jpg	36.80855	-122.02027	20005162	1.34	2005-07-14 18:12:12.0	Ventana	34.216	01:57:53:26	7.786	V2688-02
population-quantity | self | 999	cruise	Allocentrotus fragilis	311.5	2688	 	36.808582	-122.02028	1677846	1.34	2005-07-14 18:12:21.8	Ventana	34.216	01:58:03:20	7.786	V2688-02
relative-shape | self | steep	cruise	slope	302.88	2688	 	36.808743	-122.02031	1677858	1.36	2005-07-14 18:13:18.0	Ventana	34.215	01:59:00:08	7.833	V2688-02
population-quantity | self | 999	cruise	Zoarcidae	301.8	2688	 	36.80876	-122.02031	1677860	1.35	2005-07-14 18:13:26.0	Ventana	34.214	01:59:07:23	7.829	V2688-02
population-quantity | self | 999	cruise	Parastichopus	302.43	2688	http://search.mbari.org/ARCHIVE/frameGrabs/Ventana/images/2688/01_59_02_03.jpg	36.808754	-122.02031	1677859	1.36	2005-07-14 18:13:22.0	Ventana	34.215	01:59:02:03	7.833	V2688-02
population-quantity | self | 999	cruise	Psolus squamatus	295.73	2688	 	36.808853	-122.020325	1677863	1.36	2005-07-14 18:14:03.0	Ventana	34.218	01:59:44:03	7.844	V2688-02
identity-certainty | self | maybe	cruise	tube	286.11	2688	http://search.mbari.org/ARCHIVE/frameGrabs/Ventana/images/2688/02_01_05_21.jpg	36.80895	-122.02033	20005173	1.41	2005-07-14 18:15:25.0	Ventana	34.213	02:01:05:21	7.94	V2688-02
identity-certainty | self | maybe	cruise	Sebastomus complex	285.19	2688	http://search.mbari.org/ARCHIVE/frameGrabs/Ventana/images/2688/02_01_40_04.jpg	36.808952	-122.02034	20005176	1.41	2005-07-14 18:15:59.0	Ventana	34.209	02:01:40:04	7.942	V2688-02
trying | nil | nil	cruise	manipulator	284.74	2688	http://search.mbari.org/ARCHIVE/frameGrabs/Ventana/images/2688/02_03_36_01.jpg	36.808956	-122.02035	20005178	1.43	2005-07-14 18:17:56.0	Ventana	34.208	02:03:36:01	7.989	V2688-02
grabbing | rock | nil	cruise	manipulator	284.8	2688	http://search.mbari.org/ARCHIVE/frameGrabs/Ventana/images/2688/02_07_11_24.jpg	36.80901	-122.02034	20005184	1.42	2005-07-14 18:21:31.0	Ventana	34.208	02:07:11:24	7.983	V2688-02
sampled-by | manipulator | nil, sample-reference | self | V2688-RS2	cruise	rock	284.82	2688	http://search.mbari.org/ARCHIVE/frameGrabs/Ventana/images/2688/02_07_19_09.jpg	36.809013	-122.02034	20005185	1.42	2005-07-14 18:21:39.0	Ventana	34.211	02:07:19:09	7.975	V2688-02
population-quantity | self | 999	cruise	Actiniaria	274.32	2688	http://search.mbari.org/ARCHIVE/frameGrabs/Ventana/images/2688/02_10_46_12.jpg	36.80904	-122.02035	20005192	1.48	2005-07-14 18:25:31.0	Ventana	34.2	02:10:46:12	8.1	V2688-03
population-quantity | self | 999	cruise	Psolus squamatus	274.32	2688	http://search.mbari.org/ARCHIVE/frameGrabs/Ventana/images/2688/02_10_46_12.jpg	36.80904	-122.02035	1677881	1.48	2005-07-14 18:25:31.0	Ventana	34.2	02:10:46:12	8.1	V2688-03
population-quantity | self | 999	cruise	Porifera	273.33	2688	 	36.809044	-122.02035	1677885	1.49	2005-07-14 18:25:41.0	Ventana	34.198	02:10:57:06	8.122	V2688-03
population-quantity | self | 999	cruise	Actiniaria	266.77	2688	 	36.80908	-122.020355	1677887	1.51	2005-07-14 18:26:37.0	Ventana	34.189	02:11:52:29	8.19	V2688-03
population-quantity | self | 999	cruise	Porifera	266.38	2688	 	36.80908	-122.020355	1677888	1.51	2005-07-14 18:26:40.0	Ventana	34.189	02:11:56:27	8.19	V2688-03
population-quantity | self | 999	cruise	Psolus squamatus	266.15	2688	 	36.809082	-122.020355	1677889	1.51	2005-07-14 18:26:42.0	Ventana	34.189	02:11:58:23	8.19	V2688-03
audio-comment | self | birthday cake, image-quality | self | good	cruise	rock outcrop	265.91	2688	http://search.mbari.org/ARCHIVE/frameGrabs/Ventana/images/2688/02_12_01_24.jpg	36.809082	-122.020355	20005196	1.51	2005-07-14 18:26:44.0	Ventana	34.189	02:12:01:24	8.19	V2688-03
population-quantity | self | 999	cruise	Sebastes	264.13	2688	 	36.809097	-122.02036	1677891	1.52	2005-07-14 18:27:03.0	Ventana	34.195	02:12:18:26	8.175	V2688-03
population-quantity | self | 999	cruise	Actiniaria	263.59	2688	 	36.809105	-122.020355	1677892	1.52	2005-07-14 18:27:10.0	Ventana	34.191	02:12:26:02	8.186	V2688-03
population-quantity | self | 999	cruise	Porifera	263.19	2688	http://search.mbari.org/ARCHIVE/frameGrabs/Ventana/images/2688/02_12_32_24.jpg	36.809113	-122.020355	20005197	1.52	2005-07-14 18:27:17.0	Ventana	34.191	02:12:32:24	8.186	V2688-03
population-quantity | self | 999	cruise	Appendicularia	255.07	2688	 	36.80923	-122.02036	1677906	1.52	2005-07-14 18:29:07.0	Ventana	34.194	02:14:23:07	8.189	V2688-03
population-density | self | dense, population-quantity | self | 999	cruise	Allocentrotus fragilis	253.65	2688	http://search.mbari.org/ARCHIVE/frameGrabs/Ventana/images/2688/02_14_50_05.jpg	36.80928	-122.02036	1677910	1.53	2005-07-14 18:29:36.0	Ventana	34.196	02:14:50:05	8.208	V2688-03
identity-certainty | self | maybe, population-quantity | self | 999	cruise	shell	251.96	2688	http://search.mbari.org/ARCHIVE/frameGrabs/Ventana/images/2688/02_15_38_13.jpg	36.809418	-122.02039	1677917	1.53	2005-07-14 18:30:24.0	Ventana	34.203	02:15:38:13	8.222	V2688-03
population-quantity | self | 999	cruise	Rathbunaster californicus	251.44	2688	 	36.80945	-122.0204	1677919	1.53	2005-07-14 18:30:29.0	Ventana	34.203	02:15:45:19	8.222	V2688-03
population-quantity | self | 999	cruise	Parastichopus	249.07	2688	 	36.809547	-122.02044	1677925	1.55	2005-07-14 18:30:51.323	Ventana	34.189	02:16:06:27	8.254	V2688-03
population-quantity | self | 999	cruise	Rathbunaster californicus	242.24	2688	 	36.809723	-122.0205	1677931	1.56	2005-07-14 18:31:25.0	Ventana	34.187	02:16:41:08	8.28	V2688-03
population-quantity | self | 999	cruise	Allocentrotus fragilis	240.09	2688	 	36.809772	-122.02052	1677932	1.56	2005-07-14 18:31:35.433	Ventana	34.187	02:16:51:14	8.28	V2688-03
population-quantity | self | 999	cruise	Parastichopus	232.66	2688	 	36.809944	-122.0206	1677941	1.64	2005-07-14 18:32:10.9	Ventana	34.18	02:17:26:27	8.5	V2688-03
population-quantity | self | 999	cruise	Pandalus platyceros	231.62	2688	 	36.80996	-122.02061	1677943	1.64	2005-07-14 18:32:13.867	Ventana	34.18	02:17:29:26	8.5	V2688-03
population-quantity | self | 999	cruise	Parastichopus	228.09	2688	 	36.81002	-122.02064	1677944	1.71	2005-07-14 18:32:27.933	Ventana	34.164	02:17:43:27	8.637	V2688-03
population-quantity | self | 999	cruise	Pandalus platyceros	220.33	2688	 	36.810143	-122.02071	1677950	1.73	2005-07-14 18:32:59.767	Ventana	34.162	02:18:15:22	8.651	V2688-03
population-quantity | self | 999	cruise	boulder	212.95	2688	 	36.81023	-122.020805	1677952	1.72	2005-07-14 18:33:30.0	Ventana	34.162	02:18:45:25	8.689	V2688-03
population-quantity | self | 999	cruise	Porifera	201.64	2688	 	36.8104	-122.021164	1677959	1.73	2005-07-14 18:34:46.0	Ventana	34.159	02:20:01:09	8.68	V2688-03
population-quantity | self | 999	cruise	Parastichopus	199.1	2688	 	36.810436	-122.02123	1677960	1.73	2005-07-14 18:35:01.0	Ventana	34.16	02:20:16:24	8.686	V2688-03
population-quantity | self | 999	cruise	Rathbunaster californicus	193.63	2688	 	36.810497	-122.02133	1677962	1.73	2005-07-14 18:35:25.0	Ventana	34.157	02:20:40:12	8.689	V2688-03
population-density | self | dense, life-stage | self | dead, population-quantity | self | 999	cruise	Brachiopoda	190.25	2688	http://search.mbari.org/ARCHIVE/frameGrabs/Ventana/images/2688/02_20_51_28.jpg	36.810543	-122.0214	1677963	1.74	2005-07-14 18:35:41.0	Ventana	34.152	02:20:51:28	8.686	V2688-03
population-quantity | self | 999	cruise	Porifera	187.52	2688	 	36.810574	-122.02144	1677964	1.75	2005-07-14 18:35:52.0	Ventana	34.151	02:21:07:29	8.698	V2688-03
identity-certainty | self | maybe, population-quantity | self | 999	cruise	eggcase	173.93	2688	http://search.mbari.org/ARCHIVE/frameGrabs/Ventana/images/2688/02_22_05_06.jpg	36.81072	-122.02164	20005206	1.92	2005-07-14 18:36:49.0	Ventana	34.101	02:22:05:06	8.895	V2688-03
population-quantity | self | 999	cruise	Porifera	171.6	2688	 	36.810734	-122.02166	1677969	1.93	2005-07-14 18:36:55.0	Ventana	34.1	02:22:11:02	8.901	V2688-03
population-quantity | self | 999	cruise	Gorgonocephalus eucnemis	168.48	2688	http://search.mbari.org/ARCHIVE/frameGrabs/Ventana/images/2688/02_22_21_01.jpg	36.81076	-122.0217	1677970	1.94	2005-07-14 18:37:07.0	Ventana	34.098	02:22:21:01	8.91	V2688-03
population-quantity | self | 999	cruise	Florometra	168.48	2688	http://search.mbari.org/ARCHIVE/frameGrabs/Ventana/images/2688/02_22_21_01.jpg	36.81076	-122.0217	1677972	1.94	2005-07-14 18:37:07.0	Ventana	34.098	02:22:21:01	8.91	V2688-03
population-quantity | self | 999	cruise	Mediaster	166.87	2688	 	36.81081	-122.02177	1677974	1.94	2005-07-14 18:37:25.0	Ventana	34.098	02:22:40:21	8.91	V2688-03
population-quantity | self | 999	cruise	Rathbunaster californicus	161.4	2688	 	36.810883	-122.02186	1677976	1.94	2005-07-14 18:37:51.0	Ventana	34.099	02:23:06:13	8.914	V2688-03
population-quantity | self | 999	cruise	Porifera	152.17	2688	 	36.81099	-122.02201	1677981	1.95	2005-07-14 18:38:28.0	Ventana	34.098	02:23:43:22	8.92	V2688-03
population-quantity | self | 999	cruise	Florometra	150.18	2688	 	36.811005	-122.02203	1677982	1.95	2005-07-14 18:38:34.0	Ventana	34.098	02:23:49:10	8.92	V2688-03
identity-certainty | self | maybe	cruise	Egregia	146.53	2688	http://search.mbari.org/ARCHIVE/frameGrabs/Ventana/images/2688/02_23_58_12.jpg	36.81104	-122.02208	1677983	1.95	2005-07-14 18:38:45.0	Ventana	34.098	02:23:58:12	8.919	V2688-03
identity-certainty | self | maybe, part-of | Brachiopoda | nil, population-quantity | self | 999	cruise	shell hash	110.31	2688	http://search.mbari.org/ARCHIVE/frameGrabs/Ventana/images/2688/02_28_02_25.jpg	36.811314	-122.02257	20005213	1.95	2005-07-14 18:42:47.0	Ventana	34.095	02:28:02:25	8.896	V2688-03
population-quantity | self | 999	cruise	Crinoidea	110.87	2688	http://search.mbari.org/ARCHIVE/frameGrabs/Ventana/images/2688/02_29_31_23.jpg	36.811314	-122.02257	1677985	1.94	2005-07-14 18:44:18.0	Ventana	34.092	02:29:31:23	8.895	V2688-03
population-quantity | self | 999	cruise	Sebastes	136.09	2688	 	36.811165	-122.02229	1677989	1.94	2005-07-14 18:39:31.0	Ventana	34.098	02:24:46:16	8.905	V2688-03
population-quantity | self | 999	cruise	Parastichopus	134.96	2688	 	36.81118	-122.022316	1677990	1.94	2005-07-14 18:39:38.0	Ventana	34.097	02:24:53:17	8.908	V2688-03
population-quantity | self | 999	cruise	Parastichopus	127.14	2688	 	36.811256	-122.022446	1677993	1.94	2005-07-14 18:40:22.0	Ventana	34.097	02:25:37:05	8.907	V2688-03
population-quantity | self | 999	cruise	burrow	121.44	2688	 	36.81129	-122.02251	1677995	1.94	2005-07-14 18:41:08.0	Ventana	34.096	02:26:23:01	8.9	V2688-03
identity-certainty | self | maybe	cruise	Hippasteria	117.75	2688	http://search.mbari.org/ARCHIVE/frameGrabs/Ventana/images/2688/02_26_54_24.jpg	36.811317	-122.02254	1677996	1.95	2005-07-14 18:41:41.0	Ventana	34.096	02:26:54:24	8.903	V2688-03
identity-certainty | self | maybe	cruise	Hippasteria	223.28	2688	http://search.mbari.org/ARCHIVE/frameGrabs/Ventana/images/2688/02_18_01_06.jpg	36.810097	-122.02068	1677948	1.73	2005-07-14 18:32:47.0	Ventana	34.154	02:18:01:06	8.654	V2688-03
identity-certainty | self | maybe	cruise	Stylasterias	116.3	2688	http://search.mbari.org/ARCHIVE/frameGrabs/Ventana/images/2688/02_27_06_17.jpg	36.81133	-122.022545	1677998	1.95	2005-07-14 18:41:53.0	Ventana	34.093	02:27:06:17	8.9	V2688-03
identity-certainty | self | maybe	cruise	tube	115.46	2688	http://search.mbari.org/ARCHIVE/frameGrabs/Ventana/images/2688/02_27_13_07.jpg	36.811337	-122.022545	1678000	1.95	2005-07-14 18:42:00.0	Ventana	34.093	02:27:13:07	8.9	V2688-03
population-quantity | self | 999	cruise	Florometra	114.47	2688	 	36.811333	-122.02255	1678003	1.94	2005-07-14 18:42:13.0	Ventana	34.094	02:27:28:21	8.89	V2688-03
population-quantity | self | 999	cruise	Parastichopus	112.68	2688	 	36.811325	-122.02256	1678004	1.94	2005-07-14 18:42:26.0	Ventana	34.095	02:27:40:26	8.892	V2688-03
population-quantity | self | 999	cruise	Florometra	109.31	2688	 	36.811314	-122.02257	1678007	1.94	2005-07-14 18:42:55.0	Ventana	34.096	02:28:10:06	8.901	V2688-03
identity-certainty | self | maybe	cruise	Stylasterias	108.72	2688	 	36.81131	-122.02257	1678008	1.94	2005-07-14 18:43:09.467	Ventana	34.094	02:28:24:24	8.898	V2688-03
population-quantity | self | 999	cruise	Sebastes	109.5	2688	 	36.81131	-122.02257	1678009	1.94	2005-07-14 18:43:18.0	Ventana	34.094	02:28:33:12	8.898	V2688-03
population-quantity | self | 999	cruise	Sebastes	110.19	2688	 	36.81131	-122.02257	1678010	1.94	2005-07-14 18:43:41.0	Ventana	34.094	02:28:56:02	8.894	V2688-03
identity-certainty | self | maybe, part-of | Brachiopoda | nil, population-quantity | self | 999	cruise	shell hash	110.22	2688	 	36.811314	-122.02257	1678012	1.94	2005-07-14 18:44:03.797	Ventana	34.093	02:29:18:17	8.894	V2688-03
population-quantity | self | 999	cruise	Mediaster	111.11	2688	 	36.811314	-122.02257	1678013	1.95	2005-07-14 18:45:28.0	Ventana	34.094	02:30:43:01	8.899	V2688-03
population-quantity | self | 999	cruise	Sebastes	111.22	2688	 	36.811317	-122.02257	1678015	1.95	2005-07-14 18:46:02.0	Ventana	34.093	02:31:16:22	8.901	V2688-03
population-quantity | self | 999	cruise	Mediaster	110.59	2688	 	36.811317	-122.02257	1678016	1.94	2005-07-14 18:46:10.917	Ventana	34.095	02:31:26:02	8.896	V2688-03
identity-certainty | self | maybe, part-of | Brachiopoda | nil, population-quantity | self | 999	cruise	shell hash	110.19	2688	 	36.811317	-122.02257	1678017	1.94	2005-07-14 18:46:16.367	Ventana	34.095	02:31:31:15	8.896	V2688-03
population-quantity | self | 999	cruise	Parastichopus	110.37	2688	 	36.811317	-122.022575	1678018	1.94	2005-07-14 18:46:32.0	Ventana	34.093	02:31:47:04	8.893	V2688-03
population-quantity | self | 999	cruise	boulder	109.17	2688	 	36.811317	-122.022575	1678019	1.94	2005-07-14 18:46:43.0	Ventana	34.096	02:31:58:01	8.899	V2688-03
identity-certainty | self | maybe, population-quantity | self | 999, perspective | self | close-up	cruise	Caryophylliina	107.24	2688	http://search.mbari.org/ARCHIVE/frameGrabs/Ventana/images/2688/02_34_29_14.jpg	36.811672	-122.02305	20005218	1.94	2005-07-14 18:49:15.0	Ventana	34.092	02:34:29:14	8.89	V2688-03
identity-certainty | self | maybe, part-of | Brachiopoda | nil, population-quantity | self | 999	cruise	shell hash	106.7	2688	 	36.811565	-122.02289	1678024	1.94	2005-07-14 18:48:52.167	Ventana	34.092	02:34:07:05	8.891	V2688-03
population-quantity | self | 999, perspective | self | close-up	cruise	Caryophylliina	107.12	2688	http://search.mbari.org/ARCHIVE/frameGrabs/Ventana/images/2688/02_34_42_11.jpg	36.81173	-122.02313	1678027	1.94	2005-07-14 18:49:27.0	Ventana	34.092	02:34:42:11	8.893	V2688-03
population-quantity | self | 999	cruise	Florometra	107.22	2688	 	36.811768	-122.0232	1678028	1.94	2005-07-14 18:49:35.0	Ventana	34.092	02:34:49:21	8.893	V2688-03
identity-certainty | self | maybe	cruise	Virgulariidae	106.92	2688	 	36.812485	-122.02462	1678030	1.95	2005-07-14 18:51:31.0	Ventana	34.095	02:36:45:14	8.899	V2688-03
population-density | self | dense, population-quantity | self | 999	cruise	Florometra	107.82	2688	http://search.mbari.org/ARCHIVE/frameGrabs/Ventana/images/2688/02_38_38_21.jpg	36.813038	-122.024055	1678031	1.95	2005-07-14 18:53:25.0	Ventana	34.097	02:38:38:21	8.899	V2688-03
population-quantity | self | 999	cruise	Florometra	108.26	2688	 	36.813076	-122.02388	1678037	1.95	2005-07-14 18:53:39.0	Ventana	34.094	02:38:53:18	8.898	V2688-03
within | crevice | nil	cruise	Sebastes	108.26	2688	http://search.mbari.org/ARCHIVE/frameGrabs/Ventana/images/2688/02_38_52_21.jpg	36.813076	-122.02388	20005223	1.95	2005-07-14 18:53:39.0	Ventana	34.094	02:38:52:21	8.898	V2688-03
population-quantity | self | 999	cruise	Mediaster	111.61	2688	 	36.81322	-122.02317	1678040	1.95	2005-07-14 18:54:31.0	Ventana	34.092	02:39:45:16	8.896	V2688-03
population-quantity | self | 999	cruise	Parastichopus	111.7	2688	 	36.813255	-122.02303	1678041	1.94	2005-07-14 18:54:55.0	Ventana	34.095	02:40:09:16	8.893	V2688-03
sampled-by | Push Corer | nil, sample-reference | self | V2688-PC9	cruise	mud	111.7	2688	http://search.mbari.org/ARCHIVE/frameGrabs/Ventana/images/2688/02_41_04_13.jpg	36.81335	-122.02291	1678042	1.94	2005-07-14 18:55:52.0	Ventana	34.093	02:41:04:13	8.892	V2688-03
state | self | full	cruise	Push Corer	111.67	2688	http://search.mbari.org/ARCHIVE/frameGrabs/Ventana/images/2688/02_41_23_24.jpg	36.81339	-122.0229	1678043	1.94	2005-07-14 18:56:11.0	Ventana	34.094	02:41:23:24	8.891	V2688-03
population-quantity | self | 999	cruise	Parastichopus	109.95	2688	 	36.81366	-122.02301	1678045	1.95	2005-07-14 18:57:56.0	Ventana	34.093	02:43:10:09	8.89	V2688-03
population-quantity | self | 999	cruise	Sebastes	110.15	2688	 	36.81369	-122.02305	1678046	1.95	2005-07-14 18:58:03.0	Ventana	34.093	02:43:17:26	8.89	V2688-03
population-quantity | self | 999	cruise	Mediaster	110.27	2688	 	36.813705	-122.02306	1678047	1.95	2005-07-14 18:58:08.0	Ventana	34.093	02:43:21:25	8.889	V2688-03
population-quantity | self | 999	cruise	Florometra	110.71	2688	 	36.813747	-122.023125	1678048	1.95	2005-07-14 18:58:18.0	Ventana	34.093	02:43:32:12	8.889	V2688-03
population-quantity | self | 999	cruise	boulder	110.65	2688	 	36.81388	-122.02333	1678050	1.95	2005-07-14 18:58:52.0	Ventana	34.093	02:44:05:29	8.891	V2688-03
population-quantity | self | 999	cruise	Sebastes	110.82	2688	 	36.81392	-122.0234	1678052	1.95	2005-07-14 18:59:01.0	Ventana	34.093	02:44:15:04	8.89	V2688-03
population-quantity | self | 999	cruise	Parastichopus	110.44	2688	 	36.814045	-122.02368	1678053	1.95	2005-07-14 18:59:51.0	Ventana	34.093	02:45:05:11	8.892	V2688-03
population-quantity | self | 999	cruise	Florometra	109.65	2688	 	36.81406	-122.02372	1678054	1.95	2005-07-14 19:00:00.0	Ventana	34.093	02:45:14:16	8.891	V2688-03
population-quantity | self | 999	cruise	Florometra	107.45	2688	 	36.81454	-122.02397	1678058	1.95	2005-07-14 19:02:06.0	Ventana	34.092	02:47:19:28	8.884	V2688-03
comment | self | metal	cruise	trash	106.71	2688	http://search.mbari.org/ARCHIVE/frameGrabs/Ventana/images/2688/02_47_27_19.jpg	36.814632	-122.023994	1678059	1.95	2005-07-14 19:02:16.0	Ventana	34.091	02:47:27:19	8.887	V2688-03
identity-reference | self | 1	cruise	Egregia	108.9	2688	http://search.mbari.org/ARCHIVE/frameGrabs/Ventana/images/2688/02_49_57_15.jpg	36.816143	-122.02458	20005233	1.96	2005-07-14 19:04:44.0	Ventana	34.092	02:49:57:15	8.902	V2688-03
relative-length | self | long, identity-reference | self | 1	cruise	Egregia	109.88	2688	http://search.mbari.org/ARCHIVE/frameGrabs/Ventana/images/2688/02_50_05_00.jpg	36.816193	-122.02463	20005234	1.96	2005-07-14 19:04:52.0	Ventana	34.092	02:50:05:00	8.902	V2688-03
population-density | self | dense, population-quantity | self | 999	cruise	Florometra	106.92	2688	 	36.815502	-122.024254	1678061	1.95	2005-07-14 19:03:34.0	Ventana	34.091	02:48:47:15	8.888	V2688-03
population-quantity | self | 999	cruise	Sebastes	108.23	2688	 	36.81594	-122.02444	1678065	1.96	2005-07-14 19:04:16.0	Ventana	34.09	02:49:30:09	8.89	V2688-03
population-quantity | self | 999	cruise	Florometra	108.07	2688	 	36.81634	-122.02481	1678066	1.96	2005-07-14 19:05:22.0	Ventana	34.089	02:50:36:02	8.889	V2688-03
population-quantity | self | 999	cruise	Parastichopus	108.23	2688	 	36.81637	-122.02486	1678067	1.95	2005-07-14 19:05:30.0	Ventana	34.09	02:50:43:29	8.884	V2688-03
population-quantity | self | 999	cruise	boulder	106.04	2688	http://search.mbari.org/ARCHIVE/frameGrabs/Ventana/images/2688/03_06_53_15.jpg	36.813065	-122.01951	20005240	1.97	2005-07-14 19:21:41.0	Ventana	34.097	03:06:53:15	8.922	V2688-03
comment | self | bottle	cruise	glass	111.83	2688	http://search.mbari.org/ARCHIVE/frameGrabs/Ventana/images/2688/02_51_26_14.jpg	36.816475	-122.02508	1678068	1.95	2005-07-14 19:06:14.0	Ventana	34.089	02:51:26:14	8.885	V2688-03
population-quantity | self | 999	cruise	Sebastes	110.42	2688	 	36.81313	-122.02127	1678071	1.97	2005-07-14 19:13:07.0	Ventana	34.092	02:58:19:26	8.911	V2688-03
population-density | self | dense, population-quantity | self | 999	cruise	Florometra	110.25	2688	 	36.813103	-122.02127	1678072	1.97	2005-07-14 19:13:12.0	Ventana	34.092	02:58:25:29	8.911	V2688-03
population-quantity | self | 999	cruise	Sebastes	110.47	2688	 	36.812336	-122.02127	1678074	1.96	2005-07-14 19:14:56.0	Ventana	34.091	03:00:08:23	8.899	V2688-03
identity-certainty | self | maybe	cruise	Stylasterias	111.46	2688	 	36.81227	-122.02122	1678075	1.96	2005-07-14 19:15:17.0	Ventana	34.094	03:00:30:05	8.907	V2688-03
identity-certainty | self | maybe	cruise	Stylasterias	113.1	2688	 	36.812252	-122.021095	1678076	1.96	2005-07-14 19:15:45.967	Ventana	34.097	03:00:59:09	8.908	V2688-03
identity-certainty | self | maybe	cruise	Stylasterias	113.28	2688	 	36.812256	-122.02108	1678077	1.96	2005-07-14 19:15:48.833	Ventana	34.097	03:01:02:05	8.908	V2688-03
identity-certainty | self | maybe	cruise	Stylasterias	112.01	2688	 	36.812305	-122.02092	1678079	1.97	2005-07-14 19:16:28.133	Ventana	34.094	03:01:41:28	8.915	V2688-03
population-quantity | self | 999	cruise	Parastichopus	111.28	2688	 	36.81232	-122.0209	1678080	1.97	2005-07-14 19:16:34.0	Ventana	34.094	03:01:47:17	8.915	V2688-03
population-quantity | self | 999	cruise	Porifera	111.64	2688	 	36.812344	-122.02084	1678081	1.97	2005-07-14 19:16:45.0	Ventana	34.095	03:01:58:10	8.916	V2688-03
population-quantity | self | 999	cruise	Sebastes	110.87	2688	 	36.8124	-122.020744	1678084	1.97	2005-07-14 19:17:05.0	Ventana	34.095	03:02:18:21	8.915	V2688-03
population-quantity | self | 999	cruise	Sebastes	110.84	2688	 	36.812473	-122.02064	1678086	1.97	2005-07-14 19:17:27.0	Ventana	34.097	03:02:39:29	8.919	V2688-03
population-quantity | self | 999	cruise	Florometra	110.33	2688	 	36.812546	-122.02054	1678087	1.97	2005-07-14 19:17:48.0	Ventana	34.094	03:03:01:09	8.925	V2688-03
population-density | self | dense, population-quantity | self | 999	cruise	Florometra	110.52	2688	 	36.812683	-122.02031	1678088	1.96	2005-07-14 19:18:37.0	Ventana	34.091	03:03:49:19	8.91	V2688-03
population-quantity | self | 999	cruise	Sebastes paucispinis	112.03	2688	 	36.812775	-122.01998	1678089	1.97	2005-07-14 19:19:50.0	Ventana	34.094	03:05:02:23	8.919	V2688-03
population-quantity | self | 999	cruise	Sebastes	106.46	2688	 	36.81308	-122.01947	1678092	1.97	2005-07-14 19:21:51.0	Ventana	34.097	03:07:04:07	8.922	V2688-03
population-quantity | self | 999	cruise	Parastichopus	110.55	2688	 	36.81311	-122.01927	1678093	1.97	2005-07-14 19:22:38.0	Ventana	34.097	03:07:50:20	8.93	V2688-03
population-quantity | self | 999	cruise	Porifera	111.76	2688	 	36.813114	-122.01923	1678094	1.97	2005-07-14 19:22:48.0	Ventana	34.097	03:08:01:08	8.93	V2688-03
population-quantity | self | 999	cruise	boulder	126.58	2688	 	36.812943	-122.018776	1678099	1.97	2005-07-14 19:25:14.0	Ventana	34.097	03:10:26:10	8.928	V2688-03
population-quantity | self | 999	cruise	Sebastes	128.71	2688	 	36.812904	-122.018745	1678101	1.96	2005-07-14 19:25:29.0	Ventana	34.096	03:10:41:14	8.925	V2688-03
population-quantity | self | 999	cruise	Sebastes	123.39	2688	 	36.81297	-122.01878	1678105	1.97	2005-07-14 19:27:20.0	Ventana	34.097	03:12:32:16	8.93	V2688-03
population-quantity | self | 999	cruise	Florometra	118.32	2688	 	36.81304	-122.018875	1679198	1.97	2005-07-14 19:28:17.0	Ventana	34.097	03:13:04:22	8.929	V2688-04
population-quantity | self | 999	cruise	Rathbunaster californicus	117.83	2688	 	36.81305	-122.01888	1679199	1.97	2005-07-14 19:28:21.0	Ventana	34.097	03:13:09:18	8.929	V2688-04
population-quantity | self | 999	cruise	Florometra	116.93	2688	 	36.813095	-122.01888	1679201	1.97	2005-07-14 19:28:43.0	Ventana	34.095	03:13:31:04	8.931	V2688-04
population-quantity | self | 999	cruise	pebble	116.97	2688	 	36.813103	-122.01888	1679202	1.97	2005-07-14 19:28:45.0	Ventana	34.095	03:13:33:19	8.931	V2688-04
population-quantity | self | 999	cruise	Parastichopus	113.9	2688	 	36.813137	-122.01889	1679205	1.97	2005-07-14 19:29:00.0	Ventana	34.096	03:13:48:09	8.931	V2688-04
population-quantity | self | 999	cruise	Parastichopus	111.47	2688	 	36.813206	-122.01888	1679213	1.97	2005-07-14 19:29:29.0	Ventana	34.096	03:14:17:04	8.931	V2688-04
population-quantity | self | 999	cruise	Sebastes flavidus	111.41	2688	http://search.mbari.org/ARCHIVE/frameGrabs/Ventana/images/2688/03_14_12_22.jpg	36.8132	-122.01889	1679212	1.97	2005-07-14 19:29:26.0	Ventana	34.096	03:14:12:22	8.931	V2688-04
population-quantity | self | 999	cruise	Florometra	109.62	2688	 	36.813248	-122.01885	1679216	1.97	2005-07-14 19:29:47.0	Ventana	34.096	03:14:35:04	8.93	V2688-04
population-quantity | self | 999	cruise	Parastichopus	110.0	2688	 	36.813297	-122.01879	1679217	1.97	2005-07-14 19:30:07.0	Ventana	34.096	03:14:54:16	8.928	V2688-04
population-quantity | self | 999	cruise	Mediaster	109.93	2688	 	36.81347	-122.01853	1679219	1.97	2005-07-14 19:31:08.0	Ventana	34.09	03:15:55:27	8.914	V2688-04
population-quantity | self | 999	cruise	Florometra	107.59	2688	 	36.81357	-122.01838	1679221	1.97	2005-07-14 19:31:40.0	Ventana	34.091	03:16:27:17	8.923	V2688-04
population-quantity | self | 999	cruise	Parastichopus	106.86	2688	 	36.813614	-122.0183	1679222	1.97	2005-07-14 19:31:55.0	Ventana	34.093	03:16:42:22	8.917	V2688-04
population-quantity | self | 999	cruise	Sebastes	105.46	2688	 	36.81372	-122.01812	1679225	1.97	2005-07-14 19:32:36.0	Ventana	34.096	03:17:23:12	8.911	V2688-04
population-quantity | self | 999	cruise	Sebastes flavidus	103.01	2688	http://search.mbari.org/ARCHIVE/frameGrabs/Ventana/images/2688/03_18_32_11.jpg	36.813858	-122.01786	1679231	1.98	2005-07-14 19:33:46.0	Ventana	34.09	03:18:32:11	8.912	V2688-04
population-quantity | self | 999	cruise	Parastichopus	103.37	2688	 	36.813866	-122.017845	1679232	1.97	2005-07-14 19:33:55.0	Ventana	34.09	03:18:42:22	8.908	V2688-04
population-quantity | self | 999	cruise	Sebastes	102.55	2688	 	36.814114	-122.01742	1679236	1.98	2005-07-14 19:34:40.0	Ventana	34.091	03:19:27:15	8.914	V2688-04
population-quantity | self | 999	cruise	boulder	101.87	2688	 	36.814137	-122.01739	1679237	1.98	2005-07-14 19:34:47.0	Ventana	34.091	03:19:34:21	8.914	V2688-04
population-density | self | dense, population-quantity | self | 999	cruise	Florometra	102.4	2688	 	36.814156	-122.017365	1679238	1.98	2005-07-14 19:34:52.0	Ventana	34.089	03:19:39:20	8.911	V2688-04
identity-certainty | self | maybe	cruise	Echinoidea	104.54	2688	 	36.81427	-122.017166	1679242	1.97	2005-07-14 19:35:39.0	Ventana	34.089	03:20:26:08	8.902	V2688-04
population-density | self | dense, population-quantity | self | 999	cruise	Florometra	105.55	2688	 	36.814323	-122.01704	1679246	1.98	2005-07-14 19:36:09.0	Ventana	34.09	03:20:56:18	8.91	V2688-04
population-quantity | self | 999	cruise	Mediaster	105.74	2688	 	36.81433	-122.01702	1679247	1.98	2005-07-14 19:36:13.0	Ventana	34.09	03:21:01:04	8.91	V2688-04
crawling | nil | nil	cruise	Florometra	105.45	2688	 	36.8145	-122.016716	1679252	1.97	2005-07-14 19:37:25.0	Ventana	34.086	03:22:12:25	8.895	V2688-04
population-quantity | self | 999	cruise	Sebastes	105.02	2688	 	36.814545	-122.016655	1679256	1.97	2005-07-14 19:37:39.0	Ventana	34.087	03:22:26:25	8.893	V2688-04
population-quantity | self | 999	cruise	Parastichopus	104.33	2688	 	36.814606	-122.01659	1679257	1.97	2005-07-14 19:37:57.0	Ventana	34.088	03:22:44:26	8.891	V2688-04
population-density | self | dense, population-quantity | self | 999	cruise	Florometra	104.06	2688	 	36.814636	-122.016556	1679258	1.97	2005-07-14 19:38:06.0	Ventana	34.088	03:22:53:22	8.891	V2688-04
identity-certainty | self | maybe	cruise	Pycnopodia	103.25	2688	http://search.mbari.org/ARCHIVE/frameGrabs/Ventana/images/2688/03_23_14_09.jpg	36.81473	-122.01645	1679259	1.97	2005-07-14 19:38:29.0	Ventana	34.086	03:23:14:09	8.893	V2688-04
population-quantity | self | 999	cruise	Sebastes	102.33	2688	 	36.81478	-122.01639	1679263	1.97	2005-07-14 19:38:44.0	Ventana	34.086	03:23:31:08	8.891	V2688-04
population-quantity | self | 999	cruise	boulder	102.27	2688	 	36.81479	-122.01638	1679264	1.97	2005-07-14 19:38:46.0	Ventana	34.086	03:23:33:03	8.891	V2688-04
population-quantity | self | 999	cruise	Parastichopus	101.91	2688	 	36.814835	-122.01633	1679265	1.97	2005-07-14 19:39:00.0	Ventana	34.087	03:23:47:23	8.892	V2688-04
population-quantity | self | 999	cruise	Florometra	103.46	2688	http://search.mbari.org/ARCHIVE/frameGrabs/Ventana/images/2688/03_25_07_18.jpg	36.815056	-122.01593	1679268	1.97	2005-07-14 19:40:22.0	Ventana	34.088	03:25:07:18	8.894	V2688-04
population-quantity | self | 999	cruise	Parastichopus	104.14	2688	 	36.815132	-122.015785	1679274	1.97	2005-07-14 19:40:50.0	Ventana	34.088	03:25:37:04	8.9	V2688-04
identity-certainty | self | maybe	cruise	Ophiodon elongatus	102.08	2688	http://search.mbari.org/ARCHIVE/frameGrabs/Ventana/images/2688/03_26_21_10.jpg	36.815266	-122.01561	1679277	1.99	2005-07-14 19:41:36.0	Ventana	34.083	03:26:21:10	8.918	V2688-04
population-density | self | dense, population-quantity | self | 999	cruise	Florometra	102.14	2688	 	36.81533	-122.01552	1679280	1.97	2005-07-14 19:41:59.0	Ventana	34.086	03:26:46:14	8.897	V2688-04
population-quantity | self | 999	cruise	Parastichopus	101.71	2688	 	36.815365	-122.01548	1679281	1.97	2005-07-14 19:42:09.0	Ventana	34.087	03:26:55:27	8.897	V2688-04
population-quantity | self | 999	cruise	Mediaster	101.99	2688	 	36.81543	-122.015396	1679283	1.97	2005-07-14 19:42:29.0	Ventana	34.086	03:27:16:02	8.9	V2688-04
identity-certainty | self | maybe, surface-color | self | black	cruise	Stylasterias	100.07	2688	http://search.mbari.org/ARCHIVE/frameGrabs/Ventana/images/2688/03_28_29_02.jpg	36.815655	-122.015076	1679284	1.97	2005-07-14 19:43:44.0	Ventana	34.085	03:28:29:02	8.903	V2688-04
surface-color | self | yellow	cruise	Porifera	100.07	2688	http://search.mbari.org/ARCHIVE/frameGrabs/Ventana/images/2688/03_28_29_02.jpg	36.815655	-122.015076	1679286	1.97	2005-07-14 19:43:44.0	Ventana	34.085	03:28:29:02	8.903	V2688-04
surface-color | self | yellow	cruise	Porifera	103.46	2688	http://search.mbari.org/ARCHIVE/frameGrabs/Ventana/images/2688/03_25_07_18.jpg	36.815056	-122.01593	1679267	1.97	2005-07-14 19:40:22.0	Ventana	34.088	03:25:07:18	8.894	V2688-04
surface-color | self | yellow	cruise	Porifera	102.84	2688	 	36.81502	-122.016	1679266	1.98	2005-07-14 19:40:08.0	Ventana	34.084	03:24:55:01	8.898	V2688-04
population-quantity | self | 999	cruise	Parastichopus	100.05	2688	 	36.815674	-122.01504	1679288	1.98	2005-07-14 19:43:55.0	Ventana	34.086	03:28:42:03	8.902	V2688-04
population-density | self | dense, population-quantity | self | 999	cruise	Florometra	100.33	2688	 	36.815674	-122.01503	1679289	1.98	2005-07-14 19:43:58.0	Ventana	34.086	03:28:45:19	8.902	V2688-04
surface-color | self | yellow	cruise	Porifera	102.23	2688	http://search.mbari.org/ARCHIVE/frameGrabs/Ventana/images/2688/03_26_36_08.jpg	36.8153	-122.01556	20005248	1.98	2005-07-14 19:41:49.0	Ventana	34.085	03:26:36:08	8.897	V2688-04
population-quantity | self | 999	cruise	Sebastes	102.83	2688	 	36.81571	-122.01495	1679291	1.97	2005-07-14 19:44:48.0	Ventana	34.086	03:29:34:29	8.901	V2688-04
population-quantity | self | 999	cruise	Parastichopus	104.83	2688	 	36.81571	-122.01494	1679293	1.98	2005-07-14 19:45:07.0	Ventana	34.087	03:29:54:05	8.898	V2688-04
population-quantity | self | 999	cruise	boulder	101.23	2688	http://search.mbari.org/ARCHIVE/frameGrabs/Ventana/images/2688/03_29_16_03.jpg	36.8157	-122.01497	20005250	1.97	2005-07-14 19:44:30.0	Ventana	34.086	03:29:16:03	8.901	V2688-04
surface-color | self | yellow	cruise	Porifera	106.37	2688	 	36.815735	-122.0148	1679296	1.98	2005-07-14 19:46:06.667	Ventana	34.086	03:30:53:25	8.899	V2688-04
population-quantity | self | 999	cruise	Parastichopus	106.94	2688	 	36.81588	-122.01424	1679297	1.98	2005-07-14 19:47:07.0	Ventana	34.086	03:31:54:03	8.901	V2688-04
population-quantity | self | 999	cruise	Florometra	105.95	2688	 	36.815926	-122.014175	1679298	1.98	2005-07-14 19:47:20.0	Ventana	34.087	03:32:06:15	8.901	V2688-04
population-quantity | self | 999	cruise	Sebastes	104.56	2688	 	36.815983	-122.01416	1679299	1.98	2005-07-14 19:47:37.0	Ventana	34.086	03:32:24:13	8.903	V2688-04
population-quantity | self | 999	cruise	boulder	103.62	2688	 	36.816063	-122.01419	1679301	1.98	2005-07-14 19:47:56.0	Ventana	34.087	03:32:42:25	8.905	V2688-04
population-quantity | self | 999	cruise	Parastichopus	101.66	2688	 	36.81622	-122.01428	1679303	1.98	2005-07-14 19:48:35.0	Ventana	34.086	03:33:22:00	8.905	V2688-04
population-quantity | self | 999	cruise	Mediaster	101.44	2688	 	36.81626	-122.01431	1679304	1.98	2005-07-14 19:48:45.0	Ventana	34.086	03:33:31:20	8.906	V2688-04
population-quantity | self | 999	cruise	Sebastes	100.95	2688	 	36.8163	-122.01435	1679307	1.98	2005-07-14 19:48:55.0	Ventana	34.086	03:33:41:18	8.908	V2688-04
population-quantity | self | 999	cruise	Parastichopus	99.86	2688	 	36.816376	-122.014404	1679309	1.98	2005-07-14 19:49:12.0	Ventana	34.086	03:33:59:00	8.91	V2688-04
population-density | self | dense, population-quantity | self | 999	cruise	boulder	96.81	2688	 	36.816616	-122.01455	1679310	1.99	2005-07-14 19:50:00.0	Ventana	34.086	03:34:46:16	8.911	V2688-04
population-density | self | dense, population-quantity | self | 999	cruise	Florometra	95.83	2688	 	36.81666	-122.014565	1679311	1.98	2005-07-14 19:50:10.0	Ventana	34.086	03:34:56:24	8.915	V2688-04
population-quantity | self | 999	cruise	Parastichopus	95.13	2688	 	36.816704	-122.01458	1679312	1.98	2005-07-14 19:50:19.0	Ventana	34.086	03:35:05:26	8.915	V2688-04
population-density | self | dense, population-quantity | self | 999	cruise	Florometra	97.92	2688	 	36.816837	-122.014175	1679316	1.99	2005-07-14 19:52:17.0	Ventana	34.087	03:37:03:23	8.914	V2688-04
population-quantity | self | 999	cruise	boulder	99.0	2688	 	36.81685	-122.01405	1679319	1.98	2005-07-14 19:53:04.0	Ventana	34.087	03:37:51:00	8.915	V2688-04
swimming | nil | nil	cruise	Florometra	98.07	2688	 	36.817005	-122.01436	1679322	1.99	2005-07-14 19:55:14.0	Ventana	34.087	03:40:00:11	8.917	V2688-04
sampled-by | Push Corer | nil, sample-reference | self | V2688-PC28	cruise	mud	98.14	2688	http://search.mbari.org/ARCHIVE/frameGrabs/Ventana/images/2688/03_41_22_11.jpg	36.81702	-122.01434	20005256	1.99	2005-07-14 19:56:35.0	Ventana	34.086	03:41:22:11	8.921	V2688-04
trying | nil | nil, identity-reference | self | 28	cruise	Push Corer	98.1	2688	http://search.mbari.org/ARCHIVE/frameGrabs/Ventana/images/2688/03_41_28_26.jpg	36.817024	-122.01434	20005257	1.99	2005-07-14 19:56:44.0	Ventana	34.087	03:41:28:26	8.921	V2688-04
identity-reference | self | 28, audio-comment | self | hard to core, could be purisima, state | self | full	cruise	Push Corer	97.92	2688	http://search.mbari.org/ARCHIVE/frameGrabs/Ventana/images/2688/03_42_00_24.jpg	36.817028	-122.014336	20005259	1.99	2005-07-14 19:57:14.0	Ventana	34.087	03:42:00:24	8.917	V2688-04
population-quantity | self | 999	cruise	Mediaster	95.14	2688	 	36.817078	-122.01464	1679327	1.99	2005-07-14 20:00:24.0	Ventana	34.086	03:45:09:29	8.911	V2688-04
population-density | self | dense, population-quantity | self | 999	cruise	Florometra	94.87	2688	 	36.81708	-122.014656	1679328	1.99	2005-07-14 20:00:32.0	Ventana	34.086	03:45:17:23	8.911	V2688-04
population-quantity | self | 999	cruise	Sebastes	91.67	2688	 	36.817043	-122.01506	1679331	1.99	2005-07-14 20:02:23.0	Ventana	34.087	03:47:08:26	8.911	V2688-04
population-quantity | self | 999	cruise	Sebastes	90.51	2688	 	36.817024	-122.01522	1679332	1.99	2005-07-14 20:02:56.0	Ventana	34.086	03:47:41:21	8.911	V2688-04
sampled-by | Push Corer | nil, sample-reference | self | V2688-PC30	cruise	mud	90.89	2688	http://search.mbari.org/ARCHIVE/frameGrabs/Ventana/images/2688/03_49_36_26.jpg	36.817017	-122.0154	20005269	1.99	2005-07-14 20:04:52.0	Ventana	34.086	03:49:36:26	8.91	V2688-04
population-quantity | self | 999	cruise	Florometra	90.55	2688	 	36.817024	-122.01548	1679339	1.99	2005-07-14 20:06:37.0	Ventana	34.086	03:51:23:05	8.91	V2688-04
population-quantity | self | 999	cruise	Mediaster	90.64	2688	 	36.817024	-122.015526	1679342	1.99	2005-07-14 20:06:56.0	Ventana	34.087	03:51:41:21	8.91	V2688-04
audio-comment | Purisima Formation | nil, contains | Florometra | nil, identity-reference | self | 5	cruise	rock outcrop	91.01	2688	http://search.mbari.org/ARCHIVE/frameGrabs/Ventana/images/2688/03_52_28_20.jpg	36.817017	-122.015656	20005272	2.0	2005-07-14 20:07:43.0	Ventana	34.086	03:52:28:20	8.915	V2688-04
contains | Purisima Formation | nil, identity-reference | self | 5	cruise	rock outcrop	89.68	2688	http://search.mbari.org/ARCHIVE/frameGrabs/Ventana/images/2688/03_51_59_21.jpg	36.817024	-122.01559	20005271	2.0	2005-07-14 20:07:15.0	Ventana	34.087	03:51:59:21	8.919	V2688-04
population-quantity | self | 999	cruise	Florometra	89.92	2688	 	36.816998	-122.015686	1679343	2.0	2005-07-14 20:09:16.0	Ventana	34.087	03:54:01:22	8.909	V2688-04
population-quantity | self | 999	cruise	Parastichopus	89.72	2688	 	36.81699	-122.01569	1679345	2.0	2005-07-14 20:09:36.0	Ventana	34.087	03:54:21:03	8.91	V2688-04
population-quantity | self | 999	cruise	boulder	89.93	2688	 	36.81698	-122.0157	1679346	2.0	2005-07-14 20:09:55.0	Ventana	34.086	03:54:40:06	8.908	V2688-04
population-density | self | dense, population-quantity | self | 999	cruise	Florometra	89.52	2688	 	36.816933	-122.01574	1679348	2.0	2005-07-14 20:10:23.0	Ventana	34.084	03:55:07:25	8.91	V2688-04
population-quantity | self | 999	cruise	boulder	90.29	2688	 	36.816723	-122.01589	1679352	2.0	2005-07-14 20:11:26.0	Ventana	34.089	03:56:11:11	8.91	V2688-04
population-quantity | self | 999	cruise	Parastichopus	89.25	2688	 	36.81663	-122.01595	1679354	2.01	2005-07-14 20:11:55.0	Ventana	34.087	03:56:40:13	8.914	V2688-04
identity-certainty | self | maybe	cruise	Porifera	90.26	2688	 	36.816444	-122.01608	1679358	2.01	2005-07-14 20:13:24.0	Ventana	34.087	03:58:09:01	8.921	V2688-04
eating | physical object | nil	cruise	Rathbunaster californicus	90.23	2688	 	36.81643	-122.0161	1679361	2.01	2005-07-14 20:13:34.0	Ventana	34.087	03:58:19:06	8.921	V2688-04
population-quantity | self | 999	cruise	Parastichopus	90.32	2688	 	36.81642	-122.0161	1679363	2.02	2005-07-14 20:13:38.0	Ventana	34.09	03:58:23:19	8.927	V2688-04
population-quantity | self | 999	cruise	Parastichopus	90.55	2688	 	36.816402	-122.01611	1679366	2.02	2005-07-14 20:13:54.0	Ventana	34.089	03:58:39:12	8.922	V2688-04
population-quantity | self | 999	cruise	Florometra	90.38	2688	 	36.816387	-122.01613	1679368	2.02	2005-07-14 20:14:10.0	Ventana	34.09	03:58:55:12	8.921	V2688-04
identity-certainty | self | maybe	cruise	Xeneretmus	93.34	2688	 	36.816265	-122.016304	1679375	2.04	2005-07-14 20:16:24.0	Ventana	34.093	04:01:09:15	8.921	V2688-04
population-quantity | self | 999	cruise	Florometra	93.07	2688	 	36.816242	-122.01634	1679376	2.05	2005-07-14 20:16:39.0	Ventana	34.093	04:01:23:21	8.929	V2688-04
population-quantity | self | 999	cruise	Parastichopus	93.03	2688	 	36.816235	-122.01636	1679377	2.05	2005-07-14 20:16:46.0	Ventana	34.093	04:01:30:27	8.929	V2688-04
population-quantity | self | 999	cruise	Metridium farcimen	93.34	2688	 	36.816208	-122.01641	1679379	2.1	2005-07-14 20:16:59.0	Ventana	34.093	04:01:44:12	8.923	V2688-04
population-quantity | self | 999	cruise	Rathbunaster californicus	93.85	2688	 	36.816177	-122.016464	1679381	2.06	2005-07-14 20:17:14.0	Ventana	34.095	04:01:59:10	8.926	V2688-04
population-quantity | self | 999	cruise	burrow	93.68	2688	 	36.816166	-122.016495	1679382	2.06	2005-07-14 20:17:20.0	Ventana	34.095	04:02:05:05	8.926	V2688-04
population-quantity | self | 999	cruise	Parastichopus	93.2	2688	 	36.81597	-122.01686	1679390	1.95	2005-07-14 20:18:23.0	Ventana	34.093	04:03:07:20	8.935	V2688-04
population-quantity | self | 999	cruise	Metridium farcimen	91.39	2688	 	36.815773	-122.017235	1679393	1.96	2005-07-14 20:19:11.0	Ventana	34.091	04:03:55:18	8.931	V2688-04
population-quantity | self | 999	cruise	Florometra	90.19	2688	 	36.815563	-122.01763	1679394	1.96	2005-07-14 20:19:54.0	Ventana	34.094	04:04:38:24	8.929	V2688-04
population-quantity | self | 999	cruise	Parastichopus	90.84	2688	 	36.816006	-122.01767	1679398	1.96	2005-07-14 20:22:30.0	Ventana	34.093	04:07:15:05	8.925	V2688-04
identity-certainty | self | maybe, population-quantity | self | 999	cruise	Porifera	90.67	2688	 	36.816074	-122.01769	1679399	1.96	2005-07-14 20:22:59.0	Ventana	34.091	04:07:44:00	8.928	V2688-04
population-quantity | self | 999	cruise	boulder	93.1	2688	http://search.mbari.org/ARCHIVE/frameGrabs/Ventana/images/2688/04_14_38_09.jpg	36.81519	-122.01728	20005276	1.97	2005-07-14 20:29:53.0	Ventana	34.092	04:14:38:09	8.953	V2688-04
population-density | self | dense, identity-certainty | self | maybe, population-quantity | self | 999	cruise	Porifera	91.1	2688	 	36.815765	-122.01766	1679402	1.96	2005-07-14 20:28:01.0	Ventana	34.092	04:12:45:07	8.926	V2688-04
population-quantity | self | 999	cruise	Parastichopus	91.55	2688	 	36.815735	-122.01764	1679403	1.96	2005-07-14 20:28:09.0	Ventana	34.095	04:12:52:27	8.931	V2688-04
population-density | self | dense, population-quantity | self | 999	cruise	Florometra	93.13	2688	 	36.81554	-122.01754	1679405	1.96	2005-07-14 20:28:40.0	Ventana	34.095	04:13:24:08	8.939	V2688-04
population-quantity | self | 2	cruise	Ophiodon elongatus	93.21	2688	http://search.mbari.org/ARCHIVE/frameGrabs/Ventana/images/2688/04_14_02_11.jpg	36.815323	-122.017395	1679408	1.96	2005-07-14 20:29:20.0	Ventana	34.094	04:14:02:11	8.947	V2688-04
identity-certainty | self | maybe	cruise	Glyptocephalus zachirus	93.65	2688	http://search.mbari.org/ARCHIVE/frameGrabs/Ventana/images/2688/04_14_30_08.jpg	36.815205	-122.01729	1679413	1.96	2005-07-14 20:29:48.0	Ventana	34.094	04:14:30:08	8.949	V2688-04
identity-certainty | self | maybe	cruise	Sebastes rubrivinctus	92.79	2688	http://search.mbari.org/ARCHIVE/frameGrabs/Ventana/images/2688/04_14_37_24.jpg	36.81518	-122.01727	1679414	1.97	2005-07-14 20:29:55.0	Ventana	34.092	04:14:37:24	8.953	V2688-04
population-quantity | self | 999	cruise	Florometra	93.08	2688	 	36.814964	-122.01717	1679416	1.96	2005-07-14 20:30:59.0	Ventana	34.094	04:15:43:11	8.947	V2688-04
identity-certainty | self | maybe	cruise	Pycnopodia	93.66	2688	http://search.mbari.org/ARCHIVE/frameGrabs/Ventana/images/2688/04_16_15_04.jpg	36.814835	-122.017136	1679420	1.96	2005-07-14 20:31:33.0	Ventana	34.093	04:16:15:04	8.946	V2688-04
audio-comment | fault | nil	cruise	rock outcrop	94.63	2688	http://search.mbari.org/ARCHIVE/frameGrabs/Ventana/images/2688/04_16_49_20.jpg	36.81472	-122.017136	20005278	1.96	2005-07-14 20:32:06.0	Ventana	34.095	04:16:49:20	8.943	V2688-04
population-quantity | self | 999	cruise	Sebastes	95.76	2688	 	36.81459	-122.017166	1679425	1.95	2005-07-14 20:34:10.0	Ventana	34.094	04:18:26:02	8.943	V2688-05
population-quantity | self | 999	cruise	Florometra	95.95	2688	 	36.814587	-122.017166	1679426	1.95	2005-07-14 20:34:14.0	Ventana	34.094	04:18:29:26	8.943	V2688-05
surface-color | self | yellow	cruise	Porifera	97.36	2688	 	36.81455	-122.017105	1679427	1.96	2005-07-14 20:35:03.0	Ventana	34.095	04:19:19:01	8.944	V2688-05
population-quantity | self | 999	cruise	Sebastes	96.3	2688	 	36.814552	-122.0171	1679428	1.96	2005-07-14 20:35:57.0	Ventana	34.095	04:20:12:13	8.944	V2688-05
population-density | self | dense, population-quantity | self | 999	cruise	Florometra	95.47	2688	 	36.814556	-122.0171	1679429	1.96	2005-07-14 20:36:03.0	Ventana	34.095	04:20:18:08	8.944	V2688-05
identity-reference | self | 6	cruise	crack	95.22	2688	http://search.mbari.org/ARCHIVE/frameGrabs/Ventana/images/2688/04_22_17_03.jpg	36.814556	-122.017044	20005284	1.95	2005-07-14 20:38:02.0	Ventana	34.095	04:22:17:03	8.942	V2688-05
identity-reference | self | 6, perspective | self | close-up	cruise	crack	95.58	2688	http://search.mbari.org/ARCHIVE/frameGrabs/Ventana/images/2688/04_22_30_18.jpg	36.814556	-122.01705	20005285	1.95	2005-07-14 20:38:16.0	Ventana	34.095	04:22:30:18	8.943	V2688-05
audio-comment | self | running 335 degrees, image-quality | self | good, identity-reference | self | 6	cruise	crack	95.64	2688	http://search.mbari.org/ARCHIVE/frameGrabs/Ventana/images/2688/04_22_35_02.jpg	36.814556	-122.01706	20005286	1.95	2005-07-14 20:38:20.0	Ventana	34.095	04:22:35:02	8.943	V2688-05
identity-reference | self | 6	cruise	crack	95.42	2688	http://search.mbari.org/ARCHIVE/frameGrabs/Ventana/images/2688/04_22_50_02.jpg	36.81456	-122.017075	20005287	1.95	2005-07-14 20:38:34.0	Ventana	34.097	04:22:50:02	8.94	V2688-05
audio-comment | self | shattered	cruise	rock outcrop	97.31	2688	http://search.mbari.org/ARCHIVE/frameGrabs/Ventana/images/2688/04_24_00_00.jpg	36.814648	-122.01708	20005289	1.95	2005-07-14 20:39:44.0	Ventana	34.096	04:24:00:00	8.941	V2688-05
population-quantity | self | 999	cruise	Sebastes	97.67	2688	http://search.mbari.org/ARCHIVE/frameGrabs/Ventana/images/2688/04_24_07_15.jpg	36.81465	-122.01708	20005290	1.95	2005-07-14 20:39:52.0	Ventana	34.096	04:24:07:15	8.941	V2688-05
broken | nil | nil, perspective | self | close-up	cruise	rock outcrop	98.34	2688	http://search.mbari.org/ARCHIVE/frameGrabs/Ventana/images/2688/04_25_12_12.jpg	36.81463	-122.01708	20005294	1.95	2005-07-14 20:40:57.0	Ventana	34.096	04:25:12:12	8.941	V2688-05
population-density | self | dense, population-quantity | self | 999	cruise	Sebastes	96.18	2688	http://search.mbari.org/ARCHIVE/frameGrabs/Ventana/images/2688/04_26_37_05.jpg	36.814545	-122.01703	1679432	1.95	2005-07-14 20:42:26.0	Ventana	34.096	04:26:37:05	8.941	V2688-05
audio-comment | self | 4.5 m high	cruise	scarp	96.06	2688	http://search.mbari.org/ARCHIVE/frameGrabs/Ventana/images/2688/04_27_25_08.jpg	36.81455	-122.01701	20005297	1.95	2005-07-14 20:43:09.0	Ventana	34.095	04:27:25:08	8.94	V2688-05
identity-reference | self | 7	cruise	crack	96.37	2688	http://search.mbari.org/ARCHIVE/frameGrabs/Ventana/images/2688/04_27_35_08.jpg	36.81455	-122.017006	20005298	1.95	2005-07-14 20:43:19.0	Ventana	34.095	04:27:35:08	8.94	V2688-05
identity-reference | self | 7	cruise	crack	96.45	2688	http://search.mbari.org/ARCHIVE/frameGrabs/Ventana/images/2688/04_27_39_08.jpg	36.81455	-122.017	20005299	1.95	2005-07-14 20:43:23.0	Ventana	34.095	04:27:39:08	8.941	V2688-05
identity-reference | self | 7	cruise	crack	96.64	2688	http://search.mbari.org/ARCHIVE/frameGrabs/Ventana/images/2688/04_27_44_08.jpg	36.81455	-122.017	20005300	1.95	2005-07-14 20:43:29.0	Ventana	34.095	04:27:44:08	8.941	V2688-05
population-density | self | dense, population-quantity | self | 999	cruise	Florometra	95.82	2688	 	36.814552	-122.01699	1679433	1.95	2005-07-14 20:43:54.0	Ventana	34.095	04:28:09:13	8.939	V2688-05
population-quantity | self | 999	cruise	Porifera	94.64	2688	 	36.814697	-122.01711	1679434	1.95	2005-07-14 20:45:50.0	Ventana	34.096	04:30:05:01	8.938	V2688-05
identity-reference | self | 8	cruise	scarp	94.16	2688	http://search.mbari.org/ARCHIVE/frameGrabs/Ventana/images/2688/04_31_23_01.jpg	36.814854	-122.01712	20005302	1.95	2005-07-14 20:47:09.0	Ventana	34.095	04:31:23:01	8.939	V2688-05
identity-reference | self | 8	cruise	scarp	94.59	2688	http://search.mbari.org/ARCHIVE/frameGrabs/Ventana/images/2688/04_31_29_01.jpg	36.814854	-122.01711	20005303	1.95	2005-07-14 20:47:15.0	Ventana	34.095	04:31:29:01	8.939	V2688-05
trying | nil | nil, identity-reference | self | 31	cruise	Push Corer	94.99	2688	http://search.mbari.org/ARCHIVE/frameGrabs/Ventana/images/2688/04_33_44_27.jpg	36.814857	-122.01712	20005305	1.95	2005-07-14 20:49:23.0	Ventana	34.094	04:33:44:27	8.94	V2688-05
sampled-by | Push Corer | nil, sample-reference | self | V2688-PC31	cruise	mud	95.07	2688	http://search.mbari.org/ARCHIVE/frameGrabs/Ventana/images/2688/04_34_31_10.jpg	36.814865	-122.017136	20005306	1.95	2005-07-14 20:50:25.0	Ventana	34.096	04:34:31:10	8.936	V2688-05
surface-color | self | pink	cruise	Pennatulacea	95.1	2688	http://search.mbari.org/ARCHIVE/frameGrabs/Ventana/images/2688/04_35_49_14.jpg	36.814854	-122.01717	1679437	1.95	2005-07-14 20:51:36.0	Ventana	34.097	04:35:49:14	8.936	V2688-05
identity-certainty | self | maybe, population-quantity | self | 999	cruise	Porifera	94.25	2688	 	36.814846	-122.01716	1679438	1.95	2005-07-14 20:51:53.0	Ventana	34.096	04:36:07:10	8.935	V2688-05
population-quantity | self | 999	cruise	Parastichopus	94.24	2688	 	36.81478	-122.017105	1679441	1.94	2005-07-14 20:52:35.0	Ventana	34.098	04:36:49:16	8.932	V2688-05
population-density | self | dense, population-quantity | self | 999	cruise	Florometra	94.27	2688	 	36.81475	-122.01708	1679444	1.94	2005-07-14 20:52:49.0	Ventana	34.098	04:37:03:25	8.929	V2688-05
population-quantity | self | 999	cruise	Parastichopus	94.01	2688	 	36.814716	-122.01706	1679445	1.94	2005-07-14 20:53:07.0	Ventana	34.099	04:37:21:08	8.926	V2688-05
population-density | self | dense, population-quantity | self | 999	cruise	Sebastes	94.87	2688	 	36.81469	-122.017044	1679446	1.94	2005-07-14 20:53:28.0	Ventana	34.099	04:37:42:04	8.926	V2688-05
population-quantity | self | 999	cruise	Parastichopus	93.02	2688	 	36.81469	-122.0171	1679447	1.94	2005-07-14 20:56:39.0	Ventana	34.097	04:40:53:00	8.934	V2688-05
identity-reference | self | 8, audio-comment | self | 335 degrees?	cruise	scarp	92.92	2688	http://search.mbari.org/ARCHIVE/frameGrabs/Ventana/images/2688/04_41_39_12.jpg	36.814735	-122.01713	20005311	1.94	2005-07-14 20:57:26.0	Ventana	34.099	04:41:39:12	8.929	V2688-05
broken | nil | nil, identity-reference | self | 9	cruise	rock outcrop	92.71	2688	http://search.mbari.org/ARCHIVE/frameGrabs/Ventana/images/2688/04_53_24_20.jpg	36.814693	-122.0188	20005315	1.94	2005-07-14 21:09:11.0	Ventana	34.099	04:53:24:20	8.926	V2688-05
broken | nil | nil, identity-reference | self | 9	cruise	rock outcrop	92.06	2688	http://search.mbari.org/ARCHIVE/frameGrabs/Ventana/images/2688/04_53_30_20.jpg	36.814686	-122.01881	20005316	1.94	2005-07-14 21:09:17.0	Ventana	34.099	04:53:30:20	8.926	V2688-05
population-density | self | dense, population-quantity | self | 999	cruise	Sebastes	93.97	2688	 	36.814995	-122.01717	1679449	1.94	2005-07-14 21:00:38.0	Ventana	34.098	04:44:51:20	8.925	V2688-05
identity-certainty | self | maybe	cruise	Pycnopodia	95.19	2688	http://search.mbari.org/ARCHIVE/frameGrabs/Ventana/images/2688/04_45_59_26.jpg	36.814903	-122.01736	1679451	1.94	2005-07-14 21:01:48.0	Ventana	34.099	04:45:59:26	8.925	V2688-05
population-quantity | self | 999	cruise	Florometra	95.8	2688	 	36.814857	-122.01754	1679455	1.94	2005-07-14 21:02:19.0	Ventana	34.098	04:46:33:03	8.927	V2688-05
population-quantity | self | 999	cruise	Rathbunaster californicus	95.47	2688	 	36.814835	-122.017654	1679456	1.94	2005-07-14 21:02:30.0	Ventana	34.099	04:46:43:27	8.927	V2688-05
population-quantity | self | 999	cruise	Pleuronectiformes	94.9	2688	 	36.81478	-122.017914	1679459	1.94	2005-07-14 21:03:00.0	Ventana	34.098	04:47:14:16	8.928	V2688-05
population-quantity | self | 999	cruise	Pennatulacea	94.54	2688	 	36.81472	-122.0183	1679464	1.94	2005-07-14 21:03:54.0	Ventana	34.098	04:48:07:20	8.925	V2688-05
population-quantity | self | 999	cruise	Florometra	93.9	2688	 	36.814705	-122.01842	1679466	1.94	2005-07-14 21:04:12.0	Ventana	34.1	04:48:26:08	8.918	V2688-05
population-quantity | self | 999	cruise	Sebastes	94.09	2688	 	36.814777	-122.01864	1679468	1.94	2005-07-14 21:07:23.0	Ventana	34.099	04:51:36:29	8.919	V2688-05
population-density | self | dense, population-quantity | self | 999	cruise	Sebastes	92.3	2688	 	36.81469	-122.01881	1679471	1.94	2005-07-14 21:09:14.0	Ventana	34.099	04:53:27:12	8.926	V2688-05
identity-certainty | self | maybe, population-quantity | self | 999	cruise	Porifera	91.69	2688	 	36.814682	-122.018814	1679472	1.94	2005-07-14 21:09:20.0	Ventana	34.099	04:53:34:08	8.926	V2688-05
population-quantity | self | 999	cruise	Parastichopus	92.31	2688	 	36.814663	-122.01883	1679473	1.94	2005-07-14 21:09:41.0	Ventana	34.1	04:53:54:25	8.923	V2688-05
population-quantity | self | 999	cruise	Sebastes	92.46	2688	 	36.814457	-122.01874	1679480	1.94	2005-07-14 21:11:52.0	Ventana	34.1	04:56:05:11	8.915	V2688-05
population-quantity | self | 999	cruise	Actiniaria	93.29	2688	http://search.mbari.org/ARCHIVE/frameGrabs/Ventana/images/2688/04_56_28_14.jpg	36.814354	-122.01868	1679481	1.94	2005-07-14 21:12:14.0	Ventana	34.101	04:56:28:14	8.909	V2688-05
population-density | self | dense, population-dispersal | self | school, population-quantity | self | 999	cruise	Sebastes paucispinis	93.63	2688	http://search.mbari.org/ARCHIVE/frameGrabs/Ventana/images/2688/04_57_02_29.jpg	36.814175	-122.01859	20005321	1.93	2005-07-14 21:12:50.0	Ventana	34.102	04:57:02:29	8.904	V2688-05
population-quantity | self | 999	cruise	Sebastes flavidus	93.91	2688	http://search.mbari.org/ARCHIVE/frameGrabs/Ventana/images/2688/04_57_07_08.jpg	36.814148	-122.018585	1679485	1.93	2005-07-14 21:12:56.0	Ventana	34.102	04:57:07:08	8.902	V2688-05
identity-certainty | self | maybe	cruise	Pycnopodia	100.23	2688	 	36.81389	-122.018456	1679487	1.93	2005-07-14 21:14:27.0	Ventana	34.103	04:58:40:18	8.903	V2688-05
population-quantity | self | 999	cruise	Florometra	101.58	2688	 	36.81389	-122.01844	1679488	1.93	2005-07-14 21:14:47.0	Ventana	34.103	04:59:00:06	8.902	V2688-05
population-quantity | self | 999	cruise	Sebastes	95.19	2688	 	36.813942	-122.01845	1679491	1.93	2005-07-14 21:15:21.0	Ventana	34.101	04:59:33:28	8.901	V2688-05
population-quantity | self | 999	cruise	Florometra	96.6	2688	 	36.814003	-122.01845	1679492	1.93	2005-07-14 21:16:16.0	Ventana	34.103	05:00:28:26	8.898	V2688-05
population-quantity | self | 999	cruise	Parastichopus	95.26	2688	 	36.814014	-122.01844	1679494	1.93	2005-07-14 21:17:24.0	Ventana	34.102	05:01:37:08	8.905	V2688-05
population-quantity | self | 999	cruise	Florometra	95.98	2688	 	36.814014	-122.01844	1679495	1.93	2005-07-14 21:17:36.0	Ventana	34.102	05:01:49:01	8.905	V2688-05
population-quantity | self | 2	cruise	Ophiodon elongatus	98.64	2688	 	36.81402	-122.01845	1679500	1.93	2005-07-14 21:19:14.13	Ventana	34.105	05:03:27:05	8.895	V2688-05
population-quantity | self | 999	cruise	Florometra	100.25	2688	 	36.81402	-122.01845	1679501	1.93	2005-07-14 21:19:28.0	Ventana	34.103	05:03:41:14	8.902	V2688-05
population-quantity | self | 999	cruise	boulder	100.54	2688	 	36.81402	-122.01845	1679503	1.93	2005-07-14 21:19:37.0	Ventana	34.103	05:03:50:03	8.899	V2688-05
population-quantity | self | 999	cruise	Sebastes	100.61	2688	 	36.81402	-122.01845	1679504	1.93	2005-07-14 21:19:44.0	Ventana	34.103	05:03:56:24	8.899	V2688-05
population-dispersal | self | school, population-quantity | self | 999	cruise	Sebastes	100.86	2688	 	36.81402	-122.01845	1679505	1.93	2005-07-14 21:19:54.0	Ventana	34.104	05:04:07:11	8.897	V2688-05
comment | self | edge, audio-comment | self | crown scarp	cruise	scarp	100.82	2688	http://search.mbari.org/ARCHIVE/frameGrabs/Ventana/images/2688/05_04_03_16.jpg	36.81402	-122.01845	20005323	1.93	2005-07-14 21:19:50.0	Ventana	34.103	05:04:03:16	8.899	V2688-05
identity-certainty | self | maybe	cruise	Stylasterias	103.72	2688	 	36.814026	-122.01846	1679507	1.93	2005-07-14 21:21:43.0	Ventana	34.105	05:05:56:13	8.896	V2688-05
population-quantity | self | 999	cruise	Parastichopus	103.61	2688	 	36.81403	-122.01847	1679508	1.93	2005-07-14 21:21:53.0	Ventana	34.102	05:06:05:29	8.894	V2688-05
population-quantity | self | 999	cruise	Sebastes	103.5	2688	 	36.81403	-122.01847	1679509	1.93	2005-07-14 21:21:55.0	Ventana	34.102	05:06:07:17	8.894	V2688-05
population-quantity | self | 999	cruise	Sebastes	102.35	2688	 	36.814064	-122.0185	1679515	1.91	2005-07-14 21:23:48.0	Ventana	34.108	05:08:00:28	8.878	V2688-05
population-density | self | dense, population-quantity | self | 999	cruise	Florometra	102.24	2688	 	36.814064	-122.0185	1679516	1.92	2005-07-14 21:23:54.0	Ventana	34.111	05:08:07:08	8.875	V2688-05
population-quantity | self | 999	cruise	Florometra	100.17	2688	 	36.813854	-122.018906	1679518	1.93	2005-07-14 21:26:01.0	Ventana	34.111	05:10:13:14	8.872	V2688-05
population-quantity | self | 999	cruise	Rathbunaster californicus	99.28	2688	 	36.813503	-122.0196	1679519	1.94	2005-07-14 21:27:09.0	Ventana	34.106	05:11:21:29	8.883	V2688-05
population-quantity | self | 999	cruise	Florometra	98.29	2688	 	36.813076	-122.020386	1679526	1.94	2005-07-14 21:28:33.0	Ventana	34.108	05:12:45:08	8.879	V2688-05
population-quantity | self | 999	cruise	Sebastes	99.35	2688	 	36.81299	-122.02068	1679531	1.93	2005-07-14 21:29:11.0	Ventana	34.109	05:13:23:04	8.875	V2688-05
population-quantity | self | 999	cruise	Parastichopus	99.43	2688	 	36.81295	-122.02097	1679535	1.92	2005-07-14 21:29:52.0	Ventana	34.111	05:14:04:09	8.871	V2688-05
identity-reference | self | 10, perspective | self | close-up	cruise	Sebastes pinniger	93.5	2688	http://search.mbari.org/ARCHIVE/frameGrabs/Ventana/images/2688/05_17_14_06.jpg	36.812992	-122.02143	20005331	1.92	2005-07-14 21:33:02.0	Ventana	34.109	05:17:14:06	8.878	V2688-05
identity-reference | self | 10, perspective | self | close-up	cruise	Sebastes pinniger	93.33	2688	http://search.mbari.org/ARCHIVE/frameGrabs/Ventana/images/2688/05_17_25_05.jpg	36.812984	-122.02143	20005332	1.92	2005-07-14 21:33:12.0	Ventana	34.109	05:17:25:05	8.88	V2688-05
identity-reference | self | 11	cruise	Sebastes rubrivinctus	93.67	2688	http://search.mbari.org/ARCHIVE/frameGrabs/Ventana/images/2688/05_18_34_18.jpg	36.812916	-122.02151	20005335	1.93	2005-07-14 21:34:28.0	Ventana	34.109	05:18:34:18	8.879	V2688-05
identity-reference | self | 11, perspective | self | close-up	cruise	Sebastes rubrivinctus	94.32	2688	http://search.mbari.org/ARCHIVE/frameGrabs/Ventana/images/2688/05_19_01_17.jpg	36.812904	-122.02152	20005336	1.93	2005-07-14 21:34:49.0	Ventana	34.109	05:19:01:17	8.877	V2688-05
identity-reference | self | 10	cruise	Sebastes pinniger	94.07	2688	http://search.mbari.org/ARCHIVE/frameGrabs/Ventana/images/2688/05_17_45_20.jpg	36.812965	-122.02145	20005334	1.93	2005-07-14 21:33:35.0	Ventana	34.109	05:17:45:20	8.878	V2688-05
population-quantity | self | 999	cruise	Florometra	95.72	2688	 	36.813023	-122.021324	1679539	1.92	2005-07-14 21:31:09.0	Ventana	34.109	05:15:21:19	8.873	V2688-05
identity-certainty | self | maybe, population-quantity | self | 999	cruise	Porifera	93.91	2688	 	36.813038	-122.02138	1679540	1.92	2005-07-14 21:31:32.0	Ventana	34.109	05:15:44:02	8.873	V2688-05
identity-certainty | self | maybe, population-quantity | self | 999	cruise	Porifera	93.37	2688	 	36.812954	-122.02146	1679544	1.93	2005-07-14 21:33:48.0	Ventana	34.11	05:18:00:16	8.873	V2688-05
population-quantity | self | 999	cruise	Caryophylliina	94.21	2688	 	36.812912	-122.021515	1679545	1.93	2005-07-14 21:34:35.0	Ventana	34.109	05:18:47:09	8.879	V2688-05
life-stage | self | juvenile	transect	Sebastolobus	997.6	2669	 	36.73059	-122.227234	1683332	0.45	2005-05-25 17:55:38.0	Ventana	34.521	00:18:07:16	3.908	V2669-01
life-stage | self | juvenile	transect	Sebastolobus	997.54	2669	 	36.73058	-122.227234	1683334	0.45	2005-05-25 17:55:41.983	Ventana	34.521	00:18:11:09	3.908	V2669-01
life-stage | self | juvenile	transect	Sebastolobus	998.36	2669	 	36.731167	-122.23082	1683456	0.45	2005-05-25 18:21:15.0	Ventana	34.521	00:43:41:28	3.913	V2669-01
identity-certainty | self | maybe	transect	Caridea sp.1	998.64	2669	 	36.731113	-122.23108	1683524	0.45	2005-05-25 18:23:02.0	Ventana	34.521	00:45:28:23	3.922	V2669-01
life-stage | self | juvenile	transect	Sebastolobus	998.58	2669	 	36.73107	-122.231125	1683539	0.45	2005-05-25 18:23:30.0	Ventana	34.521	00:45:56:12	3.915	V2669-01
life-stage | self | juvenile	transect	Sebastolobus	999.27	2669	 	36.731037	-122.231186	1683547	0.45	2005-05-25 18:24:08.83	Ventana	34.522	00:46:35:09	3.911	V2669-01
life-stage | self | juvenile	transect	Sebastolobus	999.5	2669	 	36.73103	-122.23121	1683577	0.45	2005-05-25 18:25:00.25	Ventana	34.522	00:47:27:01	3.913	V2669-01
life-stage | self | juvenile	transect	Lycenchelys camchatica	1000.01	2669	 	36.73101	-122.23127	1683593	0.45	2005-05-25 18:25:33.0	Ventana	34.52	00:47:59:17	3.915	V2669-01
life-stage | self | juvenile	transect	Sebastolobus	999.51	2669	http://search.mbari.org/ARCHIVE/frameGrabs/Ventana/images/2669/00_48_13_12.jpg	36.731018	-122.2313	1683610	0.45	2005-05-25 18:25:47.0	Ventana	34.52	00:48:13:12	3.915	V2669-01
life-stage | self | juvenile	transect	Sebastolobus	999.69	2669	 	36.730923	-122.23152	1683644	0.45	2005-05-25 18:27:25.6	Ventana	34.52	00:49:51:28	3.92	V2669-01
life-stage | self | juvenile	transect	Solaster	999.55	2669	 	36.730934	-122.2316	1683656	0.45	2005-05-25 18:28:01.0	Ventana	34.522	00:50:27:18	3.916	V2669-01
surface-color | self | purple	transect	Pannychia moseleyi	999.51	2669	http://search.mbari.org/ARCHIVE/frameGrabs/Ventana/images/2669/00_48_13_12.jpg	36.731018	-122.2313	1683603	0.45	2005-05-25 18:25:47.0	Ventana	34.52	00:48:13:12	3.915	V2669-01
surface-color | self | purple	transect	Pannychia moseleyi	999.25	2669	 	36.731007	-122.23174	1683675	0.45	2005-05-25 18:28:45.65	Ventana	34.521	00:51:12:18	3.913	V2669-01
life-stage | self | juvenile	transect	Sebastolobus	999.28	2669	 	36.731014	-122.23178	1683680	0.45	2005-05-25 18:28:55.1	Ventana	34.523	00:51:22:01	3.912	V2669-01
life-stage | self | juvenile	transect	Sebastolobus	999.28	2669	 	36.73102	-122.23182	1683682	0.45	2005-05-25 18:28:59.65	Ventana	34.523	00:51:26:17	3.912	V2669-01
life-stage | self | juvenile	transect	Sebastolobus	999.14	2669	 	36.731052	-122.23185	1683685	0.45	2005-05-25 18:29:13.45	Ventana	34.521	00:51:40:07	3.915	V2669-01
life-stage | self | juvenile	transect	Sebastolobus	999.0	2669	 	36.73104	-122.231895	1683696	0.45	2005-05-25 18:29:32.95	Ventana	34.522	00:51:59:01	3.915	V2669-01
life-stage | self | juvenile	transect	Sebastolobus	999.11	2669	 	36.731037	-122.231964	1683699	0.45	2005-05-25 18:29:48.3	Ventana	34.521	00:52:14:10	3.914	V2669-01
life-stage | self | juvenile	transect	Sebastolobus	999.47	2669	 	36.731007	-122.232315	1683726	0.45	2005-05-25 18:31:27.0	Ventana	34.519	00:53:54:04	3.923	V2669-01
life-stage | self | juvenile	transect	Sebastolobus	999.57	2669	 	36.731	-122.232346	1683733	0.45	2005-05-25 18:31:54.083	Ventana	34.521	00:54:20:08	3.914	V2669-01
life-stage | self | juvenile	transect	Sebastolobus	999.79	2669	 	36.731003	-122.2325	1683756	0.45	2005-05-25 18:33:37.883	Ventana	34.521	00:56:04:08	3.915	V2669-01
life-stage | self | juvenile	transect	Sebastolobus	999.79	2669	 	36.731003	-122.2325	1683757	0.45	2005-05-25 18:33:37.883	Ventana	34.521	00:56:04:08	3.915	V2669-01
population-quantity | self | 999	transect	Mesomyaria	1000.31	2669	 	36.7309	-122.23285	1683813	0.45	2005-05-25 18:35:27.0	Ventana	34.521	00:57:53:06	3.911	V2669-01
surface-color | self | grey	transect	Liparidae	1000.31	2669	http://search.mbari.org/ARCHIVE/frameGrabs/Ventana/images/2669/00_57_53_10.jpg	36.7309	-122.23285	1683815	0.45	2005-05-25 18:35:27.0	Ventana	34.521	00:57:53:10	3.911	V2669-01
life-stage | self | juvenile	transect	Sebastolobus	1000.44	2669	 	36.73094	-122.23294	1683835	0.45	2005-05-25 18:36:18.2	Ventana	34.523	00:58:43:16	3.909	V2669-01
life-stage | self | juvenile	transect	Sebastolobus	999.83	2669	 	36.730965	-122.23305	1683850	0.45	2005-05-25 18:37:00.443	Ventana	34.522	00:59:26:05	3.911	V2669-01
life-stage | self | juvenile	transect	Sebastolobus	999.98	2669	 	36.730984	-122.23308	1683857	0.45	2005-05-25 18:37:12.6	Ventana	34.522	00:59:37:26	3.912	V2669-01
life-stage | self | juvenile	transect	Sebastolobus	999.98	2669	 	36.731007	-122.2331	1683864	0.45	2005-05-25 18:37:30.433	Ventana	34.523	00:59:55:21	3.91	V2669-01
life-stage | self | juvenile	transect	Sebastolobus	1000.03	2669	 	36.731007	-122.2331	1683866	0.45	2005-05-25 18:37:26.897	Ventana	34.523	00:59:53:01	3.91	V2669-01
life-stage | self | juvenile	transect	Sebastolobus	1000.0	2669	 	36.73101	-122.2331	1683871	0.45	2005-05-25 18:37:31.133	Ventana	34.523	00:59:56:12	3.91	V2669-01
life-stage | self | juvenile	transect	Sebastolobus	1000.09	2669	 	36.731007	-122.233116	1683880	0.45	2005-05-25 18:37:37.1	Ventana	34.523	01:00:03:24	3.91	V2669-01
life-stage | self | juvenile	transect	Sebastolobus	1000.23	2669	 	36.730953	-122.233376	1683898	0.45	2005-05-25 18:38:22.4	Ventana	34.522	01:00:48:19	3.91	V2669-01
life-stage | self | juvenile	transect	Sebastolobus	1000.58	2669	 	36.730923	-122.233604	1683924	0.45	2005-05-25 18:39:43.0	Ventana	34.522	01:01:43:27	3.914	V2669-02
life-stage | self | juvenile	transect	Sebastolobus	1000.01	2669	 	36.730957	-122.23381	1683960	0.45	2005-05-25 18:40:33.15	Ventana	34.523	01:02:34:07	3.913	V2669-02
life-stage | self | juvenile	transect	Sebastolobus	999.52	2669	 	36.73102	-122.23387	1683988	0.45	2005-05-25 18:41:03.0	Ventana	34.522	01:03:03:21	3.913	V2669-02
life-stage | self | juvenile	transect	Sebastolobus	999.18	2669	 	36.731087	-122.233986	1684013	0.45	2005-05-25 18:41:39.967	Ventana	34.522	01:03:41:25	3.913	V2669-02
life-stage | self | juvenile	transect	Sebastolobus	998.94	2669	 	36.731133	-122.23404	1684027	0.45	2005-05-25 18:42:19.733	Ventana	34.523	01:04:21:10	3.913	V2669-02
life-stage | self | juvenile	transect	Solaster	998.48	2669	 	36.731106	-122.23068	1683383	0.45	2005-05-25 18:19:43.0	Ventana	34.521	00:42:10:13	3.911	V2669-01
life-stage | self | juvenile	transect	Solaster	998.28	2669	http://search.mbari.org/ARCHIVE/frameGrabs/Ventana/images/2669/00_45_19_00.jpg	36.73113	-122.23104	1683515	0.45	2005-05-25 18:22:52.0	Ventana	34.522	00:45:19:00	3.914	V2669-01
life-stage | self | juvenile	transect	Sebastolobus	999.05	2669	 	36.731186	-122.23433	1684094	0.45	2005-05-25 18:43:50.5	Ventana	34.52	01:05:51:08	3.919	V2669-02
life-stage | self | juvenile	transect	Sebastolobus	999.07	2669	 	36.731182	-122.23437	1684118	0.45	2005-05-25 18:44:20.217	Ventana	34.521	01:06:21:05	3.917	V2669-02
life-stage | self | juvenile	transect	Sebastolobus	998.5	2669	 	36.73118	-122.23438	1684125	0.45	2005-05-25 18:44:41.35	Ventana	34.522	01:06:42:08	3.916	V2669-02
life-stage | self | juvenile	transect	Lycenchelys camchatica	998.76	2669	http://search.mbari.org/ARCHIVE/frameGrabs/Ventana/images/2669/01_06_51_15.jpg	36.73117	-122.23443	1684128	0.45	2005-05-25 18:44:51.0	Ventana	34.522	01:06:51:15	3.916	V2669-02
life-stage | self | juvenile	transect	Sebastolobus	998.5	2669	 	36.731197	-122.234505	1684152	0.45	2005-05-25 18:46:09.22	Ventana	34.522	01:08:09:17	3.917	V2669-02
life-stage | self | juvenile	transect	Sebastolobus	998.93	2669	 	36.73112	-122.23481	1684188	0.45	2005-05-25 18:48:12.917	Ventana	34.521	01:10:14:03	3.918	V2669-02
life-stage | self | juvenile	transect	Sebastolobus	998.72	2669	 	36.73108	-122.23491	1684198	0.45	2005-05-25 18:48:51.13	Ventana	34.522	01:10:51:21	3.918	V2669-02
life-stage | self | juvenile	transect	Sebastolobus	998.79	2669	 	36.731075	-122.23493	1684207	0.45	2005-05-25 18:49:26.8	Ventana	34.522	01:11:27:15	3.919	V2669-02
identity-certainty | self | maybe, life-stage | self | juvenile	transect	Sebastolobus	999.26	2669	 	36.73105	-122.23509	1684265	0.45	2005-05-25 18:50:57.1	Ventana	34.523	01:12:58:12	3.923	V2669-02
life-stage | self | juvenile	transect	Sebastolobus	999.26	2669	 	36.73105	-122.23509	1684266	0.45	2005-05-25 18:50:57.1	Ventana	34.523	01:12:58:12	3.923	V2669-02
life-stage | self | juvenile	transect	Sebastolobus	999.66	2669	 	36.731075	-122.23518	1684287	0.45	2005-05-25 18:52:04.833	Ventana	34.521	01:14:05:27	3.922	V2669-02
life-stage | self | juvenile	transect	Sebastolobus	999.76	2669	 	36.731064	-122.23521	1684289	0.45	2005-05-25 18:52:12.333	Ventana	34.521	01:14:12:17	3.921	V2669-02
life-stage | self | juvenile	transect	Sebastolobus	999.71	2669	 	36.7312	-122.23575	1684375	0.44	2005-05-25 18:55:33.0	Ventana	34.519	01:17:32:19	3.934	V2669-02
life-stage | self | juvenile	transect	Sebastolobus	999.39	2669	 	36.731216	-122.23583	1684405	0.44	2005-05-25 18:56:09.1	Ventana	34.52	01:18:09:17	3.933	V2669-02
identity-certainty | self | unusual, relative-size | self | large	transect	Lycenchelys crotalinus	999.13	2669	http://search.mbari.org/ARCHIVE/frameGrabs/Ventana/images/2669/01_19_45_23.jpg	36.731384	-122.23603	1684520	0.44	2005-05-25 18:57:46.0	Ventana	34.52	01:19:45:23	3.938	V2669-02
comment | self | these may be another species of Solaster vs juveniles, life-stage | self | juvenile	transect	Solaster	999.09	2669	http://search.mbari.org/ARCHIVE/frameGrabs/Ventana/images/2669/01_20_22_23.jpg	36.7314	-122.2361	1684625	0.44	2005-05-25 18:58:23.0	Ventana	34.521	01:20:22:23	3.943	V2669-02
population-quantity | self | 6	transect	Ceriantharia sp. 2	999.27	2669	http://search.mbari.org/ARCHIVE/frameGrabs/Ventana/images/2669/01_21_20_16.jpg	36.73142	-122.236244	1684691	0.44	2005-05-25 18:59:21.0	Ventana	34.52	01:21:20:16	3.941	V2669-02
life-stage | self | juvenile	transect	Sebastolobus	999.03	2669	 	36.731396	-122.23645	1684776	0.44	2005-05-25 19:01:13.067	Ventana	34.52	01:23:12:24	3.941	V2669-02
life-stage | self | juvenile	transect	Sebastolobus	998.96	2669	 	36.7314	-122.23653	1684794	0.44	2005-05-25 19:01:45.1	Ventana	34.52	01:23:44:25	3.939	V2669-02
relative-size | self | large, comment | self | small head, white pectoral  fins and tip of snout	transect	Lycenchelys crotalinus	999.65	2669	http://search.mbari.org/ARCHIVE/frameGrabs/Ventana/images/2669/01_25_08_10.jpg	36.73142	-122.236626	1684811	0.44	2005-05-25 19:03:09.0	Ventana	34.521	01:25:08:10	3.939	V2669-02
life-stage | self | juvenile	transect	Sebastolobus	999.79	2669	 	36.73142	-122.23671	1684825	0.44	2005-05-25 19:03:42.95	Ventana	34.52	01:25:42:28	3.938	V2669-02
identity-certainty | self | unusual, relative-size | self | large, comment | self | large head, white fins, white snout	transect	Lycenchelys crotalinus	999.64	2669	http://search.mbari.org/ARCHIVE/frameGrabs/Ventana/images/2669/01_28_02_08.jpg	36.731422	-122.23697	1687042	0.44	2005-05-25 19:06:03.0	Ventana	34.519	01:28:02:08	3.942	V2669-02
life-stage | self | juvenile	transect	Sebastolobus	999.66	2669	 	36.731403	-122.236984	1687429	0.44	2005-05-25 19:06:16.0	Ventana	34.52	01:28:15:08	3.941	V2669-02
life-stage | self | juvenile	transect	Sebastolobus	999.7	2669	 	36.73142	-122.23701	1687434	0.44	2005-05-25 19:06:40.1	Ventana	34.52	01:28:39:07	3.942	V2669-02
life-stage | self | juvenile	transect	Lycenchelys camchatica	999.8	2669	 	36.73135	-122.23735	1687489	0.44	2005-05-25 19:09:14.0	Ventana	34.519	01:31:13:16	3.945	V2669-02
life-stage | self | juvenile	transect	Sebastolobus	999.8	2669	 	36.73138	-122.237366	1687492	0.44	2005-05-25 19:09:33.35	Ventana	34.519	01:31:32:27	3.945	V2669-02
life-stage | self | juvenile	transect	Sebastolobus	999.71	2669	 	36.73137	-122.23744	1687497	0.44	2005-05-25 19:10:00.95	Ventana	34.519	01:32:00:16	3.946	V2669-02
life-stage | self | juvenile	transect	Sebastolobus	999.6	2669	 	36.731388	-122.2375	1687504	0.44	2005-05-25 19:10:58.22	Ventana	34.519	01:32:57:16	3.946	V2669-02
life-stage | self | juvenile	transect	Sebastolobus	1000.12	2669	 	36.73122	-122.23842	1688867	0.43	2005-05-25 19:17:53.0	Ventana	34.516	01:39:51:21	3.966	V2669-02
comment | self | cloth	transect	trash	999.89	2669	http://search.mbari.org/ARCHIVE/frameGrabs/Ventana/images/2669/01_42_20_26.jpg	36.731064	-122.23883	1689074	0.43	2005-05-25 19:20:22.0	Ventana	34.518	01:42:20:26	3.962	V2669-02
life-stage | self | juvenile	transect	Sebastolobus	999.88	2669	 	36.73107	-122.23891	1689084	0.43	2005-05-25 19:20:55.0	Ventana	34.518	01:42:53:04	3.96	V2669-02
life-stage | self | juvenile	transect	Sebastolobus	999.99	2669	 	36.731056	-122.23925	1689128	0.43	2005-05-25 19:22:42.0	Ventana	34.516	01:44:40:09	3.981	V2669-02
life-stage | self | juvenile	transect	Sebastolobus	999.98	2669	 	36.731056	-122.23936	1689144	0.42	2005-05-25 19:23:27.9	Ventana	34.522	01:45:26:12	3.997	V2669-02
life-stage | self | juvenile	transect	Sebastolobus	1000.03	2669	 	36.731056	-122.23938	1689146	0.42	2005-05-25 19:23:32.2	Ventana	34.522	01:45:30:18	3.997	V2669-02
life-stage | self | juvenile	transect	Sebastolobus	1000.13	2669	 	36.731014	-122.239494	1689155	0.41	2005-05-25 19:24:04.0	Ventana	34.51	01:46:02:13	4.061	V2669-02
life-stage | self | juvenile	transect	Sebastolobus	1000.09	2669	 	36.73104	-122.239624	1689171	0.41	2005-05-25 19:25:05.55	Ventana	34.509	01:47:04:17	4.064	V2669-02
life-stage | self | juvenile	transect	Sebastolobus	1000.09	2669	 	36.73118	-122.24041	1689256	0.41	2005-05-25 19:30:03.0	Ventana	34.51	01:52:01:15	4.06	V2669-02
life-stage | self | juvenile	transect	Lycenchelys camchatica	1000.19	2669	http://search.mbari.org/ARCHIVE/frameGrabs/Ventana/images/2669/01_51_25_04.jpg	36.731136	-122.24034	1689273	0.41	2005-05-25 19:29:27.0	Ventana	34.51	01:51:25:04	4.06	V2669-02
life-stage | self | juvenile	transect	Sebastolobus	1000.3	2669	 	36.7312	-122.2406	1689280	0.41	2005-05-25 19:31:21.45	Ventana	34.51	01:53:19:14	4.057	V2669-02
life-stage | self | juvenile	transect	Sebastolobus	1000.28	2669	 	36.731167	-122.24064	1689294	0.41	2005-05-25 19:31:40.0	Ventana	34.511	01:53:37:22	4.055	V2669-02
life-stage | self | juvenile	transect	Sebastolobus	1000.39	2669	 	36.731182	-122.24076	1689304	0.41	2005-05-25 19:32:15.45	Ventana	34.511	01:54:13:12	4.056	V2669-02
life-stage | self | juvenile	transect	Lycenchelys camchatica	1000.37	2669	 	36.73118	-122.24081	1689308	0.41	2005-05-25 19:32:23.46	Ventana	34.51	01:54:21:12	4.056	V2669-02
life-stage | self | juvenile	transect	Sebastolobus	1000.35	2669	 	36.731224	-122.241135	1689374	0.41	2005-05-25 19:34:27.6	Ventana	34.512	01:56:25:25	4.058	V2669-02
life-stage | self | juvenile	transect	Lycenchelys camchatica	1000.31	2669	 	36.73122	-122.24126	1689397	0.4	2005-05-25 19:35:07.577	Ventana	34.509	01:57:05:22	4.085	V2669-02
life-stage | self | juvenile	transect	Sebastolobus	1000.31	2669	 	36.731277	-122.24141	1689793	0.4	2005-05-25 19:36:14.0	Ventana	34.507	01:58:11:22	4.091	V2669-02
life-stage | self | juvenile	transect	Sebastolobus	1000.33	2669	 	36.731297	-122.24144	1689801	0.4	2005-05-25 19:36:24.033	Ventana	34.508	01:58:21:02	4.092	V2669-02
comment | self | alum can	transect	trash	1000.27	2669	http://search.mbari.org/ARCHIVE/frameGrabs/Ventana/images/2669/01_58_54_17.jpg	36.73131	-122.24153	1689821	0.4	2005-05-25 19:36:57.0	Ventana	34.507	01:58:54:17	4.091	V2669-02
life-stage | self | juvenile	transect	Sebastolobus	1000.22	2669	 	36.73141	-122.24179	1689871	0.4	2005-05-25 19:38:27.0	Ventana	34.509	02:00:24:27	4.076	V2669-02
life-stage | self | juvenile	transect	Sebastolobus	1000.17	2669	 	36.73144	-122.24195	1689935	0.4	2005-05-25 19:39:09.0	Ventana	34.508	02:01:06:20	4.078	V2669-02
life-stage | self | juvenile	transect	Sebastolobus	1000.32	2669	 	36.73145	-122.2421	1694461	0.4	2005-05-25 19:40:01.917	Ventana	34.509	02:01:59:02	4.076	V2669-02
life-stage | self | juvenile	transect	Sebastolobus	1000.35	2669	 	36.73147	-122.24211	1694465	0.4	2005-05-25 19:40:09.683	Ventana	34.508	02:02:07:04	4.074	V2669-02
life-stage | self | juvenile	transect	Sebastolobus	1000.32	2669	 	36.73147	-122.24222	1694473	0.4	2005-05-25 19:40:37.25	Ventana	34.509	02:02:34:17	4.069	V2669-02
life-stage | self | juvenile	transect	Sebastolobus	1000.25	2669	 	36.731503	-122.24232	1694494	0.41	2005-05-25 19:41:07.507	Ventana	34.509	02:03:05:07	4.06	V2669-02
identity-certainty | self | maybe	transect	trash	1000.33	2669	http://search.mbari.org/ARCHIVE/frameGrabs/Ventana/images/2669/02_03_46_14.jpg	36.731514	-122.24247	1694510	0.41	2005-05-25 19:41:49.0	Ventana	34.509	02:03:46:14	4.065	V2669-02
relative-size | self | large, surface-color | self | white	transect	Asteroidea	999.49	2669	http://search.mbari.org/ARCHIVE/frameGrabs/Ventana/images/2669/01_32_48_07.jpg	36.73139	-122.23747	1687501	0.44	2005-05-25 19:10:49.0	Ventana	34.519	01:32:48:07	3.946	V2669-02
relative-size | self | large, surface-color | self | white	transect	Asteroidea	1000.35	2669	http://search.mbari.org/ARCHIVE/frameGrabs/Ventana/images/2669/02_06_02_11.jpg	36.731564	-122.242935	1694565	0.4	2005-05-25 19:44:05.0	Ventana	34.505	02:06:02:11	4.096	V2669-02
relative-size | self | large, surface-color | self | white	transect	Asteroidea	998.48	2669	http://search.mbari.org/ARCHIVE/frameGrabs/Ventana/images/2669/00_40_49_13.jpg	36.731037	-122.23051	1651310	0.45	2005-05-25 18:18:21.75	Ventana	34.522	00:40:49:13	3.91	V2669-01
life-stage | self | juvenile	transect	Sebastolobus	1000.3	2669	 	36.73156	-122.24295	1694614	0.4	2005-05-25 19:44:14.0	Ventana	34.507	02:06:11:02	4.071	V2669-02
part-of | Euphausiacea | nil, population-quantity | self | 999	descend	molt	62.88	2681	 	36.69983	-122.05429	1713464	2.72	2005-07-07 16:41:09.267	Ventana	33.967	00:12:18:20	9.446	V2681-01
part-of | Euphausiacea | nil	descend	molt	67.15	2681	 	36.69983	-122.05429	1713465	2.72	2005-07-07 16:41:17.5	Ventana	33.967	00:12:26:27	9.446	V2681-01
part-of | Euphausiacea | nil	descend	molt	70.38	2681	 	36.69983	-122.05429	1713466	2.66	2005-07-07 16:41:22.653	Ventana	33.987	00:12:32:14	9.405	V2681-01
part-of | Euphausiacea | nil, population-quantity | self | 999	descend	molt	76.51	2681	 	36.69983	-122.05429	1713468	2.66	2005-07-07 16:41:35.333	Ventana	33.987	00:12:45:06	9.405	V2681-01
part-of | Euphausiacea | nil, population-quantity | self | 999	descend	molt	79.78	2681	 	36.69983	-122.05429	1713469	2.6	2005-07-07 16:41:41.833	Ventana	34.007	00:12:51:21	9.35	V2681-01
part-of | Euphausiacea | nil, population-quantity | self | 999	descend	molt	84.49	2681	 	36.69983	-122.05429	1713470	2.6	2005-07-07 16:41:50.467	Ventana	34.007	00:13:00:10	9.35	V2681-01
part-of | Euphausiacea | nil, population-quantity | self | 999	descend	molt	88.8	2681	 	36.69983	-122.05429	1713471	2.41	2005-07-07 16:41:58.113	Ventana	34.029	00:13:07:29	9.286	V2681-01
part-of | Euphausiacea | nil, population-quantity | self | 999	descend	molt	90.94	2681	 	36.69983	-122.05429	1713472	2.41	2005-07-07 16:42:03.767	Ventana	34.029	00:13:13:18	9.286	V2681-01
part-of | Euphausiacea | nil, population-quantity | self | 999	descend	molt	95.26	2681	 	36.69983	-122.05429	1713473	2.24	2005-07-07 16:42:10.067	Ventana	34.047	00:13:19:27	9.21	V2681-01
part-of | Euphausiacea | nil, population-quantity | self | 999	descend	molt	99.17	2681	 	36.69983	-122.05429	1713474	2.24	2005-07-07 16:42:19.133	Ventana	34.047	00:13:28:29	9.21	V2681-01
part-of | Euphausiacea | nil, population-quantity | self | 999	descend	molt	100.46	2681	 	36.69866	-122.053535	1713478	2.13	2005-07-07 16:52:56.767	Ventana	34.068	00:24:06:13	9.144	V2681-01
population-quantity | self | 999	descend	Copepoda	100.5	2681	 	36.698635	-122.05352	1713479	2.13	2005-07-07 16:53:02.9	Ventana	34.068	00:24:12:17	9.144	V2681-01
comment | self | can see siphonophore on sonar, identity-reference | self | 1	descend	Praya	101.49	2681	http://search.mbari.org/ARCHIVE/frameGrabs/Ventana/images/2681/00_24_45_19.jpg	36.6985	-122.05344	20004468	2.15	2005-07-07 16:53:36.0	Ventana	34.066	00:24:45:19	9.122	V2681-01
part-of | Euphausiacea | nil	descend	molt	102.97	2681	 	36.698387	-122.05336	1713481	2.19	2005-07-07 16:54:22.863	Ventana	34.065	00:25:31:13	9.04	V2681-01
part-of | Euphausiacea | nil	descend	molt	103.45	2681	 	36.69838	-122.05335	1713482	2.19	2005-07-07 16:54:27.233	Ventana	34.065	00:25:35:24	9.04	V2681-01
part-of | Euphausiacea | nil	descend	molt	103.52	2681	 	36.698338	-122.05333	1713483	2.19	2005-07-07 16:54:57.95	Ventana	34.061	00:26:07:00	9.037	V2681-01
comment | self | can see siphonphore on sonar, identity-reference | self | 1	descend	Praya	103.38	2681	http://search.mbari.org/ARCHIVE/frameGrabs/Ventana/images/2681/00_27_36_13.jpg	36.698284	-122.0533	20004469	2.21	2005-07-07 16:56:27.0	Ventana	34.063	00:27:36:13	9.023	V2681-01
part-of | Euphausiacea | nil	descend	molt	103.12	2681	 	36.698284	-122.05329	1713486	2.21	2005-07-07 16:56:42.267	Ventana	34.069	00:27:51:21	9.056	V2681-01
part-of | Euphausiacea | nil	descend	molt	101.98	2681	 	36.69828	-122.05329	1713487	2.18	2005-07-07 16:57:02.187	Ventana	34.064	00:28:11:18	9.096	V2681-01
part-of | Euphausiacea | nil	descend	molt	102.08	2681	 	36.69828	-122.05329	1713488	2.18	2005-07-07 16:57:04.737	Ventana	34.064	00:28:14:05	9.096	V2681-01
part-of | Euphausiacea | nil	descend	molt	102.5	2681	 	36.69828	-122.05329	1713489	2.19	2005-07-07 16:57:08.433	Ventana	34.061	00:28:17:25	9.054	V2681-01
part-of | Euphausiacea | nil	descend	molt	102.5	2681	 	36.69828	-122.05329	1713490	2.19	2005-07-07 16:57:09.233	Ventana	34.061	00:28:18:19	9.054	V2681-01
part-of | Euphausiacea | nil	descend	molt	103.06	2681	 	36.69828	-122.05329	1713491	2.19	2005-07-07 16:57:12.8	Ventana	34.061	00:28:22:06	9.054	V2681-01
part-of | Euphausiacea | nil	descend	molt	105.28	2681	 	36.69828	-122.05329	1713492	2.2	2005-07-07 16:57:44.0	Ventana	34.06	00:28:52:11	9.022	V2681-01
part-of | Euphausiacea | nil	descend	molt	105.26	2681	 	36.69828	-122.05329	1713493	2.2	2005-07-07 16:57:45.233	Ventana	34.06	00:28:53:18	9.022	V2681-01
part-of | Euphausiacea | nil	descend	molt	104.78	2681	 	36.69828	-122.05329	1713495	2.2	2005-07-07 16:58:05.803	Ventana	34.065	00:29:14:20	9.019	V2681-01
part-of | Euphausiacea | nil	descend	molt	104.54	2681	 	36.69828	-122.05329	1713496	2.19	2005-07-07 16:58:09.7	Ventana	34.063	00:29:18:16	9.02	V2681-01
comment | self | can see siphonophore on sonar, identity-reference | self | 1	descend	Praya	103.92	2681	http://search.mbari.org/ARCHIVE/frameGrabs/Ventana/images/2681/00_30_02_09.jpg	36.69828	-122.05329	20004470	2.2	2005-07-07 16:58:53.5	Ventana	34.059	00:30:02:09	9.022	V2681-01
comment | self | can see siphonophore on sonar, identity-reference | self | 1	descend	Praya	105.14	2681	http://search.mbari.org/ARCHIVE/frameGrabs/Ventana/images/2681/00_30_36_08.jpg	36.69828	-122.05329	20004471	2.19	2005-07-07 16:59:27.5	Ventana	34.066	00:30:36:08	9.02	V2681-01
part-of | Euphausiacea | nil	descend	molt	105.23	2681	 	36.69828	-122.05329	1713497	2.19	2005-07-07 16:59:24.867	Ventana	34.066	00:30:33:19	9.02	V2681-01
part-of | Euphausiacea | nil	descend	molt	105.18	2681	 	36.69828	-122.05329	1713498	2.19	2005-07-07 16:59:25.667	Ventana	34.066	00:30:34:13	9.02	V2681-01
part-of | Euphausiacea | nil	descend	molt	105.18	2681	 	36.69828	-122.05329	1713499	2.19	2005-07-07 16:59:26.867	Ventana	34.066	00:30:35:19	9.02	V2681-01
part-of | Euphausiacea | nil	descend	molt	104.91	2681	 	36.69828	-122.05329	1713500	2.2	2005-07-07 16:59:43.423	Ventana	34.065	00:30:52:20	9.015	V2681-01
part-of | Euphausiacea | nil	descend	molt	107.82	2681	 	36.69828	-122.05329	1713501	2.21	2005-07-07 17:00:45.577	Ventana	34.063	00:31:53:23	8.997	V2681-01
part-of | Euphausiacea | nil	descend	molt	109.59	2681	 	36.69828	-122.05329	1713502	2.21	2005-07-07 17:00:49.917	Ventana	34.063	00:31:58:03	8.997	V2681-01
part-of | Euphausiacea | nil	descend	molt	116.58	2681	 	36.69828	-122.05329	1713503	2.22	2005-07-07 17:01:03.1	Ventana	34.054	00:32:11:08	8.877	V2681-01
part-of | Euphausiacea | nil	descend	molt	116.58	2681	 	36.69828	-122.05329	1713504	2.22	2005-07-07 17:01:03.9	Ventana	34.054	00:32:12:02	8.877	V2681-01
part-of | Euphausiacea | nil	descend	molt	120.4	2681	 	36.69828	-122.05329	1713505	2.31	2005-07-07 17:01:10.2	Ventana	34.067	00:32:18:11	8.776	V2681-01
part-of | Euphausiacea | nil	descend	molt	120.4	2681	 	36.69828	-122.05329	1713506	2.31	2005-07-07 17:01:11.6	Ventana	34.067	00:32:19:23	8.776	V2681-01
part-of | Euphausiacea | nil	descend	molt	121.44	2681	 	36.69828	-122.05329	1713507	2.31	2005-07-07 17:01:12.233	Ventana	34.067	00:32:20:12	8.776	V2681-01
part-of | Euphausiacea | nil, population-quantity | self | 999	descend	molt	130.98	2681	 	36.69828	-122.05329	1713509	2.29	2005-07-07 17:01:30.4	Ventana	34.073	00:32:39:01	8.697	V2681-01
part-of | Euphausiacea | nil, population-quantity | self | 999	descend	molt	135.95	2681	 	36.69828	-122.05329	1713510	2.3	2005-07-07 17:01:40.067	Ventana	34.086	00:32:48:21	8.625	V2681-01
part-of | Euphausiacea | nil, population-quantity | self | 999	descend	molt	139.15	2681	 	36.69828	-122.05329	1713511	2.3	2005-07-07 17:01:47.49	Ventana	34.086	00:32:56:03	8.625	V2681-01
part-of | Euphausiacea | nil, population-quantity | self | 999	descend	molt	144.79	2681	 	36.69828	-122.05329	1713512	2.25	2005-07-07 17:01:59.133	Ventana	34.105	00:33:07:22	8.649	V2681-01
part-of | Euphausiacea | nil, population-quantity | self | 999	descend	molt	147.95	2681	 	36.69828	-122.05329	1713513	2.25	2005-07-07 17:02:04.3	Ventana	34.105	00:33:12:27	8.649	V2681-01
part-of | Euphausiacea | nil, population-quantity | self | 999	descend	molt	147.95	2681	 	36.69828	-122.05329	1713514	2.25	2005-07-07 17:02:05.9	Ventana	34.105	00:33:14:15	8.649	V2681-01
part-of | Euphausiacea | nil, population-quantity | self | 999	descend	molt	150.08	2681	 	36.69828	-122.05329	1713515	2.15	2005-07-07 17:02:08.6	Ventana	34.121	00:33:17:06	8.631	V2681-01
part-of | Euphausiacea | nil, population-quantity | self | 999	descend	molt	151.15	2681	 	36.69828	-122.05329	1713516	2.15	2005-07-07 17:02:11.267	Ventana	34.121	00:33:19:26	8.631	V2681-01
part-of | Euphausiacea | nil, population-quantity | self | 999	descend	molt	152.2	2681	 	36.69828	-122.05329	1713517	2.15	2005-07-07 17:02:13.677	Ventana	34.121	00:33:22:08	8.631	V2681-01
part-of | Euphausiacea | nil, population-quantity | self | 999	descend	molt	154.33	2681	 	36.69828	-122.05329	1713518	2.15	2005-07-07 17:02:17.267	Ventana	34.121	00:33:25:26	8.631	V2681-01
part-of | Euphausiacea | nil, population-quantity | self | 999	descend	molt	157.12	2681	 	36.69828	-122.05329	1713519	2.03	2005-07-07 17:02:23.297	Ventana	34.139	00:33:31:26	8.649	V2681-01
part-of | Euphausiacea | nil, population-quantity | self | 999	descend	molt	161.34	2681	 	36.69828	-122.05329	1713521	2.03	2005-07-07 17:02:30.333	Ventana	34.139	00:33:38:27	8.649	V2681-01
part-of | Euphausiacea | nil, population-quantity | self | 999	descend	molt	165.59	2681	 	36.69828	-122.05329	1713525	1.95	2005-07-07 17:02:38.433	Ventana	34.144	00:33:47:00	8.578	V2681-01
population-quantity | self | 999	descend	Euphausiacea	167.73	2681	 	36.69828	-122.05329	1713527	1.95	2005-07-07 17:02:43.933	Ventana	34.144	00:33:52:15	8.578	V2681-01
population-quantity | self | 999	descend	Euphausiacea	170.88	2681	 	36.69828	-122.05329	1713529	1.95	2005-07-07 17:02:49.487	Ventana	34.144	00:33:58:13	8.578	V2681-01
population-quantity | self | 999	descend	Euphausiacea	172.63	2681	 	36.69828	-122.05329	1713530	1.95	2005-07-07 17:02:53.59	Ventana	34.148	00:34:02:19	8.541	V2681-01
population-quantity | self | 999	descend	Euphausiacea	175.8	2681	 	36.69828	-122.05329	1713531	1.95	2005-07-07 17:02:58.083	Ventana	34.148	00:34:07:04	8.541	V2681-01
population-quantity | self | 999	descend	Nanomia	177.91	2681	 	36.69828	-122.05329	1713534	1.95	2005-07-07 17:03:02.147	Ventana	34.148	00:34:11:06	8.541	V2681-01
population-quantity | self | 999	descend	Euphausiacea	180.03	2681	 	36.69828	-122.05329	1713535	1.95	2005-07-07 17:03:06.567	Ventana	34.148	00:34:15:18	8.541	V2681-01
population-quantity | self | 999	descend	Euphausiacea	182.17	2681	 	36.69828	-122.05329	1713537	1.92	2005-07-07 17:03:11.1	Ventana	34.142	00:34:20:04	8.464	V2681-01
population-quantity | self | 999	descend	Nanomia	200.86	2681	 	36.69828	-122.05329	1713553	1.76	2005-07-07 17:04:05.433	Ventana	34.196	00:35:13:12	8.356	V2681-01
population-quantity | self | 999	descend	Euphausiacea	200.41	2681	 	36.69828	-122.05329	1713554	1.69	2005-07-07 17:04:09.1	Ventana	34.194	00:35:17:02	8.359	V2681-01
population-quantity | self | 999	descend	Euphausiacea	200.83	2681	 	36.698437	-122.053505	1713557	1.66	2005-07-07 17:14:22.867	Ventana	34.203	00:45:30:06	8.344	V2681-01
population-quantity | self | 999	descend	Euphausiacea	203.44	2681	 	36.69845	-122.05351	1713560	1.66	2005-07-07 17:14:31.933	Ventana	34.203	00:45:39:15	8.344	V2681-01
identity-certainty | self | maybe	descend	Mitrocoma	206.14	2681	 	36.69846	-122.05351	1713562	1.66	2005-07-07 17:14:37.687	Ventana	34.203	00:45:45:15	8.344	V2681-01
population-quantity | self | 999	descend	Euphausiacea	209.03	2681	 	36.698463	-122.05351	1713566	1.59	2005-07-07 17:14:42.357	Ventana	34.206	00:45:50:05	8.31	V2681-01
population-quantity | self | 999	descend	Euphausiacea	212.42	2681	 	36.69847	-122.05351	1713568	1.59	2005-07-07 17:14:50.0	Ventana	34.206	00:45:57:24	8.31	V2681-01
population-quantity | self | 999	descend	Euphausiacea	215.1	2681	 	36.69848	-122.05351	1713571	1.53	2005-07-07 17:14:56.533	Ventana	34.213	00:46:04:10	8.259	V2681-01
identity-certainty | self | maybe	descend	Mitrocoma	216.07	2681	 	36.69848	-122.05351	1713572	1.53	2005-07-07 17:14:58.1	Ventana	34.213	00:46:05:27	8.259	V2681-01
population-quantity | self | 999	descend	Euphausiacea	216.74	2681	 	36.698483	-122.05351	1713573	1.53	2005-07-07 17:15:01.0	Ventana	34.213	00:46:08:24	8.259	V2681-01
population-quantity | self | 999	descend	Euphausiacea	224.12	2681	 	36.69851	-122.05351	1713579	1.5	2005-07-07 17:15:14.333	Ventana	34.216	00:46:22:04	8.215	V2681-01
population-quantity | self | 999	descend	Euphausiacea	225.56	2681	 	36.69852	-122.05351	1713582	1.5	2005-07-07 17:15:19.0	Ventana	34.216	00:46:26:23	8.215	V2681-01
population-quantity | self | 999	descend	Euphausiacea	229.84	2681	 	36.698532	-122.05352	1713588	1.48	2005-07-07 17:15:26.1	Ventana	34.218	00:46:33:26	8.167	V2681-01
population-quantity | self | 999	descend	Euphausiacea	233.05	2681	 	36.698544	-122.05352	1713590	1.48	2005-07-07 17:15:33.6	Ventana	34.218	00:46:41:11	8.167	V2681-01
population-quantity | self | 999	descend	Euphausiacea	239.36	2681	 	36.69856	-122.053535	1713594	1.46	2005-07-07 17:15:45.267	Ventana	34.224	00:46:53:00	8.117	V2681-01
identity-certainty | self | maybe	descend	Lobata	250.5	2681	 	36.698574	-122.053566	1713599	1.47	2005-07-07 17:16:06.767	Ventana	34.213	00:47:15:00	8.026	V2681-01
population-quantity | self | 999	descend	Euphausiacea	278.45	2681	 	36.69857	-122.05367	1713614	1.37	2005-07-07 17:17:05.367	Ventana	34.222	00:48:13:16	7.694	V2681-01
identity-certainty | self | maybe	descend	Leuroglossus stilbius	280.47	2681	 	36.69857	-122.05368	1713615	1.34	2005-07-07 17:17:09.7	Ventana	34.223	00:48:17:26	7.637	V2681-01
identity-certainty | self | maybe	descend	Kiyohimea	294.1	2681	 	36.698547	-122.05369	1713641	1.26	2005-07-07 17:18:52.033	Ventana	34.231	00:49:59:18	7.491	V2681-01
population-quantity | self | 999	descend	Euphausiacea	295.97	2681	 	36.69854	-122.05368	1713643	1.26	2005-07-07 17:18:55.39	Ventana	34.228	00:50:02:28	7.464	V2681-01
shape-arrangement | self | chain	descend	Salpida	300.98	2681	 	36.69849	-122.05361	1713647	1.25	2005-07-07 17:19:22.027	Ventana	34.23	00:50:29:17	7.445	V2681-01
identity-certainty | self | maybe	descend	Calycophorae	300.41	2681	 	36.698483	-122.053604	1713648	1.24	2005-07-07 17:19:26.917	Ventana	34.234	00:50:34:28	7.429	V2681-01
population-quantity | self | 999	descend	Euphausiacea	300.34	2681	 	36.695717	-122.05134	1713651	1.24	2005-07-07 17:29:45.88	Ventana	34.233	01:00:53:08	7.414	V2681-01
part-of | Euphausiacea | nil	descend	molt	369.42	2681	 	36.695564	-122.05123	1715061	0.97	2005-07-07 17:32:15.2	Ventana	34.261	01:02:38:26	7.011	V2681-02
life-stage | self | juvenile	descend	Gonatus	371.45	2681	 	36.69556	-122.05123	1715064	0.97	2005-07-07 17:32:20.067	Ventana	34.261	01:02:43:21	7.011	V2681-02
population-quantity | self | 999	descend	Appendicularia	395.22	2681	 	36.695553	-122.05119	1715102	0.82	2005-07-07 17:33:10.867	Ventana	34.275	01:03:34:29	6.694	V2681-02
population-quantity | self | 999	descend	Appendicularia	400.32	2681	 	36.695553	-122.05119	1715106	0.82	2005-07-07 17:33:20.1	Ventana	34.275	01:03:44:06	6.694	V2681-02
population-quantity | self | 999	descend	Appendicularia	402.87	2681	 	36.698013	-122.05374	1715299	0.79	2005-07-07 17:50:38.253	Ventana	34.275	01:21:01:08	6.638	V2681-02
population-quantity | self | 999	descend	Appendicularia	405.42	2681	 	36.69803	-122.053764	1715306	0.79	2005-07-07 17:50:46.133	Ventana	34.275	01:21:08:04	6.638	V2681-02
population-quantity | self | 999	descend	Appendicularia	410.57	2681	 	36.69805	-122.05379	1715310	0.75	2005-07-07 17:50:58.733	Ventana	34.285	01:21:20:22	6.574	V2681-02
population-quantity | self | 999	descend	Appendicularia	416.84	2681	 	36.698063	-122.0538	1715312	0.7	2005-07-07 17:51:09.033	Ventana	34.292	01:21:31:16	6.511	V2681-02
population-quantity | self | 999	descend	Appendicularia	419.0	2681	 	36.698067	-122.0538	1715314	0.7	2005-07-07 17:51:14.433	Ventana	34.292	01:21:36:27	6.511	V2681-02
population-quantity | self | 999	descend	Appendicularia	476.82	2681	 	36.69811	-122.053894	1715347	0.49	2005-07-07 17:53:02.067	Ventana	34.334	01:23:24:28	6.107	V2681-02
population-quantity | self | 999	descend	Appendicularia	480.11	2681	 	36.698112	-122.053894	1715348	0.48	2005-07-07 17:53:07.433	Ventana	34.338	01:23:30:09	6.089	V2681-02
population-quantity | self | 999	descend	Appendicularia	482.29	2681	 	36.698112	-122.053894	1715350	0.48	2005-07-07 17:53:12.88	Ventana	34.338	01:23:35:22	6.089	V2681-02
identity-certainty | self | maybe	descend	Idiacanthus	493.93	2681	 	36.698116	-122.053894	1715466	0.47	2005-07-07 17:53:33.1	Ventana	34.34	01:23:55:28	6.061	V2681-02
population-quantity | self | 999	descend	Appendicularia	495.03	2681	 	36.698116	-122.053894	1715467	0.47	2005-07-07 17:53:36.533	Ventana	34.34	01:23:59:11	6.061	V2681-02
population-quantity | self | 999	descend	Appendicularia	499.4	2681	 	36.698112	-122.05389	1715468	0.45	2005-07-07 17:53:44.95	Ventana	34.344	01:24:07:23	6.04	V2681-02
population-quantity | self | 999	descend	Appendicularia	502.13	2681	 	36.69809	-122.053856	1715471	0.45	2005-07-07 17:54:05.067	Ventana	34.343	01:24:27:11	6.03	V2681-02
population-quantity | self | 999	descend	Appendicularia	500.65	2681	 	36.698044	-122.0538	1715474	0.44	2005-07-07 17:54:27.567	Ventana	34.345	01:24:49:25	6.025	V2681-02
population-quantity | self | 999	descend	Appendicularia	501.69	2681	 	36.69576	-122.05118	1715511	0.43	2005-07-07 18:04:39.1	Ventana	34.347	01:35:00:23	6.007	V2681-02
population-quantity | self | 999	descend	Copepoda	503.24	2681	 	36.695747	-122.05116	1715513	0.43	2005-07-07 18:04:43.367	Ventana	34.347	01:35:05:01	6.007	V2681-02
population-quantity | self | 999	descend	Appendicularia	507.94	2681	 	36.695724	-122.05113	1715523	0.43	2005-07-07 18:04:53.267	Ventana	34.348	01:35:14:27	5.992	V2681-02
population-quantity | self | 999	descend	Appendicularia	512.79	2681	 	36.695705	-122.05111	1715537	0.43	2005-07-07 18:05:04.967	Ventana	34.348	01:35:26:18	5.992	V2681-02
population-quantity | self | 999	descend	Appendicularia	517.13	2681	 	36.695694	-122.05109	1715541	0.41	2005-07-07 18:05:11.133	Ventana	34.348	01:35:32:23	5.92	V2681-02
population-quantity | self | 999	descend	Appendicularia	524.48	2681	 	36.695683	-122.05107	1715598	0.4	2005-07-07 18:05:26.78	Ventana	34.355	01:35:48:12	5.863	V2681-02
population-quantity | self | 999	descend	Appendicularia	530.77	2681	 	36.69568	-122.05106	1715602	0.39	2005-07-07 18:05:38.9	Ventana	34.356	01:36:01:00	5.823	V2681-02
population-quantity | self | 999	descend	Appendicularia	573.95	2681	 	36.695705	-122.05105	1715623	0.35	2005-07-07 18:06:58.623	Ventana	34.372	01:37:20:19	5.611	V2681-02
identity-reference | self | 1	descend	Apolemia	600.81	2681	 	36.695683	-122.05109	1715640	0.31	2005-07-07 18:07:49.167	Ventana	34.38	01:38:10:19	5.52	V2681-02
identity-reference | self | 1	descend	Apolemia	602.45	2681	http://search.mbari.org/ARCHIVE/frameGrabs/Ventana/images/2681/01_41_03_26.jpg	36.695633	-122.05113	1715689	0.3	2005-07-07 18:10:43.067	Ventana	34.388	01:41:03:26	5.472	V2681-02
population-quantity | self | 999	descend	Appendicularia	671.54	2681	 	36.697926	-122.05385	1715956	0.28	2005-07-07 18:31:01.767	Ventana	34.411	02:01:21:24	5.157	V2681-02
identity-certainty | self | maybe	descend	Phialidium	689.21	2681	 	36.697926	-122.05382	1715962	0.27	2005-07-07 18:31:36.067	Ventana	34.415	02:01:56:02	5.107	V2681-02
identity-certainty | self | maybe	descend	Phialidium	713.69	2681	 	36.69497	-122.05064	1716218	0.28	2005-07-07 18:49:08.66	Ventana	34.436	02:18:52:12	4.892	V2681-03
surface-color | self | orange	descend	Chaetognatha	800.74	2681	 	36.69494	-122.0506	1716342	0.32	2005-07-07 18:52:32.933	Ventana	34.473	02:22:16:14	4.496	V2681-03
identity-certainty | self | maybe	descend	Leuroglossus stilbius	947.03	2681	 	36.69466	-122.050385	1716524	0.43	2005-07-07 19:18:24.0	Ventana	34.518	02:48:05:12	4.01	V2681-03
identity-certainty | self | maybe	cruise	Pantachogon	1000.9	2681	 	36.69663	-122.053024	1716551	0.47	2005-07-07 19:31:10.9	Ventana	34.533	03:00:51:16	3.884	V2681-03
surface-color | self | orange	ascend	Chaetognatha	1000.18	2681	 	36.696712	-122.053085	1716554	0.47	2005-07-07 19:32:20.767	Ventana	34.531	03:02:01:25	3.904	V2681-03
identity-certainty | self | maybe	ascend	Lobata	956.08	2681	 	36.697308	-122.05373	1716850	0.42	2005-07-07 19:40:07.8	Ventana	34.517	03:09:11:18	4.048	V2681-04
identity-certainty | self | maybe	ascend	Arctapodema	893.81	2681	 	36.69808	-122.05495	1717312	0.37	2005-07-07 19:49:45.167	Ventana	34.505	03:18:48:11	4.214	V2681-04
free-swimming | nil | nil	ascend	Appendicularia	862.05	2681	 	36.698486	-122.05558	1717362	0.34	2005-07-07 19:53:43.593	Ventana	34.497	03:22:46:16	4.32	V2681-04
free-swimming | nil | nil	ascend	Appendicularia	854.81	2681	 	36.698544	-122.05572	1717371	0.34	2005-07-07 19:54:37.567	Ventana	34.493	03:23:39:29	4.348	V2681-04
identity-certainty | self | maybe	ascend	Calycophorae	837.0	2681	 	36.698692	-122.056076	1717396	0.31	2005-07-07 19:56:48.433	Ventana	34.483	03:25:51:06	4.422	V2681-04
identity-certainty | self | maybe	ascend	Haliscera bigelowi	827.67	2681	 	36.69881	-122.05632	1717411	0.31	2005-07-07 19:58:04.747	Ventana	34.482	03:27:06:28	4.437	V2681-04
identity-certainty | self | maybe	ascend	Leuroglossus stilbius	796.56	2681	 	36.699123	-122.0566	1717425	0.33	2005-07-07 20:01:13.5	Ventana	34.466	03:30:15:15	4.605	V2681-04
population-quantity | self | 999	ascend	Copepoda	733.1	2681	 	36.698715	-122.05543	1717557	0.26	2005-07-07 20:17:02.2	Ventana	34.441	03:46:03:21	4.863	V2681-04
population-quantity | self | 999	ascend	Copepoda	699.89	2681	 	36.698734	-122.05486	1717595	0.27	2005-07-07 20:20:51.27	Ventana	34.42	03:49:52:02	5.091	V2681-04
identity-certainty | self | maybe	ascend	Melanostigma	676.13	2681	 	36.698757	-122.05446	1717631	0.27	2005-07-07 20:23:03.9	Ventana	34.413	03:52:05:01	5.169	V2681-04
identity-reference | self | 2	ascend	Colobonema	417.63	2681	http://search.mbari.org/ARCHIVE/frameGrabs/Ventana/images/2681/04_07_50_05.jpg	36.699116	-122.05421	20004493	0.78	2005-07-07 20:38:50.0	Ventana	34.276	04:07:50:05	6.648	V2681-04
identity-reference | self | 2	ascend	Colobonema	417.84	2681	http://search.mbari.org/ARCHIVE/frameGrabs/Ventana/images/2681/04_08_39_04.jpg	36.69916	-122.05419	20004494	0.78	2005-07-07 20:39:39.017	Ventana	34.283	04:08:39:04	6.647	V2681-04
identity-reference | self | 2	ascend	Colobonema	418.21	2681	http://search.mbari.org/ARCHIVE/frameGrabs/Ventana/images/2681/04_09_15_17.jpg	36.699173	-122.054184	20004495	0.78	2005-07-07 20:40:16.0	Ventana	34.278	04:09:15:17	6.656	V2681-04
identity-certainty | self | maybe	ascend	Leuroglossus stilbius	564.67	2681	 	36.69894	-122.05426	1717716	0.38	2005-07-07 20:31:35.77	Ventana	34.364	04:00:36:12	5.836	V2681-04
identity-reference | self | 2	ascend	Colobonema	419.7	2681	http://search.mbari.org/ARCHIVE/frameGrabs/Ventana/images/2681/04_10_29_06.jpg	36.699177	-122.0542	1717796	0.78	2005-07-07 20:41:29.2	Ventana	34.28	04:10:29:06	6.638	V2681-04
identity-reference | self | 2	ascend	Colobonema	421.83	2681	http://search.mbari.org/ARCHIVE/frameGrabs/Ventana/images/2681/04_11_33_24.jpg	36.69921	-122.05421	1717939	0.78	2005-07-07 20:42:56.767	Ventana	34.278	04:11:33:24	6.644	V2681-05
shape-arrangement | self | chain	ascend	Vitreosalpa gemini	422.14	2681	 	36.699203	-122.05423	1717946	0.78	2005-07-07 20:44:47.967	Ventana	34.278	04:13:24:27	6.637	V2681-05
identity-certainty | self | maybe	ascend	Leuroglossus stilbius	384.58	2681	 	36.69934	-122.05462	1718005	0.93	2005-07-07 20:49:15.473	Ventana	34.267	04:17:36:18	6.96	V2681-05
part-of | Euphausiacea | nil	ascend	molt	317.38	2681	 	36.699677	-122.05527	1718156	1.24	2005-07-07 20:57:34.7	Ventana	34.235	04:25:54:24	7.434	V2681-05
part-of | Euphausiacea | nil	ascend	molt	314.77	2681	 	36.699665	-122.05527	1718161	1.25	2005-07-07 20:57:52.32	Ventana	34.232	04:26:12:14	7.457	V2681-05
part-of | Euphausiacea | nil	ascend	molt	295.16	2681	 	36.699726	-122.05523	1718197	1.33	2005-07-07 20:59:48.643	Ventana	34.226	04:28:09:18	7.66	V2681-05
part-of | Euphausiacea | nil	ascend	molt	294.04	2681	 	36.69973	-122.05523	1718199	1.34	2005-07-07 20:59:54.71	Ventana	34.234	04:28:15:20	7.697	V2681-05
population-quantity | self | 999	ascend	Copepoda	293.26	2681	 	36.699734	-122.05523	1718200	1.34	2005-07-07 20:59:57.867	Ventana	34.234	04:28:18:24	7.697	V2681-05
part-of | Euphausiacea | nil	ascend	molt	292.63	2681	 	36.699734	-122.05522	1718201	1.34	2005-07-07 21:00:01.05	Ventana	34.234	04:28:22:00	7.697	V2681-05
part-of | Euphausiacea | nil	ascend	molt	291.66	2681	 	36.699738	-122.05522	1718204	1.34	2005-07-07 21:00:07.867	Ventana	34.234	04:28:27:24	7.697	V2681-05
part-of | Euphausiacea | nil	ascend	molt	289.17	2681	 	36.69974	-122.05521	1718209	1.36	2005-07-07 21:00:20.6	Ventana	34.23	04:28:40:16	7.721	V2681-05
part-of | Euphausiacea | nil	ascend	molt	285.07	2681	 	36.699745	-122.05518	1718234	1.36	2005-07-07 21:00:44.2	Ventana	34.232	04:29:04:03	7.731	V2681-05
part-of | Euphausiacea | nil	ascend	molt	285.07	2681	 	36.699745	-122.05518	1718237	1.36	2005-07-07 21:00:44.333	Ventana	34.232	04:29:04:07	7.731	V2681-05
part-of | Euphausiacea | nil	ascend	molt	283.88	2681	 	36.69975	-122.055176	1718247	1.36	2005-07-07 21:00:52.533	Ventana	34.231	04:29:12:13	7.734	V2681-05
identity-reference | self | 4	ascend	Nanomia	282.17	2681	http://search.mbari.org/ARCHIVE/frameGrabs/Ventana/images/2681/04_30_04_23.jpg	36.699745	-122.055115	1718274	1.36	2005-07-07 21:01:44.433	Ventana	34.232	04:30:04:23	7.739	V2681-05
sample-reference | self | d-1, sampled-by | Detritus Sampler | nil, identity-reference | self | 4	ascend	Nanomia	282.51	2681	 	36.699745	-122.0551	20004496	1.36	2005-07-07 21:02:01.523	Ventana	34.231	04:30:21:25	7.738	V2681-05
part-of | Euphausiacea | nil	ascend	molt	282.94	2681	 	36.699745	-122.05509	1718284	1.36	2005-07-07 21:02:13.533	Ventana	34.233	04:30:33:25	7.738	V2681-05
part-of | Euphausiacea | nil	ascend	molt	282.98	2681	 	36.69974	-122.055084	1718288	1.36	2005-07-07 21:02:23.5	Ventana	34.23	04:30:43:24	7.739	V2681-05
part-of | Euphausiacea | nil, population-quantity | self | 999	ascend	molt	277.29	2681	 	36.699722	-122.054985	1718311	1.37	2005-07-07 21:03:27.65	Ventana	34.231	04:31:47:15	7.81	V2681-05
part-of | Euphausiacea | nil, population-quantity | self | 999	ascend	molt	274.97	2681	 	36.69972	-122.054955	1718314	1.38	2005-07-07 21:03:44.867	Ventana	34.229	04:32:04:18	7.81	V2681-05
part-of | Euphausiacea | nil, population-quantity | self | 999	ascend	molt	273.3	2681	 	36.69972	-122.05493	1718317	1.4	2005-07-07 21:03:53.627	Ventana	34.229	04:32:13:10	7.82	V2681-05
part-of | Euphausiacea | nil, population-quantity | self | 999	ascend	molt	270.68	2681	 	36.699715	-122.0549	1718322	1.4	2005-07-07 21:04:07.2	Ventana	34.227	04:32:26:27	7.846	V2681-05
identity-reference | self | 5	ascend	Nanomia	272.49	2681	http://search.mbari.org/ARCHIVE/frameGrabs/Ventana/images/2681/04_34_03_21.jpg	36.699642	-122.0547	1718341	1.4	2005-07-07 21:05:43.627	Ventana	34.226	04:34:03:21	7.835	V2681-05
sample-reference | self | d-3, sampled-by | Detritus Sampler | nil, identity-reference | self | 5	ascend	Nanomia	268.98	2681	http://search.mbari.org/ARCHIVE/frameGrabs/Ventana/images/2681/04_35_37_15.jpg	36.699512	-122.054474	20004497	1.41	2005-07-07 21:07:18.017	Ventana	34.227	04:35:37:15	7.854	V2681-05
part-of | Euphausiacea | nil, population-quantity | self | 999	ascend	molt	272.7	2681	 	36.69959	-122.05463	1718353	1.4	2005-07-07 21:06:09.567	Ventana	34.23	04:34:29:19	7.83	V2681-05
part-of | Euphausiacea | nil, population-quantity | self | 999	ascend	molt	264.19	2681	 	36.699524	-122.0545	1718423	1.41	2005-07-07 21:08:44.3	Ventana	34.23	04:37:04:06	7.91	V2681-05
population-quantity | self | 999	ascend	Euphausiacea	264.19	2681	 	36.699524	-122.0545	1718424	1.41	2005-07-07 21:08:45.267	Ventana	34.23	04:37:05:05	7.91	V2681-05
part-of | Euphausiacea | nil	ascend	molt	262.7	2681	 	36.69945	-122.054565	1718482	1.41	2005-07-07 21:10:11.457	Ventana	34.231	04:38:30:23	7.925	V2681-05
part-of | Euphausiacea | nil	ascend	molt	262.22	2681	 	36.69945	-122.054565	1718491	1.41	2005-07-07 21:10:15.6	Ventana	34.231	04:38:34:27	7.925	V2681-05
identity-reference | self | 1	ascend	Bathochordaeus sinker	261.55	2681	http://search.mbari.org/ARCHIVE/frameGrabs/Ventana/images/2681/04_39_11_01.jpg	36.699436	-122.05457	1718503	1.41	2005-07-07 21:10:51.767	Ventana	34.23	04:39:11:01	7.934	V2681-05
part-of | Euphausiacea | nil	ascend	molt	261.78	2681	 	36.699432	-122.054565	1718559	1.42	2005-07-07 21:12:18.933	Ventana	34.232	04:40:38:19	7.94	V2681-05
identity-reference | self | 6	ascend	Nanomia	259.66	2681	 	36.699375	-122.054436	1718616	1.43	2005-07-07 21:13:41.4	Ventana	34.23	04:42:00:15	7.966	V2681-05
sample-reference | self | d-4, identity-reference | self | 6, sampled-by | Detritus Sampler | nil	ascend	Nanomia	260.05	2681	 	36.699226	-122.05434	20004503	1.43	2005-07-07 21:14:52.0	Ventana	34.23	04:43:11:16	7.972	V2681-05
population-quantity | self | 999	ascend	Euphausiacea	259.84	2681	 	36.699234	-122.05432	1718653	1.43	2005-07-07 21:14:47.433	Ventana	34.23	04:43:06:29	7.97	V2681-05
part-of | Euphausiacea | nil	ascend	molt	265.55	2681	 	36.698902	-122.05668	1718780	1.41	2005-07-07 21:18:34.983	Ventana	34.231	04:46:54:08	7.918	V2681-05
population-quantity | self | 999	ascend	Copepoda	263.17	2681	 	36.69889	-122.05678	1718843	1.42	2005-07-07 21:18:54.133	Ventana	34.232	04:47:13:12	7.941	V2681-05
identity-certainty | self | maybe	ascend	Eutonina	263.17	2681	 	36.69889	-122.05678	1718878	1.42	2005-07-07 21:18:53.0	Ventana	34.232	04:47:12:08	7.941	V2681-05
population-quantity | self | 999	ascend	Euphausiacea	260.94	2681	 	36.69887	-122.05691	1718916	1.42	2005-07-07 21:19:30.667	Ventana	34.232	04:47:49:27	7.955	V2681-05
population-quantity | self | 999	ascend	Euphausiacea	260.82	2681	 	36.698864	-122.05696	1718931	1.42	2005-07-07 21:19:52.933	Ventana	34.232	04:48:12:19	7.957	V2681-05
population-quantity | self | 999	ascend	Euphausiacea	260.76	2681	 	36.69886	-122.05698	1718940	1.42	2005-07-07 21:20:01.133	Ventana	34.23	04:48:20:25	7.957	V2681-05
population-quantity | self | 999	ascend	Euphausiacea	260.94	2681	 	36.698856	-122.056984	1718957	1.42	2005-07-07 21:20:10.267	Ventana	34.231	04:48:28:29	7.953	V2681-05
population-quantity | self | 999	ascend	Euphausiacea	261.12	2681	 	36.698853	-122.057	1718981	1.42	2005-07-07 21:20:24.4	Ventana	34.231	04:48:43:02	7.955	V2681-05
life-stage | self | juvenile	ascend	Gonatus	259.75	2681	 	36.69879	-122.056915	1719062	1.42	2005-07-07 21:22:00.967	Ventana	34.23	04:50:20:01	7.96	V2681-05
part-of | Euphausiacea | nil	ascend	molt	259.55	2681	 	36.698788	-122.0569	1719070	1.42	2005-07-07 21:22:05.633	Ventana	34.23	04:50:24:21	7.96	V2681-05
population-quantity | self | 999	ascend	Euphausiacea	256.22	2681	 	36.69866	-122.05661	1719122	1.44	2005-07-07 21:23:15.27	Ventana	34.231	04:51:34:24	7.974	V2681-05
part-of | Euphausiacea | nil	ascend	molt	255.38	2681	 	36.6986	-122.056465	1719138	1.46	2005-07-07 21:23:37.9	Ventana	34.226	04:51:56:12	7.999	V2681-05
population-quantity | self | 999	ascend	Euphausiacea	254.45	2681	 	36.69848	-122.05618	1719168	1.46	2005-07-07 21:24:14.813	Ventana	34.222	04:52:33:08	7.999	V2681-05
part-of | Euphausiacea | nil	ascend	molt	255.03	2681	 	36.69809	-122.05527	1719219	1.46	2005-07-07 21:25:39.213	Ventana	34.223	04:53:58:03	7.993	V2681-05
part-of | Euphausiacea | nil	ascend	molt	255.21	2681	 	36.69805	-122.055176	1719227	1.46	2005-07-07 21:25:47.803	Ventana	34.223	04:54:06:21	7.993	V2681-05
identity-reference | self | 7	ascend	Bathochordaeus	255.48	2681	 	36.697956	-122.05499	1719249	1.46	2005-07-07 21:26:43.627	Ventana	34.223	04:55:02:28	7.988	V2681-05
identity-reference | self | 7, sampled-by | Detritus Sampler | nil, sample-reference | self | d-6	ascend	Bathochordaeus	258.28	2681	 	36.697853	-122.055214	20004504	1.46	2005-07-07 21:29:48.5	Ventana	34.223	04:58:07:19	7.993	V2681-05
identity-certainty | self | maybe	ascend	Salpida	258.17	2681	 	36.697838	-122.05522	1719291	 	2005-07-07 21:29:59.0	Ventana	 	04:59:27:06	 	V2681-05
identity-certainty | self | maybe	ascend	Cydippida	258.17	2681	 	36.697838	-122.05522	1719364	 	2005-07-07 21:29:59.0	Ventana	 	05:02:37:01	 	V2681-05
population-quantity | self | 999	ascend	Euphausiacea	258.17	2681	 	36.697838	-122.05522	1719416	 	2005-07-07 21:29:59.0	Ventana	 	05:04:12:18	 	V2681-05
identity-certainty | self | maybe	ascend	Cydippida	258.17	2681	 	36.697838	-122.05522	1719429	 	2005-07-07 21:29:59.0	Ventana	 	05:04:32:21	 	V2681-05
identity-certainty | self | maybe	ascend	Agalma	258.17	2681	 	36.697838	-122.05522	1719437	 	2005-07-07 21:29:59.0	Ventana	 	05:04:46:29	 	V2681-05
part-of | Euphausiacea | nil, population-quantity | self | 999	ascend	molt	258.17	2681	 	36.697838	-122.05522	1719439	 	2005-07-07 21:29:59.0	Ventana	 	05:04:57:12	 	V2681-05
population-quantity | self | 999	ascend	Euphausiacea	258.17	2681	 	36.697838	-122.05522	1719442	 	2005-07-07 21:29:59.0	Ventana	 	05:05:01:16	 	V2681-05
part-of | Euphausiacea | nil, population-quantity | self | 999	ascend	molt	258.17	2681	 	36.697838	-122.05522	1719449	 	2005-07-07 21:29:59.0	Ventana	 	05:05:24:04	 	V2681-05
population-quantity | self | 999	ascend	Euphausiacea	258.17	2681	 	36.697838	-122.05522	1719450	 	2005-07-07 21:29:59.0	Ventana	 	05:05:27:15	 	V2681-05
part-of | Euphausiacea | nil, population-quantity | self | 999	ascend	molt	258.17	2681	 	36.697838	-122.05522	1719477	 	2005-07-07 21:29:59.0	Ventana	 	05:06:40:10	 	V2681-05
part-of | Euphausiacea | nil	ascend	molt	258.17	2681	 	36.697838	-122.05522	1719485	 	2005-07-07 21:29:59.0	Ventana	 	05:07:03:11	 	V2681-05
part-of | Euphausiacea | nil	ascend	molt	258.17	2681	 	36.697838	-122.05522	1719492	 	2005-07-07 21:29:59.0	Ventana	 	05:07:56:02	 	V2681-05
part-of | Euphausiacea | nil	ascend	molt	258.17	2681	 	36.697838	-122.05522	1719511	 	2005-07-07 21:29:59.0	Ventana	 	05:09:21:06	 	V2681-05
part-of | Euphausiacea | nil	ascend	molt	258.17	2681	 	36.697838	-122.05522	1719515	 	2005-07-07 21:29:59.0	Ventana	 	05:09:34:05	 	V2681-05
part-of | Euphausiacea | nil	ascend	molt	258.17	2681	 	36.697838	-122.05522	1719548	 	2005-07-07 21:29:59.0	Ventana	 	05:12:42:11	 	V2681-05
part-of | Euphausiacea | nil	ascend	molt	258.17	2681	 	36.697838	-122.05522	1719553	 	2005-07-07 21:29:59.0	Ventana	 	05:13:08:08	 	V2681-05
identity-certainty | self | maybe	ascend	Mitrocoma	258.17	2681	 	36.697838	-122.05522	1719554	 	2005-07-07 21:29:59.0	Ventana	 	05:13:15:22	 	V2681-05
population-quantity | self | 999	ascend	Euphausiacea	258.17	2681	 	36.697838	-122.05522	1719564	 	2005-07-07 21:29:59.0	Ventana	 	05:14:17:01	 	V2681-05
part-of | Euphausiacea | nil	descend	molt	80.55	2682	 	36.699795	-122.06038	1719869	2.56	2005-07-08 16:15:40.0	Ventana	34.001	00:09:44:25	9.255	V2682-01
part-of | Euphausiacea | nil	descend	molt	101.27	2682	 	36.6998	-122.06041	1719870	2.33	2005-07-08 16:16:32.79	Ventana	34.033	00:10:37:19	9.134	V2682-01
part-of | Euphausiacea | nil	descend	molt	116.9	2682	 	36.699806	-122.06046	1719872	2.39	2005-07-08 16:17:07.33	Ventana	34.039	00:11:12:04	8.826	V2682-01
part-of | Euphausiacea | nil	descend	molt	117.83	2682	 	36.699806	-122.06047	1719873	2.37	2005-07-08 16:17:09.96	Ventana	34.055	00:11:14:23	8.753	V2682-01
part-of | Euphausiacea | nil	descend	molt	119.67	2682	 	36.699806	-122.06048	1719874	2.37	2005-07-08 16:17:12.53	Ventana	34.055	00:11:17:10	8.753	V2682-01
part-of | Euphausiacea | nil	descend	molt	119.67	2682	 	36.699806	-122.06048	1719875	2.37	2005-07-08 16:17:13.53	Ventana	34.055	00:11:18:10	8.753	V2682-01
part-of | Euphausiacea | nil	descend	molt	120.59	2682	 	36.699806	-122.060486	1719876	2.37	2005-07-08 16:17:15.3	Ventana	34.055	00:11:20:03	8.753	V2682-01
part-of | Euphausiacea | nil	descend	molt	121.49	2682	 	36.69981	-122.06049	1719877	2.37	2005-07-08 16:17:16.7	Ventana	34.055	00:11:21:15	8.753	V2682-01
part-of | Euphausiacea | nil	descend	molt	122.41	2682	 	36.699814	-122.06052	1719878	2.37	2005-07-08 16:17:18.56	Ventana	34.055	00:11:23:11	8.753	V2682-01
part-of | Euphausiacea | nil	descend	molt	122.72	2682	 	36.699814	-122.06052	1719879	2.37	2005-07-08 16:17:21.86	Ventana	34.055	00:11:26:20	8.753	V2682-01
part-of | Euphausiacea | nil	descend	molt	123.65	2682	 	36.699814	-122.060524	1719880	2.35	2005-07-08 16:17:22.46	Ventana	34.069	00:11:27:08	8.717	V2682-01
part-of | Euphausiacea | nil	descend	molt	123.65	2682	 	36.699814	-122.060524	1719881	2.35	2005-07-08 16:17:23.5	Ventana	34.069	00:11:28:09	8.717	V2682-01
part-of | Euphausiacea | nil	descend	molt	125.38	2682	 	36.699818	-122.06054	1719882	2.35	2005-07-08 16:17:26.23	Ventana	34.069	00:11:31:01	8.717	V2682-01
part-of | Euphausiacea | nil	descend	molt	127.33	2682	 	36.699818	-122.06056	1719883	2.35	2005-07-08 16:17:32.29	Ventana	34.069	00:11:37:03	8.717	V2682-01
part-of | Euphausiacea | nil	descend	molt	131.91	2682	 	36.699825	-122.06062	1719886	2.31	2005-07-08 16:17:46.43	Ventana	34.087	00:11:51:06	8.689	V2682-01
part-of | Euphausiacea | nil	descend	molt	132.71	2682	 	36.69983	-122.06063	1719887	2.31	2005-07-08 16:17:48.54	Ventana	34.087	00:11:53:21	8.689	V2682-01
part-of | Euphausiacea | nil	descend	molt	133.53	2682	 	36.69983	-122.06063	1719888	2.31	2005-07-08 16:17:51.0	Ventana	34.087	00:11:56:08	8.689	V2682-01
part-of | Euphausiacea | nil	descend	molt	134.35	2682	 	36.69983	-122.06064	1719889	2.21	2005-07-08 16:17:52.73	Ventana	34.104	00:11:57:17	8.684	V2682-01
part-of | Euphausiacea | nil	descend	molt	134.35	2682	 	36.69983	-122.06064	1719890	2.21	2005-07-08 16:17:53.37	Ventana	34.104	00:11:58:07	8.684	V2682-01
part-of | Euphausiacea | nil	descend	molt	138.63	2682	 	36.699837	-122.06067	1719893	2.21	2005-07-08 16:18:02.33	Ventana	34.104	00:12:07:18	8.684	V2682-01
part-of | Euphausiacea | nil	descend	molt	140.15	2682	 	36.699837	-122.06068	1719895	2.21	2005-07-08 16:18:06.03	Ventana	34.104	00:12:11:08	8.684	V2682-01
part-of | Euphausiacea | nil	descend	molt	140.15	2682	 	36.699837	-122.06068	1719896	2.21	2005-07-08 16:18:06.9	Ventana	34.104	00:12:12:04	8.684	V2682-01
part-of | Euphausiacea | nil	descend	molt	140.15	2682	 	36.699837	-122.06068	1719897	2.21	2005-07-08 16:18:07.55	Ventana	34.104	00:12:12:24	8.684	V2682-01
part-of | Euphausiacea | nil	descend	molt	144.11	2682	 	36.699844	-122.0607	1719899	2.18	2005-07-08 16:18:18.06	Ventana	34.116	00:12:23:09	8.676	V2682-01
part-of | Euphausiacea | nil, population-quantity | self | 999	descend	molt	144.11	2682	 	36.699844	-122.0607	1719900	2.18	2005-07-08 16:18:19.83	Ventana	34.116	00:12:25:02	8.676	V2682-01
part-of | Euphausiacea | nil, population-quantity | self | 999	descend	molt	149.53	2682	 	36.699856	-122.06073	1719902	2.12	2005-07-08 16:18:34.56	Ventana	34.105	00:12:39:23	8.62	V2682-01
part-of | Euphausiacea | nil, population-quantity | self | 999	descend	molt	153.32	2682	 	36.699863	-122.06074	1719906	2.12	2005-07-08 16:18:46.89	Ventana	34.124	00:12:52:03	8.597	V2682-01
part-of | Euphausiacea | nil, population-quantity | self | 999	descend	molt	157.04	2682	 	36.699867	-122.060745	1719909	2.19	2005-07-08 16:18:56.83	Ventana	34.097	00:13:02:01	8.434	V2682-01
part-of | Euphausiacea | nil, population-quantity | self | 999	descend	molt	160.54	2682	 	36.699875	-122.06075	1719916	2.19	2005-07-08 16:19:06.86	Ventana	34.097	00:13:12:02	8.434	V2682-01
population-quantity | self | 999	descend	Euphausiacea	162.15	2682	 	36.699875	-122.06075	1719920	2.24	2005-07-08 16:19:11.0	Ventana	34.118	00:13:16:06	8.347	V2682-01
part-of | Euphausiacea | nil, population-quantity | self | 999	descend	molt	163.77	2682	 	36.699875	-122.06075	1719921	2.24	2005-07-08 16:19:15.73	Ventana	34.118	00:13:20:27	8.347	V2682-01
population-quantity | self | 999	descend	Euphausiacea	166.61	2682	 	36.69988	-122.06075	1719924	2.24	2005-07-08 16:19:25.0	Ventana	34.122	00:13:30:16	8.307	V2682-01
population-quantity | self | 999	descend	Euphausiacea	169.87	2682	 	36.699883	-122.06075	1719930	2.24	2005-07-08 16:19:36.0	Ventana	34.122	00:13:41:03	8.307	V2682-01
part-of | Euphausiacea | nil, population-quantity | self | 999	descend	molt	171.45	2682	 	36.699883	-122.06075	1719931	2.18	2005-07-08 16:19:40.86	Ventana	34.13	00:13:45:07	8.289	V2682-01
population-quantity | self | 999	descend	Euphausiacea	175.47	2682	 	36.699886	-122.06075	1719936	2.18	2005-07-08 16:19:50.0	Ventana	34.13	00:13:53:27	8.289	V2682-01
population-quantity | self | 999	descend	Euphausiacea	179.1	2682	 	36.69989	-122.060745	1719939	2.1	2005-07-08 16:19:58.0	Ventana	34.151	00:14:02:13	8.296	V2682-01
population-quantity | self | 999	descend	Euphausiacea	180.9	2682	 	36.69989	-122.060745	1719941	2.1	2005-07-08 16:20:02.0	Ventana	34.151	00:14:07:13	8.296	V2682-01
population-quantity | self | 999	descend	Euphausiacea	184.48	2682	 	36.699894	-122.060745	1719944	1.95	2005-07-08 16:20:10.0	Ventana	34.155	00:14:14:02	8.32	V2682-01
population-quantity | self | 999	descend	Euphausiacea	193.35	2682	 	36.699894	-122.06074	1719947	2.0	2005-07-08 16:20:30.0	Ventana	34.137	00:14:33:25	8.133	V2682-01
population-quantity | self | 999	descend	Euphausiacea	196.08	2682	 	36.699894	-122.06074	1719949	2.0	2005-07-08 16:20:36.0	Ventana	34.137	00:14:40:13	8.133	V2682-01
population-quantity | self | 999	descend	Euphausiacea	232.92	2682	 	36.699886	-122.060715	1719975	1.44	2005-07-08 16:22:02.0	Ventana	34.224	00:16:06:17	8.007	V2682-01
population-quantity | self | 999	descend	Euphausiacea	240.25	2682	 	36.69988	-122.06074	1719979	1.43	2005-07-08 16:22:18.0	Ventana	34.221	00:16:22:29	7.984	V2682-01
population-quantity | self | 999	descend	Euphausiacea	249.26	2682	 	36.69988	-122.0608	1719982	1.4	2005-07-08 16:22:57.0	Ventana	34.23	00:17:01:02	7.911	V2682-01
identity-reference | self | 46	descend	Kiyohimea	252.95	2682	 	36.699867	-122.060814	1719990	1.39	2005-07-08 16:23:25.0	Ventana	34.232	00:17:30:09	7.899	V2682-01
identity-reference | self | 46	descend	Kiyohimea	253.86	2682	http://search.mbari.org/ARCHIVE/frameGrabs/Ventana/images/2682/00_19_17_09.jpg	36.699814	-122.06083	20004536	1.38	2005-07-08 16:25:13.0	Ventana	34.234	00:19:17:09	7.885	V2682-01
sampled-by | Suction Sampler | nil, identity-reference | self | 4	descend	Hastigerinella digitata	267.63	2682	http://search.mbari.org/ARCHIVE/frameGrabs/Ventana/images/2682/00_24_09_15.jpg	36.699787	-122.06072	20004544	1.35	2005-07-08 16:30:05.0	Ventana	34.231	00:24:09:15	7.744	V2682-01
identity-reference | self | 4	descend	Hastigerinella digitata	267.03	2682	http://search.mbari.org/ARCHIVE/frameGrabs/Ventana/images/2682/00_22_43_24.jpg	36.699802	-122.060745	1720024	1.34	2005-07-08 16:28:40.0	Ventana	34.231	00:22:43:24	7.741	V2682-01
identity-reference | self | 47	descend	Nanomia	267.87	2682	http://search.mbari.org/ARCHIVE/frameGrabs/Ventana/images/2682/00_23_29_02.jpg	36.6998	-122.06072	20004541	1.35	2005-07-08 16:29:24.0	Ventana	34.229	00:23:29:02	7.748	V2682-01
identity-reference | self | 47	descend	Nanomia	267.61	2682	http://search.mbari.org/ARCHIVE/frameGrabs/Ventana/images/2682/00_23_47_16.jpg	36.699795	-122.06072	20004542	1.35	2005-07-08 16:29:43.0	Ventana	34.228	00:23:47:16	7.75	V2682-01
eating | Euphausiacea | nil, identity-reference | self | 3	descend	Hormiphora	283.34	2682	http://search.mbari.org/ARCHIVE/frameGrabs/Ventana/images/2682/00_28_50_06.jpg	36.69971	-122.06086	20004545	1.32	2005-07-08 16:34:46.0	Ventana	34.227	00:28:50:06	7.638	V2682-01
eating | Euphausiacea | nil, identity-reference | self | 3	descend	Hormiphora	283.41	2682	http://search.mbari.org/ARCHIVE/frameGrabs/Ventana/images/2682/00_28_57_06.jpg	36.699707	-122.06086	20004546	1.32	2005-07-08 16:34:54.0	Ventana	34.229	00:28:57:06	7.627	V2682-01
eating | Euphausiacea | nil, identity-reference | self | 3	descend	Hormiphora	283.5	2682	http://search.mbari.org/ARCHIVE/frameGrabs/Ventana/images/2682/00_29_04_21.jpg	36.699703	-122.06086	20004547	1.32	2005-07-08 16:35:00.0	Ventana	34.229	00:29:04:21	7.627	V2682-01
eating | Euphausiacea | nil, identity-reference | self | 3	descend	Hormiphora	283.17	2682	http://search.mbari.org/ARCHIVE/frameGrabs/Ventana/images/2682/00_29_12_05.jpg	36.6997	-122.06086	20004548	1.32	2005-07-08 16:35:08.0	Ventana	34.226	00:29:12:05	7.633	V2682-01
eating | Euphausiacea | nil, identity-reference | self | 3	descend	Hormiphora	282.44	2682	http://search.mbari.org/ARCHIVE/frameGrabs/Ventana/images/2682/00_29_38_05.jpg	36.69969	-122.06085	20004549	1.32	2005-07-08 16:35:34.0	Ventana	34.23	00:29:38:05	7.621	V2682-01
eating | Euphausiacea | nil, identity-reference | self | 3	descend	Hormiphora	282.15	2682	http://search.mbari.org/ARCHIVE/frameGrabs/Ventana/images/2682/00_29_48_20.jpg	36.699688	-122.06085	20004550	1.31	2005-07-08 16:35:44.0	Ventana	34.229	00:29:48:20	7.619	V2682-01
identity-reference | self | 48	descend	Deiopea	308.97	2682	http://search.mbari.org/ARCHIVE/frameGrabs/Ventana/images/2682/00_35_14_10.jpg	36.69949	-122.0607	20004563	1.15	2005-07-08 16:41:10.0	Ventana	34.24	00:35:14:10	7.294	V2682-01
identity-reference | self | 48	descend	Deiopea	308.96	2682	http://search.mbari.org/ARCHIVE/frameGrabs/Ventana/images/2682/00_35_31_24.jpg	36.69948	-122.0607	20004565	1.15	2005-07-08 16:41:28.0	Ventana	34.239	00:35:31:24	7.294	V2682-01
identity-reference | self | 48	descend	Deiopea	308.78	2682	http://search.mbari.org/ARCHIVE/frameGrabs/Ventana/images/2682/00_35_41_08.jpg	36.699474	-122.0607	20004566	1.15	2005-07-08 16:41:38.0	Ventana	34.24	00:35:41:08	7.292	V2682-01
identity-reference | self | 48	descend	Deiopea	308.53	2682	http://search.mbari.org/ARCHIVE/frameGrabs/Ventana/images/2682/00_35_56_23.jpg	36.699467	-122.0607	20004567	1.15	2005-07-08 16:41:54.0	Ventana	34.24	00:35:56:23	7.293	V2682-01
sampled-by | Detritus Sampler | nil, identity-reference | self | 48	descend	Deiopea	307.44	2682	http://search.mbari.org/ARCHIVE/frameGrabs/Ventana/images/2682/00_37_45_05.jpg	36.699436	-122.0607	20004568	1.15	2005-07-08 16:43:43.0	Ventana	34.239	00:37:45:05	7.303	V2682-01
identity-certainty | self | maybe	descend	Arctapodema	299.73	2682	 	36.69939	-122.06077	1720096	1.18	2005-07-08 16:46:46.0	Ventana	34.238	00:40:48:02	7.353	V2682-01
identity-certainty | self | maybe	descend	Doliolida	290.0	2682	 	36.699364	-122.06066	1720111	1.23	2005-07-08 16:53:02.0	Ventana	34.237	00:47:03:23	7.454	V2682-01
identity-certainty | self | maybe	descend	Solmissus	290.05	2682	 	36.699364	-122.06065	1720112	1.23	2005-07-08 16:53:04.0	Ventana	34.237	00:47:05:21	7.454	V2682-01
identity-certainty | self | maybe	descend	Doliolida	300.03	2682	 	36.699207	-122.06058	1720133	1.18	2005-07-08 16:55:32.0	Ventana	34.237	00:49:35:04	7.373	V2682-01
identity-reference | self | 11, audio-comment | self | Tetraphalia-like	descend	Mertensiidae	309.11	2682	http://search.mbari.org/ARCHIVE/frameGrabs/Ventana/images/2682/00_50_29_26.jpg	36.699165	-122.06055	20004578	1.15	2005-07-08 16:56:27.0	Ventana	34.241	00:50:29:26	7.294	V2682-01
identity-reference | self | 11, audio-comment | self | Tetraphalia-like	descend	Mertensiidae	309.39	2682	http://search.mbari.org/ARCHIVE/frameGrabs/Ventana/images/2682/00_50_43_25.jpg	36.699158	-122.06055	20004579	1.15	2005-07-08 16:56:41.0	Ventana	34.241	00:50:43:25	7.298	V2682-01
identity-reference | self | 11, audio-comment | self | Tetraphalia-like	descend	Mertensiidae	309.67	2682	http://search.mbari.org/ARCHIVE/frameGrabs/Ventana/images/2682/00_50_55_25.jpg	36.699154	-122.060555	20004580	1.15	2005-07-08 16:56:53.0	Ventana	34.24	00:50:55:25	7.298	V2682-01
identity-reference | self | 11, audio-comment | self | Tetraphalia-like	descend	Mertensiidae	309.9	2682	http://search.mbari.org/ARCHIVE/frameGrabs/Ventana/images/2682/00_51_04_25.jpg	36.69915	-122.060555	20004581	1.15	2005-07-08 16:57:03.0	Ventana	34.24	00:51:04:25	7.298	V2682-01
identity-reference | self | 11, audio-comment | self | Tetraphalia-like	descend	Mertensiidae	310.22	2682	http://search.mbari.org/ARCHIVE/frameGrabs/Ventana/images/2682/00_51_13_10.jpg	36.699146	-122.060555	20004582	1.15	2005-07-08 16:57:11.0	Ventana	34.24	00:51:13:10	7.294	V2682-01
identity-reference | self | 11, audio-comment | self | Tetraphalia-like	descend	Mertensiidae	310.47	2682	http://search.mbari.org/ARCHIVE/frameGrabs/Ventana/images/2682/00_51_19_10.jpg	36.699142	-122.060555	20004583	1.15	2005-07-08 16:57:17.0	Ventana	34.24	00:51:19:10	7.294	V2682-01
identity-reference | self | 11, audio-comment | self | Tetraphalia-like	descend	Mertensiidae	310.63	2682	http://search.mbari.org/ARCHIVE/frameGrabs/Ventana/images/2682/00_51_26_09.jpg	36.69914	-122.06056	20004584	1.15	2005-07-08 16:57:25.0	Ventana	34.237	00:51:26:09	7.293	V2682-01
identity-reference | self | 11, audio-comment | self | Tetraphalia-like	descend	Mertensiidae	310.69	2682	http://search.mbari.org/ARCHIVE/frameGrabs/Ventana/images/2682/00_51_29_24.jpg	36.69914	-122.06056	20004585	1.15	2005-07-08 16:57:27.0	Ventana	34.237	00:51:29:24	7.293	V2682-01
identity-reference | self | 11, audio-comment | self | Tetraphalia-like	descend	Mertensiidae	310.96	2682	http://search.mbari.org/ARCHIVE/frameGrabs/Ventana/images/2682/00_51_36_09.jpg	36.699135	-122.06056	20004586	1.15	2005-07-08 16:57:33.0	Ventana	34.237	00:51:36:09	7.293	V2682-01
identity-reference | self | 11, audio-comment | self | Tetraphalia-like	descend	Mertensiidae	311.05	2682	http://search.mbari.org/ARCHIVE/frameGrabs/Ventana/images/2682/00_51_39_24.jpg	36.69913	-122.06056	20004587	1.15	2005-07-08 16:57:37.0	Ventana	34.237	00:51:39:24	7.293	V2682-01
identity-reference | self | 11, audio-comment | self | Tetraphalia-like	descend	Mertensiidae	311.36	2682	http://search.mbari.org/ARCHIVE/frameGrabs/Ventana/images/2682/00_51_49_09.jpg	36.699123	-122.06056	20004588	1.15	2005-07-08 16:57:47.0	Ventana	34.24	00:51:49:09	7.288	V2682-01
identity-reference | self | 11, audio-comment | self | Tetraphalia-like	descend	Mertensiidae	311.51	2682	http://search.mbari.org/ARCHIVE/frameGrabs/Ventana/images/2682/00_51_58_23.jpg	36.699116	-122.06056	20004589	1.15	2005-07-08 16:57:57.0	Ventana	34.239	00:51:58:23	7.288	V2682-01
identity-reference | self | 11, audio-comment | self | Tetraphalia-like	descend	Mertensiidae	311.66	2682	http://search.mbari.org/ARCHIVE/frameGrabs/Ventana/images/2682/00_52_05_08.jpg	36.699112	-122.06056	20004590	1.15	2005-07-08 16:58:03.0	Ventana	34.239	00:52:05:08	7.288	V2682-01
identity-reference | self | 11, audio-comment | self | Tetraphalia-like	descend	Mertensiidae	311.82	2682	http://search.mbari.org/ARCHIVE/frameGrabs/Ventana/images/2682/00_52_21_07.jpg	36.6991	-122.060555	20004591	1.15	2005-07-08 16:58:19.0	Ventana	34.239	00:52:21:07	7.285	V2682-01
identity-reference | self | 11, audio-comment | self | Tetraphalia-like	descend	Mertensiidae	311.83	2682	http://search.mbari.org/ARCHIVE/frameGrabs/Ventana/images/2682/00_52_24_22.jpg	36.6991	-122.060555	20004592	1.15	2005-07-08 16:58:23.0	Ventana	34.241	00:52:24:22	7.282	V2682-01
identity-reference | self | 11, audio-comment | self | Tetraphalia-like	descend	Mertensiidae	311.81	2682	http://search.mbari.org/ARCHIVE/frameGrabs/Ventana/images/2682/00_52_28_22.jpg	36.699097	-122.060555	20004593	1.15	2005-07-08 16:58:27.0	Ventana	34.241	00:52:28:22	7.282	V2682-01
identity-reference | self | 11, audio-comment | self | Tetraphalia-like	descend	Mertensiidae	311.82	2682	http://search.mbari.org/ARCHIVE/frameGrabs/Ventana/images/2682/00_52_33_22.jpg	36.699097	-122.060555	20004594	1.15	2005-07-08 16:58:31.0	Ventana	34.241	00:52:33:22	7.282	V2682-01
identity-reference | self | 11, audio-comment | self | Tetraphalia-like	descend	Mertensiidae	311.9	2682	http://search.mbari.org/ARCHIVE/frameGrabs/Ventana/images/2682/00_52_40_07.jpg	36.699093	-122.060555	20004595	1.15	2005-07-08 16:58:37.0	Ventana	34.241	00:52:40:07	7.282	V2682-01
identity-reference | self | 11, audio-comment | self | Tetraphalia-like	descend	Mertensiidae	311.9	2682	http://search.mbari.org/ARCHIVE/frameGrabs/Ventana/images/2682/00_52_44_21.jpg	36.699078	-122.060555	20004596	1.14	2005-07-08 16:58:41.0	Ventana	34.241	00:52:44:21	7.282	V2682-01
identity-reference | self | 11, audio-comment | self | Tetraphalia-like	descend	Mertensiidae	311.94	2682	http://search.mbari.org/ARCHIVE/frameGrabs/Ventana/images/2682/00_52_48_22.jpg	36.699078	-122.060555	20004597	1.14	2005-07-08 16:58:47.0	Ventana	34.241	00:52:48:22	7.282	V2682-01
identity-reference | self | 11, audio-comment | self | Tetraphalia-like	descend	Mertensiidae	311.91	2682	http://search.mbari.org/ARCHIVE/frameGrabs/Ventana/images/2682/00_52_54_06.jpg	36.699078	-122.060555	20004598	1.14	2005-07-08 16:58:51.0	Ventana	34.241	00:52:54:06	7.282	V2682-01
identity-reference | self | 11, audio-comment | self | Tetraphalia-like	descend	Mertensiidae	311.88	2682	http://search.mbari.org/ARCHIVE/frameGrabs/Ventana/images/2682/00_53_00_06.jpg	36.699078	-122.060555	20004599	1.15	2005-07-08 16:58:57.0	Ventana	34.241	00:53:00:06	7.281	V2682-01
identity-reference | self | 11, audio-comment | self | Tetraphalia-like	descend	Mertensiidae	311.75	2682	http://search.mbari.org/ARCHIVE/frameGrabs/Ventana/images/2682/00_53_12_06.jpg	36.699078	-122.060555	20004600	1.15	2005-07-08 16:59:09.0	Ventana	34.242	00:53:12:06	7.281	V2682-01
identity-reference | self | 11, audio-comment | self | Tetraphalia-like	descend	Mertensiidae	311.72	2682	http://search.mbari.org/ARCHIVE/frameGrabs/Ventana/images/2682/00_53_18_21.jpg	36.699078	-122.060555	20004601	1.15	2005-07-08 16:59:17.0	Ventana	34.242	00:53:18:21	7.281	V2682-01
identity-reference | self | 11, audio-comment | self | Tetraphalia-like	descend	Mertensiidae	311.67	2682	http://search.mbari.org/ARCHIVE/frameGrabs/Ventana/images/2682/00_53_30_05.jpg	36.699074	-122.060555	20004602	1.14	2005-07-08 16:59:28.0	Ventana	34.242	00:53:30:05	7.281	V2682-01
identity-reference | self | 11, audio-comment | self | Tetraphalia-like	descend	Mertensiidae	311.17	2682	http://search.mbari.org/ARCHIVE/frameGrabs/Ventana/images/2682/00_54_24_04.jpg	36.699062	-122.06057	20004603	1.14	2005-07-08 17:00:22.0	Ventana	34.241	00:54:24:04	7.282	V2682-01
identity-reference | self | 11, audio-comment | self | Tetraphalia-like	descend	Mertensiidae	310.82	2682	http://search.mbari.org/ARCHIVE/frameGrabs/Ventana/images/2682/00_55_06_18.jpg	36.699036	-122.06059	20004604	1.14	2005-07-08 17:01:04.0	Ventana	34.241	00:55:06:18	7.282	V2682-01
identity-reference | self | 11, audio-comment | self | Tetraphalia-like	descend	Mertensiidae	310.75	2682	http://search.mbari.org/ARCHIVE/frameGrabs/Ventana/images/2682/00_55_10_17.jpg	36.699036	-122.06059	20004605	1.14	2005-07-08 17:01:08.0	Ventana	34.242	00:55:10:17	7.282	V2682-01
identity-reference | self | 11, audio-comment | self | Tetraphalia-like	descend	Mertensiidae	310.75	2682	http://search.mbari.org/ARCHIVE/frameGrabs/Ventana/images/2682/00_55_15_02.jpg	36.69903	-122.06059	20004606	1.14	2005-07-08 17:01:12.0	Ventana	34.242	00:55:15:02	7.282	V2682-01
identity-reference | self | 11, audio-comment | self | Tetraphalia-like	descend	Mertensiidae	310.78	2682	http://search.mbari.org/ARCHIVE/frameGrabs/Ventana/images/2682/00_55_19_17.jpg	36.699028	-122.06059	20004607	1.14	2005-07-08 17:01:18.0	Ventana	34.242	00:55:19:17	7.282	V2682-01
identity-reference | self | 11, audio-comment | self | Tetraphalia-like	descend	Mertensiidae	310.74	2682	http://search.mbari.org/ARCHIVE/frameGrabs/Ventana/images/2682/00_55_21_17.jpg	36.699028	-122.06059	20004608	1.14	2005-07-08 17:01:20.0	Ventana	34.242	00:55:21:17	7.282	V2682-01
identity-reference | self | 11, audio-comment | self | Tetraphalia-like	descend	Mertensiidae	310.67	2682	http://search.mbari.org/ARCHIVE/frameGrabs/Ventana/images/2682/00_55_27_02.jpg	36.699024	-122.06059	20004609	1.14	2005-07-08 17:01:24.0	Ventana	34.241	00:55:27:02	7.282	V2682-01
identity-reference | self | 11, audio-comment | self | Tetraphalia-like	descend	Mertensiidae	310.66	2682	http://search.mbari.org/ARCHIVE/frameGrabs/Ventana/images/2682/00_55_34_17.jpg	36.699017	-122.06059	20004610	1.14	2005-07-08 17:01:32.0	Ventana	34.241	00:55:34:17	7.282	V2682-01
identity-reference | self | 11, audio-comment | self | Tetraphalia-like	descend	Mertensiidae	310.55	2682	http://search.mbari.org/ARCHIVE/frameGrabs/Ventana/images/2682/00_55_42_01.jpg	36.699013	-122.06059	20004611	1.14	2005-07-08 17:01:40.0	Ventana	34.241	00:55:42:01	7.283	V2682-01
identity-reference | self | 11, audio-comment | self | Tetraphalia-like	descend	Mertensiidae	310.48	2682	http://search.mbari.org/ARCHIVE/frameGrabs/Ventana/images/2682/00_55_51_16.jpg	36.699005	-122.0606	20004612	1.14	2005-07-08 17:01:50.0	Ventana	34.241	00:55:51:16	7.283	V2682-01
identity-reference | self | 11, audio-comment | self | Tetraphalia-like	descend	Mertensiidae	310.41	2682	http://search.mbari.org/ARCHIVE/frameGrabs/Ventana/images/2682/00_55_58_16.jpg	36.699	-122.0606	20004613	1.14	2005-07-08 17:01:56.0	Ventana	34.241	00:55:58:16	7.284	V2682-01
identity-reference | self | 11, audio-comment | self | Tetraphalia-like	descend	Mertensiidae	310.41	2682	http://search.mbari.org/ARCHIVE/frameGrabs/Ventana/images/2682/00_56_03_00.jpg	36.699	-122.0606	20004614	1.14	2005-07-08 17:02:00.0	Ventana	34.241	00:56:03:00	7.284	V2682-01
identity-reference | self | 11, audio-comment | self | Tetraphalia-like, perspective | self | close-up	descend	Mertensiidae	310.87	2682	http://search.mbari.org/ARCHIVE/frameGrabs/Ventana/images/2682/00_57_46_12.jpg	36.698956	-122.06063	20004615	1.14	2005-07-08 17:03:45.0	Ventana	34.238	00:57:46:12	7.29	V2682-01
identity-reference | self | 11, audio-comment | self | Tetraphalia-like, perspective | self | close-up	descend	Mertensiidae	311.03	2682	http://search.mbari.org/ARCHIVE/frameGrabs/Ventana/images/2682/00_57_51_12.jpg	36.698956	-122.06063	20004616	1.14	2005-07-08 17:03:49.0	Ventana	34.238	00:57:51:12	7.29	V2682-01
identity-reference | self | 11, audio-comment | self | Tetraphalia-like, perspective | self | close-up	descend	Mertensiidae	311.15	2682	http://search.mbari.org/ARCHIVE/frameGrabs/Ventana/images/2682/00_57_57_27.jpg	36.698956	-122.06063	20004617	1.14	2005-07-08 17:03:57.0	Ventana	34.239	00:57:57:27	7.289	V2682-01
identity-reference | self | 11, audio-comment | self | Tetraphalia-like, perspective | self | close-up	descend	Mertensiidae	311.37	2682	http://search.mbari.org/ARCHIVE/frameGrabs/Ventana/images/2682/00_58_05_11.jpg	36.698956	-122.06064	20004618	1.14	2005-07-08 17:04:03.0	Ventana	34.239	00:58:05:11	7.289	V2682-01
identity-reference | self | 11, audio-comment | self | Tetraphalia-like, perspective | self | close-up	descend	Mertensiidae	312.04	2682	http://search.mbari.org/ARCHIVE/frameGrabs/Ventana/images/2682/00_58_23_11.jpg	36.69895	-122.06063	20004619	1.14	2005-07-08 17:04:21.0	Ventana	34.239	00:58:23:11	7.289	V2682-01
identity-reference | self | 11, audio-comment | self | Tetraphalia-like, perspective | self | close-up	descend	Mertensiidae	312.17	2682	http://search.mbari.org/ARCHIVE/frameGrabs/Ventana/images/2682/00_58_24_26.jpg	36.69895	-122.06063	20004620	1.14	2005-07-08 17:04:23.0	Ventana	34.237	00:58:24:26	7.289	V2682-01
identity-reference | self | 11, audio-comment | self | Tetraphalia-like, perspective | self | close-up	descend	Mertensiidae	312.46	2682	http://search.mbari.org/ARCHIVE/frameGrabs/Ventana/images/2682/00_58_30_11.jpg	36.69895	-122.06063	20004621	1.14	2005-07-08 17:04:29.0	Ventana	34.237	00:58:30:11	7.289	V2682-01
identity-reference | self | 11, audio-comment | self | Tetraphalia-like, perspective | self | close-up	descend	Mertensiidae	312.56	2682	http://search.mbari.org/ARCHIVE/frameGrabs/Ventana/images/2682/00_58_33_11.jpg	36.69895	-122.06063	20004622	1.14	2005-07-08 17:04:31.0	Ventana	34.237	00:58:33:11	7.289	V2682-01
identity-reference | self | 11, audio-comment | self | Tetraphalia-like	descend	Mertensiidae	312.85	2682	http://search.mbari.org/ARCHIVE/frameGrabs/Ventana/images/2682/00_58_40_10.jpg	36.69895	-122.06063	20004623	1.14	2005-07-08 17:04:37.0	Ventana	34.237	00:58:40:10	7.289	V2682-01
shape-arrangement | self | chain	descend	Vitreosalpa gemini	349.85	2682	 	36.6986	-122.06041	1720309	1.02	2005-07-08 17:18:09.0	Ventana	34.254	01:11:41:18	7.102	V2682-02
shape-arrangement | self | chain	descend	Vitreosalpa gemini	349.41	2682	 	36.698605	-122.06041	1720315	1.02	2005-07-08 17:19:03.83	Ventana	34.254	01:12:36:14	7.101	V2682-02
identity-reference | self | 15, relative-placement | self | unusual, surface-texture | self | gelatinous	descend	Radiolaria	366.24	2682	http://search.mbari.org/ARCHIVE/frameGrabs/Ventana/images/2682/01_17_06_11.jpg	36.698532	-122.06036	20004642	1.0	2005-07-08 17:23:35.0	Ventana	34.256	01:17:06:11	7.075	V2682-02
identity-reference | self | 15, relative-placement | self | unusual, surface-texture | self | gelatinous	descend	Radiolaria	366.36	2682	http://search.mbari.org/ARCHIVE/frameGrabs/Ventana/images/2682/01_17_12_26.jpg	36.698532	-122.06036	20004643	1.0	2005-07-08 17:23:41.0	Ventana	34.256	01:17:12:26	7.074	V2682-02
identity-reference | self | 15, relative-placement | self | unusual, surface-texture | self | gelatinous	descend	Radiolaria	366.19	2682	http://search.mbari.org/ARCHIVE/frameGrabs/Ventana/images/2682/01_17_25_10.jpg	36.698532	-122.06036	20004644	1.0	2005-07-08 17:23:53.0	Ventana	34.258	01:17:25:10	7.072	V2682-02
identity-reference | self | 15, relative-placement | self | unusual, surface-texture | self | gelatinous	descend	Radiolaria	366.02	2682	http://search.mbari.org/ARCHIVE/frameGrabs/Ventana/images/2682/01_17_36_11.jpg	36.698536	-122.060356	20004645	1.0	2005-07-08 17:24:05.0	Ventana	34.258	01:17:36:11	7.072	V2682-02
identity-reference | self | 15, relative-placement | self | unusual, surface-texture | self | gelatinous	descend	Radiolaria	365.82	2682	http://search.mbari.org/ARCHIVE/frameGrabs/Ventana/images/2682/01_17_42_25.jpg	36.698536	-122.06035	20004646	1.0	2005-07-08 17:24:11.0	Ventana	34.258	01:17:42:25	7.072	V2682-02
identity-reference | self | 15, relative-placement | self | unusual, surface-texture | self | gelatinous	descend	Radiolaria	365.55	2682	http://search.mbari.org/ARCHIVE/frameGrabs/Ventana/images/2682/01_17_49_25.jpg	36.69854	-122.06035	20004647	1.0	2005-07-08 17:24:19.0	Ventana	34.258	01:17:49:25	7.072	V2682-02
identity-reference | self | 15, relative-placement | self | unusual, surface-texture | self | gelatinous	descend	Radiolaria	363.19	2682	http://search.mbari.org/ARCHIVE/frameGrabs/Ventana/images/2682/01_24_45_27.jpg	36.698544	-122.0602	20004648	0.98	2005-07-08 17:31:15.0	Ventana	34.262	01:24:45:27	7.047	V2682-02
identity-reference | self | 15, relative-placement | self | unusual, sampled-by | Detritus Sampler | nil, surface-texture | self | gelatinous	descend	Radiolaria	363.27	2682	http://search.mbari.org/ARCHIVE/frameGrabs/Ventana/images/2682/01_25_17_26.jpg	36.698536	-122.06017	20004649	0.99	2005-07-08 17:31:47.0	Ventana	34.257	01:25:17:26	7.057	V2682-02
part-of | Euphausiacea | nil	descend	molt	365.36	2682	 	36.698544	-122.06022	1720364	0.98	2005-07-08 17:29:08.0	Ventana	34.26	01:22:39:14	7.055	V2682-02
identity-certainty | self | maybe	descend	Poeobius meseres	385.92	2682	 	36.69841	-122.059906	1720682	0.93	2005-07-08 17:35:52.0	Ventana	34.265	01:29:23:11	6.945	V2682-02
part-of | Euphausiacea | nil	descend	molt	407.25	2682	 	36.698246	-122.05984	1720720	0.8	2005-07-08 17:38:35.0	Ventana	34.27	01:32:06:09	6.566	V2682-02
identity-certainty | self | maybe	descend	Haliscera	419.72	2682	 	36.6982	-122.059784	1720735	0.72	2005-07-08 17:40:58.0	Ventana	34.283	01:34:29:22	6.539	V2682-02
free-swimming | nil | nil	descend	Appendicularia	422.21	2682	 	36.698193	-122.059784	1720738	0.71	2005-07-08 17:41:18.0	Ventana	34.282	01:34:48:02	6.498	V2682-02
identity-reference | self | 18	descend	Craseoa lathetica	429.72	2682	http://search.mbari.org/ARCHIVE/frameGrabs/Ventana/images/2682/01_37_02_19.jpg	36.698166	-122.05977	20004662	0.68	2005-07-08 17:43:33.0	Ventana	34.294	01:37:02:19	6.458	V2682-02
identity-reference | self | 18	descend	Craseoa lathetica	429.74	2682	http://search.mbari.org/ARCHIVE/frameGrabs/Ventana/images/2682/01_37_13_19.jpg	36.69817	-122.05976	20004663	0.68	2005-07-08 17:43:43.0	Ventana	34.293	01:37:13:19	6.459	V2682-02
identity-reference | self | 18	descend	Craseoa lathetica	429.66	2682	http://search.mbari.org/ARCHIVE/frameGrabs/Ventana/images/2682/01_37_18_04.jpg	36.69817	-122.05976	20004664	0.68	2005-07-08 17:43:49.0	Ventana	34.293	01:37:18:04	6.459	V2682-02
identity-certainty | self | maybe	descend	Myctophidae	439.53	2682	 	36.698303	-122.05968	1720758	0.62	2005-07-08 17:47:18.0	Ventana	34.302	01:40:48:29	6.38	V2682-02
shape-arrangement | self | chain	descend	Vitreosalpa gemini	444.74	2682	 	36.698387	-122.059555	1720771	0.57	2005-07-08 17:51:01.0	Ventana	34.315	01:44:31:24	6.328	V2682-02
identity-reference | self | 19	descend	Kiyohimea	445.87	2682	http://search.mbari.org/ARCHIVE/frameGrabs/Ventana/images/2682/01_44_52_25.jpg	36.698406	-122.05955	1720774	0.57	2005-07-08 17:51:23.0	Ventana	34.315	01:44:52:25	6.324	V2682-02
part-of | Euphausiacea | nil	descend	molt	466.75	2682	 	36.698505	-122.05961	1720791	0.52	2005-07-08 17:55:59.0	Ventana	34.328	01:49:29:09	6.209	V2682-02
shape-arrangement | self | chain	descend	Vitreosalpa gemini	483.62	2682	 	36.69858	-122.05975	1720814	0.5	2005-07-08 17:57:59.0	Ventana	34.335	01:51:27:24	6.148	V2682-02
identity-certainty | self | maybe	descend	Modeeria	494.08	2682	 	36.698597	-122.05977	1720824	0.46	2005-07-08 17:59:01.0	Ventana	34.34	01:52:30:18	6.088	V2682-02
identity-certainty | self | maybe	descend	Pseudusa	527.91	2682	 	36.698605	-122.059784	1720868	0.38	2005-07-08 18:02:28.0	Ventana	34.362	01:55:58:04	5.823	V2682-02
identity-certainty | self | maybe	descend	Arctapodema	545.09	2682	 	36.69862	-122.05976	1720892	0.37	2005-07-08 18:04:41.0	Ventana	34.368	01:58:11:08	5.725	V2682-02
shape-arrangement | self | chain	descend	Vitreosalpa gemini	548.14	2682	 	36.698627	-122.05976	1720898	0.37	2005-07-08 18:05:07.0	Ventana	34.366	01:58:36:28	5.725	V2682-02
identity-certainty | self | maybe	descend	Polychaeta	549.22	2682	 	36.698627	-122.05977	1720900	0.36	2005-07-08 18:05:17.0	Ventana	34.366	01:58:45:26	5.707	V2682-02
population-quantity | self | 999	descend	Myctophidae	608.76	2682	 	36.69863	-122.0598	1721249	0.3	2005-07-08 18:07:56.0	Ventana	34.393	02:01:01:24	5.398	V2682-03
population-quantity | self | 999	descend	Myctophidae	616.55	2682	 	36.698627	-122.05981	1721260	0.3	2005-07-08 18:08:12.0	Ventana	34.395	02:01:17:29	5.382	V2682-03
population-quantity | self | 999	descend	Myctophidae	630.46	2682	 	36.69862	-122.05985	1721286	0.29	2005-07-08 18:08:52.0	Ventana	34.398	02:01:56:22	5.367	V2682-03
surface-color | self | red	descend	Aegina	647.65	2682	 	36.698643	-122.05992	1721338	0.28	2005-07-08 18:10:03.0	Ventana	34.404	02:03:07:00	5.285	V2682-03
population-quantity | self | 999	descend	Copepoda	685.91	2682	 	36.698654	-122.05997	1721422	0.28	2005-07-08 18:13:10.0	Ventana	34.413	02:06:14:23	5.167	V2682-03
identity-reference | self | 22, surface-color | self | red	descend	Copepoda	717.03	2682	http://search.mbari.org/ARCHIVE/frameGrabs/Ventana/images/2682/02_12_50_04.jpg	36.698547	-122.059944	20004717	0.28	2005-07-08 18:19:46.0	Ventana	34.438	02:12:50:04	4.911	V2682-03
identity-reference | self | 22, surface-color | self | red	descend	Copepoda	717.04	2682	http://search.mbari.org/ARCHIVE/frameGrabs/Ventana/images/2682/02_11_46_14.jpg	36.698586	-122.059944	1721460	0.28	2005-07-08 18:18:41.0	Ventana	34.438	02:11:46:14	4.916	V2682-03
identity-reference | self | 22, surface-color | self | red	descend	Copepoda	716.98	2682	http://search.mbari.org/ARCHIVE/frameGrabs/Ventana/images/2682/02_12_58_18.jpg	36.698544	-122.05994	20004718	0.28	2005-07-08 18:19:54.0	Ventana	34.438	02:12:58:18	4.91	V2682-03
identity-reference | self | 22, surface-color | self | red	descend	Copepoda	717.13	2682	http://search.mbari.org/ARCHIVE/frameGrabs/Ventana/images/2682/02_13_04_03.jpg	36.698544	-122.05994	20004719	0.28	2005-07-08 18:20:00.0	Ventana	34.438	02:13:04:03	4.91	V2682-03
identity-reference | self | 22, surface-color | self | red	descend	Copepoda	717.02	2682	http://search.mbari.org/ARCHIVE/frameGrabs/Ventana/images/2682/02_13_14_18.jpg	36.698536	-122.05993	20004720	0.28	2005-07-08 18:20:10.0	Ventana	34.439	02:13:14:18	4.907	V2682-03
identity-reference | self | 22, surface-color | self | red	descend	Copepoda	716.32	2682	http://search.mbari.org/ARCHIVE/frameGrabs/Ventana/images/2682/02_14_30_15.jpg	36.698494	-122.05992	1721466	0.28	2005-07-08 18:21:26.0	Ventana	34.437	02:14:30:15	4.912	V2682-03
identity-certainty | self | maybe	descend	Leuroglossus stilbius	716.05	2682	 	36.698486	-122.05992	1721478	0.28	2005-07-08 18:21:38.0	Ventana	34.438	02:14:43:07	4.912	V2682-03
contains | eggs | nil, identity-reference | self | 25	descend	Apolemia	729.84	2682	http://search.mbari.org/ARCHIVE/frameGrabs/Ventana/images/2682/02_19_15_22.jpg	36.69843	-122.05967	20004726	0.29	2005-07-08 18:26:12.0	Ventana	34.442	02:19:15:22	4.869	V2682-03
contains | eggs | nil, identity-reference | self | 25	descend	Apolemia	729.49	2682	http://search.mbari.org/ARCHIVE/frameGrabs/Ventana/images/2682/02_19_22_21.jpg	36.698425	-122.05967	20004727	0.29	2005-07-08 18:26:20.0	Ventana	34.442	02:19:22:21	4.869	V2682-03
contains | eggs | nil, identity-reference | self | 25	descend	Apolemia	729.36	2682	http://search.mbari.org/ARCHIVE/frameGrabs/Ventana/images/2682/02_19_27_06.jpg	36.69842	-122.05967	20004728	0.29	2005-07-08 18:26:24.0	Ventana	34.443	02:19:27:06	4.868	V2682-03
contains | eggs | nil, identity-reference | self | 25	descend	Apolemia	729.41	2682	http://search.mbari.org/ARCHIVE/frameGrabs/Ventana/images/2682/02_19_33_06.jpg	36.69842	-122.05967	20004729	0.29	2005-07-08 18:26:30.0	Ventana	34.443	02:19:33:06	4.868	V2682-03
contains | eggs | nil, identity-reference | self | 25	descend	Apolemia	729.32	2682	http://search.mbari.org/ARCHIVE/frameGrabs/Ventana/images/2682/02_19_42_05.jpg	36.69842	-122.05966	20004730	0.29	2005-07-08 18:26:38.0	Ventana	34.443	02:19:42:05	4.867	V2682-03
contains | eggs | nil, identity-reference | self | 25	descend	Apolemia	729.28	2682	http://search.mbari.org/ARCHIVE/frameGrabs/Ventana/images/2682/02_19_49_05.jpg	36.698418	-122.05966	20004731	0.29	2005-07-08 18:26:46.0	Ventana	34.443	02:19:49:05	4.867	V2682-03
contains | eggs | nil, identity-reference | self | 25	descend	Apolemia	729.1	2682	http://search.mbari.org/ARCHIVE/frameGrabs/Ventana/images/2682/02_20_02_05.jpg	36.698418	-122.05966	20004732	0.29	2005-07-08 18:26:58.0	Ventana	34.443	02:20:02:05	4.867	V2682-03
contains | eggs | nil, identity-reference | self | 25	descend	Apolemia	728.85	2682	http://search.mbari.org/ARCHIVE/frameGrabs/Ventana/images/2682/02_20_22_04.jpg	36.69841	-122.05966	20004734	0.29	2005-07-08 18:27:18.0	Ventana	34.442	02:20:22:04	4.868	V2682-03
identity-certainty | self | maybe	descend	Leuroglossus stilbius	786.13	2682	 	36.6984	-122.05973	1721676	0.33	2005-07-08 18:35:04.0	Ventana	34.461	02:28:07:28	4.643	V2682-03
surface-color | self | red	descend	Copepoda	793.2	2682	 	36.698402	-122.05971	1721683	0.31	2005-07-08 18:36:05.0	Ventana	34.465	02:29:07:29	4.61	V2682-03
identity-reference | self | 27, contains | eggs | nil	descend	Apolemia	805.44	2682	http://search.mbari.org/ARCHIVE/frameGrabs/Ventana/images/2682/02_31_19_29.jpg	36.69835	-122.05962	20004742	0.31	2005-07-08 18:38:17.0	Ventana	34.472	02:31:19:29	4.549	V2682-03
identity-reference | self | 27, contains | eggs | nil	descend	Apolemia	805.47	2682	http://search.mbari.org/ARCHIVE/frameGrabs/Ventana/images/2682/02_31_25_28.jpg	36.69835	-122.059616	20004743	0.31	2005-07-08 18:38:23.0	Ventana	34.471	02:31:25:28	4.547	V2682-03
identity-reference | self | 27, contains | eggs | nil	descend	Apolemia	805.65	2682	http://search.mbari.org/ARCHIVE/frameGrabs/Ventana/images/2682/02_31_37_28.jpg	36.69835	-122.05961	20004744	0.31	2005-07-08 18:38:35.0	Ventana	34.471	02:31:37:28	4.547	V2682-03
identity-reference | self | 27, contains | eggs | nil	descend	Apolemia	805.53	2682	http://search.mbari.org/ARCHIVE/frameGrabs/Ventana/images/2682/02_31_45_13.jpg	36.698353	-122.05961	20004745	0.31	2005-07-08 18:38:41.0	Ventana	34.471	02:31:45:13	4.545	V2682-03
identity-reference | self | 27, contains | eggs | nil	descend	Apolemia	807.02	2682	http://search.mbari.org/ARCHIVE/frameGrabs/Ventana/images/2682/02_32_32_11.jpg	36.698357	-122.05959	20004746	0.31	2005-07-08 18:39:34.0	Ventana	34.471	02:32:32:11	4.541	V2682-03
identity-certainty | self | maybe	descend	Gonatus	835.68	2682	 	36.698338	-122.059555	1721728	0.33	2005-07-08 18:44:39.0	Ventana	34.48	02:37:43:00	4.444	V2682-03
identity-reference | self | 28	descend	Pseudothecosomata	835.98	2682	http://search.mbari.org/ARCHIVE/frameGrabs/Ventana/images/2682/02_39_21_14.jpg	36.698307	-122.05949	1721729	0.33	2005-07-08 18:46:20.0	Ventana	34.48	02:39:21:14	4.442	V2682-03
identity-reference | self | 28	descend	Pseudothecosomata	835.93	2682	http://search.mbari.org/ARCHIVE/frameGrabs/Ventana/images/2682/02_39_40_26.jpg	36.6983	-122.05948	1721730	0.33	2005-07-08 18:46:38.0	Ventana	34.479	02:39:40:26	4.442	V2682-03
identity-certainty | self | maybe	descend	Poeobius meseres	844.68	2682	 	36.69831	-122.059456	1721733	0.34	2005-07-08 18:47:32.0	Ventana	34.48	02:40:35:14	4.441	V2682-03
identity-certainty | self | maybe	descend	Leuroglossus stilbius	886.44	2682	 	36.698273	-122.05944	1721768	0.33	2005-07-08 18:50:33.0	Ventana	34.492	02:43:34:22	4.331	V2682-03
identity-certainty | self | maybe	descend	Haliscera	915.32	2682	 	36.698254	-122.05942	1721785	0.35	2005-07-08 18:52:13.0	Ventana	34.497	02:45:15:27	4.267	V2682-03
identity-certainty | self | maybe	descend	Gonatus	923.03	2682	 	36.698254	-122.0594	1721787	0.35	2005-07-08 18:52:38.0	Ventana	34.497	02:45:40:20	4.267	V2682-03
identity-certainty | self | maybe	descend	Siphonophora	941.97	2682	 	36.698257	-122.05936	1721801	0.36	2005-07-08 18:53:50.0	Ventana	34.502	02:46:52:22	4.228	V2682-03
identity-certainty | self | maybe	descend	Cyclothone	1033.91	2682	 	36.698326	-122.05918	1722036	0.47	2005-07-08 19:02:08.0	Ventana	34.532	02:55:11:13	3.866	V2682-03
identity-certainty | self | maybe	descend	Aeginura	1070.63	2682	 	36.698326	-122.05916	1722056	0.5	2005-07-08 19:05:05.0	Ventana	34.538	02:58:07:06	3.787	V2682-03
identity-certainty | self | maybe	descend	Chaetopterus pugaporcinus	1107.76	2682	 	36.69823	-122.05915	1722091	0.57	2005-07-08 19:08:42.0	Ventana	34.552	03:01:20:26	3.62	V2682-04
identity-certainty | self | maybe	descend	Cydippida 2	1123.89	2682	 	36.698208	-122.0592	1722156	0.58	2005-07-08 19:12:09.0	Ventana	34.556	03:04:47:23	3.583	V2682-04
identity-reference | self | 33	descend	Bathocyroe	1201.36	2682	 	36.698284	-122.0589	1722213	0.68	2005-07-08 19:19:38.0	Ventana	34.574	03:12:14:10	3.372	V2682-04
eating | Amphipoda | nil, identity-reference | self | 33	descend	Bathocyroe	1199.49	2682	http://search.mbari.org/ARCHIVE/frameGrabs/Ventana/images/2682/03_15_27_28.jpg	36.69832	-122.0588	20004781	0.68	2005-07-08 19:22:51.0	Ventana	34.573	03:15:27:28	3.37	V2682-04
eating | Amphipoda | nil, identity-reference | self | 33	descend	Bathocyroe	1199.54	2682	http://search.mbari.org/ARCHIVE/frameGrabs/Ventana/images/2682/03_15_32_13.jpg	36.69832	-122.0588	20004782	0.68	2005-07-08 19:22:55.0	Ventana	34.573	03:15:32:13	3.371	V2682-04
eating | Amphipoda | nil, identity-reference | self | 33	descend	Bathocyroe	1197.67	2682	http://search.mbari.org/ARCHIVE/frameGrabs/Ventana/images/2682/03_17_31_24.jpg	36.698368	-122.058685	20004786	0.68	2005-07-08 19:24:55.0	Ventana	34.573	03:17:31:24	3.373	V2682-04
identity-certainty | self | maybe	descend	Pantachogon	1194.6	2682	 	36.698395	-122.05841	1722234	0.68	2005-07-08 19:31:33.0	Ventana	34.572	03:24:10:11	3.376	V2682-04
identity-reference | self | 36	descend	Caecosagitta macrocephala	1184.07	2682	http://search.mbari.org/ARCHIVE/frameGrabs/Ventana/images/2682/03_34_59_11.jpg	36.698246	-122.05789	1722411	0.66	2005-07-08 19:42:22.0	Ventana	34.57	03:34:59:11	3.414	V2682-04
surface-color | self | purple, identity-reference | self | 35	cruise	Solmissus	1189.96	2682	http://search.mbari.org/ARCHIVE/frameGrabs/Ventana/images/2682/03_38_56_14.jpg	36.698322	-122.05787	20004794	0.68	2005-07-08 19:46:20.0	Ventana	34.572	03:38:56:14	3.381	V2682-04
surface-color | self | purple, identity-reference | self | 35	cruise	Solmissus	1189.66	2682	http://search.mbari.org/ARCHIVE/frameGrabs/Ventana/images/2682/03_39_00_29.jpg	36.698322	-122.05786	20004795	0.68	2005-07-08 19:46:26.0	Ventana	34.572	03:39:00:29	3.384	V2682-04
surface-color | self | purple, identity-reference | self | 35	cruise	Solmissus	1189.78	2682	http://search.mbari.org/ARCHIVE/frameGrabs/Ventana/images/2682/03_39_11_29.jpg	36.69832	-122.05785	20004796	0.68	2005-07-08 19:46:36.0	Ventana	34.572	03:39:11:29	3.384	V2682-04
surface-color | self | purple, identity-reference | self | 35	cruise	Solmissus	1189.9	2682	http://search.mbari.org/ARCHIVE/frameGrabs/Ventana/images/2682/03_39_22_14.jpg	36.69832	-122.05785	20004797	0.68	2005-07-08 19:46:46.0	Ventana	34.573	03:39:22:14	3.386	V2682-04
surface-color | self | purple, identity-reference | self | 35	cruise	Solmissus	1189.85	2682	http://search.mbari.org/ARCHIVE/frameGrabs/Ventana/images/2682/03_39_31_28.jpg	36.69832	-122.057846	20004798	0.67	2005-07-08 19:46:56.0	Ventana	34.571	03:39:31:28	3.388	V2682-04
surface-color | self | purple, identity-reference | self | 35	cruise	Solmissus	1189.84	2682	http://search.mbari.org/ARCHIVE/frameGrabs/Ventana/images/2682/03_39_37_28.jpg	36.69832	-122.057846	20004799	0.67	2005-07-08 19:47:02.0	Ventana	34.571	03:39:37:28	3.388	V2682-04
surface-color | self | purple, identity-reference | self | 35	cruise	Solmissus	1189.81	2682	http://search.mbari.org/ARCHIVE/frameGrabs/Ventana/images/2682/03_39_43_28.jpg	36.69832	-122.057846	20004800	0.67	2005-07-08 19:47:08.0	Ventana	34.571	03:39:43:28	3.388	V2682-04
surface-color | self | purple, identity-reference | self | 35	cruise	Solmissus	1189.82	2682	http://search.mbari.org/ARCHIVE/frameGrabs/Ventana/images/2682/03_39_50_13.jpg	36.69832	-122.05784	20004801	0.67	2005-07-08 19:47:14.0	Ventana	34.571	03:39:50:13	3.388	V2682-04
surface-color | self | purple, identity-reference | self | 35	cruise	Solmissus	1189.85	2682	http://search.mbari.org/ARCHIVE/frameGrabs/Ventana/images/2682/03_40_00_12.jpg	36.698326	-122.057846	20004802	0.67	2005-07-08 19:47:24.0	Ventana	34.571	03:40:00:12	3.388	V2682-04
surface-color | self | purple, identity-reference | self | 35	cruise	Solmissus	1189.89	2682	http://search.mbari.org/ARCHIVE/frameGrabs/Ventana/images/2682/03_40_14_27.jpg	36.69835	-122.05785	20004803	0.67	2005-07-08 19:47:40.0	Ventana	34.571	03:40:14:27	3.387	V2682-04
surface-color | self | purple, identity-reference | self | 35	cruise	Solmissus	1189.94	2682	http://search.mbari.org/ARCHIVE/frameGrabs/Ventana/images/2682/03_40_28_26.jpg	36.698376	-122.05788	20004804	0.67	2005-07-08 19:47:52.0	Ventana	34.571	03:40:28:26	3.387	V2682-04
surface-color | self | purple, identity-reference | self | 35	cruise	Solmissus	1189.89	2682	http://search.mbari.org/ARCHIVE/frameGrabs/Ventana/images/2682/03_40_34_11.jpg	36.698383	-122.057884	20004805	0.67	2005-07-08 19:47:58.0	Ventana	34.573	03:40:34:11	3.387	V2682-04
surface-color | self | purple, identity-reference | self | 35	cruise	Solmissus	1189.88	2682	http://search.mbari.org/ARCHIVE/frameGrabs/Ventana/images/2682/03_40_41_26.jpg	36.698395	-122.057884	20004806	0.67	2005-07-08 19:48:06.0	Ventana	34.573	03:40:41:26	3.387	V2682-04
surface-color | self | purple, identity-reference | self | 35	cruise	Solmissus	1189.69	2682	http://search.mbari.org/ARCHIVE/frameGrabs/Ventana/images/2682/03_40_57_26.jpg	36.698414	-122.05789	20004807	0.67	2005-07-08 19:48:22.0	Ventana	34.571	03:40:57:26	3.386	V2682-04
surface-color | self | purple, identity-reference | self | 35	cruise	Solmissus	1189.68	2682	http://search.mbari.org/ARCHIVE/frameGrabs/Ventana/images/2682/03_41_02_25.jpg	36.698418	-122.05789	20004808	0.67	2005-07-08 19:48:26.0	Ventana	34.57	03:41:02:25	3.384	V2682-04
surface-color | self | purple, identity-reference | self | 35	cruise	Solmissus	1189.68	2682	http://search.mbari.org/ARCHIVE/frameGrabs/Ventana/images/2682/03_41_18_25.jpg	36.698437	-122.05788	20004809	0.68	2005-07-08 19:48:42.0	Ventana	34.572	03:41:18:25	3.383	V2682-04
surface-color | self | purple, identity-reference | self | 35	cruise	Solmissus	1189.67	2682	http://search.mbari.org/ARCHIVE/frameGrabs/Ventana/images/2682/03_41_30_24.jpg	36.69845	-122.05786	20004810	0.68	2005-07-08 19:48:54.0	Ventana	34.572	03:41:30:24	3.384	V2682-04
surface-color | self | purple, identity-reference | self | 35	cruise	Solmissus	1189.6	2682	http://search.mbari.org/ARCHIVE/frameGrabs/Ventana/images/2682/03_41_52_24.jpg	36.69847	-122.05778	20004811	0.68	2005-07-08 19:49:17.0	Ventana	34.572	03:41:52:24	3.383	V2682-04
surface-color | self | purple, identity-reference | self | 35	cruise	Solmissus	1190.04	2682	http://search.mbari.org/ARCHIVE/frameGrabs/Ventana/images/2682/03_42_42_08.jpg	36.698444	-122.05767	20004812	0.68	2005-07-08 19:50:09.0	Ventana	34.574	03:42:42:08	3.386	V2682-04
surface-color | self | purple, identity-reference | self | 35	cruise	Solmissus	1190.16	2682	http://search.mbari.org/ARCHIVE/frameGrabs/Ventana/images/2682/03_42_48_08.jpg	36.698444	-122.05766	20004813	0.68	2005-07-08 19:50:13.0	Ventana	34.574	03:42:48:08	3.386	V2682-04
surface-color | self | purple, identity-reference | self | 35	cruise	Solmissus	1190.03	2682	http://search.mbari.org/ARCHIVE/frameGrabs/Ventana/images/2682/03_42_57_22.jpg	36.69844	-122.057655	20004814	0.68	2005-07-08 19:50:23.0	Ventana	34.573	03:42:57:22	3.385	V2682-04
identity-reference | self | 37	ascend	Aegina citrea	891.32	2682	http://search.mbari.org/ARCHIVE/frameGrabs/Ventana/images/2682/04_07_23_12.jpg	36.69827	-122.05841	20004815	0.34	2005-07-08 20:15:14.0	Ventana	34.495	04:07:23:12	4.295	V2682-05
identity-certainty | self | maybe, life-stage | self | juvenile	ascend	Poralia rufescens	845.81	2682	 	36.698677	-122.05853	1723243	0.34	2005-07-08 20:20:36.0	Ventana	34.485	04:12:45:12	4.397	V2682-05
identity-certainty | self | maybe	ascend	Haliscera	793.86	2682	 	36.698654	-122.05891	1723274	0.32	2005-07-08 20:25:25.0	Ventana	34.452	04:17:33:27	4.701	V2682-05
identity-certainty | self | maybe	ascend	Cunina	669.17	2682	 	36.69893	-122.05958	1723364	0.28	2005-07-08 20:34:46.0	Ventana	34.405	04:26:54:08	5.21	V2682-05
population-quantity | self | 999	ascend	Appendicularia	610.85	2682	 	36.698875	-122.05994	1723421	0.36	2005-07-08 20:38:41.0	Ventana	34.382	04:30:49:29	5.529	V2682-05
comment | self | 6 tentacles, identity-reference | self | 40	ascend	Aegina	586.86	2682	http://search.mbari.org/ARCHIVE/frameGrabs/Ventana/images/2682/04_33_18_24.jpg	36.69883	-122.060165	20004825	0.39	2005-07-08 20:41:10.0	Ventana	34.372	04:33:18:24	5.656	V2682-05
comment | self | 6 tentacles, identity-reference | self | 40	ascend	Aegina	586.99	2682	http://search.mbari.org/ARCHIVE/frameGrabs/Ventana/images/2682/04_33_23_09.jpg	36.69883	-122.06017	20004826	0.39	2005-07-08 20:41:14.0	Ventana	34.372	04:33:23:09	5.656	V2682-05
identity-reference | self | 1	ascend	Tuscaroridae	585.82	2682	 	36.698826	-122.060394	1723451	0.4	2005-07-08 20:43:27.0	Ventana	34.371	04:35:36:02	5.673	V2682-05
identity-reference | self | 1	ascend	Tuscaroridae	586.32	2682	http://search.mbari.org/ARCHIVE/frameGrabs/Ventana/images/2682/04_36_13_04.jpg	36.698826	-122.06044	20004828	0.4	2005-07-08 20:44:05.0	Ventana	34.371	04:36:13:04	5.673	V2682-05
sampled-by | Suction Sampler | nil, sample-reference | self | 3, identity-reference | self | 1	ascend	Tuscaroridae	587.63	2682	http://search.mbari.org/ARCHIVE/frameGrabs/Ventana/images/2682/04_37_50_01.jpg	36.69882	-122.06054	20004829	0.4	2005-07-08 20:45:42.0	Ventana	34.369	04:37:50:01	5.677	V2682-05
identity-reference | self | 43	ascend	Bathocyroe	600.58	2682	 	36.698555	-122.06208	1723557	0.34	2005-07-08 21:03:11.0	Ventana	34.376	04:55:17:29	5.632	V2682-05
identity-certainty | self | maybe	ascend	Calycophorae	580.89	2682	 	36.698383	-122.0623	1723571	0.37	2005-07-08 21:05:25.0	Ventana	34.364	04:57:31:22	5.769	V2682-05
shape-arrangement | self | chain	ascend	Vitreosalpa gemini	579.6	2682	 	36.698376	-122.06232	1723573	0.37	2005-07-08 21:05:31.0	Ventana	34.364	04:57:37:25	5.769	V2682-05
population-quantity | self | 999	ascend	Appendicularia	560.83	2682	 	36.698273	-122.06255	1723596	0.38	2005-07-08 21:07:32.0	Ventana	34.358	04:59:38:06	5.835	V2682-05
identity-reference | self | 49	ascend	Beroe	554.48	2682	http://search.mbari.org/ARCHIVE/frameGrabs/Ventana/images/2682/05_00_26_13.jpg	36.69828	-122.06264	20004865	0.38	2005-07-08 21:08:18.0	Ventana	34.358	05:00:26:13	5.857	V2682-05
shape-arrangement | self | chain	ascend	Vitreosalpa gemini	534.2	2682	 	36.698334	-122.06285	1723637	0.43	2005-07-08 21:10:25.0	Ventana	34.349	05:02:06:04	6.013	V2682-06
population-quantity | self | 999	ascend	Nanomia	203.39	2682	 	36.696537	-122.06077	1723765	1.97	2005-07-08 21:31:07.0	Ventana	34.172	05:22:47:12	8.049	V2682-06
population-quantity | self | 999	ascend	Euphausiacea	198.35	2682	 	36.69651	-122.06073	1723768	1.97	2005-07-08 21:31:21.0	Ventana	34.191	05:23:00:17	8.266	V2682-06
population-quantity | self | 999	ascend	Euphausiacea	193.46	2682	 	36.69649	-122.06071	1723770	1.86	2005-07-08 21:31:33.0	Ventana	34.166	05:23:13:01	8.369	V2682-06
population-quantity | self | 999	ascend	Euphausiacea	167.37	2682	 	36.696335	-122.06057	1723778	1.56	2005-07-08 21:32:40.0	Ventana	34.205	05:24:19:04	8.836	V2682-06
identity-certainty | self | maybe	transect	Brisaster	1000.31	2669	 	36.731586	-122.24317	1733780	0.41	2005-05-25 19:45:25.0	Ventana	34.511	02:06:57:07	4.06	V2669-03
life-stage | self | juvenile	transect	Sebastolobus	1000.22	2669	 	36.731613	-122.243324	1733815	0.41	2005-05-25 19:46:28.0	Ventana	34.508	02:07:59:19	4.071	V2669-03
life-stage | self | juvenile	transect	Zoarcidae	1000.22	2669	 	36.731636	-122.24334	1733819	0.41	2005-05-25 19:46:39.0	Ventana	34.511	02:08:10:12	4.069	V2669-03
life-stage | self | juvenile	transect	Solaster borealis	1000.16	2669	 	36.731632	-122.243385	1733825	0.41	2005-05-25 19:46:53.0	Ventana	34.511	02:08:24:07	4.068	V2669-03
life-stage | self | juvenile	transect	Solaster	1000.21	2669	 	36.73118	-122.24057	1689277	0.41	2005-05-25 19:31:12.0	Ventana	34.51	01:53:10:11	4.057	V2669-02
life-stage | self | juvenile	transect	Solaster	1000.28	2669	 	36.731167	-122.24064	1689293	0.41	2005-05-25 19:31:40.0	Ventana	34.511	01:53:37:22	4.055	V2669-02
image-quality | self | good	transect	Lycenchelys crotalinus	1000.29	2669	http://search.mbari.org/ARCHIVE/frameGrabs/Ventana/images/2669/02_07_03_11.jpg	36.7316	-122.243195	1733831	0.41	2005-05-25 19:45:32.0	Ventana	34.511	02:07:03:11	4.06	V2669-03
life-stage | self | juvenile	transect	Sebastolobus	1000.16	2669	 	36.731678	-122.24345	1733837	0.41	2005-05-25 19:47:07.617	Ventana	34.511	02:08:38:25	4.069	V2669-03
life-stage | self | juvenile	transect	Sebastolobus	1000.0	2669	http://search.mbari.org/ARCHIVE/frameGrabs/Ventana/images/2669/02_09_27_10.jpg	36.731693	-122.24362	1733857	0.41	2005-05-25 19:47:57.0	Ventana	34.508	02:09:27:10	4.069	V2669-03
comment | self | hunched up, feeding | nil | nil	transect	Solaster borealis	1000.18	2669	 	36.731693	-122.24374	1733881	0.41	2005-05-25 19:48:27.0	Ventana	34.507	02:09:57:23	4.068	V2669-03
swimming | nil | nil, image-quality | self | good, curled-around-by | physical object | nil	transect	Eptatretus stoutii	999.9	2669	http://search.mbari.org/ARCHIVE/frameGrabs/Ventana/images/2669/02_11_00_01.jpg	36.731716	-122.243866	1734005	0.41	2005-05-25 19:49:30.0	Ventana	34.51	02:11:00:01	4.069	V2669-03
life-stage | self | juvenile	transect	Sebastolobus	999.97	2669	 	36.731724	-122.24391	1734022	0.41	2005-05-25 19:49:38.017	Ventana	34.51	02:11:09:04	4.069	V2669-03
life-stage | self | juvenile	transect	Sebastolobus	999.99	2669	http://search.mbari.org/ARCHIVE/frameGrabs/Ventana/images/2669/02_11_18_22.jpg	36.731712	-122.243935	1734043	0.41	2005-05-25 19:49:48.0	Ventana	34.513	02:11:18:22	4.081	V2669-03
swimming-up | nil | nil, curled-around-by | physical object | nil	transect	Eptatretus stoutii	999.96	2669	http://search.mbari.org/ARCHIVE/frameGrabs/Ventana/images/2669/02_11_25_06.jpg	36.73172	-122.243935	1734068	0.4	2005-05-25 19:49:54.0	Ventana	34.506	02:11:25:06	4.074	V2669-03
life-stage | self | juvenile	transect	Sebastolobus	999.83	2669	 	36.73174	-122.24399	1734086	0.4	2005-05-25 19:50:18.2	Ventana	34.509	02:11:49:06	4.069	V2669-03
life-stage | self | juvenile	transect	Sebastolobus	999.81	2669	 	36.731754	-122.24418	1734239	0.4	2005-05-25 19:51:16.327	Ventana	34.511	02:12:47:22	4.09	V2669-03
life-stage | self | juvenile	transect	Sebastolobus	999.91	2669	 	36.731747	-122.244194	1734248	0.4	2005-05-25 19:51:26.2	Ventana	34.503	02:12:57:19	4.083	V2669-03
identity-certainty | self | maybe	transect	Neptunea amianta	999.93	2669	 	36.731773	-122.24424	1734253	0.4	2005-05-25 19:51:32.0	Ventana	34.503	02:13:02:03	4.083	V2669-03
life-stage | self | juvenile	transect	Sebastolobus	999.98	2669	 	36.73177	-122.24424	1734255	0.4	2005-05-25 19:51:35.847	Ventana	34.503	02:13:06:21	4.083	V2669-03
life-stage | self | juvenile	transect	Sebastolobus	999.97	2669	 	36.731762	-122.24426	1734259	0.4	2005-05-25 19:51:39.203	Ventana	34.51	02:13:10:29	4.076	V2669-03
life-stage | self | juvenile	transect	Solaster	999.74	2669	 	36.73179	-122.24445	1734319	0.4	2005-05-25 19:52:32.0	Ventana	34.508	02:14:03:06	4.08	V2669-03
life-stage | self | juvenile	transect	Solaster	999.96	2669	 	36.731796	-122.24456	1734373	0.4	2005-05-25 19:53:36.1	Ventana	34.508	02:15:07:08	4.079	V2669-03
life-stage | self | juvenile	transect	Solaster	999.73	2669	 	36.731804	-122.24456	1734376	0.4	2005-05-25 19:53:40.95	Ventana	34.506	02:15:11:25	4.08	V2669-03
life-stage | self | juvenile	transect	Lycenchelys	1000.23	2669	 	36.73177	-122.24474	1734442	0.4	2005-05-25 19:54:52.0	Ventana	34.505	02:16:23:11	4.085	V2669-03
identity-certainty | self | maybe	transect	Neptunea amianta	1000.16	2669	 	36.731766	-122.24493	1734483	0.4	2005-05-25 19:55:50.0	Ventana	34.508	02:17:21:17	4.072	V2669-03
identity-certainty | self | maybe	transect	Octopus rubescens	1000.05	2669	http://search.mbari.org/ARCHIVE/frameGrabs/Ventana/images/2669/02_21_14_18.jpg	36.73187	-122.24539	1735383	0.41	2005-05-25 19:59:44.0	Ventana	34.51	02:21:14:18	4.065	V2669-03
life-stage | self | juvenile	transect	Sebastolobus	1000.05	2669	 	36.731876	-122.24544	1735385	0.41	2005-05-25 19:59:57.0	Ventana	34.508	02:21:27:22	4.062	V2669-03
life-stage | self | juvenile	transect	Sebastolobus	1000.09	2669	 	36.731857	-122.24537	1735381	0.4	2005-05-25 19:59:36.0	Ventana	34.508	02:21:05:26	4.07	V2669-03
life-stage | self | juvenile	transect	Sebastolobus	999.97	2669	 	36.731922	-122.245674	1735410	0.41	2005-05-25 20:01:24.0	Ventana	34.508	02:22:54:29	4.065	V2669-03
eating | physical object | nil	cruise	Chionoecetes tanneri	999.95	2669	http://search.mbari.org/ARCHIVE/frameGrabs/Ventana/images/2669/02_23_07_07.jpg	36.73191	-122.24569	1735436	0.41	2005-05-25 20:01:36.0	Ventana	34.508	02:23:07:07	4.065	V2669-03
life-stage | self | juvenile	transect	Lycenchelys	999.95	2669	http://search.mbari.org/ARCHIVE/frameGrabs/Ventana/images/2669/02_23_51_09.jpg	36.731895	-122.2458	1735466	0.4	2005-05-25 20:02:21.0	Ventana	34.509	02:23:51:09	4.081	V2669-03
life-stage | self | juvenile	transect	Lycenchelys	999.65	2669	 	36.73197	-122.24617	1735629	0.41	2005-05-25 20:05:09.307	Ventana	34.511	02:26:40:06	4.062	V2669-03
life-stage | self | juvenile	transect	Lycenchelys	1000.35	2669	 	36.73194	-122.24647	1735687	0.41	2005-05-25 20:07:48.45	Ventana	34.509	02:29:18:13	4.064	V2669-03
life-stage | self | juvenile	transect	Sebastolobus	1000.17	2669	 	36.731953	-122.246544	1735717	0.41	2005-05-25 20:08:48.0	Ventana	34.511	02:30:18:05	4.063	V2669-03
identity-certainty | self | maybe	transect	Brisaster	1000.34	2669	 	36.732018	-122.24652	1735729	0.41	2005-05-25 20:09:05.0	Ventana	34.51	02:30:34:17	4.064	V2669-03
life-stage | self | juvenile	transect	Lycenchelys	1000.28	2669	 	36.73197	-122.24716	1735835	0.41	2005-05-25 20:12:59.0	Ventana	34.507	02:34:27:16	4.068	V2669-03
life-stage | self | juvenile	transect	Lycenchelys	1000.14	2669	 	36.732014	-122.2472	1735854	0.41	2005-05-25 20:13:27.067	Ventana	34.509	02:34:56:03	4.065	V2669-03
life-stage | self | juvenile	transect	Lycenchelys	1000.28	2669	 	36.732014	-122.24731	1735869	0.41	2005-05-25 20:13:58.867	Ventana	34.509	02:35:28:09	4.065	V2669-03
life-stage | self | juvenile	transect	Lycenchelys	1000.33	2669	 	36.732033	-122.247345	1735880	0.41	2005-05-25 20:14:33.6	Ventana	34.508	02:36:03:00	4.07	V2669-03
life-stage | self | juvenile	transect	Lycenchelys	1000.41	2669	 	36.73204	-122.24745	1735906	0.4	2005-05-25 20:15:33.367	Ventana	34.51	02:37:03:02	4.082	V2669-03
life-stage | self | juvenile	transect	Sebastolobus	1000.37	2669	 	36.732044	-122.24746	1735909	0.4	2005-05-25 20:15:38.0	Ventana	34.508	02:37:07:29	4.08	V2669-03
life-stage | self | juvenile	transect	Sebastolobus	1000.31	2669	 	36.732037	-122.24748	1735913	0.4	2005-05-25 20:15:45.747	Ventana	34.508	02:37:15:07	4.08	V2669-03
life-stage | self | juvenile	transect	Sebastolobus	1000.63	2669	 	36.732063	-122.24773	1736147	0.4	2005-05-25 20:16:44.0	Ventana	34.509	02:38:13:18	4.084	V2669-03
identity-certainty | self | maybe	transect	Brisaster	1000.62	2669	 	36.732067	-122.24777	1736156	0.4	2005-05-25 20:17:08.0	Ventana	34.507	02:38:37:03	4.087	V2669-03
identity-certainty | self | maybe	transect	Mesomyaria	1000.5	2669	 	36.73211	-122.248	1736175	0.41	2005-05-25 20:18:56.0	Ventana	34.509	02:40:24:19	4.063	V2669-03
life-stage | self | juvenile	transect	Sebastolobus	1000.26	2669	 	36.73213	-122.24803	1736176	0.41	2005-05-25 20:19:10.4	Ventana	34.51	02:40:40:16	4.064	V2669-03
identity-certainty | self | maybe	transect	Mesomyaria	1000.31	2669	 	36.732132	-122.248055	1736180	0.41	2005-05-25 20:19:23.0	Ventana	34.51	02:40:53:24	4.068	V2669-03
image-quality | self | good	transect	Gastropoda sp.2	1000.5	2669	 	36.73214	-122.24812	1736189	0.41	2005-05-25 20:19:50.0	Ventana	34.51	02:41:20:09	4.062	V2669-03
life-stage | self | juvenile	transect	Sebastolobus	1000.45	2669	 	36.73215	-122.24816	1736192	0.41	2005-05-25 20:20:12.4	Ventana	34.51	02:41:41:24	4.06	V2669-03
life-stage | self | juvenile	transect	Sebastolobus	1000.64	2669	 	36.732166	-122.24834	1736209	0.41	2005-05-25 20:21:11.05	Ventana	34.51	02:42:40:02	4.062	V2669-03
life-stage | self | juvenile	transect	Sebastolobus	1000.56	2669	 	36.732212	-122.248566	1736223	0.41	2005-05-25 20:23:00.0	Ventana	34.511	02:44:29:01	4.06	V2669-03
life-stage | self | juvenile	transect	Sebastolobus	1000.55	2669	 	36.732265	-122.24891	1736258	0.41	2005-05-25 20:25:40.0	Ventana	34.51	02:47:08:25	4.063	V2669-03
life-stage | self | juvenile	transect	Sebastolobus	1000.88	2669	 	36.732285	-122.24919	1736281	0.41	2005-05-25 20:27:11.317	Ventana	34.51	02:48:39:23	4.073	V2669-03
comment | self | bottle	transect	trash	1001.0	2669	http://search.mbari.org/ARCHIVE/frameGrabs/Ventana/images/2669/02_49_21_12.jpg	36.732277	-122.24929	1736346	0.4	2005-05-25 20:27:52.0	Ventana	34.508	02:49:21:12	4.072	V2669-03
life-stage | self | juvenile	transect	Lycenchelys	1000.86	2669	 	36.732273	-122.249344	1736386	0.41	2005-05-25 20:28:10.0	Ventana	34.509	02:49:39:29	4.075	V2669-03
life-stage | self | juvenile	transect	Sebastolobus	1000.66	2669	 	36.732372	-122.24954	1736542	0.41	2005-05-25 20:30:03.0	Ventana	34.51	02:51:31:24	4.07	V2669-03
life-stage | self | juvenile	transect	Sebastolobus	1000.59	2669	 	36.73239	-122.249664	1736650	0.41	2005-05-25 20:30:50.0	Ventana	34.508	02:52:19:00	4.067	V2669-03
life-stage | self | juvenile	transect	Sebastolobus	1000.5	2669	 	36.73242	-122.24986	1736731	0.41	2005-05-25 20:32:00.1	Ventana	34.509	02:53:29:02	4.069	V2669-03
life-stage | self | juvenile	transect	Sebastolobus	1000.06	2669	 	36.732536	-122.25021	1736930	0.41	2005-05-25 20:34:32.0	Ventana	34.51	02:56:00:18	4.067	V2669-03
identity-certainty | self | maybe	transect	Brisaster	1000.01	2669	 	36.732536	-122.25021	1736938	0.41	2005-05-25 20:34:35.0	Ventana	34.51	02:56:03:28	4.067	V2669-03
life-stage | self | juvenile	transect	Sebastolobus	1000.04	2669	 	36.732555	-122.25024	1736941	0.41	2005-05-25 20:34:45.203	Ventana	34.51	02:56:13:17	4.067	V2669-03
life-stage | self | juvenile	transect	Lycenchelys	1000.16	2669	 	36.732605	-122.25036	1736974	0.41	2005-05-25 20:35:48.0	Ventana	34.51	02:57:16:24	4.068	V2669-03
life-stage | self | juvenile	transect	Lycenchelys	999.97	2669	 	36.732597	-122.25067	1737012	0.41	2005-05-25 20:37:18.983	Ventana	34.511	02:58:47:29	4.073	V2669-03
life-stage | self | juvenile	transect	Lycenchelys	999.89	2669	 	36.732613	-122.25067	1737016	0.4	2005-05-25 20:37:27.59	Ventana	34.505	02:58:56:11	4.08	V2669-03
life-stage | self | juvenile	transect	Sebastolobus	999.94	2669	 	36.7326	-122.250916	1737041	0.4	2005-05-25 20:38:20.0	Ventana	34.508	02:59:47:07	4.082	V2669-03
life-stage | self | juvenile	transect	Sebastolobus	999.74	2669	 	36.73264	-122.25103	1737051	0.4	2005-05-25 20:39:00.27	Ventana	34.51	03:00:28:07	4.07	V2669-03
life-stage | self | juvenile	transect	Sebastolobus	999.47	2669	 	36.73268	-122.2512	1737181	0.41	2005-05-25 20:40:09.0	Ventana	34.509	03:00:56:13	4.072	V2669-04
life-stage | self | juvenile	transect	Sebastolobus	999.43	2669	 	36.732693	-122.25123	1737186	0.41	2005-05-25 20:40:24.9	Ventana	34.509	03:01:13:27	4.075	V2669-04
identity-certainty | self | maybe	transect	Pennatula phosphorea californica	999.34	2669	 	36.73271	-122.25124	1737190	0.41	2005-05-25 20:40:35.0	Ventana	34.509	03:01:23:12	4.075	V2669-04
life-stage | self | juvenile	transect	Solaster	998.91	2669	 	36.732758	-122.251396	1737209	0.41	2005-05-25 20:41:33.0	Ventana	34.51	03:02:22:05	4.076	V2669-04
identity-certainty | self | maybe	transect	LRJ Complex	998.92	2669	 	36.73283	-122.25147	1737220	0.41	2005-05-25 20:42:11.0	Ventana	34.509	03:03:00:16	4.072	V2669-04
life-stage | self | juvenile	transect	Sebastolobus	998.95	2669	 	36.73285	-122.25167	1737239	0.41	2005-05-25 20:43:05.0	Ventana	34.51	03:03:54:17	4.072	V2669-04
identity-certainty | self | maybe	transect	Gastropoda sp.2	998.9	2669	 	36.732834	-122.251724	1737240	0.4	2005-05-25 20:43:18.0	Ventana	34.509	03:04:05:29	4.074	V2669-04
life-stage | self | juvenile	transect	Sebastolobus	998.82	2669	 	36.73285	-122.25182	1737245	0.4	2005-05-25 20:43:58.9	Ventana	34.507	03:04:48:11	4.078	V2669-04
life-stage | self | juvenile	transect	Sebastolobus	998.67	2669	 	36.732864	-122.25204	1737303	0.4	2005-05-25 20:45:08.35	Ventana	34.509	03:05:57:12	4.073	V2669-04
life-stage | self | juvenile	transect	Sebastolobus	998.51	2669	 	36.732906	-122.25205	1737319	0.4	2005-05-25 20:45:31.25	Ventana	34.509	03:06:19:29	4.074	V2669-04
relative-size | self | large, image-quality | self | good	transect	Tritonia diomedea	998.36	2669	http://search.mbari.org/ARCHIVE/frameGrabs/Ventana/images/2669/03_06_58_25.jpg	36.732944	-122.25215	1737343	0.4	2005-05-25 20:46:09.0	Ventana	34.51	03:06:58:25	4.074	V2669-04
life-stage | self | juvenile	transect	Sebastolobus	998.26	2669	 	36.732983	-122.25249	1737451	0.4	2005-05-25 20:48:12.0	Ventana	34.509	03:09:02:07	4.074	V2669-04
life-stage | self | juvenile	transect	Sebastolobus	998.4	2669	 	36.733006	-122.25259	1737463	0.4	2005-05-25 20:48:27.867	Ventana	34.509	03:09:16:05	4.074	V2669-04
life-stage | self | juvenile	transect	Sebastolobus	998.1	2669	 	36.73303	-122.25285	1737508	0.4	2005-05-25 20:49:50.507	Ventana	34.508	03:10:38:22	4.074	V2669-04
life-stage | self | juvenile	transect	Lycenchelys	 	2669	 	 	 	1737589	 	2005-05-25 13:52:30.0	Ventana	 	03:13:18:12	 	V2669-04
life-stage | self | juvenile	transect	Lycenchelys	998.13	2669	 	36.733124	-122.25303	1737596	0.4	2005-05-25 20:51:00.0	Ventana	34.509	03:13:33:23	4.076	V2669-04
life-stage | self | juvenile	transect	Lycenchelys	998.13	2669	 	36.733124	-122.25303	1737599	0.4	2005-05-25 20:51:00.0	Ventana	34.509	03:13:43:16	4.076	V2669-04
life-stage | self | juvenile	transect	Lycenchelys	998.13	2669	 	36.733124	-122.25303	1737623	0.4	2005-05-25 20:51:00.0	Ventana	34.509	03:14:24:02	4.076	V2669-04
life-stage | self | juvenile	transect	Lycenchelys	998.13	2669	 	36.733124	-122.25303	1737641	0.4	2005-05-25 20:51:00.0	Ventana	34.509	03:15:07:02	4.076	V2669-04
life-stage | self | juvenile	transect	Sebastolobus	 	2669	 	 	 	1737644	 	2005-05-25 13:54:25.0	Ventana	 	03:15:12:22	 	V2669-04
life-stage | self | juvenile	transect	Sebastolobus	998.13	2669	 	36.733124	-122.25303	1737669	0.4	2005-05-25 20:51:00.0	Ventana	34.509	03:16:44:05	4.076	V2669-04
life-stage | self | juvenile	transect	Sebastolobus	998.13	2669	 	36.733124	-122.25303	1737672	0.4	2005-05-25 20:51:00.0	Ventana	34.509	03:17:03:17	4.076	V2669-04
water-quality | self | sediment-cloudy	stationary	water	 	2669	 	 	 	1737692	 	2005-05-25 13:58:07.0	Ventana	 	03:18:54:23	 	V2669-04
water-quality | self | sediment-cloudy	stationary	water	998.13	2669	 	36.733124	-122.25303	1737693	0.4	2005-05-25 20:51:00.0	Ventana	34.509	03:19:39:04	4.076	V2669-04
water-quality | self | sediment-cloudy	stationary	water	998.13	2669	 	36.733124	-122.25303	1737694	0.4	2005-05-25 20:51:00.0	Ventana	34.509	03:21:46:29	4.076	V2669-04
image-quality | self | poor	ascend	lights	 	2669	 	 	 	1737695	 	2005-05-25 14:02:03.0	Ventana	 	03:22:50:16	 	V2669-04
water-quality | self | sediment-cloudy	ascend	water	998.13	2669	 	36.733124	-122.25303	1737696	0.4	2005-05-25 20:51:00.0	Ventana	34.509	03:23:38:27	4.076	V2669-04
image-quality | self | poor	ascend	lights	998.13	2669	 	36.733124	-122.25303	1737697	0.4	2005-05-25 20:51:00.0	Ventana	34.509	03:24:54:21	4.076	V2669-04
image-quality | self | poor	ascend	lights	998.13	2669	 	36.733124	-122.25303	1737698	0.4	2005-05-25 20:51:00.0	Ventana	34.509	03:26:41:11	4.076	V2669-04
image-quality | self | poor	ascend	lights	998.13	2669	 	36.733124	-122.25303	1737699	0.4	2005-05-25 20:51:00.0	Ventana	34.509	03:29:04:06	4.076	V2669-04
image-quality | self | poor	ascend	lights	998.13	2669	 	36.733124	-122.25303	1737700	0.4	2005-05-25 20:51:00.0	Ventana	34.509	03:34:58:28	4.076	V2669-04
population-quantity | self | 999	ascend	Nanomia bijuga	 	2669	 	 	 	1737702	 	2005-05-25 14:24:09.0	Ventana	 	03:44:54:26	 	V2669-04
part-of | Euphausiacea | nil	descend	molt	86.11	2683	 	36.70061	-122.05166	1756225	2.69	2005-07-11 16:17:04.0	Ventana	33.975	00:04:46:06	9.393	V2683-01
part-of | Euphausiacea | nil	descend	molt	93.55	2683	 	36.7006	-122.051674	1756226	2.68	2005-07-11 16:17:22.0	Ventana	33.979	00:05:04:24	9.363	V2683-01
part-of | Euphausiacea | nil	descend	molt	99.22	2683	 	36.70059	-122.051674	1756228	2.56	2005-07-11 16:17:35.0	Ventana	34.009	00:05:17:13	9.33	V2683-01
part-of | Euphausiacea | nil	descend	molt	100.12	2683	 	36.70059	-122.051674	1756229	2.56	2005-07-11 16:17:37.0	Ventana	34.009	00:05:19:28	9.33	V2683-01
part-of | Euphausiacea | nil	descend	molt	101.03	2683	 	36.700584	-122.051674	1756230	2.4	2005-07-11 16:17:39.0	Ventana	34.022	00:05:21:10	9.329	V2683-01
part-of | Euphausiacea | nil	descend	molt	101.63	2683	 	36.700584	-122.051674	1756231	2.4	2005-07-11 16:17:41.0	Ventana	34.022	00:05:24:01	9.329	V2683-01
part-of | Euphausiacea | nil	descend	molt	102.53	2683	 	36.70058	-122.05168	1756232	2.4	2005-07-11 16:17:43.0	Ventana	34.022	00:05:24:19	9.329	V2683-01
part-of | Euphausiacea | nil	descend	molt	102.53	2683	 	36.70058	-122.05168	1756233	2.4	2005-07-11 16:17:43.0	Ventana	34.022	00:05:25:04	9.329	V2683-01
part-of | Euphausiacea | nil	descend	molt	110.68	2683	 	36.700565	-122.05168	1756236	2.31	2005-07-11 16:18:01.0	Ventana	34.032	00:05:42:18	9.302	V2683-01
part-of | Euphausiacea | nil	descend	molt	110.68	2683	 	36.700565	-122.05168	1756237	2.31	2005-07-11 16:18:01.0	Ventana	34.032	00:05:42:27	9.302	V2683-01
part-of | Euphausiacea | nil	descend	molt	115.42	2683	 	36.700554	-122.05167	1756238	2.23	2005-07-11 16:18:25.0	Ventana	34.042	00:06:07:28	9.204	V2683-01
part-of | Euphausiacea | nil	descend	molt	118.67	2683	 	36.700554	-122.05166	1756240	2.2	2005-07-11 16:18:39.0	Ventana	34.05	00:06:21:01	9.16	V2683-01
part-of | Euphausiacea | nil	descend	molt	119.36	2683	 	36.700554	-122.05166	1756241	2.2	2005-07-11 16:18:41.0	Ventana	34.05	00:06:23:15	9.16	V2683-01
part-of | Euphausiacea | nil	descend	molt	119.84	2683	 	36.700554	-122.05166	1756242	2.2	2005-07-11 16:18:43.0	Ventana	34.05	00:06:25:19	9.16	V2683-01
part-of | Euphausiacea | nil	descend	molt	121.31	2683	 	36.700554	-122.05166	1756243	2.2	2005-07-11 16:18:47.0	Ventana	34.05	00:06:28:19	9.16	V2683-01
part-of | Euphausiacea | nil	descend	molt	122.06	2683	 	36.700554	-122.05165	1756244	2.2	2005-07-11 16:18:49.0	Ventana	34.05	00:06:31:06	9.16	V2683-01
part-of | Euphausiacea | nil	descend	molt	127.19	2683	 	36.70056	-122.051636	1756245	2.11	2005-07-11 16:19:05.0	Ventana	34.071	00:06:46:19	9.057	V2683-01
identity-certainty | self | maybe	descend	Beroe	135.68	2683	 	36.700573	-122.05159	1756248	1.81	2005-07-11 16:19:33.0	Ventana	34.146	00:07:15:11	8.941	V2683-01
part-of | Euphausiacea | nil	descend	molt	147.81	2683	 	36.7007	-122.05165	1756267	1.69	2005-07-11 16:24:49.0	Ventana	34.172	00:12:31:15	8.852	V2683-01
part-of | Euphausiacea | nil	descend	molt	150.03	2683	 	36.70066	-122.05167	1756274	1.69	2005-07-11 16:25:45.0	Ventana	34.174	00:13:27:18	8.833	V2683-01
identity-certainty | self | maybe	descend	Lilyopsis fluoracantha	163.79	2683	http://search.mbari.org/ARCHIVE/frameGrabs/Ventana/images/2683/00_15_09_17.jpg	36.700676	-122.051605	1756289	1.7	2005-07-11 16:27:27.0	Ventana	34.171	00:15:09:17	8.76	V2683-01
identity-certainty | self | maybe	descend	Lilyopsis fluoracantha	165.37	2683	 	36.700783	-122.05144	1756298	1.7	2005-07-11 16:29:56.0	Ventana	34.175	00:17:37:00	8.754	V2683-01
part-of | Euphausiacea | nil	descend	molt	166.92	2683	 	36.7008	-122.051384	1756307	1.7	2005-07-11 16:34:07.0	Ventana	34.176	00:21:49:17	8.737	V2683-01
part-of | Euphausiacea | nil	descend	molt	163.98	2683	 	36.7008	-122.051384	1756308	1.7	2005-07-11 16:34:34.0	Ventana	34.18	00:22:14:06	8.75	V2683-01
part-of | Euphausiacea | nil	descend	molt	160.42	2683	 	36.700806	-122.051384	1756312	1.69	2005-07-11 16:35:44.0	Ventana	34.177	00:23:25:20	8.794	V2683-01
part-of | Euphausiacea | nil	descend	molt	186.04	2683	 	36.70104	-122.05111	1756347	1.69	2005-07-11 16:42:24.0	Ventana	34.168	00:30:05:25	8.531	V2683-01
population-quantity | self | 999	descend	Euphausiacea	189.4	2683	 	36.701035	-122.05107	1756353	1.79	2005-07-11 16:42:42.0	Ventana	34.18	00:30:22:09	8.44	V2683-01
population-quantity | self | 999	descend	Euphausiacea	190.34	2683	 	36.701046	-122.05112	1756363	1.7	2005-07-11 16:44:49.0	Ventana	34.195	00:32:28:19	8.463	V2683-01
identity-certainty | self | maybe	descend	Nanomia	197.42	2683	 	36.70106	-122.050964	1756375	1.68	2005-07-11 16:46:37.0	Ventana	34.194	00:34:16:28	8.422	V2683-01
population-quantity | self | 999	descend	Euphausiacea	198.18	2683	 	36.701057	-122.050964	1756377	1.69	2005-07-11 16:46:43.0	Ventana	34.192	00:34:24:02	8.407	V2683-01
part-of | Euphausiacea | nil	descend	molt	198.96	2683	 	36.70105	-122.050964	1756378	1.69	2005-07-11 16:46:49.0	Ventana	34.192	00:34:30:03	8.407	V2683-01
population-quantity | self | 999	descend	Euphausiacea	200.8	2683	 	36.70104	-122.05096	1756384	1.71	2005-07-11 16:47:05.0	Ventana	34.192	00:34:46:09	8.397	V2683-01
population-quantity | self | 999	descend	Euphausiacea	201.87	2683	 	36.701035	-122.05094	1756387	1.71	2005-07-11 16:47:17.0	Ventana	34.191	00:34:58:16	8.38	V2683-01
part-of | Euphausiacea | nil	descend	molt	203.56	2683	 	36.70103	-122.05093	1756391	1.7	2005-07-11 16:47:27.0	Ventana	34.192	00:35:08:04	8.343	V2683-01
population-quantity | self | 999	descend	Euphausiacea	207.75	2683	 	36.701023	-122.05088	1756397	1.71	2005-07-11 16:47:48.0	Ventana	34.188	00:35:28:12	8.298	V2683-01
life-stage | self | juvenile	descend	Gonatus	213.04	2683	 	36.701008	-122.050804	1756402	1.69	2005-07-11 16:48:12.0	Ventana	34.195	00:35:52:08	8.283	V2683-01
part-of | Euphausiacea | nil	descend	molt	222.42	2683	 	36.70099	-122.050735	1756413	1.7	2005-07-11 16:48:46.0	Ventana	34.195	00:36:27:02	8.253	V2683-01
life-stage | self | juvenile	descend	Gonatus	231.21	2683	 	36.700977	-122.05068	1756421	1.7	2005-07-11 16:49:20.0	Ventana	34.189	00:37:00:15	8.15	V2683-01
part-of | Euphausiacea | nil	descend	molt	232.31	2683	 	36.700974	-122.050674	1756422	1.71	2005-07-11 16:49:24.0	Ventana	34.188	00:37:04:01	8.12	V2683-01
population-quantity | self | 999	descend	Copepoda	237.8	2683	 	36.70097	-122.050644	1756432	1.71	2005-07-11 16:49:46.0	Ventana	34.188	00:37:27:28	8.1	V2683-01
part-of | Euphausiacea | nil	descend	molt	246.5	2683	 	36.700947	-122.05059	1756442	1.7	2005-07-11 16:50:22.0	Ventana	34.189	00:38:03:19	8.054	V2683-01
identity-certainty | self | maybe	descend	Bolinopsis	253.43	2683	 	36.700897	-122.050545	1756448	1.64	2005-07-11 16:50:49.0	Ventana	34.198	00:38:28:13	8.007	V2683-01
part-of | Euphausiacea | nil	descend	molt	297.4	2683	 	36.70107	-122.050156	1756492	1.26	2005-07-11 16:53:33.0	Ventana	34.243	00:41:13:24	7.723	V2683-01
identity-certainty | self | maybe	descend	Halicreas	313.69	2683	 	36.701126	-122.05013	1756513	1.23	2005-07-11 16:54:28.0	Ventana	34.244	00:42:07:19	7.58	V2683-01
population-quantity | self | 999	descend	Appendicularia	389.33	2683	 	36.701473	-122.04975	1756621	0.99	2005-07-11 16:58:43.0	Ventana	34.256	00:46:22:13	6.992	V2683-01
population-quantity | self | 999	descend	Appendicularia	389.93	2683	 	36.701473	-122.04975	1756623	0.99	2005-07-11 16:58:45.0	Ventana	34.256	00:46:24:09	6.992	V2683-01
identity-reference | self | 8, life-stage | self | juvenile	descend	Chiroteuthis calyx	390.46	2683	http://search.mbari.org/ARCHIVE/frameGrabs/Ventana/images/2683/00_47_03_06.jpg	36.70148	-122.049706	1756628	0.98	2005-07-11 16:59:23.0	Ventana	34.259	00:47:03:06	6.994	V2683-01
identity-reference | self | 8, perspective | self | close-up, life-stage | self | juvenile	descend	Chiroteuthis calyx	393.16	2683	http://search.mbari.org/ARCHIVE/frameGrabs/Ventana/images/2683/00_47_52_28.jpg	36.701477	-122.04966	20004877	0.98	2005-07-11 17:00:12.5	Ventana	34.259	00:47:52:28	7.004	V2683-01
inking | nil | pseodomorph, identity-reference | self | 8, life-stage | self | juvenile	descend	Chiroteuthis calyx	395.62	2683	http://search.mbari.org/ARCHIVE/frameGrabs/Ventana/images/2683/00_48_26_12.jpg	36.701477	-122.049644	20004878	0.97	2005-07-11 17:00:47.0	Ventana	34.256	00:48:26:12	7.002	V2683-01
identity-reference | self | 8, life-stage | self | juvenile	descend	Chiroteuthis calyx	396.12	2683	http://search.mbari.org/ARCHIVE/frameGrabs/Ventana/images/2683/00_48_30_27.jpg	36.701477	-122.049644	20004879	0.97	2005-07-11 17:00:51.52	Ventana	34.256	00:48:30:27	7.002	V2683-01
inking | nil | nil, identity-reference | self | 8, life-stage | self | juvenile	descend	Chiroteuthis calyx	397.04	2683	http://search.mbari.org/ARCHIVE/frameGrabs/Ventana/images/2683/00_48_39_11.jpg	36.701477	-122.049644	20004880	0.97	2005-07-11 17:01:00.0	Ventana	34.256	00:48:39:11	7.004	V2683-01
identity-reference | self | 8, life-stage | self | juvenile	descend	Chiroteuthis calyx	397.69	2683	http://search.mbari.org/ARCHIVE/frameGrabs/Ventana/images/2683/00_48_42_26.jpg	36.70148	-122.04964	20004881	0.97	2005-07-11 17:01:03.49	Ventana	34.256	00:48:42:26	7.004	V2683-01
identity-reference | self | 8, life-stage | self | juvenile	descend	Chiroteuthis calyx	399.17	2683	http://search.mbari.org/ARCHIVE/frameGrabs/Ventana/images/2683/00_49_07_26.jpg	36.701485	-122.04964	20004882	0.97	2005-07-11 17:01:28.4	Ventana	34.26	00:49:07:26	6.992	V2683-01
identity-reference | self | 8, life-stage | self | juvenile	descend	Chiroteuthis calyx	399.04	2683	http://search.mbari.org/ARCHIVE/frameGrabs/Ventana/images/2683/00_49_12_10.jpg	36.701485	-122.04964	20004883	0.97	2005-07-11 17:01:32.46	Ventana	34.26	00:49:12:10	6.992	V2683-01
identity-reference | self | 8, sampled-by | Detritus Sampler | nil, sample-reference | self | V2683-d1, life-stage | self | juvenile	descend	Chiroteuthis calyx	404.15	2683	http://search.mbari.org/ARCHIVE/frameGrabs/Ventana/images/2683/00_50_41_23.jpg	36.701485	-122.04953	20004884	0.95	2005-07-11 17:03:02.0	Ventana	34.26	00:50:41:23	6.954	V2683-01
identity-reference | self | 8, life-stage | self | juvenile, perspective | self | close-up	descend	Chiroteuthis calyx	392.36	2683	http://search.mbari.org/ARCHIVE/frameGrabs/Ventana/images/2683/00_47_39_16.jpg	36.701473	-122.049675	1756629	0.98	2005-07-11 16:59:59.0	Ventana	34.258	00:47:39:16	7.003	V2683-01
population-quantity | self | 999	descend	Appendicularia	419.79	2683	 	36.701443	-122.04957	1756663	0.88	2005-07-11 17:05:53.0	Ventana	34.268	00:53:32:06	6.817	V2683-01
population-quantity | self | 999	descend	Appendicularia	422.98	2683	 	36.701447	-122.04957	1756664	0.88	2005-07-11 17:06:03.0	Ventana	34.268	00:53:42:22	6.817	V2683-01
population-quantity | self | 999	descend	Appendicularia	430.26	2683	 	36.701466	-122.049545	1756671	0.87	2005-07-11 17:06:31.0	Ventana	34.267	00:54:11:26	6.799	V2683-01
population-quantity | self | 999	descend	Appendicularia	434.11	2683	 	36.701473	-122.04954	1756673	0.87	2005-07-11 17:06:45.0	Ventana	34.27	00:54:25:08	6.784	V2683-01
population-quantity | self | 999	descend	Appendicularia	439.25	2683	 	36.701515	-122.04943	1756687	0.84	2005-07-11 17:08:02.0	Ventana	34.275	00:55:41:22	6.759	V2683-01
population-quantity | self | 999	descend	Appendicularia	441.72	2683	 	36.701527	-122.049416	1756690	0.83	2005-07-11 17:08:14.0	Ventana	34.273	00:55:52:17	6.749	V2683-01
population-quantity | self | 999	descend	Appendicularia	455.32	2683	 	36.701626	-122.049355	1756712	0.79	2005-07-11 17:09:26.0	Ventana	34.28	00:57:05:29	6.682	V2683-01
population-quantity | self | 999	descend	Appendicularia	460.38	2683	 	36.701668	-122.04932	1756718	0.78	2005-07-11 17:09:46.0	Ventana	34.283	00:57:25:00	6.672	V2683-01
population-quantity | self | 999	descend	Appendicularia	467.06	2683	 	36.70159	-122.049355	1756750	0.77	2005-07-11 17:12:57.0	Ventana	34.287	01:00:37:01	6.651	V2683-01
identity-certainty | self | maybe	descend	Leuroglossus stilbius	467.18	2683	 	36.701588	-122.049355	1756751	0.77	2005-07-11 17:13:01.0	Ventana	34.287	01:00:41:04	6.651	V2683-01
reproducing | nil | nil	descend	Salpida	467.32	2683	 	36.701576	-122.04935	1756754	0.77	2005-07-11 17:13:21.0	Ventana	34.287	01:00:59:24	6.652	V2683-01
identity-reference | self | 9	descend	Lampocteis	466.86	2683	 	36.701553	-122.049355	1756758	0.77	2005-07-11 17:13:41.0	Ventana	34.286	01:01:21:09	6.654	V2683-01
identity-reference | self | 9, perspective | self | close-up	descend	Lampocteis	467.37	2683	http://search.mbari.org/ARCHIVE/frameGrabs/Ventana/images/2683/01_02_58_14.jpg	36.701538	-122.04937	20004886	0.77	2005-07-11 17:15:19.46	Ventana	34.287	01:02:58:14	6.652	V2683-01
identity-reference | self | 9, perspective | self | close-up	descend	Lampocteis	467.24	2683	http://search.mbari.org/ARCHIVE/frameGrabs/Ventana/images/2683/01_03_14_29.jpg	36.701534	-122.04937	20004887	0.77	2005-07-11 17:15:36.0	Ventana	34.286	01:03:14:29	6.653	V2683-01
identity-reference | self | 9, perspective | self | close-up	descend	Lampocteis	466.96	2683	http://search.mbari.org/ARCHIVE/frameGrabs/Ventana/images/2683/01_03_28_29.jpg	36.701527	-122.04938	20004888	0.77	2005-07-11 17:15:50.0	Ventana	34.287	01:03:28:29	6.652	V2683-01
identity-reference | self | 9, perspective | self | close-up	descend	Lampocteis	466.01	2683	http://search.mbari.org/ARCHIVE/frameGrabs/Ventana/images/2683/01_03_59_13.jpg	36.70151	-122.04938	20004889	0.77	2005-07-11 17:16:20.0	Ventana	34.287	01:03:59:13	6.653	V2683-01
identity-reference | self | 9, perspective | self | close-up	descend	Lampocteis	465.8	2683	http://search.mbari.org/ARCHIVE/frameGrabs/Ventana/images/2683/01_04_03_13.jpg	36.70151	-122.04938	20004890	0.77	2005-07-11 17:16:24.0	Ventana	34.287	01:04:03:13	6.654	V2683-01
identity-reference | self | 9, perspective | self | close-up	descend	Lampocteis	465.03	2683	http://search.mbari.org/ARCHIVE/frameGrabs/Ventana/images/2683/01_04_18_27.jpg	36.701508	-122.04938	20004891	0.77	2005-07-11 17:16:39.5	Ventana	34.287	01:04:18:27	6.654	V2683-01
identity-reference | self | 3	descend	Chiroteuthis	488.0	2683	http://search.mbari.org/ARCHIVE/frameGrabs/Ventana/images/2683/01_07_36_06.jpg	36.701515	-122.049355	1756778	0.72	2005-07-11 17:23:28.0	Ventana	34.297	01:07:36:06	6.54	V2683-02
identity-reference | self | 10	descend	Atolla wyvillei	501.6	2683	 	36.7015	-122.04939	1756800	0.68	2005-07-11 17:25:41.0	Ventana	34.306	01:09:48:29	6.469	V2683-02
identity-reference | self | 10	descend	Atolla wyvillei	501.14	2683	http://search.mbari.org/ARCHIVE/frameGrabs/Ventana/images/2683/01_10_17_20.jpg	36.70151	-122.0494	20004895	0.68	2005-07-11 17:26:10.01	Ventana	34.305	01:10:17:20	6.469	V2683-02
sampled-by | Suction Sampler | nil, sample-reference | self | V2683-ss2, identity-reference | self | 10	descend	Atolla wyvillei	501.09	2683	http://search.mbari.org/ARCHIVE/frameGrabs/Ventana/images/2683/01_10_38_04.jpg	36.70152	-122.04939	20004896	0.68	2005-07-11 17:26:30.0	Ventana	34.305	01:10:38:04	6.468	V2683-02
identity-reference | self | 11	descend	Colobonema	503.49	2683	 	36.701557	-122.04935	1756816	0.68	2005-07-11 17:28:00.0	Ventana	34.305	01:12:07:18	6.466	V2683-02
identity-reference | self | 11	descend	Colobonema	503.96	2683	http://search.mbari.org/ARCHIVE/frameGrabs/Ventana/images/2683/01_13_03_26.jpg	36.701565	-122.04933	1756818	0.68	2005-07-11 17:28:56.0	Ventana	34.306	01:13:03:26	6.466	V2683-02
identity-reference | self | 11	descend	Colobonema	502.3	2683	http://search.mbari.org/ARCHIVE/frameGrabs/Ventana/images/2683/01_15_45_10.jpg	36.701496	-122.04932	20004897	0.68	2005-07-11 17:31:38.03	Ventana	34.305	01:15:45:10	6.466	V2683-02
identity-reference | self | 11	descend	Colobonema	502.3	2683	http://search.mbari.org/ARCHIVE/frameGrabs/Ventana/images/2683/01_15_46_24.jpg	36.701496	-122.04932	20004898	0.68	2005-07-11 17:31:39.5	Ventana	34.305	01:15:46:24	6.466	V2683-02
identity-reference | self | 11	descend	Colobonema	502.37	2683	http://search.mbari.org/ARCHIVE/frameGrabs/Ventana/images/2683/01_15_49_24.jpg	36.701492	-122.04932	20004899	0.68	2005-07-11 17:31:42.5	Ventana	34.305	01:15:49:24	6.466	V2683-02
identity-reference | self | 11	descend	Colobonema	502.44	2683	http://search.mbari.org/ARCHIVE/frameGrabs/Ventana/images/2683/01_16_01_24.jpg	36.70149	-122.04932	20004900	0.68	2005-07-11 17:31:54.5	Ventana	34.306	01:16:01:24	6.466	V2683-02
identity-reference | self | 11	descend	Colobonema	502.45	2683	http://search.mbari.org/ARCHIVE/frameGrabs/Ventana/images/2683/01_16_07_09.jpg	36.70149	-122.04932	20004901	0.68	2005-07-11 17:32:00.0	Ventana	34.306	01:16:07:09	6.466	V2683-02
identity-reference | self | 11	descend	Colobonema	502.45	2683	http://search.mbari.org/ARCHIVE/frameGrabs/Ventana/images/2683/01_16_08_24.jpg	36.70149	-122.04932	20004902	0.68	2005-07-11 17:32:01.5	Ventana	34.306	01:16:08:24	6.466	V2683-02
identity-reference | self | 11	descend	Colobonema	502.55	2683	http://search.mbari.org/ARCHIVE/frameGrabs/Ventana/images/2683/01_16_32_23.jpg	36.701477	-122.0493	20004903	0.68	2005-07-11 17:32:25.5	Ventana	34.306	01:16:32:23	6.465	V2683-02
identity-reference | self | 11	descend	Colobonema	502.28	2683	http://search.mbari.org/ARCHIVE/frameGrabs/Ventana/images/2683/01_16_58_22.jpg	36.70147	-122.04928	20004904	0.68	2005-07-11 17:32:51.4	Ventana	34.305	01:16:58:22	6.466	V2683-02
identity-reference | self | 11	descend	Colobonema	501.88	2683	http://search.mbari.org/ARCHIVE/frameGrabs/Ventana/images/2683/01_17_34_21.jpg	36.70147	-122.049255	20004905	0.68	2005-07-11 17:33:27.0	Ventana	34.305	01:17:34:21	6.467	V2683-02
sampled-by | Suction Sampler | nil, identity-reference | self | 11, sample-reference | self | V2683-ss2	descend	Colobonema	501.8	2683	http://search.mbari.org/ARCHIVE/frameGrabs/Ventana/images/2683/01_19_14_18.jpg	36.70145	-122.04918	20004906	0.68	2005-07-11 17:35:07.5	Ventana	34.305	01:19:14:18	6.465	V2683-02
identity-reference | self | 6	descend	Atolla wyvillei	504.95	2683	 	36.701523	-122.04918	1756844	0.68	2005-07-11 17:37:57.0	Ventana	34.305	01:22:04:04	6.462	V2683-02
population-quantity | self | 999	descend	Copepoda	518.91	2683	 	36.701458	-122.04915	1756893	0.6	2005-07-11 17:41:14.0	Ventana	34.311	01:25:20:21	6.323	V2683-02
population-quantity | self | 999	descend	Copepoda	528.29	2683	 	36.70149	-122.04914	1756916	0.56	2005-07-11 17:42:22.0	Ventana	34.319	01:26:28:05	6.262	V2683-02
population-quantity | self | 999	descend	Copepoda	529.49	2683	 	36.701496	-122.04914	1756919	0.55	2005-07-11 17:42:30.0	Ventana	34.32	01:26:35:23	6.24	V2683-02
population-quantity | self | 999	descend	Appendicularia	530.74	2683	 	36.701508	-122.04914	1756923	0.55	2005-07-11 17:42:38.0	Ventana	34.323	01:26:45:09	6.225	V2683-02
population-quantity | self | 999	descend	Copepoda	531.51	2683	 	36.70151	-122.04914	1756924	0.55	2005-07-11 17:42:42.0	Ventana	34.323	01:26:48:09	6.225	V2683-02
population-quantity | self | 999	descend	Appendicularia	536.21	2683	 	36.701565	-122.04915	1756935	0.54	2005-07-11 17:43:18.0	Ventana	34.326	01:27:24:13	6.207	V2683-02
population-quantity | self | 999	descend	Appendicularia	541.13	2683	 	36.701603	-122.04915	1756943	0.51	2005-07-11 17:43:42.0	Ventana	34.325	01:27:48:27	6.162	V2683-02
population-quantity | self | 999	descend	Appendicularia	542.08	2683	 	36.70161	-122.04915	1756944	0.51	2005-07-11 17:43:46.0	Ventana	34.325	01:27:53:01	6.162	V2683-02
population-quantity | self | 999	descend	Appendicularia	548.0	2683	 	36.70167	-122.04916	1756954	0.47	2005-07-11 17:44:17.0	Ventana	34.33	01:28:22:02	6.098	V2683-02
identity-certainty | self | maybe	descend	Myctophidae	554.57	2683	 	36.701736	-122.04916	1756959	0.45	2005-07-11 17:44:51.0	Ventana	34.339	01:28:57:27	6.065	V2683-02
population-quantity | self | 999	descend	Copepoda	558.55	2683	 	36.701775	-122.04915	1756964	0.44	2005-07-11 17:45:13.0	Ventana	34.34	01:29:19:11	6.06	V2683-02
population-quantity | self | 999	descend	Appendicularia	561.22	2683	 	36.7018	-122.04914	1756969	0.44	2005-07-11 17:45:27.0	Ventana	34.341	01:29:33:28	6.053	V2683-02
population-quantity | self | 999	descend	Copepoda	561.86	2683	 	36.701805	-122.04914	1756970	0.44	2005-07-11 17:45:31.0	Ventana	34.341	01:29:36:27	6.053	V2683-02
population-quantity | self | 999	descend	Appendicularia	564.31	2683	 	36.701824	-122.04913	1756972	0.43	2005-07-11 17:45:43.0	Ventana	34.347	01:29:49:07	6.045	V2683-02
identity-certainty | self | maybe	descend	Leuroglossus stilbius	566.55	2683	 	36.70185	-122.04913	1756976	0.43	2005-07-11 17:46:15.0	Ventana	34.344	01:30:22:24	6.04	V2683-02
population-quantity | self | 999	descend	Copepoda	573.78	2683	 	36.701878	-122.04911	1756984	0.39	2005-07-11 17:46:59.0	Ventana	34.357	01:31:05:02	5.908	V2683-02
population-quantity | self | 999	descend	Appendicularia	575.59	2683	 	36.701878	-122.0491	1756988	0.38	2005-07-11 17:47:13.0	Ventana	34.359	01:31:19:12	5.895	V2683-02
population-quantity | self | 999	descend	Appendicularia	578.62	2683	 	36.70188	-122.049095	1756990	0.37	2005-07-11 17:47:28.0	Ventana	34.364	01:31:33:26	5.868	V2683-02
population-quantity | self | 999	descend	Appendicularia	587.72	2683	 	36.70192	-122.0491	1757002	0.36	2005-07-11 17:48:18.0	Ventana	34.365	01:32:23:26	5.845	V2683-02
population-quantity | self | 999	descend	Appendicularia	592.52	2683	 	36.701923	-122.04909	1757007	0.35	2005-07-11 17:48:42.0	Ventana	34.367	01:32:47:12	5.809	V2683-02
population-quantity | self | 999	descend	Appendicularia	595.55	2683	 	36.701927	-122.04907	1757011	0.35	2005-07-11 17:48:56.0	Ventana	34.368	01:33:02:25	5.784	V2683-02
population-quantity | self | 999	descend	Appendicularia	596.97	2683	 	36.701927	-122.049065	1757012	0.35	2005-07-11 17:49:02.0	Ventana	34.368	01:33:07:18	5.784	V2683-02
identity-reference | self | 12	descend	Dosidicus gigas	616.33	2683	http://search.mbari.org/ARCHIVE/frameGrabs/Ventana/images/2683/01_34_16_20.jpg	36.701996	-122.048996	1757033	0.32	2005-07-11 17:50:10.0	Ventana	34.376	01:34:16:20	5.661	V2683-02
identity-reference | self | 12	descend	Dosidicus gigas	618.36	2683	http://search.mbari.org/ARCHIVE/frameGrabs/Ventana/images/2683/01_34_23_19.jpg	36.702003	-122.04899	20004909	0.32	2005-07-11 17:50:17.0	Ventana	34.376	01:34:23:19	5.661	V2683-02
population-quantity | self | 999	descend	Appendicularia	619.26	2683	 	36.702007	-122.04899	1757034	0.32	2005-07-11 17:50:22.0	Ventana	34.376	01:34:27:23	5.661	V2683-02
population-quantity | self | 999	descend	Appendicularia	620.14	2683	 	36.70201	-122.04899	1757035	0.32	2005-07-11 17:50:26.0	Ventana	34.373	01:34:32:26	5.631	V2683-02
population-quantity | self | 999	descend	Appendicularia	623.09	2683	 	36.70202	-122.04898	1757038	0.33	2005-07-11 17:50:39.0	Ventana	34.375	01:34:45:06	5.608	V2683-02
population-quantity | self | 999	descend	Appendicularia	625.08	2683	 	36.702026	-122.04897	1757040	0.33	2005-07-11 17:50:47.0	Ventana	34.375	01:34:52:08	5.608	V2683-02
population-quantity | self | 999	descend	Appendicularia	635.87	2683	 	36.702034	-122.04896	1757046	0.38	2005-07-11 17:51:23.0	Ventana	34.381	01:35:28:08	5.553	V2683-02
population-quantity | self | 999	descend	Appendicularia	638.34	2683	 	36.702034	-122.04896	1757047	0.38	2005-07-11 17:51:29.0	Ventana	34.381	01:35:34:19	5.553	V2683-02
population-quantity | self | 999	descend	Appendicularia	642.69	2683	 	36.70203	-122.04895	1757052	0.38	2005-07-11 17:51:39.0	Ventana	34.385	01:35:45:28	5.502	V2683-02
population-quantity | self | 999	descend	Appendicularia	646.81	2683	 	36.70203	-122.04895	1757053	0.38	2005-07-11 17:51:49.0	Ventana	34.385	01:35:55:15	5.502	V2683-02
population-quantity | self | 999	descend	Appendicularia	648.56	2683	 	36.70203	-122.04895	1757056	0.36	2005-07-11 17:51:53.0	Ventana	34.389	01:35:59:23	5.429	V2683-02
population-quantity | self | 999	descend	Appendicularia	653.71	2683	 	36.702026	-122.04895	1757058	0.36	2005-07-11 17:52:05.0	Ventana	34.389	01:36:11:09	5.429	V2683-02
population-quantity | self | 999	descend	Appendicularia	659.3	2683	 	36.702026	-122.04894	1757062	0.34	2005-07-11 17:52:19.0	Ventana	34.404	01:36:24:25	5.258	V2683-02
population-quantity | self | 999	descend	Appendicularia	683.07	2683	 	36.702038	-122.04894	1757073	0.31	2005-07-11 17:53:19.0	Ventana	34.42	01:37:24:23	5.115	V2683-02
population-quantity | self | 999	descend	Appendicularia	687.64	2683	 	36.70204	-122.04894	1757074	0.31	2005-07-11 17:53:31.0	Ventana	34.42	01:37:36:14	5.101	V2683-02
population-quantity | self | 999	descend	Appendicularia	689.29	2683	 	36.70204	-122.048935	1757076	0.31	2005-07-11 17:53:35.0	Ventana	34.42	01:37:41:22	5.101	V2683-02
population-quantity | self | 999	descend	Appendicularia	692.51	2683	 	36.702045	-122.048935	1757078	0.31	2005-07-11 17:53:43.0	Ventana	34.422	01:37:50:07	5.086	V2683-02
population-quantity | self | 999	descend	Appendicularia	697.31	2683	 	36.702065	-122.048935	1757080	0.31	2005-07-11 17:54:04.0	Ventana	34.422	01:38:09:09	5.083	V2683-02
population-quantity | self | 999	descend	Copepoda	704.95	2683	 	36.702103	-122.048935	1757088	0.31	2005-07-11 17:54:36.0	Ventana	34.422	01:38:42:08	5.071	V2683-02
population-quantity | self | 999	descend	Appendicularia	766.36	2683	 	36.70245	-122.0489	1757130	0.29	2005-07-11 17:58:31.0	Ventana	34.453	01:42:36:12	4.741	V2683-02
population-quantity | self | 999	descend	Appendicularia	771.45	2683	 	36.702477	-122.04888	1757135	0.3	2005-07-11 17:58:47.0	Ventana	34.453	01:42:52:22	4.736	V2683-02
identity-reference | self | 13	descend	Chauliodus	813.42	2683	http://search.mbari.org/ARCHIVE/frameGrabs/Ventana/images/2683/01_48_02_09.jpg	36.7027	-122.04865	20004910	0.36	2005-07-11 18:03:57.5	Ventana	34.472	01:48:02:09	4.53	V2683-02
identity-reference | self | 13	descend	Chauliodus	813.21	2683	http://search.mbari.org/ARCHIVE/frameGrabs/Ventana/images/2683/01_48_12_24.jpg	36.702705	-122.04864	20004911	0.36	2005-07-11 18:04:08.0	Ventana	34.472	01:48:12:24	4.529	V2683-02
identity-reference | self | 13	descend	Chauliodus	811.82	2683	http://search.mbari.org/ARCHIVE/frameGrabs/Ventana/images/2683/01_49_21_22.jpg	36.702724	-122.04861	20004912	0.36	2005-07-11 18:05:16.52	Ventana	34.472	01:49:21:22	4.529	V2683-02
identity-reference | self | 13	descend	Chauliodus	811.72	2683	http://search.mbari.org/ARCHIVE/frameGrabs/Ventana/images/2683/01_49_27_06.jpg	36.702724	-122.0486	20004913	0.36	2005-07-11 18:05:22.0	Ventana	34.472	01:49:27:06	4.53	V2683-02
identity-reference | self | 13	descend	Chauliodus macouni	814.38	2683	http://search.mbari.org/ARCHIVE/frameGrabs/Ventana/images/2683/01_52_16_01.jpg	36.70275	-122.048676	20004914	0.36	2005-07-11 18:08:11.0	Ventana	34.473	01:52:16:01	4.524	V2683-02
identity-reference | self | 13	descend	Chauliodus macouni	814.4	2683	http://search.mbari.org/ARCHIVE/frameGrabs/Ventana/images/2683/01_52_19_01.jpg	36.70275	-122.048676	20004915	0.36	2005-07-11 18:08:14.0	Ventana	34.473	01:52:19:01	4.524	V2683-02
identity-reference | self | 13	descend	Chauliodus macouni	814.43	2683	http://search.mbari.org/ARCHIVE/frameGrabs/Ventana/images/2683/01_52_23_16.jpg	36.70275	-122.048676	20004916	0.36	2005-07-11 18:08:18.5	Ventana	34.473	01:52:23:16	4.524	V2683-02
identity-reference | self | 13	descend	Chauliodus macouni	814.44	2683	http://search.mbari.org/ARCHIVE/frameGrabs/Ventana/images/2683/01_52_30_00.jpg	36.702747	-122.048676	20004917	0.36	2005-07-11 18:08:24.98	Ventana	34.474	01:52:30:00	4.524	V2683-02
identity-reference | self | 13	descend	Chauliodus macouni	814.4	2683	http://search.mbari.org/ARCHIVE/frameGrabs/Ventana/images/2683/01_52_33_01.jpg	36.702747	-122.04867	20004918	0.36	2005-07-11 18:08:28.0	Ventana	34.474	01:52:33:01	4.524	V2683-02
identity-reference | self | 13	descend	Chauliodus macouni	814.35	2683	http://search.mbari.org/ARCHIVE/frameGrabs/Ventana/images/2683/01_52_37_16.jpg	36.702747	-122.04867	20004919	0.36	2005-07-11 18:08:32.53	Ventana	34.474	01:52:37:16	4.524	V2683-02
identity-reference | self | 13	descend	Chauliodus macouni	814.23	2683	http://search.mbari.org/ARCHIVE/frameGrabs/Ventana/images/2683/01_52_48_15.jpg	36.702744	-122.04867	20004920	0.36	2005-07-11 18:08:43.5	Ventana	34.475	01:52:48:15	4.521	V2683-02
identity-reference | self | 13	descend	Chauliodus macouni	814.19	2683	http://search.mbari.org/ARCHIVE/frameGrabs/Ventana/images/2683/01_52_51_00.jpg	36.70274	-122.04867	20004921	0.36	2005-07-11 18:08:46.0	Ventana	34.475	01:52:51:00	4.521	V2683-02
identity-reference | self | 13, image-quality | self | good, perspective | self | close-up	descend	Chauliodus macouni	814.1	2683	http://search.mbari.org/ARCHIVE/frameGrabs/Ventana/images/2683/01_52_57_15.jpg	36.70274	-122.04866	20004922	0.36	2005-07-11 18:08:52.5	Ventana	34.475	01:52:57:15	4.521	V2683-02
identity-reference | self | 13, image-quality | self | good, perspective | self | close-up	descend	Chauliodus macouni	814.05	2683	http://search.mbari.org/ARCHIVE/frameGrabs/Ventana/images/2683/01_53_04_00.jpg	36.702736	-122.04866	20004923	0.36	2005-07-11 18:08:59.01	Ventana	34.472	01:53:04:00	4.524	V2683-02
identity-reference | self | 13, image-quality | self | good	descend	Chauliodus macouni	813.06	2683	http://search.mbari.org/ARCHIVE/frameGrabs/Ventana/images/2683/01_55_41_10.jpg	36.70275	-122.048615	20004924	0.36	2005-07-11 18:11:36.5	Ventana	34.473	01:55:41:10	4.522	V2683-02
identity-reference | self | 13, image-quality | self | good, perspective | self | close-up	descend	Chauliodus macouni	812.9	2683	http://search.mbari.org/ARCHIVE/frameGrabs/Ventana/images/2683/01_55_46_24.jpg	36.70275	-122.04862	20004925	0.36	2005-07-11 18:11:42.0	Ventana	34.472	01:55:46:24	4.522	V2683-02
identity-reference | self | 13, image-quality | self | good, perspective | self | close-up	descend	Chauliodus macouni	812.73	2683	http://search.mbari.org/ARCHIVE/frameGrabs/Ventana/images/2683/01_55_58_09.jpg	36.702747	-122.04862	20004926	0.36	2005-07-11 18:11:53.5	Ventana	34.473	01:55:58:09	4.522	V2683-02
identity-reference | self | 13, image-quality | self | good, perspective | self | close-up	descend	Chauliodus macouni	812.51	2683	http://search.mbari.org/ARCHIVE/frameGrabs/Ventana/images/2683/01_56_06_24.jpg	36.702744	-122.04863	20004927	0.36	2005-07-11 18:12:02.0	Ventana	34.473	01:56:06:24	4.522	V2683-02
identity-reference | self | 13, image-quality | self | good, perspective | self | close-up	descend	Chauliodus macouni	812.23	2683	http://search.mbari.org/ARCHIVE/frameGrabs/Ventana/images/2683/01_56_21_23.jpg	36.702744	-122.04863	20004928	0.36	2005-07-11 18:12:17.0	Ventana	34.473	01:56:21:23	4.522	V2683-02
identity-reference | self | 13, image-quality | self | good, perspective | self | close-up	descend	Chauliodus macouni	811.57	2683	http://search.mbari.org/ARCHIVE/frameGrabs/Ventana/images/2683/01_57_14_22.jpg	36.70273	-122.048645	20004929	0.36	2005-07-11 18:13:09.52	Ventana	34.472	01:57:14:22	4.523	V2683-02
identity-reference | self | 13, image-quality | self | good, perspective | self | close-up	descend	Chauliodus macouni	810.58	2683	http://search.mbari.org/ARCHIVE/frameGrabs/Ventana/images/2683/01_58_50_04.jpg	36.702705	-122.04863	20004930	0.36	2005-07-11 18:14:45.5	Ventana	34.472	01:58:50:04	4.523	V2683-02
identity-reference | self | 13	descend	Chauliodus macouni	814.4	2683	http://search.mbari.org/ARCHIVE/frameGrabs/Ventana/images/2683/01_52_19_13.jpg	36.70275	-122.048676	1757179	0.36	2005-07-11 18:08:14.0	Ventana	34.473	01:52:19:13	4.524	V2683-02
identity-reference | self | 13, image-quality | self | good, perspective | self | close-up	descend	Chauliodus macouni	814.1	2683	http://search.mbari.org/ARCHIVE/frameGrabs/Ventana/images/2683/01_52_56_10.jpg	36.70274	-122.04866	1757180	0.36	2005-07-11 18:08:52.0	Ventana	34.475	01:52:56:10	4.521	V2683-02
identity-reference | self | 13, image-quality | self | good, perspective | self | close-up	descend	Chauliodus macouni	812.56	2683	http://search.mbari.org/ARCHIVE/frameGrabs/Ventana/images/2683/01_56_03_05.jpg	36.702747	-122.04863	1757186	0.36	2005-07-11 18:11:59.0	Ventana	34.473	01:56:03:05	4.522	V2683-02
identity-reference | self | 13, image-quality | self | good, perspective | self | close-up	descend	Chauliodus macouni	812.27	2683	http://search.mbari.org/ARCHIVE/frameGrabs/Ventana/images/2683/01_56_20_14.jpg	36.702744	-122.04863	1757187	0.36	2005-07-11 18:12:15.0	Ventana	34.473	01:56:20:14	4.522	V2683-02
identity-reference | self | 13, image-quality | self | good, perspective | self | close-up	descend	Chauliodus macouni	810.75	2683	http://search.mbari.org/ARCHIVE/frameGrabs/Ventana/images/2683/01_58_38_24.jpg	36.702705	-122.04863	1757188	0.37	2005-07-11 18:14:34.0	Ventana	34.471	01:58:38:24	4.524	V2683-02
identity-reference | self | 13, image-quality | self | good, perspective | self | close-up	descend	Chauliodus macouni	810.58	2683	http://search.mbari.org/ARCHIVE/frameGrabs/Ventana/images/2683/01_58_50_27.jpg	36.702705	-122.04863	1757189	0.36	2005-07-11 18:14:46.0	Ventana	34.472	01:58:50:27	4.523	V2683-02
identity-reference | self | 14	descend	Periphylla periphylla	835.0	2683	http://search.mbari.org/ARCHIVE/frameGrabs/Ventana/images/2683/02_02_38_09.jpg	36.70276	-122.04861	1757207	0.33	2005-07-11 18:18:33.0	Ventana	34.479	02:02:38:09	4.453	V2683-02
identity-reference | self | 14, sampled-by | Detritus Sampler | nil, sample-reference | self | V2583-d3	descend	Periphylla periphylla	834.78	2683	http://search.mbari.org/ARCHIVE/frameGrabs/Ventana/images/2683/02_03_54_09.jpg	36.702766	-122.04855	20004931	0.33	2005-07-11 18:19:49.49	Ventana	34.479	02:03:54:09	4.456	V2683-02
identity-reference | self | 15	descend	ink	836.29	2683	 	36.702766	-122.04854	1757209	0.33	2005-07-11 18:20:07.0	Ventana	34.476	02:04:11:11	4.458	V2683-02
identity-reference | self | 15	descend	ink	835.76	2683	http://search.mbari.org/ARCHIVE/frameGrabs/Ventana/images/2683/02_04_58_23.jpg	36.702766	-122.04853	20004932	0.33	2005-07-11 18:20:55.03	Ventana	34.48	02:04:58:23	4.443	V2683-02
identity-reference | self | 15	descend	ink	835.76	2683	http://search.mbari.org/ARCHIVE/frameGrabs/Ventana/images/2683/02_05_06_07.jpg	36.702766	-122.04853	20004933	0.33	2005-07-11 18:21:02.0	Ventana	34.48	02:05:06:07	4.443	V2683-02
identity-reference | self | 15	descend	ink	834.76	2683	http://search.mbari.org/ARCHIVE/frameGrabs/Ventana/images/2683/02_06_07_05.jpg	36.702778	-122.04852	20004934	0.33	2005-07-11 18:22:03.0	Ventana	34.482	02:06:07:05	4.439	V2683-02
identity-reference | self | 15	descend	ink	834.34	2683	http://search.mbari.org/ARCHIVE/frameGrabs/Ventana/images/2683/02_06_23_20.jpg	36.70278	-122.048515	20004935	0.33	2005-07-11 18:22:19.5	Ventana	34.482	02:06:23:20	4.439	V2683-02
identity-certainty | self | maybe	descend	Salpida	899.83	2683	 	36.70329	-122.048325	1757260	0.37	2005-07-11 18:32:15.0	Ventana	34.496	02:12:38:27	4.252	V2683-03
population-quantity | self | 2	descend	Bathylagus milleri	904.05	2683	http://search.mbari.org/ARCHIVE/frameGrabs/Ventana/images/2683/02_13_38_29.jpg	36.70333	-122.04833	20004936	0.38	2005-07-11 18:33:14.0	Ventana	34.501	02:13:38:29	4.229	V2683-03
population-quantity | self | 2	descend	Bathylagus milleri	904.14	2683	http://search.mbari.org/ARCHIVE/frameGrabs/Ventana/images/2683/02_13_46_14.jpg	36.703335	-122.04833	20004937	0.38	2005-07-11 18:33:21.5	Ventana	34.501	02:13:46:14	4.229	V2683-03
population-quantity | self | 2	descend	Bathylagus milleri	904.2	2683	http://search.mbari.org/ARCHIVE/frameGrabs/Ventana/images/2683/02_14_51_27.jpg	36.70336	-122.048325	20004938	0.38	2005-07-11 18:34:27.5	Ventana	34.501	02:14:51:27	4.222	V2683-03
identity-reference | self | 16	descend	Bathylagus milleri	905.39	2683	http://search.mbari.org/ARCHIVE/frameGrabs/Ventana/images/2683/02_18_41_20.jpg	36.703423	-122.04832	20004941	0.38	2005-07-11 18:38:17.5	Ventana	34.502	02:18:41:20	4.224	V2683-03
identity-reference | self | 16	descend	Bathylagus milleri	905.17	2683	http://search.mbari.org/ARCHIVE/frameGrabs/Ventana/images/2683/02_19_07_19.jpg	36.70346	-122.04832	20004942	0.38	2005-07-11 18:38:43.5	Ventana	34.501	02:19:07:19	4.22	V2683-03
identity-reference | self | 16	descend	Bathylagus milleri	905.15	2683	http://search.mbari.org/ARCHIVE/frameGrabs/Ventana/images/2683/02_19_14_19.jpg	36.703476	-122.04832	20004943	0.38	2005-07-11 18:38:50.5	Ventana	34.501	02:19:14:19	4.22	V2683-03
identity-reference | self | 16	descend	Bathylagus milleri	905.16	2683	http://search.mbari.org/ARCHIVE/frameGrabs/Ventana/images/2683/02_20_01_03.jpg	36.70352	-122.0483	20004944	0.38	2005-07-11 18:39:36.52	Ventana	34.501	02:20:01:03	4.218	V2683-03
identity-reference | self | 16, population-quantity | self | 2	descend	Bathylagus milleri	904.03	2683	http://search.mbari.org/ARCHIVE/frameGrabs/Ventana/images/2683/02_15_15_11.jpg	36.703365	-122.04833	20004939	0.38	2005-07-11 18:34:50.98	Ventana	34.501	02:15:15:11	4.222	V2683-03
identity-reference | self | 17	descend	Nemichthyidae	926.84	2683	http://search.mbari.org/ARCHIVE/frameGrabs/Ventana/images/2683/02_36_21_17.jpg	36.70359	-122.04857	20004951	0.38	2005-07-11 18:55:58.0	Ventana	34.504	02:36:21:17	4.194	V2683-03
identity-reference | self | 17	descend	Nemichthyidae	926.54	2683	http://search.mbari.org/ARCHIVE/frameGrabs/Ventana/images/2683/02_36_32_01.jpg	36.703594	-122.04857	20004952	0.38	2005-07-11 18:56:08.47	Ventana	34.504	02:36:32:01	4.195	V2683-03
identity-reference | self | 17	descend	Nemichthyidae	926.05	2683	http://search.mbari.org/ARCHIVE/frameGrabs/Ventana/images/2683/02_36_49_16.jpg	36.70359	-122.04857	20004953	0.38	2005-07-11 18:56:26.0	Ventana	34.504	02:36:49:16	4.195	V2683-03
identity-reference | self | 17	descend	Nemichthyidae	925.17	2683	http://search.mbari.org/ARCHIVE/frameGrabs/Ventana/images/2683/02_37_20_15.jpg	36.703583	-122.04857	20004954	0.38	2005-07-11 18:56:57.0	Ventana	34.504	02:37:20:15	4.194	V2683-03
identity-reference | self | 17	descend	Nemichthyidae	924.77	2683	http://search.mbari.org/ARCHIVE/frameGrabs/Ventana/images/2683/02_37_37_14.jpg	36.70357	-122.04856	20004955	0.38	2005-07-11 18:57:15.0	Ventana	34.504	02:37:37:14	4.194	V2683-03
identity-reference | self | 17	descend	Nemichthyidae	924.2	2683	http://search.mbari.org/ARCHIVE/frameGrabs/Ventana/images/2683/02_37_59_29.jpg	36.703552	-122.04854	20004956	0.38	2005-07-11 18:57:37.0	Ventana	34.504	02:37:59:29	4.194	V2683-03
identity-reference | self | 17	descend	Nemichthyidae	923.88	2683	http://search.mbari.org/ARCHIVE/frameGrabs/Ventana/images/2683/02_38_13_13.jpg	36.703552	-122.04854	20004957	0.38	2005-07-11 18:57:50.49	Ventana	34.504	02:38:13:13	4.194	V2683-03
identity-reference | self | 17	descend	Nemichthyidae	923.69	2683	http://search.mbari.org/ARCHIVE/frameGrabs/Ventana/images/2683/02_38_20_28.jpg	36.703556	-122.04854	20004958	0.38	2005-07-11 18:57:58.0	Ventana	34.504	02:38:20:28	4.194	V2683-03
identity-reference | self | 17	descend	Nemichthyidae	923.03	2683	http://search.mbari.org/ARCHIVE/frameGrabs/Ventana/images/2683/02_38_53_13.jpg	36.703583	-122.04855	20004959	0.38	2005-07-11 18:58:30.53	Ventana	34.505	02:38:53:13	4.195	V2683-03
identity-reference | self | 17	descend	Nemichthyidae	922.4	2683	http://search.mbari.org/ARCHIVE/frameGrabs/Ventana/images/2683/02_39_25_27.jpg	36.7036	-122.04856	20004960	0.38	2005-07-11 18:59:02.5	Ventana	34.504	02:39:25:27	4.195	V2683-03
identity-reference | self | 17	descend	Nemichthyidae	922.3	2683	http://search.mbari.org/ARCHIVE/frameGrabs/Ventana/images/2683/02_39_37_27.jpg	36.70361	-122.04857	20004961	0.38	2005-07-11 18:59:14.53	Ventana	34.503	02:39:37:27	4.196	V2683-03
identity-reference | self | 17	descend	Nemichthyidae	922.22	2683	http://search.mbari.org/ARCHIVE/frameGrabs/Ventana/images/2683/02_39_43_26.jpg	36.70361	-122.04857	20004962	0.38	2005-07-11 18:59:20.5	Ventana	34.503	02:39:43:26	4.196	V2683-03
identity-reference | self | 17	descend	Nemichthyidae	921.75	2683	http://search.mbari.org/ARCHIVE/frameGrabs/Ventana/images/2683/02_40_17_10.jpg	36.703617	-122.04857	20004963	0.38	2005-07-11 18:59:54.0	Ventana	34.503	02:40:17:10	4.197	V2683-03
identity-reference | self | 17	descend	Nemichthyidae	920.23	2683	http://search.mbari.org/ARCHIVE/frameGrabs/Ventana/images/2683/02_41_35_23.jpg	36.703644	-122.04856	20004964	0.38	2005-07-11 19:01:13.01	Ventana	34.503	02:41:35:23	4.196	V2683-03
identity-reference | self | 17	descend	Nemichthyidae	919.99	2683	http://search.mbari.org/ARCHIVE/frameGrabs/Ventana/images/2683/02_41_45_22.jpg	36.703648	-122.04857	20004965	0.38	2005-07-11 19:01:23.0	Ventana	34.504	02:41:45:22	4.196	V2683-03
identity-reference | self | 17	descend	Nemichthyidae	919.89	2683	http://search.mbari.org/ARCHIVE/frameGrabs/Ventana/images/2683/02_41_55_22.jpg	36.703648	-122.04857	20004966	0.38	2005-07-11 19:01:33.0	Ventana	34.504	02:41:55:22	4.196	V2683-03
identity-reference | self | 17	descend	Nemichthyidae	919.42	2683	http://search.mbari.org/ARCHIVE/frameGrabs/Ventana/images/2683/02_42_22_06.jpg	36.70365	-122.04857	20004967	0.38	2005-07-11 19:01:59.5	Ventana	34.504	02:42:22:06	4.195	V2683-03
identity-reference | self | 17	descend	Nemichthyidae	919.22	2683	http://search.mbari.org/ARCHIVE/frameGrabs/Ventana/images/2683/02_42_32_06.jpg	36.70365	-122.04858	20004968	0.38	2005-07-11 19:02:09.21	Ventana	34.504	02:42:32:06	4.195	V2683-03
identity-reference | self | 17	descend	Nemichthyidae	919.09	2683	http://search.mbari.org/ARCHIVE/frameGrabs/Ventana/images/2683/02_42_38_06.jpg	36.70365	-122.04858	20004969	0.38	2005-07-11 19:02:15.01	Ventana	34.504	02:42:38:06	4.195	V2683-03
identity-reference | self | 17	descend	Nemichthyidae	918.92	2683	http://search.mbari.org/ARCHIVE/frameGrabs/Ventana/images/2683/02_42_49_05.jpg	36.703655	-122.048584	20004970	0.38	2005-07-11 19:02:26.0	Ventana	34.504	02:42:49:05	4.194	V2683-03
identity-reference | self | 17	descend	Nemichthyidae	918.76	2683	http://search.mbari.org/ARCHIVE/frameGrabs/Ventana/images/2683/02_42_57_05.jpg	36.703655	-122.048584	20004971	0.38	2005-07-11 19:02:34.0	Ventana	34.504	02:42:57:05	4.194	V2683-03
identity-reference | self | 17	descend	Nemichthyidae	918.41	2683	http://search.mbari.org/ARCHIVE/frameGrabs/Ventana/images/2683/02_43_17_05.jpg	36.703667	-122.04859	20004972	0.38	2005-07-11 19:02:54.0	Ventana	34.504	02:43:17:05	4.194	V2683-03
identity-reference | self | 17	descend	Nemichthyidae	918.37	2683	http://search.mbari.org/ARCHIVE/frameGrabs/Ventana/images/2683/02_43_20_04.jpg	36.703667	-122.04859	20004973	0.38	2005-07-11 19:02:57.0	Ventana	34.504	02:43:20:04	4.194	V2683-03
identity-reference | self | 17	descend	Nemichthyidae	917.79	2683	http://search.mbari.org/ARCHIVE/frameGrabs/Ventana/images/2683/02_44_02_18.jpg	36.70367	-122.0486	20004974	0.38	2005-07-11 19:03:40.25	Ventana	34.502	02:44:02:18	4.196	V2683-03
identity-reference | self | 17	descend	Nemichthyidae	917.55	2683	http://search.mbari.org/ARCHIVE/frameGrabs/Ventana/images/2683/02_44_31_17.jpg	36.70367	-122.048615	20004975	0.38	2005-07-11 19:04:09.0	Ventana	34.504	02:44:31:17	4.194	V2683-03
identity-reference | self | 17	descend	Nemichthyidae	919.22	2683	http://search.mbari.org/ARCHIVE/frameGrabs/Ventana/images/2683/02_42_32_10.jpg	36.70365	-122.04858	1757294	0.38	2005-07-11 19:02:10.0	Ventana	34.504	02:42:32:10	4.195	V2683-03
identity-reference | self | 17	descend	Nemichthyidae	917.55	2683	http://search.mbari.org/ARCHIVE/frameGrabs/Ventana/images/2683/02_44_31_23.jpg	36.70367	-122.048615	1757295	0.38	2005-07-11 19:04:09.0	Ventana	34.504	02:44:31:23	4.194	V2683-03
population-quantity | self | 999	descend	Copepoda	943.43	2683	 	36.70378	-122.048584	1757323	0.4	2005-07-11 19:09:02.0	Ventana	34.511	02:49:23:26	4.112	V2683-03
population-quantity | self | 999	descend	Appendicularia	1021.68	2683	 	36.70465	-122.049576	1757404	0.44	2005-07-11 19:23:28.0	Ventana	34.521	03:03:50:01	3.968	V2683-03
population-quantity | self | 999	descend	Copepoda	1027.84	2683	 	36.70472	-122.04948	1757405	0.45	2005-07-11 19:23:45.0	Ventana	34.524	03:04:05:21	3.943	V2683-03
population-quantity | self | 999	descend	Copepoda	1054.3	2683	 	36.705	-122.04907	1757423	0.49	2005-07-11 19:25:27.0	Ventana	34.532	03:05:49:09	3.846	V2683-03
identity-certainty | self | maybe	cruise	Pennatulacea	1239.42	2683	 	36.7059	-122.04815	1757521	0.73	2005-07-11 19:46:57.0	Ventana	34.573	03:21:21:21	3.337	V2683-04
life-stage | self | juvenile	cruise	Poralia rufescens	1237.87	2683	 	36.705696	-122.04813	1757524	0.73	2005-07-11 19:47:44.0	Ventana	34.575	03:22:07:09	3.342	V2683-04
identity-certainty | self | maybe	cruise	Chionoecetes tanneri	1238.78	2683	 	36.70566	-122.04808	1757526	0.74	2005-07-11 19:48:24.0	Ventana	34.58	03:22:46:28	3.333	V2683-04
identity-reference | self | 1	cruise	Crossota	1228.61	2683	 	36.705833	-122.04785	1757562	0.74	2005-07-11 19:53:31.0	Ventana	34.575	03:27:55:22	3.324	V2683-04
identity-reference | self | 1	cruise	Crossota	1228.98	2683	http://search.mbari.org/ARCHIVE/frameGrabs/Ventana/images/2683/03_28_15_13.jpg	36.705845	-122.04786	20004979	0.74	2005-07-11 19:53:52.0	Ventana	34.576	03:28:15:13	3.319	V2683-04
identity-reference | self | 1	cruise	Crossota	1228.92	2683	http://search.mbari.org/ARCHIVE/frameGrabs/Ventana/images/2683/03_28_20_28.jpg	36.705845	-122.04786	20004980	0.74	2005-07-11 19:53:57.5	Ventana	34.578	03:28:20:28	3.319	V2683-04
identity-reference | self | 1	cruise	Crossota	1228.89	2683	http://search.mbari.org/ARCHIVE/frameGrabs/Ventana/images/2683/03_28_26_12.jpg	36.70585	-122.04785	20004981	0.74	2005-07-11 19:54:03.0	Ventana	34.578	03:28:26:12	3.319	V2683-04
identity-reference | self | 1	cruise	Crossota	1228.2	2683	http://search.mbari.org/ARCHIVE/frameGrabs/Ventana/images/2683/03_29_23_11.jpg	36.70583	-122.04782	20004982	0.73	2005-07-11 19:55:00.0	Ventana	34.575	03:29:23:11	3.329	V2683-04
identity-reference | self | 1	cruise	Crossota	1228.1	2683	http://search.mbari.org/ARCHIVE/frameGrabs/Ventana/images/2683/03_29_30_10.jpg	36.705826	-122.04782	20004983	0.73	2005-07-11 19:55:06.98	Ventana	34.575	03:29:30:10	3.329	V2683-04
identity-reference | self | 1	cruise	Crossota	1227.71	2683	http://search.mbari.org/ARCHIVE/frameGrabs/Ventana/images/2683/03_29_36_25.jpg	36.705826	-122.04782	20004984	0.73	2005-07-11 19:55:13.5	Ventana	34.574	03:29:36:25	3.336	V2683-04
identity-reference | self | 1	cruise	Crossota	1227.7	2683	http://search.mbari.org/ARCHIVE/frameGrabs/Ventana/images/2683/03_29_51_10.jpg	36.70582	-122.04781	20004985	0.73	2005-07-11 19:55:27.5	Ventana	34.575	03:29:51:10	3.336	V2683-04
identity-reference | self | 1	cruise	Crossota	1227.51	2683	http://search.mbari.org/ARCHIVE/frameGrabs/Ventana/images/2683/03_30_01_10.jpg	36.705814	-122.047806	20004986	0.73	2005-07-11 19:55:37.53	Ventana	34.572	03:30:01:10	3.342	V2683-04
identity-reference | self | 2	cruise	Crossota	1231.4	2683	http://search.mbari.org/ARCHIVE/frameGrabs/Ventana/images/2683/03_31_02_22.jpg	36.705826	-122.047775	20004987	0.74	2005-07-11 19:56:38.98	Ventana	34.58	03:31:02:22	3.315	V2683-04
identity-reference | self | 2	cruise	Crossota	1231.72	2683	http://search.mbari.org/ARCHIVE/frameGrabs/Ventana/images/2683/03_31_06_23.jpg	36.70583	-122.047775	20004988	0.74	2005-07-11 19:56:43.01	Ventana	34.58	03:31:06:23	3.315	V2683-04
identity-reference | self | 2	cruise	Crossota	1231.83	2683	http://search.mbari.org/ARCHIVE/frameGrabs/Ventana/images/2683/03_31_14_22.jpg	36.705833	-122.04777	20004989	0.74	2005-07-11 19:56:51.0	Ventana	34.58	03:31:14:22	3.315	V2683-04
population-quantity | self | 3	cruise	Chionoecetes tanneri	1223.62	2683	http://search.mbari.org/ARCHIVE/frameGrabs/Ventana/images/2683/03_33_40_02.jpg	36.706043	-122.04777	20004990	0.73	2005-07-11 19:59:16.46	Ventana	34.577	03:33:40:02	3.33	V2683-04
identity-reference | self | 3	cruise	Crossota	1223.39	2683	http://search.mbari.org/ARCHIVE/frameGrabs/Ventana/images/2683/03_34_03_02.jpg	36.706078	-122.04777	20004991	0.73	2005-07-11 19:59:39.5	Ventana	34.575	03:34:03:02	3.333	V2683-04
identity-reference | self | 3	cruise	Crossota	1223.15	2683	http://search.mbari.org/ARCHIVE/frameGrabs/Ventana/images/2683/03_34_09_02.jpg	36.70609	-122.04777	20004992	0.73	2005-07-11 19:59:45.5	Ventana	34.575	03:34:09:02	3.333	V2683-04
identity-reference | self | 3	cruise	Crossota	1223.1	2683	http://search.mbari.org/ARCHIVE/frameGrabs/Ventana/images/2683/03_34_14_17.jpg	36.706097	-122.04776	20004993	0.73	2005-07-11 19:59:51.0	Ventana	34.575	03:34:14:17	3.333	V2683-04
identity-reference | self | 4	cruise	Crossota	1220.48	2683	http://search.mbari.org/ARCHIVE/frameGrabs/Ventana/images/2683/03_36_54_26.jpg	36.70622	-122.04771	20004994	0.73	2005-07-11 20:02:31.47	Ventana	34.575	03:36:54:26	3.341	V2683-04
identity-reference | self | 4	cruise	Crossota	1220.57	2683	http://search.mbari.org/ARCHIVE/frameGrabs/Ventana/images/2683/03_36_59_11.jpg	36.706223	-122.04771	20004995	0.73	2005-07-11 20:02:36.0	Ventana	34.575	03:36:59:11	3.341	V2683-04
identity-reference | self | 4	cruise	Crossota	1220.67	2683	http://search.mbari.org/ARCHIVE/frameGrabs/Ventana/images/2683/03_37_02_26.jpg	36.706226	-122.0477	20004996	0.73	2005-07-11 20:02:39.47	Ventana	34.575	03:37:02:26	3.336	V2683-04
sampled-by | Suction Sampler | nil, identity-reference | self | 4	cruise	Crossota	1220.15	2683	http://search.mbari.org/ARCHIVE/frameGrabs/Ventana/images/2683/03_37_46_10.jpg	36.70626	-122.04767	20004997	0.72	2005-07-11 20:03:23.0	Ventana	34.575	03:37:46:10	3.348	V2683-04
identity-reference | self | 5	cruise	Crossota	1221.83	2683	http://search.mbari.org/ARCHIVE/frameGrabs/Ventana/images/2683/03_39_38_07.jpg	36.706287	-122.047585	20004998	0.73	2005-07-11 20:05:15.42	Ventana	34.575	03:39:38:07	3.333	V2683-04
identity-reference | self | 5	cruise	Crossota	1221.83	2683	http://search.mbari.org/ARCHIVE/frameGrabs/Ventana/images/2683/03_39_47_06.jpg	36.706287	-122.047585	20004999	0.73	2005-07-11 20:05:24.0	Ventana	34.576	03:39:47:06	3.334	V2683-04
identity-reference | self | 5	cruise	Crossota	1221.21	2683	http://search.mbari.org/ARCHIVE/frameGrabs/Ventana/images/2683/03_40_00_06.jpg	36.70629	-122.047585	20005000	0.73	2005-07-11 20:05:37.0	Ventana	34.576	03:40:00:06	3.334	V2683-04
identity-reference | self | 5	cruise	Crossota	1220.65	2683	http://search.mbari.org/ARCHIVE/frameGrabs/Ventana/images/2683/03_40_27_05.jpg	36.706284	-122.04758	20005001	0.72	2005-07-11 20:06:04.0	Ventana	34.574	03:40:27:05	3.35	V2683-04
identity-reference | self | 5	cruise	Crossota	1220.71	2683	http://search.mbari.org/ARCHIVE/frameGrabs/Ventana/images/2683/03_40_34_20.jpg	36.706276	-122.04757	20005002	0.72	2005-07-11 20:06:11.5	Ventana	34.573	03:40:34:20	3.353	V2683-04
identity-reference | self | 6	cruise	Crossota	1221.66	2683	http://search.mbari.org/ARCHIVE/frameGrabs/Ventana/images/2683/03_41_15_04.jpg	36.70625	-122.04756	20005003	0.72	2005-07-11 20:06:52.01	Ventana	34.572	03:41:15:04	3.352	V2683-04
identity-reference | self | 6	cruise	Crossota	1221.77	2683	http://search.mbari.org/ARCHIVE/frameGrabs/Ventana/images/2683/03_41_18_19.jpg	36.70625	-122.047554	20005004	0.72	2005-07-11 20:06:55.53	Ventana	34.572	03:41:18:19	3.352	V2683-04
identity-reference | self | 7	cruise	Crossota	1214.53	2683	http://search.mbari.org/ARCHIVE/frameGrabs/Ventana/images/2683/03_45_11_26.jpg	36.706524	-122.04768	20005006	0.73	2005-07-11 20:10:49.47	Ventana	34.575	03:45:11:26	3.33	V2683-04
identity-reference | self | 7	cruise	Crossota	1213.76	2683	http://search.mbari.org/ARCHIVE/frameGrabs/Ventana/images/2683/03_45_22_11.jpg	36.706547	-122.0477	20005007	0.73	2005-07-11 20:11:00.0	Ventana	34.574	03:45:22:11	3.332	V2683-04
identity-reference | self | 7	cruise	Crossota	1213.8	2683	http://search.mbari.org/ARCHIVE/frameGrabs/Ventana/images/2683/03_45_36_11.jpg	36.706573	-122.0477	20005008	0.73	2005-07-11 20:11:14.0	Ventana	34.574	03:45:36:11	3.332	V2683-04
identity-reference | self | 7	cruise	Crossota	1213.8	2683	http://search.mbari.org/ARCHIVE/frameGrabs/Ventana/images/2683/03_45_45_25.jpg	36.70658	-122.04769	20005009	0.73	2005-07-11 20:11:23.47	Ventana	34.576	03:45:45:25	3.342	V2683-04
identity-certainty | self | maybe	cruise	Llyria	1208.57	2683	 	36.706852	-122.047615	1757659	0.72	2005-07-11 20:13:48.0	Ventana	34.573	03:48:10:02	3.349	V2683-04
identity-reference | self | 8	cruise	Crossota	1207.04	2683	 	36.707138	-122.047676	1757681	0.72	2005-07-11 20:17:27.0	Ventana	34.574	03:51:48:21	3.354	V2683-04
sampled-by | Suction Sampler | nil, identity-reference | self | 8	cruise	Crossota	1205.27	2683	http://search.mbari.org/ARCHIVE/frameGrabs/Ventana/images/2683/03_52_59_28.jpg	36.707077	-122.04763	20005011	0.72	2005-07-11 20:18:37.5	Ventana	34.574	03:52:59:28	3.355	V2683-04
identity-reference | self | 9, life-stage | self | juvenile	cruise	Poralia rufescens	1205.25	2683	http://search.mbari.org/ARCHIVE/frameGrabs/Ventana/images/2683/03_54_19_25.jpg	36.707157	-122.04765	20005012	0.72	2005-07-11 20:19:57.5	Ventana	34.573	03:54:19:25	3.355	V2683-04
identity-reference | self | 9, life-stage | self | juvenile	cruise	Poralia rufescens	1205.22	2683	http://search.mbari.org/ARCHIVE/frameGrabs/Ventana/images/2683/03_54_25_10.jpg	36.707172	-122.04765	20005013	0.72	2005-07-11 20:20:03.5	Ventana	34.573	03:54:25:10	3.355	V2683-04
identity-reference | self | 9, life-stage | self | juvenile	cruise	Poralia rufescens	1205.27	2683	http://search.mbari.org/ARCHIVE/frameGrabs/Ventana/images/2683/03_54_28_10.jpg	36.707176	-122.04765	20005014	0.72	2005-07-11 20:20:06.5	Ventana	34.573	03:54:28:10	3.355	V2683-04
identity-reference | self | 9, life-stage | self | juvenile	cruise	Poralia rufescens	1205.35	2683	http://search.mbari.org/ARCHIVE/frameGrabs/Ventana/images/2683/03_54_36_10.jpg	36.707188	-122.04766	20005015	0.72	2005-07-11 20:20:14.52	Ventana	34.573	03:54:36:10	3.355	V2683-04
identity-reference | self | 9, life-stage | self | juvenile	cruise	Poralia rufescens	1205.43	2683	http://search.mbari.org/ARCHIVE/frameGrabs/Ventana/images/2683/03_54_40_09.jpg	36.70719	-122.04766	20005016	0.72	2005-07-11 20:20:18.47	Ventana	34.573	03:54:40:09	3.355	V2683-04
identity-reference | self | 9, life-stage | self | juvenile	cruise	Poralia rufescens	1205.46	2683	http://search.mbari.org/ARCHIVE/frameGrabs/Ventana/images/2683/03_54_44_24.jpg	36.707195	-122.04766	20005017	0.72	2005-07-11 20:20:22.98	Ventana	34.573	03:54:44:24	3.355	V2683-04
life-stage | self | gravid, free-swimming | nil | nil	ascend	Appendicularia	1178.02	2683	 	36.707245	-122.04799	1757715	0.71	2005-07-11 20:25:55.0	Ventana	34.569	04:00:17:01	3.398	V2683-04
population-quantity | self | 999	ascend	Copepoda	1168.52	2683	 	36.707253	-122.04848	1757735	0.7	2005-07-11 20:29:38.0	Ventana	34.568	04:04:00:15	3.406	V2683-04
population-quantity | self | 999	ascend	Copepoda	1170.14	2683	 	36.707394	-122.04864	1757740	0.7	2005-07-11 20:30:13.0	Ventana	34.569	04:04:34:00	3.406	V2683-04
surface-color | self | red	ascend	Aegina	1165.63	2683	 	36.707775	-122.048805	1757750	0.7	2005-07-11 20:32:43.0	Ventana	34.569	04:07:04:09	3.403	V2683-04
identity-certainty | self | maybe	ascend	Llyria	1155.46	2683	 	36.708015	-122.04885	1757758	0.69	2005-07-11 20:35:00.0	Ventana	34.569	04:09:21:11	3.416	V2683-04
population-quantity | self | 999	ascend	Copepoda	1131.39	2683	 	36.70803	-122.04913	1757782	0.65	2005-07-11 20:41:16.0	Ventana	34.559	04:15:37:02	3.544	V2683-04
relative-size | self | large	ascend	Amphipoda	1129.23	2683	 	36.70801	-122.049126	1757783	0.64	2005-07-11 20:41:28.0	Ventana	34.557	04:15:47:16	3.57	V2683-04
identity-reference | self | 10	ascend	Coryphaenoides acrolepis	1083.53	2683	http://search.mbari.org/ARCHIVE/frameGrabs/Ventana/images/2683/04_19_31_23.jpg	36.70766	-122.04912	1757802	0.57	2005-07-11 20:45:11.0	Ventana	34.545	04:19:31:23	3.696	V2683-04
feeding-association-parasitized-by | Poecilochaetidae | nil, identity-reference | self | 10	ascend	Coryphaenoides acrolepis	1080.82	2683	http://search.mbari.org/ARCHIVE/frameGrabs/Ventana/images/2683/04_19_50_21.jpg	36.70764	-122.04911	1757803	0.57	2005-07-11 20:45:29.0	Ventana	34.545	04:19:50:21	3.7	V2683-04
identity-certainty | self | maybe	ascend	Leuroglossus stilbius	738.01	2683	 	36.70617	-122.04858	1757848	0.31	2005-07-11 21:04:01.0	Ventana	34.455	04:36:53:04	4.717	V2683-05
identity-certainty | self | maybe	ascend	Voragonema	714.44	2683	 	36.70591	-122.04887	1757872	0.27	2005-07-11 21:05:23.0	Ventana	34.45	04:38:15:01	4.764	V2683-05
shape-arrangement | self | chain	ascend	Salpida	612.56	2683	 	36.704845	-122.05048	1757958	0.3	2005-07-11 21:11:23.0	Ventana	34.391	04:44:15:05	5.548	V2683-05
population-quantity | self | 999	ascend	Appendicularia	414.77	2683	 	36.704117	-122.05059	1758050	0.94	2005-07-11 21:19:41.0	Ventana	34.259	04:52:33:14	6.874	V2683-05
identity-certainty | self | maybe	ascend	Mitrocoma	288.04	2683	 	36.70328	-122.05065	1758084	1.31	2005-07-11 21:25:09.0	Ventana	34.249	04:58:00:02	7.831	V2683-05
comment | self | Low light camera test	descend	camera	 	2693	 	 	 	1758167	 	2005-07-25 16:24:52.0	Ventana	 	00:03:26:11	 	V2693-01
comment | self | Low light camera test	descend	camera	 	2693	 	 	 	1758168	 	2005-07-25 16:34:51.0	Ventana	 	00:13:25:01	 	V2693-01
comment | self | Low light camera test	descend	camera	 	2693	 	 	 	1758169	 	2005-07-25 16:46:30.0	Ventana	 	00:25:04:06	 	V2693-01
comment | self | HD camera	descend	camera	134.81	2693	 	36.69647	-122.05776	1758170	1.93	2005-07-25 17:55:13.0	Ventana	34.105	00:35:44:19	9.097	V2693-01
population-quantity | self | 999	descend	Euphausiacea	150.0	2693	 	36.69631	-122.05774	1758186	1.94	2005-07-25 17:56:41.0	Ventana	34.114	00:37:12:22	8.99	V2693-01
part-of | Euphausiacea | nil	descend	molt	151.84	2693	 	36.6963	-122.05774	1758188	1.94	2005-07-25 17:56:51.0	Ventana	34.114	00:37:22:11	8.99	V2693-01
population-quantity | self | 999	descend	Euphausiacea	154.0	2693	 	36.696297	-122.05774	1758191	1.94	2005-07-25 17:57:03.0	Ventana	34.114	00:37:34:04	8.979	V2693-01
population-quantity | self | 999	descend	Euphausiacea	154.39	2693	 	36.696293	-122.05774	1758193	1.94	2005-07-25 17:57:05.0	Ventana	34.114	00:37:37:17	8.979	V2693-01
population-quantity | self | 999	descend	Euphausiacea	158.56	2693	 	36.696278	-122.05774	1758204	1.99	2005-07-25 17:57:26.0	Ventana	34.118	00:37:57:00	8.961	V2693-01
population-quantity | self | 999	descend	Euphausiacea	159.82	2693	 	36.696274	-122.05775	1758205	1.99	2005-07-25 17:57:32.0	Ventana	34.118	00:38:02:26	8.961	V2693-01
population-quantity | self | 999	descend	Euphausiacea	161.54	2693	 	36.69627	-122.05775	1758207	2.0	2005-07-25 17:57:40.0	Ventana	34.124	00:38:10:28	8.957	V2693-01
population-quantity | self | 999	descend	Euphausiacea	163.14	2693	 	36.696262	-122.057755	1758209	2.0	2005-07-25 17:57:48.0	Ventana	34.124	00:38:19:05	8.957	V2693-01
population-quantity | self | 999	descend	Euphausiacea	166.85	2693	 	36.696247	-122.05777	1758214	1.99	2005-07-25 17:58:06.0	Ventana	34.131	00:38:36:23	8.928	V2693-01
part-of | Euphausiacea | nil	descend	molt	166.85	2693	 	36.696247	-122.05777	1758216	1.99	2005-07-25 17:58:06.0	Ventana	34.131	00:38:37:14	8.928	V2693-01
population-quantity | self | 999	descend	Nanomia	170.96	2693	 	36.696205	-122.05786	1758223	1.96	2005-07-25 18:00:00.0	Ventana	34.136	00:40:31:16	8.913	V2693-01
population-quantity | self | 999	descend	Nanomia	171.47	2693	 	36.69618	-122.05795	1758228	1.95	2005-07-25 18:01:07.0	Ventana	34.14	00:41:38:10	8.904	V2693-01
part-of | Euphausiacea | nil	descend	molt	171.92	2693	 	36.69617	-122.05799	1758230	1.96	2005-07-25 18:01:33.0	Ventana	34.136	00:42:04:14	8.91	V2693-01
part-of | Euphausiacea | nil	descend	molt	189.83	2693	 	36.696075	-122.05817	1758283	1.82	2005-07-25 18:14:19.0	Ventana	34.182	00:54:48:25	8.885	V2693-01
within | larvacean house | nil, part-of | Euphausiacea | nil	descend	molt	192.91	2693	http://search.mbari.org/ARCHIVE/frameGrabs/Ventana/images/2693/00_55_38_03.jpg	36.69609	-122.058174	1758291	1.8	2005-07-25 18:15:08.0	Ventana	34.185	00:55:38:03	8.898	V2693-01
comment | self | Low light camera test	descend	camera	192.46	2693	 	36.69604	-122.05815	1758296	1.79	2005-07-25 18:17:11.0	Ventana	34.189	00:57:40:14	8.913	V2693-01
comment | self | Low light camera test	descend	camera	204.21	2693	 	36.695995	-122.05833	1758297	1.82	2005-07-25 18:22:47.0	Ventana	34.186	01:02:51:19	8.704	V2693-02
relative-placement | self | low	descend	lights	204.21	2693	 	36.695995	-122.05833	1758298	1.82	2005-07-25 18:22:47.0	Ventana	34.186	01:02:51:19	8.704	V2693-02
state | self | on	descend	main-camera	205.37	2693	 	36.696014	-122.05841	1758299	1.82	2005-07-25 18:24:52.0	Ventana	34.186	01:04:56:25	8.704	V2693-02
population-quantity | self | 999	descend	Appendicularia	205.77	2693	 	36.696026	-122.05841	1758301	1.81	2005-07-25 18:25:08.0	Ventana	34.186	01:05:11:28	8.702	V2693-02
part-of | Euphausiacea | nil, population-quantity | self | 999	descend	molt	205.77	2693	 	36.696037	-122.0584	1758303	1.81	2005-07-25 18:25:20.0	Ventana	34.186	01:05:25:00	8.702	V2693-02
population-quantity | self | 999	descend	Appendicularia	205.62	2693	 	36.69604	-122.05839	1758307	1.81	2005-07-25 18:25:36.0	Ventana	34.186	01:05:42:01	8.702	V2693-02
population-quantity | self | 999	descend	Appendicularia	205.82	2693	 	36.696045	-122.058365	1758313	1.81	2005-07-25 18:25:54.0	Ventana	34.185	01:05:58:28	8.701	V2693-02
population-quantity | self | 999	descend	Euphausiacea	206.73	2693	 	36.69605	-122.05835	1758315	1.81	2005-07-25 18:26:04.0	Ventana	34.185	01:06:08:21	8.701	V2693-02
part-of | Euphausiacea | nil	descend	molt	208.49	2693	 	36.69605	-122.05832	1758318	1.78	2005-07-25 18:26:14.0	Ventana	34.17	01:06:19:03	8.659	V2693-02
population-quantity | self | 999	descend	Appendicularia	210.53	2693	 	36.69605	-122.05828	1758320	1.71	2005-07-25 18:26:24.0	Ventana	34.189	01:06:28:26	8.612	V2693-02
part-of | Euphausiacea | nil	descend	molt	213.53	2693	 	36.696056	-122.05823	1758324	1.69	2005-07-25 18:26:40.0	Ventana	34.191	01:06:44:08	8.613	V2693-02
part-of | Euphausiacea | nil	descend	molt	214.11	2693	 	36.69606	-122.05822	1758326	1.69	2005-07-25 18:26:44.0	Ventana	34.191	01:06:48:27	8.613	V2693-02
population-quantity | self | 999	descend	Euphausiacea	214.86	2693	 	36.696068	-122.05821	1758328	1.69	2005-07-25 18:26:50.0	Ventana	34.191	01:06:54:05	8.613	V2693-02
part-of | Euphausiacea | nil	descend	molt	215.64	2693	 	36.696083	-122.05821	1758332	1.69	2005-07-25 18:27:00.0	Ventana	34.192	01:07:04:23	8.613	V2693-02
population-quantity | self | 999	descend	Copepoda	216.03	2693	 	36.69609	-122.058205	1758335	1.69	2005-07-25 18:27:06.0	Ventana	34.192	01:07:10:03	8.613	V2693-02
state | self | off	descend	lights	217.34	2693	 	36.69616	-122.05816	1758357	1.68	2005-07-25 18:28:47.0	Ventana	34.194	01:08:50:26	8.607	V2693-02
comment | self | low light camera test	descend	camera	217.63	2693	 	36.697575	-122.05647	1758358	1.7	2005-07-25 18:35:23.0	Ventana	34.193	01:15:27:21	8.622	V2693-02
state | self | on	descend	main-camera	227.85	2693	 	36.698627	-122.06159	1758359	1.5	2005-07-25 19:18:54.0	Ventana	34.241	01:58:56:11	8.591	V2693-02
population-quantity | self | 999	descend	Appendicularia	228.62	2693	 	36.69865	-122.06166	1758364	1.5	2005-07-25 19:20:00.0	Ventana	34.241	02:00:01:28	8.591	V2693-02
population-quantity | self | 999	descend	Appendicularia	229.73	2693	 	36.69864	-122.061714	1758368	1.5	2005-07-25 19:22:01.0	Ventana	34.241	02:02:02:13	8.592	V2693-02
population-quantity | self | 999	descend	Appendicularia	231.98	2693	 	36.698627	-122.06172	1758369	1.49	2005-07-25 19:22:15.0	Ventana	34.242	02:02:16:15	8.592	V2693-02
part-of | Euphausiacea | nil	descend	molt	234.01	2693	 	36.69862	-122.06172	1758370	1.49	2005-07-25 19:22:29.0	Ventana	34.242	02:02:30:15	8.589	V2693-02
population-quantity | self | 999	descend	Appendicularia	234.47	2693	 	36.698616	-122.06172	1758371	1.49	2005-07-25 19:22:35.0	Ventana	34.242	02:02:36:09	8.589	V2693-02
part-of | Euphausiacea | nil	descend	molt	235.27	2693	 	36.69861	-122.06172	1758372	1.49	2005-07-25 19:22:45.0	Ventana	34.242	02:02:46:13	8.585	V2693-02
population-quantity | self | 999	descend	Appendicularia	236.02	2693	 	36.6986	-122.06172	1758373	1.49	2005-07-25 19:22:53.0	Ventana	34.242	02:02:54:18	8.584	V2693-02
part-of | Euphausiacea | nil	descend	molt	237.82	2693	 	36.69858	-122.06172	1758374	1.49	2005-07-25 19:23:11.0	Ventana	34.239	02:03:12:06	8.569	V2693-02
identity-certainty | self | maybe	descend	Prayidae	238.39	2693	 	36.698578	-122.06172	1758376	1.49	2005-07-25 19:23:15.0	Ventana	34.239	02:03:17:01	8.569	V2693-02
part-of | Euphausiacea | nil	descend	molt	239.2	2693	 	36.69857	-122.06172	1758377	1.49	2005-07-25 19:23:21.0	Ventana	34.239	02:03:22:15	8.569	V2693-02
population-quantity | self | 999	descend	Appendicularia	239.44	2693	 	36.698566	-122.06172	1758378	1.5	2005-07-25 19:23:23.0	Ventana	34.233	02:03:23:26	8.541	V2693-02
population-quantity | self | 999	descend	Appendicularia	242.71	2693	 	36.69852	-122.06171	1758389	1.5	2005-07-25 19:24:00.0	Ventana	34.239	02:04:00:19	8.498	V2693-02
population-quantity | self | 999	descend	Appendicularia	243.53	2693	 	36.69851	-122.0617	1758391	1.49	2005-07-25 19:24:10.0	Ventana	34.241	02:04:10:18	8.498	V2693-02
population-quantity | self | 999	descend	Appendicularia	247.76	2693	 	36.698475	-122.06168	1758395	1.49	2005-07-25 19:24:38.0	Ventana	34.23	02:04:39:14	8.401	V2693-02
population-quantity | self | 999	descend	Appendicularia	249.38	2693	 	36.69846	-122.06167	1758397	1.49	2005-07-25 19:24:50.0	Ventana	34.23	02:04:52:00	8.401	V2693-02
population-quantity | self | 999	descend	Appendicularia	253.25	2693	 	36.69842	-122.061646	1758401	1.46	2005-07-25 19:25:16.0	Ventana	34.235	02:05:16:16	8.328	V2693-02
population-quantity | self | 999	descend	Appendicularia	254.53	2693	 	36.69841	-122.061646	1758403	1.44	2005-07-25 19:25:24.0	Ventana	34.242	02:05:25:07	8.313	V2693-02
population-quantity | self | 999	descend	Appendicularia	256.87	2693	 	36.698387	-122.06164	1758405	1.41	2005-07-25 19:25:38.0	Ventana	34.246	02:05:40:02	8.281	V2693-02
population-quantity | self | 999	descend	Appendicularia	257.89	2693	 	36.698364	-122.06164	1758408	1.41	2005-07-25 19:25:52.0	Ventana	34.246	02:05:52:22	8.281	V2693-02
state | self | off	descend	lights	256.25	2693	 	36.698193	-122.061844	1758419	1.44	2005-07-25 19:28:47.0	Ventana	34.249	02:08:24:01	8.323	V2693-03
state | self | on	descend	lights	276.21	2693	 	36.69804	-122.06138	1758420	1.41	2005-07-25 19:34:35.0	Ventana	34.237	02:14:10:05	8.027	V2693-03
identity-reference | self | 1	descend	Solmissus	257.78	2693	 	36.698254	-122.06173	1758415	1.41	2005-07-25 19:27:21.0	Ventana	34.25	02:06:57:00	8.297	V2693-03
identity-reference | self | 1	descend	Solmissus	280.68	2693	 	36.697952	-122.06137	1758427	1.41	2005-07-25 19:35:47.0	Ventana	34.237	02:15:23:09	8.01	V2693-03
population-quantity | self | 999	descend	Appendicularia	282.18	2693	 	36.697926	-122.06136	1758433	1.41	2005-07-25 19:36:17.0	Ventana	34.235	02:15:53:19	7.992	V2693-03
population-quantity | self | 999	descend	Appendicularia	286.1	2693	 	36.69789	-122.06133	1758436	1.4	2005-07-25 19:36:45.0	Ventana	34.236	02:16:21:05	7.967	V2693-03
population-quantity | self | 999	descend	Appendicularia	288.42	2693	 	36.69787	-122.0613	1758439	1.39	2005-07-25 19:37:02.0	Ventana	34.234	02:16:37:09	7.926	V2693-03
population-quantity | self | 999	descend	Appendicularia	290.77	2693	 	36.69784	-122.06125	1758445	1.35	2005-07-25 19:37:26.0	Ventana	34.237	02:17:02:09	7.852	V2693-03
population-quantity | self | 999	descend	Appendicularia	291.31	2693	 	36.69783	-122.06123	1758447	1.35	2005-07-25 19:37:34.0	Ventana	34.237	02:17:10:15	7.852	V2693-03
population-quantity | self | 999	descend	Appendicularia	291.93	2693	 	36.69782	-122.06121	1758451	1.34	2005-07-25 19:37:42.0	Ventana	34.236	02:17:18:03	7.821	V2693-03
population-quantity | self | 999	descend	Appendicularia	293.8	2693	 	36.69779	-122.06115	1758459	1.34	2005-07-25 19:38:06.0	Ventana	34.238	02:17:40:28	7.803	V2693-03
population-quantity | self | 999	descend	Appendicularia	294.76	2693	 	36.697773	-122.06111	1758463	1.33	2005-07-25 19:38:18.0	Ventana	34.235	02:17:53:05	7.78	V2693-03
population-quantity | self | 999	descend	Appendicularia	295.8	2693	 	36.697758	-122.06108	1758467	1.33	2005-07-25 19:38:30.0	Ventana	34.239	02:18:05:12	7.763	V2693-03
population-quantity | self | 999	descend	Appendicularia	296.21	2693	 	36.697742	-122.06106	1758468	1.33	2005-07-25 19:38:36.0	Ventana	34.239	02:18:11:23	7.763	V2693-03
population-quantity | self | 999	descend	Appendicularia	296.75	2693	 	36.697735	-122.06104	1758470	1.33	2005-07-25 19:38:42.0	Ventana	34.237	02:18:17:18	7.755	V2693-03
population-quantity | self | 999	descend	Appendicularia	297.66	2693	 	36.69772	-122.061005	1758473	1.33	2005-07-25 19:38:52.0	Ventana	34.237	02:18:28:12	7.755	V2693-03
population-quantity | self | 999	descend	Copepoda	298.45	2693	 	36.69771	-122.06099	1758474	1.33	2005-07-25 19:38:58.0	Ventana	34.236	02:18:33:22	7.726	V2693-03
population-quantity | self | 999	descend	Appendicularia	300.65	2693	 	36.697685	-122.06095	1758476	1.32	2005-07-25 19:39:12.0	Ventana	34.235	02:18:47:22	7.687	V2693-03
population-quantity | self | 999	descend	Appendicularia	302.26	2693	 	36.697674	-122.06093	1758479	1.32	2005-07-25 19:39:22.0	Ventana	34.235	02:18:57:05	7.687	V2693-03
population-quantity | self | 999	descend	Appendicularia	305.4	2693	 	36.697643	-122.06088	1758484	1.32	2005-07-25 19:39:40.0	Ventana	34.236	02:19:15:05	7.661	V2693-03
population-quantity | self | 999	descend	Appendicularia	307.35	2693	 	36.697628	-122.06085	1758487	1.32	2005-07-25 19:39:52.0	Ventana	34.236	02:19:27:11	7.661	V2693-03
population-quantity | self | 999	descend	Appendicularia	308.61	2693	 	36.697613	-122.06084	1758488	1.32	2005-07-25 19:40:02.0	Ventana	34.235	02:19:38:22	7.648	V2693-03
identity-certainty | self | maybe	descend	Galiteuthis	310.16	2693	 	36.697594	-122.060814	1758489	1.31	2005-07-25 19:40:14.0	Ventana	34.235	02:19:50:26	7.64	V2693-03
population-quantity | self | 999	descend	Appendicularia	311.63	2693	 	36.697582	-122.0608	1758492	1.31	2005-07-25 19:40:23.0	Ventana	34.233	02:19:59:05	7.619	V2693-03
population-quantity | self | 999	descend	Appendicularia	312.71	2693	 	36.697575	-122.06078	1758495	1.31	2005-07-25 19:40:31.0	Ventana	34.233	02:20:05:17	7.619	V2693-03
population-quantity | self | 999	descend	Appendicularia	314.45	2693	 	36.697556	-122.06075	1758498	1.31	2005-07-25 19:40:47.0	Ventana	34.234	02:20:23:13	7.605	V2693-03
population-quantity | self | 999	descend	Appendicularia	316.63	2693	 	36.69753	-122.060684	1758499	1.3	2005-07-25 19:41:13.0	Ventana	34.236	02:20:47:25	7.603	V2693-03
state | self | off	descend	lights	318.34	2693	 	36.697514	-122.06064	1758503	1.3	2005-07-25 19:41:35.0	Ventana	34.237	02:21:10:14	7.603	V2693-03
comment | self | low light camera	descend	camera	318.34	2693	 	36.697514	-122.06064	1758504	1.3	2005-07-25 19:41:35.0	Ventana	34.237	02:21:10:14	7.603	V2693-03
state | self | on	descend	lights	326.31	2693	 	36.69745	-122.06058	1758505	1.29	2005-07-25 19:46:40.0	Ventana	34.236	02:26:14:22	7.581	V2693-03
population-quantity | self | 999	descend	Appendicularia	326.92	2693	 	36.69745	-122.06058	1758506	1.29	2005-07-25 19:46:55.0	Ventana	34.236	02:26:30:10	7.579	V2693-03
population-quantity | self | 999	descend	Appendicularia	328.96	2693	 	36.697426	-122.06055	1758522	1.29	2005-07-25 19:47:37.0	Ventana	34.236	02:27:12:10	7.575	V2693-03
population-quantity | self | 999	descend	Appendicularia	329.69	2693	 	36.69741	-122.060524	1758525	1.29	2005-07-25 19:47:59.0	Ventana	34.235	02:27:34:26	7.57	V2693-03
population-quantity | self | 999	descend	Appendicularia	333.09	2693	 	36.697395	-122.06052	1758529	1.29	2005-07-25 19:48:23.0	Ventana	34.236	02:27:58:02	7.568	V2693-03
state | self | off	descend	lights	333.14	2693	 	36.697357	-122.06056	1758532	1.29	2005-07-25 19:49:21.0	Ventana	34.237	02:28:56:26	7.566	V2693-03
comment | self | Low light camera	descend	camera	333.14	2693	 	36.697357	-122.06056	1758533	1.29	2005-07-25 19:49:21.0	Ventana	34.237	02:28:56:26	7.566	V2693-03
identity-reference | self | 2	descend	Forskalia	333.71	2693	 	36.69739	-122.06052	1758530	1.29	2005-07-25 19:48:27.0	Ventana	34.236	02:28:03:00	7.568	V2693-03
identity-reference | self | 2	descend	Forskalia	332.81	2693	 	36.697353	-122.06058	1758534	1.29	2005-07-25 19:49:41.0	Ventana	34.236	02:29:16:12	7.567	V2693-03
surface-color | self | bioluminescent, identity-reference | self | 2	descend	Forskalia	332.21	2693	 	36.697353	-122.060555	1758536	1.29	2005-07-25 19:50:30.0	Ventana	34.236	02:30:04:11	7.571	V2693-03
state | self | on	descend	lights	333.04	2693	 	36.697323	-122.060295	1758537	1.29	2005-07-25 19:52:08.0	Ventana	34.236	02:31:44:00	7.574	V2693-03
state | self | off	descend	lights	331.9	2693	 	36.697212	-122.06027	1758544	1.29	2005-07-25 19:53:49.0	Ventana	34.236	02:33:25:02	7.577	V2693-03
comment | self | Low light camera	descend	camera	331.9	2693	 	36.697212	-122.06027	1758545	1.29	2005-07-25 19:53:49.0	Ventana	34.236	02:33:25:02	7.577	V2693-03
surface-color | self | bioluminescent, identity-reference | self | 3	descend	Solmissus	332.14	2693	 	36.697193	-122.060265	1758546	1.29	2005-07-25 19:54:17.0	Ventana	34.237	02:33:51:10	7.578	V2693-03
identity-reference | self | 3	descend	Solmissus	333.05	2693	 	36.697285	-122.060265	1758540	1.29	2005-07-25 19:52:46.0	Ventana	34.236	02:32:20:29	7.574	V2693-03
state | self | on	descend	lights	332.28	2693	 	36.69715	-122.06021	1758547	1.29	2005-07-25 19:55:23.0	Ventana	34.236	02:34:58:13	7.581	V2693-03
population-quantity | self | 999	descend	Appendicularia	332.14	2693	 	36.697136	-122.06019	1758550	1.29	2005-07-25 19:55:47.0	Ventana	34.236	02:35:22:28	7.58	V2693-03
population-quantity | self | 999	descend	Appendicularia	332.34	2693	 	36.697132	-122.06017	1758551	1.29	2005-07-25 19:56:01.0	Ventana	34.237	02:35:35:14	7.581	V2693-03
population-quantity | self | 999	descend	Appendicularia	332.23	2693	 	36.69713	-122.06016	1758552	1.29	2005-07-25 19:56:13.0	Ventana	34.237	02:35:47:03	7.582	V2693-03
population-quantity | self | 999	descend	Appendicularia	332.18	2693	 	36.697124	-122.060135	1758554	1.29	2005-07-25 19:56:27.0	Ventana	34.237	02:36:01:08	7.582	V2693-03
population-quantity | self | 999	descend	Appendicularia	332.2	2693	 	36.697124	-122.0601	1758557	1.29	2005-07-25 19:56:49.0	Ventana	34.236	02:36:25:04	7.582	V2693-03
population-quantity | self | 999	descend	Appendicularia	332.16	2693	 	36.69712	-122.06007	1758558	1.29	2005-07-25 19:57:02.0	Ventana	34.238	02:36:36:26	7.584	V2693-03
population-quantity | self | 999	descend	Appendicularia	333.05	2693	 	36.69712	-122.060005	1758562	1.29	2005-07-25 19:57:34.0	Ventana	34.236	02:37:07:18	7.585	V2693-03
population-quantity | self | 999	descend	Appendicularia	337.34	2693	 	36.69712	-122.05997	1758566	1.29	2005-07-25 19:58:02.0	Ventana	34.235	02:37:36:17	7.582	V2693-03
population-quantity | self | 999	descend	Appendicularia	339.13	2693	 	36.697117	-122.05996	1758568	1.29	2005-07-25 19:58:12.0	Ventana	34.235	02:37:46:11	7.579	V2693-03
population-quantity | self | 999	descend	Appendicularia	342.51	2693	 	36.69711	-122.05994	1758572	1.29	2005-07-25 19:58:32.0	Ventana	34.234	02:38:07:15	7.574	V2693-03
population-quantity | self | 999	descend	Appendicularia	344.12	2693	 	36.6971	-122.05993	1758574	1.29	2005-07-25 19:58:40.0	Ventana	34.227	02:38:15:21	7.561	V2693-03
population-quantity | self | 999	descend	Appendicularia	349.09	2693	 	36.697086	-122.059906	1758577	1.27	2005-07-25 19:59:04.0	Ventana	34.23	02:38:39:17	7.487	V2693-03
population-quantity | self | 999	descend	Appendicularia	353.49	2693	 	36.697075	-122.05988	1758580	1.26	2005-07-25 19:59:24.0	Ventana	34.231	02:38:57:26	7.443	V2693-03
population-quantity | self | 999	descend	Appendicularia	356.06	2693	 	36.697067	-122.059875	1758581	1.26	2005-07-25 19:59:36.0	Ventana	34.231	02:39:10:25	7.443	V2693-03
population-quantity | self | 999	descend	Appendicularia	358.83	2693	 	36.69706	-122.05987	1758583	1.25	2005-07-25 19:59:48.0	Ventana	34.232	02:39:23:02	7.394	V2693-03
population-quantity | self | 999	descend	Appendicularia	361.12	2693	 	36.697052	-122.05986	1758587	1.23	2005-07-25 19:59:58.0	Ventana	34.223	02:39:32:27	7.333	V2693-03
population-quantity | self | 999	descend	Appendicularia	366.03	2693	 	36.69704	-122.05985	1758591	1.21	2005-07-25 20:00:21.0	Ventana	34.23	02:39:54:11	7.232	V2693-03
population-quantity | self | 999	descend	Appendicularia	368.27	2693	 	36.697037	-122.05986	1758593	1.2	2005-07-25 20:00:31.0	Ventana	34.228	02:40:04:26	7.185	V2693-03
population-quantity | self | 999	descend	Appendicularia	371.23	2693	 	36.697025	-122.05986	1758597	1.2	2005-07-25 20:00:45.0	Ventana	34.24	02:40:20:00	7.182	V2693-03
shape-arrangement | self | chain	descend	Salpida	369.9	2693	 	36.69703	-122.05986	1758594	1.2	2005-07-25 20:00:39.0	Ventana	34.24	02:40:12:17	7.182	V2693-03
identity-certainty | self | maybe	descend	Atolla vanhoeffeni	370.8	2693	 	36.697025	-122.05986	1758596	1.2	2005-07-25 20:00:43.0	Ventana	34.24	02:40:17:02	7.182	V2693-03
comment | self | low light camera	descend	camera	370.6	2693	 	36.696987	-122.05988	1758598	1.2	2005-07-25 20:01:29.0	Ventana	34.232	02:41:03:03	7.159	V2693-03
population-quantity | self | 999	descend	Appendicularia	373.04	2693	 	36.696484	-122.06037	1758600	1.19	2005-07-25 20:11:44.0	Ventana	34.229	02:51:18:11	7.152	V2693-03
population-quantity | self | 999	descend	Euphausiacea	372.27	2693	 	36.69648	-122.06038	1758601	1.2	2005-07-25 20:11:54.0	Ventana	34.23	02:51:27:14	7.152	V2693-03
population-quantity | self | 999	descend	Euphausiacea	370.31	2693	 	36.696472	-122.060394	1758602	1.2	2005-07-25 20:12:10.0	Ventana	34.232	02:51:44:12	7.163	V2693-03
population-quantity | self | 999	descend	Euphausiacea	370.52	2693	 	36.696465	-122.06041	1758604	1.2	2005-07-25 20:12:24.0	Ventana	34.231	02:51:58:05	7.164	V2693-03
population-quantity | self | 999	descend	Appendicularia	369.16	2693	 	36.69644	-122.06047	1758610	1.2	2005-07-25 20:13:12.0	Ventana	34.233	02:52:45:21	7.169	V2693-03
population-quantity | self | 999	descend	Euphausiacea	367.17	2693	 	36.6964	-122.060524	1758612	1.2	2005-07-25 20:14:07.0	Ventana	34.234	02:53:40:09	7.185	V2693-03
comment | self | low light camera	descend	camera	366.09	2693	 	36.696377	-122.06056	1758616	1.2	2005-07-25 20:15:07.0	Ventana	34.234	02:54:39:14	7.183	V2693-03
population-quantity | self | 999	descend	Euphausiacea	361.64	2693	 	36.696266	-122.06071	1758618	1.21	2005-07-25 20:18:06.0	Ventana	34.228	02:57:39:02	7.259	V2693-03
identity-reference | self | 4	descend	Atolla vanhoeffeni	370.38	2693	 	36.696453	-122.06043	1758608	1.2	2005-07-25 20:12:44.0	Ventana	34.231	02:52:17:05	7.163	V2693-03
identity-reference | self | 4	descend	Atolla vanhoeffeni	361.31	2693	 	36.69623	-122.06076	1758619	1.22	2005-07-25 20:19:04.0	Ventana	34.237	02:58:37:09	7.303	V2693-03
population-quantity | self | 999	descend	Appendicularia	361.12	2693	 	36.696194	-122.06087	1758622	1.22	2005-07-25 20:20:04.0	Ventana	34.235	02:59:37:29	7.315	V2693-03
population-quantity | self | 999	descend	Appendicularia	371.68	2693	 	36.69618	-122.06091	1758628	1.2	2005-07-25 20:21:21.0	Ventana	34.229	03:00:54:04	7.143	V2693-03
population-quantity | self | 999	ascend	Appendicularia	370.93	2693	 	36.696167	-122.060875	1758641	1.2	2005-07-25 20:24:24.0	Ventana	34.232	03:03:56:04	7.162	V2693-03
population-quantity | self | 999	ascend	Appendicularia	371.01	2693	 	36.69617	-122.06086	1758645	1.2	2005-07-25 20:24:42.0	Ventana	34.232	03:04:15:00	7.163	V2693-03
population-quantity | self | 999	ascend	Appendicularia	371.04	2693	 	36.696182	-122.06085	1758647	1.2	2005-07-25 20:24:56.0	Ventana	34.232	03:04:29:08	7.165	V2693-03
population-quantity | self | 999	ascend	Appendicularia	370.98	2693	 	36.69621	-122.060844	1758651	1.2	2005-07-25 20:25:20.0	Ventana	34.232	03:04:54:03	7.165	V2693-03
population-quantity | self | 999	ascend	Appendicularia	370.99	2693	 	36.696224	-122.060844	1758653	1.2	2005-07-25 20:25:34.0	Ventana	34.232	03:05:06:15	7.165	V2693-03
population-quantity | self | 999	ascend	Appendicularia	370.89	2693	 	36.69629	-122.06082	1758658	1.2	2005-07-25 20:26:20.0	Ventana	34.232	03:05:52:09	7.167	V2693-03
population-quantity | self | 999	ascend	Appendicularia	371.03	2693	 	36.696297	-122.060814	1758659	1.2	2005-07-25 20:26:26.0	Ventana	34.231	03:06:00:07	7.166	V2693-03
population-quantity | self | 999	ascend	Appendicularia	371.06	2693	 	36.696316	-122.06079	1758662	1.2	2005-07-25 20:26:40.0	Ventana	34.232	03:06:13:07	7.165	V2693-03
population-quantity | self | 999	ascend	Appendicularia	371.01	2693	 	36.696323	-122.06078	1758664	1.2	2005-07-25 20:26:46.0	Ventana	34.232	03:06:19:25	7.165	V2693-03
identity-certainty | self | maybe	ascend	Halicreas	370.98	2693	 	36.696354	-122.06075	1758666	1.2	2005-07-25 20:27:07.0	Ventana	34.232	03:06:40:13	7.163	V2693-03
population-quantity | self | 999	ascend	Appendicularia	370.96	2693	 	36.69644	-122.06068	1758684	1.2	2005-07-25 20:28:03.0	Ventana	34.233	03:07:36:15	7.165	V2693-03
population-quantity | self | 999	ascend	Appendicularia	370.94	2693	 	36.696484	-122.06065	1758690	1.2	2005-07-25 20:28:29.0	Ventana	34.233	03:08:03:03	7.17	V2693-03
population-quantity | self | 999	ascend	Appendicularia	370.95	2693	 	36.69649	-122.06064	1758691	1.2	2005-07-25 20:28:37.0	Ventana	34.233	03:08:09:25	7.17	V2693-03
population-quantity | self | 999	ascend	Appendicularia	370.95	2693	 	36.69652	-122.06062	1758696	1.2	2005-07-25 20:28:59.0	Ventana	34.233	03:08:32:26	7.172	V2693-03
population-quantity | self | 999	ascend	Appendicularia	370.88	2693	 	36.69655	-122.06061	1758699	1.2	2005-07-25 20:29:27.0	Ventana	34.233	03:09:00:18	7.175	V2693-03
shape-arrangement | self | chain	ascend	Salpida	370.88	2693	 	36.69655	-122.06061	1758700	1.2	2005-07-25 20:29:27.0	Ventana	34.233	03:09:00:18	7.175	V2693-03
population-quantity | self | 999	ascend	Appendicularia	370.86	2693	 	36.69655	-122.06061	1758702	1.2	2005-07-25 20:29:29.0	Ventana	34.233	03:09:02:29	7.175	V2693-03
population-quantity | self | 999	ascend	Appendicularia	370.89	2693	 	36.69656	-122.06061	1758704	1.2	2005-07-25 20:29:39.0	Ventana	34.233	03:09:12:17	7.174	V2693-03
population-quantity | self | 999	ascend	Appendicularia	370.96	2693	 	36.696575	-122.06061	1758706	1.2	2005-07-25 20:30:01.0	Ventana	34.233	03:09:34:24	7.177	V2693-03
identity-certainty | self | maybe	ascend	Medusae	370.94	2693	 	36.696583	-122.06061	1758707	1.2	2005-07-25 20:30:09.0	Ventana	34.234	03:09:41:24	7.177	V2693-03
population-quantity | self | 999	ascend	Appendicularia	370.93	2693	 	36.6966	-122.060585	1758710	1.2	2005-07-25 20:30:22.0	Ventana	34.234	03:09:54:02	7.177	V2693-03
population-quantity | self | 999	ascend	Appendicularia	370.92	2693	 	36.696682	-122.06055	1758719	1.2	2005-07-25 20:31:00.0	Ventana	34.233	03:10:32:21	7.177	V2693-03
population-quantity | self | 999	ascend	Appendicularia	370.93	2693	 	36.69671	-122.06054	1758722	1.2	2005-07-25 20:31:10.0	Ventana	34.233	03:10:42:20	7.178	V2693-03
population-quantity | self | 999	ascend	Appendicularia	370.93	2693	 	36.69674	-122.060524	1758724	1.2	2005-07-25 20:31:22.0	Ventana	34.233	03:10:54:08	7.178	V2693-03
population-quantity | self | 999	ascend	Appendicularia	370.93	2693	 	36.696762	-122.0605	1758726	1.2	2005-07-25 20:31:32.0	Ventana	34.235	03:11:03:28	7.18	V2693-03
part-of | Euphausiacea | nil	ascend	molt	370.89	2693	 	36.696835	-122.06035	1758732	1.2	2005-07-25 20:32:14.0	Ventana	34.234	03:11:46:11	7.184	V2693-03
population-quantity | self | 999	ascend	Appendicularia	370.89	2693	 	36.696865	-122.060326	1758737	1.2	2005-07-25 20:32:32.0	Ventana	34.235	03:12:04:05	7.192	V2693-03
shape-arrangement | self | chain	ascend	Salpida	376.27	2693	 	36.696148	-122.06057	1758754	1.2	2005-07-25 20:49:11.0	Ventana	34.232	03:13:45:02	7.158	V2693-04
population-quantity | self | 999	ascend	Appendicularia	376.31	2693	 	36.696114	-122.06057	1758758	1.2	2005-07-25 20:49:23.0	Ventana	34.231	03:13:57:09	7.156	V2693-04
shape-arrangement | self | chain	ascend	Salpida	376.83	2693	 	36.696064	-122.06058	1758761	1.19	2005-07-25 20:49:39.0	Ventana	34.23	03:14:13:07	7.151	V2693-04
population-quantity | self | 999	ascend	Appendicularia	376.96	2693	 	36.696053	-122.06058	1758764	1.19	2005-07-25 20:49:43.0	Ventana	34.23	03:14:16:15	7.151	V2693-04
population-quantity | self | 999	ascend	Appendicularia	377.19	2693	 	36.69603	-122.06058	1758766	1.19	2005-07-25 20:49:49.0	Ventana	34.23	03:14:24:04	7.151	V2693-04
population-quantity | self | 999	ascend	Appendicularia	377.53	2693	 	36.696003	-122.060585	1758770	1.19	2005-07-25 20:49:57.0	Ventana	34.231	03:14:32:00	7.143	V2693-04
population-quantity | self | 999	ascend	Appendicularia	377.94	2693	 	36.695972	-122.06059	1758773	1.19	2005-07-25 20:50:07.0	Ventana	34.231	03:14:40:05	7.143	V2693-04
population-quantity | self | 999	ascend	Appendicularia	378.19	2693	 	36.695927	-122.0606	1758775	1.19	2005-07-25 20:50:19.0	Ventana	34.23	03:14:52:22	7.141	V2693-04
population-quantity | self | 999	ascend	Appendicularia	378.44	2693	 	36.695885	-122.060616	1758780	1.19	2005-07-25 20:50:34.0	Ventana	34.232	03:15:07:23	7.138	V2693-04
population-quantity | self | 999	ascend	Appendicularia	376.45	2693	 	36.69577	-122.06063	1758791	1.2	2005-07-25 20:51:12.0	Ventana	34.233	03:15:46:17	7.166	V2693-04
population-quantity | self | 999	ascend	Appendicularia	374.99	2693	 	36.695744	-122.06064	1758793	1.2	2005-07-25 20:51:24.0	Ventana	34.233	03:15:57:22	7.172	V2693-04
population-quantity | self | 999	ascend	Appendicularia	373.53	2693	 	36.69569	-122.060646	1758794	1.2	2005-07-25 20:51:46.0	Ventana	34.233	03:16:19:18	7.172	V2693-04
population-quantity | self | 999	ascend	Appendicularia	366.45	2693	 	36.695305	-122.0609	1758814	1.23	2005-07-25 20:57:20.0	Ventana	34.234	03:21:53:14	7.317	V2693-04
population-quantity | self | 999	ascend	Appendicularia	367.03	2693	 	36.69524	-122.06091	1758818	1.23	2005-07-25 20:57:38.0	Ventana	34.234	03:22:10:16	7.316	V2693-04
population-quantity | self | 999	ascend	Appendicularia	367.2	2693	 	36.695217	-122.06091	1758820	1.23	2005-07-25 20:57:44.0	Ventana	34.234	03:22:16:15	7.316	V2693-04
population-quantity | self | 999	ascend	Appendicularia	367.63	2693	 	36.695156	-122.06092	1758822	1.23	2005-07-25 20:58:00.0	Ventana	34.234	03:22:32:10	7.318	V2693-04
population-quantity | self | 999	ascend	Appendicularia	367.82	2693	 	36.695114	-122.06092	1758824	1.23	2005-07-25 20:58:10.0	Ventana	34.239	03:22:43:06	7.324	V2693-04
population-quantity | self | 999	ascend	Appendicularia	368.0	2693	 	36.695045	-122.06093	1758830	1.24	2005-07-25 20:58:28.0	Ventana	34.235	03:23:02:08	7.336	V2693-04
population-quantity | self | 999	ascend	Appendicularia	368.19	2693	 	36.695004	-122.060936	1758832	1.24	2005-07-25 20:58:38.0	Ventana	34.234	03:23:12:10	7.336	V2693-04
population-quantity | self | 999	ascend	Appendicularia	368.3	2693	 	36.69498	-122.06094	1758833	1.24	2005-07-25 20:58:44.0	Ventana	34.234	03:23:18:08	7.336	V2693-04
population-quantity | self | 999	ascend	Appendicularia	368.66	2693	 	36.694923	-122.06096	1758837	1.24	2005-07-25 20:59:00.0	Ventana	34.235	03:23:32:20	7.336	V2693-04
population-quantity | self | 999	ascend	Appendicularia	368.88	2693	 	36.694893	-122.06097	1758839	1.24	2005-07-25 20:59:08.0	Ventana	34.233	03:23:40:20	7.338	V2693-04
shape-arrangement | self | chain	ascend	Salpida	368.91	2693	 	36.694843	-122.06098	1758842	1.24	2005-07-25 20:59:22.0	Ventana	34.233	03:23:55:13	7.338	V2693-04
population-quantity | self | 999	ascend	Appendicularia	368.68	2693	 	36.694817	-122.06099	1758843	1.24	2005-07-25 20:59:30.0	Ventana	34.235	03:24:03:28	7.338	V2693-04
population-quantity | self | 999	ascend	Appendicularia	368.36	2693	 	36.69478	-122.061	1758844	1.24	2005-07-25 20:59:40.0	Ventana	34.236	03:24:13:14	7.342	V2693-04
part-of | Euphausiacea | nil	ascend	molt	368.07	2693	 	36.69475	-122.061	1758845	1.24	2005-07-25 20:59:48.0	Ventana	34.236	03:24:22:07	7.342	V2693-04
population-quantity | self | 999	ascend	Appendicularia	367.76	2693	 	36.694714	-122.061005	1758846	1.24	2005-07-25 20:59:58.0	Ventana	34.234	03:24:31:10	7.344	V2693-04
population-quantity | self | 999	ascend	Appendicularia	367.46	2693	 	36.694668	-122.06101	1758851	1.24	2005-07-25 21:00:11.0	Ventana	34.233	03:24:43:26	7.344	V2693-04
population-quantity | self | 999	ascend	Appendicularia	367.5	2693	 	36.694595	-122.06103	1758854	1.24	2005-07-25 21:00:31.0	Ventana	34.234	03:25:03:25	7.344	V2693-04
population-quantity | self | 999	ascend	Appendicularia	367.35	2693	 	36.694553	-122.06103	1758856	1.24	2005-07-25 21:00:45.0	Ventana	34.234	03:25:18:13	7.341	V2693-04
population-quantity | self | 999	ascend	Appendicularia	366.53	2693	 	36.69451	-122.06104	1758858	1.24	2005-07-25 21:00:59.0	Ventana	34.234	03:25:32:09	7.34	V2693-04
population-quantity | self | 999	ascend	Appendicularia	365.22	2693	 	36.694443	-122.06104	1758861	1.24	2005-07-25 21:01:19.0	Ventana	34.238	03:25:52:23	7.345	V2693-04
population-quantity | self | 999	ascend	Appendicularia	363.74	2693	 	36.694344	-122.06102	1758864	1.24	2005-07-25 21:01:45.0	Ventana	34.237	03:26:17:23	7.37	V2693-04
population-quantity | self | 999	ascend	Appendicularia	363.04	2693	 	36.694283	-122.06101	1758867	1.24	2005-07-25 21:01:59.0	Ventana	34.235	03:26:32:15	7.371	V2693-04
population-quantity | self | 999	ascend	Appendicularia	362.66	2693	 	36.69425	-122.06101	1758869	1.24	2005-07-25 21:02:09.0	Ventana	34.232	03:26:43:09	7.361	V2693-04
population-quantity | self | 999	ascend	Appendicularia	361.59	2693	 	36.69418	-122.061005	1758874	1.24	2005-07-25 21:02:29.0	Ventana	34.232	03:27:02:10	7.352	V2693-04
population-quantity | self | 999	ascend	Appendicularia	361.14	2693	 	36.694145	-122.061005	1758876	1.24	2005-07-25 21:02:39.0	Ventana	34.235	03:27:12:01	7.343	V2693-04
population-quantity | self | 999	ascend	Appendicularia	360.42	2693	 	36.69409	-122.06101	1758879	1.24	2005-07-25 21:02:53.0	Ventana	34.237	03:27:26:24	7.346	V2693-04
population-quantity | self | 999	ascend	Appendicularia	358.22	2693	 	36.69401	-122.06103	1758890	1.24	2005-07-25 21:03:16.0	Ventana	34.237	03:27:48:13	7.355	V2693-04
population-quantity | self | 999	ascend	Appendicularia	356.09	2693	 	36.693966	-122.061035	1758894	1.24	2005-07-25 21:03:32.0	Ventana	34.236	03:28:05:15	7.372	V2693-04
population-quantity | self | 999	ascend	Appendicularia	345.79	2693	 	36.693787	-122.061134	1758908	1.25	2005-07-25 21:05:22.0	Ventana	34.238	03:29:55:08	7.389	V2693-04
population-quantity | self | 999	ascend	Appendicularia	345.06	2693	 	36.693386	-122.061356	1758935	1.25	2005-07-25 21:10:04.0	Ventana	34.238	03:34:36:08	7.392	V2693-04
shape-arrangement | self | chain	ascend	Salpida	345.33	2693	 	36.693333	-122.06137	1758940	1.25	2005-07-25 21:10:20.0	Ventana	34.239	03:34:51:25	7.408	V2693-04
population-quantity | self | 999	ascend	Appendicularia	344.8	2693	 	36.693264	-122.06137	1758946	1.25	2005-07-25 21:10:40.0	Ventana	34.237	03:35:12:00	7.406	V2693-04
population-quantity | self | 999	ascend	Appendicularia	343.43	2693	 	36.693195	-122.06138	1758949	1.25	2005-07-25 21:11:00.0	Ventana	34.239	03:35:33:26	7.412	V2693-04
population-quantity | self | 999	ascend	Appendicularia	341.78	2693	 	36.69313	-122.061386	1758954	1.25	2005-07-25 21:11:18.0	Ventana	34.237	03:35:50:01	7.419	V2693-04
population-quantity | self | 999	ascend	Appendicularia	340.43	2693	 	36.693058	-122.06142	1758959	1.25	2005-07-25 21:11:36.0	Ventana	34.237	03:36:08:26	7.42	V2693-04
population-quantity | self | 999	ascend	Appendicularia	339.71	2693	 	36.692993	-122.06145	1758963	1.26	2005-07-25 21:11:52.0	Ventana	34.239	03:36:25:12	7.434	V2693-04
population-quantity | self | 999	ascend	Appendicularia	339.61	2693	 	36.692963	-122.06146	1758965	1.26	2005-07-25 21:12:00.0	Ventana	34.237	03:36:33:09	7.439	V2693-04
population-quantity | self | 999	ascend	Appendicularia	339.45	2693	 	36.692917	-122.06148	1758967	1.26	2005-07-25 21:12:12.0	Ventana	34.236	03:36:44:21	7.444	V2693-04
population-quantity | self | 999	ascend	Appendicularia	338.8	2693	 	36.692867	-122.0615	1758970	1.26	2005-07-25 21:12:30.0	Ventana	34.237	03:37:03:06	7.452	V2693-04
population-quantity | self | 999	ascend	Appendicularia	335.79	2693	 	36.69278	-122.06171	1758986	1.26	2005-07-25 21:13:31.0	Ventana	34.236	03:38:03:16	7.463	V2693-04
population-quantity | self | 999	ascend	Appendicularia	335.78	2693	 	36.692772	-122.06175	1758987	1.26	2005-07-25 21:13:39.0	Ventana	34.235	03:38:11:27	7.463	V2693-04
population-quantity | self | 999	ascend	Appendicularia	335.31	2693	 	36.692745	-122.061874	1758992	1.26	2005-07-25 21:14:03.0	Ventana	34.238	03:38:35:06	7.464	V2693-04
population-quantity | self | 999	ascend	Appendicularia	335.13	2693	 	36.692726	-122.0619	1758997	1.26	2005-07-25 21:14:13.0	Ventana	34.237	03:38:45:29	7.468	V2693-04
population-quantity | self | 999	ascend	Appendicularia	335.05	2693	 	36.69269	-122.061905	1758999	1.26	2005-07-25 21:14:25.0	Ventana	34.235	03:38:56:21	7.471	V2693-04
population-quantity | self | 999	ascend	Appendicularia	333.43	2693	 	36.692303	-122.06183	1759016	1.28	2005-07-25 21:15:25.0	Ventana	34.237	03:39:58:03	7.548	V2693-04
population-quantity | self | 999	ascend	Appendicularia	332.89	2693	 	36.69222	-122.06184	1759020	1.29	2005-07-25 21:15:41.0	Ventana	34.237	03:40:13:16	7.551	V2693-04
population-quantity | self | 999	ascend	Appendicularia	332.61	2693	 	36.69219	-122.06184	1759022	1.29	2005-07-25 21:15:47.0	Ventana	34.237	03:40:19:23	7.551	V2693-04
shape-arrangement | self | chain	ascend	Salpida	332.18	2693	 	36.692146	-122.06185	1759024	1.29	2005-07-25 21:15:55.0	Ventana	34.236	03:40:27:20	7.553	V2693-04
population-quantity | self | 999	ascend	Appendicularia	328.84	2693	 	36.69199	-122.06191	1759034	1.29	2005-07-25 21:16:32.0	Ventana	34.237	03:41:04:02	7.555	V2693-04
population-quantity | self | 999	ascend	Appendicularia	328.09	2693	 	36.69195	-122.06193	1759036	1.29	2005-07-25 21:16:42.0	Ventana	34.236	03:41:13:05	7.556	V2693-04
population-quantity | self | 999	ascend	Appendicularia	327.15	2693	 	36.6919	-122.06195	1759039	1.29	2005-07-25 21:16:56.0	Ventana	34.236	03:41:27:28	7.555	V2693-04
population-quantity | self | 999	ascend	Appendicularia	326.7	2693	 	36.691864	-122.06196	1759041	1.29	2005-07-25 21:17:04.0	Ventana	34.236	03:41:35:02	7.555	V2693-04
population-quantity | self | 999	ascend	Appendicularia	326.1	2693	 	36.69183	-122.06197	1759044	1.29	2005-07-25 21:17:14.0	Ventana	34.237	03:41:46:08	7.556	V2693-04
population-quantity | self | 999	ascend	Appendicularia	325.54	2693	 	36.6918	-122.06198	1759046	1.29	2005-07-25 21:17:22.0	Ventana	34.237	03:41:53:07	7.556	V2693-04
population-quantity | self | 999	ascend	Appendicularia	325.24	2693	 	36.691784	-122.06198	1759048	1.29	2005-07-25 21:17:26.0	Ventana	34.236	03:41:58:23	7.559	V2693-04
population-quantity | self | 999	ascend	Appendicularia	323.88	2693	 	36.69171	-122.062	1759053	1.29	2005-07-25 21:17:46.0	Ventana	34.238	03:42:18:14	7.562	V2693-04
population-quantity | self | 999	ascend	Appendicularia	323.38	2693	 	36.691677	-122.062004	1759055	1.29	2005-07-25 21:17:56.0	Ventana	34.238	03:42:27:24	7.565	V2693-04
population-quantity | self | 999	ascend	Appendicularia	323.2	2693	 	36.691666	-122.062004	1759056	1.29	2005-07-25 21:18:00.0	Ventana	34.238	03:42:32:11	7.565	V2693-04
population-quantity | self | 999	ascend	Appendicularia	322.57	2693	 	36.69162	-122.06202	1759057	1.29	2005-07-25 21:18:14.0	Ventana	34.238	03:42:46:03	7.568	V2693-04
population-quantity | self | 999	ascend	Appendicularia	318.06	2693	 	36.691566	-122.062035	1759059	1.29	2005-07-25 21:18:34.0	Ventana	34.236	03:43:05:18	7.58	V2693-04
shape-arrangement | self | chain	ascend	Salpida	317.06	2693	 	36.69156	-122.06204	1759061	1.3	2005-07-25 21:18:38.0	Ventana	34.236	03:43:11:03	7.619	V2693-04
identity-certainty | self | maybe	ascend	Bathylagidae	314.63	2693	 	36.69154	-122.06206	1759062	1.3	2005-07-25 21:18:46.0	Ventana	34.236	03:43:19:01	7.619	V2693-04
population-quantity | self | 999	ascend	Appendicularia	302.9	2693	 	36.691494	-122.06209	1759071	1.31	2005-07-25 21:19:18.0	Ventana	34.238	03:43:50:12	7.686	V2693-04
population-quantity | self | 999	ascend	Appendicularia	296.21	2693	 	36.69147	-122.06212	1759074	1.32	2005-07-25 21:19:36.0	Ventana	34.238	03:44:08:20	7.721	V2693-04
population-quantity | self | 999	ascend	Appendicularia	291.69	2693	 	36.691456	-122.06214	1759076	1.34	2005-07-25 21:19:49.0	Ventana	34.263	03:44:20:19	7.908	V2693-04
population-quantity | self | 999	ascend	Appendicularia	286.71	2693	 	36.691437	-122.06217	1759081	1.37	2005-07-25 21:20:05.0	Ventana	34.237	03:44:36:23	8.106	V2693-04
population-quantity | self | 999	ascend	Appendicularia	276.46	2693	 	36.691406	-122.062225	1759087	1.43	2005-07-25 21:20:35.0	Ventana	34.246	03:45:07:04	8.254	V2693-04
population-quantity | self | 999	ascend	Appendicularia	272.23	2693	 	36.6914	-122.06225	1759088	1.43	2005-07-25 21:20:47.0	Ventana	34.244	03:45:18:28	8.289	V2693-04
identity-certainty | self | maybe	ascend	Appendicularia	264.15	2693	 	36.691387	-122.062294	1759091	1.45	2005-07-25 21:21:11.0	Ventana	34.246	03:45:43:11	8.37	V2693-04
part-of | Euphausiacea | nil	ascend	molt	259.52	2693	 	36.69138	-122.062325	1759097	1.44	2005-07-25 21:21:29.0	Ventana	34.247	03:46:01:10	8.398	V2693-04
population-quantity | self | 999	ascend	Appendicularia	251.88	2693	 	36.69136	-122.062355	1759104	1.43	2005-07-25 21:21:59.0	Ventana	34.246	03:46:31:24	8.47	V2693-04
population-quantity | self | 999	ascend	Appendicularia	248.04	2693	 	36.691345	-122.06238	1759106	1.44	2005-07-25 21:22:13.0	Ventana	34.244	03:46:45:27	8.487	V2693-04
part-of | Euphausiacea | nil	ascend	molt	244.81	2693	 	36.69133	-122.0624	1759107	1.46	2005-07-25 21:22:25.0	Ventana	34.242	03:46:57:19	8.494	V2693-04
population-quantity | self | 999	ascend	Appendicularia	242.45	2693	 	36.69132	-122.06241	1759109	1.46	2005-07-25 21:22:33.0	Ventana	34.242	03:47:05:26	8.494	V2693-04
part-of | Euphausiacea | nil	ascend	molt	238.43	2693	 	36.691296	-122.06242	1759115	1.5	2005-07-25 21:22:47.0	Ventana	34.235	03:47:20:18	8.487	V2693-04
population-quantity | self | 999	ascend	Appendicularia	237.26	2693	 	36.691288	-122.06243	1759117	1.5	2005-07-25 21:22:51.0	Ventana	34.235	03:47:23:14	8.487	V2693-04
population-quantity | self | 999	ascend	Appendicularia	233.67	2693	 	36.69127	-122.062454	1759120	1.54	2005-07-25 21:23:06.0	Ventana	34.231	03:47:38:03	8.485	V2693-04
population-quantity | self | 999	ascend	Appendicularia	229.56	2693	 	36.691254	-122.06248	1759125	1.56	2005-07-25 21:23:22.0	Ventana	34.223	03:47:53:20	8.521	V2693-04
population-quantity | self | 999	ascend	Appendicularia	223.84	2693	 	36.691235	-122.06251	1759131	1.62	2005-07-25 21:23:40.0	Ventana	34.207	03:48:11:09	8.549	V2693-04
population-quantity | self | 999	ascend	Appendicularia	220.08	2693	 	36.691216	-122.06252	1759133	1.62	2005-07-25 21:23:52.0	Ventana	34.207	03:48:22:25	8.549	V2693-04
population-quantity | self | 999	ascend	Appendicularia	217.25	2693	 	36.691204	-122.06253	1759135	1.66	2005-07-25 21:24:00.0	Ventana	34.197	03:48:32:13	8.61	V2693-04
population-quantity | self | 999	ascend	Appendicularia	215.16	2693	 	36.691193	-122.06254	1759139	1.7	2005-07-25 21:24:08.0	Ventana	34.191	03:48:39:00	8.618	V2693-04
population-quantity | self | 999	ascend	Appendicularia	214.75	2693	 	36.69119	-122.06254	1759141	1.7	2005-07-25 21:24:10.0	Ventana	34.191	03:48:42:13	8.618	V2693-04
part-of | Euphausiacea | nil	ascend	molt	213.18	2693	 	36.691166	-122.06255	1759144	1.7	2005-07-25 21:24:20.0	Ventana	34.191	03:48:52:20	8.618	V2693-04
population-quantity | self | 999	ascend	Appendicularia	212.56	2693	 	36.69116	-122.06256	1759146	1.71	2005-07-25 21:24:24.0	Ventana	34.19	03:48:56:13	8.624	V2693-04
population-quantity | self | 999	ascend	Appendicularia	211.03	2693	 	36.69113	-122.06257	1759150	1.71	2005-07-25 21:24:34.0	Ventana	34.19	03:49:06:25	8.624	V2693-04
population-quantity | self | 999	ascend	Appendicularia	208.97	2693	 	36.691093	-122.06259	1759153	1.74	2005-07-25 21:24:48.0	Ventana	34.201	03:49:19:29	8.677	V2693-04
population-quantity | self | 999	ascend	Appendicularia	208.06	2693	 	36.69107	-122.0626	1759158	1.78	2005-07-25 21:24:54.0	Ventana	34.2	03:49:25:18	8.745	V2693-04
population-quantity | self | 999	ascend	Appendicularia	206.11	2693	 	36.691017	-122.06262	1759165	1.78	2005-07-25 21:25:06.0	Ventana	34.2	03:49:38:01	8.745	V2693-04
population-quantity | self | 999	ascend	Appendicularia	204.84	2693	 	36.690983	-122.06264	1759169	1.8	2005-07-25 21:25:14.0	Ventana	34.2	03:49:46:18	8.788	V2693-04
population-quantity | self | 999	ascend	Appendicularia	201.97	2693	 	36.690876	-122.06268	1759179	1.76	2005-07-25 21:25:34.0	Ventana	34.225	03:50:06:14	8.907	V2693-04
population-quantity | self | 999	ascend	Appendicularia	200.37	2693	 	36.69083	-122.062706	1759186	1.7	2005-07-25 21:25:44.0	Ventana	34.191	03:50:16:08	8.939	V2693-04
population-quantity | self | 999	ascend	Appendicularia	199.73	2693	 	36.690815	-122.06271	1759188	1.7	2005-07-25 21:25:48.0	Ventana	34.191	03:50:20:08	8.939	V2693-04
population-quantity | self | 999	ascend	Nanomia	199.39	2693	 	36.690807	-122.06272	1759189	1.7	2005-07-25 21:25:50.0	Ventana	34.191	03:50:22:12	8.939	V2693-04
population-quantity | self | 999	ascend	Euphausiacea	198.38	2693	 	36.690784	-122.06273	1759193	1.78	2005-07-25 21:25:56.0	Ventana	34.185	03:50:27:06	8.895	V2693-04
population-quantity | self | 999	ascend	Nanomia	197.7	2693	 	36.69077	-122.06274	1759194	1.78	2005-07-25 21:26:00.0	Ventana	34.185	03:50:31:05	8.895	V2693-04
population-quantity | self | 999	ascend	Euphausiacea	197.79	2693	 	36.6907	-122.062775	1759201	1.8	2005-07-25 21:26:29.0	Ventana	34.185	03:51:00:04	8.892	V2693-04
population-quantity | self | 999	ascend	Euphausiacea	200.67	2693	 	36.69062	-122.062836	1759203	1.77	2005-07-25 21:28:01.0	Ventana	34.191	03:52:33:01	8.913	V2693-04
population-quantity | self | 999	ascend	Nanomia	200.59	2693	 	36.69062	-122.062836	1759204	1.77	2005-07-25 21:28:05.0	Ventana	34.191	03:52:36:28	8.913	V2693-04
population-quantity | self | 999	ascend	Appendicularia	182.21	2693	 	36.690617	-122.06293	1759237	1.93	2005-07-25 21:29:35.0	Ventana	34.138	03:54:08:01	8.863	V2693-04
population-quantity | self | 999	ascend	Euphausiacea	175.04	2693	 	36.690636	-122.06295	1759246	1.95	2005-07-25 21:30:04.0	Ventana	34.128	03:54:35:26	8.878	V2693-04
population-quantity | self | 999	ascend	Nanomia	173.97	2693	 	36.690636	-122.06296	1759247	1.94	2005-07-25 21:30:08.0	Ventana	34.122	03:54:38:14	8.888	V2693-04
population-quantity | self | 999	ascend	Nanomia	171.81	2693	 	36.69064	-122.06296	1759248	1.94	2005-07-25 21:30:16.0	Ventana	34.122	03:54:47:26	8.888	V2693-04
population-quantity | self | 999	ascend	Euphausiacea	162.21	2693	 	36.690678	-122.06298	1759256	1.95	2005-07-25 21:30:52.0	Ventana	34.119	03:55:22:28	8.93	V2693-04
identity-certainty | self | maybe, inking | nil | nil, inking | nil | pseudomorphs, life-stage | self | juvenile	ascend	Chiroteuthis	143.16	2693	 	36.69075	-122.062965	1759264	1.93	2005-07-25 21:31:48.0	Ventana	34.113	03:56:18:28	9.114	V2693-04
sampled-by | Detritus Sampler | nil	ascend	Bathochordaeus	118.4	2693	 	36.69082	-122.062935	1759276	2.11	2005-07-25 21:33:05.0	Ventana	34.057	03:57:35:24	9.128	V2693-04
population-quantity | self | 999	descend	Appendicularia	 	2693	 	 	 	1759416	 	2005-07-25 16:43:43.0	Ventana	 	00:22:17:06	 	V2693-01
population-quantity | self | 999	descend	Appendicularia	 	2693	 	 	 	1759418	 	2005-07-25 16:43:54.0	Ventana	 	00:22:27:16	 	V2693-01
population-quantity | self | 999	descend	Appendicularia	 	2693	 	 	 	1759419	 	2005-07-25 16:44:00.0	Ventana	 	00:22:33:26	 	V2693-01
population-quantity | self | 999	descend	Appendicularia	 	2693	 	 	 	1759427	 	2005-07-25 16:44:20.0	Ventana	 	00:22:54:05	 	V2693-01
population-quantity | self | 999	descend	Appendicularia	 	2693	 	 	 	1759431	 	2005-07-25 16:44:40.0	Ventana	 	00:23:13:07	 	V2693-01
population-quantity | self | 999	descend	Appendicularia	 	2693	 	 	 	1759434	 	2005-07-25 16:44:44.0	Ventana	 	00:23:18:04	 	V2693-01
population-quantity | self | 999	descend	Appendicularia	 	2693	 	 	 	1759438	 	2005-07-25 16:44:54.0	Ventana	 	00:23:26:29	 	V2693-01
population-quantity | self | 999	descend	Appendicularia	 	2693	 	 	 	1759442	 	2005-07-25 16:45:04.0	Ventana	 	00:23:37:15	 	V2693-01
life-stage | self | juvenile	descend	Gonatus	 	2693	 	 	 	1759439	 	2005-07-25 16:44:56.0	Ventana	 	00:23:30:01	 	V2693-01
population-quantity | self | 999	descend	Appendicularia	 	2693	 	 	 	1759444	 	2005-07-25 16:45:16.0	Ventana	 	00:23:48:26	 	V2693-01
population-quantity | self | 999	descend	Appendicularia	 	2693	 	 	 	1759448	 	2005-07-25 16:45:28.0	Ventana	 	00:24:01:03	 	V2693-01
population-quantity | self | 999	descend	Appendicularia	 	2693	 	 	 	1759456	 	2005-07-25 16:45:54.0	Ventana	 	00:24:27:21	 	V2693-01
population-quantity | self | 999	descend	Appendicularia	 	2693	 	 	 	1759460	 	2005-07-25 16:46:26.0	Ventana	 	00:25:00:20	 	V2693-01
sampled-by | Push Corer | nil, sample-reference | self | V2674-C23	descend	sediment	802.16	2674	http://search.mbari.org/ARCHIVE/frameGrabs/Ventana/images/2674/00_00_07_05.jpg	36.752472	-122.19934	20003870	0.29	2005-06-08 17:15:33.0	Ventana	34.463	00:00:07:05	4.637	V2674-01
sampled-by | Push Corer | nil, sample-reference | self | V2674-C22	descend	sediment	802.13	2674	http://search.mbari.org/ARCHIVE/frameGrabs/Ventana/images/2674/00_02_00_02.jpg	36.752506	-122.19939	20003871	0.29	2005-06-08 17:17:25.0	Ventana	34.46	00:02:00:02	4.65	V2674-01
sampled-by | Push Corer | nil, sample-reference | self | V2674-C21	descend	sediment	802.12	2674	http://search.mbari.org/ARCHIVE/frameGrabs/Ventana/images/2674/00_02_06_01.jpg	36.752518	-122.19939	20003872	0.29	2005-06-08 17:17:30.0	Ventana	34.46	00:02:06:01	4.65	V2674-01
population-quantity | self | 999	stationary	Foraminiferida	802.1	2674	http://search.mbari.org/ARCHIVE/frameGrabs/Ventana/images/2674/00_05_06_26.jpg	36.752537	-122.19935	1773770	0.29	2005-06-08 17:20:33.0	Ventana	34.462	00:05:06:26	4.648	V2674-01
image-quality | self | good	transect	Bothrocara brunneum	801.81	2674	http://search.mbari.org/ARCHIVE/frameGrabs/Ventana/images/2674/00_10_55_28.jpg	36.75249	-122.199905	1773971	0.29	2005-06-08 17:26:21.0	Ventana	34.467	00:10:55:28	4.64	V2674-01
life-stage | self | juvenile	transect	Sebastolobus altivelis	800.79	2674	 	36.752586	-122.20125	1774183	0.35	2005-06-08 17:34:53.0	Ventana	34.488	00:19:26:05	4.378	V2674-01
life-stage | self | juvenile	transect	Sebastolobus altivelis	800.91	2674	 	36.75252	-122.201485	1774212	0.34	2005-06-08 17:36:02.0	Ventana	34.477	00:20:37:09	4.423	V2674-01
identity-certainty | self | maybe	transect	Sebastolobus altivelis	800.76	2674	 	36.752563	-122.201706	1799096	0.34	2005-06-08 17:37:06.0	Ventana	34.479	00:21:39:23	4.445	V2674-01
comment | self | note: there are a lrge number of juvs present, life-stage | self | juvenile	transect	Sebastolobus altivelis	799.41	2674	 	36.752457	-122.2052	1799737	0.35	2005-06-08 17:55:59.0	Ventana	34.49	00:40:31:29	4.357	V2674-01
identity-certainty | self | maybe	transect	trash	799.48	2674	http://search.mbari.org/ARCHIVE/frameGrabs/Ventana/images/2674/00_40_35_04.jpg	36.75246	-122.205215	1799757	0.35	2005-06-08 17:56:02.0	Ventana	34.49	00:40:35:04	4.357	V2674-01
identity-certainty | self | maybe	transect	holdfast	800.19	2674	http://search.mbari.org/ARCHIVE/frameGrabs/Ventana/images/2674/00_41_15_18.jpg	36.752445	-122.20537	1799785	0.36	2005-06-08 17:56:43.0	Ventana	34.487	00:41:15:18	4.361	V2674-01
comment | self | near but not attached to crab 	transect	Careproctus melanurus	802.15	2674	 	36.752254	-122.206856	1799989	0.37	2005-06-08 18:04:07.0	Ventana	34.49	00:48:39:16	4.326	V2674-01
life-stage | self | juvenile	transect	Sebastolobus altivelis	800.94	2674	http://search.mbari.org/ARCHIVE/frameGrabs/Ventana/images/2674/00_55_30_12.jpg	36.752125	-122.20828	1800734	0.35	2005-06-08 18:10:59.0	Ventana	34.49	00:55:30:12	4.322	V2674-01
moving | nil | nil	transect	Liponema brevicornis	800.58	2674	http://search.mbari.org/ARCHIVE/frameGrabs/Ventana/images/2674/00_59_04_07.jpg	36.752033	-122.209015	1800846	0.35	2005-06-08 18:14:33.0	Ventana	34.49	00:59:04:07	4.341	V2674-01
life-stage | self | juvenile	transect	Coryphaenoides acrolepis	801.3	2674	 	36.7525	-122.199455	1773779	0.29	2005-06-08 17:23:30.0	Ventana	34.46	00:08:04:22	4.661	V2674-01
life-stage | self | juvenile	transect	Coryphaenoides acrolepis	801.74	2674	http://search.mbari.org/ARCHIVE/frameGrabs/Ventana/images/2674/00_08_36_12.jpg	36.752483	-122.19953	1773786	0.29	2005-06-08 17:24:02.0	Ventana	34.46	00:08:36:12	4.649	V2674-01
life-stage | self | juvenile	cruise	Coryphaenoides acrolepis	802.2	2674	 	36.752445	-122.199715	1773806	0.3	2005-06-08 17:25:17.0	Ventana	34.467	00:09:51:28	4.59	V2674-01
life-stage | self | juvenile	transect	Coryphaenoides acrolepis	802.21	2674	 	36.75247	-122.199776	1773815	0.3	2005-06-08 17:25:39.0	Ventana	34.47	00:10:13:14	4.634	V2674-01
life-stage | self | juvenile	transect	Coryphaenoides acrolepis	801.69	2674	 	36.752483	-122.20002	1773986	0.29	2005-06-08 17:26:46.0	Ventana	34.455	00:11:20:15	4.641	V2674-01
life-stage | self | juvenile	transect	Coryphaenoides acrolepis	801.44	2674	 	36.75248	-122.20007	1773991	0.31	2005-06-08 17:27:10.0	Ventana	34.476	00:11:44:08	4.582	V2674-01
life-stage | self | juvenile	transect	Coryphaenoides acrolepis	800.29	2674	 	36.752598	-122.20032	1774096	0.29	2005-06-08 17:29:32.0	Ventana	34.462	00:14:06:09	4.649	V2674-01
life-stage | self | juvenile	transect	Coryphaenoides acrolepis	799.95	2674	 	36.75268	-122.20063	1774130	0.29	2005-06-08 17:31:45.0	Ventana	34.455	00:16:18:18	4.658	V2674-01
life-stage | self | juvenile	transect	Coryphaenoides acrolepis	799.74	2674	 	36.752686	-122.200676	1774133	0.29	2005-06-08 17:31:55.0	Ventana	34.464	00:16:29:01	4.649	V2674-01
life-stage | self | juvenile	transect	Coryphaenoides acrolepis	801.11	2674	http://search.mbari.org/ARCHIVE/frameGrabs/Ventana/images/2674/00_22_54_21.jpg	36.7526	-122.20189	1799130	0.34	2005-06-08 17:38:21.0	Ventana	34.482	00:22:54:21	4.405	V2674-01
life-stage | self | juvenile	transect	Coryphaenoides acrolepis	799.34	2674	http://search.mbari.org/ARCHIVE/frameGrabs/Ventana/images/2674/00_34_31_04.jpg	36.752514	-122.20416	1799455	0.35	2005-06-08 17:49:58.0	Ventana	34.482	00:34:31:04	4.383	V2674-01
life-stage | self | juvenile	transect	Coryphaenoides acrolepis	802.46	2674	 	36.7523	-122.20601	1799879	0.36	2005-06-08 18:00:00.0	Ventana	34.491	00:44:32:03	4.337	V2674-01
life-stage | self | juvenile	transect	Coryphaenoides acrolepis	802.73	2674	http://search.mbari.org/ARCHIVE/frameGrabs/Ventana/images/2674/00_46_22_23.jpg	36.752228	-122.20643	1799941	0.36	2005-06-08 18:01:50.0	Ventana	34.489	00:46:22:23	4.339	V2674-01
life-stage | self | juvenile	transect	Coryphaenoides acrolepis	802.08	2674	 	36.752235	-122.20655	1799955	0.36	2005-06-08 18:02:32.0	Ventana	34.488	00:47:03:24	4.351	V2674-01
life-stage | self | juvenile	transect	Coryphaenoides acrolepis	801.57	2674	 	36.752254	-122.20707	1800016	0.36	2005-06-08 18:05:04.0	Ventana	34.488	00:49:35:25	4.348	V2674-01
life-stage | self | juvenile	transect	Lycenchelys camchatica	800.56	2674	 	36.751953	-122.2096	1800924	0.35	2005-06-08 18:17:54.0	Ventana	34.493	01:01:59:13	4.326	V2674-02
life-stage | self | juvenile	transect	Lycenchelys camchatica	800.63	2674	 	36.751957	-122.20965	1800927	0.35	2005-06-08 18:18:02.0	Ventana	34.493	01:02:06:14	4.326	V2674-02
identity-certainty | self | maybe	transect	Chorilia longipes	800.96	2674	 	36.751938	-122.20981	1800954	0.35	2005-06-08 18:19:18.0	Ventana	34.483	01:03:23:12	4.35	V2674-02
life-stage | self | juvenile	transect	Coryphaenoides acrolepis	800.24	2674	 	36.751728	-122.21167	1801134	0.35	2005-06-08 18:26:39.0	Ventana	34.491	01:10:43:09	4.336	V2674-02
identity-certainty | self | maybe	transect	Lycenchelys camchatica	798.27	2674	 	36.751682	-122.213356	1801266	0.35	2005-06-08 18:34:11.0	Ventana	34.489	01:18:14:24	4.348	V2674-02
life-stage | self | juvenile	transect	Coryphaenoides acrolepis	798.33	2674	 	36.751682	-122.213356	1801267	0.35	2005-06-08 18:34:17.0	Ventana	34.489	01:18:20:24	4.348	V2674-02
life-stage | self | juvenile	transect	Coryphaenoides acrolepis	798.33	2674	 	36.751656	-122.21363	1801295	0.35	2005-06-08 18:35:54.0	Ventana	34.484	01:19:58:13	4.35	V2674-02
identity-certainty | self | maybe, relative-size | self | small, life-stage | self | juvenile	transect	Coryphaenoides acrolepis	798.24	2674	http://search.mbari.org/ARCHIVE/frameGrabs/Ventana/images/2674/01_21_23_06.jpg	36.751614	-122.21384	1801312	0.35	2005-06-08 18:37:19.0	Ventana	34.487	01:21:23:06	4.341	V2674-02
identity-certainty | self | maybe	transect	Lycenchelys crotalinus	800.28	2674	http://search.mbari.org/ARCHIVE/frameGrabs/Ventana/images/2674/01_31_27_25.jpg	36.75129	-122.21571	1803367	0.35	2005-06-08 18:47:24.0	Ventana	34.485	01:31:27:25	4.343	V2674-02
life-stage | self | old	transect	trawl mark	800.62	2674	http://search.mbari.org/ARCHIVE/frameGrabs/Ventana/images/2674/01_34_53_07.jpg	36.7512	-122.2164	1803419	0.35	2005-06-08 18:50:50.0	Ventana	34.49	01:34:53:07	4.336	V2674-02
life-stage | self | old	transect	trawl mark	800.15	2674	http://search.mbari.org/ARCHIVE/frameGrabs/Ventana/images/2674/01_35_42_08.jpg	36.7512	-122.21656	1803434	0.35	2005-06-08 18:51:39.0	Ventana	34.487	01:35:42:08	4.359	V2674-02
relative-size | self | large, image-quality | self | good	transect	Sebastolobus altivelis	802.83	2674	http://search.mbari.org/ARCHIVE/frameGrabs/Ventana/images/2674/01_50_43_16.jpg	36.750854	-122.21998	1803661	0.34	2005-06-08 19:06:41.0	Ventana	34.488	01:50:43:16	4.38	V2674-02
identity-certainty | self | maybe, identity-reference | self | 1	cruise	Physiculus rastrelliger	804.69	2674	http://search.mbari.org/ARCHIVE/frameGrabs/Ventana/images/2674/01_54_17_16.jpg	36.750698	-122.22081	1803718	0.34	2005-06-08 19:10:15.0	Ventana	34.485	01:54:17:16	4.414	V2674-02
identity-certainty | self | maybe, identity-reference | self | 1	transect	Physiculus rastrelliger	803.98	2674	http://search.mbari.org/ARCHIVE/frameGrabs/Ventana/images/2674/01_53_54_29.jpg	36.750732	-122.22073	1803714	0.34	2005-06-08 19:09:53.0	Ventana	34.485	01:53:54:29	4.402	V2674-02
population-density | self | dense, identity-certainty | self | maybe, population-quantity | self | 999	descend	Clupeiformes	97.68	2675	 	36.750988	-122.22278	1803859	1.81	2005-06-08 22:16:51.0	Ventana	34.104	02:07:08:28	8.461	V2675-01
population-density | self | dense, identity-certainty | self | maybe	cruise	Clupeiformes	97.83	2675	http://search.mbari.org/ARCHIVE/frameGrabs/Ventana/images/2675/02_07_17_06.jpg	36.750988	-122.22278	1803861	1.81	2005-06-08 22:16:59.0	Ventana	34.104	02:07:17:06	8.453	V2675-01
population-density | self | dense, identity-certainty | self | maybe	cruise	Clupeiformes	98.0	2675	 	36.750988	-122.22278	1803866	1.79	2005-06-08 22:17:24.0	Ventana	34.108	02:07:41:00	8.431	V2675-01
water-quality | self | sediment-cloudy	cruise	water	97.45	2675	 	36.750988	-122.22278	1803867	1.79	2005-06-08 22:17:46.0	Ventana	34.108	02:08:03:19	8.439	V2675-01
water-quality | self | sediment-cloudy	cruise	water	97.23	2675	 	36.750988	-122.22278	1803870	1.78	2005-06-08 22:18:06.0	Ventana	34.108	02:08:22:15	8.434	V2675-01
water-quality | self | sediment-cloudy	cruise	water	97.21	2675	 	36.750988	-122.22278	1803873	1.78	2005-06-08 22:18:33.0	Ventana	34.108	02:08:51:05	8.428	V2675-01
population-density | self | dense, identity-certainty | self | maybe	cruise	Clupeiformes	97.22	2675	 	36.750988	-122.22278	1803876	1.78	2005-06-08 22:19:01.0	Ventana	34.109	02:09:19:25	8.42	V2675-01
population-density | self | dense, identity-certainty | self | maybe	cruise	Clupeiformes	95.96	2675	 	36.750988	-122.22278	1803879	1.79	2005-06-08 22:20:47.0	Ventana	34.106	02:11:03:28	8.443	V2675-01
population-density | self | dense	cruise	marine snow	97.94	2675	 	36.750988	-122.22278	1803880	1.8	2005-06-08 22:21:06.0	Ventana	34.105	02:11:22:27	8.45	V2675-01
sampled-by | Push Corer | nil, sample-reference | self | V2675-C23	stationary	sediment	97.92	2675	http://search.mbari.org/ARCHIVE/frameGrabs/Ventana/images/2675/02_11_36_03.jpg	36.750988	-122.22278	20003893	1.8	2005-06-08 22:21:19.0	Ventana	34.103	02:11:36:03	8.455	V2675-01
sampled-by | Push Corer | nil, sample-reference | self | V2675-C224	stationary	sediment	97.85	2675	http://search.mbari.org/ARCHIVE/frameGrabs/Ventana/images/2675/02_12_05_18.jpg	36.750988	-122.22278	20003894	1.8	2005-06-08 22:21:48.0	Ventana	34.104	02:12:05:18	8.454	V2675-01
population-density | self | dense	stationary	marine snow	97.56	2675	 	36.750988	-122.22278	1803894	1.8	2005-06-08 22:24:51.0	Ventana	34.105	02:15:08:08	8.449	V2675-01
water-quality | self | sediment-cloudy	stationary	water	 	2680	 	 	 	1803957	 	2005-06-27 16:58:05.0	Ventana	 	00:00:14:04	 	V2680-01
surface-color | self | dark	stationary	mud	 	2680	 	 	 	1803962	 	2005-06-27 16:58:05.0	Ventana	 	00:00:36:05	 	V2680-01
surface-color | self | dark	stationary	mud	 	2680	 	 	 	1803969	 	 	Ventana	 	00:01:09:22	 	V2680-01
comment | self | contains glauconite, surface-color | self | dark	cruise	mud	598.93	2680	http://search.mbari.org/ARCHIVE/frameGrabs/Ventana/images/2680/01_01_42_29.jpg	36.780376	-122.225334	20004448	0.35	2005-06-27 18:21:39.0	Ventana	34.382	01:01:42:29	5.562	V2680-01
identity-reference | self | Kirkwood sampler pump	stationary	equipment	 	2680	http://search.mbari.org/ARCHIVE/frameGrabs/Ventana/images/2680/00_01_50_03.jpg	 	 	1803984	 	2005-06-27 16:58:05.0	Ventana	 	00:01:50:03	 	V2680-01
dropped-by | equipment | nil	stationary	manipulator	 	2680	 	 	 	1803995	 	2005-06-27 16:58:05.0	Ventana	 	00:03:49:21	 	V2680-01
stowed | equipment | nil	stationary	manipulator	 	2680	 	 	 	1803997	 	2005-06-27 16:58:05.0	Ventana	 	00:05:03:12	 	V2680-01
sample-reference | self | V2680-C26, sampled-by | Push Corer | nil	stationary	sediment	 	2680	http://search.mbari.org/ARCHIVE/frameGrabs/Ventana/images/2680/00_07_01_11.jpg	 	 	1804003	 	2005-06-27 16:58:05.0	Ventana	 	00:07:01:11	 	V2680-01
sampled-by | Push Corer | nil, sample-reference | self | V2680-C25	stationary	sediment	 	2680	http://search.mbari.org/ARCHIVE/frameGrabs/Ventana/images/2680/00_07_35_09.jpg	 	 	1804013	 	2005-06-27 16:58:05.0	Ventana	 	00:07:35:09	 	V2680-01
sample-reference | self | V2680-C7, sampled-by | Push Corer | nil	stationary	sediment	 	2680	http://search.mbari.org/ARCHIVE/frameGrabs/Ventana/images/2680/00_08_31_07.jpg	 	 	1804024	 	2005-06-27 16:58:05.0	Ventana	 	00:08:31:07	 	V2680-01
sampled-by | Push Corer | nil, sample-reference | self | V2680-C8	stationary	sediment	 	2680	http://search.mbari.org/ARCHIVE/frameGrabs/Ventana/images/2680/00_09_07_12.jpg	 	 	1804032	 	2005-06-27 16:58:05.0	Ventana	 	00:09:07:12	 	V2680-01
sampled-by | Push Corer | nil, sample-reference | self | V2680-C9	stationary	sediment	 	2680	http://search.mbari.org/ARCHIVE/frameGrabs/Ventana/images/2680/00_10_00_17.jpg	 	 	1804041	 	2005-06-27 16:58:05.0	Ventana	 	00:10:00:17	 	V2680-01
sample-reference | self | V2680-C29, sampled-by | Push Corer | nil	stationary	sediment	 	2680	http://search.mbari.org/ARCHIVE/frameGrabs/Ventana/images/2680/00_10_43_17.jpg	 	 	1804053	 	2005-06-27 16:58:05.0	Ventana	 	00:10:43:17	 	V2680-01
posture | self | closed	stationary	drawer	 	2680	 	 	 	1804059	 	2005-06-27 16:58:05.0	Ventana	 	00:11:17:08	 	V2680-01
water-quality | self | sediment-cloudy	stationary	water	 	2680	 	 	 	1804068	 	 	Ventana	 	00:12:22:27	 	V2680-01
surface-color | self | dark	cruise	mud	 	2680	 	 	 	1804073	 	 	Ventana	 	00:13:56:22	 	V2680-01
surface-color | self | dark	stationary	mud	601.8	2680	 	36.776634	-122.22198	1804101	0.36	2005-06-27 17:36:08.0	Ventana	34.38	00:16:14:12	5.566	V2680-01
identity-certainty | self | maybe, feeding | nil | nil, comment | self | hits seafloor, then swims away, surface-color | self | red	transect	Dosidicus gigas	601.32	2680	http://search.mbari.org/ARCHIVE/frameGrabs/Ventana/images/2680/00_19_39_06.jpg	36.77689	-122.22215	1804159	0.36	2005-06-27 17:39:31.0	Ventana	34.38	00:19:39:06	5.577	V2680-01
identity-certainty | self | maybe	transect	Pennatulacea sp.1	600.26	2680	 	36.777252	-122.22243	1804262	0.36	2005-06-27 17:44:08.0	Ventana	34.379	00:24:16:05	5.581	V2680-01
image-quality | self | good	transect	Lycodes diapterus	599.76	2680	http://search.mbari.org/ARCHIVE/frameGrabs/Ventana/images/2680/00_26_29_11.jpg	36.77743	-122.22255	1804278	0.36	2005-06-27 17:46:22.0	Ventana	34.379	00:26:29:11	5.583	V2680-01
life-stage | self | juvenile	transect	Umbellula lindahli	599.87	2680	 	36.77807	-122.22322	1804352	0.36	2005-06-27 17:53:42.0	Ventana	34.377	00:33:49:10	5.591	V2680-01
life-stage | self | juvenile	transect	Umbellula lindahli	599.85	2680	 	36.778072	-122.22322	1804346	0.36	2005-06-27 17:53:44.0	Ventana	34.377	00:33:50:28	5.591	V2680-01
identity-certainty | self | maybe, relative-size | self | small	transect	Pennatula phosphorea californica	599.89	2680	 	36.77812	-122.22329	1804359	0.36	2005-06-27 17:54:15.0	Ventana	34.377	00:34:22:18	5.589	V2680-01
comment | self | out of shell	transect	Diogenidae	599.87	2680	http://search.mbari.org/ARCHIVE/frameGrabs/Ventana/images/2680/00_36_12_16.jpg	36.778248	-122.22344	1804376	0.36	2005-06-27 17:56:05.0	Ventana	34.381	00:36:12:16	5.586	V2680-01
curling | nil | nil	transect	Lycodapus	599.85	2680	 	36.77866	-122.22387	1804413	0.36	2005-06-27 18:01:56.0	Ventana	34.378	00:42:02:20	5.587	V2680-01
identity-certainty | self | maybe	transect	Stomphia	599.93	2680	 	36.778778	-122.22395	1804432	0.36	2005-06-27 18:03:22.0	Ventana	34.379	00:43:27:29	5.594	V2680-01
identity-certainty | self | maybe	transect	Brisaster	598.91	2680	 	36.780266	-122.22528	1804624	0.35	2005-06-27 18:20:45.0	Ventana	34.379	01:00:51:00	5.579	V2680-01
feeding | nil | nil, comment | self | carapace of another crab?	transect	Chionoecetes tanneri	597.81	2680	 	36.78121	-122.22617	1804916	0.36	2005-06-27 18:33:20.0	Ventana	34.377	01:12:26:02	5.595	V2680-02
life-stage | self | old	cruise	trawl mark	598.59	2680	http://search.mbari.org/ARCHIVE/frameGrabs/Ventana/images/2680/01_35_46_03.jpg	36.78255	-122.227745	1805187	0.35	2005-06-27 18:56:41.0	Ventana	34.381	01:35:46:03	5.567	V2680-02
surface-color | self | dark	cruise	mud	598.48	2680	 	36.782593	-122.227776	1805205	0.35	2005-06-27 18:57:14.0	Ventana	34.381	01:36:18:21	5.568	V2680-02
life-stage | self | old	transect	trawl mark	598.27	2680	http://search.mbari.org/ARCHIVE/frameGrabs/Ventana/images/2680/01_38_22_13.jpg	36.78276	-122.22798	1805223	0.35	2005-06-27 18:59:18.0	Ventana	34.381	01:38:22:13	5.567	V2680-02
life-stage | self | old	transect	trawl mark	599.45	2680	http://search.mbari.org/ARCHIVE/frameGrabs/Ventana/images/2680/01_40_27_27.jpg	36.782913	-122.22822	1805265	0.35	2005-06-27 19:01:23.0	Ventana	34.38	01:40:27:27	5.579	V2680-02
life-stage | self | old	transect	trawl mark	599.33	2680	http://search.mbari.org/ARCHIVE/frameGrabs/Ventana/images/2680/01_42_23_22.jpg	36.78307	-122.22841	1805303	0.36	2005-06-27 19:03:19.0	Ventana	34.378	01:42:23:22	5.593	V2680-02
life-stage | self | old	transect	trawl mark	599.36	2680	http://search.mbari.org/ARCHIVE/frameGrabs/Ventana/images/2680/01_43_52_14.jpg	36.7832	-122.22857	1805338	0.35	2005-06-27 19:04:48.0	Ventana	34.379	01:43:52:14	5.587	V2680-02
life-stage | self | old	transect	trawl mark	599.79	2680	http://search.mbari.org/ARCHIVE/frameGrabs/Ventana/images/2680/01_45_55_13.jpg	36.783382	-122.228836	1805387	0.35	2005-06-27 19:06:51.0	Ventana	34.379	01:45:55:13	5.581	V2680-02
life-stage | self | old	transect	trawl mark	599.84	2680	http://search.mbari.org/ARCHIVE/frameGrabs/Ventana/images/2680/01_49_09_22.jpg	36.783695	-122.22915	1805446	0.35	2005-06-27 19:10:06.0	Ventana	34.379	01:49:09:22	5.593	V2680-02
life-stage | self | old	transect	trawl mark	599.6	2680	http://search.mbari.org/ARCHIVE/frameGrabs/Ventana/images/2680/01_52_05_01.jpg	36.784004	-122.22943	1805484	0.36	2005-06-27 19:13:01.0	Ventana	34.378	01:52:05:01	5.604	V2680-02
life-stage | self | juvenile	transect	Parmaturus xaniurus	600.94	2680	http://search.mbari.org/ARCHIVE/frameGrabs/Ventana/images/2680/01_59_15_03.jpg	36.78465	-122.23001	1805655	0.35	2005-06-27 19:20:12.0	Ventana	34.377	01:59:15:03	5.597	V2680-02
life-stage | self | old	transect	trawl mark	600.47	2680	http://search.mbari.org/ARCHIVE/frameGrabs/Ventana/images/2680/02_16_38_19.jpg	36.78638	-122.23102	1805875	0.36	2005-06-27 19:37:59.0	Ventana	34.379	02:16:38:19	5.599	V2680-03
life-stage | self | juvenile	transect	Umbellula lindahli	600.8	2680	http://search.mbari.org/ARCHIVE/frameGrabs/Ventana/images/2680/02_17_15_00.jpg	36.786438	-122.23106	1805878	0.36	2005-06-27 19:38:35.0	Ventana	34.377	02:17:15:00	5.601	V2680-03
life-stage | self | old	transect	trawl mark	601.0	2680	http://search.mbari.org/ARCHIVE/frameGrabs/Ventana/images/2680/02_22_33_28.jpg	36.786957	-122.231346	1805897	0.36	2005-06-27 19:43:55.0	Ventana	34.377	02:22:33:28	5.603	V2680-03
life-stage | self | old	transect	trawl mark	602.35	2680	 	36.787518	-122.23184	1805921	0.36	2005-06-27 19:50:18.0	Ventana	34.378	02:28:55:09	5.594	V2680-03
life-stage | self | old	transect	trawl mark	602.74	2680	 	36.788155	-122.23217	1805946	0.36	2005-06-27 19:57:02.0	Ventana	34.38	02:35:40:23	5.593	V2680-03
life-stage | self | old	transect	trawl mark	602.85	2680	 	36.788345	-122.23224	1805954	0.35	2005-06-27 19:58:49.0	Ventana	34.378	02:37:25:23	5.589	V2680-03
identity-certainty | self | maybe	transect	Mesomyaria	602.83	2680	 	36.7886	-122.232346	1805962	0.36	2005-06-27 20:01:24.0	Ventana	34.379	02:40:01:29	5.604	V2680-03
identity-certainty | self | maybe	transect	Chorilia longipes	603.3	2680	 	36.78902	-122.23249	1805986	0.36	2005-06-27 20:06:06.0	Ventana	34.38	02:44:44:10	5.588	V2680-03
comment | self | about 28 inches across, nil | nil | nil	transect	field of view	602.79	2680	 	36.789276	-122.23252	1806704	0.35	2005-06-27 20:09:01.0	Ventana	34.379	02:47:38:10	5.588	V2680-03
life-stage | self | juvenile	transect	Parmaturus xaniurus	602.78	2680	 	36.78955	-122.23257	1806716	0.35	2005-06-27 20:11:42.0	Ventana	34.38	02:50:19:09	5.59	V2680-03
life-stage | self | old	transect	trawl mark	602.37	2680	http://search.mbari.org/ARCHIVE/frameGrabs/Ventana/images/2680/02_55_57_05.jpg	36.790195	-122.23268	1806751	0.35	2005-06-27 20:17:20.0	Ventana	34.38	02:55:57:05	5.586	V2680-03
identity-certainty | self | maybe	transect	Mesomyaria	602.35	2680	 	36.790382	-122.23272	1806767	0.35	2005-06-27 20:19:00.0	Ventana	34.379	02:57:37:06	5.588	V2680-03
identity-certainty | self | maybe	transect	Stomphia	602.3	2680	http://search.mbari.org/ARCHIVE/frameGrabs/Ventana/images/2680/02_59_39_26.jpg	36.79056	-122.23276	1806787	0.35	2005-06-27 20:21:03.0	Ventana	34.376	02:59:39:26	5.598	V2680-03
life-stage | self | old	transect	trawl mark	602.09	2680	http://search.mbari.org/ARCHIVE/frameGrabs/Ventana/images/2680/03_08_25_22.jpg	36.791676	-122.23297	1806866	0.36	2005-06-27 20:29:49.0	Ventana	34.379	03:08:25:22	5.589	V2680-03
water-quality | self | sediment-cloudy	stationary	water	602.52	2680	 	36.79187	-122.233	1806882	0.36	2005-06-27 20:31:37.0	Ventana	34.38	03:10:12:26	5.598	V2680-03
water-quality | self | sediment-cloudy	stationary	water	602.51	2680	 	36.791885	-122.233	1806884	0.36	2005-06-27 20:32:17.0	Ventana	34.374	03:10:52:20	5.603	V2680-03
water-quality | self | sediment-cloudy	ascend	water	594.73	2680	 	36.7919	-122.233086	1806886	0.36	2005-06-27 20:33:39.0	Ventana	34.363	03:12:15:00	5.69	V2680-03
identity-reference | self | Kirkwood sampler pump	stationary	equipment	 	2687	http://search.mbari.org/ARCHIVE/frameGrabs/Ventana/images/2687/00_07_46_16.jpg	 	 	20005040	 	2005-07-13 16:40:52.0	Ventana	 	00:07:46:16	 	V2687-01
identity-reference | self | Kirkwood sampler pump, perspective | self | close-up	stationary	equipment	 	2687	http://search.mbari.org/ARCHIVE/frameGrabs/Ventana/images/2687/00_09_18_13.jpg	 	 	20005043	 	2005-07-13 16:42:24.0	Ventana	 	00:09:18:13	 	V2687-01
identity-reference | self | Kirkwood sampler pump, perspective | self | close-up	stationary	equipment	 	2687	http://search.mbari.org/ARCHIVE/frameGrabs/Ventana/images/2687/00_09_30_28.jpg	 	 	20005045	 	2005-07-13 16:42:36.0	Ventana	 	00:09:30:28	 	V2687-01
identity-reference | self | Kirkwood sampler pump, perspective | self | close-up	stationary	equipment	 	2687	http://search.mbari.org/ARCHIVE/frameGrabs/Ventana/images/2687/00_09_20_28.jpg	 	 	20005044	 	2005-07-13 16:42:26.0	Ventana	 	00:09:20:28	 	V2687-01
identity-reference | self | Kirkwood sampler pump	stationary	equipment	 	2687	http://search.mbari.org/ARCHIVE/frameGrabs/Ventana/images/2687/00_08_50_14.jpg	 	 	20005042	 	2005-07-13 16:41:56.0	Ventana	 	00:08:50:14	 	V2687-01
identity-reference | self | Kirkwood sampler pump	stationary	equipment	 	2687	http://search.mbari.org/ARCHIVE/frameGrabs/Ventana/images/2687/00_08_20_00.jpg	 	 	20005041	 	2005-07-13 16:41:26.0	Ventana	 	00:08:20:00	 	V2687-01
population-quantity | self | 17	transect	Allocentrotus fragilis	 	2687	http://search.mbari.org/ARCHIVE/frameGrabs/Ventana/images/2687/03_00_59_06.jpg	 	 	20005059	 	2005-07-13 19:35:16.0	Ventana	 	03:00:59:06	 	V2687-03
population-quantity | self | 3	transect	Psolus squamatus	 	2687	http://search.mbari.org/ARCHIVE/frameGrabs/Ventana/images/2687/00_25_56_27.jpg	 	 	1806889	 	2005-07-13 16:59:03.0	Ventana	 	00:25:56:27	 	V2687-01
population-quantity | self | 999	cruise	Merluccius productus	 	2687	 	 	 	1806896	 	2005-07-13 16:33:34.0	Ventana	 	00:00:30:02	 	V2687-01
population-quantity | self | 999	cruise	Sebastes diploproa	 	2687	 	 	 	1806898	 	2005-07-13 16:33:58.0	Ventana	 	00:00:54:08	 	V2687-01
population-quantity | self | 999	cruise	Psolus squamatus	 	2687	 	 	 	1806900	 	2005-07-13 16:34:21.0	Ventana	 	00:01:17:03	 	V2687-01
population-quantity | self | 999	cruise	Psolus squamatus	 	2687	 	 	 	1806901	 	2005-07-13 16:34:48.0	Ventana	 	00:01:43:29	 	V2687-01
population-density | self | dense	cruise	Psolus squamatus	 	2687	 	 	 	1806903	 	2005-07-13 16:35:36.0	Ventana	 	00:02:31:21	 	V2687-01
population-quantity | self | 999	cruise	Psolus squamatus	 	2687	 	 	 	1806909	 	2005-07-13 16:36:37.0	Ventana	 	00:03:32:10	 	V2687-01
population-quantity | self | 999	cruise	Psolus squamatus	 	2687	 	 	 	1806913	 	2005-07-13 16:37:58.0	Ventana	 	00:04:53:29	 	V2687-01
water-quality | self | sediment-cloudy	cruise	water	 	2687	 	 	 	1806915	 	2005-07-13 16:38:21.0	Ventana	 	00:05:16:15	 	V2687-01
grabbing | equipment | nil	stationary	manipulator	 	2687	 	 	 	1806919	 	2005-07-13 16:39:55.0	Ventana	 	00:06:50:02	 	V2687-01
grabbing | equipment | nil	stationary	manipulator	 	2687	 	 	 	1806925	 	2005-07-13 16:41:16.0	Ventana	 	00:08:10:24	 	V2687-01
stowed | equipment | nil	stationary	manipulator	 	2687	 	 	 	1806940	 	2005-07-13 16:43:37.0	Ventana	 	00:10:31:20	 	V2687-01
fail | nil | nil	stationary	Push Corer	 	2687	 	 	 	1806946	 	2005-07-13 16:45:51.0	Ventana	 	00:12:45:05	 	V2687-01
fail | nil | nil	stationary	Push Corer	 	2687	 	 	 	1806948	 	2005-07-13 16:46:45.0	Ventana	 	00:13:40:03	 	V2687-01
sampled-by | Push Corer | nil, sample-reference | self | V2687-C11	stationary	sediment	 	2687	http://search.mbari.org/ARCHIVE/frameGrabs/Ventana/images/2687/00_14_02_04.jpg	 	 	20005047	 	2005-07-13 16:47:07.0	Ventana	 	00:14:02:04	 	V2687-01
sampled-by | Push Corer | nil, sample-reference | self | V2687-C7	stationary	sediment	 	2687	http://search.mbari.org/ARCHIVE/frameGrabs/Ventana/images/2687/00_14_55_03.jpg	 	 	20005049	 	2005-07-13 16:48:02.0	Ventana	 	00:14:55:03	 	V2687-01
population-quantity | self | 999	stationary	Psolus squamatus	 	2687	 	 	 	1806957	 	2005-07-13 16:50:16.0	Ventana	 	00:17:10:10	 	V2687-01
identity-certainty | self | maybe	transect	Brisaster	 	2687	 	 	 	1807151	 	2005-07-13 17:01:44.0	Ventana	 	00:28:38:25	 	V2687-01
identity-reference | self | Cerithiidae	transect	Gastropoda sp.3	 	2687	 	 	 	1807369	 	2005-07-13 17:07:41.0	Ventana	 	00:34:34:16	 	V2687-01
identity-reference | self | Cerithiidae	transect	Gastropoda sp.3	 	2687	 	 	 	1807487	 	2005-07-13 17:11:16.0	Ventana	 	00:38:09:23	 	V2687-01
identity-certainty | self | maybe, surface-color | self | red	transect	Nudibranchia	 	2687	http://search.mbari.org/ARCHIVE/frameGrabs/Ventana/images/2687/00_53_45_27.jpg	 	 	1808677	 	2005-07-13 17:26:53.0	Ventana	 	00:53:45:27	 	V2687-01
relative-size | self | small, surface-color | self | orange	transect	Nudibranchia	 	2687	http://search.mbari.org/ARCHIVE/frameGrabs/Ventana/images/2687/00_54_09_20.jpg	 	 	1808689	 	2005-07-13 17:27:17.0	Ventana	 	00:54:09:20	 	V2687-01
identity-reference | self | small, white	transect	Actiniaria	 	2687	http://search.mbari.org/ARCHIVE/frameGrabs/Ventana/images/2687/00_55_55_20.jpg	 	 	1808771	 	2005-07-13 17:29:03.0	Ventana	 	00:55:55:20	 	V2687-01
identity-reference | self | small, white	transect	Actiniaria	 	2687	 	 	 	1807685	 	2005-07-13 17:22:43.0	Ventana	 	00:49:36:13	 	V2687-01
identity-certainty | self | maybe	transect	Stomphia	 	2687	 	 	 	1808920	 	2005-07-13 17:32:03.0	Ventana	 	00:58:55:10	 	V2687-01
identity-reference | self | small, white	transect	Actiniaria	 	2687	http://search.mbari.org/ARCHIVE/frameGrabs/Ventana/images/2687/00_59_58_03.jpg	 	 	1808985	 	2005-07-13 17:33:06.0	Ventana	 	00:59:58:03	 	V2687-01
identity-certainty | self | maybe, relative-size | self | small, surface-color | self | orange	transect	Nudibranchia	399.87	2687	 	36.788033	-122.1215	1809059	1.14	2005-07-13 17:35:37.0	Ventana	34.237	01:01:59:03	7.276	V2687-02
life-stage | self | juvenile	transect	Rathbunaster californicus	399.91	2687	 	36.788074	-122.12155	1809186	1.13	2005-07-13 17:36:49.0	Ventana	34.241	01:03:11:22	7.262	V2687-02
identity-reference | self | small, white	transect	Actiniaria	399.87	2687	 	36.788094	-122.12162	1809198	1.13	2005-07-13 17:37:08.0	Ventana	34.243	01:03:30:27	7.262	V2687-02
identity-reference | self | small, white	transect	Actiniaria	399.87	2687	 	36.788094	-122.12162	1809199	1.13	2005-07-13 17:37:08.0	Ventana	34.243	01:03:30:27	7.262	V2687-02
identity-reference | self | Cerithiidae	transect	Gastropoda sp.3	400.29	2687	 	36.789005	-122.12385	1809506	1.17	2005-07-13 18:09:57.0	Ventana	34.239	01:36:17:02	7.353	V2687-02
identity-reference | self | Cerithiidae	transect	Gastropoda sp.3	400.29	2687	 	36.78902	-122.123886	1809513	1.17	2005-07-13 18:10:36.0	Ventana	34.241	01:36:56:12	7.35	V2687-02
identity-reference | self | Cerithiidae	transect	Gastropoda sp.3	400.28	2687	 	36.789036	-122.12394	1809516	1.17	2005-07-13 18:11:09.0	Ventana	34.24	01:37:28:13	7.351	V2687-02
identity-reference | self | Cerithiidae	transect	Gastropoda sp.3	400.29	2687	 	36.78904	-122.12394	1809517	1.17	2005-07-13 18:11:15.0	Ventana	34.24	01:37:35:03	7.351	V2687-02
comment | self | aluminum	transect	trash	400.08	2687	http://search.mbari.org/ARCHIVE/frameGrabs/Ventana/images/2687/01_39_07_07.jpg	36.78909	-122.124016	1809535	1.17	2005-07-13 18:12:47.0	Ventana	34.238	01:39:07:07	7.355	V2687-02
identity-certainty | self | maybe	transect	Psolus squamatus	400.08	2687	 	36.789104	-122.1241	1809538	1.17	2005-07-13 18:13:38.0	Ventana	34.238	01:39:58:05	7.359	V2687-02
identity-reference | self | Cerithiidae	transect	Gastropoda sp.3	400.08	2687	 	36.789124	-122.12412	1809541	1.18	2005-07-13 18:14:04.0	Ventana	34.238	01:40:24:11	7.359	V2687-02
identity-certainty | self | maybe, relative-size | self | small, surface-color | self | orange	transect	Nudibranchia	399.7	2687	http://search.mbari.org/ARCHIVE/frameGrabs/Ventana/images/2687/01_43_44_06.jpg	36.789192	-122.12432	1809561	1.17	2005-07-13 18:17:24.0	Ventana	34.237	01:43:44:06	7.361	V2687-02
identity-reference | self | Cerithiidae	transect	Gastropoda sp.3	399.69	2687	 	36.789326	-122.12483	1809613	1.15	2005-07-13 18:25:21.0	Ventana	34.241	01:51:40:17	7.32	V2687-02
identity-certainty | self | maybe	transect	Sabellidae	399.71	2687	http://search.mbari.org/ARCHIVE/frameGrabs/Ventana/images/2687/01_53_27_01.jpg	36.789352	-122.12492	1809632	1.15	2005-07-13 18:27:08.0	Ventana	34.24	01:53:27:01	7.314	V2687-02
identity-certainty | self | maybe	transect	Actiniaria sp. 3	399.54	2687	 	36.789356	-122.12494	1809637	1.15	2005-07-13 18:27:13.0	Ventana	34.24	01:53:32:05	7.321	V2687-02
identity-reference | self | Cerithiidae	transect	Gastropoda sp.3	399.49	2687	 	36.789368	-122.124954	1809642	1.16	2005-07-13 18:28:17.0	Ventana	34.238	01:54:36:20	7.323	V2687-02
identity-reference | self | Cerithiidae	transect	Gastropoda sp.3	400.11	2687	 	36.78942	-122.125435	1809679	1.13	2005-07-13 18:34:59.0	Ventana	34.239	02:01:17:18	7.269	V2687-02
identity-reference | self | Cerithiidae	transect	Gastropoda sp.3	399.87	2687	 	36.789402	-122.1255	1809694	1.13	2005-07-13 18:36:15.0	Ventana	34.241	02:02:34:00	7.267	V2687-02
identity-reference | self | Cerithiidae	transect	Gastropoda sp.3	399.66	2687	 	36.78939	-122.12553	1809698	1.13	2005-07-13 18:36:43.0	Ventana	34.242	02:03:02:03	7.259	V2687-02
buried | nil | nil	transect	Microstomus pacificus	 	2687	http://search.mbari.org/ARCHIVE/frameGrabs/Ventana/images/2687/02_05_32_14.jpg	 	 	1809748	 	2005-07-13 18:39:46.0	Ventana	 	02:05:32:14	 	V2687-03
identity-reference | self | Cerithiidae	transect	Gastropoda sp.3	 	2687	 	 	 	1809818	 	2005-07-13 18:44:06.0	Ventana	 	02:09:52:20	 	V2687-03
identity-reference | self | Cerithiidae	transect	Gastropoda sp.3	 	2687	 	 	 	1809858	 	2005-07-13 18:46:54.0	Ventana	 	02:12:40:07	 	V2687-03
identity-reference | self | small, white	transect	Actiniaria	 	2687	 	 	 	1809881	 	2005-07-13 18:47:26.0	Ventana	 	02:13:12:20	 	V2687-03
identity-certainty | self | maybe	transect	Stomphia	 	2687	 	 	 	1809936	 	2005-07-13 18:48:25.0	Ventana	 	02:14:11:04	 	V2687-03
identity-reference | self | small, white	transect	Actiniaria	 	2687	 	 	 	1809961	 	2005-07-13 18:49:01.0	Ventana	 	02:14:47:19	 	V2687-03
identity-certainty | self | maybe, relative-size | self | small, surface-color | self | orange	transect	Nudibranchia	 	2687	 	 	 	1810090	 	2005-07-13 18:55:28.0	Ventana	 	02:21:14:11	 	V2687-03
part-of | Bivalvia | nil	transect	siphon	 	2687	http://search.mbari.org/ARCHIVE/frameGrabs/Ventana/images/2687/02_26_05_01.jpg	 	 	1810145	 	2005-07-13 19:00:20.0	Ventana	 	02:26:05:01	 	V2687-03
posture | self | closed	transect	Psolus squamatus	 	2687	http://search.mbari.org/ARCHIVE/frameGrabs/Ventana/images/2687/02_26_05_01.jpg	 	 	1810147	 	2005-07-13 19:00:20.0	Ventana	 	02:26:05:01	 	V2687-03
identity-certainty | self | maybe	transect	Stomphia	 	2687	 	 	 	1810148	 	2005-07-13 19:00:25.0	Ventana	 	02:26:10:14	 	V2687-03
identity-certainty | self | maybe	transect	Mediaster	 	2687	 	 	 	1810207	 	2005-07-13 19:09:17.0	Ventana	 	02:35:01:20	 	V2687-03
identity-reference | self | small, white	transect	Actiniaria	 	2687	 	 	 	1810253	 	2005-07-13 19:12:37.0	Ventana	 	02:38:22:03	 	V2687-03
identity-reference | self | Cerithiidae	transect	Gastropoda sp.3	 	2687	 	 	 	1810285	 	2005-07-13 19:14:05.0	Ventana	 	02:39:49:10	 	V2687-03
identity-certainty | self | maybe	transect	Sebastes crameri	 	2687	http://search.mbari.org/ARCHIVE/frameGrabs/Ventana/images/2687/02_40_15_01.jpg	 	 	1810291	 	2005-07-13 19:14:31.0	Ventana	 	02:40:15:01	 	V2687-03
identity-certainty | self | maybe	transect	Sebastes diploproa	 	2687	 	 	 	1810323	 	2005-07-13 19:15:33.0	Ventana	 	02:41:17:12	 	V2687-03
identity-reference | self | small, white	transect	Actiniaria	 	2687	 	 	 	1810426	 	2005-07-13 19:17:50.0	Ventana	 	02:43:34:01	 	V2687-03
identity-reference | self | Cerithiidae	transect	Gastropoda sp.3	 	2687	 	 	 	1810516	 	2005-07-13 19:21:31.0	Ventana	 	02:47:14:16	 	V2687-03
identity-reference | self | Cerithiidae	transect	Gastropoda sp.3	 	2687	 	 	 	1810605	 	2005-07-13 19:23:55.0	Ventana	 	02:49:39:02	 	V2687-03
identity-reference | self | Cerithiidae	transect	Gastropoda sp.3	 	2687	 	 	 	1810721	 	2005-07-13 19:29:36.0	Ventana	 	02:55:19:18	 	V2687-03
identity-reference | self | Cerithiidae	transect	Gastropoda sp.3	 	2687	 	 	 	1810734	 	2005-07-13 19:30:30.0	Ventana	 	02:56:13:18	 	V2687-03
identity-reference | self | Cerithiidae	transect	Gastropoda sp.3	 	2687	 	 	 	1810740	 	2005-07-13 19:30:54.0	Ventana	 	02:56:37:16	 	V2687-03
identity-reference | self | Cerithiidae	transect	Gastropoda sp.3	 	2687	 	 	 	1810743	 	2005-07-13 19:31:13.0	Ventana	 	02:56:55:11	 	V2687-03
identity-reference | self | Cerithiidae	transect	Gastropoda sp.3	 	2687	 	 	 	1810758	 	2005-07-13 19:32:18.0	Ventana	 	02:58:01:15	 	V2687-03
identity-reference | self | Cerithiidae	transect	Gastropoda sp.3	 	2687	 	 	 	1810762	 	2005-07-13 19:32:55.0	Ventana	 	02:58:38:04	 	V2687-03
identity-reference | self | Cerithiidae	transect	Gastropoda sp.3	 	2687	 	 	 	1810774	 	2005-07-13 19:33:37.0	Ventana	 	02:59:19:25	 	V2687-03
identity-reference | self | Cerithiidae	transect	Gastropoda sp.3	 	2687	 	 	 	1810873	 	2005-07-13 19:38:30.0	Ventana	 	03:04:12:17	 	V2687-03
identity-certainty | self | maybe	transect	Sebastes crameri	 	2687	 	 	 	1810887	 	2005-07-13 19:40:55.0	Ventana	 	03:05:56:17	 	V2687-04
identity-certainty | self | maybe	transect	Sebastes crameri	 	2687	 	 	 	1810888	 	2005-07-13 19:40:55.0	Ventana	 	03:05:56:17	 	V2687-04
identity-reference | self | Cerithiidae	transect	Gastropoda sp.3	 	2687	 	 	 	1810970	 	2005-07-13 19:45:25.0	Ventana	 	03:10:26:01	 	V2687-04
population-density | self | dense	transect	shell hash	 	2687	http://search.mbari.org/ARCHIVE/frameGrabs/Ventana/images/2687/03_11_59_05.jpg	 	 	1810993	 	2005-07-13 19:46:58.0	Ventana	 	03:11:59:05	 	V2687-04
population-density | self | dense	transect	shell hash	 	2687	 	 	 	1811001	 	2005-07-13 19:47:28.0	Ventana	 	03:12:29:00	 	V2687-04
identity-reference | self | Cerithiidae	transect	Gastropoda sp.3	 	2687	 	 	 	1811030	 	2005-07-13 19:48:59.0	Ventana	 	03:14:00:10	 	V2687-04
identity-reference | self | Cerithiidae	transect	Gastropoda sp.3	 	2687	 	 	 	1811061	 	2005-07-13 19:50:09.0	Ventana	 	03:15:10:07	 	V2687-04
population-density | self | dense	transect	shell hash	 	2687	 	 	 	1811063	 	2005-07-13 19:50:41.0	Ventana	 	03:15:41:28	 	V2687-04
population-density | self | dense	transect	shell hash	 	2687	 	 	 	1811068	 	2005-07-13 19:51:23.0	Ventana	 	03:16:23:10	 	V2687-04
population-density | self | dense	transect	shell hash	 	2687	 	 	 	1811079	 	2005-07-13 19:51:57.0	Ventana	 	03:16:58:11	 	V2687-04
population-density | self | dense	transect	shell hash	 	2687	 	 	 	1811080	 	2005-07-13 19:52:01.0	Ventana	 	03:17:02:06	 	V2687-04
population-density | self | dense	transect	shell hash	 	2687	 	 	 	1811082	 	2005-07-13 19:52:11.0	Ventana	 	03:17:12:11	 	V2687-04
population-density | self | dense	transect	shell hash	 	2687	http://search.mbari.org/ARCHIVE/frameGrabs/Ventana/images/2687/03_17_13_07.jpg	 	 	1811085	 	2005-07-13 19:52:12.0	Ventana	 	03:17:13:07	 	V2687-04
identity-reference | self | small, white	transect	Actiniaria	 	2687	 	 	 	1811086	 	2005-07-13 19:52:20.0	Ventana	 	03:17:21:00	 	V2687-04
identity-reference | self | Cerithiidae	transect	Gastropoda sp.3	 	2687	 	 	 	1811098	 	2005-07-13 19:52:55.0	Ventana	 	03:17:55:24	 	V2687-04
identity-certainty | self | maybe	transect	Sebastes aurora	 	2687	http://search.mbari.org/ARCHIVE/frameGrabs/Ventana/images/2687/03_20_39_05.jpg	 	 	1811130	 	2005-07-13 19:55:39.0	Ventana	 	03:20:39:05	 	V2687-04
identity-certainty | self | maybe	transect	Euplexaura	 	2687	 	 	 	1811137	 	2005-07-13 19:56:15.0	Ventana	 	03:21:15:13	 	V2687-04
population-density | self | dense	transect	shell hash	 	2687	 	 	 	1811181	 	2005-07-13 19:59:51.0	Ventana	 	03:24:52:03	 	V2687-04
population-density | self | dense	transect	shell hash	 	2687	 	 	 	1811194	 	2005-07-13 20:00:34.0	Ventana	 	03:25:34:16	 	V2687-04
population-density | self | dense	transect	shell hash	 	2687	 	 	 	1811197	 	2005-07-13 20:01:08.0	Ventana	 	03:26:08:27	 	V2687-04
identity-reference | self | Cerithiidae	transect	Gastropoda sp.3	 	2687	 	 	 	1811214	 	2005-07-13 20:03:19.0	Ventana	 	03:28:19:02	 	V2687-04
identity-reference | self | Cerithiidae	transect	Gastropoda sp.3	 	2687	 	 	 	1811216	 	2005-07-13 20:03:38.0	Ventana	 	03:28:38:22	 	V2687-04
identity-reference | self | Cerithiidae	transect	Gastropoda sp.3	 	2687	 	 	 	1811217	 	2005-07-13 20:03:47.0	Ventana	 	03:28:46:16	 	V2687-04
identity-reference | self | Cerithiidae	transect	Gastropoda sp.3	 	2687	 	 	 	1811222	 	2005-07-13 20:04:27.0	Ventana	 	03:29:27:14	 	V2687-04
population-density | self | dense	transect	shell hash	 	2687	 	 	 	1811240	 	2005-07-13 20:05:26.0	Ventana	 	03:30:25:20	 	V2687-04
identity-reference | self | Cerithiidae	transect	Gastropoda sp.3	 	2687	 	 	 	1811362	 	2005-07-13 20:09:28.0	Ventana	 	03:34:27:22	 	V2687-04
identity-reference | self | Cerithiidae	transect	Gastropoda sp.3	 	2687	 	 	 	1811368	 	2005-07-13 20:09:46.0	Ventana	 	03:34:45:15	 	V2687-04
part-of | Allocentrotus | nil	transect	test	 	2687	 	 	 	1811472	 	2005-07-13 20:13:59.0	Ventana	 	03:38:58:23	 	V2687-04
comment | self | gall	transect	Rathbunaster californicus	 	2687	http://search.mbari.org/ARCHIVE/frameGrabs/Ventana/images/2687/03_45_47_01.jpg	 	 	1811685	 	2005-07-13 20:20:48.0	Ventana	 	03:45:47:01	 	V2687-04
relative-size | self | large, surface-color | self | white	transect	Tritonia	 	2687	http://search.mbari.org/ARCHIVE/frameGrabs/Ventana/images/2687/03_50_12_28.jpg	 	 	1811779	 	2005-07-13 20:25:14.0	Ventana	 	03:50:12:28	 	V2687-04
identity-reference | self | Cerithiidae	transect	Gastropoda sp.3	 	2687	 	 	 	1811879	 	2005-07-13 20:28:18.0	Ventana	 	03:53:16:07	 	V2687-04
identity-reference | self | Cerithiidae	transect	Gastropoda sp.3	 	2687	 	 	 	1811881	 	2005-07-13 20:28:40.0	Ventana	 	03:53:37:14	 	V2687-04
identity-certainty | self | maybe	transect	Actiniaria sp. 3	 	2687	 	 	 	1812342	 	2005-07-13 20:32:48.0	Ventana	 	03:57:45:29	 	V2687-04
identity-certainty | self | maybe	transect	Euplexaura	 	2687	 	 	 	1812402	 	2005-07-13 20:36:41.0	Ventana	 	04:01:39:17	 	V2687-04
identity-reference | self | Cerithiidae	transect	Gastropoda sp.3	 	2687	 	 	 	1812495	 	2005-07-13 20:41:40.0	Ventana	 	04:06:38:18	 	V2687-04
identity-reference | self | Cerithiidae	transect	Gastropoda sp.3	 	2687	 	 	 	1812523	 	2005-07-13 20:43:43.0	Ventana	 	04:08:14:11	 	V2687-05
identity-reference | self | small, white	transect	Actiniaria	 	2687	 	 	 	1812557	 	2005-07-13 20:45:30.0	Ventana	 	04:10:01:05	 	V2687-05
identity-reference | self | small, white	transect	Actiniaria	 	2687	 	 	 	1812599	 	2005-07-13 20:46:41.0	Ventana	 	04:11:12:10	 	V2687-05
identity-reference | self | small, white	transect	Actiniaria	 	2687	 	 	 	1812600	 	2005-07-13 20:46:41.0	Ventana	 	04:11:12:10	 	V2687-05
identity-reference | self | Cerithiidae	transect	Gastropoda sp.3	 	2687	 	 	 	1812607	 	2005-07-13 20:47:06.0	Ventana	 	04:11:36:21	 	V2687-05
life-stage | self | juvenile	transect	Sebastolobus	 	2687	 	 	 	1812633	 	2005-07-13 20:48:56.0	Ventana	 	04:13:27:07	 	V2687-05
identity-reference | self | small, white	transect	Actiniaria	 	2687	 	 	 	1812658	 	2005-07-13 20:50:02.0	Ventana	 	04:14:32:27	 	V2687-05
image-quality | self | good	transect	Bathyraja kincaidii	 	2687	http://search.mbari.org/ARCHIVE/frameGrabs/Ventana/images/2687/04_15_48_05.jpg	 	 	1812676	 	2005-07-13 20:51:18.0	Ventana	 	04:15:48:05	 	V2687-05
identity-reference | self | Cerithiidae	transect	Gastropoda sp.3	 	2687	 	 	 	1812797	 	2005-07-13 20:58:03.0	Ventana	 	04:22:32:21	 	V2687-05
sampled-by | Push Corer | nil, sample-reference | self | V2687-C22	stationary	sediment	 	2687	http://search.mbari.org/ARCHIVE/frameGrabs/Ventana/images/2687/04_25_57_12.jpg	 	 	20005060	 	2005-07-13 21:01:28.0	Ventana	 	04:25:57:12	 	V2687-05
sampled-by | Push Corer | nil, sample-reference | self | V2687-C2?	stationary	sediment	 	2687	http://search.mbari.org/ARCHIVE/frameGrabs/Ventana/images/2687/04_26_51_26.jpg	 	 	20005061	 	2005-07-13 21:02:22.0	Ventana	 	04:26:51:26	 	V2687-05
sampled-by | Push Corer | nil, sample-reference | self | V2687-C9 (lost)	stationary	sediment	 	2687	http://search.mbari.org/ARCHIVE/frameGrabs/Ventana/images/2687/04_28_07_08.jpg	 	 	20005062	 	2005-07-13 21:03:37.0	Ventana	 	04:28:07:08	 	V2687-05
sampled-by | Push Corer | nil, sample-reference | self | V2687-C3?	stationary	sediment	 	2687	http://search.mbari.org/ARCHIVE/frameGrabs/Ventana/images/2687/04_29_05_22.jpg	 	 	20005063	 	2005-07-13 21:04:43.0	Ventana	 	04:29:05:22	 	V2687-05
image-quality | self | poor	ascend	lights	 	2687	 	 	 	1812832	 	2005-07-13 21:06:54.0	Ventana	 	04:31:22:26	 	V2687-05
population-quantity | self | 999	descend	Euphausiacea	182.72	2696	 	36.802284	-122.1216	1812843	1.65	2005-08-01 16:31:55.0	Ventana	34.179	00:00:16:00	8.717	V2696-01
population-quantity | self | 999	descend	Euphausiacea	190.41	2696	 	36.80236	-122.12145	1812844	1.63	2005-08-01 16:32:47.0	Ventana	34.183	00:01:07:07	8.697	V2696-01
population-density | self | dense	descend	marine snow	194.24	2696	 	36.802364	-122.1214	1812845	1.61	2005-08-01 16:33:10.0	Ventana	34.183	00:01:30:18	8.67	V2696-01
population-density | self | dense	cruise	Sebastes jordani	197.3	2696	http://search.mbari.org/ARCHIVE/frameGrabs/Ventana/images/2696/00_01_48_02.jpg	36.80237	-122.12136	1812847	1.61	2005-08-01 16:33:27.0	Ventana	34.187	00:01:48:02	8.663	V2696-01
population-quantity | self | 999	cruise	Euphausiacea	195.33	2696	http://search.mbari.org/ARCHIVE/frameGrabs/Ventana/images/2696/00_03_01_04.jpg	36.80238	-122.121185	1812857	1.61	2005-08-01 16:34:40.0	Ventana	34.187	00:03:01:04	8.664	V2696-01
population-quantity | self | 999	cruise	Rathbunaster californicus	195.7	2696	 	36.80238	-122.12116	1812861	1.61	2005-08-01 16:34:51.0	Ventana	34.187	00:03:11:29	8.664	V2696-01
population-quantity | self | 999	cruise	Euphausiacea	194.09	2696	 	36.802364	-122.121124	1812863	1.61	2005-08-01 16:35:10.0	Ventana	34.187	00:03:31:10	8.668	V2696-01
population-quantity | self | 999	cruise	Rathbunaster californicus	198.6	2696	 	36.802277	-122.1211	1812867	1.61	2005-08-01 16:35:53.0	Ventana	34.189	00:04:14:07	8.651	V2696-01
population-quantity | self | 999	cruise	Rathbunaster californicus	199.27	2696	 	36.802223	-122.12118	1812873	1.6	2005-08-01 16:36:25.0	Ventana	34.191	00:04:45:09	8.651	V2696-01
population-density | self | dense	cruise	marine snow	199.79	2696	 	36.8022	-122.12127	1812874	1.59	2005-08-01 16:36:48.0	Ventana	34.191	00:05:08:07	8.609	V2696-01
population-quantity | self | 999	cruise	Rathbunaster californicus	198.86	2696	 	36.802143	-122.1216	1812879	1.54	2005-08-01 16:38:24.0	Ventana	34.204	00:06:44:08	8.566	V2696-01
population-density | self | dense	cruise	marine snow	197.4	2696	 	36.802143	-122.12162	1812880	1.54	2005-08-01 16:38:33.0	Ventana	34.204	00:06:53:29	8.566	V2696-01
population-quantity | self | 999	cruise	Rathbunaster californicus	198.16	2696	 	36.802155	-122.12168	1812881	1.54	2005-08-01 16:39:03.0	Ventana	34.183	00:07:23:04	8.592	V2696-01
population-density | self | dense	cruise	marine snow	196.68	2696	 	36.80237	-122.12176	1812895	1.55	2005-08-01 16:41:14.0	Ventana	34.195	00:09:33:21	8.578	V2696-01
population-quantity | self | 999	cruise	Parastichopus leukothele	198.28	2696	 	36.80248	-122.12174	1812896	1.54	2005-08-01 16:41:51.0	Ventana	34.204	00:10:11:09	8.572	V2696-01
population-quantity | self | 999	cruise	Rathbunaster californicus	197.72	2696	 	36.802578	-122.12172	1812897	1.56	2005-08-01 16:42:22.0	Ventana	34.194	00:10:41:29	8.603	V2696-01
population-density | self | dense	cruise	marine snow	195.98	2696	 	36.80265	-122.121704	1812899	1.55	2005-08-01 16:42:50.0	Ventana	34.199	00:11:10:24	8.599	V2696-01
population-quantity | self | 999	cruise	Parastichopus leukothele	197.76	2696	 	36.80265	-122.12169	1812904	1.55	2005-08-01 16:44:55.0	Ventana	34.199	00:13:14:15	8.585	V2696-01
population-quantity | self | 999	cruise	Rathbunaster californicus	197.51	2696	 	36.80265	-122.12169	1812905	1.54	2005-08-01 16:45:09.0	Ventana	34.201	00:13:29:03	8.566	V2696-01
population-density | self | dense	cruise	marine snow	197.87	2696	 	36.80266	-122.12169	1812908	1.53	2005-08-01 16:46:13.0	Ventana	34.205	00:14:33:29	8.558	V2696-01
identity-certainty | self | maybe, comment | self | hopped along the seafloor	transect	Zaniolepididae	196.93	2696	http://search.mbari.org/ARCHIVE/frameGrabs/Ventana/images/2696/00_24_02_13.jpg	36.80265	-122.12169	1813023	1.53	2005-08-01 16:55:44.0	Ventana	34.203	00:24:02:13	8.577	V2696-01
comment | self | 2 galls, contains | parasite | nil	transect	Rathbunaster californicus	196.4	2696	http://search.mbari.org/ARCHIVE/frameGrabs/Ventana/images/2696/00_26_40_18.jpg	36.80266	-122.12168	1813033	1.55	2005-08-01 16:58:21.0	Ventana	34.2	00:26:40:18	8.599	V2696-01
burrowing | nil | nil	transect	Eptatretus stoutii	196.38	2696	http://search.mbari.org/ARCHIVE/frameGrabs/Ventana/images/2696/00_32_23_20.jpg	36.802963	-122.12244	1813066	1.55	2005-08-01 17:04:04.0	Ventana	34.199	00:32:23:20	8.606	V2696-01
identity-certainty | self | maybe	transect	Zaniolepididae	196.34	2696	 	36.803074	-122.12265	1813107	1.56	2005-08-01 17:06:38.0	Ventana	34.197	00:34:57:11	8.622	V2696-01
identity-certainty | self | maybe	transect	Lyconema barbatum	198.66	2696	 	36.803722	-122.124756	1813284	1.52	2005-08-01 17:30:47.0	Ventana	34.204	00:59:04:09	8.637	V2696-01
identity-certainty | self | maybe	transect	Sebastes aurora	198.88	2696	http://search.mbari.org/ARCHIVE/frameGrabs/Ventana/images/2696/00_59_51_12.jpg	36.803753	-122.12485	1813292	1.53	2005-08-01 17:31:34.0	Ventana	34.203	00:59:51:12	8.636	V2696-01
identity-certainty | self | maybe	transect	Zaniolepididae	199.53	2696	http://search.mbari.org/ARCHIVE/frameGrabs/Ventana/images/2696/01_05_54_28.jpg	36.80398	-122.125534	1813346	1.52	2005-08-01 17:38:01.0	Ventana	34.208	01:05:54:28	8.645	V2696-02
identity-certainty | self | maybe	transect	Lyconema barbatum	199.5	2696	 	36.80401	-122.12559	1813357	1.51	2005-08-01 17:38:40.0	Ventana	34.212	01:06:33:27	8.66	V2696-02
identity-certainty | self | maybe	transect	Bathyraja kincaidii	200.19	2696	http://search.mbari.org/ARCHIVE/frameGrabs/Ventana/images/2696/01_19_09_24.jpg	36.804577	-122.12683	1813475	1.51	2005-08-01 17:51:16.0	Ventana	34.212	01:19:09:24	8.668	V2696-02
image-quality | self | good, moving | nil | nil	transect	Luidia foliolata	203.98	2696	http://search.mbari.org/ARCHIVE/frameGrabs/Ventana/images/2696/01_51_18_11.jpg	36.806156	-122.12974	1813739	1.5	2005-08-01 18:23:27.0	Ventana	34.207	01:51:18:11	8.649	V2696-02
identity-certainty | self | maybe	transect	Sebastes saxicola	203.42	2696	 	36.80641	-122.12997	1813757	1.48	2005-08-01 18:27:27.0	Ventana	34.213	01:55:18:01	8.625	V2696-02
population-quantity | self | 999	cruise	Rathbunaster californicus	204.86	2696	 	36.807648	-122.13128	1813874	1.46	2005-08-01 18:44:56.0	Ventana	34.225	02:12:01:08	8.648	V2696-03
population-quantity | self | 999	stationary	Rathbunaster californicus	204.88	2696	 	36.80766	-122.13128	1813876	1.47	2005-08-01 18:45:38.0	Ventana	34.219	02:12:43:01	8.653	V2696-03
population-quantity | self | 999	ascend	Rathbunaster californicus	200.92	2696	 	36.8077	-122.13134	1813880	1.47	2005-08-01 18:48:03.0	Ventana	34.221	02:15:07:17	8.645	V2696-03
population-density | self | dense	descend	Engraulidae	 	2672	 	 	 	1824321	 	2005-06-03 14:40:56.0	Ventana	 	00:00:19:01	 	V2672-01
population-density | self | dense	descend	Engraulidae	 	2672	http://search.mbari.org/ARCHIVE/frameGrabs/Ventana/images/2672/00_00_44_07.jpg	 	 	20003814	 	2005-06-03 14:42:01.0	Ventana	 	00:00:44:07	 	V2672-01
population-density | self | dense	descend	Engraulidae	 	2672	http://search.mbari.org/ARCHIVE/frameGrabs/Ventana/images/2672/00_00_44_07.jpg	 	 	20003817	 	2005-06-03 14:42:01.0	Ventana	 	00:00:44:07	 	V2672-01
population-density | self | dense	descend	Engraulidae	 	2672	 	 	 	1824322	 	 	Ventana	 	00:01:43:02	 	V2672-01
population-density | self | dense	descend	Engraulidae	 	2672	 	 	 	1824323	 	 	Ventana	 	00:02:56:28	 	V2672-01
population-density | self | dense	descend	Engraulidae	 	2672	http://search.mbari.org/ARCHIVE/frameGrabs/Ventana/images/2672/00_04_27_07.jpg	 	 	1824324	 	2005-06-03 14:45:07.0	Ventana	 	00:04:27:07	 	V2672-01
population-density | self | dense	descend	Engraulidae	 	2672	http://search.mbari.org/ARCHIVE/frameGrabs/Ventana/images/2672/00_04_35_16.jpg	 	 	1824325	 	2005-06-03 14:45:12.0	Ventana	 	00:04:35:16	 	V2672-01
water-quality | self | sediment-cloudy	cruise	water	 	2672	 	 	 	1824326	 	2005-06-03 14:47:03.0	Ventana	 	00:06:26:01	 	V2672-01
population-quantity | self | 999	cruise	Engraulidae	 	2672	 	 	 	1824327	 	 	Ventana	 	00:08:00:26	 	V2672-01
population-quantity | self | 999	cruise	Engraulidae	 	2672	 	 	 	1824328	 	 	Ventana	 	00:08:35:11	 	V2672-01
population-quantity | self | 999	cruise	Engraulidae	 	2672	 	 	 	1824329	 	 	Ventana	 	00:09:37:23	 	V2672-01
population-quantity | self | 999	cruise	Engraulidae	 	2672	 	 	 	1824330	 	 	Ventana	 	00:10:39:22	 	V2672-01
attaching-to | Remote Instrument Node | nil, population-quantity | self | 999	cruise	Actiniaria	 	2672	 	 	 	1824333	 	2005-06-03 14:53:43.0	Ventana	 	00:13:04:27	 	V2672-01
population-quantity | self | 999	cruise	Engraulidae	124.29	2672	 	36.80311	-121.80558	1824335	2.65	2005-06-03 15:04:32.0	Ventana	33.956	00:23:53:20	9.311	V2672-01
population-quantity | self | 999	cruise	Engraulidae	123.29	2672	 	36.803112	-121.80561	1824338	2.73	2005-06-03 15:10:51.0	Ventana	33.944	00:30:12:01	9.375	V2672-01
retrieved-by | manipulator | nil	ascend	Remote Instrument Node	123.28	2672	http://search.mbari.org/ARCHIVE/frameGrabs/Ventana/images/2672/00_30_36_28.jpg	36.80311	-121.80562	20003848	2.74	2005-06-03 15:11:15.0	Ventana	33.945	00:30:36:28	9.371	V2672-01
holding | Remote Instrument Node | nil	ascend	manipulator	108.58	2672	http://search.mbari.org/ARCHIVE/frameGrabs/Ventana/images/2672/00_33_05_08.jpg	36.80309	-121.80568	20003854	2.77	2005-06-03 15:13:44.0	Ventana	33.938	00:33:05:08	9.405	V2672-01
holding | Remote Instrument Node | nil	ascend	manipulator	106.57	2672	http://search.mbari.org/ARCHIVE/frameGrabs/Ventana/images/2672/00_33_11_23.jpg	36.803085	-121.805695	20003855	2.77	2005-06-03 15:13:51.0	Ventana	33.938	00:33:11:23	9.405	V2672-01
holding | Remote Instrument Node | nil	ascend	manipulator	92.94	2672	http://search.mbari.org/ARCHIVE/frameGrabs/Ventana/images/2672/00_36_24_17.jpg	36.803116	-121.806046	20003856	2.79	2005-06-03 15:17:04.0	Ventana	33.938	00:36:24:17	9.388	V2672-01
identity-reference | self | MOBB	cruise	bottom mount	997.05	2679	http://search.mbari.org/ARCHIVE/frameGrabs/Ventana/images/2679/00_04_16_27.jpg	36.68986	-122.1656	20004248	0.42	2005-06-16 17:32:55.0	Ventana	34.511	00:04:16:27	4.119	V2679-01
identity-reference | self | MOBB	cruise	bottom mount	996.51	2679	http://search.mbari.org/ARCHIVE/frameGrabs/Ventana/images/2679/00_04_35_11.jpg	36.68986	-122.1656	20004249	0.42	2005-06-16 17:33:13.0	Ventana	34.513	00:04:35:11	4.118	V2679-01
identity-reference | self | MOBB	stationary	bottom mount	996.38	2679	http://search.mbari.org/ARCHIVE/frameGrabs/Ventana/images/2679/00_06_31_23.jpg	36.68986	-122.1656	20004253	0.42	2005-06-16 17:35:09.0	Ventana	34.511	00:06:31:23	4.121	V2679-01
identity-reference | self | MOBB	stationary	bottom mount	997.24	2679	http://search.mbari.org/ARCHIVE/frameGrabs/Ventana/images/2679/00_06_45_07.jpg	36.68986	-122.1656	20004254	0.42	2005-06-16 17:35:23.0	Ventana	34.512	00:06:45:07	4.118	V2679-01
identity-reference | self | MOBB	stationary	bottom mount	997.75	2679	http://search.mbari.org/ARCHIVE/frameGrabs/Ventana/images/2679/00_06_50_07.jpg	36.68986	-122.1656	20004255	0.42	2005-06-16 17:35:27.0	Ventana	34.512	00:06:50:07	4.118	V2679-01
identity-reference | self | MOBB	stationary	bottom mount	998.36	2679	http://search.mbari.org/ARCHIVE/frameGrabs/Ventana/images/2679/00_06_59_07.jpg	36.68986	-122.1656	20004256	0.42	2005-06-16 17:35:37.0	Ventana	34.512	00:06:59:07	4.118	V2679-01
identity-reference | self | MOBB	stationary	bottom mount	998.65	2679	http://search.mbari.org/ARCHIVE/frameGrabs/Ventana/images/2679/00_07_09_21.jpg	36.68986	-122.1656	20004257	0.42	2005-06-16 17:35:48.0	Ventana	34.511	00:07:09:21	4.117	V2679-01
identity-reference | self | new	stationary	data logger	998.63	2679	http://search.mbari.org/ARCHIVE/frameGrabs/Ventana/images/2679/00_09_09_03.jpg	36.68986	-122.1656	20004259	0.43	2005-06-16 17:37:48.0	Ventana	34.513	00:09:09:03	4.115	V2679-01
identity-reference | self | new	stationary	data logger	998.43	2679	http://search.mbari.org/ARCHIVE/frameGrabs/Ventana/images/2679/00_09_41_17.jpg	36.68986	-122.1656	20004260	0.43	2005-06-16 17:38:20.0	Ventana	34.513	00:09:41:17	4.11	V2679-01
identity-reference | self | new	stationary	data logger	998.55	2679	http://search.mbari.org/ARCHIVE/frameGrabs/Ventana/images/2679/00_10_05_16.jpg	36.68986	-122.1656	20004262	0.43	2005-06-16 17:38:44.0	Ventana	34.512	00:10:05:16	4.114	V2679-01
identity-reference | self | new	stationary	data logger	997.79	2679	http://search.mbari.org/ARCHIVE/frameGrabs/Ventana/images/2679/00_10_34_00.jpg	36.68986	-122.1656	20004263	0.43	2005-06-16 17:39:13.0	Ventana	34.512	00:10:34:00	4.114	V2679-01
identity-reference | self | MOBB	stationary	bottom mount	997.79	2679	http://search.mbari.org/ARCHIVE/frameGrabs/Ventana/images/2679/00_10_34_00.jpg	36.68986	-122.1656	1824368	0.43	2005-06-16 17:39:13.0	Ventana	34.512	00:10:34:00	4.114	V2679-01
identity-reference | self | new	stationary	data logger	997.31	2679	http://search.mbari.org/ARCHIVE/frameGrabs/Ventana/images/2679/00_10_39_15.jpg	36.68986	-122.1656	20004264	0.43	2005-06-16 17:39:19.0	Ventana	34.512	00:10:39:15	4.114	V2679-01
identity-reference | self | MOBB	stationary	bottom mount	997.31	2679	http://search.mbari.org/ARCHIVE/frameGrabs/Ventana/images/2679/00_10_39_15.jpg	36.68986	-122.1656	1824369	0.43	2005-06-16 17:39:19.0	Ventana	34.512	00:10:39:15	4.114	V2679-01
identity-reference | self | MOBB	stationary	bottom mount	997.47	2679	http://search.mbari.org/ARCHIVE/frameGrabs/Ventana/images/2679/00_10_57_15.jpg	36.68986	-122.1656	20004267	0.43	2005-06-16 17:39:37.0	Ventana	34.512	00:10:57:15	4.117	V2679-01
identity-reference | self | MOBB	stationary	bottom mount	997.72	2679	http://search.mbari.org/ARCHIVE/frameGrabs/Ventana/images/2679/00_11_10_14.jpg	36.68986	-122.1656	20004269	0.44	2005-06-16 17:39:49.0	Ventana	34.513	00:11:10:14	4.114	V2679-01
identity-reference | self | new	stationary	data logger	997.31	2679	http://search.mbari.org/ARCHIVE/frameGrabs/Ventana/images/2679/00_10_39_15.jpg	36.68986	-122.1656	1824370	0.43	2005-06-16 17:39:19.0	Ventana	34.512	00:10:39:15	4.114	V2679-01
identity-reference | self | new	stationary	data logger	997.47	2679	http://search.mbari.org/ARCHIVE/frameGrabs/Ventana/images/2679/00_10_57_15.jpg	36.68986	-122.1656	1824371	0.43	2005-06-16 17:39:37.0	Ventana	34.512	00:10:57:15	4.117	V2679-01
identity-reference | self | new	stationary	data logger	997.72	2679	http://search.mbari.org/ARCHIVE/frameGrabs/Ventana/images/2679/00_11_10_14.jpg	36.68986	-122.1656	1824372	0.44	2005-06-16 17:39:49.0	Ventana	34.513	00:11:10:14	4.114	V2679-01
identity-reference | self | MOBB	stationary	bottom mount	997.86	2679	http://search.mbari.org/ARCHIVE/frameGrabs/Ventana/images/2679/00_11_14_14.jpg	36.68986	-122.1656	20004270	0.44	2005-06-16 17:39:53.0	Ventana	34.512	00:11:14:14	4.114	V2679-01
identity-reference | self | new	stationary	data logger	997.86	2679	http://search.mbari.org/ARCHIVE/frameGrabs/Ventana/images/2679/00_11_14_14.jpg	36.68986	-122.1656	1824373	0.44	2005-06-16 17:39:53.0	Ventana	34.512	00:11:14:14	4.114	V2679-01
identity-reference | self | MOBB	stationary	bottom mount	998.33	2679	http://search.mbari.org/ARCHIVE/frameGrabs/Ventana/images/2679/00_11_22_13.jpg	36.68986	-122.1656	20004271	0.44	2005-06-16 17:40:01.0	Ventana	34.512	00:11:22:13	4.114	V2679-01
identity-reference | self | MOBB	stationary	bottom mount	998.22	2679	http://search.mbari.org/ARCHIVE/frameGrabs/Ventana/images/2679/00_11_27_13.jpg	36.68986	-122.1656	20004272	0.44	2005-06-16 17:40:05.0	Ventana	34.512	00:11:27:13	4.114	V2679-01
comment | self | Opening door to bottom mount	stationary	manipulator	998.47	2679	http://search.mbari.org/ARCHIVE/frameGrabs/Ventana/images/2679/00_12_45_26.jpg	36.68986	-122.1656	20004278	0.39	2005-06-16 17:41:23.0	Ventana	34.511	00:12:45:26	4.11	V2679-01
posture | self | open	stationary	bottom mount	998.45	2679	http://search.mbari.org/ARCHIVE/frameGrabs/Ventana/images/2679/00_13_35_09.jpg	36.68986	-122.1656	20004285	0.39	2005-06-16 17:42:13.0	Ventana	34.513	00:13:35:09	4.115	V2679-01
deployed-by | manipulator | nil	stationary	connector	998.43	2679	http://search.mbari.org/ARCHIVE/frameGrabs/Ventana/images/2679/00_14_29_08.jpg	36.68986	-122.1656	20004289	0.39	2005-06-16 17:43:08.0	Ventana	34.513	00:14:29:08	4.114	V2679-01
connecting | data logger | nil	stationary	connector	998.39	2679	http://search.mbari.org/ARCHIVE/frameGrabs/Ventana/images/2679/00_15_48_20.jpg	36.68986	-122.1656	20004295	0.39	2005-06-16 17:44:26.0	Ventana	34.512	00:15:48:20	4.114	V2679-01
identity-reference | self | MOBB	stationary	bottom mount	998.34	2679	http://search.mbari.org/ARCHIVE/frameGrabs/Ventana/images/2679/00_19_00_00.jpg	36.68986	-122.1656	20004301	0.39	2005-06-16 17:47:39.0	Ventana	34.512	00:19:00:00	4.113	V2679-01
retrieved-by | manipulator | nil	stationary	connector	998.33	2679	http://search.mbari.org/ARCHIVE/frameGrabs/Ventana/images/2679/00_19_34_13.jpg	36.68986	-122.1656	20004302	0.39	2005-06-16 17:48:13.0	Ventana	34.511	00:19:34:13	4.112	V2679-01
retrieved-by | manipulator | nil	stationary	connector	998.32	2679	http://search.mbari.org/ARCHIVE/frameGrabs/Ventana/images/2679/00_20_30_27.jpg	36.68986	-122.1656	20004306	0.39	2005-06-16 17:49:10.0	Ventana	34.514	00:20:30:27	4.109	V2679-01
retrieved-by | manipulator | nil	stationary	connector	998.26	2679	http://search.mbari.org/ARCHIVE/frameGrabs/Ventana/images/2679/00_24_01_20.jpg	36.68986	-122.1656	20004314	0.39	2005-06-16 17:52:41.0	Ventana	34.512	00:24:01:20	4.108	V2679-01
identity-reference | self | MOBB	stationary	bottom mount	998.25	2679	http://search.mbari.org/ARCHIVE/frameGrabs/Ventana/images/2679/00_24_55_03.jpg	36.68986	-122.1656	1824375	0.39	2005-06-16 17:53:35.0	Ventana	34.514	00:24:55:03	4.101	V2679-01
identity-reference | self | old, retrieved-by | manipulator | nil	stationary	data logger	998.25	2679	http://search.mbari.org/ARCHIVE/frameGrabs/Ventana/images/2679/00_24_40_19.jpg	36.68986	-122.1656	20004317	0.39	2005-06-16 17:53:19.0	Ventana	34.512	00:24:40:19	4.103	V2679-01
identity-reference | self | old, retrieved-by | manipulator | nil	stationary	data logger	998.23	2679	http://search.mbari.org/ARCHIVE/frameGrabs/Ventana/images/2679/00_25_28_02.jpg	36.68986	-122.1656	20004323	0.39	2005-06-16 17:54:07.0	Ventana	34.513	00:25:28:02	4.102	V2679-01
identity-reference | self | new, deployed-by | manipulator | nil	stationary	data logger	998.23	2679	http://search.mbari.org/ARCHIVE/frameGrabs/Ventana/images/2679/00_26_31_01.jpg	36.68986	-122.1656	20004329	0.39	2005-06-16 17:55:09.0	Ventana	34.514	00:26:31:01	4.099	V2679-01
identity-reference | self | new, deployed-by | manipulator | nil	stationary	data logger	998.22	2679	http://search.mbari.org/ARCHIVE/frameGrabs/Ventana/images/2679/00_27_41_28.jpg	36.68986	-122.1656	20004334	0.39	2005-06-16 17:56:22.0	Ventana	34.514	00:27:41:28	4.097	V2679-01
population-quantity | self | 999	stationary	Chionoecetes tanneri	998.2	2679	http://search.mbari.org/ARCHIVE/frameGrabs/Ventana/images/2679/00_28_26_12.jpg	36.68986	-122.1656	20004335	0.39	2005-06-16 17:57:06.0	Ventana	34.514	00:28:26:12	4.097	V2679-01
identity-reference | self | MOBB	stationary	bottom mount	998.2	2679	http://search.mbari.org/ARCHIVE/frameGrabs/Ventana/images/2679/00_28_26_12.jpg	36.68986	-122.1656	1824376	0.39	2005-06-16 17:57:06.0	Ventana	34.514	00:28:26:12	4.097	V2679-01
within | bottom mount | nil	stationary	Paralomis	997.28	2679	http://search.mbari.org/ARCHIVE/frameGrabs/Ventana/images/2679/00_28_49_11.jpg	36.68986	-122.1656	20004337	0.39	2005-06-16 17:57:28.0	Ventana	34.515	00:28:49:11	4.097	V2679-01
identity-reference | self | new, deployed-by | manipulator | nil	stationary	data logger	997.99	2679	http://search.mbari.org/ARCHIVE/frameGrabs/Ventana/images/2679/00_29_48_09.jpg	36.68986	-122.1656	20004340	0.39	2005-06-16 17:58:28.0	Ventana	34.51	00:29:48:09	4.105	V2679-01
identity-reference | self | new, within | bottom mount | nil	stationary	data logger	997.18	2679	http://search.mbari.org/ARCHIVE/frameGrabs/Ventana/images/2679/00_30_17_08.jpg	36.68986	-122.1656	20004343	0.39	2005-06-16 17:58:56.0	Ventana	34.515	00:30:17:08	4.099	V2679-01
identity-reference | self | MOBB	stationary	bottom mount	997.83	2679	http://search.mbari.org/ARCHIVE/frameGrabs/Ventana/images/2679/00_31_05_07.jpg	36.68986	-122.1656	20004348	0.39	2005-06-16 17:59:45.0	Ventana	34.514	00:31:05:07	4.101	V2679-01
identity-reference | self | MOBB	stationary	bottom mount	998.14	2679	http://search.mbari.org/ARCHIVE/frameGrabs/Ventana/images/2679/00_31_25_07.jpg	36.68986	-122.1656	20004349	0.39	2005-06-16 18:00:05.0	Ventana	34.514	00:31:25:07	4.098	V2679-01
identity-reference | self | MOBB	stationary	bottom mount	998.18	2679	http://search.mbari.org/ARCHIVE/frameGrabs/Ventana/images/2679/00_32_01_05.jpg	36.68986	-122.1656	20004350	0.39	2005-06-16 18:00:41.0	Ventana	34.515	00:32:01:05	4.097	V2679-01
deployed-by | manipulator | nil	stationary	connector	998.17	2679	http://search.mbari.org/ARCHIVE/frameGrabs/Ventana/images/2679/00_32_23_05.jpg	36.68986	-122.1656	20004351	0.39	2005-06-16 18:01:03.0	Ventana	34.515	00:32:23:05	4.097	V2679-01
attaching-to | data logger | nil	stationary	connector	998.18	2679	http://search.mbari.org/ARCHIVE/frameGrabs/Ventana/images/2679/00_33_42_17.jpg	36.68986	-122.1656	20004355	0.39	2005-06-16 18:02:21.0	Ventana	34.515	00:33:42:17	4.095	V2679-01
attaching-to | data logger | nil	stationary	connector	998.16	2679	http://search.mbari.org/ARCHIVE/frameGrabs/Ventana/images/2679/00_36_00_13.jpg	36.68986	-122.1656	20004361	0.39	2005-06-16 18:04:40.0	Ventana	34.514	00:36:00:13	4.093	V2679-01
attaching-to | data logger | nil	stationary	connector	998.15	2679	http://search.mbari.org/ARCHIVE/frameGrabs/Ventana/images/2679/00_38_23_08.jpg	36.68986	-122.1656	20004369	0.4	2005-06-16 18:07:03.0	Ventana	34.513	00:38:23:08	4.093	V2679-01
identity-reference | self | MOBB, posture | self | open	stationary	bottom mount	998.14	2679	http://search.mbari.org/ARCHIVE/frameGrabs/Ventana/images/2679/00_42_45_01.jpg	36.68986	-122.1656	20004380	0.42	2005-06-16 18:11:24.0	Ventana	34.521	00:42:45:01	3.996	V2679-01
posture | self | closed, identity-reference | self | MOBB	stationary	bottom mount	997.7	2679	http://search.mbari.org/ARCHIVE/frameGrabs/Ventana/images/2679/00_57_57_19.jpg	36.690437	-122.16626	20004394	0.47	2005-06-16 20:19:43.0	Ventana	34.532	00:57:57:19	3.877	V2679-01
posture | self | closed, identity-reference | self | MOBB	stationary	bottom mount	997.93	2679	http://search.mbari.org/ARCHIVE/frameGrabs/Ventana/images/2679/00_58_02_04.jpg	36.690437	-122.16626	20004395	0.47	2005-06-16 20:19:49.0	Ventana	34.532	00:58:02:04	3.877	V2679-01
identity-reference | self | old	stationary	data logger	997.73	2679	http://search.mbari.org/ARCHIVE/frameGrabs/Ventana/images/2679/00_58_41_17.jpg	36.690434	-122.16627	20004399	0.47	2005-06-16 20:20:27.0	Ventana	34.533	00:58:41:17	3.875	V2679-01
identity-reference | self | old	stationary	data logger	997.41	2679	http://search.mbari.org/ARCHIVE/frameGrabs/Ventana/images/2679/01_00_06_00.jpg	36.6904	-122.16632	20004409	0.47	2005-06-16 20:21:51.0	Ventana	34.533	01:00:06:00	3.873	V2679-01
identity-reference | self | MOBB	stationary	bottom mount	997.41	2679	http://search.mbari.org/ARCHIVE/frameGrabs/Ventana/images/2679/01_00_06_00.jpg	36.6904	-122.16632	1824378	0.47	2005-06-16 20:21:51.0	Ventana	34.533	01:00:06:00	3.873	V2679-01
identity-reference | self | old, retrieved-by | manipulator | nil	stationary	data logger	998.1	2679	http://search.mbari.org/ARCHIVE/frameGrabs/Ventana/images/2679/01_01_08_28.jpg	36.690376	-122.166275	20004414	0.47	2005-06-16 20:22:56.0	Ventana	34.532	01:01:08:28	3.864	V2679-01
retrieved-by | manipulator | nil	stationary	data logger	998.1	2679	http://search.mbari.org/ARCHIVE/frameGrabs/Ventana/images/2679/01_05_02_20.jpg	36.69047	-122.166176	20004424	0.47	2005-06-16 20:26:49.0	Ventana	34.532	01:05:02:20	3.861	V2679-01
identity-reference | self | old	stationary	data logger	997.57	2679	http://search.mbari.org/ARCHIVE/frameGrabs/Ventana/images/2679/01_00_01_00.jpg	36.690403	-122.16632	20004408	0.47	2005-06-16 20:21:47.0	Ventana	34.533	01:00:01:00	3.873	V2679-01
population-quantity | self | 999	stationary	Actiniaria	998.1	2679	 	36.690372	-122.16627	1824387	0.47	2005-06-16 20:23:06.0	Ventana	34.532	01:01:20:19	3.864	V2679-01
population-quantity | self | 999	descend	Appendicularia	499.61	2695	 	36.784412	-122.20036	1824389	0.9	2005-07-28 16:53:54.0	Ventana	34.264	00:00:17:13	6.734	V2695-01
population-quantity | self | 999	descend	Appendicularia	499.82	2695	 	36.784462	-122.20038	1824390	0.9	2005-07-28 16:54:20.0	Ventana	34.261	00:00:42:18	6.731	V2695-01
population-quantity | self | 999	cruise	Actiniaria	500.52	2695	 	36.784397	-122.20018	1824397	0.89	2005-07-28 16:57:11.0	Ventana	34.266	00:03:34:06	6.708	V2695-01
population-quantity | self | 999	cruise	Actiniaria	500.52	2695	 	36.7843	-122.20012	1824398	0.89	2005-07-28 16:57:25.0	Ventana	34.264	00:03:47:11	6.715	V2695-01
population-quantity | self | 999	cruise	Osteichthyes	500.46	2695	 	36.78401	-122.19994	1824399	0.89	2005-07-28 16:58:06.0	Ventana	34.266	00:04:29:18	6.712	V2695-01
population-quantity | self | 999	cruise	Appendicularia	501.94	2695	 	36.783737	-122.19976	1824404	0.89	2005-07-28 16:58:53.0	Ventana	34.266	00:05:16:01	6.706	V2695-01
identity-reference | self | 2	cruise	equipment	502.46	2695	 	36.783684	-122.199715	1824405	0.89	2005-07-28 16:59:12.0	Ventana	34.266	00:05:34:09	6.703	V2695-01
retrieved-by | manipulator | nil, identity-reference | self | 2	cruise	equipment	503.58	2695	 	36.78366	-122.199615	1824406	0.88	2005-07-28 17:00:24.0	Ventana	34.268	00:06:47:06	6.697	V2695-01
population-quantity | self | 999	cruise	Appendicularia	500.26	2695	 	36.783768	-122.19958	1824410	0.89	2005-07-28 17:01:13.0	Ventana	34.265	00:07:35:29	6.704	V2695-01
population-quantity | self | 999	cruise	Osteichthyes	499.9	2695	 	36.78388	-122.19963	1824412	0.89	2005-07-28 17:01:48.0	Ventana	34.266	00:08:10:19	6.711	V2695-01
population-quantity | self | 999	cruise	Appendicularia	499.83	2695	 	36.7839	-122.19965	1824413	0.89	2005-07-28 17:01:55.0	Ventana	34.265	00:08:17:10	6.715	V2695-01
population-quantity | self | 999	cruise	Actiniaria	499.06	2695	 	36.784245	-122.20001	1824417	0.89	2005-07-28 17:03:37.0	Ventana	34.266	00:09:59:09	6.723	V2695-01
population-quantity | self | 999	cruise	Actiniaria	498.91	2695	 	36.784313	-122.200096	1824418	0.89	2005-07-28 17:03:59.0	Ventana	34.262	00:10:21:22	6.711	V2695-01
population-quantity | self | 999	cruise	Appendicularia	498.87	2695	 	36.784332	-122.20012	1824419	0.89	2005-07-28 17:04:05.0	Ventana	34.262	00:10:26:23	6.711	V2695-01
identity-reference | self | FOCE	cruise	equipment	498.57	2695	 	36.784485	-122.200325	1824423	0.89	2005-07-28 17:05:07.0	Ventana	34.264	00:11:29:07	6.708	V2695-01
deployed-by | manipulator | nil, identity-reference | self | 2	cruise	equipment	500.59	2695	 	36.784534	-122.20039	1824424	0.89	2005-07-28 17:05:48.0	Ventana	34.265	00:12:10:22	6.708	V2695-01
identity-reference | self | FOCE	stationary	equipment	500.1	2695	http://search.mbari.org/ARCHIVE/frameGrabs/Ventana/images/2695/00_12_57_27.jpg	36.784573	-122.20042	20005478	0.89	2005-07-28 17:06:36.0	Ventana	34.265	00:12:57:27	6.708	V2695-01
identity-reference | self | FOCE	stationary	equipment	500.06	2695	http://search.mbari.org/ARCHIVE/frameGrabs/Ventana/images/2695/00_13_17_26.jpg	36.784584	-122.200424	20005479	0.89	2005-07-28 17:06:56.0	Ventana	34.265	00:13:17:26	6.699	V2695-01
identity-reference | self | FOCE	stationary	equipment	500.18	2695	http://search.mbari.org/ARCHIVE/frameGrabs/Ventana/images/2695/00_14_05_09.jpg	36.7846	-122.20045	20005480	0.89	2005-07-28 17:07:39.0	Ventana	34.265	00:14:05:09	6.705	V2695-01
identity-reference | self | FOCE	stationary	equipment	500.16	2695	http://search.mbari.org/ARCHIVE/frameGrabs/Ventana/images/2695/00_14_54_23.jpg	36.7846	-122.20045	20005481	0.88	2005-07-28 17:08:27.0	Ventana	34.266	00:14:54:23	6.699	V2695-01
identity-reference | self | FOCE	stationary	equipment	500.28	2695	http://search.mbari.org/ARCHIVE/frameGrabs/Ventana/images/2695/00_15_20_22.jpg	36.784595	-122.20045	20005482	0.89	2005-07-28 17:08:59.0	Ventana	34.266	00:15:20:22	6.703	V2695-01
retrieved-by | manipulator | nil, identity-reference | self | 3	stationary	connector	501.83	2695	http://search.mbari.org/ARCHIVE/frameGrabs/Ventana/images/2695/00_17_10_19.jpg	36.784584	-122.20047	20005484	0.88	2005-07-28 17:10:49.0	Ventana	34.265	00:17:10:19	6.694	V2695-01
attaching-to | ROV | nil	stationary	connector	501.79	2695	http://search.mbari.org/ARCHIVE/frameGrabs/Ventana/images/2695/00_21_27_26.jpg	36.784573	-122.20047	20005488	0.88	2005-07-28 17:15:06.0	Ventana	34.265	00:21:27:26	6.692	V2695-01
identity-reference | self | FOCE	stationary	equipment	501.75	2695	 	36.784588	-122.20046	1824430	0.88	2005-07-28 17:19:47.0	Ventana	34.266	00:26:08:21	6.679	V2695-01
population-quantity | self | 999	stationary	Appendicularia	501.7	2695	 	36.784576	-122.20046	1824437	0.87	2005-07-28 17:24:43.0	Ventana	34.266	00:31:03:19	6.676	V2695-01
population-quantity | self | 999	stationary	Appendicularia	501.69	2695	 	36.784573	-122.200455	1824440	0.87	2005-07-28 17:25:17.0	Ventana	34.266	00:31:38:14	6.676	V2695-01
grabbing | equipment | nil	stationary	manipulator	501.67	2695	 	36.784565	-122.20045	1824441	0.87	2005-07-28 17:26:12.0	Ventana	34.267	00:32:32:28	6.676	V2695-01
population-quantity | self | 999	stationary	Appendicularia	501.66	2695	 	36.78456	-122.200455	1824442	0.87	2005-07-28 17:28:08.0	Ventana	34.266	00:34:28:13	6.667	V2695-01
population-quantity | self | 999	stationary	Appendicularia	501.66	2695	 	36.784584	-122.20044	1824444	0.87	2005-07-28 17:31:01.0	Ventana	34.267	00:37:21:07	6.662	V2695-01
population-quantity | self | 999	stationary	Appendicularia	501.65	2695	 	36.784584	-122.20044	1824448	0.86	2005-07-28 17:32:27.0	Ventana	34.269	00:38:47:14	6.653	V2695-01
population-quantity | self | 999	stationary	Appendicularia	501.65	2695	 	36.78458	-122.20044	1824450	0.86	2005-07-28 17:33:19.0	Ventana	34.267	00:39:39:27	6.65	V2695-01
population-quantity | self | 999	stationary	Appendicularia	501.64	2695	 	36.784573	-122.20044	1824453	0.85	2005-07-28 17:34:53.0	Ventana	34.269	00:41:13:18	6.641	V2695-01
population-quantity | self | 999	stationary	Appendicularia	501.65	2695	 	36.784557	-122.20045	1824457	0.85	2005-07-28 17:39:03.0	Ventana	34.27	00:45:23:08	6.631	V2695-01
identity-reference | self | FOCE	stationary	equipment	503.25	2695	http://search.mbari.org/ARCHIVE/frameGrabs/Ventana/images/2695/01_15_38_10.jpg	36.784527	-122.20047	20005491	0.68	2005-07-28 18:27:22.0	Ventana	34.296	01:15:38:10	6.298	V2695-02
holding | equipment | nil	stationary	manipulator	504.13	2695	http://search.mbari.org/ARCHIVE/frameGrabs/Ventana/images/2695/01_24_24_09.jpg	36.784534	-122.20048	20005492	0.67	2005-07-28 18:36:09.0	Ventana	34.296	01:24:24:09	6.283	V2695-02
holding | equipment | nil	stationary	manipulator	503.25	2695	http://search.mbari.org/ARCHIVE/frameGrabs/Ventana/images/2695/01_15_38_10.jpg	36.784527	-122.20047	1824470	0.68	2005-07-28 18:27:22.0	Ventana	34.296	01:15:38:10	6.298	V2695-02
identity-reference | self | 3	stationary	connector	501.83	2695	http://search.mbari.org/ARCHIVE/frameGrabs/Ventana/images/2695/00_16_44_19.jpg	36.784588	-122.20047	20005483	0.88	2005-07-28 17:10:23.0	Ventana	34.265	00:16:44:19	6.693	V2695-01
holding | equipment | nil	stationary	manipulator	501.61	2695	http://search.mbari.org/ARCHIVE/frameGrabs/Ventana/images/2695/00_59_03_15.jpg	36.78462	-122.200424	20005489	0.75	2005-07-28 17:52:44.0	Ventana	34.285	00:59:03:15	6.441	V2695-01
identity-reference | self | FOCE	stationary	equipment	504.18	2695	http://search.mbari.org/ARCHIVE/frameGrabs/Ventana/images/2695/01_41_39_21.jpg	36.784557	-122.200516	20005493	0.67	2005-07-28 18:53:24.0	Ventana	34.296	01:41:39:21	6.285	V2695-02
holding | equipment | nil	stationary	manipulator	504.18	2695	http://search.mbari.org/ARCHIVE/frameGrabs/Ventana/images/2695/01_41_39_21.jpg	36.784557	-122.200516	1824479	0.67	2005-07-28 18:53:24.0	Ventana	34.296	01:41:39:21	6.285	V2695-02
comment | self | Time code jumped 3 hours	stationary	Aux camera	504.16	2695	 	36.784588	-122.20051	1824480	0.67	2005-07-28 18:54:31.0	Ventana	34.297	04:00:46:00	6.286	V2695-02
population-quantity | self | 999	stationary	Appendicularia	504.25	2695	 	36.784622	-122.20049	1824502	0.68	2005-07-28 19:17:01.0	Ventana	34.295	04:23:14:20	6.318	V2695-02
identity-reference | self | FOCE	stationary	equipment	504.25	2695	http://search.mbari.org/ARCHIVE/frameGrabs/Ventana/images/2695/04_28_39_25.jpg	36.784653	-122.20051	20005494	0.69	2005-07-28 19:22:26.0	Ventana	34.293	04:28:39:25	6.327	V2695-02
identity-reference | self | FOCE	stationary	equipment	504.28	2695	 	36.7846	-122.200485	1824505	0.7	2005-07-28 19:28:30.0	Ventana	34.288	04:29:52:19	6.355	V2695-03
retrieved-by | manipulator | nil, identity-reference | self | 2	stationary	equipment	504.47	2695	 	36.78461	-122.20048	1824509	0.72	2005-07-28 20:10:42.0	Ventana	34.284	05:12:02:13	6.377	V2695-03
deployed-by | manipulator | nil	stationary	connector	504.44	2695	http://search.mbari.org/ARCHIVE/frameGrabs/Ventana/images/2695/05_16_42_28.jpg	36.78461	-122.20043	20005495	0.71	2005-07-28 20:15:22.0	Ventana	34.286	05:16:42:28	6.356	V2695-03
attaching-to | equipment | nil	stationary	connector	504.42	2695	http://search.mbari.org/ARCHIVE/frameGrabs/Ventana/images/2695/05_16_47_29.jpg	36.78461	-122.200424	20005496	0.71	2005-07-28 20:15:28.0	Ventana	34.286	05:16:47:29	6.358	V2695-03
identity-reference | self | 1	stationary	equipment	503.96	2695	http://search.mbari.org/ARCHIVE/frameGrabs/Ventana/images/2695/05_17_33_12.jpg	36.784607	-122.20042	20005497	0.7	2005-07-28 20:16:08.0	Ventana	34.286	05:17:33:12	6.352	V2695-03
retrieved-by | manipulator | nil, identity-reference | self | 1	stationary	equipment	503.39	2695	http://search.mbari.org/ARCHIVE/frameGrabs/Ventana/images/2695/05_18_03_11.jpg	36.78461	-122.20039	20005498	0.7	2005-07-28 20:16:43.0	Ventana	34.285	05:18:03:11	6.351	V2695-03
identity-reference | self | FOCE	stationary	equipment	504.39	2695	http://search.mbari.org/ARCHIVE/frameGrabs/Ventana/images/2695/05_18_54_24.jpg	36.784607	-122.20041	20005500	0.7	2005-07-28 20:17:32.0	Ventana	34.286	05:18:54:24	6.349	V2695-03
identity-reference | self | FOCE	stationary	equipment	503.97	2695	http://search.mbari.org/ARCHIVE/frameGrabs/Ventana/images/2695/05_19_28_24.jpg	36.7846	-122.20042	20005501	0.7	2005-07-28 20:18:15.0	Ventana	34.286	05:19:28:24	6.348	V2695-03
attaching-to | equipment | nil	stationary	cable	502.48	2695	http://search.mbari.org/ARCHIVE/frameGrabs/Ventana/images/2695/05_20_43_21.jpg	36.784595	-122.200424	20005503	0.7	2005-07-28 20:19:20.0	Ventana	34.286	05:20:43:21	6.347	V2695-03
identity-reference | self | FOCE	stationary	equipment	504.42	2695	http://search.mbari.org/ARCHIVE/frameGrabs/Ventana/images/2695/05_26_30_25.jpg	36.78457	-122.20043	20005507	0.7	2005-07-28 20:25:11.0	Ventana	34.287	05:26:30:25	6.339	V2695-03
deployed-by | manipulator | nil, identity-reference | self | 1	stationary	equipment	504.45	2695	http://search.mbari.org/ARCHIVE/frameGrabs/Ventana/images/2695/05_26_10_11.jpg	36.784565	-122.200424	20005506	0.7	2005-07-28 20:24:51.0	Ventana	34.287	05:26:10:11	6.337	V2695-03
identity-reference | self | 4	cruise	equipment	502.95	2695	 	36.78443	-122.200455	1824512	0.69	2005-07-28 20:27:20.0	Ventana	34.288	05:28:39:15	6.336	V2695-03
identity-reference | self | 4, retrieved-by | manipulator | nil	cruise	equipment	503.82	2695	 	36.784397	-122.20045	1824516	0.69	2005-07-28 20:30:21.0	Ventana	34.288	05:31:40:00	6.32	V2695-03
holding | equipment | nil	ascend	manipulator	470.41	2695	 	36.784126	-122.20096	1824519	1.12	2005-07-28 20:37:47.0	Ventana	34.239	05:35:22:16	7.121	V2695-04
life-stage | self | juvenile	cruise	Raja rhina	159.21	2688	http://search.mbari.org/ARCHIVE/frameGrabs/Ventana/images/2688/02_23_16_01.jpg	36.810913	-122.021904	1869869	1.95	2005-07-14 18:38:02.0	Ventana	34.098	02:23:16:01	8.918	V2688-03
identity-gender | self | female, comment | human | with eye spots	cruise	Raja inornata	138.65	2688	http://search.mbari.org/ARCHIVE/frameGrabs/Ventana/images/2688/02_24_36_10.jpg	36.81114	-122.02225	1869874	1.94	2005-07-14 18:39:21.0	Ventana	34.099	02:24:36:10	8.905	V2688-03
life-stage | self | juvenile	cruise	Raja rhina	104.54	2688	http://search.mbari.org/ARCHIVE/frameGrabs/Ventana/images/2688/03_20_27_06.jpg	36.81427	-122.017166	1869878	1.97	2005-07-14 19:35:39.0	Ventana	34.089	03:20:27:06	8.902	V2688-04
life-stage | self | juvenile	cruise	Raja rhina	98.62	2688	 	36.81327	-122.02003	1869879	1.94	2005-07-14 21:27:52.0	Ventana	34.106	05:12:04:25	8.884	V2688-05
life-stage | self | juvenile	cruise	Raja rhina	103.77	2676	http://search.mbari.org/ARCHIVE/frameGrabs/Ventana/images/2676/02_12_29_16.jpg	36.808857	-122.0358	1869882	1.93	2005-06-14 18:33:42.0	Ventana	34.148	02:12:29:16	8.478	V2676-03
life-stage | self | juvenile	cruise	Raja stellulata	102.51	2676	http://search.mbari.org/ARCHIVE/frameGrabs/Ventana/images/2676/02_52_01_17.jpg	36.806915	-122.04056	1869888	1.98	2005-06-14 19:13:16.0	Ventana	34.149	02:52:01:17	8.461	V2676-03
identity-gender | self | female	cruise	Amblyraja badia	1283.43	2673	http://search.mbari.org/ARCHIVE/frameGrabs/Ventana/images/2673/00_17_12_26.jpg	36.802937	-121.804695	1668358	0.81	2005-06-07 17:33:21.0	Ventana	34.583	00:17:12:26	3.223	V2673-01
identity-gender | self | female	cruise	Raja rhina	265.19	2676	http://search.mbari.org/ARCHIVE/frameGrabs/Ventana/images/2676/01_15_12_25.jpg	36.805405	-122.02946	1676720	1.52	2005-06-14 17:35:29.0	Ventana	34.212	01:15:12:25	7.976	V2676-02
identity-gender | self | female	cruise	Raja rhina	193.7	2676	http://search.mbari.org/ARCHIVE/frameGrabs/Ventana/images/2676/01_24_35_24.jpg	36.806915	-122.02953	1676810	1.59	2005-06-14 17:44:53.0	Ventana	34.201	01:24:35:24	8.092	V2676-02
life-stage | self | juvenile	descend	Raja rhina	137.97	2676	 	36.808662	-122.03089	1875828	1.71	2005-06-14 17:57:20.0	Ventana	34.174	01:37:03:08	8.313	V2676-02
life-stage | self | juvenile	cruise	Raja rhina	136.05	2676	 	36.808647	-122.03091	1875830	1.72	2005-06-14 17:57:34.0	Ventana	34.172	01:37:17:27	8.33	V2676-02
life-stage | self | juvenile	cruise	Raja rhina	102.59	2676	http://search.mbari.org/ARCHIVE/frameGrabs/Ventana/images/2676/01_48_41_05.jpg	36.809834	-122.032875	1676920	1.85	2005-06-14 18:09:00.0	Ventana	34.148	01:48:41:05	8.476	V2676-02
identity-gender | self | female	cruise	Bathyraja abyssicola	616.31	2688	http://search.mbari.org/ARCHIVE/frameGrabs/Ventana/images/2688/00_17_44_21.jpg	36.794827	-122.01921	1875831	0.43	2005-07-14 16:31:24.0	Ventana	34.398	00:17:44:21	5.395	V2688-01
comment | self | to shallow for abyss per Ebert, identity-gender | self | male	cruise	Bathyraja abyssicola	610.53	2688	 	36.795914	-122.02007	1677371	0.45	2005-07-14 16:38:03.0	Ventana	34.387	00:24:23:11	5.504	V2688-01
identity-gender | self | female	cruise	Raja rhina	518.29	2688	http://search.mbari.org/ARCHIVE/frameGrabs/Ventana/images/2688/00_55_51_09.jpg	36.799995	-122.01898	1677491	0.66	2005-07-14 17:09:36.0	Ventana	34.316	00:55:51:09	6.37	V2688-01
comment | self | to shallow for abyss per Ebert, identity-gender | self | male	cruise	Bathyraja kincaidii	516.38	2688	http://search.mbari.org/ARCHIVE/frameGrabs/Ventana/images/2688/01_05_21_29.jpg	36.80067	-122.01899	20005131	0.68	2005-07-14 17:19:04.0	Ventana	34.31	01:05:21:29	6.425	V2688-01
life-stage | self | juvenile	cruise	Raja rhina	508.56	2688	http://search.mbari.org/ARCHIVE/frameGrabs/Ventana/images/2688/01_07_50_03.jpg	36.800983	-122.01871	1677535	0.68	2005-07-14 17:22:07.0	Ventana	34.31	01:07:50:03	6.426	V2688-02
upon | Laminariales | nil	cruise	Allocentrotus fragilis	482.16	2688	 	36.801914	-122.018326	1877074	0.79	2005-07-14 17:27:00.0	Ventana	34.29	01:12:44:25	6.672	V2688-02
identity-gender | self | female	cruise	Bathyraja kincaidii	480.85	2688	http://search.mbari.org/ARCHIVE/frameGrabs/Ventana/images/2688/01_12_57_14.jpg	36.801956	-122.0183	1677570	0.8	2005-07-14 17:27:15.0	Ventana	34.285	01:12:57:14	6.678	V2688-02
identity-gender | self | female	cruise	Bathyraja kincaidii	480.17	2688	http://search.mbari.org/ARCHIVE/frameGrabs/Ventana/images/2688/01_13_08_21.jpg	36.801975	-122.018295	1877085	0.8	2005-07-14 17:27:24.0	Ventana	34.289	01:13:08:21	6.681	V2688-02
identity-gender | self | female	cruise	Raja rhina	346.8	2688	http://search.mbari.org/ARCHIVE/frameGrabs/Ventana/images/2688/01_51_18_20.jpg	36.807816	-122.020065	1877087	1.2	2005-07-14 18:05:36.0	Ventana	34.23	01:51:18:20	7.482	V2688-02
identity-certainty | self | maybe, life-stage | self | juvenile	ascend	Galiteuthis	493.14	2682	http://search.mbari.org/ARCHIVE/frameGrabs/Ventana/images/2682/05_06_09_22.jpg	36.698322	-122.06329	1723689	0.51	2005-07-08 21:14:28.0	Ventana	34.329	05:06:09:22	6.201	V2682-06
identity-certainty | self | maybe	cruise	Hydrolagus colliei	98.98	2676	 	36.808357	-122.0376	1677117	1.98	2005-06-14 18:57:43.0	Ventana	34.151	02:36:29:23	8.476	V2676-03
identity-certainty | self | maybe	cruise	Hydrolagus colliei	119.32	2688	 	36.813015	-122.01885	1679193	1.97	2005-07-14 19:27:59.0	Ventana	34.098	03:12:47:12	8.929	V2688-04
identity-certainty | self | maybe	cruise	Hydrolagus colliei	382.13	2690	http://search.mbari.org/ARCHIVE/frameGrabs/Ventana/images/2690/01_07_59_13.jpg	36.79003	-121.88748	1670259	0.94	2005-07-18 19:52:54.0	Ventana	34.269	01:07:59:13	6.951	V2690-01
life-stage | self | juvenile	transect	Coryphaenoides acrolepis	997.48	2669	 	36.730595	-122.22725	1649131	0.45	2005-05-25 17:55:56.0	Ventana	34.521	00:18:24:29	3.909	V2669-01
life-stage | self | juvenile	transect	Coryphaenoides acrolepis	998.44	2669	 	36.73111	-122.2307	1683404	0.45	2005-05-25 18:20:01.0	Ventana	34.521	00:42:28:15	3.912	V2669-01
life-stage | self | juvenile	transect	Coryphaenoides acrolepis	999.55	2669	 	36.73099	-122.232346	1683735	0.45	2005-05-25 18:32:02.0	Ventana	34.521	00:54:28:09	3.914	V2669-01
life-stage | self | juvenile	transect	Coryphaenoides acrolepis	1000.13	2669	http://search.mbari.org/ARCHIVE/frameGrabs/Ventana/images/2669/02_10_37_06.jpg	36.73167	-122.243805	1733964	0.41	2005-05-25 19:49:06.0	Ventana	34.511	02:10:37:06	4.066	V2669-03
life-stage | self | juvenile	cruise	Coryphaenoides acrolepis	998.49	2669	http://search.mbari.org/ARCHIVE/frameGrabs/Ventana/images/2669/00_42_16_26.jpg	36.7311	-122.23068	20003779	0.45	2005-05-25 18:19:50.0	Ventana	34.521	00:42:16:26	3.911	V2669-01
identity-certainty | self | maybe	transect	Phacellophora camtschatica	50.41	2681	 	36.69983	-122.05429	2485704	3.0	2005-07-07 16:37:48.0	Ventana	33.913	00:08:57:28	9.634	V2681-01HD
identity-certainty | self | maybe	transect	Phacellophora camtschatica	50.38	2681	 	36.69983	-122.05429	2485731	3.03	2005-07-07 16:40:18.0	Ventana	33.907	00:11:27:12	9.638	V2681-01HD
identity-certainty | self | maybe	transect	Phacellophora camtschatica	50.38	2681	 	36.69983	-122.05429	2485733	3.03	2005-07-07 16:40:18.0	Ventana	33.907	00:11:28:28	9.638	V2681-01HD
identity-certainty | self | maybe	transect	Leptomedusae	100.57	2681	 	36.69983	-122.05429	2489552	2.13	2005-07-07 16:44:38.0	Ventana	34.068	00:15:47:24	9.145	V2681-01HD
life-stage | self | juvenile	transect	Chiroteuthis calyx	200.41	2681	 	36.698296	-122.05335	2491100	1.69	2005-07-07 17:11:48.0	Ventana	34.198	00:42:55:21	8.335	V2681-01HD
life-stage | self | juvenile	transect	Chiroteuthis calyx	200.37	2681	 	36.69832	-122.05342	2491277	1.66	2005-07-07 17:13:20.0	Ventana	34.2	00:44:28:05	8.341	V2681-01HD
identity-certainty | self | maybe	transect	Medusae	200.44	2681	 	36.698406	-122.05349	2491428	1.68	2005-07-07 17:14:11.0	Ventana	34.2	00:45:17:28	8.341	V2681-01HD
relative-size | self | large	transect	Solmissus	300.43	2681	 	36.698093	-122.05342	2492045	1.24	2005-07-07 17:21:11.0	Ventana	34.233	00:52:18:09	7.404	V2681-01HD
identity-certainty | self | maybe	transect	cyclothone	300.42	2681	 	36.697575	-122.053024	2492194	1.24	2005-07-07 17:22:57.0	Ventana	34.233	00:54:05:10	7.406	V2681-01HD
identity-certainty | self | maybe	transect	cyclothone	300.41	2681	 	36.697315	-122.0528	2492291	1.23	2005-07-07 17:23:49.0	Ventana	34.233	00:54:56:04	7.396	V2681-01HD
relative-size | self | large	transect	Solmissus	300.45	2681	 	36.697147	-122.05265	2492351	1.23	2005-07-07 17:24:24.0	Ventana	34.233	00:55:29:18	7.393	V2681-01HD
identity-certainty | self | maybe	transect	Poeobius meseres	300.42	2681	 	36.69674	-122.05231	2492484	1.23	2005-07-07 17:25:48.0	Ventana	34.234	00:56:54:11	7.397	V2681-01HD
relative-size | self | large	transect	Solmissus	300.4	2681	 	36.696022	-122.05165	2492578	1.24	2005-07-07 17:28:25.0	Ventana	34.233	00:59:31:01	7.427	V2681-01HD
identity-certainty | self | maybe	transect	Solidosagitta zetesios	300.4	2681	 	36.69597	-122.05159	2492582	1.24	2005-07-07 17:28:39.0	Ventana	34.234	00:59:46:04	7.427	V2681-01HD
relative-size | self | large	transect	Solmissus	300.41	2681	 	36.695797	-122.05141	2492603	1.24	2005-07-07 17:29:23.0	Ventana	34.233	01:00:29:08	7.415	V2681-01HD
life-stage | self | juvenile	transect	Chiroteuthis calyx	400.79	2681	 	36.695847	-122.051254	2492904	0.79	2005-07-07 17:41:11.0	Ventana	34.278	01:11:34:08	6.667	V2681-02HD
identity-certainty | self | maybe	transect	Radiolaria	400.81	2681	 	36.69603	-122.05147	2492952	0.79	2005-07-07 17:42:05.0	Ventana	34.277	01:12:30:00	6.661	V2681-02HD
life-stage | self | juvenile	transect	Chiroteuthis calyx	400.81	2681	 	36.696163	-122.05163	2492970	0.79	2005-07-07 17:42:41.0	Ventana	34.276	01:13:04:13	6.657	V2681-02HD
free-swimming | nil | nil	transect	Appendicularia	400.81	2681	 	36.69632	-122.05179	2492991	0.79	2005-07-07 17:43:17.0	Ventana	34.276	01:13:42:09	6.65	V2681-02HD
identity-certainty | self | maybe	transect	cydippida	400.74	2681	 	36.696514	-122.05203	2493015	0.79	2005-07-07 17:44:12.0	Ventana	34.276	01:14:34:29	6.645	V2681-02HD
comment | self | centered	transect	Dosidicus gigas	400.72	2681	 	36.697872	-122.05357	2493222	0.79	2005-07-07 17:49:53.0	Ventana	34.279	01:20:17:00	6.66	V2681-02HD
part-of | Sergestes | nil	transect	molt	400.71	2681	 	36.69796	-122.05368	2493237	0.79	2005-07-07 17:50:21.0	Ventana	34.278	01:20:45:04	6.661	V2681-02HD
identity-certainty | self | maybe	transect	Calycophorae	500.59	2681	 	36.697987	-122.05373	2493258	0.44	2005-07-07 17:54:49.0	Ventana	34.347	01:25:12:02	6.021	V2681-02HD
identity-certainty | self | maybe	transect	Tomopteridae	500.6	2681	 	36.69788	-122.053635	2493278	0.44	2005-07-07 17:55:17.0	Ventana	34.346	01:25:40:11	6.021	V2681-02HD
part-of | Sergestes | nil	transect	molt	500.59	2681	 	36.697563	-122.053314	2493367	0.44	2005-07-07 17:56:33.0	Ventana	34.347	01:26:57:14	6.018	V2681-02HD
surface-color | self | white	transect	Periphylla periphylla	500.54	2681	 	36.697395	-122.0531	2493426	0.44	2005-07-07 17:57:22.0	Ventana	34.346	01:27:43:28	6.018	V2681-02HD
part-of | Sergestes | nil	transect	molt	500.58	2681	 	36.69685	-122.052444	2493569	0.44	2005-07-07 17:59:44.0	Ventana	34.346	01:30:07:14	6.021	V2681-02HD
part-of | Sergestes | nil	transect	molt	500.59	2681	 	36.695908	-122.05136	2493648	0.43	2005-07-07 18:03:54.0	Ventana	34.348	01:34:15:09	6.006	V2681-02HD
identity-certainty | self | maybe	transect	Solmissus	600.64	2681	 	36.69592	-122.05149	2493691	0.3	2005-07-07 18:19:44.0	Ventana	34.387	01:50:06:07	5.496	V2681-02HD
comment | self | centered	transect	apolemia	600.59	2681	 	36.69665	-122.052315	2493763	0.3	2005-07-07 18:23:03.0	Ventana	34.387	01:53:25:10	5.477	V2681-02HD
identity-certainty | self | maybe	transect	Vampyroteuthis infernalis	700.62	2681	 	36.696045	-122.051926	2497828	0.29	2005-07-07 18:43:43.0	Ventana	34.435	02:13:25:26	4.945	V2681-03HD
identity-certainty | self | maybe	transect	Pantachogon	800.91	2681	 	36.695465	-122.05132	2498157	0.32	2005-07-07 18:55:53.0	Ventana	34.475	02:25:35:21	4.491	V2681-03HD
surface-color | self | white	transect	bathylagus	800.87	2681	 	36.696087	-122.05204	2498228	0.31	2005-07-07 18:58:48.0	Ventana	34.475	02:28:29:16	4.497	V2681-03HD
comment | self | centered	transect	pseudothecosomata	1001.05	2681	 	36.694973	-122.05085	2498563	0.47	2005-07-07 19:22:27.0	Ventana	34.531	02:52:08:17	3.87	V2681-03HD
comment | self | centered	transect	Copepoda	1001.0	2681	 	36.695557	-122.051605	2498625	0.48	2005-07-07 19:25:30.0	Ventana	34.532	02:55:10:16	3.847	V2681-03HD
comment | self | centered	transect	Poeobius meseres	1001.01	2681	 	36.69556	-122.05161	2498626	0.48	2005-07-07 19:25:32.0	Ventana	34.532	02:55:12:18	3.847	V2681-03HD
surface-color | self | white	transect	bathylagus	1001.01	2681	 	36.695793	-122.0519	2498645	0.48	2005-07-07 19:26:50.0	Ventana	34.531	02:56:30:11	3.857	V2681-03HD
identity-certainty | self | maybe	transect	Calycophorae	1000.97	2681	 	36.69616	-122.052376	2498672	0.47	2005-07-07 19:28:29.0	Ventana	34.531	02:58:08:15	3.871	V2681-03HD
comment | self | centered	transect	cyclothone	1000.95	2681	 	36.6965	-122.05287	2498709	0.47	2005-07-07 19:30:13.0	Ventana	34.532	02:59:52:20	3.883	V2681-03HD
sample-reference | self | d-2, sampled-by | Detritus Sampler | nil	ascend	Pteropoda	664.96	2681	http://search.mbari.org/ARCHIVE/frameGrabs/Ventana/images/2681/03_53_53_01.jpg	36.698757	-122.05424	20004492	0.29	2005-07-07 20:24:52.5	Ventana	34.409	03:53:53:01	5.219	V2681-04
identity-reference | self | 1	ascend	Bathochordaeus sinker	261.18	2681	http://search.mbari.org/ARCHIVE/frameGrabs/Ventana/images/2681/04_38_45_09.jpg	36.699448	-122.054565	20004498	1.41	2005-07-07 21:10:26.0	Ventana	34.232	04:38:45:09	7.936	V2681-05
identity-reference | self | 1	ascend	Bathochordaeus sinker	261.17	2681	http://search.mbari.org/ARCHIVE/frameGrabs/Ventana/images/2681/04_38_47_24.jpg	36.699448	-122.05457	20004499	1.41	2005-07-07 21:10:28.5	Ventana	34.232	04:38:47:24	7.936	V2681-05
identity-reference | self | 1	ascend	Bathochordaeus sinker	261.59	2681	http://search.mbari.org/ARCHIVE/frameGrabs/Ventana/images/2681/04_39_58_22.jpg	36.699436	-122.05457	20004500	1.42	2005-07-07 21:11:39.017	Ventana	34.23	04:39:58:22	7.937	V2681-05
identity-reference | self | 1	ascend	Bathochordaeus sinker	261.61	2681	http://search.mbari.org/ARCHIVE/frameGrabs/Ventana/images/2681/04_40_05_21.jpg	36.699436	-122.05457	20004501	1.42	2005-07-07 21:11:46.0	Ventana	34.23	04:40:05:21	7.937	V2681-05
identity-reference | self | 1	ascend	Bathochordaeus sinker	261.63	2681	http://search.mbari.org/ARCHIVE/frameGrabs/Ventana/images/2681/04_40_11_21.jpg	36.699436	-122.05457	20004502	1.42	2005-07-07 21:11:52.0	Ventana	34.23	04:40:11:21	7.937	V2681-05
identity-reference | self | 1	descend	Deiopea	180.9	2682	http://search.mbari.org/ARCHIVE/frameGrabs/Ventana/images/2682/00_14_07_04.jpg	36.69989	-122.060745	20004534	2.1	2005-07-08 16:20:02.0	Ventana	34.151	00:14:07:04	8.296	V2682-01
identity-reference | self | 1	descend	Deiopea	180.9	2682	http://search.mbari.org/ARCHIVE/frameGrabs/Ventana/images/2682/00_14_07_04.jpg	36.69989	-122.060745	20004535	2.1	2005-07-08 16:20:02.0	Ventana	34.151	00:14:07:04	8.296	V2682-01
identity-reference | self | 2	descend	Praya dubia	51.31	2682	http://search.mbari.org/ARCHIVE/frameGrabs/Ventana/images/2682/00_00_43_14.jpg	36.70009	-122.05962	20004508	3.04	2005-07-08 16:06:38.0	Ventana	33.895	00:00:43:14	9.618	V2682-01
identity-reference | self | 2	descend	Praya dubia	51.19	2682	http://search.mbari.org/ARCHIVE/frameGrabs/Ventana/images/2682/00_00_52_13.jpg	36.700085	-122.05962	20004509	3.04	2005-07-08 16:06:48.0	Ventana	33.895	00:00:52:13	9.618	V2682-01
identity-reference | self | 2	descend	Praya dubia	50.68	2682	http://search.mbari.org/ARCHIVE/frameGrabs/Ventana/images/2682/00_01_09_12.jpg	36.700077	-122.05964	20004510	3.02	2005-07-08 16:07:04.0	Ventana	33.896	00:01:09:12	9.618	V2682-01
identity-reference | self | 2	descend	Praya dubia	50.67	2682	http://search.mbari.org/ARCHIVE/frameGrabs/Ventana/images/2682/00_02_50_24.jpg	36.699932	-122.0599	20004511	3.02	2005-07-08 16:08:46.0	Ventana	33.894	00:02:50:24	9.622	V2682-01
identity-reference | self | 2	descend	Praya dubia	50.72	2682	http://search.mbari.org/ARCHIVE/frameGrabs/Ventana/images/2682/00_02_58_09.jpg	36.69993	-122.059906	20004512	3.02	2005-07-08 16:08:52.0	Ventana	33.894	00:02:58:09	9.622	V2682-01
identity-reference | self | 2	descend	Praya dubia	50.6	2682	http://search.mbari.org/ARCHIVE/frameGrabs/Ventana/images/2682/00_03_04_24.jpg	36.699924	-122.05992	20004513	3.02	2005-07-08 16:09:00.0	Ventana	33.893	00:03:04:24	9.624	V2682-01
identity-reference | self | 2	descend	Praya dubia	50.29	2682	http://search.mbari.org/ARCHIVE/frameGrabs/Ventana/images/2682/00_04_08_22.jpg	36.69991	-122.059975	20004514	3.03	2005-07-08 16:10:05.0	Ventana	33.893	00:04:08:22	9.629	V2682-01
identity-reference | self | 2	descend	Praya dubia	50.29	2682	http://search.mbari.org/ARCHIVE/frameGrabs/Ventana/images/2682/00_04_10_07.jpg	36.69991	-122.059975	20004515	3.03	2005-07-08 16:10:05.0	Ventana	33.893	00:04:10:07	9.629	V2682-01
identity-reference | self | 2	descend	Praya dubia	50.37	2682	http://search.mbari.org/ARCHIVE/frameGrabs/Ventana/images/2682/00_04_18_22.jpg	36.699905	-122.05998	20004516	3.04	2005-07-08 16:10:13.0	Ventana	33.891	00:04:18:22	9.633	V2682-01
identity-reference | self | 2	descend	Praya dubia	50.49	2682	http://search.mbari.org/ARCHIVE/frameGrabs/Ventana/images/2682/00_04_26_06.jpg	36.6999	-122.05999	20004517	3.04	2005-07-08 16:10:21.0	Ventana	33.891	00:04:26:06	9.633	V2682-01
identity-reference | self | 2	descend	Praya dubia	50.65	2682	http://search.mbari.org/ARCHIVE/frameGrabs/Ventana/images/2682/00_04_36_21.jpg	36.699898	-122.05999	20004518	3.03	2005-07-08 16:10:31.0	Ventana	33.889	00:04:36:21	9.627	V2682-01
identity-reference | self | 2	descend	Praya dubia	51.04	2682	http://search.mbari.org/ARCHIVE/frameGrabs/Ventana/images/2682/00_05_13_05.jpg	36.699886	-122.06001	20004519	3.03	2005-07-08 16:11:07.0	Ventana	33.891	00:05:13:05	9.621	V2682-01
identity-reference | self | 2	descend	Praya dubia	51.17	2682	http://search.mbari.org/ARCHIVE/frameGrabs/Ventana/images/2682/00_05_19_05.jpg	36.699886	-122.06002	20004520	3.02	2005-07-08 16:11:13.0	Ventana	33.892	00:05:19:05	9.622	V2682-01
identity-reference | self | 2	descend	Praya dubia	51.11	2682	http://search.mbari.org/ARCHIVE/frameGrabs/Ventana/images/2682/00_05_28_04.jpg	36.699883	-122.060036	20004521	3.02	2005-07-08 16:11:23.0	Ventana	33.895	00:05:28:04	9.617	V2682-01
identity-reference | self | 2	descend	Praya dubia	51.13	2682	http://search.mbari.org/ARCHIVE/frameGrabs/Ventana/images/2682/00_06_12_03.jpg	36.699867	-122.06012	20004522	3.01	2005-07-08 16:12:07.0	Ventana	33.896	00:06:12:03	9.614	V2682-01
identity-reference | self | 2	descend	Praya dubia	50.47	2682	http://search.mbari.org/ARCHIVE/frameGrabs/Ventana/images/2682/00_06_32_17.jpg	36.699856	-122.06016	20004523	3.0	2005-07-08 16:12:27.0	Ventana	33.897	00:06:32:17	9.609	V2682-01
identity-reference | self | 2	descend	Praya dubia	50.5	2682	http://search.mbari.org/ARCHIVE/frameGrabs/Ventana/images/2682/00_06_54_02.jpg	36.69984	-122.0602	20004524	3.0	2005-07-08 16:12:49.0	Ventana	33.897	00:06:54:02	9.611	V2682-01
identity-reference | self | 4	descend	Hastigerinella digitata	267.47	2682	http://search.mbari.org/ARCHIVE/frameGrabs/Ventana/images/2682/00_23_52_16.jpg	36.69979	-122.06072	20004543	1.35	2005-07-08 16:29:49.0	Ventana	34.228	00:23:52:16	7.75	V2682-01
identity-reference | self | 7	descend	Deiopea	310.38	2682	http://search.mbari.org/ARCHIVE/frameGrabs/Ventana/images/2682/00_33_45_27.jpg	36.69953	-122.06071	20004551	1.16	2005-07-08 16:39:42.0	Ventana	34.239	00:33:45:27	7.307	V2682-01
identity-reference | self | 7	descend	Deiopea	310.64	2682	http://search.mbari.org/ARCHIVE/frameGrabs/Ventana/images/2682/00_33_47_12.jpg	36.69953	-122.06071	20004552	1.16	2005-07-08 16:39:44.0	Ventana	34.239	00:33:47:12	7.307	V2682-01
identity-reference | self | 7	descend	Deiopea	310.68	2682	http://search.mbari.org/ARCHIVE/frameGrabs/Ventana/images/2682/00_33_52_12.jpg	36.699528	-122.0607	20004553	1.16	2005-07-08 16:39:50.0	Ventana	34.239	00:33:52:12	7.307	V2682-01
identity-reference | self | 7	descend	Deiopea	310.6	2682	http://search.mbari.org/ARCHIVE/frameGrabs/Ventana/images/2682/00_33_56_12.jpg	36.699524	-122.0607	20004554	1.16	2005-07-08 16:39:54.0	Ventana	34.24	00:33:56:12	7.302	V2682-01
identity-reference | self | 7	descend	Deiopea	310.55	2682	http://search.mbari.org/ARCHIVE/frameGrabs/Ventana/images/2682/00_34_08_11.jpg	36.699512	-122.0607	20004555	1.16	2005-07-08 16:40:06.0	Ventana	34.24	00:34:08:11	7.302	V2682-01
identity-reference | self | 7	descend	Deiopea	310.49	2682	http://search.mbari.org/ARCHIVE/frameGrabs/Ventana/images/2682/00_34_15_11.jpg	36.69951	-122.0607	20004556	1.15	2005-07-08 16:40:12.0	Ventana	34.239	00:34:15:11	7.299	V2682-01
identity-reference | self | 7	descend	Deiopea	310.37	2682	http://search.mbari.org/ARCHIVE/frameGrabs/Ventana/images/2682/00_34_22_26.jpg	36.69951	-122.0607	20004557	1.15	2005-07-08 16:40:20.0	Ventana	34.239	00:34:22:26	7.299	V2682-01
identity-reference | self | 7	descend	Deiopea	310.31	2682	http://search.mbari.org/ARCHIVE/frameGrabs/Ventana/images/2682/00_34_26_11.jpg	36.699505	-122.0607	20004558	1.15	2005-07-08 16:40:24.0	Ventana	34.241	00:34:26:11	7.295	V2682-01
identity-reference | self | 7	descend	Deiopea	310.16	2682	http://search.mbari.org/ARCHIVE/frameGrabs/Ventana/images/2682/00_34_32_26.jpg	36.699505	-122.0607	20004559	1.15	2005-07-08 16:40:30.0	Ventana	34.241	00:34:32:26	7.295	V2682-01
identity-reference | self | 7	descend	Deiopea	310.08	2682	http://search.mbari.org/ARCHIVE/frameGrabs/Ventana/images/2682/00_34_41_11.jpg	36.6995	-122.0607	20004560	1.15	2005-07-08 16:40:38.0	Ventana	34.24	00:34:41:11	7.293	V2682-01
identity-reference | self | 7	descend	Deiopea	309.7	2682	http://search.mbari.org/ARCHIVE/frameGrabs/Ventana/images/2682/00_34_55_25.jpg	36.699493	-122.0607	20004561	1.15	2005-07-08 16:40:52.0	Ventana	34.24	00:34:55:25	7.293	V2682-01
identity-reference | self | 7	descend	Deiopea	309.54	2682	http://search.mbari.org/ARCHIVE/frameGrabs/Ventana/images/2682/00_35_03_25.jpg	36.699493	-122.0607	20004562	1.15	2005-07-08 16:41:00.0	Ventana	34.241	00:35:03:25	7.292	V2682-01
identity-reference | self | 8	descend	Nanomia	285.18	2682	http://search.mbari.org/ARCHIVE/frameGrabs/Ventana/images/2682/00_43_53_08.jpg	36.699383	-122.060684	20004569	1.25	2005-07-08 16:49:51.0	Ventana	34.233	00:43:53:08	7.53	V2682-01
identity-reference | self | 8	descend	Nanomia	285.02	2682	http://search.mbari.org/ARCHIVE/frameGrabs/Ventana/images/2682/00_44_04_08.jpg	36.699375	-122.06068	20004570	1.26	2005-07-08 16:50:01.0	Ventana	34.233	00:44:04:08	7.552	V2682-01
identity-reference | self | 8	descend	Nanomia	284.94	2682	http://search.mbari.org/ARCHIVE/frameGrabs/Ventana/images/2682/00_44_15_23.jpg	36.69937	-122.06067	20004571	1.27	2005-07-08 16:50:13.0	Ventana	34.231	00:44:15:23	7.557	V2682-01
identity-reference | self | 8	descend	Nanomia	285.39	2682	http://search.mbari.org/ARCHIVE/frameGrabs/Ventana/images/2682/00_44_35_07.jpg	36.699375	-122.06066	20004573	1.28	2005-07-08 16:50:33.0	Ventana	34.23	00:44:35:07	7.558	V2682-01
identity-reference | self | 9	descend	Prayidae	285.7	2682	http://search.mbari.org/ARCHIVE/frameGrabs/Ventana/images/2682/00_44_54_21.jpg	36.699387	-122.06066	20004574	1.24	2005-07-08 16:50:51.0	Ventana	34.23	00:44:54:21	7.559	V2682-01
identity-reference | self | 9	descend	Prayidae	285.87	2682	http://search.mbari.org/ARCHIVE/frameGrabs/Ventana/images/2682/00_45_17_05.jpg	36.699387	-122.06066	20004575	1.28	2005-07-08 16:51:13.0	Ventana	34.231	00:45:17:05	7.556	V2682-01
identity-reference | self | 9	descend	Prayidae	285.97	2682	http://search.mbari.org/ARCHIVE/frameGrabs/Ventana/images/2682/00_45_24_21.jpg	36.699387	-122.06066	20004576	1.28	2005-07-08 16:51:21.0	Ventana	34.231	00:45:24:21	7.556	V2682-01
identity-reference | self | 9	descend	Prayidae	285.88	2682	http://search.mbari.org/ARCHIVE/frameGrabs/Ventana/images/2682/00_45_37_20.jpg	36.699387	-122.06067	20004577	1.28	2005-07-08 16:51:35.0	Ventana	34.224	00:45:37:20	7.554	V2682-01
identity-reference | self | 12	descend	Sphaeronectes	327.8	2682	http://search.mbari.org/ARCHIVE/frameGrabs/Ventana/images/2682/01_02_06_24.jpg	36.698864	-122.06068	20004624	1.11	2005-07-08 17:08:34.0	Ventana	34.244	01:02:06:24	7.237	V2682-02
identity-reference | self | 12	descend	Sphaeronectes	328.31	2682	http://search.mbari.org/ARCHIVE/frameGrabs/Ventana/images/2682/01_03_11_07.jpg	36.698814	-122.06068	20004625	1.1	2005-07-08 17:09:39.0	Ventana	34.246	01:03:11:07	7.228	V2682-02
identity-reference | self | 12	descend	Sphaeronectes	328.41	2682	http://search.mbari.org/ARCHIVE/frameGrabs/Ventana/images/2682/01_03_14_07.jpg	36.698814	-122.06067	20004626	1.1	2005-07-08 17:09:43.0	Ventana	34.246	01:03:14:07	7.228	V2682-02
identity-reference | self | 12	descend	Sphaeronectes	328.43	2682	http://search.mbari.org/ARCHIVE/frameGrabs/Ventana/images/2682/01_03_23_22.jpg	36.69881	-122.06066	20004627	1.1	2005-07-08 17:09:51.0	Ventana	34.246	01:03:23:22	7.228	V2682-02
identity-reference | self | 12	descend	Sphaeronectes	328.45	2682	http://search.mbari.org/ARCHIVE/frameGrabs/Ventana/images/2682/01_03_33_21.jpg	36.698807	-122.06065	20004628	1.1	2005-07-08 17:10:01.0	Ventana	34.248	01:03:33:21	7.223	V2682-02
identity-reference | self | 12	descend	Sphaeronectes	328.31	2682	http://search.mbari.org/ARCHIVE/frameGrabs/Ventana/images/2682/01_03_47_21.jpg	36.698803	-122.060646	20004629	1.1	2005-07-08 17:10:15.0	Ventana	34.248	01:03:47:21	7.225	V2682-02
sample-reference | self | 3, sampled-by | Detritus Sampler | nil	descend	Lobata	350.06	2682	http://search.mbari.org/ARCHIVE/frameGrabs/Ventana/images/2682/01_12_03_20.jpg	36.6986	-122.06041	20004639	1.02	2005-07-08 17:18:31.0	Ventana	34.254	01:12:03:20	7.103	V2682-02
identity-reference | self | 13	descend	Lobata	351.04	2682	http://search.mbari.org/ARCHIVE/frameGrabs/Ventana/images/2682/01_07_08_29.jpg	36.698727	-122.060486	20004630	1.03	2005-07-08 17:13:38.0	Ventana	34.254	01:07:08:29	7.108	V2682-02
identity-reference | self | 13	descend	Lobata	351.01	2682	http://search.mbari.org/ARCHIVE/frameGrabs/Ventana/images/2682/01_07_16_14.jpg	36.698723	-122.06048	20004631	1.03	2005-07-08 17:13:44.0	Ventana	34.254	01:07:16:14	7.108	V2682-02
identity-reference | self | 13	descend	Lobata	350.78	2682	http://search.mbari.org/ARCHIVE/frameGrabs/Ventana/images/2682/01_08_00_13.jpg	36.698708	-122.06045	20004633	1.03	2005-07-08 17:14:28.0	Ventana	34.254	01:08:00:13	7.101	V2682-02
identity-reference | self | 13	descend	Lobata	350.72	2682	http://search.mbari.org/ARCHIVE/frameGrabs/Ventana/images/2682/01_08_11_27.jpg	36.698704	-122.06044	20004634	1.03	2005-07-08 17:14:40.0	Ventana	34.253	01:08:11:27	7.101	V2682-02
identity-reference | self | 13	descend	Lobata	350.05	2682	http://search.mbari.org/ARCHIVE/frameGrabs/Ventana/images/2682/01_09_35_10.jpg	36.69865	-122.060425	20004635	1.02	2005-07-08 17:16:03.0	Ventana	34.254	01:09:35:10	7.101	V2682-02
identity-reference | self | 13	descend	Lobata	350.02	2682	http://search.mbari.org/ARCHIVE/frameGrabs/Ventana/images/2682/01_09_40_10.jpg	36.698647	-122.060425	20004636	1.02	2005-07-08 17:16:09.0	Ventana	34.254	01:09:40:10	7.101	V2682-02
identity-reference | self | 14	descend	Haliscera	364.71	2682	http://search.mbari.org/ARCHIVE/frameGrabs/Ventana/images/2682/01_16_29_12.jpg	36.698555	-122.06038	20004640	1.0	2005-07-08 17:22:59.0	Ventana	34.257	01:16:29:12	7.076	V2682-02
identity-reference | self | 14	descend	Haliscera	364.69	2682	http://search.mbari.org/ARCHIVE/frameGrabs/Ventana/images/2682/01_16_36_27.jpg	36.69855	-122.06038	20004641	1.0	2005-07-08 17:23:05.0	Ventana	34.257	01:16:36:27	7.076	V2682-02
identity-reference | self | 17	descend	Apolemia	419.12	2682	http://search.mbari.org/ARCHIVE/frameGrabs/Ventana/images/2682/01_33_45_10.jpg	36.698204	-122.059784	20004651	0.73	2005-07-08 17:40:16.0	Ventana	34.282	01:33:45:10	6.548	V2682-02
identity-reference | self | 17	descend	Apolemia	419.12	2682	http://search.mbari.org/ARCHIVE/frameGrabs/Ventana/images/2682/01_33_55_25.jpg	36.698204	-122.05978	20004652	0.73	2005-07-08 17:40:26.0	Ventana	34.284	01:33:55:25	6.544	V2682-02
identity-reference | self | 17	descend	Apolemia	419.04	2682	http://search.mbari.org/ARCHIVE/frameGrabs/Ventana/images/2682/01_33_59_10.jpg	36.698208	-122.05978	20004653	0.73	2005-07-08 17:40:28.0	Ventana	34.284	01:33:59:10	6.544	V2682-02
identity-reference | self | 17	descend	Apolemia	418.83	2682	http://search.mbari.org/ARCHIVE/frameGrabs/Ventana/images/2682/01_34_06_24.jpg	36.698204	-122.05978	20004654	0.73	2005-07-08 17:40:36.0	Ventana	34.284	01:34:06:24	6.544	V2682-02
identity-reference | self | 17	descend	Apolemia	418.84	2682	http://search.mbari.org/ARCHIVE/frameGrabs/Ventana/images/2682/01_34_14_24.jpg	36.698204	-122.05978	20004655	0.73	2005-07-08 17:40:44.0	Ventana	34.284	01:34:14:24	6.541	V2682-02
identity-reference | self | 18	descend	Craseoa lathetica	429.99	2682	http://search.mbari.org/ARCHIVE/frameGrabs/Ventana/images/2682/01_35_52_21.jpg	36.698166	-122.05978	20004656	0.68	2005-07-08 17:42:22.0	Ventana	34.291	01:35:52:21	6.465	V2682-02
identity-reference | self | 18	descend	Craseoa lathetica	429.94	2682	http://search.mbari.org/ARCHIVE/frameGrabs/Ventana/images/2682/01_36_01_06.jpg	36.698162	-122.05978	20004657	0.68	2005-07-08 17:42:30.0	Ventana	34.291	01:36:01:06	6.462	V2682-02
identity-reference | self | 18	descend	Craseoa lathetica	429.94	2682	http://search.mbari.org/ARCHIVE/frameGrabs/Ventana/images/2682/01_36_10_05.jpg	36.69816	-122.05978	20004658	0.68	2005-07-08 17:42:39.0	Ventana	34.293	01:36:10:05	6.457	V2682-02
identity-reference | self | 18	descend	Craseoa lathetica	429.77	2682	http://search.mbari.org/ARCHIVE/frameGrabs/Ventana/images/2682/01_36_44_05.jpg	36.69816	-122.05977	20004659	0.68	2005-07-08 17:43:15.0	Ventana	34.294	01:36:44:05	6.457	V2682-02
identity-reference | self | 18	descend	Craseoa lathetica	429.42	2682	http://search.mbari.org/ARCHIVE/frameGrabs/Ventana/images/2682/01_38_16_17.jpg	36.69819	-122.05975	20004669	0.68	2005-07-08 17:44:47.0	Ventana	34.291	01:38:16:17	6.465	V2682-02
identity-reference | self | 18	descend	Craseoa lathetica	429.53	2682	http://search.mbari.org/ARCHIVE/frameGrabs/Ventana/images/2682/01_38_07_02.jpg	36.69819	-122.05975	20004668	0.68	2005-07-08 17:44:37.0	Ventana	34.293	01:38:07:02	6.462	V2682-02
identity-reference | self | 18	descend	Craseoa lathetica	429.78	2682	http://search.mbari.org/ARCHIVE/frameGrabs/Ventana/images/2682/01_36_47_19.jpg	36.69816	-122.05977	20004660	0.68	2005-07-08 17:43:17.0	Ventana	34.294	01:36:47:19	6.457	V2682-02
identity-reference | self | 18	descend	Craseoa lathetica	429.7	2682	http://search.mbari.org/ARCHIVE/frameGrabs/Ventana/images/2682/01_37_53_17.jpg	36.69818	-122.05975	20004667	0.68	2005-07-08 17:44:23.0	Ventana	34.293	01:37:53:17	6.462	V2682-02
identity-reference | self | 18	descend	Craseoa lathetica	429.88	2682	http://search.mbari.org/ARCHIVE/frameGrabs/Ventana/images/2682/01_36_53_19.jpg	36.698162	-122.05977	20004661	0.68	2005-07-08 17:43:23.0	Ventana	34.294	01:36:53:19	6.458	V2682-02
identity-reference | self | 18	descend	Craseoa lathetica	429.8	2682	http://search.mbari.org/ARCHIVE/frameGrabs/Ventana/images/2682/01_37_44_17.jpg	36.698177	-122.05975	20004666	0.68	2005-07-08 17:44:13.0	Ventana	34.292	01:37:44:17	6.459	V2682-02
identity-reference | self | 18	descend	Craseoa lathetica	429.75	2682	http://search.mbari.org/ARCHIVE/frameGrabs/Ventana/images/2682/01_37_33_18.jpg	36.698174	-122.05976	20004665	0.68	2005-07-08 17:44:03.0	Ventana	34.292	01:37:33:18	6.459	V2682-02
identity-reference | self | 19	descend	Kiyohimea	445.19	2682	http://search.mbari.org/ARCHIVE/frameGrabs/Ventana/images/2682/01_41_48_10.jpg	36.698334	-122.059654	20004671	0.58	2005-07-08 17:48:18.0	Ventana	34.316	01:41:48:10	6.339	V2682-02
identity-reference | self | 19	descend	Kiyohimea	445.68	2682	http://search.mbari.org/ARCHIVE/frameGrabs/Ventana/images/2682/01_42_01_10.jpg	36.69834	-122.05965	20004672	0.58	2005-07-08 17:48:32.0	Ventana	34.315	01:42:01:10	6.337	V2682-02
identity-reference | self | 19	descend	Kiyohimea	445.9	2682	http://search.mbari.org/ARCHIVE/frameGrabs/Ventana/images/2682/01_42_08_10.jpg	36.698345	-122.05965	20004673	0.58	2005-07-08 17:48:38.0	Ventana	34.317	01:42:08:10	6.329	V2682-02
identity-reference | self | 19	descend	Kiyohimea	445.52	2682	http://search.mbari.org/ARCHIVE/frameGrabs/Ventana/images/2682/01_42_23_24.jpg	36.698353	-122.05964	20004674	0.58	2005-07-08 17:48:54.0	Ventana	34.316	01:42:23:24	6.33	V2682-02
identity-reference | self | 19	descend	Kiyohimea	445.61	2682	http://search.mbari.org/ARCHIVE/frameGrabs/Ventana/images/2682/01_42_30_09.jpg	36.698353	-122.05963	20004675	0.58	2005-07-08 17:49:00.0	Ventana	34.316	01:42:30:09	6.33	V2682-02
identity-reference | self | 19	descend	Kiyohimea	445.53	2682	http://search.mbari.org/ARCHIVE/frameGrabs/Ventana/images/2682/01_42_40_23.jpg	36.698357	-122.05963	20004676	0.58	2005-07-08 17:49:10.0	Ventana	34.318	01:42:40:23	6.328	V2682-02
identity-reference | self | 19	descend	Kiyohimea	445.3	2682	http://search.mbari.org/ARCHIVE/frameGrabs/Ventana/images/2682/01_42_56_08.jpg	36.698357	-122.05962	20004677	0.58	2005-07-08 17:49:27.0	Ventana	34.316	01:42:56:08	6.327	V2682-02
identity-reference | self | 19	descend	Kiyohimea	445.48	2682	http://search.mbari.org/ARCHIVE/frameGrabs/Ventana/images/2682/01_44_45_20.jpg	36.6984	-122.05955	20004678	0.57	2005-07-08 17:51:15.0	Ventana	34.315	01:44:45:20	6.326	V2682-02
identity-reference | self | 19	descend	Kiyohimea	445.84	2682	http://search.mbari.org/ARCHIVE/frameGrabs/Ventana/images/2682/01_44_51_20.jpg	36.698402	-122.05955	20004679	0.57	2005-07-08 17:51:21.0	Ventana	34.315	01:44:51:20	6.326	V2682-02
identity-reference | self | 19	descend	Kiyohimea	445.82	2682	http://search.mbari.org/ARCHIVE/frameGrabs/Ventana/images/2682/01_44_56_05.jpg	36.698406	-122.05955	20004680	0.57	2005-07-08 17:51:27.0	Ventana	34.315	01:44:56:05	6.324	V2682-02
identity-reference | self | 19	descend	Kiyohimea	445.89	2682	http://search.mbari.org/ARCHIVE/frameGrabs/Ventana/images/2682/01_45_05_19.jpg	36.698414	-122.05954	20004681	0.57	2005-07-08 17:51:35.0	Ventana	34.315	01:45:05:19	6.324	V2682-02
identity-reference | self | 19	descend	Kiyohimea	446.06	2682	http://search.mbari.org/ARCHIVE/frameGrabs/Ventana/images/2682/01_45_08_04.jpg	36.698418	-122.05954	20004682	0.57	2005-07-08 17:51:39.0	Ventana	34.316	01:45:08:04	6.326	V2682-02
identity-reference | self | 19	descend	Kiyohimea	446.14	2682	http://search.mbari.org/ARCHIVE/frameGrabs/Ventana/images/2682/01_45_13_19.jpg	36.698418	-122.05954	20004683	0.57	2005-07-08 17:51:43.0	Ventana	34.316	01:45:13:19	6.326	V2682-02
identity-reference | self | 19	descend	Kiyohimea	446.21	2682	http://search.mbari.org/ARCHIVE/frameGrabs/Ventana/images/2682/01_45_17_04.jpg	36.69842	-122.05954	20004684	0.57	2005-07-08 17:51:47.0	Ventana	34.316	01:45:17:04	6.326	V2682-02
identity-reference | self | 19	descend	Kiyohimea	446.22	2682	http://search.mbari.org/ARCHIVE/frameGrabs/Ventana/images/2682/01_45_20_04.jpg	36.698425	-122.05953	20004685	0.57	2005-07-08 17:51:51.0	Ventana	34.316	01:45:20:04	6.326	V2682-02
identity-reference | self | 19	descend	Kiyohimea	446.25	2682	http://search.mbari.org/ARCHIVE/frameGrabs/Ventana/images/2682/01_45_24_04.jpg	36.698425	-122.05953	20004686	0.57	2005-07-08 17:51:55.0	Ventana	34.316	01:45:24:04	6.326	V2682-02
identity-reference | self | 19	descend	Kiyohimea	446.26	2682	http://search.mbari.org/ARCHIVE/frameGrabs/Ventana/images/2682/01_45_27_19.jpg	36.698425	-122.05953	20004687	0.57	2005-07-08 17:51:57.0	Ventana	34.316	01:45:27:19	6.326	V2682-02
identity-reference | self | 19	descend	Kiyohimea	446.45	2682	http://search.mbari.org/ARCHIVE/frameGrabs/Ventana/images/2682/01_45_49_03.jpg	36.69844	-122.059525	20004688	0.57	2005-07-08 17:52:19.0	Ventana	34.315	01:45:49:03	6.325	V2682-02
identity-reference | self | 19	descend	Kiyohimea	446.05	2682	http://search.mbari.org/ARCHIVE/frameGrabs/Ventana/images/2682/01_46_09_02.jpg	36.69845	-122.059525	20004689	0.57	2005-07-08 17:52:40.0	Ventana	34.317	01:46:09:02	6.32	V2682-02
identity-reference | self | 19	descend	Kiyohimea	446.16	2682	http://search.mbari.org/ARCHIVE/frameGrabs/Ventana/images/2682/01_46_15_02.jpg	36.69845	-122.059525	20004690	0.57	2005-07-08 17:52:46.0	Ventana	34.317	01:46:15:02	6.32	V2682-02
identity-reference | self | 19	descend	Kiyohimea	446.17	2682	http://search.mbari.org/ARCHIVE/frameGrabs/Ventana/images/2682/01_46_19_17.jpg	36.698452	-122.059525	20004691	0.57	2005-07-08 17:52:50.0	Ventana	34.317	01:46:19:17	6.32	V2682-02
identity-reference | self | 19	descend	Kiyohimea	446.16	2682	http://search.mbari.org/ARCHIVE/frameGrabs/Ventana/images/2682/01_46_25_17.jpg	36.698452	-122.059525	20004692	0.57	2005-07-08 17:52:56.0	Ventana	34.318	01:46:25:17	6.319	V2682-02
identity-reference | self | 19	descend	Kiyohimea	446.29	2682	http://search.mbari.org/ARCHIVE/frameGrabs/Ventana/images/2682/01_46_32_17.jpg	36.698456	-122.059525	20004693	0.57	2005-07-08 17:53:04.0	Ventana	34.318	01:46:32:17	6.319	V2682-02
identity-reference | self | 19	descend	Kiyohimea	446.35	2682	http://search.mbari.org/ARCHIVE/frameGrabs/Ventana/images/2682/01_46_39_01.jpg	36.69846	-122.059525	20004694	0.57	2005-07-08 17:53:10.0	Ventana	34.316	01:46:39:01	6.321	V2682-02
identity-reference | self | 19	descend	Kiyohimea	446.31	2682	http://search.mbari.org/ARCHIVE/frameGrabs/Ventana/images/2682/01_46_44_01.jpg	36.69846	-122.059525	20004695	0.57	2005-07-08 17:53:14.0	Ventana	34.316	01:46:44:01	6.321	V2682-02
identity-reference | self | 19	descend	Kiyohimea	446.33	2682	http://search.mbari.org/ARCHIVE/frameGrabs/Ventana/images/2682/01_46_50_01.jpg	36.69846	-122.059525	20004696	0.57	2005-07-08 17:53:20.0	Ventana	34.316	01:46:50:01	6.321	V2682-02
identity-reference | self | 19	descend	Kiyohimea	446.26	2682	http://search.mbari.org/ARCHIVE/frameGrabs/Ventana/images/2682/01_47_02_16.jpg	36.698467	-122.059525	20004697	0.57	2005-07-08 17:53:34.0	Ventana	34.316	01:47:02:16	6.319	V2682-02
identity-reference | self | 19	descend	Kiyohimea	446.15	2682	http://search.mbari.org/ARCHIVE/frameGrabs/Ventana/images/2682/01_47_15_15.jpg	36.69847	-122.05952	20004698	0.57	2005-07-08 17:53:46.0	Ventana	34.317	01:47:15:15	6.316	V2682-02
identity-reference | self | 19	descend	Kiyohimea	446.13	2682	http://search.mbari.org/ARCHIVE/frameGrabs/Ventana/images/2682/01_47_28_00.jpg	36.698475	-122.05952	20004699	0.57	2005-07-08 17:53:58.0	Ventana	34.317	01:47:28:00	6.314	V2682-02
identity-reference | self | 19	descend	Kiyohimea	446.13	2682	http://search.mbari.org/ARCHIVE/frameGrabs/Ventana/images/2682/01_47_32_00.jpg	36.69848	-122.05952	20004700	0.57	2005-07-08 17:54:02.0	Ventana	34.317	01:47:32:00	6.314	V2682-02
identity-reference | self | 19	descend	Kiyohimea	446.09	2682	http://search.mbari.org/ARCHIVE/frameGrabs/Ventana/images/2682/01_47_35_15.jpg	36.69848	-122.05952	20004701	0.57	2005-07-08 17:54:06.0	Ventana	34.317	01:47:35:15	6.314	V2682-02
identity-reference | self | 19	descend	Kiyohimea	446.09	2682	http://search.mbari.org/ARCHIVE/frameGrabs/Ventana/images/2682/01_47_39_15.jpg	36.698483	-122.05952	20004702	0.57	2005-07-08 17:54:10.0	Ventana	34.315	01:47:39:15	6.317	V2682-02
identity-reference | self | 19	descend	Kiyohimea	446.08	2682	http://search.mbari.org/ARCHIVE/frameGrabs/Ventana/images/2682/01_47_44_00.jpg	36.698483	-122.05952	20004703	0.57	2005-07-08 17:54:14.0	Ventana	34.315	01:47:44:00	6.317	V2682-02
identity-reference | self | 20	descend	Apolemia	697.97	2682	http://search.mbari.org/ARCHIVE/frameGrabs/Ventana/images/2682/02_07_26_13.jpg	36.69864	-122.05999	20004705	0.29	2005-07-08 18:14:22.0	Ventana	34.427	02:07:26:13	5.071	V2682-03
identity-reference | self | 20	descend	Apolemia	698.06	2682	http://search.mbari.org/ARCHIVE/frameGrabs/Ventana/images/2682/02_08_02_27.jpg	36.69862	-122.05998	20004706	0.29	2005-07-08 18:14:58.0	Ventana	34.423	02:08:02:27	5.049	V2682-03
identity-reference | self | 20	descend	Apolemia	697.75	2682	http://search.mbari.org/ARCHIVE/frameGrabs/Ventana/images/2682/02_08_11_12.jpg	36.698616	-122.05998	20004707	0.29	2005-07-08 18:15:06.0	Ventana	34.423	02:08:11:12	5.049	V2682-03
identity-reference | self | 21	descend	Chuniphyes multidentata	705.85	2682	http://search.mbari.org/ARCHIVE/frameGrabs/Ventana/images/2682/02_09_30_25.jpg	36.6986	-122.05996	20004708	0.29	2005-07-08 18:16:27.0	Ventana	34.431	02:09:30:25	4.989	V2682-03
identity-reference | self | 21	descend	Chuniphyes multidentata	705.72	2682	http://search.mbari.org/ARCHIVE/frameGrabs/Ventana/images/2682/02_09_34_24.jpg	36.6986	-122.05996	20004709	0.29	2005-07-08 18:16:31.0	Ventana	34.431	02:09:34:24	4.989	V2682-03
identity-reference | self | 23	descend	Mysidae	716.6	2682	http://search.mbari.org/ARCHIVE/frameGrabs/Ventana/images/2682/02_11_08_06.jpg	36.698597	-122.059944	20004712	0.28	2005-07-08 18:18:03.0	Ventana	34.438	02:11:08:06	4.921	V2682-03
identity-reference | self | 23	descend	Mysidae	716.48	2682	http://search.mbari.org/ARCHIVE/frameGrabs/Ventana/images/2682/02_11_15_22.jpg	36.698593	-122.059944	20004713	0.28	2005-07-08 18:18:11.0	Ventana	34.439	02:11:15:22	4.918	V2682-03
identity-reference | self | 23	descend	Mysidae	716.41	2682	http://search.mbari.org/ARCHIVE/frameGrabs/Ventana/images/2682/02_11_20_21.jpg	36.698593	-122.059944	20004714	0.28	2005-07-08 18:18:17.0	Ventana	34.439	02:11:20:21	4.918	V2682-03
identity-reference | self | 24	descend	ink	723.63	2682	http://search.mbari.org/ARCHIVE/frameGrabs/Ventana/images/2682/02_17_21_10.jpg	36.69855	-122.05978	20004722	0.28	2005-07-08 18:24:17.0	Ventana	34.44	02:17:21:10	4.889	V2682-03
identity-reference | self | 24	descend	ink	723.61	2682	http://search.mbari.org/ARCHIVE/frameGrabs/Ventana/images/2682/02_17_31_25.jpg	36.698544	-122.05975	20004724	0.28	2005-07-08 18:24:27.0	Ventana	34.441	02:17:31:25	4.89	V2682-03
identity-reference | self | 26	descend	Cydippida 2	776.28	2682	http://search.mbari.org/ARCHIVE/frameGrabs/Ventana/images/2682/02_26_31_08.jpg	36.69837	-122.05977	20004737	0.3	2005-07-08 18:33:22.0	Ventana	34.458	02:26:31:08	4.687	V2682-03
identity-reference | self | 26	descend	Cydippida 2	776.89	2682	http://search.mbari.org/ARCHIVE/frameGrabs/Ventana/images/2682/02_26_43_08.jpg	36.698368	-122.05977	20004738	0.3	2005-07-08 18:33:40.0	Ventana	34.458	02:26:43:08	4.687	V2682-03
identity-reference | self | 26	descend	Cydippida 2	777.29	2682	http://search.mbari.org/ARCHIVE/frameGrabs/Ventana/images/2682/02_26_49_22.jpg	36.698368	-122.05977	20004739	0.3	2005-07-08 18:33:46.0	Ventana	34.458	02:26:49:22	4.687	V2682-03
identity-reference | self | 28	descend	Pseudothecosomata	835.93	2682	http://search.mbari.org/ARCHIVE/frameGrabs/Ventana/images/2682/02_39_16_14.jpg	36.69831	-122.05949	20004755	0.33	2005-07-08 18:46:14.0	Ventana	34.48	02:39:16:14	4.442	V2682-03
identity-reference | self | 28	descend	Pseudothecosomata	835.98	2682	http://search.mbari.org/ARCHIVE/frameGrabs/Ventana/images/2682/02_39_27_13.jpg	36.698303	-122.05949	20004756	0.33	2005-07-08 18:46:24.0	Ventana	34.48	02:39:27:13	4.442	V2682-03
identity-reference | self | 28	descend	Pseudothecosomata	836.02	2682	http://search.mbari.org/ARCHIVE/frameGrabs/Ventana/images/2682/02_39_31_14.jpg	36.6983	-122.05949	20004757	0.33	2005-07-08 18:46:30.0	Ventana	34.48	02:39:31:14	4.442	V2682-03
identity-reference | self | 28	descend	Pseudothecosomata	835.91	2682	http://search.mbari.org/ARCHIVE/frameGrabs/Ventana/images/2682/02_39_39_13.jpg	36.6983	-122.05948	20004758	0.33	2005-07-08 18:46:36.0	Ventana	34.48	02:39:39:13	4.442	V2682-03
identity-reference | self | 28	descend	Pseudothecosomata	836.02	2682	http://search.mbari.org/ARCHIVE/frameGrabs/Ventana/images/2682/02_39_48_13.jpg	36.698296	-122.05948	20004759	0.33	2005-07-08 18:46:46.0	Ventana	34.479	02:39:48:13	4.442	V2682-03
identity-reference | self | 29	descend	Pseudothecosomata	1039.52	2682	http://search.mbari.org/ARCHIVE/frameGrabs/Ventana/images/2682/02_56_13_28.jpg	36.69833	-122.05914	20004763	0.47	2005-07-08 19:03:13.0	Ventana	34.532	02:56:13:28	3.863	V2682-03
identity-reference | self | 30	descend	Phialidium	1183.0	2682	http://search.mbari.org/ARCHIVE/frameGrabs/Ventana/images/2682/03_07_44_27.jpg	36.698254	-122.05915	20004767	0.66	2005-07-08 19:15:06.0	Ventana	34.568	03:07:44:27	3.413	V2682-04
identity-reference | self | 32	descend	Appendicularia	1200.11	2682	http://search.mbari.org/ARCHIVE/frameGrabs/Ventana/images/2682/03_09_15_24.jpg	36.698288	-122.059105	20004770	0.68	2005-07-08 19:16:39.0	Ventana	34.573	03:09:15:24	3.368	V2682-04
identity-reference | self | 32	descend	Appendicularia	1199.78	2682	http://search.mbari.org/ARCHIVE/frameGrabs/Ventana/images/2682/03_09_47_23.jpg	36.698303	-122.059074	20004771	0.68	2005-07-08 19:17:11.0	Ventana	34.573	03:09:47:23	3.367	V2682-04
sampled-by | Suction Sampler | nil, sample-reference | self | 7, identity-reference | self | 33, sampled-by | Detritus Sampler | nil	descend	Bathocyroe	1197.15	2682	http://search.mbari.org/ARCHIVE/frameGrabs/Ventana/images/2682/03_18_38_22.jpg	36.698387	-122.05863	20004787	0.68	2005-07-08 19:26:02.0	Ventana	34.572	03:18:38:22	3.376	V2682-04
identity-reference | self | 33	descend	Bathocyroe	1198.69	2682	http://search.mbari.org/ARCHIVE/frameGrabs/Ventana/images/2682/03_14_24_15.jpg	36.698288	-122.05882	20004777	0.68	2005-07-08 19:21:46.0	Ventana	34.573	03:14:24:15	3.372	V2682-04
identity-reference | self | 33	descend	Bathocyroe	1198.94	2682	http://search.mbari.org/ARCHIVE/frameGrabs/Ventana/images/2682/03_14_59_29.jpg	36.698303	-122.058815	20004778	0.68	2005-07-08 19:22:22.0	Ventana	34.572	03:14:59:29	3.37	V2682-04
identity-reference | self | 33	descend	Bathocyroe	1198.93	2682	http://search.mbari.org/ARCHIVE/frameGrabs/Ventana/images/2682/03_15_03_14.jpg	36.698307	-122.058815	20004779	0.68	2005-07-08 19:22:27.0	Ventana	34.572	03:15:03:14	3.369	V2682-04
identity-reference | self | 33	descend	Bathocyroe	1199.3	2682	http://search.mbari.org/ARCHIVE/frameGrabs/Ventana/images/2682/03_15_19_28.jpg	36.698315	-122.05881	20004780	0.68	2005-07-08 19:22:43.0	Ventana	34.573	03:15:19:28	3.37	V2682-04
identity-reference | self | 33	descend	Bathocyroe	1197.85	2682	http://search.mbari.org/ARCHIVE/frameGrabs/Ventana/images/2682/03_17_15_24.jpg	36.698364	-122.05869	20004784	0.68	2005-07-08 19:24:40.0	Ventana	34.572	03:17:15:24	3.371	V2682-04
identity-reference | self | 33	descend	Bathocyroe	1197.85	2682	http://search.mbari.org/ARCHIVE/frameGrabs/Ventana/images/2682/03_17_18_24.jpg	36.698364	-122.05869	20004785	0.68	2005-07-08 19:24:41.0	Ventana	34.572	03:17:18:24	3.371	V2682-04
identity-reference | self | 34	descend	Nebalia	1196.64	2682	http://search.mbari.org/ARCHIVE/frameGrabs/Ventana/images/2682/03_22_12_00.jpg	36.698425	-122.05846	20004788	0.68	2005-07-08 19:29:35.0	Ventana	34.572	03:22:12:00	3.375	V2682-04
identity-reference | self | 34	descend	Nebalia	1196.51	2682	http://search.mbari.org/ARCHIVE/frameGrabs/Ventana/images/2682/03_22_18_00.jpg	36.698425	-122.05846	20004789	0.68	2005-07-08 19:29:41.0	Ventana	34.572	03:22:18:00	3.375	V2682-04
sampled-by | Suction Sampler | nil, sample-reference | self | 1, identity-reference | self | 36	descend	Caecosagitta macrocephala	1182.9	2682	http://search.mbari.org/ARCHIVE/frameGrabs/Ventana/images/2682/03_35_37_05.jpg	36.698242	-122.05788	20004793	0.66	2005-07-08 19:43:01.0	Ventana	34.568	03:35:37:05	3.419	V2682-04
identity-reference | self | 37	ascend	Aegina citrea	891.27	2682	http://search.mbari.org/ARCHIVE/frameGrabs/Ventana/images/2682/04_07_26_27.jpg	36.69827	-122.05841	20004816	0.34	2005-07-08 20:15:16.0	Ventana	34.495	04:07:26:27	4.295	V2682-05
identity-reference | self | 37	ascend	Aegina citrea	891.34	2682	http://search.mbari.org/ARCHIVE/frameGrabs/Ventana/images/2682/04_07_32_12.jpg	36.698277	-122.05841	20004817	0.34	2005-07-08 20:15:22.0	Ventana	34.495	04:07:32:12	4.295	V2682-05
sampled-by | Suction Sampler | nil, sample-reference | self | 2, identity-reference | self | 37	ascend	Aegina citrea	891.49	2682	http://search.mbari.org/ARCHIVE/frameGrabs/Ventana/images/2682/04_07_36_27.jpg	36.69828	-122.05841	20004818	0.34	2005-07-08 20:15:26.0	Ventana	34.494	04:07:36:27	4.292	V2682-05
identity-reference | self | 38	ascend	Bathylagus milleri	824.25	2682	http://search.mbari.org/ARCHIVE/frameGrabs/Ventana/images/2682/04_14_12_14.jpg	36.69865	-122.05867	20004820	0.33	2005-07-08 20:22:02.0	Ventana	34.478	04:14:12:14	4.46	V2682-05
identity-reference | self | 39	ascend	Bathylagus milleri	673.73	2682	http://search.mbari.org/ARCHIVE/frameGrabs/Ventana/images/2682/04_26_22_22.jpg	36.698902	-122.05956	20004823	0.28	2005-07-08 20:34:14.0	Ventana	34.411	04:26:22:22	5.177	V2682-05
identity-reference | self | 41	cruise	Bargmannia	600.4	2682	http://search.mbari.org/ARCHIVE/frameGrabs/Ventana/images/2682/04_44_13_04.jpg	36.69875	-122.06118	20004836	0.34	2005-07-08 20:52:05.0	Ventana	34.376	04:44:13:04	5.631	V2682-05
identity-reference | self | 41	cruise	Bargmannia	600.45	2682	http://search.mbari.org/ARCHIVE/frameGrabs/Ventana/images/2682/04_44_14_19.jpg	36.69875	-122.06119	20004837	0.34	2005-07-08 20:52:07.0	Ventana	34.376	04:44:14:19	5.631	V2682-05
identity-reference | self | 41	cruise	Bargmannia	600.5	2682	http://search.mbari.org/ARCHIVE/frameGrabs/Ventana/images/2682/04_44_17_19.jpg	36.69875	-122.06119	20004838	0.34	2005-07-08 20:52:09.0	Ventana	34.376	04:44:17:19	5.631	V2682-05
identity-reference | self | 41	cruise	Bargmannia	600.65	2682	http://search.mbari.org/ARCHIVE/frameGrabs/Ventana/images/2682/04_44_22_03.jpg	36.698746	-122.061195	20004839	0.34	2005-07-08 20:52:13.0	Ventana	34.376	04:44:22:03	5.631	V2682-05
identity-reference | self | 41	cruise	Bargmannia	600.97	2682	http://search.mbari.org/ARCHIVE/frameGrabs/Ventana/images/2682/04_44_30_03.jpg	36.698746	-122.06121	20004840	0.34	2005-07-08 20:52:22.0	Ventana	34.376	04:44:30:03	5.631	V2682-05
identity-reference | self | 41	cruise	Bargmannia	600.89	2682	http://search.mbari.org/ARCHIVE/frameGrabs/Ventana/images/2682/04_44_33_18.jpg	36.698746	-122.06122	20004841	0.34	2005-07-08 20:52:26.0	Ventana	34.375	04:44:33:18	5.631	V2682-05
identity-reference | self | 41	cruise	Bargmannia	600.93	2682	http://search.mbari.org/ARCHIVE/frameGrabs/Ventana/images/2682/04_44_43_03.jpg	36.698746	-122.06123	20004842	0.34	2005-07-08 20:52:36.0	Ventana	34.375	04:44:43:03	5.631	V2682-05
identity-reference | self | 41	cruise	Bargmannia	601.22	2682	http://search.mbari.org/ARCHIVE/frameGrabs/Ventana/images/2682/04_44_48_03.jpg	36.698746	-122.06125	20004843	0.34	2005-07-08 20:52:42.0	Ventana	34.375	04:44:48:03	5.633	V2682-05
identity-reference | self | 41	cruise	Bargmannia	601.78	2682	http://search.mbari.org/ARCHIVE/frameGrabs/Ventana/images/2682/04_45_18_02.jpg	36.698746	-122.06127	20004844	0.34	2005-07-08 20:53:10.0	Ventana	34.376	04:45:18:02	5.632	V2682-05
identity-reference | self | 41	cruise	Bargmannia	602.04	2682	http://search.mbari.org/ARCHIVE/frameGrabs/Ventana/images/2682/04_45_29_17.jpg	36.698746	-122.06128	20004846	0.34	2005-07-08 20:53:22.0	Ventana	34.376	04:45:29:17	5.632	V2682-05
identity-reference | self | 41	cruise	Bargmannia	602.15	2682	http://search.mbari.org/ARCHIVE/frameGrabs/Ventana/images/2682/04_45_33_02.jpg	36.698746	-122.06128	20004847	0.34	2005-07-08 20:53:26.0	Ventana	34.375	04:45:33:02	5.631	V2682-05
identity-reference | self | 41	cruise	Bargmannia	602.3	2682	http://search.mbari.org/ARCHIVE/frameGrabs/Ventana/images/2682/04_45_43_01.jpg	36.698742	-122.06128	20004848	0.34	2005-07-08 20:53:36.0	Ventana	34.375	04:45:43:01	5.631	V2682-05
identity-reference | self | 41	cruise	Bargmannia	602.37	2682	http://search.mbari.org/ARCHIVE/frameGrabs/Ventana/images/2682/04_45_53_16.jpg	36.69874	-122.06129	20004849	0.34	2005-07-08 20:53:46.0	Ventana	34.374	04:45:53:16	5.629	V2682-05
identity-reference | self | 41	cruise	Bargmannia	602.99	2682	http://search.mbari.org/ARCHIVE/frameGrabs/Ventana/images/2682/04_46_33_29.jpg	36.69872	-122.061325	20004850	0.34	2005-07-08 20:54:26.0	Ventana	34.376	04:46:33:29	5.629	V2682-05
identity-reference | self | 41	cruise	Bargmannia	602.97	2682	http://search.mbari.org/ARCHIVE/frameGrabs/Ventana/images/2682/04_46_42_29.jpg	36.69871	-122.06134	20004851	0.34	2005-07-08 20:54:36.0	Ventana	34.376	04:46:42:29	5.629	V2682-05
identity-reference | self | 41	cruise	Bargmannia	602.83	2682	http://search.mbari.org/ARCHIVE/frameGrabs/Ventana/images/2682/04_46_48_29.jpg	36.698708	-122.06135	20004852	0.34	2005-07-08 20:54:42.0	Ventana	34.375	04:46:48:29	5.632	V2682-05
identity-reference | self | 41	cruise	Bargmannia	602.78	2682	http://search.mbari.org/ARCHIVE/frameGrabs/Ventana/images/2682/04_46_52_14.jpg	36.698704	-122.061356	20004853	0.34	2005-07-08 20:54:46.0	Ventana	34.375	04:46:52:14	5.632	V2682-05
identity-reference | self | 41	cruise	Bargmannia	602.62	2682	http://search.mbari.org/ARCHIVE/frameGrabs/Ventana/images/2682/04_46_58_14.jpg	36.6987	-122.061356	20004854	0.34	2005-07-08 20:54:50.0	Ventana	34.375	04:46:58:14	5.632	V2682-05
identity-reference | self | 41	cruise	Bargmannia	602.18	2682	http://search.mbari.org/ARCHIVE/frameGrabs/Ventana/images/2682/04_47_12_13.jpg	36.69869	-122.06137	20004855	0.34	2005-07-08 20:55:04.0	Ventana	34.374	04:47:12:13	5.638	V2682-05
identity-reference | self | 41	cruise	Bargmannia	602.23	2682	http://search.mbari.org/ARCHIVE/frameGrabs/Ventana/images/2682/04_47_16_13.jpg	36.698685	-122.06138	20004856	0.34	2005-07-08 20:55:08.0	Ventana	34.375	04:47:16:13	5.642	V2682-05
sample-reference | self | 5, identity-reference | self | 42, sampled-by | Detritus Sampler | nil	cruise	Llyria	600.4	2682	http://search.mbari.org/ARCHIVE/frameGrabs/Ventana/images/2682/04_51_51_05.jpg	36.698574	-122.061844	20004860	0.34	2005-07-08 20:59:44.0	Ventana	34.373	04:51:51:05	5.654	V2682-05
identity-reference | self | 42	cruise	Llyria	600.42	2682	http://search.mbari.org/ARCHIVE/frameGrabs/Ventana/images/2682/04_51_16_06.jpg	36.698586	-122.06184	20004857	0.34	2005-07-08 20:59:10.0	Ventana	34.372	04:51:16:06	5.655	V2682-05
identity-reference | self | 42	cruise	Llyria	600.33	2682	http://search.mbari.org/ARCHIVE/frameGrabs/Ventana/images/2682/04_51_24_05.jpg	36.69858	-122.06184	20004858	0.34	2005-07-08 20:59:18.0	Ventana	34.372	04:51:24:05	5.655	V2682-05
identity-reference | self | 43	cruise	Bathocyroe	600.3	2682	http://search.mbari.org/ARCHIVE/frameGrabs/Ventana/images/2682/04_55_38_28.jpg	36.69854	-122.062096	20004861	0.34	2005-07-08 21:03:33.0	Ventana	34.375	04:55:38:28	5.642	V2682-05
identity-reference | self | 43	cruise	Bathocyroe	600.23	2682	http://search.mbari.org/ARCHIVE/frameGrabs/Ventana/images/2682/04_55_43_13.jpg	36.69854	-122.062096	20004862	0.34	2005-07-08 21:03:37.0	Ventana	34.375	04:55:43:13	5.642	V2682-05
identity-reference | self | 43	cruise	Bathocyroe	600.19	2682	http://search.mbari.org/ARCHIVE/frameGrabs/Ventana/images/2682/04_56_00_12.jpg	36.69853	-122.06211	20004863	0.35	2005-07-08 21:03:53.0	Ventana	34.372	04:56:00:12	5.664	V2682-05
identity-reference | self | 44	ascend	Modeeria rotunda	514.27	2682	http://search.mbari.org/ARCHIVE/frameGrabs/Ventana/images/2682/05_03_53_10.jpg	36.698315	-122.06308	20004866	0.47	2005-07-08 21:12:11.0	Ventana	34.339	05:03:53:10	6.11	V2682-06
identity-reference | self | 44	ascend	Modeeria rotunda	514.59	2682	http://search.mbari.org/ARCHIVE/frameGrabs/Ventana/images/2682/05_03_56_25.jpg	36.698322	-122.06309	20004867	0.47	2005-07-08 21:12:15.0	Ventana	34.339	05:03:56:25	6.11	V2682-06
identity-reference | self | 45	ascend	Lychnagalma	448.33	2682	http://search.mbari.org/ARCHIVE/frameGrabs/Ventana/images/2682/05_10_50_27.jpg	36.698147	-122.062805	20004868	0.71	2005-07-08 21:19:10.0	Ventana	34.282	05:10:50:27	6.484	V2682-06
sampled-by | Suction Sampler | nil, sample-reference | self | V2683-ss6	descend	Nanomia	163.01	2683	http://search.mbari.org/ARCHIVE/frameGrabs/Ventana/images/2683/00_16_35_11.jpg	36.70071	-122.05156	20004872	1.7	2005-07-11 16:28:53.47	Ventana	34.175	00:16:35:11	8.771	V2683-01
identity-reference | self | 1	descend	Bathochordaeus	161.22	2683	http://search.mbari.org/ARCHIVE/frameGrabs/Ventana/images/2683/00_23_50_13.jpg	36.700806	-122.051384	20004873	1.69	2005-07-11 16:36:09.0	Ventana	34.177	00:23:50:13	8.792	V2683-01
sampled-by | Detritus Sampler | nil, sample-reference | self | V2683-d2, identity-reference | self | 1	descend	Bathochordaeus	161.97	2683	http://search.mbari.org/ARCHIVE/frameGrabs/Ventana/images/2683/00_26_31_23.jpg	36.701008	-122.05138	20004874	1.69	2005-07-11 16:38:50.5	Ventana	34.177	00:26:31:23	8.792	V2683-01
sampled-by | Suction Sampler | nil, sample-reference | self | V2683-ss5, nil | nil | has a ctenophore (?) in manubrium	descend	Solmissus	190.43	2683	http://search.mbari.org/ARCHIVE/frameGrabs/Ventana/images/2683/00_30_59_29.jpg	36.701027	-122.05105	20004876	1.77	2005-07-11 16:43:19.0	Ventana	34.185	00:30:59:29	8.449	V2683-01
sampled-by | Suction Sampler | nil, sample-reference | self | V2683-ss4, identity-reference | self | 2	descend	Nanomia	465.42	2683	http://search.mbari.org/ARCHIVE/frameGrabs/Ventana/images/2683/00_58_42_07.jpg	36.70168	-122.04934	20004885	0.77	2005-07-11 17:11:03.46	Ventana	34.288	00:58:42:07	6.654	V2683-01
identity-reference | self | 3	descend	Chiroteuthis	479.35	2683	http://search.mbari.org/ARCHIVE/frameGrabs/Ventana/images/2683/01_06_00_27.jpg	36.70152	-122.04931	20004893	0.75	2005-07-11 17:21:52.98	Ventana	34.291	01:06:00:27	6.618	V2683-02
sampled-by | Suction Sampler | nil, sample-reference | self | V2683-ss3, identity-reference | self | 3	descend	Chiroteuthis	482.22	2683	http://search.mbari.org/ARCHIVE/frameGrabs/Ventana/images/2683/01_06_44_26.jpg	36.70152	-122.049324	20004894	0.73	2005-07-11 17:22:37.0	Ventana	34.295	01:06:44:26	6.565	V2683-02
sampled-by | Suction Sampler | nil, sample-reference | self | V2683-ss1, identity-reference | self | 5	descend	Solmissus	503.09	2683	http://search.mbari.org/ARCHIVE/frameGrabs/Ventana/images/2683/01_20_20_01.jpg	36.70146	-122.049126	20004907	0.68	2005-07-11 17:36:12.5	Ventana	34.304	01:20:20:01	6.467	V2683-02
sampled-by | Suction Sampler | nil, sample-reference | self | V2683-12, identity-reference | self | 6	descend	Atolla wyvillei	504.26	2683	http://search.mbari.org/ARCHIVE/frameGrabs/Ventana/images/2683/01_23_04_11.jpg	36.701466	-122.04917	20004908	0.68	2005-07-11 17:38:57.5	Ventana	34.305	01:23:04:11	6.469	V2683-02
sample-reference | self | V2683-d4, sampled-by | Detritus Sampler | nil	descend	Atolla wyvillei	909.44	2683	http://search.mbari.org/ARCHIVE/frameGrabs/Ventana/images/2683/02_32_43_23.jpg	36.703506	-122.04845	20004950	0.38	2005-07-11 18:52:20.0	Ventana	34.502	02:32:43:23	4.208	V2683-03
sampled-by | Suction Sampler | nil, sample-reference | self | V2683-ss11, identity-reference | self | 7	descend	Solmissus	1008.74	2683	http://search.mbari.org/ARCHIVE/frameGrabs/Ventana/images/2683/02_57_39_23.jpg	36.704044	-122.05	20004976	0.44	2005-07-11 19:17:18.01	Ventana	34.521	02:57:39:23	3.995	V2683-03
sampled-by | Suction Sampler | nil, identity-certainty | self | maybe, sample-reference | self | V2683-ss7	ascend	Voragonema	1054.32	2683	http://search.mbari.org/ARCHIVE/frameGrabs/Ventana/images/2683/04_22_05_18.jpg	36.70753	-122.04917	20005018	0.52	2005-07-11 20:47:45.5	Ventana	34.536	04:22:05:18	3.824	V2683-04
sampled-by | manipulator | nil, sample-reference | self | V2690-A1	cruise	bone	381.58	2690	http://search.mbari.org/ARCHIVE/frameGrabs/Ventana/images/2690/01_24_10_10.jpg	36.790104	-121.8872	20005450	0.95	2005-07-18 20:09:04.0	Ventana	34.266	01:24:10:10	6.985	V2690-01
sampled-by | Suction Sampler | nil, sample-reference | self | SS-12, identity-reference | self | 1	descend	Nanomia	173.88	2693	http://search.mbari.org/ARCHIVE/frameGrabs/Ventana/images/2693/00_44_16_09.jpg	36.696125	-122.058044	20005468	1.95	2005-07-25 18:03:45.0	Ventana	34.142	00:44:16:09	8.901	V2693-01
sampled-by | Suction Sampler | nil, sample-reference | self | SS-11	descend	Nanomia	173.92	2693	http://search.mbari.org/ARCHIVE/frameGrabs/Ventana/images/2693/00_45_19_07.jpg	36.696095	-122.05805	20005469	1.95	2005-07-25 18:04:48.46	Ventana	34.142	00:45:19:07	8.901	V2693-01
sampled-by | Suction Sampler | nil, sample-reference | self | SS-10	descend	Hormiphora	177.28	2693	http://search.mbari.org/ARCHIVE/frameGrabs/Ventana/images/2693/00_47_12_19.jpg	36.69609	-122.05815	20005470	1.94	2005-07-25 18:06:41.5	Ventana	34.145	00:47:12:19	8.893	V2693-01
sampled-by | Suction Sampler | nil, sample-reference | self | SS-10	descend	Hormiphora	178.22	2693	 	36.69609	-122.058136	20005471	1.92	2005-07-25 18:08:24.5	Ventana	34.152	00:48:55:01	8.88	V2693-01
sampled-by | Suction Sampler | nil, sample-reference | self | ss-10	descend	Hormiphora	179.02	2693	 	36.6961	-122.05816	20005472	1.91	2005-07-25 18:09:55.5	Ventana	34.161	00:50:26:13	8.854	V2693-01
sampled-by | Detritus Sampler | nil, sample-reference | self | V2693-d1	descend	Solmissus	372.76	2693	http://search.mbari.org/ARCHIVE/frameGrabs/Ventana/images/2693/02_51_12_19.jpg	36.696484	-122.06037	20005476	1.19	2005-07-25 20:11:38.81	Ventana	34.229	02:51:12:19	7.152	V2693-03
 	ascend	Appendicularia	342.89	2693	 	36.693172	-122.06138	1758950	1.25	2005-07-25 21:11:06.0	Ventana	34.239	03:35:39:05	7.412	V2693-04
 	transect	Mesomyaria	800.47	2674	 	36.751072	-122.21786	1803534	0.35	2005-06-08 18:57:34.0	Ventana	34.49	01:41:36:21	4.359	V2674-02
 	transect	Euplexaura	 	2687	 	 	 	1810151	 	2005-07-13 19:01:00.0	Ventana	 	02:26:44:24	 	V2687-03
 	transect	Mesomyaria	1000.34	2669	 	36.73153	-122.24259	1694515	0.4	2005-05-25 19:42:24.0	Ventana	34.511	02:04:21:13	4.084	V2669-02
 	cruise	Sebastolobus	436.0	2676	 	36.803352	-122.02925	1676399	0.63	2005-06-14 16:40:45.0	Ventana	34.316	00:24:53:18	6.372	V2676-01
 	transect	Agalma	200.45	2681	 	36.698414	-122.05349	2491439	1.68	2005-07-07 17:14:13.0	Ventana	34.2	00:45:21:01	8.341	V2681-01HD
 	ascend	Euphausiacea	261.59	2681	 	36.699436	-122.05457	1718542	1.42	2005-07-07 21:11:56.833	Ventana	34.232	04:40:16:16	7.938	V2681-05
 	transect	Euplexaura	 	2687	 	 	 	1807710	 	2005-07-13 17:23:55.0	Ventana	 	00:50:47:21	 	V2687-01
 	cruise	rockwall	104.55	2676	http://search.mbari.org/ARCHIVE/frameGrabs/Ventana/images/2676/02_34_34_14.jpg	36.808414	-122.03726	1677105	1.97	2005-06-14 18:55:51.0	Ventana	34.151	02:34:34:14	8.468	V2676-03
 	descend	Appendicularia	309.1	2683	 	36.701107	-122.05014	1756509	1.25	2005-07-11 16:54:12.0	Ventana	34.24	00:41:51:24	7.64	V2683-01
 	transect	Phyllospadix	800.91	2674	 	36.75175	-122.21119	1801093	0.35	2005-06-08 18:24:50.0	Ventana	34.489	01:08:54:19	4.342	V2674-02
 	transect	Mesomyaria	999.41	2669	 	36.731003	-122.232285	1683722	0.45	2005-05-25 18:31:14.0	Ventana	34.522	00:53:40:12	3.919	V2669-01
 	descend	Appendicularia	316.18	2681	 	36.695637	-122.05127	1713660	1.17	2005-07-07 17:30:25.2	Ventana	34.237	01:01:32:16	7.29	V2681-01
 	transect	Calliostoma platinum	 	2687	 	 	 	1807004	 	2005-07-13 16:54:24.0	Ventana	 	00:21:18:22	 	V2687-01
 	ascend	sinker	645.83	2683	 	36.70518	-122.04999	1757921	0.27	2005-07-11 21:09:24.0	Ventana	34.408	04:42:16:05	5.26	V2683-05
 	transect	Psolus squamatus	399.84	2687	http://search.mbari.org/ARCHIVE/frameGrabs/Ventana/images/2687/01_02_17_21.jpg	36.788036	-122.12153	1809122	1.13	2005-07-13 17:35:55.0	Ventana	34.244	01:02:17:21	7.27	V2687-02
 	transect	molt	100.5	2681	 	36.699825	-122.05429	2489704	2.13	2005-07-07 16:48:17.0	Ventana	34.067	00:19:25:27	9.15	V2681-01HD
 	cruise	rock outcrop	350.39	2688	 	36.807728	-122.02002	1677811	1.16	2005-07-14 18:04:41.0	Ventana	34.236	01:50:23:22	7.396	V2688-02
 	descend	Euphausia 2	202.65	2682	 	36.699894	-122.06072	1719954	1.91	2005-07-08 16:20:51.73	Ventana	34.166	00:14:56:09	8.016	V2682-01
 	transect	Chionoecetes tanneri	603.17	2680	 	36.788887	-122.23247	1805975	0.35	2005-06-27 20:04:41.0	Ventana	34.379	02:43:19:01	5.588	V2680-03
 	cruise	Neptunea	1215.28	2683	http://search.mbari.org/ARCHIVE/frameGrabs/Ventana/images/2683/03_44_37_13.jpg	36.70649	-122.04763	20005005	0.73	2005-07-11 20:10:14.64	Ventana	34.575	03:44:37:13	3.333	V2683-04
 	ascend	Nanomia	258.17	2681	 	36.697838	-122.05522	1719571	 	2005-07-07 21:29:59.0	Ventana	 	05:14:56:23	 	V2681-05
 	transect	Phyllospadix	800.42	2674	 	36.752098	-122.20851	1800770	0.35	2005-06-08 18:12:04.0	Ventana	34.491	00:56:35:10	4.326	V2674-01
 	cruise	Merluccius productus	499.85	2695	 	36.783962	-122.199715	1824414	0.89	2005-07-28 17:02:13.0	Ventana	34.264	00:08:35:01	6.712	V2695-01
 	transect	Copepoda	700.63	2681	 	36.696495	-122.052414	2497733	0.28	2005-07-07 18:41:45.0	Ventana	34.434	02:11:27:11	4.959	V2681-03HD
 	transect	Mesomyaria	1000.01	2669	 	36.732594	-122.25042	1736981	0.41	2005-05-25 20:36:09.0	Ventana	34.509	02:57:38:09	4.07	V2669-03
 	descend	Poeobius meseres	369.98	2693	 	36.696175	-122.06091	1758627	1.2	2005-07-25 20:21:03.0	Ventana	34.233	03:00:35:16	7.16	V2693-03
 	transect	Nanomia bijuga	200.41	2681	 	36.6983	-122.05336	2491116	1.69	2005-07-07 17:12:00.0	Ventana	34.198	00:43:08:22	8.337	V2681-01HD
 	cruise	LRJ Complex	547.1	2688	 	36.79774	-122.0199	1677428	0.59	2005-07-14 16:59:20.0	Ventana	34.33	00:45:37:28	6.172	V2688-01
 	descend	Cyclothone	988.87	2682	 	36.69833	-122.05923	1722012	0.43	2005-07-08 18:57:59.0	Ventana	34.52	02:51:01:02	4.002	V2682-03
 	descend	Copepoda	502.43	2683	 	36.701466	-122.04913	1756832	0.68	2005-07-11 17:37:06.0	Ventana	34.306	01:21:12:24	6.463	V2683-02
 	transect	Ophiuroidea	998.44	2669	 	36.73111	-122.2307	1683399	0.45	2005-05-25 18:20:01.0	Ventana	34.521	00:42:27:15	3.912	V2669-01
 	ascend	Chuniphyes	762.54	2681	 	36.69868	-122.056	1717513	0.29	2005-07-07 20:11:22.467	Ventana	34.45	03:40:23:25	4.797	V2681-04
 	transect	Sergestes similis	400.73	2681	 	36.697575	-122.053276	2493174	0.79	2005-07-07 17:48:43.0	Ventana	34.277	01:19:06:15	6.658	V2681-02HD
 	transect	Mesomyaria	999.56	2669	 	36.73136	-122.237625	1687515	0.44	2005-05-25 19:11:33.0	Ventana	34.52	01:33:32:05	3.949	V2669-02
 	descend	sinker	861.74	2681	 	36.69696	-122.05319	1716484	0.33	2005-07-07 19:04:51.133	Ventana	34.49	02:34:33:12	4.323	V2681-03
 	transect	Mesomyaria	999.46	2669	 	36.731274	-122.23588	1684428	0.44	2005-05-25 18:56:36.0	Ventana	34.52	01:18:36:02	3.932	V2669-02
 	transect	Mediaster	 	2687	 	 	 	1812592	 	2005-07-13 20:46:28.0	Ventana	 	04:10:58:26	 	V2687-05
 	transect	Mesomyaria	 	2669	 	 	 	1737687	 	2005-05-25 13:57:06.0	Ventana	 	03:17:54:09	 	V2669-04
 	transect	Mesomyaria	998.28	2669	 	36.731026	-122.23031	1651283	0.45	2005-05-25 18:16:53.0	Ventana	34.522	00:39:19:23	3.911	V2669-01
 	cruise	Macrouridae	1219.46	2683	 	36.706276	-122.04766	1757598	0.72	2005-07-11 20:03:51.0	Ventana	34.572	03:38:13:05	3.354	V2683-04
 	transect	Nanomia bijuga	200.43	2681	 	36.69828	-122.05329	2490087	1.7	2005-07-07 17:04:38.0	Ventana	34.197	00:35:45:26	8.36	V2681-01HD
 	ascend	Appendicularia	315.69	2681	 	36.69967	-122.05527	1718159	1.25	2005-07-07 20:57:46.917	Ventana	34.232	04:26:07:00	7.457	V2681-05
 	transect	Mesomyaria	1000.17	2669	 	36.731163	-122.24037	1689250	0.41	2005-05-25 19:29:46.0	Ventana	34.51	01:51:44:01	4.063	V2669-02
 	descend	Pantachogon	1183.31	2682	 	36.69825	-122.05786	1722335	0.66	2005-07-08 19:40:44.0	Ventana	34.569	03:33:20:22	3.413	V2682-04
 	stationary	Appendicularia	504.13	2695	 	36.784546	-122.20048	1824474	0.67	2005-07-28 18:33:23.0	Ventana	34.295	01:21:39:26	6.285	V2695-02
 	cruise	Laminariales	106.9	2688	 	36.813625	-122.01828	1679223	1.97	2005-07-14 19:32:00.0	Ventana	34.093	03:16:47:27	8.917	V2688-04
 	transect	Mesomyaria	1000.79	2669	 	36.73228	-122.24915	1736275	0.41	2005-05-25 20:26:51.0	Ventana	34.51	02:48:18:18	4.065	V2669-03
 	transect	Mesomyaria	999.73	2669	 	36.73055	-122.22895	1651020	0.45	2005-05-25 18:06:18.0	Ventana	34.523	00:28:46:04	3.905	V2669-01
 	transect	Rathbunaster californicus	203.71	2696	 	36.805264	-122.128204	1813681	1.48	2005-08-01 18:14:47.0	Ventana	34.213	01:42:39:01	8.63	V2696-02
 	transect	Psolus squamatus	399.87	2687	 	36.78804	-122.12149	1809062	1.14	2005-07-13 17:35:39.0	Ventana	34.237	01:02:01:22	7.276	V2687-02
 	transect	Sebastes diploproa	400.3	2687	 	36.788994	-122.12384	1809505	1.17	2005-07-13 18:09:47.0	Ventana	34.238	01:36:07:01	7.353	V2687-02
 	transect	Nanomia bijuga	200.44	2681	 	36.69828	-122.0533	2490793	1.72	2005-07-07 17:08:53.0	Ventana	34.193	00:40:00:11	8.323	V2681-01HD
 	ascend	Copepoda	782.45	2681	 	36.69886	-122.05642	1717453	0.28	2005-07-07 20:04:39.333	Ventana	34.458	03:33:41:03	4.712	V2681-04
 	cruise	Asteroidea	94.29	2688	 	36.8141	-122.01856	1679486	1.93	2005-07-14 21:13:07.0	Ventana	34.102	04:57:20:02	8.903	V2688-05
 	transect	molt	100.52	2681	 	36.69983	-122.05429	2489644	2.13	2005-07-07 16:46:56.0	Ventana	34.069	00:18:05:24	9.144	V2681-01HD
 	transect	Mediaster	 	2687	 	 	 	1812269	 	2005-07-13 20:30:17.0	Ventana	 	03:55:15:08	 	V2687-04
 	descend	Chaetognatha	1087.2	2682	 	36.69828	-122.059166	1722072	0.53	2005-07-08 19:06:16.0	Ventana	34.545	02:59:17:06	3.704	V2682-03
 	descend	Appendicularia	518.91	2683	 	36.701458	-122.04915	1756892	0.6	2005-07-11 17:41:14.0	Ventana	34.311	01:25:19:27	6.323	V2683-02
 	transect	Neptunea amianta	799.96	2674	 	36.752445	-122.20491	1799681	0.35	2005-06-08 17:54:02.0	Ventana	34.487	00:38:34:28	4.356	V2674-01
 	descend	Myctophidae	571.52	2682	 	36.698643	-122.05981	1720923	0.33	2005-07-08 18:06:32.0	Ventana	34.376	02:00:00:17	5.591	V2682-02
 	transect	Neptunea amianta	801.46	2674	 	36.750954	-122.21863	1803594	0.35	2005-06-08 19:00:52.0	Ventana	34.486	01:44:54:22	4.373	V2674-02
 	transect	Mesomyaria	1000.27	2669	 	36.7312	-122.24081	1689310	0.41	2005-05-25 19:32:31.0	Ventana	34.51	01:54:28:14	4.056	V2669-02
 	cruise	Macrouridae	1233.86	2683	 	36.705723	-122.04801	1757538	0.73	2005-07-11 19:49:26.0	Ventana	34.575	03:23:50:19	3.33	V2683-04
 	transect	Porifera sp. 1	 	2687	 	 	 	1810211	 	2005-07-13 19:09:23.0	Ventana	 	02:35:07:12	 	V2687-03
 	transect	Chionoecetes tanneri	602.01	2680	 	36.787315	-122.23172	1805915	0.36	2005-06-27 19:48:04.0	Ventana	34.378	02:26:42:23	5.594	V2680-03
 	transect	Psolus squamatus	 	2687	 	 	 	1812532	 	2005-07-13 20:44:19.0	Ventana	 	04:08:49:21	 	V2687-05
 	ascend	Bolinopsis	258.17	2681	 	36.697838	-122.05522	1719308	 	2005-07-07 21:29:59.0	Ventana	 	05:00:07:12	 	V2681-05
 	descend	Mertensiidae	371.08	2682	 	36.698456	-122.060005	1720660	0.96	2005-07-08 17:34:26.0	Ventana	34.262	01:27:57:09	7.006	V2682-02
 	transect	Henricia sanguinolenta	 	2687	 	 	 	1811180	 	2005-07-13 19:59:48.0	Ventana	 	03:24:48:10	 	V2687-04
 	transect	Appendicularia	600.55	2681	 	36.697254	-122.05303	2493820	0.3	2005-07-07 18:25:46.0	Ventana	34.388	01:56:07:16	5.469	V2681-02HD
 	descend	Nanomia	251.53	2681	 	36.698574	-122.053566	1713600	1.46	2005-07-07 17:16:09.467	Ventana	34.214	00:47:17:21	7.88	V2681-01
 	transect	Phyllospadix	198.03	2696	 	36.803596	-122.124176	1813238	1.54	2005-08-01 17:24:27.0	Ventana	34.202	00:52:44:23	8.611	V2696-01
 	transect	Nanomia bijuga	200.36	2681	 	36.69829	-122.05333	2491056	1.69	2005-07-07 17:11:14.0	Ventana	34.196	00:42:21:26	8.332	V2681-01HD
 	transect	Mesomyaria	999.94	2669	 	36.73097	-122.232574	1683782	0.45	2005-05-25 18:34:16.0	Ventana	34.521	00:56:42:17	3.912	V2669-01
 	starttransect	physical object	598.57	2680	 	36.78266	-122.227875	1805209	0.35	2005-06-27 18:58:08.0	Ventana	34.381	01:37:12:22	5.564	V2680-02
 	transect	Calliostoma platinum	 	2687	 	 	 	1810474	 	2005-07-13 19:19:23.0	Ventana	 	02:45:07:02	 	V2687-03
 	transect	Appendicularia	400.77	2681	 	36.697243	-122.05288	2493114	0.79	2005-07-07 17:47:16.0	Ventana	34.278	01:17:39:15	6.663	V2681-02HD
 	transect	Solmaris	500.56	2681	 	36.696957	-122.05255	2493557	0.44	2005-07-07 17:59:22.0	Ventana	34.344	01:29:45:28	6.025	V2681-02HD
 	transect	Ceriantharia sp. 2	997.45	2669	 	36.730618	-122.22757	1683339	0.45	2005-05-25 17:57:46.0	Ventana	34.521	00:20:14:26	3.909	V2669-01
 	transect	Sebastolobus	 	2687	 	 	 	1810917	 	2005-07-13 19:42:41.0	Ventana	 	03:07:42:11	 	V2687-04
 	ascend	Calycophorae	606.49	2682	 	36.69887	-122.059975	1723424	0.34	2005-07-08 20:39:06.0	Ventana	34.382	04:31:13:29	5.544	V2682-05
 	descend	sinker	174.22	2693	 	36.69609	-122.05808	1758244	1.95	2005-07-25 18:05:16.0	Ventana	34.142	00:45:47:15	8.905	V2693-01
 	transect	Mesomyaria	1000.2	2669	 	36.731667	-122.24379	1733954	0.41	2005-05-25 19:48:51.0	Ventana	34.509	02:10:22:28	4.064	V2669-03
 	descend	Aegina	1119.15	2683	 	36.705116	-122.048904	1757478	0.6	2005-07-11 19:30:59.0	Ventana	34.548	03:11:20:11	3.636	V2683-03
 	transect	Mediaster	 	2687	 	 	 	1811623	 	2005-07-13 20:17:52.0	Ventana	 	03:42:51:01	 	V2687-04
 	descend	sinker	127.19	2683	 	36.70056	-122.051636	1756246	2.11	2005-07-11 16:19:05.0	Ventana	34.071	00:06:47:17	9.057	V2683-01
 	transect	Appendicularia	901.06	2681	 	36.696163	-122.05218	2498319	0.39	2005-07-07 19:10:17.0	Ventana	34.505	02:39:58:16	4.172	V2681-03HD
 	cruise	Sebastes	284.36	2688	 	36.808956	-122.02035	1677871	1.41	2005-07-14 18:16:16.0	Ventana	34.212	02:01:57:11	7.943	V2688-02
 	descend	Myctophidae	608.14	2682	 	36.69863	-122.0598	1721246	0.3	2005-07-08 18:07:54.0	Ventana	34.393	02:00:59:20	5.398	V2682-03
 	transect	Gastropoda sp.2	 	2669	 	 	 	1737627	 	2005-05-25 13:53:47.0	Ventana	 	03:14:35:09	 	V2669-04
 	transect	Mesomyaria	999.44	2669	 	36.73133	-122.23592	1684488	0.44	2005-05-25 18:57:06.0	Ventana	34.52	01:19:05:22	3.936	V2669-02
 	transect	Mesomyaria	1000.18	2669	 	36.731766	-122.24493	1734480	0.4	2005-05-25 19:55:49.0	Ventana	34.508	02:17:19:07	4.072	V2669-03
 	transect	Psolus squamatus	 	2687	 	 	 	1812329	 	2005-07-13 20:32:27.0	Ventana	 	03:57:25:10	 	V2687-04
 	transect	Umbellula lindahli	598.26	2680	 	36.781475	-122.226585	1805006	0.36	2005-06-27 18:37:10.0	Ventana	34.378	01:16:15:13	5.596	V2680-02
 	transect	Phyllospadix	200.31	2696	 	36.805084	-122.127884	1813561	1.5	2005-08-01 17:59:49.0	Ventana	34.211	01:27:41:15	8.674	V2696-02
 	descend	Atolla wyvillei	911.32	2683	http://search.mbari.org/ARCHIVE/frameGrabs/Ventana/images/2683/02_30_21_13.jpg	36.70347	-122.04845	20004945	0.38	2005-07-11 18:49:57.5	Ventana	34.503	02:30:21:13	4.199	V2683-03
 	transect	Ophiuroidea	999.75	2669	 	36.73142	-122.23713	1687455	0.44	2005-05-25 19:07:48.0	Ventana	34.519	01:29:47:08	3.946	V2669-02
 	descend	Chuniphyes	546.75	2683	 	36.701653	-122.04916	1756952	0.47	2005-07-11 17:44:09.0	Ventana	34.33	01:28:15:27	6.098	V2683-02
 	transect	Xeneretmus	199.5	2696	 	36.804016	-122.12563	1813358	1.52	2005-08-01 17:39:08.0	Ventana	34.21	01:07:01:26	8.659	V2696-02
 	transect	Umbellula lindahli	599.16	2680	 	36.777695	-122.222694	1804300	0.36	2005-06-27 17:49:01.0	Ventana	34.378	00:29:08:00	5.586	V2680-01
 	descend	Lensia	263.71	2682	 	36.699795	-122.06083	1720014	1.36	2005-07-08 16:26:46.0	Ventana	34.227	00:20:50:17	7.8	V2682-01
 	transect	Chionoecetes tanneri	800.75	2674	 	36.752563	-122.201706	1799095	0.34	2005-06-08 17:37:04.0	Ventana	34.479	00:21:38:05	4.445	V2674-01
 	ascend	Salpida	525.09	2683	 	36.704475	-122.05065	1757981	0.47	2005-07-11 21:15:18.0	Ventana	34.338	04:48:09:21	6.129	V2683-05
 	descend	Chaetognatha	690.59	2682	 	36.69865	-122.05998	1721426	0.28	2005-07-08 18:13:36.0	Ventana	34.418	02:06:40:22	5.131	V2682-03
 	transect	Mesomyaria	1000.36	2669	 	36.731934	-122.24643	1735689	0.41	2005-05-25 20:07:53.0	Ventana	34.51	02:29:23:04	4.064	V2669-03
 	descend	Chuniphyes	456.31	2681	 	36.69809	-122.05388	1715335	0.53	2005-07-07 17:52:24.167	Ventana	34.319	01:22:47:02	6.171	V2681-02
 	transect	Brisaster	1000.05	2669	 	36.73253	-122.25019	1736921	0.41	2005-05-25 20:34:23.0	Ventana	34.51	02:55:50:28	4.067	V2669-03
 	ascend	Appendicularia	1083.25	2682	 	36.698055	-122.05753	1722658	0.56	2005-07-08 19:59:48.0	Ventana	34.55	03:52:22:01	3.641	V2682-04
 	transect	Mesomyaria	1000.27	2669	 	36.73158	-122.2431	1733774	0.41	2005-05-25 19:45:00.0	Ventana	34.507	02:06:31:19	4.072	V2669-03
 	transect	Nanomia bijuga	200.39	2681	 	36.698303	-122.05338	2491176	1.68	2005-07-07 17:12:30.0	Ventana	34.2	00:43:38:03	8.339	V2681-01HD
 	descend	Appendicularia	254.69	2683	 	36.700893	-122.05052	1756449	1.59	2005-07-11 16:50:55.0	Ventana	34.206	00:38:34:13	7.987	V2683-01
 	transect	Phyllospadix	1000.3	2669	http://search.mbari.org/ARCHIVE/frameGrabs/Ventana/images/2669/02_19_45_18.jpg	36.731842	-122.245224	1735366	0.4	2005-05-25 19:58:15.0	Ventana	34.506	02:19:45:18	4.099	V2669-03
 	transect	Psolus squamatus	 	2687	 	 	 	1807650	 	2005-07-13 17:20:18.0	Ventana	 	00:47:10:19	 	V2687-01
 	transect	Stomphia	999.99	2669	 	36.731102	-122.235306	1684308	0.45	2005-05-25 18:52:50.0	Ventana	34.522	01:14:49:29	3.921	V2669-02
 	transect	Phyllospadix	799.8	2674	 	36.752514	-122.20392	1799418	0.35	2005-06-08 17:48:38.0	Ventana	34.483	00:33:11:20	4.374	V2674-01
 	cruise	Pleuronectiformes	432.86	2688	 	36.805145	-122.0189	1677691	0.92	2005-07-14 17:44:44.0	Ventana	34.267	01:30:27:26	6.93	V2688-02
 	transect	Nanomia bijuga	200.43	2681	 	36.69828	-122.05329	2490147	1.7	2005-07-07 17:05:12.0	Ventana	34.197	00:36:20:00	8.358	V2681-01HD
 	descend	Appendicularia	900.46	2683	 	36.70353	-122.04831	1757275	0.38	2005-07-11 18:45:11.0	Ventana	34.5	02:25:35:03	4.22	V2683-03
 	transect	Phyllospadix	800.21	2674	 	36.7525	-122.20319	1799298	0.34	2005-06-08 17:44:40.0	Ventana	34.48	00:29:12:29	4.421	V2674-01
 	ascend	water	86.88	2696	 	36.807697	-122.131615	1813884	2.1	2005-08-01 18:54:04.0	Ventana	34.016	02:21:07:06	9.48	V2696-03
 	descend	Euphausiacea	149.28	2693	 	36.696312	-122.05773	1758184	1.94	2005-07-25 17:56:37.0	Ventana	34.112	00:37:09:22	9.003	V2693-01
 	transect	Pennatulacea sp.1	601.12	2680	 	36.776714	-122.22204	1804120	0.36	2005-06-27 17:37:37.0	Ventana	34.379	00:17:45:14	5.578	V2680-01
 	transect	Salpida	300.41	2681	 	36.69592	-122.05154	2492588	1.24	2005-07-07 17:28:51.0	Ventana	34.234	00:59:58:13	7.427	V2681-01HD
 	transect	Ceriantharia sp. 1	602.6	2680	 	36.79001	-122.23264	1806741	0.35	2005-06-27 20:15:50.0	Ventana	34.379	02:54:27:14	5.586	V2680-03
 	descend	Sergestes similis	804.34	2683	 	36.702667	-122.048775	1757155	0.36	2005-07-11 18:01:06.0	Ventana	34.463	01:45:11:05	4.615	V2683-02
 	transect	Nanomia bijuga	200.39	2681	 	36.698284	-122.053314	2490996	1.71	2005-07-07 17:10:33.0	Ventana	34.187	00:41:41:28	8.319	V2681-01HD
 	transect	Phyllospadix	802.02	2674	 	36.75225	-122.206955	1800004	0.37	2005-06-08 18:04:28.0	Ventana	34.49	00:49:00:18	4.341	V2674-01
 	transect	Phyllospadix	196.33	2696	 	36.802666	-122.12169	1813035	1.55	2005-08-01 16:58:40.0	Ventana	34.199	00:26:58:25	8.6	V2696-01
 	transect	Ceriantharia sp. 1	601.09	2680	 	36.786015	-122.230865	1805855	0.36	2005-06-27 19:33:59.0	Ventana	34.377	02:12:38:06	5.6	V2680-03
 	transect	Rathbunaster californicus	196.81	2696	 	36.803352	-122.12342	1813178	1.55	2005-08-01 17:15:39.0	Ventana	34.201	00:43:56:28	8.63	V2696-01
 	descend	Appendicularia	866.96	2682	 	36.69831	-122.05943	1721749	0.32	2005-07-08 18:49:05.0	Ventana	34.488	02:42:07:19	4.368	V2682-03
 	transect	Phyllospadix	1000.56	2669	 	36.732178	-122.24842	1736215	0.41	2005-05-25 20:21:51.0	Ventana	34.51	02:43:20:06	4.062	V2669-03
 	descend	Appendicularia	354.33	2683	 	36.701317	-122.049904	1756569	1.18	2005-07-11 16:56:46.0	Ventana	34.23	00:44:26:05	7.179	V2683-01
 	transect	Mesomyaria	999.94	2669	 	36.73065	-122.229355	1651080	0.45	2005-05-25 18:09:02.0	Ventana	34.522	00:31:29:29	3.905	V2669-01
 	transect	Euphausia	200.44	2681	 	36.69828	-122.0533	2490853	1.71	2005-07-07 17:09:15.0	Ventana	34.195	00:40:22:20	8.326	V2681-01HD
 	transect	Mesomyaria	802.1	2674	 	36.751804	-122.21067	1801033	0.35	2005-06-08 18:22:48.0	Ventana	34.488	01:06:52:24	4.328	V2674-02
 	ascend	Copepoda	942.9	2681	 	36.69749	-122.05394	1716927	0.41	2005-07-07 19:42:08.133	Ventana	34.514	03:11:11:24	4.071	V2681-04
 	descend	Cydippida	522.61	2682	 	36.698597	-122.059784	1720863	0.39	2005-07-08 18:02:00.0	Ventana	34.358	01:55:29:26	5.861	V2682-02
 	ascend	Crustacea	603.29	2682	 	36.69862	-122.06176	1723544	0.33	2005-07-08 20:58:01.0	Ventana	34.378	04:50:08:01	5.632	V2682-05
 	transect	Gastropoda sp.2	999.65	2669	 	36.731007	-122.23385	1694635	0.45	2005-05-25 18:40:54.0	Ventana	34.522	01:02:55:09	3.913	V2669-02
 	transect	Chionoecetes tanneri	798.74	2674	 	36.751743	-122.21252	1801213	0.35	2005-06-08 18:29:55.0	Ventana	34.49	01:13:59:02	4.337	V2674-02
 	cruise	Stylasterias	111.81	2688	 	36.811317	-122.02257	1678014	1.95	2005-07-14 18:45:49.4	Ventana	34.095	02:31:04:17	8.9	V2688-03
 	ascend	Appendicularia	723.42	2683	 	36.70602	-122.04871	1757861	0.29	2005-07-11 21:04:45.0	Ventana	34.454	04:37:38:19	4.726	V2683-05
 	descend	Appendicularia	361.38	2682	 	36.69858	-122.06039	1720337	1.0	2005-07-08 17:22:35.0	Ventana	34.255	01:16:07:06	7.079	V2682-02
 	ascend	Appendicularia	305.2	2693	 	36.6915	-122.06208	1759070	1.31	2005-07-25 21:19:12.0	Ventana	34.238	03:43:44:05	7.686	V2693-04
 	transect	Mediaster	 	2687	 	 	 	1811766	 	2005-07-13 20:24:48.0	Ventana	 	03:49:47:00	 	V2687-04
 	transect	Phyllospadix	997.19	2669	 	36.730625	-122.228004	1649285	0.45	2005-05-25 18:00:37.0	Ventana	34.522	00:23:05:11	3.906	V2669-01
 	descend	Chuniphyes	719.55	2681	 	36.69495	-122.0506	1716221	0.28	2005-07-07 18:49:21.633	Ventana	34.436	02:19:05:11	4.892	V2681-03
 	descend	Appendicularia	324.91	2682	 	36.698895	-122.06068	1720157	1.12	2005-07-08 17:08:02.0	Ventana	34.242	01:01:33:26	7.249	V2682-02
 	transect	Poeobius meseres	1000.94	2681	 	36.696465	-122.052826	2498702	0.47	2005-07-07 19:29:43.0	Ventana	34.531	02:59:23:13	3.877	V2681-03HD
 	transect	Pennatulacea sp.1	599.54	2680	 	36.778866	-122.224045	1804443	0.36	2005-06-27 18:04:22.0	Ventana	34.38	00:44:28:21	5.59	V2680-01
 	cruise	Parastichopus	227.9	2676	 	36.806023	-122.029305	1676782	1.58	2005-06-14 17:40:06.0	Ventana	34.203	01:19:50:11	8.06	V2676-02
 	transect	Mediaster	 	2687	 	 	 	1812472	 	2005-07-13 20:40:44.0	Ventana	 	04:05:41:15	 	V2687-04
 	transect	Phyllospadix	204.0	2696	 	36.806183	-122.12977	1813741	1.49	2005-08-01 18:23:50.0	Ventana	34.207	01:51:41:19	8.636	V2696-02
 	ascend	Cydippida	259.86	2682	 	36.696827	-122.06112	1723747	1.37	2005-07-08 21:28:44.0	Ventana	34.237	05:20:25:18	7.879	V2682-06
 	descend	Hastigerinella digitata	338.06	2693	 	36.697117	-122.05997	1758567	1.29	2005-07-25 19:58:06.0	Ventana	34.235	02:37:40:26	7.582	V2693-03
 	transect	Phyllospadix	801.06	2674	 	36.75214	-122.20813	1800710	0.35	2005-06-08 18:10:18.0	Ventana	34.491	00:54:49:27	4.331	V2674-01
 	descend	Crustacea	1113.72	2682	 	36.698215	-122.05919	1722132	0.57	2005-07-08 19:11:45.0	Ventana	34.553	03:04:23:24	3.612	V2682-04
 	transect	Euphausia	200.35	2681	 	36.69835	-122.05345	2491379	1.67	2005-07-07 17:13:50.0	Ventana	34.201	00:44:58:17	8.341	V2681-01HD
 	cruise	Poralia rufescens	1209.18	2683	 	36.706837	-122.047615	1757658	0.72	2005-07-11 20:13:40.0	Ventana	34.573	03:48:02:13	3.349	V2683-04
 	transect	Mediaster	 	2687	 	 	 	1808739	 	2005-07-13 17:28:02.0	Ventana	 	00:54:54:14	 	V2687-01
 	transect	Poeobius meseres	600.66	2681	 	36.69585	-122.051384	2493677	0.3	2005-07-07 18:19:22.0	Ventana	34.387	01:49:44:00	5.496	V2681-02HD
 	cruise	Sebastolobus	618.3	2688	 	36.79463	-122.01936	1677308	0.43	2005-07-14 16:30:34.0	Ventana	34.398	00:16:54:12	5.35	V2688-01
 	transect	Mesomyaria	1000.07	2669	 	36.731747	-122.24434	1734277	0.4	2005-05-25 19:51:57.0	Ventana	34.509	02:13:29:21	4.083	V2669-03
 	transect	Mediaster	 	2687	 	 	 	1807124	 	2005-07-13 17:00:54.0	Ventana	 	00:27:47:26	 	V2687-01
 	transect	Leptomedusae	100.51	2681	 	36.69976	-122.05425	2489764	2.12	2005-07-07 16:50:01.0	Ventana	34.067	00:21:10:01	9.159	V2681-01HD
 	ascend	Calycophorae	258.17	2681	 	36.697838	-122.05522	1719451	 	2005-07-07 21:29:59.0	Ventana	 	05:05:35:24	 	V2681-05
 	transect	Mesomyaria	799.02	2674	 	36.75133	-122.21532	1801416	0.35	2005-06-08 18:45:14.0	Ventana	34.488	01:29:17:05	4.349	V2674-02
 	transect	Porifera sp. 1	 	2687	 	 	 	1812652	 	2005-07-13 20:49:55.0	Ventana	 	04:14:25:05	 	V2687-05
 	transect	Mesomyaria	998.71	2669	 	36.73286	-122.25204	1737304	0.4	2005-05-25 20:45:10.0	Ventana	34.509	03:05:58:29	4.074	V2669-04
 	transect	molt	100.55	2681	 	36.69983	-122.05429	2489584	2.12	2005-07-07 16:45:28.0	Ventana	34.068	00:16:37:25	9.151	V2681-01HD
 	transect	Mesomyaria	998.1	2669	 	36.733006	-122.25276	1737484	0.4	2005-05-25 20:49:23.0	Ventana	34.508	03:10:11:02	4.075	V2669-04
 	transect	Psolus squamatus	 	2687	 	 	 	1811060	 	2005-07-13 19:50:05.0	Ventana	 	03:15:06:20	 	V2687-04
 	transect	Mesomyaria	997.6	2669	 	36.7306	-122.22716	1649105	0.45	2005-05-25 17:55:05.0	Ventana	34.522	00:17:33:18	3.909	V2669-01
 	ascend	Mitrocoma	263.88	2681	 	36.698967	-122.05618	1718745	1.42	2005-07-07 21:17:30.933	Ventana	34.232	04:45:49:24	7.941	V2681-05
 	ascend	Nanomia	124.54	2693	 	36.690804	-122.062935	1759273	2.06	2005-07-25 21:32:44.0	Ventana	34.073	03:57:15:08	9.144	V2693-04
 	transect	Nanomia bijuga	400.81	2681	 	36.696163	-122.05163	2492971	0.79	2005-07-07 17:42:41.0	Ventana	34.276	01:13:05:23	6.657	V2681-02HD
 	descend	Appendicularia	482.1	2683	 	36.70152	-122.049324	1756772	0.73	2005-07-11 17:22:36.0	Ventana	34.293	01:06:44:07	6.577	V2683-02
 	cruise	rock outcrop	97.07	2688	http://search.mbari.org/ARCHIVE/frameGrabs/Ventana/images/2688/05_15_00_10.jpg	36.813004	-122.02125	20005328	1.92	2005-07-14 21:30:48.0	Ventana	34.11	05:15:00:10	8.874	V2688-05
 	transect	Phyllospadix	1000.3	2669	 	36.731457	-122.24207	1694455	0.4	2005-05-25 19:39:52.0	Ventana	34.509	02:01:49:04	4.076	V2669-02
 	transect	Phyllospadix	800.99	2674	 	36.75239	-122.205536	1799801	0.36	2005-06-08 17:57:24.0	Ventana	34.486	00:41:57:02	4.35	V2674-01
 	transect	Mesomyaria	999.8	2669	 	36.731743	-122.24405	1734097	0.41	2005-05-25 19:50:31.0	Ventana	34.51	02:12:01:14	4.074	V2669-03
 	transect	Brisaster	598.91	2680	 	36.78024	-122.22527	1804623	0.35	2005-06-27 18:20:28.0	Ventana	34.379	01:00:33:07	5.572	V2680-01
 	cruise	Pleuronectiformes	460.22	2688	 	36.802937	-122.018166	1677608	0.87	2005-07-14 17:32:44.0	Ventana	34.276	01:18:28:07	6.839	V2688-02
 	transect	Psolus squamatus	 	2687	 	 	 	1808942	 	2005-07-13 17:32:26.0	Ventana	 	00:59:18:24	 	V2687-01
 	transect	Mediaster	 	2687	 	 	 	1811383	 	2005-07-13 20:10:26.0	Ventana	 	03:35:25:06	 	V2687-04
 	transect	Umbellula lindahli	598.54	2680	 	36.780525	-122.22551	1804766	0.35	2005-06-27 18:24:25.0	Ventana	34.382	01:03:31:10	5.548	V2680-02
 	transect	Gastropoda	203.26	2696	 	36.806698	-122.13028	1813801	1.48	2005-08-01 18:32:31.0	Ventana	34.212	02:00:22:03	8.62	V2696-02
 	ascend	Copepoda	879.13	2681	 	36.698284	-122.05524	1717333	0.36	2005-07-07 19:51:33.1	Ventana	34.507	03:20:35:21	4.266	V2681-04
 	transect	Lycenchelys camchatica	802.35	2674	 	36.752323	-122.20587	1799861	0.36	2005-06-08 17:59:34.0	Ventana	34.488	00:44:06:13	4.336	V2674-01
 	transect	Nanomia bijuga	200.4	2681	 	36.698284	-122.05331	2490913	1.7	2005-07-07 17:09:45.0	Ventana	34.189	00:40:52:16	8.321	V2681-01HD
 	transect	Mesomyaria	999.43	2669	 	36.7327	-122.25122	1737184	0.41	2005-05-25 20:40:18.0	Ventana	34.509	03:01:06:21	4.072	V2669-04
 	transect	Phyllospadix	196.31	2696	 	36.803066	-122.122635	1813095	1.56	2005-08-01 17:06:28.0	Ventana	34.198	00:34:46:22	8.621	V2696-01
 	transect	Microstomus pacificus	998.83	2669	 	36.73083	-122.22959	1651140	0.45	2005-05-25 18:11:33.0	Ventana	34.522	00:34:00:09	3.906	V2669-01
 	transect	Mesomyaria	999.88	2669	 	36.731094	-122.23912	1689107	0.43	2005-05-25 19:22:06.0	Ventana	34.518	01:44:04:26	3.97	V2669-02
 	ascend	Lycodapus	1170.55	2683	 	36.707497	-122.04875	1757741	0.7	2005-07-11 20:30:35.0	Ventana	34.568	04:04:56:09	3.403	V2683-04
 	descend	Appendicularia	719.28	2682	 	36.69848	-122.0599	1721486	0.28	2005-07-08 18:22:55.0	Ventana	34.439	02:15:58:07	4.907	V2682-03
 	ascend	Poeobius meseres	1004.32	2682	 	36.69773	-122.058235	1722898	0.46	2005-07-08 20:05:37.0	Ventana	34.523	03:58:11:12	3.93	V2682-04
 	descend	Chaetognatha	 	2693	 	 	 	1759453	 	2005-07-25 16:45:44.0	Ventana	 	00:24:18:23	 	V2693-01
 	ascend	Appendicularia	262.85	2681	 	36.699013	-122.055824	1718722	1.42	2005-07-07 21:16:56.933	Ventana	34.227	04:45:15:25	7.957	V2681-05
 	transect	Sebastolobus	998.53	2669	 	36.731117	-122.23108	1683519	0.45	2005-05-25 18:22:59.0	Ventana	34.521	00:45:25:23	3.922	V2669-01
 	descend	Copepoda	441.31	2683	 	36.701523	-122.04942	1756689	0.83	2005-07-11 17:08:12.0	Ventana	34.273	00:55:50:14	6.749	V2683-01
 	transect	Chionoecetes tanneri	800.21	2674	 	36.752632	-122.20031	1774099	0.3	2005-06-08 17:29:43.0	Ventana	34.452	00:14:17:00	4.559	V2674-01
 	cruise	Mesomyaria	997.65	2669	http://search.mbari.org/ARCHIVE/frameGrabs/Ventana/images/2669/00_15_46_14.jpg	36.73062	-122.22695	20003773	0.45	2005-05-25 17:53:21.0	Ventana	34.522	00:15:46:14	3.909	V2669-01
 	transect	molt	100.55	2681	 	36.69983	-122.05429	2489501	2.12	2005-07-07 16:43:09.0	Ventana	34.068	00:14:18:13	9.15	V2681-01HD
 	ascend	Colobonema	367.31	2681	 	36.699364	-122.05489	1718039	0.98	2005-07-07 20:51:04.033	Ventana	34.265	04:19:24:16	7.069	V2681-05
 	transect	Lycenchelys camchatica	800.53	2674	 	36.75197	-122.20951	1800913	0.36	2005-06-08 18:17:25.0	Ventana	34.49	01:01:30:10	4.325	V2674-02
 	transect	Phyllospadix	800.62	2674	 	36.75257	-122.202095	1799155	0.34	2005-06-08 17:39:09.0	Ventana	34.482	00:23:42:29	4.44	V2674-01
 	transect	Phyllospadix	799.93	2674	 	36.751312	-122.21553	1803354	0.35	2005-06-08 18:46:18.0	Ventana	34.486	01:30:21:13	4.356	V2674-02
 	ascend	Chaetognatha	378.15	2693	 	36.696224	-122.06057	1758747	1.19	2005-07-25 20:48:31.0	Ventana	34.23	03:13:05:27	7.148	V2693-04
 	transect	lobata	200.37	2681	 	36.698315	-122.05341	2491259	1.66	2005-07-07 17:13:12.0	Ventana	34.2	00:44:21:00	8.341	V2681-01HD
 	transect	Psolus squamatus	 	2687	 	 	 	1809971	 	2005-07-13 18:49:01.0	Ventana	 	02:14:47:19	 	V2687-03
 	descend	Nanomia	301.02	2682	 	36.699203	-122.06057	1720134	1.17	2005-07-08 16:55:38.0	Ventana	34.232	00:49:40:13	7.333	V2682-01
 	transect	Phyllospadix	399.5	2687	 	36.789383	-122.12503	1809648	1.15	2005-07-13 18:29:29.0	Ventana	34.239	01:55:47:14	7.32	V2687-02
 	ascend	Colobonema	423.63	2683	 	36.704147	-122.05058	1758041	0.88	2005-07-11 21:19:19.0	Ventana	34.265	04:52:11:03	6.843	V2683-05
 	transect	Mediaster	 	2687	 	 	 	1810677	 	2005-07-13 19:27:31.0	Ventana	 	02:53:15:06	 	V2687-03
 	transect	Poeobius meseres	1001.04	2681	 	36.695183	-122.05112	2498582	0.48	2005-07-07 19:23:29.0	Ventana	34.533	02:53:09:25	3.836	V2681-03HD
 	transect	Phyllospadix	997.95	2669	 	36.733112	-122.25302	1737544	0.4	2005-05-25 20:50:56.0	Ventana	34.509	03:11:43:12	4.076	V2669-04
 	transect	Sebastolobus	1000.59	2669	 	36.73194	-122.24688	1735772	0.41	2005-05-25 20:11:03.0	Ventana	34.509	02:32:32:24	4.065	V2669-03
 	transect	Psolus squamatus	 	2687	 	 	 	1807184	 	2005-07-13 17:02:56.0	Ventana	 	00:29:50:13	 	V2687-01
 	descend	Appendicularia	505.69	2682	 	36.698597	-122.05978	1720840	0.43	2005-07-08 18:00:10.0	Ventana	34.35	01:53:39:08	5.986	V2682-02
 	descend	Calycophorae	202.42	2683	 	36.70103	-122.05094	1756389	1.71	2005-07-11 16:47:21.0	Ventana	34.191	00:35:01:21	8.38	V2683-01
 	transect	Neptunea amianta	800.23	2674	 	36.751255	-122.21607	1803391	0.35	2005-06-08 18:49:41.0	Ventana	34.489	01:33:44:00	4.34	V2674-02
 	transect	Mediaster	 	2687	 	 	 	1810271	 	2005-07-13 19:13:50.0	Ventana	 	02:39:34:15	 	V2687-03
 	transect	Solmaris	600.58	2681	 	36.696415	-122.05204	2493737	0.3	2005-07-07 18:21:59.0	Ventana	34.388	01:52:20:26	5.48	V2681-02HD
 	transect	Mediaster	 	2687	 	 	 	1812449	 	2005-07-13 20:39:13.0	Ventana	 	04:04:11:08	 	V2687-04
 	transect	Mesomyaria	1000.16	2669	 	36.731968	-122.24715	1735832	0.41	2005-05-25 20:12:55.0	Ventana	34.507	02:34:23:07	4.068	V2669-03
 	transect	Chaetognatha	400.74	2681	 	36.696632	-122.05218	2493031	0.79	2005-07-07 17:44:44.0	Ventana	34.277	01:15:07:27	6.652	V2681-02HD
 	transect	Rathbunaster californicus	199.8	2696	 	36.804398	-122.12636	1813441	1.52	2005-08-01 17:46:46.0	Ventana	34.209	01:14:39:21	8.665	V2696-02
 	transect	Mysidae 2	1001.02	2681	 	36.69576	-122.05185	2498642	0.48	2005-07-07 19:26:36.0	Ventana	34.535	02:56:16:06	3.849	V2681-03HD
 	transect	Mesomyaria	800.91	2674	 	36.752533	-122.20026	1774062	0.3	2005-06-08 17:28:25.0	Ventana	34.454	00:12:59:21	4.605	V2674-01
 	descend	Copepoda	712.16	2683	 	36.702156	-122.048935	1757095	0.29	2005-07-11 17:55:10.0	Ventana	34.426	01:39:15:26	4.998	V2683-02
 	transect	Phyllospadix	802.79	2674	 	36.752243	-122.20633	1799921	0.36	2005-06-08 18:01:21.0	Ventana	34.488	00:45:53:11	4.339	V2674-01
 	descend	Aegina	600.43	2681	 	36.69787	-122.05378	1715921	0.3	2005-07-07 18:28:35.813	Ventana	34.389	01:58:56:00	5.477	V2681-02
 	ascend	Appendicularia	609.0	2681	 	36.69893	-122.05424	1717693	0.31	2005-07-07 20:29:27.0	Ventana	34.38	03:58:27:22	5.543	V2681-04
 	transect	Rathbunaster californicus	196.5	2696	 	36.80326	-122.1232	1813155	1.54	2005-08-01 17:13:18.0	Ventana	34.202	00:41:36:01	8.614	V2696-01
 	transect	Psolus squamatus	 	2687	 	 	 	1810008	 	2005-07-13 18:50:21.0	Ventana	 	02:16:07:06	 	V2687-03
 	transect	Phyllospadix	200.48	2696	 	36.8047	-122.12711	1813501	1.51	2005-08-01 17:54:11.0	Ventana	34.211	01:22:04:00	8.672	V2696-02
 	transect	Sebastolobus	999.95	2669	 	36.731083	-122.2388	1689070	0.43	2005-05-25 19:20:05.0	Ventana	34.518	01:42:03:17	3.963	V2669-02
 	descend	Copepoda	953.66	2683	 	36.703865	-122.04853	1757335	0.42	2005-07-11 19:10:33.0	Ventana	34.514	02:50:54:11	4.049	V2683-03
 	transect	Psolus squamatus	399.71	2687	 	36.789204	-122.12439	1809565	1.16	2005-07-13 18:18:05.0	Ventana	34.241	01:44:24:10	7.342	V2687-02
 	descend	Sebastes	218.71	2676	http://search.mbari.org/ARCHIVE/frameGrabs/Ventana/images/2676/00_00_11_09.jpg	36.805096	-122.0318	1676196	1.6	2005-06-14 16:16:06.0	Ventana	34.195	00:00:11:09	8.097	V2676-01
 	transect	Mediaster	 	2687	 	 	 	1812795	 	2005-07-13 20:57:49.0	Ventana	 	04:22:19:08	 	V2687-05
 	ascend	Appendicularia	557.9	2682	 	36.69827	-122.0626	1723604	0.38	2005-07-08 21:08:00.0	Ventana	34.357	05:00:07:08	5.845	V2682-05
 	ascend	Appendicularia	930.79	2681	 	36.69767	-122.05415	1716987	0.41	2005-07-07 19:44:04.933	Ventana	34.513	03:13:08:00	4.093	V2681-04
 	transect	Psolus squamatus	 	2687	 	 	 	1808859	 	2005-07-13 17:30:35.0	Ventana	 	00:57:27:05	 	V2687-01
 	ascend	Poeobius meseres	844.11	2682	 	36.698677	-122.05854	1723244	0.34	2005-07-08 20:20:42.0	Ventana	34.483	04:12:51:14	4.401	V2682-05
 	transect	Calliostoma platinum	 	2687	 	 	 	1808596	 	2005-07-13 17:24:45.0	Ventana	 	00:51:38:03	 	V2687-01
 	transect	Sebastolobus altivelis	602.15	2680	 	36.79101	-122.23288	1806824	0.36	2005-06-27 20:24:27.0	Ventana	34.379	03:03:03:20	5.587	V2680-03
 	cruise	Sebastes	125.98	2676	 	36.808502	-122.03126	1676902	1.73	2005-06-14 18:03:00.0	Ventana	34.171	01:42:43:05	8.337	V2676-02
 	descend	Solmaris	400.24	2681	 	36.69557	-122.05109	1715215	0.79	2005-07-07 17:35:53.467	Ventana	34.278	01:06:16:27	6.676	V2681-02
 	transect	Euphausia	200.48	2681	 	36.69828	-122.05329	2490613	1.72	2005-07-07 17:07:49.0	Ventana	34.195	00:38:57:12	8.334	V2681-01HD
 	transect	Phyllospadix	798.4	2674	 	36.751686	-122.21345	1801273	0.35	2005-06-08 18:34:40.0	Ventana	34.488	01:18:44:24	4.353	V2674-02
 	transect	Sebastolobus	399.88	2687	 	36.788116	-122.121735	1809302	1.14	2005-07-13 17:38:56.0	Ventana	34.238	01:05:18:18	7.284	V2687-02
 	descend	Phialidium	991.85	2681	 	36.69464	-122.05039	1716544	0.46	2005-07-07 19:19:55.767	Ventana	34.529	02:49:37:18	3.887	V2681-03
 	transect	Phyllospadix	800.96	2674	 	36.752537	-122.20256	1799215	0.35	2005-06-08 17:41:28.0	Ventana	34.486	00:26:01:07	4.382	V2674-01
 	ascend	sinker	1083.62	2683	 	36.70767	-122.049126	1757801	0.57	2005-07-11 20:45:01.0	Ventana	34.545	04:19:22:05	3.697	V2683-04
 	transect	Poeobius meseres	700.61	2681	 	36.69544	-122.05123	2497936	0.28	2005-07-07 18:46:28.0	Ventana	34.435	02:16:10:22	4.969	V2681-03HD
 	ascend	Euphausiacea	280.86	2681	 	36.69973	-122.05504	1718302	1.36	2005-07-07 21:02:57.107	Ventana	34.234	04:31:17:12	7.751	V2681-05
 	transect	Ophiuroidea	999.87	2669	 	36.730965	-122.23381	1683962	0.45	2005-05-25 18:40:35.0	Ventana	34.523	01:02:36:05	3.913	V2669-02
 	ascend	Appendicularia	513.99	2682	 	36.698357	-122.06315	1723664	0.47	2005-07-08 21:12:50.0	Ventana	34.34	05:04:30:26	6.109	V2682-06
 	transect	Psolus squamatus	399.87	2687	 	36.788094	-122.12162	1809205	1.13	2005-07-13 17:37:08.0	Ventana	34.243	01:03:30:27	7.262	V2687-02
 	cruise	Macrouridae	999.2	2679	 	36.68986	-122.1656	1824354	0.42	2005-06-16 17:31:43.0	Ventana	34.514	00:03:06:08	4.114	V2679-01
 	ascend	Appendicularia	498.2	2681	 	36.69895	-122.054245	1717753	0.51	2005-07-07 20:34:40.233	Ventana	34.328	04:03:40:20	6.15	V2681-04
 	transect	Phyllospadix	 	2669	 	 	 	1737604	 	2005-05-25 13:53:05.0	Ventana	 	03:13:52:18	 	V2669-04
 	ascend	Cydippida	193.91	2693	 	36.69061	-122.06286	1759213	1.82	2005-07-25 21:28:49.0	Ventana	34.177	03:53:20:11	8.866	V2693-04
 	cruise	Pasiphaea	343.41	2676	 	36.804714	-122.02909	1676639	1.27	2005-06-14 17:16:49.0	Ventana	34.23	01:00:55:15	7.612	V2676-01
 	transect	Appendicularia	400.79	2681	 	36.695942	-122.05136	2492934	0.79	2005-07-07 17:41:39.0	Ventana	34.277	01:12:02:19	6.662	V2681-02HD
 	transect	Psolus squamatus	 	2687	 	 	 	1810414	 	2005-07-13 19:17:28.0	Ventana	 	02:43:12:08	 	V2687-03
 	transect	Mediaster	399.91	2687	 	36.788143	-122.121826	1809362	1.13	2005-07-13 17:40:06.0	Ventana	34.252	01:06:27:26	7.29	V2687-02
 	descend	Chaetognatha	327.09	2693	 	36.69745	-122.06058	1758507	1.29	2005-07-25 19:46:59.0	Ventana	34.236	02:26:33:19	7.579	V2693-03
 	transect	Phyllospadix	799.47	2674	 	36.752678	-122.20094	1774159	0.33	2005-06-08 17:33:18.0	Ventana	34.481	00:17:51:18	4.45	V2674-01
 	transect	molt	50.42	2681	 	36.69983	-122.05429	2485611	2.98	2005-07-07 16:36:11.0	Ventana	33.915	00:07:20:05	9.622	V2681-01HD
 	transect	Appendicularia	500.59	2681	 	36.695976	-122.05146	2493640	0.43	2005-07-07 18:03:31.0	Ventana	34.348	01:33:53:19	6.009	V2681-02HD
 	transect	Psolus squamatus	 	2687	 	 	 	1809911	 	2005-07-13 18:47:57.0	Ventana	 	02:13:43:10	 	V2687-03
 	transect	Mediaster	 	2687	 	 	 	1811826	 	2005-07-13 20:26:30.0	Ventana	 	03:51:28:04	 	V2687-04
 	transect	Mesomyaria	1000.23	2669	 	36.73092	-122.23268	1683805	0.45	2005-05-25 18:35:01.0	Ventana	34.52	00:57:27:08	3.911	V2669-01
 	transect	Pennatulacea sp.1	599.37	2680	 	36.779324	-122.2244	1804503	0.36	2005-06-27 18:08:32.0	Ventana	34.378	00:48:38:27	5.6	V2680-01
 	transect	Mesomyaria	1000.11	2669	 	36.731045	-122.23962	1689167	0.41	2005-05-25 19:25:03.0	Ventana	34.509	01:47:01:24	4.064	V2669-02
 	transect	Appendicularia	400.74	2681	 	36.697067	-122.05269	2493091	0.79	2005-07-07 17:46:34.0	Ventana	34.278	01:16:58:13	6.659	V2681-02HD
 	ascend	sinker	699.57	2681	 	36.698734	-122.054855	1717596	0.27	2005-07-07 20:20:53.8	Ventana	34.42	03:49:54:17	5.095	V2681-04
 	transect	Calycophorae	500.54	2681	 	36.697395	-122.0531	2493437	0.44	2005-07-07 17:57:22.0	Ventana	34.346	01:27:43:28	6.018	V2681-02HD
 	cruise	Pannychia moseleyi	495.81	2688	 	36.801342	-122.01856	1677548	0.76	2005-07-14 17:23:48.0	Ventana	34.294	01:09:32:14	6.609	V2688-02
 	ascend	Poeobius meseres	602.94	2682	 	36.698647	-122.06148	1723507	0.34	2005-07-08 20:56:09.0	Ventana	34.375	04:48:16:05	5.638	V2682-05
 	transect	Mesomyaria	800.03	2674	 	36.751755	-122.212074	1801176	0.35	2005-06-08 18:28:29.0	Ventana	34.49	01:12:33:24	4.337	V2674-02
 	transect	Poeobius meseres	600.57	2681	 	36.696915	-122.05264	2493797	0.3	2005-07-07 18:24:16.0	Ventana	34.388	01:54:37:05	5.476	V2681-02HD
 	descend	Poeobius meseres	594.59	2681	 	36.695686	-122.05108	1715635	0.32	2005-07-07 18:07:36.1	Ventana	34.379	01:37:57:17	5.551	V2681-02
 	cruise	rock outcrop	104.66	2688	http://search.mbari.org/ARCHIVE/frameGrabs/Ventana/images/2688/03_20_28_19.jpg	36.814274	-122.01716	20005245	1.97	2005-07-14 19:35:41.0	Ventana	34.089	03:20:28:19	8.902	V2688-04
 	ascend	Appendicularia	418.57	2681	 	36.699223	-122.0543	1717956	0.79	2005-07-07 20:45:47.5	Ventana	34.281	04:14:08:25	6.659	V2681-05
 	ascend	sinker	337.54	2681	 	36.699375	-122.05525	1718099	1.14	2005-07-07 20:53:45.333	Ventana	34.245	04:22:05:20	7.281	V2681-05
 	transect	Phyllospadix	998.69	2669	 	36.73114	-122.234695	1684165	0.45	2005-05-25 18:47:21.0	Ventana	34.522	01:09:21:21	3.916	V2669-02
 	descend	sinker	205.75	2693	 	36.696037	-122.0584	1758304	1.81	2005-07-25 18:25:24.0	Ventana	34.186	01:05:28:25	8.702	V2693-02
 	transect	doliolidae	300.44	2681	 	36.698135	-122.05345	2492025	1.24	2005-07-07 17:21:01.0	Ventana	34.233	00:52:07:13	7.409	V2681-01HD
 	transect	Ophiuroidea	997.48	2669	 	36.730667	-122.22752	1649165	0.45	2005-05-25 17:57:23.0	Ventana	34.521	00:19:51:26	3.909	V2669-01
 	descend	Euphausiacea	362.37	2682	 	36.69853	-122.06016	1720420	0.99	2005-07-08 17:32:01.0	Ventana	34.259	01:25:33:01	7.062	V2682-02
 	transect	Mesomyaria	798.47	2674	 	36.75156	-122.21412	1801333	0.35	2005-06-08 18:39:05.0	Ventana	34.488	01:23:08:25	4.339	V2674-02
 	transect	Sebastes diploproa	 	2687	 	 	 	1811120	 	2005-07-13 19:54:07.0	Ventana	 	03:19:08:14	 	V2687-04
 	transect	Mesomyaria	998.79	2669	 	36.73284	-122.251816	1737244	0.4	2005-05-25 20:43:51.0	Ventana	34.51	03:04:39:21	4.076	V2669-04
 	transect	Psolus squamatus	 	2687	 	 	 	1808656	 	2005-07-13 17:26:23.0	Ventana	 	00:53:15:16	 	V2687-01
 	transect	Phyllospadix	802.15	2674	 	36.751877	-122.20995	1800973	0.35	2005-06-08 18:19:51.0	Ventana	34.489	01:03:56:07	4.328	V2674-02
 	transect	Psolus squamatus	 	2687	 	 	 	1808799	 	2005-07-13 17:29:42.0	Ventana	 	00:56:34:12	 	V2687-01
 	transect	Sebastes aurora	 	2687	http://search.mbari.org/ARCHIVE/frameGrabs/Ventana/images/2687/00_43_15_13.jpg	 	 	1807590	 	2005-07-13 17:16:22.0	Ventana	 	00:43:15:13	 	V2687-01
 	transect	Phyllospadix	 	2687	 	 	 	1811480	 	2005-07-13 20:14:24.0	Ventana	 	03:39:23:21	 	V2687-04
 	transect	Psolus squamatus	 	2687	 	 	 	1812735	 	2005-07-13 20:55:21.0	Ventana	 	04:19:51:26	 	V2687-05
 	transect	Gastropoda sp.2	1000.22	2669	 	36.73162	-122.2433	1733811	0.41	2005-05-25 19:46:18.0	Ventana	34.51	02:07:49:08	4.065	V2669-03
 	ascend	Chaetognatha	369.98	2693	 	36.695564	-122.06073	1758807	1.21	2005-07-25 20:54:35.0	Ventana	34.234	03:19:08:28	7.258	V2693-04
 	transect	Brisaster	802.21	2674	 	36.750896	-122.21987	1803654	0.35	2005-06-08 19:06:05.0	Ventana	34.487	01:50:07:20	4.37	V2674-02
 	transect	Stomphia	999.49	2669	 	36.731197	-122.23567	1684368	0.44	2005-05-25 18:55:08.0	Ventana	34.52	01:17:08:14	3.935	V2669-02
 	transect	Mesomyaria	999.69	2669	 	36.731804	-122.24449	1734360	0.4	2005-05-25 19:53:03.0	Ventana	34.508	02:14:34:05	4.076	V2669-03
 	transect	Mediaster	 	2687	 	 	 	1810977	 	2005-07-13 19:45:42.0	Ventana	 	03:10:43:01	 	V2687-04
 	stationary	Merluccius productus	207.94	2686	 	36.79371	-121.88108	1669925	1.65	2005-07-12 22:03:53.0	Ventana	34.139	01:11:02:18	8.33	V2686-01
 	descend	Cydippida	115.04	2682	 	36.699802	-122.06045	1719871	2.39	2005-07-08 16:17:03.0	Ventana	34.039	00:11:08:24	8.826	V2682-01
 	transect	Ceriantharia sp. 1	599.84	2680	 	36.77813	-122.223305	1804360	0.36	2005-06-27 17:54:26.0	Ventana	34.378	00:34:32:21	5.588	V2680-01
 	ascend	sinker	838.63	2681	 	36.69867	-122.05604	1717393	0.31	2005-07-07 19:56:35.6	Ventana	34.485	03:25:38:11	4.418	V2681-04
 	transect	Salpida	400.71	2681	 	36.697956	-122.05367	2493234	0.79	2005-07-07 17:50:19.0	Ventana	34.278	01:20:42:21	6.661	V2681-02HD
 	cruise	Florometra	210.87	2688	 	36.810284	-122.02091	1677954	1.73	2005-07-14 18:33:55.0	Ventana	34.161	02:19:11:08	8.683	V2688-03
 	transect	Gastropoda sp.2	997.45	2669	 	36.730667	-122.22754	1694921	0.45	2005-05-25 17:57:30.0	Ventana	34.521	00:19:58:12	3.909	V2669-01
 	ascend	Mysidae	753.47	2682	 	36.698784	-122.05916	1723304	0.29	2005-07-08 20:28:42.0	Ventana	34.444	04:20:52:15	4.838	V2682-05
 	transect	Mesomyaria	999.46	2669	 	36.730965	-122.23163	1683662	0.45	2005-05-25 18:28:14.0	Ventana	34.522	00:50:40:13	3.913	V2669-01
 	ascend	Nanomia	258.17	2681	 	36.697838	-122.05522	1719368	 	2005-07-07 21:29:59.0	Ventana	 	05:02:49:26	 	V2681-05
 	transect	molt	100.49	2681	 	36.699062	-122.053795	2489847	2.13	2005-07-07 16:51:48.0	Ventana	34.069	00:22:56:19	9.146	V2681-01HD
 	transect	Neptunea amianta	800.53	2674	 	36.751137	-122.21691	1803451	0.35	2005-06-08 18:52:39.0	Ventana	34.485	01:36:42:05	4.353	V2674-02
 	transect	Gastropoda sp.2	1000.06	2669	 	36.731228	-122.23827	1694718	0.43	2005-05-25 19:16:59.0	Ventana	34.517	01:38:57:04	3.967	V2669-02
 	descend	Beroe	172.39	2683	 	36.70105	-122.05125	1756329	1.63	2005-07-11 16:41:08.0	Ventana	34.193	00:28:48:20	8.748	V2683-01
 	ascend	Chaetognatha	334.11	2693	 	36.692417	-122.061844	1759010	1.27	2005-07-25 21:15:07.0	Ventana	34.252	03:39:38:23	7.523	V2693-04
 	ascend	sinker	633.02	2683	 	36.705	-122.05022	1757944	0.3	2005-07-11 21:10:17.0	Ventana	34.4	04:43:09:09	5.397	V2683-05
 	transect	Phyllospadix	801.5	2674	 	36.75223	-122.20745	1800064	0.37	2005-06-08 18:07:00.0	Ventana	34.488	00:51:31:26	4.35	V2674-01
 	descend	Chaetognatha	1013.05	2683	 	36.704414	-122.04991	1757395	0.44	2005-07-11 19:22:38.0	Ventana	34.521	03:03:00:22	3.987	V2683-03
 	transect	Glyptocephalus zachirus	 	2687	 	 	 	1811323	 	2005-07-13 20:07:19.0	Ventana	 	03:32:19:02	 	V2687-04
 	descend	Appendicularia	448.66	2682	 	36.69849	-122.059525	1720780	0.57	2005-07-08 17:54:40.0	Ventana	34.317	01:48:10:26	6.301	V2682-02
 	ascend	Poeobius meseres	370.99	2693	 	36.69621	-122.060844	1758650	1.2	2005-07-25 20:25:18.0	Ventana	34.232	03:04:51:17	7.165	V2693-03
 	transect	Brisaster	998.16	2669	 	36.730537	-122.228355	1649368	0.45	2005-05-25 18:02:56.0	Ventana	34.523	00:25:24:01	3.908	V2669-01
 	ascend	Copepoda	261.2	2681	 	36.698845	-122.05701	1719008	1.42	2005-07-07 21:20:48.2	Ventana	34.23	04:49:06:26	7.955	V2681-05
 	descend	Dosidicus gigas	374.42	2681	 	36.69556	-122.05122	1715072	0.96	2005-07-07 17:32:25.693	Ventana	34.254	01:02:49:10	6.979	V2681-02
 	ascend	Chaetognatha	245.67	2683	 	36.703003	-122.05071	1758101	1.64	2005-07-11 21:27:02.0	Ventana	34.196	04:59:54:01	8.024	V2683-05
 	descend	Copepoda	304.38	2682	 	36.699577	-122.06074	1720074	1.18	2005-07-08 16:38:47.0	Ventana	34.232	00:32:50:17	7.343	V2682-01
 	transect	Glyptocephalus zachirus	 	2687	 	 	 	1812389	 	2005-07-13 20:36:11.0	Ventana	 	04:01:08:25	 	V2687-04
 	transect	Appendicularia	800.88	2681	 	36.69614	-122.0521	2498236	0.31	2005-07-07 18:59:04.0	Ventana	34.475	02:28:47:01	4.497	V2681-03HD
 	transect	Porifera sp. 1	 	2687	 	 	 	1809002	 	2005-07-13 17:33:22.0	Ventana	 	01:00:14:01	 	V2687-01
 	transect	Phyllospadix	598.3	2680	 	36.78185	-122.22691	1805066	0.36	2005-06-27 18:41:49.0	Ventana	34.378	01:20:54:11	5.598	V2680-02
 	transect	Mesomyaria	1000.25	2669	 	36.731503	-122.24232	1694492	0.41	2005-05-25 19:41:08.0	Ventana	34.509	02:03:05:02	4.06	V2669-02
 	transect	Phyllospadix	800.93	2674	 	36.751003	-122.21821	1803557	0.35	2005-06-08 18:59:07.0	Ventana	34.489	01:43:09:20	4.347	V2674-02
 	transect	Porifera sp. 1	 	2687	 	 	 	1810128	 	2005-07-13 18:58:42.0	Ventana	 	02:24:27:21	 	V2687-03
 	cruise	Glyptocephalus zachirus	421.42	2676	 	36.80366	-122.02921	1676422	0.68	2005-06-14 16:42:34.0	Ventana	34.311	00:26:42:15	6.496	V2676-01
 	descend	Appendicularia	326.15	2683	 	36.701195	-122.05008	1756532	1.21	2005-07-11 16:55:10.0	Ventana	34.24	00:42:50:00	7.487	V2683-01
 	transect	Mesomyaria	800.33	2674	 	36.751743	-122.21151	1801116	0.35	2005-06-08 18:26:01.0	Ventana	34.483	01:10:05:24	4.358	V2674-02
 	ascend	Euphausiacea	255.11	2681	 	36.69807	-122.055214	1719225	1.46	2005-07-07 21:25:43.933	Ventana	34.223	04:54:02:24	7.993	V2681-05
 	ascend	Appendicularia	345.39	2693	 	36.693527	-122.06133	1758927	1.25	2005-07-25 21:09:17.0	Ventana	34.236	03:33:49:23	7.385	V2693-04
 	transect	Psolus squamatus	 	2687	 	 	 	1807687	 	2005-07-13 17:22:50.0	Ventana	 	00:49:42:28	 	V2687-01
 	transect	Funiculina	999.64	2669	 	36.731003	-122.232414	1683745	0.45	2005-05-25 18:32:59.0	Ventana	34.522	00:55:25:03	3.91	V2669-01
 	transect	Mediaster	 	2687	 	 	 	1811863	 	2005-07-13 20:27:27.0	Ventana	 	03:52:25:16	 	V2687-04
 	descend	Appendicularia	290.91	2683	 	36.70104	-122.05018	1756486	1.26	2005-07-11 16:53:09.0	Ventana	34.243	00:40:49:21	7.744	V2683-01
 	transect	Ceriantharia sp. 1	600.22	2680	 	36.777077	-122.22224	1804217	0.36	2005-06-27 17:41:21.0	Ventana	34.378	00:21:28:16	5.588	V2680-01
 	transect	cydippida	400.76	2681	 	36.697437	-122.05311	2493151	0.79	2005-07-07 17:48:07.0	Ventana	34.278	01:18:31:00	6.662	V2681-02HD
 	transect	Phyllospadix	799.93	2674	 	36.752518	-122.203735	1799381	0.35	2005-06-08 17:47:36.0	Ventana	34.483	00:32:09:00	4.378	V2674-01
 	transect	Halipteris californica	599.47	2680	 	36.783024	-122.22834	1805292	0.36	2005-06-27 19:02:51.0	Ventana	34.376	01:41:55:21	5.609	V2680-02
 	descend	Calycophorae	700.6	2681	 	36.697998	-122.05374	1716124	0.29	2005-07-07 18:34:45.467	Ventana	34.432	02:04:29:18	4.984	V2681-03
 	ascend	Phialidium	585.4	2682	 	36.698822	-122.06031	1723447	0.4	2005-07-08 20:42:31.0	Ventana	34.371	04:34:38:12	5.672	V2682-05
 	descend	Hormiphora	182.14	2693	 	36.696068	-122.058174	1758267	1.89	2005-07-25 18:12:10.0	Ventana	34.17	00:52:41:07	8.853	V2693-01
 	transect	Rathbunaster californicus	 	2687	 	 	 	1812615	 	2005-07-13 20:47:36.0	Ventana	 	04:12:06:17	 	V2687-05
 	transect	Ophiuroidea	998.17	2669	 	36.731106	-122.23065	1651366	0.45	2005-05-25 18:19:31.0	Ventana	34.522	00:41:57:22	3.912	V2669-01
 	transect	Phyllospadix	999.08	2669	 	36.731125	-122.23401	1684022	0.45	2005-05-25 18:42:10.0	Ventana	34.523	01:04:11:03	3.913	V2669-02
 	transect	Mesomyaria	1000.04	2669	 	36.731705	-122.24368	1733871	0.41	2005-05-25 19:48:09.0	Ventana	34.509	02:09:40:29	4.067	V2669-03
 	transect	cydippida	700.63	2681	 	36.69681	-122.05269	2497710	0.29	2005-07-07 18:40:32.0	Ventana	34.437	02:10:14:18	4.93	V2681-03HD
 	transect	Careproctus melanurus	999.74	2669	 	36.730534	-122.228935	1650937	0.45	2005-05-25 18:06:09.0	Ventana	34.523	00:28:36:27	3.905	V2669-01
 	cruise	mud	 	2673	 	 	 	1668347	 	 	Ventana	 	00:13:33:22	 	V2673-01
 	transect	Mesomyaria	999.97	2669	 	36.732582	-122.25026	1736958	0.41	2005-05-25 20:35:08.0	Ventana	34.509	02:56:37:23	4.067	V2669-03
 	transect	Diogenidae	599.47	2680	 	36.779587	-122.22466	1804540	0.36	2005-06-27 18:11:35.0	Ventana	34.379	00:51:40:25	5.595	V2680-01
 	descend	Solmissus	1029.73	2682	 	36.698322	-122.05919	1722035	0.47	2005-07-08 19:01:56.0	Ventana	34.531	02:54:57:24	3.868	V2682-03
 	descend	Nanomia	506.59	2683	 	36.701435	-122.04917	1756855	0.68	2005-07-11 17:39:35.0	Ventana	34.306	01:23:42:18	6.467	V2683-02
 	transect	Mesomyaria	997.25	2669	 	36.73062	-122.22766	1649202	0.45	2005-05-25 17:58:30.0	Ventana	34.521	00:20:58:27	3.908	V2669-01
 	transect	Appendicularia	200.46	2681	 	36.69828	-122.05329	2490710	1.71	2005-07-07 17:08:25.0	Ventana	34.193	00:39:32:29	8.323	V2681-01HD
 	descend	Appendicularia	816.95	2682	 	36.698357	-122.05953	1721712	0.31	2005-07-08 18:42:53.0	Ventana	34.473	02:35:56:10	4.496	V2682-03
 	transect	Mediaster	 	2687	 	 	 	1812292	 	2005-07-13 20:31:00.0	Ventana	 	03:55:57:25	 	V2687-04
 	transect	Phyllospadix	801.55	2674	 	36.752266	-122.20724	1800041	0.37	2005-06-08 18:06:03.0	Ventana	34.495	00:50:34:23	4.36	V2674-01
 	transect	Psolus squamatus	 	2687	 	 	 	1807027	 	2005-07-13 16:54:50.0	Ventana	 	00:21:44:16	 	V2687-01
 	descend	Hormiphora	237.49	2682	 	36.699883	-122.06073	1719977	1.43	2005-07-08 16:22:12.0	Ventana	34.221	00:16:16:08	7.984	V2682-01
 	transect	Phyllospadix	800.98	2674	 	36.752117	-122.20826	1800733	0.35	2005-06-08 18:10:55.0	Ventana	34.49	00:55:26:27	4.322	V2674-01
 	ascend	Calycophorae	676.55	2683	 	36.705544	-122.049446	1757898	0.3	2005-07-11 21:07:28.0	Ventana	34.428	04:40:20:24	5.034	V2683-05
 	cruise	Sebastolobus	324.75	2688	 	36.808327	-122.020226	1677834	1.28	2005-07-14 18:10:38.0	Ventana	34.222	01:56:19:17	7.661	V2688-02
 	descend	Chaetognatha	364.62	2693	 	36.697044	-122.05986	1758590	1.21	2005-07-25 20:00:15.0	Ventana	34.23	02:39:50:05	7.232	V2693-03
 	transect	Psolus squamatus	399.84	2687	http://search.mbari.org/ARCHIVE/frameGrabs/Ventana/images/2687/01_02_17_21.jpg	36.788036	-122.12153	1809099	1.13	2005-07-13 17:35:55.0	Ventana	34.244	01:02:17:21	7.27	V2687-02
 	ascend	Appendicularia	331.62	2681	 	36.69964	-122.05521	1718136	1.17	2005-07-07 20:55:41.833	Ventana	34.239	04:24:02:16	7.318	V2681-05
 	transect	Sebastes diploproa	 	2687	http://search.mbari.org/ARCHIVE/frameGrabs/Ventana/images/2687/00_56_06_08.jpg	 	 	1808776	 	2005-07-13 17:29:14.0	Ventana	 	00:56:06:08	 	V2687-01
 	ascend	marine snow	1275.57	2673	 	36.802937	-121.804695	1668407	0.8	2005-06-07 17:50:55.0	Ventana	34.577	00:34:44:27	3.26	V2673-01
 	stationary	Appendicularia	504.23	2695	 	36.784603	-122.2005	1824497	0.68	2005-07-28 19:10:33.0	Ventana	34.296	04:16:47:09	6.309	V2695-02
 	transect	Aegina	700.65	2681	 	36.69733	-122.05321	2497650	0.29	2005-07-07 18:38:22.0	Ventana	34.433	02:08:04:28	4.96	V2681-03HD
 	transect	Ophiuroidea	998.69	2669	 	36.731056	-122.23048	1651306	0.45	2005-05-25 18:18:08.0	Ventana	34.522	00:40:35:04	3.91	V2669-01
 	endtransect	physical object	399.84	2687	 	36.78801	-122.1214	1809039	1.15	2005-07-13 17:34:46.0	Ventana	34.239	01:01:05:18	7.299	V2687-01
 	transect	cydippida	200.43	2681	 	36.69828	-122.05329	2490327	1.7	2005-07-07 17:06:56.0	Ventana	34.198	00:38:04:28	8.347	V2681-01HD
 	ascend	surface water	 	2682	 	 	 	1723784	 	2005-07-08 14:40:53.0	Ventana	 	05:32:32:16	 	V2682-06
 	transect	Caecosagitta macrocephala	901.01	2681	 	36.695354	-122.05109	2498462	0.39	2005-07-07 19:14:25.0	Ventana	34.505	02:44:06:18	4.171	V2681-03HD
 	descend	Appendicularia	814.31	2683	 	36.702755	-122.04867	1757178	0.36	2005-07-11 18:08:04.0	Ventana	34.471	01:52:08:26	4.527	V2683-02
 	descend	Hormiphora	214.39	2693	 	36.696064	-122.05822	1758327	1.69	2005-07-25 18:26:46.0	Ventana	34.191	01:06:51:09	8.613	V2693-02
 	transect	Rathbunaster californicus	197.59	2696	 	36.80345	-122.123886	1813215	1.55	2005-08-01 17:20:55.0	Ventana	34.199	00:49:12:15	8.623	V2696-01
 	transect	Mesomyaria	998.46	2669	 	36.73113	-122.23072	1683422	0.45	2005-05-25 18:20:27.0	Ventana	34.523	00:42:53:25	3.914	V2669-01
 	transect	Phyllospadix	204.17	2696	 	36.805397	-122.12844	1813704	1.49	2005-08-01 18:17:18.0	Ventana	34.212	01:45:09:17	8.627	V2696-02
 	transect	Aegina	500.57	2681	 	36.697056	-122.05266	2493534	0.44	2005-07-07 17:59:00.0	Ventana	34.345	01:29:22:24	6.03	V2681-02HD
 	transect	Ceriantharia sp. 2	999.52	2669	 	36.73073	-122.229515	1683362	0.45	2005-05-25 18:10:32.0	Ventana	34.522	00:32:59:09	3.907	V2669-01
 	transect	Nanomia bijuga	200.39	2681	 	36.698296	-122.053345	2491079	1.7	2005-07-07 17:11:36.0	Ventana	34.196	00:42:43:07	8.332	V2681-01HD
 	transect	Sebastolobus	 	2687	 	 	 	1810451	 	2005-07-13 19:18:24.0	Ventana	 	02:44:08:05	 	V2687-03
 	descend	Appendicularia	1233.45	2683	 	36.706127	-122.04811	1757515	0.73	2005-07-11 19:46:13.0	Ventana	34.573	03:20:37:08	3.346	V2683-04
 	transect	Sebastolobus altivelis	801.34	2674	 	36.750965	-122.21898	1803617	0.35	2005-06-08 19:02:25.0	Ventana	34.494	01:46:27:02	4.341	V2674-02
 	transect	Psolus squamatus	 	2687	 	 	 	1811540	 	2005-07-13 20:15:20.0	Ventana	 	03:40:19:05	 	V2687-04
 	transect	Phyllospadix	1000.22	2669	 	36.731262	-122.24092	1689333	0.41	2005-05-25 19:33:23.0	Ventana	34.51	01:55:21:08	4.056	V2669-02
 	transect	Psolus squamatus	 	2687	 	 	 	1810188	 	2005-07-13 19:06:33.0	Ventana	 	02:32:17:20	 	V2687-03
 	transect	Mediaster	 	2687	 	 	 	1811203	 	2005-07-13 20:01:41.0	Ventana	 	03:26:40:29	 	V2687-04
 	transect	Hastigerinella digitata	300.42	2681	 	36.69669	-122.05227	2492491	1.23	2005-07-07 17:25:58.0	Ventana	34.234	00:57:04:17	7.397	V2681-01HD
 	descend	Crustacea	894.89	2683	 	36.703262	-122.04833	1757252	0.37	2005-07-11 18:31:45.0	Ventana	34.495	02:12:09:12	4.275	V2683-03
 	transect	Neptunea amianta	799.88	2674	 	36.75252	-122.20338	1799321	0.35	2005-06-08 17:45:39.0	Ventana	34.481	00:30:12:12	4.39	V2674-01
 	ascend	Appendicularia	747.48	2681	 	36.698746	-122.05575	1717536	0.27	2005-07-07 20:14:25.167	Ventana	34.447	03:43:26:10	4.815	V2681-04
 	transect	Mesomyaria	999.85	2669	 	36.731747	-122.244125	1734134	0.4	2005-05-25 19:51:00.0	Ventana	34.511	02:12:31:13	4.078	V2669-03
 	transect	Calycophorae	600.53	2681	 	36.69759	-122.05343	2493843	0.3	2005-07-07 18:27:06.0	Ventana	34.389	01:57:27:05	5.471	V2681-02HD
 	descend	Chuniphyes	753.23	2682	 	36.69843	-122.05968	1721652	0.28	2005-07-08 18:30:47.0	Ventana	34.454	02:23:51:11	4.763	V2682-03
 	transect	Phyllospadix	800.79	2674	 	36.752518	-122.20152	1799058	0.34	2005-06-08 17:36:10.0	Ventana	34.485	00:20:44:10	4.422	V2674-01
 	descend	physical object	208.24	2686	http://search.mbari.org/ARCHIVE/frameGrabs/Ventana/images/2686/01_07_24_27.jpg	36.79371	-121.88108	20005028	1.67	2005-07-12 22:00:14.0	Ventana	34.139	01:07:24:27	8.355	V2686-02
 	transect	Phyllospadix	801.53	2674	 	36.752205	-122.20779	1800101	0.35	2005-06-08 18:08:30.0	Ventana	34.489	00:53:01:19	4.326	V2674-01
 	transect	Ophiuroidea	998.99	2669	 	36.73141	-122.23642	1684774	0.44	2005-05-25 19:00:44.0	Ventana	34.521	01:22:43:14	3.939	V2669-02
 	descend	Euphausiacea	270.91	2682	 	36.699776	-122.060776	1720037	1.34	2005-07-08 16:33:16.0	Ventana	34.229	00:27:20:06	7.707	V2682-01
 	transect	Umbellula lindahli	599.3	2680	 	36.77914	-122.224266	1804480	0.36	2005-06-27 18:06:49.0	Ventana	34.378	00:46:53:20	5.601	V2680-01
 	transect	molt	100.5	2681	 	36.69982	-122.05429	2489727	2.13	2005-07-07 16:48:47.0	Ventana	34.067	00:19:56:03	9.152	V2681-01HD
 	descend	Appendicularia	527.79	2683	 	36.701485	-122.04914	1756915	0.56	2005-07-11 17:42:18.0	Ventana	34.319	01:26:23:24	6.262	V2683-02
 	transect	Mediaster	 	2687	 	 	 	1811803	 	2005-07-13 20:25:41.0	Ventana	 	03:50:39:11	 	V2687-04
 	descend	Praya	44.34	2683	 	36.700706	-122.05158	1756223	3.51	2005-07-11 16:15:10.0	Ventana	33.728	00:02:52:05	9.445	V2683-01
 	descend	Appendicularia	396.37	2682	 	36.698315	-122.05988	1720697	0.88	2005-07-08 17:37:21.0	Ventana	34.26	01:30:51:25	6.732	V2682-02
 	descend	Bathocyroe	1090.27	2683	 	36.705112	-122.048904	1757455	0.54	2005-07-11 19:28:36.0	Ventana	34.536	03:08:57:02	3.765	V2683-03
 	cruise	LRJ Complex	611.33	2688	 	36.795578	-122.01934	1677345	0.45	2005-07-14 16:35:39.0	Ventana	34.388	00:21:58:24	5.473	V2688-01
 	transect	Mesomyaria	800.38	2674	 	36.752037	-122.209	1800853	0.35	2005-06-08 18:14:37.0	Ventana	34.49	00:59:08:17	4.341	V2674-01
 	transect	Mediaster	 	2687	 	 	 	1811600	 	2005-07-13 20:17:02.0	Ventana	 	03:42:01:15	 	V2687-04
 	transect	Amphipoda	700.64	2681	 	36.69614	-122.05204	2497770	0.28	2005-07-07 18:43:17.0	Ventana	34.436	02:12:59:28	4.946	V2681-03HD
 	transect	Lycodes cortezianus	200.39	2696	 	36.804874	-122.127495	1813538	1.51	2005-08-01 17:57:54.0	Ventana	34.211	01:25:47:08	8.671	V2696-02
 	cruise	Allocentrotus fragilis	262.88	2688	 	36.809116	-122.020355	1677894	1.52	2005-07-14 18:27:20.0	Ventana	34.191	02:12:36:14	8.186	V2688-03
 	transect	Lycenchelys camchatica	800.38	2674	 	36.752426	-122.204704	1799644	0.36	2005-06-08 17:53:15.0	Ventana	34.488	00:37:48:07	4.355	V2674-01
 	transect	Mediaster	 	2687	 	 	 	1806967	 	2005-07-13 16:51:16.0	Ventana	 	00:18:11:00	 	V2687-01
 	descend	Appendicularia	891.89	2682	 	36.69826	-122.05945	1721772	0.34	2005-07-08 18:50:53.0	Ventana	34.493	02:43:55:12	4.309	V2682-03
 	transect	Phyllospadix	1000.2	2669	 	36.731762	-122.24477	1734457	0.4	2005-05-25 19:55:09.0	Ventana	34.507	02:16:39:07	4.072	V2669-03
 	transect	Nanomia bijuga	200.4	2681	 	36.698288	-122.05332	2491019	1.71	2005-07-07 17:10:52.0	Ventana	34.192	00:41:58:29	8.325	V2681-01HD
 	descend	Prayidae	499.14	2683	 	36.70148	-122.049385	1756795	0.69	2005-07-11 17:25:23.0	Ventana	34.303	01:09:30:16	6.471	V2683-02
 	transect	Rathbunaster californicus	197.71	2696	http://search.mbari.org/ARCHIVE/frameGrabs/Ventana/images/2696/00_20_32_03.jpg	36.80266	-122.12169	1813012	1.53	2005-08-01 16:52:12.0	Ventana	34.204	00:20:32:03	8.567	V2696-01
 	transect	Mesomyaria	1000.52	2669	 	36.732227	-122.248726	1736238	0.41	2005-05-25 20:24:29.0	Ventana	34.512	02:45:57:26	4.07	V2669-03
 	transect	Ceriantharia sp. 1	602.38	2680	 	36.790367	-122.23272	1806764	0.35	2005-06-27 20:18:50.0	Ventana	34.379	02:57:26:17	5.587	V2680-03
 	cruise	Anthomastus ritteri	425.64	2688	 	36.805614	-122.0191	1677714	0.93	2005-07-14 17:47:12.367	Ventana	34.263	01:32:56:08	6.946	V2688-02
 	transect	Psolus squamatus	 	2687	 	 	 	1807627	 	2005-07-13 17:18:35.0	Ventana	 	00:45:28:18	 	V2687-01
 	ascend	Nanomia	258.17	2681	 	36.697838	-122.05522	1719285	 	2005-07-07 21:29:59.0	Ventana	 	04:58:56:19	 	V2681-05
 	transect	Phyllospadix	1000.26	2669	 	36.731842	-122.245094	1735343	0.4	2005-05-25 19:57:29.0	Ventana	34.507	02:18:59:21	4.093	V2669-03
 	cruise	Chionoecetes tanneri	1212.86	2683	 	36.706654	-122.04767	1757635	0.72	2005-07-11 20:12:09.0	Ventana	34.57	03:46:31:23	3.336	V2683-04
 	transect	Phyllospadix	799.39	2674	 	36.75252	-122.204094	1799441	0.35	2005-06-08 17:49:35.0	Ventana	34.485	00:34:08:05	4.379	V2674-01
 	transect	Poeobius meseres	800.92	2681	 	36.69538	-122.05121	2498139	0.31	2005-07-07 18:55:27.0	Ventana	34.475	02:25:08:21	4.49	V2681-03HD
 	transect	molt	100.49	2681	 	36.69955	-122.054115	2489787	2.13	2005-07-07 16:50:44.0	Ventana	34.066	00:21:52:03	9.148	V2681-01HD
 	transect	Mesomyaria	999.66	2669	 	36.73109	-122.23519	1684285	0.45	2005-05-25 18:52:00.0	Ventana	34.521	01:14:00:21	3.922	V2669-02
 	transect	Pennatulacea sp.1	600.9	2680	 	36.78688	-122.23131	1805892	0.36	2005-06-27 19:42:55.0	Ventana	34.378	02:21:34:19	5.6	V2680-03
 	descend	Hormiphora	221.99	2681	 	36.6985	-122.053505	1713577	1.5	2005-07-07 17:15:11.49	Ventana	34.216	00:46:19:08	8.215	V2681-01
 	descend	Crustacea	745.73	2683	 	36.70235	-122.04893	1757118	0.28	2005-07-11 17:57:15.0	Ventana	34.449	01:41:21:00	4.784	V2683-02
 	transect	Mediaster	 	2687	 	 	 	1810714	 	2005-07-13 19:29:14.0	Ventana	 	02:54:57:24	 	V2687-03
 	descend	Copepoda	700.45	2681	 	36.695034	-122.05071	1716198	0.28	2005-07-07 18:48:34.633	Ventana	34.435	02:18:17:27	4.984	V2681-03
 	transect	Phyllospadix	800.62	2674	 	36.75263	-122.20187	1799118	0.34	2005-06-08 17:37:57.0	Ventana	34.479	00:22:30:28	4.403	V2674-01
 	transect	Mesomyaria	999.44	2669	 	36.73133	-122.23592	1684465	0.44	2005-05-25 18:57:06.0	Ventana	34.52	01:19:05:22	3.936	V2669-02
 	descend	sinker	702.74	2682	 	36.698605	-122.059975	1721449	0.29	2005-07-08 18:16:01.0	Ventana	34.428	02:09:06:02	5.023	V2682-03
 	transect	Phyllospadix	199.59	2696	 	36.80391	-122.12538	1813335	1.51	2005-08-01 17:36:31.0	Ventana	34.211	01:04:24:24	8.645	V2696-02
 	transect	Microstomus pacificus	203.5	2696	 	36.80646	-122.13003	1813764	1.48	2005-08-01 18:28:12.0	Ventana	34.213	01:56:03:04	8.628	V2696-02
 	ascend	Appendicularia	468.45	2683	 	36.70431	-122.05056	1758004	0.73	2005-07-11 21:17:31.0	Ventana	34.294	04:50:22:08	6.578	V2683-05
 	transect	cyclothone	300.41	2681	 	36.696926	-122.05246	2492431	1.23	2005-07-07 17:25:10.0	Ventana	34.234	00:56:16:02	7.393	V2681-01HD
 	ascend	Appendicularia	773.35	2681	 	36.698715	-122.05633	1717476	0.28	2005-07-07 20:07:28.1	Ventana	34.454	03:36:29:21	4.757	V2681-04
 	transect	Pennatulacea sp.1	599.73	2680	 	36.777424	-122.22255	1804277	0.36	2005-06-27 17:46:15.0	Ventana	34.379	00:26:22:04	5.583	V2680-01
 	ascend	Appendicularia	604.2	2682	 	36.698627	-122.06162	1723521	0.34	2005-07-08 20:57:05.0	Ventana	34.375	04:49:11:16	5.634	V2682-05
 	descend	Chaetognatha	234.42	2683	 	36.700974	-122.05067	1756426	1.71	2005-07-11 16:49:32.0	Ventana	34.188	00:37:11:19	8.12	V2683-01
 	transect	Phyllospadix	800.71	2674	 	36.752506	-122.20291	1799261	0.35	2005-06-08 17:43:04.0	Ventana	34.486	00:27:37:19	4.376	V2674-01
 	transect	Allocentrotus fragilis	 	2687	 	 	 	1811263	 	2005-07-13 20:05:30.0	Ventana	 	03:30:29:27	 	V2687-04
 	cruise	Pleuronectiformes	1015.05	2689	 	36.771572	-122.08294	1669639	0.5	2005-07-18 16:48:09.0	Ventana	34.532	00:11:13:15	3.848	V2689-01
 	transect	Careproctus melanurus	998.72	2669	http://search.mbari.org/ARCHIVE/frameGrabs/Ventana/images/2669/01_05_24_02.jpg	36.731174	-122.234245	1684082	0.45	2005-05-25 18:43:23.0	Ventana	34.521	01:05:24:02	3.915	V2669-02
 	ascend	sinker	939.76	2681	 	36.697536	-122.054	1716950	0.41	2005-07-07 19:42:39.167	Ventana	34.515	03:11:42:24	4.072	V2681-04
 	ascend	Aegina	818.17	2683	 	36.706665	-122.04862	1757838	0.35	2005-07-11 21:00:30.0	Ventana	34.491	04:33:23:17	4.354	V2683-05
 	transect	Sebastes diploproa	 	2687	 	 	 	1811743	 	2005-07-13 20:23:35.0	Ventana	 	03:48:33:28	 	V2687-04
 	transect	Mediaster	 	2687	 	 	 	1810511	 	2005-07-13 19:21:12.0	Ventana	 	02:46:56:15	 	V2687-03
 	transect	Ophiuroidea	999.25	2669	 	36.7314	-122.236145	1684608	0.44	2005-05-25 18:58:40.0	Ventana	34.521	01:20:39:29	3.944	V2669-02
 	transect	Mesomyaria	798.92	2674	 	36.751408	-122.21489	1801393	0.35	2005-06-08 18:43:43.0	Ventana	34.49	01:27:46:13	4.336	V2674-02
 	transect	Sergestes similis	300.46	2681	 	36.69801	-122.05337	2492062	1.23	2005-07-07 17:21:29.0	Ventana	34.233	00:52:37:03	7.401	V2681-01HD
 	transect	Mesomyaria	997.62	2669	 	36.730606	-122.22697	1649082	0.45	2005-05-25 17:53:51.0	Ventana	34.522	00:16:20:09	3.91	V2669-01
 	transect	Eptatretus stoutii	 	2687	http://search.mbari.org/ARCHIVE/frameGrabs/Ventana/images/2687/03_17_13_07.jpg	 	 	1811083	 	2005-07-13 19:52:12.0	Ventana	 	03:17:13:07	 	V2687-04
 	transect	Mesomyaria	802.19	2674	 	36.752254	-122.20682	1799981	0.37	2005-06-08 18:03:56.0	Ventana	34.49	00:48:27:22	4.326	V2674-01
 	transect	Psolus squamatus	399.88	2687	 	36.788124	-122.12167	1809265	1.13	2005-07-13 17:37:52.0	Ventana	34.243	01:04:14:15	7.254	V2687-02
 	transect	molt	100.54	2681	 	36.69983	-122.05429	2489607	2.13	2005-07-07 16:45:58.0	Ventana	34.067	00:17:07:07	9.149	V2681-01HD
 	ascend	Euphausiacea	166.15	2693	 	36.690655	-122.06297	1759250	1.95	2005-07-25 21:30:38.0	Ventana	34.119	03:55:09:28	8.93	V2693-04
 	transect	Physonectae	400.78	2681	 	36.696007	-122.051445	2492948	0.79	2005-07-07 17:42:01.0	Ventana	34.277	01:12:24:08	6.661	V2681-02HD
 	cruise	Anoplopoma fimbria	516.66	2688	 	36.80039	-122.019165	1677511	0.67	2005-07-14 17:16:25.333	Ventana	34.311	01:02:42:14	6.394	V2688-01
 	transect	Ceriantharia sp. 2	999.87	2669	 	36.731716	-122.243965	1734074	0.4	2005-05-25 19:49:58.0	Ventana	34.506	02:11:29:04	4.074	V2669-03
 	transect	Neptunea amianta	801.55	2674	 	36.751766	-122.210884	1801056	0.35	2005-06-08 18:23:39.0	Ventana	34.49	01:07:44:09	4.328	V2674-02
 	transect	Mediaster	 	2687	 	 	 	1808716	 	2005-07-13 17:27:44.0	Ventana	 	00:54:36:24	 	V2687-01
 	ascend	Appendicularia	295.16	2681	 	36.699726	-122.05523	1718196	1.33	2005-07-07 20:59:48.577	Ventana	34.226	04:28:09:16	7.66	V2681-05
 	transect	Mesomyaria	998.37	2669	 	36.73095	-122.230095	1651246	0.45	2005-05-25 18:15:00.0	Ventana	34.522	00:37:27:14	3.912	V2669-01
 	descend	Chaetognatha	371.87	2683	 	36.70141	-122.04982	1756592	1.08	2005-07-11 16:57:45.0	Ventana	34.245	00:45:24:26	7.027	V2683-01
 	ascend	Appendicularia	983.66	2681	 	36.696857	-122.05326	1716581	0.45	2005-07-07 19:34:50.017	Ventana	34.525	03:04:30:13	3.954	V2681-03
 	transect	Microstomus pacificus	 	2687	http://search.mbari.org/ARCHIVE/frameGrabs/Ventana/images/2687/00_26_47_23.jpg	 	 	1807101	 	2005-07-13 16:59:53.0	Ventana	 	00:26:47:23	 	V2687-01
 	transect	bathocyroe	600.6	2681	 	36.69608	-122.05166	2493700	0.3	2005-07-07 18:20:28.0	Ventana	34.388	01:50:50:25	5.49	V2681-02HD
 	transect	Bathyraja kincaidii	 	2687	http://search.mbari.org/ARCHIVE/frameGrabs/Ventana/images/2687/04_15_42_09.jpg	 	 	1812675	 	2005-07-13 20:51:12.0	Ventana	 	04:15:42:09	 	V2687-05
 	ascend	Appendicularia	635.2	2682	 	36.69887	-122.05972	1723387	0.32	2005-07-08 20:36:39.0	Ventana	34.389	04:28:47:03	5.432	V2682-05
 	transect	Merluccius productus	 	2687	 	 	 	1810880	 	2005-07-13 19:39:18.0	Ventana	 	03:05:00:14	 	V2687-03
 	transect	Nanomia bijuga	200.44	2681	 	36.69828	-122.05329	2490650	1.73	2005-07-07 17:08:01.0	Ventana	34.193	00:39:09:07	8.328	V2681-01HD
 	descend	Chaetognatha	242.36	2693	 	36.698524	-122.06171	1758387	1.5	2005-07-25 19:23:56.0	Ventana	34.239	02:03:56:06	8.498	V2693-02
 	transect	Poeobius meseres	1001.13	2681	 	36.694675	-122.050446	2498522	0.47	2005-07-07 19:20:45.0	Ventana	34.531	02:50:25:20	3.868	V2681-03HD
 	ascend	Chaetognatha	436.06	2682	 	36.69796	-122.062675	1723724	0.75	2005-07-08 21:20:02.0	Ventana	34.282	05:11:41:26	6.59	V2682-06
 	transect	Brisaster	1000.49	2669	 	36.732426	-122.24991	1736755	0.41	2005-05-25 20:32:20.0	Ventana	34.509	02:53:48:04	4.066	V2669-03
 	ascend	Appendicularia	377.02	2681	 	36.699356	-122.05476	1718016	0.94	2005-07-07 20:50:00.133	Ventana	34.268	04:18:21:21	7.008	V2681-05
 	descend	Appendicularia	339.14	2682	 	36.698784	-122.06058	1720180	1.05	2005-07-08 17:11:55.0	Ventana	34.251	01:05:27:21	7.153	V2682-02
 	cruise	mud	450.04	2688	 	36.80349	-122.01808	1677631	0.9	2005-07-14 17:37:01.0	Ventana	34.269	01:22:44:18	6.885	V2688-02
 	ascend	Appendicularia	393.72	2681	 	36.699306	-122.054565	1717993	0.93	2005-07-07 20:48:16.3	Ventana	34.266	04:16:37:14	6.914	V2681-05
 	transect	Psolus squamatus	 	2687	 	 	 	1808919	 	2005-07-13 17:32:01.0	Ventana	 	00:58:53:10	 	V2687-01
 	ascend	Appendicularia	863.77	2681	 	36.698475	-122.05556	1717356	0.34	2005-07-07 19:53:32.233	Ventana	34.498	03:22:35:06	4.316	V2681-04
 	transect	Nanomia bijuga	200.45	2681	 	36.69828	-122.05329	2490184	1.7	2005-07-07 17:05:34.0	Ventana	34.197	00:36:41:20	8.358	V2681-01HD
 	cruise	slope	93.4	2688	 	36.816006	-122.01679	1679389	1.95	2005-07-14 20:18:14.0	Ventana	34.094	04:02:59:02	8.931	V2688-04
 	transect	Ceriantharia sp. 2	1000.08	2669	 	36.73107	-122.23927	1689130	0.43	2005-05-25 19:22:50.0	Ventana	34.516	01:44:48:26	3.981	V2669-02
 	transect	Laminariales	802.36	2674	 	36.75232	-122.20575	1799838	0.36	2005-06-08 17:58:45.0	Ventana	34.489	00:43:17:22	4.333	V2674-01
 	ascend	Mysidae	1175.31	2683	 	36.707127	-122.04803	1757718	0.7	2005-07-11 20:26:44.0	Ventana	34.571	04:01:05:09	3.393	V2683-04
 	transect	Phyllospadix	196.35	2696	 	36.802998	-122.12252	1813072	1.55	2005-08-01 17:05:00.0	Ventana	34.199	00:33:18:14	8.608	V2696-01
 	transect	Poeobius meseres	1001.03	2681	 	36.695374	-122.05134	2498605	0.48	2005-07-07 19:24:24.0	Ventana	34.532	02:54:03:11	3.845	V2681-03HD
 	transect	Neptunea amianta	799.35	2674	 	36.75165	-122.21307	1801250	0.35	2005-06-08 18:32:00.0	Ventana	34.49	01:16:04:13	4.341	V2674-02
 	transect	Nanomia bijuga	200.4	2681	 	36.698284	-122.05331	2490936	1.71	2005-07-07 17:10:01.0	Ventana	34.195	00:41:08:18	8.323	V2681-01HD
 	transect	Phyllospadix	399.48	2687	 	36.78943	-122.12517	1809671	1.14	2005-07-13 18:32:20.0	Ventana	34.246	01:58:38:23	7.296	V2687-02
 	transect	Porifera sp. 1	 	2687	 	 	 	1810654	 	2005-07-13 19:27:13.0	Ventana	 	02:52:57:04	 	V2687-03
 	transect	Mediaster	 	2687	 	 	 	1812412	 	2005-07-13 20:37:34.0	Ventana	 	04:02:31:23	 	V2687-04
 	transect	Calycophorae	800.86	2681	 	36.696632	-122.05267	2498259	0.31	2005-07-07 19:01:11.0	Ventana	34.474	02:30:53:15	4.503	V2681-03HD
 	transect	Mesomyaria	998.9	2669	 	36.7311	-122.23492	1684202	0.45	2005-05-25 18:49:06.0	Ventana	34.522	01:11:06:07	3.919	V2669-02
 	descend	Tomopteris	438.65	2682	 	36.698296	-122.059685	1720757	0.62	2005-07-08 17:47:12.0	Ventana	34.302	01:40:42:15	6.38	V2682-02
 	descend	Nanomia	170.21	2683	 	36.7008	-122.051384	1756306	1.64	2005-07-11 16:33:31.0	Ventana	34.189	00:21:13:21	8.738	V2683-01
 	cruise	Pasiphaea	314.42	2676	 	36.80497	-122.03155	1676219	1.24	2005-06-14 16:21:11.633	Ventana	34.234	00:05:21:16	7.559	V2676-01
 	transect	Mesomyaria	805.9	2674	 	36.75039	-122.22179	1803760	0.34	2005-06-08 19:17:17.0	Ventana	34.486	02:01:19:01	4.405	V2674-02
 	transect	chuniphyes	700.62	2681	 	36.69582	-122.05168	2497853	0.28	2005-07-07 18:44:42.0	Ventana	34.434	02:14:24:26	4.948	V2681-03HD
 	transect	Gastropoda sp.2	999.58	2669	 	36.73142	-122.23661	1694695	0.44	2005-05-25 19:03:05.0	Ventana	34.521	01:25:04:13	3.938	V2669-02
 	transect	Mediaster	 	2687	 	 	 	1807507	 	2005-07-13 17:13:26.0	Ventana	 	00:40:19:10	 	V2687-01
 	transect	Ophiuroidea	1000.03	2669	 	36.73142	-122.23684	1686966	0.44	2005-05-25 19:04:43.0	Ventana	34.521	01:26:42:26	3.943	V2669-02
 	transect	Euphausia	200.37	2681	 	36.69832	-122.05343	2491282	1.66	2005-07-07 17:13:22.0	Ventana	34.2	00:44:30:25	8.341	V2681-01HD
 	transect	Pennatulacea sp.1	601.95	2680	 	36.791412	-122.23294	1806847	0.36	2005-06-27 20:27:48.0	Ventana	34.378	03:06:24:05	5.588	V2680-03
 	ascend	Chaetognatha	985.0	2682	 	36.697716	-122.05832	1722921	0.45	2005-07-08 20:06:38.0	Ventana	34.52	03:59:12:03	3.97	V2682-04
 	transect	Lycenchelys camchatica	799.99	2674	 	36.752655	-122.200485	1774122	0.29	2005-06-08 17:31:02.0	Ventana	34.46	00:15:35:28	4.653	V2674-01
 	transect	Solmaris	500.6	2681	 	36.6976	-122.05336	2493354	0.44	2005-07-07 17:56:23.0	Ventana	34.347	01:26:47:01	6.018	V2681-02HD
 	transect	Mesomyaria	1000.26	2669	 	36.731934	-122.247055	1735809	0.41	2005-05-25 20:12:14.0	Ventana	34.509	02:33:43:10	4.065	V2669-03
 	transect	Rathbunaster californicus	200.17	2696	 	36.80458	-122.12685	1813478	1.51	2005-08-01 17:51:25.0	Ventana	34.211	01:19:17:29	8.667	V2696-02
 	transect	molt	100.56	2681	 	36.69983	-122.05429	2489524	2.13	2005-07-07 16:43:47.0	Ventana	34.068	00:14:56:18	9.147	V2681-01HD
 	transect	Allocentrotus fragilis	399.86	2687	 	36.78812	-122.12163	1809242	1.13	2005-07-13 17:37:27.0	Ventana	34.243	01:03:49:25	7.255	V2687-02
 	descend	Chaetognatha	932.83	2683	 	36.703712	-122.0486	1757312	0.38	2005-07-11 19:07:46.0	Ventana	34.507	02:48:08:10	4.164	V2683-03
 	ascend	Aegina	643.95	2681	 	36.698853	-122.05421	1717670	0.28	2005-07-07 20:27:34.8	Ventana	34.4	03:56:35:05	5.351	V2681-04
 	descend	Chaetognatha	192.9	2683	 	36.70108	-122.0511	1756366	1.69	2005-07-11 16:45:17.0	Ventana	34.195	00:32:57:20	8.455	V2683-01
 	transect	trawl mark	800.43	2674	http://search.mbari.org/ARCHIVE/frameGrabs/Ventana/images/2674/01_34_48_01.jpg	36.751198	-122.21636	1803414	0.35	2005-06-08 18:50:45.0	Ventana	34.49	01:34:48:01	4.336	V2674-02
 	transect	molt	200.37	2681	 	36.698322	-122.05344	2491342	1.66	2005-07-07 17:13:36.0	Ventana	34.2	00:44:44:17	8.34	V2681-01HD
 	cruise	Lycodes	459.63	2676	 	36.802776	-122.02933	1676302	0.6	2005-06-14 16:35:38.0	Ventana	34.324	00:19:46:25	6.285	V2676-01
 	transect	Ceriantharia sp. 2	1000.59	2669	 	36.732372	-122.24959	1736561	0.41	2005-05-25 20:30:14.0	Ventana	34.509	02:51:42:07	4.07	V2669-03
 	descend	Appendicularia	410.36	2683	 	36.70143	-122.04956	1756652	0.92	2005-07-11 17:05:25.0	Ventana	34.264	00:53:05:02	6.886	V2683-01
 	ascend	Copepoda	325.24	2693	 	36.691784	-122.06198	1759047	1.29	2005-07-25 21:17:26.0	Ventana	34.236	03:41:57:11	7.559	V2693-04
 	transect	Mesomyaria	799.22	2674	 	36.752514	-122.20423	1799524	0.35	2005-06-08 17:50:28.0	Ventana	34.484	00:35:01:14	4.371	V2674-01
 	transect	Mediaster	 	2687	 	 	 	1811720	 	2005-07-13 20:22:22.0	Ventana	 	03:47:20:17	 	V2687-04
 	transect	Appendicularia	400.78	2681	 	36.696457	-122.05196	2493008	0.79	2005-07-07 17:43:55.0	Ventana	34.277	01:14:19:16	6.641	V2681-02HD
 	stationary	Appendicularia	501.92	2694	 	36.784554	-122.20048	1676565	0.78	2005-07-27 18:33:45.0	Ventana	34.281	01:16:27:17	6.541	V2694-02
 	ascend	Chaetognatha	264.31	2681	 	36.699524	-122.05449	1718422	1.41	2005-07-07 21:08:39.233	Ventana	34.23	04:36:59:04	7.91	V2681-05
 	transect	Phyllospadix	801.1	2674	 	36.75249	-122.19941	1773776	0.29	2005-06-08 17:23:18.0	Ventana	34.46	00:07:52:24	4.661	V2674-01
 	transect	Caridea sp.1	802.9	2674	 	36.750828	-122.220146	1803677	0.34	2005-06-08 19:07:16.0	Ventana	34.484	01:51:18:23	4.39	V2674-02
 	cruise	Microstomus pacificus	 	2687	 	 	 	1806907	 	2005-07-13 16:36:19.0	Ventana	 	00:03:14:16	 	V2687-01
 	transect	Mediaster	 	2687	 	 	 	1810737	 	2005-07-13 19:30:51.0	Ventana	 	02:56:34:03	 	V2687-03
 	transect	Sebastolobus	399.85	2687	 	36.78813	-122.12179	1809325	1.13	2005-07-13 17:39:33.0	Ventana	34.241	01:05:55:07	7.267	V2687-02
 	transect	Liponema brevicornis	 	2687	 	 	 	1811000	 	2005-07-13 19:47:10.0	Ventana	 	03:12:11:17	 	V2687-04
 	descend	Myctophidae	400.22	2681	 	36.695568	-122.05113	1715192	0.79	2005-07-07 17:35:00.527	Ventana	34.278	01:05:24:00	6.678	V2681-02
 	transect	Caridea sp.1	599.95	2680	 	36.77844	-122.22364	1804397	0.36	2005-06-27 17:58:49.0	Ventana	34.378	00:38:55:19	5.583	V2680-01
 	transect	Mesomyaria	799.49	2674	 	36.752506	-122.20443	1799584	0.35	2005-06-08 17:51:37.0	Ventana	34.485	00:36:09:17	4.38	V2674-01
 	transect	Mesomyaria	999.43	2669	 	36.730705	-122.2295	1651103	0.45	2005-05-25 18:10:24.0	Ventana	34.522	00:32:51:28	3.907	V2669-01
 	ascend	sinker	1145.19	2683	 	36.708218	-122.04919	1757778	0.67	2005-07-11 20:39:41.0	Ventana	34.564	04:14:01:29	3.474	V2683-04
 	transect	Phyllospadix	800.92	2674	 	36.752514	-122.202705	1799238	0.35	2005-06-08 17:42:09.0	Ventana	34.485	00:26:42:25	4.379	V2674-01
 	ascend	Copepoda	916.86	2681	 	36.697777	-122.05444	1717010	0.39	2005-07-07 19:46:07.767	Ventana	34.504	03:15:11:06	4.188	V2681-04
 	transect	Psolus squamatus	 	2687	 	 	 	1808573	 	2005-07-13 17:24:14.0	Ventana	 	00:51:07:07	 	V2687-01
 	descend	Leuroglossus stilbius	642.14	2681	 	36.697956	-122.05388	1715944	0.29	2005-07-07 18:30:04.1	Ventana	34.395	02:00:24:21	5.31	V2681-02
 	transect	Brisaster	 	2687	 	 	 	1812818	 	2005-07-13 20:59:16.0	Ventana	 	04:23:46:09	 	V2687-05
 	transect	molt	50.38	2681	 	36.69983	-122.05429	2485685	3.0	2005-07-07 16:37:34.0	Ventana	33.912	00:08:43:26	9.634	V2681-01HD
 	ascend	Chuniphyes	796.07	2682	 	36.698654	-122.05888	1723267	0.33	2005-07-08 20:24:53.0	Ventana	34.461	04:17:02:09	4.644	V2682-05
 	ascend	Aegina	577.88	2682	 	36.698353	-122.062386	1723581	0.37	2005-07-08 21:06:06.0	Ventana	34.364	04:58:12:27	5.771	V2682-05
 	ascend	Appendicularia	371.57	2683	 	36.70387	-122.0506	1758064	1.04	2005-07-11 21:21:34.0	Ventana	34.248	04:54:26:22	6.988	V2683-05
 	transect	Lycenchelys camchatica	999.76	2669	 	36.730972	-122.23138	1683625	0.45	2005-05-25 18:26:21.0	Ventana	34.521	00:48:47:20	3.918	V2669-01
 	descend	Nanomia	105.26	2681	 	36.69828	-122.05329	1713494	2.2	2005-07-07 16:57:46.567	Ventana	34.06	00:28:54:28	9.022	V2681-01
 	transect	Chaetognatha	1000.99	2681	 	36.69606	-122.05228	2498665	0.47	2005-07-07 19:28:07.0	Ventana	34.531	02:57:46:10	3.866	V2681-03HD
 	transect	Mesomyaria	999.71	2669	 	36.731422	-122.23699	1687432	0.44	2005-05-25 19:06:30.0	Ventana	34.521	01:28:29:06	3.939	V2669-02
 	transect	Mediaster	399.69	2687	 	36.789265	-122.12466	1809588	1.17	2005-07-13 18:22:10.0	Ventana	34.24	01:48:30:02	7.344	V2687-02
 	transect	Phyllospadix	 	2687	 	 	 	1812352	 	2005-07-13 20:33:45.0	Ventana	 	03:58:42:22	 	V2687-04
 	transect	Mesomyaria	1000.2	2669	 	36.73097	-122.233246	1683888	0.45	2005-05-25 18:38:05.0	Ventana	34.522	01:00:30:25	3.91	V2669-01
 	transect	Mesomyaria	1000.04	2669	 	36.731808	-122.24461	1734397	0.4	2005-05-25 19:54:11.0	Ventana	34.51	02:15:41:06	4.084	V2669-03
 	transect	Aegina	500.6	2681	 	36.697952	-122.053696	2493271	0.44	2005-07-07 17:54:59.0	Ventana	34.346	01:25:22:15	6.022	V2681-02HD
 	transect	Gastropoda sp.2	999.76	2669	 	36.73068	-122.22941	1695041	0.45	2005-05-25 18:09:32.0	Ventana	34.522	00:31:59:20	3.908	V2669-01
 	transect	Phyllospadix	800.63	2674	http://search.mbari.org/ARCHIVE/frameGrabs/Ventana/images/2674/01_02_19_06.jpg	36.75196	-122.20968	1800936	0.35	2005-06-08 18:18:14.0	Ventana	34.49	01:02:19:06	4.335	V2674-02
 	descend	Calycophorae	485.21	2682	 	36.69858	-122.05976	1720817	0.49	2005-07-08 17:58:11.0	Ventana	34.333	01:51:41:12	6.132	V2682-02
 	ascend	Sergestes similis	225.22	2693	 	36.69124	-122.0625	1759130	1.6	2005-07-25 21:23:36.0	Ventana	34.21	03:48:07:13	8.527	V2693-04
 	transect	Phyllospadix	196.47	2696	 	36.803154	-122.12286	1813132	1.55	2005-08-01 17:09:01.0	Ventana	34.2	00:37:19:23	8.619	V2696-01
 	ascend	Appendicularia	258.17	2681	 	36.697838	-122.05522	1719488	 	2005-07-07 21:29:59.0	Ventana	 	05:07:11:17	 	V2681-05
 	transect	Psolus squamatus	 	2687	 	 	 	1808633	 	2005-07-13 17:25:47.0	Ventana	 	00:52:40:00	 	V2687-01
 	transect	Calycophorae	500.61	2681	 	36.696156	-122.05168	2493617	0.43	2005-07-07 18:02:39.0	Ventana	34.347	01:33:02:28	6.009	V2681-02HD
 	stationary	cable	997.62	2679	http://search.mbari.org/ARCHIVE/frameGrabs/Ventana/images/2679/00_58_56_02.jpg	36.690422	-122.16628	1824377	0.47	2005-06-16 20:20:41.0	Ventana	34.532	00:58:56:02	3.872	V2679-01
 	descend	Chuniphyes	936.28	2681	 	36.69467	-122.0504	1716521	0.42	2005-07-07 19:18:04.5	Ventana	34.515	02:47:45:28	4.042	V2681-03
 	ascend	Appendicularia	532.35	2681	 	36.69897	-122.05425	1717730	0.42	2005-07-07 20:33:06.95	Ventana	34.35	04:02:07:29	6.003	V2681-04
 	ascend	Cydippida	199.39	2693	 	36.690807	-122.06272	1759190	1.7	2005-07-25 21:25:50.0	Ventana	34.191	03:50:22:09	8.939	V2693-04
 	transect	Psolus squamatus	399.87	2687	 	36.78806	-122.12152	1809182	1.13	2005-07-13 17:36:44.0	Ventana	34.241	01:03:06:20	7.262	V2687-02
 	transect	Brisaster	1000.22	2669	 	36.73138	-122.24171	1689850	0.4	2005-05-25 19:38:04.0	Ventana	34.509	02:00:01:23	4.076	V2669-02
 	ascend	Euphausiacea	261.3	2681	 	36.69883	-122.05699	1719031	1.42	2005-07-07 21:21:12.633	Ventana	34.232	04:49:31:23	7.954	V2681-05
 	transect	Psolus squamatus	 	2687	http://search.mbari.org/ARCHIVE/frameGrabs/Ventana/images/2687/03_08_25_05.jpg	 	 	1810940	 	2005-07-13 19:43:23.0	Ventana	 	03:08:25:05	 	V2687-04
 	transect	Brisaster	998.41	2669	 	36.73297	-122.252304	1737424	0.4	2005-05-25 20:47:11.0	Ventana	34.508	03:07:59:13	4.076	V2669-04
 	transect	Mesomyaria	997.52	2669	 	36.730556	-122.22735	1649142	0.45	2005-05-25 17:56:27.0	Ventana	34.52	00:18:56:01	3.909	V2669-01
 	transect	Mesomyaria	798.27	2674	 	36.751614	-122.21384	1801310	0.35	2005-06-08 18:37:17.0	Ventana	34.487	01:21:20:21	4.341	V2674-02
 	ascend	Appendicularia	531.37	2682	 	36.698334	-122.06292	1723641	0.43	2005-07-08 21:10:57.0	Ventana	34.348	05:02:38:15	6.025	V2682-06
 	cruise	Alepocephalus tenebrosus	611.48	2688	 	36.795887	-122.01998	1677368	0.45	2005-07-14 16:37:45.067	Ventana	34.382	00:24:04:17	5.517	V2688-01
 	transect	Psolus squamatus	 	2687	 	 	 	1811143	 	2005-07-13 19:56:29.0	Ventana	 	03:21:29:11	 	V2687-04
 	descend	Chuniphyes	798.12	2681	 	36.694912	-122.05055	1716318	0.32	2005-07-07 18:51:58.333	Ventana	34.474	02:21:41:12	4.511	V2681-03
 	cruise	Lycodes	438.55	2676	 	36.803253	-122.02925	1676362	0.64	2005-06-14 16:39:58.167	Ventana	34.316	00:24:06:11	6.387	V2676-01
 	cruise	Rathbunaster californicus	480.8	2688	 	36.80196	-122.0183	1677571	0.8	2005-07-14 17:27:18.0	Ventana	34.285	01:13:03:00	6.678	V2688-02
 	transect	Mesomyaria	1000.36	2669	 	36.73155	-122.242874	1694552	0.4	2005-05-25 19:43:49.0	Ventana	34.508	02:05:45:24	4.097	V2669-02
 	transect	Psolus squamatus	 	2687	 	 	 	1807221	 	2005-07-13 17:03:33.0	Ventana	 	00:30:27:18	 	V2687-01
 	transect	Psolus squamatus	 	2687	 	 	 	1808836	 	2005-07-13 17:30:15.0	Ventana	 	00:57:08:00	 	V2687-01
 	transect	Mediaster	 	2687	 	 	 	1812555	 	2005-07-13 20:45:29.0	Ventana	 	04:09:59:20	 	V2687-05
 	descend	Mysidae	1197.32	2682	 	36.698456	-122.05854	1722229	0.68	2005-07-08 19:27:48.0	Ventana	34.573	03:20:25:25	3.375	V2682-04
 	ascend	Appendicularia	349.58	2681	 	36.699333	-122.05512	1718076	1.08	2005-07-07 20:52:39.0	Ventana	34.254	04:20:59:27	7.207	V2681-05
 	transect	Mesomyaria	997.65	2669	 	36.730606	-122.22816	1649345	0.45	2005-05-25 18:01:33.0	Ventana	34.521	00:24:01:10	3.907	V2669-01
 	transect	Appendicularia	400.72	2681	 	36.6978	-122.0535	2493211	0.79	2005-07-07 17:49:35.0	Ventana	34.278	01:20:00:01	6.66	V2681-02HD
 	transect	Phyllospadix	1000.43	2669	 	36.730904	-122.23291	1683828	0.45	2005-05-25 18:36:01.0	Ventana	34.522	00:58:27:03	3.91	V2669-01
 	transect	molt	100.52	2681	 	36.69983	-122.05429	2489667	2.13	2005-07-07 16:47:25.0	Ventana	34.068	00:18:33:18	9.148	V2681-01HD
 	transect	Mesomyaria	999.99	2669	 	36.73122	-122.238266	1688844	0.43	2005-05-25 19:16:58.0	Ventana	34.517	01:38:56:10	3.967	V2669-02
 	transect	Gastropoda sp.2	1000.21	2669	 	36.73096	-122.233284	1695101	0.45	2005-05-25 18:38:09.0	Ventana	34.522	01:00:34:12	3.91	V2669-01
 	ascend	Chuniphyes	709.07	2682	 	36.69884	-122.05934	1723327	0.28	2005-07-08 20:31:37.0	Ventana	34.427	04:23:45:17	5.0	V2682-05
 	ascend	Nanomia	255.06	2681	 	36.69857	-122.05639	1719142	1.46	2005-07-07 21:23:47.763	Ventana	34.226	04:52:06:07	7.999	V2681-05
 	transect	Phyllospadix	802.96	2674	 	36.752277	-122.206116	1799898	0.36	2005-06-08 18:00:33.0	Ventana	34.486	00:45:04:29	4.338	V2674-01
 	transect	lobata	600.59	2681	 	36.696613	-122.05226	2493760	0.3	2005-07-07 18:22:51.0	Ventana	34.387	01:53:12:20	5.479	V2681-02HD
 	ascend	Chuniphyes	686.08	2681	 	36.698734	-122.05461	1717619	0.28	2005-07-07 20:22:09.867	Ventana	34.415	03:51:11:02	5.148	V2681-04
 	transect	Psolus squamatus	 	2687	 	 	 	1811457	 	2005-07-13 20:13:44.0	Ventana	 	03:38:43:10	 	V2687-04
 	transect	cyclothone	400.76	2681	 	36.696903	-122.05251	2493068	0.79	2005-07-07 17:45:54.0	Ventana	34.277	01:16:18:15	6.659	V2681-02HD
 	transect	Mesomyaria	1000.31	2669	 	36.7316	-122.24323	1733788	0.41	2005-05-25 19:45:54.0	Ventana	34.51	02:07:26:01	4.063	V2669-03
 	ascend	Beroe	377.78	2693	 	36.69581	-122.06062	1758784	1.19	2005-07-25 20:50:58.0	Ventana	34.234	03:15:30:25	7.154	V2693-04
 	ascend	Nanomia	258.17	2681	 	36.697838	-122.05522	1719345	 	2005-07-07 21:29:59.0	Ventana	 	05:01:43:19	 	V2681-05
 	transect	Mediaster	 	2687	 	 	 	1812758	 	2005-07-13 20:56:16.0	Ventana	 	04:20:45:23	 	V2687-05
 	transect	Sebastolobus	 	2687	 	 	 	1810248	 	2005-07-13 19:12:22.0	Ventana	 	02:38:06:22	 	V2687-03
 	transect	Phyllospadix	999.91	2669	 	36.731308	-122.238014	1688327	0.43	2005-05-25 19:14:57.0	Ventana	34.519	01:36:55:17	3.954	V2669-02
 	cruise	Chionoecetes tanneri	1227.32	2683	 	36.70595	-122.04776	1757575	0.73	2005-07-11 19:58:29.0	Ventana	34.576	03:32:51:17	3.333	V2683-04
 	transect	Mediaster	 	2687	 	 	 	1807567	 	2005-07-13 17:15:49.0	Ventana	 	00:42:42:25	 	V2687-01
 	descend	Gonatus	480.64	2688	 	36.793427	-122.0183	1677225	0.86	2005-07-14 16:15:02.0	Ventana	34.278	00:01:23:21	6.782	V2688-01
 	descend	Chaetognatha	138.63	2682	 	36.699837	-122.06067	1719894	2.21	2005-07-08 16:18:03.0	Ventana	34.104	00:12:08:25	8.684	V2682-01
 	transect	Pennatulacea sp.1	599.8	2680	 	36.77801	-122.223175	1804337	0.36	2005-06-27 17:53:17.0	Ventana	34.379	00:33:23:23	5.591	V2680-01
 	transect	Mesomyaria	802.7	2674	 	36.75179	-122.21024	1800996	0.36	2005-06-08 18:20:51.0	Ventana	34.491	01:04:56:19	4.317	V2674-02
 	transect	Mediaster	 	2687	 	 	 	1812209	 	2005-07-13 20:29:05.0	Ventana	 	03:54:03:03	 	V2687-04
 	transect	Psolus squamatus	 	2687	 	 	 	1810797	 	2005-07-13 19:35:01.0	Ventana	 	03:00:44:02	 	V2687-03
 	stationary	Merluccius productus	502.36	2694	 	36.784645	-122.20047	1676676	0.72	2005-07-27 20:35:22.0	Ventana	34.295	03:07:29:05	6.399	V2694-03
 	transect	Mesomyaria	998.86	2669	 	36.732838	-122.25149	1737221	0.41	2005-05-25 20:42:15.0	Ventana	34.509	03:03:03:29	4.072	V2669-04
 	transect	Phyllospadix	400.09	2687	 	36.78907	-122.12398	1809528	1.17	2005-07-13 18:12:03.0	Ventana	34.238	01:38:22:27	7.357	V2687-02
 	descend	Solmissus	286.02	2682	 	36.699406	-122.06071	1720097	1.21	2005-07-08 16:49:02.0	Ventana	34.244	00:43:04:28	7.444	V2682-01
 	descend	Euphausiacea	360.13	2682	 	36.698513	-122.06013	1720443	1.0	2005-07-08 17:32:33.0	Ventana	34.258	01:26:05:22	7.07	V2682-02
 	transect	Ophiuroidea	999.56	2669	 	36.73115	-122.235535	1684345	0.44	2005-05-25 18:54:06.0	Ventana	34.521	01:16:06:01	3.927	V2669-02
 	transect	Mesomyaria	 	2669	 	 	 	1737567	 	2005-05-25 13:51:39.0	Ventana	 	03:12:27:18	 	V2669-04
 	transect	Calliostoma platinum	 	2687	 	 	 	1808979	 	2005-07-13 17:32:58.0	Ventana	 	00:59:50:23	 	V2687-01
 	ascend	Solmissus	191.15	2683	 	36.70265	-122.0507	1758124	1.78	2005-07-11 21:29:26.0	Ventana	34.19	05:02:17:16	8.661	V2683-05
 	transect	Halipteris californica	598.42	2680	 	36.78202	-122.22706	1805089	0.35	2005-06-27 18:43:35.0	Ventana	34.377	01:22:40:15	5.579	V2680-02
 	transect	cyclothone	300.43	2681	 	36.69623	-122.05186	2492551	1.24	2005-07-07 17:27:29.0	Ventana	34.237	00:58:34:20	7.412	V2681-01HD
 	ascend	Arctapodema	952.04	2681	 	36.697395	-122.053764	1716867	0.42	2005-07-07 19:40:42.423	Ventana	34.516	03:09:45:20	4.055	V2681-04
 	cruise	rock outcrop	107.82	2688	http://search.mbari.org/ARCHIVE/frameGrabs/Ventana/images/2688/02_38_38_21.jpg	36.813038	-122.024055	20005222	1.95	2005-07-14 18:53:25.0	Ventana	34.097	02:38:38:21	8.899	V2688-03
 	transect	Lycenchelys camchatica	800.0	2674	 	36.752094	-122.20867	1800793	0.35	2005-06-08 18:12:50.0	Ventana	34.491	00:57:21:19	4.323	V2674-01
 	transect	Neptunea amianta	800.96	2674	 	36.751163	-122.217125	1803474	0.35	2005-06-08 18:54:03.0	Ventana	34.492	01:38:06:02	4.338	V2674-02
 	ascend	Copepoda	824.21	2681	 	36.69886	-122.056404	1717416	0.31	2005-07-07 19:58:31.7	Ventana	34.481	03:27:33:26	4.443	V2681-04
 	transect	Ophiuroidea	999.94	2669	 	36.731884	-122.24598	1735606	0.41	2005-05-25 20:03:18.0	Ventana	34.51	02:24:47:29	4.059	V2669-03
 	transect	Sebastolobus altivelis	800.37	2674	 	36.75256	-122.20228	1799178	0.34	2005-06-08 17:39:59.0	Ventana	34.479	00:24:33:06	4.433	V2674-01
 	descend	Chaetognatha	997.92	2683	 	36.704117	-122.04961	1757372	0.43	2005-07-11 19:16:10.0	Ventana	34.521	02:56:32:23	4.002	V2683-03
 	transect	Phyllospadix	198.48	2696	 	36.803677	-122.124626	1813275	1.53	2005-08-01 17:29:34.0	Ventana	34.204	00:57:51:19	8.617	V2696-01
 	transect	Phyllospadix	800.6	2674	 	36.752583	-122.2012	1774182	0.35	2005-06-08 17:34:40.0	Ventana	34.487	00:19:14:07	4.368	V2674-01
 	transect	Brisaster	1000.6	2669	 	36.73207	-122.24774	1736155	0.4	2005-05-25 20:16:59.0	Ventana	34.508	02:38:29:18	4.086	V2669-03
 	transect	Glyptocephalus zachirus	 	2687	 	 	 	1811660	 	2005-07-13 20:19:58.0	Ventana	 	03:44:56:17	 	V2687-04
 	transect	Lycodes cortezianus	203.38	2696	 	36.807373	-122.13104	1813824	1.47	2005-08-01 18:41:00.0	Ventana	34.219	02:08:05:10	8.625	V2696-03
 	transect	molt	100.49	2681	 	36.698944	-122.05372	2489870	2.12	2005-07-07 16:52:04.0	Ventana	34.07	00:23:12:17	9.148	V2681-01HD
 	transect	Phyllospadix	1000.14	2669	 	36.73105	-122.23967	1689190	0.41	2005-05-25 19:25:45.0	Ventana	34.51	01:47:43:24	4.061	V2669-02
 	cruise	Liponema brevicornis	504.32	2694	 	36.78411	-122.20071	1676159	0.75	2005-07-27 17:08:18.0	Ventana	34.294	00:01:26:21	6.479	V2694-01
 	transect	Gastropoda sp.2	1000.54	2669	 	36.732395	-122.24973	1736704	0.41	2005-05-25 20:31:22.0	Ventana	34.51	02:52:50:25	4.066	V2669-03
 	transect	Pennatulacea sp.1	603.05	2680	 	36.78828	-122.23222	1805952	0.36	2005-06-27 19:58:10.0	Ventana	34.378	02:36:48:19	5.591	V2680-03
 	descend	Solmissus	289.84	2681	 	36.69856	-122.05371	1713637	1.26	2005-07-07 17:18:37.9	Ventana	34.231	00:49:45:14	7.491	V2681-01
 	transect	Henricia sanguinolenta	 	2687	 	 	 	1812546	 	2005-07-13 20:45:03.0	Ventana	 	04:09:34:06	 	V2687-05
 	transect	Mesomyaria	800.79	2674	 	36.75112	-122.21726	1803488	0.35	2005-06-08 18:55:06.0	Ventana	34.493	01:39:09:00	4.344	V2674-02
 	transect	Umbellula lindahli	602.09	2680	 	36.7877	-122.231926	1805929	0.36	2005-06-27 19:52:31.0	Ventana	34.379	02:31:09:00	5.597	V2680-03
 	ascend	Hastigerinella digitata	347.26	2693	 	36.69382	-122.06111	1758904	1.25	2005-07-25 21:04:56.0	Ventana	34.234	03:29:28:17	7.383	V2693-04
 	transect	Microstomus pacificus	 	2687	 	 	 	1810197	 	2005-07-13 19:08:20.0	Ventana	 	02:34:04:29	 	V2687-03
 	transect	molt	100.54	2681	 	36.69983	-122.05429	2489658	2.13	2005-07-07 16:47:18.0	Ventana	34.069	00:18:27:18	9.147	V2681-01HD
 	transect	Mesomyaria	999.98	2669	 	36.731754	-122.24429	1734263	0.4	2005-05-25 19:51:46.0	Ventana	34.51	02:13:15:28	4.076	V2669-03
 	descend	Phialidium	812.01	2683	 	36.702682	-122.048676	1757169	0.36	2005-07-11 18:03:22.0	Ventana	34.471	01:47:27:11	4.534	V2683-02
 	descend	Euphausiacea	271.75	2683	 	36.700977	-122.05029	1756463	1.37	2005-07-11 16:51:57.0	Ventana	34.229	00:39:36:22	7.833	V2683-01
 	transect	Actiniaria sp. 1	801.76	2674	 	36.75178	-122.21077	1801047	0.36	2005-06-08 18:23:15.0	Ventana	34.492	01:07:19:25	4.322	V2674-02
 	transect	Ceriantharia sp. 2	999.25	2669	 	36.731007	-122.23174	1683676	0.45	2005-05-25 18:28:45.65	Ventana	34.521	00:51:12:18	3.913	V2669-01
 	ascend	Apolemia	261.2	2681	 	36.699444	-122.05457	1718496	1.41	2005-07-07 21:10:30.933	Ventana	34.232	04:38:50:07	7.936	V2681-05
 	transect	Sergestes similis	300.45	2681	 	36.697937	-122.053314	2492099	1.24	2005-07-07 17:21:45.0	Ventana	34.234	00:52:52:15	7.402	V2681-01HD
 	transect	Mesomyaria	1000.38	2669	 	36.73147	-122.24214	1694469	0.4	2005-05-25 19:40:21.0	Ventana	34.508	02:02:18:24	4.074	V2669-02
 	transect	Mediaster	 	2687	 	 	 	1811840	 	2005-07-13 20:26:52.0	Ventana	 	03:51:50:15	 	V2687-04
 	transect	Porifera	 	2687	 	 	 	1810903	 	2005-07-13 19:41:52.0	Ventana	 	03:06:54:02	 	V2687-04
 	transect	Ophiuroidea	998.95	2669	 	36.731403	-122.23653	1684797	0.44	2005-05-25 19:01:51.0	Ventana	34.52	01:23:50:19	3.939	V2669-02
 	transect	Phyllospadix	801.74	2674	 	36.752254	-122.207085	1800018	0.36	2005-06-08 18:05:07.0	Ventana	34.492	00:49:39:18	4.356	V2674-01
 	ascend	Poeobius meseres	955.34	2681	 	36.69732	-122.053734	1716853	0.42	2005-07-07 19:40:13.507	Ventana	34.517	03:09:17:09	4.048	V2681-04
 	stationary	lasers	 	2687	 	 	 	1806958	 	2005-07-13 16:50:46.0	Ventana	 	00:17:40:08	 	V2687-01
 	ascend	Appendicularia	426.68	2681	 	36.699085	-122.05423	1717790	0.74	2005-07-07 20:38:07.933	Ventana	34.281	04:07:08:04	6.613	V2681-04
 	cruise	Chionoecetes tanneri	1222.89	2683	 	36.70616	-122.04771	1757584	0.73	2005-07-11 20:00:40.0	Ventana	34.571	03:35:02:28	3.335	V2683-04
 	transect	Ophiuroidea	998.23	2669	 	36.731056	-122.23037	1651297	0.45	2005-05-25 18:17:29.0	Ventana	34.521	00:39:56:12	3.908	V2669-01
 	transect	Psolus squamatus	399.86	2687	http://search.mbari.org/ARCHIVE/frameGrabs/Ventana/images/2687/01_02_12_24.jpg	36.788044	-122.12152	1809076	1.14	2005-07-13 17:35:50.0	Ventana	34.237	01:02:12:24	7.276	V2687-02
 	ascend	Mysidae	895.52	2681	 	36.69806	-122.05491	1717176	0.37	2005-07-07 19:49:30.033	Ventana	34.505	03:18:33:08	4.209	V2681-04
 	transect	Mesomyaria	1000.15	2669	 	36.73118	-122.24046	1689264	0.41	2005-05-25 19:30:30.0	Ventana	34.51	01:52:27:19	4.059	V2669-02
 	descend	Chuniphyes	482.29	2681	 	36.698112	-122.053894	1715349	0.48	2005-07-07 17:53:11.467	Ventana	34.338	01:23:34:10	6.089	V2681-02
 	transect	Nanomia bijuga	200.45	2681	 	36.69828	-122.05329	2490073	1.7	2005-07-07 17:04:32.0	Ventana	34.197	00:35:40:01	8.362	V2681-01HD
 	transect	Neptunea amianta	1001.04	2669	 	36.73229	-122.24929	1736289	0.4	2005-05-25 20:27:51.0	Ventana	34.508	02:49:20:07	4.072	V2669-03
 	ascend	Poeobius meseres	562.01	2683	 	36.70457	-122.050644	1757967	0.37	2005-07-11 21:13:44.0	Ventana	34.362	04:46:35:03	5.878	V2683-05
 	transect	Sebastes diploproa	 	2687	 	 	 	1810520	 	2005-07-13 19:21:41.0	Ventana	 	02:47:24:25	 	V2687-03
 	transect	Mesomyaria	999.98	2669	 	36.731113	-122.238625	1688881	0.43	2005-05-25 19:18:57.0	Ventana	34.525	01:40:55:16	3.98	V2669-02
 	transect	Actiniaria sp. 3	 	2687	http://search.mbari.org/ARCHIVE/frameGrabs/Ventana/images/2687/00_54_09_20.jpg	 	 	1808693	 	2005-07-13 17:27:17.0	Ventana	 	00:54:09:20	 	V2687-01
 	transect	Porifera sp. 1	 	2687	 	 	 	1811226	 	2005-07-13 20:04:55.0	Ventana	 	03:29:55:01	 	V2687-04
 	descend	Myctophidae	642.72	2682	 	36.69864	-122.059906	1721320	0.28	2005-07-08 18:09:43.0	Ventana	34.401	02:02:46:23	5.31	V2682-03
 	descend	Hormiphora	192.84	2693	 	36.696087	-122.05817	1758290	1.81	2005-07-25 18:14:53.0	Ventana	34.18	00:55:22:09	8.894	V2693-01
 	transect	Lycenchelys camchatica	799.86	2674	 	36.752533	-122.203896	1799404	0.35	2005-06-08 17:48:18.0	Ventana	34.488	00:32:51:05	4.37	V2674-01
 	transect	Calycophorae	500.63	2681	 	36.69637	-122.05192	2493603	0.44	2005-07-07 18:01:41.0	Ventana	34.347	01:32:04:00	6.011	V2681-02HD
 	ascend	Chaetognatha	592.98	2682	 	36.698784	-122.06081	1723470	0.4	2005-07-08 20:48:02.0	Ventana	34.371	04:40:09:17	5.666	V2682-05
 	ascend	Cydippida	186.34	2693	 	36.69061	-122.062904	1759227	1.89	2005-07-25 21:29:19.0	Ventana	34.16	03:53:51:19	8.869	V2693-04
 	transect	Euphausia	200.41	2681	 	36.698296	-122.05335	2491102	1.69	2005-07-07 17:11:48.0	Ventana	34.198	00:42:56:20	8.335	V2681-01HD
 	descend	Appendicularia	900.8	2683	 	36.703297	-122.048325	1757261	0.37	2005-07-11 18:32:23.0	Ventana	34.494	02:12:46:22	4.239	V2683-03
 	transect	Brisaster	1000.24	2669	 	36.73107	-122.23979	1689204	0.41	2005-05-25 19:26:44.0	Ventana	34.511	01:48:41:21	4.063	V2669-02
 	transect	Hastigerinella digitata	300.42	2681	 	36.69675	-122.052315	2492482	1.23	2005-07-07 17:25:46.0	Ventana	34.234	00:56:53:06	7.397	V2681-01HD
 	cruise	Pleuronectiformes	538.61	2688	 	36.798313	-122.019615	1677442	0.62	2005-07-14 17:01:29.0	Ventana	34.323	00:47:47:24	6.254	V2688-01
 	ascend	Prayidae	665.02	2683	 	36.705395	-122.04969	1757907	0.28	2005-07-11 21:08:16.0	Ventana	34.422	04:41:08:14	5.089	V2683-05
 	transect	Phyllospadix	801.03	2674	 	36.75255	-122.201355	1774196	0.34	2005-06-08 17:35:23.0	Ventana	34.482	00:19:56:15	4.38	V2674-01
 	transect	Psolus squamatus	 	2687	 	 	 	1809016	 	2005-07-13 17:33:36.0	Ventana	 	01:00:28:11	 	V2687-01
 	cruise	block	103.46	2688	http://search.mbari.org/ARCHIVE/frameGrabs/Ventana/images/2688/03_25_07_18.jpg	36.815056	-122.01593	1679269	1.97	2005-07-14 19:40:22.0	Ventana	34.088	03:25:07:18	8.894	V2688-04
 	cruise	Chionoecetes tanneri	1210.99	2683	 	36.706734	-122.04762	1757644	0.73	2005-07-11 20:12:49.0	Ventana	34.578	03:47:11:20	3.341	V2683-04
 	transect	Halicreas minimum	700.66	2681	 	36.697723	-122.05358	2497627	0.29	2005-07-07 18:36:41.0	Ventana	34.435	02:06:25:00	4.975	V2681-03HD
 	descend	Appendicularia	492.86	2683	 	36.70147	-122.04938	1756786	0.71	2005-07-11 17:24:25.0	Ventana	34.298	01:08:31:27	6.521	V2683-02
 	transect	Phyllospadix	801.1	2674	 	36.752544	-122.201645	1799081	0.34	2005-06-08 17:36:43.0	Ventana	34.483	00:21:17:01	4.416	V2674-01
 	transect	Phyllospadix	800.08	2674	 	36.75254	-122.20353	1799344	0.35	2005-06-08 17:46:26.0	Ventana	34.485	00:30:59:14	4.367	V2674-01
 	transect	Mediaster	 	2687	 	 	 	1812223	 	2005-07-13 20:29:32.0	Ventana	 	03:54:29:27	 	V2687-04
 	transect	Mesomyaria	1000.23	2669	 	36.73168	-122.24374	1733880	0.41	2005-05-25 19:48:24.0	Ventana	34.507	02:09:56:16	4.068	V2669-03
 	transect	Allocentrotus fragilis	 	2687	 	 	 	1811286	 	2005-07-13 20:05:34.0	Ventana	 	03:30:33:21	 	V2687-04
 	cruise	Gorgonocephalus	99.02	2688	 	36.812965	-122.0208	1679532	1.93	2005-07-14 21:29:24.527	Ventana	34.11	05:13:37:13	8.872	V2688-05
 	transect	molt	100.52	2681	 	36.69983	-122.05429	2489598	2.12	2005-07-07 16:45:46.0	Ventana	34.068	00:16:56:05	9.15	V2681-01HD
 	transect	Mesomyaria	997.42	2669	 	36.730633	-122.22802	1649331	0.45	2005-05-25 18:00:49.0	Ventana	34.522	00:23:17:05	3.908	V2669-01
 	transect	Mesomyaria	998.22	2669	 	36.73118	-122.23452	1684151	0.45	2005-05-25 18:46:02.0	Ventana	34.522	01:08:02:09	3.916	V2669-02
 	descend	Chaetognatha	367.08	2693	 	36.6964	-122.060524	1758613	1.2	2005-07-25 20:14:09.0	Ventana	34.232	02:53:43:08	7.189	V2693-03
 	transect	Phyllospadix	801.02	2674	 	36.75213	-122.20821	1800724	0.35	2005-06-08 18:10:42.0	Ventana	34.49	00:55:13:23	4.32	V2674-01
 	transect	Mesomyaria	999.35	2669	 	36.730503	-122.22864	1650914	0.45	2005-05-25 18:04:32.0	Ventana	34.522	00:26:59:09	3.906	V2669-01
 	transect	Lycenchelys camchatica	799.14	2674	 	36.751743	-122.21237	1801199	0.35	2005-06-08 18:29:25.0	Ventana	34.491	01:13:29:16	4.33	V2674-02
 	transect	Microstomus pacificus	 	2687	 	 	 	1810137	 	2005-07-13 18:59:06.0	Ventana	 	02:24:51:03	 	V2687-03
 	transect	Psolus squamatus	 	2687	http://search.mbari.org/ARCHIVE/frameGrabs/Ventana/images/2687/03_40_03_15.jpg	 	 	1811517	 	2005-07-13 20:15:04.0	Ventana	 	03:40:03:15	 	V2687-04
 	transect	Rathbunaster californicus	199.58	2696	 	36.803978	-122.12553	1813344	1.52	2005-08-01 17:37:55.0	Ventana	34.208	01:05:48:21	8.645	V2696-02
 	transect	Ceriantharia sp. 1	598.94	2680	 	36.780163	-122.2252	1804609	0.35	2005-06-27 18:19:32.0	Ventana	34.383	00:59:37:19	5.549	V2680-01
 	ascend	Chuniphyes	732.71	2681	 	36.698715	-122.05542	1717559	0.26	2005-07-07 20:17:06.733	Ventana	34.441	03:46:08:07	4.863	V2681-04
 	transect	Euphausia	200.45	2681	 	36.69828	-122.05329	2490719	1.71	2005-07-07 17:08:29.0	Ventana	34.193	00:39:36:23	8.323	V2681-01HD
 	transect	Nanomia bijuga	200.39	2681	 	36.698303	-122.053375	2491162	1.68	2005-07-07 17:12:22.0	Ventana	34.198	00:43:30:14	8.337	V2681-01HD
 	ascend	sinker	933.47	2682	 	36.69785	-122.05851	1723087	0.4	2005-07-08 20:11:33.0	Ventana	34.51	04:03:42:16	4.141	V2682-05
 	descend	Cyclothone	354.99	2682	 	36.698624	-122.06039	1720323	1.02	2005-07-08 17:21:48.0	Ventana	34.254	01:15:20:05	7.097	V2682-02
 	ascend	Nanomia	212.47	2682	 	36.696583	-122.06082	1723761	1.96	2005-07-08 21:30:43.0	Ventana	34.159	05:22:22:23	7.99	V2682-06
 	descend	Nanomia	213.53	2693	 	36.696056	-122.05823	1758350	1.69	2005-07-25 18:26:40.0	Ventana	34.191	01:06:44:29	8.613	V2693-02
 	transect	Chaetognatha	400.71	2681	 	36.697857	-122.05356	2493220	0.79	2005-07-07 17:49:49.0	Ventana	34.278	01:20:13:10	6.66	V2681-02HD
 	transect	Mesomyaria	802.89	2674	 	36.75181	-122.21014	1800987	0.36	2005-06-08 18:20:25.0	Ventana	34.49	01:04:30:19	4.316	V2674-02
 	transect	Xeneretmus	 	2687	http://search.mbari.org/ARCHIVE/frameGrabs/Ventana/images/2687/00_55_30_08.jpg	 	 	1808753	 	2005-07-13 17:28:38.0	Ventana	 	00:55:30:08	 	V2687-01
 	descend	Calycophorae	811.15	2682	 	36.698334	-122.05959	1721703	0.31	2005-07-08 18:40:18.0	Ventana	34.475	02:33:20:23	4.52	V2682-03
 	descend	Appendicularia	320.49	2683	 	36.70116	-122.05011	1756523	1.22	2005-07-11 16:54:50.0	Ventana	34.24	00:42:29:21	7.552	V2683-01
 	transect	Mesomyaria	1000.13	2669	http://search.mbari.org/ARCHIVE/frameGrabs/Ventana/images/2669/01_02_14_13.jpg	36.73094	-122.233734	1683939	0.45	2005-05-25 18:40:13.0	Ventana	34.523	01:02:14:13	3.911	V2669-02
 	descend	Appendicularia	380.97	2682	 	36.698437	-122.05994	1720674	0.93	2005-07-08 17:35:22.0	Ventana	34.259	01:28:52:17	6.973	V2682-02
 	transect	Poeobius meseres	700.63	2681	 	36.69625	-122.05217	2497747	0.28	2005-07-07 18:42:47.0	Ventana	34.434	02:12:31:01	4.955	V2681-03HD
 	transect	Phyllospadix	 	2687	 	 	 	1807493	 	2005-07-13 17:11:30.0	Ventana	 	00:38:24:07	 	V2687-01
 	cruise	Sebastolobus	612.12	2688	 	36.79506	-122.019035	1677322	0.44	2005-07-14 16:32:32.0	Ventana	34.39	00:18:52:11	5.457	V2688-01
 	transect	Stomphia	1000.03	2669	 	36.732594	-122.25033	1736967	0.41	2005-05-25 20:35:35.0	Ventana	34.51	02:57:02:13	4.068	V2669-03
 	transect	Euphausia	200.5	2681	 	36.69828	-122.05329	2490516	1.71	2005-07-07 17:07:14.0	Ventana	34.197	00:38:23:00	8.341	V2681-01HD
 	transect	Mesomyaria	805.62	2674	 	36.75041	-122.22172	1803751	0.34	2005-06-08 19:16:44.0	Ventana	34.482	02:00:45:28	4.411	V2674-02
 	transect	Ophiuroidea	998.46	2669	 	36.731075	-122.23064	1651357	0.45	2005-05-25 18:19:08.0	Ventana	34.523	00:41:35:11	3.91	V2669-01
 	ascend	Copepoda	1149.62	2682	 	36.69823	-122.05748	1722501	0.62	2005-07-08 19:54:54.0	Ventana	34.561	03:47:29:02	3.509	V2682-04
 	transect	Mesomyaria	 	2669	 	 	 	1737673	 	2005-05-25 13:56:19.0	Ventana	 	03:17:06:11	 	V2669-04
 	descend	Appendicularia	524.62	2683	 	36.70147	-122.04913	1756906	0.58	2005-07-11 17:41:58.0	Ventana	34.319	01:26:04:15	6.282	V2683-02
 	transect	Mediaster	 	2687	 	 	 	1812283	 	2005-07-13 20:30:46.0	Ventana	 	03:55:44:11	 	V2687-04
 	transect	Solmissus	400.81	2681	 	36.69607	-122.05153	2492957	0.79	2005-07-07 17:42:19.0	Ventana	34.278	01:12:42:10	6.661	V2681-02HD
 	descend	Chaetognatha	332.2	2693	 	36.697124	-122.06014	1758553	1.29	2005-07-25 19:56:21.0	Ventana	34.237	02:35:56:12	7.582	V2693-03
 	transect	Phyllospadix	800.87	2674	 	36.75259	-122.20197	1799141	0.34	2005-06-08 17:38:42.0	Ventana	34.477	00:23:15:27	4.4	V2674-01
 	transect	Rathbunaster californicus	201.0	2696	 	36.805256	-122.12819	1813607	1.5	2005-08-01 18:04:02.0	Ventana	34.211	01:31:54:25	8.668	V2696-02
 	descend	Aegina	663.47	2682	 	36.69865	-122.059944	1721380	0.28	2005-07-08 18:11:13.0	Ventana	34.411	02:04:18:26	5.201	V2682-03
 	transect	Mesomyaria	999.71	2669	 	36.73194	-122.24624	1735643	0.41	2005-05-25 20:06:02.0	Ventana	34.51	02:27:32:23	4.063	V2669-03
 	transect	Sebastolobus	1000.15	2669	 	36.731987	-122.24717	1735846	0.41	2005-05-25 20:13:10.0	Ventana	34.51	02:34:40:28	4.068	V2669-03
 	ascend	Poeobius meseres	901.36	2682	 	36.698196	-122.05843	1723207	0.36	2005-07-08 20:14:18.0	Ventana	34.494	04:06:27:05	4.267	V2682-05
 	transect	Mediaster	 	2687	 	 	 	1812809	 	2005-07-13 20:58:53.0	Ventana	 	04:23:22:28	 	V2687-05
 	cruise	Asteroidea	93.31	2688	 	36.817062	-122.01489	1679329	1.99	2005-07-14 20:01:40.0	Ventana	34.086	03:46:25:27	8.911	V2688-04
 	descend	Appendicularia	215.32	2683	 	36.701004	-122.05078	1756403	1.69	2005-07-11 16:48:20.0	Ventana	34.195	00:35:59:11	8.283	V2683-01
 	ascend	Leuroglossus stilbius	435.82	2683	 	36.70419	-122.05058	1758027	0.8	2005-07-11 21:18:49.0	Ventana	34.281	04:51:41:11	6.719	V2683-05
 	transect	Sebastes saxicola	199.57	2696	http://search.mbari.org/ARCHIVE/frameGrabs/Ventana/images/2696/01_11_16_27.jpg	36.804245	-122.126045	1813404	1.52	2005-08-01 17:43:23.0	Ventana	34.21	01:11:16:27	8.662	V2696-02
 	transect	Mesomyaria	798.75	2674	 	36.751373	-122.21511	1801402	0.35	2005-06-08 18:44:23.0	Ventana	34.489	01:28:26:25	4.339	V2674-02
 	transect	Mysidae 2	901.0	2681	 	36.69543	-122.05124	2498453	0.39	2005-07-07 19:13:48.0	Ventana	34.505	02:43:28:22	4.171	V2681-03HD
 	ascend	Appendicularia	739.18	2683	 	36.706192	-122.04857	1757847	0.31	2005-07-11 21:03:55.0	Ventana	34.455	04:36:48:05	4.717	V2683-05
 	transect	Psolus squamatus	 	2687	 	 	 	1807696	 	2005-07-13 17:23:06.0	Ventana	 	00:49:59:04	 	V2687-01
 	transect	Nanomia bijuga	200.44	2681	 	36.69828	-122.05329	2490336	1.7	2005-07-07 17:07:02.0	Ventana	34.198	00:38:11:02	8.347	V2681-01HD
 	transect	Mediaster	 	2687	 	 	 	1812606	 	2005-07-13 20:46:58.0	Ventana	 	04:11:29:00	 	V2687-05
 	transect	molt	100.49	2681	 	36.699825	-122.05429	2489718	2.13	2005-07-07 16:48:35.0	Ventana	34.067	00:19:43:27	9.151	V2681-01HD
 	descend	Copepoda	1160.32	2682	 	36.69821	-122.05922	1722178	0.62	2005-07-08 19:13:42.0	Ventana	34.562	03:06:19:16	3.491	V2682-04
 	transect	Phyllospadix	800.98	2674	 	36.75102	-122.218094	1803548	0.35	2005-06-08 18:58:40.0	Ventana	34.492	01:42:42:17	4.326	V2674-02
 	transect	Caridea sp.1	600.62	2680	 	36.786236	-122.230934	1805869	0.36	2005-06-27 19:35:58.0	Ventana	34.374	02:14:37:05	5.602	V2680-03
 	transect	Rathbunaster californicus	 	2687	 	 	 	1812486	 	2005-07-13 20:41:16.0	Ventana	 	04:06:13:20	 	V2687-04
 	transect	Appendicularia	400.76	2681	 	36.69751	-122.05319	2493160	0.79	2005-07-07 17:48:25.0	Ventana	34.277	01:18:47:24	6.66	V2681-02HD
 	transect	Neptunea amianta	599.8	2680	 	36.78334	-122.22876	1805375	0.35	2005-06-27 19:06:13.0	Ventana	34.379	01:45:17:19	5.587	V2680-02
 	transect	poeobius-meseres	600.54	2681	 	36.69784	-122.05375	2493866	0.3	2005-07-07 18:28:25.0	Ventana	34.389	01:58:47:04	5.477	V2681-02HD
 	transect	Mediaster	 	2687	 	 	 	1807313	 	2005-07-13 17:06:05.0	Ventana	 	00:32:59:09	 	V2687-01
 	descend	Appendicularia	538.23	2682	 	36.698612	-122.05978	1720877	0.37	2005-07-08 18:03:49.0	Ventana	34.366	01:57:17:13	5.764	V2682-02
 	transect	Microstomus pacificus	 	2687	 	 	 	1807170	 	2005-07-13 17:02:29.0	Ventana	 	00:29:23:09	 	V2687-01
 	descend	Dosidicus gigas	502.55	2681	 	36.698097	-122.05387	1715469	0.45	2005-07-07 17:53:56.323	Ventana	34.343	01:24:18:04	6.03	V2681-02
 	descend	Appendicularia	465.77	2683	 	36.701702	-122.0493	1756726	0.78	2005-07-11 17:10:14.0	Ventana	34.283	00:57:53:22	6.664	V2683-01
 	transect	Phyllospadix	204.19	2696	 	36.80596	-122.129486	1813727	1.49	2005-08-01 18:20:56.0	Ventana	34.209	01:48:47:16	8.634	V2696-02
 	transect	Mesomyaria	999.62	2669	 	36.730988	-122.232346	1683736	0.45	2005-05-25 18:32:03.0	Ventana	34.521	00:54:29:20	3.914	V2669-01
 	ascend	Calycophorae	977.66	2681	 	36.696934	-122.05337	1716590	0.44	2005-07-07 19:36:07.6	Ventana	34.52	03:05:48:13	3.992	V2681-03
 	ascend	sinker	1011.32	2682	 	36.697727	-122.05818	1722884	0.46	2005-07-08 20:05:13.0	Ventana	34.526	03:57:49:10	3.916	V2682-04
 	ascend	Appendicularia	1188.51	2683	 	36.70735	-122.04765	1757704	0.71	2005-07-11 20:22:56.0	Ventana	34.575	03:57:18:28	3.372	V2683-04
 	transect	Allocentrotus fragilis	 	2687	 	 	 	1809985	 	2005-07-13 18:49:26.0	Ventana	 	02:15:12:00	 	V2687-03
 	stationary	Appendicularia	501.76	2695	 	36.784595	-122.20046	1824428	0.87	2005-07-28 17:19:09.0	Ventana	34.264	00:25:31:00	6.68	V2695-01
 	transect	Mesomyaria	799.29	2674	 	36.75165	-122.21316	1801259	0.35	2005-06-08 18:32:24.0	Ventana	34.489	01:16:27:28	4.347	V2674-02
 	transect	bolinopsis	200.43	2681	 	36.69828	-122.05329	2490133	1.7	2005-07-07 17:05:04.0	Ventana	34.197	00:36:12:12	8.358	V2681-01HD
 	transect	Mesomyaria	1000.49	2669	 	36.732212	-122.24862	1736229	0.41	2005-05-25 20:23:21.0	Ventana	34.51	02:44:50:09	4.061	V2669-03
 	transect	Mesomyaria	999.0	2669	 	36.731415	-122.2362	1684677	0.44	2005-05-25 18:59:03.0	Ventana	34.52	01:21:02:22	3.94	V2669-02
 	descend	Copepoda	879.97	2682	 	36.69828	-122.05944	1721763	0.33	2005-07-08 18:50:13.0	Ventana	34.49	02:43:16:21	4.34	V2682-03
 	descend	Cydippida	364.74	2683	 	36.70137	-122.04984	1756583	1.12	2005-07-11 16:57:21.0	Ventana	34.236	00:45:00:12	7.121	V2683-01
 	transect	Phyllospadix	196.84	2696	 	36.80265	-122.12169	1813021	1.52	2005-08-01 16:55:19.0	Ventana	34.204	00:23:38:03	8.573	V2696-01
 	transect	Umbellula lindahli	599.35	2680	 	36.77926	-122.22433	1804489	0.36	2005-06-27 18:07:33.0	Ventana	34.377	00:47:38:29	5.6	V2680-01
 	cruise	boulder	251.57	2676	 	36.80565	-122.02948	1676736	1.55	2005-06-14 17:37:06.0	Ventana	34.208	01:16:50:22	8.026	V2676-02
 	transect	Phyllospadix	800.5	2674	 	36.75249	-122.203094	1799284	0.34	2005-06-08 17:43:56.0	Ventana	34.479	00:28:29:17	4.411	V2674-01
 	transect	Diogenidae	602.54	2680	 	36.79024	-122.23269	1806755	0.35	2005-06-27 20:17:42.0	Ventana	34.379	02:56:18:09	5.587	V2680-03
 	transect	lobata	1001.0	2681	 	36.695908	-122.05208	2498656	0.47	2005-07-07 19:27:29.0	Ventana	34.53	02:57:08:17	3.868	V2681-03HD
 	transect	Mesomyaria	999.37	2669	 	36.73102	-122.23118	1683556	0.45	2005-05-25 18:24:35.0	Ventana	34.522	00:47:02:03	3.91	V2669-01
 	ascend	tether	471.27	2682	 	36.698338	-122.06314	1723701	0.58	2005-07-08 21:16:59.0	Ventana	34.309	05:08:40:01	6.297	V2682-06
 	descend	Chaetognatha	257.81	2693	 	36.69831	-122.06166	1758410	1.41	2005-07-25 19:26:30.0	Ventana	34.252	02:06:31:18	8.275	V2693-02
 	ascend	Appendicularia	765.92	2681	 	36.698666	-122.0561	1717499	0.29	2005-07-07 20:10:24.83	Ventana	34.451	03:39:26:22	4.787	V2681-04
 	ascend	Cyclothone	370.88	2693	 	36.69655	-122.06061	1758701	1.2	2005-07-25 20:29:27.0	Ventana	34.233	03:09:00:18	7.175	V2693-03
 	transect	Mesomyaria	999.75	2669	 	36.730576	-122.22903	1651034	0.45	2005-05-25 18:06:52.0	Ventana	34.521	00:29:20:09	3.907	V2669-01
 	transect	Phyllospadix	800.57	2674	 	36.75204	-122.208984	1800844	0.35	2005-06-08 18:14:28.0	Ventana	34.49	00:58:59:13	4.341	V2674-01
 	descend	Appendicularia	256.45	2682	 	36.699795	-122.06083	1720000	1.38	2005-07-08 16:25:53.0	Ventana	34.23	00:19:57:15	7.87	V2682-01
 	transect	Phyllospadix	197.8	2696	 	36.803497	-122.124	1813224	1.54	2005-08-01 17:22:17.0	Ventana	34.201	00:50:35:04	8.608	V2696-01
 	transect	Appendicularia	300.41	2681	 	36.696976	-122.0525	2492422	1.23	2005-07-07 17:25:00.0	Ventana	34.234	00:56:07:14	7.395	V2681-01HD
 	ascend	Appendicularia	616.46	2682	 	36.698868	-122.05987	1723410	0.39	2005-07-08 20:38:01.0	Ventana	34.385	04:30:09:17	5.489	V2682-05
 	transect	Stomphia	1000.26	2669	 	36.731663	-122.24378	1733940	0.41	2005-05-25 19:48:45.0	Ventana	34.509	02:10:15:06	4.064	V2669-03
 	ascend	Calycophorae	310.34	2681	 	36.69966	-122.05526	1718173	1.26	2005-07-07 20:58:20.88	Ventana	34.235	04:26:41:13	7.513	V2681-05
 	descend	Appendicularia	942.57	2683	 	36.703773	-122.04859	1757321	0.4	2005-07-11 19:08:56.0	Ventana	34.511	02:49:19:21	4.112	V2683-03
 	transect	Calycophorae	700.58	2681	 	36.695286	-122.051056	2497950	0.28	2005-07-07 18:47:12.0	Ventana	34.431	02:16:55:04	5.0	V2681-03HD
 	transect	Ceriantharia sp. 2	998.8	2669	 	36.730507	-122.22851	1683353	0.45	2005-05-25 18:03:54.0	Ventana	34.522	00:26:21:29	3.907	V2669-01
 	transect	Mesomyaria	999.86	2669	 	36.731308	-122.23803	1688355	0.43	2005-05-25 19:15:06.0	Ventana	34.519	01:37:04:20	3.954	V2669-02
 	transect	Ceriantharia sp. 1	599.66	2680	 	36.77751	-122.22256	1804286	0.36	2005-06-27 17:47:12.0	Ventana	34.378	00:27:19:08	5.589	V2680-01
 	cruise	Lycenchelys	334.49	2688	 	36.808136	-122.02018	1677825	1.22	2005-07-14 18:08:55.0	Ventana	34.228	01:54:37:06	7.53	V2688-02
 	transect	Phyllospadix	800.64	2674	 	36.75257	-122.20028	1774076	0.32	2005-06-08 17:28:52.0	Ventana	34.479	00:13:26:17	4.536	V2674-01
 	transect	Phyllospadix	802.09	2674	 	36.752243	-122.20657	1799958	0.36	2005-06-08 18:02:46.0	Ventana	34.484	00:47:18:14	4.347	V2674-01
 	transect	Ophiuroidea	1000.33	2669	 	36.73128	-122.24142	1689790	0.4	2005-05-25 19:36:12.0	Ventana	34.507	01:58:09:26	4.091	V2669-02
 	descend	Acanthamunnopsis milleri	229.84	2681	 	36.698532	-122.05352	1713586	1.48	2005-07-07 17:15:26.4	Ventana	34.218	00:46:34:05	8.167	V2681-01
 	descend	Cydippida	728.84	2683	 	36.702263	-122.048935	1757109	0.33	2005-07-11 17:56:18.0	Ventana	34.439	01:40:23:14	4.859	V2683-02
 	transect	Mesomyaria	999.44	2669	 	36.73133	-122.23592	1684474	0.44	2005-05-25 18:57:06.0	Ventana	34.52	01:19:05:22	3.936	V2669-02
 	descend	sinker	606.97	2681	 	36.6957	-122.05101	1715852	0.3	2005-07-07 18:16:01.667	Ventana	34.385	01:46:23:04	5.486	V2681-02
 	ascend	sinker	258.17	2681	 	36.697838	-122.05522	1719294	 	2005-07-07 21:29:59.0	Ventana	 	04:59:48:05	 	V2681-05
 	transect	Ophiuroidea	999.63	2669	 	36.73108	-122.2351	1684271	0.45	2005-05-25 18:51:16.0	Ventana	34.521	01:13:16:14	3.921	V2669-02
 	ascend	Appendicularia	409.1	2681	 	36.699238	-122.05438	1717970	0.82	2005-07-07 20:46:42.233	Ventana	34.279	04:15:04:00	6.764	V2681-05
 	transect	Mesomyaria	999.49	2669	 	36.7307	-122.229454	1651094	0.45	2005-05-25 18:10:02.0	Ventana	34.521	00:32:30:11	3.912	V2669-01
 	ascend	sinker	1107.63	2683	 	36.7079	-122.04905	1757787	0.58	2005-07-11 20:42:54.0	Ventana	34.549	04:17:15:03	3.66	V2683-04
 	ascend	Copepoda	849.55	2681	 	36.69857	-122.05581	1717379	0.33	2005-07-07 19:55:13.433	Ventana	34.49	03:24:15:24	4.36	V2681-04
 	transect	Mediaster	 	2687	 	 	 	1811429	 	2005-07-13 20:12:18.0	Ventana	 	03:37:17:10	 	V2687-04
 	cruise	Actiniaria	93.8	2688	 	36.815212	-122.017296	1679412	1.96	2005-07-14 20:29:46.0	Ventana	34.094	04:14:30:10	8.949	V2688-04
 	descend	Mysidae	1189.7	2682	 	36.69847	-122.05833	1722238	0.68	2005-07-08 19:33:02.0	Ventana	34.572	03:25:38:09	3.376	V2682-04
 	transect	Psolus squamatus	 	2687	 	 	 	1808896	 	2005-07-13 17:31:28.0	Ventana	 	00:58:20:14	 	V2687-01
 	transect	Stomphia	998.95	2669	 	36.73285	-122.25155	1737230	0.4	2005-05-25 20:42:34.0	Ventana	34.509	03:03:23:17	4.073	V2669-04
 	transect	Umbellula lindahli	598.55	2680	 	36.780773	-122.22577	1804812	0.35	2005-06-27 18:27:20.0	Ventana	34.382	01:06:26:23	5.575	V2680-02
 	transect	Porifera	399.69	2687	 	36.789246	-122.12456	1809579	1.17	2005-07-13 18:20:56.0	Ventana	34.237	01:47:15:17	7.343	V2687-02
 	transect	Glyptocephalus zachirus	196.46	2696	http://search.mbari.org/ARCHIVE/frameGrabs/Ventana/images/2696/00_38_12_12.jpg	36.803185	-122.12293	1813141	1.56	2005-08-01 17:09:54.0	Ventana	34.196	00:38:12:12	8.625	V2696-01
 	transect	Phyllospadix	802.45	2674	 	36.752323	-122.205666	1799815	0.36	2005-06-08 17:58:07.0	Ventana	34.488	00:42:39:14	4.332	V2674-01
 	descend	Chaetognatha	405.3	2683	 	36.70144	-122.049545	1756643	0.94	2005-07-11 17:04:41.0	Ventana	34.263	00:52:19:10	6.938	V2683-01
 	descend	Dosidicus gigas	697.85	2682	 	36.698612	-122.05998	1721440	0.29	2005-07-08 18:15:20.0	Ventana	34.427	02:08:25:14	5.046	V2682-03
 	transect	Mesomyaria	999.68	2669	 	36.731426	-122.237015	1687441	0.44	2005-05-25 19:06:48.0	Ventana	34.52	01:28:47:02	3.942	V2669-02
 	cruise	Remote Instrument Node	124.33	2672	http://search.mbari.org/ARCHIVE/frameGrabs/Ventana/images/2672/00_18_49_04.jpg	36.8031	-121.80559	20003819	2.68	2005-06-03 14:59:27.0	Ventana	33.953	00:18:49:04	9.337	V2672-01
 	transect	Psolus squamatus	 	2687	 	 	 	1808873	 	2005-07-13 17:30:54.0	Ventana	 	00:57:46:24	 	V2687-01
 	transect	Mesomyaria	1000.26	2669	 	36.731384	-122.24175	1689859	0.4	2005-05-25 19:38:10.0	Ventana	34.508	02:00:07:08	4.076	V2669-02
 	transect	Phyllospadix	802.87	2674	 	36.750835	-122.22006	1803668	0.34	2005-06-08 19:07:00.0	Ventana	34.482	01:51:01:26	4.385	V2674-02
 	transect	Rathbunaster californicus	203.65	2696	 	36.80751	-122.131165	1813847	1.46	2005-08-01 18:42:31.0	Ventana	34.218	02:09:36:13	8.62	V2696-03
 	descend	Sergestes similis	575.99	2683	 	36.70188	-122.0491	1756989	0.38	2005-07-11 17:47:15.0	Ventana	34.359	01:31:22:24	5.895	V2683-02
 	cruise	Zoarcidae	485.74	2688	 	36.801807	-122.01841	1677562	0.78	2005-07-14 17:26:15.6	Ventana	34.291	01:12:00:08	6.641	V2688-02
 	transect	Mesomyaria	1000.11	2669	 	36.731007	-122.233116	1683879	0.45	2005-05-25 18:37:35.0	Ventana	34.523	01:00:01:04	3.91	V2669-01
 	descend	Aegina	418.99	2682	 	36.698204	-122.05978	1720734	0.73	2005-07-08 17:40:50.0	Ventana	34.284	01:34:21:05	6.541	V2682-02
 	transect	molt	100.49	2681	 	36.69897	-122.05374	2489861	2.12	2005-07-07 16:52:00.0	Ventana	34.07	00:23:08:11	9.148	V2681-01HD
 	cruise	Phialidium	396.75	2676	 	36.803696	-122.03037	1676242	0.86	2005-06-14 16:25:14.0	Ventana	34.279	00:09:24:05	6.865	V2676-01
 	cruise	Myctophidae	602.44	2688	http://search.mbari.org/ARCHIVE/frameGrabs/Ventana/images/2688/00_10_02_18.jpg	36.793407	-122.01858	1677262	0.49	2005-07-14 16:23:44.0	Ventana	34.369	00:10:02:18	5.745	V2688-01
 	transect	Gastropoda sp.2	998.93	2669	 	36.731094	-122.23494	1694672	0.45	2005-05-25 18:49:33.0	Ventana	34.522	01:11:33:08	3.919	V2669-02
 	descend	Nanomia	160.53	2683	 	36.700657	-122.051636	1756283	1.69	2005-07-11 16:26:55.0	Ventana	34.174	00:14:37:07	8.79	V2683-01
 	ascend	Appendicularia	598.68	2682	 	36.698513	-122.062126	1723558	0.36	2005-07-08 21:04:15.0	Ventana	34.371	04:56:22:10	5.665	V2682-05
 	descend	Tuscaroridae	1080.34	2683	 	36.70511	-122.04892	1757441	0.52	2005-07-11 19:27:38.0	Ventana	34.534	03:07:59:04	3.797	V2683-03
 	transect	Mesomyaria	1000.11	2669	 	36.73094	-122.233734	1683948	0.45	2005-05-25 18:40:15.0	Ventana	34.523	01:02:16:19	3.911	V2669-02
 	ascend	Appendicularia	258.17	2681	 	36.697838	-122.05522	1719497	 	2005-07-07 21:29:59.0	Ventana	 	05:08:19:08	 	V2681-05
 	transect	Pennatulacea sp.1	600.01	2680	 	36.784157	-122.22951	1805518	0.36	2005-06-27 19:14:18.0	Ventana	34.375	01:53:21:11	5.608	V2680-02
 	transect	Appendicularia	600.57	2681	 	36.69632	-122.051926	2493723	0.3	2005-07-07 18:21:29.0	Ventana	34.386	01:51:51:10	5.487	V2681-02HD
 	transect	Ophiuroidea	997.21	2669	 	36.731148	-122.230896	1683473	0.45	2005-05-25 18:21:50.0	Ventana	34.519	00:44:17:06	3.927	V2669-01
 	descend	Calycophorae	295.25	2682	 	36.699303	-122.06063	1720120	1.2	2005-07-08 16:53:54.0	Ventana	34.241	00:47:56:18	7.428	V2682-01
 	transect	Sebastolobus altivelis	798.33	2674	 	36.7516	-122.21394	1801319	0.35	2005-06-08 18:37:55.0	Ventana	34.488	01:21:59:15	4.342	V2674-02
 	ascend	Copepoda	762.16	2682	 	36.69875	-122.059044	1723290	0.3	2005-07-08 20:27:20.0	Ventana	34.445	04:19:29:25	4.819	V2682-05
 	transect	Mediaster	 	2687	 	 	 	1812749	 	2005-07-13 20:55:53.0	Ventana	 	04:20:23:00	 	V2687-05
 	transect	Caridea sp.1	602.44	2680	 	36.790466	-122.232735	1806778	0.36	2005-06-27 20:19:48.0	Ventana	34.377	02:58:25:05	5.589	V2680-03
 	transect	Psolus squamatus	399.87	2687	 	36.788128	-122.12165	1809256	1.13	2005-07-13 17:37:41.0	Ventana	34.243	01:04:03:12	7.26	V2687-02
 	transect	Psolus squamatus	 	2687	 	 	 	1811106	 	2005-07-13 19:53:28.0	Ventana	 	03:18:28:24	 	V2687-04
 	transect	Aegina	800.91	2681	 	36.69568	-122.0516	2498190	0.32	2005-07-07 18:56:55.0	Ventana	34.475	02:26:38:03	4.494	V2681-03HD
 	transect	Euphausia	200.41	2681	 	36.698284	-122.05331	2490959	1.7	2005-07-07 17:10:13.0	Ventana	34.194	00:41:20:18	8.329	V2681-01HD
 	transect	Lycenchelys camchatica	1000.1	2669	 	36.731853	-122.24536	1735380	0.4	2005-05-25 19:59:35.0	Ventana	34.508	02:21:04:15	4.07	V2669-03
 	transect	Nanomia bijuga	200.45	2681	 	36.69828	-122.05329	2490659	1.73	2005-07-07 17:08:05.0	Ventana	34.193	00:39:13:08	8.328	V2681-01HD
 	transect	rock outcrop	 	2687	 	 	 	1812343	 	2005-07-13 20:32:59.0	Ventana	 	03:57:58:07	 	V2687-04
 	transect	Nanomia bijuga	400.75	2681	 	36.696518	-122.05204	2493017	0.79	2005-07-07 17:44:14.0	Ventana	34.276	01:14:38:01	6.645	V2681-02HD
 	ascend	Nanomia	 	2683	 	 	 	1758147	 	2005-07-11 14:31:57.0	Ventana	 	05:04:48:04	 	V2683-05
 	transect	Porifera	 	2687	 	 	 	1810317	 	2005-07-13 19:15:20.0	Ventana	 	02:41:04:02	 	V2687-03
 	cruise	Appendicularia	359.58	2676	 	36.804672	-122.02899	1676588	1.15	2005-06-14 16:57:49.0	Ventana	34.237	00:41:56:12	7.418	V2676-01
 	transect	Rathbunaster californicus	 	2687	 	 	 	1812403	 	2005-07-13 20:36:49.0	Ventana	 	04:01:47:03	 	V2687-04
 	transect	molt	100.5	2681	 	36.69942	-122.05403	2489801	2.13	2005-07-07 16:51:00.0	Ventana	34.068	00:22:07:22	9.146	V2681-01HD
 	cruise	Pannychia moseleyi	452.01	2676	 	36.802914	-122.02928	1676325	0.62	2005-06-14 16:36:39.0	Ventana	34.321	00:20:48:07	6.337	V2676-01
 	descend	Calycophorae	184.31	2683	 	36.70104	-122.051125	1756343	1.62	2005-07-11 16:42:16.0	Ventana	34.186	00:29:56:06	8.649	V2683-01
 	transect	Ceriantharia sp. 1	600.76	2680	 	36.785343	-122.23055	1805786	0.36	2005-06-27 19:27:03.0	Ventana	34.377	02:06:06:08	5.598	V2680-02
 	descend	Apolemia	640.92	2683	 	36.70203	-122.04896	1757049	0.38	2005-07-11 17:51:35.0	Ventana	34.381	01:35:40:23	5.553	V2683-02
 	transect	Mesomyaria	799.56	2674	 	36.75175	-122.21222	1801190	0.35	2005-06-08 18:28:58.0	Ventana	34.49	01:13:02:10	4.336	V2674-02
 	transect	Ophiuroidea	997.37	2669	 	36.730633	-122.227455	1649151	0.45	2005-05-25 17:56:55.0	Ventana	34.52	00:19:23:20	3.909	V2669-01
 	cruise	Mysidae	1015.88	2689	 	36.771557	-122.08298	1669708	0.53	2005-07-18 17:02:14.0	Ventana	34.54	00:25:17:11	3.752	V2689-01
 	descend	Appendicularia	916.96	2682	 	36.698254	-122.05941	1721786	0.35	2005-07-08 18:52:22.0	Ventana	34.497	02:45:23:27	4.267	V2682-03
 	cruise	Ophiodon elongatus	174.2	2688	http://search.mbari.org/ARCHIVE/frameGrabs/Ventana/images/2688/02_22_00_22.jpg	36.810715	-122.02163	1677968	1.92	2005-07-14 18:36:47.0	Ventana	34.101	02:22:00:22	8.895	V2688-03
 	transect	Psolus squamatus	 	2687	 	 	 	1807636	 	2005-07-13 17:19:39.0	Ventana	 	00:46:32:00	 	V2687-01
 	transect	molt	100.57	2681	 	36.69983	-122.05429	2489515	2.12	2005-07-07 16:43:27.0	Ventana	34.068	00:14:36:16	9.147	V2681-01HD
 	transect	Caridea sp.1	599.91	2680	 	36.778572	-122.22376	1804406	0.36	2005-06-27 18:00:50.0	Ventana	34.379	00:40:56:29	5.587	V2680-01
 	transect	Psolus squamatus	399.86	2687	 	36.788113	-122.12162	1809219	1.13	2005-07-13 17:37:21.0	Ventana	34.243	01:03:43:12	7.255	V2687-02
 	transect	Phyllospadix	200.19	2696	 	36.804977	-122.12769	1813547	1.51	2005-08-01 17:58:51.0	Ventana	34.212	01:26:44:02	8.674	V2696-02
 	transect	Phyllospadix	203.24	2696	 	36.80662	-122.13019	1813787	1.48	2005-08-01 18:30:18.0	Ventana	34.214	01:58:08:09	8.647	V2696-02
 	ascend	Euphausiacea	258.17	2681	 	36.697838	-122.05522	1719414	 	2005-07-07 21:29:59.0	Ventana	 	05:04:10:20	 	V2681-05
 	descend	Copepoda	1008.63	2683	 	36.704044	-122.05015	1757381	0.44	2005-07-11 19:18:17.0	Ventana	34.522	02:58:38:23	3.989	V2683-03
 	descend	Bolinopsis	470.14	2682	 	36.698524	-122.059654	1720794	0.52	2005-07-08 17:56:23.0	Ventana	34.323	01:49:52:24	6.198	V2682-02
 	ascend	Crustacea	1169.04	2683	 	36.70706	-122.04818	1757727	0.7	2005-07-11 20:28:12.0	Ventana	34.569	04:02:32:26	3.408	V2683-04
 	ascend	sinker	680.61	2682	 	36.69889	-122.05951	1723350	0.28	2005-07-08 20:33:30.0	Ventana	34.41	04:25:39:19	5.168	V2682-05
 	transect	Sebastolobus	 	2687	 	 	 	1810400	 	2005-07-13 19:17:04.0	Ventana	 	02:42:48:16	 	V2687-03
 	transect	Poeobius meseres	700.62	2681	 	36.696014	-122.05189	2497830	0.29	2005-07-07 18:43:51.0	Ventana	34.435	02:13:34:19	4.945	V2681-03HD
 	transect	Mesomyaria	998.87	2669	 	36.73117	-122.23559	1684354	0.45	2005-05-25 18:54:30.0	Ventana	34.523	01:16:30:07	3.919	V2669-02
 	transect	Stomphia	1000.05	2669	 	36.73109	-122.23918	1689121	0.43	2005-05-25 19:22:25.0	Ventana	34.517	01:44:23:07	3.976	V2669-02
 	ascend	Cydippida	358.93	2681	 	36.699364	-122.05499	1718053	1.02	2005-07-07 20:51:47.3	Ventana	34.259	04:20:08:08	7.126	V2681-05
 	transect	Nanomia bijuga	200.46	2681	 	36.69828	-122.05329	2490193	1.7	2005-07-07 17:05:38.0	Ventana	34.198	00:36:45:19	8.361	V2681-01HD
 	transect	myctophidae	300.43	2681	 	36.696304	-122.05192	2492542	1.23	2005-07-07 17:27:02.0	Ventana	34.233	00:58:10:00	7.4	V2681-01HD
 	transect	Mesomyaria	1000.5	2669	 	36.731224	-122.24115	1689384	0.41	2005-05-25 19:34:32.0	Ventana	34.512	01:56:29:04	4.058	V2669-02
 	ascend	Appendicularia	274.02	2681	 	36.69972	-122.05494	1718316	1.38	2005-07-07 21:03:49.367	Ventana	34.229	04:32:09:02	7.81	V2681-05
 	ascend	Chaetognatha	276.66	2683	 	36.703213	-122.05065	1758087	1.37	2005-07-11 21:25:39.0	Ventana	34.238	04:58:31:13	7.952	V2683-05
 	transect	Phyllospadix	800.03	2674	 	36.75265	-122.20041	1774113	0.29	2005-06-08 17:30:25.0	Ventana	34.462	00:14:58:24	4.653	V2674-01
 	descend	Bathochordaeus	147.64	2683	http://search.mbari.org/ARCHIVE/frameGrabs/Ventana/images/2683/00_10_18_23.jpg	36.70064	-122.05157	20004871	1.7	2005-07-11 16:22:36.5	Ventana	34.168	00:10:18:23	8.878	V2683-01
 	cruise	Sebastolobus	517.42	2688	 	36.800327	-122.01895	1677502	0.66	2005-07-14 17:12:21.0	Ventana	34.314	00:58:38:18	6.381	V2688-01
 	transect	Henricia sanguinolenta	 	2687	 	 	 	1810760	 	2005-07-13 19:32:34.0	Ventana	 	02:58:17:19	 	V2687-03
 	transect	Gastropoda sp.2	997.7	2669	 	36.730583	-122.22822	1694935	0.45	2005-05-25 18:01:52.0	Ventana	34.521	00:24:19:23	3.908	V2669-01
 	transect	Mesomyaria	999.99	2669	http://search.mbari.org/ARCHIVE/frameGrabs/Ventana/images/2669/02_11_18_22.jpg	36.731712	-122.243935	1734060	0.41	2005-05-25 19:49:48.0	Ventana	34.513	02:11:18:22	4.081	V2669-03
 	ascend	Euphausiacea	264.87	2681	 	36.69892	-122.05654	1718759	1.41	2005-07-07 21:18:11.863	Ventana	34.231	04:46:31:05	7.923	V2681-05
 	transect	Ceriantharia sp. 2	1000.23	2669	 	36.73197	-122.24655	1735726	0.41	2005-05-25 20:08:54.0	Ventana	34.51	02:30:24:28	4.064	V2669-03
 	transect	Psolus squamatus	 	2687	 	 	 	1811023	 	2005-07-13 19:48:36.0	Ventana	 	03:13:37:18	 	V2687-04
 	transect	Mesomyaria	1000.23	2669	 	36.73163	-122.24326	1733797	0.41	2005-05-25 19:46:08.0	Ventana	34.51	02:07:39:15	4.065	V2669-03
 	transect	Chorilia longipes	799.03	2674	 	36.75142	-122.21481	1801379	0.35	2005-06-08 18:43:20.0	Ventana	34.491	01:27:23:26	4.332	V2674-02
 	transect	Phyllospadix	800.81	2674	 	36.75247	-122.204544	1799607	0.35	2005-06-08 17:52:27.0	Ventana	34.481	00:36:59:28	4.367	V2674-01
 	transect	Psolus squamatus	 	2687	 	 	 	1812689	 	2005-07-13 20:52:16.0	Ventana	 	04:16:46:18	 	V2687-05
 	transect	Phyllospadix	800.3	2674	 	36.75209	-122.20861	1800784	0.36	2005-06-08 18:12:34.0	Ventana	34.49	00:57:05:28	4.319	V2674-01
 	transect	Psolus squamatus	 	2687	 	 	 	1808610	 	2005-07-13 17:25:22.0	Ventana	 	00:52:15:06	 	V2687-01
 	transect	Glyptocephalus zachirus	 	2687	 	 	 	1810460	 	2005-07-13 19:18:35.0	Ventana	 	02:44:19:07	 	V2687-03
 	transect	molt	50.37	2681	 	36.69983	-122.05429	2485722	3.02	2005-07-07 16:39:26.0	Ventana	33.907	00:10:35:21	9.635	V2681-01HD
 	transect	Gastropoda sp.2	999.9	2669	 	36.731106	-122.23907	1694732	0.43	2005-05-25 19:21:53.0	Ventana	34.516	01:43:50:27	3.967	V2669-02
 	ascend	Euphausiacea	258.17	2681	 	36.697838	-122.05522	1719557	 	2005-07-07 21:29:59.0	Ventana	 	05:13:38:02	 	V2681-05
 	transect	Appendicularia	400.8	2681	 	36.69576	-122.05115	2492888	0.79	2005-07-07 17:40:40.0	Ventana	34.277	01:11:05:07	6.67	V2681-02HD
 	transect	Psolus squamatus	399.85	2687	 	36.788048	-122.121544	1809159	1.13	2005-07-13 17:36:19.0	Ventana	34.242	01:02:41:05	7.271	V2687-02
 	ascend	Calycophorae	584.62	2681	 	36.69893	-122.05426	1717707	0.35	2005-07-07 20:30:38.593	Ventana	34.37	03:59:39:23	5.735	V2681-04
 	ascend	Sergestes similis	205.16	2693	 	36.69099	-122.06264	1759167	1.8	2005-07-25 21:25:12.0	Ventana	34.2	03:49:43:19	8.788	V2693-04
 	transect	Mesomyaria	801.4	2674	 	36.75222	-122.207596	1800078	0.38	2005-06-08 18:07:39.0	Ventana	34.486	00:52:11:02	4.35	V2674-01
 	transect	Psolus squamatus	399.87	2687	 	36.788128	-122.12177	1809316	1.13	2005-07-13 17:39:23.0	Ventana	34.241	01:05:45:16	7.267	V2687-02
 	cruise	slope	115.69	2688	 	36.813103	-122.01895	1678097	1.97	2005-07-14 19:24:02.0	Ventana	34.097	03:09:14:23	8.929	V2688-03
 	transect	lobata	800.86	2681	 	36.696423	-122.05243	2498250	0.31	2005-07-07 19:00:20.0	Ventana	34.475	02:30:02:23	4.502	V2681-03HD
 	descend	Copepoda	287.44	2682	 	36.699657	-122.06081	1720060	1.3	2005-07-08 16:36:43.0	Ventana	34.225	00:30:45:19	7.578	V2682-01
 	transect	Porifera sp. 1	399.49	2687	 	36.7894	-122.12519	1809662	1.14	2005-07-13 18:31:19.0	Ventana	34.242	01:57:38:02	7.303	V2687-02
 	stationary	Appendicularia	501.51	2694	 	36.78466	-122.2005	1676182	0.76	2005-07-27 17:28:31.0	Ventana	34.288	00:21:38:00	6.465	V2694-01
 	transect	Mesomyaria	999.25	2669	 	36.73107	-122.233955	1684008	0.45	2005-05-25 18:41:31.0	Ventana	34.522	01:03:32:12	3.913	V2669-02
 	ascend	Aegina	668.22	2681	 	36.69876	-122.05435	1717642	0.28	2005-07-07 20:23:47.08	Ventana	34.41	03:52:48:06	5.204	V2681-04
 	transect	Mesomyaria	998.59	2669	 	36.73111	-122.230736	1683413	0.45	2005-05-25 18:20:18.0	Ventana	34.522	00:42:44:29	3.913	V2669-01
 	transect	Pennatulacea sp.1	599.44	2680	 	36.779682	-122.2248	1804549	0.36	2005-06-27 18:14:03.0	Ventana	34.377	00:54:08:29	5.614	V2680-01
 	transect	Mesomyaria	998.85	2669	 	36.73086	-122.229675	1651154	0.45	2005-05-25 18:12:08.0	Ventana	34.522	00:34:35:12	3.907	V2669-01
 	cruise	Rathbunaster californicus	437.87	2676	 	36.80327	-122.02925	1676385	0.64	2005-06-14 16:40:05.0	Ventana	34.316	00:24:14:06	6.387	V2676-01
 	transect	Actiniaria sp. 3	 	2687	 	 	 	1810257	 	2005-07-13 19:12:53.0	Ventana	 	02:38:37:18	 	V2687-03
 	transect	Lycodes diapterus	599.11	2680	 	36.782898	-122.22819	1805255	0.35	2005-06-27 19:01:03.0	Ventana	34.38	01:40:07:24	5.574	V2680-02
 	transect	Mediaster	 	2687	 	 	 	1810114	 	2005-07-13 18:58:07.0	Ventana	 	02:23:52:12	 	V2687-03
 	ascend	Hastigerinella digitata	339.66	2693	 	36.692978	-122.061455	1758964	1.26	2005-07-25 21:11:56.0	Ventana	34.237	03:36:28:25	7.439	V2693-04
 	transect	Psolus squamatus	 	2687	 	 	 	1808813	 	2005-07-13 17:30:00.0	Ventana	 	00:56:52:19	 	V2687-01
 	transect	bolinopsis	500.6	2681	 	36.697853	-122.05361	2493280	0.44	2005-07-07 17:55:23.0	Ventana	34.347	01:25:45:18	6.02	V2681-02HD
 	descend	Solmissus	301.24	2681	 	36.698494	-122.05361	1713646	1.25	2005-07-07 17:19:20.467	Ventana	34.23	00:50:28:00	7.445	V2681-01
 	ascend	Chuniphyes	786.61	2681	 	36.698925	-122.05654	1717439	0.28	2005-07-07 20:03:23.7	Ventana	34.458	03:32:26:02	4.695	V2681-04
 	transect	Phyllospadix	1000.55	2669	 	36.732063	-122.24772	1736146	0.4	2005-05-25 20:16:40.0	Ventana	34.509	02:38:09:13	4.084	V2669-03
 	ascend	Hastigerinella digitata	367.32	2693	 	36.6952	-122.06091	1758821	1.23	2005-07-25 20:57:48.0	Ventana	34.234	03:22:21:13	7.316	V2693-04
 	transect	Mesomyaria	800.44	2674	 	36.75122	-122.21621	1803405	0.35	2005-06-08 18:50:16.0	Ventana	34.491	01:34:19:19	4.335	V2674-02
 	transect	Mediaster	 	2687	 	 	 	1810963	 	2005-07-13 19:44:29.0	Ventana	 	03:09:30:08	 	V2687-04
 	ascend	Appendicularia	265.36	2681	 	36.699524	-122.05448	1718413	1.4	2005-07-07 21:08:16.167	Ventana	34.236	04:36:36:03	7.898	V2681-05
 	transect	Psolus squamatus	 	2687	 	 	 	1808956	 	2005-07-13 17:32:36.0	Ventana	 	00:59:28:01	 	V2687-01
 	descend	Solmissus	272.78	2685	 	36.793346	-121.882576	1669768	1.37	2005-07-12 20:16:52.0	Ventana	34.197	00:14:27:14	7.8	V2685-01
 	ascend	Appendicularia	336.13	2681	 	36.699455	-122.055275	1718113	1.15	2005-07-07 20:54:24.867	Ventana	34.245	04:22:45:05	7.297	V2681-05
 	transect	Mediaster	 	2687	 	 	 	1810820	 	2005-07-13 19:35:28.0	Ventana	 	03:01:11:09	 	V2687-03
 	transect	Sergestes similis	300.42	2681	 	36.69764	-122.05308	2492182	1.23	2005-07-07 17:22:45.0	Ventana	34.234	00:53:51:12	7.403	V2681-01HD
 	descend	Poeobius meseres	1061.62	2682	 	36.698334	-122.05914	1722049	0.49	2005-07-08 19:04:15.0	Ventana	34.533	02:57:16:25	3.818	V2682-03
 	transect	Chionoecetes tanneri	1000.54	2669	 	36.73234	-122.24952	1736492	0.41	2005-05-25 20:29:44.0	Ventana	34.507	02:51:11:04	4.075	V2669-03
 	transect	Neptunea amianta	801.17	2674	 	36.750957	-122.2188	1803608	0.35	2005-06-08 19:01:37.0	Ventana	34.487	01:45:40:00	4.352	V2674-02
 	transect	Mediaster	 	2687	 	 	 	1807041	 	2005-07-13 16:55:44.0	Ventana	 	00:22:38:17	 	V2687-01
 	cruise	Stylasterias	113.16	2676	 	36.80465	-122.043076	1677202	1.94	2005-06-14 19:28:23.0	Ventana	34.166	03:07:07:19	8.395	V2676-03
 	descend	Nanomia	160.54	2682	 	36.699875	-122.06075	1719917	2.19	2005-07-08 16:19:07.0	Ventana	34.097	00:13:13:01	8.434	V2682-01
 	transect	Nanomia bijuga	400.74	2681	 	36.696953	-122.05257	2493077	0.79	2005-07-07 17:46:06.0	Ventana	34.277	01:16:30:08	6.659	V2681-02HD
 	transect	Mesomyaria	1000.32	2669	 	36.73092	-122.23285	1683819	0.45	2005-05-25 18:35:31.0	Ventana	34.521	00:57:56:16	3.911	V2669-01
 	descend	Poeobius meseres	626.57	2681	 	36.697952	-122.05387	1715935	0.31	2005-07-07 18:29:37.967	Ventana	34.392	01:59:58:18	5.391	V2681-02
 	transect	Brisaster	999.97	2669	 	36.731796	-122.244644	1734406	0.4	2005-05-25 19:54:19.0	Ventana	34.51	02:15:50:03	4.084	V2669-03
 	transect	chuniphyes	901.03	2681	 	36.6958	-122.051735	2498393	0.39	2005-07-07 19:12:02.0	Ventana	34.505	02:41:43:20	4.174	V2681-03HD
 	transect	Gastropoda sp.2	999.64	2669	 	36.730595	-122.22908	1695032	0.45	2005-05-25 18:07:25.0	Ventana	34.522	00:29:52:16	3.908	V2669-01
 	transect	Mesomyaria	1000.36	2669	 	36.73191	-122.24698	1735786	0.41	2005-05-25 20:11:38.0	Ventana	34.51	02:33:08:06	4.064	V2669-03
 	transect	Aegina	500.61	2681	 	36.69609	-122.05161	2493626	0.43	2005-07-07 18:02:57.0	Ventana	34.347	01:33:19:22	6.006	V2681-02HD
 	descend	Appendicularia	503.91	2683	 	36.70147	-122.049164	1756846	0.68	2005-07-11 17:38:49.0	Ventana	34.305	01:22:56:05	6.467	V2683-02
 	ascend	Euphausiacea	254.2	2681	 	36.698227	-122.05559	1719211	1.46	2005-07-07 21:25:12.267	Ventana	34.225	04:53:31:05	8.005	V2681-05
 	transect	Poeobius meseres	1001.04	2681	 	36.69528	-122.05122	2498596	0.48	2005-07-07 19:23:58.0	Ventana	34.535	02:53:38:12	3.84	V2681-03HD
 	transect	Mysidae	600.6	2681	 	36.69678	-122.05249	2493783	0.3	2005-07-07 18:23:41.0	Ventana	34.388	01:54:03:23	5.477	V2681-02HD
 	transect	Mediaster	400.21	2687	 	36.78905	-122.12394	1809519	1.17	2005-07-13 18:11:33.0	Ventana	34.239	01:37:52:22	7.355	V2687-02
 	cruise	Megalodicopia hians	253.86	2688	 	36.809273	-122.02036	1677908	1.53	2005-07-14 18:29:32.133	Ventana	34.196	02:14:48:09	8.208	V2688-03
 	transect	Mesomyaria	1000.39	2669	 	36.731556	-122.24275	1694529	0.4	2005-05-25 19:43:14.0	Ventana	34.506	02:05:11:20	4.087	V2669-02
 	transect	Mesomyaria	999.26	2669	 	36.731087	-122.23497	1684211	0.45	2005-05-25 18:49:46.0	Ventana	34.52	01:11:46:00	3.92	V2669-02
 	transect	phialidium	700.63	2681	 	36.696953	-122.05281	2497687	0.29	2005-07-07 18:40:00.0	Ventana	34.436	02:09:42:26	4.928	V2681-03HD
 	transect	Nanomia bijuga	200.39	2681	 	36.69828	-122.05329	2490050	1.69	2005-07-07 17:04:22.0	Ventana	34.194	00:35:30:23	8.359	V2681-01HD
 	descend	Calycophorae	400.26	2681	 	36.69561	-122.05107	1715229	0.79	2005-07-07 17:36:52.333	Ventana	34.277	01:07:16:06	6.677	V2681-02
 	cruise	Merluccius productus	505.02	2695	 	36.784454	-122.20046	1824511	0.69	2005-07-28 20:27:03.0	Ventana	34.287	05:28:22:19	6.333	V2695-03
 	transect	Phyllospadix	199.93	2696	 	36.80463	-122.126945	1813487	1.51	2005-08-01 17:52:21.0	Ventana	34.205	01:20:14:11	8.669	V2696-02
 	transect	Mesomyaria	800.9	2674	 	36.75256	-122.202446	1799201	0.34	2005-06-08 17:40:57.0	Ventana	34.476	00:25:30:16	4.411	V2674-01
 	descend	Poeobius meseres	959.82	2681	 	36.694656	-122.050385	1716530	0.43	2005-07-07 19:18:47.967	Ventana	34.518	02:48:29:26	4.004	V2681-03
 	descend	Calycophorae	312.12	2693	 	36.69758	-122.06079	1758493	1.31	2005-07-25 19:40:27.0	Ventana	34.233	02:20:02:03	7.619	V2693-03
 	transect	Neptunea amianta	998.37	2669	 	36.73298	-122.25235	1737433	0.4	2005-05-25 20:47:26.0	Ventana	34.508	03:08:16:02	4.076	V2669-04
 	transect	Mesomyaria	997.48	2669	 	36.73063	-122.22776	1649211	0.45	2005-05-25 17:58:51.0	Ventana	34.521	00:21:19:09	3.907	V2669-01
 	transect	Phyllospadix	800.28	2674	 	36.75173	-122.21162	1801130	0.35	2005-06-08 18:26:33.0	Ventana	34.49	01:10:38:03	4.331	V2674-02
 	transect	Microstomus pacificus	600.42	2680	 	36.783787	-122.22924	1805458	0.36	2005-06-27 19:10:55.0	Ventana	34.377	01:49:58:26	5.594	V2680-02
 	ascend	Poeobius meseres	548.81	2682	 	36.698307	-122.06274	1723618	0.39	2005-07-08 21:09:19.0	Ventana	34.354	05:00:59:11	5.897	V2682-06
 	transect	Ceriantharia sp. 1	602.23	2680	 	36.7913	-122.23292	1806838	0.36	2005-06-27 20:26:56.0	Ventana	34.376	03:05:32:04	5.592	V2680-03
 	transect	Calliostoma platinum	 	2687	 	 	 	1811166	 	2005-07-13 19:59:04.0	Ventana	 	03:24:04:16	 	V2687-04
 	stationary	Merluccius productus	502.36	2694	 	36.784622	-122.20044	1676653	0.78	2005-07-27 20:20:19.0	Ventana	34.286	02:52:27:22	6.506	V2694-03
 	transect	Hippasteria	 	2687	http://search.mbari.org/ARCHIVE/frameGrabs/Ventana/images/2687/00_31_40_24.jpg	 	 	1807230	 	2005-07-13 17:04:47.0	Ventana	 	00:31:40:24	 	V2687-01
 	transect	Ceriantharia sp. 1	601.63	2680	 	36.787067	-122.231544	1805906	0.36	2005-06-27 19:45:32.0	Ventana	34.375	02:24:11:02	5.601	V2680-03
 	transect	Microstomus pacificus	 	2687	 	 	 	1812569	 	2005-07-13 20:45:46.0	Ventana	 	04:10:17:02	 	V2687-05
 	transect	Caridea sp.1	800.82	2674	 	36.75108	-122.217575	1803511	0.35	2005-06-08 18:56:14.0	Ventana	34.491	01:40:17:01	4.345	V2674-02
 	transect	Mediaster	 	2687	 	 	 	1810174	 	2005-07-13 19:04:43.0	Ventana	 	02:30:28:00	 	V2687-03
 	transect	molt	100.48	2681	 	36.699825	-122.05429	2489681	2.13	2005-07-07 16:47:45.0	Ventana	34.068	00:18:54:00	9.149	V2681-01HD
 	cruise	Florometra	104.55	2676	 	36.809082	-122.03538	1677036	1.93	2005-06-14 18:40:39.0	Ventana	34.148	02:19:26:13	8.475	V2676-03
 	descend	Calycophorae	243.76	2683	 	36.70096	-122.050606	1756440	1.7	2005-07-11 16:50:10.0	Ventana	34.189	00:37:51:22	8.054	V2683-01
 	transect	Mesomyaria	997.48	2669	 	36.730633	-122.22785	1649248	0.45	2005-05-25 17:59:51.0	Ventana	34.522	00:22:19:23	3.907	V2669-01
 	transect	Brisaster	1000.36	2669	 	36.73147	-122.24201	1694446	0.4	2005-05-25 19:39:29.0	Ventana	34.509	02:01:26:09	4.077	V2669-02
 	descend	Chuniphyes	773.94	2682	 	36.698376	-122.05977	1721666	0.29	2005-07-08 18:33:00.0	Ventana	34.457	02:26:02:28	4.694	V2682-03
 	transect	Mesomyaria	801.21	2674	 	36.75175	-122.21097	1801070	0.35	2005-06-08 18:24:02.0	Ventana	34.491	01:08:06:29	4.329	V2674-02
 	transect	Mediaster	 	2687	 	 	 	1811817	 	2005-07-13 20:26:19.0	Ventana	 	03:51:17:25	 	V2687-04
 	transect	Mediaster aequalis	204.1	2696	 	36.805275	-122.12823	1813690	1.49	2005-08-01 18:15:19.0	Ventana	34.212	01:43:11:03	8.632	V2696-02
 	transect	Ceriantharia sp. 1	600.26	2680	 	36.777252	-122.22243	1804263	0.36	2005-06-27 17:44:08.0	Ventana	34.379	00:24:16:05	5.581	V2680-01
 	transect	Gastropoda	202.3	2696	 	36.805256	-122.12819	1813644	1.48	2005-08-01 18:09:52.0	Ventana	34.207	01:37:44:05	8.65	V2696-02
 	descend	Appendicularia	365.06	2682	 	36.698555	-122.060326	1720346	1.0	2005-07-08 17:26:08.0	Ventana	34.259	01:19:39:24	7.072	V2682-02
 	ascend	Copepoda	598.46	2682	 	36.69875	-122.06101	1723493	0.34	2005-07-08 20:50:37.0	Ventana	34.374	04:42:43:28	5.637	V2682-05
 	descend	Appendicularia	814.93	2683	 	36.7027	-122.04862	1757192	0.34	2005-07-11 18:15:36.0	Ventana	34.472	01:59:41:14	4.503	V2683-02
 	transect	Phyllospadix	999.44	2669	 	36.73133	-122.23592	1684451	0.44	2005-05-25 18:57:06.0	Ventana	34.52	01:19:05:22	3.936	V2669-02
 	cruise	Chaetognatha	1190.49	2682	 	36.698402	-122.05755	1722418	0.68	2005-07-08 19:51:37.0	Ventana	34.573	03:44:12:25	3.382	V2682-04
 	descend	Chaetognatha	855.07	2683	 	36.70292	-122.04836	1757238	0.35	2005-07-11 18:26:03.0	Ventana	34.486	02:10:07:04	4.36	V2683-02
 	transect	Mesomyaria	1000.29	2669	 	36.73119	-122.24062	1689287	0.41	2005-05-25 19:31:33.0	Ventana	34.511	01:53:31:09	4.055	V2669-02
 	descend	Appendicularia	443.03	2681	 	36.698082	-122.053856	1715326	0.58	2005-07-07 17:51:58.733	Ventana	34.31	01:22:21:05	6.259	V2681-02
 	transect	Phyllospadix	800.85	2674	 	36.7521	-122.20838	1800747	0.35	2005-06-08 18:11:19.0	Ventana	34.488	00:55:51:00	4.328	V2674-01
 	cruise	Lycodapus	582.55	2688	 	36.796925	-122.02001	1677405	0.49	2005-07-14 16:50:15.0	Ventana	34.366	00:36:34:24	5.753	V2688-01
 	ascend	Chaetognatha	493.08	2683	 	36.70437	-122.050575	1757990	0.6	2005-07-11 21:16:36.0	Ventana	34.317	04:49:29:13	6.403	V2683-05
 	cruise	Chionoecetes tanneri	1229.35	2683	 	36.705826	-122.04785	1757561	0.74	2005-07-11 19:53:23.0	Ventana	34.575	03:27:47:26	3.324	V2683-04
 	transect	Chaetognatha	300.41	2681	 	36.69688	-122.05242	2492445	1.23	2005-07-07 17:25:20.0	Ventana	34.234	00:56:27:19	7.393	V2681-01HD
 	ascend	Appendicularia	712.67	2681	 	36.698704	-122.0551	1717582	0.29	2005-07-07 20:19:25.667	Ventana	34.43	03:48:27:01	5.018	V2681-04
 	transect	Mediaster	 	2687	 	 	 	1811494	 	2005-07-13 20:14:41.0	Ventana	 	03:39:40:22	 	V2687-04
 	transect	Neptunea amianta	1000.04	2669	 	36.73124	-122.23834	1688858	0.43	2005-05-25 19:17:30.0	Ventana	34.516	01:39:28:29	3.98	V2669-02
 	transect	Actiniaria sp. 3	 	2687	 	 	 	1808670	 	2005-07-13 17:26:42.0	Ventana	 	00:53:34:08	 	V2687-01
 	transect	Allocentrotus fragilis	 	2687	 	 	 	1811249	 	2005-07-13 20:05:30.0	Ventana	 	03:30:29:27	 	V2687-04
 	ascend	Chaetognatha	323.11	2681	 	36.6997	-122.05525	1718150	1.21	2005-07-07 20:56:55.9	Ventana	34.235	04:25:16:01	7.373	V2681-05
 	ascend	Euphausiacea	263.17	2681	 	36.69889	-122.05678	1718842	1.42	2005-07-07 21:18:53.667	Ventana	34.232	04:47:12:28	7.941	V2681-05
 	transect	Ceriantharia sp. 2	998.22	2669	 	36.73296	-122.25221	1737387	0.41	2005-05-25 20:46:28.0	Ventana	34.508	03:07:17:19	4.075	V2669-04
 	descend	Appendicularia	509.33	2683	 	36.701424	-122.04919	1756869	0.68	2005-07-11 17:40:05.0	Ventana	34.305	01:24:12:13	6.461	V2683-02
 	ascend	Appendicularia	504.65	2682	 	36.698353	-122.06321	1723678	0.48	2005-07-08 21:13:36.0	Ventana	34.335	05:05:17:07	6.137	V2682-06
 	transect	Porifera	 	2687	 	 	 	1810926	 	2005-07-13 19:42:59.0	Ventana	 	03:08:00:16	 	V2687-04
 	starttransect	object	199.61	2696	 	36.80384	-122.12519	1813321	1.52	2005-08-01 17:34:32.0	Ventana	34.206	01:02:26:10	8.635	V2696-02
 	descend	Cyclothone	559.73	2682	 	36.698635	-122.0598	1720914	0.34	2005-07-08 18:06:06.0	Ventana	34.37	01:59:35:06	5.654	V2682-02
 	transect	Mesomyaria	999.65	2669	 	36.731422	-122.23667	1684820	0.44	2005-05-25 19:03:24.0	Ventana	34.518	01:25:24:00	3.94	V2669-02
 	transect	Nanomia bijuga	200.43	2681	 	36.69828	-122.0533	2490802	1.72	2005-07-07 17:08:57.0	Ventana	34.193	00:40:04:13	8.323	V2681-01HD
 	transect	Mesomyaria	998.84	2669	 	36.730988	-122.23018	1651260	0.45	2005-05-25 18:15:53.0	Ventana	34.52	00:38:20:04	3.911	V2669-01
 	transect	Phyllospadix	1000.04	2669	 	36.731174	-122.240166	1689227	0.41	2005-05-25 19:28:41.0	Ventana	34.51	01:50:39:09	4.058	V2669-02
 	cruise	Lycodapus	1217.6	2683	 	36.706383	-122.04755	1757621	0.73	2005-07-11 20:09:10.0	Ventana	34.578	03:43:32:08	3.337	V2683-04
 	ascend	Chuniphyes	694.48	2683	 	36.705738	-122.04912	1757884	0.27	2005-07-11 21:06:17.0	Ventana	34.451	04:39:09:17	4.829	V2683-05
 	descend	Bathochordaeus	220.74	2682	 	36.69989	-122.06071	1719963	1.77	2005-07-08 16:21:34.0	Ventana	34.197	00:15:39:00	7.986	V2682-01
 	transect	Porifera sp. 1	 	2687	 	 	 	1810557	 	2005-07-13 19:22:23.0	Ventana	 	02:48:07:10	 	V2687-03
 	transect	Phyllospadix	1000.46	2669	 	36.73227	-122.24884	1736252	0.41	2005-05-25 20:25:18.0	Ventana	34.509	02:46:46:26	4.076	V2669-03
 	transect	Phyllospadix	197.79	2696	 	36.80266	-122.12168	1812998	1.53	2005-08-01 16:51:01.0	Ventana	34.204	00:19:21:01	8.566	V2696-01
 	transect	Mesomyaria	999.8	2669	 	36.731346	-122.237816	1687538	0.44	2005-05-25 19:13:14.0	Ventana	34.517	01:35:12:27	3.95	V2669-02
 	transect	Aegina	500.56	2681	 	36.696712	-122.0523	2493580	0.44	2005-07-07 18:00:16.0	Ventana	34.346	01:30:39:20	6.016	V2681-02HD
 	ascend	Leuroglossus stilbius	343.37	2682	 	36.697403	-122.06177	1723738	1.08	2005-07-08 21:24:53.0	Ventana	34.25	05:16:33:21	7.227	V2682-06
 	transect	Phyllospadix	198.38	2696	 	36.803608	-122.12444	1813261	1.53	2005-08-01 17:27:39.0	Ventana	34.201	00:55:56:17	8.621	V2696-01
 	transect	Calycophorae	300.46	2681	 	36.69815	-122.05347	2492016	1.24	2005-07-07 17:20:57.0	Ventana	34.233	00:52:03:12	7.409	V2681-01HD
 	descend	Appendicularia	334.57	2683	 	36.70123	-122.05003	1756546	1.24	2005-07-11 16:55:38.0	Ventana	34.221	00:43:18:22	7.329	V2683-01
 	transect	Mediaster	 	2687	 	 	 	1810497	 	2005-07-13 19:20:54.0	Ventana	 	02:46:37:19	 	V2687-03
 	transect	Psolus squamatus	 	2687	 	 	 	1808730	 	2005-07-13 17:27:55.0	Ventana	 	00:54:48:01	 	V2687-01
 	transect	Mediaster	 	2687	 	 	 	1811877	 	2005-07-13 20:28:08.0	Ventana	 	03:53:06:09	 	V2687-04
 	descend	Cyclothone	499.73	2695	 	36.78451	-122.200386	1824391	0.9	2005-07-28 16:54:41.0	Ventana	34.265	00:01:03:17	6.718	V2695-01
 	transect	Mesomyaria	998.57	2669	 	36.730522	-122.22847	1650891	0.45	2005-05-25 18:03:32.0	Ventana	34.523	00:25:59:29	3.906	V2669-01
 	descend	Polychaeta	947.63	2682	 	36.698246	-122.05931	1721989	0.38	2005-07-08 18:54:52.0	Ventana	34.502	02:47:55:04	4.198	V2682-03
 	transect	Neptunea amianta	603.14	2680	 	36.788715	-122.23241	1805966	0.35	2005-06-27 20:02:44.0	Ventana	34.377	02:41:22:06	5.59	V2680-03
 	transect	Mediaster	 	2687	 	 	 	1812509	 	2005-07-13 20:42:44.0	Ventana	 	04:07:14:18	 	V2687-05
 	transect	Neptunea amianta	999.95	2669	 	36.732605	-122.25056	1737004	0.41	2005-05-25 20:36:47.0	Ventana	34.508	02:58:16:15	4.073	V2669-03
 	transect	Brisaster	1000.38	2669	 	36.732033	-122.24739	1735883	0.41	2005-05-25 20:14:48.0	Ventana	34.511	02:36:18:19	4.07	V2669-03
 	descend	Sergestes similis	291.91	2681	 	36.69857	-122.05371	1713623	1.29	2005-07-07 17:17:32.867	Ventana	34.224	00:48:40:00	7.532	V2681-01
 	transect	Appendicularia	200.39	2681	 	36.698307	-122.05339	2491185	1.68	2005-07-07 17:12:38.0	Ventana	34.2	00:43:45:10	8.337	V2681-01HD
 	transect	Pennatulacea sp.1	599.34	2680	 	36.777885	-122.22302	1804323	0.36	2005-06-27 17:51:52.0	Ventana	34.377	00:31:59:12	5.588	V2680-01
 	transect	Mesomyaria	999.67	2669	 	36.73193	-122.246086	1735620	0.41	2005-05-25 20:04:14.0	Ventana	34.51	02:25:43:28	4.062	V2669-03
 	ascend	Appendicularia	370.87	2693	 	36.696182	-122.060905	1758636	1.2	2005-07-25 20:23:13.0	Ventana	34.232	03:02:46:09	7.148	V2693-03
 	transect	Phyllospadix	801.99	2674	 	36.75225	-122.20688	1799995	0.37	2005-06-08 18:04:12.0	Ventana	34.49	00:48:43:28	4.328	V2674-01
 	descend	Appendicularia	502.78	2683	 	36.70155	-122.04937	1756809	0.68	2005-07-11 17:27:34.0	Ventana	34.305	01:11:41:04	6.466	V2683-02
 	transect	Allocentrotus fragilis	 	2687	 	 	 	1807087	 	2005-07-13 16:59:07.0	Ventana	 	00:26:01:00	 	V2687-01
 	transect	molt	100.54	2681	 	36.69983	-122.05429	2489621	2.13	2005-07-07 16:46:30.0	Ventana	34.068	00:17:39:02	9.144	V2681-01HD
 	transect	Mediaster	 	2687	 	 	 	1806981	 	2005-07-13 16:52:36.0	Ventana	 	00:19:30:27	 	V2687-01
 	transect	Mediaster	 	2687	 	 	 	1810866	 	2005-07-13 19:38:09.0	Ventana	 	03:03:52:12	 	V2687-03
 	transect	Mediaster	 	2687	 	 	 	1811309	 	2005-07-13 20:06:21.0	Ventana	 	03:31:20:22	 	V2687-04
 	cruise	Allocentrotus fragilis	431.36	2676	 	36.803444	-122.029236	1676408	0.67	2005-06-14 16:41:30.0	Ventana	34.313	00:25:38:23	6.466	V2676-01
 	ascend	Calycophorae	468.72	2681	 	36.698997	-122.05421	1717767	0.56	2005-07-07 20:36:05.0	Ventana	34.32	04:05:05:10	6.275	V2681-04
 	descend	Chaetognatha	1108.67	2682	 	36.69822	-122.05919	1722095	0.57	2005-07-08 19:10:29.0	Ventana	34.554	03:03:06:27	3.628	V2682-04
 	transect	Mediaster	 	2687	 	 	 	1812246	 	2005-07-13 20:29:51.0	Ventana	 	03:54:49:21	 	V2687-04
 	transect	Aegina	700.62	2681	 	36.696632	-122.05253	2497724	0.29	2005-07-07 18:41:13.0	Ventana	34.437	02:10:56:20	4.93	V2681-03HD
 	transect	Mesomyaria	999.92	2669	 	36.73256	-122.25024	1736944	0.41	2005-05-25 20:34:50.0	Ventana	34.51	02:56:18:22	4.067	V2669-03
 	descend	Bathocyroe	1163.79	2683	 	36.705116	-122.048904	1757501	0.67	2005-07-11 19:34:34.0	Ventana	34.561	03:14:55:16	3.468	V2683-03
 	transect	Mediaster	 	2687	 	 	 	1812306	 	2005-07-13 20:31:44.0	Ventana	 	03:56:42:12	 	V2687-04
 	transect	Chaetognatha	200.47	2681	 	36.69828	-122.05329	2490493	1.71	2005-07-07 17:07:08.0	Ventana	34.197	00:38:16:15	8.341	V2681-01HD
 	cruise	Xeneretmus	310.58	2688	 	36.808598	-122.02029	1677848	1.34	2005-07-14 18:12:28.0	Ventana	34.218	01:58:10:00	7.79	V2688-02
 	transect	chuniphyes	901.06	2681	 	36.69664	-122.05277	2498296	0.39	2005-07-07 19:08:07.0	Ventana	34.506	02:37:47:28	4.17	V2681-03HD
 	ascend	Appendicularia	903.62	2681	 	36.697964	-122.0547	1717139	0.37	2005-07-07 19:48:20.5	Ventana	34.505	03:17:23:09	4.203	V2681-04
 	transect	Stomphia	1000.93	2669	 	36.73229	-122.24932	1736372	0.41	2005-05-25 20:28:05.0	Ventana	34.51	02:49:33:16	4.07	V2669-03
 	descend	Copepoda	533.97	2683	 	36.701534	-122.04914	1756929	0.54	2005-07-11 17:43:00.0	Ventana	34.324	01:27:06:23	6.217	V2683-02
 	descend	Salpida	348.38	2693	 	36.69709	-122.059906	1758576	1.27	2005-07-25 19:59:00.0	Ventana	34.23	02:38:35:18	7.487	V2693-03
 	transect	Umbellula lindahli	602.81	2680	 	36.789562	-122.23257	1806718	0.35	2005-06-27 20:11:52.0	Ventana	34.378	02:50:29:17	5.589	V2680-03
 	transect	Nanomia bijuga	200.36	2681	 	36.69829	-122.05334	2491065	1.69	2005-07-07 17:11:22.0	Ventana	34.196	00:42:29:12	8.332	V2681-01HD
 	cruise	rock outcrop	110.81	2688	 	36.8139	-122.02337	1678051	1.95	2005-07-14 18:58:57.0	Ventana	34.093	02:44:10:26	8.89	V2688-03
 	transect	Solmundella bitentaculata	600.62	2681	 	36.695892	-122.05145	2493686	0.3	2005-07-07 18:19:36.0	Ventana	34.388	01:49:57:26	5.495	V2681-02HD
 	ascend	sinker	942.75	2682	 	36.69768	-122.05849	1723050	0.42	2005-07-08 20:09:55.0	Ventana	34.514	04:02:05:23	4.057	V2682-05
 	descend	Nanomia	467.06	2683	 	36.70159	-122.049355	1756749	0.77	2005-07-11 17:12:57.0	Ventana	34.287	01:00:35:19	6.651	V2683-01
 	descend	Solmaris	834.01	2682	 	36.69834	-122.05956	1721726	0.33	2005-07-08 18:44:29.0	Ventana	34.481	02:37:32:17	4.449	V2682-03
 	transect	Poeobius meseres	400.79	2681	 	36.697353	-122.05302	2493137	0.79	2005-07-07 17:47:45.0	Ventana	34.279	01:18:08:20	6.663	V2681-02HD
 	ascend	Poeobius meseres	990.11	2681	 	36.696796	-122.05316	1716567	0.45	2005-07-07 19:33:43.533	Ventana	34.524	03:03:24:16	3.946	V2681-03
 	ascend	Solmissus	246.81	2694	 	36.784767	-122.20049	1676773	1.41	2005-07-27 21:09:46.0	Ventana	34.229	03:41:06:21	8.782	V2694-04
 	transect	Neptunea amianta	802.15	2674	 	36.751747	-122.210365	1801010	0.35	2005-06-08 18:21:39.0	Ventana	34.49	01:05:44:11	4.329	V2674-02
 	transect	Mesomyaria	999.79	2669	 	36.731003	-122.2325	1683759	0.45	2005-05-25 18:33:37.883	Ventana	34.521	00:56:04:08	3.915	V2669-01
 	transect	Rathbunaster californicus	196.49	2696	 	36.802937	-122.12233	1813058	1.55	2005-08-01 17:02:45.0	Ventana	34.2	00:31:03:29	8.607	V2696-01
 	transect	Sebastolobus	 	2687	 	 	 	1812629	 	2005-07-13 20:48:51.0	Ventana	 	04:13:21:20	 	V2687-05
 	ascend	Aegina	982.17	2683	 	36.707447	-122.04908	1757824	0.42	2005-07-11 20:52:19.0	Ventana	34.518	04:25:12:10	4.035	V2683-05
 	transect	Halipteris californica	597.69	2680	 	36.78106	-122.22601	1804849	0.35	2005-06-27 18:31:07.0	Ventana	34.379	01:10:13:20	5.592	V2680-02
 	ascend	Appendicularia	888.86	2681	 	36.698135	-122.05507	1717319	0.36	2005-07-07 19:50:22.7	Ventana	34.503	03:19:25:26	4.226	V2681-04
 	transect	Gastropoda sp.2	999.96	2669	 	36.731773	-122.2444	1734300	0.4	2005-05-25 19:52:19.0	Ventana	34.507	02:13:51:04	4.082	V2669-03
 	transect	Mesomyaria	801.15	2674	 	36.750996	-122.218346	1803571	0.35	2005-06-08 18:59:42.0	Ventana	34.491	01:43:44:07	4.343	V2674-02
 	ascend	Chaetognatha	1026.26	2682	 	36.697735	-122.05795	1722847	0.47	2005-07-08 20:04:07.0	Ventana	34.529	03:56:40:29	3.883	V2682-04
 	descend	Hormiphora	177.01	2693	 	36.696087	-122.05814	1758253	1.93	2005-07-25 18:07:29.0	Ventana	34.15	00:47:59:15	8.884	V2693-01
 	transect	Psolus squamatus	 	2687	 	 	 	1807290	 	2005-07-13 17:05:01.0	Ventana	 	00:31:55:03	 	V2687-01
 	cruise	Sebastolobus	359.63	2676	http://search.mbari.org/ARCHIVE/frameGrabs/Ventana/images/2676/00_45_01_27.jpg	36.804657	-122.02899	20003939	1.22	2005-06-14 17:00:54.0	Ventana	34.237	00:45:01:27	7.506	V2676-01
 	ascend	Appendicularia	595.01	2682	 	36.69884	-122.060074	1723433	0.33	2005-07-08 20:40:10.0	Ventana	34.373	04:32:18:01	5.608	V2682-05
 	transect	Porifera	 	2687	 	 	 	1807147	 	2005-07-13 17:01:25.0	Ventana	 	00:28:19:07	 	V2687-01
 	transect	Aegina	700.59	2681	 	36.69557	-122.05141	2497927	0.28	2005-07-07 18:46:12.0	Ventana	34.436	02:15:55:20	4.957	V2681-03HD
 	transect	cydippida	200.47	2681	 	36.69828	-122.05329	2490696	1.72	2005-07-07 17:08:19.0	Ventana	34.194	00:39:27:23	8.323	V2681-01HD
 	descend	Halicreas	917.8	2683	http://search.mbari.org/ARCHIVE/frameGrabs/Ventana/images/2683/02_46_21_12.jpg	36.703663	-122.048615	1757298	0.38	2005-07-11 19:05:59.0	Ventana	34.502	02:46:21:12	4.2	V2683-03
 	transect	myctophidae	900.99	2681	 	36.69505	-122.050705	2498476	0.39	2005-07-07 19:15:55.0	Ventana	34.506	02:45:36:28	4.162	V2681-03HD
 	transect	cydippida	500.58	2681	 	36.697742	-122.05351	2493317	0.44	2005-07-07 17:55:47.0	Ventana	34.346	01:26:10:06	6.021	V2681-02HD
 	transect	Mesomyaria	998.13	2669	 	36.733017	-122.25277	1737493	0.4	2005-05-25 20:49:28.0	Ventana	34.508	03:10:17:18	4.075	V2669-04
 	transect	Mediaster	 	2687	 	 	 	1811757	 	2005-07-13 20:24:38.0	Ventana	 	03:49:36:14	 	V2687-04
 	transect	Gastropoda	200.5	2696	 	36.80521	-122.12811	1813584	1.5	2005-08-01 18:01:37.0	Ventana	34.211	01:29:29:14	8.67	V2696-02
 	transect	Ophiuroidea	999.52	2669	 	36.73102	-122.23122	1683579	0.45	2005-05-25 18:25:02.0	Ventana	34.522	00:47:28:20	3.913	V2669-01
 	transect	Caridea sp.1	1000.36	2669	http://search.mbari.org/ARCHIVE/frameGrabs/Ventana/images/2669/02_34_09_26.jpg	36.73194	-122.24711	1735823	0.41	2005-05-25 20:12:39.0	Ventana	34.511	02:34:09:26	4.069	V2669-03
 	transect	Phyllospadix	999.79	2669	 	36.731407	-122.23725	1687478	0.44	2005-05-25 19:08:41.0	Ventana	34.519	01:30:40:12	3.947	V2669-02
 	stationary	Merluccius productus	501.65	2695	 	36.784576	-122.20044	1824451	0.86	2005-07-28 17:33:57.0	Ventana	34.268	00:40:17:14	6.646	V2695-01
 	cruise	Stylasterias	103.7	2688	 	36.81571	-122.014946	1679292	1.98	2005-07-14 19:44:56.0	Ventana	34.086	03:29:43:01	8.897	V2688-04
 	transect	Careproctus melanurus	799.41	2674	 	36.751686	-122.21286	1801236	0.35	2005-06-08 18:31:13.0	Ventana	34.489	01:15:17:01	4.335	V2674-02
 	transect	Chaetognatha	200.45	2681	 	36.69828	-122.05329	2490110	1.7	2005-07-07 17:04:48.0	Ventana	34.197	00:35:55:20	8.36	V2681-01HD
 	transect	Mesomyaria	997.48	2669	 	36.7306	-122.22726	1649128	0.45	2005-05-25 17:55:45.0	Ventana	34.521	00:18:14:04	3.908	V2669-01
 	transect	Euphausia	200.35	2681	 	36.69836	-122.05346	2491388	1.67	2005-07-07 17:13:54.0	Ventana	34.199	00:45:02:22	8.341	V2681-01HD
 	transect	Chaetognatha	300.42	2681	 	36.697495	-122.052956	2492242	1.24	2005-07-07 17:23:13.0	Ventana	34.233	00:54:21:08	7.402	V2681-01HD
 	ascend	Chaetognatha	924.77	2681	 	36.697704	-122.054276	1716996	0.4	2005-07-07 19:44:55.5	Ventana	34.507	03:13:58:15	4.154	V2681-04
 	transect	molt	100.53	2681	 	36.69983	-122.05429	2489561	2.13	2005-07-07 16:44:56.0	Ventana	34.068	00:16:05:02	9.147	V2681-01HD
 	transect	Phyllospadix	800.63	2674	 	36.75259	-122.20174	1799104	0.34	2005-06-08 17:37:28.0	Ventana	34.479	00:22:01:23	4.42	V2674-01
 	transect	Ophiuroidea	998.54	2669	 	36.731106	-122.23068	1683376	0.45	2005-05-25 18:19:39.0	Ventana	34.521	00:42:06:07	3.911	V2669-01
 	transect	Mesomyaria	998.37	2669	 	36.73293	-122.252075	1737327	0.4	2005-05-25 20:45:50.0	Ventana	34.509	03:06:38:11	4.083	V2669-04
 	transect	Phyllospadix	203.7	2696	 	36.806347	-122.12991	1813750	1.49	2005-08-01 18:26:06.0	Ventana	34.212	01:53:56:27	8.63	V2696-02
 	transect	Phyllospadix	801.48	2674	 	36.75218	-122.207886	1800115	0.35	2005-06-08 18:08:59.0	Ventana	34.49	00:53:31:11	4.328	V2674-01
 	descend	Chuniphyes	767.6	2683	 	36.702454	-122.04889	1757132	0.29	2005-07-11 17:58:35.0	Ventana	34.453	01:42:39:21	4.741	V2683-02
 	transect	Phyllospadix	197.32	2696	 	36.803413	-122.12373	1813201	1.56	2005-08-01 17:19:19.0	Ventana	34.197	00:47:37:19	8.63	V2696-01
 	transect	Poeobius meseres	800.92	2681	 	36.695457	-122.051315	2498153	0.31	2005-07-07 18:55:51.0	Ventana	34.476	02:25:33:04	4.491	V2681-03HD
 	descend	Nanomia	207.29	2681	 	36.69846	-122.05351	1713563	1.59	2005-07-07 17:14:38.837	Ventana	34.206	00:45:46:20	8.31	V2681-01
 	transect	Appendicularia	400.77	2681	 	36.696342	-122.05182	2492994	0.79	2005-07-07 17:43:23.0	Ventana	34.275	01:13:48:09	6.648	V2681-02HD
 	transect	Mesomyaria	999.83	2669	 	36.730606	-122.22914	1651057	0.45	2005-05-25 18:08:01.0	Ventana	34.522	00:30:28:29	3.905	V2669-01
 	transect	molt	100.47	2681	 	36.699814	-122.05428	2489741	2.13	2005-07-07 16:49:17.0	Ventana	34.067	00:20:26:16	9.155	V2681-01HD
 	cruise	Anoplopoma fimbria	437.12	2688	 	36.804665	-122.01859	1677668	0.87	2005-07-14 17:42:08.0	Ventana	34.275	01:27:51:11	6.843	V2688-02
 	transect	Mesomyaria	1000.28	2669	 	36.730946	-122.23339	1683902	0.45	2005-05-25 18:38:35.0	Ventana	34.522	01:01:00:23	3.912	V2669-01
 	descend	Chaetognatha	266.92	2682	 	36.699802	-122.060745	1720023	1.35	2005-07-08 16:28:36.0	Ventana	34.234	00:22:41:05	7.741	V2682-01
 	cruise	Zoarcidae	471.39	2676	 	36.80235	-122.02936	1676265	0.56	2005-06-14 16:33:03.0	Ventana	34.339	00:17:12:04	6.142	V2676-01
 	transect	Chionoecetes tanneri	800.41	2674	 	36.75201	-122.2091	1800867	0.35	2005-06-08 18:15:04.0	Ventana	34.487	00:59:35:08	4.328	V2674-01
 	descend	Sergestes similis	518.54	2682	 	36.69859	-122.059784	1720854	0.4	2005-07-08 18:01:22.0	Ventana	34.355	01:54:52:02	5.883	V2682-02
 	descend	Chaetognatha	 	2693	 	 	 	1759430	 	2005-07-25 16:44:36.0	Ventana	 	00:23:09:11	 	V2693-01
 	transect	Phyllospadix	800.11	2674	 	36.752495	-122.20329	1799307	0.35	2005-06-08 17:45:10.0	Ventana	34.485	00:29:42:29	4.378	V2674-01
 	transect	Phyllospadix	199.36	2696	 	36.804134	-122.125854	1813381	1.52	2005-08-01 17:41:28.0	Ventana	34.208	01:09:21:23	8.666	V2696-02
 	transect	Appendicularia	500.58	2681	 	36.697086	-122.052704	2493520	0.44	2005-07-07 17:58:52.0	Ventana	34.346	01:29:14:06	6.03	V2681-02HD
 	ascend	Chuniphyes	877.52	2682	 	36.698467	-122.05845	1723230	0.33	2005-07-08 20:18:03.0	Ventana	34.491	04:10:13:18	4.328	V2682-05
 	transect	Xeneretmus	399.85	2687	 	36.788033	-122.12149	1809053	1.14	2005-07-13 17:35:30.0	Ventana	34.24	01:01:52:15	7.282	V2687-02
 	transect	Aegina	1000.99	2681	 	36.696262	-122.052505	2498679	0.47	2005-07-07 19:28:57.0	Ventana	34.529	02:58:37:20	3.873	V2681-03HD
 	descend	Euphausiacea	199.63	2683	 	36.701046	-122.050964	1756380	1.71	2005-07-11 16:46:55.0	Ventana	34.192	00:34:35:16	8.397	V2683-01
 	transect	Glyptocephalus zachirus	 	2687	 	 	 	1810723	 	2005-07-13 19:29:49.0	Ventana	 	02:55:32:11	 	V2687-03
 	transect	Lycenchelys camchatica	801.22	2674	 	36.752167	-122.20794	1800687	0.35	2005-06-08 18:09:36.0	Ventana	34.49	00:54:08:00	4.329	V2674-01
 	transect	Ceriantharia sp. 1	598.29	2680	 	36.781517	-122.22665	1805015	0.36	2005-06-27 18:37:41.0	Ventana	34.376	01:16:46:20	5.6	V2680-02
 	transect	Psolus squamatus	 	2687	 	 	 	1807673	 	2005-07-13 17:22:04.0	Ventana	 	00:48:57:14	 	V2687-01
 	transect	Nanomia bijuga	200.43	2681	 	36.69828	-122.05329	2490313	1.69	2005-07-07 17:06:48.0	Ventana	34.199	00:37:56:22	8.355	V2681-01HD
 	descend	Chuniphyes	747.24	2681	 	36.6949	-122.05056	1716244	0.29	2005-07-07 18:50:19.9	Ventana	34.45	02:20:03:17	4.77	V2681-03
 	ascend	Appendicularia	760.13	2681	 	36.69868	-122.05593	1717522	0.29	2005-07-07 20:12:06.0	Ventana	34.45	03:41:07:25	4.809	V2681-04
 	transect	Phyllospadix	799.88	2674	 	36.75132	-122.21545	1803345	0.35	2005-06-08 18:45:54.0	Ventana	34.484	01:29:57:29	4.368	V2674-02
 	ascend	Copepoda	1151.66	2683	 	36.70804	-122.04891	1757764	0.69	2005-07-11 20:36:06.0	Ventana	34.567	04:10:27:06	3.418	V2683-04
 	transect	Mesomyaria	999.57	2669	 	36.731056	-122.235054	1684248	0.45	2005-05-25 18:50:32.0	Ventana	34.522	01:12:32:04	3.924	V2669-02
 	transect	Mesomyaria	1000.19	2669	 	36.731075	-122.23875	1689061	0.43	2005-05-25 19:19:45.0	Ventana	34.518	01:41:43:06	3.968	V2669-02
 	ascend	Copepoda	832.49	2681	 	36.69875	-122.05619	1717402	0.31	2005-07-07 19:57:24.88	Ventana	34.483	03:26:27:03	4.429	V2681-04
 	cruise	shell hash	93.14	2688	 	36.814827	-122.01712	1679435	1.95	2005-07-14 20:46:42.0	Ventana	34.096	04:30:57:05	8.94	V2688-05
 	ascend	Mysidae	422.12	2681	 	36.6992	-122.05424	1717947	0.78	2005-07-07 20:44:56.917	Ventana	34.278	04:13:33:25	6.638	V2681-05
 	transect	Diogenidae	598.55	2680	 	36.780674	-122.225685	1804789	0.35	2005-06-27 18:26:12.0	Ventana	34.384	01:05:18:23	5.56	V2680-02
 	transect	Neptunea amianta	800.45	2674	 	36.752422	-122.20541	1799792	0.36	2005-06-08 17:56:51.0	Ventana	34.487	00:41:23:14	4.361	V2674-01
 	transect	Phyllospadix	399.7	2687	 	36.78935	-122.12491	1809625	1.15	2005-07-13 18:26:36.0	Ventana	34.239	01:52:54:27	7.315	V2687-02
 	transect	Chionoecetes tanneri	999.16	2669	 	36.732754	-122.25138	1737207	0.41	2005-05-25 20:41:22.0	Ventana	34.509	03:02:12:17	4.072	V2669-04
 	transect	Corallimorphus pilatus	399.7	2687	 	36.789288	-122.12472	1809602	1.16	2005-07-13 18:23:28.0	Ventana	34.239	01:49:47:10	7.333	V2687-02
 	transect	Hormiphora	200.39	2681	 	36.698284	-122.053314	2490982	1.71	2005-07-07 17:10:25.0	Ventana	34.187	00:41:33:08	8.319	V2681-01HD
 	transect	Aegina	1001.05	2681	 	36.69492	-122.05077	2498559	0.48	2005-07-07 19:22:11.0	Ventana	34.533	02:51:51:13	3.867	V2681-03HD
 	transect	Mesomyaria	1000.23	2669	 	36.73183	-122.24517	1735357	0.4	2005-05-25 19:58:04.0	Ventana	34.505	02:19:34:24	4.099	V2669-03
 	transect	Lampocteis cruentiventer	800.87	2681	 	36.69589	-122.05183	2498213	0.31	2005-07-07 18:57:54.0	Ventana	34.476	02:27:34:27	4.495	V2681-03HD
 	cruise	Pannychia moseleyi	465.49	2676	http://search.mbari.org/ARCHIVE/frameGrabs/Ventana/images/2676/00_18_58_11.jpg	36.802612	-122.02938	1676288	0.57	2005-06-14 16:34:50.0	Ventana	34.336	00:18:58:11	6.183	V2676-01
 	transect	molt	50.5	2681	 	36.69951	-122.05406	2485417	 	2005-07-07 16:32:20.0	Ventana	 	00:03:29:19	 	V2681-01HD
 	transect	Phyllospadix	800.89	2674	 	36.752533	-122.20024	1774053	0.3	2005-06-08 17:28:17.0	Ventana	34.469	00:12:51:09	4.601	V2674-01
 	transect	physical object	 	2687	http://search.mbari.org/ARCHIVE/frameGrabs/Ventana/images/2687/02_54_32_28.jpg	 	 	1810700	 	2005-07-13 19:28:49.0	Ventana	 	02:54:32:28	 	V2687-03
 	transect	Porifera	 	2687	 	 	 	1812366	 	2005-07-13 20:34:43.0	Ventana	 	03:59:40:26	 	V2687-04
 	descend	Appendicularia	328.18	2693	 	36.697437	-122.06056	1758516	1.29	2005-07-25 19:47:21.0	Ventana	34.236	02:26:56:08	7.576	V2693-03
 	transect	Chorilia longipes	999.99	2669	http://search.mbari.org/ARCHIVE/frameGrabs/Ventana/images/2669/02_11_18_22.jpg	36.731712	-122.243935	1734037	0.41	2005-05-25 19:49:48.0	Ventana	34.513	02:11:18:22	4.081	V2669-03
 	transect	Phyllospadix	801.44	2674	 	36.75196	-122.20932	1800890	0.36	2005-06-08 18:15:59.0	Ventana	34.49	01:00:30:21	4.317	V2674-01
 	transect	Mediaster	 	2687	 	 	 	1812772	 	2005-07-13 20:56:52.0	Ventana	 	04:21:22:16	 	V2687-05
 	transect	Mesomyaria	1000.3	2669	 	36.731255	-122.241295	1689407	0.4	2005-05-25 19:35:33.0	Ventana	34.508	01:57:30:26	4.086	V2669-02
 	transect	Mesomyaria	798.3	2674	 	36.75165	-122.21365	1801296	0.35	2005-06-08 18:36:01.0	Ventana	34.484	01:20:04:22	4.35	V2674-02
 	descend	Bathocyroe	1047.18	2683	 	36.70494	-122.04916	1757418	0.48	2005-07-11 19:24:57.0	Ventana	34.532	03:05:17:11	3.866	V2683-03
 	transect	Psolus squamatus	 	2687	 	 	 	1809948	 	2005-07-13 18:48:31.0	Ventana	 	02:14:17:09	 	V2687-03
 	transect	apolemia	600.59	2681	 	36.696472	-122.0521	2493746	0.3	2005-07-07 18:22:15.0	Ventana	34.387	01:52:36:16	5.48	V2681-02HD
 	transect	Phyllospadix	200.14	2696	 	36.80454	-122.12674	1813464	1.51	2005-08-01 17:50:17.0	Ventana	34.213	01:18:10:06	8.668	V2696-02
 	ascend	sinker	730.77	2682	 	36.6988	-122.05925	1723313	0.28	2005-07-08 20:29:57.0	Ventana	34.437	04:22:05:05	4.913	V2682-05
 	ascend	Appendicularia	604.82	2682	 	36.698624	-122.06171	1723535	0.33	2005-07-08 20:57:39.0	Ventana	34.377	04:49:46:12	5.617	V2682-05
 	ascend	sinker	218.78	2683	 	36.702843	-122.05075	1758110	1.7	2005-07-11 21:28:12.0	Ventana	34.206	05:01:02:29	8.328	V2683-05
 	transect	Phyllospadix	800.9	2674	 	36.752518	-122.20262	1799224	0.35	2005-06-08 17:41:49.0	Ventana	34.487	00:26:22:23	4.375	V2674-01
 	transect	Mediaster	 	2687	 	 	 	1811614	 	2005-07-13 20:17:10.0	Ventana	 	03:42:09:19	 	V2687-04
 	cruise	Sebastolobus	1000.39	2669	http://search.mbari.org/ARCHIVE/frameGrabs/Ventana/images/2669/02_36_58_25.jpg	36.732037	-122.247444	20003796	0.4	2005-05-25 20:15:29.0	Ventana	34.51	02:36:58:25	4.082	V2669-03
 	descend	Appendicularia	717.01	2682	 	36.698547	-122.059944	1721463	0.28	2005-07-08 18:19:50.0	Ventana	34.438	02:12:54:10	4.911	V2682-03
 	transect	Ceriantharia sp. 1	599.97	2680	 	36.77831	-122.22347	1804383	0.36	2005-06-27 17:56:48.0	Ventana	34.38	00:36:54:27	5.586	V2680-01
 	transect	Psolus squamatus	 	2687	 	 	 	1808850	 	2005-07-13 17:30:24.0	Ventana	 	00:57:16:27	 	V2687-01
 	ascend	Crustacea	280.36	2693	 	36.691418	-122.0622	1759084	1.43	2005-07-25 21:20:23.0	Ventana	34.246	03:44:54:02	8.254	V2693-04
 	transect	Phyllospadix	803.49	2674	 	36.75077	-122.2204	1803691	0.34	2005-06-08 19:08:28.0	Ventana	34.478	01:52:30:09	4.395	V2674-02
 	transect	molt	100.51	2681	 	36.69925	-122.05392	2489824	2.14	2005-07-07 16:51:22.0	Ventana	34.067	00:22:30:14	9.15	V2681-01HD
 	cruise	mud	472.24	2688	 	36.802246	-122.01822	1677585	0.81	2005-07-14 17:29:20.0	Ventana	34.287	01:15:04:09	6.722	V2688-02
 	descend	Nanomia	184.28	2681	 	36.69828	-122.05329	1713540	1.92	2005-07-07 17:03:15.367	Ventana	34.142	00:34:24:12	8.464	V2681-01
 	transect	Parastichopus leukothele	204.38	2696	 	36.80764	-122.13127	1813870	1.46	2005-08-01 18:44:36.0	Ventana	34.225	02:11:40:25	8.64	V2696-03
 	transect	Mediaster	 	2687	 	 	 	1810377	 	2005-07-13 19:16:42.0	Ventana	 	02:42:26:22	 	V2687-03
 	stationary	Appendicularia	502.22	2694	 	36.784576	-122.20048	1676611	0.83	2005-07-27 19:42:48.0	Ventana	34.274	02:14:58:15	6.631	V2694-03
 	transect	Stylasterias forreri	 	2687	 	 	 	1812712	 	2005-07-13 20:54:26.0	Ventana	 	04:18:56:03	 	V2687-05
 	transect	Porifera sp. 1	 	2687	 	 	 	1810294	 	2005-07-13 19:14:48.0	Ventana	 	02:40:32:15	 	V2687-03
 	transect	Allocentrotus fragilis	 	2687	 	 	 	1812426	 	2005-07-13 20:38:12.0	Ventana	 	04:03:09:12	 	V2687-04
 	descend	Appendicularia	163.72	2683	 	36.701042	-122.05137	1756320	1.69	2005-07-11 16:39:33.0	Ventana	34.173	00:27:13:09	8.796	V2683-01
 	descend	Appendicularia	382.18	2683	 	36.701454	-122.04979	1756606	1.05	2005-07-11 16:58:19.0	Ventana	34.244	00:45:59:12	6.991	V2683-01
 	cruise	burrow	131.93	2688	 	36.81122	-122.022385	1677991	1.94	2005-07-14 18:39:56.0	Ventana	34.097	02:25:11:08	8.908	V2688-03
 	descend	Cyclothone	293.2	2693	 	36.6978	-122.06117	1758456	1.34	2005-07-25 19:37:58.0	Ventana	34.238	02:17:33:15	7.803	V2693-03
 	transect	Phyllospadix	1000.35	2669	 	36.731564	-122.242935	1694566	0.4	2005-05-25 19:44:06.0	Ventana	34.505	02:06:03:10	4.096	V2669-02
 	transect	Psolus squamatus	 	2687	 	 	 	1811046	 	2005-07-13 19:49:20.0	Ventana	 	03:14:21:20	 	V2687-04
 	transect	Psolus squamatus	 	2687	 	 	 	1811129	 	2005-07-13 19:55:30.0	Ventana	 	03:20:30:23	 	V2687-04
 	transect	Neptunea amianta	 	2669	 	 	 	1737553	 	2005-05-25 13:51:15.0	Ventana	 	03:12:02:29	 	V2669-04
 	transect	Neptunea amianta	602.06	2680	 	36.79069	-122.23281	1806801	0.35	2005-06-27 20:22:17.0	Ventana	34.379	03:00:53:15	5.592	V2680-03
 	transect	Mediaster	399.88	2687	 	36.78812	-122.1217	1809279	1.13	2005-07-13 17:38:10.0	Ventana	34.25	01:04:31:29	7.281	V2687-02
 	transect	Deiopea	200.41	2681	 	36.698284	-122.05331	2490922	1.7	2005-07-07 17:09:49.0	Ventana	34.189	00:40:57:03	8.321	V2681-01HD
 	ascend	Poeobius meseres	334.83	2693	 	36.69264	-122.061905	1759001	1.26	2005-07-25 21:14:37.0	Ventana	34.235	03:39:08:20	7.471	V2693-04
 	transect	Porifera sp. 1	 	2687	 	 	 	1808933	 	2005-07-13 17:32:20.0	Ventana	 	00:59:12:21	 	V2687-01
 	transect	Mediaster	 	2687	 	 	 	1811674	 	2005-07-13 20:20:42.0	Ventana	 	03:45:40:19	 	V2687-04
 	transect	Sebastolobus	999.09	2669	 	36.7314	-122.2361	1684594	0.44	2005-05-25 18:58:23.0	Ventana	34.521	01:20:23:16	3.943	V2669-02
 	transect	Mesomyaria	800.65	2674	 	36.752445	-122.20463	1799630	0.36	2005-06-08 17:52:53.0	Ventana	34.49	00:37:25:28	4.348	V2674-01
 	transect	Euphausia	200.44	2681	 	36.69828	-122.05329	2490636	1.73	2005-07-07 17:07:57.0	Ventana	34.193	00:39:04:22	8.328	V2681-01HD
 	transect	Phyllospadix	598.5	2680	 	36.782333	-122.22747	1805135	0.35	2005-06-27 18:48:39.0	Ventana	34.378	01:27:44:09	5.585	V2680-02
 	descend	Bathocyroe	544.77	2688	 	36.793434	-122.018265	1677239	0.64	2005-07-14 16:17:25.0	Ventana	34.322	00:03:46:03	6.278	V2688-01
 	ascend	Medusae	369.86	2681	 	36.69936	-122.054855	1718030	0.97	2005-07-07 20:50:47.31	Ventana	34.265	04:19:07:25	7.06	V2681-05
 	descend	Copepoda	1011.7	2689	 	36.771427	-122.08295	1669602	0.54	2005-07-18 16:37:37.0	Ventana	34.533	00:00:41:19	3.898	V2689-01
 	descend	Appendicularia	401.73	2682	 	36.69828	-122.05987	1720711	0.82	2005-07-08 17:37:55.0	Ventana	34.256	01:31:25:07	6.598	V2682-02
 	descend	Siphonophora	147.92	2683	 	36.7007	-122.05163	1756260	1.7	2005-07-11 16:23:46.0	Ventana	34.17	00:11:27:21	8.879	V2683-01
 	transect	Mesomyaria	999.67	2669	 	36.731094	-122.23539	1684331	0.45	2005-05-25 18:53:15.0	Ventana	34.521	01:15:15:06	3.924	V2669-02
 	transect	Ceriantharia sp. 2	1000.78	2669	 	36.732082	-122.24794	1736169	0.4	2005-05-25 20:18:07.0	Ventana	34.509	02:39:37:27	4.072	V2669-03
 	descend	Hastigerinella digitata	306.49	2682	 	36.69918	-122.060555	1720143	1.17	2005-07-08 16:56:04.0	Ventana	34.236	00:50:07:10	7.317	V2682-01
 	transect	Gastropoda sp.2	997.55	2669	 	36.73059	-122.227005	1694912	0.45	2005-05-25 17:54:19.0	Ventana	34.521	00:16:48:04	3.909	V2669-01
 	transect	molt	100.46	2681	 	36.69886	-122.053665	2489884	2.13	2005-07-07 16:52:18.0	Ventana	34.045	00:23:27:04	9.142	V2681-01HD
 	transect	Sergestes similis	500.57	2681	 	36.697487	-122.053215	2493400	0.44	2005-07-07 17:56:55.0	Ventana	34.346	01:27:17:21	6.018	V2681-02HD
 	transect	Psolus squamatus	399.88	2687	 	36.788094	-122.121605	1809196	1.13	2005-07-13 17:37:02.0	Ventana	34.241	01:03:24:21	7.262	V2687-02
 	transect	Microstomus pacificus	200.42	2696	 	36.804783	-122.12733	1813524	1.51	2005-08-01 17:56:02.0	Ventana	34.212	01:23:55:10	8.672	V2696-02
 	transect	Rathbunaster californicus	203.45	2696	 	36.80673	-122.130325	1813810	1.48	2005-08-01 18:35:07.0	Ventana	34.216	02:02:57:02	8.645	V2696-02
 	descend	Melanostigma pammelas	681.47	2683	 	36.702038	-122.04894	1757072	0.31	2005-07-11 17:53:15.0	Ventana	34.42	01:37:22:08	5.115	V2683-02
 	transect	Poeobius meseres	600.67	2681	 	36.695724	-122.05117	2493663	0.3	2005-07-07 18:18:32.0	Ventana	34.387	01:48:53:02	5.495	V2681-02HD
 	transect	Mysidae	800.85	2681	 	36.69694	-122.05308	2498273	0.31	2005-07-07 19:02:39.0	Ventana	34.473	02:32:21:15	4.51	V2681-03HD
 	descend	Munnopsidae	979.43	2683	 	36.70408	-122.04874	1757358	0.42	2005-07-11 19:14:16.0	Ventana	34.518	02:54:37:11	4.032	V2683-03
 	transect	Gastropoda sp.2	998.67	2669	 	36.731155	-122.23413	1694649	0.45	2005-05-25 18:42:50.0	Ventana	34.522	01:04:50:11	3.916	V2669-02
 	ascend	Appendicularia	260.82	2681	 	36.698814	-122.05696	1719045	1.42	2005-07-07 21:21:38.733	Ventana	34.232	04:49:57:25	7.957	V2681-05
 	ascend	Appendicularia	655.28	2682	 	36.6989	-122.059616	1723373	0.29	2005-07-08 20:35:32.0	Ventana	34.398	04:27:41:00	5.31	V2682-05
 	ascend	Lensia	370.88	2693	 	36.69687	-122.06032	1758738	1.2	2005-07-25 20:32:36.0	Ventana	34.235	03:12:08:06	7.192	V2693-03
 	transect	Mesomyaria	999.0	2669	 	36.73091	-122.22985	1651177	0.45	2005-05-25 18:13:14.0	Ventana	34.522	00:35:41:03	3.907	V2669-01
 	transect	Phyllospadix	800.52	2674	 	36.75257	-122.20213	1799164	0.33	2005-06-08 17:39:24.0	Ventana	34.476	00:23:58:04	4.446	V2674-01
 	transect	Mesomyaria	799.92	2674	 	36.7521	-122.208755	1800807	0.35	2005-06-08 18:13:18.0	Ventana	34.489	00:57:49:08	4.334	V2674-01
 	transect	Gastropoda sp.2	1000.01	2669	 	36.73169	-122.24385	1733977	0.41	2005-05-25 19:49:21.0	Ventana	34.509	02:10:52:06	4.069	V2669-03
 	transect	Halipteris californica	598.42	2680	 	36.781963	-122.22696	1805075	0.35	2005-06-27 18:42:44.0	Ventana	34.378	01:21:49:19	5.589	V2680-02
 	transect	Mesomyaria	999.52	2669	 	36.73102	-122.23387	1683985	0.45	2005-05-25 18:41:03.0	Ventana	34.522	01:03:03:21	3.913	V2669-02
 	ascend	Euphausiacea	258.17	2681	 	36.697838	-122.05522	1719534	 	2005-07-07 21:29:59.0	Ventana	 	05:11:48:09	 	V2681-05
 	transect	Psolus squamatus	 	2687	 	 	 	1808587	 	2005-07-13 17:24:25.0	Ventana	 	00:51:18:14	 	V2687-01
 	transect	Mesomyaria	1000.26	2669	 	36.73128	-122.240944	1689347	0.41	2005-05-25 19:33:37.0	Ventana	34.51	01:55:34:17	4.056	V2669-02
 	ascend	Appendicularia	619.72	2681	 	36.698925	-122.05424	1717684	0.3	2005-07-07 20:28:53.687	Ventana	34.384	03:57:54:14	5.478	V2681-04
 	cruise	Pandalus platyceros	 	2672	 	 	 	1824331	 	2005-06-03 14:53:03.0	Ventana	 	00:12:25:06	 	V2672-01
 	transect	Ophiuroidea	999.23	2669	 	36.73139	-122.23607	1684534	0.44	2005-05-25 18:57:55.0	Ventana	34.52	01:19:55:03	3.939	V2669-02
 	ascend	Appendicularia	261.18	2681	 	36.698853	-122.057	1718985	1.42	2005-07-07 21:20:30.133	Ventana	34.231	04:48:48:24	7.955	V2681-05
 	transect	Porifera sp. 1	399.88	2687	 	36.788048	-122.12153	1809136	1.13	2005-07-13 17:36:03.0	Ventana	34.244	01:02:25:12	7.27	V2687-02
 	transect	Ophiuroidea	999.23	2669	 	36.731396	-122.23638	1684737	0.44	2005-05-25 19:00:18.0	Ventana	34.52	01:22:17:21	3.946	V2669-02
 	transect	Phyllospadix	 	2687	 	 	 	1810986	 	2005-07-13 19:46:10.0	Ventana	 	03:11:11:18	 	V2687-04
 	ascend	Siphonophora	264.33	2681	 	36.69952	-122.054504	1718436	1.41	2005-07-07 21:09:01.427	Ventana	34.23	04:37:21:09	7.911	V2681-05
 	transect	Appendicularia	300.41	2681	 	36.69771	-122.05314	2492159	1.23	2005-07-07 17:22:31.0	Ventana	34.234	00:53:38:03	7.4	V2681-01HD
 	transect	Phyllospadix	798.77	2674	 	36.751495	-122.21447	1801356	0.35	2005-06-08 18:41:53.0	Ventana	34.49	01:25:56:23	4.333	V2674-02
 	ascend	Appendicularia	562.51	2682	 	36.698277	-122.06254	1723595	0.38	2005-07-08 21:07:26.0	Ventana	34.358	04:59:32:02	5.835	V2682-05
 	transect	Porifera sp. 1	 	2687	 	 	 	1811189	 	2005-07-13 20:00:14.0	Ventana	 	03:25:14:12	 	V2687-04
 	cruise	Chionoecetes tanneri	1016.06	2689	 	36.77157	-122.08297	1669888	0.5	2005-07-18 17:31:43.0	Ventana	34.533	00:54:44:17	3.844	V2689-01
 	transect	Mediaster	 	2687	 	 	 	1810234	 	2005-07-13 19:11:15.0	Ventana	 	02:36:59:20	 	V2687-03
 	transect	Mesomyaria	800.54	2674	 	36.75119	-122.21646	1803428	0.35	2005-06-08 18:51:16.0	Ventana	34.49	01:35:19:10	4.357	V2674-02
 	transect	Euplexaura	 	2687	 	 	 	1810091	 	2005-07-13 18:55:40.0	Ventana	 	02:21:25:05	 	V2687-03
 	descend	Appendicularia	550.06	2681	 	36.69568	-122.05106	1715612	0.36	2005-07-07 18:06:13.667	Ventana	34.367	01:36:35:22	5.749	V2681-02
 	ascend	Appendicularia	345.34	2693	 	36.69332	-122.06137	1758941	1.25	2005-07-25 21:10:22.0	Ventana	34.239	03:34:54:13	7.408	V2693-04
 	transect	Mediaster	 	2687	 	 	 	1810640	 	2005-07-13 19:26:11.0	Ventana	 	02:51:54:26	 	V2687-03
 	transect	Poralia rufescens	800.98	2681	 	36.695145	-122.0509	2498070	0.31	2005-07-07 18:54:13.0	Ventana	34.475	02:23:55:02	4.485	V2681-03HD
 	ascend	Acanthamunnopsis milleri	778.87	2681	 	36.698803	-122.05635	1717462	0.28	2005-07-07 20:06:14.8	Ventana	34.454	03:35:16:29	4.736	V2681-04
 	transect	Phyllospadix	801.39	2674	 	36.75249	-122.20009	1773993	0.31	2005-06-08 17:27:15.0	Ventana	34.476	00:11:49:19	4.582	V2674-01
 	ascend	Chaetognatha	373.29	2693	 	36.695576	-122.06065	1758798	1.2	2005-07-25 20:52:40.0	Ventana	34.232	03:17:13:24	7.177	V2693-04
 	transect	sinker	500.57	2681	 	36.69735	-122.05304	2493460	0.44	2005-07-07 17:57:38.0	Ventana	34.346	01:28:02:01	6.022	V2681-02HD
 	transect	Ophiuroidea	998.5	2669	 	36.731136	-122.230774	1683436	0.45	2005-05-25 18:20:46.0	Ventana	34.523	00:43:13:05	3.914	V2669-01
 	transect	Mesomyaria	999.98	2669	 	36.73191	-122.24568	1735417	0.41	2005-05-25 20:01:32.0	Ventana	34.508	02:23:03:13	4.065	V2669-03
 	transect	Calliostoma platinum	 	2687	 	 	 	1808993	 	2005-07-13 17:33:08.0	Ventana	 	01:00:00:25	 	V2687-01
 	transect	Calycophorae	1000.99	2681	 	36.69551	-122.05154	2498619	0.48	2005-07-07 19:25:12.0	Ventana	34.533	02:54:52:14	3.859	V2681-03HD
 	transect	Phyllospadix	799.73	2674	 	36.75269	-122.20068	1774136	0.29	2005-06-08 17:32:00.0	Ventana	34.464	00:16:34:18	4.649	V2674-01
 	transect	Phyllospadix	799.98	2674	 	36.752514	-122.203636	1799367	0.35	2005-06-08 17:47:22.0	Ventana	34.488	00:31:55:20	4.379	V2674-01
 	transect	Lycenchelys camchatica	801.67	2674	 	36.752254	-122.20735	1800055	0.37	2005-06-08 18:06:44.0	Ventana	34.485	00:51:16:04	4.355	V2674-01
 	descend	Chaetognatha	309.6	2682	 	36.699493	-122.0607	1720083	1.15	2005-07-08 16:40:58.0	Ventana	34.241	00:35:01:12	7.292	V2682-01
 	transect	Mediaster	400.09	2687	 	36.789116	-122.12414	1809542	1.17	2005-07-13 18:14:13.0	Ventana	34.237	01:40:32:21	7.359	V2687-02
 	endtransect	object	801.3	2674	 	36.751953	-122.209785	1800950	0.35	2005-06-08 18:18:55.0	Ventana	34.489	01:03:00:14	4.339	V2674-02
 	descend	Calycophorae	180.01	2682	 	36.69989	-122.060745	1719940	2.1	2005-07-08 16:20:00.0	Ventana	34.151	00:14:04:26	8.296	V2682-01
 	transect	Phyllospadix	1000.15	2669	 	36.73164	-122.243416	1733834	0.41	2005-05-25 19:46:59.0	Ventana	34.511	02:08:30:12	4.068	V2669-03
 	transect	Phyllospadix	801.68	2674	 	36.75091	-122.219604	1803631	0.35	2005-06-08 19:04:50.0	Ventana	34.49	01:48:52:18	4.362	V2674-02
 	cruise	Rathbunaster californicus	414.7	2688	 	36.806072	-122.01923	1677728	0.93	2005-07-14 17:49:06.0	Ventana	34.27	01:34:48:29	6.957	V2688-02
 	transect	Appendicularia	400.77	2681	 	36.696827	-122.05242	2493054	0.79	2005-07-07 17:45:34.0	Ventana	34.278	01:15:57:14	6.659	V2681-02HD
 	cruise	Rathbunaster californicus	442.59	2676	 	36.803165	-122.02924	1676348	0.64	2005-06-14 16:39:11.0	Ventana	34.318	00:23:20:07	6.4	V2676-01
 	descend	Poeobius meseres	678.69	2681	 	36.69792	-122.05384	1715958	0.28	2005-07-07 18:31:15.1	Ventana	34.414	02:01:35:04	5.126	V2681-02
 	transect	Mesomyaria	999.87	2669	 	36.731804	-122.24456	1734383	0.4	2005-05-25 19:53:51.0	Ventana	34.506	02:15:22:04	4.08	V2669-03
 	cruise	Mediaster	107.54	2676	http://search.mbari.org/ARCHIVE/frameGrabs/Ventana/images/2676/02_59_01_08.jpg	36.805794	-122.04265	1677179	1.93	2005-06-14 19:20:20.0	Ventana	34.16	02:59:01:08	8.419	V2676-03
 	transect	cyclothone	901.02	2681	 	36.695705	-122.05163	2498416	0.39	2005-07-07 19:12:28.0	Ventana	34.505	02:42:09:08	4.172	V2681-03HD
 	starttransect	color bars	900.93	2681	 	36.69688	-122.05305	1716507	0.39	2005-07-07 19:06:43.507	Ventana	34.505	02:36:26:05	4.167	V2681-03
 	transect	cydippida	300.44	2681	 	36.69838	-122.05355	2491956	1.25	2005-07-07 17:20:08.0	Ventana	34.233	00:51:16:20	7.431	V2681-01HD
 	transect	Neptunea amianta	800.24	2674	 	36.75176	-122.21189	1801153	0.35	2005-06-08 18:27:33.0	Ventana	34.489	01:11:37:11	4.341	V2674-02
 	stationary	Merluccius productus	502.35	2694	 	36.78463	-122.20047	1676630	0.85	2005-07-27 19:59:28.0	Ventana	34.27	02:31:38:02	6.686	V2694-03
 	ascend	Appendicularia	343.03	2681	 	36.69934	-122.0552	1718090	1.11	2005-07-07 20:53:14.533	Ventana	34.247	04:21:35:27	7.256	V2681-05
 	transect	Ceriantharia sp. 2	 	2669	 	 	 	1737613	 	2005-05-25 13:53:23.0	Ventana	 	03:14:11:08	 	V2669-04
 	transect	Diogenidae	602.04	2680	 	36.7916	-122.232956	1806861	0.36	2005-06-27 20:29:16.0	Ventana	34.378	03:07:52:11	5.589	V2680-03
 	transect	Hormiphora	200.39	2681	 	36.6983	-122.05337	2491125	1.68	2005-07-07 17:12:08.0	Ventana	34.198	00:43:16:17	8.337	V2681-01HD
 	cruise	Pannychia moseleyi	597.14	2688	 	36.796368	-122.02021	1677382	0.46	2005-07-14 16:39:57.0	Ventana	34.383	00:26:17:05	5.616	V2688-01
 	transect	Calycophorae	700.63	2681	 	36.697155	-122.05301	2497664	0.29	2005-07-07 18:39:12.0	Ventana	34.436	02:08:55:05	4.931	V2681-03HD
 	transect	lobata	200.31	2681	 	36.69828	-122.05329	2490027	1.69	2005-07-07 17:04:16.0	Ventana	34.194	00:35:23:28	8.359	V2681-01HD
 	transect	Porifera sp. 1	 	2687	 	 	 	1808790	 	2005-07-13 17:29:33.0	Ventana	 	00:56:25:26	 	V2687-01
 	transect	Nanomia bijuga	200.47	2681	 	36.69828	-122.05329	2490576	1.72	2005-07-07 17:07:39.0	Ventana	34.195	00:38:46:16	8.334	V2681-01HD
 	descend	Apolemia	100.25	2681	 	36.69857	-122.05348	1713480	2.15	2005-07-07 16:53:17.357	Ventana	34.07	00:24:27:00	9.128	V2681-01
 	transect	Phyllospadix	801.95	2674	 	36.752457	-122.19957	1773790	0.29	2005-06-08 17:24:31.0	Ventana	34.463	00:09:05:16	4.654	V2674-01
 	transect	Gastropoda sp.2	999.03	2669	 	36.73094	-122.22997	1695055	0.45	2005-05-25 18:13:49.0	Ventana	34.521	00:36:15:27	3.908	V2669-01
 	descend	Appendicularia	425.9	2683	 	36.701454	-122.04956	1756666	0.87	2005-07-11 17:06:13.0	Ventana	34.267	00:53:52:14	6.805	V2683-01
 	ascend	Appendicularia	603.3	2682	 	36.698635	-122.06156	1723516	0.34	2005-07-08 20:56:43.0	Ventana	34.374	04:48:50:20	5.635	V2682-05
 	transect	Phyllospadix	203.16	2696	 	36.805256	-122.12819	1813667	1.48	2005-08-01 18:13:30.0	Ventana	34.215	01:41:21:21	8.618	V2696-02
 	transect	Ophiuroidea	999.8	2669	 	36.730915	-122.23146	1683639	0.45	2005-05-25 18:27:08.0	Ventana	34.522	00:49:34:05	3.913	V2669-01
 	descend	Copepoda	835.17	2683	 	36.70281	-122.04848	1757215	0.33	2005-07-11 18:23:36.0	Ventana	34.478	02:07:40:05	4.444	V2683-02
 	transect	Psolus squamatus	 	2687	 	 	 	1809888	 	2005-07-13 18:47:26.0	Ventana	 	02:13:12:20	 	V2687-03
 	transect	Polychaeta	600.58	2681	 	36.697002	-122.052734	2493806	0.3	2005-07-07 18:24:42.0	Ventana	34.387	01:55:04:08	5.475	V2681-02HD
 	transect	Ceriantharia sp. 2	1000.3	2669	 	36.731506	-122.24245	1694506	0.41	2005-05-25 19:41:40.0	Ventana	34.509	02:03:36:27	4.065	V2669-02
 	transect	Umbellula lindahli	601.01	2680	 	36.77694	-122.222176	1804180	0.36	2005-06-27 17:40:05.0	Ventana	34.379	00:20:13:03	5.578	V2680-01
 	transect	Poeobius meseres	1001.0	2681	 	36.696133	-122.052345	2498670	0.47	2005-07-07 19:28:23.0	Ventana	34.531	02:58:02:24	3.871	V2681-03HD
 	descend	Hormiphora	379.15	2683	 	36.70144	-122.0498	1756601	1.05	2005-07-11 16:58:09.0	Ventana	34.244	00:45:48:07	6.991	V2683-01
 	transect	Allocentrotus fragilis	 	2687	 	 	 	1812500	 	2005-07-13 20:41:51.0	Ventana	 	04:06:48:08	 	V2687-04
 	transect	Aegina	600.57	2681	 	36.69683	-122.05254	2493788	0.3	2005-07-07 18:23:54.0	Ventana	34.388	01:54:15:04	5.477	V2681-02HD
 	transect	Diogenidae	600.7	2680	 	36.786526	-122.23112	1805883	0.36	2005-06-27 19:39:31.0	Ventana	34.377	02:18:10:04	5.6	V2680-03
 	transect	Solmissus	300.47	2681	 	36.698055	-122.0534	2492053	1.24	2005-07-07 17:21:19.0	Ventana	34.233	00:52:26:13	7.404	V2681-01HD
 	descend	Appendicularia	216.18	2693	 	36.696095	-122.058205	1758336	1.69	2005-07-25 18:27:08.0	Ventana	34.193	01:07:13:25	8.611	V2693-02
 	endtransect	physical object	801.37	2674	 	36.750957	-122.21911	1803626	0.35	2005-06-08 19:02:54.0	Ventana	34.49	01:46:56:12	4.351	V2674-02
 	transect	Sebastolobus	 	2687	 	 	 	1810243	 	2005-07-13 19:11:31.0	Ventana	 	02:37:15:21	 	V2687-03
 	transect	Mesomyaria	999.84	2669	 	36.730587	-122.229126	1651052	0.45	2005-05-25 18:07:45.0	Ventana	34.522	00:30:13:04	3.909	V2669-01
 	transect	molt	100.47	2681	 	36.69945	-122.054054	2489796	2.13	2005-07-07 16:50:56.0	Ventana	34.068	00:22:04:18	9.146	V2681-01HD
 	cruise	Anthomastus ritteri	420.15	2688	 	36.805836	-122.01915	1677719	0.93	2005-07-14 17:48:06.477	Ventana	34.264	01:33:49:10	6.949	V2688-02
 	transect	Phyllospadix	802.44	2674	 	36.752228	-122.2067	1799972	0.37	2005-06-08 18:03:26.0	Ventana	34.491	00:47:58:21	4.323	V2674-01
 	descend	Melanostigma pammelas	907.72	2682	 	36.69825	-122.05943	1721781	0.35	2005-07-08 18:51:43.0	Ventana	34.497	02:44:45:20	4.267	V2682-03
 	transect	Chionoecetes tanneri	802.57	2674	 	36.751774	-122.210304	1801001	0.36	2005-06-08 18:21:07.0	Ventana	34.49	01:05:11:19	4.324	V2674-02
 	transect	Psolus squamatus	 	2687	 	 	 	1810949	 	2005-07-13 19:43:38.0	Ventana	 	03:08:39:11	 	V2687-04
 	transect	Psolus squamatus	 	2687	 	 	 	1808831	 	2005-07-13 17:30:15.0	Ventana	 	00:57:08:00	 	V2687-01
 	transect	chuniphyes	700.59	2681	 	36.69518	-122.05092	2497964	0.28	2005-07-07 18:47:43.0	Ventana	34.432	02:17:25:26	4.989	V2681-03HD
 	transect	Sebastolobus	997.41	2669	 	36.730602	-122.22726	1649133	0.45	2005-05-25 17:56:03.0	Ventana	34.521	00:18:31:23	3.909	V2669-01
 	cruise	Sebastes diploproa	 	2687	 	 	 	1806912	 	2005-07-13 16:37:47.0	Ventana	 	00:04:43:00	 	V2687-01
 	transect	Rathbunaster californicus	197.43	2696	 	36.803432	-122.12377	1813206	1.56	2005-08-01 17:19:46.0	Ventana	34.196	00:48:03:21	8.631	V2696-01
 	transect	Mesomyaria	999.89	2669	 	36.731144	-122.24009	1689218	0.41	2005-05-25 19:28:01.0	Ventana	34.51	01:49:59:07	4.061	V2669-02
 	ascend	Calycophorae	516.66	2681	 	36.69896	-122.05425	1717744	0.46	2005-07-07 20:33:49.433	Ventana	34.34	04:02:49:12	6.085	V2681-04
 	cruise	Appendicularia	1214.85	2683	 	36.706505	-122.047646	1757630	0.73	2005-07-11 20:10:25.0	Ventana	34.575	03:44:48:12	3.333	V2683-04
 	transect	lobata	200.48	2681	 	36.69828	-122.05329	2490502	1.71	2005-07-07 17:07:10.0	Ventana	34.197	00:38:19:00	8.341	V2681-01HD
 	transect	Rathbunaster californicus	200.42	2696	 	36.804813	-122.12738	1813529	1.51	2005-08-01 17:56:56.0	Ventana	34.211	01:24:48:29	8.672	V2696-02
 	descend	Crustacea	345.55	2682	 	36.698757	-122.06055	1720185	1.03	2005-07-08 17:12:41.0	Ventana	34.251	01:06:14:18	7.125	V2682-02
 	transect	Gastropoda sp.2	 	2669	 	 	 	1737595	 	2005-05-25 13:52:42.0	Ventana	 	03:13:29:20	 	V2669-04
 	transect	Mesomyaria	1000.17	2669	 	36.73144	-122.24192	1689924	0.4	2005-05-25 19:39:04.0	Ventana	34.509	02:01:01:21	4.077	V2669-02
 	ascend	Chaetognatha	333.94	2681	 	36.69958	-122.05522	1718127	1.16	2005-07-07 20:55:14.167	Ventana	34.241	04:23:34:27	7.306	V2681-05
 	ascend	Appendicularia	258.17	2681	 	36.697838	-122.05522	1719479	 	2005-07-07 21:29:59.0	Ventana	 	05:06:43:05	 	V2681-05
 	transect	Ophiuroidea	998.98	2669	 	36.731403	-122.23617	1684659	0.44	2005-05-25 18:58:43.0	Ventana	34.521	01:20:43:00	3.944	V2669-02
 	ascend	Appendicularia	695.02	2681	 	36.69873	-122.05475	1717605	0.27	2005-07-07 20:21:23.72	Ventana	34.42	03:50:24:14	5.107	V2681-04
 	transect	Stomphia	 	2687	http://search.mbari.org/ARCHIVE/frameGrabs/Ventana/images/2687/04_24_00_10.jpg	 	 	1812823	 	2005-07-13 20:59:30.0	Ventana	 	04:24:00:10	 	V2687-05
 	transect	Nanomia bijuga	400.75	2681	 	36.697006	-122.05262	2493082	0.79	2005-07-07 17:46:20.0	Ventana	34.277	01:16:44:15	6.658	V2681-02HD
 	transect	Mesomyaria	1000.02	2669	 	36.731705	-122.24386	1733986	0.41	2005-05-25 19:49:27.0	Ventana	34.51	02:10:59:09	4.069	V2669-03
 	ascend	Nanomia	178.64	2693	 	36.690624	-122.06294	1759241	1.95	2005-07-25 21:29:50.0	Ventana	34.133	03:54:20:21	8.871	V2693-04
 	transect	Phyllospadix	999.48	2669	 	36.731117	-122.23543	1684336	0.45	2005-05-25 18:53:29.0	Ventana	34.52	01:15:29:17	3.924	V2669-02
 	ascend	Appendicularia	455.82	2682	 	36.69827	-122.06293	1723715	0.63	2005-07-08 21:18:21.0	Ventana	34.299	05:10:02:14	6.394	V2682-06
 	transect	Mediaster	 	2687	 	 	 	1811794	 	2005-07-13 20:25:17.0	Ventana	 	03:50:15:29	 	V2687-04
 	transect	Acanthamunnopsis milleri	200.37	2681	 	36.698307	-122.05339	2491208	1.68	2005-07-07 17:12:46.0	Ventana	34.2	00:43:53:18	8.337	V2681-01HD
 	cruise	Liponema brevicornis	502.51	2694	 	36.784412	-122.200485	1676168	0.76	2005-07-27 17:10:23.0	Ventana	34.287	00:03:31:11	6.484	V2694-01
 	transect	Mesomyaria	799.0	2674	 	36.751427	-122.21481	1801384	0.35	2005-06-08 18:43:24.0	Ventana	34.489	01:27:27:18	4.336	V2674-02
 	transect	mud	800.78	2674	 	36.75253	-122.201614	1799067	0.34	2005-06-08 17:36:28.0	Ventana	34.487	00:21:01:16	4.415	V2674-01
 	transect	Pennatulacea sp.1	599.91	2680	 	36.77794	-122.223114	1804332	0.36	2005-06-27 17:52:33.0	Ventana	34.379	00:32:40:03	5.588	V2680-01
 	transect	Leuroglossus stilbius	700.63	2681	 	36.697575	-122.053444	2497641	0.29	2005-07-07 18:37:20.0	Ventana	34.432	02:07:03:13	4.981	V2681-03HD
 	ascend	Appendicularia	621.95	2683	 	36.704895	-122.05039	1757953	0.3	2005-07-11 21:10:57.0	Ventana	34.392	04:43:50:00	5.5	V2683-05
 	transect	Sebastolobus	 	2669	 	 	 	1737655	 	2005-05-25 13:54:58.0	Ventana	 	03:15:46:02	 	V2669-04
 	cruise	Sebastolobus	588.41	2688	 	36.796688	-122.020096	1677396	0.47	2005-07-14 16:41:15.0	Ventana	34.374	00:27:34:27	5.686	V2688-01
 	transect	Diogenidae	600.01	2680	 	36.777355	-122.22252	1804272	0.36	2005-06-27 17:45:29.0	Ventana	34.379	00:25:36:19	5.582	V2680-01
 	transect	cydippida	50.44	2681	 	36.699825	-122.05429	2485560	2.95	2005-07-07 16:35:13.0	Ventana	33.923	00:06:23:15	9.619	V2681-01HD
 	transect	Umbellula lindahli	598.24	2680	 	36.78138	-122.22641	1804978	0.36	2005-06-27 18:35:38.0	Ventana	34.377	01:14:44:02	5.601	V2680-02
 	transect	Psolus squamatus	 	2687	 	 	 	1808891	 	2005-07-13 17:31:22.0	Ventana	 	00:58:14:11	 	V2687-01
 	transect	Ophiuroidea	997.17	2669	 	36.730644	-122.227615	1649193	0.45	2005-05-25 17:58:14.0	Ventana	34.522	00:20:43:01	3.909	V2669-01
 	descend	Sergestes similis	298.02	2681	 	36.69857	-122.05372	1713628	1.27	2005-07-07 17:17:44.1	Ventana	34.226	00:48:51:07	7.49	V2681-01
 	ascend	Mysidae	985.13	2681	 	36.696846	-122.05324	1716576	0.45	2005-07-07 19:34:37.333	Ventana	34.524	03:04:17:23	3.95	V2681-03
 	transect	Stomphia	801.48	2674	 	36.751762	-122.21092	1801061	0.35	2005-06-08 18:23:47.0	Ventana	34.49	01:07:52:01	4.328	V2674-02
 	descend	Appendicularia	391.08	2682	 	36.698353	-122.05988	1720692	0.93	2005-07-08 17:36:49.0	Ventana	34.252	01:30:18:22	6.84	V2682-02
 	ascend	Melanostigma pammelas	520.3	2682	 	36.69829	-122.06299	1723655	0.45	2005-07-08 21:11:35.0	Ventana	34.341	05:03:17:12	6.071	V2682-06
 	ascend	Appendicularia	589.64	2682	 	36.698795	-122.06066	1723456	0.4	2005-07-08 20:46:52.0	Ventana	34.371	04:39:00:17	5.673	V2682-05
 	transect	Mediaster	 	2687	 	 	 	1811332	 	2005-07-13 20:07:37.0	Ventana	 	03:32:36:15	 	V2687-04
 	cruise	Parastichopus	125.86	2688	 	36.81293	-122.01876	1678102	1.97	2005-07-14 19:26:57.0	Ventana	34.097	03:12:09:09	8.929	V2688-03
 	transect	Glyptocephalus zachirus	 	2687	 	 	 	1810889	 	2005-07-13 19:41:08.0	Ventana	 	03:06:10:01	 	V2687-04
 	cruise	Sebastolobus	441.79	2688	 	36.80418	-122.01842	1677659	0.87	2005-07-14 17:40:32.0	Ventana	34.274	01:26:15:14	6.834	V2688-02
 	transect	Gastropoda sp.2	998.43	2669	 	36.731144	-122.23073	1695069	0.45	2005-05-25 18:20:31.0	Ventana	34.523	00:42:57:09	3.914	V2669-01
 	descend	Aegina	923.24	2681	 	36.694695	-122.05042	1716516	0.41	2005-07-07 19:17:39.433	Ventana	34.512	02:47:20:27	4.063	V2681-03
 	transect	Phyllospadix	801.16	2674	 	36.750996	-122.21833	1803566	0.35	2005-06-08 18:59:35.0	Ventana	34.491	01:43:37:17	4.336	V2674-02
 	transect	Appendicularia	400.77	2681	 	36.697376	-122.05304	2493142	0.79	2005-07-07 17:47:51.0	Ventana	34.279	01:18:15:04	6.663	V2681-02HD
 	cruise	Remote Instrument Node	124.38	2672	http://search.mbari.org/ARCHIVE/frameGrabs/Ventana/images/2672/00_19_52_16.jpg	36.803104	-121.80557	20003824	2.68	2005-06-03 15:00:32.0	Ventana	33.954	00:19:52:16	9.331	V2672-01
 	transect	Brisaster	1000.43	2669	 	36.73224	-122.24876	1736243	0.4	2005-05-25 20:24:39.0	Ventana	34.507	02:46:07:28	4.078	V2669-03
 	ascend	Appendicularia	453.71	2683	 	36.704266	-122.05057	1758013	0.75	2005-07-11 21:18:05.0	Ventana	34.289	04:50:58:02	6.63	V2683-05
 	transect	Mesomyaria	999.5	2669	 	36.73102	-122.23118	1683570	0.45	2005-05-25 18:24:47.0	Ventana	34.521	00:47:13:20	3.914	V2669-01
 	transect	Ophiuroidea	1000.01	2669	 	36.73141	-122.23683	1686961	0.44	2005-05-25 19:04:32.0	Ventana	34.519	01:26:31:17	3.945	V2669-02
 	transect	Psolus squamatus	 	2687	 	 	 	1807295	 	2005-07-13 17:05:08.0	Ventana	 	00:32:02:18	 	V2687-01
 	transect	Mediaster	 	2687	 	 	 	1812560	 	2005-07-13 20:45:30.0	Ventana	 	04:10:01:05	 	V2687-05
 	transect	Gastropoda sp.2	998.81	2669	 	36.732803	-122.25143	1737212	0.41	2005-05-25 20:41:53.0	Ventana	34.509	03:02:41:07	4.072	V2669-04
 	transect	lensia	300.46	2681	 	36.698208	-122.05349	2491993	1.24	2005-07-07 17:20:45.0	Ventana	34.232	00:51:52:04	7.415	V2681-01HD
 	ascend	Appendicularia	346.18	2693	 	36.693626	-122.0613	1758918	1.25	2005-07-25 21:08:35.0	Ventana	34.234	03:33:07:06	7.394	V2693-04
 	transect	Poeobius meseres	1001.02	2681	 	36.69542	-122.05141	2498610	0.49	2005-07-07 19:24:40.0	Ventana	34.536	02:54:19:12	3.827	V2681-03HD
 	transect	Chionoecetes tanneri	999.98	2669	 	36.731224	-122.238235	1688835	0.44	2005-05-25 19:16:29.0	Ventana	34.519	01:38:27:25	3.951	V2669-02
 	ascend	Euphausiacea	201.02	2693	 	36.69085	-122.0627	1759181	1.7	2005-07-25 21:25:40.0	Ventana	34.191	03:50:12:15	8.939	V2693-04
 	transect	Phyllospadix	798.01	2674	 	36.751587	-122.214005	1801324	0.35	2005-06-08 18:38:15.0	Ventana	34.489	01:22:19:09	4.34	V2674-02
 	descend	Chuniphyes	1049.06	2682	 	36.698338	-122.059135	1722044	0.48	2005-07-08 19:03:43.0	Ventana	34.532	02:56:44:00	3.856	V2682-03
 	descend	Chaetognatha	929.15	2683	 	36.703686	-122.04861	1757307	0.37	2005-07-11 19:07:18.0	Ventana	34.508	02:47:41:03	4.185	V2683-03
 	transect	Lycenchelys camchatica	799.36	2674	 	36.752533	-122.20412	1799450	0.35	2005-06-08 17:49:47.0	Ventana	34.483	00:34:20:17	4.38	V2674-01
 	transect	Nanomia bijuga	200.44	2681	 	36.69828	-122.05329	2490119	1.7	2005-07-07 17:04:58.0	Ventana	34.197	00:36:06:21	8.358	V2681-01HD
 	cruise	shell hash	95.76	2688	 	36.81487	-122.01749	1679454	1.94	2005-07-14 21:02:12.9	Ventana	34.098	04:46:27:00	8.927	V2688-05
 	transect	Euplexaura	400.08	2687	 	36.789097	-122.12406	1809537	1.17	2005-07-13 18:13:13.0	Ventana	34.24	01:39:32:18	7.357	V2687-02
 	cruise	Merluccius productus	382.76	2690	 	36.790024	-121.88748	1670257	0.94	2005-07-18 19:52:27.0	Ventana	34.269	01:07:33:29	6.95	V2690-01
 	transect	Mediaster	 	2687	 	 	 	1811854	 	2005-07-13 20:27:08.0	Ventana	 	03:52:06:20	 	V2687-04
 	transect	Mesomyaria	999.72	2669	 	36.731056	-122.235176	1684276	0.45	2005-05-25 18:51:29.0	Ventana	34.521	01:13:29:09	3.922	V2669-02
 	ascend	Nanomia	258.17	2681	 	36.697838	-122.05522	1719539	 	2005-07-07 21:29:59.0	Ventana	 	05:12:12:10	 	V2681-05
 	transect	Mesomyaria	1000.1	2669	 	36.732574	-122.250244	1736949	0.41	2005-05-25 20:34:57.0	Ventana	34.509	02:56:25:21	4.067	V2669-03
 	transect	Euphausia	200.47	2681	 	36.69828	-122.05329	2490562	1.71	2005-07-07 17:07:31.0	Ventana	34.195	00:38:39:17	8.336	V2681-01HD
 	cruise	Lycodes	622.85	2688	 	36.793743	-122.01942	1677276	0.41	2005-07-14 16:26:27.0	Ventana	34.415	00:12:47:26	5.195	V2688-01
 	transect	Allocentrotus fragilis	399.93	2687	 	36.788124	-122.12169	1809274	1.13	2005-07-13 17:38:01.0	Ventana	34.243	01:04:23:20	7.254	V2687-02
 	transect	Mediaster	 	2687	 	 	 	1812237	 	2005-07-13 20:29:41.0	Ventana	 	03:54:39:21	 	V2687-04
 	descend	Appendicularia	618.5	2681	 	36.697945	-122.05386	1715930	0.31	2005-07-07 18:29:22.867	Ventana	34.392	01:59:43:15	5.391	V2681-02
 	ascend	Appendicularia	263.06	2681	 	36.698887	-122.05679	1718893	1.42	2005-07-07 21:18:58.867	Ventana	34.232	04:47:18:04	7.941	V2681-05
 	transect	Stylasterias forreri	200.22	2696	 	36.804554	-122.126785	1813469	1.51	2005-08-01 17:50:47.0	Ventana	34.21	01:18:40:08	8.667	V2696-02
 	descend	Leuroglossus stilbius	819.84	2681	 	36.69698	-122.0532	1716456	0.32	2005-07-07 19:03:32.533	Ventana	34.481	02:33:15:11	4.425	V2681-03
 	descend	main-camera	372.76	2693	 	36.696484	-122.06037	1758599	1.19	2005-07-25 20:11:38.0	Ventana	34.229	02:51:10:29	7.152	V2693-03
 	transect	Mesomyaria	1000.21	2669	 	36.73096	-122.233284	1683893	0.45	2005-05-25 18:38:09.0	Ventana	34.522	01:00:34:16	3.91	V2669-01
 	descend	Dosidicus gigas	400.22	2681	 	36.69559	-122.05108	1715224	0.79	2005-07-07 17:36:24.0	Ventana	34.277	01:06:47:27	6.676	V2681-02
 	cruise	Chionoecetes tanneri	1229.77	2683	 	36.705875	-122.04776	1757570	0.74	2005-07-11 19:57:41.0	Ventana	34.58	03:32:04:08	3.322	V2683-04
 	cruise	Coryphaenoides acrolepis	 	2673	 	 	 	1668402	 	 	Ventana	 	00:29:51:10	 	V2673-01
 	transect	Nanomia bijuga	200.39	2681	 	36.698296	-122.05335	2491088	1.69	2005-07-07 17:11:44.0	Ventana	34.198	00:42:51:04	8.335	V2681-01HD
 	ascend	Mysidae	827.47	2682	 	36.698658	-122.05864	1723253	0.33	2005-07-08 20:21:42.0	Ventana	34.477	04:13:52:02	4.449	V2682-05
 	transect	Mediaster	 	2687	 	 	 	1811734	 	2005-07-13 20:22:59.0	Ventana	 	03:47:58:01	 	V2687-04
 	descend	Bathochordaeus	126.74	2681	 	36.69828	-122.05329	1713508	2.29	2005-07-07 17:01:23.847	Ventana	34.073	00:32:32:15	8.697	V2681-01
 	transect	Mesomyaria	1000.43	2669	 	36.731945	-122.24701	1735800	0.41	2005-05-25 20:11:57.0	Ventana	34.51	02:33:27:17	4.063	V2669-03
 	transect	Lycenchelys camchatica	998.9	2669	 	36.730923	-122.229904	1683367	0.45	2005-05-25 18:13:31.0	Ventana	34.521	00:35:58:01	3.906	V2669-01
 	ascend	Appendicularia	938.37	2681	 	36.69757	-122.05404	1716959	0.41	2005-07-07 19:42:55.917	Ventana	34.514	03:11:59:16	4.074	V2681-04
 	transect	Psolus squamatus	 	2687	 	 	 	1811531	 	2005-07-13 20:15:12.0	Ventana	 	03:40:11:13	 	V2687-04
 	ascend	Apolemia	300.67	2681	 	36.699703	-122.055244	1718187	1.33	2005-07-07 20:59:16.967	Ventana	34.226	04:27:37:14	7.648	V2681-05
 	ascend	Chaetognatha	342.01	2683	 	36.703655	-122.050606	1758073	1.15	2005-07-11 21:22:48.0	Ventana	34.235	04:55:40:09	7.163	V2683-05
 	transect	Mediaster	 	2687	 	 	 	1812763	 	2005-07-13 20:56:32.0	Ventana	 	04:21:02:06	 	V2687-05
 	cruise	cave	104.01	2676	http://search.mbari.org/ARCHIVE/frameGrabs/Ventana/images/2676/02_30_08_06.jpg	36.808773	-122.0363	1677073	1.94	2005-06-14 18:51:24.0	Ventana	34.153	02:30:08:06	8.456	V2676-03
 	descend	Appendicularia	417.49	2683	 	36.70144	-122.04957	1756661	0.89	2005-07-11 17:05:47.0	Ventana	34.266	00:53:26:21	6.852	V2683-01
 	ascend	Appendicularia	383.19	2681	 	36.69934	-122.054634	1718007	0.94	2005-07-07 20:49:23.367	Ventana	34.27	04:17:44:14	6.98	V2681-05
 	descend	Hormiphora	184.69	2693	 	36.696064	-122.05818	1758276	1.84	2005-07-25 18:13:26.0	Ventana	34.177	00:53:56:06	8.874	V2693-01
 	transect	Calycophorae	600.53	2681	 	36.697666	-122.053535	2493848	0.3	2005-07-07 18:27:21.0	Ventana	34.389	01:57:41:08	5.476	V2681-02HD
 	transect	Leuroglossus stilbius	700.6	2681	 	36.695625	-122.05148	2497904	0.28	2005-07-07 18:45:40.0	Ventana	34.435	02:15:22:24	4.946	V2681-03HD
 	cruise	Pleuronectiformes	533.17	2688	 	36.798737	-122.01943	1677456	0.61	2005-07-14 17:02:58.0	Ventana	34.324	00:49:16:08	6.239	V2688-01
 	descend	Calycophorae	770.48	2682	 	36.698395	-122.05975	1721661	0.29	2005-07-08 18:32:11.0	Ventana	34.458	02:25:14:09	4.699	V2682-03
 	ascend	sinker	1016.57	2682	 	36.697723	-122.05808	1722870	0.47	2005-07-08 20:04:41.0	Ventana	34.528	03:57:15:09	3.89	V2682-04
 	descend	Nanomia	164.56	2682	 	36.69988	-122.06075	1719922	2.24	2005-07-08 16:19:17.0	Ventana	34.118	00:13:22:22	8.347	V2682-01
 	cruise	Rathbunaster californicus	462.07	2688	 	36.80265	-122.01823	1677599	0.85	2005-07-14 17:31:33.0	Ventana	34.278	01:17:17:09	6.787	V2688-02
 	descend	Copepoda	993.42	2683	 	36.704124	-122.04937	1757367	0.43	2005-07-11 19:15:42.0	Ventana	34.517	02:56:05:05	4.014	V2683-03
 	transect	Mesomyaria	802.78	2674	 	36.752247	-122.206276	1799912	0.36	2005-06-08 18:01:08.0	Ventana	34.488	00:45:40:04	4.339	V2674-01
 	cruise	rubble	107.17	2688	http://search.mbari.org/ARCHIVE/frameGrabs/Ventana/images/2688/02_34_18_14.jpg	36.81162	-122.022964	20005217	1.94	2005-07-14 18:49:03.0	Ventana	34.092	02:34:18:14	8.891	V2688-03
 	transect	Mesomyaria	998.77	2669	 	36.731155	-122.234146	1684073	0.45	2005-05-25 18:42:56.0	Ventana	34.523	01:04:57:00	3.915	V2669-02
 	transect	Ophiuroidea	997.35	2669	 	36.7306	-122.22797	1649253	0.45	2005-05-25 18:00:21.0	Ventana	34.521	00:22:49:19	3.907	V2669-01
 	cruise	Ophiodon elongatus	132.94	2676	http://search.mbari.org/ARCHIVE/frameGrabs/Ventana/images/2676/01_41_20_09.jpg	36.80848	-122.031105	1676893	1.71	2005-06-14 18:01:38.0	Ventana	34.179	01:41:20:09	8.305	V2676-02
 	descend	Copepoda	249.09	2693	 	36.69846	-122.06167	1758396	1.49	2005-07-25 19:24:48.0	Ventana	34.23	02:04:48:26	8.401	V2693-02
 	transect	Merluccius productus	 	2687	http://search.mbari.org/ARCHIVE/frameGrabs/Ventana/images/2687/02_31_39_14.jpg	 	 	1810183	 	2005-07-13 19:05:54.0	Ventana	 	02:31:39:14	 	V2687-03
 	transect	Aegina	600.65	2681	 	36.695763	-122.05124	2493668	0.3	2005-07-07 18:18:50.0	Ventana	34.387	01:49:11:00	5.496	V2681-02HD
 	transect	Embassichthys bathybius	1000.32	2669	 	36.732132	-122.24808	1736183	0.41	2005-05-25 20:19:32.0	Ventana	34.51	02:41:00:24	4.068	V2669-03
 	transect	Lycodes cortezianus	203.71	2696	 	36.807537	-122.13118	1813852	1.46	2005-08-01 18:42:56.0	Ventana	34.225	02:10:01:10	8.633	V2696-03
 	descend	Hastigerinella digitata	286.7	2683	 	36.701023	-122.05019	1756481	1.29	2005-07-11 16:52:53.0	Ventana	34.241	00:40:34:08	7.765	V2683-01
 	transect	Allocentrotus fragilis	399.84	2687	 	36.788048	-122.121544	1809154	1.13	2005-07-13 17:36:10.0	Ventana	34.242	01:02:32:10	7.271	V2687-02
 	ascend	Poralia rufescens	1196.22	2683	 	36.70724	-122.04767	1757690	0.72	2005-07-11 20:21:10.0	Ventana	34.572	03:55:32:11	3.366	V2683-04
 	transect	Nanomia bijuga	200.41	2681	 	36.69839	-122.053474	2491411	1.67	2005-07-07 17:14:05.0	Ventana	34.199	00:45:12:11	8.341	V2681-01HD
 	transect	Porifera	 	2687	 	 	 	1810363	 	2005-07-13 19:16:29.0	Ventana	 	02:42:12:28	 	V2687-03
 	transect	Phyllospadix	800.84	2674	 	36.75259	-122.20192	1799127	0.34	2005-06-08 17:38:12.0	Ventana	34.482	00:22:45:28	4.405	V2674-01
 	cruise	Pennatulacea	997.57	2679	 	36.690426	-122.166275	1824382	0.47	2005-06-16 20:20:38.0	Ventana	34.532	00:58:52:12	3.872	V2679-01
 	transect	Chaetognatha	200.45	2681	 	36.69828	-122.05329	2490179	1.7	2005-07-07 17:05:30.0	Ventana	34.197	00:36:38:21	8.358	V2681-01HD
 	descend	sinker	436.54	2682	 	36.698265	-122.05971	1720752	0.64	2005-07-08 17:46:40.0	Ventana	34.304	01:40:09:16	6.427	V2682-02
 	transect	Porifera sp. 1	399.48	2687	http://search.mbari.org/ARCHIVE/frameGrabs/Ventana/images/2687/01_56_40_29.jpg	36.789394	-122.125114	1809657	1.15	2005-07-13 18:30:22.0	Ventana	34.239	01:56:40:29	7.305	V2687-02
 	descend	Bathocyroe	1139.41	2682	 	36.6982	-122.05922	1722164	0.59	2005-07-08 19:12:50.0	Ventana	34.557	03:05:26:24	3.558	V2682-04
 	transect	Chionoecetes tanneri	800.36	2674	 	36.752533	-122.203415	1799330	0.35	2005-06-08 17:45:54.0	Ventana	34.483	00:30:27:03	4.371	V2674-01
 	transect	Nanomia bijuga	200.43	2681	 	36.69828	-122.0533	2490885	1.7	2005-07-07 17:09:29.0	Ventana	34.197	00:40:36:11	8.33	V2681-01HD
 	transect	Chionoecetes tanneri	602.78	2680	 	36.789387	-122.23253	1806709	0.36	2005-06-27 20:10:08.0	Ventana	34.379	02:48:45:15	5.59	V2680-03
 	transect	Sebastolobus	 	2687	 	 	 	1812620	 	2005-07-13 20:48:08.0	Ventana	 	04:12:38:09	 	V2687-05
 	transect	Mesomyaria	998.28	2669	 	36.73113	-122.23104	1683510	0.45	2005-05-25 18:22:51.0	Ventana	34.522	00:45:17:29	3.914	V2669-01
 	ascend	Copepoda	743.09	2681	 	36.69874	-122.05565	1717545	0.27	2005-07-07 20:15:21.567	Ventana	34.449	03:44:23:05	4.819	V2681-04
 	transect	Neptunea amianta	999.12	2669	 	36.731045	-122.231865	1683690	0.45	2005-05-25 18:29:29.0	Ventana	34.522	00:51:55:04	3.915	V2669-01
 	ascend	Crustacea	873.71	2681	 	36.698364	-122.05534	1717342	0.35	2005-07-07 19:52:15.333	Ventana	34.502	03:21:18:11	4.294	V2681-04
 	ascend	Prayidae	254.63	2681	 	36.69814	-122.05538	1719216	1.46	2005-07-07 21:25:29.633	Ventana	34.222	04:53:48:16	8.004	V2681-05
 	transect	Mediaster	 	2687	 	 	 	1812440	 	2005-07-13 20:38:54.0	Ventana	 	04:03:51:23	 	V2687-04
 	transect	Gastropoda sp.2	1000.85	2669	 	36.732273	-122.24934	1736363	0.41	2005-05-25 20:28:09.0	Ventana	34.509	02:49:37:22	4.075	V2669-03
 	ascend	Chaetognatha	680.39	2683	 	36.705585	-122.049385	1757893	0.31	2005-07-11 21:07:14.0	Ventana	34.431	04:40:06:14	5.012	V2683-05
 	transect	chuniphyes	500.58	2681	 	36.697327	-122.05302	2493465	0.44	2005-07-07 17:57:44.0	Ventana	34.346	01:28:06:18	6.022	V2681-02HD
 	transect	chuniphyes	900.99	2681	 	36.695236	-122.0509	2498467	0.39	2005-07-07 19:15:09.0	Ventana	34.506	02:44:50:11	4.156	V2681-03HD
 	transect	Rathbunaster californicus	196.51	2696	 	36.80323	-122.12305	1813146	1.57	2005-08-01 17:11:26.0	Ventana	34.193	00:39:44:09	8.632	V2696-01
 	transect	Allocentrotus fragilis	 	2687	 	 	 	1811272	 	2005-07-13 20:05:34.0	Ventana	 	03:30:33:21	 	V2687-04
 	transect	Appendicularia	901.06	2681	 	36.6968	-122.05293	2498287	0.39	2005-07-07 19:07:21.0	Ventana	34.506	02:37:02:13	4.16	V2681-03HD
 	descend	Appendicularia	292.68	2682	 	36.699253	-122.06061	1720125	1.21	2005-07-08 16:54:40.0	Ventana	34.241	00:48:43:18	7.451	V2682-01
 	transect	Phyllospadix	199.61	2696	 	36.803864	-122.12526	1813326	1.52	2005-08-01 17:35:17.0	Ventana	34.21	01:03:11:13	8.635	V2696-02
 	transect	Chionoecetes tanneri	999.61	2669	 	36.730515	-122.22892	1650932	0.45	2005-05-25 18:05:58.0	Ventana	34.522	00:28:25:28	3.906	V2669-01
 	descend	Bathocyroe	716.74	2682	 	36.6986	-122.059944	1721458	0.28	2005-07-08 18:17:55.0	Ventana	34.438	02:10:59:12	4.921	V2682-03
 	descend	Appendicularia	155.2	2683	 	36.700653	-122.05164	1756278	1.69	2005-07-11 16:26:19.0	Ventana	34.175	00:14:01:08	8.813	V2683-01
 	transect	Phyllospadix	800.01	2674	 	36.752686	-122.20063	1774131	0.29	2005-06-08 17:31:47.0	Ventana	34.455	00:16:21:02	4.658	V2674-01
 	transect	Psolus squamatus	 	2687	 	 	 	1808951	 	2005-07-13 17:32:34.0	Ventana	 	00:59:26:08	 	V2687-01
 	transect	Calliostoma platinum	 	2687	 	 	 	1807092	 	2005-07-13 16:59:16.0	Ventana	 	00:26:10:03	 	V2687-01
 	ascend	Aegina	864.9	2683	 	36.706917	-122.04865	1757833	0.38	2005-07-11 20:58:27.0	Ventana	34.502	04:31:20:19	4.221	V2683-05
 	descend	Calycophorae	754.4	2683	 	36.702393	-122.04891	1757127	0.28	2005-07-11 17:57:47.0	Ventana	34.451	01:41:51:18	4.754	V2683-02
 	ascend	Gonatus	343.41	2695	 	36.78388	-122.20092	1824525	1.26	2005-07-28 20:42:50.0	Ventana	34.25	05:40:25:01	8.084	V2695-04
 	transect	Calliostoma platinum	399.84	2687	 	36.78801	-122.1214	1809034	1.15	2005-07-13 17:34:46.0	Ventana	34.239	01:01:01:00	7.299	V2687-01
 	transect	Rathbunaster californicus	204.16	2696	 	36.80547	-122.12858	1813709	1.48	2005-08-01 18:17:54.0	Ventana	34.212	01:45:45:05	8.623	V2696-02
 	transect	Phyllospadix	800.84	2674	 	36.752518	-122.20279	1799247	0.35	2005-06-08 17:42:35.0	Ventana	34.486	00:27:08:06	4.384	V2674-01
 	transect	Phyllospadix	799.7	2674	 	36.75247	-122.20527	1799769	0.35	2005-06-08 17:56:20.0	Ventana	34.487	00:40:52:23	4.365	V2674-01
 	transect	Neptunea amianta	800.42	2674	 	36.7512	-122.216415	1803423	0.35	2005-06-08 18:51:00.0	Ventana	34.491	01:35:03:08	4.344	V2674-02
 	transect	Calycophorae	100.54	2681	 	36.69983	-122.05429	2489593	2.12	2005-07-07 16:45:40.0	Ventana	34.068	00:16:48:28	9.15	V2681-01HD
 	transect	Mesomyaria	1000.4	2669	 	36.731598	-122.243195	1733783	0.41	2005-05-25 19:45:36.0	Ventana	34.511	02:07:07:19	4.06	V2669-03
 	transect	Phyllospadix	197.76	2696	 	36.80266	-122.12168	1813003	1.53	2005-08-01 16:51:45.0	Ventana	34.204	00:20:04:25	8.569	V2696-01
 	transect	Phyllospadix	997.55	2669	 	36.730614	-122.22811	1649336	0.45	2005-05-25 18:01:17.0	Ventana	34.521	00:23:44:18	3.907	V2669-01
 	transect	Chaetognatha	300.41	2681	 	36.696186	-122.05183	2492556	1.24	2005-07-07 17:27:41.0	Ventana	34.233	00:58:47:10	7.427	V2681-01HD
 	cruise	Pleuronectiformes	516.42	2688	 	36.80045	-122.019135	1677516	0.67	2005-07-14 17:17:39.0	Ventana	34.313	01:03:56:10	6.395	V2688-01
 	transect	Mediaster	 	2687	http://search.mbari.org/ARCHIVE/frameGrabs/Ventana/images/2687/02_57_03_06.jpg	 	 	1810746	 	2005-07-13 19:31:20.0	Ventana	 	02:57:03:06	 	V2687-03
 	transect	Psolus squamatus	 	2687	 	 	 	1810446	 	2005-07-13 19:18:24.0	Ventana	 	02:44:08:05	 	V2687-03
 	transect	Aegina	700.65	2681	 	36.69608	-122.05197	2497784	0.29	2005-07-07 18:43:33.0	Ventana	34.435	02:13:17:02	4.946	V2681-03HD
 	descend	Appendicularia	274.28	2682	 	36.69977	-122.06079	1720042	1.34	2005-07-08 16:33:40.0	Ventana	34.226	00:27:43:05	7.706	V2682-01
 	transect	Neptunea amianta	799.89	2674	 	36.75209	-122.20869	1800798	0.35	2005-06-08 18:12:59.0	Ventana	34.49	00:57:30:23	4.329	V2674-01
 	transect	Rathbunaster californicus	199.68	2696	 	36.80426	-122.12608	1813409	1.52	2005-08-01 17:43:47.0	Ventana	34.208	01:11:41:09	8.663	V2696-02
 	ascend	Euphausiacea	 	2683	 	 	 	1758133	 	2005-07-11 14:30:33.0	Ventana	 	05:03:24:05	 	V2683-05
 	transect	Phyllospadix	801.06	2674	 	36.752556	-122.20134	1774191	0.34	2005-06-08 17:35:15.0	Ventana	34.482	00:19:48:16	4.38	V2674-01
 	transect	Psolus squamatus	399.85	2687	 	36.788136	-122.1218	1809334	1.13	2005-07-13 17:39:42.0	Ventana	34.238	01:06:03:28	7.275	V2687-02
 	descend	sinker	491.87	2683	 	36.701496	-122.04937	1756781	0.71	2005-07-11 17:23:57.0	Ventana	34.298	01:08:04:26	6.529	V2683-02
 	transect	cydippida	200.43	2681	 	36.69828	-122.05329	2490645	1.73	2005-07-07 17:07:59.0	Ventana	34.193	00:39:06:28	8.328	V2681-01HD
 	cruise	Lycodes	250.17	2688	 	36.8095	-122.020424	1677922	1.55	2005-07-14 18:30:42.0	Ventana	34.189	02:15:58:05	8.254	V2688-03
 	transect	Psolus squamatus	 	2687	 	 	 	1811069	 	2005-07-13 19:51:24.0	Ventana	 	03:16:25:19	 	V2687-04
 	transect	Corallimorphus pilatus	 	2687	 	 	 	1810040	 	2005-07-13 18:51:50.0	Ventana	 	02:17:36:15	 	V2687-03
 	transect	Mesomyaria	999.44	2669	 	36.73133	-122.23592	1684479	0.44	2005-05-25 18:57:06.0	Ventana	34.52	01:19:05:22	3.936	V2669-02
 	transect	Phyllospadix	801.51	2674	 	36.752216	-122.207695	1800092	0.4	2005-06-08 18:08:14.0	Ventana	34.49	00:52:45:29	4.334	V2674-01
 	transect	Ceriantharia sp. 1	602.02	2680	 	36.790604	-122.23277	1806792	0.35	2005-06-27 20:21:30.0	Ventana	34.379	03:00:06:20	5.586	V2680-03
 	descend	main-camera	326.31	2693	 	36.69745	-122.06058	1758539	1.29	2005-07-25 19:46:40.0	Ventana	34.236	02:26:14:22	7.581	V2693-03
 	transect	Ceriantharia sp. 2	1000.24	2669	 	36.731762	-122.24477	1734452	0.4	2005-05-25 19:55:00.0	Ventana	34.508	02:16:30:28	4.075	V2669-03
 	ascend	ship	 	2686	 	 	 	1670017	 	2005-07-12 22:29:49.0	Ventana	 	01:36:56:24	 	V2686-01
 	transect	Mesomyaria	999.7	2669	 	36.73142	-122.23697	1687427	0.44	2005-05-25 19:06:09.0	Ventana	34.52	01:28:08:02	3.941	V2669-02
 	transect	Neptunea amianta	599.99	2680	 	36.78405	-122.229454	1805504	0.36	2005-06-27 19:13:23.0	Ventana	34.376	01:52:26:22	5.613	V2680-02
 	transect	Phyllospadix	1000.47	2669	 	36.731533	-122.24281	1694543	0.4	2005-05-25 19:43:33.0	Ventana	34.51	02:05:30:16	4.087	V2669-02
 	transect	Umbellula lindahli	599.47	2680	 	36.779526	-122.22462	1804535	0.36	2005-06-27 18:11:04.0	Ventana	34.376	00:51:10:04	5.608	V2680-01
 	transect	Hormiphora	300.41	2681	 	36.697563	-122.05302	2492196	1.24	2005-07-07 17:22:59.0	Ventana	34.233	00:54:06:22	7.406	V2681-01HD
 	transect	Porifera	 	2687	 	 	 	1811152	 	2005-07-13 19:57:10.0	Ventana	 	03:22:09:25	 	V2687-04
 	transect	Phyllospadix	800.41	2674	 	36.751728	-122.21173	1801144	0.35	2005-06-08 18:27:02.0	Ventana	34.488	01:11:06:28	4.339	V2674-02
 	cruise	Zoarcidae	297.99	2688	 	36.808826	-122.020325	1677862	1.36	2005-07-14 18:13:50.0	Ventana	34.215	01:59:31:14	7.84	V2688-02
 	transect	Mediaster	 	2687	 	 	 	1808628	 	2005-07-13 17:25:37.0	Ventana	 	00:52:29:28	 	V2687-01
 	transect	Ophiuroidea	999.0	2669	 	36.731113	-122.23484	1684193	0.45	2005-05-25 18:48:26.0	Ventana	34.522	01:10:26:08	3.918	V2669-02
 	ascend	Crustacea	628.49	2682	 	36.698868	-122.05976	1723396	0.36	2005-07-08 20:37:01.0	Ventana	34.387	04:29:08:22	5.448	V2682-05
 	transect	Pennatula phosphorea californica	598.58	2680	 	36.780693	-122.2257	1804798	0.35	2005-06-27 18:26:24.0	Ventana	34.378	01:05:30:09	5.576	V2680-02
 	descend	Mysidae	1131.06	2683	 	36.705116	-122.048904	1757487	0.62	2005-07-11 19:32:03.0	Ventana	34.55	03:12:23:27	3.612	V2683-03
 	transect	Antimora microlepis	997.37	2669	http://search.mbari.org/ARCHIVE/frameGrabs/Ventana/images/2669/00_23_00_07.jpg	36.730637	-122.22799	1649276	0.45	2005-05-25 18:00:32.0	Ventana	34.522	00:23:00:07	3.906	V2669-01
 	transect	Physonectae	400.78	2681	 	36.69584	-122.05125	2492902	0.79	2005-07-07 17:41:09.0	Ventana	34.278	01:11:32:24	6.667	V2681-02HD
 	descend	Poralia	1196.97	2682	 	36.698418	-122.058586	1722224	0.68	2005-07-08 19:26:54.0	Ventana	34.571	03:19:30:09	3.376	V2682-04
 	ascend	Bolinopsis	1145.03	2683	 	36.708153	-122.04904	1757773	0.67	2005-07-11 20:38:21.0	Ventana	34.564	04:12:41:16	3.476	V2683-04
 	transect	Psolus squamatus	 	2687	 	 	 	1807498	 	2005-07-13 17:12:31.0	Ventana	 	00:39:25:00	 	V2687-01
 	cruise	Stylasterias	140.02	2676	 	36.80867	-122.03088	1676870	1.72	2005-06-14 17:57:06.0	Ventana	34.175	01:36:49:24	8.311	V2676-02
 	ascend	Appendicularia	370.93	2693	 	36.69666	-122.060555	1758715	1.2	2005-07-25 20:30:50.0	Ventana	34.233	03:10:21:20	7.177	V2693-03
 	transect	Umbellula lindahli	599.55	2680	 	36.77889	-122.224075	1804452	0.36	2005-06-27 18:04:35.0	Ventana	34.381	00:44:41:27	5.596	V2680-01
 	transect	Sebastolobus alascanus	400.5	2687	http://search.mbari.org/ARCHIVE/frameGrabs/Ventana/images/2687/01_34_27_26.jpg	36.788986	-122.12378	20005056	1.16	2005-07-13 18:08:08.0	Ventana	34.239	01:34:27:26	7.332	V2687-02
 	ascend	Siphonophora	 	2676	 	 	 	1677216	 	2005-06-14 19:34:17.0	Ventana	 	03:13:01:08	 	V2676-03
 	transect	Allocentrotus fragilis	 	2687	 	 	 	1812297	 	2005-07-13 20:31:21.0	Ventana	 	03:56:18:25	 	V2687-04
 	transect	Sebastolobus	399.84	2687	http://search.mbari.org/ARCHIVE/frameGrabs/Ventana/images/2687/01_02_17_21.jpg	36.788036	-122.12153	1809094	1.13	2005-07-13 17:35:55.0	Ventana	34.244	01:02:17:21	7.27	V2687-02
 	transect	Asteronyx loveni	598.78	2680	http://search.mbari.org/ARCHIVE/frameGrabs/Ventana/images/2680/01_28_46_13.jpg	36.782394	-122.227554	1805158	0.35	2005-06-27 18:49:41.0	Ventana	34.379	01:28:46:13	5.586	V2680-02
 	transect	lobata	500.59	2681	 	36.69764	-122.053406	2493345	0.44	2005-07-07 17:56:13.0	Ventana	34.347	01:26:36:13	6.017	V2681-02HD
 	transect	Mesomyaria	999.81	2669	 	36.731354	-122.23733	1687487	0.44	2005-05-25 19:09:08.0	Ventana	34.519	01:31:07:14	3.945	V2669-02
 	cruise	Pleuronectiformes	478.0	2688	 	36.802036	-122.01828	1677576	0.8	2005-07-14 17:27:50.0	Ventana	34.285	01:13:35:00	6.678	V2688-02
 	ascend	Copepoda	770.79	2681	 	36.69864	-122.05623	1717485	0.28	2005-07-07 20:09:11.0	Ventana	34.452	03:38:13:00	4.761	V2681-04
 	transect	Mediaster	 	2687	 	 	 	1810709	 	2005-07-13 19:29:06.0	Ventana	 	02:54:49:09	 	V2687-03
 	transect	Ceriantharia sp. 1	800.15	2674	 	36.751263	-122.21604	1803386	0.35	2005-06-08 18:49:26.0	Ventana	34.488	01:33:29:16	4.337	V2674-02
 	transect	Hormiphora	200.4	2681	 	36.698288	-122.05332	2491005	1.71	2005-07-07 17:10:41.0	Ventana	34.192	00:41:50:00	8.325	V2681-01HD
 	transect	Phyllospadix	999.92	2669	 	36.73185	-122.245026	1735334	0.4	2005-05-25 19:56:48.0	Ventana	34.508	02:18:17:04	4.083	V2669-03
 	transect	Psolus squamatus	 	2687	 	 	 	1811415	 	2005-07-13 20:11:58.0	Ventana	 	03:36:57:20	 	V2687-04
 	transect	cydippida	200.39	2681	 	36.69832	-122.05343	2491291	1.66	2005-07-07 17:13:26.0	Ventana	34.2	00:44:33:21	8.34	V2681-01HD
 	descend	Tomopteridae	535.86	2682	 	36.698612	-122.05978	1720872	0.37	2005-07-08 18:03:27.0	Ventana	34.365	01:56:55:09	5.775	V2682-02
 	transect	Mesomyaria	801.06	2674	 	36.751965	-122.20924	1800881	0.36	2005-06-08 18:15:41.0	Ventana	34.49	01:00:12:13	4.318	V2674-01
 	descend	Appendicularia	542.66	2681	 	36.695675	-122.05106	1715607	0.38	2005-07-07 18:06:00.567	Ventana	34.36	01:36:22:19	5.774	V2681-02
 	transect	molt	100.48	2681	 	36.699825	-122.05429	2489676	2.13	2005-07-07 16:47:41.0	Ventana	34.068	00:18:50:06	9.149	V2681-01HD
 	transect	Mesomyaria	1000.27	2669	 	36.730923	-122.23292	1683833	0.45	2005-05-25 18:36:15.0	Ventana	34.523	00:58:41:07	3.909	V2669-01
 	transect	Appendicularia	500.6	2681	 	36.696266	-122.0518	2493608	0.44	2005-07-07 18:02:09.0	Ventana	34.347	01:32:32:10	6.013	V2681-02HD
 	ascend	sinker	655.7	2681	 	36.698814	-122.05421	1717661	0.29	2005-07-07 20:26:51.39	Ventana	34.408	03:55:52:09	5.25	V2681-04
 	transect	Stomphia	998.14	2669	 	36.73304	-122.25288	1737512	0.4	2005-05-25 20:49:59.0	Ventana	34.509	03:10:47:19	4.074	V2669-04
 	descend	Salpida	508.71	2683	 	36.70142	-122.04919	1756864	0.68	2005-07-11 17:39:57.0	Ventana	34.305	01:24:04:15	6.461	V2683-02
 	transect	Mesomyaria	1000.26	2669	 	36.73118	-122.24058	1689278	0.41	2005-05-25 19:31:15.0	Ventana	34.51	01:53:13:07	4.057	V2669-02
 	descend	Euphausiacea	190.22	2683	 	36.701023	-122.05111	1756361	1.73	2005-07-11 16:44:33.0	Ventana	34.193	00:32:14:06	8.463	V2683-01
 	transect	Pennatulacea sp.1	599.91	2680	 	36.778408	-122.22362	1804392	0.36	2005-06-27 17:58:18.0	Ventana	34.379	00:38:24:28	5.592	V2680-01
 	transect	Ceriantharia sp. 1	601.94	2680	 	36.791473	-122.23295	1806852	0.36	2005-06-27 20:28:18.0	Ventana	34.38	03:06:53:26	5.587	V2680-03
 	transect	Calliostoma platinum	 	2687	 	 	 	1809800	 	2005-07-13 18:41:57.0	Ventana	 	02:07:42:27	 	V2687-03
 	transect	Umbellula lindahli	598.93	2680	 	36.780094	-122.2251	1804595	0.35	2005-06-27 18:18:23.0	Ventana	34.382	00:58:28:13	5.554	V2680-01
 	transect	Appendicularia	800.9	2681	 	36.695774	-122.05171	2498204	0.32	2005-07-07 18:57:22.0	Ventana	34.475	02:27:03:16	4.494	V2681-03HD
 	transect	Mesomyaria	801.24	2674	 	36.75227	-122.20721	1800032	0.36	2005-06-08 18:05:48.0	Ventana	34.485	00:50:20:09	4.359	V2674-01
 	transect	Poeobius meseres	400.78	2681	 	36.696384	-122.05187	2492999	0.79	2005-07-07 17:43:35.0	Ventana	34.275	01:13:58:29	6.648	V2681-02HD
 	cruise	Zoarcidae	330.54	2676	 	36.804718	-122.03132	1676228	1.22	2005-06-14 16:21:59.0	Ventana	34.238	00:06:09:12	7.509	V2676-01
 	transect	Phyllospadix	800.19	2674	 	36.752583	-122.202354	1799187	0.34	2005-06-08 17:40:26.0	Ventana	34.476	00:25:00:02	4.408	V2674-01
 	transect	Brisaster	1000.0	2669	 	36.731907	-122.245865	1735597	0.4	2005-05-25 20:02:36.0	Ventana	34.507	02:24:08:03	4.07	V2669-03
 	transect	Psolus squamatus	 	2687	 	 	 	1810303	 	2005-07-13 19:15:03.0	Ventana	 	02:40:47:29	 	V2687-03
 	transect	Pennatulacea sp.1	602.56	2680	 	36.788074	-122.23214	1805943	0.36	2005-06-27 19:56:15.0	Ventana	34.378	02:34:53:05	5.587	V2680-03
 	stationary	Merluccius productus	501.97	2694	 	36.784637	-122.2005	1676574	0.78	2005-07-27 18:50:35.0	Ventana	34.28	01:33:16:24	6.546	V2694-02
 	transect	Mesomyaria	999.99	2669	 	36.73176	-122.24423	1734249	0.4	2005-05-25 19:51:28.0	Ventana	34.503	02:12:58:23	4.083	V2669-03
 	descend	Appendicularia	316.97	2683	 	36.70114	-122.050125	1756518	1.22	2005-07-11 16:54:38.0	Ventana	34.24	00:42:17:23	7.552	V2683-01
 	transect	lensia	300.42	2681	 	36.696667	-122.05225	2492496	1.23	2005-07-07 17:26:02.0	Ventana	34.234	00:57:09:07	7.397	V2681-01HD
 	transect	Sebastes diploproa	 	2687	 	 	 	1810806	 	2005-07-13 19:35:11.0	Ventana	 	03:00:54:02	 	V2687-03
 	cruise	lasers	93.5	2688	http://search.mbari.org/ARCHIVE/frameGrabs/Ventana/images/2688/05_17_14_06.jpg	36.812992	-122.02143	1679537	1.92	2005-07-14 21:33:02.0	Ventana	34.109	05:17:14:06	8.878	V2688-05
 	transect	Psolus squamatus	 	2687	 	 	 	1807558	 	2005-07-13 17:15:14.0	Ventana	 	00:42:07:06	 	V2687-01
 	transect	Chionoecetes tanneri	799.39	2674	 	36.75167	-122.212944	1801241	0.35	2005-06-08 18:31:30.0	Ventana	34.489	01:15:34:04	4.336	V2674-02
 	transect	Microstomus pacificus	 	2687	 	 	 	1811212	 	2005-07-13 20:02:32.0	Ventana	 	03:27:31:23	 	V2687-04
 	transect	molt	100.46	2681	 	36.698895	-122.05369	2489879	2.13	2005-07-07 16:52:12.0	Ventana	34.045	00:23:21:11	9.142	V2681-01HD
 	ascend	Chaetognatha	231.78	2693	 	36.69126	-122.06246	1759121	1.56	2005-07-25 21:23:14.0	Ventana	34.223	03:47:45:05	8.521	V2693-04
 	ascend	Nanomia	336.32	2693	 	36.6928	-122.06158	1758978	1.26	2005-07-25 21:13:07.0	Ventana	34.236	03:37:39:27	7.459	V2693-04
 	transect	Solmissus	200.4	2681	 	36.698284	-122.05331	2490945	1.71	2005-07-07 17:10:05.0	Ventana	34.195	00:41:12:19	8.323	V2681-01HD
 	transect	Mesomyaria	998.71	2669	 	36.73091	-122.229774	1651172	0.45	2005-05-25 18:12:49.0	Ventana	34.521	00:35:16:03	3.908	V2669-01
 	cruise	rock outcrop	1010.75	2689	 	36.771427	-122.08282	1669611	0.53	2005-07-18 16:38:21.0	Ventana	34.528	00:01:25:28	3.905	V2689-01
 	transect	Mesomyaria	1000.05	2669	 	36.73166	-122.24348	1733843	0.41	2005-05-25 19:47:22.0	Ventana	34.511	02:08:52:19	4.069	V2669-03
 	transect	Brisaster	 	2687	 	 	 	1811355	 	2005-07-13 20:09:06.0	Ventana	 	03:34:05:29	 	V2687-04
 	descend	Vitreosalpa gemini	482.32	2682	 	36.698578	-122.059746	1720812	0.51	2005-07-08 17:57:49.0	Ventana	34.329	01:51:18:25	6.17	V2682-02
 	transect	Phyllospadix	800.98	2674	 	36.751953	-122.2097	1800941	0.35	2005-06-08 18:18:26.0	Ventana	34.49	01:02:31:09	4.331	V2674-02
 	transect	Porifera sp. 1	399.71	2687	 	36.789288	-122.124695	1809597	1.16	2005-07-13 18:23:16.0	Ventana	34.238	01:49:34:27	7.333	V2687-02
 	descend	Poeobius meseres	673.37	2683	 	36.70203	-122.04894	1757067	0.31	2005-07-11 17:52:55.0	Ventana	34.419	01:37:01:18	5.123	V2683-02
 	transect	haliscera	300.44	2681	 	36.69843	-122.05357	2491933	1.25	2005-07-07 17:19:52.0	Ventana	34.232	00:51:00:07	7.431	V2681-01HD
 	transect	Chionoecetes tanneri	800.83	2674	 	36.751755	-122.21113	1801084	0.35	2005-06-08 18:24:38.0	Ventana	34.489	01:08:43:01	4.342	V2674-02
 	transect	bolinopsis	600.6	2681	 	36.696125	-122.0517	2493705	0.3	2005-07-07 18:20:39.0	Ventana	34.387	01:51:00:09	5.497	V2681-02HD
 	transect	Gastropoda sp.2	999.24	2669	 	36.730804	-122.22957	1695046	0.45	2005-05-25 18:11:10.0	Ventana	34.522	00:33:36:27	3.906	V2669-01
 	ascend	Appendicularia	579.72	2682	 	36.69838	-122.06232	1723572	0.37	2005-07-08 21:05:29.1	Ventana	34.364	04:57:36:13	5.769	V2682-05
 	descend	Appendicularia	464.42	2683	 	36.70169	-122.0493	1756721	0.78	2005-07-11 17:10:02.0	Ventana	34.284	00:57:42:04	6.665	V2683-01
 	transect	Mediaster	 	2687	 	 	 	1810649	 	2005-07-13 19:26:45.0	Ventana	 	02:52:28:20	 	V2687-03
 	transect	Chionoecetes tanneri	999.91	2669	 	36.731422	-122.236755	1686878	0.44	2005-05-25 19:03:59.0	Ventana	34.52	01:25:59:03	3.943	V2669-02
 	transect	sinker	700.63	2681	 	36.695892	-122.05176	2497844	0.29	2005-07-07 18:44:22.0	Ventana	34.438	02:14:04:10	4.937	V2681-03HD
 	transect	Neptunea amianta	1000.26	2669	 	36.731377	-122.24169	1689841	0.4	2005-05-25 19:37:53.0	Ventana	34.509	01:59:50:01	4.076	V2669-02
 	descend	Dosidicus gigas	398.28	2681	 	36.695553	-122.05119	1715104	0.82	2005-07-07 17:33:16.533	Ventana	34.275	01:03:40:19	6.694	V2681-02
 	transect	Brisaster	1000.11	2669	 	36.731056	-122.23932	1689135	0.42	2005-05-25 19:23:17.0	Ventana	34.516	01:45:15:15	3.995	V2669-02
 	transect	Lycenchelys camchatica	800.79	2674	 	36.751137	-122.21722	1803483	0.35	2005-06-08 18:54:49.0	Ventana	34.491	01:38:51:25	4.331	V2674-02
 	transect	Mediaster	 	2687	 	 	 	1806995	 	2005-07-13 16:53:42.0	Ventana	 	00:20:36:10	 	V2687-01
 	endtransect	object	201.39	2696	 	36.805256	-122.12819	1813612	1.51	2005-08-01 18:04:40.0	Ventana	34.21	01:32:32:12	8.684	V2696-02
 	cruise	LRJ Complex	1017.97	2689	 	36.771557	-122.08294	1669754	0.56	2005-07-18 17:15:25.0	Ventana	34.55	00:38:27:13	3.654	V2689-01
 	transect	Phyllospadix	 	2687	 	 	 	1812357	 	2005-07-13 20:34:09.0	Ventana	 	03:59:07:11	 	V2687-04
 	transect	cydippida	100.48	2681	 	36.699818	-122.05429	2489736	2.13	2005-07-07 16:49:01.0	Ventana	34.067	00:20:10:22	9.155	V2681-01HD
 	transect	Mesomyaria	799.79	2674	 	36.75254	-122.20377	1799390	0.35	2005-06-08 17:47:52.0	Ventana	34.485	00:32:25:03	4.368	V2674-01
 	transect	Phyllospadix	802.43	2674	 	36.752308	-122.20575	1799829	0.36	2005-06-08 17:58:37.0	Ventana	34.489	00:43:09:20	4.333	V2674-01
 	transect	Phyllospadix	196.49	2696	 	36.802944	-122.12237	1813063	1.55	2005-08-01 17:03:17.0	Ventana	34.2	00:31:36:03	8.608	V2696-01
 	transect	Psolus squamatus	 	2687	 	 	 	1807701	 	2005-07-13 17:23:18.0	Ventana	 	00:50:11:11	 	V2687-01
 	transect	Porifera sp. 1	 	2687	 	 	 	1808688	 	2005-07-13 17:27:13.0	Ventana	 	00:54:05:08	 	V2687-01
 	cruise	mud	197.51	2696	 	36.80265	-122.12169	1812906	1.53	2005-08-01 16:45:28.0	Ventana	34.209	00:13:47:18	8.553	V2696-01
 	transect	Porifera sp. 1	 	2687	 	 	 	1810100	 	2005-07-13 18:56:38.0	Ventana	 	02:22:23:16	 	V2687-03
 	descend	Appendicularia	827.28	2682	 	36.698357	-122.059555	1721721	0.32	2005-07-08 18:43:51.0	Ventana	34.479	02:36:53:08	4.462	V2682-03
 	transect	Mesomyaria	1000.1	2669	 	36.731888	-122.24553	1735394	0.41	2005-05-25 20:00:37.0	Ventana	34.509	02:22:06:23	4.064	V2669-03
 	descend	Appendicularia	1057.99	2683	 	36.705055	-122.04899	1757427	0.49	2005-07-11 19:26:07.0	Ventana	34.533	03:06:28:29	3.837	V2683-03
 	transect	Phyllospadix	1000.42	2669	 	36.73147	-122.24225	1694483	0.4	2005-05-25 19:40:50.0	Ventana	34.509	02:02:47:24	4.067	V2669-02
 	ascend	Solmissus	265.92	2681	 	36.69891	-122.056625	1718773	1.41	2005-07-07 21:18:24.3	Ventana	34.231	04:46:43:18	7.918	V2681-05
 	cruise	Gorgonocephalus	89.88	2688	 	36.817017	-122.01529	1679334	1.99	2005-07-14 20:03:11.0	Ventana	34.086	03:47:57:08	8.909	V2688-04
 	transect	Porifera sp. 1	399.86	2687	 	36.78812	-122.12163	1809237	1.13	2005-07-13 17:37:27.0	Ventana	34.243	01:03:49:25	7.255	V2687-02
 	transect	Phyllospadix	 	2687	 	 	 	1807152	 	2005-07-13 17:02:00.0	Ventana	 	00:28:53:19	 	V2687-01
 	cruise	benthos	382.47	2690	 	36.79015	-121.88782	1669957	0.94	2005-07-18 19:49:03.0	Ventana	34.268	01:04:10:01	6.948	V2690-01
 	transect	Amphipoda	400.74	2681	 	36.697727	-122.05343	2493202	0.79	2005-07-07 17:49:19.0	Ventana	34.278	01:19:42:25	6.66	V2681-02HD
 	transect	Rathbunaster californicus	 	2687	 	 	 	1812703	 	2005-07-13 20:53:16.0	Ventana	 	04:17:46:13	 	V2687-05
 	transect	Ophiuroidea	998.5	2669	 	36.73115	-122.230736	1683427	0.45	2005-05-25 18:20:33.0	Ventana	34.523	00:42:59:24	3.914	V2669-01
 	cruise	rock outcrop	92.33	2688	http://search.mbari.org/ARCHIVE/frameGrabs/Ventana/images/2688/04_14_50_09.jpg	36.815147	-122.01724	20005277	1.97	2005-07-14 20:30:05.0	Ventana	34.092	04:14:50:09	8.953	V2688-04
 	ascend	Aegina	699.06	2682	 	36.69886	-122.05939	1723336	0.29	2005-07-08 20:32:15.0	Ventana	34.419	04:24:23:12	5.07	V2682-05
 	transect	Psolus squamatus	 	2687	 	 	 	1809943	 	2005-07-13 18:48:28.0	Ventana	 	02:14:13:25	 	V2687-03
 	transect	Nanomia bijuga	200.39	2681	 	36.698303	-122.053375	2491148	1.68	2005-07-07 17:12:18.0	Ventana	34.198	00:43:25:20	8.337	V2681-01HD
 	transect	Mesomyaria	998.44	2669	 	36.73118	-122.23443	1684133	0.45	2005-05-25 18:45:03.0	Ventana	34.521	01:07:03:13	3.916	V2669-02
 	transect	Psolus squamatus	 	2687	 	 	 	1811009	 	2005-07-13 19:48:08.0	Ventana	 	03:13:09:12	 	V2687-04
 	ascend	Euphausiacea	179.68	2682	 	36.696415	-122.06063	1723775	1.84	2005-07-08 21:32:09.0	Ventana	34.21	05:23:49:22	8.591	V2682-06
 	transect	molt	100.58	2681	 	36.69983	-122.05429	2489533	2.13	2005-07-07 16:44:02.0	Ventana	34.068	00:15:10:05	9.147	V2681-01HD
 	ascend	Appendicularia	1048.15	2682	 	36.697952	-122.05763	1722787	0.49	2005-07-08 20:02:14.0	Ventana	34.536	03:54:48:28	3.824	V2682-04
 	ascend	Copepoda	353.08	2681	 	36.69934	-122.05507	1718067	1.04	2005-07-07 20:52:19.323	Ventana	34.255	04:20:40:07	7.155	V2681-05
 	transect	Phyllospadix	803.33	2674	 	36.750782	-122.22029	1803686	0.34	2005-06-08 19:07:44.0	Ventana	34.484	01:51:46:06	4.387	V2674-02
 	transect	Calycophorae	300.44	2681	 	36.697792	-122.05321	2492136	1.23	2005-07-07 17:22:13.0	Ventana	34.233	00:53:21:00	7.399	V2681-01HD
 	cruise	mud	 	2673	 	 	 	1668342	 	 	Ventana	 	00:09:30:01	 	V2673-01
 	descend	Nanomia	406.22	2681	 	36.698032	-122.053764	1715307	0.79	2005-07-07 17:50:48.167	Ventana	34.275	01:21:10:05	6.638	V2681-02
 	transect	Rathbunaster californicus	203.54	2696	 	36.806503	-122.13008	1813769	1.48	2005-08-01 18:28:45.0	Ventana	34.215	01:56:35:28	8.632	V2696-02
 	transect	Phyllospadix	800.98	2674	 	36.75212	-122.208305	1800738	0.35	2005-06-08 18:11:05.0	Ventana	34.49	00:55:37:08	4.322	V2674-01
 	transect	Ophiuroidea	999.95	2669	 	36.731747	-122.244354	1734286	0.4	2005-05-25 19:52:05.0	Ventana	34.509	02:13:36:14	4.083	V2669-03
 	transect	Chionoecetes tanneri	999.53	2669	 	36.730938	-122.231606	1683653	0.45	2005-05-25 18:27:58.0	Ventana	34.522	00:50:24:25	3.916	V2669-01
 	transect	Mesomyaria	998.8	2669	 	36.73285	-122.25187	1737249	0.4	2005-05-25 20:44:12.0	Ventana	34.509	03:05:00:16	4.075	V2669-04
 	transect	Neptunea amianta	600.81	2680	 	36.786114	-122.23089	1805860	0.36	2005-06-27 19:34:46.0	Ventana	34.379	02:13:25:16	5.597	V2680-03
 	transect	Poeobius meseres	1000.94	2681	 	36.696354	-122.05264	2498693	0.47	2005-07-07 19:29:27.0	Ventana	34.53	02:59:07:16	3.878	V2681-03HD
 	transect	Euplexaura	399.7	2687	 	36.78918	-122.12433	1809560	1.17	2005-07-13 18:17:22.0	Ventana	34.237	01:43:41:19	7.361	V2687-02
 	transect	haliscera	600.58	2681	 	36.697075	-122.05281	2493811	0.3	2005-07-07 18:24:58.0	Ventana	34.388	01:55:19:02	5.472	V2681-02HD
 	transect	Glyptocephalus zachirus	 	2687	 	 	 	1810220	 	2005-07-13 19:09:53.0	Ventana	 	02:35:37:24	 	V2687-03
 	transect	Phyllospadix	802.14	2674	 	36.751762	-122.21051	1801024	0.35	2005-06-08 18:22:24.0	Ventana	34.49	01:06:28:23	4.33	V2674-02
 	transect	Funiculina	801.62	2674	 	36.750904	-122.219826	1803649	0.34	2005-06-08 19:05:50.0	Ventana	34.484	01:49:52:21	4.37	V2674-02
 	ascend	Chuniphyes	943.52	2681	 	36.697483	-122.05393	1716922	0.41	2005-07-07 19:42:02.707	Ventana	34.514	03:11:06:09	4.068	V2681-04
 	descend	Rhopalonematidae	917.21	2683	 	36.70353	-122.04849	1757284	0.38	2005-07-11 18:53:52.0	Ventana	34.506	02:34:14:12	4.2	V2683-03
 	transect	Allocentrotus fragilis	 	2687	 	 	 	1811295	 	2005-07-13 20:05:34.0	Ventana	 	03:30:33:21	 	V2687-04
 	transect	Psolus squamatus	 	2687	 	 	 	1807595	 	2005-07-13 17:16:30.0	Ventana	 	00:43:23:17	 	V2687-01
 	ascend	Appendicularia	262.83	2681	 	36.699455	-122.054565	1718473	1.41	2005-07-07 21:10:04.153	Ventana	34.231	04:38:24:14	7.916	V2681-05
 	transect	Mediaster	 	2687	 	 	 	1811771	 	2005-07-13 20:24:57.0	Ventana	 	03:49:55:09	 	V2687-04
 	transect	Umbellula lindahli	599.31	2680	 	36.777756	-122.22277	1804309	0.36	2005-06-27 17:50:00.0	Ventana	34.378	00:30:07:05	5.585	V2680-01
 	cruise	Gorgonocephalus	92.46	2688	 	36.81449	-122.01876	1679477	1.94	2005-07-14 21:11:44.0	Ventana	34.1	04:55:57:06	8.915	V2688-05
 	transect	Mesomyaria	999.86	2669	http://search.mbari.org/ARCHIVE/frameGrabs/Ventana/images/2669/01_36_59_23.jpg	36.731308	-122.23802	1688336	0.43	2005-05-25 19:15:01.0	Ventana	34.519	01:36:59:23	3.954	V2669-02
 	transect	Nanomia bijuga	200.43	2681	 	36.69828	-122.05329	2490096	1.7	2005-07-07 17:04:38.0	Ventana	34.197	00:35:46:29	8.36	V2681-01HD
 	transect	Appendicularia	700.71	2681	 	36.69787	-122.053696	2497618	0.29	2005-07-07 18:36:01.0	Ventana	34.429	02:05:44:13	4.964	V2681-03HD
 	ascend	Aegina	553.14	2681	 	36.69894	-122.05426	1717721	0.38	2005-07-07 20:32:08.467	Ventana	34.361	04:01:09:01	5.877	V2681-04
 	transect	Laminariales	 	2669	 	 	 	1737618	 	2005-05-25 13:53:23.0	Ventana	 	03:14:10:27	 	V2669-04
 	transect	Neptunea amianta	1000.77	2669	 	36.732292	-122.24904	1736266	0.41	2005-05-25 20:26:18.0	Ventana	34.509	02:47:46:09	4.065	V2669-03
 	descend	Aegina	545.24	2683	 	36.701633	-122.04916	1756947	0.49	2005-07-11 17:44:01.0	Ventana	34.328	01:28:07:17	6.129	V2683-02
 	transect	Psolus squamatus	399.87	2687	 	36.788082	-122.12158	1809191	1.13	2005-07-13 17:36:56.0	Ventana	34.241	01:03:18:22	7.262	V2687-02
 	transect	Ceriantharia sp. 2	997.84	2669	 	36.730625	-122.22718	1683330	0.45	2005-05-25 17:55:21.0	Ventana	34.521	00:17:49:11	3.91	V2669-01
 	descend	Copepoda	501.06	2681	 	36.695763	-122.051186	1715510	0.43	2005-07-07 18:04:37.467	Ventana	34.347	01:34:59:04	6.007	V2681-02
 	descend	Nanomia	129.49	2682	 	36.69982	-122.06059	1719885	2.31	2005-07-08 16:17:39.0	Ventana	34.087	00:11:42:27	8.689	V2682-01
 	transect	Porifera sp. 1	 	2687	 	 	 	1809883	 	2005-07-13 18:47:26.0	Ventana	 	02:13:12:20	 	V2687-03
 	transect	molt	901.04	2681	 	36.696007	-122.05199	2498370	0.39	2005-07-07 19:10:58.0	Ventana	34.504	02:40:38:07	4.175	V2681-03HD
 	ascend	Lensia	370.91	2693	 	36.69643	-122.06069	1758682	1.2	2005-07-25 20:27:55.0	Ventana	34.233	03:07:28:10	7.165	V2693-03
 	transect	cydippida	700.61	2681	 	36.695374	-122.051155	2497941	0.28	2005-07-07 18:46:46.0	Ventana	34.433	02:16:29:01	4.984	V2681-03HD
 	transect	Umbellula lindahli	598.28	2680	 	36.781796	-122.22689	1805061	0.36	2005-06-27 18:41:18.0	Ventana	34.377	01:20:23:29	5.597	V2680-02
 	descend	Calycophorae	943.96	2682	 	36.698254	-122.05933	1721804	0.37	2005-07-08 18:54:12.0	Ventana	34.499	02:47:14:12	4.22	V2682-03
 	transect	Mediaster	 	2687	 	 	 	1812200	 	2005-07-13 20:28:56.0	Ventana	 	03:53:54:27	 	V2687-04
 	descend	Appendicularia	378.37	2682	 	36.69844	-122.05996	1720669	0.94	2005-07-08 17:35:06.0	Ventana	34.261	01:28:37:03	6.981	V2682-02
 	descend	Copepoda	391.14	2683	 	36.701477	-122.04974	1756624	0.99	2005-07-11 16:58:49.0	Ventana	34.256	00:46:29:28	6.992	V2683-01
 	transect	Neptunea amianta	802.45	2674	 	36.752228	-122.206505	1799949	0.36	2005-06-08 18:02:16.0	Ventana	34.488	00:46:48:00	4.345	V2674-01
 	ascend	Hormiphora	368.48	2693	 	36.69495	-122.06095	1758835	1.24	2005-07-25 20:58:52.0	Ventana	34.234	03:23:26:17	7.336	V2693-04
 	cruise	Pennatulacea	1002.94	2679	 	36.68986	-122.1656	1824345	0.42	2005-06-16 17:30:43.0	Ventana	34.513	00:02:05:25	4.108	V2679-01
 	ascend	Appendicularia	640.31	2683	 	36.70509	-122.050095	1757930	0.28	2005-07-11 21:09:50.0	Ventana	34.406	04:42:43:03	5.272	V2683-05
 	ascend	Calycophorae	725.29	2681	 	36.698696	-122.05527	1717568	0.28	2005-07-07 20:18:12.1	Ventana	34.44	03:47:13:01	4.913	V2681-04
 	transect	Microstomus pacificus	 	2669	 	 	 	1737678	 	2005-05-25 13:56:44.0	Ventana	 	03:17:31:22	 	V2669-04
 	transect	Phyllospadix	 	2687	 	 	 	1807212	 	2005-07-13 17:03:33.0	Ventana	 	00:30:27:18	 	V2687-01
 	transect	molt	100.58	2681	 	36.69983	-122.05429	2489496	2.13	2005-07-07 16:43:03.0	Ventana	34.068	00:14:12:28	9.152	V2681-01HD
 	transect	Mesomyaria	997.43	2669	 	36.730667	-122.22755	1649170	0.45	2005-05-25 17:57:37.0	Ventana	34.521	00:20:05:16	3.909	V2669-01
 	transect	Actiniaria sp. 1	999.52	2669	 	36.73102	-122.23387	1683990	0.45	2005-05-25 18:41:03.0	Ventana	34.522	01:03:03:21	3.913	V2669-02
 	ascend	Appendicularia	893.53	2682	 	36.698338	-122.05842	1723216	0.34	2005-07-08 20:16:15.0	Ventana	34.496	04:08:23:11	4.282	V2682-05
 	transect	molt	100.47	2681	 	36.699776	-122.05426	2489759	2.12	2005-07-07 16:49:53.0	Ventana	34.067	00:21:01:28	9.159	V2681-01HD
 	transect	Mesomyaria	999.79	2669	 	36.73105	-122.23967	1689181	0.41	2005-05-25 19:25:29.0	Ventana	34.51	01:47:26:25	4.062	V2669-02
 	descend	Appendicularia	1183.94	2682	 	36.698242	-122.05786	1722404	0.66	2005-07-08 19:41:32.0	Ventana	34.57	03:34:08:08	3.414	V2682-04
 	cruise	Chionoecetes tanneri	1208.45	2683	 	36.707012	-122.04763	1757667	0.72	2005-07-11 20:15:00.0	Ventana	34.573	03:49:23:18	3.353	V2683-04
 	transect	Mesomyaria	999.48	2669	 	36.731056	-122.23505	1684253	0.45	2005-05-25 18:50:38.0	Ventana	34.521	01:12:38:01	3.922	V2669-02
 	transect	Phyllospadix	 	2687	 	 	 	1807655	 	2005-07-13 17:20:35.0	Ventana	 	00:47:28:05	 	V2687-01
 	transect	Gastropoda sp.2	1000.04	2669	 	36.731136	-122.23858	1694723	0.43	2005-05-25 19:18:41.0	Ventana	34.516	01:40:39:04	3.961	V2669-02
 	descend	Nanomia	384.57	2681	 	36.695557	-122.0512	1715081	0.93	2005-07-07 17:32:47.867	Ventana	34.261	01:03:12:00	6.893	V2681-02
 	transect	Calliostoma platinum	399.71	2687	 	36.789356	-122.12488	1809620	1.15	2005-07-13 18:26:11.0	Ventana	34.238	01:52:30:00	7.318	V2687-02
 	transect	Calliostoma platinum	 	2687	 	 	 	1810160	 	2005-07-13 19:01:56.0	Ventana	 	02:27:41:19	 	V2687-03
 	cruise	Alepocephalus tenebrosus	616.39	2688	 	36.79482	-122.01922	1677313	0.43	2005-07-14 16:31:23.787	Ventana	34.398	00:17:44:06	5.395	V2688-01
 	transect	Porifera	 	2687	 	 	 	1811831	 	2005-07-13 20:26:40.0	Ventana	 	03:51:38:26	 	V2687-04
 	ascend	Euphausiacea	258.17	2681	 	36.697838	-122.05522	1719516	 	2005-07-07 21:29:59.0	Ventana	 	05:09:38:19	 	V2681-05
 	transect	Mesomyaria	798.44	2674	 	36.75163	-122.21376	1801301	0.35	2005-06-08 18:36:46.0	Ventana	34.489	01:20:50:11	4.342	V2674-02
 	transect	Phyllospadix	800.92	2674	 	36.752563	-122.201706	1799090	0.34	2005-06-08 17:36:58.0	Ventana	34.479	00:21:31:16	4.445	V2674-01
 	descend	Appendicularia	684.75	2682	 	36.698654	-122.05997	1721421	0.28	2005-07-08 18:13:04.0	Ventana	34.413	02:06:09:01	5.174	V2682-03
 	transect	Ceriantharia sp. 1	599.96	2680	 	36.783695	-122.22914	1805444	0.35	2005-06-27 19:10:04.0	Ventana	34.379	01:49:07:09	5.593	V2680-02
 	transect	Mediaster	 	2687	 	 	 	1812583	 	2005-07-13 20:46:06.0	Ventana	 	04:10:37:12	 	V2687-05
 	descend	Nanomia	193.43	2681	 	36.69828	-122.05329	1713545	1.98	2005-07-07 17:03:32.357	Ventana	34.164	00:34:41:11	8.305	V2681-01
 	descend	Appendicularia	737.51	2681	 	36.694916	-122.05057	1716230	0.3	2005-07-07 18:50:01.297	Ventana	34.446	02:19:44:29	4.793	V2681-03
 	transect	Hormiphora	200.45	2681	 	36.69828	-122.05329	2490742	1.71	2005-07-07 17:08:35.0	Ventana	34.193	00:39:42:25	8.323	V2681-01HD
 	stationary	Merluccius productus	502.39	2694	 	36.784534	-122.200485	1676667	0.72	2005-07-27 20:29:16.0	Ventana	34.295	03:01:23:11	6.413	V2694-03
 	ascend	Lensia	336.6	2681	 	36.699398	-122.05527	1718104	1.14	2005-07-07 20:53:59.1	Ventana	34.245	04:22:19:13	7.285	V2681-05
 	transect	Appendicularia	400.75	2681	 	36.696857	-122.05246	2493059	0.79	2005-07-07 17:45:42.0	Ventana	34.277	01:16:05:02	6.659	V2681-02HD
 	descend	Hormiphora	437.18	2683	 	36.701508	-122.049446	1756684	0.84	2005-07-11 17:07:50.0	Ventana	34.275	00:55:29:11	6.765	V2683-01
 	ascend	Chuniphyes	353.94	2693	 	36.693913	-122.06105	1758895	1.24	2005-07-25 21:03:50.0	Ventana	34.235	03:28:23:11	7.375	V2693-04
 	ascend	Appendicularia	425.78	2683	 	36.704155	-122.05058	1758036	0.88	2005-07-11 21:19:13.0	Ventana	34.265	04:52:05:21	6.843	V2683-05
 	transect	Mesomyaria	802.42	2674	 	36.75229	-122.20609	1799889	0.36	2005-06-08 18:00:17.0	Ventana	34.49	00:44:49:07	4.342	V2674-01
 	transect	Mesomyaria	801.26	2674	http://search.mbari.org/ARCHIVE/frameGrabs/Ventana/images/2674/00_54_36_10.jpg	36.75217	-122.208084	1800701	0.35	2005-06-08 18:10:05.0	Ventana	34.489	00:54:36:10	4.332	V2674-01
 	ascend	Appendicularia	538.94	2682	 	36.69833	-122.062805	1723632	0.41	2005-07-08 21:10:05.0	Ventana	34.355	05:01:46:21	5.965	V2682-06
 	transect	Mesomyaria	999.79	2669	 	36.730618	-122.22935	1651075	0.45	2005-05-25 18:08:52.0	Ventana	34.522	00:31:20:11	3.905	V2669-01
 	transect	Gastropoda sp.2	999.22	2669	 	36.73103	-122.231964	1695092	0.45	2005-05-25 18:29:58.0	Ventana	34.52	00:52:24:12	3.913	V2669-01
 	descend	Poeobius meseres	879.9	2681	 	36.696945	-122.05317	1716493	0.36	2005-07-07 19:05:25.4	Ventana	34.498	02:35:07:19	4.221	V2681-03
 	ascend	Aegina	594.97	2682	 	36.698772	-122.06087	1723479	0.38	2005-07-08 20:48:54.0	Ventana	34.373	04:41:01:24	5.657	V2682-05
 	transect	Poeobius meseres	700.62	2681	 	36.69568	-122.05154	2497881	0.28	2005-07-07 18:45:22.0	Ventana	34.437	02:15:04:19	4.942	V2681-03HD
 	transect	Mesomyaria	801.57	2674	 	36.752483	-122.20003	1773988	0.3	2005-06-08 17:26:55.0	Ventana	34.451	00:11:29:11	4.597	V2674-01
 	transect	Euplexaura	 	2687	 	 	 	1808808	 	2005-07-13 17:29:52.0	Ventana	 	00:56:44:27	 	V2687-01
 	transect	Mediaster	 	2687	 	 	 	1810972	 	2005-07-13 19:45:30.0	Ventana	 	03:10:31:19	 	V2687-04
 	cruise	LRJ Complex	432.63	2688	 	36.805042	-122.0188	1677682	0.92	2005-07-14 17:44:03.0	Ventana	34.266	01:29:47:02	6.946	V2688-02
 	transect	Phyllospadix	196.88	2696	 	36.80337	-122.12349	1813183	1.56	2005-08-01 17:16:32.0	Ventana	34.196	00:44:49:24	8.637	V2696-01
 	descend	Sebastolobus	1002.94	2679	http://search.mbari.org/ARCHIVE/frameGrabs/Ventana/images/2679/00_02_06_01.jpg	36.68986	-122.1656	20004244	0.42	2005-06-16 17:30:44.0	Ventana	34.513	00:02:06:01	4.108	V2679-01
 	ascend	Solmissus	254.41	2683	 	36.703053	-122.05069	1758096	1.58	2005-07-11 21:26:39.0	Ventana	34.206	04:59:30:28	8.002	V2683-05
 	transect	Calliostoma platinum	399.9	2687	 	36.788113	-122.121735	1809297	1.14	2005-07-13 17:38:48.0	Ventana	34.242	01:05:10:01	7.287	V2687-02
 	descend	Aegina	661.48	2681	 	36.697937	-122.053856	1715953	0.28	2005-07-07 18:30:42.16	Ventana	34.407	02:01:01:23	5.187	V2681-02
 	descend	Aegina	641.13	2682	 	36.69864	-122.0599	1721315	0.28	2005-07-08 18:09:37.0	Ventana	34.401	02:02:40:27	5.326	V2682-03
 	transect	Ceriantharia sp. 1	602.11	2680	 	36.79175	-122.23299	1806875	0.36	2005-06-27 20:30:25.0	Ventana	34.378	03:09:01:03	5.591	V2680-03
 	cruise	Chionoecetes tanneri	1233.33	2683	 	36.70578	-122.04788	1757547	0.73	2005-07-11 19:52:19.0	Ventana	34.578	03:26:43:02	3.319	V2683-04
 	transect	Mediaster	 	2687	 	 	 	1812260	 	2005-07-13 20:30:07.0	Ventana	 	03:55:05:11	 	V2687-04
 	transect	Nanomia bijuga	200.41	2681	 	36.698296	-122.05335	2491111	1.69	2005-07-07 17:11:56.0	Ventana	34.198	00:43:03:12	8.337	V2681-01HD
 	descend	Mysidae	968.89	2683	 	36.70401	-122.04858	1757344	0.42	2005-07-11 19:12:43.0	Ventana	34.518	02:53:05:10	4.037	V2683-03
 	transect	Phyllospadix	197.83	2696	 	36.80265	-122.1217	1812920	1.53	2005-08-01 16:48:28.0	Ventana	34.206	00:16:47:21	8.559	V2696-01
 	cruise	Sebastes	343.62	2688	 	36.807762	-122.01998	1677802	1.21	2005-07-14 17:59:03.0	Ventana	34.23	01:44:45:25	7.486	V2688-02
 	descend	Bargmannia	310.27	2682	 	36.69897	-122.060616	1720148	1.14	2005-07-08 17:03:01.0	Ventana	34.24	00:57:03:14	7.288	V2682-01
 	cruise	Rathbunaster californicus	263.28	2676	 	36.805454	-122.02947	1676727	1.53	2005-06-14 17:35:50.0	Ventana	34.207	01:15:34:13	7.983	V2676-02
 	transect	Mesomyaria	1000.52	2669	 	36.732372	-122.249535	1736529	0.41	2005-05-25 20:30:00.0	Ventana	34.51	02:51:28:08	4.07	V2669-03
 	cruise	Sebastes	110.8	2688	 	36.811317	-122.02256	1678005	1.95	2005-07-14 18:42:40.0	Ventana	34.095	02:27:55:12	8.896	V2688-03
 	transect	Phyllospadix	799.32	2674	 	36.752514	-122.20426	1799533	0.35	2005-06-08 17:50:41.0	Ventana	34.484	00:35:14:05	4.386	V2674-01
 	transect	Mediaster	 	2687	 	 	 	1812463	 	2005-07-13 20:40:00.0	Ventana	 	04:04:57:17	 	V2687-04
 	descend	Myctophidae	320.02	2681	 	36.695633	-122.05126	1713665	1.17	2005-07-07 17:30:32.167	Ventana	34.237	01:01:39:15	7.29	V2681-01
 	transect	molt	50.51	2681	 	36.698788	-122.053474	2485380	 	2005-07-07 16:30:50.0	Ventana	 	00:02:00:24	 	V2681-01HD
 	transect	Mesomyaria	998.34	2669	 	36.730515	-122.22838	1649373	0.45	2005-05-25 18:03:06.0	Ventana	34.523	00:25:33:18	3.908	V2669-01
 	transect	Mesomyaria	999.89	2669	http://search.mbari.org/ARCHIVE/frameGrabs/Ventana/images/2669/01_42_20_26.jpg	36.731064	-122.23883	1689075	0.43	2005-05-25 19:20:22.0	Ventana	34.518	01:42:20:26	3.962	V2669-02
 	ascend	Nanomia	400.33	2681	 	36.699276	-122.054474	1717984	0.89	2005-07-07 20:47:43.933	Ventana	34.269	04:16:04:19	6.892	V2681-05
 	descend	Appendicularia	793.75	2682	 	36.698395	-122.0597	1721684	0.31	2005-07-08 18:36:19.0	Ventana	34.464	02:29:21:29	4.599	V2682-03
 	cruise	Asteronyx	453.26	2688	 	36.803307	-122.01809	1677622	0.89	2005-07-14 17:34:35.033	Ventana	34.27	01:20:18:22	6.875	V2688-02
 	transect	Mesomyaria	998.73	2669	 	36.73142	-122.23655	1684802	0.44	2005-05-25 19:02:15.0	Ventana	34.52	01:24:15:06	3.937	V2669-02
 	transect	Mesochordaeus erythrocephalus	1001.02	2681	 	36.695675	-122.05174	2498633	0.48	2005-07-07 19:26:08.0	Ventana	34.532	02:55:48:00	3.848	V2681-03HD
 	cruise	Phyllospadix	520.04	2688	 	36.799747	-122.019005	1677479	0.66	2005-07-14 17:08:12.0	Ventana	34.316	00:54:30:00	6.356	V2688-01
 	transect	Ophiuroidea	999.24	2669	 	36.730804	-122.22957	1651135	0.45	2005-05-25 18:11:08.0	Ventana	34.522	00:33:35:12	3.906	V2669-01
 	cruise	boulder	109.91	2688	 	36.813236	-122.01886	1679214	1.97	2005-07-14 19:29:43.0	Ventana	34.096	03:14:31:01	8.93	V2688-04
 	ascend	Mysidae	609.63	2682	 	36.698875	-122.05992	1723419	0.36	2005-07-08 20:38:29.0	Ventana	34.383	04:30:36:29	5.524	V2682-05
 	transect	Sebastolobus altivelis	800.04	2674	 	36.752487	-122.203575	1799353	0.35	2005-06-08 17:46:51.0	Ventana	34.5	00:31:23:25	4.363	V2674-01
 	transect	Rathbunaster californicus	196.46	2696	 	36.803143	-122.12284	1813123	1.55	2005-08-01 17:08:43.0	Ventana	34.2	00:37:01:06	8.616	V2696-01
 	transect	Psolus squamatus	 	2687	 	 	 	1808748	 	2005-07-13 17:28:28.0	Ventana	 	00:55:20:15	 	V2687-01
 	transect	Nanomia bijuga	400.77	2681	 	36.697266	-122.05291	2493119	0.79	2005-07-07 17:47:22.0	Ventana	34.278	01:17:46:22	6.663	V2681-02HD
 	descend	Sergestes similis	 	2693	 	 	 	1759421	 	2005-07-25 16:44:14.0	Ventana	 	00:22:46:14	 	V2693-01
 	transect	Mediaster	 	2687	 	 	 	1812786	 	2005-07-13 20:57:23.0	Ventana	 	04:21:53:10	 	V2687-05
 	transect	cydippida	200.42	2681	 	36.69828	-122.0533	2490908	1.7	2005-07-07 17:09:39.0	Ventana	34.189	00:40:48:13	8.321	V2681-01HD
 	descend	Copepoda	103.49	2681	 	36.698284	-122.0533	1713485	2.21	2005-07-07 16:56:20.367	Ventana	34.06	00:27:29:25	9.024	V2681-01
 	descend	Appendicularia	833.87	2683	 	36.702793	-122.04849	1757210	0.33	2005-07-11 18:22:50.0	Ventana	34.481	02:06:54:23	4.445	V2683-02
 	ascend	Appendicularia	312.69	2681	 	36.69966	-122.05527	1718164	1.25	2005-07-07 20:58:05.067	Ventana	34.236	04:26:25:19	7.475	V2681-05
 	descend	Sphaeronectes	358.09	2682	 	36.69861	-122.06039	1720328	1.01	2005-07-08 17:22:12.0	Ventana	34.254	01:15:44:27	7.086	V2682-02
 	transect	Mediaster	 	2687	 	 	 	1812643	 	2005-07-13 20:49:27.0	Ventana	 	04:13:57:17	 	V2687-05
 	transect	Mesomyaria	999.71	2669	 	36.7312	-122.23575	1684373	0.44	2005-05-25 18:55:33.0	Ventana	34.519	01:17:32:19	3.934	V2669-02
 	transect	Lycenchelys camchatica	801.5	2674	 	36.75096	-122.218544	1803589	0.35	2005-06-08 19:00:34.0	Ventana	34.487	01:44:36:15	4.359	V2674-02
 	ascend	Mysidae	789.17	2682	 	36.69865	-122.05892	1723276	0.28	2005-07-08 20:25:41.0	Ventana	34.448	04:17:51:13	4.733	V2682-05
 	transect	Phyllospadix	203.3	2696	 	36.80526	-122.1282	1813672	1.48	2005-08-01 18:14:02.0	Ventana	34.216	01:41:53:19	8.625	V2696-02
 	transect	Mesomyaria	1000.09	2669	 	36.731136	-122.23853	1688872	0.43	2005-05-25 19:18:25.0	Ventana	34.517	01:40:23:15	3.964	V2669-02
 	transect	Psolus squamatus	399.87	2687	 	36.788048	-122.12153	1809131	1.13	2005-07-13 17:36:00.0	Ventana	34.244	01:02:22:04	7.27	V2687-02
 	transect	Lycenchelys camchatica	1000.6	2669	 	36.73217	-122.24826	1736206	0.41	2005-05-25 20:20:53.0	Ventana	34.51	02:42:22:26	4.062	V2669-03
 	descend	Appendicularia	265.65	2683	 	36.70094	-122.050385	1756458	1.39	2005-07-11 16:51:35.0	Ventana	34.227	00:39:15:16	7.931	V2683-01
 	transect	Psolus squamatus	 	2687	http://search.mbari.org/ARCHIVE/frameGrabs/Ventana/images/2687/03_07_30_20.jpg	 	 	1810912	 	2005-07-13 19:42:29.0	Ventana	 	03:07:30:20	 	V2687-04
 	cruise	Lycodes cortezianus	204.86	2696	 	36.80765	-122.13128	1813875	1.46	2005-08-01 18:45:05.0	Ventana	34.225	02:12:10:06	8.648	V2696-03
 	transect	Phyllospadix	800.63	2674	 	36.752563	-122.20206	1799150	0.35	2005-06-08 17:39:03.0	Ventana	34.497	00:23:36:18	4.392	V2674-01
 	transect	Euphausia	200.44	2681	 	36.698406	-122.05349	2491434	1.68	2005-07-07 17:14:11.0	Ventana	34.2	00:45:18:19	8.341	V2681-01HD
 	ascend	Colobonema	432.77	2681	 	36.69908	-122.0542	1717781	0.68	2005-07-07 20:37:47.033	Ventana	34.293	04:06:46:23	6.536	V2681-04
 	transect	Mesomyaria	999.95	2669	 	36.731953	-122.24621	1735634	0.41	2005-05-25 20:05:42.0	Ventana	34.51	02:27:11:27	4.065	V2669-03
 	transect	beroe	500.6	2681	 	36.695923	-122.051384	2493645	0.43	2005-07-07 18:03:50.0	Ventana	34.347	01:34:11:10	6.006	V2681-02HD
 	transect	Euphausia	200.37	2681	 	36.69831	-122.053406	2491231	1.67	2005-07-07 17:12:58.0	Ventana	34.201	00:44:05:24	8.34	V2681-01HD
 	transect	sinker	901.04	2681	 	36.696323	-122.052376	2498310	0.39	2005-07-07 19:09:37.0	Ventana	34.505	02:39:19:04	4.17	V2681-03HD
 	cruise	rock outcrop	268.41	2688	http://search.mbari.org/ARCHIVE/frameGrabs/Ventana/images/2688/02_11_39_10.jpg	36.80907	-122.020355	20005194	1.48	2005-07-14 18:26:22.0	Ventana	34.197	02:11:39:10	8.123	V2688-03
 	transect	Mesomyaria	999.43	2669	 	36.730507	-122.22859	1650909	0.45	2005-05-25 18:04:19.0	Ventana	34.522	00:26:47:13	3.908	V2669-01
 	ascend	Bathocyroe	491.95	2682	 	36.6983	-122.06332	1723692	0.52	2005-07-08 21:14:58.0	Ventana	34.326	05:06:39:25	6.217	V2682-06
 	transect	Phyllospadix	603.23	2680	 	36.789	-122.23248	1805980	0.36	2005-06-27 20:05:53.0	Ventana	34.38	02:44:30:03	5.588	V2680-03
 	descend	Nanomia	149.03	2683	 	36.70058	-122.05151	1756255	1.7	2005-07-11 16:20:29.0	Ventana	34.164	00:08:11:03	8.913	V2683-01
 	transect	Phyllospadix	799.47	2674	 	36.75268	-122.20086	1774154	0.3	2005-06-08 17:32:51.0	Ventana	34.464	00:17:24:24	4.607	V2674-01
 	transect	Porifera sp. 1	 	2687	 	 	 	1808928	 	2005-07-13 17:32:11.0	Ventana	 	00:59:03:09	 	V2687-01
 	transect	Psolus squamatus	 	2687	 	 	 	1811092	 	2005-07-13 19:52:29.0	Ventana	 	03:17:29:10	 	V2687-04
 	descend	Cyclothone	716.25	2682	 	36.698467	-122.05991	1721481	0.28	2005-07-08 18:22:24.0	Ventana	34.438	02:15:29:17	4.914	V2682-03
 	transect	Rathbunaster californicus	198.95	2696	 	36.803764	-122.12491	1813303	1.53	2005-08-01 17:32:00.0	Ventana	34.207	01:00:17:25	8.628	V2696-01
 	transect	Mesomyaria	999.24	2669	 	36.73102	-122.23206	1683713	0.45	2005-05-25 18:30:20.0	Ventana	34.523	00:52:46:04	3.913	V2669-01
 	descend	Appendicularia	502.9	2683	 	36.70146	-122.049126	1756827	0.68	2005-07-11 17:36:28.0	Ventana	34.306	01:20:36:04	6.464	V2683-02
 	transect	Sebastes diploproa	400.45	2687	 	36.788975	-122.12378	1809500	1.17	2005-07-13 18:09:09.0	Ventana	34.24	01:35:28:26	7.346	V2687-02
 	transect	Rathbunaster californicus	200.34	2696	 	36.804718	-122.12719	1813506	1.51	2005-08-01 17:54:50.0	Ventana	34.211	01:22:42:17	8.671	V2696-02
 	ascend	Appendicularia	715.39	2683	 	36.70592	-122.04885	1757870	0.28	2005-07-11 21:05:19.0	Ventana	34.453	04:38:12:17	4.75	V2683-05
 	descend	Chaetognatha	414.82	2682	 	36.698215	-122.059814	1720729	0.74	2005-07-08 17:39:28.0	Ventana	34.275	01:32:58:24	6.555	V2682-02
 	transect	Neptunea amianta	798.98	2674	 	36.751488	-122.21453	1801361	0.35	2005-06-08 18:42:01.0	Ventana	34.49	01:26:04:25	4.333	V2674-02
 	cruise	Stylasterias	92.95	2688	 	36.81494	-122.017166	1679417	1.96	2005-07-14 20:31:06.0	Ventana	34.094	04:15:50:11	8.947	V2688-04
 	ascend	Nanomia	192.2	2693	 	36.690605	-122.06287	1759218	1.84	2005-07-25 21:28:59.0	Ventana	34.168	03:53:31:04	8.849	V2693-04
 	ascend	Euphausiacea	258.17	2681	 	36.697838	-122.05522	1719576	 	2005-07-07 21:29:59.0	Ventana	 	05:15:26:11	 	V2681-05
 	descend	Nanomia	186.9	2682	 	36.699894	-122.060745	1719945	1.95	2005-07-08 16:20:16.0	Ventana	34.155	00:14:19:29	8.32	V2682-01
 	descend	Poeobius meseres	400.23	2681	 	36.695576	-122.05111	1715201	0.79	2005-07-07 17:35:24.067	Ventana	34.278	01:05:47:16	6.677	V2681-02
 	descend	Calycophorae	977.94	2682	 	36.698326	-122.059235	1722007	0.43	2005-07-08 18:57:23.0	Ventana	34.52	02:50:25:12	4.004	V2682-03
 	transect	molt	100.5	2681	 	36.69928	-122.05394	2489819	2.14	2005-07-07 16:51:18.0	Ventana	34.067	00:22:25:27	9.15	V2681-01HD
 	transect	Sebastes diploproa	 	2687	 	 	 	1811711	 	2005-07-13 20:21:37.0	Ventana	 	03:46:36:09	 	V2687-04
 	transect	Ophiuroidea	999.07	2669	 	36.73139	-122.23609	1684576	0.44	2005-05-25 18:58:18.0	Ventana	34.522	01:20:17:22	3.94	V2669-02
 	ascend	Chaetognatha	327.71	2693	 	36.69193	-122.061935	1759038	1.29	2005-07-25 21:16:48.0	Ventana	34.236	03:41:19:11	7.556	V2693-04
 	transect	Pennatulacea sp.1	602.59	2680	 	36.78983	-122.23259	1806732	0.35	2005-06-27 20:14:13.0	Ventana	34.38	02:52:50:03	5.586	V2680-03
 	transect	Leuroglossus stilbius	700.65	2681	 	36.69638	-122.0523	2497738	0.28	2005-07-07 18:42:13.0	Ventana	34.435	02:11:54:26	4.954	V2681-03HD
 	transect	Ophiuroidea	999.71	2669	 	36.731358	-122.237686	1687524	0.44	2005-05-25 19:12:10.0	Ventana	34.518	01:34:08:18	3.947	V2669-02
 	transect	Calycophorae	300.4	2681	 	36.696014	-122.05164	2492579	1.24	2005-07-07 17:28:27.0	Ventana	34.233	00:59:33:15	7.427	V2681-01HD
 	transect	Embassichthys bathybius	1000.19	2669	http://search.mbari.org/ARCHIVE/frameGrabs/Ventana/images/2669/01_51_25_04.jpg	36.731136	-122.24034	1689241	0.41	2005-05-25 19:29:27.0	Ventana	34.51	01:51:25:04	4.06	V2669-02
 	transect	Rathbunaster californicus	204.0	2696	 	36.806087	-122.12964	1813732	1.49	2005-08-01 18:22:24.0	Ventana	34.21	01:50:15:01	8.637	V2696-02
 	transect	molt	100.52	2681	 	36.69983	-122.05429	2489616	2.13	2005-07-07 16:46:16.0	Ventana	34.068	00:17:25:27	9.146	V2681-01HD
 	transect	Mediaster	 	2687	 	 	 	1807069	 	2005-07-13 16:57:19.0	Ventana	 	00:24:13:06	 	V2687-01
 	transect	Psolus squamatus	 	2687	 	 	 	1809011	 	2005-07-13 17:33:33.0	Ventana	 	01:00:25:10	 	V2687-01
 	descend	Dosidicus gigas	602.55	2681	 	36.695637	-122.05113	1715690	0.3	2005-07-07 18:10:55.41	Ventana	34.386	01:41:16:21	5.481	V2681-02
 	descend	Appendicularia	797.38	2683	 	36.702656	-122.04879	1757150	0.36	2005-07-11 18:00:40.0	Ventana	34.459	01:44:44:12	4.639	V2683-02
 	transect	Mesomyaria	1000.28	2669	 	36.73128	-122.24135	1689767	0.4	2005-05-25 19:35:53.0	Ventana	34.507	01:57:50:18	4.091	V2669-02
 	ascend	Copepoda	333.58	2693	 	36.69233	-122.06183	1759015	1.28	2005-07-25 21:15:21.0	Ventana	34.237	03:39:54:11	7.546	V2693-04
 	ascend	Aegina	673.34	2682	 	36.698914	-122.05957	1723359	0.28	2005-07-08 20:34:26.0	Ventana	34.413	04:26:34:22	5.18	V2682-05
 	transect	Physonectae	200.35	2681	 	36.698345	-122.05345	2491374	1.67	2005-07-07 17:13:48.0	Ventana	34.201	00:44:56:17	8.341	V2681-01HD
 	transect	Phyllospadix	998.47	2669	 	36.730957	-122.23013	1651255	0.45	2005-05-25 18:15:20.0	Ventana	34.521	00:37:46:18	3.91	V2669-01
 	descend	Chaetognatha	208.87	2683	 	36.70102	-122.050865	1756398	1.72	2005-07-11 16:47:54.0	Ventana	34.193	00:35:34:24	8.285	V2683-01
 	transect	Appendicularia	400.7	2681	 	36.69797	-122.053696	2493239	0.79	2005-07-07 17:50:25.0	Ventana	34.277	01:20:49:03	6.661	V2681-02HD
 	transect	Euphausia	200.41	2681	 	36.698288	-122.05332	2491028	1.7	2005-07-07 17:10:58.0	Ventana	34.196	00:42:04:15	8.332	V2681-01HD
 	transect	Calycophorae	300.41	2681	 	36.695797	-122.05141	2492602	1.24	2005-07-07 17:29:23.0	Ventana	34.233	01:00:30:12	7.415	V2681-01HD
 	ascend	Appendicularia	783.21	2681	 	36.698868	-122.056435	1717448	0.27	2005-07-07 20:04:27.737	Ventana	34.459	03:33:29:16	4.705	V2681-04
 	transect	Anoplopoma fimbria	 	2687	 	 	 	1812320	 	2005-07-13 20:32:07.0	Ventana	 	03:57:05:08	 	V2687-04
 	descend	Appendicularia	502.17	2683	 	36.701538	-122.049385	1756804	0.68	2005-07-11 17:27:01.0	Ventana	34.304	01:11:08:08	6.47	V2683-02
 	transect	Appendicularia	500.56	2681	 	36.69668	-122.05227	2493585	0.44	2005-07-07 18:00:24.0	Ventana	34.348	01:30:47:18	6.013	V2681-02HD
 	transect	Asteronyx loveni	999.93	2669	 	36.73096	-122.23308	1683856	0.45	2005-05-25 18:37:10.0	Ventana	34.522	00:59:35:12	3.912	V2669-01
 	descend	Appendicularia	612.63	2682	 	36.69863	-122.0598	1721255	0.3	2005-07-08 18:08:04.0	Ventana	34.393	02:01:09:29	5.398	V2682-03
 	transect	Ophiuroidea	1000.77	2669	 	36.7323	-122.249405	1736409	0.4	2005-05-25 20:28:32.0	Ventana	34.508	02:50:01:22	4.075	V2669-03
 	ascend	Leuroglossus stilbius	951.74	2682	 	36.697712	-122.058464	1723013	0.43	2005-07-08 20:08:40.0	Ventana	34.517	04:00:51:12	4.027	V2682-05
 	transect	Ophiuroidea	998.48	2669	 	36.731167	-122.230804	1683450	0.45	2005-05-25 18:21:06.0	Ventana	34.518	00:43:33:03	3.917	V2669-01
 	transect	Mesomyaria	999.64	2669	 	36.73139	-122.23719	1687464	0.44	2005-05-25 19:08:07.0	Ventana	34.52	01:30:06:04	3.942	V2669-02
 	descend	Bathocyroe	512.08	2682	 	36.69859	-122.05978	1720849	0.41	2005-07-08 18:00:52.0	Ventana	34.354	01:54:21:11	5.923	V2682-02
 	descend	Appendicularia	295.45	2682	 	36.69964	-122.06078	1720065	1.27	2005-07-08 16:37:07.0	Ventana	34.23	00:31:11:03	7.497	V2682-01
 	transect	Phyllospadix	800.25	2674	 	36.752083	-122.20886	1800821	0.35	2005-06-08 18:13:43.0	Ventana	34.488	00:58:14:14	4.33	V2674-01
 	transect	Rathbunaster californicus	199.41	2696	 	36.804173	-122.12592	1813386	1.52	2005-08-01 17:42:01.0	Ventana	34.206	01:09:54:12	8.657	V2696-02
 	transect	Mesomyaria	800.83	2674	 	36.75247	-122.20458	1799616	0.35	2005-06-08 17:52:41.0	Ventana	34.488	00:37:13:22	4.346	V2674-01
 	transect	Stomphia	800.55	2674	 	36.75117	-122.216774	1803446	0.35	2005-06-08 18:52:17.0	Ventana	34.486	01:36:20:16	4.366	V2674-02
 	transect	Poeobius meseres	400.8	2681	 	36.695908	-122.05132	2492925	0.79	2005-07-07 17:41:29.0	Ventana	34.276	01:11:53:28	6.665	V2681-02HD
 	transect	Ophiuroidea	999.24	2669	 	36.731377	-122.23601	1684516	0.44	2005-05-25 18:57:43.0	Ventana	34.52	01:19:43:02	3.938	V2669-02
 	transect	Brisaster	999.89	2669	 	36.732628	-122.251	1737046	0.4	2005-05-25 20:38:48.0	Ventana	34.508	03:00:15:07	4.074	V2669-03
 	ascend	Cyclothone	370.96	2693	 	36.696503	-122.06063	1758692	1.2	2005-07-25 20:28:43.0	Ventana	34.234	03:08:17:00	7.174	V2693-03
 	ascend	Salpida	279.36	2681	 	36.699722	-122.055	1718307	1.36	2005-07-07 21:03:16.867	Ventana	34.231	04:31:37:18	7.771	V2681-05
 	transect	Corallimorphus pilatus	 	2687	 	 	 	1808605	 	2005-07-13 17:25:11.0	Ventana	 	00:52:03:20	 	V2687-01
 	transect	Porifera sp. 1	 	2687	 	 	 	1810769	 	2005-07-13 19:33:22.0	Ventana	 	02:59:05:26	 	V2687-03
 	cruise	crack	104.87	2676	http://search.mbari.org/ARCHIVE/frameGrabs/Ventana/images/2676/02_43_47_24.jpg	36.807716	-122.03885	1677133	1.93	2005-06-14 19:05:03.0	Ventana	34.157	02:43:47:24	8.441	V2676-03
 	transect	Mediaster	 	2687	 	 	 	1812380	 	2005-07-13 20:35:45.0	Ventana	 	04:00:42:21	 	V2687-04
 	transect	Hastigerinella digitata	300.44	2681	 	36.69767	-122.0531	2492173	1.23	2005-07-07 17:22:39.0	Ventana	34.234	00:53:45:23	7.403	V2681-01HD
 	transect	Phyllospadix	801.05	2674	 	36.75197	-122.20939	1800904	0.36	2005-06-08 18:16:41.0	Ventana	34.491	01:01:12:23	4.319	V2674-01
 	descend	Calycophorae	317.97	2693	 	36.697517	-122.06065	1758502	1.3	2005-07-25 19:41:29.0	Ventana	34.237	02:21:04:16	7.603	V2693-03
 	transect	Phyllospadix	1000.37	2669	 	36.731537	-122.24268	1694520	0.4	2005-05-25 19:42:46.0	Ventana	34.507	02:04:43:14	4.094	V2669-02
 	transect	Sebastolobus altivelis	800.25	2674	 	36.751755	-122.211975	1801167	0.35	2005-06-08 18:28:05.0	Ventana	34.488	01:12:09:23	4.341	V2674-02
 	transect	Porifera	 	2687	 	 	 	1811175	 	2005-07-13 19:59:24.0	Ventana	 	03:24:24:21	 	V2687-04
 	transect	Mesomyaria	1000.26	2669	 	36.731785	-122.24468	1734429	0.4	2005-05-25 19:54:33.0	Ventana	34.508	02:16:03:04	4.09	V2669-03
 	cruise	Zoarcidae	227.3	2688	 	36.810036	-122.020645	1677945	1.71	2005-07-14 18:32:32.0	Ventana	34.164	02:17:48:11	8.637	V2688-03
 	descend	Appendicularia	473.55	2681	 	36.698105	-122.05389	1715344	0.49	2005-07-07 17:52:56.733	Ventana	34.334	01:23:19:18	6.107	V2681-02
 	transect	Mesomyaria	999.44	2669	 	36.73133	-122.23592	1684456	0.44	2005-05-25 18:57:06.0	Ventana	34.52	01:19:05:22	3.936	V2669-02
 	transect	Mesomyaria	1000.34	2669	 	36.731564	-122.24306	1733769	0.41	2005-05-25 19:44:48.0	Ventana	34.512	02:06:20:01	4.075	V2669-03
 	transect	Phyllospadix	801.73	2674	 	36.75223	-122.20752	1800069	0.38	2005-06-08 18:07:14.0	Ventana	34.49	00:51:46:00	4.327	V2674-01
 	descend	Appendicularia	590.16	2681	 	36.69569	-122.05107	1715630	0.32	2005-07-07 18:07:29.393	Ventana	34.379	01:37:50:26	5.551	V2681-02
 	descend	Appendicularia	259.61	2682	 	36.699795	-122.06083	1720005	1.38	2005-07-08 16:26:20.0	Ventana	34.23	00:20:23:11	7.854	V2682-01
 	transect	Mediaster	 	2687	 	 	 	1812666	 	2005-07-13 20:50:22.0	Ventana	 	04:14:52:05	 	V2687-05
 	descend	Appendicularia	365.91	2682	 	36.698524	-122.06026	1720351	0.99	2005-07-08 17:28:10.0	Ventana	34.26	01:21:41:11	7.045	V2682-02
 	transect	molt	100.49	2681	 	36.699825	-122.05429	2489699	2.13	2005-07-07 16:48:09.0	Ventana	34.067	00:19:18:25	9.15	V2681-01HD
 	ascend	Appendicularia	763.6	2681	 	36.69868	-122.05603	1717508	0.29	2005-07-07 20:11:05.833	Ventana	34.451	03:40:07:06	4.792	V2681-04
 	transect	Rathbunaster californicus	202.59	2696	 	36.805256	-122.12819	1813649	1.46	2005-08-01 18:10:45.0	Ventana	34.214	01:38:36:24	8.59	V2696-02
 	transect	Calliostoma platinum	 	2687	 	 	 	1810423	 	2005-07-13 19:17:40.0	Ventana	 	02:43:24:09	 	V2687-03
 	transect	Phyllospadix	999.85	2669	 	36.73109	-122.239044	1689098	0.43	2005-05-25 19:21:37.0	Ventana	34.517	01:43:35:06	3.972	V2669-02
 	starttransect	Lycenchelys camchatica	802.27	2674	 	36.752453	-122.199745	1773808	0.31	2005-06-08 17:25:26.0	Ventana	34.474	00:10:00:22	4.592	V2674-01
 	transect	Psolus squamatus	399.86	2687	http://search.mbari.org/ARCHIVE/frameGrabs/Ventana/images/2687/01_02_12_24.jpg	36.788044	-122.12152	1809071	1.14	2005-07-13 17:35:50.0	Ventana	34.237	01:02:12:24	7.276	V2687-02
 	transect	Vitreosalpa gemini	500.58	2681	 	36.69772	-122.05349	2493322	0.44	2005-07-07 17:55:53.0	Ventana	34.347	01:26:16:11	6.018	V2681-02HD
 	cruise	mud	95.08	2688	http://search.mbari.org/ARCHIVE/frameGrabs/Ventana/images/2688/04_44_17_22.jpg	36.814945	-122.01714	20005314	1.94	2005-07-14 21:00:04.0	Ventana	34.098	04:44:17:22	8.927	V2688-05
 	transect	Brisaster	999.83	2669	 	36.73174	-122.24399	1734083	0.4	2005-05-25 19:50:17.0	Ventana	34.509	02:11:47:18	4.069	V2669-03
 	transect	Mesomyaria	798.58	2674	 	36.751736	-122.21259	1801218	0.35	2005-06-08 18:30:05.0	Ventana	34.49	01:14:09:14	4.337	V2674-02
 	transect	Calliostoma platinum	 	2687	 	 	 	1810686	 	2005-07-13 19:28:22.0	Ventana	 	02:54:05:21	 	V2687-03
 	transect	Psolus squamatus	399.88	2687	http://search.mbari.org/ARCHIVE/frameGrabs/Ventana/images/2687/01_06_16_14.jpg	36.788166	-122.121796	1809357	1.13	2005-07-13 17:39:54.0	Ventana	34.252	01:06:16:14	7.29	V2687-02
 	transect	Ophiuroidea	998.91	2669	 	36.731125	-122.23473	1684170	0.45	2005-05-25 18:47:35.0	Ventana	34.52	01:09:35:23	3.917	V2669-02
 	transect	Mediaster	 	2687	 	 	 	1811568	 	2005-07-13 20:15:54.0	Ventana	 	03:40:53:06	 	V2687-04
 	transect	Phyllospadix	800.56	2674	 	36.752506	-122.20303	1799270	0.35	2005-06-08 17:43:36.0	Ventana	34.489	00:28:09:04	4.386	V2674-01
 	descend	Poeobius meseres	1099.26	2683	 	36.705116	-122.048904	1757464	0.56	2005-07-11 19:29:30.0	Ventana	34.541	03:09:51:07	3.703	V2683-03
 	cruise	Parastichopus	150.72	2676	 	36.808537	-122.03057	1676847	1.68	2005-06-14 17:50:56.0	Ventana	34.181	01:30:39:14	8.262	V2676-02
 	transect	Aegina	901.0	2681	 	36.69554	-122.05143	2498430	0.39	2005-07-07 19:13:08.0	Ventana	34.505	02:42:49:17	4.172	V2681-03HD
 	transect	Mediaster	 	2687	 	 	 	1807475	 	2005-07-13 17:09:07.0	Ventana	 	00:36:01:07	 	V2687-01
 	transect	Mesomyaria	998.41	2669	 	36.731106	-122.23068	1683390	0.45	2005-05-25 18:19:54.0	Ventana	34.521	00:42:20:17	3.912	V2669-01
 	transect	Mesomyaria	998.21	2669	 	36.732944	-122.25222	1737392	0.41	2005-05-25 20:46:35.0	Ventana	34.508	03:07:23:11	4.075	V2669-04
 	transect	Mediaster	 	2687	 	 	 	1810483	 	2005-07-13 19:20:01.0	Ventana	 	02:45:45:13	 	V2687-03
 	transect	Brisaster	998.05	2669	 	36.733086	-122.252945	1737535	0.4	2005-05-25 20:50:30.0	Ventana	34.509	03:11:16:21	4.075	V2669-04
 	descend	Appendicularia	518.02	2683	 	36.701458	-122.04915	1756887	0.6	2005-07-11 17:41:10.0	Ventana	34.311	01:25:16:22	6.323	V2683-02
 	transect	Glyptocephalus zachirus	199.94	2696	 	36.804413	-122.1264	1813446	1.51	2005-08-01 17:47:09.0	Ventana	34.21	01:15:03:04	8.667	V2696-02
 	transect	Halipteris californica	598.46	2680	 	36.78224	-122.22739	1805121	0.35	2005-06-27 18:47:33.0	Ventana	34.379	01:26:38:17	5.59	V2680-02
 	descend	Calycophorae	182.15	2683	 	36.70104	-122.05114	1756338	1.6	2005-07-11 16:42:06.0	Ventana	34.194	00:29:47:29	8.684	V2683-01
 	transect	Ophiuroidea	1000.43	2669	 	36.7312	-122.240715	1689301	0.41	2005-05-25 19:32:02.0	Ventana	34.511	01:54:00:04	4.055	V2669-02
 	ascend	Appendicularia	260.72	2681	 	36.69886	-122.05698	1718939	1.42	2005-07-07 21:19:59.867	Ventana	34.23	04:48:19:17	7.957	V2681-05
 	transect	Mediaster	 	2687	http://search.mbari.org/ARCHIVE/frameGrabs/Ventana/images/2687/03_14_09_17.jpg	 	 	1811032	 	2005-07-13 19:49:08.0	Ventana	 	03:14:09:17	 	V2687-04
 	transect	Gastropoda sp.2	998.74	2669	 	36.731133	-122.234695	1694663	0.45	2005-05-25 18:47:19.0	Ventana	34.522	01:09:19:03	3.916	V2669-02
 	transect	Chionoecetes tanneri	999.94	2669	 	36.732594	-122.25042	1736986	0.41	2005-05-25 20:36:11.0	Ventana	34.509	02:57:39:15	4.07	V2669-03
 	ascend	Appendicularia	256.88	2693	 	36.691376	-122.06233	1759098	1.43	2005-07-25 21:21:39.0	Ventana	34.25	03:46:11:29	8.448	V2693-04
 	transect	Allocentrotus fragilis	 	2687	 	 	 	1811235	 	2005-07-13 20:05:26.0	Ventana	 	03:30:25:20	 	V2687-04
 	ascend	Nanomia	242.59	2682	 	36.696728	-122.06102	1723752	1.64	2005-07-08 21:29:27.0	Ventana	34.164	05:21:05:28	7.868	V2682-06
 	transect	Phyllospadix	1000.12	2669	 	36.731632	-122.24334	1733820	0.41	2005-05-25 19:46:42.0	Ventana	34.511	02:08:12:28	4.069	V2669-03
 	transect	Mesomyaria	799.94	2674	 	36.7513	-122.21567	1803363	0.35	2005-06-08 18:47:07.0	Ventana	34.488	01:31:10:02	4.356	V2674-02
 	transect	Calycophorae	100.48	2681	 	36.698708	-122.05357	2489902	2.14	2005-07-07 16:52:46.0	Ventana	34.067	00:23:55:01	9.142	V2681-01HD
 	transect	molt	100.57	2681	 	36.69983	-122.05429	2489556	2.13	2005-07-07 16:44:46.0	Ventana	34.068	00:15:54:28	9.145	V2681-01HD
 	descend	Appendicularia	464.77	2682	 	36.6985	-122.0596	1720789	0.52	2005-07-08 17:55:54.0	Ventana	34.328	01:49:25:08	6.209	V2682-02
 	transect	Mesomyaria	801.8	2674	 	36.751904	-122.20988	1800964	0.35	2005-06-08 18:19:38.0	Ventana	34.489	01:03:43:04	4.337	V2674-02
 	transect	Mesomyaria	803.84	2674	 	36.750767	-122.22072	1803709	0.34	2005-06-08 19:09:40.0	Ventana	34.485	01:53:41:29	4.402	V2674-02
 	descend	Chuniphyes	706.77	2683	 	36.702114	-122.048935	1757090	0.32	2005-07-11 17:54:44.0	Ventana	34.422	01:38:49:16	5.051	V2683-02
 	transect	Sebastolobus altivelis	800.65	2674	 	36.752098	-122.2085	1800761	0.35	2005-06-08 18:11:53.0	Ventana	34.491	00:56:25:01	4.326	V2674-01
 	transect	Mesomyaria	1000.0	2669	 	36.731716	-122.24393	1734023	0.41	2005-05-25 19:49:40.0	Ventana	34.513	02:11:10:06	4.081	V2669-03
 	transect	Halipteris californica	600.62	2680	 	36.7839	-122.22934	1805467	0.35	2005-06-27 19:12:07.0	Ventana	34.378	01:51:10:29	5.596	V2680-02
 	transect	Phyllospadix	203.19	2696	 	36.80664	-122.1302	1813792	1.49	2005-08-01 18:30:39.0	Ventana	34.212	01:58:30:03	8.641	V2696-02
 	cruise	Amphipoda	381.62	2690	 	36.790108	-121.8872	1670340	0.95	2005-07-18 20:08:43.0	Ventana	34.266	01:23:49:06	6.984	V2690-01
 	transect	Appendicularia	300.42	2681	 	36.6966	-122.05219	2492519	1.23	2005-07-07 17:26:16.0	Ventana	34.233	00:57:24:10	7.398	V2681-01HD
 	transect	Ceriantharia sp. 1	602.3	2680	 	36.787453	-122.23181	1805920	0.36	2005-06-27 19:49:49.0	Ventana	34.379	02:28:27:07	5.593	V2680-03
 	transect	Ceriantharia sp. 2	999.34	2669	 	36.732716	-122.251236	1737189	0.41	2005-05-25 20:40:28.0	Ventana	34.509	03:01:16:21	4.075	V2669-04
 	transect	Rathbunaster californicus	197.9	2696	 	36.803604	-122.12423	1813243	1.54	2005-08-01 17:25:08.0	Ventana	34.202	00:53:25:18	8.613	V2696-01
 	transect	Chaetognatha	300.43	2681	 	36.698303	-122.05353	2491970	1.24	2005-07-07 17:20:24.0	Ventana	34.231	00:51:31:05	7.426	V2681-01HD
 	transect	Ophiuroidea	998.25	2669	 	36.732933	-122.25213	1737332	0.4	2005-05-25 20:46:00.0	Ventana	34.508	03:06:48:00	4.077	V2669-04
 	transect	Ceriantharia sp. 1	599.44	2680	 	36.783154	-122.228516	1805324	0.35	2005-06-27 19:04:20.0	Ventana	34.378	01:43:24:15	5.581	V2680-02
 	ascend	Euphausiacea	259.32	2681	 	36.699413	-122.05453	1718593	1.42	2005-07-07 21:13:03.733	Ventana	34.232	04:41:23:26	7.968	V2681-05
 	transect	molt	800.9	2681	 	36.69607	-122.05202	2498227	0.31	2005-07-07 18:58:44.0	Ventana	34.475	02:28:26:07	4.497	V2681-03HD
 	transect	Chorilia longipes	801.79	2674	 	36.752354	-122.205605	1799806	0.36	2005-06-08 17:57:46.0	Ventana	34.487	00:42:18:11	4.345	V2674-01
 	transect	Ceriantharia sp. 1	599.87	2680	 	36.7782	-122.2234	1804369	0.36	2005-06-27 17:55:31.0	Ventana	34.378	00:35:37:25	5.592	V2680-01
 	transect	Psolus squamatus	 	2687	 	 	 	1807678	 	2005-07-13 17:22:18.0	Ventana	 	00:49:10:14	 	V2687-01
 	transect	Poeobius meseres	400.8	2681	 	36.69621	-122.051674	2492976	0.79	2005-07-07 17:42:51.0	Ventana	34.276	01:13:15:15	6.657	V2681-02HD
 	transect	Ophiuroidea	1000.33	2669	 	36.731453	-122.2421	1694460	0.4	2005-05-25 19:40:01.0	Ventana	34.509	02:01:57:25	4.076	V2669-02
 	transect	Sebastolobus altivelis	799.07	2674	 	36.75134	-122.21534	1801421	0.35	2005-06-08 18:45:22.0	Ventana	34.488	01:29:25:16	4.349	V2674-02
 	transect	Psolus squamatus	 	2687	 	 	 	1810077	 	2005-07-13 18:54:30.0	Ventana	 	02:20:15:19	 	V2687-03
 	transect	Mesomyaria	800.96	2674	 	36.752537	-122.202515	1799210	0.35	2005-06-08 17:41:21.0	Ventana	34.486	00:25:54:18	4.374	V2674-01
 	transect	Pennatulacea sp.1	600.58	2680	 	36.777126	-122.222275	1804226	0.36	2005-06-27 17:41:49.0	Ventana	34.379	00:21:57:07	5.576	V2680-01
 	transect	Stomphia	 	2687	 	 	 	1807129	 	2005-07-13 17:01:09.0	Ventana	 	00:28:03:07	 	V2687-01
 	transect	Nanomia bijuga	200.47	2681	 	36.69828	-122.05329	2490216	1.7	2005-07-07 17:05:54.0	Ventana	34.198	00:37:02:27	8.363	V2681-01HD
 	cruise	Metridium farcimen	90.32	2688	 	36.816452	-122.01608	1679357	2.01	2005-07-14 20:13:18.0	Ventana	34.09	03:58:03:01	8.918	V2688-04
 	transect	Rathbunaster californicus	200.49	2696	 	36.805233	-122.12815	1813589	1.5	2005-08-01 18:02:16.0	Ventana	34.211	01:30:08:19	8.669	V2696-02
 	descend	Solmissus	261.35	2681	 	36.698574	-122.0536	1713605	1.42	2005-07-07 17:16:28.833	Ventana	34.22	00:47:37:01	7.818	V2681-01
 	descend	Bathocyroe	859.92	2682	 	36.698322	-122.05944	1721744	0.33	2005-07-08 18:48:34.0	Ventana	34.483	02:41:37:09	4.39	V2682-03
 	transect	Mesomyaria	1000.36	2669	 	36.731304	-122.24153	1689818	0.4	2005-05-25 19:36:54.0	Ventana	34.507	01:58:51:19	4.091	V2669-02
 	transect	Rathbunaster californicus	 	2687	 	 	 	1808868	 	2005-07-13 17:30:45.0	Ventana	 	00:57:37:20	 	V2687-01
 	transect	Nanomia bijuga	200.4	2681	 	36.698284	-122.05331	2490968	1.7	2005-07-07 17:10:17.0	Ventana	34.194	00:41:25:11	8.329	V2681-01HD
 	transect	Mesomyaria	1000.0	2669	 	36.731033	-122.23953	1689158	0.41	2005-05-25 19:24:22.0	Ventana	34.511	01:46:20:11	4.061	V2669-02
 	transect	Stomphia	800.98	2674	 	36.751083	-122.2175	1803506	0.35	2005-06-08 18:55:59.0	Ventana	34.49	01:40:02:10	4.333	V2674-02
 	transect	Mesomyaria	1000.21	2669	 	36.730927	-122.232666	1683796	0.45	2005-05-25 18:34:51.0	Ventana	34.522	00:57:17:03	3.91	V2669-01
 	cruise	Chuniphyes	1000.4	2681	 	36.696705	-122.05308	1716553	0.47	2005-07-07 19:32:06.187	Ventana	34.531	03:01:46:24	3.9	V2681-03
 	transect	Glyptocephalus zachirus	 	2687	 	 	 	1811378	 	2005-07-13 20:10:06.0	Ventana	 	03:35:05:23	 	V2687-04
 	ascend	Chaetognatha	341.46	2693	 	36.693115	-122.06139	1758955	1.25	2005-07-25 21:11:22.0	Ventana	34.237	03:35:54:05	7.419	V2693-04
 	transect	Lycodes diapterus	 	2687	http://search.mbari.org/ARCHIVE/frameGrabs/Ventana/images/2687/03_43_01_27.jpg	 	 	1811628	 	2005-07-13 20:18:03.0	Ventana	 	03:43:01:27	 	V2687-04
 	transect	Nanomia bijuga	200.38	2681	 	36.698303	-122.05338	2491171	1.68	2005-07-07 17:12:28.0	Ventana	34.2	00:43:36:05	8.339	V2681-01HD
 	transect	Allocentrotus fragilis	 	2687	 	 	 	1809966	 	2005-07-13 18:49:01.0	Ventana	 	02:14:47:19	 	V2687-03
 	ascend	Appendicularia	365.44	2681	 	36.699368	-122.05492	1718044	1.0	2005-07-07 20:51:14.8	Ventana	34.263	04:19:35:24	7.11	V2681-05
 	transect	Ceriantharia sp. 1	602.18	2680	 	36.79088	-122.23286	1806815	0.35	2005-06-27 20:23:30.0	Ventana	34.379	03:02:07:06	5.587	V2680-03
 	cruise	rubble	393.25	2676	http://search.mbari.org/ARCHIVE/frameGrabs/Ventana/images/2676/00_28_45_13.jpg	36.80422	-122.02919	20003921	0.83	2005-06-14 16:44:37.0	Ventana	34.291	00:28:45:13	6.853	V2676-01
 	descend	Nanomia	466.93	2683	 	36.701607	-122.049355	1756744	0.77	2005-07-11 17:12:43.0	Ventana	34.287	01:00:22:19	6.65	V2683-01
 	transect	Mesomyaria	800.53	2674	 	36.75176	-122.2114	1801107	0.35	2005-06-08 18:25:39.0	Ventana	34.488	01:09:43:20	4.349	V2674-02
 	transect	Psolus squamatus	399.86	2687	 	36.788113	-122.12162	1809214	1.13	2005-07-13 17:37:21.0	Ventana	34.243	01:03:43:12	7.255	V2687-02
 	ascend	Chuniphyes	600.8	2681	 	36.698936	-122.054245	1717698	0.32	2005-07-07 20:29:52.033	Ventana	34.38	03:58:52:23	5.58	V2681-04
 	ascend	Praya	 	2683	 	 	 	1758156	 	 	Ventana	 	05:06:49:14	 	V2683-05
 	transect	myctophidae	600.58	2681	 	36.69635	-122.05196	2493728	0.3	2005-07-07 18:21:39.0	Ventana	34.388	01:52:00:09	5.482	V2681-02HD
 	descend	Appendicularia	331.61	2683	 	36.701218	-122.05005	1756541	1.22	2005-07-11 16:55:28.0	Ventana	34.229	00:43:09:03	7.406	V2683-01
 	ascend	Appendicularia	662.92	2681	 	36.698784	-122.0542	1717651	0.29	2005-07-07 20:26:22.867	Ventana	34.408	03:55:23:24	5.224	V2681-04
 	descend	Appendicularia	1073.92	2682	 	36.698322	-122.059166	1722058	0.51	2005-07-08 19:05:15.0	Ventana	34.541	02:58:17:03	3.768	V2682-03
 	transect	Allocentrotus fragilis	 	2687	 	 	 	1810829	 	2005-07-13 19:35:36.0	Ventana	 	03:01:19:04	 	V2687-03
 	ascend	Cydippida	376.57	2693	 	36.69617	-122.06057	1758752	1.19	2005-07-25 20:49:01.0	Ventana	34.234	03:13:34:23	7.156	V2693-04
 	transect	Neptunea amianta	801.99	2674	 	36.752247	-122.20699	1800009	0.37	2005-06-08 18:04:36.0	Ventana	34.49	00:49:08:00	4.341	V2674-01
 	transect	Psolus squamatus	 	2687	 	 	 	1808665	 	2005-07-13 17:26:38.0	Ventana	 	00:53:30:28	 	V2687-01
 	transect	Henricia aspera	 	2687	 	 	 	1812726	 	2005-07-13 20:55:04.0	Ventana	 	04:19:34:06	 	V2687-05
 	transect	Calycophorae	400.77	2681	 	36.6976	-122.05331	2493179	0.79	2005-07-07 17:48:49.0	Ventana	34.277	01:19:12:06	6.658	V2681-02HD
 	transect	Phyllospadix	1000.28	2669	 	36.73185	-122.245255	1735371	0.4	2005-05-25 19:58:51.0	Ventana	34.508	02:20:23:08	4.07	V2669-03
 	transect	Phyllospadix	799.74	2674	 	36.752518	-122.2039	1799413	0.35	2005-06-08 17:48:32.0	Ventana	34.487	00:33:05:15	4.388	V2674-01
 	descend	Appendicularia	800.99	2681	 	36.69495	-122.05064	1716350	0.31	2005-07-07 18:52:39.0	Ventana	34.476	02:22:22:16	4.481	V2681-03
 	transect	Microstomus pacificus	196.3	2696	 	36.80267	-122.12169	1813040	1.55	2005-08-01 16:58:59.0	Ventana	34.2	00:27:18:10	8.6	V2696-01
 	cruise	Pleuronectiformes	506.72	2688	 	36.80103	-122.01868	1677539	0.69	2005-07-14 17:22:25.0	Ventana	34.308	01:08:10:08	6.437	V2688-02
 	cruise	Chionoecetes tanneri	1221.22	2683	 	36.706264	-122.04752	1757607	0.72	2005-07-11 20:07:32.0	Ventana	34.574	03:41:54:08	3.345	V2683-04
 	transect	Poeobius meseres	1001.05	2681	 	36.695118	-122.05104	2498573	0.47	2005-07-07 19:23:07.0	Ventana	34.531	02:52:48:01	3.869	V2681-03HD
 	descend	Appendicularia	344.63	2683	 	36.70127	-122.04997	1756555	1.25	2005-07-11 16:56:14.0	Ventana	34.226	00:43:53:24	7.236	V2683-01
 	transect	Poeobius meseres	600.52	2681	 	36.6975	-122.05332	2493834	0.3	2005-07-07 18:26:44.0	Ventana	34.388	01:57:06:21	5.471	V2681-02HD
 	transect	Poeobius meseres	1001.0	2681	 	36.695557	-122.051605	2498624	0.48	2005-07-07 19:25:30.0	Ventana	34.532	02:55:09:29	3.847	V2681-03HD
 	transect	Mesomyaria	999.72	2669	 	36.731026	-122.23123	1683584	0.45	2005-05-25 18:25:14.0	Ventana	34.521	00:47:40:09	3.912	V2669-01
 	transect	doliolidae	300.44	2681	 	36.69817	-122.053474	2492007	1.24	2005-07-07 17:20:53.0	Ventana	34.233	00:52:00:21	7.409	V2681-01HD
 	ascend	Nanomia	253.95	2681	 	36.698326	-122.055824	1719202	1.46	2005-07-07 21:24:50.27	Ventana	34.226	04:53:09:06	7.994	V2681-05
 	cruise	rock outcrop	358.65	2676	http://search.mbari.org/ARCHIVE/frameGrabs/Ventana/images/2676/00_33_53_03.jpg	36.804684	-122.029	20003930	0.99	2005-06-14 16:49:45.0	Ventana	34.27	00:33:53:03	7.109	V2676-01
 	transect	Calliostoma platinum	 	2687	 	 	 	1807664	 	2005-07-13 17:21:39.0	Ventana	 	00:48:31:20	 	V2687-01
 	transect	Mediaster	 	2687	 	 	 	1812454	 	2005-07-13 20:39:21.0	Ventana	 	04:04:18:13	 	V2687-04
 	descend	Chaetognatha	240.85	2693	 	36.698547	-122.061714	1758382	1.5	2005-07-25 19:23:38.0	Ventana	34.238	02:03:39:27	8.515	V2693-02
 	transect	Mesomyaria	801.45	2674	 	36.750977	-122.21845	1803580	0.35	2005-06-08 19:00:14.0	Ventana	34.489	01:44:17:04	4.356	V2674-02
 	cruise	Rathbunaster californicus	433.81	2688	 	36.804897	-122.0187	1677673	0.92	2005-07-14 17:43:10.0	Ventana	34.27	01:28:54:05	6.93	V2688-02
 	transect	Gastropoda sp.2	999.53	2669	 	36.730938	-122.231606	1695083	0.45	2005-05-25 18:27:53.0	Ventana	34.522	00:50:18:29	3.912	V2669-01
 	transect	Stomphia	999.69	2669	 	36.731804	-122.24449	1734355	0.4	2005-05-25 19:52:59.0	Ventana	34.508	02:14:29:26	4.076	V2669-03
 	descend	Bathocyroe	850.15	2682	 	36.69832	-122.05944	1721735	0.34	2005-07-08 18:47:56.0	Ventana	34.481	02:40:58:01	4.437	V2682-03
 	transect	Phyllospadix	801.17	2674	 	36.751926	-122.20982	1800955	0.35	2005-06-08 18:19:22.0	Ventana	34.483	01:03:27:01	4.35	V2674-02
 	cruise	Chionoecetes tanneri	1207.68	2683	 	36.707077	-122.047676	1757676	0.72	2005-07-11 20:16:43.0	Ventana	34.572	03:51:05:05	3.355	V2683-04
 	transect	Rathbunaster californicus	198.09	2696	 	36.803608	-122.124374	1813252	1.53	2005-08-01 17:26:55.0	Ventana	34.204	00:55:12:14	8.617	V2696-01
 	ascend	Chaetognatha	347.45	2681	 	36.699333	-122.05515	1718081	1.08	2005-07-07 20:52:51.033	Ventana	34.254	04:21:11:28	7.207	V2681-05
 	transect	Poeobius meseres	700.59	2681	 	36.6956	-122.05144	2497918	0.28	2005-07-07 18:45:52.0	Ventana	34.435	02:15:35:26	4.946	V2681-03HD
 	transect	Mesomyaria	1000.09	2669	 	36.73104	-122.239624	1689172	0.41	2005-05-25 19:25:05.55	Ventana	34.509	01:47:04:17	4.064	V2669-02
 	transect	Mediaster	 	2687	http://search.mbari.org/ARCHIVE/frameGrabs/Ventana/images/2687/03_11_59_05.jpg	 	 	1810995	 	2005-07-13 19:46:58.0	Ventana	 	03:11:59:05	 	V2687-04
 	ascend	Appendicularia	365.78	2693	 	36.695488	-122.06086	1758812	1.23	2005-07-25 20:55:59.0	Ventana	34.234	03:20:31:26	7.309	V2693-04
 	transect	molt	100.46	2681	 	36.6998	-122.054276	2489750	2.12	2005-07-07 16:49:35.0	Ventana	34.067	00:20:44:09	9.156	V2681-01HD
 	descend	Nanomia	156.25	2682	 	36.699867	-122.060745	1719908	2.19	2005-07-08 16:18:55.0	Ventana	34.097	00:12:59:14	8.434	V2682-01
 	transect	Phyllospadix	802.78	2674	 	36.75224	-122.20636	1799926	0.36	2005-06-08 18:01:31.0	Ventana	34.489	00:46:03:11	4.339	V2674-01
 	transect	Sebastolobus	399.86	2687	 	36.788067	-122.12156	1809168	1.13	2005-07-13 17:36:26.0	Ventana	34.242	01:02:48:00	7.267	V2687-02
 	transect	Mesomyaria	999.39	2669	 	36.731033	-122.23388	1683999	0.45	2005-05-25 18:41:11.0	Ventana	34.523	01:03:11:20	3.912	V2669-02
 	transect	Psolus squamatus	 	2687	 	 	 	1808785	 	2005-07-13 17:29:29.0	Ventana	 	00:56:21:06	 	V2687-01
 	stationary	Appendicularia	502.33	2694	 	36.784588	-122.20043	1676644	0.85	2005-07-27 20:14:18.0	Ventana	34.27	02:46:26:12	6.703	V2694-03
 	descend	Appendicularia	399.93	2682	 	36.69829	-122.059875	1720706	0.84	2005-07-08 17:37:43.0	Ventana	34.249	01:31:14:28	6.657	V2682-02
 	transect	Gastropoda sp.2	1000.47	2669	 	36.732143	-122.2482	1736197	0.41	2005-05-25 20:20:30.0	Ventana	34.51	02:42:00:03	4.06	V2669-03
 	ascend	Appendicularia	382.27	2683	 	36.703953	-122.05058	1758059	1.0	2005-07-11 21:21:06.0	Ventana	34.25	04:53:57:12	6.963	V2683-05
 	transect	Sebastolobus	 	2687	 	 	 	1810612	 	2005-07-13 19:24:28.0	Ventana	 	02:50:12:05	 	V2687-03
 	transect	Mediaster	 	2687	 	 	 	1807341	 	2005-07-13 17:07:19.0	Ventana	 	00:34:13:08	 	V2687-01
 	transect	Mesomyaria	798.92	2674	 	36.751453	-122.21465	1801370	0.35	2005-06-08 18:42:45.0	Ventana	34.489	01:26:49:01	4.333	V2674-02
 	transect	Stomphia	999.87	2669	 	36.732586	-122.25051	1736995	0.41	2005-05-25 20:36:32.0	Ventana	34.51	02:57:59:04	4.073	V2669-03
 	transect	Nanomia bijuga	200.38	2681	 	36.698307	-122.05339	2491194	1.68	2005-07-07 17:12:40.0	Ventana	34.2	00:43:48:15	8.337	V2681-01HD
 	cruise	Merluccius productus	505.21	2694	 	36.784016	-122.2008	1676154	0.75	2005-07-27 17:07:39.0	Ventana	34.288	00:00:48:04	6.475	V2694-01
 	descend	Appendicularia	974.93	2683	 	36.704063	-122.048645	1757353	0.42	2005-07-11 19:13:48.0	Ventana	34.516	02:54:10:11	4.035	V2683-03
 	transect	Mediaster	 	2687	 	 	 	1811318	 	2005-07-13 20:06:58.0	Ventana	 	03:31:57:10	 	V2687-04
 	descend	Appendicularia	677.24	2682	 	36.69866	-122.05995	1721412	0.28	2005-07-08 18:12:25.0	Ventana	34.413	02:05:30:02	5.182	V2682-03
 	ascend	Chaetognatha	258.17	2681	 	36.697838	-122.05522	1719585	 	2005-07-07 21:29:59.0	Ventana	 	05:15:51:20	 	V2681-05
 	ascend	surface water	 	2687	 	 	 	1812837	 	2005-07-13 21:26:32.0	Ventana	 	04:50:57:00	 	V2687-05
 	ascend	sinker	705.59	2681	 	36.698723	-122.05496	1717591	0.29	2005-07-07 20:20:16.917	Ventana	34.426	03:49:18:07	5.064	V2681-04
 	ascend	Doryteuthis	 	2669	 	 	 	1737701	 	2005-05-25 14:23:52.0	Ventana	 	03:44:38:06	 	V2669-04
 	cruise	Pleuronectiformes	124.27	2672	 	36.803097	-121.8056	1824336	2.65	2005-06-03 15:06:18.0	Ventana	33.957	00:25:39:12	9.304	V2672-01
 	transect	lobata	800.87	2681	 	36.696198	-122.05218	2498241	0.31	2005-07-07 18:59:20.0	Ventana	34.475	02:29:01:20	4.5	V2681-03HD
 	ascend	Appendicularia	857.88	2682	 	36.698627	-122.058495	1723239	0.33	2005-07-08 20:19:46.0	Ventana	34.487	04:11:54:26	4.373	V2682-05
 	ascend	Calycophorae	554.89	2682	 	36.698296	-122.0627	1723609	0.39	2005-07-08 21:08:50.0	Ventana	34.358	05:00:31:28	5.856	V2682-06
 	descend	Appendicularia	785.63	2682	 	36.698395	-122.05973	1721675	0.33	2005-07-08 18:35:00.0	Ventana	34.461	02:28:02:21	4.643	V2682-03
 	transect	Appendicularia	400.75	2681	 	36.697643	-122.05335	2493188	0.79	2005-07-07 17:48:59.0	Ventana	34.278	01:19:21:24	6.659	V2681-02HD
 	transect	Neptunea amianta	802.26	2674	 	36.751724	-122.210396	1801015	0.35	2005-06-08 18:21:53.0	Ventana	34.49	01:05:57:27	4.329	V2674-02
 	transect	Caecosagitta macrocephala	901.06	2681	 	36.696472	-122.052574	2498301	0.39	2005-07-07 19:08:57.0	Ventana	34.505	02:38:38:13	4.17	V2681-03HD
 	descend	Appendicularia	537.84	2683	 	36.70158	-122.04915	1756938	0.53	2005-07-11 17:43:28.0	Ventana	34.327	01:27:35:25	6.191	V2683-02
 	transect	Phyllospadix	800.7	2674	 	36.75108	-122.21766	1803520	0.35	2005-06-08 18:56:38.0	Ventana	34.49	01:40:40:14	4.343	V2674-02
 	transect	Nanomia bijuga	200.47	2681	 	36.69828	-122.05329	2490488	1.71	2005-07-07 17:07:08.0	Ventana	34.197	00:38:15:24	8.341	V2681-01HD
 	transect	Lycenchelys camchatica	1000.27	2669	 	36.73093	-122.233444	1683907	0.45	2005-05-25 18:38:50.0	Ventana	34.522	01:01:15:10	3.913	V2669-01
 	transect	Sergestes similis	300.47	2681	 	36.69799	-122.05335	2492067	1.23	2005-07-07 17:21:33.0	Ventana	34.233	00:52:39:11	7.401	V2681-01HD
 	descend	Lobata	211.47	2693	 	36.69605	-122.05825	1758322	1.71	2005-07-25 18:26:30.0	Ventana	34.189	01:06:34:18	8.612	V2693-02
 	transect	Rathbunaster californicus	 	2687	 	 	 	1807604	 	2005-07-13 17:17:06.0	Ventana	 	00:43:59:02	 	V2687-01
 	transect	Phyllospadix	802.32	2674	 	36.75231	-122.20591	1799866	0.36	2005-06-08 17:59:42.0	Ventana	34.49	00:44:14:06	4.332	V2674-01
 	descend	physical object	599.06	2677	http://search.mbari.org/ARCHIVE/frameGrabs/Ventana/images/2677/00_05_59_09.jpg	36.74625	-122.052155	20008780	0.4	2005-06-15 16:50:43.0	Ventana	34.396	00:05:59:09	5.421	V2677-01
 	transect	Gastropoda sp.2	999.99	2669	 	36.73142	-122.23685	1694700	0.44	2005-05-25 19:05:00.0	Ventana	34.519	01:26:58:27	3.94	V2669-02
 	descend	Appendicularia	825.36	2683	 	36.70274	-122.048615	1757201	0.32	2005-07-11 18:17:06.0	Ventana	34.476	02:01:10:17	4.476	V2683-02
 	transect	Allocentrotus fragilis	 	2687	 	 	 	1811258	 	2005-07-13 20:05:30.0	Ventana	 	03:30:29:27	 	V2687-04
 	transect	Lycenchelys camchatica	999.42	2669	 	36.7312	-122.23579	1684382	0.44	2005-05-25 18:55:39.0	Ventana	34.52	01:17:39:09	3.93	V2669-02
 	descend	Appendicularia	365.26	2681	 	36.695568	-122.05123	1715058	0.97	2005-07-07 17:32:08.033	Ventana	34.261	01:02:31:21	7.011	V2681-02
 	descend	Aegina	1040.82	2683	 	36.70488	-122.04924	1757413	0.47	2005-07-11 19:24:33.0	Ventana	34.532	03:04:54:14	3.872	V2683-03
 	transect	Mediaster	 	2687	 	 	 	1811748	 	2005-07-13 20:24:19.0	Ventana	 	03:49:18:01	 	V2687-04
 	cruise	Alepocephalus tenebrosus	621.75	2688	http://search.mbari.org/ARCHIVE/frameGrabs/Ventana/images/2688/00_14_50_28.jpg	36.79413	-122.01955	1677290	0.42	2005-07-14 16:28:35.0	Ventana	34.418	00:14:50:28	5.239	V2688-01
 	transect	Phyllospadix	200.35	2696	 	36.805176	-122.12805	1813575	1.5	2005-08-01 18:00:55.0	Ventana	34.211	01:28:47:29	8.67	V2696-02
 	ascend	Appendicularia	881.55	2681	 	36.698254	-122.05521	1717328	0.36	2005-07-07 19:51:15.0	Ventana	34.503	03:20:17:18	4.253	V2681-04
 	cruise	Lycodapus	408.28	2688	 	36.80634	-122.019325	1677733	1.04	2005-07-14 17:50:04.0	Ventana	34.249	01:35:47:09	7.164	V2688-02
 	transect	Phyllospadix	800.66	2674	 	36.752632	-122.20186	1799113	0.34	2005-06-08 17:37:48.0	Ventana	34.484	00:22:22:09	4.416	V2674-01
 	transect	Asteronyx loveni	599.88	2680	 	36.77827	-122.22346	1804378	0.36	2005-06-27 17:56:21.0	Ventana	34.378	00:36:28:00	5.591	V2680-01
 	ascend	Solmissus	202.72	2683	 	36.702724	-122.05072	1758119	1.66	2005-07-11 21:28:56.0	Ventana	34.207	05:01:47:03	8.53	V2683-05
 	transect	Ceriantharia sp. 2	997.64	2669	 	36.730595	-122.22696	1683321	0.45	2005-05-25 17:53:49.0	Ventana	34.522	00:16:17:14	3.91	V2669-01
 	transect	Mediaster	 	2687	 	 	 	1812191	 	2005-07-13 20:28:41.0	Ventana	 	03:53:39:20	 	V2687-04
 	transect	Mesomyaria	999.98	2669	 	36.73097	-122.233025	1683847	0.45	2005-05-25 18:36:55.0	Ventana	34.522	00:59:20:25	3.911	V2669-01
 	transect	Phyllospadix	200.38	2696	 	36.80474	-122.127235	1813515	1.51	2005-08-01 17:55:23.0	Ventana	34.21	01:23:15:23	8.672	V2696-02
 	transect	Phyllospadix	1000.13	2669	 	36.73116	-122.240204	1689232	0.41	2005-05-25 19:28:51.0	Ventana	34.51	01:50:49:17	4.058	V2669-02
 	descend	Sergestes similis	519.79	2688	 	36.793446	-122.018265	1677230	0.73	2005-07-14 16:16:37.0	Ventana	34.299	00:02:58:06	6.49	V2688-01
 	descend	Chaetognatha	902.23	2681	 	36.69691	-122.05309	1716502	0.38	2005-07-07 19:06:18.433	Ventana	34.503	02:36:01:03	4.179	V2681-03
 	descend	Nanomia	226.06	2682	 	36.699886	-122.06071	1719968	1.53	2005-07-08 16:21:46.0	Ventana	34.222	00:15:50:09	8.036	V2682-01
 	transect	Mediaster	 	2687	 	 	 	1811485	 	2005-07-13 20:14:25.0	Ventana	 	03:39:24:20	 	V2687-04
 	cruise	Sergestes similis	470.03	2676	 	36.80242	-122.02938	1676274	0.56	2005-06-14 16:33:40.0	Ventana	34.336	00:17:49:07	6.159	V2676-01
 	cruise	Sebastolobus	572.19	2688	 	36.79705	-122.02	1677410	0.5	2005-07-14 16:55:05.0	Ventana	34.359	00:41:23:24	5.825	V2688-01
 	descend	Appendicularia	586.48	2683	 	36.701916	-122.0491	1756998	0.36	2005-07-11 17:48:12.0	Ventana	34.365	01:32:17:28	5.845	V2683-02
 	transect	Mesomyaria	999.58	2669	 	36.731323	-122.23592	1684442	0.44	2005-05-25 18:57:03.0	Ventana	34.52	01:19:03:04	3.936	V2669-02
 	transect	Allocentrotus fragilis	 	2687	 	 	 	1808725	 	2005-07-13 17:27:55.0	Ventana	 	00:54:48:01	 	V2687-01
 	descend	Appendicularia	1189.46	2682	 	36.69833	-122.05787	1722413	0.67	2005-07-08 19:45:50.0	Ventana	34.57	03:38:24:18	3.382	V2682-04
 	transect	Stomphia	 	2687	 	 	 	1810552	 	2005-07-13 19:22:08.0	Ventana	 	02:47:51:22	 	V2687-03
 	ascend	Aegina	921.46	2681	 	36.697723	-122.054344	1717005	0.39	2005-07-07 19:45:23.92	Ventana	34.507	03:14:27:11	4.168	V2681-04
 	ascend	Gonatus	754.42	2682	http://search.mbari.org/ARCHIVE/frameGrabs/Ventana/images/2682/04_20_22_28.jpg	36.69877	-122.05912	1723299	0.29	2005-07-08 20:28:14.0	Ventana	34.445	04:20:22:28	4.838	V2682-05
 	transect	Mediaster	 	2687	 	 	 	1810732	 	2005-07-13 19:30:10.0	Ventana	 	02:55:53:09	 	V2687-03
 	ascend	Chuniphyes	752.9	2681	 	36.698734	-122.055786	1717531	0.27	2005-07-07 20:13:49.867	Ventana	34.445	03:42:52:02	4.816	V2681-04
 	transect	Psolus squamatus	 	2687	 	 	 	1808905	 	2005-07-13 17:31:37.0	Ventana	 	00:58:29:01	 	V2687-01
 	transect	Mediaster	 	2687	 	 	 	1807078	 	2005-07-13 16:58:10.0	Ventana	 	00:25:04:13	 	V2687-01
 	transect	Neptunea amianta	1000.15	2669	 	36.731075	-122.23872	1689052	0.43	2005-05-25 19:19:30.0	Ventana	34.514	01:41:28:21	3.969	V2669-02
 	ascend	Poeobius meseres	635.92	2683	 	36.705036	-122.05017	1757939	0.31	2005-07-11 21:10:07.0	Ventana	34.408	04:42:59:28	5.322	V2683-05
 	ascend	Appendicularia	841.32	2681	 	36.69863	-122.05598	1717388	0.32	2005-07-07 19:56:13.033	Ventana	34.486	03:25:15:25	4.406	V2681-04
 	transect	Mesomyaria	998.72	2669	 	36.73285	-122.251884	1737258	0.4	2005-05-25 20:44:20.0	Ventana	34.509	03:05:08:29	4.075	V2669-04
 	ascend	Haliscera	361.98	2693	 	36.694206	-122.061005	1758872	1.24	2005-07-25 21:02:21.0	Ventana	34.232	03:26:53:20	7.361	V2693-04
 	transect	molt	100.49	2681	 	36.69936	-122.053986	2489810	2.14	2005-07-07 16:51:08.0	Ventana	34.067	00:22:16:15	9.15	V2681-01HD
 	transect	Rathbunaster californicus	197.16	2696	 	36.8034	-122.12363	1813192	1.55	2005-08-01 17:18:12.0	Ventana	34.2	00:46:29:25	8.621	V2696-01
 	transect	molt	100.53	2681	 	36.69983	-122.05429	2489630	2.13	2005-07-07 16:46:38.0	Ventana	34.068	00:17:47:25	9.144	V2681-01HD
 	ascend	Appendicularia	265.08	2681	 	36.699474	-122.05454	1718464	1.4	2005-07-07 21:09:42.763	Ventana	34.23	04:38:03:03	7.911	V2681-05
 	descend	Appendicularia	331.74	2682	 	36.698795	-122.060616	1720171	1.08	2005-07-08 17:11:01.0	Ventana	34.248	01:04:32:27	7.204	V2682-02
 	transect	Liponema brevicornis	602.97	2680	http://search.mbari.org/ARCHIVE/frameGrabs/Ventana/images/2680/02_39_44_28.jpg	36.788578	-122.23233	1805957	0.35	2005-06-27 20:01:07.0	Ventana	34.379	02:39:44:28	5.59	V2680-03
 	cruise	Parastichopus	237.01	2688	 	36.809853	-122.02055	1677936	1.57	2005-07-14 18:31:52.23	Ventana	34.193	02:17:08:07	8.313	V2688-03
 	transect	Ophiuroidea	999.28	2669	 	36.73138	-122.23639	1684765	0.44	2005-05-25 19:00:31.0	Ventana	34.518	01:22:30:14	3.944	V2669-02
 	descend	Dosidicus gigas	604.45	2681	 	36.695683	-122.051094	1715704	0.3	2005-07-07 18:12:17.7	Ventana	34.388	01:42:38:27	5.458	V2681-02
 	cruise	Sebastolobus	500.51	2695	 	36.78443	-122.20021	1824396	0.89	2005-07-28 16:57:04.0	Ventana	34.267	00:03:26:17	6.712	V2695-01
 	descend	Calycophorae	968.03	2682	 	36.698326	-122.05931	1721998	0.42	2005-07-08 18:56:09.0	Ventana	34.514	02:49:10:13	4.053	V2682-03
 	transect	Allocentrotus fragilis	 	2687	 	 	 	1812394	 	2005-07-13 20:36:24.0	Ventana	 	04:01:22:03	 	V2687-04
 	descend	Hormiphora	179.69	2693	 	36.69609	-122.05818	1758262	1.9	2005-07-25 18:11:00.0	Ventana	34.158	00:51:30:27	8.875	V2693-01
 	transect	Phyllospadix	599.66	2680	 	36.777794	-122.22285	1804318	0.36	2005-06-27 17:50:40.0	Ventana	34.378	00:30:47:18	5.582	V2680-01
 	transect	Psolus squamatus	399.84	2687	http://search.mbari.org/ARCHIVE/frameGrabs/Ventana/images/2687/01_02_17_21.jpg	36.788036	-122.12153	1809108	1.13	2005-07-13 17:35:55.0	Ventana	34.244	01:02:17:21	7.27	V2687-02
 	transect	Mediaster	 	2687	 	 	 	1810935	 	2005-07-13 19:43:15.0	Ventana	 	03:08:16:25	 	V2687-04
 	descend	Appendicularia	554.86	2682	 	36.69863	-122.05979	1720909	0.34	2005-07-08 18:05:55.0	Ventana	34.37	01:59:24:24	5.654	V2682-02
 	transect	Ceriantharia sp. 2	999.83	2669	 	36.731895	-122.24604	1735611	0.41	2005-05-25 20:03:39.0	Ventana	34.51	02:25:09:18	4.06	V2669-03
 	transect	Stomphia	 	2687	 	 	 	1810409	 	2005-07-13 19:17:19.0	Ventana	 	02:43:03:17	 	V2687-03
 	transect	Sebastolobus altivelis	800.45	2674	 	36.75257	-122.202225	1799173	0.33	2005-06-08 17:39:44.0	Ventana	34.478	00:24:17:22	4.435	V2674-01
 	ascend	Appendicularia	488.89	2681	 	36.69895	-122.05424	1717758	0.51	2005-07-07 20:35:06.567	Ventana	34.327	04:04:06:29	6.174	V2681-04
 	descend	Solmissus	240.27	2683	 	36.700966	-122.05063	1756435	1.71	2005-07-11 16:49:56.0	Ventana	34.188	00:37:37:00	8.075	V2683-01
 	transect	Mesomyaria	999.89	2669	 	36.73061	-122.22924	1651066	0.45	2005-05-25 18:08:25.0	Ventana	34.522	00:30:53:10	3.906	V2669-01
 	cruise	Pleuronectiformes	458.79	2688	 	36.803032	-122.018135	1677613	0.88	2005-07-14 17:33:07.0	Ventana	34.271	01:18:50:25	6.847	V2688-02
 	transect	Mesomyaria	1000.02	2669	 	36.731678	-122.24382	1733972	0.41	2005-05-25 19:49:10.0	Ventana	34.509	02:10:42:10	4.069	V2669-03
 	descend	Chaetognatha	1200.62	2682	 	36.698315	-122.059	1722210	0.68	2005-07-08 19:18:37.0	Ventana	34.573	03:11:14:21	3.368	V2682-04
 	descend	Phialidium	784.75	2683	 	36.702564	-122.04886	1757141	0.35	2005-07-11 17:59:31.0	Ventana	34.454	01:43:36:26	4.703	V2683-02
 	ascend	sinker	1168.94	2683	 	36.70727	-122.0485	1757736	0.7	2005-07-11 20:29:44.0	Ventana	34.568	04:04:05:27	3.406	V2683-04
 	transect	Sebastolobus	 	2687	 	 	 	1812574	 	2005-07-13 20:45:53.0	Ventana	 	04:10:24:09	 	V2687-05
 	transect	Mesomyaria	997.5	2669	 	36.73063	-122.227806	1649239	0.45	2005-05-25 17:59:18.0	Ventana	34.522	00:21:46:05	3.907	V2669-01
 	ascend	Poeobius meseres	585.8	2682	 	36.69883	-122.06026	1723442	0.4	2005-07-08 20:42:00.0	Ventana	34.371	04:34:09:11	5.67	V2682-05
 	transect	Pleurobranchaea californica	204.1	2696	 	36.805286	-122.12825	1813695	1.48	2005-08-01 18:15:45.0	Ventana	34.213	01:43:36:20	8.633	V2696-02
 	transect	Euplexaura	 	2687	 	 	 	1808582	 	2005-07-13 17:24:25.0	Ventana	 	00:51:18:14	 	V2687-01
 	transect	Calycophorae	700.64	2681	 	36.696747	-122.052635	2497715	0.29	2005-07-07 18:40:47.0	Ventana	34.436	02:10:29:09	4.931	V2681-03HD
 	descend	Nanomia	385.64	2683	 	36.701466	-122.049774	1756615	1.02	2005-07-11 16:58:31.0	Ventana	34.253	00:46:11:00	6.983	V2683-01
 	transect	Mesomyaria	999.22	2669	 	36.731052	-122.235085	1684262	0.45	2005-05-25 18:50:53.0	Ventana	34.523	01:12:53:22	3.923	V2669-02
 	transect	Psolus squamatus	399.9	2687	 	36.78813	-122.1217	1809288	1.14	2005-07-13 17:38:22.0	Ventana	34.24	01:04:44:17	7.292	V2687-02
 	ascend	Cydippida	197.33	2693	 	36.69076	-122.06274	1759195	1.78	2005-07-25 21:26:02.0	Ventana	34.185	03:50:34:23	8.895	V2693-04
 	transect	Mediaster	 	2687	 	 	 	1811868	 	2005-07-13 20:27:47.0	Ventana	 	03:52:45:09	 	V2687-04
 	transect	Psolus squamatus	 	2687	 	 	 	1812777	 	2005-07-13 20:57:04.0	Ventana	 	04:21:33:29	 	V2687-05
 	transect	Nanomia bijuga	400.76	2681	 	36.697308	-122.05296	2493128	0.79	2005-07-07 17:47:33.0	Ventana	34.278	01:17:57:05	6.663	V2681-02HD
 	transect	Rathbunaster californicus	197.77	2696	 	36.80266	-122.12169	1812989	1.53	2005-08-01 16:49:48.0	Ventana	34.203	00:18:08:04	8.569	V2696-01
 	transect	ink	400.79	2681	 	36.695873	-122.051285	2492916	0.79	2005-07-07 17:41:19.0	Ventana	34.278	01:11:42:14	6.667	V2681-02HD
 	descend	Appendicularia	932.25	2682	 	36.698257	-122.05938	1721795	0.35	2005-07-08 18:53:08.0	Ventana	34.498	02:46:09:13	4.255	V2682-03
 	transect	Phyllospadix	799.81	2674	 	36.752457	-122.204994	1799699	0.35	2005-06-08 17:54:41.0	Ventana	34.487	00:39:14:05	4.357	V2674-01
 	transect	Nanomia bijuga	200.37	2681	 	36.698315	-122.05341	2491254	1.66	2005-07-07 17:13:10.0	Ventana	34.2	00:44:18:16	8.341	V2681-01HD
 	ascend	Appendicularia	414.5	2681	 	36.699226	-122.05434	1717961	0.8	2005-07-07 20:46:13.233	Ventana	34.276	04:14:34:16	6.674	V2681-05
 	ascend	Appendicularia	509.72	2682	 	36.69836	-122.06317	1723669	0.47	2005-07-08 21:13:06.0	Ventana	34.337	05:04:46:29	6.11	V2682-06
 	descend	Solmissus	289.8	2693	 	36.697857	-122.06128	1758442	1.37	2005-07-25 19:37:14.0	Ventana	34.239	02:16:50:01	7.886	V2693-03
 	transect	Mediaster	 	2687	 	 	 	1810229	 	2005-07-13 19:10:32.0	Ventana	 	02:36:17:00	 	V2687-03
 	transect	Psolus squamatus	 	2687	 	 	 	1811115	 	2005-07-13 19:53:49.0	Ventana	 	03:18:49:20	 	V2687-04
 	transect	Ophiuroidea	1000.07	2669	 	36.73123	-122.238304	1688849	0.43	2005-05-25 19:17:11.0	Ventana	34.519	01:39:09:22	3.975	V2669-02
 	ascend	Copepoda	1064.74	2682	 	36.69804	-122.05755	1722736	0.52	2005-07-08 20:01:16.0	Ventana	34.541	03:53:50:11	3.744	V2682-04
 	cruise	Chionoecetes tanneri	1231.33	2683	 	36.705795	-122.04785	1757556	0.75	2005-07-11 19:52:57.0	Ventana	34.583	03:27:20:22	3.295	V2683-04
 	transect	Rathbunaster californicus	203.54	2696	 	36.806393	-122.129944	1813755	1.48	2005-08-01 18:27:07.0	Ventana	34.213	01:54:58:19	8.627	V2696-02
 	descend	Crustacea	565.5	2681	 	36.695698	-122.05105	1715621	0.36	2005-07-07 18:06:41.933	Ventana	34.365	01:37:03:29	5.668	V2681-02
 	transect	Psolus squamatus	 	2687	 	 	 	1807138	 	2005-07-13 17:01:25.0	Ventana	 	00:28:19:07	 	V2687-01
 	transect	Mesomyaria	998.93	2669	 	36.730923	-122.229904	1651186	0.45	2005-05-25 18:13:32.0	Ventana	34.521	00:35:59:11	3.906	V2669-01
 	cruise	mud	98.57	2688	 	36.816875	-122.01407	1679320	1.98	2005-07-14 19:53:17.0	Ventana	34.088	03:38:03:17	8.914	V2688-04
 	descend	Copepoda	1182.68	2682	 	36.69828	-122.05797	1722330	0.66	2005-07-08 19:40:02.0	Ventana	34.569	03:32:38:23	3.414	V2682-04
 	transect	Psolus squamatus	 	2687	http://search.mbari.org/ARCHIVE/frameGrabs/Ventana/images/2687/00_59_58_03.jpg	 	 	1808988	 	2005-07-13 17:33:06.0	Ventana	 	00:59:58:03	 	V2687-01
 	transect	molt	100.55	2681	 	36.69983	-122.05429	2489547	2.13	2005-07-07 16:44:32.0	Ventana	34.067	00:15:41:29	9.144	V2681-01HD
 	transect	Phyllospadix	800.13	2674	 	36.751766	-122.2119	1801158	0.35	2005-06-08 18:27:40.0	Ventana	34.488	01:11:45:01	4.343	V2674-02
 	transect	Parastichopus leukothele	196.42	2696	 	36.80287	-122.12214	1813049	1.54	2005-08-01 17:01:04.0	Ventana	34.201	00:29:22:26	8.602	V2696-01
 	cruise	Diogenidae	1015.97	2689	 	36.77156	-122.08297	1669740	0.57	2005-07-18 17:10:59.0	Ventana	34.551	00:34:01:27	3.655	V2689-01
 	transect	Brisaster	1000.15	2669	 	36.73164	-122.243416	1733829	0.41	2005-05-25 19:46:59.0	Ventana	34.511	02:08:29:12	4.068	V2669-03
 	transect	Lycenchelys camchatica	799.41	2674	 	36.7527	-122.2008	1774145	0.29	2005-06-08 17:32:34.0	Ventana	34.454	00:17:07:19	4.638	V2674-01
 	descend	Aegina	699.36	2683	 	36.702072	-122.048935	1757081	0.31	2005-07-11 17:54:12.0	Ventana	34.422	01:38:17:05	5.079	V2683-02
 	transect	Mediaster	 	2687	 	 	 	1812657	 	2005-07-13 20:49:58.0	Ventana	 	04:14:28:16	 	V2687-05
 	transect	Phyllospadix	800.28	2674	 	36.752487	-122.20315	1799293	0.35	2005-06-08 17:44:21.0	Ventana	34.481	00:28:54:19	4.373	V2674-01
 	ascend	Poeobius meseres	701.1	2683	 	36.705795	-122.04903	1757879	0.27	2005-07-11 21:05:57.0	Ventana	34.449	04:38:49:06	4.795	V2683-05
 	cruise	Parastichopus	104.43	2676	 	36.806034	-122.0422	1677170	1.93	2005-06-14 19:18:13.0	Ventana	34.158	02:56:58:03	8.429	V2676-03
 	transect	Phyllospadix	998.54	2669	 	36.731106	-122.23068	1683381	0.45	2005-05-25 18:19:39.0	Ventana	34.521	00:42:06:07	3.911	V2669-01
 	descend	Myctophidae	596.83	2682	 	36.698643	-122.059814	1721232	0.38	2005-07-08 18:07:28.0	Ventana	34.388	02:00:32:13	5.486	V2682-03
 	transect	Brisaster	 	2687	 	 	 	1807484	 	2005-07-13 17:10:17.0	Ventana	 	00:37:11:08	 	V2687-01
 	transect	Mediaster	 	2687	 	 	 	1812251	 	2005-07-13 20:29:56.0	Ventana	 	03:54:54:13	 	V2687-04
 	transect	phialidium	500.59	2681	 	36.69587	-122.051315	2493654	0.43	2005-07-07 18:04:06.0	Ventana	34.348	01:34:28:12	6.006	V2681-02HD
 	transect	Munneurycope murrayi	901.0	2681	 	36.695618	-122.05154	2498421	0.39	2005-07-07 19:12:48.0	Ventana	34.505	02:42:29:16	4.172	V2681-03HD
 	transect	Psolus squamatus	 	2687	 	 	 	1808642	 	2005-07-13 17:25:59.0	Ventana	 	00:52:52:03	 	V2687-01
 	descend	Bathocyroe	495.41	2682	 	36.698597	-122.05978	1720826	0.46	2005-07-08 17:59:07.0	Ventana	34.34	01:52:36:19	6.088	V2682-02
 	transect	Chionoecetes tanneri	999.7	2669	 	36.731354	-122.237785	1687533	0.44	2005-05-25 19:12:52.0	Ventana	34.52	01:34:51:07	3.95	V2669-02
 	ascend	Cyclothone	1080.48	2682	 	36.698055	-122.05753	1722676	0.56	2005-07-08 19:59:58.0	Ventana	34.55	03:52:32:21	3.652	V2682-04
 	transect	Brisaster	998.46	2669	 	36.730522	-122.22843	1650886	0.45	2005-05-25 18:03:19.0	Ventana	34.522	00:25:47:07	3.907	V2669-01
 	descend	Euphausiacea	267.57	2682	 	36.699745	-122.060745	1720028	1.35	2005-07-08 16:31:01.0	Ventana	34.231	00:25:04:04	7.754	V2682-01
 	transect	Neptunea amianta	799.09	2674	 	36.75172	-122.21277	1801227	0.35	2005-06-08 18:30:47.0	Ventana	34.49	01:14:51:22	4.332	V2674-02
 	ascend	Appendicularia	639.87	2682	 	36.698875	-122.05969	1723382	0.3	2005-07-08 20:36:23.0	Ventana	34.389	04:28:30:08	5.407	V2682-05
 	cruise	rockwall	108.04	2688	http://search.mbari.org/ARCHIVE/frameGrabs/Ventana/images/2688/02_49_03_17.jpg	36.815678	-122.02432	20005231	1.95	2005-07-14 19:03:50.0	Ventana	34.089	02:49:03:17	8.891	V2688-03
 	transect	Mediaster	 	2687	 	 	 	1810432	 	2005-07-13 19:18:03.0	Ventana	 	02:43:47:09	 	V2687-03
 	transect	Actiniaria sp. 1	1000.06	2669	 	36.730946	-122.232635	1683787	0.45	2005-05-25 18:34:28.0	Ventana	34.521	00:56:53:20	3.911	V2669-01
 	transect	Sebastolobus altivelis	800.31	2674	 	36.75205	-122.20895	1800835	0.35	2005-06-08 18:14:10.0	Ventana	34.49	00:58:41:03	4.329	V2674-01
 	transect	Nanomia bijuga	200.36	2681	 	36.69829	-122.05333	2491051	1.69	2005-07-07 17:11:12.0	Ventana	34.196	00:42:20:04	8.332	V2681-01HD
 	transect	Mesomyaria	998.47	2669	 	36.731136	-122.2308	1683441	0.45	2005-05-25 18:20:56.0	Ventana	34.518	00:43:22:13	3.917	V2669-01
 	transect	Stomphia	803.68	2674	http://search.mbari.org/ARCHIVE/frameGrabs/Ventana/images/2674/01_53_13_10.jpg	36.75075	-122.22049	1803700	0.34	2005-06-08 19:09:11.0	Ventana	34.487	01:53:13:10	4.388	V2674-02
 	transect	Calycophorae	300.45	2681	 	36.697727	-122.053154	2492150	1.23	2005-07-07 17:22:27.0	Ventana	34.234	00:53:34:17	7.4	V2681-01HD
 	transect	Mesomyaria	999.52	2669	 	36.731003	-122.23233	1683727	0.45	2005-05-25 18:31:36.0	Ventana	34.519	00:54:01:25	3.923	V2669-01
 	descend	Myctophidae	435.78	2683	 	36.701477	-122.04952	1756675	0.84	2005-07-11 17:06:55.0	Ventana	34.275	00:54:34:24	6.765	V2683-01
 	transect	Sebastolobus altivelis	800.43	2674	 	36.7512	-122.21659	1803437	0.35	2005-06-08 18:51:48.0	Ventana	34.487	01:35:51:01	4.359	V2674-02
 	transect	Gastropoda sp.2	998.62	2669	 	36.730507	-122.22844	1694940	0.45	2005-05-25 18:03:23.0	Ventana	34.523	00:25:51:01	3.906	V2669-01
 	transect	Umbellula lindahli	598.96	2680	 	36.77995	-122.225	1804581	0.35	2005-06-27 18:17:00.0	Ventana	34.381	00:57:05:12	5.543	V2680-01
 	transect	Psolus squamatus	 	2687	 	 	 	1811545	 	2005-07-13 20:15:20.0	Ventana	 	03:40:19:05	 	V2687-04
 	transect	Phyllospadix	196.31	2696	 	36.80309	-122.122696	1813109	1.56	2005-08-01 17:07:12.0	Ventana	34.198	00:35:30:09	8.625	V2696-01
 	transect	Mysidae 2	800.99	2681	 	36.69511	-122.05086	2498061	0.31	2005-07-07 18:53:59.0	Ventana	34.477	02:23:41:28	4.486	V2681-03HD
 	cruise	Laminariales	93.58	2688	 	36.81618	-122.01646	1679380	2.06	2005-07-14 20:17:12.0	Ventana	34.095	04:01:56:26	8.926	V2688-04
 	transect	Mesomyaria	800.51	2674	 	36.752438	-122.20465	1799639	0.36	2005-06-08 17:53:03.0	Ventana	34.49	00:37:36:05	4.348	V2674-01
 	transect	Phyllospadix	399.69	2687	 	36.789303	-122.12479	1809611	1.15	2005-07-13 18:24:38.0	Ventana	34.24	01:50:57:16	7.318	V2687-02
 	transect	Solmissus	400.8	2681	 	36.696297	-122.05176	2492985	0.79	2005-07-07 17:43:11.0	Ventana	34.276	01:13:34:20	6.65	V2681-02HD
 	cruise	mud	342.88	2688	 	36.807884	-122.0201	1677816	1.21	2005-07-14 18:06:12.0	Ventana	34.23	01:51:54:02	7.493	V2688-02
 	transect	Calycophorae	300.39	2681	 	36.695866	-122.051476	2492593	1.24	2005-07-07 17:29:05.0	Ventana	34.233	01:00:11:09	7.428	V2681-01HD
 	transect	Rathbunaster californicus	199.48	2696	 	36.80421	-122.125984	1813395	1.53	2005-08-01 17:42:40.0	Ventana	34.205	01:10:33:07	8.659	V2696-02
 	transect	Caridea sp.1	598.3	2680	 	36.78104	-122.22599	1804844	0.35	2005-06-27 18:30:44.0	Ventana	34.379	01:09:50:14	5.589	V2680-02
 	transect	Nanomia bijuga	200.46	2681	 	36.69828	-122.05329	2490691	1.72	2005-07-07 17:08:17.0	Ventana	34.194	00:39:24:29	8.323	V2681-01HD
 	transect	Ceriantharia sp. 1	602.22	2680	 	36.79013	-122.23267	1806746	0.35	2005-06-27 20:16:43.0	Ventana	34.379	02:55:19:20	5.586	V2680-03
 	transect	molt	50.5	2681	 	36.69951	-122.05406	2485426	 	2005-07-07 16:32:20.0	Ventana	 	00:03:31:09	 	V2681-01HD
 	transect	Phyllospadix	799.93	2674	 	36.752518	-122.203735	1799376	0.35	2005-06-08 17:47:36.0	Ventana	34.483	00:32:09:16	4.378	V2674-01
 	cruise	rock outcrop	97.36	2688	http://search.mbari.org/ARCHIVE/frameGrabs/Ventana/images/2688/04_24_45_28.jpg	36.81466	-122.01708	20005291	1.95	2005-07-14 20:40:31.0	Ventana	34.096	04:24:45:28	8.94	V2688-05
 	transect	Mesomyaria	999.05	2669	 	36.731194	-122.23437	1684119	0.45	2005-05-25 18:44:28.0	Ventana	34.521	01:06:28:15	3.916	V2669-02
 	descend	Appendicularia	466.63	2683	 	36.70165	-122.04936	1756735	0.77	2005-07-11 17:11:59.0	Ventana	34.287	00:59:37:25	6.652	V2683-01
 	transect	Mesomyaria	800.61	2674	 	36.7521	-122.208435	1800752	0.35	2005-06-08 18:11:34.0	Ventana	34.487	00:56:05:10	4.328	V2674-01
 	descend	Dosidicus gigas	434.17	2681	 	36.69808	-122.05384	1715321	0.62	2005-07-07 17:51:42.033	Ventana	34.3	01:22:04:14	6.341	V2681-02
 	transect	Neptunea amianta	999.73	2669	 	36.73265	-122.251045	1737055	0.4	2005-05-25 20:39:06.0	Ventana	34.51	03:00:34:28	4.07	V2669-03
 	transect	Actiniaria sp. 3	 	2687	 	 	 	1810086	 	2005-07-13 18:55:17.0	Ventana	 	02:21:03:02	 	V2687-03
 	ascend	Appendicularia	604.78	2682	 	36.698624	-122.06166	1723526	0.34	2005-07-08 20:57:21.0	Ventana	34.373	04:49:28:01	5.63	V2682-05
 	descend	Euphausiacea	307.39	2682	 	36.699436	-122.0607	1720088	1.15	2005-07-08 16:43:45.0	Ventana	34.239	00:37:48:17	7.303	V2682-01
 	transect	Gastropoda sp.2	1000.32	2669	 	36.73134	-122.24161	1689827	0.4	2005-05-25 19:37:18.0	Ventana	34.508	01:59:15:08	4.089	V2669-02
 	descend	Sergestes similis	606.62	2683	 	36.701954	-122.04903	1757021	0.35	2005-07-11 17:49:34.0	Ventana	34.369	01:33:41:04	5.764	V2683-02
 	ascend	Haliscera	292.21	2693	 	36.691456	-122.06214	1759075	1.34	2005-07-25 21:19:47.0	Ventana	34.263	03:44:18:22	7.908	V2693-04
 	transect	Ophiuroidea	999.56	2669	 	36.730766	-122.22951	1651126	0.45	2005-05-25 18:10:43.0	Ventana	34.523	00:33:10:04	3.906	V2669-01
 	descend	Chaetognatha	445.12	2682	 	36.698326	-122.05966	1720766	0.58	2005-07-08 17:48:04.0	Ventana	34.317	01:41:33:25	6.336	V2682-02
 	descend	Chaetognatha	359.75	2693	 	36.697056	-122.05986	1758585	1.25	2005-07-25 19:59:52.0	Ventana	34.232	02:39:27:09	7.394	V2693-03
 	ascend	Aegina	716.46	2682	 	36.698826	-122.05932	1723322	0.28	2005-07-08 20:31:01.0	Ventana	34.433	04:23:09:15	4.97	V2682-05
 	transect	Phyllospadix	801.35	2674	 	36.752274	-122.207245	1800046	0.37	2005-06-08 18:06:06.0	Ventana	34.495	00:50:38:08	4.36	V2674-01
 	transect	Psolus squamatus	399.87	2687	 	36.788136	-122.121635	1809251	1.13	2005-07-13 17:37:39.0	Ventana	34.243	01:04:01:10	7.26	V2687-02
 	transect	Neptunea amianta	602.09	2680	 	36.790768	-122.232834	1806806	0.35	2005-06-27 20:22:49.0	Ventana	34.379	03:01:25:22	5.587	V2680-03
 	transect	Psolus squamatus	 	2687	 	 	 	1811055	 	2005-07-13 19:49:40.0	Ventana	 	03:14:41:00	 	V2687-04
 	transect	Poeobius meseres	700.64	2681	 	36.69727	-122.05315	2497655	0.29	2005-07-07 18:38:38.0	Ventana	34.436	02:08:20:20	4.936	V2681-03HD
 	ascend	Nanomia	419.58	2682	 	36.69785	-122.06256	1723729	0.81	2005-07-08 21:20:54.0	Ventana	34.269	05:12:35:03	6.643	V2682-06
 	transect	Chaetognatha	300.41	2681	 	36.697464	-122.052925	2492247	1.24	2005-07-07 17:23:19.0	Ventana	34.233	00:54:26:15	7.402	V2681-01HD
 	transect	Poeobius meseres	500.61	2681	 	36.69654	-122.052124	2493594	0.44	2005-07-07 18:00:57.0	Ventana	34.348	01:31:20:20	6.011	V2681-02HD
 	transect	Gastropoda sp.2	999.43	2669	 	36.73104	-122.23389	1694640	0.45	2005-05-25 18:41:17.0	Ventana	34.523	01:03:17:18	3.912	V2669-02
 	descend	Chaetognatha	160.81	2683	 	36.700817	-122.051384	1756315	1.69	2005-07-11 16:37:16.0	Ventana	34.176	00:24:57:06	8.795	V2683-01
 	transect	Chionoecetes tanneri	800.93	2674	 	36.75252	-122.20145	1774205	0.35	2005-06-08 17:35:49.0	Ventana	34.488	00:20:23:00	4.403	V2674-01
 	transect	Vitreosalpa gemini	400.75	2681	 	36.69677	-122.05235	2493045	0.79	2005-07-07 17:45:20.0	Ventana	34.277	01:15:43:15	6.659	V2681-02HD
 	transect	Psolus squamatus	 	2687	 	 	 	1812717	 	2005-07-13 20:54:37.0	Ventana	 	04:19:07:25	 	V2687-05
 	endtransect	physical object	598.97	2680	 	36.78043	-122.22538	1804641	0.35	2005-06-27 18:22:08.0	Ventana	34.38	01:02:13:22	5.576	V2680-01
 	transect	Chorilia longipes	800.88	2674	 	36.752514	-122.20268	1799233	0.35	2005-06-08 17:42:04.0	Ventana	34.487	00:26:37:16	4.377	V2674-01
 	transect	Appendicularia	500.62	2681	 	36.697506	-122.053246	2493391	0.44	2005-07-07 17:56:49.0	Ventana	34.347	01:27:12:11	6.017	V2681-02HD
 	transect	Corallimorphus pilatus	 	2687	 	 	 	1809957	 	2005-07-13 18:48:54.0	Ventana	 	02:14:40:06	 	V2687-03
 	transect	Mediaster	 	2687	 	 	 	1807009	 	2005-07-13 16:54:27.0	Ventana	 	00:21:21:26	 	V2687-01
 	transect	Psolus squamatus	399.86	2687	 	36.788017	-122.12144	1809048	1.15	2005-07-13 17:35:09.0	Ventana	34.24	01:01:31:16	7.293	V2687-02
 	endtransect	object	202.55	2696	 	36.806763	-122.130356	1813815	1.48	2005-08-01 18:36:14.0	Ventana	34.215	02:04:04:21	8.624	V2696-02
 	transect	Chaetognatha	1000.95	2681	 	36.69648	-122.05285	2498707	0.47	2005-07-07 19:30:01.0	Ventana	34.532	02:59:41:16	3.877	V2681-03HD
 	descend	Poeobius meseres	 	2693	 	 	 	1759435	 	2005-07-25 16:44:48.0	Ventana	 	00:23:21:15	 	V2693-01
 	transect	Antimora microlepis	800.9	2674	 	36.751083	-122.21742	1803497	0.35	2005-06-08 18:55:26.0	Ventana	34.489	01:39:29:06	4.347	V2674-02
 	transect	Phyllospadix	802.08	2674	 	36.752254	-122.206856	1799986	0.37	2005-06-08 18:04:08.0	Ventana	34.49	00:48:40:09	4.328	V2674-01
 	transect	Ceriantharia sp. 2	998.18	2669	 	36.73296	-122.252235	1737401	0.4	2005-05-25 20:46:41.0	Ventana	34.51	03:07:28:21	4.075	V2669-04
 	transect	Phyllospadix	800.99	2674	 	36.752514	-122.20019	1774048	0.29	2005-06-08 17:28:03.0	Ventana	34.455	00:12:37:18	4.643	V2674-01
 	transect	Mesomyaria	802.02	2674	 	36.75231	-122.20583	1799843	0.36	2005-06-08 17:58:59.0	Ventana	34.49	00:43:31:24	4.333	V2674-01
 	transect	Umbellula lindahli	599.2	2680	 	36.78323	-122.22861	1805347	0.36	2005-06-27 19:05:08.0	Ventana	34.377	01:44:11:22	5.602	V2680-02
 	transect	Poeobius meseres	1001.05	2681	 	36.695004	-122.050896	2498564	0.47	2005-07-07 19:22:35.0	Ventana	34.531	02:52:15:12	3.87	V2681-03HD
 	cruise	Chionoecetes tanneri	1218.13	2683	 	36.70635	-122.04753	1757616	0.72	2005-07-11 20:08:54.0	Ventana	34.576	03:43:17:08	3.333	V2683-04
 	transect	Euphausia	200.37	2681	 	36.698322	-122.05344	2491337	1.66	2005-07-07 17:13:36.0	Ventana	34.2	00:44:43:22	8.34	V2681-01HD
 	transect	Gastropoda sp.2	1000.45	2669	 	36.731506	-122.24235	1694497	0.41	2005-05-25 19:41:14.0	Ventana	34.509	02:03:11:10	4.06	V2669-02
 	ascend	Chaetognatha	370.89	2693	 	36.696808	-122.06042	1758729	1.2	2005-07-25 20:31:54.0	Ventana	34.232	03:11:27:08	7.183	V2693-03
 	transect	Mesomyaria	799.05	2674	 	36.751328	-122.215385	1803340	0.35	2005-06-08 18:45:35.0	Ventana	34.489	01:29:38:26	4.339	V2674-02
 	transect	Mesomyaria	999.78	2669	 	36.731056	-122.23894	1689089	0.43	2005-05-25 19:20:56.0	Ventana	34.518	01:42:54:24	3.96	V2669-02
 	ascend	Appendicularia	375.01	2681	 	36.699356	-122.054794	1718021	0.95	2005-07-07 20:50:16.137	Ventana	34.27	04:18:36:21	7.021	V2681-05
 	transect	Lycodes cortezianus	 	2687	http://search.mbari.org/ARCHIVE/frameGrabs/Ventana/images/2687/03_50_51_10.jpg	 	 	1811808	 	2005-07-13 20:25:53.0	Ventana	 	03:50:51:10	 	V2687-04
 	transect	Funiculina	801.25	2674	 	36.752174	-122.20799	1800692	0.35	2005-06-08 18:09:43.0	Ventana	34.489	00:54:14:15	4.332	V2674-01
 	ascend	Chaetognatha	117.73	2693	 	36.69086	-122.06293	1759278	2.17	2005-07-25 21:34:03.0	Ventana	34.051	03:58:33:26	9.141	V2693-04
 	transect	Neptunea amianta	801.79	2674	 	36.75092	-122.21969	1803640	0.35	2005-06-08 19:05:15.0	Ventana	34.493	01:49:17:10	4.365	V2674-02
 	ascend	Nanomia	258.17	2681	 	36.697838	-122.05522	1719322	 	2005-07-07 21:29:59.0	Ventana	 	05:00:58:23	 	V2681-05
 	transect	Psolus squamatus	 	2687	 	 	 	1808845	 	2005-07-13 17:30:23.0	Ventana	 	00:57:15:07	 	V2687-01
 	transect	Hormiphora	200.39	2681	 	36.698284	-122.053314	2490991	1.71	2005-07-07 17:10:31.0	Ventana	34.187	00:41:39:09	8.319	V2681-01HD
 	transect	Actiniaria	 	2687	 	 	 	1811198	 	2005-07-13 20:01:14.0	Ventana	 	03:26:14:13	 	V2687-04
 	transect	Mediaster	 	2687	 	 	 	1812311	 	2005-07-13 20:31:55.0	Ventana	 	03:56:53:07	 	V2687-04
 	descend	Appendicularia	904.66	2683	 	36.703495	-122.04828	1757270	0.38	2005-07-11 18:41:04.0	Ventana	34.501	02:21:27:18	4.217	V2683-03
 	transect	Chionoecetes tanneri	801.86	2674	 	36.752476	-122.19986	1773845	0.29	2005-06-08 17:26:05.0	Ventana	34.461	00:10:39:10	4.642	V2674-01
 	ascend	Appendicularia	575.19	2682	 	36.698334	-122.06242	1723586	0.37	2005-07-08 21:06:40.0	Ventana	34.359	04:58:47:07	5.799	V2682-05
 	transect	Phyllospadix	801.1	2674	 	36.751747	-122.211235	1801098	0.35	2005-06-08 18:25:03.0	Ventana	34.487	01:09:08:00	4.341	V2674-02
 	transect	Psolus squamatus	 	2687	http://search.mbari.org/ARCHIVE/frameGrabs/Ventana/images/2687/02_26_05_01.jpg	 	 	1810146	 	2005-07-13 19:00:20.0	Ventana	 	02:26:05:01	 	V2687-03
 	transect	molt	100.5	2681	 	36.699825	-122.05429	2489690	2.13	2005-07-07 16:47:59.0	Ventana	34.067	00:19:07:24	9.15	V2681-01HD
 	transect	Mesomyaria	1000.24	2669	 	36.731827	-122.24514	1735348	0.4	2005-05-25 19:57:47.0	Ventana	34.507	02:19:18:06	4.096	V2669-03
 	descend	Aegina	1115.06	2683	 	36.705116	-122.048904	1757473	0.6	2005-07-11 19:30:41.0	Ventana	34.548	03:11:01:18	3.641	V2683-03
 	ascend	Poeobius meseres	993.97	2683	 	36.70745	-122.049095	1757819	0.43	2005-07-11 20:51:41.0	Ventana	34.518	04:24:34:23	4.028	V2683-05
 	transect	Brisaster	199.91	2696	 	36.804512	-122.12662	1813455	1.51	2005-08-01 17:49:15.0	Ventana	34.212	01:17:07:24	8.668	V2696-02
 	ascend	Aegina	992.33	2681	 	36.696766	-122.05313	1716562	0.45	2005-07-07 19:33:17.967	Ventana	34.524	03:02:58:29	3.945	V2681-03
 	descend	Myctophidae	646.31	2682	 	36.698643	-122.05991	1721329	0.28	2005-07-08 18:09:57.0	Ventana	34.404	02:03:01:27	5.285	V2682-03
 	transect	Nanomia bijuga	200.41	2681	 	36.69828	-122.05329	2490285	1.69	2005-07-07 17:06:26.0	Ventana	34.2	00:37:34:22	8.359	V2681-01HD
 	transect	Mediaster	 	2687	 	 	 	1812514	 	2005-07-13 20:43:05.0	Ventana	 	04:07:35:25	 	V2687-05
 	transect	Calycophorae	100.47	2681	 	36.69879	-122.05362	2489893	2.14	2005-07-07 16:52:30.0	Ventana	34.068	00:23:39:08	9.136	V2681-01HD
 	ascend	Appendicularia	539.06	2683	 	36.704502	-122.05067	1757976	0.43	2005-07-11 21:14:42.0	Ventana	34.342	04:47:33:20	6.051	V2683-05
 	transect	Phyllospadix	799.43	2674	 	36.75252	-122.204056	1799436	0.35	2005-06-08 17:49:23.0	Ventana	34.485	00:33:55:22	4.379	V2674-01
 	transect	Sebastolobus	 	2687	 	 	 	1810695	 	2005-07-13 19:28:36.0	Ventana	 	02:54:20:00	 	V2687-03
 	descend	Chaetognatha	146.63	2693	 	36.69634	-122.05773	1758179	1.95	2005-07-25 17:56:21.0	Ventana	34.108	00:36:52:13	9.019	V2693-01
 	transect	Appendicularia	600.57	2681	 	36.69652	-122.052155	2493751	0.3	2005-07-07 18:22:25.0	Ventana	34.388	01:52:47:08	5.48	V2681-02HD
 	ascend	Lobata	635.99	2681	 	36.698887	-122.05422	1717675	0.29	2005-07-07 20:28:03.467	Ventana	34.392	03:57:03:24	5.387	V2681-04
 	descend	Appendicularia	514.62	2683	 	36.701447	-122.049164	1756878	0.64	2005-07-11 17:40:38.0	Ventana	34.307	01:24:43:26	6.391	V2683-02
 	transect	Porifera sp. 1	 	2687	 	 	 	1810492	 	2005-07-13 19:20:29.0	Ventana	 	02:46:13:06	 	V2687-03
 	cruise	Sebastolobus	381.6	2690	http://search.mbari.org/ARCHIVE/frameGrabs/Ventana/images/2690/01_16_32_09.jpg	36.79013	-121.8872	20005434	0.94	2005-07-18 20:01:26.0	Ventana	34.266	01:16:32:09	6.972	V2690-01
 	ascend	Nanomia	258.17	2681	 	36.697838	-122.05522	1719525	 	2005-07-07 21:29:59.0	Ventana	 	05:11:03:13	 	V2681-05
 	transect	Caridea sp.1	598.48	2680	 	36.780624	-122.22564	1804784	0.35	2005-06-27 18:25:40.0	Ventana	34.378	01:04:46:29	5.567	V2680-02
 	transect	Ophiuroidea	999.38	2669	 	36.731434	-122.23622	1684682	0.44	2005-05-25 18:59:11.0	Ventana	34.52	01:21:11:06	3.941	V2669-02
 	transect	Neptunea amianta	798.42	2674	 	36.75166	-122.21352	1801287	0.35	2005-06-08 18:35:09.0	Ventana	34.487	01:19:13:08	4.35	V2674-02
 	cruise	Cydippida	304.36	2676	 	36.805115	-122.03165	1676214	1.25	2005-06-14 16:20:43.0	Ventana	34.231	00:04:53:05	7.59	V2676-01
 	transect	Neptunea amianta	1000.3	2669	 	36.731678	-122.24375	1733889	0.41	2005-05-25 19:48:33.0	Ventana	34.507	02:10:04:05	4.068	V2669-03
 	ascend	Chaetognatha	344.97	2693	 	36.693417	-122.06135	1758932	1.25	2005-07-25 21:09:54.0	Ventana	34.238	03:34:25:13	7.392	V2693-04
 	transect	Porifera	399.68	2687	 	36.789158	-122.12424	1809551	1.18	2005-07-13 18:16:17.0	Ventana	34.238	01:42:36:21	7.363	V2687-02
 	transect	Mediaster	 	2687	 	 	 	1811401	 	2005-07-13 20:11:30.0	Ventana	 	03:36:29:03	 	V2687-04
 	transect	Ophiuroidea	999.17	2669	 	36.73139	-122.23605	1684525	0.44	2005-05-25 18:57:53.0	Ventana	34.52	01:19:52:15	3.939	V2669-02
 	transect	Stomphia	999.38	2669	 	36.732754	-122.25134	1737198	0.41	2005-05-25 20:41:08.0	Ventana	34.509	03:01:58:12	4.072	V2669-04
 	transect	Ceriantharia sp. 1	801.51	2674	 	36.751965	-122.209335	1800895	0.36	2005-06-08 18:16:14.0	Ventana	34.491	01:00:46:00	4.321	V2674-01
 	cruise	Porifera	281.29	2688	 	36.809	-122.02035	1677876	1.43	2005-07-14 18:24:24.0	Ventana	34.213	02:09:41:00	8.005	V2688-03
 	transect	Phyllospadix	1000.24	2669	 	36.73177	-122.24471	1734438	0.4	2005-05-25 19:54:45.0	Ventana	34.505	02:16:14:29	4.085	V2669-03
 	transect	Phyllospadix	1000.52	2669	 	36.732273	-122.2489	1736257	0.41	2005-05-25 20:25:36.0	Ventana	34.51	02:47:04:08	4.063	V2669-03
 	ascend	Copepoda	775.77	2681	 	36.698757	-122.056335	1717471	0.29	2005-07-07 20:06:56.5	Ventana	34.453	03:35:58:19	4.747	V2681-04
 	transect	Calliostoma platinum	 	2687	 	 	 	1811605	 	2005-07-13 20:17:05.0	Ventana	 	03:42:04:15	 	V2687-04
 	transect	Mesomyaria	999.77	2669	 	36.731422	-122.23723	1687473	0.44	2005-05-25 19:08:26.0	Ventana	34.519	01:30:25:10	3.946	V2669-02
 	ascend	Appendicularia	1013.83	2682	 	36.697723	-122.05812	1722879	0.47	2005-07-08 20:04:51.0	Ventana	34.528	03:57:25:02	3.89	V2682-04
 	transect	chuniphyes	600.55	2681	 	36.69777	-122.05368	2493857	0.3	2005-07-07 18:28:03.0	Ventana	34.387	01:58:24:12	5.48	V2681-02HD
 	transect	Chaetognatha	1001.02	2681	 	36.695805	-122.05192	2498647	0.48	2005-07-07 19:26:54.0	Ventana	34.536	02:56:35:11	3.854	V2681-03HD
 	ascend	Lensia	254.34	2681	 	36.69841	-122.056015	1719179	1.46	2005-07-07 21:24:29.173	Ventana	34.226	04:52:47:27	7.991	V2681-05
 	transect	Microstomus pacificus	600.0	2680	http://search.mbari.org/ARCHIVE/frameGrabs/Ventana/images/2680/01_47_53_09.jpg	36.783573	-122.22903	1805430	0.35	2005-06-27 19:08:49.0	Ventana	34.378	01:47:53:09	5.586	V2680-02
 	descend	Copepoda	360.23	2683	 	36.701347	-122.049866	1756578	1.14	2005-07-11 16:57:06.0	Ventana	34.237	00:44:47:11	7.148	V2683-01
 	transect	Allocentrotus fragilis	 	2687	 	 	 	1812477	 	2005-07-13 20:40:58.0	Ventana	 	04:05:55:27	 	V2687-04
 	transect	Mesomyaria	801.34	2674	 	36.750957	-122.21876	1803603	0.35	2005-06-08 19:01:23.0	Ventana	34.487	01:45:25:22	4.352	V2674-02
 	transect	Psolus squamatus	 	2687	 	 	 	1810266	 	2005-07-13 19:13:09.0	Ventana	 	02:38:53:05	 	V2687-03
 	descend	Appendicularia	393.2	2681	 	36.695557	-122.05119	1715095	0.86	2005-07-07 17:33:05.533	Ventana	34.259	01:03:29:19	6.794	V2681-02
 	transect	Sebastolobus	999.1	2669	 	36.731174	-122.23564	1684359	0.45	2005-05-25 18:54:44.0	Ventana	34.522	01:16:44:00	3.927	V2669-02
 	descend	Cydippida 2	950.23	2683	http://search.mbari.org/ARCHIVE/frameGrabs/Ventana/images/2683/02_50_20_18.jpg	36.703835	-122.048546	1757330	0.42	2005-07-11 19:09:58.0	Ventana	34.516	02:50:20:18	4.049	V2683-03
 	transect	Mediaster	 	2687	 	 	 	1811341	 	2005-07-13 20:08:30.0	Ventana	 	03:33:29:20	 	V2687-04
 	transect	Mediaster	 	2687	 	 	 	1807641	 	2005-07-13 17:20:03.0	Ventana	 	00:46:55:16	 	V2687-01
 	transect	Mediaster	 	2687	 	 	 	1811725	 	2005-07-13 20:22:39.0	Ventana	 	03:47:37:25	 	V2687-04
 	transect	Ceriantharia sp. 1	599.82	2680	 	36.778114	-122.223274	1804355	0.36	2005-06-27 17:54:11.0	Ventana	34.377	00:34:18:03	5.589	V2680-01
 	transect	Calliostoma platinum	400.29	2687	 	36.78902	-122.123886	1809514	1.17	2005-07-13 18:10:36.0	Ventana	34.241	01:36:56:12	7.35	V2687-02
 	transect	Phyllospadix	200.23	2696	 	36.805016	-122.12776	1813552	1.51	2005-08-01 17:59:08.0	Ventana	34.211	01:27:01:03	8.675	V2696-02
 	transect	Neptunea amianta	 	2669	http://search.mbari.org/ARCHIVE/frameGrabs/Ventana/images/2669/03_16_24_07.jpg	 	 	1737664	 	2005-05-25 13:55:36.0	Ventana	 	03:16:24:07	 	V2669-04
 	transect	Neptunea amianta	801.01	2674	 	36.75258	-122.20191	1799136	0.34	2005-06-08 17:38:31.0	Ventana	34.491	00:23:04:28	4.389	V2674-01
 	ascend	Poeobius meseres	1146.18	2682	 	36.69822	-122.05747	1722510	0.62	2005-07-08 19:55:08.0	Ventana	34.561	03:47:44:12	3.51	V2682-04
 	transect	Mediaster	 	2687	 	 	 	1808762	 	2005-07-13 17:28:56.0	Ventana	 	00:55:48:23	 	V2687-01
 	cruise	Appendicularia	348.22	2676	 	36.804646	-122.02895	1676621	1.26	2005-06-14 17:13:14.0	Ventana	34.233	00:57:18:18	7.599	V2676-01
 	descend	Appendicularia	386.41	2682	 	36.69841	-122.0599	1720683	0.92	2005-07-08 17:35:55.0	Ventana	34.26	01:29:26:03	6.907	V2682-02
 	ascend	Cydippida	203.38	2693	 	36.69093	-122.06266	1759172	1.76	2005-07-25 21:25:24.0	Ventana	34.225	03:49:56:03	8.907	V2693-04
 	ascend	Chaetognatha	303.49	2683	 	36.703358	-122.050644	1758082	1.32	2005-07-11 21:24:27.0	Ventana	34.234	04:57:17:09	7.513	V2683-05
 	transect	Mediaster	 	2687	 	 	 	1812800	 	2005-07-13 20:58:19.0	Ventana	 	04:22:49:12	 	V2687-05
 	transect	Chaetognatha	400.77	2681	 	36.697174	-122.0528	2493105	0.79	2005-07-07 17:47:00.0	Ventana	34.277	01:17:24:01	6.661	V2681-02HD
 	transect	Sebastolobus	999.01	2669	 	36.731403	-122.23636	1684728	0.44	2005-05-25 19:00:05.0	Ventana	34.52	01:22:05:00	3.94	V2669-02
 	ascend	Appendicularia	357.42	2681	 	36.699356	-122.055016	1718058	1.03	2005-07-07 20:51:56.307	Ventana	34.258	04:20:17:08	7.139	V2681-05
 	transect	Mesomyaria	802.82	2674	 	36.751854	-122.210014	1800978	0.36	2005-06-08 18:20:10.0	Ventana	34.49	01:04:15:16	4.32	V2674-02
 	transect	Stomphia	998.78	2669	 	36.73287	-122.25199	1737295	0.4	2005-05-25 20:44:52.0	Ventana	34.509	03:05:39:27	4.076	V2669-04
 	descend	Phialidium	556.68	2683	 	36.70176	-122.04915	1756961	0.45	2005-07-11 17:45:03.0	Ventana	34.338	01:29:09:04	6.063	V2683-02
 	transect	Stomphia	1000.29	2669	 	36.73095	-122.23369	1683930	0.45	2005-05-25 18:39:59.0	Ventana	34.522	01:01:59:19	3.912	V2669-02
 	transect	Stomphia	1000.36	2669	 	36.731045	-122.23968	1689195	0.41	2005-05-25 19:25:53.0	Ventana	34.511	01:47:51:05	4.062	V2669-02
 	ascend	Chaetognatha	264.46	2681	 	36.69895	-122.0563	1718750	1.42	2005-07-07 21:17:41.1	Ventana	34.228	04:45:59:28	7.94	V2681-05
 	descend	Nanomia	236.21	2681	 	36.69855	-122.05353	1713591	1.46	2005-07-07 17:15:38.733	Ventana	34.224	00:46:46:15	8.117	V2681-01
 	cruise	Lycodapus	1210.04	2683	 	36.706787	-122.04761	1757653	0.72	2005-07-11 20:13:17.0	Ventana	34.574	03:47:39:14	3.351	V2683-04
 	transect	Psolus squamatus	 	2687	 	 	 	1811018	 	2005-07-13 19:48:30.0	Ventana	 	03:13:31:11	 	V2687-04
 	transect	Xeneretmus	197.93	2696	 	36.803555	-122.1241	1813229	1.54	2005-08-01 17:23:25.0	Ventana	34.2	00:51:43:00	8.612	V2696-01
 	descend	ink	978.67	2681	 	36.694645	-122.050385	1716539	0.45	2005-07-07 19:19:30.267	Ventana	34.525	02:49:12:03	3.94	V2681-03
 	transect	Mesomyaria	1000.2	2669	 	36.731667	-122.24379	1733949	0.41	2005-05-25 19:48:51.0	Ventana	34.509	02:10:21:26	4.064	V2669-03
 	transect	molt	100.48	2681	 	36.69972	-122.05422	2489773	2.13	2005-07-07 16:50:15.0	Ventana	34.067	00:21:24:18	9.159	V2681-01HD
 	transect	Brisaster	1000.2	2669	 	36.73201	-122.2472	1735851	0.41	2005-05-25 20:13:23.0	Ventana	34.509	02:34:52:16	4.065	V2669-03
 	transect	Phyllospadix	800.65	2674	 	36.75258	-122.20239	1799196	0.34	2005-06-08 17:40:45.0	Ventana	34.481	00:25:18:14	4.407	V2674-01
 	transect	Ceriantharia sp. 1	599.67	2680	 	36.777607	-122.22262	1804295	0.36	2005-06-27 17:48:01.0	Ventana	34.378	00:28:08:15	5.587	V2680-01
 	ascend	Poeobius meseres	688.27	2681	 	36.69873	-122.05464	1717614	0.28	2005-07-07 20:21:58.2	Ventana	34.417	03:50:58:27	5.143	V2681-04
 	cruise	Chionoecetes tanneri	998.32	2679	 	36.68986	-122.1656	1824359	0.42	2005-06-16 17:32:21.0	Ventana	34.513	00:03:44:19	4.109	V2679-01
 	transect	Hormiphora	200.46	2681	 	36.69828	-122.05329	2490202	1.7	2005-07-07 17:05:44.0	Ventana	34.198	00:36:51:24	8.361	V2681-01HD
 	transect	Phyllospadix	202.88	2696	 	36.805256	-122.12819	1813658	1.47	2005-08-01 18:12:03.0	Ventana	34.215	01:39:55:00	8.598	V2696-02
 	cruise	Stylasterias	117.3	2688	 	36.813065	-122.01888	1679200	1.97	2005-07-14 19:28:29.0	Ventana	34.098	03:13:17:03	8.93	V2688-04
 	ascend	Prayidae	525.61	2681	 	36.698967	-122.05425	1717735	0.45	2005-07-07 20:33:23.5	Ventana	34.343	04:02:24:00	6.068	V2681-04
 	ascend	Solmaris	389.24	2681	 	36.69932	-122.05458	1717998	0.92	2005-07-07 20:48:43.59	Ventana	34.269	04:17:04:22	6.952	V2681-05
 	descend	Chuniphyes	844.31	2683	 	36.702866	-122.0484	1757224	0.33	2005-07-11 18:25:01.0	Ventana	34.482	02:09:04:13	4.408	V2683-02
 	ascend	Appendicularia	953.84	2681	 	36.697346	-122.05375	1716862	0.42	2005-07-07 19:40:25.567	Ventana	34.516	03:09:29:10	4.051	V2681-04
 	transect	Gastropoda sp.2	999.98	2669	 	36.731907	-122.24565	1735408	0.41	2005-05-25 20:01:21.0	Ventana	34.51	02:22:50:14	4.067	V2669-03
 	transect	Mesomyaria	799.3	2674	 	36.75155	-122.214195	1801347	0.35	2005-06-08 18:39:46.0	Ventana	34.489	01:23:49:20	4.335	V2674-02
 	transect	Mesomyaria	798.87	2674	 	36.751366	-122.21513	1801407	0.35	2005-06-08 18:44:37.0	Ventana	34.49	01:28:40:21	4.338	V2674-02
 	transect	Euphausia	200.36	2681	 	36.69831	-122.0534	2491217	1.68	2005-07-07 17:12:50.0	Ventana	34.2	00:43:57:07	8.337	V2681-01HD
 	ascend	Copepoda	866.43	2681	 	36.69845	-122.055504	1717351	0.34	2005-07-07 19:53:12.8	Ventana	34.499	03:22:15:24	4.311	V2681-04
 	ascend	Nanomia	258.17	2681	 	36.697838	-122.05522	1719562	 	2005-07-07 21:29:59.0	Ventana	 	05:14:02:14	 	V2681-05
 	transect	Ophiuroidea	999.9	2669	 	36.731754	-122.24432	1734272	0.4	2005-05-25 19:51:54.0	Ventana	34.509	02:13:23:27	4.083	V2669-03
 	descend	Chaetognatha	278.63	2683	 	36.701	-122.05024	1756472	1.36	2005-07-11 16:52:21.0	Ventana	34.232	00:40:00:18	7.809	V2683-01
 	transect	Funiculina	1000.48	2669	 	36.732166	-122.248474	1736220	0.41	2005-05-25 20:22:23.0	Ventana	34.51	02:43:51:17	4.059	V2669-03
 	transect	Mesomyaria	998.94	2669	 	36.732834	-122.25158	1737235	0.4	2005-05-25 20:42:45.0	Ventana	34.509	03:03:33:24	4.072	V2669-04
 	transect	Umbellula lindahli	599.58	2680	 	36.78333	-122.228745	1805370	0.35	2005-06-27 19:06:09.0	Ventana	34.379	01:45:13:12	5.587	V2680-02
 	transect	Phyllospadix	198.83	2696	 	36.803745	-122.124825	1813289	1.53	2005-08-01 17:31:24.0	Ventana	34.203	00:59:41:21	8.636	V2696-01
 	transect	cydippida	100.49	2681	 	36.69919	-122.05388	2489833	2.13	2005-07-07 16:51:30.0	Ventana	34.068	00:22:39:01	9.141	V2681-01HD
 	transect	Poeobius meseres	1001.03	2681	 	36.695213	-122.05115	2498587	0.49	2005-07-07 19:23:39.0	Ventana	34.535	02:53:19:17	3.835	V2681-03HD
 	transect	Mesomyaria	801.96	2674	 	36.751797	-122.21069	1801038	0.35	2005-06-08 18:22:58.0	Ventana	34.489	01:07:03:03	4.322	V2674-02
 	ascend	Appendicularia	376.82	2693	 	36.69578	-122.06063	1758789	1.2	2005-07-25 20:51:08.0	Ventana	34.233	03:15:41:22	7.166	V2693-04
 	transect	Psolus squamatus	 	2687	 	 	 	1811462	 	2005-07-13 20:13:44.0	Ventana	 	03:38:43:14	 	V2687-04
 	transect	Halipteris californica	598.65	2680	 	36.782146	-122.22724	1805107	0.35	2005-06-27 18:45:29.0	Ventana	34.38	01:24:33:27	5.577	V2680-02
 	descend	sinker	873.78	2682	 	36.698296	-122.05944	1721758	0.33	2005-07-08 18:49:43.0	Ventana	34.489	02:42:45:10	4.355	V2682-03
 	transect	Poeobius meseres	901.05	2681	 	36.696075	-122.052055	2498324	0.39	2005-07-07 19:10:42.0	Ventana	34.506	02:40:23:22	4.171	V2681-03HD
 	transect	Sebastolobus altivelis	800.73	2674	 	36.751045	-122.217995	1803543	0.35	2005-06-08 18:58:10.0	Ventana	34.485	01:42:12:27	4.34	V2674-02
 	transect	Corallimorphus pilatus	 	2687	 	 	 	1808702	 	2005-07-13 17:27:31.0	Ventana	 	00:54:24:06	 	V2687-01
 	transect	Psolus squamatus	399.84	2687	 	36.788048	-122.121544	1809145	1.13	2005-07-13 17:36:10.0	Ventana	34.242	01:02:32:10	7.271	V2687-02
 	transect	Acanthamunnopsis milleri	200.41	2681	 	36.698284	-122.05331	2490954	1.7	2005-07-07 17:10:11.0	Ventana	34.194	00:41:19:06	8.329	V2681-01HD
 	transect	Aegina	400.76	2681	 	36.69754	-122.05323	2493165	0.79	2005-07-07 17:48:33.0	Ventana	34.277	01:18:55:26	6.66	V2681-02HD
 	transect	Mediaster	 	2687	 	 	 	1812214	 	2005-07-13 20:29:17.0	Ventana	 	03:54:15:02	 	V2687-04
 	descend	Calycophorae	148.47	2683	 	36.70068	-122.05166	1756269	1.69	2005-07-11 16:25:13.0	Ventana	34.17	00:12:56:02	8.855	V2683-01
 	cruise	rockwall	150.92	2676	http://search.mbari.org/ARCHIVE/frameGrabs/Ventana/images/2676/03_09_58_04.jpg	36.803783	-122.04266	1677207	1.74	2005-06-14 19:31:17.0	Ventana	34.159	03:09:58:04	8.412	V2676-03
 	descend	Appendicularia	846.66	2681	 	36.69697	-122.05321	1716479	0.33	2005-07-07 19:04:24.667	Ventana	34.491	02:34:06:29	4.34	V2681-03
 	transect	Phyllospadix	199.93	2696	 	36.80464	-122.126976	1813492	1.51	2005-08-01 17:52:39.0	Ventana	34.211	01:20:32:06	8.67	V2696-02
 	descend	Aegina	625.05	2682	 	36.698624	-122.05983	1721269	0.29	2005-07-08 18:08:30.0	Ventana	34.397	02:01:35:27	5.369	V2682-03
 	transect	Mesomyaria	999.86	2669	 	36.73133	-122.238	1688322	0.43	2005-05-25 19:14:46.0	Ventana	34.518	01:36:44:14	3.959	V2669-02
 	transect	Lycenchelys camchatica	1000.2	2669	 	36.731174	-122.24041	1689255	0.41	2005-05-25 19:30:01.0	Ventana	34.51	01:51:59:01	4.06	V2669-02
 	ascend	Hastigerinella digitata	271.37	2681	 	36.699715	-122.05491	1718321	1.4	2005-07-07 21:04:04.3	Ventana	34.229	04:32:24:00	7.82	V2681-05
 	ascend	Tomopteridae	926.87	2682	 	36.697987	-122.058495	1723142	0.38	2005-07-08 20:12:26.0	Ventana	34.504	04:04:35:23	4.192	V2682-05
 	transect	Phyllospadix	997.82	2669	 	36.730625	-122.227135	1649096	0.45	2005-05-25 17:54:50.0	Ventana	34.522	00:17:18:19	3.911	V2669-01
 	ascend	Chaetognatha	323.88	2693	 	36.69171	-122.062	1759052	1.29	2005-07-25 21:17:46.0	Ventana	34.238	03:42:17:24	7.562	V2693-04
 	descend	Aegina	1009.24	2683	 	36.704224	-122.050186	1757390	0.44	2005-07-11 19:21:44.0	Ventana	34.521	03:02:05:29	3.989	V2683-03
 	transect	Allocentrotus fragilis	 	2687	 	 	 	1811281	 	2005-07-13 20:05:34.0	Ventana	 	03:30:33:21	 	V2687-04
 	ascend	Calycophorae	418.18	2681	 	36.699104	-122.054214	1717795	0.78	2005-07-07 20:38:40.2	Ventana	34.276	04:07:40:11	6.648	V2681-04
 	ascend	Cyclothone	370.98	2693	 	36.69636	-122.06075	1758668	1.2	2005-07-25 20:27:13.0	Ventana	34.231	03:06:46:10	7.163	V2693-03
 	descend	Copepoda	1007.05	2682	 	36.698315	-122.059235	1722021	0.44	2005-07-08 18:59:01.0	Ventana	34.523	02:52:03:02	3.969	V2682-03
 	descend	Salpida	505.08	2683	 	36.701523	-122.04918	1756841	0.68	2005-07-11 17:37:51.0	Ventana	34.306	01:21:56:19	6.462	V2683-02
 	transect	Porifera sp. 1	 	2687	 	 	 	1812417	 	2005-07-13 20:37:40.0	Ventana	 	04:02:37:27	 	V2687-04
 	descend	Appendicularia	426.79	2682	 	36.698177	-122.059784	1720743	0.69	2005-07-08 17:41:50.0	Ventana	34.287	01:35:21:15	6.474	V2682-02
 	descend	Chaetognatha	403.8	2683	 	36.701485	-122.04953	1756638	0.95	2005-07-11 17:02:56.0	Ventana	34.26	00:50:34:29	6.954	V2683-01
 	transect	Porifera sp. 1	 	2687	 	 	 	1807055	 	2005-07-13 16:56:44.0	Ventana	 	00:23:38:15	 	V2687-01
 	transect	Mediaster	 	2687	 	 	 	1810755	 	2005-07-13 19:31:54.0	Ventana	 	02:57:37:00	 	V2687-03
 	descend	Chuniphyes	761.16	2681	 	36.694893	-122.05056	1716276	0.3	2005-07-07 18:50:45.3	Ventana	34.452	02:20:28:13	4.751	V2681-03
 	ascend	Chuniphyes	735.33	2681	 	36.698727	-122.05547	1717554	0.26	2005-07-07 20:16:38.567	Ventana	34.442	03:45:40:03	4.86	V2681-04
 	transect	Mediaster	 	2687	 	 	 	1811845	 	2005-07-13 20:26:58.0	Ventana	 	03:51:56:15	 	V2687-04
 	transect	Mesomyaria	999.53	2669	 	36.73097	-122.23165	1683667	0.45	2005-05-25 18:28:22.0	Ventana	34.523	00:50:48:24	3.912	V2669-01
 	transect	Mesomyaria	998.45	2669	 	36.731064	-122.23035	1651292	0.45	2005-05-25 18:17:15.0	Ventana	34.522	00:39:41:29	3.91	V2669-01
 	ascend	Appendicularia	654.86	2683	 	36.705284	-122.04986	1757916	0.28	2005-07-11 21:08:52.0	Ventana	34.422	04:41:45:10	5.161	V2683-05
 	cruise	Pleuronectiformes	461.71	2676	 	36.802704	-122.02935	1676297	0.58	2005-06-14 16:35:18.0	Ventana	34.34	00:19:27:15	6.231	V2676-01
 	cruise	Metridium farcimen	94.51	2688	 	36.81472	-122.01828	1679463	1.95	2005-07-14 21:03:49.0	Ventana	34.097	04:48:02:27	8.933	V2688-05
 	descend	Copepoda	252.96	2682	 	36.699863	-122.060814	1719991	1.39	2005-07-08 16:23:33.0	Ventana	34.232	00:17:37:03	7.899	V2682-01
 	transect	Mesomyaria	999.34	2669	 	36.73049	-122.22873	1650923	0.45	2005-05-25 18:04:59.0	Ventana	34.522	00:27:27:07	3.906	V2669-01
 	transect	Laminariales	399.71	2687	http://search.mbari.org/ARCHIVE/frameGrabs/Ventana/images/2687/01_53_27_01.jpg	36.789352	-122.12492	1809634	1.15	2005-07-13 18:27:08.0	Ventana	34.24	01:53:27:01	7.314	V2687-02
 	transect	Ceriantharia sp. 2	997.39	2669	 	36.730614	-122.22792	1683344	0.45	2005-05-25 18:00:14.0	Ventana	34.521	00:22:42:09	3.907	V2669-01
 	transect	Mesomyaria	998.06	2669	 	36.731133	-122.23099	1683487	0.45	2005-05-25 18:22:22.0	Ventana	34.523	00:44:48:27	3.912	V2669-01
 	cruise	Pleuronectiformes	447.7	2688	 	36.80355	-122.01808	1677636	0.9	2005-07-14 17:37:34.0	Ventana	34.269	01:23:17:27	6.893	V2688-02
 	transect	Mesomyaria	999.78	2669	 	36.731342	-122.23792	1687570	0.44	2005-05-25 19:14:10.0	Ventana	34.52	01:36:09:07	3.94	V2669-02
 	transect	Mesomyaria	1000.63	2669	 	36.732075	-122.24781	1736160	0.4	2005-05-25 20:17:27.0	Ventana	34.508	02:38:57:10	4.086	V2669-03
 	descend	Calycophorae	191.07	2693	 	36.696075	-122.05817	1758285	1.81	2005-07-25 18:14:27.0	Ventana	34.184	00:54:57:10	8.892	V2693-01
 	transect	Mediaster	 	2687	 	 	 	1810958	 	2005-07-13 19:44:06.0	Ventana	 	03:09:07:15	 	V2687-04
 	descend	Calycophorae	542.77	2682	 	36.698616	-122.05976	1720886	0.36	2005-07-08 18:04:23.0	Ventana	34.368	01:57:52:22	5.737	V2682-02
 	ascend	sinker	815.66	2682	 	36.698654	-122.058815	1723262	0.32	2005-07-08 20:23:47.0	Ventana	34.471	04:15:56:24	4.527	V2682-05
 	ascend	Lobata	1182.67	2683	 	36.707333	-122.047935	1757713	0.71	2005-07-11 20:25:07.0	Ventana	34.571	03:59:29:04	3.369	V2683-04
 	transect	Lycenchelys camchatica	999.39	2669	 	36.730694	-122.22943	1651089	0.45	2005-05-25 18:09:51.0	Ventana	34.522	00:32:18:22	3.91	V2669-01
 	transect	Psolus squamatus	399.86	2687	http://search.mbari.org/ARCHIVE/frameGrabs/Ventana/images/2687/01_02_12_24.jpg	36.788044	-122.12152	1809085	1.14	2005-07-13 17:35:50.0	Ventana	34.237	01:02:12:24	7.276	V2687-02
 	transect	Psolus squamatus	 	2687	http://search.mbari.org/ARCHIVE/frameGrabs/Ventana/images/2687/03_40_03_15.jpg	 	 	1811522	 	2005-07-13 20:15:04.0	Ventana	 	03:40:03:15	 	V2687-04
 	descend	Physonectae	349.71	2682	 	36.6986	-122.06041	1720314	1.02	2005-07-08 17:18:43.0	Ventana	34.254	01:12:15:27	7.1	V2682-02
 	descend	Nanomia	222.42	2683	 	36.70099	-122.050735	1756412	1.7	2005-07-11 16:48:46.0	Ventana	34.195	00:36:27:05	8.253	V2683-01
 	cruise	Sebastolobus	1235.57	2683	 	36.70569	-122.04804	1757533	0.73	2005-07-11 19:49:04.0	Ventana	34.574	03:23:27:13	3.336	V2683-04
 	ascend	Nanomia	367.64	2693	 	36.694695	-122.06101	1758849	1.24	2005-07-25 21:00:03.0	Ventana	34.234	03:24:36:28	7.344	V2693-04
 	transect	Mesomyaria	998.96	2669	 	36.7314	-122.23647	1684788	0.44	2005-05-25 19:01:29.0	Ventana	34.52	01:23:28:28	3.941	V2669-02
 	transect	sinker	800.85	2681	 	36.696808	-122.05286	2498264	0.31	2005-07-07 19:01:49.0	Ventana	34.475	02:31:30:23	4.506	V2681-03HD
 	transect	Phyllospadix	598.46	2680	 	36.78171	-122.22683	1805047	0.36	2005-06-27 18:40:07.0	Ventana	34.379	01:19:13:04	5.596	V2680-02
 	transect	Appendicularia	400.8	2681	 	36.695965	-122.05139	2492939	0.79	2005-07-07 17:41:47.0	Ventana	34.277	01:12:10:24	6.662	V2681-02HD
 	transect	Psolus squamatus	 	2687	 	 	 	1811138	 	2005-07-13 19:56:15.0	Ventana	 	03:21:15:13	 	V2687-04
 	descend	Poeobius meseres	699.98	2682	 	36.698635	-122.05999	1721435	0.29	2005-07-08 18:14:34.0	Ventana	34.429	02:07:39:11	5.047	V2682-03
 	transect	Gastropoda	199.59	2696	 	36.80399	-122.12555	1813349	1.52	2005-08-01 17:38:09.0	Ventana	34.208	01:06:03:09	8.652	V2696-02
 	transect	Porifera	 	2687	 	 	 	1810206	 	2005-07-13 19:09:16.0	Ventana	 	02:35:01:10	 	V2687-03
 	transect	phialidium	500.59	2681	 	36.697224	-122.0529	2493488	0.44	2005-07-07 17:58:12.0	Ventana	34.346	01:28:36:03	6.026	V2681-02HD
 	transect	Mesomyaria	999.93	2669	 	36.731293	-122.23817	1688826	0.43	2005-05-25 19:15:59.0	Ventana	34.518	01:37:58:12	3.957	V2669-02
 	descend	Sergestes similis	295.27	2693	 	36.697765	-122.0611	1758465	1.33	2005-07-25 19:38:24.0	Ventana	34.239	02:17:59:26	7.763	V2693-03
 	transect	Phyllospadix	800.13	2674	 	36.75263	-122.200356	1774108	0.31	2005-06-08 17:30:06.0	Ventana	34.484	00:14:40:17	4.576	V2674-01
 	ascend	Appendicularia	526.81	2682	 	36.69831	-122.06295	1723646	0.44	2005-07-08 21:11:15.0	Ventana	34.345	05:02:57:04	6.033	V2682-06
 	ascend	Chaetognatha	257.2	2681	 	36.69796	-122.05499	1719239	1.46	2005-07-07 21:26:23.5	Ventana	34.223	04:54:42:25	7.984	V2681-05
 	transect	Diogenidae	600.18	2680	 	36.78438	-122.22976	1805611	0.36	2005-06-27 19:17:25.0	Ventana	34.376	01:56:28:13	5.608	V2680-02
 	transect	Neptunea amianta	598.48	2680	 	36.782776	-122.22799	1805227	0.35	2005-06-27 18:59:29.0	Ventana	34.382	01:38:33:15	5.566	V2680-02
 	transect	Gastropoda sp.2	1000.1	2669	 	36.73102	-122.23948	1694737	0.41	2005-05-25 19:23:59.0	Ventana	34.51	01:45:57:13	4.061	V2669-02
 	transect	Phyllospadix	999.21	2669	 	36.73109	-122.23502	1684239	0.45	2005-05-25 18:50:16.0	Ventana	34.522	01:12:16:25	3.92	V2669-02
 	transect	Mesomyaria	1000.39	2669	 	36.73156	-122.24289	1694557	0.4	2005-05-25 19:43:55.0	Ventana	34.505	02:05:51:29	4.096	V2669-02
 	ascend	Appendicularia	912.3	2681	 	36.697826	-122.05454	1717028	0.38	2005-07-07 19:46:56.533	Ventana	34.503	03:15:59:27	4.198	V2681-04
 	ascend	Appendicularia	591.19	2682	 	36.698788	-122.06076	1723465	0.4	2005-07-08 20:47:42.0	Ventana	34.37	04:39:48:28	5.67	V2682-05
 	transect	Mediaster	 	2687	 	 	 	1812597	 	2005-07-13 20:46:38.0	Ventana	 	04:11:09:05	 	V2687-05
 	transect	bathocyroe	500.59	2681	 	36.69776	-122.05353	2493308	0.44	2005-07-07 17:55:43.0	Ventana	34.346	01:26:05:14	6.021	V2681-02HD
 	cruise	LRJ Complex	542.94	2688	 	36.79804	-122.01974	1677433	0.61	2005-07-14 17:00:26.0	Ventana	34.33	00:46:44:20	6.244	V2688-01
 	ascend	Medusae	335.54	2681	 	36.699486	-122.05527	1718118	1.16	2005-07-07 20:54:39.5	Ventana	34.242	04:23:00:08	7.303	V2681-05
 	transect	Mesomyaria	800.36	2674	 	36.75123	-122.21615	1803400	0.35	2005-06-08 18:49:57.0	Ventana	34.488	01:34:00:25	4.337	V2674-02
 	transect	Sebastolobus altivelis	802.79	2674	 	36.752262	-122.20622	1799903	0.36	2005-06-08 18:00:53.0	Ventana	34.489	00:45:25:01	4.334	V2674-01
 	transect	Parastichopus leukothele	203.97	2696	 	36.805798	-122.129166	1813718	1.48	2005-08-01 18:19:38.0	Ventana	34.211	01:47:29:27	8.624	V2696-02
 	transect	Nanomia bijuga	200.41	2681	 	36.698296	-122.05335	2491097	1.69	2005-07-07 17:11:48.0	Ventana	34.198	00:42:55:01	8.335	V2681-01HD
 	cruise	Zoarcidae	104.38	2688	 	36.814613	-122.01658	1679260	1.97	2005-07-14 19:38:00.0	Ventana	34.088	03:22:47:26	8.891	V2688-04
 	descend	Appendicularia	809.95	2683	 	36.702667	-122.04872	1757164	0.36	2005-07-11 18:02:36.0	Ventana	34.474	01:46:40:23	4.544	V2683-02
 	transect	Phyllospadix	799.86	2674	 	36.75176	-122.21216	1801181	0.35	2005-06-08 18:28:45.0	Ventana	34.487	01:12:49:21	4.339	V2674-02
 	transect	Mediaster	 	2687	 	 	 	1807115	 	2005-07-13 17:00:16.0	Ventana	 	00:27:10:21	 	V2687-01
 	transect	Psolus squamatus	 	2687	 	 	 	1808965	 	2005-07-13 17:32:42.0	Ventana	 	00:59:34:13	 	V2687-01
 	transect	Allocentrotus fragilis	 	2687	 	 	 	1810815	 	2005-07-13 19:35:21.0	Ventana	 	03:01:04:15	 	V2687-03
 	transect	Caridea sp.1	601.42	2680	 	36.77688	-122.222145	1804152	0.36	2005-06-27 17:39:23.0	Ventana	34.38	00:19:31:03	5.577	V2680-01
 	transect	Radiolaria	50.45	2681	 	36.699814	-122.05428	2485509	2.95	2005-07-07 16:33:50.0	Ventana	33.926	00:05:00:23	9.615	V2681-01HD
 	transect	Phyllospadix	203.58	2696	 	36.806557	-122.13014	1813778	1.48	2005-08-01 18:29:26.0	Ventana	34.218	01:57:17:10	8.652	V2696-02
 	descend	Haliscera	359.09	2682	 	36.698498	-122.060104	1720457	1.0	2005-07-08 17:33:02.0	Ventana	34.258	01:26:33:14	7.075	V2682-02
 	descend	Copepoda	1183.69	2682	 	36.69832	-122.05809	1722307	0.66	2005-07-08 19:39:16.0	Ventana	34.57	03:31:52:25	3.416	V2682-04
 	transect	Nanomia bijuga	200.43	2681	 	36.69828	-122.05329	2490322	1.7	2005-07-07 17:06:54.0	Ventana	34.198	00:38:02:15	8.347	V2681-01HD
 	descend	Poeobius meseres	601.77	2681	 	36.695663	-122.05111	1715644	0.3	2005-07-07 18:08:25.033	Ventana	34.39	01:38:46:14	5.471	V2681-02
 	descend	Cyclothone	720.1	2683	 	36.702213	-122.04894	1757104	0.31	2005-07-11 17:55:46.0	Ventana	34.434	01:39:52:15	4.937	V2683-02
 	ascend	Chaetognatha	339.01	2693	 	36.692875	-122.06149	1758969	1.26	2005-07-25 21:12:26.0	Ventana	34.237	03:36:59:13	7.452	V2693-04
 	transect	Brisaster	1000.42	2669	 	36.73154	-122.24277	1694534	0.4	2005-05-25 19:43:18.0	Ventana	34.506	02:05:15:20	4.087	V2669-02
 	transect	Mesomyaria	798.98	2674	 	36.75174	-122.21246	1801204	0.35	2005-06-08 18:29:40.0	Ventana	34.49	01:13:44:24	4.33	V2674-02
 	ascend	Appendicularia	619.99	2682	 	36.698868	-122.059845	1723405	0.39	2005-07-08 20:37:49.0	Ventana	34.386	04:29:58:05	5.477	V2682-05
 	transect	Lycodes cortezianus	 	2687	 	 	 	1810063	 	2005-07-13 18:53:01.0	Ventana	 	02:18:46:15	 	V2687-03
 	transect	Euphausia	200.38	2681	 	36.69829	-122.053345	2491074	1.7	2005-07-07 17:11:32.0	Ventana	34.196	00:42:39:14	8.332	V2681-01HD
 	ascend	Copepoda	767.66	2681	 	36.698654	-122.056145	1717494	0.29	2005-07-07 20:09:59.833	Ventana	34.454	03:39:01:23	4.774	V2681-04
 	ascend	Nemertea	943.89	2682	 	36.697727	-122.05851	1723059	0.42	2005-07-08 20:10:41.0	Ventana	34.515	04:02:50:09	4.055	V2682-05
 	descend	Euphausiacea	189.4	2683	 	36.701035	-122.05107	1756352	1.79	2005-07-11 16:42:42.0	Ventana	34.18	00:30:22:09	8.44	V2683-01
 	transect	Poeobius meseres	500.6	2681	 	36.696056	-122.05157	2493631	0.43	2005-07-07 18:03:07.0	Ventana	34.347	01:33:30:22	6.006	V2681-02HD
 	transect	Chionoecetes tanneri	1000.25	2669	 	36.73091	-122.2327	1683810	0.45	2005-05-25 18:35:10.0	Ventana	34.522	00:57:36:04	3.918	V2669-01
 	transect	Mediaster	 	2687	 	 	 	1812274	 	2005-07-13 20:30:22.0	Ventana	 	03:55:20:03	 	V2687-04
 	transect	Mesomyaria	801.52	2674	 	36.752167	-122.207825	1800106	0.35	2005-06-08 18:08:41.0	Ventana	34.489	00:53:13:06	4.327	V2674-01
 	descend	Nanomia	157.73	2693	 	36.69628	-122.05774	1758202	1.97	2005-07-25 17:57:22.0	Ventana	34.117	00:37:53:12	8.964	V2693-01
 	transect	Mediaster	 	2687	 	 	 	1810469	 	2005-07-13 19:19:06.0	Ventana	 	02:44:50:13	 	V2687-03
 	transect	Stomphia	800.12	2674	 	36.751263	-122.21593	1803377	0.35	2005-06-08 18:48:58.0	Ventana	34.489	01:33:01:07	4.36	V2674-02
 	transect	Psolus squamatus	399.9	2687	 	36.78812	-122.121765	1809311	1.13	2005-07-13 17:39:15.0	Ventana	34.24	01:05:37:06	7.261	V2687-02
 	transect	Mediaster	 	2687	 	 	 	1812680	 	2005-07-13 20:51:48.0	Ventana	 	04:16:18:13	 	V2687-05
 	descend	Appendicularia	402.16	2681	 	36.69801	-122.05374	1715298	0.79	2005-07-07 17:50:37.033	Ventana	34.277	01:21:00:02	6.661	V2681-02
 	transect	Psolus squamatus	 	2687	 	 	 	1808619	 	2005-07-13 17:25:37.0	Ventana	 	00:52:29:28	 	V2687-01
 	transect	Mesomyaria	1000.23	2669	 	36.73163	-122.24329	1733806	0.41	2005-05-25 19:46:14.0	Ventana	34.51	02:07:45:07	4.065	V2669-03
 	transect	Nanomia bijuga	400.81	2681	 	36.69613	-122.05159	2492962	0.79	2005-07-07 17:42:33.0	Ventana	34.277	01:12:56:11	6.661	V2681-02HD
 	descend	Poralia rufescens	1228.82	2683	 	36.706715	-122.04802	1757510	0.73	2005-07-11 19:42:36.0	Ventana	34.574	03:17:00:18	3.342	V2683-04
 	cruise	Sebastolobus	518.09	2688	 	36.80001	-122.018974	1677493	0.66	2005-07-14 17:09:40.0	Ventana	34.312	00:55:57:26	6.375	V2688-01
 	transect	Rathbunaster californicus	199.42	2696	 	36.80408	-122.125755	1813372	1.52	2005-08-01 17:40:25.0	Ventana	34.208	01:08:18:11	8.67	V2696-02
 	transect	Sergestes similis	300.42	2681	 	36.696526	-122.05212	2492533	1.23	2005-07-07 17:26:34.0	Ventana	34.233	00:57:40:26	7.399	V2681-01HD
 	transect	Sebastolobus altivelis	799.96	2674	 	36.752514	-122.20338	1799316	0.35	2005-06-08 17:45:25.0	Ventana	34.484	00:29:58:23	4.372	V2674-01
 	transect	Phyllospadix	 	2687	 	 	 	1811161	 	2005-07-13 19:58:02.0	Ventana	 	03:23:02:01	 	V2687-04
 	transect	Phyllospadix	998.16	2669	 	36.730526	-122.22833	1649359	0.45	2005-05-25 18:02:38.0	Ventana	34.523	00:25:06:09	3.907	V2669-01
 	ascend	Nanomia	200.3	2682	 	36.696526	-122.060745	1723766	1.97	2005-07-08 21:31:15.0	Ventana	34.191	05:22:54:07	8.266	V2682-06
 	transect	Ceriantharia sp. 2	998.31	2669	 	36.733	-122.252396	1737438	0.4	2005-05-25 20:47:44.0	Ventana	34.509	03:08:32:11	4.076	V2669-04
 	transect	doliolenetta	700.63	2681	 	36.69692	-122.05278	2497692	0.29	2005-07-07 18:40:08.0	Ventana	34.436	02:09:51:02	4.928	V2681-03HD
 	cruise	Eptatretus	1015.9	2689	 	36.77152	-122.082954	1669717	0.57	2005-07-18 17:06:25.0	Ventana	34.554	00:29:28:08	3.652	V2689-01
 	transect	Ceriantharia sp. 1	599.21	2680	 	36.779114	-122.22425	1804475	0.36	2005-06-27 18:06:34.0	Ventana	34.378	00:46:40:03	5.599	V2680-01
 	transect	Euphausia	200.45	2681	 	36.69828	-122.0533	2490751	1.73	2005-07-07 17:08:39.0	Ventana	34.193	00:39:47:23	8.321	V2681-01HD
 	transect	Ceriantharia sp. 2	999.71	2669	 	36.731003	-122.23248	1683750	0.45	2005-05-25 18:33:21.0	Ventana	34.522	00:55:47:12	3.911	V2669-01
 	transect	Eptatretus stoutii	805.02	2674	 	36.75069	-122.221245	1803723	0.34	2005-06-08 19:13:25.0	Ventana	34.486	01:57:26:16	4.413	V2674-02
 	transect	Calycophorae	600.59	2681	 	36.69624	-122.051834	2493714	0.3	2005-07-07 18:21:07.0	Ventana	34.387	01:51:29:08	5.491	V2681-02HD
 	transect	hastigerinella-digitata	300.45	2681	 	36.69784	-122.053246	2492127	1.23	2005-07-07 17:22:03.0	Ventana	34.233	00:53:09:22	7.4	V2681-01HD
 	transect	Mesomyaria	800.82	2674	 	36.751114	-122.21691	1803460	0.35	2005-06-08 18:53:03.0	Ventana	34.496	01:37:05:28	4.333	V2674-02
 	transect	Munneurycope murrayi	700.64	2681	 	36.696133	-122.05203	2497775	0.28	2005-07-07 18:43:19.0	Ventana	34.436	02:13:02:08	4.946	V2681-03HD
 	cruise	Pleuronectiformes	492.77	2688	 	36.80149	-122.01853	1677553	0.77	2005-07-14 17:24:26.0	Ventana	34.291	01:10:10:17	6.626	V2688-02
 	descend	Appendicularia	400.33	2681	 	36.695644	-122.05104	1715238	0.79	2005-07-07 17:38:01.467	Ventana	34.278	01:08:24:23	6.674	V2681-02
 	transect	molt	100.51	2681	 	36.69983	-122.05429	2489653	2.13	2005-07-07 16:47:12.0	Ventana	34.069	00:18:22:13	9.147	V2681-01HD
 	transect	Ceriantharia sp. 1	602.56	2680	 	36.78781	-122.231995	1805934	0.36	2005-06-27 19:53:38.0	Ventana	34.379	02:32:16:01	5.589	V2680-03
 	ascend	Copepoda	902.29	2681	 	36.697983	-122.05474	1717148	0.37	2005-07-07 19:48:33.333	Ventana	34.503	03:17:36:03	4.203	V2681-04
 	transect	Mesomyaria	800.57	2674	 	36.752026	-122.20905	1800858	0.35	2005-06-08 18:14:47.0	Ventana	34.488	00:59:19:01	4.335	V2674-01
 	transect	Phyllospadix	801.83	2674	 	36.752266	-122.2071	1800023	0.36	2005-06-08 18:05:16.0	Ventana	34.492	00:49:48:03	4.356	V2674-01
 	transect	Mediaster	 	2687	 	 	 	1807032	 	2005-07-13 16:55:25.0	Ventana	 	00:22:20:05	 	V2687-01
 	transect	Psolus squamatus	 	2687	 	 	 	1808882	 	2005-07-13 17:31:08.0	Ventana	 	00:58:00:21	 	V2687-01
 	cruise	Florometra	249.72	2676	 	36.80569	-122.02948	1676741	1.56	2005-06-14 17:37:23.0	Ventana	34.206	01:17:07:09	8.045	V2676-02
 	ascend	Nanomia	258.17	2681	 	36.697838	-122.05522	1719359	 	2005-07-07 21:29:59.0	Ventana	 	05:02:25:29	 	V2681-05
 	transect	Ceriantharia sp. 1	602.44	2680	 	36.790394	-122.23273	1806769	0.35	2005-06-27 20:19:07.0	Ventana	34.379	02:57:43:13	5.588	V2680-03
 	transect	Rathbunaster californicus	203.48	2696	 	36.807453	-122.13111	1813838	1.46	2005-08-01 18:41:51.0	Ventana	34.22	02:08:56:12	8.62	V2696-03
 	transect	Mesomyaria	998.97	2669	 	36.73118	-122.23434	1684096	0.45	2005-05-25 18:43:53.0	Ventana	34.521	01:05:53:18	3.916	V2669-02
 	ascend	Aegina	789.48	2681	 	36.698963	-122.056564	1717434	0.3	2005-07-07 20:02:57.733	Ventana	34.459	03:32:00:03	4.688	V2681-04
 	transect	Neptunea amianta	799.83	2674	 	36.752537	-122.20387	1799399	0.35	2005-06-08 17:48:15.0	Ventana	34.488	00:32:47:23	4.37	V2674-01
 	transect	Mesomyaria	999.62	2669	 	36.73136	-122.23762	1687510	0.44	2005-05-25 19:11:31.0	Ventana	34.52	01:33:30:04	3.949	V2669-02
 	transect	Phyllospadix	799.91	2674	 	36.752647	-122.201	1774168	0.33	2005-06-08 17:33:39.0	Ventana	34.474	00:18:12:25	4.439	V2674-01
 	transect	Mesomyaria	800.21	2674	 	36.75209	-122.20857	1800775	0.35	2005-06-08 18:12:21.0	Ventana	34.488	00:56:53:06	4.326	V2674-01
 	transect	Phyllospadix	196.92	2696	 	36.80265	-122.12169	1813026	1.53	2005-08-01 16:56:12.0	Ventana	34.204	00:24:30:26	8.579	V2696-01
 	transect	Dosidicus gigas	400.8	2681	 	36.69574	-122.051125	2492879	0.79	2005-07-07 17:40:32.0	Ventana	34.277	01:10:56:00	6.668	V2681-02HD
 	transect	Ophiuroidea	998.97	2669	 	36.731377	-122.23608	1684562	0.44	2005-05-25 18:58:08.0	Ventana	34.522	01:20:07:20	3.94	V2669-02
 	transect	Caecosagitta macrocephala	800.98	2681	 	36.695026	-122.05075	2498038	0.32	2005-07-07 18:53:24.0	Ventana	34.477	02:23:06:14	4.482	V2681-03HD
 	transect	molt	100.53	2681	 	36.69983	-122.05429	2489570	2.13	2005-07-07 16:45:08.0	Ventana	34.068	00:16:17:28	9.15	V2681-01HD
 	cruise	Sebastolobus	322.74	2688	 	36.80838	-122.02024	1677839	1.28	2005-07-14 18:11:03.0	Ventana	34.222	01:56:44:25	7.659	V2688-02
 	transect	Brisaster	800.28	2674	 	36.752426	-122.204735	1799662	0.35	2005-06-08 17:53:25.0	Ventana	34.487	00:37:57:15	4.356	V2674-01
 	transect	Neptunea amianta	799.51	2674	 	36.752453	-122.205215	1799760	0.35	2005-06-08 17:56:05.0	Ventana	34.49	00:40:37:17	4.357	V2674-01
 	ascend	Appendicularia	728.07	2683	 	36.706078	-122.048645	1757856	0.3	2005-07-11 21:04:29.0	Ventana	34.454	04:37:22:07	4.724	V2683-05
 	transect	Mediaster	 	2687	 	 	 	1812740	 	2005-07-13 20:55:35.0	Ventana	 	04:20:05:00	 	V2687-05
 	ascend	Nanomia	 	2683	 	 	 	1758142	 	2005-07-11 14:31:41.0	Ventana	 	05:04:32:05	 	V2683-05
 	transect	Asteronyx loveni	602.16	2680	 	36.791058	-122.23289	1806829	0.35	2005-06-27 20:24:48.0	Ventana	34.379	03:03:24:23	5.586	V2680-03
 	transect	Mesomyaria	1000.88	2669	 	36.732292	-122.24918	1736280	0.41	2005-05-25 20:27:05.0	Ventana	34.51	02:48:32:27	4.069	V2669-03
 	transect	Brisaster	 	2669	 	 	 	1737581	 	2005-05-25 13:52:14.0	Ventana	 	03:13:02:06	 	V2669-04
 	transect	Allocentrotus fragilis	399.86	2687	 	36.788113	-122.12162	1809228	1.13	2005-07-13 17:37:21.0	Ventana	34.243	01:03:43:12	7.255	V2687-02
 	ascend	sinker	466.06	2682	 	36.69834	-122.063065	1723706	0.59	2005-07-08 21:17:29.0	Ventana	34.306	05:09:10:24	6.323	V2682-06
 	transect	Ceriantharia sp. 1	599.85	2680	 	36.77866	-122.22387	1804415	0.36	2005-06-27 18:01:56.0	Ventana	34.378	00:42:02:20	5.587	V2680-01
 	transect	cydippida	200.39	2681	 	36.698303	-122.053375	2491157	1.68	2005-07-07 17:12:22.0	Ventana	34.198	00:43:29:00	8.337	V2681-01HD
 	transect	Aegina	700.65	2681	 	36.697655	-122.05352	2497632	0.29	2005-07-07 18:36:59.0	Ventana	34.432	02:06:41:29	4.981	V2681-03HD
 	transect	Appendicularia	500.55	2681	 	36.696808	-122.0524	2493571	0.44	2005-07-07 17:59:54.0	Ventana	34.346	01:30:17:28	6.019	V2681-02HD
 	cruise	Chaetognatha	1221.89	2683	 	36.706184	-122.0477	1757593	0.72	2005-07-11 20:01:38.0	Ventana	34.575	03:36:01:09	3.344	V2683-04
 	transect	Psolus squamatus	 	2687	 	 	 	1811078	 	2005-07-13 19:51:52.0	Ventana	 	03:16:53:16	 	V2687-04
 	transect	Mesomyaria	1000.06	2669	 	36.731697	-122.24367	1733866	0.41	2005-05-25 19:48:05.0	Ventana	34.508	02:09:36:16	4.069	V2669-03
 	transect	Phyllospadix	798.25	2674	 	36.751686	-122.21334	1801264	0.35	2005-06-08 18:34:06.0	Ventana	34.491	01:18:09:28	4.343	V2674-02
 	transect	molt	100.5	2681	 	36.698982	-122.05375	2489856	2.12	2005-07-07 16:51:58.0	Ventana	34.07	00:23:07:04	9.148	V2681-01HD
 	transect	Phyllospadix	800.55	2674	 	36.75196	-122.20953	1800918	0.36	2005-06-08 18:17:34.0	Ventana	34.49	01:01:39:00	4.325	V2674-02
 	transect	molt	100.56	2681	 	36.69983	-122.05429	2489510	2.12	2005-07-07 16:43:15.0	Ventana	34.068	00:14:24:29	9.15	V2681-01HD
 	transect	Ceriantharia sp. 1	801.05	2674	 	36.752132	-122.20816	1800715	0.35	2005-06-08 18:10:24.0	Ventana	34.489	00:54:55:15	4.328	V2674-01
 	ascend	Poeobius meseres	689.76	2682	 	36.698895	-122.05943	1723345	0.29	2005-07-08 20:32:52.0	Ventana	34.412	04:25:00:14	5.117	V2682-05
 	descend	Appendicularia	633.5	2683	 	36.702034	-122.04896	1757044	0.37	2005-07-11 17:51:17.0	Ventana	34.381	01:35:22:11	5.566	V2683-02
 	ascend	Nanomia	162.84	2693	 	36.690674	-122.06298	1759255	1.95	2005-07-25 21:30:50.0	Ventana	34.119	03:55:20:26	8.93	V2693-04
 	transect	Phyllospadix	1000.02	2669	 	36.731796	-122.24463	1734415	0.4	2005-05-25 19:54:15.0	Ventana	34.51	02:15:45:10	4.084	V2669-03
 	transect	Neptunea amianta	802.89	2674	 	36.750843	-122.22003	1803663	0.34	2005-06-08 19:06:52.0	Ventana	34.488	01:50:54:18	4.38	V2674-02
 	transect	Psolus squamatus	 	2687	 	 	 	1808679	 	2005-07-13 17:26:56.0	Ventana	 	00:53:48:10	 	V2687-01
 	ascend	Copepoda	1046.77	2682	 	36.69791	-122.05767	1722796	0.49	2005-07-08 20:02:25.0	Ventana	34.535	03:54:59:27	3.835	V2682-04
 	descend	Appendicularia	217.16	2693	 	36.696136	-122.05819	1758345	1.69	2005-07-25 18:28:07.0	Ventana	34.195	01:08:12:11	8.607	V2693-02
 	descend	Copepoda	300.56	2683	 	36.70108	-122.05015	1756495	1.25	2005-07-11 16:53:45.0	Ventana	34.243	00:41:26:21	7.701	V2683-01
 	descend	Myctophidae	 	2693	 	 	 	1759458	 	2005-07-25 16:46:20.0	Ventana	 	00:24:54:27	 	V2693-01
 	transect	Chionoecetes tanneri	600.37	2680	 	36.77704	-122.22222	1804212	0.36	2005-06-27 17:41:02.0	Ventana	34.38	00:21:10:03	5.58	V2680-01
 	transect	Porifera sp. 1	 	2687	 	 	 	1810875	 	2005-07-13 19:38:35.0	Ventana	 	03:04:18:09	 	V2687-03
 	transect	Chionoecetes tanneri	802.53	2674	 	36.75232	-122.20571	1799820	0.36	2005-06-08 17:58:24.0	Ventana	34.489	00:42:56:03	4.333	V2674-01
 	transect	Appendicularia	400.72	2681	 	36.697895	-122.053604	2493225	0.79	2005-07-07 17:49:59.0	Ventana	34.279	01:20:22:12	6.66	V2681-02HD
 	transect	Phyllospadix	802.2	2674	 	36.752243	-122.206604	1799963	0.37	2005-06-08 18:03:02.0	Ventana	34.489	00:47:34:13	4.322	V2674-01
 	cruise	lasers	 	2680	 	 	 	1804069	 	2005-06-27 16:58:05.0	Ventana	 	00:13:21:15	 	V2680-01
 	transect	Sebastolobus altivelis	800.33	2674	 	36.751736	-122.21158	1801121	0.35	2005-06-08 18:26:19.0	Ventana	34.486	01:10:23:21	4.34	V2674-02
 	transect	Calycophorae	700.63	2681	 	36.695984	-122.05185	2497835	0.29	2005-07-07 18:44:00.0	Ventana	34.436	02:13:42:16	4.934	V2681-03HD
 	descend	Bathocyroe	810.39	2682	 	36.698338	-122.0596	1721698	0.31	2005-07-08 18:40:10.0	Ventana	34.475	02:33:13:09	4.52	V2682-03
 	ascend	sinker	1094.9	2683	 	36.70779	-122.04909	1757796	0.58	2005-07-11 20:43:47.0	Ventana	34.546	04:18:07:27	3.687	V2683-04
 	transect	Mediaster	 	2687	 	 	 	1812537	 	2005-07-13 20:44:31.0	Ventana	 	04:09:02:07	 	V2687-05
 	transect	Calycophorae	901.03	2681	 	36.695915	-122.05187	2498384	0.39	2005-07-07 19:11:26.0	Ventana	34.505	02:41:06:01	4.171	V2681-03HD
 	transect	Mesomyaria	999.92	2669	 	36.73129	-122.2381	1688360	0.43	2005-05-25 19:15:26.0	Ventana	34.518	01:37:25:08	3.959	V2669-02
 	descend	Poeobius meseres	1186.91	2682	 	36.69855	-122.058334	1722247	0.68	2005-07-08 19:34:26.0	Ventana	34.571	03:27:01:25	3.381	V2682-04
 	transect	Euphausia	200.48	2681	 	36.69828	-122.05329	2490608	1.72	2005-07-07 17:07:49.0	Ventana	34.195	00:38:55:26	8.334	V2681-01HD
 	descend	Nanomia	445.7	2683	 	36.701546	-122.0494	1756698	0.82	2005-07-11 17:08:34.0	Ventana	34.276	00:56:13:25	6.735	V2683-01
 	transect	Ophiuroidea	999.93	2669	 	36.731422	-122.23678	1686901	0.44	2005-05-25 19:04:07.0	Ventana	34.519	01:26:06:22	3.946	V2669-02
 	transect	Sebastolobus	 	2687	 	 	 	1808822	 	2005-07-13 17:30:13.0	Ventana	 	00:57:05:16	 	V2687-01
 	transect	Phyllospadix	999.98	2669	 	36.731087	-122.23914	1689112	0.43	2005-05-25 19:22:10.0	Ventana	34.515	01:44:08:14	3.978	V2669-02
 	transect	Glyptocephalus zachirus	 	2687	 	 	 	1811221	 	2005-07-13 20:04:10.0	Ventana	 	03:29:10:05	 	V2687-04
 	cruise	LRJ Complex	611.7	2688	 	36.795696	-122.01953	1677350	0.45	2005-07-14 16:36:24.0	Ventana	34.392	00:22:43:22	5.497	V2688-01
 	ascend	Crustacea	590.4	2682	 	36.698456	-122.0622	1723563	0.4	2005-07-08 21:04:49.0	Ventana	34.367	04:56:55:09	5.721	V2682-05
 	descend	Cyclothone	890.73	2683	 	36.703236	-122.04833	1757247	0.36	2005-07-11 18:31:21.0	Ventana	34.493	02:11:44:25	4.284	V2683-03
 	transect	Psolus squamatus	 	2687	 	 	 	1812334	 	2005-07-13 20:32:33.0	Ventana	 	03:57:31:15	 	V2687-04
 	transect	Mediaster	 	2687	 	 	 	1806972	 	2005-07-13 16:51:37.0	Ventana	 	00:18:31:18	 	V2687-01
 	transect	Rathbunaster californicus	201.84	2696	 	36.805256	-122.12819	1813635	1.5	2005-08-01 18:08:44.0	Ventana	34.211	01:36:36:00	8.665	V2696-02
 	transect	Euphausia	200.41	2681	 	36.698288	-122.05332	2491014	1.71	2005-07-07 17:10:48.0	Ventana	34.192	00:41:56:06	8.325	V2681-01HD
 	transect	Mesomyaria	999.72	2669	 	36.73134	-122.235954	1684502	0.44	2005-05-25 18:57:14.0	Ventana	34.521	01:19:13:27	3.934	V2669-02
 	descend	Nanomia	282.01	2682	 	36.699722	-122.06085	1720051	1.32	2005-07-08 16:34:26.0	Ventana	34.227	00:28:29:28	7.646	V2682-01
 	cruise	Sebastes	258.4	2688	 	36.809174	-122.020355	1677899	1.51	2005-07-14 18:28:18.0	Ventana	34.196	02:13:34:18	8.166	V2688-03
 	transect	Stomphia	399.69	2687	 	36.78924	-122.12452	1809574	1.17	2005-07-13 18:20:14.0	Ventana	34.239	01:46:33:19	7.346	V2687-02
 	transect	Phyllospadix	1000.18	2669	 	36.731396	-122.24178	1689864	0.4	2005-05-25 19:38:22.0	Ventana	34.508	02:00:19:16	4.076	V2669-02
 	transect	Ceriantharia sp. 2	1000.43	2669	 	36.73147	-122.24223	1694474	0.4	2005-05-25 19:40:39.0	Ventana	34.509	02:02:36:10	4.067	V2669-02
 	ascend	Leuroglossus stilbius	239.42	2693	 	36.6913	-122.06242	1759112	1.5	2005-07-25 21:22:43.0	Ventana	34.235	03:47:15:17	8.487	V2693-04
 	transect	Psolus squamatus	399.9	2687	 	36.788147	-122.12186	1809371	1.15	2005-07-13 17:40:19.0	Ventana	34.238	01:06:41:18	7.314	V2687-02
 	transect	molt	50.43	2681	 	36.69983	-122.05429	2485667	2.99	2005-07-07 16:37:11.0	Ventana	33.914	00:08:20:27	9.632	V2681-01HD
 	transect	Mesomyaria	1000.22	2669	 	36.73094	-122.23376	1683953	0.45	2005-05-25 18:40:18.0	Ventana	34.523	01:02:19:08	3.911	V2669-02
 	starttransect	physical object	600.58	2680	 	36.78635	-122.231	1805874	0.36	2005-06-27 19:37:38.0	Ventana	34.377	02:16:16:24	5.6	V2680-03
 	transect	Actiniaria sp. 1	999.66	2669	 	36.73142	-122.23708	1687450	0.44	2005-05-25 19:07:18.0	Ventana	34.521	01:29:17:24	3.946	V2669-02
 	transect	Gastropoda sp.2	1000.44	2669	 	36.7312	-122.24087	1689315	0.41	2005-05-25 19:32:44.0	Ventana	34.511	01:54:41:17	4.056	V2669-02
 	ascend	Salpida	345.53	2693	 	36.693783	-122.06114	1758909	1.25	2005-07-25 21:05:28.0	Ventana	34.236	03:30:01:13	7.394	V2693-04
 	transect	Psolus squamatus	 	2687	 	 	 	1809025	 	2005-07-13 17:33:55.0	Ventana	 	01:00:47:14	 	V2687-01
 	transect	Xeneretmus	 	2687	 	 	 	1811582	 	2005-07-13 20:16:23.0	Ventana	 	03:41:22:02	 	V2687-04
 	transect	Nanomia bijuga	200.42	2681	 	36.69828	-122.0533	2490811	1.72	2005-07-07 17:09:01.0	Ventana	34.193	00:40:09:10	8.323	V2681-01HD
 	descend	Copepoda	653.22	2682	 	36.698643	-122.05994	1721352	0.28	2005-07-08 18:10:25.0	Ventana	34.409	02:03:29:04	5.229	V2682-03
 	transect	Neptunea amianta	800.77	2674	 	36.752514	-122.20287	1799256	0.35	2005-06-08 17:42:55.0	Ventana	34.486	00:27:28:26	4.376	V2674-01
 	transect	Porifera sp. 1	 	2687	 	 	 	1807175	 	2005-07-13 17:02:47.0	Ventana	 	00:29:41:15	 	V2687-01
 	descend	Solmaris	523.28	2683	 	36.70146	-122.04913	1756901	0.58	2005-07-11 17:41:40.0	Ventana	34.32	01:25:45:23	6.285	V2683-02
 	descend	Bathocyroe	478.03	2682	 	36.69857	-122.05972	1720803	0.52	2005-07-08 17:57:19.0	Ventana	34.327	01:50:47:28	6.186	V2682-02
 	ascend	Pleurobrachia	258.17	2681	 	36.697838	-122.05522	1719502	 	2005-07-07 21:29:59.0	Ventana	 	05:08:50:08	 	V2681-05
 	transect	molt	100.51	2681	 	36.699825	-122.05429	2489713	2.13	2005-07-07 16:48:29.0	Ventana	34.067	00:19:38:10	9.151	V2681-01HD
 	cruise	Mysidae	433.29	2688	 	36.805195	-122.01896	1677696	0.92	2005-07-14 17:45:09.0	Ventana	34.267	01:30:52:10	6.927	V2688-02
 	ascend	object	84.73	2688	 	36.812897	-122.02155	1679546	1.95	2005-07-14 21:35:24.0	Ventana	34.103	05:19:36:01	8.891	V2688-05
 	descend	Aegina	1086.01	2683	 	36.705112	-122.04891	1757450	0.53	2005-07-11 19:28:12.0	Ventana	34.536	03:08:32:05	3.779	V2683-03
 	transect	Phyllospadix	997.41	2669	 	36.73066	-122.22751	1649156	0.45	2005-05-25 17:57:17.0	Ventana	34.521	00:19:45:13	3.909	V2669-01
 	cruise	mud	197.29	2696	 	36.802193	-122.12174	1812883	1.54	2005-08-01 16:39:47.0	Ventana	34.202	00:08:07:02	8.578	V2696-01
 	transect	Nanomia bijuga	400.75	2681	 	36.69654	-122.05206	2493022	0.79	2005-07-07 17:44:20.0	Ventana	34.276	01:14:44:02	6.645	V2681-02HD
 	transect	Psolus squamatus	 	2687	 	 	 	1810123	 	2005-07-13 18:58:42.0	Ventana	 	02:24:27:21	 	V2687-03
 	transect	Phyllospadix	199.68	2696	 	36.804344	-122.12626	1813432	1.52	2005-08-01 17:45:47.0	Ventana	34.208	01:13:40:20	8.66	V2696-02
 	transect	Appendicularia	300.42	2681	 	36.696796	-122.05235	2492473	1.23	2005-07-07 17:25:36.0	Ventana	34.234	00:56:43:13	7.391	V2681-01HD
 	cruise	Actiniaria	103.6	2676	 	36.80716	-122.040184	1677147	1.9	2005-06-14 19:10:55.0	Ventana	34.16	02:49:40:08	8.424	V2676-03
 	descend	Copepoda	700.47	2681	 	36.695038	-122.05072	1716193	0.28	2005-07-07 18:48:32.693	Ventana	34.435	02:18:15:29	4.984	V2681-03
 	transect	Chaetognatha	800.92	2681	 	36.695633	-122.05154	2498181	0.32	2005-07-07 18:56:43.0	Ventana	34.475	02:26:25:22	4.494	V2681-03HD
 	ascend	Chaetognatha	473.93	2683	 	36.704327	-122.05057	1757999	0.72	2005-07-11 21:17:19.0	Ventana	34.296	04:50:10:25	6.569	V2683-05
 	transect	Porifera sp. 1	 	2687	 	 	 	1810672	 	2005-07-13 19:27:25.0	Ventana	 	02:53:08:09	 	V2687-03
 	cruise	Metridium farcimen	90.27	2688	 	36.816425	-122.0161	1679362	2.01	2005-07-14 20:13:37.0	Ventana	34.087	03:58:20:25	8.921	V2688-04
 	descend	Appendicularia	280.86	2693	 	36.697945	-122.06137	1758428	1.41	2005-07-25 19:35:55.0	Ventana	34.235	02:15:31:13	8.009	V2693-03
 	ascend	Aegina	880.72	2681	 	36.698265	-122.055214	1717329	0.36	2005-07-07 19:51:21.4	Ventana	34.503	03:20:24:00	4.253	V2681-04
 	stationary	physical object	999.5	2669	 	36.732677	-122.25119	1737180	0.41	2005-05-25 20:40:06.0	Ventana	34.508	03:00:55:10	4.071	V2669-04
 	ascend	Appendicularia	375.53	2681	 	36.699356	-122.05479	1718020	0.95	2005-07-07 20:50:11.8	Ventana	34.27	04:18:32:11	7.021	V2681-05
 	transect	molt	100.56	2681	 	36.69983	-122.05429	2489520	2.13	2005-07-07 16:43:39.0	Ventana	34.068	00:14:48:05	9.147	V2681-01HD
 	transect	Phyllospadix	800.32	2674	 	36.752563	-122.20224	1799174	0.33	2005-06-08 17:39:46.0	Ventana	34.478	00:24:19:24	4.435	V2674-01
 	cruise	Sebastolobus	999.66	2669	http://search.mbari.org/ARCHIVE/frameGrabs/Ventana/images/2669/01_33_40_16.jpg	36.731365	-122.23764	20003792	0.44	2005-05-25 19:11:42.0	Ventana	34.519	01:33:40:16	3.949	V2669-02
 	cruise	Anoplopoma fimbria	452.53	2688	 	36.803356	-122.01808	1677627	0.9	2005-07-14 17:35:02.667	Ventana	34.27	01:20:46:10	6.886	V2688-02
 	transect	Rathbunaster californicus	203.25	2696	 	36.80671	-122.1303	1813805	1.47	2005-08-01 18:33:44.0	Ventana	34.215	02:01:34:25	8.616	V2696-02
 	transect	Psolus squamatus	 	2687	 	 	 	1808938	 	2005-07-13 17:32:24.0	Ventana	 	00:59:15:29	 	V2687-01
 	transect	Psolus squamatus	 	2687	 	 	 	1809967	 	2005-07-13 18:49:01.0	Ventana	 	02:14:47:19	 	V2687-03
 	transect	Brisaster	999.97	2669	 	36.731052	-122.23923	1689126	0.43	2005-05-25 19:22:37.0	Ventana	34.517	01:44:35:17	3.976	V2669-02
 	ascend	Appendicularia	1171.41	2683	 	36.70707	-122.04808	1757722	0.7	2005-07-11 20:27:24.0	Ventana	34.569	04:01:44:15	3.404	V2683-04
 	transect	Mediaster	 	2687	 	 	 	1811379	 	2005-07-13 20:10:11.0	Ventana	 	03:35:10:20	 	V2687-04
 	descend	Appendicularia	444.58	2683	 	36.701538	-122.0494	1756693	0.82	2005-07-11 17:08:28.0	Ventana	34.276	00:56:07:17	6.735	V2683-01
 	transect	Nanomia bijuga	200.41	2681	 	36.698284	-122.05331	2490932	1.71	2005-07-07 17:09:57.0	Ventana	34.195	00:41:06:10	8.323	V2681-01HD
 	transect	Psolus squamatus	 	2687	 	 	 	1807203	 	2005-07-13 17:03:20.0	Ventana	 	00:30:14:22	 	V2687-01
 	transect	Mesomyaria	1000.27	2669	 	36.73094	-122.23341	1683906	0.45	2005-05-25 18:38:41.0	Ventana	34.522	01:01:06:23	3.913	V2669-01
 	transect	Gastropoda sp.2	999.61	2669	 	36.730515	-122.22892	1695022	0.45	2005-05-25 18:05:58.0	Ventana	34.522	00:28:24:28	3.906	V2669-01
 	transect	Ophiuroidea	1000.23	2669	 	36.73137	-122.24168	1689832	0.4	2005-05-25 19:37:45.0	Ventana	34.508	01:59:42:01	4.08	V2669-02
 	transect	Nanomia bijuga	200.48	2681	 	36.69828	-122.05329	2490549	1.71	2005-07-07 17:07:27.0	Ventana	34.195	00:38:33:28	8.336	V2681-01HD
 	ascend	Appendicularia	601.5	2681	 	36.698933	-122.054245	1717697	0.32	2005-07-07 20:29:50.4	Ventana	34.38	03:58:51:04	5.568	V2681-04
 	transect	Rathbunaster californicus	200.05	2696	 	36.8046	-122.126884	1813482	1.51	2005-08-01 17:51:49.0	Ventana	34.212	01:19:42:02	8.668	V2696-02
 	ascend	Aegina	661.79	2681	 	36.698788	-122.0542	1717652	0.29	2005-07-07 20:26:25.433	Ventana	34.406	03:55:26:11	5.241	V2681-04
 	ascend	Sergestes similis	211.03	2693	 	36.69113	-122.06257	1759149	1.71	2005-07-25 21:24:34.0	Ventana	34.19	03:49:05:22	8.624	V2693-04
 	transect	Mesomyaria	998.98	2669	http://search.mbari.org/ARCHIVE/frameGrabs/Ventana/images/2669/01_20_43_19.jpg	36.731403	-122.23617	1684612	0.44	2005-05-25 18:58:44.0	Ventana	34.521	01:20:43:19	3.944	V2669-02
 	ascend	Euphausiacea	258.17	2681	 	36.697838	-122.05522	1719432	 	2005-07-07 21:29:59.0	Ventana	 	05:04:38:08	 	V2681-05
 	descend	Appendicularia	304.28	2682	 	36.699184	-122.060555	1720138	1.17	2005-07-08 16:55:58.0	Ventana	34.236	00:50:01:09	7.317	V2682-01
 	descend	Cyclothone	723.21	2682	 	36.6985	-122.05988	1721490	0.28	2005-07-08 18:23:21.0	Ventana	34.439	02:16:23:29	4.905	V2682-03
 	transect	Mesomyaria	801.5	2674	 	36.75197	-122.20933	1800894	0.36	2005-06-08 18:16:12.0	Ventana	34.491	01:00:43:04	4.321	V2674-01
 	transect	Mediaster	 	2687	 	 	 	1812776	 	2005-07-13 20:57:01.0	Ventana	 	04:21:30:28	 	V2687-05
 	transect	Phyllospadix	800.03	2674	 	36.75266	-122.20044	1774118	0.29	2005-06-08 17:30:39.0	Ventana	34.459	00:15:12:28	4.657	V2674-01
 	transect	Mesomyaria	802.18	2674	 	36.752316	-122.20591	1799865	0.36	2005-06-08 17:59:40.0	Ventana	34.49	00:44:12:27	4.332	V2674-01
 	ascend	Hastigerinella digitata	268.4	2681	 	36.69951	-122.05446	1718403	1.41	2005-07-07 21:07:35.4	Ventana	34.231	04:35:54:26	7.866	V2681-05
 	transect	Stylasterias forreri	 	2687	http://search.mbari.org/ARCHIVE/frameGrabs/Ventana/images/2687/00_52_20_17.jpg	 	 	1808615	 	2005-07-13 17:25:28.0	Ventana	 	00:52:20:17	 	V2687-01
 	transect	Nanomia bijuga	200.37	2681	 	36.698315	-122.05341	2491255	1.66	2005-07-07 17:13:10.0	Ventana	34.2	00:44:18:19	8.341	V2681-01HD
 	transect	Gastropoda sp.2	999.97	2669	 	36.731415	-122.23683	1694699	0.44	2005-05-25 19:04:45.0	Ventana	34.521	01:26:44:20	3.943	V2669-02
 	transect	Mediaster	 	2687	 	 	 	1811747	 	2005-07-13 20:24:15.0	Ventana	 	03:49:13:11	 	V2687-04
 	ascend	Appendicularia	545.04	2682	 	36.69832	-122.06276	1723623	0.4	2005-07-08 21:09:35.0	Ventana	34.352	05:01:16:01	5.926	V2682-06
 	transect	Mesomyaria	800.26	2674	 	36.751247	-122.21611	1803395	0.35	2005-06-08 18:49:48.0	Ventana	34.489	01:33:51:14	4.34	V2674-02
 	transect	Microstomus pacificus	399.48	2687	 	36.789375	-122.12501	1809644	1.16	2005-07-13 18:29:03.0	Ventana	34.239	01:55:22:07	7.327	V2687-02
 	ascend	Appendicularia	881.2	2682	 	36.698418	-122.05843	1723225	0.33	2005-07-08 20:17:25.0	Ventana	34.489	04:09:34:29	4.333	V2682-05
 	ascend	Chaetognatha	418.02	2683	 	36.70413	-122.05059	1758045	0.92	2005-07-11 21:19:33.0	Ventana	34.258	04:52:24:01	6.866	V2683-05
 	descend	sinker	598.94	2683	 	36.70193	-122.04906	1757016	0.35	2005-07-11 17:49:10.0	Ventana	34.369	01:33:16:22	5.773	V2683-02
 	transect	haliscera	300.4	2681	 	36.697235	-122.05273	2492329	1.23	2005-07-07 17:24:06.0	Ventana	34.234	00:55:13:15	7.393	V2681-01HD
 	transect	Poeobius meseres	1001.05	2681	 	36.69516	-122.05109	2498578	0.48	2005-07-07 19:23:21.0	Ventana	34.53	02:53:01:02	3.858	V2681-03HD
 	descend	Lycodapus	583.92	2688	 	36.793385	-122.018295	1677244	0.55	2005-07-14 16:18:51.0	Ventana	34.342	00:05:12:16	5.973	V2688-01
 	descend	Copepoda	1183.1	2682	 	36.69825	-122.05916	1722196	0.66	2005-07-08 19:15:00.0	Ventana	34.568	03:07:37:20	3.413	V2682-04
 	transect	Ceriantharia sp. 2	1000.45	2669	 	36.731945	-122.246796	1735768	0.41	2005-05-25 20:10:40.0	Ventana	34.509	02:32:10:08	4.067	V2669-03
 	transect	Mediaster	 	2687	 	 	 	1810673	 	2005-07-13 19:27:29.0	Ventana	 	02:53:12:06	 	V2687-03
 	transect	Porifera sp. 1	399.9	2687	 	36.788136	-122.12179	1809321	1.13	2005-07-13 17:39:27.0	Ventana	34.241	01:05:49:09	7.267	V2687-02
 	descend	Atolla wyvillei	959.11	2683	http://search.mbari.org/ARCHIVE/frameGrabs/Ventana/images/2683/02_51_45_17.jpg	36.70391	-122.04854	1757339	0.42	2005-07-11 19:11:23.0	Ventana	34.517	02:51:45:17	4.044	V2683-03
 	endtransect	object	602.06	2680	 	36.791798	-122.232994	1806880	0.36	2005-06-27 20:30:47.0	Ventana	34.378	03:09:23:06	5.591	V2680-03
 	transect	Phyllospadix	199.53	2696	 	36.80431	-122.12619	1813422	1.52	2005-08-01 17:44:57.0	Ventana	34.209	01:12:50:10	8.662	V2696-02
 	transect	Stomphia	399.69	2687	 	36.789257	-122.1246	1809584	1.16	2005-07-13 18:21:44.0	Ventana	34.242	01:48:03:05	7.338	V2687-02
 	transect	Nanomia bijuga	200.43	2681	 	36.69828	-122.0533	2490872	1.71	2005-07-07 17:09:21.0	Ventana	34.195	00:40:29:26	8.326	V2681-01HD
 	transect	beroe	600.57	2681	 	36.696445	-122.05207	2493741	0.3	2005-07-07 18:22:07.0	Ventana	34.388	01:52:28:27	5.48	V2681-02HD
 	transect	Mediaster	 	2687	 	 	 	1812453	 	2005-07-13 20:39:20.0	Ventana	 	04:04:17:16	 	V2687-04
 	transect	Lycenchelys camchatica	1000.28	2669	 	36.73128	-122.24135	1689772	0.4	2005-05-25 19:35:53.0	Ventana	34.507	01:57:50:18	4.091	V2669-02
 	transect	molt	100.5	2681	 	36.69869	-122.05356	2489903	2.14	2005-07-07 16:52:50.0	Ventana	34.067	00:23:58:07	9.142	V2681-01HD
 	transect	Stomphia	598.53	2680	 	36.78231	-122.227455	1805130	0.35	2005-06-27 18:48:23.0	Ventana	34.379	01:27:28:20	5.582	V2680-02
 	transect	Mesomyaria	1000.11	2669	 	36.73108	-122.238754	1689066	0.43	2005-05-25 19:19:53.0	Ventana	34.518	01:41:51:10	3.963	V2669-02
 	transect	Nanomia bijuga	400.75	2681	 	36.696667	-122.052216	2493035	0.79	2005-07-07 17:44:52.0	Ventana	34.277	01:15:15:12	6.652	V2681-02HD
 	transect	Phyllospadix	196.63	2696	 	36.803284	-122.12326	1813159	1.54	2005-08-01 17:14:00.0	Ventana	34.201	00:42:18:22	8.615	V2696-01
 	transect	Ophiuroidea	998.5	2669	 	36.730965	-122.230034	1651204	0.45	2005-05-25 18:14:20.0	Ventana	34.522	00:36:47:02	3.907	V2669-01
 	transect	Stomphia	800.88	2674	 	36.752514	-122.20268	1799234	0.35	2005-06-08 17:42:04.0	Ventana	34.487	00:26:37:16	4.377	V2674-01
 	transect	Psolus squamatus	 	2687	 	 	 	1812716	 	2005-07-13 20:54:36.0	Ventana	 	04:19:06:02	 	V2687-05
 	descend	Dosidicus gigas	508.73	2682	 	36.698593	-122.05978	1720844	0.43	2005-07-08 18:00:34.0	Ventana	34.353	01:54:03:06	5.966	V2682-02
 	transect	Lycenchelys camchatica	802.83	2674	 	36.75223	-122.20635	1799925	0.36	2005-06-08 18:01:29.0	Ventana	34.489	00:46:00:27	4.339	V2674-01
 	transect	Psolus squamatus	 	2687	 	 	 	1808878	 	2005-07-13 17:31:04.0	Ventana	 	00:57:56:04	 	V2687-01
 	ascend	Appendicularia	921.23	2681	 	36.697723	-122.05435	1717006	0.39	2005-07-07 19:45:26.1	Ventana	34.507	03:14:29:17	4.168	V2681-04
 	ascend	Cydippida	260.51	2681	 	36.698807	-122.056946	1719049	1.42	2005-07-07 21:21:45.3	Ventana	34.232	04:50:04:12	7.957	V2681-05
 	transect	Ophiuroidea	998.64	2669	 	36.731113	-122.23108	1683523	0.45	2005-05-25 18:23:01.0	Ventana	34.521	00:45:28:04	3.922	V2669-01
 	transect	Pennatulacea sp.1	602.2	2680	 	36.79094	-122.232864	1806820	0.36	2005-06-27 20:23:53.0	Ventana	34.379	03:02:29:25	5.587	V2680-03
 	descend	Leuroglossus stilbius	600.38	2681	 	36.69569	-122.0511	1715917	0.3	2005-07-07 18:18:10.767	Ventana	34.386	01:48:31:18	5.498	V2681-02
 	transect	Sergestes similis	300.44	2681	 	36.698406	-122.053566	2491946	1.25	2005-07-07 17:20:00.0	Ventana	34.234	00:51:07:12	7.43	V2681-01HD
 	descend	Cydippida	231.29	2676	 	36.8051	-122.0318	1676200	1.52	2005-06-14 16:16:32.0	Ventana	34.206	00:00:41:28	7.95	V2676-01
 	ascend	Euphausiacea	264.42	2681	 	36.6989	-122.056725	1718786	1.41	2005-07-07 21:18:42.097	Ventana	34.231	04:47:01:11	7.931	V2681-05
 	descend	Appendicularia	398.02	2683	 	36.70148	-122.04964	1756633	0.97	2005-07-11 17:01:06.0	Ventana	34.256	00:48:44:16	7.004	V2683-01
 	transect	Mediaster	 	2687	 	 	 	1810733	 	2005-07-13 19:30:28.0	Ventana	 	02:56:11:21	 	V2687-03
 	transect	Mesomyaria	999.58	2669	 	36.73142	-122.23701	1687436	0.44	2005-05-25 19:06:36.0	Ventana	34.521	01:28:35:08	3.939	V2669-02
 	transect	molt	1001.02	2681	 	36.69573	-122.05181	2498638	0.48	2005-07-07 19:26:26.0	Ventana	34.535	02:56:06:13	3.849	V2681-03HD
 	transect	Mysidae 2	700.59	2681	 	36.695457	-122.051254	2497932	0.28	2005-07-07 18:46:22.0	Ventana	34.436	02:16:04:16	4.957	V2681-03HD
 	descend	Solmissus	195.41	2683	 	36.701065	-122.051	1756370	1.68	2005-07-11 16:46:01.0	Ventana	34.196	00:33:41:26	8.43	V2683-01
 	transect	Mediaster	 	2687	 	 	 	1810027	 	2005-07-13 18:51:26.0	Ventana	 	02:17:12:09	 	V2687-03
 	transect	Phyllospadix	204.15	2696	 	36.80761	-122.13124	1813865	1.47	2005-08-01 18:44:01.0	Ventana	34.224	02:11:06:17	8.655	V2696-03
 	transect	Mesomyaria	798.39	2674	 	36.751682	-122.21346	1801277	0.35	2005-06-08 18:34:46.0	Ventana	34.488	01:18:50:06	4.353	V2674-02
 	descend	Dosidicus gigas	400.23	2681	 	36.695568	-122.051094	1715211	0.79	2005-07-07 17:35:38.18	Ventana	34.278	01:06:01:19	6.676	V2681-02
 	transect	cydippida	200.48	2681	 	36.69828	-122.05329	2490609	1.72	2005-07-07 17:07:49.0	Ventana	34.195	00:38:56:21	8.334	V2681-01HD
 	ascend	Appendicularia	490.37	2681	 	36.69895	-122.05424	1717757	0.51	2005-07-07 20:35:02.067	Ventana	34.327	04:04:02:14	6.174	V2681-04
 	ascend	Solmissus	261.17	2681	 	36.698853	-122.057	1718989	1.42	2005-07-07 21:20:29.7	Ventana	34.231	04:48:48:11	7.955	V2681-05
 	transect	Psolus squamatus	 	2687	 	 	 	1810410	 	2005-07-13 19:17:22.0	Ventana	 	02:43:06:07	 	V2687-03
 	ascend	Copepoda	704.93	2681	 	36.698723	-122.054955	1717592	0.29	2005-07-07 20:20:19.567	Ventana	34.426	03:49:20:27	5.064	V2681-04
 	ascend	Nanomia	196.32	2693	 	36.690613	-122.06285	1759209	1.8	2005-07-25 21:28:37.0	Ventana	34.182	03:53:08:13	8.884	V2693-04
 	transect	Mediaster	399.87	2687	 	36.788094	-122.12162	1809201	1.13	2005-07-13 17:37:08.0	Ventana	34.243	01:03:30:27	7.262	V2687-02
 	transect	Actiniaria sp. 3	 	2687	 	 	 	1810936	 	2005-07-13 19:43:20.0	Ventana	 	03:08:21:09	 	V2687-04
 	transect	Mesomyaria	999.72	2669	 	36.73098	-122.23383	1683966	0.45	2005-05-25 18:40:41.0	Ventana	34.522	01:02:42:03	3.913	V2669-02
 	transect	Phyllospadix	399.47	2687	 	36.789413	-122.12562	1809704	1.13	2005-07-13 18:38:05.0	Ventana	34.239	02:04:23:17	7.269	V2687-02
 	ascend	Appendicularia	497.19	2682	 	36.698338	-122.063255	1723683	0.49	2005-07-08 21:14:00.0	Ventana	34.334	05:05:41:26	6.159	V2682-06
 	transect	cydippida	500.62	2681	 	36.69612	-122.05164	2493621	0.43	2005-07-07 18:02:49.0	Ventana	34.347	01:33:13:08	6.009	V2681-02HD
 	cruise	Alepocephalus tenebrosus	610.87	2688	 	36.79586	-122.01988	1677364	0.45	2005-07-14 16:37:28.0	Ventana	34.384	00:23:48:09	5.531	V2688-01
 	transect	Porifera	 	2687	 	 	 	1809907	 	2005-07-13 18:48:00.0	Ventana	 	02:13:46:16	 	V2687-03
 	transect	Eptatretus stoutii	 	2687	 	 	 	1808675	 	2005-07-13 17:26:49.0	Ventana	 	00:53:41:11	 	V2687-01
 	transect	cydippida	400.75	2681	 	36.697117	-122.05274	2493095	0.79	2005-07-07 17:46:46.0	Ventana	34.278	01:17:09:25	6.661	V2681-02HD
 	transect	Ceriantharia sp. 2	998.5	2669	 	36.731136	-122.23086	1683463	0.45	2005-05-25 18:21:31.0	Ventana	34.522	00:43:58:00	3.909	V2669-01
 	ascend	Prayidae	282.35	2681	 	36.699745	-122.05511	1718283	1.36	2005-07-07 21:01:54.8	Ventana	34.231	04:30:15:04	7.738	V2681-05
 	transect	Calliostoma platinum	400.04	2687	http://search.mbari.org/ARCHIVE/frameGrabs/Ventana/images/2687/01_37_55_27.jpg	36.78906	-122.12394	1809524	1.17	2005-07-13 18:11:36.0	Ventana	34.239	01:37:55:27	7.355	V2687-02
 	transect	Mesomyaria	997.63	2669	 	36.73057	-122.2282	1649349	0.45	2005-05-25 18:01:47.0	Ventana	34.522	00:24:15:16	3.907	V2669-01
 	ascend	Appendicularia	415.71	2681	 	36.699226	-122.05433	1717960	0.8	2005-07-07 20:46:08.1	Ventana	34.276	04:14:29:12	6.674	V2681-05
 	ascend	Poeobius meseres	348.22	2681	 	36.699333	-122.05514	1718080	1.08	2005-07-07 20:52:48.533	Ventana	34.254	04:21:09:13	7.207	V2681-05
 	ascend	Appendicularia	596.82	2682	 	36.698742	-122.06097	1723488	0.35	2005-07-08 20:49:53.0	Ventana	34.374	04:42:01:04	5.646	V2682-05
 	transect	Neptunea amianta	798.77	2674	 	36.751556	-122.21416	1801337	0.35	2005-06-08 18:39:17.0	Ventana	34.488	01:23:21:03	4.338	V2674-02
 	descend	physical object	598.87	2677	http://search.mbari.org/ARCHIVE/frameGrabs/Ventana/images/2677/00_03_27_00.jpg	36.74619	-122.05182	20008779	0.4	2005-06-15 16:48:10.0	Ventana	34.396	00:03:27:00	5.422	V2677-01
 	transect	Nanomia bijuga	400.78	2681	 	36.695866	-122.05128	2492915	0.79	2005-07-07 17:41:17.0	Ventana	34.278	01:11:41:03	6.667	V2681-02HD
 	ascend	Crustacea	948.49	2681	 	36.697426	-122.053825	1716886	0.42	2005-07-07 19:41:17.733	Ventana	34.515	03:10:20:28	4.06	V2681-04
 	transect	Psolus squamatus	 	2687	 	 	 	1810087	 	2005-07-13 18:55:17.0	Ventana	 	02:21:03:02	 	V2687-03
 	transect	tuscaroridae	600.58	2681	 	36.696968	-122.0527	2493801	0.3	2005-07-07 18:24:32.0	Ventana	34.388	01:54:52:24	5.477	V2681-02HD
 	ascend	Chaetognatha	330.89	2693	 	36.692074	-122.06188	1759029	1.29	2005-07-25 21:16:11.0	Ventana	34.236	03:40:43:04	7.553	V2693-04
 	transect	Mesomyaria	1000.38	2669	 	36.731224	-122.24118	1689389	0.41	2005-05-25 19:34:45.0	Ventana	34.514	01:56:42:24	4.069	V2669-02
 	transect	Psolus squamatus	 	2687	 	 	 	1811116	 	2005-07-13 19:53:49.0	Ventana	 	03:18:50:04	 	V2687-04
 	transect	Psolus squamatus	 	2687	 	 	 	1810230	 	2005-07-13 19:10:45.0	Ventana	 	02:36:29:14	 	V2687-03
 	transect	Ceriantharia sp. 1	599.81	2680	 	36.77814	-122.22333	1804364	0.36	2005-06-27 17:54:40.0	Ventana	34.378	00:34:46:28	5.589	V2680-01
 	transect	Mediaster	 	2687	 	 	 	1812190	 	2005-07-13 20:28:41.0	Ventana	 	03:53:39:20	 	V2687-04
 	transect	Gastropoda sp.2	999.66	2669	 	36.730946	-122.231544	1695082	0.45	2005-05-25 18:27:37.0	Ventana	34.52	00:50:03:01	3.92	V2669-01
 	descend	Aegina	900.86	2681	 	36.6969	-122.05308	1716503	0.39	2005-07-07 19:06:29.667	Ventana	34.507	02:36:12:10	4.166	V2681-03
 	ascend	Appendicularia	773.47	2682	 	36.698723	-122.05897	1723285	0.28	2005-07-08 20:26:34.0	Ventana	34.446	04:18:43:01	4.775	V2682-05
 	transect	Mesomyaria	1000.07	2669	 	36.730976	-122.233025	1683846	0.45	2005-05-25 18:36:54.0	Ventana	34.522	00:59:20:08	3.911	V2669-01
 	descend	Chaetognatha	205.61	2693	 	36.696045	-122.05839	1758308	1.81	2005-07-25 18:25:40.0	Ventana	34.186	01:05:45:22	8.701	V2693-02
 	transect	Psolus squamatus	 	2687	 	 	 	1808818	 	2005-07-13 17:30:04.0	Ventana	 	00:56:56:22	 	V2687-01
 	transect	Mesomyaria	999.51	2669	 	36.732677	-122.25119	1737060	0.41	2005-05-25 20:40:05.0	Ventana	34.508	03:00:51:26	4.071	V2669-03
 	transect	Anthomastus ritteri	 	2687	 	 	 	1807586	 	2005-07-13 17:16:13.0	Ventana	 	00:43:06:06	 	V2687-01
 	transect	Phyllospadix	800.13	2674	 	36.751766	-122.2119	1801157	0.35	2005-06-08 18:27:40.0	Ventana	34.488	01:11:44:09	4.343	V2674-02
 	transect	molt	100.51	2681	 	36.699104	-122.053825	2489843	2.13	2005-07-07 16:51:42.0	Ventana	34.069	00:22:51:29	9.146	V2681-01HD
 	cruise	Pleuronectiformes	482.2	2688	 	36.80191	-122.018326	1677567	0.79	2005-07-14 17:26:58.0	Ventana	34.29	01:12:42:13	6.672	V2688-02
 	descend	Calycophorae	158.83	2683	 	36.700806	-122.051384	1756310	1.69	2005-07-11 16:35:32.0	Ventana	34.177	00:23:13:19	8.781	V2683-01
 	transect	Ophiuroidea	999.18	2669	 	36.731377	-122.23607	1684552	0.44	2005-05-25 18:58:04.0	Ventana	34.52	01:20:03:19	3.939	V2669-02
 	transect	Neptunea amianta	802.79	2674	 	36.750866	-122.219955	1803658	0.34	2005-06-08 19:06:29.0	Ventana	34.487	01:50:31:17	4.371	V2674-02
 	transect	Calycophorae	400.71	2681	 	36.697968	-122.05369	2493238	0.79	2005-07-07 17:50:23.0	Ventana	34.277	01:20:46:27	6.661	V2681-02HD
 	transect	Ceriantharia sp. 2	 	2669	 	 	 	1737563	 	2005-05-25 13:51:30.0	Ventana	 	03:12:18:12	 	V2669-04
 	transect	Mediaster	 	2687	 	 	 	1810793	 	2005-07-13 19:34:52.0	Ventana	 	03:00:35:23	 	V2687-03
 	transect	Poeobius meseres	800.86	2681	 	36.696484	-122.0525	2498255	0.31	2005-07-07 19:00:35.0	Ventana	34.474	02:30:16:01	4.503	V2681-03HD
 	transect	Mesomyaria	999.14	2669	 	36.731163	-122.23557	1684349	0.45	2005-05-25 18:54:22.0	Ventana	34.523	01:16:22:04	3.919	V2669-02
 	transect	Mediaster	 	2687	 	 	 	1811484	 	2005-07-13 20:14:25.0	Ventana	 	03:39:24:20	 	V2687-04
 	ascend	Appendicularia	841.14	2681	 	36.698635	-122.055984	1717389	0.32	2005-07-07 19:56:15.433	Ventana	34.486	03:25:18:07	4.406	V2681-04
 	transect	Psolus squamatus	 	2687	 	 	 	1810613	 	2005-07-13 19:24:30.0	Ventana	 	02:50:14:06	 	V2687-03
 	transect	beroe	500.57	2681	 	36.69745	-122.05316	2493418	0.44	2005-07-07 17:57:07.0	Ventana	34.346	01:27:31:16	6.018	V2681-02HD
 	transect	Mesomyaria	1000.62	2669	 	36.732075	-122.247734	1736151	0.4	2005-05-25 20:16:55.0	Ventana	34.508	02:38:24:29	4.086	V2669-03
 	ascend	Chaetognatha	228.61	2683	 	36.702896	-122.050735	1758105	1.74	2005-07-11 21:27:46.0	Ventana	34.195	05:00:37:11	8.075	V2683-05
 	descend	Poeobius meseres	457.83	2682	 	36.698498	-122.05954	1720784	0.56	2005-07-08 17:55:06.0	Ventana	34.321	01:48:35:26	6.275	V2682-02
 	descend	Poeobius meseres	1016.97	2683	 	36.704563	-122.0497	1757399	0.44	2005-07-11 19:23:08.0	Ventana	34.519	03:03:29:19	3.979	V2683-03
 	cruise	slope	453.41	2676	 	36.802895	-122.02929	1676320	0.61	2005-06-14 16:36:29.0	Ventana	34.323	00:20:38:02	6.332	V2676-01
 	cruise	Mediaster	144.43	2676	 	36.808758	-122.0308	1676861	1.71	2005-06-14 17:55:23.0	Ventana	34.176	01:35:06:04	8.303	V2676-02
 	transect	Phyllospadix	800.78	2674	 	36.751118	-122.21691	1803455	0.35	2005-06-08 18:52:49.0	Ventana	34.485	01:36:51:29	4.353	V2674-02
 	transect	Caridea sp.1	1000.12	2669	 	36.731045	-122.23967	1689186	0.41	2005-05-25 19:25:42.0	Ventana	34.51	01:47:40:13	4.061	V2669-02
 	transect	Mediaster	 	2687	 	 	 	1811319	 	2005-07-13 20:07:00.0	Ventana	 	03:31:59:29	 	V2687-04
 	transect	Gastropoda sp.2	997.95	2669	 	36.730637	-122.22693	1694902	0.45	2005-05-25 17:53:08.0	Ventana	34.522	00:15:37:05	3.909	V2669-01
 	ascend	Chaetognatha	367.9	2693	 	36.695084	-122.06093	1758826	1.23	2005-07-25 20:58:18.0	Ventana	34.239	03:22:50:18	7.324	V2693-04
 	descend	Nanomia	306.39	2682	 	36.69955	-122.06072	1720078	1.17	2005-07-08 16:39:23.0	Ventana	34.235	00:33:25:28	7.322	V2682-01
 	transect	Chorilia longipes	800.5	2674	http://search.mbari.org/ARCHIVE/frameGrabs/Ventana/images/2674/00_18_50_16.jpg	36.75261	-122.201096	1774178	0.34	2005-06-08 17:34:16.0	Ventana	34.482	00:18:50:16	4.417	V2674-01
 	transect	Psolus squamatus	 	2687	 	 	 	1808998	 	2005-07-13 17:33:15.0	Ventana	 	01:00:07:15	 	V2687-01
 	transect	Phyllospadix	 	2687	 	 	 	1812393	 	2005-07-13 20:36:26.0	Ventana	 	04:01:24:22	 	V2687-04
 	descend	Appendicularia	778.98	2682	 	36.698368	-122.05976	1721670	0.3	2005-07-08 18:34:06.0	Ventana	34.455	02:27:10:16	4.69	V2682-03
 	descend	Copepoda	840.26	2683	 	36.70284	-122.04845	1757219	0.34	2005-07-11 18:24:07.0	Ventana	34.481	02:08:10:29	4.427	V2683-02
 	descend	Chuniphyes	798.86	2682	 	36.698353	-122.05967	1721693	0.31	2005-07-08 18:37:17.0	Ventana	34.469	02:30:19:26	4.571	V2682-03
 	transect	Pennatulacea sp.1	600.82	2680	 	36.77711	-122.22226	1804221	0.36	2005-06-27 17:41:39.0	Ventana	34.379	00:21:47:01	5.576	V2680-01
 	transect	Mediaster	 	2687	 	 	 	1812596	 	2005-07-13 20:46:38.0	Ventana	 	04:11:08:17	 	V2687-05
 	transect	Mediaster	 	2687	 	 	 	1807023	 	2005-07-13 16:54:43.0	Ventana	 	00:21:38:01	 	V2687-01
 	transect	Mesomyaria	1000.34	2669	 	36.731503	-122.242325	1694496	0.41	2005-05-25 19:41:10.0	Ventana	34.509	02:03:07:13	4.06	V2669-02
 	ascend	Euphausiacea	255.47	2681	 	36.698032	-122.05514	1719229	1.46	2005-07-07 21:25:51.633	Ventana	34.223	04:54:10:15	7.993	V2681-05
 	transect	Sebastolobus	 	2687	 	 	 	1811199	 	2005-07-13 20:01:21.0	Ventana	 	03:26:21:22	 	V2687-04
 	transect	Psolus squamatus	 	2687	 	 	 	1811544	 	2005-07-13 20:15:20.0	Ventana	 	03:40:19:05	 	V2687-04
 	transect	Phyllospadix	800.68	2674	 	36.751747	-122.21122	1801097	0.35	2005-06-08 18:25:00.0	Ventana	34.487	01:09:04:21	4.341	V2674-02
 	transect	Sebastolobus altivelis	799.95	2674	 	36.75254	-122.20375	1799377	0.35	2005-06-08 17:47:40.0	Ventana	34.487	00:32:13:03	4.359	V2674-01
 	transect	Psolus squamatus	 	2687	 	 	 	1808735	 	2005-07-13 17:27:58.0	Ventana	 	00:54:50:23	 	V2687-01
 	cruise	Metridium farcimen	98.31	2676	 	36.80836	-122.03767	1677124	1.97	2005-06-14 18:58:18.0	Ventana	34.15	02:37:04:01	8.476	V2676-03
 	transect	Phyllospadix	198.99	2696	 	36.803764	-122.12491	1813302	1.53	2005-08-01 17:32:02.0	Ventana	34.207	01:00:19:01	8.628	V2696-01
 	stationary	Chionoecetes tanneri	998.25	2679	http://search.mbari.org/ARCHIVE/frameGrabs/Ventana/images/2679/00_24_55_03.jpg	36.68986	-122.1656	20004318	0.39	2005-06-16 17:53:35.0	Ventana	34.514	00:24:55:03	4.101	V2679-01
 	ascend	Chaetognatha	312.91	2682	 	36.697197	-122.061516	1723743	1.18	2005-07-08 21:26:18.0	Ventana	34.242	05:17:58:19	7.379	V2682-06
 	transect	Neptunea amianta	800.78	2674	 	36.751076	-122.21761	1803515	0.35	2005-06-08 18:56:27.0	Ventana	34.488	01:40:30:07	4.338	V2674-02
 	transect	Phyllospadix	1000.19	2669	 	36.731686	-122.24373	1733875	0.41	2005-05-25 19:48:20.0	Ventana	34.509	02:09:51:24	4.067	V2669-03
 	ascend	Leuroglossus stilbius	643.77	2683	 	36.705154	-122.05002	1757925	0.27	2005-07-11 21:09:32.0	Ventana	34.408	04:42:24:18	5.26	V2683-05
 	transect	Rathbunaster californicus	201.64	2696	 	36.805256	-122.12819	1813625	1.5	2005-08-01 18:07:01.0	Ventana	34.21	01:34:52:24	8.669	V2696-02
 	descend	Hormiphora	171.72	2693	 	36.69619	-122.057915	1758225	1.96	2005-07-25 18:00:37.0	Ventana	34.139	00:41:06:23	8.909	V2693-01
 	descend	Appendicularia	370.91	2693	 	36.696175	-122.060905	1758631	1.19	2005-07-25 20:21:49.0	Ventana	34.231	03:01:22:20	7.15	V2693-03
 	transect	Mediaster	 	2687	 	 	 	1810493	 	2005-07-13 19:20:34.0	Ventana	 	02:46:17:25	 	V2687-03
 	descend	sinker	996.17	2682	 	36.698322	-122.05923	1722016	0.43	2005-07-08 18:58:31.0	Ventana	34.52	02:51:34:01	3.997	V2682-03
 	transect	Ceriantharia sp. 1	599.28	2680	 	36.77984	-122.22495	1804567	0.35	2005-06-27 18:15:51.0	Ventana	34.381	00:55:57:00	5.579	V2680-01
 	transect	Phyllospadix	800.72	2674	 	36.752094	-122.20842	1800751	0.35	2005-06-08 18:11:32.0	Ventana	34.487	00:56:03:23	4.328	V2674-01
 	transect	Mesomyaria	999.23	2669	 	36.731396	-122.23638	1684732	0.44	2005-05-25 19:00:18.0	Ventana	34.52	01:22:17:21	3.946	V2669-02
 	ascend	Appendicularia	286.44	2681	 	36.699745	-122.05519	1718223	1.36	2005-07-07 21:00:36.667	Ventana	34.229	04:28:56:17	7.728	V2681-05
 	ascend	Euphausiacea	258.17	2681	 	36.697838	-122.05522	1719575	 	2005-07-07 21:29:59.0	Ventana	 	05:15:21:20	 	V2681-05
 	transect	Mediaster	 	2687	 	 	 	1807323	 	2005-07-13 17:06:52.0	Ventana	 	00:33:46:00	 	V2687-01
 	transect	Mesomyaria	999.71	2669	 	36.73131	-122.23591	1684432	0.44	2005-05-25 18:56:43.0	Ventana	34.521	01:18:43:05	3.933	V2669-02
 	transect	Caridea sp.1	1000.05	2669	 	36.73116	-122.240364	1689246	0.41	2005-05-25 19:29:43.0	Ventana	34.51	01:51:41:10	4.063	V2669-02
 	transect	Solaster borealis	 	2669	 	 	 	1737683	 	2005-05-25 13:56:50.0	Ventana	 	03:17:37:18	 	V2669-04
 	descend	Appendicularia	1069.37	2682	 	36.698334	-122.05915	1722053	0.5	2005-07-08 19:04:43.0	Ventana	34.538	02:57:44:04	3.793	V2682-03
 	transect	Phyllospadix	801.35	2674	 	36.752274	-122.207245	1800045	0.37	2005-06-08 18:06:05.0	Ventana	34.495	00:50:37:13	4.36	V2674-01
 	transect	Mesomyaria	999.06	2669	 	36.731133	-122.234024	1684026	0.45	2005-05-25 18:42:17.0	Ventana	34.523	01:04:18:07	3.913	V2669-02
 	cruise	Lycodapus	1221.55	2683	 	36.70628	-122.04761	1757602	0.73	2005-07-11 20:04:51.0	Ventana	34.571	03:39:13:19	3.348	V2683-04
 	descend	Appendicularia	639.53	2682	 	36.698635	-122.05989	1721310	0.28	2005-07-08 18:09:31.0	Ventana	34.401	02:02:35:05	5.326	V2682-03
 	transect	Mediaster	 	2687	 	 	 	1809787	 	2005-07-13 18:40:04.0	Ventana	 	02:05:50:05	 	V2687-03
 	transect	Aegina	900.98	2681	 	36.6954	-122.051186	2498458	0.39	2005-07-07 19:14:01.0	Ventana	34.505	02:43:42:24	4.17	V2681-03HD
 	transect	Mesomyaria	999.64	2669	http://search.mbari.org/ARCHIVE/frameGrabs/Ventana/images/2669/01_33_37_16.jpg	36.73137	-122.23764	1687519	0.44	2005-05-25 19:11:38.0	Ventana	34.519	01:33:37:16	3.949	V2669-02
 	descend	Appendicularia	502.78	2683	 	36.701553	-122.04936	1756813	0.68	2005-07-11 17:27:50.0	Ventana	34.305	01:11:56:21	6.466	V2683-02
 	transect	molt	100.52	2681	 	36.69983	-122.05429	2489640	2.13	2005-07-07 16:46:54.0	Ventana	34.069	00:18:03:23	9.144	V2681-01HD
 	transect	Mesomyaria	998.8	2669	 	36.730988	-122.23022	1651264	0.45	2005-05-25 18:16:05.0	Ventana	34.521	00:38:32:08	3.91	V2669-01
 	transect	Phyllospadix	202.96	2696	 	36.805256	-122.12819	1813662	1.47	2005-08-01 18:12:54.0	Ventana	34.215	01:40:46:11	8.607	V2696-02
 	transect	Mesomyaria	801.15	2674	 	36.75099	-122.21836	1803575	0.35	2005-06-08 18:59:48.0	Ventana	34.491	01:43:50:19	4.343	V2674-02
 	transect	Euphausia	200.41	2681	 	36.6983	-122.05337	2491135	1.68	2005-07-07 17:12:12.0	Ventana	34.198	00:43:20:20	8.337	V2681-01HD
 	transect	Aegina	700.62	2681	 	36.697147	-122.053	2497669	0.29	2005-07-07 18:39:14.0	Ventana	34.436	02:08:57:17	4.931	V2681-03HD
 	transect	Phyllospadix	800.32	2674	 	36.75249	-122.20315	1799294	0.35	2005-06-08 17:44:22.0	Ventana	34.481	00:28:54:27	4.373	V2674-01
 	transect	Porifera	 	2687	 	 	 	1807060	 	2005-07-13 16:56:50.0	Ventana	 	00:23:44:11	 	V2687-01
 	transect	Ceriantharia sp. 2	997.57	2669	 	36.73062	-122.22699	1683320	0.45	2005-05-25 17:53:45.0	Ventana	34.522	00:16:14:00	3.91	V2669-01
 	ascend	Lobata	259.77	2681	 	36.699425	-122.05455	1718583	1.42	2005-07-07 21:12:47.5	Ventana	34.225	04:41:07:05	7.96	V2681-05
 	descend	Appendicularia	522.62	2683	 	36.70146	-122.04914	1756896	0.59	2005-07-11 17:41:30.0	Ventana	34.324	01:25:35:28	6.308	V2683-02
 	transect	Ceriantharia sp. 2	999.95	2669	 	36.731964	-122.24622	1735648	0.41	2005-05-25 20:06:16.0	Ventana	34.509	02:27:46:10	4.063	V2669-03
 	descend	Appendicularia	339.31	2683	 	36.701252	-122.049995	1756550	1.26	2005-07-11 16:55:56.0	Ventana	34.22	00:43:36:14	7.279	V2683-01
 	cruise	Gorgonocephalus	266.98	2676	http://search.mbari.org/ARCHIVE/frameGrabs/Ventana/images/2676/01_14_38_22.jpg	36.805347	-122.02943	1676718	1.52	2005-06-14 17:34:55.0	Ventana	34.209	01:14:38:22	7.97	V2676-02
 	transect	Mediaster	 	2687	 	 	 	1812250	 	2005-07-13 20:29:56.0	Ventana	 	03:54:53:28	 	V2687-04
 	transect	phialidium	500.56	2681	 	36.696938	-122.052536	2493561	0.44	2005-07-07 17:59:26.0	Ventana	34.346	01:29:49:26	6.023	V2681-02HD
 	transect	Ophiuroidea	1000.04	2669	 	36.730953	-122.23261	1683786	0.45	2005-05-25 18:34:25.0	Ventana	34.521	00:56:50:20	3.911	V2669-01
 	ascend	Crustacea	748.56	2681	 	36.69874	-122.05576	1717532	0.27	2005-07-07 20:14:15.297	Ventana	34.447	03:43:16:14	4.815	V2681-04
 	descend	Appendicularia	247.37	2681	 	36.698574	-122.05356	1713596	1.47	2005-07-07 17:16:01.833	Ventana	34.213	00:47:09:17	8.026	V2681-01
 	descend	Chuniphyes	897.94	2683	 	36.703278	-122.048325	1757256	0.37	2005-07-11 18:32:03.0	Ventana	34.495	02:12:26:20	4.267	V2683-03
 	transect	Psolus squamatus	399.84	2687	 	36.788048	-122.121544	1809141	1.13	2005-07-13 17:36:10.0	Ventana	34.242	01:02:32:10	7.271	V2687-02
 	transect	Gastropoda sp.2	1000.54	2669	 	36.732403	-122.24976	1736714	0.41	2005-05-25 20:31:26.0	Ventana	34.51	02:52:54:21	4.068	V2669-03
 	transect	Mesomyaria	1000.39	2669	 	36.73117	-122.24078	1689306	0.41	2005-05-25 19:32:17.0	Ventana	34.511	01:54:15:10	4.056	V2669-02
 	transect	Ceriantharia sp. 2	1000.76	2669	 	36.732292	-122.24908	1736271	0.41	2005-05-25 20:26:26.0	Ventana	34.51	02:47:54:06	4.064	V2669-03
 	cruise	benthos	1238.98	2683	 	36.705963	-122.04814	1757519	0.73	2005-07-11 19:46:45.0	Ventana	34.575	03:21:08:13	3.342	V2683-04
 	ascend	Chuniphyes	595.4	2683	 	36.70475	-122.050644	1757962	0.31	2005-07-11 21:12:17.0	Ventana	34.382	04:45:08:20	5.642	V2683-05
 	transect	Chionoecetes tanneri	601.96	2680	 	36.787224	-122.23166	1805911	0.36	2005-06-27 19:47:10.0	Ventana	34.378	02:25:48:06	5.598	V2680-03
 	transect	Phyllospadix	800.25	2674	 	36.752068	-122.20892	1800834	0.35	2005-06-08 18:14:05.0	Ventana	34.489	00:58:36:22	4.325	V2674-01
 	transect	Psolus squamatus	 	2687	http://search.mbari.org/ARCHIVE/frameGrabs/Ventana/images/2687/03_07_30_20.jpg	 	 	1810913	 	2005-07-13 19:42:29.0	Ventana	 	03:07:30:20	 	V2687-04
 	cruise	Macrouridae	1017.94	2689	 	36.77154	-122.08293	1669861	0.56	2005-07-18 17:18:38.0	Ventana	34.551	00:41:40:22	3.694	V2689-01
 	ascend	Sergestes similis	313.25	2681	 	36.69966	-122.05527	1718163	1.25	2005-07-07 20:58:02.833	Ventana	34.236	04:26:23:12	7.475	V2681-05
 	ascend	Aegina	604.35	2682	 	36.69886	-122.06003	1723428	0.34	2005-07-08 20:39:36.0	Ventana	34.381	04:31:43:27	5.55	V2682-05
 	descend	Nanomia	174.59	2682	 	36.699886	-122.06075	1719935	2.18	2005-07-08 16:19:48.0	Ventana	34.13	00:13:52:00	8.289	V2682-01
 	ascend	Nanomia	183.55	2693	 	36.690613	-122.06292	1759232	1.93	2005-07-25 21:29:29.0	Ventana	34.138	03:54:01:18	8.863	V2693-04
 	transect	molt	100.49	2681	 	36.69982	-122.05429	2489723	2.13	2005-07-07 16:48:41.0	Ventana	34.067	00:19:49:16	9.152	V2681-01HD
 	transect	Nanomia bijuga	200.36	2681	 	36.69829	-122.05333	2491052	1.69	2005-07-07 17:11:12.0	Ventana	34.196	00:42:20:07	8.332	V2681-01HD
 	transect	Mesomyaria	999.04	2669	 	36.730526	-122.22855	1650904	0.45	2005-05-25 18:04:10.0	Ventana	34.522	00:26:38:17	3.908	V2669-01
 	transect	Rathbunaster californicus	200.31	2696	 	36.80512	-122.127945	1813565	1.5	2005-08-01 18:00:08.0	Ventana	34.212	01:28:01:00	8.671	V2696-02
 	transect	lobata	901.06	2681	 	36.69622	-122.052246	2498315	0.39	2005-07-07 19:10:03.0	Ventana	34.505	02:39:45:07	4.172	V2681-03HD
 	transect	Ceriantharia sp. 1	599.31	2680	 	36.779167	-122.22427	1804484	0.36	2005-06-27 18:06:59.0	Ventana	34.376	00:47:05:18	5.601	V2680-01
 	transect	Ceriantharia sp. 1	602.3	2680	 	36.79034	-122.23271	1806760	0.35	2005-06-27 20:18:32.0	Ventana	34.379	02:57:08:20	5.587	V2680-03
 	transect	Mediaster	 	2687	 	 	 	1812310	 	2005-07-13 20:31:54.0	Ventana	 	03:56:52:19	 	V2687-04
 	cruise	Florometra	264.84	2688	 	36.80909	-122.020355	1677890	1.52	2005-07-14 18:26:55.0	Ventana	34.195	02:12:11:01	8.175	V2688-03
 	transect	Gastropoda sp.2	998.34	2669	 	36.730515	-122.22838	1694939	0.45	2005-05-25 18:03:06.0	Ventana	34.523	00:25:33:26	3.908	V2669-01
 	descend	Tomopteridae	550.97	2683	 	36.701702	-122.04916	1756956	0.46	2005-07-11 17:44:33.0	Ventana	34.335	01:28:38:02	6.079	V2683-02
 	transect	Mesomyaria	1000.28	2669	 	36.731667	-122.24377	1733935	0.41	2005-05-25 19:48:37.0	Ventana	34.507	02:10:09:00	4.068	V2669-03
 	transect	molt	100.5	2681	 	36.699635	-122.05417	2489783	2.13	2005-07-07 16:50:33.0	Ventana	34.067	00:21:42:19	9.16	V2681-01HD
 	transect	Euphausia	200.39	2681	 	36.698284	-122.053314	2490992	1.71	2005-07-07 17:10:31.0	Ventana	34.187	00:41:39:24	8.319	V2681-01HD
 	transect	Pennatulacea	800.12	2674	 	36.752445	-122.20536	1799782	0.36	2005-06-08 17:56:40.0	Ventana	34.487	00:41:12:25	4.361	V2674-01
 	descend	Appendicularia	261.21	2683	 	36.70091	-122.05045	1756453	1.51	2005-07-11 16:51:19.0	Ventana	34.218	00:38:59:17	7.971	V2683-01
 	transect	Lycenchelys camchatica	799.44	2674	 	36.752525	-122.20407	1799437	0.35	2005-06-08 17:49:28.0	Ventana	34.485	00:34:00:20	4.379	V2674-01
 	transect	Sebastolobus altivelis	800.56	2674	 	36.752434	-122.20466	1799640	0.36	2005-06-08 17:53:05.0	Ventana	34.49	00:37:37:16	4.348	V2674-01
 	transect	Mesomyaria	999.44	2669	 	36.73133	-122.23592	1684492	0.44	2005-05-25 18:57:06.0	Ventana	34.52	01:19:05:22	3.936	V2669-02
 	descend	Poeobius meseres	1108.57	2682	 	36.69821	-122.05919	1722113	0.57	2005-07-08 19:11:11.0	Ventana	34.55	03:03:48:24	3.632	V2682-04
 	transect	Rathbunaster californicus	197.45	2696	 	36.802654	-122.12169	1813016	1.52	2005-08-01 16:53:57.0	Ventana	34.205	00:22:16:23	8.562	V2696-01
 	descend	Appendicularia	397.44	2682	 	36.698303	-122.059875	1720701	0.86	2005-07-08 17:37:27.0	Ventana	34.255	01:30:58:23	6.703	V2682-02
 	transect	Phyllospadix	800.92	2674	 	36.752563	-122.201706	1799091	0.34	2005-06-08 17:36:58.0	Ventana	34.479	00:21:32:09	4.445	V2674-01
 	transect	Nanomia bijuga	200.41	2681	 	36.69828	-122.05329	2490286	1.69	2005-07-07 17:06:26.0	Ventana	34.2	00:37:34:26	8.359	V2681-01HD
 	descend	Nanomia	142.21	2683	 	36.700577	-122.05156	1756250	1.71	2005-07-11 16:19:55.0	Ventana	34.158	00:07:37:21	8.956	V2683-01
 	transect	Phyllospadix	600.18	2680	 	36.784245	-122.229614	1805536	0.36	2005-06-27 19:15:38.0	Ventana	34.378	01:54:41:27	5.604	V2680-02
 	transect	Mediaster	 	2687	 	 	 	1812513	 	2005-07-13 20:43:03.0	Ventana	 	04:07:33:21	 	V2687-05
 	ascend	Poeobius meseres	991.78	2681	 	36.696774	-122.05314	1716563	0.45	2005-07-07 19:33:24.267	Ventana	34.524	03:03:05:08	3.946	V2681-03
 	descend	Mysidae	871.7	2682	 	36.698303	-122.05943	1721753	0.33	2005-07-08 18:49:27.0	Ventana	34.489	02:42:29:23	4.358	V2682-03
 	transect	Umbellula lindahli	599.66	2680	 	36.777477	-122.22256	1804281	0.36	2005-06-27 17:46:51.0	Ventana	34.378	00:26:59:02	5.584	V2680-01
 	descend	Chuniphyes	807.85	2683	 	36.702667	-122.04876	1757159	0.36	2005-07-11 18:01:44.0	Ventana	34.466	01:45:50:10	4.552	V2683-02
 	cruise	Actiniaria	101.68	2688	 	36.816204	-122.014275	1679302	1.98	2005-07-14 19:48:31.0	Ventana	34.086	03:33:17:20	8.905	V2688-04
 	descend	Appendicularia	741.1	2682	 	36.698452	-122.059654	1721610	0.29	2005-07-08 18:29:31.0	Ventana	34.445	02:22:33:24	4.848	V2682-03
 	ascend	Phialidium	663.94	2682	 	36.698917	-122.059586	1723368	0.28	2005-07-08 20:35:04.0	Ventana	34.403	04:27:12:21	5.237	V2682-05
 	transect	Chionoecetes tanneri	598.44	2680	 	36.780968	-122.22591	1804830	0.35	2005-06-27 18:29:36.0	Ventana	34.381	01:08:41:25	5.581	V2680-02
 	transect	Phyllospadix	197.71	2696	 	36.80346	-122.12392	1813219	1.54	2005-08-01 17:21:18.0	Ventana	34.201	00:49:35:25	8.611	V2696-01
 	descend	Hastigerinella digitata	253.71	2682	 	36.699814	-122.06083	1719995	1.38	2005-07-08 16:25:17.0	Ventana	34.234	00:19:21:27	7.885	V2682-01
 	transect	Phyllospadix	1000.22	2669	 	36.73183	-122.24519	1735362	0.4	2005-05-25 19:58:12.0	Ventana	34.506	02:19:41:20	4.099	V2669-03
 	descend	Crustacea	467.36	2683	 	36.70158	-122.049355	1756753	0.77	2005-07-11 17:13:11.0	Ventana	34.287	01:00:51:07	6.652	V2683-01
 	transect	Solmissus	300.39	2681	 	36.69588	-122.05149	2492592	1.24	2005-07-07 17:29:01.0	Ventana	34.233	01:00:07:16	7.428	V2681-01HD
 	transect	Neptunea amianta	799.46	2674	 	36.75175	-122.21232	1801194	0.35	2005-06-08 18:29:12.0	Ventana	34.488	01:13:16:26	4.335	V2674-02
 	descend	Calycophorae	551.42	2682	 	36.69863	-122.05978	1720904	0.35	2005-07-08 18:05:33.0	Ventana	34.37	01:59:01:15	5.68	V2682-02
 	descend	Appendicularia	383.41	2683	 	36.701458	-122.04979	1756610	1.02	2005-07-11 16:58:23.0	Ventana	34.253	00:46:02:21	6.983	V2683-01
 	transect	Allocentrotus fragilis	 	2687	 	 	 	1811259	 	2005-07-13 20:05:30.0	Ventana	 	03:30:29:27	 	V2687-04
 	transect	Mesomyaria	802.03	2674	 	36.751797	-122.21068	1801037	0.35	2005-06-08 18:22:55.0	Ventana	34.489	01:06:59:24	4.322	V2674-02
 	transect	Ceriantharia sp. 2	1000.19	2669	 	36.73175	-122.24494	1734484	0.4	2005-05-25 19:55:57.0	Ventana	34.509	02:17:28:11	4.075	V2669-03
 	cruise	Zoarcidae	431.99	2688	 	36.8051	-122.01885	1677687	0.92	2005-07-14 17:44:25.0	Ventana	34.267	01:30:08:27	6.932	V2688-02
 	descend	Copepoda	1092.45	2683	 	36.705112	-122.048904	1757459	0.55	2005-07-11 19:28:50.0	Ventana	34.539	03:09:12:15	3.744	V2683-03
 	ascend	Appendicularia	258.17	2681	 	36.697838	-122.05522	1719289	 	2005-07-07 21:29:59.0	Ventana	 	04:59:14:02	 	V2681-05
 	ascend	Appendicularia	358.95	2693	 	36.694035	-122.06103	1758886	1.24	2005-07-25 21:03:10.0	Ventana	34.237	03:27:42:27	7.355	V2693-04
 	transect	Asteronyx loveni	600.91	2680	 	36.78596	-122.23084	1805851	0.36	2005-06-27 19:33:34.0	Ventana	34.377	02:12:13:28	5.598	V2680-03
 	transect	Mesomyaria	1000.61	2669	 	36.73216	-122.24835	1736211	0.41	2005-05-25 20:21:19.0	Ventana	34.51	02:42:48:21	4.062	V2669-03
 	ascend	Appendicularia	775.03	2681	 	36.698742	-122.056335	1717472	0.29	2005-07-07 20:07:05.533	Ventana	34.453	03:36:07:20	4.747	V2681-04
 	descend	Appendicularia	365.14	2682	 	36.698536	-122.06037	1720341	1.0	2005-07-08 17:23:23.0	Ventana	34.256	01:16:53:19	7.075	V2682-02
 	ascend	Euphotic zone	41.37	2694	 	36.78344	-122.19967	1676778	2.73	2005-07-27 21:18:44.0	Ventana	33.825	03:50:04:11	10.149	V2694-04
 	cruise	line	107.91	2688	 	36.81264	-122.024864	1678033	1.95	2005-07-14 18:51:55.0	Ventana	34.095	02:37:09:28	8.896	V2688-03
 	descend	Nanomia	180.03	2681	 	36.69828	-122.05329	1713536	1.95	2005-07-07 17:03:07.667	Ventana	34.148	00:34:16:21	8.541	V2681-01
 	transect	Pennatulacea sp.1	598.9	2680	 	36.7803	-122.225296	1804627	0.35	2005-06-27 18:21:07.0	Ventana	34.38	01:01:12:13	5.575	V2680-01
 	descend	Chaetognatha	938.85	2683	 	36.70375	-122.0486	1757316	0.39	2005-07-11 19:08:28.0	Ventana	34.51	02:48:51:04	4.135	V2683-03
 	descend	Crustacea	342.24	2693	 	36.69711	-122.05994	1758571	1.29	2005-07-25 19:58:30.0	Ventana	34.234	02:38:04:16	7.574	V2693-03
 	ascend	Leuroglossus stilbius	604.67	2682	 	36.69862	-122.061745	1723540	0.33	2005-07-08 20:57:53.0	Ventana	34.378	04:49:59:14	5.632	V2682-05
 	ascend	Solmissus	270.12	2693	 	36.691395	-122.06226	1759089	1.44	2005-07-25 21:20:53.0	Ventana	34.245	03:45:23:23	8.338	V2693-04
 	transect	Psolus squamatus	399.86	2687	http://search.mbari.org/ARCHIVE/frameGrabs/Ventana/images/2687/01_02_12_24.jpg	36.788044	-122.12152	1809081	1.14	2005-07-13 17:35:50.0	Ventana	34.237	01:02:12:24	7.276	V2687-02
 	transect	Mediaster	 	2687	 	 	 	1811056	 	2005-07-13 19:49:40.0	Ventana	 	03:14:41:00	 	V2687-04
 	cruise	rock outcrop	434.54	2676	http://search.mbari.org/ARCHIVE/frameGrabs/Ventana/images/2676/00_25_09_04.jpg	36.80338	-122.02924	20003912	0.64	2005-06-14 16:41:00.0	Ventana	34.325	00:25:09:04	6.429	V2676-01
 	cruise	LRJ Complex	611.61	2688	 	36.795155	-122.019005	1677327	0.45	2005-07-14 16:33:00.0	Ventana	34.389	00:19:20:22	5.475	V2688-01
 	transect	Mediaster	 	2687	 	 	 	1807120	 	2005-07-13 17:00:28.0	Ventana	 	00:27:22:05	 	V2687-01
 	transect	Appendicularia	300.42	2681	 	36.697475	-122.05293	2492246	1.24	2005-07-07 17:23:17.0	Ventana	34.233	00:54:24:28	7.402	V2681-01HD
 	transect	Phyllospadix	999.96	2669	 	36.731754	-122.244354	1734281	0.4	2005-05-25 19:52:01.0	Ventana	34.509	02:13:33:16	4.083	V2669-03
 	ascend	Copepoda	719.83	2683	 	36.70598	-122.048775	1757865	0.29	2005-07-11 21:05:01.0	Ventana	34.454	04:37:54:11	4.733	V2683-05
 	ascend	Nanomia	444.86	2683	 	36.704227	-122.05058	1758022	0.78	2005-07-11 21:18:27.0	Ventana	34.284	04:51:19:07	6.677	V2683-05
 	transect	Neptunea amianta	798.93	2674	 	36.751392	-122.21497	1801397	0.35	2005-06-08 18:43:54.0	Ventana	34.489	01:27:57:17	4.338	V2674-02
 	transect	Solmissus	300.41	2681	 	36.696854	-122.0524	2492449	1.23	2005-07-07 17:25:24.0	Ventana	34.234	00:56:30:21	7.391	V2681-01HD
 	transect	Halipteris californica	599.36	2680	 	36.7832	-122.22857	1805333	0.35	2005-06-27 19:04:48.0	Ventana	34.379	01:43:52:00	5.587	V2680-02
 	transect	Mesomyaria	997.53	2669	 	36.73063	-122.227005	1649086	0.45	2005-05-25 17:54:06.0	Ventana	34.521	00:16:34:21	3.909	V2669-01
 	transect	Ophiuroidea	998.97	2669	 	36.731415	-122.236496	1684792	0.44	2005-05-25 19:01:37.0	Ventana	34.52	01:23:36:10	3.941	V2669-02
 	transect	Caecosagitta macrocephala	1001.06	2681	 	36.694664	-122.05043	2498518	0.47	2005-07-07 19:20:37.0	Ventana	34.529	02:50:17:26	3.872	V2681-03HD
 	ascend	Calycophorae	260.91	2681	 	36.698864	-122.05695	1718929	1.42	2005-07-07 21:19:50.307	Ventana	34.232	04:48:10:01	7.957	V2681-05
 	transect	Mediaster	 	2687	 	 	 	1806963	 	2005-07-13 16:51:06.0	Ventana	 	00:18:01:04	 	V2687-01
 	transect	Mesomyaria	999.8	2669	 	36.73061	-122.22919	1651061	0.45	2005-05-25 18:08:11.0	Ventana	34.523	00:30:39:05	3.906	V2669-01
 	transect	Mediaster	 	2687	 	 	 	1812656	 	2005-07-13 20:49:56.0	Ventana	 	04:14:26:20	 	V2687-05
 	transect	Poeobius meseres	400.78	2681	 	36.697453	-122.05313	2493155	0.79	2005-07-07 17:48:11.0	Ventana	34.277	01:18:33:26	6.662	V2681-02HD
 	transect	Microstomus pacificus	802.15	2674	 	36.752254	-122.206856	1799985	0.37	2005-06-08 18:04:06.0	Ventana	34.49	00:48:38:15	4.326	V2674-01
 	transect	Ophiuroidea	998.54	2669	 	36.731106	-122.23068	1683380	0.45	2005-05-25 18:19:39.0	Ventana	34.521	00:42:06:07	3.911	V2669-01
 	descend	Appendicularia	609.69	2682	 	36.69863	-122.0598	1721250	0.3	2005-07-08 18:07:58.0	Ventana	34.393	02:01:02:24	5.398	V2682-03
 	transect	Stomphia	998.1	2669	 	36.733006	-122.25276	1737480	0.4	2005-05-25 20:49:23.0	Ventana	34.508	03:10:11:02	4.075	V2669-04
 	stationary	Merluccius productus	502.09	2694	 	36.784607	-122.20047	1676606	0.8	2005-07-27 19:19:18.0	Ventana	34.277	02:01:57:05	6.59	V2694-02
 	transect	Acanthamunnopsis milleri	200.38	2681	 	36.698307	-122.05339	2491195	1.68	2005-07-07 17:12:40.0	Ventana	34.2	00:43:48:23	8.337	V2681-01HD
 	cruise	Chionoecetes tanneri	1209.34	2683	 	36.7069	-122.04762	1757662	0.72	2005-07-11 20:14:10.0	Ventana	34.575	03:48:33:03	3.349	V2683-04
 	cruise	Anoplopoma fimbria	518.92	2688	 	36.799904	-122.01899	1677484	0.66	2005-07-14 17:09:08.0	Ventana	34.313	00:55:26:01	6.368	V2688-01
 	transect	Neptunea amianta	998.72	2669	http://search.mbari.org/ARCHIVE/frameGrabs/Ventana/images/2669/01_05_24_02.jpg	36.731174	-122.234245	1684086	0.45	2005-05-25 18:43:23.0	Ventana	34.521	01:05:24:02	3.915	V2669-02
 	transect	Mesomyaria	1000.7	2669	 	36.7323	-122.2494	1736414	0.41	2005-05-25 20:28:50.0	Ventana	34.51	02:50:20:14	4.069	V2669-03
 	transect	bathocyroe	600.53	2681	 	36.697803	-122.05371	2493861	0.3	2005-07-07 18:28:13.0	Ventana	34.387	01:58:35:05	5.478	V2681-02HD
 	transect	molt	100.54	2681	 	36.69983	-122.05429	2489580	2.12	2005-07-07 16:45:24.0	Ventana	34.068	00:16:32:22	9.151	V2681-01HD
 	transect	Phyllospadix	801.3	2674	 	36.75217	-122.20796	1800691	0.35	2005-06-08 18:09:38.0	Ventana	34.489	00:54:10:11	4.332	V2674-01
 	transect	Psolus squamatus	 	2687	 	 	 	1807669	 	2005-07-13 17:21:54.0	Ventana	 	00:48:47:00	 	V2687-01
 	cruise	Coryphaenoides acrolepis	 	2673	 	 	 	1668389	 	 	Ventana	 	00:19:52:22	 	V2673-01
 	transect	Stomphia	1000.29	2669	 	36.73095	-122.23369	1683929	0.45	2005-05-25 18:39:58.0	Ventana	34.522	01:01:59:02	3.912	V2669-02
 	descend	Haliscera	673.65	2682	 	36.698658	-122.05995	1721407	0.28	2005-07-08 18:12:07.0	Ventana	34.413	02:05:11:29	5.189	V2682-03
 	transect	Rathbunaster californicus	204.08	2696	 	36.805935	-122.12941	1813722	1.49	2005-08-01 18:20:28.0	Ventana	34.211	01:48:19:26	8.631	V2696-02
 	cruise	Laminariales	103.58	2688	http://search.mbari.org/ARCHIVE/frameGrabs/Ventana/images/2688/05_05_11_14.jpg	36.81402	-122.018456	20005324	1.93	2005-07-14 21:20:59.0	Ventana	34.105	05:05:11:14	8.898	V2688-05
 	descend	Appendicularia	365.47	2682	 	36.698475	-122.06005	1720484	0.99	2005-07-08 17:33:50.0	Ventana	34.256	01:27:20:16	7.056	V2682-02
 	cruise	Phyllospadix	93.87	2688	 	36.816105	-122.0166	1679385	1.96	2005-07-14 20:17:42.0	Ventana	34.094	04:02:26:20	8.934	V2688-04
 	transect	Rathbunaster californicus	203.42	2696	 	36.80738	-122.13105	1813828	1.47	2005-08-01 18:41:05.0	Ventana	34.219	02:08:10:11	8.625	V2696-03
 	transect	molt	100.57	2681	 	36.69983	-122.05429	2489543	2.13	2005-07-07 16:44:12.0	Ventana	34.067	00:15:21:00	9.146	V2681-01HD
 	ascend	Appendicularia	390.79	2681	 	36.699318	-122.05458	1717997	0.93	2005-07-07 20:48:33.267	Ventana	34.268	04:16:54:13	6.937	V2681-05
 	transect	Mesomyaria	999.76	2669	 	36.731804	-122.24456	1734378	0.4	2005-05-25 19:53:43.0	Ventana	34.506	02:15:13:05	4.08	V2669-03
 	transect	Psolus squamatus	 	2687	 	 	 	1808915	 	2005-07-13 17:31:54.0	Ventana	 	00:58:46:05	 	V2687-01
 	transect	Mesomyaria	998.72	2669	 	36.730907	-122.22974	1651167	0.45	2005-05-25 18:12:26.0	Ventana	34.521	00:34:53:03	3.912	V2669-01
 	transect	Phyllospadix	800.73	2674	 	36.75257	-122.20241	1799197	0.34	2005-06-08 17:40:47.0	Ventana	34.481	00:25:20:26	4.407	V2674-01
 	descend	Appendicularia	555.59	2681	 	36.695683	-122.051056	1715617	0.35	2005-07-07 18:06:23.9	Ventana	34.366	01:36:45:29	5.705	V2681-02
 	transect	Nanomia bijuga	200.46	2681	 	36.69828	-122.05329	2490203	1.7	2005-07-07 17:05:44.0	Ventana	34.198	00:36:52:10	8.361	V2681-01HD
 	transect	Mesomyaria	998.8	2669	 	36.73107	-122.23495	1684206	0.45	2005-05-25 18:49:19.0	Ventana	34.521	01:11:19:19	3.918	V2669-02
 	transect	Gastropoda sp.2	999.48	2669	 	36.731056	-122.23505	1694676	0.45	2005-05-25 18:50:38.0	Ventana	34.521	01:12:37:20	3.922	V2669-02
 	descend	Poeobius meseres	1157.8	2682	 	36.69821	-122.05922	1722173	0.62	2005-07-08 19:13:34.0	Ventana	34.561	03:06:11:01	3.509	V2682-04
 	stationary	manipulator	 	2680	 	 	 	1804064	 	2005-06-27 16:58:05.0	Ventana	 	00:11:55:11	 	V2680-01
 	transect	Mediaster	 	2687	 	 	 	1807503	 	2005-07-13 17:12:54.0	Ventana	 	00:39:47:20	 	V2687-01
 	transect	Phyllospadix	399.51	2687	 	36.78941	-122.12521	1809667	1.14	2005-07-13 18:32:03.0	Ventana	34.239	01:58:21:15	7.297	V2687-02
 	ascend	Copepoda	865.35	2681	 	36.69846	-122.05553	1717352	0.34	2005-07-07 19:53:20.473	Ventana	34.499	03:22:23:14	4.311	V2681-04
 	transect	Mediaster	 	2687	 	 	 	1810650	 	2005-07-13 19:26:48.0	Ventana	 	02:52:31:16	 	V2687-03
 	transect	Umbellula lindahli	599.97	2680	 	36.77849	-122.22367	1804401	0.36	2005-06-27 17:59:43.0	Ventana	34.379	00:39:49:09	5.583	V2680-01
 	transect	Poeobius meseres	1001.03	2681	 	36.69534	-122.05129	2498601	0.48	2005-07-07 19:24:12.0	Ventana	34.535	02:53:53:05	3.844	V2681-03HD
 	transect	Mesomyaria	1000.48	2669	 	36.731293	-122.24151	1689809	0.4	2005-05-25 19:36:39.0	Ventana	34.508	01:58:36:08	4.091	V2669-02
 	descend	Chuniphyes	624.58	2683	 	36.702023	-122.04897	1757039	0.33	2005-07-11 17:50:45.0	Ventana	34.375	01:34:50:24	5.608	V2683-02
 	transect	Mesomyaria	799.25	2674	 	36.751656	-122.21311	1801254	0.35	2005-06-08 18:32:11.0	Ventana	34.489	01:16:15:18	4.344	V2674-02
 	ascend	Phialidium	637.26	2681	 	36.698883	-122.05422	1717674	0.29	2005-07-07 20:27:58.05	Ventana	34.392	03:56:58:12	5.387	V2681-04
 	transect	Allocentrotus fragilis	399.86	2687	 	36.78812	-122.12163	1809238	1.13	2005-07-13 17:37:27.0	Ventana	34.243	01:03:49:25	7.255	V2687-02
 	transect	Porifera	 	2687	 	 	 	1812416	 	2005-07-13 20:37:40.0	Ventana	 	04:02:37:27	 	V2687-04
 	cruise	mud	167.05	2688	 	36.810795	-122.02174	1677973	1.94	2005-07-14 18:37:20.0	Ventana	34.098	02:22:35:07	8.91	V2688-03
 	transect	Phyllospadix	999.13	2669	 	36.73105	-122.23117	1683546	0.45	2005-05-25 18:24:03.0	Ventana	34.521	00:46:29:29	3.914	V2669-01
 	transect	Pennatulacea sp.1	601.94	2680	 	36.791374	-122.23293	1806843	0.36	2005-06-27 20:27:33.0	Ventana	34.379	03:06:09:21	5.587	V2680-03
 	descend	Appendicularia	327.66	2682	 	36.69888	-122.06068	1720161	1.11	2005-07-08 17:08:18.0	Ventana	34.244	01:01:50:19	7.24	V2682-02
 	transect	Sebastolobus altivelis	800.63	2674	 	36.75197	-122.209526	1800917	0.36	2005-06-08 18:17:31.0	Ventana	34.49	01:01:36:00	4.325	V2674-02
 	transect	Sergestes similis	300.4	2681	 	36.69845	-122.05359	2491923	1.25	2005-07-07 17:19:44.0	Ventana	34.232	00:50:52:02	7.431	V2681-01HD
 	transect	Neptunea amianta	1000.47	2669	 	36.7321	-122.24799	1736174	0.4	2005-05-25 20:18:46.0	Ventana	34.51	02:40:15:19	4.065	V2669-03
 	cruise	Holothuroidea	622.89	2688	 	36.79389	-122.019516	1677281	0.42	2005-07-14 16:27:27.0	Ventana	34.411	00:13:47:25	5.216	V2688-01
 	descend	Appendicularia	163.53	2683	 	36.700657	-122.05164	1756287	1.7	2005-07-11 16:27:15.0	Ventana	34.174	00:14:57:17	8.777	V2683-01
 	descend	Appendicularia	443.98	2682	 	36.698322	-122.05967	1720761	0.59	2005-07-08 17:47:50.0	Ventana	34.31	01:41:20:04	6.353	V2682-02
 	descend	Sergestes similis	459.43	2683	 	36.70166	-122.049324	1756716	0.78	2005-07-11 17:09:42.0	Ventana	34.283	00:57:22:04	6.672	V2683-01
 	ascend	Poeobius meseres	1150.27	2682	 	36.698235	-122.05748	1722496	0.62	2005-07-08 19:54:38.0	Ventana	34.56	03:47:13:24	3.512	V2682-04
 	ascend	Poeobius meseres	370.94	2693	 	36.696896	-122.06031	1758743	1.2	2005-07-25 20:32:54.0	Ventana	34.232	03:12:27:21	7.205	V2693-03
 	transect	Phyllospadix	196.34	2696	 	36.803017	-122.12255	1813076	1.55	2005-08-01 17:05:25.0	Ventana	34.197	00:33:43:15	8.615	V2696-01
 	transect	Nanomia bijuga	200.41	2681	 	36.698284	-122.05331	2490955	1.7	2005-07-07 17:10:11.0	Ventana	34.194	00:41:19:25	8.329	V2681-01HD
 	transect	Poeobius meseres	901.13	2681	 	36.69687	-122.053024	2498278	0.39	2005-07-07 19:06:52.0	Ventana	34.505	02:36:33:10	4.167	V2681-03HD
 	ascend	Aegina	911.15	2681	 	36.697845	-122.054565	1717029	0.37	2005-07-07 19:47:09.387	Ventana	34.503	03:16:13:03	4.199	V2681-04
 	transect	Stomphia	 	2687	 	 	 	1807180	 	2005-07-13 17:02:56.0	Ventana	 	00:29:50:13	 	V2687-01
 	transect	Calycophorae	500.59	2681	 	36.695827	-122.05127	2493658	0.43	2005-07-07 18:04:18.0	Ventana	34.349	01:34:41:11	6.006	V2681-02HD
 	starttransect	object	801.09	2674	 	36.752506	-122.19938	1773772	0.29	2005-06-08 17:22:57.0	Ventana	34.46	00:07:32:00	4.658	V2674-01
 	transect	Phyllospadix	199.42	2696	 	36.804226	-122.12601	1813399	1.52	2005-08-01 17:42:58.0	Ventana	34.209	01:10:51:28	8.661	V2696-02
 	transect	Mediaster	399.7	2687	 	36.78929	-122.12473	1809607	1.16	2005-07-13 18:23:41.0	Ventana	34.239	01:50:00:01	7.337	V2687-02
 	transect	Poeobius meseres	600.59	2681	 	36.6967	-122.052376	2493764	0.3	2005-07-07 18:23:17.0	Ventana	34.388	01:53:38:17	5.478	V2681-02HD
 	transect	Mysidae	800.88	2681	 	36.695946	-122.05189	2498218	0.31	2005-07-07 18:58:10.0	Ventana	34.476	02:27:50:26	4.496	V2681-03HD
 	transect	Ophiuroidea	999.97	2669	 	36.731415	-122.23683	1686970	0.44	2005-05-25 19:04:46.0	Ventana	34.521	01:26:45:11	3.943	V2669-02
 	transect	Phyllospadix	1000.32	2669	 	36.731285	-122.24143	1689795	0.4	2005-05-25 19:36:21.0	Ventana	34.507	01:58:18:14	4.091	V2669-02
 	descend	Aegina	714.29	2683	 	36.70217	-122.048935	1757099	0.29	2005-07-11 17:55:20.0	Ventana	34.426	01:39:25:25	4.998	V2683-02
 	transect	Porifera sp. 1	 	2687	 	 	 	1810267	 	2005-07-13 19:13:26.0	Ventana	 	02:39:10:12	 	V2687-03
 	descend	Nanomia	414.19	2683	 	36.701435	-122.04957	1756656	0.92	2005-07-11 17:05:37.0	Ventana	34.264	00:53:16:09	6.886	V2683-01
 	transect	Psolus squamatus	 	2687	 	 	 	1808592	 	2005-07-13 17:24:36.0	Ventana	 	00:51:28:26	 	V2687-01
 	ascend	Solmissus	353.7	2683	 	36.703743	-122.050606	1758068	1.11	2005-07-11 21:22:18.0	Ventana	34.24	04:55:09:20	7.117	V2683-05
 	transect	Lycodes cortezianus	 	2687	 	 	 	1810004	 	2005-07-13 18:50:07.0	Ventana	 	02:15:53:03	 	V2687-03
 	transect	Mediaster	 	2687	 	 	 	1811724	 	2005-07-13 20:22:27.0	Ventana	 	03:47:25:11	 	V2687-04
 	ascend	Appendicularia	559.35	2682	 	36.698265	-122.062584	1723600	0.38	2005-07-08 21:07:50.0	Ventana	34.359	04:59:56:28	5.841	V2682-05
 	transect	Mysidae	700.58	2681	 	36.695606	-122.05146	2497909	0.28	2005-07-07 18:45:48.0	Ventana	34.435	02:15:31:22	4.946	V2681-03HD
 	transect	Nanomia bijuga	200.48	2681	 	36.69828	-122.05329	2490586	1.72	2005-07-07 17:07:41.0	Ventana	34.195	00:38:48:27	8.334	V2681-01HD
 	cruise	Zoarcidae	467.32	2676	 	36.802563	-122.02939	1676283	0.57	2005-06-14 16:34:33.0	Ventana	34.334	00:18:41:26	6.183	V2676-01
 	transect	Diogenidae	800.62	2674	http://search.mbari.org/ARCHIVE/frameGrabs/Ventana/images/2674/01_34_53_07.jpg	36.7512	-122.2164	1803418	0.35	2005-06-08 18:50:50.0	Ventana	34.49	01:34:53:07	4.336	V2674-02
 	descend	Chaetognatha	327.76	2693	 	36.697445	-122.06057	1758511	1.29	2005-07-25 19:47:13.0	Ventana	34.236	02:26:48:16	7.576	V2693-03
 	transect	Mediaster	 	2687	 	 	 	1810756	 	2005-07-13 19:32:00.0	Ventana	 	02:57:43:15	 	V2687-03
 	cruise	Laminariales	97.41	2688	 	36.817047	-122.01446	1679325	1.99	2005-07-14 19:59:06.0	Ventana	34.086	03:43:52:15	8.915	V2688-04
 	ascend	Merluccius productus	837.33	2682	 	36.698673	-122.05858	1723248	0.34	2005-07-08 20:21:06.0	Ventana	34.48	04:13:15:19	4.415	V2682-05
 	ascend	Nanomia	228.33	2693	 	36.69125	-122.062485	1759126	1.6	2005-07-25 21:23:26.0	Ventana	34.21	03:47:57:09	8.527	V2693-04
 	descend	Appendicularia	635.32	2681	 	36.69796	-122.05388	1715940	0.29	2005-07-07 18:29:53.467	Ventana	34.395	02:00:14:02	5.31	V2681-02
 	transect	bathylagidae	1000.99	2681	 	36.695984	-122.05219	2498661	0.47	2005-07-07 19:27:49.0	Ventana	34.532	02:57:29:15	3.869	V2681-03HD
 	transect	Phyllospadix	799.41	2674	 	36.75271	-122.20072	1774141	0.29	2005-06-08 17:32:24.0	Ventana	34.454	00:16:57:25	4.638	V2674-01
 	transect	Chionoecetes tanneri	802.25	2674	 	36.7523	-122.20579	1799842	0.36	2005-06-08 17:58:55.0	Ventana	34.49	00:43:27:25	4.333	V2674-01
 	transect	Poeobius meseres	500.59	2681	 	36.697914	-122.05366	2493275	0.44	2005-07-07 17:55:09.0	Ventana	34.346	01:25:32:01	6.021	V2681-02HD
 	transect	Mediaster	 	2687	 	 	 	1812799	 	2005-07-13 20:58:18.0	Ventana	 	04:22:48:01	 	V2687-05
 	ascend	Appendicularia	272.15	2681	 	36.69972	-122.05492	1718320	1.4	2005-07-07 21:04:00.233	Ventana	34.229	04:32:19:28	7.82	V2681-05
 	ascend	Appendicularia	1189.26	2683	 	36.70734	-122.047646	1757699	0.71	2005-07-11 20:22:44.0	Ventana	34.572	03:57:06:13	3.366	V2683-04
 	descend	Bathocyroe	490.86	2682	 	36.69859	-122.05977	1720821	0.47	2005-07-08 17:58:45.0	Ventana	34.339	01:52:13:27	6.105	V2682-02
 	transect	Mesomyaria	1000.1	2669	 	36.73104	-122.23939	1689149	0.41	2005-05-25 19:23:40.0	Ventana	34.517	01:45:38:09	4.046	V2669-02
 	ascend	Appendicularia	357.42	2681	 	36.699356	-122.055016	1718057	1.03	2005-07-07 20:51:55.367	Ventana	34.258	04:20:16:10	7.139	V2681-05
 	transect	cydippida	400.78	2681	 	36.69647	-122.05198	2493012	0.79	2005-07-07 17:43:59.0	Ventana	34.277	01:14:24:06	6.641	V2681-02HD
 	transect	Phyllospadix	196.5	2696	 	36.80317	-122.12291	1813136	1.56	2005-08-01 17:09:34.0	Ventana	34.196	00:37:53:07	8.626	V2696-01
 	transect	Allocentrotus fragilis	 	2687	 	 	 	1808855	 	2005-07-13 17:30:30.0	Ventana	 	00:57:22:02	 	V2687-01
 	transect	Psolus squamatus	 	2687	 	 	 	1811019	 	2005-07-13 19:48:31.0	Ventana	 	03:13:31:28	 	V2687-04
 	transect	Gastropoda sp.2	999.56	2669	 	36.730766	-122.22951	1695045	0.45	2005-05-25 18:10:44.0	Ventana	34.523	00:33:11:03	3.906	V2669-01
 	descend	Poeobius meseres	979.67	2681	 	36.69464	-122.050385	1716540	0.45	2005-07-07 19:19:31.733	Ventana	34.525	02:49:13:17	3.94	V2681-03
 	cruise	rock outcrop	126.36	2676	http://search.mbari.org/ARCHIVE/frameGrabs/Ventana/images/2676/01_42_20_22.jpg	36.80849	-122.031204	1676898	1.73	2005-06-14 18:02:41.0	Ventana	34.172	01:42:20:22	8.332	V2676-02
 	stationary	Merluccius productus	502.29	2694	 	36.78463	-122.20046	1676635	0.85	2005-07-27 20:06:31.0	Ventana	34.272	02:38:40:07	6.696	V2694-03
 	ascend	Appendicularia	527.36	2681	 	36.698967	-122.05425	1717734	0.43	2005-07-07 20:33:20.733	Ventana	34.348	04:02:21:22	6.033	V2681-04
 	transect	Psolus squamatus	 	2687	 	 	 	1810387	 	2005-07-13 19:16:51.0	Ventana	 	02:42:35:29	 	V2687-03
 	transect	Psolus squamatus	 	2687	 	 	 	1810959	 	2005-07-13 19:44:09.0	Ventana	 	03:09:10:23	 	V2687-04
 	transect	Sebastes diploproa	399.84	2687	 	36.78808	-122.121574	1809178	1.13	2005-07-13 17:36:39.0	Ventana	34.241	01:03:01:21	7.262	V2687-02
 	cruise	Xeneretmus	253.11	2688	 	36.80932	-122.02037	1677913	1.52	2005-07-14 18:29:53.0	Ventana	34.193	02:15:08:26	8.19	V2688-03
 	ascend	Phialidium	688.27	2681	 	36.69873	-122.05464	1717615	0.28	2005-07-07 20:21:59.773	Ventana	34.417	03:51:00:20	5.143	V2681-04
 	transect	Sergestes similis	500.63	2681	 	36.696438	-122.052	2493598	0.44	2005-07-07 18:01:23.0	Ventana	34.348	01:31:46:03	6.01	V2681-02HD
 	ascend	Euphausiacea	261.16	2681	 	36.69884	-122.05701	1719012	1.42	2005-07-07 21:20:53.033	Ventana	34.23	04:49:11:21	7.953	V2681-05
 	ascend	Appendicularia	516.94	2682	 	36.69829	-122.06302	1723660	0.46	2005-07-08 21:11:49.0	Ventana	34.34	05:03:31:15	6.1	V2682-06
 	cruise	Lycodapus	998.32	2679	 	36.68986	-122.1656	1824358	0.42	2005-06-16 17:32:22.0	Ventana	34.513	00:03:44:28	4.109	V2679-01
 	ascend	Chaetognatha	262.7	2681	 	36.69945	-122.054565	1718486	1.41	2005-07-07 21:10:12.933	Ventana	34.231	04:38:32:07	7.925	V2681-05
 	cruise	Vertebrata	381.57	2690	http://search.mbari.org/ARCHIVE/frameGrabs/Ventana/images/2690/01_19_48_18.jpg	36.79013	-121.8872	20005444	0.95	2005-07-18 20:04:43.0	Ventana	34.266	01:19:48:18	6.97	V2690-01
 	transect	Ophiuroidea	1000.01	2669	 	36.731113	-122.24	1689209	0.41	2005-05-25 19:27:27.0	Ventana	34.51	01:49:25:17	4.059	V2669-02
 	transect	Mesomyaria	1000.29	2669	 	36.731255	-122.241295	1689412	0.4	2005-05-25 19:35:35.0	Ventana	34.508	01:57:33:03	4.086	V2669-02
 	transect	Gastropoda sp.2	1000.11	2669	 	36.731056	-122.23932	1694736	0.42	2005-05-25 19:23:17.0	Ventana	34.516	01:45:14:25	3.995	V2669-02
 	ascend	Calycophorae	953.84	2681	 	36.697346	-122.05375	1716863	0.42	2005-07-07 19:40:26.567	Ventana	34.516	03:09:30:10	4.051	V2681-04
 	transect	Mesomyaria	998.45	2669	 	36.731182	-122.23451	1684146	0.45	2005-05-25 18:45:58.0	Ventana	34.522	01:07:58:22	3.916	V2669-02
 	transect	Nanomia bijuga	400.8	2681	 	36.695965	-122.05139	2492938	0.79	2005-07-07 17:41:47.0	Ventana	34.277	01:12:10:11	6.662	V2681-02HD
 	transect	Ophiuroidea	999.27	2669	http://search.mbari.org/ARCHIVE/frameGrabs/Ventana/images/2669/01_21_20_16.jpg	36.73142	-122.236244	1684695	0.44	2005-05-25 18:59:21.0	Ventana	34.52	01:21:20:16	3.941	V2669-02
 	ascend	Appendicularia	334.52	2693	 	36.69253	-122.061874	1759006	1.27	2005-07-25 21:14:53.0	Ventana	34.252	03:39:25:11	7.523	V2693-04
 	transect	Mesomyaria	998.15	2669	 	36.73297	-122.25229	1737420	0.4	2005-05-25 20:47:07.0	Ventana	34.508	03:07:55:20	4.076	V2669-04
 	transect	Phyllospadix	801.03	2674	 	36.752537	-122.20139	1774201	0.35	2005-06-08 17:35:31.0	Ventana	34.485	00:20:04:29	4.379	V2674-01
 	transect	Psolus squamatus	 	2687	 	 	 	1808975	 	2005-07-13 17:32:54.0	Ventana	 	00:59:46:00	 	V2687-01
 	transect	Calliostoma platinum	 	2687	 	 	 	1811139	 	2005-07-13 19:56:22.0	Ventana	 	03:21:21:28	 	V2687-04
 	transect	Appendicularia	300.41	2681	 	36.697598	-122.05304	2492186	1.24	2005-07-07 17:22:53.0	Ventana	34.233	00:54:01:10	7.406	V2681-01HD
 	transect	Ceriantharia sp. 1	601.2	2680	 	36.776833	-122.222115	1804138	0.36	2005-06-27 17:38:53.0	Ventana	34.378	00:19:01:04	5.578	V2680-01
 	ascend	Calycophorae	603.11	2682	 	36.698643	-122.06151	1723511	0.34	2005-07-08 20:56:21.0	Ventana	34.375	04:48:28:27	5.638	V2682-05
 	transect	Ceriantharia sp. 2	1000.02	2669	 	36.731236	-122.23825	1688840	0.43	2005-05-25 19:16:48.0	Ventana	34.517	01:38:47:03	3.957	V2669-02
 	cruise	Nanomia	173.91	2676	 	36.808025	-122.03012	1676838	1.64	2005-06-14 17:48:55.0	Ventana	34.19	01:28:38:28	8.163	V2676-02
 	transect	Psolus squamatus	 	2687	 	 	 	1811461	 	2005-07-13 20:13:45.0	Ventana	 	03:38:44:07	 	V2687-04
 	transect	Mediaster	 	2687	 	 	 	1808795	 	2005-07-13 17:29:40.0	Ventana	 	00:56:32:04	 	V2687-01
 	transect	Mediaster	 	2687	 	 	 	1809930	 	2005-07-13 18:48:14.0	Ventana	 	02:14:00:09	 	V2687-03
 	ascend	Lobata	335.62	2681	 	36.699482	-122.05527	1718117	1.15	2005-07-07 20:54:36.233	Ventana	34.245	04:22:57:01	7.297	V2681-05
 	transect	Neptunea amianta	803.14	2674	 	36.750835	-122.220184	1803681	0.34	2005-06-08 19:07:30.0	Ventana	34.49	01:51:32:02	4.397	V2674-02
 	transect	Psolus squamatus	 	2687	 	 	 	1808652	 	2005-07-13 17:26:18.0	Ventana	 	00:53:11:07	 	V2687-01
 	ascend	Appendicularia	1155.33	2683	 	36.70802	-122.04885	1757759	0.69	2005-07-11 20:35:02.0	Ventana	34.569	04:09:23:18	3.416	V2683-04
 	transect	Caridea sp.1	599.88	2680	 	36.783527	-122.22897	1805416	0.35	2005-06-27 19:08:18.0	Ventana	34.379	01:47:22:05	5.585	V2680-02
 	transect	Mediaster	 	2687	 	 	 	1812739	 	2005-07-13 20:55:33.0	Ventana	 	04:20:02:23	 	V2687-05
 	transect	Appendicularia	400.74	2681	 	36.696945	-122.05256	2493072	0.79	2005-07-07 17:46:04.0	Ventana	34.277	01:16:28:03	6.659	V2681-02HD
 	transect	Mesomyaria	1000.41	2669	 	36.731556	-122.24288	1694556	0.4	2005-05-25 19:43:54.0	Ventana	34.505	02:05:51:18	4.096	V2669-02
 	transect	Nanomia bijuga	400.73	2681	 	36.697834	-122.053535	2493215	0.79	2005-07-07 17:49:43.0	Ventana	34.278	01:20:06:10	6.66	V2681-02HD
 	ascend	Sternoptychidae	254.91	2681	 	36.698555	-122.05636	1719146	1.46	2005-07-07 21:23:51.733	Ventana	34.226	04:52:10:07	7.999	V2681-05
 	transect	Phyllospadix	803.0	2674	 	36.752277	-122.20613	1799902	0.36	2005-06-08 18:00:40.0	Ventana	34.488	00:45:12:24	4.335	V2674-01
 	transect	Neptunea amianta	799.87	2674	 	36.751762	-122.21215	1801180	0.35	2005-06-08 18:28:42.0	Ventana	34.487	01:12:46:09	4.339	V2674-02
 	transect	Ceriantharia sp. 2	999.9	2669	 	36.7326	-122.25085	1737037	0.4	2005-05-25 20:38:09.0	Ventana	34.508	02:59:38:01	4.082	V2669-03
 	transect	Umbellula lindahli	599.79	2680	 	36.77804	-122.2232	1804341	0.36	2005-06-27 17:53:31.0	Ventana	34.377	00:33:38:13	5.591	V2680-01
 	transect	Mediaster	 	2687	 	 	 	1812213	 	2005-07-13 20:29:12.0	Ventana	 	03:54:10:28	 	V2687-04
 	transect	Solmissus	300.45	2681	 	36.69823	-122.0535	2491983	1.24	2005-07-07 17:20:40.0	Ventana	34.232	00:51:47:14	7.415	V2681-01HD
 	ascend	Appendicularia	745.24	2682	 	36.69879	-122.05919	1723308	0.29	2005-07-08 20:29:09.0	Ventana	34.442	04:21:18:16	4.855	V2682-05
 	transect	Phyllospadix	999.23	2669	 	36.73139	-122.23607	1684529	0.44	2005-05-25 18:57:55.0	Ventana	34.52	01:19:55:03	3.939	V2669-02
 	transect	Mediaster	 	2687	 	 	 	1807563	 	2005-07-13 17:15:33.0	Ventana	 	00:42:25:24	 	V2687-01
 	transect	molt	100.51	2681	 	36.69983	-122.05429	2489663	2.13	2005-07-07 16:47:23.0	Ventana	34.068	00:18:32:03	9.148	V2681-01HD
 	transect	Gastropoda sp.2	1000.28	2669	 	36.730946	-122.23339	1695105	0.45	2005-05-25 18:38:36.0	Ventana	34.522	01:01:01:16	3.912	V2669-01
 	descend	Poeobius meseres	849.97	2681	 	36.696968	-122.05321	1716480	0.33	2005-07-07 19:04:29.6	Ventana	34.491	02:34:11:27	4.34	V2681-03
 	transect	Mesomyaria	1000.28	2669	 	36.7316	-122.24324	1733792	0.41	2005-05-25 19:45:57.0	Ventana	34.51	02:07:29:29	4.063	V2669-03
 	descend	Nanomia	400.58	2681	 	36.695675	-122.05106	1715248	0.79	2005-07-07 17:39:39.267	Ventana	34.278	01:10:02:29	6.672	V2681-02
 	descend	Teuthoidea	461.72	2688	 	36.793438	-122.0183	1677221	0.89	2005-07-14 16:14:26.0	Ventana	34.272	00:00:47:03	6.843	V2688-01
 	descend	Pleurobrachia	142.74	2682	 	36.69984	-122.0607	1719898	2.18	2005-07-08 16:18:15.0	Ventana	34.116	00:12:20:12	8.676	V2682-01
 	ascend	Appendicularia	370.56	2693	 	36.695606	-122.06065	1758803	1.21	2005-07-25 20:53:40.0	Ventana	34.231	03:18:14:09	7.239	V2693-04
 	ascend	Euphausiacea	179.1	2683	 	36.702583	-122.05071	1758128	1.79	2005-07-11 21:30:00.0	Ventana	34.159	05:02:52:02	8.791	V2683-05
 	transect	Mediaster	 	2687	 	 	 	1811342	 	2005-07-13 20:08:37.0	Ventana	 	03:33:36:09	 	V2687-04
 	transect	Calycophorae	300.41	2681	 	36.696186	-122.05183	2492555	1.24	2005-07-07 17:27:41.0	Ventana	34.233	00:58:46:27	7.427	V2681-01HD
 	descend	Appendicularia	285.18	2682	 	36.699383	-122.060684	1720101	1.25	2005-07-08 16:49:51.0	Ventana	34.233	00:43:53:28	7.53	V2682-01
 	transect	Lycenchelys crotalinus	998.89	2669	http://search.mbari.org/ARCHIVE/frameGrabs/Ventana/images/2669/03_02_54_13.jpg	36.732796	-122.25145	1737217	0.41	2005-05-25 20:42:05.0	Ventana	34.509	03:02:54:13	4.072	V2669-04
 	transect	Mesomyaria	999.44	2669	 	36.731068	-122.23394	1684003	0.45	2005-05-25 18:41:26.0	Ventana	34.522	01:03:26:25	3.913	V2669-02
 	cruise	Lycodapus	1225.1	2683	 	36.706005	-122.04777	1757579	0.73	2005-07-11 19:58:55.0	Ventana	34.581	03:33:17:21	3.322	V2683-04
 	transect	Rathbunaster californicus	199.98	2696	 	36.80452	-122.12666	1813459	1.51	2005-08-01 17:49:42.0	Ventana	34.212	01:17:35:11	8.667	V2696-02
 	transect	Mesomyaria	999.53	2669	 	36.73097	-122.23165	1683666	0.45	2005-05-25 18:28:22.0	Ventana	34.523	00:50:48:13	3.912	V2669-01
 	ascend	Copepoda	929.88	2682	 	36.69793	-122.0585	1723128	0.38	2005-07-08 20:12:03.0	Ventana	34.505	04:04:14:12	4.188	V2682-05
 	ascend	Colobonema	370.99	2693	 	36.696236	-122.060844	1758654	1.2	2005-07-25 20:25:42.0	Ventana	34.232	03:05:15:19	7.166	V2693-03
 	transect	Euplexaura	399.68	2687	 	36.789143	-122.1242	1809547	1.18	2005-07-13 18:15:25.0	Ventana	34.238	01:41:45:00	7.36	V2687-02
 	descend	Phialidium	1003.23	2683	 	36.7041	-122.04977	1757376	0.44	2005-07-11 19:16:32.0	Ventana	34.521	02:56:54:09	4.0	V2683-03
 	transect	Mesomyaria	798.3	2674	 	36.751614	-122.21385	1801314	0.35	2005-06-08 18:37:22.0	Ventana	34.488	01:21:25:18	4.338	V2674-02
 	transect	Mesomyaria	800.71	2674	 	36.751144	-122.2172	1803478	0.35	2005-06-08 18:54:31.0	Ventana	34.489	01:38:34:14	4.336	V2674-02
 	transect	Mediaster	 	2687	 	 	 	1811844	 	2005-07-13 20:26:56.0	Ventana	 	03:51:55:00	 	V2687-04
 	cruise	Rathbunaster californicus	444.07	2676	 	36.80314	-122.029236	1676343	0.63	2005-06-14 16:38:57.0	Ventana	34.334	00:23:06:04	6.371	V2676-01
 	transect	Mesomyaria	800.03	2674	 	36.752098	-122.20868	1800797	0.35	2005-06-08 18:12:56.0	Ventana	34.49	00:57:27:12	4.329	V2674-01
 	ascend	Appendicularia	826.65	2681	 	36.698822	-122.05634	1717412	0.31	2005-07-07 19:58:12.267	Ventana	34.481	03:27:14:13	4.44	V2681-04
 	cruise	Zoarcidae	468.7	2688	 	36.802376	-122.01823	1677590	0.83	2005-07-14 17:30:19.0	Ventana	34.279	01:16:03:23	6.742	V2688-02
 	ascend	Cydippida	258.17	2681	 	36.697838	-122.05522	1719529	 	2005-07-07 21:29:59.0	Ventana	 	05:11:31:24	 	V2681-05
 	transect	Sebastolobus	 	2687	 	 	 	1811664	 	2005-07-13 20:20:06.0	Ventana	 	03:45:04:23	 	V2687-04
 	transect	molt	100.52	2681	 	36.698956	-122.053734	2489866	2.12	2005-07-07 16:52:02.0	Ventana	34.07	00:23:11:05	9.148	V2681-01HD
 	transect	Chionoecetes tanneri	802.63	2674	 	36.751846	-122.21002	1800977	0.36	2005-06-08 18:20:06.0	Ventana	34.492	01:04:11:11	4.32	V2674-02
 	descend	Hastigerinella digitata	296.93	2681	 	36.69857	-122.053734	1713633	1.26	2005-07-07 17:18:10.533	Ventana	34.232	00:49:18:04	7.478	V2681-01
 	transect	Mesomyaria	998.06	2669	 	36.731133	-122.23099	1683486	0.45	2005-05-25 18:22:22.0	Ventana	34.523	00:44:48:18	3.912	V2669-01
 	transect	Stomphia	 	2669	 	 	 	1737586	 	2005-05-25 13:52:23.0	Ventana	 	03:13:10:23	 	V2669-04
 	transect	Ceriantharia sp. 1	599.42	2680	 	36.77945	-122.22454	1804521	0.36	2005-06-27 18:10:14.0	Ventana	34.377	00:50:19:25	5.605	V2680-01
 	transect	Phyllospadix	198.62	2696	 	36.803707	-122.12471	1813279	1.53	2005-08-01 17:30:20.0	Ventana	34.209	00:58:36:27	8.63	V2696-01
 	transect	Sebastolobus	999.73	2669	 	36.730995	-122.23246	1683749	0.45	2005-05-25 18:33:18.0	Ventana	34.522	00:55:44:18	3.911	V2669-01
 	transect	Stomphia	 	2687	 	 	 	1812619	 	2005-07-13 20:47:59.0	Ventana	 	04:12:30:03	 	V2687-05
 	descend	Myctophidae	308.56	2681	 	36.695656	-122.05129	1713656	1.19	2005-07-07 17:30:09.237	Ventana	34.236	01:01:16:18	7.321	V2681-01
 	ascend	Appendicularia	345.62	2693	 	36.693554	-122.06133	1758923	1.25	2005-07-25 21:09:07.0	Ventana	34.236	03:33:39:25	7.385	V2693-04
 	transect	Psolus squamatus	 	2687	 	 	 	1810124	 	2005-07-13 18:58:42.0	Ventana	 	02:24:27:21	 	V2687-03
 	transect	Psolus squamatus	 	2687	 	 	 	1807706	 	2005-07-13 17:23:40.0	Ventana	 	00:50:33:05	 	V2687-01
 	descend	Appendicularia	820.67	2682	 	36.698357	-122.05954	1721716	0.31	2005-07-08 18:43:17.0	Ventana	34.476	02:36:20:11	4.482	V2682-03
 	transect	Mesomyaria	800.35	2674	 	36.75174	-122.21156	1801120	0.35	2005-06-08 18:26:16.0	Ventana	34.486	01:10:20:08	4.34	V2674-02
 	transect	Microstomus pacificus	 	2687	 	 	 	1807046	 	2005-07-13 16:56:20.0	Ventana	 	00:23:14:14	 	V2687-01
 	ascend	Appendicularia	253.92	2681	 	36.6983	-122.055756	1719206	1.46	2005-07-07 21:24:56.71	Ventana	34.227	04:53:15:19	8.0	V2681-05
 	transect	Psolus squamatus	 	2687	http://search.mbari.org/ARCHIVE/frameGrabs/Ventana/images/2687/03_40_03_15.jpg	 	 	1811521	 	2005-07-13 20:15:04.0	Ventana	 	03:40:03:15	 	V2687-04
 	transect	Ceriantharia sp. 1	603.25	2680	 	36.788795	-122.23244	1805971	0.35	2005-06-27 20:03:36.0	Ventana	34.38	02:42:14:08	5.587	V2680-03
 	descend	Appendicularia	296.84	2683	 	36.701065	-122.050156	1756490	1.26	2005-07-11 16:53:31.0	Ventana	34.243	00:41:11:08	7.723	V2683-01
 	cruise	Pleuronectiformes	419.46	2676	 	36.803707	-122.02921	1676426	0.68	2005-06-14 16:42:45.0	Ventana	34.307	00:26:53:07	6.498	V2676-01
 	ascend	Cydippida 2	967.25	2681	 	36.697124	-122.05353	1716803	0.43	2005-07-07 19:37:59.6	Ventana	34.519	03:07:03:01	4.017	V2681-04
 	transect	Mesomyaria	799.4	2674	 	36.752457	-122.20516	1799723	0.36	2005-06-08 17:55:38.0	Ventana	34.486	00:40:10:22	4.357	V2674-01
 	ascend	sinker	902.2	2681	 	36.697987	-122.05474	1717149	0.37	2005-07-07 19:48:35.59	Ventana	34.503	03:17:38:11	4.203	V2681-04
 	transect	molt	100.5	2681	 	36.699802	-122.054276	2489746	2.12	2005-07-07 16:49:29.0	Ventana	34.067	00:20:37:24	9.156	V2681-01HD
 	transect	Phyllospadix	801.83	2674	 	36.752266	-122.2071	1800022	0.36	2005-06-08 18:05:15.0	Ventana	34.492	00:49:47:11	4.356	V2674-01
 	descend	Euphausia 2	208.59	2682	 	36.69989	-122.060715	1719958	1.87	2005-07-08 16:21:06.56	Ventana	34.17	00:15:11:04	7.985	V2682-01
 	transect	Rathbunaster californicus	198.2	2696	 	36.803608	-122.124405	1813256	1.53	2005-08-01 17:27:15.0	Ventana	34.202	00:55:32:05	8.62	V2696-01
 	transect	Ceriantharia sp. 2	1000.0	2669	 	36.73258	-122.25025	1736954	0.41	2005-05-25 20:35:03.0	Ventana	34.509	02:56:30:12	4.067	V2669-03
 	transect	Neptunea amianta	602.64	2680	 	36.7897	-122.232574	1806723	0.35	2005-06-27 20:13:06.0	Ventana	34.379	02:51:42:24	5.587	V2680-03
 	descend	Appendicularia	1039.36	2682	 	36.698326	-122.05914	1722039	0.47	2005-07-08 19:02:57.0	Ventana	34.531	02:55:59:03	3.865	V2682-03
 	transect	Phyllospadix	999.58	2669	 	36.73195	-122.246124	1735625	0.41	2005-05-25 20:04:41.0	Ventana	34.508	02:26:12:25	4.063	V2669-03
 	transect	Umbellula lindahli	599.45	2680	 	36.779625	-122.22469	1804544	0.36	2005-06-27 18:12:07.0	Ventana	34.377	00:52:13:06	5.608	V2680-01
 	transect	Appendicularia	300.42	2681	 	36.696796	-122.05235	2492472	1.23	2005-07-07 17:25:36.0	Ventana	34.234	00:56:43:03	7.391	V2681-01HD
 	transect	Chaetognatha	901.02	2681	 	36.695774	-122.051704	2498398	0.39	2005-07-07 19:12:10.0	Ventana	34.505	02:41:51:16	4.174	V2681-03HD
 	transect	Mediaster	 	2687	 	 	 	1811867	 	2005-07-13 20:27:38.0	Ventana	 	03:52:36:22	 	V2687-04
 	transect	Mesomyaria	799.82	2674	 	36.752537	-122.20388	1799400	0.35	2005-06-08 17:48:16.0	Ventana	34.488	00:32:49:05	4.37	V2674-01
 	ascend	Nanomia	258.17	2681	 	36.697838	-122.05522	1719552	 	2005-07-07 21:29:59.0	Ventana	 	05:12:57:18	 	V2681-05
 	descend	Copepoda	1153.56	2683	 	36.705116	-122.048904	1757496	0.65	2005-07-11 19:33:52.0	Ventana	34.556	03:14:12:24	3.523	V2683-03
 	transect	Actiniaria sp. 1	800.21	2674	 	36.75209	-122.20857	1800774	0.35	2005-06-08 18:12:21.0	Ventana	34.488	00:56:53:06	4.326	V2674-01
 	transect	Radiolaria	700.64	2681	 	36.69652	-122.05244	2497729	0.28	2005-07-07 18:41:39.0	Ventana	34.434	02:11:21:14	4.959	V2681-03HD
 	cruise	rockwall	105.78	2676	 	36.808445	-122.0372	1677101	1.97	2005-06-14 18:55:35.267	Ventana	34.152	02:34:21:08	8.466	V2676-03
 	transect	Brisaster	800.47	2674	 	36.751064	-122.2179	1803538	0.35	2005-06-08 18:57:52.0	Ventana	34.486	01:41:55:02	4.377	V2674-02
 	transect	Asteronyx loveni	997.34	2669	 	36.730618	-122.22767	1649206	0.45	2005-05-25 17:58:33.0	Ventana	34.521	00:21:02:00	3.908	V2669-01
 	ascend	Appendicularia	260.8	2681	 	36.69886	-122.05698	1718952	1.42	2005-07-07 21:20:04.7	Ventana	34.23	04:48:24:12	7.957	V2681-05
 	transect	Phyllospadix	799.09	2674	 	36.751434	-122.214714	1801374	0.35	2005-06-08 18:43:01.0	Ventana	34.49	01:27:04:22	4.332	V2674-02
 	ascend	Crustacea	673.41	2683	 	36.70551	-122.04951	1757902	0.31	2005-07-11 21:07:40.0	Ventana	34.428	04:40:32:23	5.042	V2683-05
 	cruise	Actiniaria	98.96	2688	 	36.813023	-122.02053	1679528	1.94	2005-07-14 21:28:51.0	Ventana	34.108	05:13:03:12	8.877	V2688-05
 	transect	Nanomia bijuga	200.43	2681	 	36.69828	-122.05329	2490323	1.7	2005-07-07 17:06:54.0	Ventana	34.198	00:38:02:18	8.347	V2681-01HD
 	transect	Teuthoidea	900.98	2681	 	36.69492	-122.05056	2498481	0.39	2005-07-07 19:16:31.0	Ventana	34.505	02:46:11:20	4.168	V2681-03HD
 	transect	Ophiuroidea	999.73	2669	 	36.73055	-122.22895	1651024	0.45	2005-05-25 18:06:18.0	Ventana	34.523	00:28:46:04	3.905	V2669-01
 	transect	Allocentrotus fragilis	 	2687	 	 	 	1810816	 	2005-07-13 19:35:22.0	Ventana	 	03:01:04:29	 	V2687-03
 	descend	Appendicularia	502.61	2683	 	36.70147	-122.04915	1756836	0.68	2005-07-11 17:37:21.0	Ventana	34.305	01:21:27:14	6.463	V2683-02
 	transect	Euphausia	200.45	2681	 	36.69828	-122.05329	2490060	1.7	2005-07-07 17:04:28.0	Ventana	34.197	00:35:35:09	8.362	V2681-01HD
 	transect	Sebastolobus	399.87	2687	 	36.788033	-122.1215	1809058	1.14	2005-07-13 17:35:36.0	Ventana	34.237	01:01:59:01	7.276	V2687-02
 	stationary	Appendicularia	504.22	2695	 	36.78466	-122.20051	1824501	0.68	2005-07-28 19:15:02.0	Ventana	34.294	04:21:16:10	6.31	V2695-02
 	transect	Parastichopus leukothele	203.74	2696	 	36.805264	-122.128204	1813685	1.48	2005-08-01 18:14:53.0	Ventana	34.213	01:42:45:08	8.63	V2696-02
 	transect	Ophiuroidea	998.29	2669	 	36.731026	-122.23031	1651287	0.45	2005-05-25 18:16:56.0	Ventana	34.522	00:39:23:15	3.911	V2669-01
 	ascend	Siphonophora	106.1	2682	 	36.696026	-122.060265	1723780	2.33	2005-07-08 21:35:24.0	Ventana	34.024	05:27:04:14	9.342	V2682-06
 	descend	Appendicularia	215.22	2693	 	36.696075	-122.05821	1758331	1.69	2005-07-25 18:26:54.0	Ventana	34.192	01:06:59:28	8.613	V2693-02
 	transect	Phyllospadix	601.17	2680	 	36.786697	-122.23122	1805888	0.36	2005-06-27 19:41:12.0	Ventana	34.377	02:19:51:12	5.603	V2680-03
 	transect	Allocentrotus fragilis	 	2687	 	 	 	1811282	 	2005-07-13 20:05:34.0	Ventana	 	03:30:33:21	 	V2687-04
 	cruise	Parastichopus	369.45	2676	 	36.80449	-122.02909	1676486	0.95	2005-06-14 16:45:56.853	Ventana	34.27	00:30:04:21	7.042	V2676-01
 	transect	Mesomyaria	1000.93	2669	 	36.73229	-122.24932	1736377	0.41	2005-05-25 20:28:05.0	Ventana	34.51	02:49:33:16	4.07	V2669-03
 	transect	Psolus squamatus	 	2687	 	 	 	1808772	 	2005-07-13 17:29:06.0	Ventana	 	00:55:58:19	 	V2687-01
 	ascend	Appendicularia	329.36	2681	 	36.699688	-122.055214	1718140	1.18	2005-07-07 20:56:17.24	Ventana	34.239	04:24:37:29	7.335	V2681-05
 	descend	Appendicularia	850.01	2683	 	36.70289	-122.04838	1757233	0.34	2005-07-11 18:25:33.0	Ventana	34.484	02:09:36:02	4.385	V2683-02
 	ascend	Solmissus	364.25	2693	 	36.694378	-122.06103	1758863	1.24	2005-07-25 21:01:37.0	Ventana	34.239	03:26:11:05	7.357	V2693-04
 	ascend	Calycophorae	420.7	2681	 	36.699093	-122.05423	1717794	0.77	2005-07-07 20:38:30.543	Ventana	34.278	04:07:30:22	6.63	V2681-04
 	transect	Euphausia	200.38	2681	 	36.69829	-122.053345	2491075	1.7	2005-07-07 17:11:32.0	Ventana	34.196	00:42:39:19	8.332	V2681-01HD
 	transect	Poeobius meseres	400.75	2681	 	36.69766	-122.05337	2493192	0.79	2005-07-07 17:49:03.0	Ventana	34.278	01:19:26:22	6.659	V2681-02HD
 	transect	Ceriantharia sp. 2	1000.16	2669	 	36.73091	-122.23268	1683809	0.45	2005-05-25 18:35:08.0	Ventana	34.522	00:57:33:21	3.918	V2669-01
 	ascend	Copepoda	733.82	2681	 	36.69872	-122.05544	1717555	0.26	2005-07-07 20:16:54.693	Ventana	34.441	03:45:56:06	4.863	V2681-04
 	transect	Mediaster	 	2687	 	 	 	1812273	 	2005-07-13 20:30:22.0	Ventana	 	03:55:20:03	 	V2687-04
 	transect	Gastropoda	200.83	2696	 	36.805252	-122.12818	1813602	1.5	2005-08-01 18:03:33.0	Ventana	34.21	01:31:25:20	8.668	V2696-02
 	descend	Appendicularia	813.57	2683	 	36.702755	-122.048584	1757182	0.36	2005-07-11 18:11:01.0	Ventana	34.472	01:55:06:16	4.524	V2683-02
 	transect	Psolus squamatus	399.84	2687	http://search.mbari.org/ARCHIVE/frameGrabs/Ventana/images/2687/01_02_17_21.jpg	36.788036	-122.12153	1809118	1.13	2005-07-13 17:35:55.0	Ventana	34.244	01:02:17:21	7.27	V2687-02
 	transect	Mediaster	 	2687	 	 	 	1812536	 	2005-07-13 20:44:29.0	Ventana	 	04:08:59:26	 	V2687-05
 	transect	Mesomyaria	801.52	2674	 	36.752167	-122.207825	1800105	0.35	2005-06-08 18:08:41.0	Ventana	34.489	00:53:12:25	4.327	V2674-01
 	transect	Aegina	600.54	2681	 	36.697277	-122.05307	2493824	0.3	2005-07-07 18:25:54.0	Ventana	34.35	01:56:16:14	5.469	V2681-02HD
 	transect	Mesomyaria	1000.1	2669	 	36.731224	-122.238396	1688863	0.43	2005-05-25 19:17:48.0	Ventana	34.516	01:39:46:08	3.976	V2669-02
 	ascend	Apolemia	507.02	2683	 	36.70442	-122.0506	1757985	0.54	2005-07-11 21:16:02.0	Ventana	34.322	04:48:54:18	6.257	V2683-05
 	transect	Mesomyaria	1000.24	2669	 	36.731266	-122.240906	1689329	0.41	2005-05-25 19:33:14.0	Ventana	34.51	01:55:12:01	4.057	V2669-02
 	descend	Myctophidae	660.53	2682	 	36.698647	-122.05994	1721370	0.28	2005-07-08 18:10:57.0	Ventana	34.411	02:04:01:28	5.22	V2682-03
 	cruise	Brisingida	537.44	2688	http://search.mbari.org/ARCHIVE/frameGrabs/Ventana/images/2688/00_48_08_09.jpg	36.798424	-122.01957	1677447	0.62	2005-07-14 17:01:52.0	Ventana	34.327	00:48:08:09	6.24	V2688-01
 	transect	Aegina	700.63	2681	 	36.69746	-122.05333	2497646	0.29	2005-07-07 18:37:48.0	Ventana	34.43	02:07:31:10	4.976	V2681-03HD
 	transect	Phyllospadix	801.47	2674	 	36.750954	-122.21869	1803598	0.34	2005-06-08 19:01:05.0	Ventana	34.485	01:45:07:08	4.379	V2674-02
 	transect	Euphausia	200.39	2681	 	36.698303	-122.053375	2491158	1.68	2005-07-07 17:12:22.0	Ventana	34.198	00:43:29:13	8.337	V2681-01HD
 	transect	Sebastolobus altivelis	799.96	2674	 	36.752514	-122.20338	1799317	0.35	2005-06-08 17:45:26.0	Ventana	34.484	00:29:59:20	4.372	V2674-01
 	transect	Ceriantharia sp. 2	997.52	2669	 	36.730648	-122.22784	1683343	0.45	2005-05-25 17:59:42.0	Ventana	34.522	00:22:10:01	3.907	V2669-01
 	transect	Ophiuroidea	998.31	2669	 	36.733	-122.252396	1737443	0.4	2005-05-25 20:47:44.0	Ventana	34.509	03:08:33:12	4.076	V2669-04
 	transect	Mediaster	 	2687	 	 	 	1810184	 	2005-07-13 19:06:02.0	Ventana	 	02:31:47:05	 	V2687-03
 	transect	Phyllospadix	999.0	2669	 	36.731415	-122.2362	1684672	0.44	2005-05-25 18:59:03.0	Ventana	34.52	01:21:02:22	3.94	V2669-02
 	transect	Stomphia	1000.17	2669	 	36.73144	-122.24195	1689929	0.4	2005-05-25 19:39:09.0	Ventana	34.508	02:01:06:20	4.078	V2669-02
 	descend	Hormiphora	177.06	2693	 	36.69609	-122.05814	1758248	1.94	2005-07-25 18:06:22.0	Ventana	34.145	00:46:54:01	8.899	V2693-01
 	transect	Stomphia	1000.06	2669	 	36.731674	-122.24356	1733852	0.41	2005-05-25 19:47:44.0	Ventana	34.511	02:09:15:27	4.072	V2669-03
 	transect	Pennatulacea sp.1	602.48	2680	 	36.790527	-122.23274	1806783	0.35	2005-06-27 20:20:32.0	Ventana	34.378	02:59:09:01	5.587	V2680-03
 	transect	Rathbunaster californicus	 	2687	 	 	 	1812333	 	2005-07-13 20:32:29.0	Ventana	 	03:57:26:28	 	V2687-04
 	transect	Rathbunaster californicus	200.26	2696	 	36.80491	-122.12757	1813542	1.51	2005-08-01 17:58:16.0	Ventana	34.212	01:26:08:16	8.671	V2696-02
 	ascend	Poeobius meseres	918.89	2682	 	36.698086	-122.058464	1723188	0.37	2005-07-08 20:13:14.0	Ventana	34.501	04:05:24:26	4.23	V2682-05
 	descend	Medusae	400.2	2681	 	36.695557	-122.05118	1715128	0.8	2005-07-07 17:34:14.233	Ventana	34.279	01:04:37:08	6.679	V2681-02
 	transect	Diodontidae	197.79	2696	 	36.802666	-122.12169	1812993	1.52	2005-08-01 16:50:18.0	Ventana	34.206	00:18:38:11	8.565	V2696-01
 	transect	molt	100.51	2681	 	36.69939	-122.05401	2489806	2.13	2005-07-07 16:51:04.0	Ventana	34.068	00:22:12:09	9.146	V2681-01HD
 	transect	Pennatulacea sp.1	599.3	2680	 	36.77896	-122.22414	1804461	0.36	2005-06-27 18:05:14.0	Ventana	34.377	00:45:20:13	5.603	V2680-01
 	descend	Sergestes similis	569.6	2683	 	36.701862	-122.049126	1756979	0.42	2005-07-11 17:46:33.0	Ventana	34.353	01:30:39:14	5.984	V2683-02
 	descend	Chaetognatha	540.06	2682	 	36.698612	-122.05977	1720881	0.36	2005-07-08 18:04:03.0	Ventana	34.368	01:57:32:15	5.751	V2682-02
 	descend	Appendicularia	450.04	2681	 	36.698086	-122.05386	1715331	0.56	2005-07-07 17:52:12.467	Ventana	34.316	01:22:34:27	6.226	V2681-02
 	cruise	Lycodapus	1212.12	2683	 	36.706688	-122.04766	1757639	0.73	2005-07-11 20:12:27.0	Ventana	34.576	03:46:49:22	3.33	V2683-04
 	cruise	Rathbunaster californicus	102.53	2676	 	36.806396	-122.041626	1677161	1.93	2005-06-14 19:16:35.0	Ventana	34.158	02:55:20:06	8.438	V2676-03
 	ascend	Euphausiacea	258.17	2681	 	36.697838	-122.05522	1719469	 	2005-07-07 21:29:59.0	Ventana	 	05:06:17:25	 	V2681-05
 	descend	Appendicularia	691.96	2682	 	36.698647	-122.05998	1721430	0.29	2005-07-08 18:13:44.0	Ventana	34.422	02:06:49:07	5.103	V2682-03
 	transect	Mesomyaria	1000.23	2669	 	36.73176	-122.2448	1734461	0.4	2005-05-25 19:55:17.0	Ventana	34.507	02:16:46:21	4.072	V2669-03
 	transect	Ceriantharia sp. 2	1000.52	2669	 	36.73224	-122.24868	1736234	0.41	2005-05-25 20:24:06.0	Ventana	34.509	02:45:34:07	4.063	V2669-03
 	descend	Aegina	1072.98	2683	 	36.705097	-122.048935	1757436	0.51	2005-07-11 19:27:02.0	Ventana	34.533	03:07:22:26	3.811	V2683-03
 	transect	Phyllospadix	800.57	2674	 	36.752026	-122.20905	1800857	0.35	2005-06-08 18:14:46.0	Ventana	34.488	00:59:17:15	4.335	V2674-01
 	transect	Phyllospadix	203.95	2696	 	36.806248	-122.12982	1813745	1.49	2005-08-01 18:24:41.0	Ventana	34.214	01:52:32:18	8.638	V2696-02
 	cruise	Pleuronectiformes	428.14	2688	 	36.805504	-122.019066	1677710	0.92	2005-07-14 17:46:46.0	Ventana	34.266	01:32:29:12	6.943	V2688-02
 	descend	Bathocyroe	896.3	2682	 	36.698254	-122.05944	1721776	0.34	2005-07-08 18:51:07.0	Ventana	34.493	02:44:10:12	4.309	V2682-03
 	transect	Poeobius meseres	1000.93	2681	 	36.696323	-122.0526	2498684	0.47	2005-07-07 19:29:15.0	Ventana	34.531	02:58:56:07	3.874	V2681-03HD
 	transect	Mesomyaria	999.73	2669	 	36.730663	-122.22941	1651084	0.45	2005-05-25 18:09:26.0	Ventana	34.522	00:31:53:11	3.908	V2669-01
 	transect	Nanomia bijuga	200.42	2681	 	36.69828	-122.0533	2490812	1.72	2005-07-07 17:09:01.0	Ventana	34.193	00:40:09:19	8.323	V2681-01HD
 	transect	Phyllospadix	197.19	2696	 	36.803402	-122.12367	1813196	1.56	2005-08-01 17:18:45.0	Ventana	34.197	00:47:02:23	8.631	V2696-01
 	transect	Rathbunaster californicus	199.59	2696	 	36.80395	-122.12548	1813339	1.52	2005-08-01 17:37:23.0	Ventana	34.206	01:05:16:29	8.643	V2696-02
 	descend	Hastigerinella digitata	267.23	2682	 	36.6998	-122.06081	1720018	1.36	2005-07-08 16:27:28.0	Ventana	34.222	00:21:31:05	7.758	V2682-01
 	transect	Mesomyaria	1000.15	2669	 	36.731857	-122.24507	1735339	0.4	2005-05-25 19:57:20.0	Ventana	34.508	02:18:51:06	4.09	V2669-03
 	descend	Lensia	236.78	2683	 	36.70097	-122.05065	1756430	1.71	2005-07-11 16:49:42.0	Ventana	34.188	00:37:22:15	8.1	V2683-01
 	transect	Phyllospadix	800.28	2674	 	36.752426	-122.204735	1799663	0.35	2005-06-08 17:53:25.0	Ventana	34.487	00:37:57:15	4.356	V2674-01
 	descend	Bathocyroe	1106.17	2682	 	36.69823	-122.05915	1722090	0.56	2005-07-08 19:08:04.0	Ventana	34.552	03:00:41:12	3.627	V2682-04
 	transect	Ophiuroidea	998.61	2669	 	36.73096	-122.23009	1651227	0.45	2005-05-25 18:14:48.0	Ventana	34.521	00:37:15:19	3.913	V2669-01
 	transect	Phyllospadix	800.72	2674	 	36.752506	-122.20289	1799257	0.35	2005-06-08 17:42:58.0	Ventana	34.486	00:27:31:16	4.376	V2674-01
 	transect	myctophidae	800.93	2681	 	36.695366	-122.05119	2498135	0.31	2005-07-07 18:55:23.0	Ventana	34.475	02:25:04:16	4.49	V2681-03HD
 	transect	Mesomyaria	999.44	2669	 	36.73133	-122.23592	1684469	0.44	2005-05-25 18:57:06.0	Ventana	34.52	01:19:05:22	3.936	V2669-02
 	transect	Nanomia bijuga	200.44	2681	 	36.69828	-122.05329	2490120	1.7	2005-07-07 17:04:58.0	Ventana	34.197	00:36:06:25	8.358	V2681-01HD
 	transect	Sebastolobus	 	2687	 	 	 	1806986	 	2005-07-13 16:53:00.0	Ventana	 	00:19:55:04	 	V2687-01
 	descend	Appendicularia	356.73	2683	 	36.70133	-122.04989	1756573	1.14	2005-07-11 16:56:54.0	Ventana	34.237	00:44:34:22	7.148	V2683-01
 	transect	Phyllospadix	800.66	2674	 	36.752632	-122.20186	1799114	0.34	2005-06-08 17:37:49.0	Ventana	34.484	00:22:22:22	4.416	V2674-01
 	transect	Ophiuroidea	999.74	2669	 	36.73136	-122.23743	1687496	0.44	2005-05-25 19:09:56.0	Ventana	34.519	01:31:55:13	3.946	V2669-02
 	ascend	Chuniphyes	767.4	2681	 	36.698654	-122.05614	1717495	0.29	2005-07-07 20:10:02.467	Ventana	34.454	03:39:04:12	4.774	V2681-04
 	transect	Mediaster	 	2687	 	 	 	1812476	 	2005-07-13 20:40:55.0	Ventana	 	04:05:53:03	 	V2687-04
 	ascend	Bathocyroe	603.43	2682	 	36.698635	-122.06157	1723517	0.34	2005-07-08 20:56:45.0	Ventana	34.374	04:48:52:20	5.635	V2682-05
 	transect	Gastropoda sp.2	998.76	2669	 	36.732857	-122.252014	1737300	0.4	2005-05-25 20:45:00.0	Ventana	34.509	03:05:49:03	4.073	V2669-04
 	transect	Ceriantharia sp. 1	598.96	2680	 	36.780144	-122.22516	1804604	0.35	2005-06-27 18:19:10.0	Ventana	34.381	00:59:16:02	5.555	V2680-01
 	descend	Appendicularia	921.85	2683	 	36.703617	-122.04857	1757293	0.38	2005-07-11 18:59:47.0	Ventana	34.502	02:40:10:21	4.198	V2683-03
 	ascend	Salpida	308.27	2693	 	36.691513	-122.06207	1759066	1.31	2005-07-25 21:19:04.0	Ventana	34.237	03:43:35:29	7.632	V2693-04
 	ascend	sinker	940.69	2681	 	36.69752	-122.053986	1716946	0.41	2005-07-07 19:42:28.323	Ventana	34.515	03:11:31:29	4.069	V2681-04
 	transect	lensia	300.4	2681	 	36.697388	-122.052864	2492269	1.23	2005-07-07 17:23:35.0	Ventana	34.232	00:54:42:11	7.397	V2681-01HD
 	transect	Mesomyaria	1000.12	2669	 	36.7312	-122.240486	1689269	0.41	2005-05-25 19:30:45.0	Ventana	34.511	01:52:42:27	4.057	V2669-02
 	cruise	sand	94.24	2688	http://search.mbari.org/ARCHIVE/frameGrabs/Ventana/images/2688/04_31_17_16.jpg	36.81485	-122.01712	20005301	1.95	2005-07-14 20:47:03.0	Ventana	34.096	04:31:17:16	8.938	V2688-05
 	transect	Asteronyx loveni	998.81	2669	 	36.731148	-122.23409	1684063	0.45	2005-05-25 18:42:31.0	Ventana	34.523	01:04:32:03	3.914	V2669-02
 	descend	Sergestes similis	511.71	2681	 	36.695705	-122.05111	1715534	0.43	2005-07-07 18:05:01.367	Ventana	34.348	01:35:23:00	5.992	V2681-02
 	transect	Porifera sp. 1	 	2687	 	 	 	1807097	 	2005-07-13 16:59:22.0	Ventana	 	00:26:16:11	 	V2687-01
 	cruise	Sebastolobus	517.04	2688	http://search.mbari.org/ARCHIVE/frameGrabs/Ventana/images/2688/01_01_48_06.jpg	36.80039	-122.01916	1677507	0.67	2005-07-14 17:15:31.0	Ventana	34.311	01:01:48:06	6.397	V2688-01
 	cruise	Asteroidea	308.66	2688	 	36.808636	-122.020294	1677853	1.34	2005-07-14 18:12:39.0	Ventana	34.222	01:58:20:18	7.795	V2688-02
 	transect	Glyptocephalus zachirus	 	2687	 	 	 	1807646	 	2005-07-13 17:20:10.0	Ventana	 	00:47:03:05	 	V2687-01
 	transect	molt	100.54	2681	 	36.69983	-122.05429	2489603	2.12	2005-07-07 16:45:50.0	Ventana	34.068	00:16:59:10	9.15	V2681-01HD
 	cruise	Rathbunaster californicus	106.2	2688	 	36.81419	-122.02384	1678056	1.95	2005-07-14 19:01:12.0	Ventana	34.092	02:46:26:12	8.886	V2688-03
 	transect	Lycenchelys camchatica	801.17	2674	 	36.752136	-122.208145	1800714	0.35	2005-06-08 18:10:21.0	Ventana	34.491	00:54:52:26	4.331	V2674-01
 	transect	phialidium	600.63	2681	 	36.695873	-122.05142	2493681	0.3	2005-07-07 18:19:30.0	Ventana	34.388	01:49:51:10	5.495	V2681-02HD
 	ascend	Cydippida	128.95	2693	 	36.690796	-122.062935	1759269	2.04	2005-07-25 21:32:32.0	Ventana	34.076	03:57:04:00	9.156	V2693-04
 	transect	Actiniaria sp. 3	399.85	2687	 	36.788128	-122.12166	1809261	1.13	2005-07-13 17:37:46.0	Ventana	34.243	01:04:08:05	7.26	V2687-02
 	transect	Porifera sp. 1	 	2687	 	 	 	1810876	 	2005-07-13 19:38:35.0	Ventana	 	03:04:18:09	 	V2687-03
 	transect	Mesomyaria	802.2	2674	 	36.752243	-122.206604	1799962	0.37	2005-06-08 18:03:00.0	Ventana	34.489	00:47:32:04	4.322	V2674-01
 	ascend	Leuroglossus stilbius	632.14	2682	 	36.698868	-122.059746	1723391	0.32	2005-07-08 20:36:49.0	Ventana	34.389	04:28:58:06	5.432	V2682-05
 	transect	Mediaster	 	2687	 	 	 	1812679	 	2005-07-13 20:51:47.0	Ventana	 	04:16:17:14	 	V2687-05
 	transect	Vitreosalpa gemini	400.78	2681	 	36.697323	-122.05298	2493132	0.79	2005-07-07 17:47:37.0	Ventana	34.278	01:18:00:01	6.663	V2681-02HD
 	ascend	Chaetognatha	788.63	2683	 	36.706512	-122.04858	1757842	0.38	2005-07-11 21:01:44.0	Ventana	34.475	04:34:37:13	4.512	V2683-05
 	descend	Appendicularia	382.16	2682	 	36.69843	-122.05993	1720678	0.93	2005-07-08 17:35:30.0	Ventana	34.261	01:29:00:07	6.963	V2682-02
 	transect	Psolus squamatus	 	2687	 	 	 	1808712	 	2005-07-13 17:27:37.0	Ventana	 	00:54:29:24	 	V2687-01
 	descend	Appendicularia	484.95	2683	 	36.70152	-122.04934	1756776	0.72	2005-07-11 17:23:10.0	Ventana	34.297	01:07:18:26	6.546	V2683-02
 	ascend	Copepoda	264.27	2681	 	36.69896	-122.05626	1718749	1.42	2005-07-07 21:17:38.88	Ventana	34.228	04:45:57:22	7.94	V2681-05
 	transect	Glyptocephalus zachirus	 	2687	 	 	 	1810327	 	2005-07-13 19:15:43.0	Ventana	 	02:41:27:11	 	V2687-03
 	transect	Ophiuroidea	999.6	2669	 	36.731426	-122.23664	1684815	0.44	2005-05-25 19:03:16.0	Ventana	34.521	01:25:15:14	3.939	V2669-02
 	ascend	Appendicularia	448.04	2682	 	36.69819	-122.062836	1723720	0.71	2005-07-08 21:18:55.0	Ventana	34.282	05:10:35:19	6.485	V2682-06
 	descend	Praya	96.53	2683	 	36.700596	-122.051674	1756227	2.56	2005-07-11 16:17:29.0	Ventana	34.009	00:05:11:03	9.33	V2683-01
 	transect	Mediaster	 	2687	 	 	 	1810719	 	2005-07-13 19:29:32.0	Ventana	 	02:55:15:17	 	V2687-03
 	transect	Phyllospadix	800.95	2674	 	36.752525	-122.2026	1799220	0.35	2005-06-08 17:41:39.0	Ventana	34.487	00:26:12:17	4.375	V2674-01
 	cruise	Pleuronectiformes	474.16	2688	 	36.802174	-122.01824	1677581	0.81	2005-07-14 17:28:46.0	Ventana	34.284	01:14:30:23	6.717	V2688-02
 	transect	Lycenchelys	998.94	2669	 	36.732838	-122.25149	1737226	0.4	2005-05-25 20:42:23.0	Ventana	34.509	03:03:10:29	4.073	V2669-04
 	transect	Parastichopus leukothele	203.69	2696	 	36.807518	-122.131165	1813851	1.46	2005-08-01 18:42:38.0	Ventana	34.221	02:09:43:08	8.621	V2696-03
 	transect	Lycodes cortezianus	 	2687	http://search.mbari.org/ARCHIVE/frameGrabs/Ventana/images/2687/00_58_17_17.jpg	 	 	1808892	 	2005-07-13 17:31:25.0	Ventana	 	00:58:17:17	 	V2687-01
 	ascend	Appendicularia	408.66	2681	 	36.69924	-122.0544	1717974	0.83	2005-07-07 20:47:01.263	Ventana	34.28	04:15:22:00	6.769	V2681-05
 	ascend	Calycophorae	1149.87	2683	 	36.708084	-122.04895	1757768	0.69	2005-07-11 20:37:19.0	Ventana	34.569	04:11:39:18	3.435	V2683-04
 	transect	Neptunea amianta	599.71	2680	 	36.78402	-122.22944	1805499	0.36	2005-06-27 19:13:08.0	Ventana	34.378	01:52:11:29	5.608	V2680-02
 	cruise	Remote Instrument Node	124.3	2672	http://search.mbari.org/ARCHIVE/frameGrabs/Ventana/images/2672/00_23_50_25.jpg	36.803104	-121.80558	20003838	2.65	2005-06-03 15:04:28.0	Ventana	33.956	00:23:50:25	9.311	V2672-01
 	transect	Phyllospadix	196.49	2696	 	36.803196	-122.12296	1813145	1.56	2005-08-01 17:10:18.0	Ventana	34.197	00:38:37:00	8.623	V2696-01
 	transect	Mesomyaria	999.8	2669	 	36.73107	-122.23885	1689080	0.43	2005-05-25 19:20:38.0	Ventana	34.517	01:42:36:19	3.969	V2669-02
 	transect	Microstomus pacificus	 	2687	 	 	 	1811425	 	2005-07-13 20:12:13.0	Ventana	 	03:37:12:09	 	V2687-04
 	transect	Psolus squamatus	 	2687	 	 	 	1810013	 	2005-07-13 18:50:53.0	Ventana	 	02:16:38:25	 	V2687-03
 	transect	molt	50.51	2681	 	36.698753	-122.05344	2485375	 	2005-07-07 16:30:44.0	Ventana	 	00:01:53:04	 	V2681-01HD
 	transect	Phyllospadix	999.57	2669	 	36.730717	-122.22948	1651098	0.45	2005-05-25 18:10:13.0	Ventana	34.521	00:32:40:08	3.908	V2669-01
 	ascend	Nanomia	370.93	2693	 	36.696697	-122.06055	1758720	1.2	2005-07-25 20:31:06.0	Ventana	34.233	03:10:37:15	7.177	V2693-03
 	transect	Caridea sp.1	802.96	2674	 	36.75083	-122.22008	1803672	0.34	2005-06-08 19:07:04.0	Ventana	34.482	01:51:06:07	4.385	V2674-02
 	transect	Hastigerinella digitata	300.42	2681	 	36.695774	-122.051384	2492606	1.24	2005-07-07 17:29:29.0	Ventana	34.233	01:00:35:14	7.415	V2681-01HD
 	cruise	Parastichopus	135.87	2676	 	36.808643	-122.030914	1676875	1.73	2005-06-14 17:57:40.0	Ventana	34.171	01:37:23:08	8.333	V2676-02
 	transect	Mesomyaria	999.92	2669	 	36.730984	-122.233086	1683860	0.45	2005-05-25 18:37:14.0	Ventana	34.522	00:59:40:07	3.912	V2669-01
 	transect	Mesomyaria	1000.04	2669	 	36.731926	-122.245605	1735399	0.41	2005-05-25 20:01:05.0	Ventana	34.51	02:22:35:29	4.066	V2669-03
 	descend	Chaetognatha	405.77	2683	 	36.701435	-122.04955	1756647	0.94	2005-07-11 17:04:59.0	Ventana	34.263	00:52:39:00	6.934	V2683-01
 	transect	Nanomia bijuga	200.39	2681	 	36.698284	-122.053314	2490978	1.71	2005-07-07 17:10:23.0	Ventana	34.187	00:41:31:11	8.319	V2681-01HD
 	transect	cydippida	600.58	2681	 	36.696346	-122.051956	2493727	0.3	2005-07-07 18:21:37.0	Ventana	34.386	01:51:59:04	5.487	V2681-02HD
 	transect	Poeobius meseres	800.9	2681	 	36.695786	-122.05173	2498209	0.32	2005-07-07 18:57:26.0	Ventana	34.475	02:27:08:13	4.494	V2681-03HD
 	descend	Nanomia	161.34	2681	 	36.69828	-122.05329	1713522	2.03	2005-07-07 17:02:31.733	Ventana	34.139	00:33:40:09	8.649	V2681-01
 	ascend	Appendicularia	261.26	2681	 	36.698845	-122.05701	1719003	1.42	2005-07-07 21:20:44.367	Ventana	34.23	04:49:03:01	7.955	V2681-05
 	transect	Psolus squamatus	399.86	2687	 	36.788113	-122.12162	1809215	1.13	2005-07-13 17:37:21.0	Ventana	34.243	01:03:43:12	7.255	V2687-02
 	transect	molt	100.5	2681	 	36.698982	-122.05375	2489857	2.12	2005-07-07 16:51:58.0	Ventana	34.07	00:23:07:10	9.148	V2681-01HD
 	transect	Pennatulacea sp.1	602.46	2680	http://search.mbari.org/ARCHIVE/frameGrabs/Ventana/images/2680/02_58_10_00.jpg	36.79044	-122.232735	1806774	0.36	2005-06-27 20:19:33.0	Ventana	34.38	02:58:10:00	5.587	V2680-03
 	cruise	Aegina	409.83	2676	 	36.803474	-122.03018	1676246	0.76	2005-06-14 16:25:57.0	Ventana	34.293	00:10:06:22	6.666	V2676-01
 	transect	Ophiuroidea	997.0	2669	 	36.731144	-122.23091	1683477	0.45	2005-05-25 18:21:59.0	Ventana	34.521	00:44:26:03	3.93	V2669-01
 	descend	Appendicularia	1081.91	2683	 	36.70511	-122.04891	1757445	0.52	2005-07-11 19:27:48.0	Ventana	34.534	03:08:09:04	3.797	V2683-03
 	ascend	Aegina	927.97	2681	 	36.69769	-122.05421	1716992	0.41	2005-07-07 19:44:30.267	Ventana	34.51	03:13:33:09	4.12	V2681-04
 	transect	Mesomyaria	798.17	2674	 	36.751587	-122.21399	1801323	0.35	2005-06-08 18:38:14.0	Ventana	34.489	01:22:17:26	4.34	V2674-02
 	transect	Psolus squamatus	 	2687	 	 	 	1807572	 	2005-07-13 17:15:49.0	Ventana	 	00:42:42:25	 	V2687-01
 	descend	Chaetognatha	169.68	2683	 	36.701054	-122.05129	1756324	1.65	2005-07-11 16:40:39.0	Ventana	34.188	00:28:21:07	8.735	V2683-01
 	transect	Physonectae	400.75	2681	 	36.69654	-122.05206	2493021	0.79	2005-07-07 17:44:20.0	Ventana	34.276	01:14:43:13	6.645	V2681-02HD
 	descend	Euphausiacea	294.1	2682	 	36.699272	-122.060616	1720124	1.21	2005-07-08 16:54:22.0	Ventana	34.241	00:48:24:19	7.435	V2682-01
 	ascend	Nanomia	 	2683	 	 	 	1758151	 	2005-07-11 14:32:27.0	Ventana	 	05:05:18:20	 	V2683-05
 	transect	Chionoecetes tanneri	1000.23	2669	 	36.73177	-122.24474	1734447	0.4	2005-05-25 19:54:52.0	Ventana	34.505	02:16:24:18	4.085	V2669-03
 	transect	Henricia aspera	 	2687	http://search.mbari.org/ARCHIVE/frameGrabs/Ventana/images/2687/03_58_06_05.jpg	 	 	1812347	 	2005-07-13 20:33:08.0	Ventana	 	03:58:06:05	 	V2687-04
 	transect	Caridea sp.1	598.64	2680	 	36.78219	-122.227295	1805116	0.35	2005-06-27 18:46:17.0	Ventana	34.379	01:25:22:11	5.579	V2680-02
 	transect	Mesomyaria	999.48	2669	 	36.73107	-122.23511	1684275	0.45	2005-05-25 18:51:21.0	Ventana	34.521	01:13:20:27	3.921	V2669-02
 	descend	Appendicularia	723.94	2682	 	36.698524	-122.0597	1721504	0.28	2005-07-08 18:24:53.0	Ventana	34.441	02:17:57:14	4.882	V2682-03
 	descend	Poeobius meseres	1008.5	2683	 	36.704094	-122.0502	1757385	0.44	2005-07-11 19:19:15.0	Ventana	34.517	02:59:37:25	3.995	V2683-03
 	transect	Ceriantharia sp. 1	599.89	2680	 	36.77861	-122.223816	1804410	0.35	2005-06-27 18:01:21.0	Ventana	34.38	00:41:27:04	5.584	V2680-01
 	transect	Allocentrotus fragilis	399.93	2687	 	36.788124	-122.12169	1809275	1.13	2005-07-13 17:38:02.0	Ventana	34.243	01:04:24:02	7.254	V2687-02
 	starttransect	physical object	 	2687	 	 	 	1812407	 	2005-07-13 20:37:21.0	Ventana	 	04:02:19:11	 	V2687-04
 	transect	Porifera sp. 1	 	2687	 	 	 	1807189	 	2005-07-13 17:03:09.0	Ventana	 	00:30:03:08	 	V2687-01
 	transect	Appendicularia	400.8	2681	 	36.695923	-122.05134	2492929	0.79	2005-07-07 17:41:33.0	Ventana	34.276	01:11:58:01	6.665	V2681-02HD
 	ascend	Chaetognatha	326.23	2693	 	36.691833	-122.061966	1759043	1.29	2005-07-25 21:17:12.0	Ventana	34.237	03:41:44:04	7.556	V2693-04
 	transect	Nanomia bijuga	200.4	2681	 	36.698284	-122.05331	2490918	1.7	2005-07-07 17:09:45.0	Ventana	34.189	00:40:54:00	8.321	V2681-01HD
 	transect	Psolus squamatus	 	2687	 	 	 	1811102	 	2005-07-13 19:53:04.0	Ventana	 	03:18:05:22	 	V2687-04
 	descend	Calycophorae	472.36	2682	 	36.698544	-122.05968	1720798	0.52	2005-07-08 17:56:39.0	Ventana	34.325	01:50:08:24	6.193	V2682-02
 	descend	Nanomia	148.41	2683	 	36.70071	-122.05164	1756264	1.7	2005-07-11 16:24:27.0	Ventana	34.172	00:12:08:15	8.854	V2683-01
 	starttransect	object	800.53	2674	 	36.75197	-122.20949	1800908	0.36	2005-06-08 18:17:17.0	Ventana	34.492	01:01:22:08	4.32	V2674-02
 	stationary	Merluccius productus	501.95	2694	 	36.78456	-122.200485	1676569	0.77	2005-07-27 18:41:14.0	Ventana	34.28	01:23:55:21	6.534	V2694-02
 	transect	Euphausia	200.36	2681	 	36.698338	-122.05345	2491361	1.67	2005-07-07 17:13:44.0	Ventana	34.201	00:44:52:13	8.341	V2681-01HD
 	ascend	Appendicularia	368.86	2681	 	36.69936	-122.05487	1718034	0.98	2005-07-07 20:50:54.59	Ventana	34.265	04:19:15:03	7.069	V2681-05
 	transect	Mesomyaria	998.54	2669	 	36.73089	-122.2297	1651158	0.45	2005-05-25 18:12:15.0	Ventana	34.522	00:34:42:01	3.908	V2669-01
 	transect	Rathbunaster californicus	 	2687	 	 	 	1812670	 	2005-07-13 20:50:37.0	Ventana	 	04:15:07:12	 	V2687-05
 	transect	Psolus squamatus	 	2687	 	 	 	1808832	 	2005-07-13 17:30:15.0	Ventana	 	00:57:08:00	 	V2687-01
 	ascend	Mysidae	887.7	2683	 	36.70708	-122.04872	1757828	0.38	2005-07-11 20:57:17.0	Ventana	34.504	04:30:09:07	4.2	V2683-05
 	transect	Psolus squamatus	 	2687	 	 	 	1811042	 	2005-07-13 19:49:16.0	Ventana	 	03:14:16:29	 	V2687-04
 	transect	molt	100.47	2681	 	36.69945	-122.054054	2489797	2.13	2005-07-07 16:50:56.0	Ventana	34.068	00:22:04:26	9.146	V2681-01HD
 	transect	Rathbunaster californicus	203.14	2696	 	36.806637	-122.1302	1813791	1.49	2005-08-01 18:30:35.0	Ventana	34.215	01:58:26:07	8.649	V2696-02
 	ascend	Chaetognatha	252.24	2693	 	36.691364	-122.062355	1759103	1.43	2005-07-25 21:21:57.0	Ventana	34.246	03:46:28:21	8.47	V2693-04
 	transect	Mesomyaria	800.52	2674	 	36.75257	-122.20213	1799160	0.33	2005-06-08 17:39:24.0	Ventana	34.476	00:23:58:04	4.446	V2674-01
 	ascend	sinker	580.26	2682	 	36.69836	-122.06236	1723577	0.37	2005-07-08 21:05:54.0	Ventana	34.364	04:58:01:00	5.771	V2682-05
 	ascend	Copepoda	795.6	2682	 	36.698654	-122.0589	1723271	0.33	2005-07-08 20:25:17.0	Ventana	34.467	04:17:27:00	4.651	V2682-05
 	cruise	Asteronyx	516.02	2688	 	36.80063	-122.01901	1677521	0.68	2005-07-14 17:18:45.0	Ventana	34.311	01:05:02:00	6.412	V2688-01
 	transect	Phyllospadix	802.36	2674	 	36.75231	-122.205696	1799819	0.36	2005-06-08 17:58:19.0	Ventana	34.488	00:42:51:15	4.332	V2674-01
 	transect	Mesomyaria	800.17	2674	 	36.75176	-122.21201	1801171	0.35	2005-06-08 18:28:12.0	Ventana	34.487	01:12:16:25	4.337	V2674-02
 	transect	Mesomyaria	999.73	2669	 	36.731102	-122.23539	1684335	0.45	2005-05-25 18:53:19.0	Ventana	34.521	01:15:19:05	3.924	V2669-02
 	transect	Lycenchelys camchatica	999.88	2669	 	36.731895	-122.245804	1735459	0.4	2005-05-25 20:02:18.0	Ventana	34.509	02:23:50:02	4.081	V2669-03
 	transect	Mediaster	 	2687	 	 	 	1809921	 	2005-07-13 18:48:14.0	Ventana	 	02:14:00:09	 	V2687-03
 	descend	Appendicularia	700.94	2682	 	36.69861	-122.059975	1721444	0.29	2005-07-08 18:15:46.0	Ventana	34.427	02:08:52:04	5.034	V2682-03
 	descend	Nanomia	449.55	2683	 	36.701584	-122.049385	1756707	0.8	2005-07-11 17:09:00.0	Ventana	34.28	00:56:39:11	6.7	V2683-01
 	transect	Brisaster	1000.62	2669	 	36.73207	-122.24788	1736165	0.4	2005-05-25 20:17:45.0	Ventana	34.505	02:39:14:15	4.083	V2669-03
 	transect	Phyllospadix	800.47	2674	 	36.752464	-122.20453	1799603	0.35	2005-06-08 17:52:20.0	Ventana	34.485	00:36:52:21	4.38	V2674-01
 	transect	Bathyraja kincaidii	 	2687	http://search.mbari.org/ARCHIVE/frameGrabs/Ventana/images/2687/00_45_47_28.jpg	 	 	1807632	 	2005-07-13 17:18:55.0	Ventana	 	00:45:47:28	 	V2687-01
 	transect	beroe	200.41	2681	 	36.69828	-122.05329	2490272	1.7	2005-07-07 17:06:20.0	Ventana	34.199	00:37:27:27	8.36	V2681-01HD
 	ascend	Calycophorae	265.31	2683	 	36.70313	-122.05065	1758091	1.46	2005-07-11 21:26:09.0	Ventana	34.217	04:59:01:12	7.992	V2683-05
 	transect	Mesomyaria	799.0	2674	 	36.751427	-122.21481	1801383	0.35	2005-06-08 18:43:24.0	Ventana	34.489	01:27:27:18	4.336	V2674-02
 	cruise	Rathbunaster californicus	458.17	2676	 	36.802807	-122.02931	1676306	0.6	2005-06-14 16:35:51.0	Ventana	34.324	00:19:59:29	6.285	V2676-01
 	transect	Mediaster	 	2687	 	 	 	1811701	 	2005-07-13 20:20:56.0	Ventana	 	03:45:54:29	 	V2687-04
 	transect	Microstomus pacificus	200.55	2696	 	36.80481	-122.12737	1813528	1.51	2005-08-01 17:56:52.0	Ventana	34.211	01:24:45:00	8.677	V2696-02
 	transect	Gastropoda sp.2	998.71	2669	 	36.73119	-122.23435	1694653	0.45	2005-05-25 18:44:12.0	Ventana	34.521	01:06:13:00	3.917	V2669-02
 	ascend	Appendicularia	852.13	2681	 	36.69856	-122.05576	1717375	0.33	2005-07-07 19:54:54.31	Ventana	34.492	03:23:56:21	4.35	V2681-04
 	transect	Mesomyaria	1000.32	2669	 	36.731644	-122.243286	1733801	0.41	2005-05-25 19:46:10.0	Ventana	34.51	02:07:40:29	4.065	V2669-03
 	transect	Neptunea amianta	599.37	2680	 	36.779465	-122.224556	1804530	0.36	2005-06-27 18:10:27.0	Ventana	34.377	00:50:33:03	5.604	V2680-01
 	transect	Mediaster	399.86	2687	 	36.788048	-122.121544	1809155	1.13	2005-07-13 17:36:14.0	Ventana	34.242	01:02:36:04	7.271	V2687-02
 	transect	Ophiuroidea	998.45	2669	 	36.731113	-122.230736	1683417	0.45	2005-05-25 18:20:23.0	Ventana	34.522	00:42:49:22	3.913	V2669-01
 	ascend	Appendicularia	670.59	2681	 	36.69876	-122.05438	1717638	0.28	2005-07-07 20:23:33.1	Ventana	34.411	03:52:34:07	5.197	V2681-04
 	ascend	Acanthamunnopsis milleri	206.44	2693	 	36.69103	-122.062614	1759163	1.78	2005-07-25 21:25:04.0	Ventana	34.2	03:49:35:07	8.745	V2693-04
 	transect	Vampyroteuthis infernalis	600.64	2681	 	36.695747	-122.051216	2493667	0.3	2005-07-07 18:18:44.0	Ventana	34.387	01:49:06:22	5.496	V2681-02HD
 	ascend	Melanostigma	575.23	2681	 	36.69894	-122.05426	1717711	0.36	2005-07-07 20:31:06.643	Ventana	34.365	04:00:06:24	5.794	V2681-04
 	transect	Gastropoda sp.2	997.48	2669	 	36.7306	-122.22727	1694916	0.45	2005-05-25 17:55:58.0	Ventana	34.521	00:18:27:03	3.909	V2669-01
 	ascend	Calycophorae	264.45	2681	 	36.699524	-122.05448	1718417	1.4	2005-07-07 21:08:27.0	Ventana	34.231	04:36:46:28	7.908	V2681-05
 	transect	Umbellula lindahli	598.4	2680	 	36.781773	-122.226875	1805056	0.36	2005-06-27 18:41:03.0	Ventana	34.377	01:20:08:19	5.599	V2680-02
 	transect	Mediaster	 	2687	 	 	 	1810982	 	2005-07-13 19:46:07.0	Ventana	 	03:11:08:03	 	V2687-04
 	transect	Appendicularia	300.42	2681	 	36.69716	-122.05266	2492343	1.23	2005-07-07 17:24:22.0	Ventana	34.234	00:55:28:09	7.397	V2681-01HD
 	transect	Ophiuroidea	999.23	2669	 	36.731384	-122.23608	1684538	0.44	2005-05-25 18:58:01.0	Ventana	34.52	01:20:01:09	3.939	V2669-02
 	transect	Lycodapus	599.22	2680	 	36.78285	-122.22811	1805236	0.35	2005-06-27 19:00:21.0	Ventana	34.38	01:39:25:28	5.578	V2680-02
 	descend	Nanomia	294.88	2682	 	36.69964	-122.06078	1720064	1.27	2005-07-08 16:37:05.0	Ventana	34.23	00:31:09:10	7.497	V2682-01
 	transect	Phyllospadix	802.04	2674	 	36.751892	-122.20991	1800968	0.35	2005-06-08 18:19:44.0	Ventana	34.489	01:03:49:17	4.328	V2674-02
 	transect	Phyllospadix	800.43	2674	 	36.75121	-122.216255	1803409	0.35	2005-06-08 18:50:25.0	Ventana	34.489	01:34:27:26	4.336	V2674-02
 	transect	Phyllospadix	399.51	2687	 	36.789394	-122.12513	1809658	1.14	2005-07-13 18:30:40.0	Ventana	34.24	01:56:59:08	7.291	V2687-02
 	transect	Mediaster	 	2687	 	 	 	1810456	 	2005-07-13 19:18:30.0	Ventana	 	02:44:14:20	 	V2687-03
 	ascend	Praya	50.49	2681	 	36.698666	-122.05337	1713462	 	2005-07-07 16:30:29.433	Ventana	 	00:01:40:15	 	V2681-01
 	transect	Phyllospadix	599.87	2680	 	36.77807	-122.22322	1804350	0.36	2005-06-27 17:53:42.0	Ventana	34.377	00:33:49:10	5.591	V2680-01
 	transect	Psolus squamatus	 	2687	 	 	 	1808629	 	2005-07-13 17:25:45.0	Ventana	 	00:52:37:13	 	V2687-01
 	descend	Sergestes similis	295.03	2681	 	36.698544	-122.05368	1713642	1.26	2005-07-07 17:18:53.367	Ventana	34.228	00:50:00:28	7.464	V2681-01
 	transect	Porifera sp. 1	 	2687	 	 	 	1810779	 	2005-07-13 19:34:10.0	Ventana	 	02:59:53:19	 	V2687-03
 	ascend	Cydippida	258.17	2681	 	36.697838	-122.05522	1719358	 	2005-07-07 21:29:59.0	Ventana	 	05:02:16:21	 	V2681-05
 	transect	Phyllospadix	801.53	2674	 	36.752213	-122.20763	1800082	0.39	2005-06-08 18:07:58.0	Ventana	34.493	00:52:30:00	4.336	V2674-01
 	cruise	Cydippida	192.52	2676	 	36.807095	-122.02957	1676815	1.6	2005-06-14 17:45:31.0	Ventana	34.196	01:25:15:07	8.099	V2676-02
 	transect	Caecosagitta macrocephala	1001.03	2681	 	36.69525	-122.05119	2498592	0.49	2005-07-07 19:23:51.0	Ventana	34.535	02:53:31:27	3.835	V2681-03HD
 	transect	Gastropoda sp.2	999.71	2669	 	36.731354	-122.237785	1694713	0.44	2005-05-25 19:12:51.0	Ventana	34.52	01:34:50:02	3.95	V2669-02
 	ascend	Chuniphyes	789.08	2681	 	36.698956	-122.056564	1717435	0.3	2005-07-07 20:03:01.643	Ventana	34.459	03:32:04:01	4.688	V2681-04
 	transect	Sebastolobus	 	2687	 	 	 	1810659	 	2005-07-13 19:27:22.0	Ventana	 	02:53:05:25	 	V2687-03
 	transect	Psolus squamatus	 	2687	 	 	 	1810073	 	2005-07-13 18:53:53.0	Ventana	 	02:19:38:27	 	V2687-03
 	transect	Nanomia bijuga	200.48	2681	 	36.69828	-122.05329	2490212	1.7	2005-07-07 17:05:50.0	Ventana	34.198	00:36:58:04	8.361	V2681-01HD
 	transect	Microstomus pacificus	 	2687	 	 	 	1807037	 	2005-07-13 16:55:36.0	Ventana	 	00:22:30:07	 	V2687-01
 	transect	Porifera	 	2687	 	 	 	1811365	 	2005-07-13 20:09:38.0	Ventana	 	03:34:37:18	 	V2687-04
 	descend	Siphonophora	544.9	2681	 	36.695675	-122.05106	1715608	0.38	2005-07-07 18:06:03.133	Ventana	34.36	01:36:25:06	5.774	V2681-02
 	transect	beroe	500.58	2681	 	36.697327	-122.05302	2493464	0.44	2005-07-07 17:57:44.0	Ventana	34.346	01:28:07:15	6.022	V2681-02HD
 	transect	Psolus squamatus	 	2687	 	 	 	1808952	 	2005-07-13 17:32:34.0	Ventana	 	00:59:26:25	 	V2687-01
 	transect	Phyllospadix	800.01	2674	 	36.752686	-122.20063	1774132	0.29	2005-06-08 17:31:47.0	Ventana	34.455	00:16:21:15	4.658	V2674-01
 	transect	Phyllospadix	800.03	2674	 	36.752098	-122.20862	1800788	0.35	2005-06-08 18:12:38.0	Ventana	34.491	00:57:09:17	4.323	V2674-01
 	transect	Ophiuroidea	999.26	2669	 	36.731422	-122.236275	1684718	0.44	2005-05-25 18:59:39.0	Ventana	34.517	01:21:39:05	3.943	V2669-02
 	ascend	Euphausiacea	258.17	2681	 	36.697838	-122.05522	1719538	 	2005-07-07 21:29:59.0	Ventana	 	05:12:08:12	 	V2681-05
 	stationary	sinker	504.2	2695	 	36.784607	-122.2005	1824492	0.68	2005-07-28 19:06:47.0	Ventana	34.296	04:13:01:21	6.312	V2695-02
 	descend	Lobata	619.66	2681	 	36.697945	-122.05386	1715931	0.31	2005-07-07 18:29:24.267	Ventana	34.392	01:59:44:27	5.391	V2681-02
 	transect	Solmissus	300.44	2681	 	36.698364	-122.05355	2491960	1.25	2005-07-07 17:20:12.0	Ventana	34.233	00:51:19:18	7.431	V2681-01HD
 	descend	Appendicularia	614.68	2683	 	36.70199	-122.049	1757030	0.34	2005-07-11 17:50:02.0	Ventana	34.371	01:34:07:28	5.722	V2683-02
 	ascend	Chuniphyes	705.87	2682	 	36.698845	-122.05936	1723331	0.29	2005-07-08 20:31:51.0	Ventana	34.427	04:24:00:10	5.005	V2682-05
 	transect	Aegina	901.02	2681	 	36.69573	-122.05166	2498412	0.39	2005-07-07 19:12:22.0	Ventana	34.505	02:42:02:26	4.174	V2681-03HD
 	transect	Mesomyaria	1000.24	2669	 	36.73092	-122.23268	1683800	0.45	2005-05-25 18:34:55.0	Ventana	34.52	00:57:20:19	3.911	V2669-01
 	transect	Rathbunaster californicus	200.23	2696	 	36.804554	-122.126785	1813468	1.51	2005-08-01 17:50:45.0	Ventana	34.21	01:18:37:29	8.667	V2696-02
 	endtransect	color bars	1000.95	2681	 	36.69654	-122.052925	1716549	0.47	2005-07-07 19:30:35.523	Ventana	34.53	03:00:17:06	3.889	V2681-03
 	transect	Mesomyaria	1000.06	2669	 	36.731697	-122.24367	1733861	0.41	2005-05-25 19:48:05.0	Ventana	34.508	02:09:36:16	4.069	V2669-03
 	transect	Ceriantharia sp. 2	1000.48	2669	 	36.731895	-122.247	1735782	0.41	2005-05-25 20:11:26.0	Ventana	34.51	02:32:56:07	4.063	V2669-03
 	transect	Appendicularia	400.75	2681	 	36.697006	-122.05262	2493081	0.79	2005-07-07 17:46:20.0	Ventana	34.277	01:16:43:20	6.658	V2681-02HD
 	transect	Mesomyaria	1000.42	2669	 	36.73154	-122.24277	1694533	0.4	2005-05-25 19:43:18.0	Ventana	34.506	02:05:15:02	4.087	V2669-02
 	ascend	Appendicularia	906.4	2681	 	36.697914	-122.05463	1717052	0.37	2005-07-07 19:47:55.643	Ventana	34.505	03:16:58:14	4.202	V2681-04
 	transect	Mesomyaria	801.03	2674	 	36.75096	-122.21886	1803612	0.35	2005-06-08 19:01:50.0	Ventana	34.488	01:45:52:20	4.352	V2674-02
 	transect	leuroglossus-stilbius	500.61	2681	 	36.697826	-122.05359	2493284	0.44	2005-07-07 17:55:29.0	Ventana	34.347	01:25:51:12	6.02	V2681-02HD
 	descend	Leuroglossus stilbius	1018.92	2682	 	36.698322	-122.059204	1722030	0.46	2005-07-08 19:01:20.0	Ventana	34.523	02:54:21:15	3.926	V2682-03
 	transect	Mesomyaria	800.41	2674	 	36.751747	-122.21147	1801111	0.35	2005-06-08 18:25:53.0	Ventana	34.483	01:09:57:23	4.358	V2674-02
 	transect	Neptunea amianta	599.88	2680	 	36.78364	-122.229095	1805439	0.35	2005-06-27 19:09:32.0	Ventana	34.378	01:48:35:24	5.587	V2680-02
 	ascend	Haliscera	340.6	2681	 	36.69935	-122.05522	1718094	1.13	2005-07-07 20:53:26.083	Ventana	34.245	04:21:46:22	7.27	V2681-05
 	transect	Ceriantharia sp. 2	1000.67	2669	 	36.73235	-122.249504	1736488	0.41	2005-05-25 20:29:39.0	Ventana	34.507	02:51:07:17	4.075	V2669-03
 	transect	Chionoecetes tanneri	601.07	2680	http://search.mbari.org/ARCHIVE/frameGrabs/Ventana/images/2680/00_20_45_13.jpg	36.776997	-122.2222	1804207	0.36	2005-06-27 17:40:37.0	Ventana	34.379	00:20:45:13	5.578	V2680-01
 	transect	Careproctus melanurus	999.86	2669	http://search.mbari.org/ARCHIVE/frameGrabs/Ventana/images/2669/01_36_59_23.jpg	36.731308	-122.23802	1688331	0.43	2005-05-25 19:15:01.0	Ventana	34.519	01:36:59:23	3.954	V2669-02
 	descend	Aegina	800.79	2681	 	36.694942	-122.05061	1716346	0.32	2005-07-07 18:52:33.967	Ventana	34.473	02:22:17:15	4.496	V2681-03
 	ascend	Appendicularia	370.92	2693	 	36.69641	-122.06071	1758677	1.2	2005-07-25 20:27:43.0	Ventana	34.232	03:07:15:02	7.164	V2693-03
 	cruise	Rathbunaster californicus	257.13	2688	 	36.809208	-122.02036	1677904	1.52	2005-07-14 18:28:50.0	Ventana	34.198	02:14:06:21	8.185	V2688-03
 	descend	Appendicularia	504.65	2683	 	36.701443	-122.04917	1756850	0.68	2005-07-11 17:39:27.0	Ventana	34.306	01:23:33:05	6.467	V2683-02
 	transect	Calycophorae	300.42	2681	 	36.697697	-122.05312	2492163	1.23	2005-07-07 17:22:33.0	Ventana	34.234	00:53:40:14	7.4	V2681-01HD
 	transect	Ceriantharia sp. 2	1000.02	2669	 	36.731876	-122.24596	1735602	0.41	2005-05-25 20:03:02.0	Ventana	34.51	02:24:31:23	4.059	V2669-03
 	transect	Psolus squamatus	399.85	2687	 	36.788136	-122.1218	1809335	1.13	2005-07-13 17:39:42.0	Ventana	34.238	01:06:04:06	7.275	V2687-02
 	descend	Mysidae	700.65	2681	 	36.69793	-122.05373	1716134	0.29	2005-07-07 18:35:39.5	Ventana	34.431	02:05:24:02	4.982	V2681-03
 	transect	Brisaster	998.14	2669	 	36.73298	-122.252335	1737429	0.4	2005-05-25 20:47:21.0	Ventana	34.508	03:08:09:26	4.076	V2669-04
 	transect	Rathbunaster californicus	 	2687	 	 	 	1812730	 	2005-07-13 20:55:07.0	Ventana	 	04:19:37:09	 	V2687-05
 	cruise	Parastichopus	109.27	2676	 	36.804874	-122.043304	1677198	1.94	2005-06-14 19:27:40.0	Ventana	34.164	03:06:25:01	8.399	V2676-03
 	transect	Brisaster	999.88	2669	 	36.7318	-122.244576	1734387	0.4	2005-05-25 19:53:58.0	Ventana	34.51	02:15:28:17	4.078	V2669-03
 	transect	Phyllospadix	602.77	2680	 	36.78818	-122.232185	1805948	0.35	2005-06-27 19:57:18.0	Ventana	34.381	02:35:56:05	5.598	V2680-03
 	transect	Euplexaura	 	2687	 	 	 	1810276	 	2005-07-13 19:13:56.0	Ventana	 	02:39:40:25	 	V2687-03
 	transect	Solmissus	200.39	2681	 	36.69832	-122.05343	2491301	1.66	2005-07-07 17:13:28.0	Ventana	34.2	00:44:35:27	8.34	V2681-01HD
 	transect	Pennatulacea sp.1	602.35	2680	 	36.791187	-122.2329	1806834	0.36	2005-06-27 20:26:00.0	Ventana	34.379	03:04:36:25	5.586	V2680-03
 	transect	Rathbunaster californicus	 	2687	 	 	 	1811162	 	2005-07-13 19:58:06.0	Ventana	 	03:23:06:05	 	V2687-04
 	transect	Mesomyaria	1000.26	2669	 	36.73128	-122.240944	1689343	0.41	2005-05-25 19:33:37.0	Ventana	34.51	01:55:34:17	4.056	V2669-02
 	descend	sinker	1186.21	2682	 	36.698505	-122.05832	1722242	0.67	2005-07-08 19:33:52.0	Ventana	34.569	03:26:27:22	3.398	V2682-04
 	ascend	Cydippida	335.93	2693	 	36.692787	-122.06164	1758983	1.26	2005-07-25 21:13:19.0	Ventana	34.238	03:37:50:23	7.461	V2693-04
 	descend	Aegina	887.28	2683	 	36.70321	-122.04833	1757242	0.36	2005-07-11 18:30:55.0	Ventana	34.493	02:11:13:08	4.283	V2683-02
 	transect	beroe	200.43	2681	 	36.69828	-122.0533	2490775	1.73	2005-07-07 17:08:45.0	Ventana	34.193	00:39:53:13	8.321	V2681-01HD
 	transect	Hastigerinella digitata	300.45	2681	 	36.697926	-122.05331	2492103	1.24	2005-07-07 17:21:47.0	Ventana	34.234	00:52:53:10	7.402	V2681-01HD
 	transect	Allocentrotus fragilis	 	2687	 	 	 	1811245	 	2005-07-13 20:05:30.0	Ventana	 	03:30:29:27	 	V2687-04
 	ascend	Chaetognatha	350.47	2693	 	36.693867	-122.06107	1758900	1.24	2005-07-25 21:04:16.0	Ventana	34.235	03:28:49:03	7.382	V2693-04
 	descend	Aegina	810.79	2683	 	36.702736	-122.04861	1757173	0.36	2005-07-11 18:06:19.0	Ventana	34.472	01:50:24:03	4.53	V2683-02
 	transect	Mediaster	 	2687	 	 	 	1812527	 	2005-07-13 20:44:02.0	Ventana	 	04:08:32:26	 	V2687-05
 	transect	Stomphia	600.0	2680	 	36.77734	-122.2225	1804267	0.36	2005-06-27 17:45:15.0	Ventana	34.38	00:25:22:13	5.579	V2680-01
 	transect	Stomphia	 	2687	 	 	 	1810193	 	2005-07-13 19:07:44.0	Ventana	 	02:33:28:21	 	V2687-03
 	transect	Chionoecetes tanneri	800.87	2674	 	36.75111	-122.217064	1803469	0.35	2005-06-08 18:53:39.0	Ventana	34.489	01:37:42:02	4.34	V2674-02
 	ascend	Appendicularia	307.78	2681	 	36.699665	-122.05526	1718177	1.27	2005-07-07 20:58:33.233	Ventana	34.231	04:26:53:23	7.551	V2681-05
 	transect	Sebastolobus altivelis	801.1	2674	 	36.752155	-122.20811	1800705	0.35	2005-06-08 18:10:10.0	Ventana	34.491	00:54:41:18	4.331	V2674-01
 	transect	Phyllospadix	199.53	2696	http://search.mbari.org/ARCHIVE/frameGrabs/Ventana/images/2696/01_05_54_28.jpg	36.80398	-122.125534	1813348	1.52	2005-08-01 17:38:01.0	Ventana	34.208	01:05:54:28	8.645	V2696-02
 	cruise	Laminariales	104.43	2688	 	36.813786	-122.01799	1679228	1.97	2005-07-14 19:33:13.0	Ventana	34.093	03:18:00:16	8.926	V2688-04
 	transect	Ceriantharia sp. 1	801.72	2674	 	36.751774	-122.21083	1801051	0.36	2005-06-08 18:23:24.0	Ventana	34.488	01:07:28:22	4.33	V2674-02
 	descend	Appendicularia	183.11	2693	 	36.696064	-122.05818	1758271	1.87	2005-07-25 18:12:34.0	Ventana	34.17	00:53:04:23	8.853	V2693-01
 	transect	Neptunea amianta	602.3	2680	 	36.78764	-122.23187	1805925	0.36	2005-06-27 19:51:31.0	Ventana	34.378	02:30:09:20	5.594	V2680-03
 	transect	Mesomyaria	999.89	2669	 	36.73262	-122.25071	1737023	0.4	2005-05-25 20:37:41.0	Ventana	34.507	02:59:09:14	4.073	V2669-03
 	ascend	Appendicularia	474.52	2682	 	36.698326	-122.06319	1723697	0.57	2005-07-08 21:16:39.0	Ventana	34.31	05:08:20:05	6.285	V2682-06
 	transect	Euplexaura	399.84	2687	http://search.mbari.org/ARCHIVE/frameGrabs/Ventana/images/2687/01_02_17_21.jpg	36.788036	-122.12153	1809095	1.13	2005-07-13 17:35:55.0	Ventana	34.244	01:02:17:21	7.27	V2687-02
 	stationary	Merluccius productus	502.37	2694	 	36.784637	-122.200455	1676672	0.74	2005-07-27 20:33:41.0	Ventana	34.289	03:05:48:10	6.442	V2694-03
 	transect	Mediaster	 	2687	 	 	 	1812204	 	2005-07-13 20:29:00.0	Ventana	 	03:53:58:04	 	V2687-04
 	ascend	Appendicularia	715.22	2681	 	36.698704	-122.05514	1717578	0.29	2005-07-07 20:19:12.753	Ventana	34.431	03:48:14:04	5.008	V2681-04
 	cruise	Chionoecetes tanneri	1231.19	2683	 	36.705822	-122.047775	1757565	0.72	2005-07-11 19:56:36.0	Ventana	34.571	03:30:59:18	3.339	V2683-04
 	ascend	Aegina	949.86	2681	 	36.69741	-122.053795	1716872	0.42	2005-07-07 19:41:02.533	Ventana	34.516	03:10:05:23	4.057	V2681-04
 	transect	Appendicularia	400.74	2681	 	36.697716	-122.05342	2493201	0.79	2005-07-07 17:49:17.0	Ventana	34.278	01:19:41:17	6.66	V2681-02HD
 	transect	Nanomia bijuga	200.44	2681	 	36.69828	-122.05329	2490069	1.7	2005-07-07 17:04:30.0	Ventana	34.197	00:35:38:23	8.362	V2681-01HD
 	transect	Mesomyaria	998.39	2669	 	36.73102	-122.23029	1651278	0.45	2005-05-25 18:16:48.0	Ventana	34.522	00:39:15:11	3.912	V2669-01
 	transect	molt	100.48	2681	 	36.699825	-122.05429	2489677	2.13	2005-07-07 16:47:41.0	Ventana	34.068	00:18:50:14	9.149	V2681-01HD
 	descend	Lensia	277.12	2683	 	36.700996	-122.050255	1756467	1.36	2005-07-11 16:52:15.0	Ventana	34.232	00:39:54:22	7.809	V2683-01
 	transect	Ophiuroidea	1000.39	2669	 	36.73147	-122.24201	1694450	0.4	2005-05-25 19:39:35.0	Ventana	34.509	02:01:32:19	4.077	V2669-02
 	transect	Mesomyaria	998.55	2669	 	36.73117	-122.23442	1684132	0.45	2005-05-25 18:45:02.0	Ventana	34.521	01:07:03:03	3.916	V2669-02
 	transect	Nanomia bijuga	200.41	2681	 	36.698296	-122.05335	2491098	1.69	2005-07-07 17:11:48.0	Ventana	34.198	00:42:55:07	8.335	V2681-01HD
 	descend	Myctophidae	562.22	2682	 	36.698635	-122.0598	1720918	0.34	2005-07-08 18:06:12.0	Ventana	34.373	01:59:40:27	5.622	V2682-02
 	descend	Myctophidae	479.59	2683	 	36.70152	-122.04932	1756767	0.74	2005-07-11 17:22:00.0	Ventana	34.289	01:06:08:09	6.606	V2683-02
 	transect	Leuroglossus stilbius	500.6	2681	 	36.69628	-122.05182	2493607	0.44	2005-07-07 18:02:05.0	Ventana	34.347	01:32:27:06	6.013	V2681-02HD
 	descend	Prayidae	249.04	2682	 	36.69988	-122.06079	1719981	1.4	2005-07-08 16:22:55.0	Ventana	34.23	00:16:58:17	7.911	V2682-01
 	ascend	Copepoda	593.99	2682	 	36.69878	-122.06084	1723474	0.4	2005-07-08 20:48:20.0	Ventana	34.371	04:40:28:02	5.662	V2682-05
 	ascend	Euphausiacea	232.7	2682	 	36.69668	-122.06095	1723757	1.91	2005-07-08 21:29:53.0	Ventana	34.162	05:21:33:06	7.893	V2682-06
 	transect	Phyllospadix	204.18	2696	 	36.805447	-122.12854	1813708	1.49	2005-08-01 18:17:45.0	Ventana	34.212	01:45:37:04	8.627	V2696-02
 	descend	Solmissus	362.48	2693	 	36.696278	-122.06069	1758617	1.21	2005-07-25 20:17:48.0	Ventana	34.234	02:57:21:17	7.239	V2693-03
 	cruise	Poralia rufescens	1210.89	2683	 	36.706738	-122.04762	1757648	0.73	2005-07-11 20:12:51.0	Ventana	34.578	03:47:14:05	3.341	V2683-04
 	cruise	Coryphaenoides acrolepis	 	2673	 	 	 	1668403	 	 	Ventana	 	00:29:51:10	 	V2673-01
 	stationary	Actiniaria	997.62	2679	http://search.mbari.org/ARCHIVE/frameGrabs/Ventana/images/2679/00_58_56_02.jpg	36.690422	-122.16628	20004401	0.47	2005-06-16 20:20:41.0	Ventana	34.532	00:58:56:02	3.872	V2679-01
 	ascend	Chuniphyes	660.54	2683	 	36.705345	-122.04977	1757911	0.28	2005-07-11 21:08:32.0	Ventana	34.417	04:41:24:19	5.116	V2683-05
 	transect	Calliostoma platinum	399.84	2687	 	36.78801	-122.1214	1809035	1.15	2005-07-13 17:34:46.0	Ventana	34.239	01:01:01:19	7.299	V2687-01
 	transect	Phyllospadix	800.55	2674	 	36.75254	-122.201645	1799077	0.34	2005-06-08 17:36:38.0	Ventana	34.483	00:21:12:03	4.416	V2674-01
 	transect	Mediaster	 	2687	 	 	 	1812610	 	2005-07-13 20:47:19.0	Ventana	 	04:11:49:21	 	V2687-05
 	transect	chuniphyes	700.66	2681	 	36.6978	-122.05364	2497623	0.29	2005-07-07 18:36:21.0	Ventana	34.435	02:06:04:03	4.953	V2681-03HD
 	transect	Rathbunaster californicus	197.7	2696	 	36.80266	-122.12168	1813002	1.53	2005-08-01 16:51:41.0	Ventana	34.204	00:20:00:26	8.569	V2696-01
 	transect	molt	100.54	2681	 	36.69983	-122.05429	2489594	2.12	2005-07-07 16:45:40.0	Ventana	34.068	00:16:50:06	9.15	V2681-01HD
 	transect	Nanomia bijuga	200.38	2681	 	36.698303	-122.05338	2491181	1.68	2005-07-07 17:12:32.0	Ventana	34.2	00:43:40:17	8.339	V2681-01HD
 	descend	Copepoda	306.59	2683	 	36.7011	-122.05015	1756504	1.26	2005-07-11 16:54:04.0	Ventana	34.243	00:41:43:11	7.663	V2683-01
 	transect	Phyllospadix	800.26	2674	 	36.752537	-122.20349	1799340	0.35	2005-06-08 17:46:15.0	Ventana	34.486	00:30:47:26	4.368	V2674-01
 	transect	Phyllospadix	997.63	2669	 	36.730614	-122.2281	1649335	0.45	2005-05-25 18:01:13.0	Ventana	34.521	00:23:41:07	3.907	V2669-01
 	transect	Calliostoma platinum	 	2687	http://search.mbari.org/ARCHIVE/frameGrabs/Ventana/images/2687/00_26_47_23.jpg	 	 	1807106	 	2005-07-13 16:59:53.0	Ventana	 	00:26:47:23	 	V2687-01
 	transect	Diogenidae	598.94	2680	 	36.780205	-122.22525	1804613	0.35	2005-06-27 18:20:08.0	Ventana	34.382	01:00:13:23	5.563	V2680-01
 	transect	Poeobius meseres	600.52	2681	 	36.69764	-122.0535	2493847	0.3	2005-07-07 18:27:17.0	Ventana	34.389	01:57:36:29	5.476	V2681-02HD
 	ascend	Nanomia	258.17	2681	 	36.697838	-122.05522	1719335	 	2005-07-07 21:29:59.0	Ventana	 	05:01:24:18	 	V2681-05
 	descend	Munnopsidae	811.85	2682	 	36.698353	-122.05955	1721707	0.31	2005-07-08 18:42:00.0	Ventana	34.473	02:35:04:13	4.512	V2682-03
 	transect	Nanomia bijuga	200.45	2681	 	36.69828	-122.05329	2490738	1.71	2005-07-07 17:08:33.0	Ventana	34.193	00:39:41:22	8.323	V2681-01HD
 	transect	Phyllospadix	799.72	2674	 	36.75253	-122.20394	1799423	0.35	2005-06-08 17:48:47.0	Ventana	34.483	00:33:20:08	4.374	V2674-01
 	descend	Appendicularia	273.96	2682	 	36.69977	-122.06078	1720041	1.34	2005-07-08 16:33:38.0	Ventana	34.226	00:27:42:04	7.706	V2682-01
 	transect	Gastropoda	198.35	2696	 	36.803616	-122.12449	1813265	1.53	2005-08-01 17:28:06.0	Ventana	34.204	00:56:23:16	8.618	V2696-01
 	transect	Mesomyaria	999.32	2669	 	36.730507	-122.22863	1650918	0.45	2005-05-25 18:04:34.0	Ventana	34.522	00:27:02:05	3.906	V2669-01
 	transect	Ophiuroidea	998.83	2669	 	36.731087	-122.23067	1651361	0.45	2005-05-25 18:19:25.25	Ventana	34.522	00:41:52:11	3.912	V2669-01
 	transect	Phyllospadix	801.06	2674	 	36.752556	-122.20134	1774192	0.34	2005-06-08 17:35:15.0	Ventana	34.482	00:19:48:29	4.38	V2674-01
 	transect	Mesomyaria	803.0	2674	 	36.75181	-122.21014	1800991	0.36	2005-06-08 18:20:32.0	Ventana	34.49	01:04:36:28	4.316	V2674-02
 	transect	Umbellula lindahli	599.23	2680	 	36.783123	-122.22849	1805319	0.36	2005-06-27 19:04:03.0	Ventana	34.378	01:43:06:27	5.591	V2680-02
 	transect	Porifera sp. 1	 	2687	 	 	 	1810133	 	2005-07-13 18:58:48.0	Ventana	 	02:24:33:08	 	V2687-03
 	descend	Solmissus	399.32	2681	 	36.695553	-122.05119	1715105	0.82	2005-07-07 17:33:18.9	Ventana	34.275	01:03:43:00	6.694	V2681-02
 	transect	Mesomyaria	1000.13	2669	 	36.731083	-122.239784	1689200	0.41	2005-05-25 19:26:13.0	Ventana	34.51	01:48:11:09	4.062	V2669-02
 	transect	Mediaster	 	2687	 	 	 	1811305	 	2005-07-13 20:05:44.0	Ventana	 	03:30:44:04	 	V2687-04
 	descend	Copepoda	358.09	2682	 	36.69861	-122.06039	1720327	1.01	2005-07-08 17:22:12.0	Ventana	34.254	01:15:42:29	7.086	V2682-02
 	ascend	Nanomia	368.97	2693	 	36.694862	-122.060974	1758840	1.24	2005-07-25 20:59:16.0	Ventana	34.233	03:23:49:03	7.338	V2693-04
 	transect	Mediaster	 	2687	 	 	 	1808749	 	2005-07-13 17:28:30.0	Ventana	 	00:55:22:07	 	V2687-01
 	ascend	Appendicularia	457.44	2681	 	36.69902	-122.054184	1717771	0.59	2005-07-07 20:36:36.233	Ventana	34.315	04:05:37:01	6.335	V2681-04
 	descend	Bathocyroe	1108.89	2682	 	36.698215	-122.05919	1722099	0.57	2005-07-08 19:10:41.0	Ventana	34.551	03:03:19:10	3.63	V2682-04
 	transect	Phyllospadix	801.99	2674	 	36.752247	-122.20693	1799999	0.37	2005-06-08 18:04:23.0	Ventana	34.49	00:48:55:03	4.341	V2674-01
 	transect	Umbellula lindahli	599.94	2680	 	36.777927	-122.2231	1804327	0.36	2005-06-27 17:52:23.0	Ventana	34.379	00:32:30:21	5.588	V2680-01
 	cruise	LRJ Complex	611.34	2688	 	36.795563	-122.01932	1677341	0.45	2005-07-14 16:35:33.0	Ventana	34.383	00:21:53:20	5.503	V2688-01
 	transect	Gastropoda sp.2	999.87	2669	 	36.73097	-122.233086	1695096	0.45	2005-05-25 18:37:07.0	Ventana	34.522	00:59:32:14	3.912	V2669-01
 	cruise	Pleuronectiformes	317.24	2688	http://search.mbari.org/ARCHIVE/frameGrabs/Ventana/images/2688/01_57_28_22.jpg	36.808483	-122.02026	1677844	1.32	2005-07-14 18:11:47.0	Ventana	34.226	01:57:28:22	7.753	V2688-02
 	ascend	Chaetognatha	895.45	2682	 	36.698223	-122.058426	1723211	0.35	2005-07-08 20:14:38.0	Ventana	34.495	04:06:48:26	4.276	V2682-05
 	transect	Phyllospadix	1000.19	2669	 	36.731956	-122.24632	1735662	0.41	2005-05-25 20:06:48.0	Ventana	34.51	02:28:18:20	4.063	V2669-03
 	transect	Ophiuroidea	998.46	2669	 	36.731113	-122.230705	1683394	0.45	2005-05-25 18:19:59.0	Ventana	34.521	00:42:25:26	3.912	V2669-01
 	descend	Myctophidae	658.09	2682	 	36.698647	-122.05994	1721361	0.28	2005-07-08 18:10:45.0	Ventana	34.409	02:03:50:28	5.225	V2682-03
 	descend	Aegina	526.5	2683	 	36.701477	-122.04913	1756910	0.56	2005-07-11 17:42:08.0	Ventana	34.319	01:26:14:10	6.262	V2683-02
 	transect	Mediaster	 	2687	 	 	 	1812264	 	2005-07-13 20:30:11.0	Ventana	 	03:55:09:04	 	V2687-04
 	transect	Nanomia bijuga	200.4	2681	 	36.698288	-122.05333	2491038	1.7	2005-07-07 17:11:06.0	Ventana	34.196	00:42:13:12	8.332	V2681-01HD
 	descend	Nanomia	164.05	2693	 	36.69626	-122.057755	1758211	2.0	2005-07-25 17:57:52.0	Ventana	34.124	00:38:23:26	8.957	V2693-01
 	transect	Mesomyaria	1000.13	2669	http://search.mbari.org/ARCHIVE/frameGrabs/Ventana/images/2669/01_02_14_13.jpg	36.73094	-122.233734	1683943	0.45	2005-05-25 18:40:13.0	Ventana	34.523	01:02:14:13	3.911	V2669-02
 	transect	Gastropoda	201.38	2696	 	36.805256	-122.12819	1813611	1.5	2005-08-01 18:04:33.0	Ventana	34.211	01:32:25:15	8.669	V2696-02
 	transect	Caecosagitta macrocephala	800.86	2681	 	36.69688	-122.05293	2498269	0.31	2005-07-07 19:02:05.0	Ventana	34.474	02:31:45:18	4.507	V2681-03HD
 	transect	Mediaster	 	2687	 	 	 	1812813	 	2005-07-13 20:59:02.0	Ventana	 	04:23:32:04	 	V2687-05
 	transect	Brisaster	196.47	2696	 	36.802944	-122.12237	1813062	1.55	2005-08-01 17:03:14.0	Ventana	34.2	00:31:33:16	8.608	V2696-01
 	transect	molt	100.49	2681	 	36.699818	-122.05428	2489737	2.13	2005-07-07 16:49:03.0	Ventana	34.067	00:20:12:28	9.155	V2681-01HD
 	descend	Appendicularia	367.73	2682	 	36.698467	-122.060036	1720655	0.98	2005-07-08 17:34:04.0	Ventana	34.256	01:27:34:22	7.047	V2682-02
 	ascend	Poeobius meseres	1148.46	2682	 	36.698227	-122.05748	1722505	0.62	2005-07-08 19:55:00.0	Ventana	34.561	03:47:35:28	3.509	V2682-04
 	transect	Lycodes cortezianus	 	2687	 	 	 	1807309	 	2005-07-13 17:05:40.0	Ventana	 	00:32:34:06	 	V2687-01
 	transect	Rathbunaster californicus	199.68	2696	 	36.80426	-122.12608	1813408	1.52	2005-08-01 17:43:47.0	Ventana	34.208	01:11:41:09	8.663	V2696-02
 	descend	Hormiphora	219.12	2683	 	36.700996	-122.05075	1756407	1.7	2005-07-11 16:48:34.0	Ventana	34.194	00:36:14:13	8.261	V2683-01
 	transect	Phyllospadix	799.96	2674	 	36.752453	-122.20493	1799686	0.35	2005-06-08 17:54:09.0	Ventana	34.488	00:38:41:17	4.354	V2674-01
 	ascend	Appendicularia	954.78	2682	 	36.697716	-122.05846	1723008	0.43	2005-07-08 20:08:30.0	Ventana	34.517	04:00:40:08	4.013	V2682-05
 	transect	Phyllospadix	800.95	2674	 	36.752613	-122.2019	1799137	0.34	2005-06-08 17:38:33.0	Ventana	34.491	00:23:06:10	4.389	V2674-01
 	transect	field of view 36	602.86	2680	 	36.789494	-122.23255	1806714	0.35	2005-06-27 20:11:07.0	Ventana	34.379	02:49:44:20	5.588	V2680-03
 	transect	Mediaster	 	2687	 	 	 	1812467	 	2005-07-13 20:40:37.0	Ventana	 	04:05:35:01	 	V2687-04
 	transect	Solmaris	400.77	2681	 	36.69737	-122.05303	2493141	0.79	2005-07-07 17:47:49.0	Ventana	34.279	01:18:13:19	6.663	V2681-02HD
 	descend	Appendicularia	923.22	2683	 	36.703663	-122.04861	1757302	0.38	2005-07-11 19:06:43.0	Ventana	34.507	02:47:06:03	4.192	V2683-03
 	transect	Caridea sp.1	998.72	2669	 	36.732872	-122.252045	1737309	0.4	2005-05-25 20:45:14.0	Ventana	34.509	03:06:01:20	4.074	V2669-04
 	transect	Zaniolepididae	203.54	2696	 	36.806488	-122.130066	1813768	1.48	2005-08-01 18:28:36.0	Ventana	34.213	01:56:26:15	8.631	V2696-02
 	transect	Ceriantharia sp. 2	999.43	2669	 	36.73099	-122.23242	1683740	0.45	2005-05-25 18:32:34.0	Ventana	34.523	00:54:59:28	3.916	V2669-01
 	transect	beroe	900.99	2681	 	36.695152	-122.05083	2498472	0.39	2005-07-07 19:15:31.0	Ventana	34.507	02:45:12:05	4.16	V2681-03HD
 	cruise	Microstomus pacificus	 	2687	 	 	 	1806917	 	2005-07-13 16:38:48.0	Ventana	 	00:05:43:08	 	V2687-01
 	transect	Mesomyaria	999.64	2669	 	36.731396	-122.23752	1687505	0.44	2005-05-25 19:11:08.0	Ventana	34.52	01:33:06:21	3.942	V2669-02
 	ascend	sinker	891.61	2681	 	36.698105	-122.05501	1717315	0.37	2005-07-07 19:50:02.213	Ventana	34.505	03:19:05:12	4.22	V2681-04
 	descend	Poeobius meseres	1126.51	2682	 	36.698208	-122.0592	1722159	0.58	2005-07-08 19:12:15.0	Ventana	34.556	03:04:52:26	3.583	V2682-04
 	transect	Nanomia bijuga	200.35	2681	 	36.698353	-122.05346	2491384	1.67	2005-07-07 17:13:52.0	Ventana	34.201	00:44:59:24	8.341	V2681-01HD
 	transect	Sebastolobus altivelis	802.38	2674	 	36.752235	-122.20645	1799939	0.36	2005-06-08 18:01:58.0	Ventana	34.489	00:46:30:04	4.343	V2674-01
 	transect	Umbellula lindahli	600.41	2680	 	36.786182	-122.2309	1805865	0.36	2005-06-27 19:35:19.0	Ventana	34.378	02:13:59:00	5.599	V2680-03
 	descend	Appendicularia	408.02	2681	 	36.69804	-122.05377	1715308	0.79	2005-07-07 17:50:51.967	Ventana	34.275	01:21:13:29	6.638	V2681-02
 	ascend	Appendicularia	461.39	2683	 	36.704292	-122.05056	1758008	0.74	2005-07-11 21:17:47.0	Ventana	34.293	04:50:39:10	6.602	V2683-05
 	transect	Euphausia	200.37	2681	 	36.698315	-122.05341	2491241	1.67	2005-07-07 17:13:04.0	Ventana	34.201	00:44:11:11	8.34	V2681-01HD
 	transect	Psolus squamatus	 	2687	 	 	 	1807715	 	2005-07-13 17:24:04.0	Ventana	 	00:50:56:28	 	V2687-01
 	cruise	Lycodapus	540.75	2688	 	36.798195	-122.01966	1677438	0.62	2005-07-14 17:01:00.0	Ventana	34.326	00:47:19:00	6.259	V2688-01
 	ascend	Lobata	1186.37	2683	 	36.707375	-122.04781	1757708	0.71	2005-07-11 20:24:11.0	Ventana	34.572	03:58:31:20	3.365	V2683-04
 	ascend	Calycophorae	732.82	2683	 	36.706112	-122.04861	1757851	0.31	2005-07-11 21:04:17.0	Ventana	34.455	04:37:08:18	4.722	V2683-05
 	ascend	Leuroglossus stilbius	760.82	2681	 	36.698677	-122.055954	1717518	0.29	2005-07-07 20:11:51.9	Ventana	34.45	03:40:53:07	4.802	V2681-04
 	transect	Euphausia	200.46	2681	 	36.69828	-122.05329	2490678	1.72	2005-07-07 17:08:13.0	Ventana	34.194	00:39:20:13	8.323	V2681-01HD
 	cruise	Allocentrotus fragilis	258.19	2676	 	36.80553	-122.02948	1676732	1.54	2005-06-14 17:36:23.0	Ventana	34.209	01:16:07:15	7.999	V2676-02
 	descend	Aegina	885.83	2682	 	36.698273	-122.05944	1721767	0.33	2005-07-08 18:50:31.0	Ventana	34.492	02:43:33:27	4.331	V2682-03
 	ascend	Euphausiacea	258.26	2681	 	36.698757	-122.05683	1719086	1.43	2005-07-07 21:22:26.08	Ventana	34.226	04:50:45:04	7.958	V2681-05
 	stationary	Appendicularia	501.73	2695	 	36.784588	-122.20046	1824432	0.87	2005-07-28 17:21:13.0	Ventana	34.265	00:27:34:03	6.676	V2695-01
 	transect	Mesomyaria	800.6	2674	 	36.751076	-122.21777	1803529	0.35	2005-06-08 18:57:17.0	Ventana	34.49	01:41:19:23	4.361	V2674-02
 	transect	Chionoecetes tanneri	1000.6	2669	 	36.732216	-122.2486	1736225	0.41	2005-05-25 20:23:09.0	Ventana	34.51	02:44:37:23	4.061	V2669-03
 	transect	Microstomus pacificus	 	2687	 	 	 	1809801	 	2005-07-13 18:42:05.0	Ventana	 	02:07:51:03	 	V2687-03
 	transect	Chaetognatha	400.79	2681	 	36.696365	-122.05184	2492998	0.79	2005-07-07 17:43:29.0	Ventana	34.275	01:13:53:15	6.648	V2681-02HD
 	transect	Stomphia	997.48	2669	 	36.730602	-122.22727	1649132	0.45	2005-05-25 17:56:01.0	Ventana	34.521	00:18:29:11	3.909	V2669-01
 	transect	Halipteris californica	599.87	2680	 	36.783344	-122.22877	1805379	0.35	2005-06-27 19:06:16.0	Ventana	34.379	01:45:20:17	5.587	V2680-02
 	transect	Calycophorae	500.6	2681	 	36.697647	-122.05341	2493344	0.44	2005-07-07 17:56:11.0	Ventana	34.347	01:26:34:20	6.017	V2681-02HD
 	transect	Mesomyaria	800.24	2674	 	36.751263	-122.21591	1803372	0.35	2005-06-08 18:48:55.0	Ventana	34.489	01:32:58:03	4.36	V2674-02
 	transect	Parastichopus leukothele	197.4	2696	 	36.80343	-122.123764	1813205	1.56	2005-08-01 17:19:41.0	Ventana	34.196	00:47:58:19	8.631	V2696-01
 	cruise	Poralia rufescens	1208.0	2683	http://search.mbari.org/ARCHIVE/frameGrabs/Ventana/images/2683/03_50_10_18.jpg	36.70703	-122.047646	20005010	0.72	2005-07-11 20:15:48.0	Ventana	34.573	03:50:10:18	3.354	V2683-04
 	transect	Calycophorae	600.6	2681	 	36.696117	-122.05169	2493704	0.3	2005-07-07 18:20:37.0	Ventana	34.388	01:50:58:27	5.49	V2681-02HD
 	cruise	mud	444.54	2688	 	36.803646	-122.01808	1677641	0.89	2005-07-14 17:38:12.0	Ventana	34.272	01:23:56:11	6.873	V2688-02
 	transect	scarp	 	2687	 	 	 	1810899	 	2005-07-13 19:41:52.0	Ventana	 	03:06:54:02	 	V2687-04
 	descend	Copepoda	352.57	2683	 	36.701305	-122.04991	1756564	1.18	2005-07-11 16:56:40.0	Ventana	34.23	00:44:21:08	7.179	V2683-01
 	ascend	Lensia	370.94	2693	 	36.696526	-122.060616	1758697	1.2	2005-07-25 20:29:03.0	Ventana	34.233	03:08:36:21	7.172	V2693-03
 	ascend	Appendicularia	613.26	2682	 	36.69887	-122.05989	1723414	0.38	2005-07-08 20:38:13.0	Ventana	34.38	04:30:20:28	5.511	V2682-05
 	transect	Mesomyaria	800.58	2674	http://search.mbari.org/ARCHIVE/frameGrabs/Ventana/images/2674/00_59_04_07.jpg	36.752033	-122.209015	1800848	0.35	2005-06-08 18:14:33.0	Ventana	34.49	00:59:04:07	4.341	V2674-01
 	ascend	Appendicularia	258.17	2681	 	36.697838	-122.05522	1719478	 	2005-07-07 21:29:59.0	Ventana	 	05:06:42:16	 	V2681-05
 	transect	Ophiuroidea	998.62	2669	 	36.73097	-122.23003	1651218	0.45	2005-05-25 18:14:31.0	Ventana	34.521	00:36:57:27	3.913	V2669-01
 	transect	Mesomyaria	799.45	2674	 	36.751667	-122.21293	1801240	0.35	2005-06-08 18:31:26.0	Ventana	34.489	01:15:30:17	4.336	V2674-02
 	descend	Solmaris	519.78	2682	 	36.698593	-122.059784	1720858	0.4	2005-07-08 18:01:36.0	Ventana	34.363	01:55:05:16	5.899	V2682-02
 	transect	Psolus squamatus	399.71	2687	 	36.789288	-122.124695	1809598	1.16	2005-07-13 18:23:18.0	Ventana	34.238	01:49:37:12	7.333	V2687-02
 	transect	Sebastes diploproa	 	2687	 	 	 	1809990	 	2005-07-13 18:49:49.0	Ventana	 	02:15:35:04	 	V2687-03
 	transect	Mesomyaria	999.44	2669	 	36.73133	-122.23592	1684478	0.44	2005-05-25 18:57:06.0	Ventana	34.52	01:19:05:22	3.936	V2669-02
 	descend	Appendicularia	345.33	2682	 	36.69876	-122.06055	1720184	1.03	2005-07-08 17:12:39.0	Ventana	34.251	01:06:11:09	7.125	V2682-02
 	transect	Caridea sp.1	601.07	2680	 	36.784653	-122.23002	1805662	0.35	2005-06-27 19:20:19.0	Ventana	34.377	01:59:22:05	5.597	V2680-02
 	transect	Mesomyaria	998.7	2669	 	36.731083	-122.23112	1683537	0.45	2005-05-25 18:23:26.0	Ventana	34.521	00:45:52:23	3.915	V2669-01
 	descend	Bathocyroe	1172.18	2683	 	36.706745	-122.04801	1757505	0.68	2005-07-11 19:35:38.0	Ventana	34.566	03:15:58:21	3.442	V2683-03
 	descend	Chaetognatha	736.16	2683	 	36.7023	-122.04894	1757113	0.31	2005-07-11 17:56:42.0	Ventana	34.445	01:40:47:09	4.824	V2683-02
 	transect	Poeobius meseres	1000.97	2681	 	36.69622	-122.052444	2498675	0.47	2005-07-07 19:28:45.0	Ventana	34.532	02:58:25:15	3.872	V2681-03HD
 	transect	Mesomyaria	999.05	2669	 	36.732754	-122.25136	1737203	0.41	2005-05-25 20:41:12.0	Ventana	34.509	03:02:01:21	4.072	V2669-04
 	transect	Mediaster	 	2687	 	 	 	1810696	 	2005-07-13 19:28:40.0	Ventana	 	02:54:23:24	 	V2687-03
 	transect	Allocentrotus fragilis	 	2687	 	 	 	1808869	 	2005-07-13 17:30:47.0	Ventana	 	00:57:39:20	 	V2687-01
 	transect	Mediaster	 	2687	 	 	 	1810742	 	2005-07-13 19:31:05.0	Ventana	 	02:56:48:21	 	V2687-03
 	descend	Lensia	314.25	2693	 	36.69756	-122.06076	1758497	1.31	2005-07-25 19:40:45.0	Ventana	34.234	02:20:21:10	7.605	V2693-03
 	transect	Mesomyaria	800.89	2674	 	36.75251	-122.20275	1799243	0.35	2005-06-08 17:42:21.0	Ventana	34.485	00:26:54:20	4.379	V2674-01
 	transect	Appendicularia	500.59	2681	 	36.697533	-122.053276	2493381	0.44	2005-07-07 17:56:41.0	Ventana	34.347	01:27:03:27	6.017	V2681-02HD
 	transect	Acanthamunnopsis milleri	200.46	2681	 	36.69828	-122.05329	2490249	1.7	2005-07-07 17:06:14.0	Ventana	34.199	00:37:22:01	8.36	V2681-01HD
 	transect	Mesomyaria	1000.15	2669	 	36.731075	-122.23872	1689057	0.43	2005-05-25 19:19:30.0	Ventana	34.514	01:41:28:21	3.969	V2669-02
 	ascend	Appendicularia	421.44	2681	 	36.699203	-122.05426	1717951	0.79	2005-07-07 20:45:09.233	Ventana	34.278	04:13:46:04	6.642	V2681-05
 	transect	Ceriantharia sp. 1	600.12	2680	 	36.784164	-122.229515	1805522	0.36	2005-06-27 19:14:25.0	Ventana	34.376	01:53:28:15	5.608	V2680-02
 	transect	Mesomyaria	798.48	2674	 	36.751633	-122.21371	1801300	0.35	2005-06-08 18:36:22.0	Ventana	34.487	01:20:26:03	4.343	V2674-02
 	transect	Rathbunaster californicus	 	2687	 	 	 	1812753	 	2005-07-13 20:56:04.0	Ventana	 	04:20:34:08	 	V2687-05
 	transect	Mesomyaria	1000.18	2669	 	36.731796	-122.244675	1734424	0.4	2005-05-25 19:54:30.0	Ventana	34.508	02:16:01:06	4.09	V2669-03
 	transect	Psolus squamatus	399.69	2687	 	36.789356	-122.1249	1809621	1.15	2005-07-13 18:26:18.0	Ventana	34.238	01:52:37:05	7.318	V2687-02
 	ascend	Copepoda	835.72	2681	 	36.69871	-122.05611	1717398	0.31	2005-07-07 19:56:58.233	Ventana	34.483	03:26:01:00	4.423	V2681-04
 	transect	molt	100.58	2681	 	36.69983	-122.05429	2489497	2.13	2005-07-07 16:43:03.0	Ventana	34.068	00:14:13:17	9.152	V2681-01HD
 	transect	Calycophorae	1001.07	2681	 	36.694843	-122.050674	2498555	0.47	2005-07-07 19:21:49.0	Ventana	34.529	02:51:29:28	3.868	V2681-03HD
 	transect	Mesomyaria	999.48	2669	 	36.731056	-122.23505	1684252	0.45	2005-05-25 18:50:37.0	Ventana	34.521	01:12:37:15	3.922	V2669-02
 	transect	Gastropoda sp.2	1000.56	2669	 	36.73093	-122.2336	1694630	0.45	2005-05-25 18:39:41.0	Ventana	34.522	01:01:42:00	3.914	V2669-02
 	cruise	Mediaster	99.55	2688	 	36.81454	-122.01703	1679431	1.95	2005-07-14 20:42:00.0	Ventana	34.096	04:26:15:02	8.939	V2688-05
 	descend	Nanomia	 	2693	 	 	 	1759449	 	2005-07-25 16:45:30.0	Ventana	 	00:24:03:11	 	V2693-01
 	transect	Psolus squamatus	 	2687	 	 	 	1807549	 	2005-07-13 17:15:11.0	Ventana	 	00:42:04:00	 	V2687-01
 	ascend	Appendicularia	758.28	2682	 	36.698757	-122.05907	1723294	0.29	2005-07-08 20:27:40.0	Ventana	34.444	04:19:48:24	4.833	V2682-05
 	ascend	Chaetognatha	288.1	2693	 	36.69144	-122.062164	1759080	1.37	2005-07-25 21:20:01.0	Ventana	34.237	03:44:33:16	8.106	V2693-04
 	ascend	Calycophorae	261.21	2681	 	36.698833	-122.057	1719026	1.42	2005-07-07 21:21:07.2	Ventana	34.232	04:49:26:10	7.954	V2681-05
 	ascend	Appendicularia	600.48	2682	 	36.698544	-122.06197	1723554	0.36	2005-07-08 21:02:06.0	Ventana	34.376	04:54:12:21	5.661	V2682-05
 	transect	Parastichopus leukothele	200.18	2696	 	36.80471	-122.127174	1813505	1.51	2005-08-01 17:54:40.0	Ventana	34.211	01:22:33:05	8.671	V2696-02
 	transect	lobata	600.57	2681	 	36.69651	-122.05214	2493750	0.3	2005-07-07 18:22:23.0	Ventana	34.388	01:52:45:11	5.48	V2681-02HD
 	transect	Phyllospadix	800.75	2674	 	36.75242	-122.20546	1799796	0.36	2005-06-08 17:57:00.0	Ventana	34.487	00:41:33:05	4.356	V2674-01
 	descend	Poeobius meseres	1054.0	2683	 	36.704998	-122.04907	1757422	0.49	2005-07-11 19:25:25.0	Ventana	34.532	03:05:47:03	3.846	V2683-03
 	transect	Ophiuroidea	999.16	2669	 	36.731426	-122.23622	1684681	0.44	2005-05-25 18:59:10.0	Ventana	34.52	01:21:10:05	3.941	V2669-02
 	cruise	Poralia	996.31	2689	 	36.771416	-122.08274	1669621	0.54	2005-07-18 16:39:27.0	Ventana	34.526	00:02:31:16	3.938	V2689-01
 	transect	molt	100.5	2681	 	36.69928	-122.05394	2489820	2.14	2005-07-07 16:51:18.0	Ventana	34.067	00:22:26:03	9.15	V2681-01HD
 	transect	Phyllospadix	800.6	2674	 	36.75196	-122.20968	1800931	0.35	2005-06-08 18:18:09.0	Ventana	34.49	01:02:14:21	4.335	V2674-02
 	transect	Poeobius meseres	400.75	2681	 	36.69685	-122.05245	2493058	0.79	2005-07-07 17:45:40.0	Ventana	34.277	01:16:03:18	6.659	V2681-02HD
 	transect	Ophiuroidea	999.07	2669	 	36.731388	-122.23609	1684575	0.44	2005-05-25 18:58:13.0	Ventana	34.522	01:20:13:11	3.94	V2669-02
 	ascend	Crustacea	1169.27	2683	 	36.707714	-122.048874	1757745	0.7	2005-07-11 20:31:43.0	Ventana	34.568	04:06:03:24	3.4	V2683-04
 	descend	Solmissus	446.41	2682	 	36.698437	-122.059525	1720775	0.57	2005-07-08 17:52:17.0	Ventana	34.315	01:45:48:09	6.325	V2682-02
 	transect	Sebastolobus altivelis	803.44	2674	 	36.750767	-122.22041	1803695	0.34	2005-06-08 19:08:39.0	Ventana	34.487	01:52:40:28	4.375	V2674-02
 	transect	Mesomyaria	1000.15	2669	 	36.730976	-122.23318	1683883	0.45	2005-05-25 18:37:47.0	Ventana	34.523	01:00:12:25	3.909	V2669-01
 	cruise	mud	152.15	2676	 	36.808704	-122.03063	1676852	1.68	2005-06-14 17:53:35.0	Ventana	34.18	01:33:18:18	8.261	V2676-02
 	transect	Mesomyaria	1000.14	2669	 	36.73186	-122.24534	1735376	0.4	2005-05-25 19:59:26.0	Ventana	34.508	02:20:57:03	4.07	V2669-03
 	transect	Rathbunaster californicus	 	2687	http://search.mbari.org/ARCHIVE/frameGrabs/Ventana/images/2687/03_15_54_18.jpg	 	 	1811065	 	2005-07-13 19:50:53.0	Ventana	 	03:15:54:18	 	V2687-04
 	transect	Mesomyaria	1000.29	2669	 	36.731255	-122.241295	1689749	0.4	2005-05-25 19:35:35.0	Ventana	34.508	01:57:33:03	4.086	V2669-02
 	transect	Psolus squamatus	399.89	2687	 	36.788097	-122.121735	1809298	1.14	2005-07-13 17:38:51.0	Ventana	34.242	01:05:13:07	7.287	V2687-02
 	descend	Myctophidae	728.06	2682	 	36.698444	-122.059685	1721527	0.29	2005-07-08 18:25:47.0	Ventana	34.443	02:18:50:22	4.87	V2682-03
 	ascend	Aegina	673.23	2682	 	36.69889	-122.05955	1723354	0.28	2005-07-08 20:33:54.0	Ventana	34.411	04:26:02:22	5.178	V2682-05
 	descend	Calycophorae	984.7	2683	 	36.7041	-122.048965	1757362	0.42	2005-07-11 19:14:54.0	Ventana	34.517	02:55:15:18	4.031	V2683-03
 	cruise	Pleuronectiformes	139.5	2688	 	36.811127	-122.022224	1677987	1.94	2005-07-14 18:39:17.0	Ventana	34.099	02:24:32:03	8.905	V2688-03
 	transect	Rathbunaster californicus	199.94	2696	 	36.804413	-122.1264	1813445	1.51	2005-08-01 17:47:09.0	Ventana	34.21	01:15:03:04	8.667	V2696-02
 	transect	Phyllospadix	601.36	2680	http://search.mbari.org/ARCHIVE/frameGrabs/Ventana/images/2680/00_18_00_08.jpg	36.776733	-122.22205	1804124	0.36	2005-06-27 17:37:52.0	Ventana	34.379	00:18:00:08	5.578	V2680-01
 	transect	Actiniaria sp. 3	 	2687	 	 	 	1807166	 	2005-07-13 17:02:25.0	Ventana	 	00:29:19:21	 	V2687-01
 	transect	lobata	300.41	2681	 	36.697563	-122.05302	2492200	1.24	2005-07-07 17:22:59.0	Ventana	34.233	00:54:06:28	7.406	V2681-01HD
 	transect	Mediaster	 	2687	 	 	 	1811125	 	2005-07-13 19:55:08.0	Ventana	 	03:20:08:18	 	V2687-04
 	descend	Chuniphyes	926.01	2682	 	36.698257	-122.059395	1721790	0.35	2005-07-08 18:52:48.0	Ventana	34.497	02:45:49:11	4.267	V2682-03
 	transect	Psolus squamatus	 	2687	 	 	 	1807609	 	2005-07-13 17:17:34.0	Ventana	 	00:44:27:06	 	V2687-01
 	transect	Psolus squamatus	 	2687	 	 	 	1812430	 	2005-07-13 20:38:33.0	Ventana	 	04:03:31:01	 	V2687-04
 	ascend	Chaetognatha	213.93	2683	 	36.70281	-122.05075	1758114	1.63	2005-07-11 21:28:26.0	Ventana	34.205	05:01:18:06	8.409	V2683-05
 	transect	Porifera sp. 1	 	2687	 	 	 	1810050	 	2005-07-13 18:52:21.0	Ventana	 	02:18:07:00	 	V2687-03
 	transect	molt	50.42	2681	 	36.69983	-122.05429	2485658	2.98	2005-07-07 16:36:59.0	Ventana	33.915	00:08:10:03	9.63	V2681-01HD
 	descend	Appendicularia	143.93	2693	 	36.69637	-122.05774	1758174	1.94	2005-07-25 17:56:05.0	Ventana	34.109	00:36:37:15	9.052	V2693-01
 	transect	Chionoecetes tanneri	800.71	2674	 	36.75244	-122.20463	1799626	0.36	2005-06-08 17:52:55.0	Ventana	34.49	00:37:27:23	4.348	V2674-01
 	descend	Cydippida	310.4	2682	 	36.698997	-122.0606	1720147	1.14	2005-07-08 17:02:06.0	Ventana	34.241	00:56:08:09	7.284	V2682-01
 	ascend	Salpida	376.28	2693	 	36.69612	-122.06057	1758757	1.2	2005-07-25 20:49:21.0	Ventana	34.232	03:13:55:16	7.158	V2693-04
 	cruise	Pleuronectiformes	451.07	2676	http://search.mbari.org/ARCHIVE/frameGrabs/Ventana/images/2676/00_21_02_08.jpg	36.802944	-122.029274	1676329	0.62	2005-06-14 16:36:54.0	Ventana	34.321	00:21:02:08	6.336	V2676-01
 	transect	Mediaster	 	2687	 	 	 	1811678	 	2005-07-13 20:20:48.0	Ventana	 	03:45:47:10	 	V2687-04
 	transect	Caridea sp.1	1000.34	2669	 	36.731586	-122.24316	1733778	0.41	2005-05-25 19:45:18.0	Ventana	34.511	02:06:48:22	4.062	V2669-03
 	transect	Pennatula phosphorea californica	998.05	2669	 	36.73114	-122.231	1683500	0.45	2005-05-25 18:22:35.0	Ventana	34.523	00:45:02:00	3.912	V2669-01
 	descend	Appendicularia	582.39	2683	 	36.7019	-122.0491	1756993	0.37	2005-07-11 17:47:50.0	Ventana	34.364	01:31:55:06	5.862	V2683-02
 	transect	Psolus squamatus	 	2687	 	 	 	1808929	 	2005-07-13 17:32:12.0	Ventana	 	00:59:04:15	 	V2687-01
 	transect	Allocentrotus fragilis	399.87	2687	 	36.788086	-122.12159	1809192	1.13	2005-07-13 17:36:59.0	Ventana	34.241	01:03:21:07	7.262	V2687-02
 	transect	Mesomyaria	998.79	2669	 	36.732857	-122.25196	1737263	0.4	2005-05-25 20:44:44.0	Ventana	34.509	03:05:33:02	4.076	V2669-04
 	transect	Rathbunaster californicus	203.39	2696	 	36.806744	-122.13034	1813814	1.48	2005-08-01 18:35:44.0	Ventana	34.21	02:03:34:29	8.631	V2696-02
 	transect	Hormiphora	200.37	2681	 	36.698315	-122.05342	2491264	1.66	2005-07-07 17:13:14.0	Ventana	34.2	00:44:22:26	8.341	V2681-01HD
 	transect	Ceriantharia sp. 1	602.1	2680	 	36.79064	-122.23279	1806797	0.35	2005-06-27 20:21:51.0	Ventana	34.379	03:00:27:25	5.589	V2680-03
 	transect	Ophiuroidea	999.77	2669	 	36.731415	-122.23717	1687459	0.44	2005-05-25 19:07:57.0	Ventana	34.52	01:29:56:01	3.942	V2669-02
 	ascend	Nanomia	264.73	2681	 	36.698917	-122.05656	1718763	1.41	2005-07-07 21:18:14.557	Ventana	34.231	04:46:33:26	7.923	V2681-05
 	descend	Amphipoda	1182.69	2682	 	36.698437	-122.05823	1722279	0.66	2005-07-08 19:38:05.0	Ventana	34.569	03:30:41:04	3.412	V2682-04
 	descend	Appendicularia	403.81	2682	 	36.69827	-122.05985	1720715	0.81	2005-07-08 17:38:11.0	Ventana	34.262	01:31:41:09	6.579	V2682-02
 	ascend	sinker	1070.69	2683	 	36.707596	-122.04913	1757805	0.56	2005-07-11 20:46:01.0	Ventana	34.541	04:20:22:13	3.727	V2683-04
 	transect	molt	100.48	2681	 	36.698883	-122.05368	2489880	2.13	2005-07-07 16:52:14.0	Ventana	34.045	00:23:22:13	9.142	V2681-01HD
 	descend	Gonatus	533.16	2688	http://search.mbari.org/ARCHIVE/frameGrabs/Ventana/images/2688/00_03_22_00.jpg	36.79344	-122.018265	1677235	0.68	2005-07-14 16:17:03.0	Ventana	34.311	00:03:22:00	6.38	V2688-01
 	transect	Rathbunaster californicus	 	2687	 	 	 	1812693	 	2005-07-13 20:52:38.0	Ventana	 	04:17:08:12	 	V2687-05
 	transect	haliscera	300.42	2681	 	36.6961	-122.051735	2492569	1.24	2005-07-07 17:28:05.0	Ventana	34.233	00:59:12:00	7.427	V2681-01HD
 	descend	Calycophorae	128.11	2682	 	36.69982	-122.06057	1719884	2.35	2005-07-08 16:17:35.0	Ventana	34.069	00:11:40:14	8.717	V2682-01
 	transect	Nanomia bijuga	200.4	2681	 	36.698284	-122.053314	2491001	1.71	2005-07-07 17:10:37.0	Ventana	34.187	00:41:45:00	8.319	V2681-01HD
 	transect	Halipteris californica	598.56	2680	 	36.78055	-122.22554	1804770	0.35	2005-06-27 18:24:45.0	Ventana	34.383	01:03:51:22	5.553	V2680-02
 	ascend	Nanomia	214.75	2693	 	36.69119	-122.06254	1759140	1.7	2005-07-25 21:24:10.0	Ventana	34.191	03:48:41:05	8.618	V2693-04
 	transect	Umbellula lindahli	599.39	2680	 	36.7794	-122.22447	1804507	0.36	2005-06-27 18:09:23.0	Ventana	34.378	00:49:29:21	5.598	V2680-01
 	transect	cyclothone	500.61	2681	 	36.695946	-122.051414	2493644	0.43	2005-07-07 18:03:41.0	Ventana	34.347	01:34:04:11	6.006	V2681-02HD
 	transect	Psolus squamatus	399.87	2687	 	36.788048	-122.12153	1809132	1.13	2005-07-13 17:36:00.0	Ventana	34.244	01:02:22:13	7.27	V2687-02
 	ascend	Leuroglossus stilbius	616.29	2681	 	36.69893	-122.05424	1717688	0.3	2005-07-07 20:29:05.367	Ventana	34.384	03:58:06:04	5.478	V2681-04
 	ascend	Poeobius meseres	552.68	2682	 	36.6983	-122.06271	1723614	0.39	2005-07-08 21:09:02.0	Ventana	34.357	05:00:44:24	5.864	V2682-06
 	transect	Mediaster	 	2687	 	 	 	1810433	 	2005-07-13 19:18:05.0	Ventana	 	02:43:49:01	 	V2687-03
 	transect	Ceriantharia sp. 1	598.33	2680	 	36.781986	-122.22698	1805079	0.35	2005-06-27 18:43:02.0	Ventana	34.378	01:22:07:24	5.586	V2680-02
 	transect	Mesomyaria	997.42	2669	 	36.73067	-122.22753	1649169	0.45	2005-05-25 17:57:36.0	Ventana	34.521	00:20:04:25	3.909	V2669-01
 	transect	Actiniaria sp. 1	999.52	2669	 	36.73102	-122.23387	1683989	0.45	2005-05-25 18:41:03.0	Ventana	34.522	01:03:03:21	3.913	V2669-02
 	transect	Psolus squamatus	 	2687	 	 	 	1811005	 	2005-07-13 19:47:42.0	Ventana	 	03:12:43:04	 	V2687-04
 	ascend	Chaetognatha	264.22	2681	 	36.699516	-122.054504	1718440	1.41	2005-07-07 21:09:04.733	Ventana	34.23	04:37:24:19	7.911	V2681-05
 	transect	Mesomyaria	798.77	2674	 	36.751495	-122.21447	1801360	0.35	2005-06-08 18:41:53.0	Ventana	34.49	01:25:56:23	4.333	V2674-02
 	descend	Appendicularia	386.55	2681	 	36.695557	-122.05119	1715082	0.93	2005-07-07 17:32:51.627	Ventana	34.261	01:03:15:22	6.893	V2681-02
 	cruise	physical object	267.08	2688	http://search.mbari.org/ARCHIVE/frameGrabs/Ventana/images/2688/02_11_51_10.jpg	36.809074	-122.020355	20005195	1.49	2005-07-14 18:26:34.0	Ventana	34.199	02:11:51:10	8.169	V2688-03
 	descend	Appendicularia	591.27	2681	 	36.695686	-122.05108	1715631	0.32	2005-07-07 18:07:31.0	Ventana	34.379	01:37:52:15	5.551	V2681-02
 	transect	Psolus squamatus	 	2687	 	 	 	1811185	 	2005-07-13 20:00:14.0	Ventana	 	03:25:14:12	 	V2687-04
 	ascend	Lensia	339.96	2693	 	36.693027	-122.06143	1758960	1.26	2005-07-25 21:11:44.0	Ventana	34.239	03:36:16:08	7.434	V2693-04
 	cruise	Dosidicus gigas	502.04	2695	 	36.784393	-122.20044	1824515	0.69	2005-07-28 20:29:48.0	Ventana	34.289	05:31:07:00	6.316	V2695-03
 	transect	Ophiuroidea	1000.28	2669	 	36.73123	-122.241	1689366	0.41	2005-05-25 19:34:03.0	Ventana	34.511	01:56:01:03	4.054	V2669-02
 	transect	Phyllospadix	799.47	2674	 	36.75268	-122.20086	1774155	0.3	2005-06-08 17:32:52.0	Ventana	34.464	00:17:25:27	4.607	V2674-01
 	transect	Actiniaria sp. 1	799.94	2674	 	36.752094	-122.20879	1800811	0.35	2005-06-08 18:13:27.0	Ventana	34.489	00:57:59:01	4.334	V2674-01
 	transect	Mesomyaria	999.62	2669	 	36.730995	-122.23133	1683620	0.45	2005-05-25 18:25:59.0	Ventana	34.523	00:48:25:19	3.913	V2669-01
 	transect	Phyllospadix	801.8	2674	 	36.752247	-122.207375	1800059	0.37	2005-06-08 18:06:46.0	Ventana	34.485	00:51:18:05	4.355	V2674-01
 	transect	Corallimorphus pilatus	 	2687	http://search.mbari.org/ARCHIVE/frameGrabs/Ventana/images/2687/03_00_48_18.jpg	 	 	1810802	 	2005-07-13 19:35:05.0	Ventana	 	03:00:48:18	 	V2687-03
 	transect	doliolenetta	800.97	2681	 	36.69512	-122.050865	2498066	0.31	2005-07-07 18:54:03.0	Ventana	34.477	02:23:45:12	4.486	V2681-03HD
 	ascend	Lensia	366.97	2693	 	36.695248	-122.060905	1758817	1.23	2005-07-25 20:57:36.0	Ventana	34.234	03:22:09:08	7.317	V2693-04
 	transect	Sebastolobus altivelis	800.35	2674	 	36.752567	-122.202324	1799183	0.34	2005-06-08 17:40:13.0	Ventana	34.481	00:24:46:23	4.424	V2674-01
 	transect	Psolus squamatus	 	2687	 	 	 	1808809	 	2005-07-13 17:29:54.0	Ventana	 	00:56:46:07	 	V2687-01
 	transect	Calycophorae	1000.99	2681	 	36.695484	-122.0515	2498615	0.48	2005-07-07 19:25:02.0	Ventana	34.534	02:54:41:20	3.849	V2681-03HD
 	stationary	Merluccius productus	501.79	2694	 	36.784523	-122.20051	1676389	0.74	2005-07-27 17:58:31.0	Ventana	34.284	00:51:36:17	6.474	V2694-01
 	cruise	Stylasterias	91.29	2688	 	36.81629	-122.01626	1679371	2.03	2005-07-14 20:16:02.0	Ventana	34.092	04:00:47:17	8.917	V2688-04
 	transect	Mediaster	 	2687	 	 	 	1811328	 	2005-07-13 20:07:29.0	Ventana	 	03:32:28:11	 	V2687-04
 	ascend	Appendicularia	781.06	2681	 	36.69885	-122.05639	1717458	0.28	2005-07-07 20:05:02.633	Ventana	34.457	03:34:04:12	4.716	V2681-04
 	transect	Mediaster	400.31	2687	 	36.788994	-122.123825	1809501	1.17	2005-07-13 18:09:35.0	Ventana	34.239	01:35:55:12	7.352	V2687-02
 	transect	Lycenchelys crotalinus	800.47	2674	 	36.751198	-122.21651	1803432	0.35	2005-06-08 18:51:30.0	Ventana	34.487	01:35:32:26	4.367	V2674-02
 	transect	Psolus squamatus	399.88	2687	http://search.mbari.org/ARCHIVE/frameGrabs/Ventana/images/2687/01_06_16_14.jpg	36.788166	-122.121796	1809358	1.13	2005-07-13 17:39:54.0	Ventana	34.252	01:06:16:14	7.29	V2687-02
 	transect	Calliostoma platinum	 	2687	 	 	 	1810636	 	2005-07-13 19:26:01.0	Ventana	 	02:51:45:02	 	V2687-03
 	descend	Chaetognatha	307.71	2682	 	36.699436	-122.0607	1720087	1.15	2005-07-08 16:43:35.0	Ventana	34.24	00:37:37:19	7.3	V2682-01
 	transect	Brisaster	1000.55	2669	 	36.732353	-122.249535	1736511	0.41	2005-05-25 20:29:49.0	Ventana	34.507	02:51:18:26	4.075	V2669-03
 	cruise	Zoarcidae	500.67	2688	 	36.80118	-122.01861	1677544	0.75	2005-07-14 17:23:10.0	Ventana	34.295	01:08:55:06	6.598	V2688-02
 	transect	Phyllospadix	801.49	2674	 	36.752476	-122.20005	1773989	0.3	2005-06-08 17:27:04.0	Ventana	34.451	00:11:38:13	4.597	V2674-01
 	ascend	Prayidae	258.17	2681	 	36.697838	-122.05522	1719395	 	2005-07-07 21:29:59.0	Ventana	 	05:03:26:12	 	V2681-05
 	transect	Phyllospadix	799.95	2674	 	36.752506	-122.20362	1799363	0.35	2005-06-08 17:47:11.0	Ventana	34.488	00:31:44:16	4.379	V2674-01
 	transect	Mesomyaria	998.51	2669	 	36.731136	-122.2308	1683440	0.45	2005-05-25 18:20:55.0	Ventana	34.518	00:43:22:03	3.917	V2669-01
 	transect	Calycophorae	600.57	2681	 	36.697056	-122.05279	2493810	0.3	2005-07-07 18:24:54.0	Ventana	34.388	01:55:15:02	5.472	V2681-02HD
 	transect	Umbellula lindahli	599.91	2680	 	36.77835	-122.22351	1804387	0.36	2005-06-27 17:57:15.0	Ventana	34.377	00:37:22:04	5.595	V2680-01
 	descend	Apolemia	661.83	2681	 	36.697937	-122.053856	1715954	0.28	2005-07-07 18:30:43.707	Ventana	34.407	02:01:03:21	5.187	V2681-02
 	transect	Brisaster	1000.35	2669	 	36.731934	-122.24672	1735759	0.41	2005-05-25 20:10:14.0	Ventana	34.509	02:31:42:19	4.07	V2669-03
 	cruise	Rathbunaster californicus	416.74	2688	 	36.805992	-122.0192	1677724	0.93	2005-07-14 17:48:47.0	Ventana	34.267	01:34:30:00	6.954	V2688-02
 	transect	Nanomia bijuga	200.4	2681	 	36.698284	-122.05331	2490941	1.71	2005-07-07 17:10:01.0	Ventana	34.195	00:41:10:05	8.323	V2681-01HD
 	descend	Poeobius meseres	949.25	2681	 	36.69466	-122.050385	1716526	0.43	2005-07-07 19:18:28.847	Ventana	34.518	02:48:10:08	4.01	V2681-03
 	transect	Brisaster	1000.16	2669	 	36.731678	-122.24345	1733838	0.41	2005-05-25 19:47:08.0	Ventana	34.511	02:08:40:02	4.069	V2669-03
 	transect	Rathbunaster californicus	197.84	2696	 	36.80265	-122.1217	1812919	1.53	2005-08-01 16:48:21.0	Ventana	34.205	00:16:40:20	8.558	V2696-01
 	transect	cydippida	300.42	2681	 	36.69663	-122.052216	2492509	1.23	2005-07-07 17:26:10.0	Ventana	34.233	00:57:16:26	7.398	V2681-01HD
 	transect	Hormiphora	200.39	2681	 	36.6983	-122.05336	2491121	1.69	2005-07-07 17:12:04.0	Ventana	34.198	00:43:11:11	8.337	V2681-01HD
 	transect	Umbellula lindahli	602.08	2680	 	36.791542	-122.232956	1806857	0.35	2005-06-27 20:28:48.0	Ventana	34.38	03:07:24:20	5.586	V2680-03
 	descend	Nanomia bijuga	173.08	2685	 	36.793686	-121.88333	1669741	1.96	2005-07-12 20:12:20.0	Ventana	34.103	00:09:55:15	8.812	V2685-01
 	descend	Hormiphora	168.01	2683	 	36.7008	-122.05139	1756301	1.7	2005-07-11 16:31:09.0	Ventana	34.177	00:18:50:19	8.732	V2683-01
 	transect	Psolus squamatus	 	2687	 	 	 	1812370	 	2005-07-13 20:34:47.0	Ventana	 	03:59:45:03	 	V2687-04
 	transect	Mysidae 2	700.62	2681	 	36.69578	-122.05165	2497863	0.28	2005-07-07 18:44:52.0	Ventana	34.434	02:14:34:21	4.948	V2681-03HD
 	descend	Appendicularia	634.49	2682	 	36.698624	-122.059875	1721301	0.28	2005-07-08 18:09:10.0	Ventana	34.399	02:02:15:09	5.347	V2682-03
 	transect	Calycophorae	500.55	2681	 	36.69739	-122.05309	2493441	0.44	2005-07-07 17:57:24.0	Ventana	34.346	01:27:47:15	6.02	V2681-02HD
 	transect	Calycophorae	300.44	2681	 	36.697765	-122.053185	2492140	1.23	2005-07-07 17:22:19.0	Ventana	34.233	00:53:25:18	7.399	V2681-01HD
 	transect	Mesomyaria	998.3	2669	 	36.730526	-122.22837	1649372	0.45	2005-05-25 18:03:04.0	Ventana	34.523	00:25:32:26	3.908	V2669-01
 	ascend	Aegina	629.22	2683	 	36.704956	-122.05029	1757948	0.3	2005-07-11 21:10:33.0	Ventana	34.396	04:43:24:28	5.414	V2683-05
 	transect	Mesomyaria	801.83	2674	 	36.75091	-122.21966	1803635	0.34	2005-06-08 19:05:06.0	Ventana	34.479	01:49:08:16	4.367	V2674-02
 	transect	Psolus squamatus	 	2687	 	 	 	1809884	 	2005-07-13 18:47:26.0	Ventana	 	02:13:12:20	 	V2687-03
 	transect	Phyllospadix	999.79	2669	 	36.73121	-122.23574	1684372	0.44	2005-05-25 18:55:21.0	Ventana	34.52	01:17:20:22	3.935	V2669-02
 	ascend	Solmissus	351.93	2681	 	36.69934	-122.055084	1718071	1.06	2005-07-07 20:52:26.933	Ventana	34.252	04:20:47:25	7.17	V2681-05
 	transect	Ceriantharia sp. 1	600.38	2680	 	36.78388	-122.22932	1805462	0.35	2005-06-27 19:11:51.0	Ventana	34.378	01:50:54:17	5.592	V2680-02
 	transect	Rathbunaster californicus	196.45	2696	 	36.80314	-122.122826	1813122	1.55	2005-08-01 17:08:33.0	Ventana	34.199	00:36:51:19	8.615	V2696-01
 	transect	Chaetognatha	700.63	2681	 	36.696987	-122.05284	2497683	0.29	2005-07-07 18:39:52.0	Ventana	34.437	02:09:34:18	4.928	V2681-03HD
 	descend	Nanomia	429.68	2683	 	36.701466	-122.04955	1756670	0.87	2005-07-11 17:06:29.0	Ventana	34.267	00:54:09:05	6.799	V2683-01
 	transect	Mediaster	 	2687	 	 	 	1807226	 	2005-07-13 17:03:58.0	Ventana	 	00:30:52:13	 	V2687-01
 	cruise	Sebastes	325.5	2676	http://search.mbari.org/ARCHIVE/frameGrabs/Ventana/images/2676/01_03_51_11.jpg	36.804874	-122.029015	1676649	1.32	2005-06-14 17:19:46.0	Ventana	34.228	01:03:51:11	7.688	V2676-01
 	transect	Phyllospadix	802.21	2674	 	36.75232	-122.20589	1799856	0.36	2005-06-08 17:59:29.0	Ventana	34.488	00:44:01:06	4.336	V2674-01
 	transect	Umbellula lindahli	601.04	2680	 	36.77695	-122.22218	1804184	0.36	2005-06-27 17:40:10.0	Ventana	34.38	00:20:18:03	5.577	V2680-01
 	transect	Phyllospadix	203.32	2696	 	36.80526	-122.1282	1813671	1.48	2005-08-01 18:13:59.0	Ventana	34.216	01:41:51:08	8.625	V2696-02
 	transect	Psolus squamatus	 	2687	 	 	 	1808606	 	2005-07-13 17:25:14.0	Ventana	 	00:52:07:05	 	V2687-01
 	transect	Aegina	800.88	2681	 	36.696114	-122.05207	2498232	0.31	2005-07-07 18:58:56.0	Ventana	34.475	02:28:38:22	4.497	V2681-03HD
 	cruise	Push Corer	583.29	2688	http://search.mbari.org/ARCHIVE/frameGrabs/Ventana/images/2688/00_35_08_10.jpg	36.79691	-122.02002	20005093	0.49	2005-07-14 16:48:51.0	Ventana	34.362	00:35:08:10	5.755	V2688-01
 	descend	Copepoda	818.67	2683	 	36.702717	-122.04862	1757196	0.31	2005-07-11 18:16:06.0	Ventana	34.476	02:00:10:17	4.488	V2683-02
 	ascend	Chaetognatha	360.73	2693	 	36.694115	-122.061005	1758877	1.24	2005-07-25 21:02:47.0	Ventana	34.235	03:27:21:06	7.343	V2693-04
 	transect	Lycenchelys camchatica	999.21	2669	 	36.731007	-122.232	1683703	0.45	2005-05-25 18:30:02.0	Ventana	34.52	00:52:28:16	3.913	V2669-01
 	transect	Allocentrotus fragilis	 	2687	 	 	 	1811268	 	2005-07-13 20:05:34.0	Ventana	 	03:30:33:21	 	V2687-04
 	transect	Mediaster	 	2687	 	 	 	1812573	 	2005-07-13 20:45:53.0	Ventana	 	04:10:24:09	 	V2687-05
 	transect	Mediaster	 	2687	 	 	 	1811475	 	2005-07-13 20:13:59.0	Ventana	 	03:38:58:23	 	V2687-04
 	transect	Corallimorphus pilatus	 	2687	 	 	 	1812550	 	2005-07-13 20:45:19.0	Ventana	 	04:09:50:08	 	V2687-05
 	transect	Psolus squamatus	 	2687	 	 	 	1810170	 	2005-07-13 19:04:24.0	Ventana	 	02:30:08:27	 	V2687-03
 	transect	Ophiuroidea	998.72	2669	 	36.731064	-122.230446	1651301	0.45	2005-05-25 18:17:58.0	Ventana	34.522	00:40:25:14	3.91	V2669-01
 	transect	Neptunea amianta	999.44	2669	 	36.73133	-122.23592	1684455	0.44	2005-05-25 18:57:06.0	Ventana	34.52	01:19:05:22	3.936	V2669-02
 	descend	Appendicularia	258.29	2682	 	36.699795	-122.06083	1720004	1.38	2005-07-08 16:26:11.0	Ventana	34.23	00:20:15:06	7.854	V2682-01
 	transect	Actiniaria sp. 1	1000.05	2669	 	36.73113	-122.23858	1688877	0.43	2005-05-25 19:18:44.0	Ventana	34.516	01:40:43:09	3.961	V2669-02
 	ascend	Appendicularia	554.23	2683	 	36.704536	-122.050644	1757971	0.38	2005-07-11 21:14:04.0	Ventana	34.359	04:46:56:21	5.907	V2683-05
 	ascend	Crustacea	1186.72	2682	 	36.698334	-122.05752	1722422	0.67	2005-07-08 19:52:34.0	Ventana	34.573	03:45:09:13	3.401	V2682-04
 	descend	Hormiphora	247.94	2683	 	36.700935	-122.050575	1756444	1.67	2005-07-11 16:50:28.0	Ventana	34.193	00:38:09:22	8.037	V2683-01
 	transect	Brisaster	598.28	2680	 	36.781456	-122.226555	1804996	0.36	2005-06-27 18:36:54.0	Ventana	34.376	01:15:59:21	5.598	V2680-02
 	descend	Appendicularia	547.5	2682	 	36.698624	-122.05976	1720895	0.37	2005-07-08 18:05:01.0	Ventana	34.366	01:58:31:07	5.725	V2682-02
 	ascend	Copepoda	599.01	2682	 	36.698757	-122.06107	1723497	0.34	2005-07-08 20:50:57.0	Ventana	34.374	04:43:03:23	5.632	V2682-05
 	transect	molt	100.49	2681	 	36.699825	-122.05429	2489700	2.13	2005-07-07 16:48:09.0	Ventana	34.067	00:19:19:00	9.15	V2681-01HD
 	descend	Appendicularia	365.75	2682	 	36.698524	-122.060265	1720350	0.99	2005-07-08 17:27:58.0	Ventana	34.258	01:21:28:29	7.052	V2682-02
 	transect	Phyllospadix	802.34	2674	 	36.752247	-122.20678	1799976	0.37	2005-06-08 18:03:43.0	Ventana	34.49	00:48:15:02	4.323	V2674-01
 	transect	Phyllospadix	202.56	2696	 	36.805256	-122.12819	1813648	1.48	2005-08-01 18:10:32.0	Ventana	34.215	01:38:23:29	8.603	V2696-02
 	ascend	Bathocyroe	505.72	2682	 	36.698357	-122.063194	1723674	0.48	2005-07-08 21:13:24.0	Ventana	34.335	05:05:04:09	6.137	V2682-06
 	ascend	Nanomia	190.23	2693	 	36.690605	-122.06288	1759223	1.84	2005-07-25 21:29:07.0	Ventana	34.168	03:53:39:21	8.849	V2693-04
 	transect	Psolus squamatus	399.86	2687	http://search.mbari.org/ARCHIVE/frameGrabs/Ventana/images/2687/01_02_12_24.jpg	36.788044	-122.12152	1809072	1.14	2005-07-13 17:35:50.0	Ventana	34.237	01:02:12:24	7.276	V2687-02
 	transect	Mediaster	 	2687	 	 	 	1810922	 	2005-07-13 19:42:51.0	Ventana	 	03:07:52:11	 	V2687-04
 	descend	Crustacea	512.7	2683	 	36.70144	-122.04917	1756873	0.66	2005-07-11 17:40:27.0	Ventana	34.304	01:24:34:04	6.424	V2683-02
 	transect	Rathbunaster californicus	 	2687	 	 	 	1811798	 	2005-07-13 20:25:31.0	Ventana	 	03:50:29:22	 	V2687-04
 	transect	Mediaster	 	2687	 	 	 	1812227	 	2005-07-13 20:29:34.0	Ventana	 	03:54:32:21	 	V2687-04
 	transect	Psolus squamatus	 	2687	 	 	 	1808666	 	2005-07-13 17:26:39.0	Ventana	 	00:53:31:23	 	V2687-01
 	transect	Mesomyaria	1000.18	2669	 	36.731205	-122.2406	1689283	0.41	2005-05-25 19:31:26.0	Ventana	34.511	01:53:23:14	4.055	V2669-02
 	cruise	Mysidae	585.84	2688	 	36.79687	-122.01999	1677401	0.48	2005-07-14 16:45:45.0	Ventana	34.367	00:32:04:11	5.706	V2688-01
 	descend	Modeeria rotunda	473.55	2681	 	36.698105	-122.05389	1715345	0.49	2005-07-07 17:52:56.867	Ventana	34.334	01:23:19:22	6.107	V2681-02
 	transect	Mesomyaria	1000.48	2669	 	36.732254	-122.248825	1736248	0.41	2005-05-25 20:25:05.0	Ventana	34.51	02:46:34:23	4.069	V2669-03
 	transect	Salpida	400.75	2681	 	36.69759	-122.05329	2493178	0.79	2005-07-07 17:48:47.0	Ventana	34.277	01:19:10:23	6.658	V2681-02HD
 	ascend	Haliscera	318.91	2681	 	36.69968	-122.05527	1718154	1.24	2005-07-07 20:57:23.9	Ventana	34.235	04:25:44:00	7.434	V2681-05
 	transect	Mesomyaria	801.04	2674	 	36.75175	-122.21102	1801074	0.35	2005-06-08 18:24:12.0	Ventana	34.49	01:08:17:05	4.338	V2674-02
 	cruise	boulder	105.65	2688	 	36.81448	-122.01674	1679251	1.98	2005-07-14 19:37:20.0	Ventana	34.087	03:22:07:20	8.91	V2688-04
 	descend	Calycophorae	809.55	2681	 	36.69697	-122.05317	1716443	0.32	2005-07-07 19:03:12.467	Ventana	34.476	02:32:55:10	4.45	V2681-03
 	transect	Phyllospadix	199.61	2696	 	36.803856	-122.12524	1813325	1.52	2005-08-01 17:35:02.0	Ventana	34.207	01:02:56:21	8.635	V2696-02
 	descend	Chaetognatha	192.76	2693	 	36.69605	-122.05814	1758294	1.79	2005-07-25 18:16:33.0	Ventana	34.189	00:57:02:20	8.912	V2693-01
 	transect	Chionoecetes tanneri	601.26	2680	 	36.787018	-122.23147	1805902	0.36	2005-06-27 19:44:52.0	Ventana	34.378	02:23:30:14	5.598	V2680-03
 	transect	Porifera	 	2687	 	 	 	1810862	 	2005-07-13 19:37:54.0	Ventana	 	03:03:36:20	 	V2687-03
 	ascend	Appendicularia	387.63	2682	 	36.69772	-122.06224	1723734	0.92	2005-07-08 21:22:39.0	Ventana	34.268	05:14:19:25	6.953	V2682-06
 	transect	Parastichopus leukothele	204.02	2696	 	36.806072	-122.12962	1813731	1.49	2005-08-01 18:22:08.0	Ventana	34.211	01:49:59:12	8.632	V2696-02
 	transect	Umbellula lindahli	999.81	2669	 	36.73134	-122.23783	1687542	0.44	2005-05-25 19:13:20.0	Ventana	34.517	01:35:19:00	3.95	V2669-02
 	descend	Nemertea	601.83	2682	 	36.69864	-122.05981	1721241	0.35	2005-07-08 18:07:40.0	Ventana	34.389	02:00:45:26	5.441	V2682-03
 	transect	Appendicularia	300.43	2681	 	36.69671	-122.052284	2492486	1.23	2005-07-07 17:25:54.0	Ventana	34.234	00:57:00:23	7.397	V2681-01HD
 	ascend	Poeobius meseres	684.95	2683	 	36.70565	-122.04928	1757888	0.3	2005-07-11 21:06:50.0	Ventana	34.435	04:39:42:07	4.965	V2683-05
 	transect	Psolus squamatus	 	2687	 	 	 	1809012	 	2005-07-13 17:33:33.0	Ventana	 	01:00:25:22	 	V2687-01
 	transect	Calliostoma platinum	 	2687	 	 	 	1809824	 	2005-07-13 18:44:43.0	Ventana	 	02:10:28:29	 	V2687-03
 	transect	Ophiuroidea	1000.01	2669	 	36.731144	-122.24014	1689223	0.41	2005-05-25 19:28:19.0	Ventana	34.51	01:50:16:27	4.058	V2669-02
 	ascend	Chuniphyes	509.51	2681	 	36.698956	-122.054245	1717748	0.48	2005-07-07 20:34:09.17	Ventana	34.333	04:03:09:04	6.123	V2681-04
 	cruise	Chionoecetes tanneri	1215.5	2683	 	36.70647	-122.04761	1757625	0.73	2005-07-11 20:10:02.0	Ventana	34.573	03:44:25:08	3.335	V2683-04
 	descend	Appendicularia	494.7	2683	 	36.70147	-122.049385	1756790	0.7	2005-07-11 17:25:09.0	Ventana	34.3	01:09:16:07	6.502	V2683-02
 	transect	Sebastolobus	 	2687	 	 	 	1808726	 	2005-07-13 17:27:55.0	Ventana	 	00:54:48:01	 	V2687-01
 	cruise	lasers	336.47	2688	http://search.mbari.org/ARCHIVE/frameGrabs/Ventana/images/2688/01_53_49_04.jpg	36.808086	-122.02016	1677807	1.22	2005-07-14 18:08:07.0	Ventana	34.23	01:53:49:04	7.529	V2688-02
 	transect	Sergestes similis	500.56	2681	 	36.69667	-122.05226	2493584	0.44	2005-07-07 18:00:26.0	Ventana	34.348	01:30:48:17	6.013	V2681-02HD
 	transect	Ceriantharia sp. 1	598.97	2680	 	36.780003	-122.22503	1804590	0.35	2005-06-27 18:17:32.0	Ventana	34.382	00:57:37:20	5.548	V2680-01
 	transect	Nanomia bijuga	200.44	2681	 	36.69828	-122.05329	2490715	1.71	2005-07-07 17:08:27.0	Ventana	34.193	00:39:34:25	8.323	V2681-01HD
 	cruise	line	111.26	2688	 	36.813225	-122.02128	1678070	1.96	2005-07-14 19:12:51.0	Ventana	34.096	02:58:04:20	8.9	V2688-03
 	transect	Bathylagus	800.9	2681	 	36.695217	-122.050995	2498089	0.31	2005-07-07 18:54:39.0	Ventana	34.476	02:24:20:09	4.491	V2681-03HD
 	descend	Sergestes similis	288.9	2681	 	36.69857	-122.0537	1713619	1.29	2005-07-07 17:17:26.337	Ventana	34.224	00:48:33:15	7.532	V2681-01
 	transect	Phyllospadix	998.54	2669	 	36.73055	-122.2285	1650895	0.45	2005-05-25 18:03:42.0	Ventana	34.523	00:26:10:11	3.907	V2669-01
 	cruise	Macrouridae	1231.0	2683	 	36.705795	-122.047935	1757542	0.72	2005-07-11 19:51:25.0	Ventana	34.573	03:25:47:19	3.347	V2683-04
 	transect	Brisaster	998.93	2669	 	36.73142	-122.23655	1684801	0.44	2005-05-25 19:02:11.0	Ventana	34.52	01:24:10:06	3.937	V2669-02
 	transect	Mesomyaria	800.99	2674	 	36.752132	-122.20822	1800728	0.35	2005-06-08 18:10:47.0	Ventana	34.49	00:55:18:29	4.32	V2674-01
 	transect	Phyllospadix	799.47	2674	 	36.75253	-122.20411	1799446	0.35	2005-06-08 17:49:40.0	Ventana	34.483	00:34:13:03	4.38	V2674-01
 	transect	Brisaster	198.31	2696	 	36.8036	-122.12421	1813242	1.54	2005-08-01 17:24:49.0	Ventana	34.2	00:53:06:23	8.611	V2696-01
 	transect	Phyllospadix	799.54	2674	 	36.752464	-122.20508	1799709	0.35	2005-06-08 17:55:05.0	Ventana	34.487	00:39:37:27	4.361	V2674-01
 	transect	Leptomedusae	100.52	2681	 	36.69983	-122.05429	2489617	2.13	2005-07-07 16:46:18.0	Ventana	34.068	00:17:27:01	9.146	V2681-01HD
 	transect	Lycenchelys camchatica	997.43	2669	 	36.7306	-122.227905	1649252	0.45	2005-05-25 18:00:13.0	Ventana	34.521	00:22:42:01	3.907	V2669-01
 	transect	Ophiuroidea	999.24	2669	 	36.731377	-122.23601	1684515	0.44	2005-05-25 18:57:43.0	Ventana	34.52	01:19:43:02	3.938	V2669-02
 	ascend	Euphausiacea	261.4	2681	 	36.699444	-122.05457	1718500	1.41	2005-07-07 21:10:43.567	Ventana	34.23	04:39:02:25	7.934	V2681-05
 	descend	Arctapodema	956.69	2682	 	36.698288	-122.05933	1721993	0.39	2005-07-08 18:55:24.0	Ventana	34.508	02:48:27:20	4.119	V2682-03
 	transect	Psolus squamatus	 	2687	 	 	 	1807083	 	2005-07-13 16:58:31.0	Ventana	 	00:25:25:24	 	V2687-01
 	cruise	Actiniaria	500.58	2695	 	36.784485	-122.20024	1824395	0.89	2005-07-28 16:56:55.0	Ventana	34.267	00:03:18:04	6.712	V2695-01
 	descend	Haliscera	322.77	2683	 	36.701176	-122.050095	1756527	1.22	2005-07-11 16:54:58.0	Ventana	34.241	00:42:37:10	7.516	V2683-01
 	ascend	Lensia	370.89	2693	 	36.696167	-122.06088	1758640	1.2	2005-07-25 20:24:20.0	Ventana	34.234	03:03:51:28	7.159	V2693-03
 	transect	Psolus squamatus	 	2687	 	 	 	1810576	 	2005-07-13 19:22:43.0	Ventana	 	02:48:27:01	 	V2687-03
 	transect	ink	400.77	2681	 	36.697258	-122.0529	2493118	0.79	2005-07-07 17:47:20.0	Ventana	34.278	01:17:44:09	6.663	V2681-02HD
 	ascend	Copepoda	942.9	2681	 	36.69749	-122.05394	1716932	0.41	2005-07-07 19:42:09.767	Ventana	34.514	03:11:13:13	4.071	V2681-04
 	transect	Actiniaria sp. 1	800.85	2674	 	36.75109	-122.217316	1803492	0.35	2005-06-08 18:55:17.0	Ventana	34.489	01:39:20:11	4.353	V2674-02
 	transect	chuniphyes	901.05	2681	 	36.696716	-122.05285	2498292	0.39	2005-07-07 19:07:45.0	Ventana	34.507	02:37:26:23	4.16	V2681-03HD
 	cruise	rock outcrop	291.63	2688	 	36.808895	-122.02033	1677867	1.39	2005-07-14 18:14:26.0	Ventana	34.215	02:00:07:15	7.909	V2688-02
 	descend	Appendicularia	535.41	2683	 	36.701553	-122.04914	1756933	0.54	2005-07-11 17:43:12.0	Ventana	34.326	01:27:19:25	6.207	V2683-02
 	transect	Sebastolobus	 	2687	 	 	 	1811738	 	2005-07-13 20:23:17.0	Ventana	 	03:48:15:09	 	V2687-04
 	transect	Psolus squamatus	 	2687	 	 	 	1812287	 	2005-07-13 20:30:55.0	Ventana	 	03:55:52:25	 	V2687-04
 	ascend	Bathocyroe	858.27	2682	 	36.69858	-122.05847	1723234	0.33	2005-07-08 20:19:16.0	Ventana	34.486	04:11:24:09	4.373	V2682-05
 	transect	Stomphia	1000.18	2669	 	36.731663	-122.24378	1733958	0.41	2005-05-25 19:48:48.0	Ventana	34.509	02:10:20:22	4.064	V2669-03
 	transect	Ceriantharia sp. 2	999.97	2669	 	36.732548	-122.25022	1736940	0.41	2005-05-25 20:34:39.0	Ventana	34.51	02:56:07:06	4.067	V2669-03
 	transect	Nanomia bijuga	200.36	2681	 	36.69829	-122.05334	2491061	1.69	2005-07-07 17:11:18.0	Ventana	34.196	00:42:25:27	8.332	V2681-01HD
 	descend	Chaetognatha	172.88	2693	 	36.696136	-122.05804	1758234	1.95	2005-07-25 18:03:13.0	Ventana	34.14	00:43:44:04	8.904	V2693-01
 	transect	Parastichopus leukothele	200.46	2696	 	36.80523	-122.12814	1813588	1.5	2005-08-01 18:02:09.0	Ventana	34.211	01:30:01:11	8.669	V2696-02
 	transect	molt	100.47	2681	 	36.699776	-122.05426	2489760	2.12	2005-07-07 16:49:53.0	Ventana	34.067	00:21:03:03	9.159	V2681-01HD
 	ascend	Appendicularia	429.92	2683	 	36.704166	-122.05058	1758031	0.83	2005-07-11 21:19:03.0	Ventana	34.276	04:51:54:24	6.791	V2683-05
 	transect	Porifera sp. 1	 	2687	 	 	 	1807489	 	2005-07-13 17:11:32.0	Ventana	 	00:38:25:13	 	V2687-01
 	descend	Appendicularia	501.95	2682	 	36.6986	-122.05978	1720835	0.44	2005-07-08 17:59:44.0	Ventana	34.352	01:53:12:17	6.017	V2682-02
 	transect	Phyllospadix	805.84	2674	 	36.75038	-122.221756	1803755	0.34	2005-06-08 19:17:05.0	Ventana	34.481	02:01:06:24	4.404	V2674-02
 	cruise	Sebastolobus	1206.34	2683	 	36.707073	-122.04763	1757685	0.72	2005-07-11 20:19:19.0	Ventana	34.573	03:53:40:14	3.352	V2683-04
 	transect	Mesomyaria	802.28	2674	 	36.75174	-122.21038	1801014	0.35	2005-06-08 18:21:51.0	Ventana	34.49	01:05:55:19	4.329	V2674-02
 	transect	Anthoptilum grandiflorum	1000.53	2669	http://search.mbari.org/ARCHIVE/frameGrabs/Ventana/images/2669/02_41_17_00.jpg	36.732132	-122.248116	1736188	0.41	2005-05-25 20:19:49.0	Ventana	34.51	02:41:17:00	4.062	V2669-03
 	descend	Copepoda	1125.01	2683	 	36.705116	-122.048904	1757482	0.61	2005-07-11 19:31:27.0	Ventana	34.548	03:11:47:05	3.624	V2683-03
 	transect	Ceriantharia sp. 1	599.81	2680	 	36.777733	-122.22273	1804304	0.36	2005-06-27 17:49:40.0	Ventana	34.378	00:29:47:14	5.586	V2680-01
 	descend	Chuniphyes	772.74	2683	 	36.70248	-122.04888	1757136	0.3	2005-07-11 17:58:51.0	Ventana	34.453	01:42:56:27	4.736	V2683-02
 	descend	physical object	207.32	2686	http://search.mbari.org/ARCHIVE/frameGrabs/Ventana/images/2686/01_15_11_27.jpg	36.79371	-121.88108	20005033	1.6	2005-07-12 22:08:03.0	Ventana	34.152	01:15:11:27	8.255	V2686-02
 	transect	Mesomyaria	999.86	2669	 	36.731014	-122.23251	1683763	0.45	2005-05-25 18:33:49.0	Ventana	34.521	00:56:14:26	3.915	V2669-01
 	descend	Chaetognatha	908.33	2683	 	36.703472	-122.04838	1757279	0.38	2005-07-11 18:48:28.0	Ventana	34.502	02:28:50:24	4.206	V2683-03
 	descend	Copepoda	367.84	2683	 	36.701385	-122.049835	1756587	1.12	2005-07-11 16:57:31.0	Ventana	34.236	00:45:11:08	7.099	V2683-01
 	cruise	shell hash	102.81	2688	 	36.814068	-122.0185	1679514	1.91	2005-07-14 21:23:33.0	Ventana	34.108	05:07:45:07	8.878	V2688-05
 	transect	Mesomyaria	999.89	2669	 	36.731384	-122.237305	1687482	0.44	2005-05-25 19:09:01.0	Ventana	34.52	01:31:00:23	3.944	V2669-02
 	descend	Myctophidae	466.22	2683	 	36.701668	-122.049355	1756730	0.77	2005-07-11 17:11:25.0	Ventana	34.287	00:59:03:17	6.655	V2683-01
 	ascend	Doliolenetta	586.07	2682	 	36.69883	-122.06023	1723437	0.41	2005-07-08 20:41:42.0	Ventana	34.373	04:33:51:13	5.668	V2682-05
 	transect	Phyllospadix	798.49	2674	 	36.751743	-122.21257	1801217	0.35	2005-06-08 18:30:03.0	Ventana	34.49	01:14:07:29	4.337	V2674-02
 	transect	Stomphia	999.82	2669	 	36.73178	-122.244415	1734304	0.4	2005-05-25 19:52:23.0	Ventana	34.508	02:13:54:13	4.08	V2669-03
 	transect	Phyllospadix	801.1	2674	 	36.75102	-122.21812	1803552	0.35	2005-06-08 18:58:47.0	Ventana	34.492	01:42:50:01	4.326	V2674-02
 	ascend	Cydippida	380.79	2681	 	36.69935	-122.05468	1718011	0.94	2005-07-07 20:49:37.61	Ventana	34.27	04:17:58:21	6.98	V2681-05
 	descend	Copepoda	1183.46	2682	 	36.698246	-122.05785	1722339	0.66	2005-07-08 19:40:52.0	Ventana	34.569	03:33:28:09	3.413	V2682-04
 	transect	Phyllospadix	196.29	2696	 	36.802666	-122.12169	1813039	1.55	2005-08-01 16:58:55.0	Ventana	34.2	00:27:13:29	8.6	V2696-01
 	transect	Mediaster	 	2687	 	 	 	1812490	 	2005-07-13 20:41:28.0	Ventana	 	04:06:25:24	 	V2687-04
 	ascend	Mysidae	978.95	2681	 	36.696903	-122.05335	1716586	0.44	2005-07-07 19:35:49.747	Ventana	34.522	03:05:30:18	3.99	V2681-03
 	ascend	sinker	1008.79	2682	 	36.69773	-122.058205	1722888	0.46	2005-07-08 20:05:23.0	Ventana	34.523	03:57:59:08	3.93	V2682-04
 	descend	Solmissus	286.97	2693	 	36.697884	-122.061325	1758437	1.4	2005-07-25 19:36:51.0	Ventana	34.236	02:16:27:04	7.967	V2693-03
 	transect	Nanomia bijuga	200.5	2681	 	36.69828	-122.05329	2490512	1.71	2005-07-07 17:07:14.0	Ventana	34.197	00:38:21:27	8.341	V2681-01HD
 	transect	Neptunea amianta	998.1	2669	 	36.733006	-122.25276	1737489	0.4	2005-05-25 20:49:23.0	Ventana	34.508	03:10:11:02	4.075	V2669-04
 	transect	Ceriantharia sp. 1	602.51	2680	 	36.789898	-122.23262	1806737	0.35	2005-06-27 20:14:54.0	Ventana	34.38	02:53:30:29	5.589	V2680-03
 	transect	Rathbunaster californicus	196.88	2696	 	36.803368	-122.12348	1813182	1.56	2005-08-01 17:16:27.0	Ventana	34.196	00:44:45:09	8.637	V2696-01
 	descend	Hormiphora	202.61	2681	 	36.69845	-122.05351	1713559	1.66	2005-07-07 17:14:29.933	Ventana	34.203	00:45:37:08	8.344	V2681-01
 	transect	Neptunea amianta	801.33	2674	 	36.75221	-122.207886	1800119	0.35	2005-06-08 18:09:09.0	Ventana	34.49	00:53:41:00	4.329	V2674-01
 	transect	Phyllospadix	800.79	2674	 	36.752556	-122.2017	1799100	0.33	2005-06-08 17:37:13.0	Ventana	34.478	00:21:46:28	4.443	V2674-01
 	transect	Chaetognatha	300.41	2681	 	36.697544	-122.05299	2492223	1.24	2005-07-07 17:23:03.0	Ventana	34.233	00:54:10:00	7.406	V2681-01HD
 	transect	Appendicularia	200.45	2681	 	36.69828	-122.05329	2490106	1.7	2005-07-07 17:04:46.0	Ventana	34.197	00:35:54:09	8.36	V2681-01HD
 	transect	Appendicularia	500.58	2681	 	36.697086	-122.052704	2493524	0.44	2005-07-07 17:58:52.0	Ventana	34.346	01:29:15:07	6.03	V2681-02HD
 	stationary	Merluccius productus	501.64	2695	 	36.784565	-122.20045	1824455	0.85	2005-07-28 17:38:02.0	Ventana	34.269	00:44:22:15	6.638	V2695-01
 	descend	Aegina	602.89	2681	 	36.69564	-122.05113	1715691	0.3	2005-07-07 18:11:00.433	Ventana	34.386	01:41:21:21	5.481	V2681-02
 	ascend	Appendicularia	257.11	2681	 	36.698715	-122.05673	1719109	1.44	2005-07-07 21:22:51.09	Ventana	34.226	04:51:10:18	7.957	V2681-05
 	transect	Psolus squamatus	 	2687	 	 	 	1807143	 	2005-07-13 17:01:25.0	Ventana	 	00:28:19:07	 	V2687-01
 	transect	Psolus squamatus	 	2687	 	 	 	1807692	 	2005-07-13 17:22:58.0	Ventana	 	00:49:51:00	 	V2687-01
 	transect	molt	100.57	2681	 	36.69983	-122.05429	2489557	2.13	2005-07-07 16:44:46.0	Ventana	34.068	00:15:55:06	9.145	V2681-01HD
 	transect	Poeobius meseres	1000.95	2681	 	36.69638	-122.05269	2498698	0.47	2005-07-07 19:29:37.0	Ventana	34.53	02:59:16:24	3.878	V2681-03HD
 	cruise	Sebastolobus	528.54	2688	 	36.798885	-122.019356	1677461	0.6	2005-07-14 17:03:49.0	Ventana	34.336	00:50:07:09	6.216	V2688-01
 	descend	Copepoda	731.34	2682	 	36.698406	-122.05967	1721587	0.29	2005-07-08 18:28:14.0	Ventana	34.44	02:21:17:07	4.868	V2682-03
 	transect	Ceriantharia sp. 1	599.67	2680	 	36.778873	-122.22406	1804447	0.36	2005-06-27 18:04:27.0	Ventana	34.381	00:44:33:29	5.596	V2680-01
 	transect	Ceriantharia sp. 2	999.53	2669	 	36.730587	-122.22911	1683357	0.45	2005-05-25 18:07:34.0	Ventana	34.522	00:30:01:27	3.908	V2669-01
 	transect	Nanomia bijuga	200.44	2681	 	36.69828	-122.0533	2490858	1.71	2005-07-07 17:09:17.0	Ventana	34.195	00:40:24:01	8.326	V2681-01HD
 	transect	Phyllospadix	800.19	2674	 	36.752426	-122.20326	1799303	0.34	2005-06-08 17:44:51.0	Ventana	34.48	00:29:24:12	4.421	V2674-01
 	transect	Rathbunaster californicus	199.41	2696	 	36.804165	-122.12591	1813385	1.52	2005-08-01 17:41:54.0	Ventana	34.206	01:09:48:01	8.657	V2696-02
 	transect	Ophiuroidea	999.64	2669	 	36.730595	-122.22908	1651038	0.45	2005-05-25 18:07:25.0	Ventana	34.522	00:29:52:09	3.908	V2669-01
 	transect	Phyllospadix	800.7	2674	 	36.75257	-122.20027	1774072	0.31	2005-06-08 17:28:44.0	Ventana	34.469	00:13:18:07	4.513	V2674-01
 	transect	Melanostigma pammelas	700.59	2681	 	36.69532	-122.051094	2497946	0.28	2005-07-07 18:47:02.0	Ventana	34.432	02:16:46:00	4.999	V2681-03HD
 	transect	Diogenidae	600.7	2680	 	36.785725	-122.230736	1805842	0.36	2005-06-27 19:30:46.0	Ventana	34.376	02:09:25:20	5.602	V2680-03
 	transect	Nanomia bijuga	200.41	2681	 	36.69839	-122.053474	2491407	1.67	2005-07-07 17:14:05.0	Ventana	34.199	00:45:11:10	8.341	V2681-01HD
 	cruise	Pleuronectiformes	110.8	2676	 	36.809273	-122.03225	1676912	1.84	2005-06-14 18:07:21.0	Ventana	34.155	01:47:03:10	8.442	V2676-02
 	transect	Ophiuroidea	998.98	2669	 	36.731403	-122.23617	1684658	0.44	2005-05-25 18:58:43.0	Ventana	34.521	01:20:43:00	3.944	V2669-02
 	transect	Phyllospadix	800.71	2674	 	36.751995	-122.20916	1800871	0.35	2005-06-08 18:15:12.0	Ventana	34.49	00:59:44:00	4.322	V2674-01
 	ascend	Copepoda	875.99	2681	 	36.698334	-122.05529	1717338	0.35	2005-07-07 19:51:57.467	Ventana	34.503	03:21:00:01	4.29	V2681-04
 	transect	Mesomyaria	799.82	2674	 	36.75132	-122.21547	1803349	0.35	2005-06-08 18:46:02.0	Ventana	34.484	01:30:05:25	4.368	V2674-02
 	ascend	water	197.81	2685	 	36.793797	-121.88199	1669824	1.8	2005-07-12 21:02:55.0	Ventana	34.13	01:00:26:28	8.589	V2685-01
 	transect	Mesomyaria	999.85	2669	 	36.731743	-122.244064	1734101	0.4	2005-05-25 19:50:39.0	Ventana	34.51	02:12:11:00	4.072	V2669-03
 	transect	Phyllospadix	799.02	2674	 	36.75134	-122.21534	1801420	0.35	2005-06-08 18:45:20.0	Ventana	34.488	01:29:24:05	4.349	V2674-02
 	transect	Chaetognatha	400.81	2681	 	36.696194	-122.05165	2492975	0.79	2005-07-07 17:42:47.0	Ventana	34.276	01:13:11:22	6.657	V2681-02HD
 	transect	Appendicularia	300.42	2681	 	36.696934	-122.05247	2492426	1.23	2005-07-07 17:25:08.0	Ventana	34.234	00:56:15:09	7.393	V2681-01HD
 	transect	Ceriantharia sp. 2	997.86	2669	 	36.7306	-122.22718	1649109	0.45	2005-05-25 17:55:25.0	Ventana	34.521	00:17:54:01	3.91	V2669-01
 	descend	Nanomia	 	2693	 	 	 	1759426	 	2005-07-25 16:44:20.0	Ventana	 	00:22:52:16	 	V2693-01
 	ascend	water	 	2687	 	 	 	1812836	 	2005-07-13 21:22:44.0	Ventana	 	04:47:13:12	 	V2687-05
 	ascend	Hastigerinella digitata	259.24	2681	 	36.699303	-122.05433	1718634	1.43	2005-07-07 21:14:17.067	Ventana	34.229	04:42:36:04	7.974	V2681-05
 	transect	Ceriantharia sp. 1	598.41	2680	 	36.781002	-122.22595	1804839	0.35	2005-06-27 18:30:05.0	Ventana	34.38	01:09:11:13	5.585	V2680-02
 	transect	Mesomyaria	1000.19	2669	 	36.73182	-122.245155	1735353	0.4	2005-05-25 19:57:56.0	Ventana	34.505	02:19:25:21	4.099	V2669-03
 	transect	Lycenchelys camchatica	800.59	2674	 	36.752506	-122.20297	1799266	0.35	2005-06-08 17:43:21.0	Ventana	34.486	00:27:54:29	4.377	V2674-01
 	transect	Brisaster	799.78	2674	 	36.75176	-122.212166	1801185	0.35	2005-06-08 18:28:51.0	Ventana	34.487	01:12:56:00	4.339	V2674-02
 	transect	Sebastolobus	 	2687	 	 	 	1810765	 	2005-07-13 19:33:11.0	Ventana	 	02:58:53:29	 	V2687-03
 	cruise	Ceriantharia sp. 1	103.59	2688	 	36.815067	-122.01591	1679270	1.97	2005-07-14 19:40:27.0	Ventana	34.088	03:25:14:11	8.894	V2688-04
 	transect	Caridea sp.1	1000.34	2669	 	36.731613	-122.243225	1733787	0.41	2005-05-25 19:45:50.0	Ventana	34.51	02:07:22:14	4.063	V2669-03
 	ascend	Leuroglossus stilbius	1030.0	2683	 	36.70748	-122.049194	1757814	0.47	2005-07-11 20:49:50.0	Ventana	34.529	04:22:43:15	3.904	V2683-05
 	transect	Leptomedusae	100.51	2681	 	36.69983	-122.05429	2489612	2.13	2005-07-07 16:46:12.0	Ventana	34.068	00:17:20:19	9.146	V2681-01HD
 	descend	Appendicularia	492.37	2683	 	36.701485	-122.04937	1756785	0.71	2005-07-11 17:24:07.0	Ventana	34.298	01:08:15:04	6.529	V2683-02
 	cruise	mud	183.45	2676	 	36.807747	-122.029785	1676829	1.62	2005-06-14 17:47:42.0	Ventana	34.195	01:27:25:21	8.125	V2676-02
 	descend	Crustacea	328.85	2693	 	36.69743	-122.06055	1758520	1.29	2005-07-25 19:47:35.0	Ventana	34.236	02:27:09:01	7.575	V2693-03
 	transect	Stomphia	 	2687	 	 	 	1810059	 	2005-07-13 18:52:50.0	Ventana	 	02:18:35:13	 	V2687-03
 	descend	Doliolenetta	729.85	2682	 	36.6984	-122.05967	1721582	0.29	2005-07-08 18:28:02.0	Ventana	34.438	02:21:07:01	4.882	V2682-03
 	transect	Rathbunaster californicus	197.83	2696	http://search.mbari.org/ARCHIVE/frameGrabs/Ventana/images/2696/00_20_11_00.jpg	36.80266	-122.12168	1813007	1.53	2005-08-01 16:51:51.0	Ventana	34.204	00:20:11:00	8.569	V2696-01
 	transect	Mediaster	399.26	2687	 	36.789417	-122.12563	1809736	1.12	2005-07-13 18:38:47.0	Ventana	34.243	02:05:11:04	7.246	V2687-03
 	transect	Euphausia	200.41	2681	 	36.698288	-122.05332	2491024	1.7	2005-07-07 17:10:54.0	Ventana	34.196	00:42:01:26	8.332	V2681-01HD
 	descend	Appendicularia	278.58	2682	 	36.69974	-122.06084	1720046	1.33	2005-07-08 16:34:06.0	Ventana	34.228	00:28:10:04	7.676	V2682-01
 	ascend	Melanostigma pammelas	721.93	2682	 	36.698807	-122.05928	1723317	0.28	2005-07-08 20:30:25.0	Ventana	34.434	04:22:33:16	4.943	V2682-05
 	ascend	Calycophorae	604.65	2682	 	36.698624	-122.06168	1723531	0.33	2005-07-08 20:57:29.0	Ventana	34.374	04:49:36:04	5.619	V2682-05
 	transect	Gastropoda sp.2	997.35	2669	 	36.730618	-122.2279	1694930	0.45	2005-05-25 18:00:06.0	Ventana	34.523	00:22:34:03	3.906	V2669-01
 	transect	Embassichthys bathybius	1000.48	2669	http://search.mbari.org/ARCHIVE/frameGrabs/Ventana/images/2669/02_29_09_29.jpg	36.731964	-122.246445	1735676	0.41	2005-05-25 20:07:41.0	Ventana	34.509	02:29:09:29	4.064	V2669-03
 	transect	Phyllospadix	800.91	2674	 	36.75252	-122.201485	1774210	0.34	2005-06-08 17:36:03.0	Ventana	34.477	00:20:36:11	4.423	V2674-01
 	transect	Mesomyaria	999.45	2669	 	36.730495	-122.22862	1650913	0.45	2005-05-25 18:04:30.0	Ventana	34.522	00:26:58:19	3.906	V2669-01
 	transect	Gastropoda sp.2	999.78	2669	 	36.73175	-122.24406	1734110	0.4	2005-05-25 19:50:42.0	Ventana	34.51	02:12:13:14	4.072	V2669-03
 	stationary	Appendicularia	504.31	2695	 	36.78458	-122.20048	1824506	0.72	2005-07-28 19:35:46.0	Ventana	34.286	04:37:09:01	6.386	V2695-03
 	transect	Rathbunaster californicus	199.39	2696	 	36.804195	-122.12596	1813390	1.52	2005-08-01 17:42:25.0	Ventana	34.208	01:10:19:11	8.66	V2696-02
 	transect	Calycophorae	200.43	2681	 	36.69828	-122.05329	2490318	1.69	2005-07-07 17:06:52.0	Ventana	34.199	00:38:00:14	8.355	V2681-01HD
 	ascend	Nanomia	 	2683	 	 	 	1758137	 	2005-07-11 14:31:15.0	Ventana	 	05:04:06:25	 	V2683-05
 	transect	Parastichopus leukothele	204.64	2696	 	36.805664	-122.12893	1813713	1.49	2005-08-01 18:19:00.0	Ventana	34.212	01:46:51:20	8.626	V2696-02
 	transect	Mesomyaria	999.68	2669	 	36.731415	-122.2372	1687468	0.44	2005-05-25 19:08:16.0	Ventana	34.52	01:30:15:23	3.945	V2669-02
 	transect	Henricia sanguinolenta	 	2687	 	 	 	1812684	 	2005-07-13 20:52:05.0	Ventana	 	04:16:35:12	 	V2687-05
 	descend	Appendicularia	725.84	2683	 	36.702248	-122.048935	1757108	0.33	2005-07-11 17:56:08.0	Ventana	34.439	01:40:14:24	4.859	V2683-02
 	transect	Calycophorae	300.42	2681	 	36.697502	-122.05296	2492237	1.24	2005-07-07 17:23:11.0	Ventana	34.233	00:54:19:02	7.402	V2681-01HD
 	transect	Mediaster	 	2687	 	 	 	1808707	 	2005-07-13 17:27:31.0	Ventana	 	00:54:24:04	 	V2687-01
 	transect	Ophiuroidea	998.03	2669	 	36.731136	-122.231	1683491	0.45	2005-05-25 18:22:31.0	Ventana	34.523	00:44:57:17	3.912	V2669-01
 	ascend	Chaetognatha	811.23	2681	 	36.699028	-122.05661	1717421	0.32	2005-07-07 20:00:08.95	Ventana	34.473	03:29:11:15	4.536	V2681-04
 	descend	Aegina	615.57	2682	 	36.698627	-122.05981	1721259	0.3	2005-07-08 18:08:10.0	Ventana	34.395	02:01:15:10	5.382	V2682-03
 	transect	Umbellula lindahli	602.34	2680	 	36.79059	-122.232765	1806788	0.36	2005-06-27 20:21:22.0	Ventana	34.376	02:59:58:23	5.591	V2680-03
 	transect	Appendicularia	500.6	2681	 	36.69798	-122.05373	2493266	0.44	2005-07-07 17:54:51.0	Ventana	34.347	01:25:14:13	6.021	V2681-02HD
 	descend	Appendicularia	251.34	2682	 	36.699875	-122.0608	1719986	1.39	2005-07-08 16:23:09.0	Ventana	34.228	00:17:14:07	7.902	V2682-01
 	ascend	Crustacea	649.12	2682	 	36.698887	-122.05964	1723377	0.3	2005-07-08 20:35:53.0	Ventana	34.391	04:28:01:04	5.375	V2682-05
 	transect	Psolus squamatus	 	2687	 	 	 	1811148	 	2005-07-13 19:56:41.0	Ventana	 	03:21:41:05	 	V2687-04
 	transect	Mediaster	 	2687	 	 	 	1807494	 	2005-07-13 17:11:54.0	Ventana	 	00:38:47:01	 	V2687-01
 	transect	Calycophorae	400.83	2681	 	36.695744	-122.05113	2492883	0.79	2005-07-07 17:40:34.0	Ventana	34.277	01:10:59:04	6.668	V2681-02HD
 	cruise	Pleuronectiformes	251.6	2688	 	36.809437	-122.0204	1677918	1.53	2005-07-14 18:30:27.0	Ventana	34.203	02:15:43:07	8.222	V2688-03
 	transect	Mesomyaria	999.44	2669	 	36.73133	-122.23592	1684460	0.44	2005-05-25 18:57:06.0	Ventana	34.52	01:19:05:22	3.936	V2669-02
 	transect	Ceriantharia sp. 2	998.11	2669	 	36.732975	-122.252266	1737411	0.4	2005-05-25 20:46:57.0	Ventana	34.508	03:07:44:17	4.076	V2669-04
 	transect	Phyllospadix	799.8	2674	 	36.752117	-122.208725	1800802	0.35	2005-06-08 18:13:09.0	Ventana	34.489	00:57:40:06	4.334	V2674-01
 	transect	Psolus squamatus	 	2687	 	 	 	1810442	 	2005-07-13 19:18:16.0	Ventana	 	02:44:00:04	 	V2687-03
 	transect	Actiniaria sp. 1	999.83	2669	 	36.731007	-122.232475	1683754	0.45	2005-05-25 18:33:31.0	Ventana	34.523	00:55:56:17	3.912	V2669-01
 	transect	Cydippida 2	500.57	2681	 	36.696617	-122.05221	2493589	0.44	2005-07-07 18:00:37.0	Ventana	34.348	01:31:00:13	6.013	V2681-02HD
 	ascend	sinker	 	2676	 	 	 	1677212	 	2005-06-14 19:32:56.0	Ventana	 	03:11:40:00	 	V2676-03
 	descend	Hastigerinella digitata	294.43	2693	 	36.69778	-122.06113	1758460	1.33	2005-07-25 19:38:14.0	Ventana	34.235	02:17:49:00	7.78	V2693-03
 	transect	Mediaster	 	2687	 	 	 	1807051	 	2005-07-13 16:56:37.0	Ventana	 	00:23:31:29	 	V2687-01
 	transect	Ophiuroidea	998.93	2669	 	36.731094	-122.234856	1684197	0.45	2005-05-25 18:48:43.0	Ventana	34.522	01:10:43:23	3.918	V2669-02
 	transect	Ceriantharia sp. 1	599.19	2680	 	36.778927	-122.224106	1804456	0.36	2005-06-27 18:04:53.0	Ventana	34.377	00:44:59:04	5.602	V2680-01
 	descend	Dosidicus gigas	584.64	2681	 	36.695694	-122.05106	1715626	0.33	2005-07-07 18:07:18.5	Ventana	34.38	01:37:39:15	5.584	V2681-02
 	transect	Neptunea amianta	800.7	2674	 	36.752026	-122.20907	1800862	0.35	2005-06-08 18:14:56.0	Ventana	34.487	00:59:27:03	4.328	V2674-01
 	transect	molt	100.5	2681	 	36.699825	-122.05429	2489672	2.13	2005-07-07 16:47:31.0	Ventana	34.068	00:18:39:16	9.148	V2681-01HD
 	descend	Mysidae	1134.2	2683	 	36.705116	-122.048904	1757491	0.62	2005-07-11 19:32:23.0	Ventana	34.549	03:12:43:18	3.598	V2683-03
 	transect	Mesomyaria	1000.27	2669	 	36.731285	-122.24095	1689357	0.41	2005-05-25 19:33:42.0	Ventana	34.51	01:55:39:20	4.055	V2669-02
 	descend	Appendicularia	538.11	2682	 	36.698612	-122.05978	1720876	0.37	2005-07-08 18:03:47.0	Ventana	34.366	01:57:16:20	5.764	V2682-02
 	descend	Mysidae	1197.32	2682	 	36.698456	-122.05854	1722228	0.68	2005-07-08 19:27:48.0	Ventana	34.573	03:20:24:05	3.375	V2682-04
 	transect	Ceriantharia sp. 1	598.05	2680	 	36.78117	-122.22613	1804899	0.36	2005-06-27 18:32:45.0	Ventana	34.375	01:11:51:06	5.597	V2680-02
 	cruise	Gorgonacea	1007.28	2689	 	36.771576	-122.082855	1669630	0.49	2005-07-18 16:45:38.0	Ventana	34.528	00:08:42:17	3.887	V2689-01
 	ascend	Appendicularia	771.8	2681	 	36.698658	-122.05631	1717481	0.29	2005-07-07 20:08:24.067	Ventana	34.452	03:37:25:18	4.759	V2681-04
 	transect	Mediaster	 	2687	http://search.mbari.org/ARCHIVE/frameGrabs/Ventana/images/2687/02_54_32_28.jpg	 	 	1810705	 	2005-07-13 19:28:49.0	Ventana	 	02:54:32:28	 	V2687-03
 	descend	Nanomia	 	2693	 	 	 	1759440	 	2005-07-25 16:45:00.0	Ventana	 	00:23:32:28	 	V2693-01
 	transect	Psolus squamatus	 	2687	 	 	 	1808647	 	2005-07-13 17:26:05.0	Ventana	 	00:52:57:17	 	V2687-01
 	transect	Psolus squamatus	399.88	2687	http://search.mbari.org/ARCHIVE/frameGrabs/Ventana/images/2687/01_06_16_14.jpg	36.788166	-122.121796	1809353	1.13	2005-07-13 17:39:54.0	Ventana	34.252	01:06:16:14	7.29	V2687-02
 	descend	Nanomia	156.9	2693	 	36.696285	-122.05774	1758197	1.97	2005-07-25 17:57:18.0	Ventana	34.117	00:37:48:22	8.964	V2693-01
 	transect	Anthomastus ritteri	399.86	2687	http://search.mbari.org/ARCHIVE/frameGrabs/Ventana/images/2687/01_02_12_24.jpg	36.788044	-122.12152	1809090	1.14	2005-07-13 17:35:50.0	Ventana	34.237	01:02:12:24	7.276	V2687-02
 	transect	Ophiuroidea	1000.43	2669	 	36.73155	-122.242836	1694547	0.4	2005-05-25 19:43:37.0	Ventana	34.51	02:05:34:03	4.087	V2669-02
 	transect	Mediaster	 	2687	 	 	 	1812301	 	2005-07-13 20:31:31.0	Ventana	 	03:56:28:25	 	V2687-04
 	transect	Mediaster	 	2687	 	 	 	1812744	 	2005-07-13 20:55:47.0	Ventana	 	04:20:17:15	 	V2687-05
 	transect	Ophiuroidea	999.84	2669	 	36.731075	-122.23896	1689094	0.43	2005-05-25 19:21:11.0	Ventana	34.52	01:43:10:01	3.966	V2669-02
 	ascend	Aegina	652.6	2681	 	36.698826	-122.05421	1717665	0.29	2005-07-07 20:27:04.827	Ventana	34.4	03:56:05:28	5.294	V2681-04
 	transect	Mediaster	 	2687	 	 	 	1811411	 	2005-07-13 20:11:45.0	Ventana	 	03:36:44:03	 	V2687-04
 	ascend	Chaetognatha	370.89	2693	 	36.69685	-122.06033	1758734	1.2	2005-07-25 20:32:22.0	Ventana	34.234	03:11:55:01	7.184	V2693-03
 	ascend	Chaetognatha	1160.22	2683	 	36.707874	-122.04879	1757754	0.7	2005-07-11 20:33:50.0	Ventana	34.569	04:08:10:26	3.405	V2683-04
 	transect	Psolus squamatus	 	2687	 	 	 	1811028	 	2005-07-13 19:48:48.0	Ventana	 	03:13:49:13	 	V2687-04
 	cruise	Nanomia	343.1	2676	 	36.80454	-122.03114	1676232	1.2	2005-06-14 16:22:35.0	Ventana	34.239	00:06:44:29	7.461	V2676-01
 	descend	Poeobius meseres	484.61	2682	 	36.69858	-122.05976	1720816	0.5	2005-07-08 17:58:07.0	Ventana	34.335	01:51:37:02	6.148	V2682-02
 	ascend	Poeobius meseres	565.88	2682	 	36.698288	-122.06252	1723591	0.38	2005-07-08 21:07:14.0	Ventana	34.358	04:59:20:07	5.826	V2682-05
 	descend	Euphausiacea	183.84	2683	 	36.70104	-122.051125	1756342	1.62	2005-07-11 16:42:14.0	Ventana	34.186	00:29:55:07	8.649	V2683-01
 	transect	Appendicularia	400.79	2681	 	36.696404	-122.051895	2493003	0.79	2005-07-07 17:43:41.0	Ventana	34.276	01:14:05:09	6.644	V2681-02HD
 	transect	Phyllospadix	1000.39	2669	 	36.731186	-122.24068	1689297	0.41	2005-05-25 19:31:56.0	Ventana	34.511	01:53:54:05	4.055	V2669-02
 	transect	molt	100.5	2681	 	36.698933	-122.05371	2489875	2.12	2005-07-07 16:52:06.0	Ventana	34.07	00:23:15:11	9.148	V2681-01HD
 	transect	chuniphyes	800.88	2681	 	36.695988	-122.05193	2498223	0.31	2005-07-07 18:58:22.0	Ventana	34.476	02:28:04:23	4.496	V2681-03HD
 	transect	Phyllospadix	800.61	2674	 	36.751953	-122.20957	1800922	0.35	2005-06-08 18:17:46.0	Ventana	34.49	01:01:51:19	4.325	V2674-02
 	transect	Halipteris californica	598.62	2680	 	36.782112	-122.227196	1805102	0.35	2005-06-27 18:44:59.0	Ventana	34.377	01:24:04:18	5.587	V2680-02
 	cruise	Pleuronectiformes	98.98	2688	 	36.81296	-122.02083	1679533	1.93	2005-07-14 21:29:31.0	Ventana	34.11	05:13:43:22	8.872	V2688-05
 	descend	Gonatus	727.89	2682	 	36.698456	-122.05969	1721522	0.29	2005-07-08 18:25:41.0	Ventana	34.443	02:18:44:29	4.87	V2682-03
 	descend	Copepoda	639.2	2683	 	36.702034	-122.04896	1757048	0.38	2005-07-11 17:51:31.0	Ventana	34.381	01:35:37:01	5.553	V2683-02
 	transect	Neptunea amianta	599.49	2680	 	36.782936	-122.22823	1805282	0.36	2005-06-27 19:01:59.0	Ventana	34.378	01:41:03:13	5.594	V2680-02
 	transect	Umbellula lindahli	599.92	2680	 	36.778423	-122.22363	1804396	0.36	2005-06-27 17:58:36.0	Ventana	34.378	00:38:42:24	5.583	V2680-01
 	transect	Brisaster	999.89	2669	 	36.73262	-122.25071	1737028	0.4	2005-05-25 20:37:41.0	Ventana	34.507	02:59:09:14	4.073	V2669-03
 	transect	Parastichopus leukothele	199.77	2696	 	36.804443	-122.12646	1813450	1.51	2005-08-01 17:47:43.0	Ventana	34.209	01:15:36:01	8.663	V2696-02
 	transect	Euphausia	200.48	2681	 	36.69828	-122.05329	2490581	1.72	2005-07-07 17:07:41.0	Ventana	34.195	00:38:48:05	8.334	V2681-01HD
 	transect	Phyllospadix	399.7	2687	 	36.789337	-122.124855	1809616	1.16	2005-07-13 18:25:55.0	Ventana	34.239	01:52:14:16	7.325	V2687-02
 	transect	Corallimorphus pilatus	 	2687	 	 	 	1810502	 	2005-07-13 19:21:07.0	Ventana	 	02:46:50:28	 	V2687-03
 	transect	Caecosagitta macrocephala	800.99	2681	 	36.695053	-122.05077	2498043	0.32	2005-07-07 18:53:34.0	Ventana	34.477	02:23:16:08	4.482	V2681-03HD
 	transect	Mesomyaria	999.97	2669	 	36.731915	-122.24568	1735413	0.41	2005-05-25 20:01:28.0	Ventana	34.508	02:22:59:26	4.065	V2669-03
 	transect	Mesomyaria	800.98	2674	 	36.75255	-122.20248	1799206	0.35	2005-06-08 17:41:11.0	Ventana	34.486	00:25:44:18	4.374	V2674-01
 	transect	Stomphia	 	2687	 	 	 	1807554	 	2005-07-13 17:15:14.0	Ventana	 	00:42:07:06	 	V2687-01
 	transect	Mesomyaria	799.45	2674	 	36.751663	-122.212975	1801245	0.35	2005-06-08 18:31:40.0	Ventana	34.489	01:15:44:09	4.336	V2674-02
 	transect	Rathbunaster californicus	198.4	2696	 	36.80363	-122.124535	1813270	1.53	2005-08-01 17:28:31.0	Ventana	34.202	00:56:48:13	8.619	V2696-01
 	transect	Gastropoda sp.2	998.54	2669	 	36.73089	-122.2297	1695050	0.45	2005-05-25 18:12:15.0	Ventana	34.522	00:34:42:07	3.908	V2669-01
 	transect	Mesomyaria	1000.11	2669	 	36.731655	-122.2435	1733847	0.4	2005-05-25 19:47:25.0	Ventana	34.509	02:08:54:27	4.071	V2669-03
 	ascend	Appendicularia	345.23	2693	 	36.69335	-122.06136	1758937	1.25	2005-07-25 21:10:14.0	Ventana	34.239	03:34:46:08	7.408	V2693-04
 	transect	Mediaster	 	2687	 	 	 	1811208	 	2005-07-13 20:02:01.0	Ventana	 	03:27:01:01	 	V2687-04
 	transect	Nanomia bijuga	200.45	2681	 	36.69828	-122.0533	2490761	1.73	2005-07-07 17:08:41.0	Ventana	34.193	00:39:48:07	8.321	V2681-01HD
 	transect	Phyllospadix	800.37	2674	 	36.751736	-122.2116	1801125	0.35	2005-06-08 18:26:24.0	Ventana	34.49	01:10:28:23	4.331	V2674-02
 	transect	Hastigerinella digitata	300.46	2681	 	36.697887	-122.053276	2492117	1.23	2005-07-07 17:21:55.0	Ventana	34.233	00:53:02:19	7.4	V2681-01HD
 	descend	Leuroglossus stilbius	848.33	2683	 	36.70288	-122.04838	1757228	0.34	2005-07-11 18:25:25.0	Ventana	34.484	02:09:28:07	4.385	V2683-02
 	transect	Nanomia bijuga	200.43	2681	 	36.69828	-122.05329	2490055	1.7	2005-07-07 17:04:26.0	Ventana	34.197	00:35:33:04	8.362	V2681-01HD
 	transect	Chaetognatha	300.44	2681	 	36.69827	-122.05351	2491974	1.24	2005-07-07 17:20:32.0	Ventana	34.231	00:51:38:25	7.426	V2681-01HD
 	transect	Calycophorae	600.59	2681	 	36.696186	-122.051765	2493709	0.3	2005-07-07 18:20:53.0	Ventana	34.387	01:51:14:08	5.491	V2681-02HD
 	descend	Appendicularia	320.49	2683	 	36.70116	-122.05011	1756522	1.22	2005-07-11 16:54:50.0	Ventana	34.24	00:42:29:05	7.552	V2683-01
 	ascend	Euphausiacea	264.83	2681	 	36.69894	-122.0564	1718754	1.42	2005-07-07 21:17:52.533	Ventana	34.228	04:46:11:26	7.94	V2681-05
 	transect	Mesomyaria	999.02	2669	 	36.73092	-122.229836	1651176	0.45	2005-05-25 18:13:12.0	Ventana	34.522	00:35:39:16	3.907	V2669-01
 	descend	Bathocyroe	810.39	2682	 	36.698338	-122.0596	1721702	0.31	2005-07-08 18:40:10.0	Ventana	34.475	02:33:13:04	4.52	V2682-03
 	transect	Mesomyaria	800.84	2674	 	36.751125	-122.21726	1803487	0.35	2005-06-08 18:55:03.0	Ventana	34.493	01:39:05:23	4.344	V2674-02
 	descend	Appendicularia	380.02	2682	 	36.69844	-122.059944	1720673	0.93	2005-07-08 17:35:16.0	Ventana	34.259	01:28:47:02	6.973	V2682-02
 	transect	Phyllospadix	196.38	2696	http://search.mbari.org/ARCHIVE/frameGrabs/Ventana/images/2696/00_32_23_20.jpg	36.802963	-122.12244	1813067	1.55	2005-08-01 17:04:04.0	Ventana	34.199	00:32:23:20	8.606	V2696-01
 	transect	molt	100.49	2681	 	36.69982	-122.05429	2489732	2.13	2005-07-07 16:48:53.0	Ventana	34.067	00:20:02:15	9.155	V2681-01HD
 	transect	Mesomyaria	998.49	2669	 	36.731083	-122.23064	1651356	0.45	2005-05-25 18:19:06.0	Ventana	34.521	00:41:32:18	3.91	V2669-01
 	transect	Mesomyaria	802.22	2674	 	36.75231	-122.20576	1799833	0.36	2005-06-08 17:58:48.0	Ventana	34.489	00:43:20:01	4.333	V2674-01
 	transect	Mesomyaria	1000.22	2669	 	36.73104	-122.23947	1689154	0.41	2005-05-25 19:23:57.0	Ventana	34.51	01:45:54:27	4.061	V2669-02
 	ascend	Euphausiacea	282.06	2681	 	36.69975	-122.05515	1718251	1.36	2005-07-07 21:01:06.593	Ventana	34.231	04:29:26:14	7.734	V2681-05
 	transect	Mesomyaria	1000.52	2669	 	36.732338	-122.24946	1736442	0.41	2005-05-25 20:29:22.0	Ventana	34.51	02:50:52:08	4.072	V2669-03
 	descend	Dosidicus gigas	396.24	2681	 	36.695553	-122.05119	1715100	0.82	2005-07-07 17:33:11.533	Ventana	34.275	01:03:35:19	6.694	V2681-02
 	descend	Arctapodema	524.24	2683	 	36.70147	-122.04913	1756905	0.58	2005-07-11 17:41:56.0	Ventana	34.319	01:26:02:22	6.282	V2683-02
 	ascend	Appendicularia	362.36	2681	 	36.69937	-122.054955	1718048	1.01	2005-07-07 20:51:29.8	Ventana	34.259	04:19:50:23	7.121	V2681-05
 	descend	Stellamedusa ventana	189.35	2685	 	36.793686	-121.883286	1669750	1.93	2005-07-12 20:13:06.0	Ventana	34.107	00:10:40:23	8.771	V2685-01
 	transect	Phyllospadix	 	2687	 	 	 	1812361	 	2005-07-13 20:34:28.0	Ventana	 	03:59:26:06	 	V2687-04
 	transect	Copepoda	1001.07	2681	 	36.69475	-122.05055	2498546	0.47	2005-07-07 19:21:19.0	Ventana	34.532	02:50:59:20	3.869	V2681-03HD
 	transect	Brisaster	1000.37	2669	 	36.73148	-122.24229	1694487	0.41	2005-05-25 19:40:56.0	Ventana	34.509	02:02:53:19	4.063	V2669-02
 	transect	Parastichopus leukothele	200.68	2696	 	36.805244	-122.128174	1813593	1.5	2005-08-01 18:02:51.0	Ventana	34.211	01:30:43:14	8.671	V2696-02
 	transect	Calycophorae	700.65	2681	 	36.69721	-122.05307	2497660	0.29	2005-07-07 18:38:58.0	Ventana	34.436	02:08:41:08	4.936	V2681-03HD
 	stationary	Merluccius productus	502.33	2694	 	36.78459	-122.20046	1676626	0.83	2005-07-27 19:56:35.0	Ventana	34.274	02:28:45:01	6.636	V2694-03
 	cruise	Ophiodon elongatus	93.39	2688	 	36.81706	-122.01492	1679330	1.99	2005-07-14 20:01:49.0	Ventana	34.086	03:46:35:13	8.911	V2688-04
 	transect	Mesomyaria	1000.26	2669	 	36.731384	-122.24175	1689860	0.4	2005-05-25 19:38:10.0	Ventana	34.508	02:00:07:08	4.076	V2669-02
 	transect	Corallimorphus pilatus	 	2687	 	 	 	1810645	 	2005-07-13 19:26:25.0	Ventana	 	02:52:09:02	 	V2687-03
 	descend	Appendicularia	1063.8	2683	 	36.705074	-122.048965	1757431	0.5	2005-07-11 19:26:27.0	Ventana	34.535	03:06:48:19	3.825	V2683-03
 	transect	Phyllospadix	799.93	2674	 	36.752544	-122.20378	1799386	0.35	2005-06-08 17:47:48.0	Ventana	34.487	00:32:21:01	4.359	V2674-01
 	transect	Phyllospadix	 	2687	 	 	 	1807697	 	2005-07-13 17:23:11.0	Ventana	 	00:50:03:26	 	V2687-01
 	descend	Appendicularia	1100.47	2682	 	36.698227	-122.05915	1722085	0.56	2005-07-08 19:07:50.0	Ventana	34.55	03:00:28:25	3.644	V2682-04
 	transect	Phyllospadix	801.3	2674	 	36.75227	-122.20723	1800036	0.37	2005-06-08 18:05:56.0	Ventana	34.495	00:50:28:13	4.36	V2674-01
 	transect	molt	400.73	2681	 	36.69776	-122.05347	2493206	0.79	2005-07-07 17:49:27.0	Ventana	34.278	01:19:50:21	6.66	V2681-02HD
 	transect	Lycenchelys camchatica	998.47	2669	 	36.731144	-122.230736	1683431	0.45	2005-05-25 18:20:35.0	Ventana	34.523	00:43:02:07	3.914	V2669-01
 	transect	Allocentrotus fragilis	 	2687	 	 	 	1810825	 	2005-07-13 19:35:10.0	Ventana	 	03:00:53:01	 	V2687-03
 	descend	Dosidicus gigas	404.2	2681	 	36.698025	-122.05376	1715303	0.79	2005-07-07 17:50:43.05	Ventana	34.275	01:21:06:01	6.638	V2681-02
 	cruise	Chionoecetes tanneri	1220.96	2683	 	36.70628	-122.047516	1757611	0.72	2005-07-11 20:07:58.0	Ventana	34.574	03:42:20:07	3.343	V2683-04
 	transect	Phyllospadix	799.74	2674	 	36.7525	-122.20445	1799589	0.35	2005-06-08 17:51:51.0	Ventana	34.485	00:36:24:10	4.38	V2674-01
 	transect	Gastropoda sp.2	998.67	2669	 	36.73108	-122.23491	1694667	0.45	2005-05-25 18:48:52.0	Ventana	34.522	01:10:51:29	3.918	V2669-02
 	ascend	Aegina	943.72	2681	 	36.69748	-122.053925	1716918	0.41	2005-07-07 19:42:00.567	Ventana	34.514	03:11:03:22	4.068	V2681-04
 	transect	Mesomyaria	998.2	2669	 	36.731174	-122.23443	1684137	0.45	2005-05-25 18:45:05.0	Ventana	34.521	01:07:05:20	3.916	V2669-02
 	transect	Psolus squamatus	399.9	2687	 	36.78812	-122.12164	1809233	1.13	2005-07-13 17:37:25.0	Ventana	34.243	01:03:47:23	7.255	V2687-02
 	transect	Psolus squamatus	 	2687	 	 	 	1810119	 	2005-07-13 18:58:33.0	Ventana	 	02:24:18:15	 	V2687-03
 	transect	Rathbunaster californicus	203.52	2696	 	36.806526	-122.130104	1813773	1.48	2005-08-01 18:29:02.0	Ventana	34.216	01:56:52:29	8.642	V2696-02
 	descend	sinker	315.48	2690	 	36.79021	-121.8874	1669953	1.09	2005-07-18 19:45:37.0	Ventana	34.244	01:00:45:07	7.222	V2690-01
 	transect	Phyllospadix	800.98	2674	 	36.75212	-122.208305	1800742	0.35	2005-06-08 18:11:05.0	Ventana	34.49	00:55:37:01	4.322	V2674-01
 	transect	Mediaster	 	2687	 	 	 	1806991	 	2005-07-13 16:53:21.0	Ventana	 	00:20:15:20	 	V2687-01
 	descend	Copepoda	465.58	2683	 	36.7017	-122.0493	1756725	0.78	2005-07-11 17:10:12.0	Ventana	34.283	00:57:51:09	6.664	V2683-01
 	cruise	Suction Sampler	 	2673	 	 	 	1668338	 	 	Ventana	 	00:08:12:24	 	V2673-01
 	ascend	Appendicularia	681.39	2681	 	36.698746	-122.05454	1717624	0.27	2005-07-07 20:22:33.4	Ventana	34.415	03:51:34:17	5.154	V2681-04
 	transect	Sebastolobus altivelis	803.51	2674	 	36.75077	-122.22039	1803690	0.34	2005-06-08 19:08:27.0	Ventana	34.478	01:52:29:02	4.395	V2674-02
 	transect	haliscera	700.62	2681	 	36.69594	-122.0518	2497840	0.29	2005-07-07 18:44:10.0	Ventana	34.438	02:13:53:07	4.937	V2681-03HD
 	transect	Phyllospadix	802.13	2674	 	36.752235	-122.20651	1799953	0.36	2005-06-08 18:02:22.0	Ventana	34.488	00:46:54:09	4.345	V2674-01
 	transect	Porifera sp. 1	 	2687	 	 	 	1807637	 	2005-07-13 17:19:43.0	Ventana	 	00:46:35:21	 	V2687-01
 	transect	Nanomia bijuga	200.42	2681	 	36.69828	-122.0533	2490821	1.72	2005-07-07 17:09:05.0	Ventana	34.193	00:40:12:13	8.323	V2681-01HD
 	transect	Allocentrotus fragilis	 	2687	 	 	 	1811291	 	2005-07-13 20:05:34.0	Ventana	 	03:30:33:21	 	V2687-04
 	transect	Ceriantharia sp. 2	1000.57	2669	 	36.732372	-122.2496	1736585	0.41	2005-05-25 20:30:24.0	Ventana	34.509	02:51:52:27	4.069	V2669-03
 	transect	Ceriantharia sp. 1	801.3	2674	 	36.75096	-122.21879	1803607	0.35	2005-06-08 19:01:31.0	Ventana	34.487	01:45:33:25	4.352	V2674-02
 	transect	Mediaster	400.09	2687	 	36.789078	-122.124016	1809533	1.17	2005-07-13 18:12:43.0	Ventana	34.238	01:39:02:22	7.355	V2687-02
 	transect	Rathbunaster californicus	196.97	2696	 	36.80338	-122.123535	1813187	1.56	2005-08-01 17:17:08.0	Ventana	34.195	00:45:26:16	8.63	V2696-01
 	transect	Chionoecetes tanneri	599.29	2680	 	36.777775	-122.22279	1804313	0.36	2005-06-27 17:50:14.0	Ventana	34.379	00:30:21:16	5.584	V2680-01
 	transect	Ophiuroidea	999.62	2669	 	36.731125	-122.23548	1684340	0.45	2005-05-25 18:53:43.0	Ventana	34.522	01:15:43:15	3.925	V2669-02
 	descend	Calycophorae	364.12	2683	 	36.701366	-122.04985	1756582	1.12	2005-07-11 16:57:19.0	Ventana	34.236	00:44:58:20	7.121	V2683-01
 	transect	Phyllospadix	1000.31	2669	 	36.73202	-122.24734	1735879	0.41	2005-05-25 20:14:29.0	Ventana	34.508	02:35:58:29	4.07	V2669-03
 	transect	Chaetognatha	1000.94	2681	 	36.696342	-122.05263	2498689	0.47	2005-07-07 19:29:23.0	Ventana	34.53	02:59:03:21	3.878	V2681-03HD
 	ascend	Appendicularia	333.04	2681	 	36.69961	-122.055214	1718131	1.17	2005-07-07 20:55:26.7	Ventana	34.241	04:23:47:13	7.313	V2681-05
 	transect	Phyllospadix	801.05	2674	http://search.mbari.org/ARCHIVE/frameGrabs/Ventana/images/2674/00_12_37_11.jpg	36.752514	-122.20019	20003880	0.29	2005-06-08 17:28:01.0	Ventana	34.455	00:12:37:11	4.643	V2674-01
 	transect	Mesomyaria	999.77	2669	 	36.731773	-122.24443	1734313	0.4	2005-05-25 19:52:30.0	Ventana	34.508	02:14:00:15	4.08	V2669-03
 	transect	Ceriantharia sp. 1	600.67	2680	 	36.786446	-122.23106	1805879	0.36	2005-06-27 19:38:39.0	Ventana	34.377	02:17:18:05	5.6	V2680-03
 	transect	Sebastolobus altivelis	802.44	2674	 	36.75177	-122.21033	1801005	0.35	2005-06-08 18:21:12.0	Ventana	34.491	01:05:16:28	4.336	V2674-02
 	transect	Hastigerinella digitata	300.47	2681	 	36.69803	-122.053375	2492057	1.23	2005-07-07 17:21:25.0	Ventana	34.233	00:52:31:14	7.401	V2681-01HD
 	descend	Nanomia	207.29	2681	 	36.69846	-122.05351	1713564	1.59	2005-07-07 17:14:39.3	Ventana	34.206	00:45:47:04	8.31	V2681-01
 	descend	Appendicularia	207.73	2693	 	36.69605	-122.058334	1758317	1.78	2005-07-25 18:26:10.0	Ventana	34.17	01:06:15:17	8.659	V2693-02
 	transect	Psolus squamatus	 	2687	 	 	 	1808827	 	2005-07-13 17:30:15.0	Ventana	 	00:57:08:00	 	V2687-01
 	descend	Appendicularia	916.15	2681	 	36.694733	-122.050446	1716512	0.4	2005-07-07 19:17:26.747	Ventana	34.505	02:47:08:07	4.111	V2681-03
 	transect	Phyllospadix	 	2687	http://search.mbari.org/ARCHIVE/frameGrabs/Ventana/images/2687/03_08_34_04.jpg	 	 	1810945	 	2005-07-13 19:43:32.0	Ventana	 	03:08:34:04	 	V2687-04
 	transect	Microstomus pacificus	 	2687	 	 	 	1811775	 	2005-07-13 20:25:08.0	Ventana	 	03:50:06:22	 	V2687-04
 	transect	Phyllospadix	800.87	2674	 	36.75252	-122.201584	1799063	0.34	2005-06-08 17:36:22.0	Ventana	34.487	00:20:56:06	4.415	V2674-01
 	transect	Mesomyaria	997.73	2669	 	36.73057	-122.2272	1649114	0.45	2005-05-25 17:55:32.0	Ventana	34.521	00:18:00:15	3.91	V2669-01
 	ascend	Cydippida	198.23	2693	 	36.69073	-122.06275	1759200	1.8	2005-07-25 21:26:14.0	Ventana	34.184	03:50:46:21	8.893	V2693-04
 	transect	Mesomyaria	999.75	2669	 	36.730576	-122.22903	1651033	0.45	2005-05-25 18:06:52.0	Ventana	34.521	00:29:19:24	3.907	V2669-01
 	transect	Ophiuroidea	998.86	2669	 	36.731403	-122.23618	1684663	0.44	2005-05-25 18:58:50.0	Ventana	34.521	01:20:49:15	3.944	V2669-02
 	transect	Rathbunaster californicus	200.33	2696	 	36.804848	-122.12745	1813533	1.51	2005-08-01 17:57:32.0	Ventana	34.213	01:25:25:03	8.672	V2696-02
 	transect	Allocentrotus fragilis	 	2687	 	 	 	1810585	 	2005-07-13 19:22:59.0	Ventana	 	02:48:43:11	 	V2687-03
 	transect	cydippida	300.44	2681	 	36.696983	-122.052505	2492417	1.23	2005-07-07 17:24:58.0	Ventana	34.234	00:56:04:08	7.395	V2681-01HD
 	transect	Mesomyaria	1000.07	2669	 	36.731243	-122.23833	1688854	0.43	2005-05-25 19:17:22.0	Ventana	34.519	01:39:20:14	3.975	V2669-02
 	descend	Copepoda	533.74	2683	 	36.70153	-122.04914	1756928	0.54	2005-07-11 17:42:58.0	Ventana	34.324	01:27:05:04	6.217	V2683-02
 	stationary	Sebastolobus	998.1	2679	 	36.690376	-122.166275	1824386	0.47	2005-06-16 20:22:56.0	Ventana	34.532	01:01:10:11	3.864	V2679-01
 	ascend	Siphonophora	483.25	2683	 	36.70434	-122.05057	1757994	0.69	2005-07-11 21:16:59.0	Ventana	34.303	04:49:51:01	6.52	V2683-05
 	ascend	Poeobius meseres	547.48	2681	 	36.698948	-122.05425	1717725	0.39	2005-07-07 20:32:23.067	Ventana	34.362	04:01:23:19	5.882	V2681-04
 	transect	Aegina	700.64	2681	 	36.69761	-122.053474	2497637	0.29	2005-07-07 18:37:11.0	Ventana	34.432	02:06:55:09	4.981	V2681-03HD
 	transect	molt	100.48	2681	 	36.699795	-122.054276	2489755	2.12	2005-07-07 16:49:39.0	Ventana	34.067	00:20:48:26	9.159	V2681-01HD
 	ascend	Poeobius meseres	969.65	2681	 	36.69708	-122.053474	1716595	0.44	2005-07-07 19:37:34.0	Ventana	34.52	03:06:36:18	3.998	V2681-03
 	transect	Mesomyaria	798.33	2674	 	36.751614	-122.2138	1801305	0.35	2005-06-08 18:37:00.0	Ventana	34.488	01:21:03:25	4.344	V2674-02
 	transect	Mediaster	 	2687	 	 	 	1811858	 	2005-07-13 20:27:17.0	Ventana	 	03:52:15:08	 	V2687-04
 	transect	Anthomastus ritteri	 	2687	 	 	 	1810885	 	2005-07-13 19:40:55.0	Ventana	 	03:05:56:17	 	V2687-04
 	ascend	Chaetognatha	461.41	2682	 	36.698322	-122.06302	1723711	0.61	2005-07-08 21:17:49.0	Ventana	34.302	05:09:29:12	6.354	V2682-06
 	ascend	Chaetognatha	149.42	2693	 	36.690735	-122.06297	1759260	1.92	2005-07-25 21:31:30.0	Ventana	34.114	03:56:01:00	9.069	V2693-04
 	cruise	Pleuronectiformes	442.76	2688	 	36.804104	-122.018364	1677655	0.88	2005-07-14 17:40:14.0	Ventana	34.273	01:25:58:00	6.846	V2688-02
 	transect	Ophiuroidea	999.3	2669	 	36.731422	-122.23626	1684700	0.44	2005-05-25 18:59:25.0	Ventana	34.52	01:21:24:25	3.941	V2669-02
 	descend	Praya	43.49	2683	 	36.70071	-122.05158	1756222	3.51	2005-07-11 16:15:08.0	Ventana	33.728	00:02:50:12	9.445	V2683-01
 	transect	Mesomyaria	801.43	2674	 	36.75175	-122.210945	1801065	0.35	2005-06-08 18:23:56.0	Ventana	34.491	01:08:01:09	4.329	V2674-02
 	ascend	Chuniphyes	728.67	2681	 	36.698696	-122.055336	1717564	0.28	2005-07-07 20:17:45.2	Ventana	34.441	03:46:46:05	4.899	V2681-04
 	descend	Copepoda	1184.14	2682	 	36.69824	-122.057884	1722408	0.66	2005-07-08 19:42:00.0	Ventana	34.569	03:34:37:04	3.414	V2682-04
 	ascend	Appendicularia	613.98	2683	 	36.704853	-122.05047	1757957	0.3	2005-07-11 21:11:19.0	Ventana	34.391	04:44:11:24	5.51	V2683-05
 	cruise	Sebastes	292.42	2676	 	36.805134	-122.02919	1676686	1.46	2005-06-14 17:27:16.0	Ventana	34.218	01:07:00:28	7.875	V2676-02
 	ascend	Appendicularia	931.55	2682	 	36.697895	-122.0585	1723114	0.39	2005-07-08 20:11:49.0	Ventana	34.511	04:04:00:13	4.168	V2682-05
 	transect	Glyptocephalus zachirus	 	2687	 	 	 	1812827	 	2005-07-13 20:59:47.0	Ventana	 	04:24:16:20	 	V2687-05
 	transect	Mesomyaria	998.95	2669	 	36.73285	-122.25155	1737231	0.4	2005-05-25 20:42:34.0	Ventana	34.509	03:03:25:01	4.073	V2669-04
 	transect	Stomphia	997.12	2669	 	36.73066	-122.22765	1649197	0.45	2005-05-25 17:58:25.0	Ventana	34.521	00:20:53:05	3.908	V2669-01
 	transect	Mediaster	 	2687	 	 	 	1812564	 	2005-07-13 20:45:40.0	Ventana	 	04:10:11:13	 	V2687-05
 	cruise	Remote Instrument Node	124.36	2672	http://search.mbari.org/ARCHIVE/frameGrabs/Ventana/images/2672/00_19_16_17.jpg	36.803104	-121.80559	20003820	2.7	2005-06-03 14:59:53.0	Ventana	33.952	00:19:16:17	9.338	V2672-01
 	cruise	mud	124.42	2688	 	36.812977	-122.01881	1678098	1.97	2005-07-14 19:24:59.0	Ventana	34.097	03:10:11:14	8.93	V2688-03
 	ascend	Cydippida	258.17	2681	 	36.697838	-122.05522	1719460	 	2005-07-07 21:29:59.0	Ventana	 	05:06:07:07	 	V2681-05
 	transect	Mesomyaria	1000.52	2669	 	36.732227	-122.248726	1736239	0.41	2005-05-25 20:24:29.0	Ventana	34.512	02:45:58:19	4.07	V2669-03
 	ascend	Beroe	371.02	2693	 	36.69632	-122.06078	1758663	1.2	2005-07-25 20:26:44.0	Ventana	34.232	03:06:17:16	7.165	V2693-03
 	transect	Psolus squamatus	399.87	2687	 	36.788074	-122.12156	1809173	1.13	2005-07-13 17:36:32.0	Ventana	34.242	01:02:54:21	7.267	V2687-02
 	cruise	Merluccius productus	506.04	2694	 	36.783962	-122.2009	1676149	0.75	2005-07-27 17:06:52.0	Ventana	34.289	00:00:00:29	6.476	V2694-01
 	ascend	Nanomia	342.86	2693	 	36.693653	-122.06128	1758914	1.25	2005-07-25 21:07:41.0	Ventana	34.237	03:32:14:09	7.411	V2693-04
 	transect	Appendicularia	400.76	2681	 	36.696873	-122.05248	2493063	0.79	2005-07-07 17:45:46.0	Ventana	34.277	01:16:09:01	6.659	V2681-02HD
 	transect	Mesomyaria	802.73	2674	 	36.75229	-122.20611	1799893	0.36	2005-06-08 18:00:24.0	Ventana	34.486	00:44:56:17	4.338	V2674-01
 	transect	Porifera sp. 1	 	2687	 	 	 	1807577	 	2005-07-13 17:16:05.0	Ventana	 	00:42:58:12	 	V2687-01
 	transect	Mediaster	 	2687	 	 	 	1811231	 	2005-07-13 20:05:13.0	Ventana	 	03:30:13:08	 	V2687-04
 	ascend	Physonectae	523.13	2682	 	36.6983	-122.06297	1723651	0.45	2005-07-08 21:11:27.0	Ventana	34.341	05:03:08:24	6.071	V2682-06
 	transect	Chionoecetes tanneri	800.7	2674	 	36.75103	-122.218056	1803547	0.35	2005-06-08 18:58:26.0	Ventana	34.49	01:42:28:22	4.335	V2674-02
 	transect	Mesomyaria	999.55	2669	 	36.731033	-122.23388	1683994	0.45	2005-05-25 18:41:08.0	Ventana	34.523	01:03:09:03	3.912	V2669-02
 	transect	Pennatulacea sp.1	602.08	2680	 	36.791706	-122.23298	1806871	0.36	2005-06-27 20:30:03.0	Ventana	34.379	03:08:38:27	5.59	V2680-03
 	descend	Solmissus	328.94	2682	 	36.6988	-122.06063	1720166	1.09	2005-07-08 17:10:39.0	Ventana	34.248	01:04:10:23	7.225	V2682-02
 	transect	Psolus squamatus	 	2687	 	 	 	1807291	 	2005-07-13 17:05:01.0	Ventana	 	00:31:55:03	 	V2687-01
 	transect	Mediaster	 	2687	 	 	 	1812481	 	2005-07-13 20:41:09.0	Ventana	 	04:06:07:02	 	V2687-04
 	transect	Psolus squamatus	 	2687	 	 	 	1810239	 	2005-07-13 19:11:28.0	Ventana	 	02:37:12:27	 	V2687-03
 	ascend	Euphausiacea	258.17	2681	 	36.697838	-122.05522	1719543	 	2005-07-07 21:29:59.0	Ventana	 	05:12:27:08	 	V2681-05
 	transect	Psolus squamatus	 	2687	 	 	 	1808910	 	2005-07-13 17:31:44.0	Ventana	 	00:58:36:06	 	V2687-01
 	ascend	Appendicularia	257.44	2681	 	36.698734	-122.056786	1719100	1.44	2005-07-07 21:22:41.0	Ventana	34.226	04:51:00:01	7.957	V2681-05
 	transect	Mesomyaria	999.92	2669	 	36.73256	-122.25024	1736945	0.41	2005-05-25 20:34:50.0	Ventana	34.51	02:56:19:07	4.067	V2669-03
 	cruise	Sebastolobus	592.3	2688	 	36.796623	-122.02012	1677392	0.47	2005-07-14 16:40:59.0	Ventana	34.377	00:27:18:11	5.655	V2688-01
 	descend	Chaetognatha	1057.64	2682	 	36.698334	-122.059135	1722048	0.48	2005-07-08 19:04:05.0	Ventana	34.532	02:57:07:20	3.84	V2682-03
 	transect	Chaetognatha	200.45	2681	 	36.69828	-122.05329	2490115	1.7	2005-07-07 17:04:52.0	Ventana	34.197	00:36:00:27	8.36	V2681-01HD
 	transect	Calliostoma platinum	 	2687	 	 	 	1810525	 	2005-07-13 19:21:41.0	Ventana	 	02:47:24:25	 	V2687-03
 	transect	Ophiuroidea	998.93	2669	 	36.731403	-122.23613	1684603	0.44	2005-05-25 18:58:30.0	Ventana	34.521	01:20:29:21	3.943	V2669-02
 	descend	Copepoda	400.38	2681	 	36.695663	-122.05104	1715243	0.79	2005-07-07 17:38:59.8	Ventana	34.277	01:09:23:01	6.675	V2681-02
 	cruise	Chionoecetes tanneri	1232.28	2683	 	36.70578	-122.047874	1757551	0.74	2005-07-11 19:52:35.0	Ventana	34.576	03:26:59:04	3.308	V2683-04
 	transect	Mediaster	 	2687	 	 	 	1811715	 	2005-07-13 20:22:17.0	Ventana	 	03:47:15:27	 	V2687-04
 	transect	Nanomia bijuga	200.4	2681	 	36.698296	-122.053345	2491084	1.69	2005-07-07 17:11:40.0	Ventana	34.198	00:42:47:21	8.335	V2681-01HD
 	transect	Ceriantharia sp. 2	997.44	2669	 	36.7306	-122.22817	1683348	0.45	2005-05-25 18:01:42.0	Ventana	34.522	00:24:10:20	3.907	V2669-01
 	ascend	Lobata	817.4	2682	 	36.69865	-122.05872	1723257	0.32	2005-07-08 20:22:37.0	Ventana	34.468	04:14:45:24	4.503	V2682-05
 	transect	Phyllospadix	999.78	2669	 	36.731907	-122.24607	1735616	0.41	2005-05-25 20:04:00.0	Ventana	34.51	02:25:30:22	4.06	V2669-03
 	descend	Nanomia	178.83	2693	 	36.6961	-122.05816	1758257	1.92	2005-07-25 18:09:49.0	Ventana	34.155	00:50:20:02	8.859	V2693-01
 	ascend	Aegina	899.66	2681	 	36.698017	-122.05481	1717158	0.37	2005-07-07 19:48:56.797	Ventana	34.503	03:18:00:01	4.205	V2681-04
 	descend	Appendicularia	504.73	2683	 	36.70151	-122.04917	1756845	0.68	2005-07-11 17:38:07.0	Ventana	34.305	01:22:14:19	6.462	V2683-02
 	transect	Psolus squamatus	399.84	2687	http://search.mbari.org/ARCHIVE/frameGrabs/Ventana/images/2687/01_02_17_21.jpg	36.788036	-122.12153	1809113	1.13	2005-07-13 17:35:55.0	Ventana	34.244	01:02:17:21	7.27	V2687-02
 	transect	Mesomyaria	1000.18	2669	 	36.73096	-122.23332	1683897	0.45	2005-05-25 18:38:14.0	Ventana	34.522	01:00:39:23	3.91	V2669-01
 	transect	Phyllospadix	 	2687	 	 	 	1812421	 	2005-07-13 20:37:47.0	Ventana	 	04:02:44:15	 	V2687-04
 	ascend	Medusae	298.34	2681	 	36.699715	-122.055244	1718191	1.33	2005-07-07 20:59:30.203	Ventana	34.226	04:27:50:21	7.648	V2681-05
 	transect	Mediaster	 	2687	 	 	 	1812767	 	2005-07-13 20:56:38.0	Ventana	 	04:21:08:12	 	V2687-05
 	ascend	Copepoda	765.16	2681	 	36.69867	-122.056076	1717504	0.29	2005-07-07 20:10:36.5	Ventana	34.451	03:39:38:27	4.787	V2681-04
 	ascend	Chuniphyes	943.96	2682	 	36.69769	-122.058495	1723054	0.42	2005-07-08 20:10:09.0	Ventana	34.515	04:02:18:15	4.052	V2682-05
 	transect	Poeobius meseres	700.63	2681	 	36.69669	-122.05258	2497720	0.29	2005-07-07 18:40:59.0	Ventana	34.436	02:10:42:07	4.93	V2681-03HD
 	cruise	Pleuronectiformes	115.46	2688	 	36.811337	-122.022545	1678001	1.95	2005-07-14 18:42:01.0	Ventana	34.093	02:27:16:05	8.9	V2688-03
 	transect	Mesomyaria	799.21	2674	 	36.75252	-122.204254	1799529	0.35	2005-06-08 17:50:36.0	Ventana	34.484	00:35:09:13	4.371	V2674-01
 	transect	Mediaster	 	2687	 	 	 	1812218	 	2005-07-13 20:29:22.0	Ventana	 	03:54:19:29	 	V2687-04
 	ascend	Poeobius meseres	938.94	2681	 	36.69756	-122.05402	1716955	0.41	2005-07-07 19:42:48.967	Ventana	34.515	03:11:52:18	4.072	V2681-04
 	descend	Calycophorae	286.63	2682	 	36.699375	-122.06067	1720106	1.25	2005-07-08 16:52:23.0	Ventana	34.228	00:46:26:02	7.494	V2682-01
 	transect	Porifera sp. 1	399.85	2687	 	36.788124	-122.12167	1809270	1.13	2005-07-13 17:37:56.0	Ventana	34.243	01:04:18:22	7.254	V2687-02
 	cruise	Sebastolobus	465.58	2688	 	36.80247	-122.018234	1677595	0.82	2005-07-14 17:30:48.0	Ventana	34.283	01:16:32:04	6.738	V2688-02
 	descend	Nanomia	150.86	2682	 	36.69986	-122.06073	1719903	2.12	2005-07-08 16:18:39.0	Ventana	34.124	00:12:44:02	8.597	V2682-01
 	ascend	Appendicularia	590.52	2682	 	36.69879	-122.06073	1723460	0.4	2005-07-08 20:47:24.0	Ventana	34.372	04:39:31:17	5.67	V2682-05
 	transect	Phyllospadix	998.44	2669	 	36.73106	-122.23036	1651296	0.45	2005-05-25 18:17:28.0	Ventana	34.521	00:39:54:18	3.908	V2669-01
 	transect	Stomphia	800.15	2674	 	36.752533	-122.20339	1799326	0.35	2005-06-08 17:45:50.0	Ventana	34.481	00:30:23:02	4.39	V2674-01
 	transect	Phyllospadix	999.53	2669	 	36.73106	-122.23507	1684257	0.45	2005-05-25 18:50:45.0	Ventana	34.521	01:12:45:19	3.922	V2669-02
 	transect	Aegina	700.6	2681	 	36.695587	-122.05143	2497923	0.28	2005-07-07 18:45:56.0	Ventana	34.435	02:15:39:29	4.948	V2681-03HD
 	cruise	Lycodapus	534.36	2688	 	36.79866	-122.01947	1677452	0.62	2005-07-14 17:02:40.0	Ventana	34.325	00:48:59:00	6.242	V2688-01
 	descend	Dosidicus gigas	519.32	2681	 	36.69569	-122.05109	1715543	0.41	2005-07-07 18:05:16.067	Ventana	34.348	01:35:37:20	5.92	V2681-02
 	transect	Rathbunaster californicus	203.47	2696	 	36.807426	-122.13109	1813833	1.46	2005-08-01 18:41:31.0	Ventana	34.22	02:08:36:01	8.616	V2696-03
 	transect	Umbellula lindahli	600.53	2680	 	36.784412	-122.2298	1805616	0.36	2005-06-27 19:17:47.0	Ventana	34.377	01:56:50:18	5.607	V2680-02
 	transect	Poeobius meseres	1001.0	2681	 	36.695614	-122.05168	2498629	0.48	2005-07-07 19:25:50.0	Ventana	34.533	02:55:30:04	3.846	V2681-03HD
 	cruise	mud	243.82	2676	 	36.80577	-122.029465	1676746	1.56	2005-06-14 17:38:01.0	Ventana	34.204	01:17:45:16	8.054	V2676-02
 	descend	Appendicularia	252.71	2693	 	36.698425	-122.06165	1758400	1.46	2005-07-25 19:25:12.0	Ventana	34.235	02:05:12:19	8.328	V2693-02
 	transect	Calliostoma platinum	 	2687	http://search.mbari.org/ARCHIVE/frameGrabs/Ventana/images/2687/03_40_03_15.jpg	 	 	1811512	 	2005-07-13 20:15:04.0	Ventana	 	03:40:03:15	 	V2687-04
 	transect	Ophiuroidea	997.51	2669	 	36.73062	-122.22798	1649257	0.45	2005-05-25 18:00:29.0	Ventana	34.522	00:22:58:01	3.906	V2669-01
 	transect	Glyptocephalus zachirus	 	2687	 	 	 	1810179	 	2005-07-13 19:05:40.0	Ventana	 	02:31:25:03	 	V2687-03
 	cruise	Ophiodon elongatus	111.44	2688	http://search.mbari.org/ARCHIVE/frameGrabs/Ventana/images/2688/03_14_08_23.jpg	36.81319	-122.01889	1679210	1.97	2005-07-14 19:29:23.0	Ventana	34.096	03:14:08:23	8.931	V2688-04
 	descend	Appendicularia	650.24	2681	 	36.69795	-122.05387	1715949	0.29	2005-07-07 18:30:21.71	Ventana	34.402	02:00:42:09	5.252	V2681-02
 	transect	Phyllospadix	800.74	2674	 	36.7526	-122.2019	1799123	0.34	2005-06-08 17:38:06.0	Ventana	34.479	00:22:39:15	4.403	V2674-01
 	transect	Lycenchelys camchatica	801.52	2674	 	36.752197	-122.20774	1800096	0.4	2005-06-08 18:08:20.0	Ventana	34.49	00:52:51:16	4.334	V2674-01
 	transect	Phyllospadix	799.9	2674	 	36.752678	-122.200516	1774127	0.29	2005-06-08 17:31:21.0	Ventana	34.462	00:15:54:20	4.659	V2674-01
 	transect	Mesomyaria	999.49	2669	 	36.7307	-122.229454	1651093	0.45	2005-05-25 18:10:02.0	Ventana	34.521	00:32:29:21	3.912	V2669-01
 	ascend	Appendicularia	1193.04	2683	 	36.707287	-122.04766	1757694	0.71	2005-07-11 20:21:52.0	Ventana	34.571	03:56:15:04	3.365	V2683-04
 	transect	Appendicularia	400.78	2681	 	36.697285	-122.05293	2493123	0.79	2005-07-07 17:47:27.0	Ventana	34.278	01:17:51:00	6.663	V2681-02HD
 	transect	Phyllospadix	800.2	2674	 	36.75244	-122.20484	1799672	0.35	2005-06-08 17:53:43.0	Ventana	34.487	00:38:15:19	4.356	V2674-01
 	transect	Euphausia	200.45	2681	 	36.69828	-122.05329	2490724	1.71	2005-07-07 17:08:31.0	Ventana	34.193	00:39:38:17	8.323	V2681-01HD
 	transect	Asteronyx loveni	598.29	2680	 	36.78275	-122.227974	1805222	0.35	2005-06-27 18:59:12.0	Ventana	34.381	01:38:16:28	5.567	V2680-02
 	descend	Copepoda	289.51	2683	 	36.70103	-122.050186	1756485	1.29	2005-07-11 16:53:03.0	Ventana	34.241	00:40:44:06	7.765	V2683-01
 	transect	Appendicularia	600.64	2681	 	36.695778	-122.05126	2493672	0.3	2005-07-07 18:18:56.0	Ventana	34.386	01:49:18:18	5.495	V2681-02HD
 	transect	Mediaster	399.67	2687	 	36.789368	-122.12534	1809676	1.15	2005-07-13 18:33:52.0	Ventana	34.243	02:00:10:26	7.305	V2687-02
 	ascend	Appendicularia	398.67	2681	 	36.699284	-122.0545	1717988	0.89	2005-07-07 20:47:51.633	Ventana	34.269	04:16:12:10	6.892	V2681-05
 	transect	Microstomus pacificus	 	2687	 	 	 	1812624	 	2005-07-13 20:48:34.0	Ventana	 	04:13:04:21	 	V2687-05
 	ascend	Apolemia	430.88	2681	 	36.69908	-122.05421	1717785	0.71	2005-07-07 20:37:54.813	Ventana	34.284	04:06:54:16	6.59	V2681-04
 	transect	Gastropoda sp.2	1000.28	2669	 	36.732132	-122.24804	1736179	0.41	2005-05-25 20:19:14.0	Ventana	34.51	02:40:44:17	4.064	V2669-03
 	descend	Appendicularia	404.6	2683	 	36.70145	-122.04954	1756642	0.95	2005-07-11 17:04:11.0	Ventana	34.261	00:51:49:18	6.949	V2683-01
 	descend	Leuroglossus stilbius	697.85	2682	 	36.698612	-122.05998	1721439	0.29	2005-07-08 18:15:20.0	Ventana	34.427	02:08:24:17	5.046	V2682-03
 	transect	Psolus squamatus	 	2687	 	 	 	1808970	 	2005-07-13 17:32:46.0	Ventana	 	00:59:38:23	 	V2687-01
 	descend	Appendicularia	813.28	2683	 	36.7027	-122.04863	1757191	0.36	2005-07-11 18:15:22.0	Ventana	34.468	01:59:27:03	4.519	V2683-02
 	transect	Euphausia	200.36	2681	 	36.69831	-122.053406	2491227	1.67	2005-07-07 17:12:56.0	Ventana	34.201	00:44:03:19	8.34	V2681-01HD
 	transect	bathocyroe	600.54	2681	 	36.697384	-122.0532	2493829	0.3	2005-07-07 18:26:22.0	Ventana	34.388	01:56:43:01	5.47	V2681-02HD
 	transect	Lycenchelys camchatica	800.53	2674	 	36.751217	-122.21622	1803404	0.35	2005-06-08 18:50:14.0	Ventana	34.491	01:34:17:19	4.335	V2674-02
 	transect	Euphausia	200.42	2681	 	36.69828	-122.0533	2490881	1.7	2005-07-07 17:09:27.0	Ventana	34.197	00:40:34:10	8.33	V2681-01HD
 	descend	Chaetognatha	418.88	2682	 	36.698204	-122.05978	1720733	0.73	2005-07-08 17:40:40.0	Ventana	34.284	01:34:10:09	6.541	V2682-02
 	descend	Siphonophora	158.73	2683	 	36.700653	-122.051636	1756282	1.69	2005-07-11 16:26:43.0	Ventana	34.175	00:14:24:29	8.8	V2683-01
 	transect	Psolus squamatus	 	2687	 	 	 	1811088	 	2005-07-13 19:52:25.0	Ventana	 	03:17:26:04	 	V2687-04
 	transect	Phyllospadix	999.98	2669	 	36.731136	-122.24005	1689214	0.41	2005-05-25 19:27:51.0	Ventana	34.51	01:49:48:18	4.063	V2669-02
 	transect	Phyllospadix	799.39	2674	 	36.752457	-122.2052	1799750	0.35	2005-06-08 17:56:01.0	Ventana	34.49	00:40:33:11	4.357	V2674-01
 	transect	molt	100.49	2681	 	36.699326	-122.05397	2489815	2.14	2005-07-07 16:51:12.0	Ventana	34.067	00:22:21:13	9.15	V2681-01HD
 	transect	Aegina	500.58	2681	 	36.6973	-122.052986	2493469	0.44	2005-07-07 17:57:52.0	Ventana	34.346	01:28:15:14	6.022	V2681-02HD
 	transect	Ophiuroidea	999.04	2669	 	36.73139	-122.23639	1684760	0.44	2005-05-25 19:00:24.0	Ventana	34.518	01:22:24:06	3.944	V2669-02
 	descend	sinker	370.35	2693	 	36.69647	-122.0604	1758603	1.2	2005-07-25 20:12:20.0	Ventana	34.232	02:51:53:23	7.163	V2693-03
 	transect	Stomphia	999.12	2669	 	36.731045	-122.231865	1683694	0.45	2005-05-25 18:29:29.0	Ventana	34.522	00:51:55:04	3.915	V2669-01
 	transect	Caridea sp.1	602.62	2680	 	36.78979	-122.23259	1806728	0.36	2005-06-27 20:13:53.0	Ventana	34.38	02:52:29:25	5.586	V2680-03
 	ascend	Copepoda	862.35	2681	 	36.698483	-122.05557	1717361	0.34	2005-07-07 19:53:42.203	Ventana	34.497	03:22:45:05	4.32	V2681-04
 	descend	Leuroglossus stilbius	972.06	2683	 	36.704044	-122.04861	1757348	0.42	2005-07-11 19:13:15.0	Ventana	34.519	02:53:36:26	4.033	V2683-03
 	transect	Nanomia bijuga	200.5	2681	 	36.69828	-122.05329	2490521	1.71	2005-07-07 17:07:16.0	Ventana	34.197	00:38:25:05	8.341	V2681-01HD
 	transect	Pannychia moseleyi	798.96	2674	 	36.75148	-122.21456	1801365	0.35	2005-06-08 18:42:12.0	Ventana	34.489	01:26:15:25	4.334	V2674-02
 	transect	Psolus squamatus	 	2687	 	 	 	1808767	 	2005-07-13 17:29:03.0	Ventana	 	00:55:55:22	 	V2687-01
 	transect	Psolus squamatus	 	2687	 	 	 	1810382	 	2005-07-13 19:16:50.0	Ventana	 	02:42:34:16	 	V2687-03
 	ascend	Nanomia	258.17	2681	 	36.697838	-122.05522	1719400	 	2005-07-07 21:29:59.0	Ventana	 	05:03:32:23	 	V2681-05
 	transect	Mesomyaria	999.79	2669	 	36.730526	-122.22894	1650936	0.45	2005-05-25 18:06:06.0	Ventana	34.522	00:28:34:16	3.906	V2669-01
 	ascend	Appendicularia	408.5	2683	 	36.70409	-122.0506	1758054	0.95	2005-07-11 21:20:01.0	Ventana	34.258	04:52:54:06	6.884	V2683-05
 	transect	Mysidae	901.08	2681	 	36.696835	-122.05298	2498283	0.39	2005-07-07 19:07:08.0	Ventana	34.506	02:36:50:19	4.16	V2681-03HD
 	ascend	Appendicularia	677.8	2683	 	36.705555	-122.04943	1757897	0.3	2005-07-11 21:07:24.0	Ventana	34.428	04:40:16:19	5.034	V2683-05
 	transect	Rathbunaster californicus	199.6	2696	 	36.803886	-122.12531	1813330	1.52	2005-08-01 17:35:53.0	Ventana	34.207	01:03:47:09	8.636	V2696-02
 	transect	Phyllospadix	800.5	2674	 	36.7525	-122.203094	1799289	0.34	2005-06-08 17:44:05.0	Ventana	34.479	00:28:38:20	4.411	V2674-01
 	transect	Mesomyaria	998.84	2669	 	36.730988	-122.23018	1651259	0.45	2005-05-25 18:15:52.0	Ventana	34.52	00:38:19:19	3.911	V2669-01
 	transect	Umbellula lindahli	598.55	2680	 	36.780792	-122.225784	1804816	0.35	2005-06-27 18:27:33.0	Ventana	34.38	01:06:39:08	5.57	V2680-02
 	cruise	Sebastolobus	489.36	2688	 	36.80168	-122.01848	1677558	0.77	2005-07-14 17:25:22.0	Ventana	34.291	01:11:07:06	6.632	V2688-02
 	ascend	Munnopsidae	1103.2	2683	 	36.707855	-122.04906	1757791	0.58	2005-07-11 20:43:12.0	Ventana	34.547	04:17:33:02	3.665	V2683-04
 	transect	Phyllospadix	203.98	2696	 	36.80614	-122.129715	1813736	1.5	2005-08-01 18:23:14.0	Ventana	34.208	01:51:05:03	8.65	V2696-02
 	transect	molt	100.51	2681	 	36.69983	-122.05429	2489635	2.13	2005-07-07 16:46:48.0	Ventana	34.068	00:17:57:06	9.144	V2681-01HD
 	ascend	Appendicularia	785.18	2681	 	36.698887	-122.05647	1717444	0.28	2005-07-07 20:03:59.133	Ventana	34.458	03:33:01:29	4.699	V2681-04
 	descend	Chuniphyes	766.98	2683	 	36.702454	-122.0489	1757131	0.29	2005-07-11 17:58:33.0	Ventana	34.453	01:42:38:18	4.741	V2683-02
 	transect	Psolus squamatus	399.89	2687	 	36.788155	-122.12188	1809376	1.16	2005-07-13 17:40:30.0	Ventana	34.239	01:06:52:17	7.323	V2687-02
 	transect	Mediaster	 	2687	 	 	 	1812707	 	2005-07-13 20:53:33.0	Ventana	 	04:18:03:07	 	V2687-05
 	transect	Rhopalonematidae	200.35	2681	 	36.698345	-122.05345	2491370	1.67	2005-07-07 17:13:48.0	Ventana	34.201	00:44:56:26	8.341	V2681-01HD
 	transect	Actiniaria sp. 1	999.65	2669	 	36.731403	-122.237045	1687445	0.44	2005-05-25 19:06:55.0	Ventana	34.52	01:28:54:08	3.943	V2669-02
 	descend	Bathocyroe	1184.81	2682	 	36.69856	-122.05835	1722265	0.67	2005-07-08 19:35:49.0	Ventana	34.57	03:28:24:14	3.392	V2682-04
 	transect	Appendicularia	500.6	2681	 	36.69801	-122.05376	2493243	0.44	2005-07-07 17:54:41.0	Ventana	34.347	01:25:04:00	6.021	V2681-02HD
 	ascend	Cydippida	258.17	2681	 	36.697838	-122.05522	1719317	 	2005-07-07 21:29:59.0	Ventana	 	05:00:36:04	 	V2681-05
 	descend	Aegina	599.04	2682	 	36.69864	-122.05981	1721236	0.38	2005-07-08 18:07:34.0	Ventana	34.388	02:00:39:23	5.486	V2682-03
 	cruise	Rathbunaster californicus	455.27	2676	 	36.802868	-122.0293	1676315	0.59	2005-06-14 16:36:16.0	Ventana	34.336	00:20:25:05	6.261	V2676-01
 	transect	Nanomia bijuga	200.37	2681	 	36.69829	-122.05333	2491047	1.69	2005-07-07 17:11:10.0	Ventana	34.196	00:42:17:18	8.332	V2681-01HD
 	transect	Mesomyaria	800.63	2674	 	36.75114	-122.21691	1803450	0.35	2005-06-08 18:52:37.0	Ventana	34.487	01:36:40:07	4.363	V2674-02
 	transect	Brisaster	599.37	2680	 	36.77927	-122.22435	1804493	0.36	2005-06-27 18:07:44.0	Ventana	34.377	00:47:50:01	5.601	V2680-01
 	transect	Poeobius meseres	700.63	2681	 	36.69621	-122.05212	2497757	0.28	2005-07-07 18:42:59.0	Ventana	34.435	02:12:43:01	4.951	V2681-03HD
 	transect	Lycenchelys camchatica	998.64	2669	 	36.731182	-122.234344	1684114	0.45	2005-05-25 18:44:10.0	Ventana	34.521	01:06:11:04	3.917	V2669-02
 	transect	Mesomyaria	998.57	2669	 	36.730522	-122.22847	1650890	0.45	2005-05-25 18:03:31.0	Ventana	34.523	00:25:59:03	3.906	V2669-01
 	descend	Appendicularia	946.9	2682	 	36.698246	-122.05931	1721988	0.38	2005-07-08 18:54:48.0	Ventana	34.502	02:47:50:26	4.198	V2682-03
 	descend	Appendicularia	516.14	2682	 	36.69859	-122.059784	1720853	0.4	2005-07-08 18:01:10.0	Ventana	34.355	01:54:39:16	5.883	V2682-02
 	descend	Appendicularia	502.68	2683	 	36.701546	-122.04938	1756808	0.68	2005-07-11 17:27:15.0	Ventana	34.304	01:11:22:12	6.468	V2683-02
 	transect	Phyllospadix	800.19	2674	 	36.752083	-122.20887	1800825	0.35	2005-06-08 18:13:48.0	Ventana	34.488	00:58:19:21	4.33	V2674-01
 	transect	Psolus squamatus	 	2687	 	 	 	1809007	 	2005-07-13 17:33:27.0	Ventana	 	01:00:19:24	 	V2687-01
 	transect	Poeobius meseres	500.56	2681	 	36.696888	-122.05248	2493566	0.44	2005-07-07 17:59:36.0	Ventana	34.346	01:30:00:13	6.023	V2681-02HD
 	cruise	Parastichopus	105.65	2676	 	36.805332	-122.04346	1677189	1.96	2005-06-14 19:25:44.0	Ventana	34.161	03:04:28:16	8.422	V2676-03
 	descend	Chaetognatha	199.12	2683	 	36.70105	-122.050964	1756379	1.69	2005-07-11 16:46:51.0	Ventana	34.192	00:34:33:01	8.407	V2683-01
 	descend	Euphausiacea	331.9	2693	 	36.697212	-122.06027	1758543	1.29	2005-07-25 19:53:49.0	Ventana	34.236	02:33:25:15	7.577	V2693-03
 	transect	Psolus squamatus	 	2687	 	 	 	1810036	 	2005-07-13 18:51:50.0	Ventana	 	02:17:36:15	 	V2687-03
 	descend	Aegina	1035.47	2683	 	36.704807	-122.04935	1757408	0.46	2005-07-11 19:24:11.0	Ventana	34.528	03:04:32:03	3.89	V2683-03
 	transect	Phyllospadix	999.72	2669	 	36.731304	-122.23592	1684437	0.44	2005-05-25 18:56:52.0	Ventana	34.521	01:18:52:16	3.933	V2669-02
 	ascend	Appendicularia	336.73	2693	 	36.692814	-122.06155	1758974	1.26	2005-07-25 21:12:58.0	Ventana	34.236	03:37:32:00	7.459	V2693-04
 	descend	Mertensiidae	261.18	2682	 	36.699795	-122.06083	1720009	1.37	2005-07-08 16:26:30.0	Ventana	34.23	00:20:34:16	7.821	V2682-01
 	transect	Stomphia	599.98	2680	 	36.778786	-122.22396	1804433	0.36	2005-06-27 18:03:28.0	Ventana	34.377	00:43:34:27	5.597	V2680-01
 	transect	Porifera sp. 1	 	2687	 	 	 	1811171	 	2005-07-13 19:59:11.0	Ventana	 	03:24:11:09	 	V2687-04
 	descend	Cydippida 2	465.14	2681	 	36.698097	-122.05389	1715340	0.51	2005-07-07 17:52:39.863	Ventana	34.326	01:23:02:22	6.135	V2681-02
 	transect	Mesomyaria	800.39	2674	 	36.752617	-122.20108	1774173	0.34	2005-06-08 17:34:04.0	Ventana	34.487	00:18:37:22	4.423	V2674-01
 	transect	Mesomyaria	802.02	2674	 	36.752354	-122.20561	1799810	0.36	2005-06-08 17:57:50.0	Ventana	34.487	00:42:22:04	4.345	V2674-01
 	cruise	rock outcrop	101.89	2676	http://search.mbari.org/ARCHIVE/frameGrabs/Ventana/images/2676/02_42_19_12.jpg	36.807827	-122.03858	1677129	1.99	2005-06-14 19:03:36.0	Ventana	34.147	02:42:19:12	8.495	V2676-03
 	transect	Mediaster	 	2687	 	 	 	1812384	 	2005-07-13 20:35:56.0	Ventana	 	04:00:53:26	 	V2687-04
 	cruise	rock outcrop	140.3	2676	http://search.mbari.org/ARCHIVE/frameGrabs/Ventana/images/2676/01_36_10_24.jpg	36.80869	-122.03087	1676866	1.72	2005-06-14 17:56:30.0	Ventana	34.173	01:36:10:24	8.319	V2676-02
 	transect	Stomphia	1000.37	2669	 	36.73155	-122.24271	1694524	0.4	2005-05-25 19:42:59.0	Ventana	34.507	02:04:56:00	4.093	V2669-02
 	transect	Mediaster	 	2687	 	 	 	1812324	 	2005-07-13 20:32:13.0	Ventana	 	03:57:10:22	 	V2687-04
 	descend	Euphausiacea	358.85	2682	 	36.6985	-122.060104	1720452	1.0	2005-07-08 17:32:58.0	Ventana	34.258	01:26:27:27	7.075	V2682-02
 	ascend	Euphotic zone	29.43	2686	 	0.0	0.0	1669990	2.85	2005-07-12 22:23:44.0	Ventana	33.932	01:30:51:19	9.469	V2686-01
 	ascend	ink	370.93	2693	 	36.69661	-122.060585	1758711	1.2	2005-07-25 20:30:26.0	Ventana	34.233	03:09:58:27	7.177	V2693-03
 	ascend	Calycophorae	623.91	2682	 	36.69887	-122.05979	1723400	0.38	2005-07-08 20:37:19.0	Ventana	34.387	04:29:27:00	5.463	V2682-05
 	descend	Nanomia	169.45	2693	 	36.696243	-122.05779	1758220	1.98	2005-07-25 17:58:32.0	Ventana	34.13	00:39:03:20	8.938	V2693-01
 	transect	Mesomyaria	801.59	2674	 	36.75223	-122.20754	1800073	0.38	2005-06-08 18:07:20.0	Ventana	34.49	00:51:51:18	4.327	V2674-01
 	descend	Bathocyroe	1104.55	2683	 	36.705116	-122.048904	1757468	0.58	2005-07-11 19:29:54.0	Ventana	34.543	03:10:15:19	3.671	V2683-03
 	transect	Lycenchelys camchatica	798.58	2674	 	36.751736	-122.21265	1801222	0.35	2005-06-08 18:30:19.0	Ventana	34.487	01:14:23:22	4.334	V2674-02
 	transect	Phyllospadix	199.52	2696	 	36.804066	-122.12572	1813367	1.52	2005-08-01 17:40:04.0	Ventana	34.21	01:07:58:00	8.665	V2696-02
 	transect	Mesomyaria	999.82	2669	 	36.731285	-122.238106	1688365	0.43	2005-05-25 19:15:35.0	Ventana	34.518	01:37:34:05	3.959	V2669-02
 	transect	Mesomyaria	800.41	2674	 	36.75175	-122.21183	1801148	0.35	2005-06-08 18:27:17.0	Ventana	34.49	01:11:21:26	4.339	V2674-02
 	transect	Psolus squamatus	 	2687	 	 	 	1808624	 	2005-07-13 17:25:37.0	Ventana	 	00:52:29:28	 	V2687-01
 	cruise	LRJ Complex	517.16	2688	 	36.800247	-122.01893	1677498	0.67	2005-07-14 17:11:16.0	Ventana	34.31	00:57:33:13	6.378	V2688-01
 	transect	Calliostoma platinum	 	2687	 	 	 	1810682	 	2005-07-13 19:27:46.0	Ventana	 	02:53:29:29	 	V2687-03
 	transect	Mesomyaria	1000.35	2669	 	36.731216	-122.24112	1689380	0.41	2005-05-25 19:34:23.0	Ventana	34.512	01:56:20:29	4.058	V2669-02
 	descend	Mysidae	1199.98	2682	 	36.6983	-122.05908	1722205	0.68	2005-07-08 19:17:05.0	Ventana	34.574	03:09:43:19	3.367	V2682-04
 	cruise	Phyllospadix	602.02	2680	 	36.7766	-122.22199	1804096	0.35	2005-06-27 17:35:30.0	Ventana	34.38	00:15:38:24	5.565	V2680-01
 	transect	Phyllospadix	998.1	2669	 	36.733013	-122.252785	1737494	0.4	2005-05-25 20:49:31.0	Ventana	34.508	03:10:19:07	4.075	V2669-04
 	transect	Stomphia	998.31	2669	 	36.732952	-122.252205	1737388	0.41	2005-05-25 20:46:31.0	Ventana	34.508	03:07:19:16	4.075	V2669-04
 	descend	Siphonophora	305.06	2693	 	36.697647	-122.06088	1758483	1.32	2005-07-25 19:39:38.0	Ventana	34.236	02:19:13:11	7.661	V2693-03
 	transect	Mediaster	 	2687	 	 	 	1810419	 	2005-07-13 19:17:36.0	Ventana	 	02:43:20:11	 	V2687-03
 	transect	Gastropoda	201.97	2696	 	36.805256	-122.12819	1813630	1.5	2005-08-01 18:07:51.0	Ventana	34.211	01:35:43:20	8.664	V2696-02
 	transect	Actiniaria sp. 1	997.92	2669	 	36.730556	-122.22826	1649354	0.45	2005-05-25 18:02:17.0	Ventana	34.523	00:24:45:06	3.907	V2669-01
 	transect	Ophiuroidea	998.92	2669	 	36.731117	-122.23475	1684174	0.45	2005-05-25 18:47:41.0	Ventana	34.522	01:09:41:28	3.916	V2669-02
 	descend	Appendicularia	739.1	2682	 	36.69845	-122.059654	1721605	0.29	2005-07-08 18:29:14.0	Ventana	34.447	02:22:19:13	4.846	V2682-03
 	descend	Copepoda	509.18	2683	 	36.701424	-122.04919	1756868	0.68	2005-07-11 17:40:03.0	Ventana	34.305	01:24:10:06	6.461	V2683-02
 	transect	Phyllospadix	801.19	2674	 	36.751957	-122.20927	1800885	0.36	2005-06-08 18:15:45.0	Ventana	34.49	01:00:16:22	4.318	V2674-01
 	transect	Salpida	400.8	2681	 	36.696255	-122.05172	2492980	0.79	2005-07-07 17:43:01.0	Ventana	34.277	01:13:25:11	6.654	V2681-02HD
 	ascend	Appendicularia	583.91	2682	 	36.698402	-122.06227	1723568	0.37	2005-07-08 21:05:13.0	Ventana	34.365	04:57:20:21	5.756	V2682-05
 	transect	Actiniaria sp. 3	 	2687	 	 	 	1811051	 	2005-07-13 19:49:33.0	Ventana	 	03:14:34:12	 	V2687-04
 	transect	molt	100.49	2681	 	36.69874	-122.05359	2489898	2.14	2005-07-07 16:52:40.0	Ventana	34.067	00:23:49:29	9.142	V2681-01HD
 	descend	Calycophorae	161.86	2683	 	36.700962	-122.05138	1756319	1.69	2005-07-11 16:38:31.0	Ventana	34.176	00:26:12:15	8.793	V2683-01
 	transect	apolemia	700.64	2681	 	36.6969	-122.052765	2497697	0.29	2005-07-07 18:40:12.0	Ventana	34.436	02:09:55:18	4.928	V2681-03HD
 	ascend	Appendicularia	261.39	2693	 	36.691383	-122.06231	1759094	1.45	2005-07-25 21:21:21.0	Ventana	34.246	03:45:52:22	8.37	V2693-04
 	transect	Phyllospadix	801.26	2674	 	36.75195	-122.20974	1800945	0.35	2005-06-08 18:18:42.0	Ventana	34.489	01:02:46:25	4.328	V2674-02
 	transect	Poeobius meseres	800.87	2681	 	36.69633	-122.05234	2498246	0.31	2005-07-07 18:59:58.0	Ventana	34.475	02:29:39:27	4.5	V2681-03HD
 	transect	Mesomyaria	998.37	2669	 	36.73293	-122.252075	1737328	0.4	2005-05-25 20:45:50.0	Ventana	34.509	03:06:38:22	4.083	V2669-04
 	transect	Porifera sp. 1	 	2687	 	 	 	1810299	 	2005-07-13 19:14:58.0	Ventana	 	02:40:42:26	 	V2687-03
 	stationary	Merluccius productus	504.13	2695	 	36.78439	-122.200424	1824469	0.71	2005-07-28 18:19:10.0	Ventana	34.293	01:07:28:07	6.312	V2695-02
 	transect	Caridea sp.1	 	2669	 	 	 	1737554	 	2005-05-25 13:51:18.0	Ventana	 	03:12:06:07	 	V2669-04
 	transect	Mesomyaria	800.55	2674	 	36.7521	-122.20851	1800765	0.35	2005-06-08 18:11:56.0	Ventana	34.491	00:56:27:18	4.326	V2674-01
 	transect	Psolus squamatus	399.85	2687	 	36.788044	-122.12152	1809067	1.14	2005-07-13 17:35:42.0	Ventana	34.237	01:02:04:08	7.276	V2687-02
 	transect	Mesomyaria	999.96	2669	 	36.7311	-122.23919	1689117	0.43	2005-05-25 19:22:23.0	Ventana	34.517	01:44:21:22	3.976	V2669-02
 	descend	Appendicularia	333.98	2683	 	36.701225	-122.05003	1756545	1.22	2005-07-11 16:55:36.0	Ventana	34.229	00:43:16:05	7.406	V2683-01
 	transect	Psolus squamatus	 	2687	 	 	 	1810848	 	2005-07-13 19:37:35.0	Ventana	 	03:03:18:14	 	V2687-03
 	descend	Bathocyroe	468.03	2682	 	36.69851	-122.059616	1720793	0.52	2005-07-08 17:56:05.0	Ventana	34.328	01:49:33:20	6.209	V2682-02
 	transect	Solmaris	600.58	2681	 	36.69639	-122.05201	2493732	0.3	2005-07-07 18:21:51.0	Ventana	34.388	01:52:11:29	5.482	V2681-02HD
 	transect	Gastropoda sp.2	999.04	2669	 	36.731052	-122.23114	1695073	0.45	2005-05-25 18:23:39.0	Ventana	34.521	00:46:05:27	3.915	V2669-01
 	transect	Mesomyaria	1000.16	2669	 	36.731632	-122.243385	1733824	0.41	2005-05-25 19:46:53.0	Ventana	34.511	02:08:24:07	4.068	V2669-03
 	transect	Mesomyaria	1000.07	2669	 	36.7319	-122.24552	1735390	0.41	2005-05-25 20:00:30.0	Ventana	34.509	02:21:59:24	4.064	V2669-03
 	transect	molt	100.51	2681	 	36.699825	-122.05429	2489695	2.13	2005-07-07 16:48:07.0	Ventana	34.067	00:19:16:22	9.15	V2681-01HD
 	transect	Phyllospadix	198.0	2696	 	36.8036	-122.1243	1813247	1.53	2005-08-01 17:26:01.0	Ventana	34.204	00:54:18:16	8.609	V2696-01
 	transect	myctophidae	300.45	2681	 	36.6984	-122.053566	2491951	1.25	2005-07-07 17:20:02.0	Ventana	34.234	00:51:10:25	7.43	V2681-01HD
 	ascend	sinker	373.93	2681	 	36.699356	-122.05481	1718025	0.97	2005-07-07 20:50:23.0	Ventana	34.266	04:18:43:16	7.051	V2681-05
 	transect	Salpida	200.34	2681	 	36.69828	-122.05329	2490032	1.69	2005-07-07 17:04:18.0	Ventana	34.194	00:35:25:16	8.359	V2681-01HD
 	descend	Appendicularia	293.95	2681	 	36.69857	-122.05371	1713624	1.29	2005-07-07 17:17:35.567	Ventana	34.224	00:48:42:21	7.532	V2681-01
 	transect	Pennatulacea sp.1	602.61	2680	 	36.787914	-122.232056	1805939	0.36	2005-06-27 19:54:44.0	Ventana	34.378	02:33:22:08	5.589	V2680-03
 	transect	Ceriantharia sp. 2	999.43	2669	 	36.732693	-122.25123	1737185	0.41	2005-05-25 20:40:21.0	Ventana	34.509	03:01:08:19	4.072	V2669-04
 	transect	Chaetognatha	300.43	2681	 	36.696568	-122.052155	2492523	1.23	2005-07-07 17:26:24.0	Ventana	34.233	00:57:31:17	7.399	V2681-01HD
 	transect	Chionoecetes tanneri	1000.28	2669	 	36.731457	-122.2421	1694464	0.4	2005-05-25 19:40:06.0	Ventana	34.509	02:02:03:24	4.076	V2669-02
 	transect	Ophiuroidea	999.96	2669	 	36.73097	-122.23258	1683777	0.45	2005-05-25 18:34:07.0	Ventana	34.522	00:56:33:03	3.91	V2669-01
 	descend	Melanostigma pammelas	680.64	2683	 	36.702034	-122.04894	1757071	0.31	2005-07-11 17:53:13.0	Ventana	34.42	01:37:19:16	5.115	V2683-02
 	transect	Sebastolobus altivelis	800.76	2674	 	36.75176	-122.21118	1801088	0.35	2005-06-08 18:24:45.0	Ventana	34.489	01:08:49:23	4.342	V2674-02
 	transect	Mediaster	 	2687	 	 	 	1810622	 	2005-07-13 19:25:23.0	Ventana	 	02:51:06:09	 	V2687-03
 	cruise	Stylasterias	89.81	2688	 	36.816666	-122.01593	1679353	2.0	2005-07-14 20:11:43.0	Ventana	34.085	03:56:27:28	8.91	V2688-04
 	descend	Dosidicus gigas	602.18	2681	 	36.69565	-122.051125	1715649	0.3	2005-07-07 18:09:01.507	Ventana	34.39	01:39:23:12	5.473	V2681-02
 	transect	Umbellula lindahli	599.88	2680	 	36.77822	-122.22343	1804373	0.36	2005-06-27 17:55:48.0	Ventana	34.378	00:35:54:18	5.592	V2680-01
 	transect	Porifera	 	2687	 	 	 	1810479	 	2005-07-13 19:19:40.0	Ventana	 	02:45:24:11	 	V2687-03
 	transect	Lycenchelys camchatica	799.14	2674	 	36.751335	-122.21538	1801425	0.35	2005-06-08 18:45:32.0	Ventana	34.489	01:29:35:19	4.339	V2674-02
 	transect	Psolus squamatus	 	2687	 	 	 	1807674	 	2005-07-13 17:22:10.0	Ventana	 	00:49:02:27	 	V2687-01
 	transect	molt	100.57	2681	 	36.69983	-122.05429	2489575	2.13	2005-07-07 16:45:18.0	Ventana	34.068	00:16:26:17	9.15	V2681-01HD
 	transect	Phyllospadix	799.88	2674	 	36.75132	-122.21545	1803344	0.35	2005-06-08 18:45:53.0	Ventana	34.484	01:29:56:21	4.368	V2674-02
 	transect	Rathbunaster californicus	199.69	2696	 	36.804333	-122.126236	1813427	1.52	2005-08-01 17:45:28.0	Ventana	34.209	01:13:21:17	8.663	V2696-02
 	transect	Gastropoda	196.33	2696	 	36.802715	-122.121796	1813044	1.55	2005-08-01 17:00:08.0	Ventana	34.198	00:28:27:02	8.608	V2696-01
 	transect	Ceriantharia sp. 1	798.32	2674	 	36.751663	-122.21349	1801282	0.35	2005-06-08 18:34:59.0	Ventana	34.487	01:19:03:21	4.353	V2674-02
 	transect	molt	200.39	2681	 	36.698284	-122.053314	2490987	1.71	2005-07-07 17:10:29.0	Ventana	34.187	00:41:36:29	8.319	V2681-01HD
 	cruise	Glyptocephalus zachirus	438.16	2676	http://search.mbari.org/ARCHIVE/frameGrabs/Ventana/images/2676/00_24_09_10.jpg	36.80326	-122.02925	1676375	0.64	2005-06-14 16:40:02.0	Ventana	34.316	00:24:09:10	6.387	V2676-01
 	transect	Neptunea amianta	800.99	2674	 	36.751083	-122.21756	1803510	0.35	2005-06-08 18:56:11.0	Ventana	34.491	01:40:14:01	4.345	V2674-02
 	ascend	Appendicularia	285.74	2681	 	36.699745	-122.05518	1718228	1.36	2005-07-07 21:00:41.4	Ventana	34.232	04:29:01:09	7.731	V2681-05
 	transect	Appendicularia	901.03	2681	 	36.695854	-122.051796	2498389	0.39	2005-07-07 19:11:46.0	Ventana	34.505	02:41:26:04	4.174	V2681-03HD
 	transect	Nanomia bijuga	200.46	2681	 	36.69828	-122.05329	2490235	1.7	2005-07-07 17:06:04.0	Ventana	34.198	00:37:11:23	8.363	V2681-01HD
 	ascend	Appendicularia	596.59	2681	 	36.698936	-122.05425	1717702	0.32	2005-07-07 20:30:04.633	Ventana	34.38	03:59:05:10	5.58	V2681-04
 	transect	Rathbunaster californicus	 	2687	 	 	 	1807014	 	2005-07-13 16:54:34.0	Ventana	 	00:21:29:05	 	V2687-01
 	ascend	Copepoda	664.86	2681	 	36.698765	-122.05417	1717647	0.29	2005-07-07 20:25:55.8	Ventana	34.408	03:54:56:23	5.223	V2681-04
 	descend	Appendicularia	833.47	2682	 	36.698345	-122.05956	1721725	0.33	2005-07-08 18:44:25.0	Ventana	34.481	02:37:27:08	4.449	V2682-03
 	descend	Chaetognatha	466.97	2683	 	36.701595	-122.049355	1756748	0.77	2005-07-11 17:12:53.0	Ventana	34.287	01:00:31:20	6.651	V2683-01
 	transect	Psolus squamatus	 	2687	 	 	 	1808684	 	2005-07-13 17:27:06.0	Ventana	 	00:53:59:03	 	V2687-01
 	transect	Mesomyaria	998.84	2669	 	36.730953	-122.229996	1651199	0.45	2005-05-25 18:14:05.0	Ventana	34.521	00:36:32:09	3.909	V2669-01
 	transect	Rathbunaster californicus	203.28	2696	 	36.806675	-122.13026	1813796	1.48	2005-08-01 18:31:39.0	Ventana	34.214	01:59:29:16	8.642	V2696-02
 	transect	Phyllospadix	803.98	2674	 	36.750732	-122.22073	1803713	0.34	2005-06-08 19:09:53.0	Ventana	34.485	01:53:55:06	4.402	V2674-02
 	transect	Ceriantharia sp. 1	602.13	2680	 	36.79083	-122.23284	1806811	0.36	2005-06-27 20:23:13.0	Ventana	34.379	03:01:49:06	5.587	V2680-03
 	transect	Mediaster	 	2687	http://search.mbari.org/ARCHIVE/frameGrabs/Ventana/images/2687/03_43_01_27.jpg	 	 	1811632	 	2005-07-13 20:18:03.0	Ventana	 	03:43:01:27	 	V2687-04
 	ascend	Copepoda	265.95	2681	 	36.698906	-122.056656	1718777	1.41	2005-07-07 21:18:30.133	Ventana	34.231	04:46:49:13	7.918	V2681-05
 	transect	Brisaster	1000.92	2669	 	36.73229	-122.24925	1736285	0.4	2005-05-25 20:27:33.0	Ventana	34.508	02:49:00:28	4.077	V2669-03
 	transect	Phyllospadix	801.89	2674	 	36.752247	-122.20705	1800013	0.36	2005-06-08 18:04:50.0	Ventana	34.489	00:49:21:19	4.344	V2674-01
 	descend	Appendicularia	1077.03	2682	 	36.698315	-122.059166	1722062	0.51	2005-07-08 19:05:27.0	Ventana	34.541	02:58:28:15	3.754	V2682-03
 	ascend	Chaetognatha	377.71	2693	 	36.69599	-122.06059	1758771	1.19	2005-07-25 20:50:01.0	Ventana	34.231	03:14:35:24	7.143	V2693-04
 	transect	Phyllospadix	801.02	2674	 	36.752514	-122.20266	1799229	0.35	2005-06-08 17:41:58.0	Ventana	34.487	00:26:31:29	4.377	V2674-01
 	transect	Appendicularia	400.75	2681	 	36.697617	-122.05332	2493183	0.79	2005-07-07 17:48:53.0	Ventana	34.278	01:19:15:26	6.659	V2681-02HD
 	cruise	Porifera	611.23	2688	 	36.79578	-122.01967	1677355	0.45	2005-07-14 16:36:53.0	Ventana	34.387	00:23:13:05	5.502	V2688-01
 	transect	Phyllospadix	 	2687	 	 	 	1807148	 	2005-07-13 17:01:25.0	Ventana	 	00:28:19:07	 	V2687-01
 	transect	Actiniaria sp. 3	 	2687	 	 	 	1810096	 	2005-07-13 18:56:23.0	Ventana	 	02:22:08:14	 	V2687-03
 	transect	Mediaster	 	2687	 	 	 	1811374	 	2005-07-13 20:09:57.0	Ventana	 	03:34:56:25	 	V2687-04
 	ascend	Aegina	692.7	2682	 	36.69889	-122.05942	1723340	0.29	2005-07-08 20:32:40.0	Ventana	34.412	04:24:47:21	5.117	V2682-05
 	ascend	Lobata	 	2683	 	 	 	1758160	 	2005-07-11 14:36:28.0	Ventana	 	05:09:19:18	 	V2683-05
 	transect	Allocentrotus fragilis	399.86	2687	 	36.78811	-122.12162	1809210	1.13	2005-07-13 17:37:17.0	Ventana	34.243	01:03:39:13	7.262	V2687-02
 	descend	Appendicularia	217.54	2693	 	36.696125	-122.0582	1758340	1.69	2005-07-25 18:27:45.0	Ventana	34.196	01:07:48:29	8.607	V2693-02
 	transect	Phyllospadix	1000.22	2669	 	36.731377	-122.24168	1689837	0.4	2005-05-25 19:37:48.0	Ventana	34.508	01:59:45:14	4.08	V2669-02
 	transect	bathocyroe	1001.05	2681	 	36.69505	-122.05096	2498569	0.47	2005-07-07 19:22:47.0	Ventana	34.531	02:52:26:26	3.866	V2681-03HD
 	cruise	Parastichopus	191.64	2676	 	36.806732	-122.029465	1676806	1.6	2005-06-14 17:44:09.0	Ventana	34.199	01:23:54:02	8.106	V2676-02
 	ascend	Chaetognatha	188.0	2682	 	36.696465	-122.06068	1723771	1.92	2005-07-08 21:31:47.0	Ventana	34.155	05:23:26:20	8.335	V2682-06
 	cruise	mud	93.87	2688	http://search.mbari.org/ARCHIVE/frameGrabs/Ventana/images/2688/04_02_27_02.jpg	36.816105	-122.0166	20005273	1.96	2005-07-14 20:17:42.0	Ventana	34.094	04:02:27:02	8.934	V2688-04
 	transect	Mesomyaria	799.75	2674	 	36.75254	-122.203896	1799409	0.35	2005-06-08 17:48:23.0	Ventana	34.487	00:32:56:01	4.388	V2674-01
 	ascend	Lobata	368.12	2693	 	36.695023	-122.060936	1758831	1.24	2005-07-25 20:58:34.0	Ventana	34.235	03:23:08:06	7.336	V2693-04
 	transect	Phyllospadix	802.72	2674	 	36.752243	-122.206375	1799930	0.36	2005-06-08 18:01:39.0	Ventana	34.489	00:46:11:13	4.339	V2674-01
 	transect	Lycenchelys camchatica	801.68	2674	 	36.75091	-122.219604	1803630	0.35	2005-06-08 19:04:49.0	Ventana	34.49	01:48:51:06	4.362	V2674-02
 	transect	Porifera sp. 1	 	2687	 	 	 	1807614	 	2005-07-13 17:17:53.0	Ventana	 	00:44:46:05	 	V2687-01
 	transect	Mediaster	 	2687	 	 	 	1811314	 	2005-07-13 20:06:47.0	Ventana	 	03:31:46:25	 	V2687-04
 	transect	Rathbunaster californicus	196.65	2696	 	36.803318	-122.12333	1813164	1.55	2005-08-01 17:14:38.0	Ventana	34.197	00:42:56:08	8.625	V2696-01
 	transect	Phyllospadix	999.81	2669	 	36.731094	-122.235374	1684317	0.45	2005-05-25 18:53:07.0	Ventana	34.522	01:15:06:27	3.922	V2669-02
 	descend	Appendicularia	45.89	2682	 	36.700096	-122.059616	1719866	3.28	2005-07-08 16:06:11.0	Ventana	33.842	00:00:17:18	9.801	V2682-01
 	descend	Copepoda	901.81	2683	 	36.7033	-122.04833	1757265	0.37	2005-07-11 18:32:31.0	Ventana	34.494	02:12:54:27	4.239	V2683-03
 	descend	Appendicularia	381.58	2683	 	36.70145	-122.0498	1756605	1.05	2005-07-11 16:58:17.0	Ventana	34.244	00:45:56:16	6.991	V2683-01
 	transect	Ceriantharia sp. 1	599.8	2680	 	36.777523	-122.222565	1804290	0.36	2005-06-27 17:47:20.0	Ventana	34.378	00:27:27:15	5.589	V2680-01
 	transect	Phyllospadix	399.69	2687	 	36.789173	-122.12431	1809556	1.18	2005-07-13 18:17:08.0	Ventana	34.239	01:43:27:29	7.362	V2687-02
 	transect	Mesomyaria	1000.2	2669	 	36.732018	-122.24722	1735856	0.41	2005-05-25 20:13:35.0	Ventana	34.509	02:35:03:07	4.065	V2669-03
 	transect	Chaetognatha	200.42	2681	 	36.69828	-122.0533	2490844	1.71	2005-07-07 17:09:11.0	Ventana	34.195	00:40:18:12	8.326	V2681-01HD
 	endtransect	physical object	 	2687	 	 	 	1812504	 	2005-07-13 20:42:36.0	Ventana	 	04:07:05:16	 	V2687-04
 	descend	Calycophorae	228.55	2693	 	36.69865	-122.06165	1758363	1.5	2005-07-25 19:19:56.0	Ventana	34.241	01:59:58:08	8.591	V2693-02
 	transect	Parmaturus xaniurus	 	2687	 	 	 	1810216	 	2005-07-13 19:09:40.0	Ventana	 	02:35:25:13	 	V2687-03
 	transect	Dosidicus gigas	600.56	2681	 	36.69687	-122.05259	2493792	0.3	2005-07-07 18:24:02.0	Ventana	34.388	01:54:22:10	5.477	V2681-02HD
 	ascend	Mysidae	449.98	2683	 	36.704247	-122.050575	1758017	0.76	2005-07-11 21:18:15.0	Ventana	34.287	04:51:06:25	6.648	V2683-05
 	transect	Mesomyaria	999.63	2669	 	36.73095	-122.23161	1683657	0.45	2005-05-25 18:28:06.0	Ventana	34.522	00:50:32:24	3.916	V2669-01
 	ascend	Poeobius meseres	1171.37	2682	 	36.69827	-122.057495	1722468	0.65	2005-07-08 19:53:30.0	Ventana	34.564	03:46:05:29	3.449	V2682-04
 	transect	Brisaster	598.39	2680	 	36.781685	-122.22681	1805042	0.36	2005-06-27 18:39:44.0	Ventana	34.379	01:18:49:27	5.595	V2680-02
 	cruise	Liponema brevicornis	501.86	2694	 	36.78449	-122.20046	1676172	0.75	2005-07-27 17:14:10.0	Ventana	34.288	00:07:18:05	6.475	V2694-01
 	transect	molt	100.5	2681	 	36.699146	-122.053856	2489838	2.13	2005-07-07 16:51:36.0	Ventana	34.068	00:22:44:27	9.141	V2681-01HD
 	descend	Appendicularia	401.43	2682	 	36.698284	-122.05987	1720710	0.82	2005-07-08 17:37:53.0	Ventana	34.256	01:31:24:19	6.598	V2682-02
 	transect	Mesomyaria	999.86	2669	http://search.mbari.org/ARCHIVE/frameGrabs/Ventana/images/2669/01_36_59_23.jpg	36.731308	-122.23802	1688340	0.43	2005-05-25 19:15:01.0	Ventana	34.519	01:36:59:23	3.954	V2669-02
 	cruise	Lycodapus	1222.52	2683	 	36.706173	-122.04771	1757588	0.73	2005-07-11 20:01:02.0	Ventana	34.577	03:35:25:12	3.334	V2683-04
 	descend	Calycophorae	147.08	2683	 	36.700687	-122.05161	1756259	1.71	2005-07-11 16:23:30.0	Ventana	34.165	00:11:12:22	8.883	V2683-01
 	transect	Calycophorae	500.55	2681	 	36.697376	-122.05308	2493446	0.44	2005-07-07 17:57:28.0	Ventana	34.346	01:27:50:23	6.02	V2681-02HD
 	cruise	Pleuronectiformes	612.28	2688	 	36.79526	-122.01905	1677332	0.45	2005-07-14 16:33:27.0	Ventana	34.39	00:19:46:27	5.505	V2688-01
 	cruise	Stylasterias	96.5	2688	 	36.81402	-122.01845	1679496	1.93	2005-07-14 21:18:24.0	Ventana	34.103	05:02:36:17	8.901	V2688-05
 	transect	Mesomyaria	999.76	2669	 	36.73099	-122.23385	1683971	0.45	2005-05-25 18:40:44.0	Ventana	34.522	01:02:45:09	3.913	V2669-02
 	descend	Hastigerinella digitata	347.91	2682	 	36.69875	-122.060524	1720189	1.03	2005-07-08 17:12:58.0	Ventana	34.252	01:06:30:25	7.119	V2682-02
 	transect	Phyllospadix	598.93	2680	 	36.78035	-122.22532	1804636	0.35	2005-06-27 18:21:25.0	Ventana	34.38	01:01:30:19	5.565	V2680-01
 	transect	molt	200.48	2681	 	36.69828	-122.05329	2490498	1.71	2005-07-07 17:07:10.0	Ventana	34.197	00:38:18:13	8.341	V2681-01HD
 	cruise	Chionoecetes tanneri	1001.28	2679	 	36.68986	-122.1656	1824349	0.42	2005-06-16 17:30:58.0	Ventana	34.513	00:02:21:00	4.11	V2679-01
 	ascend	Sergestes similis	478.23	2681	 	36.698967	-122.05422	1717762	0.55	2005-07-07 20:35:37.367	Ventana	34.32	04:04:37:22	6.24	V2681-04
 	descend	Dosidicus gigas	667.23	2682	 	36.69865	-122.05995	1721402	0.28	2005-07-08 18:11:35.0	Ventana	34.412	02:04:41:01	5.191	V2682-03
 	transect	Phyllospadix	801.33	2674	 	36.752174	-122.20795	1800682	0.35	2005-06-08 18:09:23.0	Ventana	34.49	00:53:55:07	4.329	V2674-01
 	ascend	Hastigerinella digitata	371.02	2693	 	36.69647	-122.06066	1758686	1.2	2005-07-25 20:28:19.0	Ventana	34.232	03:07:53:01	7.167	V2693-03
 	transect	Mesomyaria	999.96	2669	http://search.mbari.org/ARCHIVE/frameGrabs/Ventana/images/2669/02_13_40_22.jpg	36.73176	-122.24438	1734290	0.4	2005-05-25 19:52:09.0	Ventana	34.507	02:13:40:22	4.082	V2669-03
 	transect	Phyllospadix	1000.64	2669	 	36.732285	-122.248985	1736262	0.41	2005-05-25 20:26:03.0	Ventana	34.51	02:47:34:00	4.067	V2669-03
 	transect	Psolus squamatus	399.84	2687	 	36.788048	-122.121544	1809150	1.13	2005-07-13 17:36:10.0	Ventana	34.242	01:02:32:10	7.271	V2687-02
 	cruise	Allocentrotus fragilis	432.63	2688	 	36.805042	-122.0188	1677678	0.92	2005-07-14 17:44:03.0	Ventana	34.266	01:29:46:28	6.946	V2688-02
 	descend	Dosidicus gigas	381.56	2681	 	36.695557	-122.0512	1715077	0.93	2005-07-07 17:32:42.4	Ventana	34.261	01:03:06:16	6.893	V2681-02
 	ascend	Appendicularia	986.95	2681	 	36.69683	-122.05321	1716572	0.45	2005-07-07 19:34:16.66	Ventana	34.525	03:03:57:03	3.947	V2681-03
 	transect	Mesomyaria	1000.18	2669	 	36.731693	-122.24374	1733884	0.41	2005-05-25 19:48:27.0	Ventana	34.507	02:09:57:23	4.068	V2669-03
 	transect	Ophiuroidea	999.56	2669	 	36.731426	-122.23631	1684723	0.44	2005-05-25 18:59:58.0	Ventana	34.52	01:21:57:21	3.94	V2669-02
 	cruise	Lycodapus	1207.31	2683	 	36.707035	-122.04763	1757671	0.72	2005-07-11 20:15:28.0	Ventana	34.573	03:49:50:19	3.354	V2683-04
 	transect	Corallimorphus pilatus	 	2687	 	 	 	1811835	 	2005-07-13 20:26:45.0	Ventana	 	03:51:43:07	 	V2687-04
 	transect	molt	100.5	2681	 	36.699696	-122.05421	2489778	2.13	2005-07-07 16:50:21.0	Ventana	34.067	00:21:29:22	9.159	V2681-01HD
 	transect	Mesomyaria	1000.09	2669	 	36.73104	-122.239624	1689177	0.41	2005-05-25 19:25:05.55	Ventana	34.509	01:47:04:17	4.064	V2669-02
 	ascend	Aegina	708.55	2681	 	36.69871	-122.055016	1717587	0.29	2005-07-07 20:19:56.467	Ventana	34.428	03:48:57:24	5.048	V2681-04
 	ascend	Appendicularia	638.63	2683	 	36.705067	-122.05013	1757934	0.31	2005-07-11 21:09:58.0	Ventana	34.408	04:42:50:23	5.322	V2683-05
 	stationary	Merluccius productus	502.38	2694	 	36.784527	-122.20048	1676663	0.72	2005-07-27 20:28:14.0	Ventana	34.292	03:00:22:07	6.424	V2694-03
 	transect	molt	100.56	2681	 	36.69983	-122.05429	2489492	2.13	2005-07-07 16:42:59.0	Ventana	34.068	00:14:08:05	9.152	V2681-01HD
 	transect	Salpida	300.42	2681	 	36.696896	-122.05244	2492440	1.23	2005-07-07 17:25:16.0	Ventana	34.234	00:56:23:10	7.393	V2681-01HD
 	descend	Dosidicus gigas	603.25	2681	 	36.695667	-122.051056	1715912	0.3	2005-07-07 18:17:42.033	Ventana	34.385	01:48:02:27	5.486	V2681-02
 	transect	Phyllospadix	998.95	2669	 	36.732758	-122.25139	1737208	0.41	2005-05-25 20:41:29.0	Ventana	34.51	03:02:18:14	4.076	V2669-04
 	transect	Ceriantharia sp. 2	 	2669	 	 	 	1737674	 	2005-05-25 13:56:21.0	Ventana	 	03:17:08:24	 	V2669-04
 	ascend	Sergestes similis	254.38	2681	 	36.69844	-122.05609	1719174	1.46	2005-07-07 21:24:23.767	Ventana	34.226	04:52:42:06	7.991	V2681-05
 	cruise	Rathbunaster californicus	100.88	2676	 	36.810074	-122.03297	1676926	1.86	2005-06-14 18:10:19.0	Ventana	34.149	01:50:01:17	8.479	V2676-02
 	descend	Appendicularia	546.37	2683	 	36.70165	-122.04916	1756951	0.49	2005-07-11 17:44:07.0	Ventana	34.328	01:28:13:29	6.129	V2683-02
 	transect	Psolus squamatus	 	2687	 	 	 	1808887	 	2005-07-13 17:31:19.0	Ventana	 	00:58:11:17	 	V2687-01
 	ascend	Chaetognatha	258.17	2681	 	36.697838	-122.05522	1719520	 	2005-07-07 21:29:59.0	Ventana	 	05:10:08:17	 	V2681-05
 	transect	Stomphia	1000.09	2669	 	36.732536	-122.25019	1736922	0.41	2005-05-25 20:34:24.0	Ventana	34.51	02:55:53:16	4.067	V2669-03
 	transect	Sebastolobus	 	2687	 	 	 	1807208	 	2005-07-13 17:03:33.0	Ventana	 	00:30:27:13	 	V2687-01
 	transect	Gastropoda sp.2	1000.2	2669	 	36.731075	-122.238716	1694727	0.43	2005-05-25 19:19:29.0	Ventana	34.514	01:41:27:03	3.969	V2669-02
 	transect	Mediaster	 	2687	 	 	 	1810156	 	2005-07-13 19:01:38.0	Ventana	 	02:27:23:17	 	V2687-03
 	transect	Lycenchelys camchatica	801.04	2674	 	36.75099	-122.218346	1803570	0.35	2005-06-08 18:59:40.0	Ventana	34.491	01:43:43:03	4.343	V2674-02
 	descend	Nanomia	400.25	2681	 	36.695564	-122.05115	1715160	0.8	2005-07-07 17:34:44.233	Ventana	34.278	01:05:07:22	6.678	V2681-02
 	ascend	Chaetognatha	357.47	2693	 	36.693993	-122.06103	1758891	1.24	2005-07-25 21:03:22.0	Ventana	34.237	03:27:54:14	7.355	V2693-04
 	transect	Phyllospadix	802.33	2674	 	36.75231	-122.205925	1799870	0.36	2005-06-08 17:59:45.0	Ventana	34.49	00:44:17:29	4.332	V2674-01
 	transect	Poeobius meseres	400.74	2681	 	36.69672	-122.052284	2493040	0.79	2005-07-07 17:45:06.0	Ventana	34.278	01:15:30:01	6.655	V2681-02HD
 	ascend	Appendicularia	595.8	2682	 	36.698757	-122.060905	1723483	0.37	2005-07-08 20:49:23.0	Ventana	34.372	04:41:29:21	5.653	V2682-05
 	transect	Allocentrotus fragilis	 	2687	 	 	 	1811254	 	2005-07-13 20:05:30.0	Ventana	 	03:30:29:27	 	V2687-04
 	transect	Mediaster	 	2687	 	 	 	1811752	 	2005-07-13 20:24:31.0	Ventana	 	03:49:29:25	 	V2687-04
 	transect	Lycenchelys camchatica	801.17	2674	 	36.752552	-122.201675	1799086	0.34	2005-06-08 17:36:48.0	Ventana	34.483	00:21:22:03	4.416	V2674-01
 	transect	Eptatretus stoutii	997.55	2669	 	36.73059	-122.227005	1649091	0.45	2005-05-25 17:54:19.0	Ventana	34.521	00:16:48:07	3.909	V2669-01
 	descend	Chuniphyes	729.16	2681	 	36.69493	-122.050575	1716226	0.3	2005-07-07 18:49:43.0	Ventana	34.445	02:19:26:21	4.819	V2681-03
 	ascend	sinker	542.03	2682	 	36.698326	-122.06278	1723628	0.41	2005-07-08 21:09:53.0	Ventana	34.355	05:01:34:22	5.965	V2682-06
 	ascend	Poeobius meseres	893.25	2682	 	36.69836	-122.05842	1723220	0.34	2005-07-08 20:16:33.0	Ventana	34.496	04:08:43:11	4.287	V2682-05
 	transect	Poeobius meseres	1000.94	2681	 	36.69652	-122.0529	2498712	0.47	2005-07-07 19:30:25.0	Ventana	34.53	03:00:05:27	3.889	V2681-03HD
 	ascend	Appendicularia	885.11	2681	 	36.698185	-122.05514	1717324	0.36	2005-07-07 19:50:50.233	Ventana	34.503	03:19:52:26	4.228	V2681-04
 	descend	Nanomia	185.34	2681	 	36.69828	-122.05329	1713541	1.92	2005-07-07 17:03:16.233	Ventana	34.142	00:34:25:08	8.464	V2681-01
 	transect	Mediaster	 	2687	 	 	 	1812587	 	2005-07-13 20:46:16.0	Ventana	 	04:10:46:21	 	V2687-05
 	ascend	Copepoda	336.68	2681	 	36.69941	-122.05527	1718108	1.14	2005-07-07 20:54:04.733	Ventana	34.245	04:22:25:02	7.285	V2681-05
 	transect	sinker	500.57	2681	 	36.697147	-122.05279	2493506	0.44	2005-07-07 17:58:36.0	Ventana	34.345	01:28:58:18	6.029	V2681-02HD
 	transect	Ceriantharia sp. 1	600.79	2680	 	36.78605	-122.23087	1805856	0.36	2005-06-27 19:34:14.0	Ventana	34.377	02:12:53:12	5.599	V2680-03
 	cruise	Sebastolobus	1000.38	2669	http://search.mbari.org/ARCHIVE/frameGrabs/Ventana/images/2669/02_37_36_24.jpg	36.73206	-122.24754	20003797	0.4	2005-05-25 20:16:06.0	Ventana	34.508	02:37:36:24	4.079	V2669-03
 	descend	Copepoda	444.67	2682	 	36.698383	-122.05956	1720770	0.57	2005-07-08 17:50:55.0	Ventana	34.315	01:44:26:01	6.328	V2682-02
 	ascend	Nanomia	201.97	2693	 	36.690876	-122.06268	1759177	1.76	2005-07-25 21:25:34.0	Ventana	34.225	03:50:05:15	8.907	V2693-04
 	transect	Porifera sp. 1	399.53	2687	 	36.789402	-122.124916	1809639	1.16	2005-07-13 18:27:36.0	Ventana	34.24	01:53:53:23	7.326	V2687-02
 	transect	Mediaster	 	2687	 	 	 	1810968	 	2005-07-13 19:45:14.0	Ventana	 	03:10:15:12	 	V2687-04
 	descend	Chuniphyes	872.63	2681	 	36.696953	-122.05318	1716489	0.35	2005-07-07 19:05:11.863	Ventana	34.498	02:34:54:03	4.247	V2681-03
 	transect	Allocentrotus fragilis	 	2687	 	 	 	1808804	 	2005-07-13 17:29:46.0	Ventana	 	00:56:38:10	 	V2687-01
 	cruise	LRJ Complex	471.87	2676	 	36.802303	-122.02931	1676255	0.56	2005-06-14 16:30:49.0	Ventana	34.335	00:14:58:22	6.157	V2676-01
 	transect	Ophiuroidea	999.07	2669	 	36.73139	-122.23609	1684580	0.44	2005-05-25 18:58:18.0	Ventana	34.522	01:20:17:22	3.94	V2669-02
 	cruise	Chionoecetes tanneri	1237.58	2683	 	36.705666	-122.048065	1757528	0.74	2005-07-11 19:48:32.0	Ventana	34.58	03:22:55:05	3.333	V2683-04
 	transect	Ceriantharia sp. 2	998.51	2669	 	36.731087	-122.230606	1683371	0.45	2005-05-25 18:19:00.0	Ventana	34.521	00:41:26:15	3.91	V2669-01
 	ascend	Hastigerinella digitata	261.07	2681	 	36.698868	-122.05693	1718920	1.42	2005-07-07 21:19:38.307	Ventana	34.232	04:47:58:01	7.957	V2681-05
 	stationary	Microstomus pacificus	999.37	2669	 	36.730442	-122.22678	1649031	0.45	2005-05-25 17:49:47.0	Ventana	34.521	00:12:42:25	3.911	V2669-01
 	transect	Euphausia	200.41	2681	 	36.698296	-122.05335	2491107	1.69	2005-07-07 17:11:54.0	Ventana	34.198	00:43:00:28	8.337	V2681-01HD
 	ascend	Euphausiacea	258.17	2681	 	36.697838	-122.05522	1719580	 	2005-07-07 21:29:59.0	Ventana	 	05:15:33:12	 	V2681-05
 	ascend	Appendicularia	1132.68	2682	 	36.698193	-122.05751	1722528	0.6	2005-07-08 19:56:17.0	Ventana	34.559	03:48:51:22	3.537	V2682-04
 	cruise	Pleuronectiformes	338.24	2688	 	36.808006	-122.02015	1677821	1.22	2005-07-14 18:07:04.0	Ventana	34.228	01:52:46:01	7.517	V2688-02
 	descend	Hormiphora	187.91	2693	 	36.69607	-122.05817	1758280	1.83	2005-07-25 18:14:03.0	Ventana	34.179	00:54:33:03	8.884	V2693-01
 	cruise	Sebastolobus	264.28	2676	 	36.80543	-122.029465	1676723	1.53	2005-06-14 17:35:41.0	Ventana	34.207	01:15:25:12	7.983	V2676-02
 	ascend	Chaetognatha	324.2	2683	 	36.703445	-122.05063	1758077	1.22	2005-07-11 21:23:35.0	Ventana	34.233	04:56:25:09	7.265	V2683-05
 	transect	Lycodes cortezianus	202.77	2696	http://search.mbari.org/ARCHIVE/frameGrabs/Ventana/images/2696/01_38_58_24.jpg	36.805256	-122.12819	1813653	1.47	2005-08-01 18:11:07.0	Ventana	34.223	01:38:58:24	8.6	V2696-02
 	cruise	Sebastolobus	615.87	2688	 	36.793674	-122.019226	1677272	0.43	2005-07-14 16:25:37.0	Ventana	34.398	00:11:57:19	5.313	V2688-01
 	transect	Neptunea amianta	1000.44	2669	 	36.73194	-122.247	1735796	0.41	2005-05-25 20:11:53.0	Ventana	34.51	02:33:24:01	4.063	V2669-03
 	ascend	Mysidae	1168.96	2683	 	36.707134	-122.048325	1757731	0.7	2005-07-11 20:29:02.0	Ventana	34.569	04:03:24:18	3.406	V2683-04
 	cruise	can	103.06	2688	 	36.81399	-122.017624	1679233	1.97	2005-07-14 19:34:07.0	Ventana	34.09	03:18:54:24	8.908	V2688-04
 	transect	Mesomyaria	997.5	2669	 	36.730633	-122.227806	1649234	0.45	2005-05-25 17:59:08.0	Ventana	34.522	00:21:36:22	3.907	V2669-01
 	transect	Ophiuroidea	998.52	2669	 	36.73107	-122.23056	1651319	0.45	2005-05-25 18:18:44.0	Ventana	34.522	00:41:11:13	3.911	V2669-01
 	ascend	Copepoda	262.72	2681	 	36.69902	-122.05578	1718717	1.43	2005-07-07 21:16:51.333	Ventana	34.231	04:45:10:07	7.967	V2681-05
 	cruise	Lycodes	406.94	2676	 	36.803986	-122.029205	1676458	0.72	2005-06-14 16:43:47.133	Ventana	34.312	00:27:55:03	6.641	V2676-01
 	transect	Mesomyaria	999.71	2669	 	36.7312	-122.23575	1684377	0.44	2005-05-25 18:55:33.0	Ventana	34.519	01:17:32:22	3.934	V2669-02
 	transect	Chionoecetes tanneri	999.27	2669	 	36.731083	-122.23502	1684234	0.45	2005-05-25 18:50:11.0	Ventana	34.522	01:12:11:23	3.92	V2669-02
 	descend	Appendicularia	359.97	2682	 	36.698593	-122.06039	1720332	1.0	2005-07-08 17:22:26.0	Ventana	34.255	01:15:59:02	7.079	V2682-02
 	cruise	Pleuronectiformes	456.36	2688	 	36.80317	-122.018105	1677618	0.88	2005-07-14 17:33:46.0	Ventana	34.273	01:19:30:19	6.86	V2688-02
 	descend	Pleurobrachia	167.99	2682	 	36.699883	-122.06075	1719926	2.24	2005-07-08 16:19:31.95	Ventana	34.122	00:13:36:24	8.307	V2682-01
 	transect	Ophiuroidea	998.97	2669	 	36.731415	-122.236465	1684783	0.44	2005-05-25 19:01:19.0	Ventana	34.52	01:23:18:14	3.941	V2669-02
 	cruise	Merluccius productus	 	2687	http://search.mbari.org/ARCHIVE/frameGrabs/Ventana/images/2687/00_00_15_21.jpg	 	 	1806894	 	2005-07-13 16:33:20.0	Ventana	 	00:00:15:21	 	V2687-01
 	transect	molt	50.49	2681	 	36.69884	-122.05351	2485384	 	2005-07-07 16:30:58.0	Ventana	 	00:02:07:28	 	V2681-01HD
 	cruise	Pleuronectiformes	521.94	2688	 	36.799625	-122.01902	1677475	0.65	2005-07-14 17:07:10.0	Ventana	34.315	00:53:27:23	6.354	V2688-01
 	ascend	Nanomia	258.17	2681	 	36.697838	-122.05522	1719377	 	2005-07-07 21:29:59.0	Ventana	 	05:03:02:14	 	V2681-05
 	transect	Psolus squamatus	 	2687	 	 	 	1808744	 	2005-07-13 17:28:22.0	Ventana	 	00:55:14:21	 	V2687-01
 	descend	Bathocyroe	1163.42	2682	 	36.69821	-122.05921	1722182	0.62	2005-07-08 19:13:50.0	Ventana	34.562	03:06:27:23	3.491	V2682-04
 	transect	Phyllospadix	800.12	2674	 	36.75251	-122.20355	1799349	0.35	2005-06-08 17:46:41.0	Ventana	34.5	00:31:14:04	4.363	V2674-01
 	transect	Psolus squamatus	 	2687	 	 	 	1812647	 	2005-07-13 20:49:39.0	Ventana	 	04:14:10:03	 	V2687-05
 	ascend	Nemertea	846.95	2681	 	36.69859	-122.055855	1717384	0.32	2005-07-07 19:55:31.557	Ventana	34.489	03:24:34:12	4.371	V2681-04
 	transect	Porifera	 	2687	 	 	 	1812790	 	2005-07-13 20:57:30.0	Ventana	 	04:21:59:25	 	V2687-05
 	transect	Poeobius meseres	600.53	2681	 	36.697704	-122.05359	2493852	0.3	2005-07-07 18:27:35.0	Ventana	34.388	01:57:56:22	5.48	V2681-02HD
 	ascend	Appendicularia	312.0	2681	 	36.69966	-122.05527	1718168	1.26	2005-07-07 20:58:10.267	Ventana	34.235	04:26:30:25	7.513	V2681-05
 	descend	Physonectae	424.94	2683	 	36.70145	-122.04957	1756665	0.87	2005-07-11 17:06:09.0	Ventana	34.267	00:53:49:15	6.805	V2683-01
 	descend	Appendicularia	362.57	2682	 	36.69848	-122.060074	1720475	1.0	2005-07-08 17:33:32.0	Ventana	34.255	01:27:03:20	7.084	V2682-02
 	transect	Mediaster	 	2687	 	 	 	1812241	 	2005-07-13 20:29:44.0	Ventana	 	03:54:42:12	 	V2687-04
 	ascend	Chuniphyes	782.04	2682	 	36.69867	-122.05894	1723280	0.28	2005-07-08 20:26:04.0	Ventana	34.45	04:18:12:06	4.741	V2682-05
 	ascend	sinker	607.15	2682	 	36.698875	-122.05996	1723423	0.34	2005-07-08 20:38:59.0	Ventana	34.382	04:31:07:23	5.544	V2682-05
 	descend	ink	834.52	2683	 	36.702805	-122.04848	1757214	0.33	2005-07-11 18:23:28.0	Ventana	34.478	02:07:33:07	4.444	V2683-02
 	transect	Psolus squamatus	399.86	2687	 	36.78812	-122.12173	1809293	1.14	2005-07-13 17:38:36.0	Ventana	34.24	01:04:57:24	7.292	V2687-02
 	transect	Phyllospadix	799.59	2674	 	36.752693	-122.20084	1774150	0.3	2005-06-08 17:32:49.0	Ventana	34.464	00:17:22:19	4.607	V2674-01
 	transect	Appendicularia	400.78	2681	 	36.69716	-122.05279	2493100	0.79	2005-07-07 17:46:56.0	Ventana	34.277	01:17:20:22	6.661	V2681-02HD
 	transect	Lycenchelys camchatica	800.77	2674	 	36.75258	-122.202	1799146	0.34	2005-06-08 17:38:49.0	Ventana	34.477	00:23:22:12	4.4	V2674-01
 	descend	Chuniphyes	772.94	2682	 	36.698383	-122.05976	1721665	0.29	2005-07-08 18:32:40.0	Ventana	34.458	02:25:44:08	4.691	V2682-03
 	transect	Phyllospadix	399.68	2687	 	36.789387	-122.12553	1809699	1.13	2005-07-13 18:36:54.0	Ventana	34.243	02:03:12:05	7.262	V2687-02
 	transect	Psolus squamatus	 	2687	 	 	 	1810908	 	2005-07-13 19:42:29.0	Ventana	 	03:07:30:26	 	V2687-04
 	descend	Solmissus	269.95	2683	 	36.70097	-122.050316	1756462	1.37	2005-07-11 16:51:51.0	Ventana	34.229	00:39:32:10	7.876	V2683-01
 	cruise	scarp	280.47	2688	http://search.mbari.org/ARCHIVE/frameGrabs/Ventana/images/2688/02_09_45_29.jpg	36.809002	-122.02035	20005190	1.43	2005-07-14 18:24:30.0	Ventana	34.213	02:09:45:29	8.005	V2688-03
 	transect	Phyllospadix	203.89	2696	 	36.807575	-122.13121	1813856	1.46	2005-08-01 18:43:29.0	Ventana	34.227	02:10:34:11	8.645	V2696-03
 	transect	Hormiphora	200.43	2681	 	36.69828	-122.05329	2490152	1.7	2005-07-07 17:05:12.0	Ventana	34.197	00:36:20:01	8.358	V2681-01HD
 	cruise	Actiniaria	500.2	2695	 	36.783733	-122.19958	1824409	0.89	2005-07-28 17:01:02.0	Ventana	34.263	00:07:24:20	6.705	V2695-01
 	descend	Chaetognatha	279.61	2693	 	36.698	-122.061356	1758423	1.41	2005-07-25 19:35:03.0	Ventana	34.239	02:14:38:08	8.017	V2693-03
 	ascend	Poeobius meseres	709.77	2683	 	36.705864	-122.048935	1757874	0.27	2005-07-11 21:05:37.0	Ventana	34.45	04:38:30:07	4.764	V2683-05
 	transect	Rathbunaster californicus	199.01	2696	 	36.803772	-122.12495	1813307	1.53	2005-08-01 17:32:20.0	Ventana	34.203	01:00:37:17	8.633	V2696-01
 	transect	Poeobius meseres	1000.98	2681	 	36.69586	-122.052	2498652	0.48	2005-07-07 19:27:14.0	Ventana	34.532	02:56:54:03	3.866	V2681-03HD
 	transect	Calycophorae	901.05	2681	 	36.69641	-122.05249	2498306	0.39	2005-07-07 19:09:15.0	Ventana	34.504	02:38:57:12	4.168	V2681-03HD
 	transect	Psolus squamatus	 	2687	 	 	 	1811111	 	2005-07-13 19:53:44.0	Ventana	 	03:18:44:14	 	V2687-04
 	transect	Phyllospadix	800.52	2674	 	36.751194	-122.21645	1803427	0.35	2005-06-08 18:51:13.0	Ventana	34.49	01:35:15:23	4.357	V2674-02
 	descend	Appendicularia	945.16	2683	 	36.703793	-122.04858	1757325	0.41	2005-07-11 19:09:14.0	Ventana	34.509	02:49:36:00	4.109	V2683-03
 	transect	Phyllospadix	799.41	2674	 	36.752457	-122.20517	1799727	0.36	2005-06-08 17:55:41.0	Ventana	34.486	00:40:13:18	4.357	V2674-01
 	transect	Mesomyaria	1000.18	2669	 	36.731663	-122.24378	1733944	0.41	2005-05-25 19:48:48.0	Ventana	34.509	02:10:20:08	4.064	V2669-03
 	transect	Ophiuroidea	1000.26	2669	 	36.73115	-122.2403	1689237	0.41	2005-05-25 19:29:10.0	Ventana	34.51	01:51:07:22	4.06	V2669-02
 	transect	Brisaster	999.24	2669	 	36.731018	-122.23213	1683717	0.45	2005-05-25 18:30:37.0	Ventana	34.521	00:53:03:16	3.916	V2669-01
 	descend	Melanostigma pammelas	986.27	2682	 	36.69833	-122.059235	1722011	0.43	2005-07-08 18:57:49.0	Ventana	34.519	02:50:50:18	4.002	V2682-03
 	transect	Stomphia	999.92	2669	 	36.73197	-122.24626	1735653	0.41	2005-05-25 20:06:27.0	Ventana	34.51	02:27:57:09	4.062	V2669-03
 	transect	Phyllospadix	200.34	2696	 	36.804718	-122.12719	1813510	1.51	2005-08-01 17:54:50.0	Ventana	34.211	01:22:42:17	8.671	V2696-02
 	transect	Neptunea amianta	798.88	2674	 	36.75155	-122.21418	1801342	0.35	2005-06-08 18:39:28.0	Ventana	34.488	01:23:31:21	4.338	V2674-02
 	descend	Appendicularia	366.65	2693	 	36.69618	-122.06092	1758626	1.2	2005-07-25 20:20:43.0	Ventana	34.234	03:00:16:21	7.195	V2693-03
 	transect	Mediaster	 	2687	 	 	 	1810562	 	2005-07-13 19:22:34.0	Ventana	 	02:48:18:01	 	V2687-03
 	transect	chuniphyes	300.39	2681	 	36.695946	-122.05157	2492583	1.24	2005-07-07 17:28:43.0	Ventana	34.234	00:59:49:16	7.427	V2681-01HD
 	descend	Myctophidae	717.02	2682	 	36.69856	-122.059944	1721462	0.28	2005-07-08 18:19:26.0	Ventana	34.438	02:12:29:27	4.91	V2682-03
 	transect	Porifera sp. 1	 	2687	 	 	 	1808947	 	2005-07-13 17:32:32.0	Ventana	 	00:59:24:07	 	V2687-01
 	transect	Mesomyaria	1000.6	2669	 	36.73217	-122.24826	1736202	0.41	2005-05-25 20:20:53.0	Ventana	34.51	02:42:22:26	4.062	V2669-03
 	transect	phialidium	500.59	2681	 	36.695908	-122.05136	2493649	0.43	2005-07-07 18:03:54.0	Ventana	34.348	01:34:16:13	6.006	V2681-02HD
 	transect	Microstomus pacificus	802.1	2674	 	36.75178	-122.2107	1801028	0.35	2005-06-08 18:22:32.0	Ventana	34.49	01:06:36:19	4.33	V2674-02
 	transect	Actiniaria sp. 1	999.71	2669	 	36.731358	-122.23773	1687528	0.44	2005-05-25 19:12:28.0	Ventana	34.52	01:34:26:28	3.947	V2669-02
 	transect	Ophiuroidea	998.89	2669	 	36.73114	-122.23408	1684031	0.45	2005-05-25 18:42:26.0	Ventana	34.523	01:04:27:12	3.914	V2669-02
 	descend	Myctophidae	557.91	2682	 	36.69863	-122.05979	1720913	0.34	2005-07-08 18:06:02.0	Ventana	34.37	01:59:30:10	5.654	V2682-02
 	transect	Glyptocephalus zachirus	 	2687	 	 	 	1812444	 	2005-07-13 20:39:09.0	Ventana	 	04:04:06:18	 	V2687-04
 	ascend	Appendicularia	413.03	2681	 	36.69923	-122.054344	1717965	0.8	2005-07-07 20:46:22.977	Ventana	34.276	04:14:44:16	6.674	V2681-05
 	descend	Chaetognatha	297.26	2682	 	36.69922	-122.060585	1720129	1.2	2005-07-08 16:55:18.0	Ventana	34.235	00:49:20:26	7.404	V2682-01
 	descend	Copepoda	1183.18	2682	 	36.698254	-122.05788	1722334	0.66	2005-07-08 19:40:36.0	Ventana	34.57	03:33:13:08	3.413	V2682-04
 	transect	Phyllospadix	800.35	2674	 	36.751736	-122.21171	1801139	0.35	2005-06-08 18:26:53.0	Ventana	34.488	01:10:57:09	4.339	V2674-02
 	ascend	Nanomia	723.9	2683	 	36.706036	-122.04869	1757860	0.29	2005-07-11 21:04:43.0	Ventana	34.454	04:37:36:24	4.726	V2683-05
 	transect	molt	100.52	2681	 	36.69983	-122.05429	2489566	2.13	2005-07-07 16:45:02.0	Ventana	34.068	00:16:11:20	9.147	V2681-01HD
 	transect	Sebastolobus	998.21	2669	 	36.73053	-122.22834	1649363	0.45	2005-05-25 18:02:50.0	Ventana	34.523	00:25:18:15	3.907	V2669-01
 	transect	Mesomyaria	1000.34	2669	 	36.731564	-122.242905	1694561	0.4	2005-05-25 19:43:59.0	Ventana	34.505	02:05:55:23	4.096	V2669-02
 	transect	Phyllospadix	1000.15	2669	 	36.73164	-122.243416	1733833	0.41	2005-05-25 19:46:59.0	Ventana	34.511	02:08:30:12	4.068	V2669-03
 	transect	Allocentrotus fragilis	 	2687	 	 	 	1810811	 	2005-07-13 19:35:19.0	Ventana	 	03:01:01:25	 	V2687-03
 	transect	Rathbunaster californicus	203.46	2696	 	36.80643	-122.12999	1813759	1.48	2005-08-01 18:27:43.0	Ventana	34.214	01:55:34:05	8.632	V2696-02
 	transect	Mesomyaria	999.89	2669	 	36.730988	-122.23252	1683768	0.45	2005-05-25 18:33:51.0	Ventana	34.521	00:56:17:11	3.915	V2669-01
 	transect	Psolus squamatus	 	2687	 	 	 	1808984	 	2005-07-13 17:33:03.0	Ventana	 	00:59:54:26	 	V2687-01
 	descend	Copepoda	467.36	2683	 	36.70163	-122.049355	1756739	0.77	2005-07-11 17:12:27.0	Ventana	34.288	01:00:05:25	6.648	V2683-01
 	transect	Rathbunaster californicus	196.46	2696	 	36.802917	-122.12225	1813053	1.54	2005-08-01 17:01:50.0	Ventana	34.202	00:30:08:26	8.606	V2696-01
 	transect	Neptunea amianta	806.32	2674	 	36.750393	-122.221886	1803764	0.34	2005-06-08 19:17:31.0	Ventana	34.492	02:01:33:03	4.417	V2674-02
 	transect	Mediaster	 	2687	 	 	 	1810105	 	2005-07-13 18:56:34.0	Ventana	 	02:22:19:21	 	V2687-03
 	transect	Dosidicus gigas	400.8	2681	 	36.6958	-122.0512	2492897	0.79	2005-07-07 17:40:57.0	Ventana	34.278	01:11:20:11	6.668	V2681-02HD
 	ascend	Copepoda	334.04	2693	 	36.6924	-122.06184	1759011	1.28	2005-07-25 21:15:09.0	Ventana	34.237	03:39:40:20	7.546	V2693-04
 	transect	Mesomyaria	1000.28	2669	 	36.7312	-122.240845	1689311	0.41	2005-05-25 19:32:37.0	Ventana	34.511	01:54:34:28	4.056	V2669-02
 	cruise	Mysidae	1234.01	2683	 	36.70572	-122.04802	1757537	0.73	2005-07-11 19:49:24.0	Ventana	34.575	03:23:47:16	3.33	V2683-04
 	transect	Psolus squamatus	 	2687	 	 	 	1811134	 	2005-07-13 19:55:58.0	Ventana	 	03:20:58:17	 	V2687-04
 	descend	sinker	696.12	2681	 	36.697926	-122.0538	1715963	0.27	2005-07-07 18:31:49.667	Ventana	34.418	02:02:09:20	5.068	V2681-02
 	transect	Psolus squamatus	399.9	2687	 	36.788116	-122.12176	1809307	1.13	2005-07-13 17:39:10.0	Ventana	34.24	01:05:32:02	7.261	V2687-02
 	descend	Appendicularia	497.61	2682	 	36.6986	-122.05978	1720830	0.46	2005-07-08 17:59:18.0	Ventana	34.342	01:52:47:04	6.055	V2682-02
 	transect	Phyllospadix	801.62	2674	 	36.752186	-122.20787	1800110	0.35	2005-06-08 18:08:50.0	Ventana	34.489	00:53:22:12	4.327	V2674-01
 	transect	Mesomyaria	800.22	2674	 	36.75126	-122.21594	1803381	0.35	2005-06-08 18:49:04.0	Ventana	34.489	01:33:06:28	4.36	V2674-02
 	transect	Lycodes diapterus	 	2687	 	 	 	1812255	 	2005-07-13 20:29:58.0	Ventana	 	03:54:56:24	 	V2687-04
 	transect	Mesomyaria	999.01	2669	 	36.731125	-122.2348	1684183	0.45	2005-05-25 18:48:05.0	Ventana	34.521	01:10:05:10	3.916	V2669-02
 	transect	Actiniaria sp. 3	 	2687	 	 	 	1808601	 	2005-07-13 17:24:54.0	Ventana	 	00:51:46:25	 	V2687-01
 	transect	Mediaster	 	2687	 	 	 	1807480	 	2005-07-13 17:09:51.0	Ventana	 	00:36:45:04	 	V2687-01
 	transect	Ophiuroidea	998.5	2669	 	36.731094	-122.23068	1683385	0.45	2005-05-25 18:19:49.0	Ventana	34.521	00:42:15:28	3.911	V2669-01
 	transect	Neptunea amianta	801.6	2674	 	36.75246	-122.19948	1773781	0.29	2005-06-08 17:23:48.0	Ventana	34.46	00:08:23:16	4.657	V2674-01
 	transect	Mesomyaria	799.17	2674	 	36.751717	-122.212776	1801231	0.35	2005-06-08 18:30:53.0	Ventana	34.49	01:14:57:00	4.332	V2674-02
 	descend	Lensia	267.92	2682	 	36.69974	-122.06075	1720032	1.35	2005-07-08 16:31:23.0	Ventana	34.232	00:25:27:13	7.758	V2682-01
 	descend	Appendicularia	174.24	2693	 	36.696095	-122.05807	1758243	1.95	2005-07-25 18:05:00.0	Ventana	34.142	00:45:31:16	8.901	V2693-01
 	transect	Porifera sp. 1	 	2687	 	 	 	1810428	 	2005-07-13 19:17:50.0	Ventana	 	02:43:34:01	 	V2687-03
 	transect	Phyllospadix	800.03	2674	 	36.752502	-122.20335	1799312	0.35	2005-06-08 17:45:18.0	Ventana	34.485	00:29:51:18	4.378	V2674-01
 	transect	Rathbunaster californicus	199.51	2696	 	36.80411	-122.12582	1813376	1.52	2005-08-01 17:41:06.0	Ventana	34.207	01:08:59:23	8.661	V2696-02
 	transect	Rathbunaster californicus	196.39	2696	 	36.803104	-122.12275	1813113	1.57	2005-08-01 17:07:47.0	Ventana	34.196	00:36:05:25	8.631	V2696-01
 	descend	Calycophorae	425.64	2681	 	36.698074	-122.05382	1715317	0.67	2005-07-07 17:51:26.767	Ventana	34.297	01:21:49:07	6.458	V2681-02
 	descend	sinker	748.09	2683	 	36.70236	-122.04893	1757122	0.27	2005-07-11 17:57:23.0	Ventana	34.45	01:41:28:15	4.77	V2683-02
 	transect	Neptunea amianta	803.97	2674	 	36.75075	-122.22058	1803704	0.34	2005-06-08 19:09:25.0	Ventana	34.483	01:53:26:20	4.396	V2674-02
 	transect	Nanomia bijuga	200.44	2681	 	36.69828	-122.05329	2490304	1.69	2005-07-07 17:06:40.0	Ventana	34.199	00:37:49:19	8.355	V2681-01HD
 	transect	Poeobius meseres	600.59	2681	 	36.69601	-122.0516	2493695	0.3	2005-07-07 18:20:10.0	Ventana	34.387	01:50:33:02	5.49	V2681-02HD
 	transect	Ophiuroidea	999.22	2669	 	36.73101	-122.23201	1683708	0.45	2005-05-25 18:30:08.0	Ventana	34.52	00:52:34:14	3.913	V2669-01
 	ascend	Copepoda	829.82	2681	 	36.69878	-122.05627	1717407	0.31	2005-07-07 19:57:45.933	Ventana	34.483	03:26:48:04	4.432	V2681-04
 	transect	Sebastolobus	998.02	2669	 	36.73306	-122.252914	1737517	0.4	2005-05-25 20:50:13.0	Ventana	34.508	03:11:01:08	4.075	V2669-04
 	transect	Mesomyaria	1000.36	2669	 	36.731934	-122.24643	1735690	0.41	2005-05-25 20:07:53.0	Ventana	34.51	02:29:23:07	4.064	V2669-03
 	transect	Lycenchelys camchatica	800.69	2674	 	36.7521	-122.208466	1800756	0.35	2005-06-08 18:11:43.0	Ventana	34.49	00:56:14:17	4.324	V2674-01
 	transect	Calycophorae	400.81	2681	 	36.696312	-122.05178	2492989	0.79	2005-07-07 17:43:15.0	Ventana	34.276	01:13:39:25	6.65	V2681-02HD
 	transect	lobata	500.58	2681	 	36.69602	-122.05152	2493635	0.43	2005-07-07 18:03:17.0	Ventana	34.349	01:33:40:19	6.006	V2681-02HD
 	transect	Sebastolobus	 	2687	 	 	 	1807005	 	2005-07-13 16:54:27.0	Ventana	 	00:21:21:26	 	V2687-01
 	ascend	Gonatus	429.43	2695	 	36.783974	-122.20105	1824520	1.11	2005-07-28 20:39:27.0	Ventana	34.267	05:37:02:18	7.585	V2695-04
 	transect	Nanomia bijuga	200.34	2681	 	36.69828	-122.05329	2490041	1.69	2005-07-07 17:04:18.0	Ventana	34.194	00:35:26:11	8.359	V2681-01HD
 	transect	Mesomyaria	999.2	2669	 	36.730774	-122.22953	1651130	0.45	2005-05-25 18:10:54.0	Ventana	34.523	00:33:21:06	3.907	V2669-01
 	transect	Sebastolobus altivelis	799.83	2674	 	36.75266	-122.200966	1774164	0.34	2005-06-08 17:33:31.0	Ventana	34.481	00:18:05:09	4.436	V2674-01
 	transect	Ophiuroidea	998.97	2669	 	36.731377	-122.23608	1684566	0.44	2005-05-25 18:58:08.0	Ventana	34.522	01:20:07:20	3.94	V2669-02
 	transect	Halipteris californica	598.4	2680	 	36.78091	-122.22586	1804825	0.35	2005-06-27 18:28:52.0	Ventana	34.38	01:07:58:11	5.572	V2680-02
 	transect	Phyllospadix	999.9	2669	 	36.73141	-122.23671	1684829	0.44	2005-05-25 19:03:47.0	Ventana	34.52	01:25:46:18	3.938	V2669-02
 	descend	Hastigerinella digitata	306.17	2682	 	36.699425	-122.06072	1720092	1.15	2005-07-08 16:44:27.0	Ventana	34.239	00:38:30:10	7.316	V2682-01
 	transect	Nanomia bijuga	300.41	2681	 	36.69662	-122.05221	2492514	1.23	2005-07-07 17:26:12.0	Ventana	34.233	00:57:20:06	7.398	V2681-01HD
 	transect	Phyllospadix	602.39	2680	 	36.790066	-122.23266	1806742	0.35	2005-06-27 20:16:13.0	Ventana	34.379	02:54:50:02	5.584	V2680-03
 	transect	Mesomyaria	998.56	2669	 	36.73118	-122.234375	1684123	0.45	2005-05-25 18:44:37.0	Ventana	34.522	01:06:37:21	3.916	V2669-02
 	transect	Mesomyaria	999.56	2669	 	36.73136	-122.237625	1687514	0.44	2005-05-25 19:11:33.0	Ventana	34.52	01:33:31:22	3.949	V2669-02
 	descend	Myctophidae	589.32	2682	 	36.698647	-122.05982	1721213	0.36	2005-07-08 18:07:12.0	Ventana	34.386	02:00:15:29	5.497	V2682-03
 	transect	Mesomyaria	998.46	2669	 	36.731136	-122.2308	1683445	0.45	2005-05-25 18:20:59.0	Ventana	34.518	00:43:26:08	3.917	V2669-01
 	transect	Psolus squamatus	399.88	2687	 	36.78813	-122.12164	1809247	1.13	2005-07-13 17:37:33.0	Ventana	34.243	01:03:55:15	7.255	V2687-02
 	transect	Mediaster	 	2687	 	 	 	1812638	 	2005-07-13 20:49:11.0	Ventana	 	04:13:41:23	 	V2687-05
 	transect	lobata	200.36	2681	 	36.69837	-122.05347	2491393	1.67	2005-07-07 17:13:58.0	Ventana	34.199	00:45:06:26	8.341	V2681-01HD
 	transect	Mesomyaria	801.37	2674	 	36.752262	-122.207306	1800050	0.37	2005-06-08 18:06:25.0	Ventana	34.487	00:50:57:07	4.353	V2674-01
 	transect	Mesomyaria	800.42	2674	 	36.751194	-122.21666	1803441	0.35	2005-06-08 18:51:58.0	Ventana	34.488	01:36:01:16	4.352	V2674-02
 	transect	bolinopsis	200.41	2681	 	36.6983	-122.05337	2491130	1.68	2005-07-07 17:12:14.0	Ventana	34.198	00:43:22:25	8.337	V2681-01HD
 	transect	Halipteris californica	598.78	2680	http://search.mbari.org/ARCHIVE/frameGrabs/Ventana/images/2680/01_28_46_13.jpg	36.782394	-122.227554	1805148	0.35	2005-06-27 18:49:41.0	Ventana	34.379	01:28:46:13	5.586	V2680-02
 	cruise	Lithodidae	1219.16	2683	 	36.706276	-122.04766	1757597	0.72	2005-07-11 20:03:47.0	Ventana	34.572	03:38:10:14	3.354	V2683-04
 	transect	Actiniaria sp. 3	 	2687	http://search.mbari.org/ARCHIVE/frameGrabs/Ventana/images/2687/03_16_31_19.jpg	 	 	1811074	 	2005-07-13 19:51:30.0	Ventana	 	03:16:31:19	 	V2687-04
 	transect	Appendicularia	400.75	2681	 	36.696777	-122.05236	2493049	0.79	2005-07-07 17:45:22.0	Ventana	34.277	01:15:45:24	6.659	V2681-02HD
 	transect	phialidium	500.54	2681	 	36.69679	-122.052376	2493575	0.44	2005-07-07 17:59:58.0	Ventana	34.346	01:30:21:20	6.019	V2681-02HD
 	transect	Mesomyaria	1000.79	2669	 	36.73228	-122.24915	1736276	0.41	2005-05-25 20:26:51.0	Ventana	34.51	02:48:19:06	4.065	V2669-03
 	transect	Phyllospadix	800.84	2674	 	36.751984	-122.209175	1800876	0.35	2005-06-08 18:15:21.0	Ventana	34.49	00:59:52:11	4.322	V2674-01
 	transect	molt	300.43	2681	 	36.697437	-122.0529	2492251	1.23	2005-07-07 17:23:25.0	Ventana	34.232	00:54:32:06	7.397	V2681-01HD
 	transect	Ceriantharia sp. 1	602.57	2680	 	36.790703	-122.23282	1806802	0.35	2005-06-27 20:22:23.0	Ventana	34.378	03:00:59:07	5.59	V2680-03
 	transect	Calycophorae	1000.96	2681	 	36.696465	-122.052826	2498703	0.47	2005-07-07 19:29:45.0	Ventana	34.531	02:59:24:13	3.877	V2681-03HD
 	transect	Appendicularia	200.46	2681	 	36.69828	-122.05329	2490627	1.73	2005-07-07 17:07:53.0	Ventana	34.193	00:39:02:00	8.328	V2681-01HD
 	ascend	Solmaris	256.63	2682	 	36.696808	-122.0611	1723748	1.37	2005-07-08 21:28:52.0	Ventana	34.237	05:20:32:06	7.879	V2682-06
 	ascend	Copepoda	601.58	2682	 	36.698616	-122.06178	1723545	0.34	2005-07-08 20:58:11.0	Ventana	34.372	04:50:19:02	5.655	V2682-05
 	descend	Chaetognatha	1086.46	2682	 	36.698288	-122.059166	1722071	0.53	2005-07-08 19:06:08.0	Ventana	34.545	02:59:10:04	3.704	V2682-03
 	ascend	Mysidae	1082.5	2683	 	36.707687	-122.049126	1757800	0.57	2005-07-11 20:44:47.0	Ventana	34.545	04:19:07:16	3.696	V2683-04
 	transect	molt	100.56	2681	 	36.69983	-122.05429	2489506	2.12	2005-07-07 16:43:11.0	Ventana	34.068	00:14:21:23	9.15	V2681-01HD
 	transect	Ceriantharia sp. 1	802.08	2674	 	36.752254	-122.206856	1799990	0.37	2005-06-08 18:04:09.0	Ventana	34.49	00:48:41:08	4.328	V2674-01
 	descend	Mysidae	1182.85	2682	 	36.698463	-122.05832	1722274	0.67	2005-07-08 19:37:25.0	Ventana	34.571	03:30:00:26	3.403	V2682-04
 	transect	Umbellula lindahli	599.47	2680	 	36.783188	-122.22855	1805328	0.35	2005-06-27 19:04:41.0	Ventana	34.379	01:43:44:25	5.587	V2680-02
 	transect	Mesomyaria	801.03	2674	 	36.75109	-122.21751	1803501	0.35	2005-06-08 18:55:47.0	Ventana	34.487	01:39:50:13	4.35	V2674-02
 	transect	Allocentrotus fragilis	 	2687	 	 	 	1810165	 	2005-07-13 19:03:33.0	Ventana	 	02:29:17:26	 	V2687-03
 	transect	Mediaster	 	2687	 	 	 	1812698	 	2005-07-13 20:52:51.0	Ventana	 	04:17:21:07	 	V2687-05
 	transect	Pennatulacea sp.1	601.89	2680	 	36.78738	-122.23175	1805916	0.36	2005-06-27 19:48:39.0	Ventana	34.379	02:27:18:02	5.597	V2680-03
 	transect	lobata	200.37	2681	 	36.698322	-122.05344	2491333	1.66	2005-07-07 17:13:34.0	Ventana	34.2	00:44:41:12	8.34	V2681-01HD
 	transect	Sebastolobus	 	2669	 	 	 	1737577	 	2005-05-25 13:52:04.0	Ventana	 	03:12:51:24	 	V2669-04
 	descend	Copepoda	438.79	2683	 	36.70148	-122.0495	1756679	0.84	2005-07-11 17:07:09.0	Ventana	34.275	00:54:49:28	6.757	V2683-01
 	transect	Psolus squamatus	 	2687	 	 	 	1808864	 	2005-07-13 17:30:41.0	Ventana	 	00:57:33:11	 	V2687-01
 	transect	Mesomyaria	801.08	2674	 	36.752167	-122.20808	1800696	0.35	2005-06-08 18:10:00.0	Ventana	34.489	00:54:32:00	4.332	V2674-01
 	transect	Porifera sp. 1	399.85	2687	 	36.788013	-122.12141	1809044	1.15	2005-07-13 17:34:47.0	Ventana	34.239	01:01:09:20	7.299	V2687-02
 	transect	Mesomyaria	1000.35	2669	http://search.mbari.org/ARCHIVE/frameGrabs/Ventana/images/2669/02_03_26_01.jpg	36.73152	-122.24239	1694501	0.41	2005-05-25 19:41:29.0	Ventana	34.511	02:03:26:01	4.062	V2669-02
 	transect	Mesomyaria	801.64	2674	 	36.750916	-122.2197	1803644	0.34	2005-06-08 19:05:23.0	Ventana	34.485	01:49:25:02	4.388	V2674-02
 	transect	Mediaster	 	2687	 	 	 	1810871	 	2005-07-13 19:38:25.0	Ventana	 	03:04:08:04	 	V2687-03
 	ascend	Cydippida	121.41	2693	 	36.69081	-122.06293	1759274	2.11	2005-07-25 21:32:54.0	Ventana	34.057	03:57:25:09	9.128	V2693-04
 	cruise	Sebastes	350.02	2676	 	36.80469	-122.02899	1676601	1.23	2005-06-14 17:02:14.0	Ventana	34.238	00:46:21:16	7.502	V2676-01
 	transect	Rathbunaster californicus	203.45	2696	 	36.80735	-122.13102	1813819	1.47	2005-08-01 18:40:35.0	Ventana	34.219	02:07:40:14	8.626	V2696-03
 	transect	Calycophorae	300.45	2681	 	36.697823	-122.05323	2492131	1.23	2005-07-07 17:22:07.0	Ventana	34.233	00:53:13:16	7.4	V2681-01HD
 	transect	Ceriantharia sp. 2	999.93	2669	 	36.731747	-122.244026	1734096	0.41	2005-05-25 19:50:26.0	Ventana	34.51	02:11:57:06	4.074	V2669-03
 	transect	Chaetognatha	901.06	2681	 	36.695995	-122.05197	2498380	0.39	2005-07-07 19:11:02.0	Ventana	34.504	02:40:43:28	4.175	V2681-03HD
 	cruise	rock outcrop	436.15	2676	 	36.803303	-122.02926	1676398	0.64	2005-06-14 16:40:23.0	Ventana	34.319	00:24:31:24	6.371	V2676-01
 	transect	Phyllospadix	999.89	2669	 	36.7326	-122.25067	1737014	0.4	2005-05-25 20:37:23.0	Ventana	34.505	02:58:52:02	4.08	V2669-03
 	transect	Mediaster	 	2687	 	 	 	1811812	 	2005-07-13 20:26:03.0	Ventana	 	03:51:01:22	 	V2687-04
 	transect	Nanomia bijuga	200.41	2681	 	36.698288	-122.05332	2491010	1.71	2005-07-07 17:10:46.0	Ventana	34.192	00:41:53:16	8.325	V2681-01HD
 	ascend	Appendicularia	342.7	2693	 	36.69317	-122.06138	1758951	1.25	2005-07-25 21:11:08.0	Ventana	34.237	03:35:41:04	7.419	V2693-04
 	ascend	Calycophorae	290.9	2681	 	36.699738	-122.055214	1718205	1.36	2005-07-07 21:00:11.3	Ventana	34.23	04:28:31:07	7.721	V2681-05
 	descend	Copepoda	1118.78	2683	 	36.705116	-122.048904	1757477	0.6	2005-07-11 19:30:57.0	Ventana	34.548	03:11:18:22	3.636	V2683-03
 	ascend	Nanomia	526.69	2683	 	36.70448	-122.05066	1757980	0.47	2005-07-11 21:15:14.0	Ventana	34.338	04:48:05:20	6.129	V2683-05
 	descend	Appendicularia	507.43	2683	 	36.70143	-122.04918	1756859	0.68	2005-07-11 17:39:39.0	Ventana	34.306	01:23:46:12	6.462	V2683-02
 	transect	Psolus squamatus	 	2687	 	 	 	1807540	 	2005-07-13 17:14:33.0	Ventana	 	00:41:26:22	 	V2687-01
 	transect	Phyllospadix	202.11	2696	 	36.805256	-122.12819	1813639	1.5	2005-08-01 18:09:17.0	Ventana	34.212	01:37:08:29	8.662	V2696-02
 	cruise	Merluccius productus	284.73	2688	 	36.80896	-122.020355	1677872	1.42	2005-07-14 18:18:31.0	Ventana	34.208	02:04:12:11	7.985	V2688-02
 	transect	Stomphia	999.72	2669	 	36.73134	-122.235954	1684506	0.44	2005-05-25 18:57:14.0	Ventana	34.521	01:19:13:27	3.934	V2669-02
 	ascend	Bolinopsis	258.17	2681	 	36.697838	-122.05522	1719326	 	2005-07-07 21:29:59.0	Ventana	 	05:01:08:23	 	V2681-05
 	transect	Mesomyaria	999.88	2669	 	36.731094	-122.23912	1689108	0.43	2005-05-25 19:22:07.0	Ventana	34.518	01:44:05:06	3.97	V2669-02
 	transect	Porifera sp. 1	 	2687	 	 	 	1810488	 	2005-07-13 19:20:16.0	Ventana	 	02:46:00:10	 	V2687-03
 	transect	molt	100.49	2681	 	36.699825	-122.05429	2489686	2.13	2005-07-07 16:47:53.0	Ventana	34.067	00:19:01:16	9.15	V2681-01HD
 	transect	Allocentrotus fragilis	 	2687	 	 	 	1812315	 	2005-07-13 20:32:01.0	Ventana	 	03:56:59:23	 	V2687-04
 	ascend	Euphausiacea	258.17	2681	 	36.697838	-122.05522	1719506	 	2005-07-07 21:29:59.0	Ventana	 	05:09:03:04	 	V2681-05
 	transect	Phyllospadix	1000.39	2669	 	36.732018	-122.24744	1735893	0.4	2005-05-25 20:15:11.0	Ventana	34.509	02:36:40:14	4.076	V2669-03
 	descend	Nanomia	 	2693	 	 	 	1759454	 	2005-07-25 16:45:48.0	Ventana	 	00:24:21:24	 	V2693-01
 	transect	Ophiuroidea	999.7	2669	 	36.731426	-122.23713	1687454	0.44	2005-05-25 19:07:47.0	Ventana	34.519	01:29:46:11	3.946	V2669-02
 	transect	Mediaster	 	2687	 	 	 	1810691	 	2005-07-13 19:28:36.0	Ventana	 	02:54:20:00	 	V2687-03
 	transect	molt	100.47	2681	 	36.698814	-122.053635	2489889	2.14	2005-07-07 16:52:26.0	Ventana	34.068	00:23:34:03	9.136	V2681-01HD
 	descend	Euphausiacea	190.37	2683	 	36.701023	-122.051056	1756356	1.77	2005-07-11 16:43:32.0	Ventana	34.185	00:31:13:01	8.451	V2683-01
 	cruise	Rathbunaster californicus	104.44	2676	 	36.8062	-122.04193	1677166	1.92	2005-06-14 19:17:30.0	Ventana	34.161	02:56:15:11	8.422	V2676-03
 	transect	Porifera sp. 1	399.85	2687	 	36.788147	-122.12184	1809367	1.15	2005-07-13 17:40:10.0	Ventana	34.238	01:06:31:21	7.314	V2687-02
 	transect	Mediaster	 	2687	 	 	 	1812518	 	2005-07-13 20:43:14.0	Ventana	 	04:07:44:26	 	V2687-05
 	ascend	Lensia	378.03	2693	 	36.69622	-122.06057	1758748	1.19	2005-07-25 20:48:35.0	Ventana	34.23	03:13:09:25	7.148	V2693-04
 	transect	Mediaster	399.68	2687	 	36.78921	-122.124435	1809570	1.17	2005-07-13 18:19:00.0	Ventana	34.238	01:45:19:17	7.354	V2687-02
 	transect	Ceriantharia sp. 1	800.97	2674	 	36.751747	-122.21109	1801079	0.35	2005-06-08 18:24:26.0	Ventana	34.488	01:08:31:05	4.34	V2674-02
 	transect	Rathbunaster californicus	199.76	2696	 	36.80437	-122.126305	1813436	1.52	2005-08-01 17:46:15.0	Ventana	34.209	01:14:09:01	8.665	V2696-02
 	cruise	Pasiphaea	312.57	2676	 	36.805	-122.03157	1676218	1.25	2005-06-14 16:21:06.203	Ventana	34.234	00:05:16:03	7.582	V2676-01
 	ascend	Appendicularia	994.78	2681	 	36.696735	-122.053116	1716558	0.45	2005-07-07 19:32:53.767	Ventana	34.525	03:02:34:24	3.943	V2681-03
 	transect	Ophiuroidea	1000.25	2669	 	36.73184	-122.245224	1735367	0.4	2005-05-25 19:58:18.0	Ventana	34.506	02:19:49:07	4.099	V2669-03
 	cruise	Rathbunaster californicus	433.18	2688	 	36.805153	-122.018906	1677692	0.92	2005-07-14 17:44:48.0	Ventana	34.267	01:30:31:03	6.93	V2688-02
 	stationary	Merluccius productus	501.63	2695	 	36.78453	-122.200485	1824460	0.81	2005-07-28 17:44:37.0	Ventana	34.275	00:50:56:11	6.567	V2695-01
 	transect	Hormiphora	200.44	2681	 	36.69828	-122.05329	2490101	1.7	2005-07-07 17:04:42.0	Ventana	34.197	00:35:50:05	8.36	V2681-01HD
 	transect	Neptunea amianta	800.79	2674	 	36.752514	-122.20281	1799252	0.34	2005-06-08 17:42:43.0	Ventana	34.482	00:27:16:29	4.383	V2674-01
 	transect	Ceriantharia sp. 1	798.47	2674	 	36.751656	-122.213554	1801291	0.35	2005-06-08 18:35:23.0	Ventana	34.487	01:19:27:13	4.35	V2674-02
 	transect	Mediaster	 	2687	 	 	 	1811397	 	2005-07-13 20:11:20.0	Ventana	 	03:36:18:29	 	V2687-04
 	ascend	Aegina	669.55	2682	 	36.69893	-122.05957	1723363	0.28	2005-07-08 20:34:44.0	Ventana	34.405	04:26:53:03	5.21	V2682-05
 	descend	Appendicularia	900.6	2683	 	36.703537	-122.04831	1757274	0.38	2005-07-11 18:45:03.0	Ventana	34.5	02:25:26:24	4.221	V2683-03
 	descend	Lobata	148.9	2693	 	36.696316	-122.05773	1758183	1.94	2005-07-25 17:56:35.0	Ventana	34.112	00:37:06:17	9.003	V2693-01
 	ascend	Aegina	628.09	2681	 	36.698914	-122.05423	1717679	0.31	2005-07-07 20:28:27.1	Ventana	34.39	03:57:27:12	5.423	V2681-04
 	transect	Pennatulacea sp.1	600.35	2680	 	36.77714	-122.22229	1804239	0.36	2005-06-27 17:42:04.0	Ventana	34.378	00:22:12:09	5.578	V2680-01
 	transect	Euplexaura	 	2687	 	 	 	1808661	 	2005-07-13 17:26:34.0	Ventana	 	00:53:27:04	 	V2687-01
 	ascend	Aegina	776.74	2681	 	36.698772	-122.05634	1717467	0.29	2005-07-07 20:06:41.633	Ventana	34.453	03:35:43:23	4.745	V2681-04
 	transect	Ceriantharia sp. 2	999.61	2669	 	36.73274	-122.25131	1737194	0.4	2005-05-25 20:40:54.0	Ventana	34.509	03:01:43:03	4.072	V2669-04
 	transect	Nanomia bijuga	200.42	2681	 	36.69828	-122.0533	2490807	1.72	2005-07-07 17:08:59.0	Ventana	34.193	00:40:07:27	8.323	V2681-01HD
 	transect	apolemia	600.58	2681	 	36.696556	-122.05219	2493755	0.3	2005-07-07 18:22:35.0	Ventana	34.388	01:52:56:16	5.48	V2681-02HD
 	transect	Microstomus pacificus	999.75	2669	 	36.731003	-122.23385	1683980	0.45	2005-05-25 18:40:50.0	Ventana	34.522	01:02:51:04	3.913	V2669-02
 	ascend	Chaetognatha	369.99	2693	 	36.695564	-122.06074	1758808	1.21	2005-07-25 20:54:37.0	Ventana	34.234	03:19:09:21	7.258	V2693-04
 	transect	Rathbunaster californicus	197.92	2696	 	36.803577	-122.124146	1813233	1.54	2005-08-01 17:23:59.0	Ventana	34.201	00:52:16:06	8.612	V2696-01
 	transect	Gastropoda sp.2	998.44	2669	 	36.731037	-122.23033	1695064	0.45	2005-05-25 18:17:08.0	Ventana	34.522	00:39:34:11	3.91	V2669-01
 	transect	Phyllospadix	803.01	2674	 	36.752247	-122.206245	1799907	0.36	2005-06-08 18:01:01.0	Ventana	34.489	00:45:33:02	4.334	V2674-01
 	ascend	Chaetognatha	254.07	2681	 	36.69836	-122.0559	1719183	1.46	2005-07-07 21:24:42.3	Ventana	34.226	04:53:01:07	7.994	V2681-05
 	cruise	rockwall	98.56	2676	http://search.mbari.org/ARCHIVE/frameGrabs/Ventana/images/2676/02_10_04_10.jpg	36.809437	-122.03423	1676963	1.94	2005-06-14 18:30:26.0	Ventana	34.145	02:10:04:10	8.49	V2676-02
 	transect	Porifera sp. 1	 	2687	 	 	 	1807683	 	2005-07-13 17:22:37.0	Ventana	 	00:49:29:20	 	V2687-01
 	descend	Gonatus	855.89	2682	 	36.698326	-122.05944	1721739	0.34	2005-07-08 18:48:16.0	Ventana	34.481	02:41:19:06	4.417	V2682-03
 	descend	Chaetognatha	330.41	2683	 	36.701214	-122.05006	1756536	1.22	2005-07-11 16:55:24.0	Ventana	34.229	00:43:03:10	7.406	V2683-01
 	transect	Psolus squamatus	 	2687	 	 	 	1808781	 	2005-07-13 17:29:26.0	Ventana	 	00:56:19:00	 	V2687-01
 	transect	Mesomyaria	1000.16	2669	 	36.731968	-122.24715	1735833	0.41	2005-05-25 20:12:55.0	Ventana	34.507	02:34:23:29	4.068	V2669-03
 	ascend	Calycophorae	256.57	2681	 	36.698685	-122.05666	1719114	1.44	2005-07-07 21:23:04.05	Ventana	34.229	04:51:23:17	7.958	V2681-05
 	transect	pseudothecosomata	1001.02	2681	 	36.695763	-122.05186	2498643	0.48	2005-07-07 19:26:38.0	Ventana	34.531	02:56:17:27	3.857	V2681-03HD
 	descend	Aegina	952.78	2683	 	36.703857	-122.04853	1757334	0.42	2005-07-11 19:10:27.0	Ventana	34.514	02:50:48:19	4.049	V2683-03
 	transect	Mesomyaria	801.21	2674	 	36.75099	-122.21829	1803561	0.35	2005-06-08 18:59:28.0	Ventana	34.491	01:43:30:24	4.336	V2674-02
 	descend	sinker	275.07	2681	 	36.69857	-122.05366	1713610	1.37	2005-07-07 17:16:57.233	Ventana	34.222	00:48:05:12	7.694	V2681-01
 	ascend	Appendicularia	346.28	2681	 	36.699333	-122.05517	1718085	1.1	2005-07-07 20:52:57.733	Ventana	34.247	04:21:18:19	7.233	V2681-05
 	transect	Mesomyaria	997.39	2669	 	36.73062	-122.22757	1649183	0.45	2005-05-25 17:57:57.0	Ventana	34.52	00:20:25:08	3.909	V2669-01
 	cruise	Sebastolobus	1206.47	2683	 	36.70712	-122.047676	1757680	0.72	2005-07-11 20:17:09.0	Ventana	34.573	03:51:30:08	3.355	V2683-04
 	transect	Phyllospadix	801.43	2674	 	36.75192	-122.20983	1800959	0.35	2005-06-08 18:19:31.0	Ventana	34.489	01:03:35:22	4.337	V2674-02
 	transect	Mediaster	 	2687	 	 	 	1811337	 	2005-07-13 20:07:56.0	Ventana	 	03:32:56:00	 	V2687-04
 	transect	Mesomyaria	1000.11	2669	 	36.731045	-122.23962	1689168	0.41	2005-05-25 19:25:03.0	Ventana	34.509	01:47:01:24	4.064	V2669-02
 	transect	Sebastolobus altivelis	798.98	2674	 	36.751343	-122.21524	1801411	0.35	2005-06-08 18:44:55.0	Ventana	34.488	01:28:58:13	4.351	V2674-02
 	transect	Appendicularia	400.78	2681	 	36.697216	-122.05285	2493109	0.79	2005-07-07 17:47:08.0	Ventana	34.278	01:17:32:19	6.663	V2681-02HD
 	cruise	Alepocephalus tenebrosus	618.3	2688	 	36.79464	-122.01936	1677309	0.43	2005-07-14 16:30:37.367	Ventana	34.398	00:16:57:10	5.35	V2688-01
 	descend	Appendicularia	389.06	2682	 	36.698395	-122.05989	1720687	0.93	2005-07-08 17:36:09.0	Ventana	34.262	01:29:38:29	6.884	V2682-02
 	transect	Ophiuroidea	1000.47	2669	 	36.732143	-122.24815	1736193	0.41	2005-05-25 20:20:11.0	Ventana	34.51	02:41:39:15	4.06	V2669-03
 	cruise	Glyptocephalus zachirus	435.34	2688	 	36.804806	-122.018654	1677669	0.89	2005-07-14 17:42:42.0	Ventana	34.278	01:28:26:04	6.878	V2688-02
 	ascend	Appendicularia	556.07	2682	 	36.698273	-122.062614	1723605	0.38	2005-07-08 21:08:08.0	Ventana	34.358	05:00:14:07	5.857	V2682-05
 	transect	Psolus squamatus	399.87	2687	 	36.78808	-122.121574	1809187	1.13	2005-07-13 17:36:55.0	Ventana	34.241	01:03:16:26	7.262	V2687-02
 	transect	Calycophorae	600.57	2681	 	36.697163	-122.0529	2493815	0.3	2005-07-07 18:25:18.0	Ventana	34.388	01:55:39:07	5.469	V2681-02HD
 	transect	Sebastolobus	 	2687	 	 	 	1812435	 	2005-07-13 20:38:45.0	Ventana	 	04:03:42:24	 	V2687-04
 	transect	Calycophorae	800.88	2681	 	36.69615	-122.05212	2498237	0.31	2005-07-07 18:59:08.0	Ventana	34.475	02:28:51:07	4.5	V2681-03HD
 	descend	Nanomia	241.99	2693	 	36.69853	-122.06171	1758386	1.5	2005-07-25 19:23:52.0	Ventana	34.238	02:03:53:29	8.515	V2693-02
 	transect	doliolidae	200.42	2681	 	36.69828	-122.05329	2490161	1.7	2005-07-07 17:05:18.0	Ventana	34.197	00:36:26:03	8.358	V2681-01HD
 	transect	molt	100.5	2681	 	36.699734	-122.05423	2489769	2.13	2005-07-07 16:50:09.0	Ventana	34.067	00:21:19:10	9.159	V2681-01HD
 	transect	Caridea sp.1	598.4	2680	 	36.78184	-122.22691	1805065	0.36	2005-06-27 18:41:44.0	Ventana	34.378	01:20:49:14	5.598	V2680-02
 	transect	Poeobius meseres	700.59	2681	 	36.69541	-122.05119	2497937	0.28	2005-07-07 18:46:36.0	Ventana	34.435	02:16:18:13	4.969	V2681-03HD
 	cruise	Rathbunaster californicus	118.99	2688	 	36.813034	-122.018875	1679196	1.97	2005-07-14 19:28:12.0	Ventana	34.097	03:13:00:10	8.929	V2688-04
 	descend	Appendicularia	360.43	2681	 	36.695576	-122.05123	1715054	1.02	2005-07-07 17:31:55.8	Ventana	34.256	01:02:19:15	7.091	V2681-02
 	ascend	Appendicularia	945.76	2681	 	36.69745	-122.05388	1716904	0.41	2005-07-07 19:41:41.0	Ventana	34.516	03:10:44:06	4.065	V2681-04
 	transect	Teuthoidea	400.77	2681	 	36.697556	-122.053246	2493169	0.79	2005-07-07 17:48:37.0	Ventana	34.277	01:18:59:22	6.66	V2681-02HD
 	transect	Mesomyaria	1000.2	2669	 	36.731667	-122.24379	1733953	0.41	2005-05-25 19:48:51.0	Ventana	34.509	02:10:22:22	4.064	V2669-03
 	transect	Ophiuroidea	999.51	2669	 	36.730583	-122.2291	1651047	0.45	2005-05-25 18:07:37.0	Ventana	34.522	00:30:05:04	3.908	V2669-01
 	transect	Porifera sp. 1	 	2687	 	 	 	1809893	 	2005-07-13 18:47:34.0	Ventana	 	02:13:20:12	 	V2687-03
 	ascend	Calycophorae	690.52	2681	 	36.69873	-122.05467	1717610	0.27	2005-07-07 20:21:46.8	Ventana	34.42	03:50:47:16	5.124	V2681-04
 	transect	Phyllospadix	802.21	2674	 	36.751766	-122.21044	1801019	0.35	2005-06-08 18:22:06.0	Ventana	34.491	01:06:11:12	4.328	V2674-02
 	stationary	Merluccius productus	502.31	2694	 	36.7846	-122.20041	1676640	0.85	2005-07-27 20:09:51.0	Ventana	34.273	02:41:59:21	6.674	V2694-03
 	ascend	Appendicularia	520.38	2681	 	36.698963	-122.05425	1717739	0.46	2005-07-07 20:33:39.767	Ventana	34.34	04:02:39:23	6.085	V2681-04
 	transect	Diogenidae	599.27	2680	 	36.777664	-122.22267	1804299	0.36	2005-06-27 17:48:36.0	Ventana	34.379	00:28:44:00	5.584	V2680-01
 	ascend	Chuniphyes	868.35	2681	 	36.69843	-122.055466	1717347	0.35	2005-07-07 19:52:57.7	Ventana	34.5	03:22:00:21	4.309	V2681-04
 	transect	Calycophorae	901.1	2681	 	36.696598	-122.052734	2498297	0.39	2005-07-07 19:08:19.0	Ventana	34.505	02:38:00:07	4.171	V2681-03HD
 	transect	Chionoecetes tanneri	800.95	2674	 	36.750954	-122.21903	1803621	0.35	2005-06-08 19:02:32.0	Ventana	34.494	01:46:34:21	4.341	V2674-02
 	transect	Phyllospadix	1000.22	2669	 	36.73142	-122.24185	1689906	0.4	2005-05-25 19:38:47.0	Ventana	34.51	02:00:44:23	4.076	V2669-02
 	transect	Mesomyaria	999.98	2669	 	36.73111	-122.23529	1684303	0.45	2005-05-25 18:52:40.0	Ventana	34.522	01:14:40:16	3.921	V2669-02
 	transect	Phyllospadix	799.81	2674	 	36.751472	-122.21422	1801351	0.35	2005-06-08 18:40:11.0	Ventana	34.489	01:24:15:11	4.335	V2674-02
 	transect	Mediaster	 	2687	 	 	 	1810991	 	2005-07-13 19:46:54.0	Ventana	 	03:11:55:16	 	V2687-04
 	descend	Cyclothone	540.66	2683	 	36.7016	-122.04915	1756942	0.51	2005-07-11 17:43:40.0	Ventana	34.325	01:27:47:13	6.162	V2683-02
 	ascend	Nanomia	208.97	2693	 	36.691093	-122.06259	1759154	1.74	2005-07-25 21:24:48.0	Ventana	34.201	03:49:20:17	8.677	V2693-04
 	transect	Mediaster	 	2687	 	 	 	1811729	 	2005-07-13 20:22:39.0	Ventana	 	03:47:37:25	 	V2687-04
 	transect	Nanomia bijuga	200.38	2681	 	36.69831	-122.0534	2491213	1.68	2005-07-07 17:12:48.0	Ventana	34.2	00:43:55:13	8.337	V2681-01HD
 	ascend	Appendicularia	602.82	2682	 	36.69865	-122.06146	1723506	0.34	2005-07-08 20:56:03.0	Ventana	34.375	04:48:10:04	5.641	V2682-05
 	transect	Rathbunaster californicus	200.47	2696	 	36.805202	-122.1281	1813579	1.5	2005-08-01 18:01:26.0	Ventana	34.211	01:29:18:10	8.67	V2696-02
 	transect	Psolus squamatus	 	2687	 	 	 	1811466	 	2005-07-13 20:13:52.0	Ventana	 	03:38:51:02	 	V2687-04
 	transect	Ceriantharia sp. 2	999.94	2669	 	36.731766	-122.2444	1734299	0.4	2005-05-25 19:52:18.0	Ventana	34.507	02:13:48:12	4.082	V2669-03
 	descend	Copepoda	827.72	2683	 	36.702744	-122.04861	1757205	0.32	2005-07-11 18:17:29.0	Ventana	34.478	02:01:32:05	4.464	V2683-02
 	transect	Neptunea amianta	800.58	2674	 	36.752605	-122.201775	1799109	0.34	2005-06-08 17:37:41.0	Ventana	34.484	00:22:14:17	4.416	V2674-01
 	ascend	Nanomia	423.63	2683	 	36.704147	-122.05058	1758040	0.88	2005-07-11 21:19:19.0	Ventana	34.265	04:52:10:02	6.843	V2683-05
 	ascend	Appendicularia	387.69	2681	 	36.69933	-122.05459	1718002	0.92	2005-07-07 20:49:01.033	Ventana	34.268	04:17:22:05	6.959	V2681-05
 	transect	Pleurobranchaea californica	199.41	2696	http://search.mbari.org/ARCHIVE/frameGrabs/Ventana/images/2696/01_02_04_19.jpg	36.80382	-122.125114	1813316	1.52	2005-08-01 17:33:47.0	Ventana	34.206	01:02:04:19	8.636	V2696-01
 	transect	Brisaster	 	2687	 	 	 	1810631	 	2005-07-13 19:25:33.0	Ventana	 	02:51:17:05	 	V2687-03
 	transect	Poeobius meseres	1001.04	2681	 	36.695183	-122.05112	2498583	0.48	2005-07-07 19:23:29.0	Ventana	34.533	02:53:10:16	3.836	V2681-03HD
 	transect	Nanomia bijuga	200.49	2681	 	36.69828	-122.05329	2490507	1.71	2005-07-07 17:07:12.0	Ventana	34.197	00:38:20:13	8.341	V2681-01HD
 	endtransect	object	500.59	2681	 	36.69578	-122.05121	1715497	0.43	2005-07-07 18:04:31.607	Ventana	34.348	01:34:53:08	6.007	V2681-02
 	cruise	Chionoecetes tanneri	1003.65	2679	 	36.68986	-122.1656	1824340	0.42	2005-06-16 17:29:44.0	Ventana	34.513	00:01:07:02	4.108	V2679-01
 	transect	Mesomyaria	998.34	2669	 	36.732933	-122.25213	1737337	0.4	2005-05-25 20:46:05.0	Ventana	34.508	03:06:54:11	4.077	V2669-04
 	descend	Calycophorae	759.02	2682	 	36.698414	-122.0597	1721656	0.28	2005-07-08 18:31:19.0	Ventana	34.454	02:24:22:16	4.747	V2682-03
 	transect	Gastropoda sp.2	999.66	2669	 	36.731403	-122.236984	1694704	0.44	2005-05-25 19:06:17.0	Ventana	34.52	01:28:16:19	3.941	V2669-02
 	descend	Euphausiacea	316.76	2682	 	36.698917	-122.06067	1720152	1.14	2005-07-08 17:07:32.0	Ventana	34.24	01:01:04:21	7.276	V2682-02
 	descend	sinker	971.69	2682	 	36.69832	-122.05925	1722002	0.42	2005-07-08 18:56:51.0	Ventana	34.518	02:49:53:16	4.029	V2682-03
 	cruise	Brisingida	593.6	2688	 	36.79336	-122.018265	1677249	0.52	2005-07-14 16:19:59.0	Ventana	34.37	00:06:20:14	5.876	V2688-01
 	descend	Chaetognatha	162.79	2683	 	36.70072	-122.05155	1756296	1.7	2005-07-11 16:29:04.0	Ventana	34.175	00:16:45:23	8.771	V2683-01
 	transect	Phyllospadix	200.46	2696	 	36.80475	-122.127266	1813519	1.51	2005-08-01 17:55:41.0	Ventana	34.213	01:23:33:25	8.671	V2696-02
 	transect	molt	100.5	2681	 	36.699203	-122.05389	2489829	2.13	2005-07-07 16:51:28.0	Ventana	34.068	00:22:37:14	9.141	V2681-01HD
 	descend	Chuniphyes	890.76	2681	 	36.696934	-122.05315	1716498	0.37	2005-07-07 19:05:46.2	Ventana	34.502	02:35:28:27	4.201	V2681-03
 	transect	Mesomyaria	997.67	2669	 	36.7306	-122.22714	1649100	0.45	2005-05-25 17:54:59.0	Ventana	34.522	00:17:28:11	3.909	V2669-01
 	ascend	Appendicularia	737.83	2681	 	36.698734	-122.055534	1717550	0.26	2005-07-07 20:16:12.467	Ventana	34.442	03:45:14:01	4.855	V2681-04
 	transect	Psolus squamatus	 	2687	 	 	 	1808721	 	2005-07-13 17:27:50.0	Ventana	 	00:54:42:28	 	V2687-01
 	transect	Mesomyaria	998.19	2669	 	36.73113	-122.23103	1683505	0.45	2005-05-25 18:22:44.0	Ventana	34.522	00:45:10:11	3.914	V2669-01
 	ascend	Crustacea	933.24	2682	 	36.697857	-122.05851	1723100	0.4	2005-07-08 20:11:35.0	Ventana	34.51	04:03:44:23	4.141	V2682-05
 	descend	Leuroglossus stilbius	500.94	2683	 	36.701492	-122.04939	1756799	0.69	2005-07-11 17:25:33.0	Ventana	34.303	01:09:40:23	6.471	V2683-02
 	transect	Ophiuroidea	999.96	2669	 	36.73097	-122.23305	1683851	0.45	2005-05-25 18:37:04.0	Ventana	34.522	00:59:29:26	3.911	V2669-01
 	transect	Psolus squamatus	 	2687	 	 	 	1812375	 	2005-07-13 20:35:06.0	Ventana	 	04:00:03:25	 	V2687-04
 	transect	Mesomyaria	999.58	2669	 	36.731323	-122.23592	1684446	0.44	2005-05-25 18:57:03.0	Ventana	34.52	01:19:02:22	3.936	V2669-02
 	ascend	ink	753.47	2682	 	36.698784	-122.05916	1723303	0.29	2005-07-08 20:28:42.0	Ventana	34.444	04:20:50:22	4.838	V2682-05
 	descend	Copepoda	429.15	2682	 	36.6982	-122.059746	1720747	0.68	2005-07-08 17:45:15.0	Ventana	34.291	01:38:44:27	6.464	V2682-02
 	transect	Nanomia bijuga	200.41	2681	 	36.698284	-122.05331	2490927	1.71	2005-07-07 17:09:55.0	Ventana	34.195	00:41:02:23	8.323	V2681-01HD
 	cruise	Ceriantharia sp. 1	208.03	2688	 	36.810314	-122.02099	1677955	1.73	2005-07-14 18:34:11.0	Ventana	34.162	02:19:26:17	8.683	V2688-03
 	transect	Phyllospadix	999.91	2669	 	36.731064	-122.23882	1689071	0.43	2005-05-25 19:20:18.0	Ventana	34.518	01:42:16:08	3.962	V2669-02
 	transect	Allocentrotus fragilis	 	2687	 	 	 	1811277	 	2005-07-13 20:05:34.0	Ventana	 	03:30:33:21	 	V2687-04
 	ascend	Hastigerinella digitata	362.74	2693	 	36.694256	-122.06101	1758868	1.24	2005-07-25 21:02:07.0	Ventana	34.235	03:26:40:04	7.371	V2693-04
 	transect	Mesomyaria	999.52	2669	 	36.73072	-122.229515	1651107	0.45	2005-05-25 18:10:30.0	Ventana	34.522	00:32:57:18	3.907	V2669-01
 	cruise	Osteichthyes	1016.64	2689	 	36.771584	-122.08293	1669676	0.51	2005-07-18 16:54:39.0	Ventana	34.535	00:17:43:05	3.825	V2689-01
 	ascend	sinker	633.02	2683	 	36.705	-122.05022	1757943	0.3	2005-07-11 21:10:17.0	Ventana	34.4	04:43:08:21	5.397	V2683-05
 	descend	Hormiphora	198.98	2681	 	36.69828	-122.05329	1713550	1.81	2005-07-07 17:03:45.167	Ventana	34.188	00:34:54:05	8.349	V2681-01
 	descend	Appendicularia	1012.63	2683	 	36.704395	-122.049934	1757394	0.44	2005-07-11 19:22:34.0	Ventana	34.521	03:02:55:16	3.99	V2683-03
 	transect	Phyllospadix	999.66	2669	 	36.731426	-122.23658	1684806	0.44	2005-05-25 19:02:49.0	Ventana	34.52	01:24:48:24	3.937	V2669-02
 	ascend	Salpida	371.0	2693	 	36.6962	-122.060844	1758649	1.2	2005-07-25 20:25:12.0	Ventana	34.232	03:04:45:19	7.165	V2693-03
 	transect	Psolus squamatus	 	2687	 	 	 	1810022	 	2005-07-13 18:51:13.0	Ventana	 	02:16:58:24	 	V2687-03
 	transect	Phyllospadix	999.67	2669	 	36.730927	-122.23154	1683648	0.45	2005-05-25 18:27:40.0	Ventana	34.522	00:50:06:05	3.912	V2669-01
 	transect	Mediaster	 	2687	 	 	 	1812578	 	2005-07-13 20:46:03.0	Ventana	 	04:10:33:16	 	V2687-05
 	transect	Mediaster	 	2687	 	 	 	1807074	 	2005-07-13 16:57:57.0	Ventana	 	00:24:51:09	 	V2687-01
 	transect	Allocentrotus fragilis	 	2687	 	 	 	1810571	 	2005-07-13 19:22:37.0	Ventana	 	02:48:21:07	 	V2687-03
 	descend	Sergestes similis	 	2693	 	 	 	1759417	 	2005-07-25 16:43:47.0	Ventana	 	00:22:22:10	 	V2693-01
 	ascend	Nanomia	258.17	2681	 	36.697838	-122.05522	1719446	 	2005-07-07 21:29:59.0	Ventana	 	05:05:16:25	 	V2681-05
 	transect	Mediaster	 	2687	 	 	 	1810728	 	2005-07-13 19:29:52.0	Ventana	 	02:55:35:16	 	V2687-03
 	cruise	Actiniaria	500.48	2695	 	36.783943	-122.199905	1824400	0.89	2005-07-28 16:58:17.0	Ventana	34.266	00:04:39:09	6.719	V2695-01
 	transect	Calycophorae	300.41	2681	 	36.696068	-122.051704	2492574	1.24	2005-07-07 17:28:13.0	Ventana	34.233	00:59:19:15	7.427	V2681-01HD
 	ascend	Chaetognatha	246.47	2683	 	36.703007	-122.050705	1758100	1.64	2005-07-11 21:27:00.0	Ventana	34.196	04:59:51:07	8.024	V2683-05
 	transect	Phyllospadix	203.48	2696	 	36.80526	-122.1282	1813676	1.48	2005-08-01 18:14:25.0	Ventana	34.216	01:42:16:25	8.634	V2696-02
 	transect	molt	100.55	2681	 	36.69983	-122.05429	2489626	2.13	2005-07-07 16:46:36.0	Ventana	34.068	00:17:46:09	9.144	V2681-01HD
 	transect	Actiniaria sp. 3	 	2687	 	 	 	1807623	 	2005-07-13 17:18:32.0	Ventana	 	00:45:24:28	 	V2687-01
 	transect	Psolus squamatus	 	2687	http://search.mbari.org/ARCHIVE/frameGrabs/Ventana/images/2687/03_40_03_15.jpg	 	 	1811526	 	2005-07-13 20:15:04.0	Ventana	 	03:40:03:15	 	V2687-04
 	transect	Mesomyaria	997.33	2669	 	36.73066	-122.22783	1649243	0.45	2005-05-25 17:59:40.0	Ventana	34.522	00:22:08:05	3.907	V2669-01
 	transect	Porifera	399.7	2687	 	36.789356	-122.12492	1809630	1.15	2005-07-13 18:27:04.0	Ventana	34.24	01:53:23:03	7.314	V2687-02
 	transect	Mesomyaria	1000.5	2669	 	36.73124	-122.24102	1689371	0.41	2005-05-25 19:34:10.0	Ventana	34.51	01:56:07:20	4.055	V2669-02
 	transect	Neptunea amianta	800.44	2674	 	36.752563	-122.20219	1799169	0.33	2005-06-08 17:39:34.0	Ventana	34.476	00:24:07:18	4.446	V2674-01
 	descend	Appendicularia	789.77	2683	 	36.702595	-122.04884	1757145	0.36	2005-07-11 17:59:47.0	Ventana	34.457	01:43:52:07	4.69	V2683-02
 	transect	Mediaster	 	2687	 	 	 	1812781	 	2005-07-13 20:57:14.0	Ventana	 	04:21:44:10	 	V2687-05
 	cruise	Chionoecetes tanneri	1017.77	2689	 	36.771545	-122.08294	1669879	0.52	2005-07-18 17:26:12.0	Ventana	34.532	00:49:14:11	3.776	V2689-01
 	descend	Lensia	243.76	2683	 	36.70096	-122.050606	1756439	1.7	2005-07-11 16:50:10.0	Ventana	34.189	00:37:50:16	8.054	V2683-01
 	ascend	Cydippida	193.56	2693	 	36.69061	-122.06286	1759214	1.82	2005-07-25 21:28:51.0	Ventana	34.177	03:53:23:14	8.866	V2693-04
 	transect	Psolus squamatus	 	2687	 	 	 	1810931	 	2005-07-13 19:43:04.0	Ventana	 	03:08:05:21	 	V2687-04
 	ascend	Appendicularia	1004.97	2682	 	36.69773	-122.05823	1722897	0.46	2005-07-08 20:05:35.0	Ventana	34.523	03:58:10:02	3.93	V2682-04
 	descend	Appendicularia	374.44	2683	 	36.70142	-122.04981	1756596	1.06	2005-07-11 16:57:53.0	Ventana	34.243	00:45:32:07	7.008	V2683-01
 	transect	Mediaster	 	2687	 	 	 	1812232	 	2005-07-13 20:29:38.0	Ventana	 	03:54:36:10	 	V2687-04
 	transect	Psolus squamatus	 	2687	 	 	 	1808924	 	2005-07-13 17:32:07.0	Ventana	 	00:58:59:07	 	V2687-01
 	transect	Ophiuroidea	999.32	2669	 	36.731083	-122.23504	1684243	0.45	2005-05-25 18:50:26.0	Ventana	34.522	01:12:26:05	3.924	V2669-02
 	transect	Psolus squamatus	 	2687	 	 	 	1808578	 	2005-07-13 17:24:19.0	Ventana	 	00:51:11:19	 	V2687-01
 	transect	Psolus squamatus	399.84	2687	 	36.788048	-122.12153	1809127	1.13	2005-07-13 17:35:58.0	Ventana	34.244	01:02:20:13	7.27	V2687-02
 	transect	Ceriantharia sp. 2	1000.1	2669	 	36.73122	-122.23843	1688868	0.43	2005-05-25 19:17:57.0	Ventana	34.516	01:39:55:20	3.966	V2669-02
 	descend	Appendicularia	544.03	2682	 	36.69862	-122.05976	1720890	0.36	2005-07-08 18:04:33.0	Ventana	34.368	01:58:01:11	5.737	V2682-02
 	transect	Mesomyaria	800.22	2674	 	36.752083	-122.208824	1800816	0.35	2005-06-08 18:13:34.0	Ventana	34.489	00:58:05:05	4.334	V2674-01
 	ascend	Appendicularia	585.33	2682	 	36.698826	-122.06031	1723446	0.4	2005-07-08 20:42:27.0	Ventana	34.371	04:34:35:20	5.672	V2682-05
 	ascend	Appendicularia	422.98	2681	 	36.699203	-122.05421	1717942	0.78	2005-07-07 20:44:29.673	Ventana	34.277	04:13:06:04	6.638	V2681-05
 	transect	Ceriantharia sp. 1	599.35	2680	 	36.77932	-122.2244	1804502	0.36	2005-06-27 18:08:30.0	Ventana	34.378	00:48:36:04	5.6	V2680-01
 	transect	Ophiuroidea	998.36	2669	 	36.730957	-122.2301	1651250	0.45	2005-05-25 18:15:03.0	Ventana	34.522	00:37:30:19	3.912	V2669-01
 	transect	Brisaster	603.19	2680	 	36.788918	-122.23247	1805976	0.35	2005-06-27 20:04:59.0	Ventana	34.379	02:43:36:16	5.588	V2680-03
 	ascend	Appendicularia	957.82	2681	 	36.69728	-122.05371	1716844	0.42	2005-07-07 19:39:54.733	Ventana	34.517	03:08:58:16	4.043	V2681-04
 	cruise	Anoplopoma fimbria	581.68	2688	http://search.mbari.org/ARCHIVE/frameGrabs/Ventana/images/2688/00_39_06_27.jpg	36.796947	-122.02006	1677406	0.49	2005-07-14 16:52:50.0	Ventana	34.365	00:39:06:27	5.774	V2688-01
 	transect	Mediaster	 	2687	 	 	 	1811872	 	2005-07-13 20:27:51.0	Ventana	 	03:52:49:28	 	V2687-04
 	transect	Rathbunaster californicus	196.66	2696	 	36.803345	-122.12339	1813173	1.55	2005-08-01 17:15:20.0	Ventana	34.201	00:43:37:19	8.623	V2696-01
 	transect	Phyllospadix	799.24	2674	 	36.752525	-122.204216	1799515	0.35	2005-06-08 17:50:10.0	Ventana	34.483	00:34:43:02	4.379	V2674-01
 	transect	molt	200.37	2681	 	36.69829	-122.05334	2491070	1.7	2005-07-07 17:11:26.0	Ventana	34.196	00:42:34:11	8.332	V2681-01HD
 	transect	apolemia	700.65	2681	 	36.696484	-122.05241	2497734	0.28	2005-07-07 18:41:47.0	Ventana	34.434	02:11:30:21	4.959	V2681-03HD
 	ascend	Appendicularia	325.36	2681	 	36.699703	-122.055244	1718145	1.21	2005-07-07 20:56:38.033	Ventana	34.237	04:24:59:06	7.367	V2681-05
 	transect	Diogenidae	598.88	2680	 	36.780506	-122.22545	1804705	0.35	2005-06-27 18:23:49.0	Ventana	34.381	01:02:55:29	5.567	V2680-02
 	transect	Psolus squamatus	399.88	2687	 	36.788136	-122.1217	1809284	1.13	2005-07-13 17:38:18.0	Ventana	34.25	01:04:39:26	7.281	V2687-02
 	descend	Chaetognatha	290.91	2693	 	36.697838	-122.06125	1758446	1.35	2005-07-25 19:37:28.0	Ventana	34.237	02:17:02:29	7.852	V2693-03
 	stationary	Lycodes cortezianus	204.89	2696	 	36.80769	-122.131325	1813879	1.46	2005-08-01 18:46:58.0	Ventana	34.223	02:14:02:20	8.63	V2696-03
 	transect	molt	50.43	2681	 	36.699825	-122.05429	2485550	2.94	2005-07-07 16:34:45.0	Ventana	33.927	00:05:54:15	9.617	V2681-01HD
 	transect	Allocentrotus fragilis	 	2687	 	 	 	1810225	 	2005-07-13 19:10:35.0	Ventana	 	02:36:19:05	 	V2687-03
 	descend	Calycophorae	776.55	2681	 	36.6949	-122.05055	1716295	0.32	2005-07-07 18:51:16.367	Ventana	34.459	02:20:59:14	4.678	V2681-03
 	ascend	Appendicularia	513.5	2682	 	36.698357	-122.06315	1723665	0.47	2005-07-08 21:12:52.0	Ventana	34.34	05:04:32:12	6.109	V2682-06
 	transect	Ceriantharia sp. 1	599.74	2680	 	36.783497	-122.22894	1805411	0.35	2005-06-27 19:07:58.0	Ventana	34.38	01:47:01:19	5.583	V2680-02
 	descend	Aegina	604.61	2681	 	36.695667	-122.05103	1715903	0.3	2005-07-07 18:17:07.233	Ventana	34.388	01:47:28:19	5.475	V2681-02
 	transect	Phyllospadix	 	2687	 	 	 	1809833	 	2005-07-13 18:44:54.0	Ventana	 	02:10:40:17	 	V2687-03
 	descend	Chuniphyes	937.93	2682	 	36.69826	-122.059364	1721799	0.36	2005-07-08 18:53:32.0	Ventana	34.5	02:46:34:21	4.24	V2682-03
 	transect	Mesomyaria	 	2669	 	 	 	1737637	 	2005-05-25 13:54:06.0	Ventana	 	03:14:53:26	 	V2669-04
 	stationary	mud	601.62	2680	 	36.79188	-122.23304	1806885	0.35	2005-06-27 20:33:09.0	Ventana	34.379	03:11:44:28	5.582	V2680-03
 	transect	Appendicularia	400.8	2681	 	36.69589	-122.0513	2492920	0.79	2005-07-07 17:41:23.0	Ventana	34.276	01:11:46:15	6.665	V2681-02HD
 	cruise	Laminariales	516.8	2688	http://search.mbari.org/ARCHIVE/frameGrabs/Ventana/images/2688/01_02_46_29.jpg	36.80039	-122.019165	1677512	0.67	2005-07-14 17:16:32.0	Ventana	34.311	01:02:46:29	6.394	V2688-01
 	transect	molt	100.55	2681	 	36.69983	-122.05429	2489589	2.12	2005-07-07 16:45:36.0	Ventana	34.068	00:16:44:20	9.151	V2681-01HD
 	transect	Mesomyaria	997.53	2669	 	36.730614	-122.22813	1649340	0.45	2005-05-25 18:01:19.0	Ventana	34.521	00:23:47:21	3.907	V2669-01
 	transect	Ophiuroidea	1000.42	2669	 	36.731533	-122.2428	1694538	0.4	2005-05-25 19:43:25.0	Ventana	34.51	02:05:22:14	4.087	V2669-02
 	transect	Ceriantharia sp. 1	800.27	2674	 	36.75176	-122.21194	1801162	0.35	2005-06-08 18:27:52.0	Ventana	34.488	01:11:56:18	4.343	V2674-02
 	transect	Phyllospadix	203.61	2696	 	36.806576	-122.13016	1813782	1.48	2005-08-01 18:29:42.0	Ventana	34.216	01:57:32:23	8.647	V2696-02
 	transect	Ophiuroidea	1000.24	2669	 	36.73162	-122.243286	1733810	0.41	2005-05-25 19:46:17.0	Ventana	34.51	02:07:47:03	4.065	V2669-03
 	ascend	Siphonophora	823.63	2683	 	36.70669	-122.04863	1757837	0.36	2005-07-11 21:00:16.0	Ventana	34.491	04:33:09:00	4.337	V2683-05
 	transect	Psolus squamatus	 	2687	 	 	 	1808961	 	2005-07-13 17:32:41.0	Ventana	 	00:59:33:03	 	V2687-01
 	transect	Allocentrotus fragilis	 	2687	 	 	 	1810834	 	2005-07-13 19:35:55.0	Ventana	 	03:01:37:21	 	V2687-03
 	ascend	Appendicularia	770.05	2681	 	36.69864	-122.056206	1717490	0.28	2005-07-07 20:09:27.167	Ventana	34.452	03:38:29:04	4.763	V2681-04
 	transect	Sergestes similis	300.43	2681	 	36.697678	-122.05311	2492168	1.23	2005-07-07 17:22:37.0	Ventana	34.234	00:53:43:09	7.4	V2681-01HD
 	transect	Ceriantharia sp. 1	601.66	2680	 	36.77667	-122.222	1804110	0.36	2005-06-27 17:36:56.0	Ventana	34.381	00:17:04:18	5.578	V2680-01
 	transect	Nanomia bijuga	200.46	2681	 	36.69828	-122.05329	2490341	1.7	2005-07-07 17:07:04.0	Ventana	34.198	00:38:12:21	8.347	V2681-01HD
 	transect	Radiolaria	901.01	2681	 	36.69535	-122.05108	2498463	0.39	2005-07-07 19:14:27.0	Ventana	34.505	02:44:08:21	4.171	V2681-03HD
 	transect	Mesomyaria	998.32	2669	 	36.73116	-122.23458	1684160	0.45	2005-05-25 18:46:43.0	Ventana	34.521	01:08:43:19	3.916	V2669-02
 	transect	Brisaster	999.75	2669	 	36.73137	-122.237366	1687491	0.44	2005-05-25 19:09:26.0	Ventana	34.519	01:31:25:00	3.945	V2669-02
 	descend	Aegina	703.66	2683	 	36.702095	-122.048935	1757085	0.31	2005-07-11 17:54:30.0	Ventana	34.422	01:38:34:15	5.071	V2683-02
 	transect	Ceriantharia sp. 1	600.76	2680	 	36.784554	-122.22993	1805630	0.36	2005-06-27 19:19:16.0	Ventana	34.376	01:58:19:21	5.599	V2680-02
 	transect	Phyllospadix	798.9	2674	 	36.75174	-122.21248	1801208	0.35	2005-06-08 18:29:45.0	Ventana	34.49	01:13:49:05	4.33	V2674-02
 	transect	Psolus squamatus	 	2687	 	 	 	1812661	 	2005-07-13 20:50:02.0	Ventana	 	04:14:32:27	 	V2687-05
 	transect	Mesomyaria	800.25	2674	 	36.752533	-122.20343	1799335	0.35	2005-06-08 17:46:01.0	Ventana	34.483	00:30:34:21	4.371	V2674-01
 	transect	Lycenchelys camchatica	800.93	2674	 	36.752563	-122.201294	1774187	0.35	2005-06-08 17:35:05.0	Ventana	34.488	00:19:38:16	4.378	V2674-01
 	descend	Copepoda	1232.07	2683	 	36.706154	-122.04811	1757514	0.73	2005-07-11 19:46:07.0	Ventana	34.574	03:20:30:26	3.345	V2683-04
 	transect	Mediaster	 	2687	 	 	 	1811157	 	2005-07-13 19:57:34.0	Ventana	 	03:22:34:10	 	V2687-04
 	ascend	Appendicularia	635.86	2682	 	36.69887	-122.05972	1723386	0.3	2005-07-08 20:36:37.0	Ventana	34.389	04:28:45:16	5.407	V2682-05
 	descend	Hormiphora	160.67	2693	 	36.696274	-122.05775	1758206	1.99	2005-07-25 17:57:36.0	Ventana	34.118	00:38:07:23	8.961	V2693-01
 	transect	Mediaster	399.92	2687	 	36.788136	-122.1218	1809330	1.13	2005-07-13 17:39:37.0	Ventana	34.241	01:05:58:27	7.267	V2687-02
 	transect	Calycophorae	300.43	2681	 	36.6965	-122.05209	2492537	1.23	2005-07-07 17:26:40.0	Ventana	34.233	00:57:48:06	7.398	V2681-01HD
 	transect	Lycenchelys camchatica	999.98	2669	 	36.73189	-122.24599	1735607	0.41	2005-05-25 20:03:21.0	Ventana	34.51	02:24:50:25	4.059	V2669-03
 	transect	Mesomyaria	799.9	2674	 	36.75131	-122.21555	1803358	0.35	2005-06-08 18:46:29.0	Ventana	34.491	01:30:32:23	4.341	V2674-02
 	transect	Rathbunaster californicus	199.63	2696	 	36.804283	-122.126144	1813413	1.52	2005-08-01 17:44:29.0	Ventana	34.209	01:12:22:20	8.664	V2696-02
 	transect	Mesomyaria	1000.12	2669	 	36.73094	-122.23261	1683791	0.45	2005-05-25 18:34:31.0	Ventana	34.521	00:56:56:26	3.911	V2669-01
 	transect	Porifera sp. 1	 	2687	 	 	 	1810465	 	2005-07-13 19:18:54.0	Ventana	 	02:44:38:05	 	V2687-03
 	transect	Mesomyaria	998.21	2669	 	36.732975	-122.25235	1737434	0.4	2005-05-25 20:47:29.0	Ventana	34.508	03:08:17:16	4.076	V2669-04
 	cruise	Eptatretus	1015.8	2689	 	36.771523	-122.083	1669713	0.53	2005-07-18 17:03:44.0	Ventana	34.539	00:26:47:12	3.754	V2689-01
 	transect	Lycodapus	599.3	2680	 	36.77914	-122.224266	1804479	0.36	2005-06-27 18:06:49.0	Ventana	34.378	00:46:53:20	5.601	V2680-01
 	transect	Salpida	400.81	2681	 	36.696148	-122.051605	2492966	0.79	2005-07-07 17:42:37.0	Ventana	34.277	01:13:01:05	6.661	V2681-02HD
 	transect	Mesomyaria	800.33	2674	 	36.752045	-122.208954	1800839	0.35	2005-06-08 18:14:14.0	Ventana	34.49	00:58:46:00	4.329	V2674-01
 	transect	Phyllospadix	997.98	2669	 	36.733105	-122.25297	1737540	0.4	2005-05-25 20:50:44.0	Ventana	34.509	03:11:31:17	4.075	V2669-04
 	descend	Appendicularia	527.46	2682	 	36.698605	-122.059784	1720867	0.38	2005-07-08 18:02:26.0	Ventana	34.362	01:55:55:25	5.823	V2682-02
 	cruise	boulder	105.74	2688	http://search.mbari.org/ARCHIVE/frameGrabs/Ventana/images/2688/02_48_06_19.jpg	36.81503	-122.02412	20005227	1.95	2005-07-14 19:02:53.0	Ventana	34.091	02:48:06:19	8.89	V2688-03
 	transect	Mesomyaria	799.78	2674	 	36.75247	-122.20527	1799764	0.35	2005-06-08 17:56:17.0	Ventana	34.487	00:40:49:21	4.365	V2674-01
 	transect	Caridea sp.1	603.06	2680	 	36.788307	-122.23223	1805953	0.36	2005-06-27 19:58:27.0	Ventana	34.378	02:37:05:01	5.594	V2680-03
 	transect	Mesomyaria	800.74	2674	 	36.751102	-122.21693	1803464	0.35	2005-06-08 18:53:09.0	Ventana	34.495	01:37:12:15	4.351	V2674-02
 	ascend	Calycophorae	304.27	2681	 	36.69968	-122.05525	1718182	1.31	2005-07-07 20:58:53.18	Ventana	34.229	04:27:13:21	7.631	V2681-05
 	transect	Euphausia	200.39	2681	 	36.698288	-122.05333	2491033	1.7	2005-07-07 17:11:04.0	Ventana	34.196	00:42:10:15	8.332	V2681-01HD
 	ascend	Poeobius meseres	897.69	2681	 	36.698036	-122.05485	1717167	0.37	2005-07-07 19:49:13.033	Ventana	34.505	03:18:16:08	4.207	V2681-04
 	transect	Mesomyaria	805.1	2674	 	36.750645	-122.22132	1803727	0.33	2005-06-08 19:13:48.0	Ventana	34.479	01:57:49:16	4.419	V2674-02
 	transect	Poeobius meseres	600.61	2681	 	36.696285	-122.05189	2493718	0.3	2005-07-07 18:21:19.0	Ventana	34.387	01:51:39:29	5.489	V2681-02HD
 	transect	Mesomyaria	999.44	2669	 	36.73133	-122.23592	1684483	0.44	2005-05-25 18:57:06.0	Ventana	34.52	01:19:05:22	3.936	V2669-02
 	transect	Nanomia bijuga	200.44	2681	 	36.69828	-122.0533	2490770	1.73	2005-07-07 17:08:43.0	Ventana	34.193	00:39:50:23	8.321	V2681-01HD
 	transect	Pennatulacea sp.1	602.38	2680	 	36.790367	-122.23272	1806765	0.35	2005-06-27 20:18:50.0	Ventana	34.379	02:57:26:17	5.587	V2680-03
 	cruise	Rathbunaster californicus	192.12	2676	 	36.80738	-122.02961	1676820	1.6	2005-06-14 17:46:26.0	Ventana	34.199	01:26:10:09	8.095	V2676-02
 	descend	Nanomia	205.8	2683	 	36.701027	-122.0509	1756393	1.71	2005-07-11 16:47:38.0	Ventana	34.188	00:35:17:11	8.298	V2683-01
 	transect	Allocentrotus fragilis	 	2687	 	 	 	1812278	 	2005-07-13 20:30:40.0	Ventana	 	03:55:38:13	 	V2687-04
 	transect	Ophiuroidea	997.75	2669	 	36.731155	-122.23087	1683468	0.45	2005-05-25 18:21:41.0	Ventana	34.519	00:44:07:25	3.927	V2669-01
 	descend	Praya	71.11	2681	 	36.69983	-122.05429	1713467	2.66	2005-07-07 16:41:25.0	Ventana	33.987	00:12:34:27	9.405	V2681-01
 	descend	Appendicularia	400.26	2681	 	36.695637	-122.05105	1715234	0.79	2005-07-07 17:37:43.9	Ventana	34.278	01:08:06:22	6.674	V2681-02
 	transect	Mesomyaria	801.48	2674	 	36.75227	-122.207146	1800027	0.36	2005-06-08 18:05:30.0	Ventana	34.487	00:50:01:21	4.367	V2674-01
 	transect	Rathbunaster californicus	203.56	2696	 	36.807484	-122.13114	1813842	1.46	2005-08-01 18:42:13.0	Ventana	34.22	02:09:18:15	8.622	V2696-03
 	transect	Calycophorae	300.42	2681	 	36.695827	-122.05144	2492597	1.24	2005-07-07 17:29:15.0	Ventana	34.232	01:00:21:14	7.431	V2681-01HD
 	transect	Prayidae	100.52	2681	 	36.69983	-122.05429	2489649	2.13	2005-07-07 16:47:04.0	Ventana	34.069	00:18:13:28	9.144	V2681-01HD
 	transect	Mesomyaria	998.85	2669	 	36.730865	-122.229675	1651153	0.45	2005-05-25 18:12:05.0	Ventana	34.522	00:34:32:15	3.907	V2669-01
 	ascend	Acanthamunnopsis milleri	261.63	2681	 	36.699432	-122.05457	1718551	1.42	2005-07-07 21:12:07.067	Ventana	34.232	04:40:26:23	7.94	V2681-05
 	cruise	Cydippida 2	438.96	2676	 	36.803246	-122.02924	1676361	0.63	2005-06-14 16:39:51.0	Ventana	34.327	00:23:59:18	6.38	V2676-01
 	transect	Ophiuroidea	999.18	2669	 	36.731377	-122.23607	1684543	0.44	2005-05-25 18:58:04.0	Ventana	34.52	01:20:03:19	3.939	V2669-02
 	transect	Chionoecetes tanneri	800.38	2674	 	36.752426	-122.204704	1799658	0.36	2005-06-08 17:53:16.0	Ventana	34.488	00:37:48:24	4.355	V2674-01
 	transect	Caridea sp.1	599.47	2680	 	36.779583	-122.22466	1804539	0.36	2005-06-27 18:11:33.0	Ventana	34.379	00:51:38:25	5.595	V2680-01
 	transect	Liponema brevicornis	 	2687	 	 	 	1809976	 	2005-07-13 18:49:21.0	Ventana	 	02:15:07:08	 	V2687-03
 	descend	Appendicularia	291.86	2682	 	36.699333	-122.06064	1720115	1.22	2005-07-08 16:53:26.0	Ventana	34.236	00:47:28:26	7.448	V2682-01
 	descend	Appendicularia	467.05	2683	 	36.701546	-122.04935	1756762	0.77	2005-07-11 17:13:53.0	Ventana	34.287	01:01:32:17	6.654	V2683-01
 	transect	Mesomyaria	999.53	2669	 	36.730995	-122.23233	1683731	0.45	2005-05-25 18:31:52.0	Ventana	34.52	00:54:17:24	3.918	V2669-01
 	transect	Phyllospadix	1000.29	2669	 	36.731995	-122.24642	1735667	0.41	2005-05-25 20:07:17.0	Ventana	34.509	02:28:46:13	4.065	V2669-03
 	transect	Psolus squamatus	 	2687	 	 	 	1807134	 	2005-07-13 17:01:25.0	Ventana	 	00:28:19:07	 	V2687-01
 	transect	Mesomyaria	800.32	2674	 	36.75209	-122.208595	1800779	0.36	2005-06-08 18:12:24.0	Ventana	34.49	00:56:55:15	4.319	V2674-01
 	transect	Psolus squamatus	 	2687	 	 	 	1807028	 	2005-07-13 16:54:51.0	Ventana	 	00:21:45:05	 	V2687-01
 	ascend	Appendicularia	792.75	2681	 	36.699028	-122.05656	1717430	0.32	2005-07-07 20:02:32.933	Ventana	34.467	03:31:35:10	4.641	V2681-04
 	transect	molt	200.45	2681	 	36.69828	-122.05329	2490664	1.73	2005-07-07 17:08:07.0	Ventana	34.193	00:39:15:13	8.328	V2681-01HD
 	transect	cydippida	500.59	2681	 	36.696213	-122.05174	2493612	0.43	2005-07-07 18:02:23.0	Ventana	34.348	01:32:45:27	6.012	V2681-02HD
 	starttransect	object	196.47	2696	 	36.802658	-122.12168	1813030	1.55	2005-08-01 16:57:39.0	Ventana	34.201	00:25:58:14	8.597	V2696-01
 	transect	Rathbunaster californicus	200.15	2696	 	36.80457	-122.126816	1813473	1.51	2005-08-01 17:51:06.0	Ventana	34.21	01:18:59:17	8.665	V2696-02
 	descend	Poeobius meseres	534.85	2681	 	36.695675	-122.05106	1715603	0.39	2005-07-07 18:05:45.187	Ventana	34.356	01:36:07:08	5.823	V2681-02
 	transect	Porifera sp. 1	 	2687	 	 	 	1810082	 	2005-07-13 18:55:06.0	Ventana	 	02:20:51:21	 	V2687-03
 	ascend	Aegina	709.99	2682	 	36.69884	-122.05934	1723326	0.28	2005-07-08 20:31:33.0	Ventana	34.427	04:23:41:05	5.0	V2682-05
 	ascend	Appendicularia	604.2	2682	 	36.698627	-122.06162	1723522	0.34	2005-07-08 20:57:05.0	Ventana	34.375	04:49:12:06	5.634	V2682-05
 	descend	Prayidae	362.32	2693	 	36.69705	-122.05986	1758589	1.23	2005-07-25 20:00:04.0	Ventana	34.223	02:39:40:00	7.333	V2693-03
 	transect	Ceriantharia sp. 1	598.53	2680	 	36.78244	-122.227615	1805171	0.35	2005-06-27 18:50:33.0	Ventana	34.377	01:29:37:29	5.587	V2680-02
 	transect	chuniphyes	700.65	2681	 	36.697323	-122.0532	2497651	0.29	2005-07-07 18:38:24.0	Ventana	34.435	02:08:06:07	4.944	V2681-03HD
 	transect	Appendicularia	400.75	2681	 	36.69659	-122.05213	2493026	0.79	2005-07-07 17:44:34.0	Ventana	34.277	01:14:56:29	6.648	V2681-02HD
 	transect	Ophiuroidea	1000.18	2669	 	36.731186	-122.240555	1689274	0.41	2005-05-25 19:31:03.0	Ventana	34.51	01:53:00:15	4.058	V2669-02
 	transect	molt	100.49	2681	 	36.698997	-122.05376	2489852	2.12	2005-07-07 16:51:56.0	Ventana	34.07	00:23:05:12	9.148	V2681-01HD
 	transect	Chionoecetes tanneri	1000.27	2669	 	36.731308	-122.24156	1689823	0.4	2005-05-25 19:37:04.0	Ventana	34.507	01:59:01:27	4.091	V2669-02
 	transect	Mesomyaria	801.51	2674	 	36.751965	-122.209335	1800899	0.36	2005-06-08 18:16:14.0	Ventana	34.491	01:00:46:00	4.321	V2674-01
 	cruise	mud	382.71	2690	 	36.790127	-121.88781	1669976	0.94	2005-07-18 19:49:24.0	Ventana	34.269	01:04:31:13	6.95	V2690-01
 	transect	Phyllospadix	801.05	2674	 	36.752136	-122.208206	1800719	0.35	2005-06-08 18:10:35.0	Ventana	34.489	00:55:06:12	4.328	V2674-01
 	transect	molt	200.39	2681	 	36.698284	-122.053314	2490973	1.7	2005-07-07 17:10:21.0	Ventana	34.194	00:41:30:01	8.329	V2681-01HD
 	transect	Psolus squamatus	 	2687	 	 	 	1809021	 	2005-07-13 17:33:43.0	Ventana	 	01:00:35:14	 	V2687-01
 	transect	Psolus squamatus	399.86	2687	 	36.788113	-122.12162	1809224	1.13	2005-07-13 17:37:21.0	Ventana	34.243	01:03:43:12	7.255	V2687-02
 	ascend	Nanomia	165.61	2693	 	36.69066	-122.06298	1759251	1.95	2005-07-25 21:30:40.0	Ventana	34.119	03:55:11:10	8.93	V2693-04
 	transect	Psolus squamatus	 	2687	 	 	 	1810894	 	2005-07-13 19:41:34.0	Ventana	 	03:06:35:13	 	V2687-04
 	descend	Calycophorae	304.65	2683	 	36.701096	-122.05015	1756499	1.26	2005-07-11 16:53:58.0	Ventana	34.243	00:41:37:03	7.663	V2683-01
 	ascend	Poeobius meseres	1145.14	2683	 	36.708214	-122.04918	1757777	0.67	2005-07-11 20:39:37.0	Ventana	34.563	04:13:59:00	3.475	V2683-04
 	transect	Brisaster	598.96	2680	 	36.780132	-122.22514	1804599	0.35	2005-06-27 18:18:55.0	Ventana	34.381	00:59:00:16	5.556	V2680-01
 	descend	Poeobius meseres	1186.15	2682	 	36.69857	-122.05835	1722251	0.68	2005-07-08 19:34:58.0	Ventana	34.572	03:27:34:07	3.381	V2682-04
 	ascend	Chaetognatha	370.93	2693	 	36.69676	-122.06051	1758725	1.2	2005-07-25 20:31:30.0	Ventana	34.235	03:11:01:18	7.18	V2693-03
 	transect	Appendicularia	400.73	2681	 	36.69792	-122.053635	2493229	0.79	2005-07-07 17:50:07.0	Ventana	34.279	01:20:31:03	6.66	V2681-02HD
 	transect	Sebastolobus altivelis	802.27	2674	 	36.7523	-122.20574	1799824	0.36	2005-06-08 17:58:29.0	Ventana	34.489	00:43:01:07	4.333	V2674-01
 	transect	Actiniaria sp. 3	399.69	2687	 	36.789272	-122.124664	1809593	1.16	2005-07-13 18:22:40.0	Ventana	34.234	01:48:59:08	7.337	V2687-02
 	transect	Mysidae	700.63	2681	 	36.696007	-122.05188	2497831	0.29	2005-07-07 18:43:53.0	Ventana	34.436	02:13:36:10	4.934	V2681-03HD
 	transect	Neptunea amianta	802.22	2674	 	36.752243	-122.20663	1799967	0.37	2005-06-08 18:03:09.0	Ventana	34.491	00:47:41:19	4.319	V2674-01
 	transect	Ceriantharia sp. 1	800.6	2674	 	36.75174	-122.21131	1801102	0.35	2005-06-08 18:25:20.0	Ventana	34.488	01:09:24:27	4.345	V2674-02
 	transect	Lycenchelys camchatica	800.71	2674	 	36.75108	-122.21768	1803524	0.35	2005-06-08 18:56:47.0	Ventana	34.49	01:40:50:09	4.343	V2674-02
 	transect	Phyllospadix	598.58	2680	 	36.780704	-122.22571	1804802	0.35	2005-06-27 18:26:30.0	Ventana	34.378	01:05:36:10	5.576	V2680-02
 	descend	Chaetognatha	894.62	2683	 	36.70326	-122.04833	1757251	0.37	2005-07-11 18:31:43.0	Ventana	34.495	02:12:07:01	4.275	V2683-03
 	transect	Psolus squamatus	 	2687	 	 	 	1810142	 	2005-07-13 18:59:34.0	Ventana	 	02:25:19:16	 	V2687-03
 	transect	Rathbunaster californicus	 	2687	 	 	 	1812721	 	2005-07-13 20:54:44.0	Ventana	 	04:19:14:04	 	V2687-05
 	ascend	Appendicularia	1046.27	2682	 	36.69786	-122.057724	1722800	0.48	2005-07-08 20:02:41.0	Ventana	34.533	03:55:15:02	3.847	V2682-04
 	transect	Neptunea amianta	798.31	2674	 	36.75168	-122.213394	1801268	0.35	2005-06-08 18:34:25.0	Ventana	34.488	01:18:29:17	4.35	V2674-02
 	transect	Stylasterias forreri	 	2687	 	 	 	1807194	 	2005-07-13 17:03:15.0	Ventana	 	00:30:09:03	 	V2687-01
 	transect	Phyllospadix	800.52	2674	 	36.752514	-122.20306	1799275	0.34	2005-06-08 17:43:40.0	Ventana	34.485	00:28:13:21	4.416	V2674-01
 	transect	Calycophorae	700.58	2681	 	36.69513	-122.05085	2497974	0.28	2005-07-07 18:47:59.0	Ventana	34.432	02:17:41:08	4.996	V2681-03HD
 	transect	Poeobius meseres	1001.13	2681	 	36.694675	-122.050446	2498523	0.47	2005-07-07 19:20:45.0	Ventana	34.531	02:50:25:25	3.868	V2681-03HD
 	transect	Ophiuroidea	999.61	2669	 	36.73141	-122.237	1687431	0.44	2005-05-25 19:06:21.0	Ventana	34.52	01:28:20:19	3.941	V2669-02
 	transect	Ceriantharia sp. 1	602.1	2680	 	36.791023	-122.23288	1806825	0.36	2005-06-27 20:24:32.0	Ventana	34.379	03:03:08:16	5.587	V2680-03
 	ascend	Leuroglossus stilbius	433.44	2682	 	36.69793	-122.06266	1723725	0.76	2005-07-08 21:20:12.0	Ventana	34.28	05:11:51:26	6.615	V2682-06
 	transect	Hastigerinella digitata	300.44	2681	 	36.697346	-122.05283	2492274	1.23	2005-07-07 17:23:41.0	Ventana	34.233	00:54:48:12	7.396	V2681-01HD
 	transect	Gastropoda sp.2	1000.0	2669	 	36.731804	-122.24461	1734396	0.4	2005-05-25 19:54:09.0	Ventana	34.51	02:15:38:23	4.084	V2669-03
 	transect	chuniphyes	500.57	2681	 	36.697475	-122.0532	2493409	0.44	2005-07-07 17:56:59.0	Ventana	34.346	01:27:22:27	6.018	V2681-02HD
 	transect	Lycodes cortezianus	 	2687	 	 	 	1812541	 	2005-07-13 20:44:46.0	Ventana	 	04:09:17:01	 	V2687-05
 	cruise	Allocentrotus fragilis	422.26	2676	 	36.803646	-122.02921	1676421	0.68	2005-06-14 16:42:31.863	Ventana	34.311	00:26:39:19	6.496	V2676-01
 	cruise	Sebastolobus	611.68	2688	 	36.79559	-122.019356	1677346	0.45	2005-07-14 16:35:43.0	Ventana	34.388	00:22:03:11	5.473	V2688-01
 	transect	Phyllospadix	196.3	2696	 	36.803047	-122.122604	1813090	1.56	2005-08-01 17:06:07.0	Ventana	34.199	00:34:25:22	8.617	V2696-01
 	ascend	Nanomia	471.15	2683	 	36.70432	-122.05057	1758003	0.73	2005-07-11 21:17:25.0	Ventana	34.294	04:50:17:06	6.578	V2683-05
 	ascend	Chaetognatha	345.27	2693	 	36.69351	-122.06134	1758928	1.24	2005-07-25 21:09:25.0	Ventana	34.237	03:33:58:02	7.388	V2693-04
 	transect	Psolus squamatus	 	2687	 	 	 	1807517	 	2005-07-13 17:13:58.0	Ventana	 	00:40:51:26	 	V2687-01
 	cruise	Sebastes	261.7	2688	 	36.809124	-122.020355	1677895	1.51	2005-07-14 18:27:29.0	Ventana	34.203	02:12:45:01	8.148	V2688-03
 	transect	Sebastes saxicola	201.38	2696	 	36.805256	-122.12819	1813616	1.5	2005-08-01 18:06:30.0	Ventana	34.211	01:34:21:27	8.67	V2696-02
 	transect	molt	100.49	2681	 	36.699825	-122.05429	2489709	2.13	2005-07-07 16:48:25.0	Ventana	34.067	00:19:34:09	9.151	V2681-01HD
 	transect	Ophiuroidea	1000.05	2669	 	36.73107	-122.23927	1689131	0.43	2005-05-25 19:22:56.0	Ventana	34.517	01:44:54:16	3.982	V2669-02
 	descend	Appendicularia	516.81	2683	 	36.701454	-122.04916	1756882	0.62	2005-07-11 17:40:58.0	Ventana	34.312	01:25:04:11	6.358	V2683-02
 	transect	Mediaster	 	2687	http://search.mbari.org/ARCHIVE/frameGrabs/Ventana/images/2687/03_50_12_28.jpg	 	 	1811789	 	2005-07-13 20:25:14.0	Ventana	 	03:50:12:28	 	V2687-04
 	transect	Psolus squamatus	 	2687	 	 	 	1808841	 	2005-07-13 17:30:21.0	Ventana	 	00:57:13:13	 	V2687-01
 	cruise	Chionoecetes tanneri	1000.24	2669	http://search.mbari.org/ARCHIVE/frameGrabs/Ventana/images/2669/00_57_25_12.jpg	36.73092	-122.23268	20003783	0.45	2005-05-25 18:34:59.0	Ventana	34.52	00:57:25:12	3.911	V2669-01
 	transect	Stomphia	999.96	2669	 	36.730953	-122.23379	1683957	0.45	2005-05-25 18:40:26.0	Ventana	34.523	01:02:26:28	3.913	V2669-02
 	ascend	Appendicularia	658.17	2681	 	36.6988	-122.0542	1717656	0.29	2005-07-07 20:26:40.787	Ventana	34.408	03:55:41:21	5.25	V2681-04
 	transect	Phyllospadix	600.18	2680	 	36.777058	-122.22223	1804216	0.36	2005-06-27 17:41:12.0	Ventana	34.378	00:21:19:16	5.588	V2680-01
 	ascend	Appendicularia	956.6	2682	 	36.69772	-122.05844	1723003	0.44	2005-07-08 20:08:20.0	Ventana	34.519	04:00:31:08	4.003	V2682-05
 	transect	cydippida	200.41	2681	 	36.69828	-122.05329	2490281	1.7	2005-07-07 17:06:20.0	Ventana	34.199	00:37:29:19	8.36	V2681-01HD
 	descend	Appendicularia	446.86	2683	 	36.701572	-122.049385	1756702	0.81	2005-07-11 17:08:44.0	Ventana	34.278	00:56:22:23	6.718	V2683-01
 	transect	Microstomus pacificus	 	2687	 	 	 	1808638	 	2005-07-13 17:25:53.0	Ventana	 	00:52:46:03	 	V2687-01
 	transect	Psolus squamatus	 	2687	http://search.mbari.org/ARCHIVE/frameGrabs/Ventana/images/2687/03_14_09_17.jpg	 	 	1811037	 	2005-07-13 19:49:08.0	Ventana	 	03:14:09:17	 	V2687-04
 	cruise	Parastichopus leukothele	198.15	2696	 	36.80229	-122.12109	1812864	1.61	2005-08-01 16:35:47.0	Ventana	34.188	00:04:07:12	8.661	V2696-01
 	transect	Brisaster	1000.33	2669	 	36.73147	-122.24225	1694478	0.4	2005-05-25 19:40:47.0	Ventana	34.509	02:02:44:00	4.067	V2669-02
 	ascend	Sergestes similis	242.45	2693	 	36.69132	-122.06241	1759108	1.46	2005-07-25 21:22:33.0	Ventana	34.242	03:47:04:09	8.494	V2693-04
 	transect	Mesomyaria	802.87	2674	 	36.750835	-122.22006	1803667	0.34	2005-06-08 19:06:59.0	Ventana	34.482	01:51:00:26	4.385	V2674-02
 	descend	Chaetognatha	282.17	2682	 	36.69968	-122.06084	1720055	1.31	2005-07-08 16:36:04.0	Ventana	34.229	00:30:08:09	7.618	V2682-01
 	cruise	Lycodapus	1212.77	2683	 	36.706646	-122.04767	1757634	0.72	2005-07-11 20:12:05.0	Ventana	34.572	03:46:28:20	3.349	V2683-04
 	transect	Phyllospadix	999.35	2669	 	36.731422	-122.23627	1684709	0.44	2005-05-25 18:59:34.0	Ventana	34.52	01:21:34:00	3.941	V2669-02
 	transect	Phyllospadix	600.92	2680	 	36.786896	-122.23132	1805893	0.36	2005-06-27 19:43:08.0	Ventana	34.378	02:21:47:07	5.602	V2680-03
 	transect	Chaetognatha	200.35	2681	 	36.698334	-122.053444	2491356	1.67	2005-07-07 17:13:42.0	Ventana	34.201	00:44:50:21	8.341	V2681-01HD
 	cruise	Allocentrotus fragilis	424.85	2688	 	36.80565	-122.019104	1677715	0.93	2005-07-14 17:47:19.0	Ventana	34.263	01:33:02:15	6.946	V2688-02
 	transect	Gastropoda sp.2	1000.04	2669	 	36.731705	-122.24368	1733870	0.41	2005-05-25 19:48:09.0	Ventana	34.509	02:09:39:04	4.067	V2669-03
 	transect	Mesomyaria	1000.2	2669	 	36.73184	-122.2451	1735344	0.4	2005-05-25 19:57:32.0	Ventana	34.507	02:19:02:22	4.093	V2669-03
 	descend	Nanomia	479.47	2682	 	36.698574	-122.05973	1720807	0.52	2005-07-08 17:57:29.0	Ventana	34.329	01:50:58:26	6.186	V2682-02
 	stationary	Merluccius productus	504.21	2695	 	36.784668	-122.20051	1824483	0.67	2005-07-28 19:01:04.0	Ventana	34.296	04:07:19:24	6.295	V2695-02
 	descend	Chaetognatha	177.65	2683	 	36.701042	-122.051186	1756333	1.6	2005-07-11 16:41:42.0	Ventana	34.196	00:29:23:14	8.718	V2683-01
 	transect	Phyllospadix	800.87	2674	 	36.752533	-122.201614	1799072	0.34	2005-06-08 17:36:29.0	Ventana	34.487	00:21:03:13	4.415	V2674-01
 	transect	rock outcrop	 	2687	 	 	 	1812338	 	2005-07-13 20:32:40.0	Ventana	 	03:57:38:14	 	V2687-04
 	descend	Phialidium	1089.92	2683	 	36.705112	-122.048904	1757454	0.54	2005-07-11 19:28:34.0	Ventana	34.536	03:08:55:07	3.765	V2683-03
 	ascend	Appendicularia	266.37	2681	 	36.69952	-122.054474	1718408	1.4	2005-07-07 21:08:09.733	Ventana	34.236	04:36:29:20	7.898	V2681-05
 	transect	Salpida	300.43	2681	 	36.69679	-122.052345	2492477	1.23	2005-07-07 17:25:38.0	Ventana	34.234	00:56:44:13	7.397	V2681-01HD
 	stationary	Appendicularia	501.92	2694	 	36.784554	-122.20049	1676564	0.78	2005-07-27 18:32:43.0	Ventana	34.28	01:15:25:00	6.542	V2694-02
 	transect	Rathbunaster californicus	197.6	2696	 	36.803444	-122.123825	1813210	1.56	2005-08-01 17:20:18.0	Ventana	34.195	00:48:35:26	8.631	V2696-01
 	transect	Phyllospadix	802.46	2674	 	36.752296	-122.206024	1799884	0.36	2005-06-08 18:00:04.0	Ventana	34.491	00:44:36:03	4.337	V2674-01
 	transect	Phyllospadix	801.48	2674	 	36.75097	-122.218506	1803584	0.35	2005-06-08 19:00:24.0	Ventana	34.487	01:44:26:27	4.359	V2674-02
 	transect	Phyllospadix	400.29	2687	 	36.789017	-122.12386	1809510	1.17	2005-07-13 18:10:16.0	Ventana	34.235	01:36:35:25	7.355	V2687-02
 	descend	Appendicularia	879.37	2682	 	36.698284	-122.05944	1721762	0.33	2005-07-08 18:50:11.0	Ventana	34.49	02:43:13:15	4.34	V2682-03
 	transect	Mesomyaria	999.3	2669	 	36.73118	-122.23566	1684363	0.45	2005-05-25 18:54:53.0	Ventana	34.522	01:16:52:29	3.927	V2669-02
 	cruise	Siphonophora	110.74	2688	 	36.8132	-122.02326	1678038	1.95	2005-07-14 18:54:12.0	Ventana	34.094	02:39:26:12	8.897	V2688-03
 	transect	Gastropoda sp.2	999.26	2669	 	36.73104	-122.231834	1695087	0.45	2005-05-25 18:29:08.0	Ventana	34.521	00:51:33:24	3.915	V2669-01
 	descend	Appendicularia	349.56	2683	 	36.701294	-122.049934	1756559	1.21	2005-07-11 16:56:30.0	Ventana	34.229	00:44:09:27	7.198	V2683-01
 	transect	Anthomastus ritteri	 	2687	 	 	 	1807660	 	2005-07-13 17:21:24.0	Ventana	 	00:48:16:15	 	V2687-01
 	transect	Phyllospadix	 	2669	 	 	 	1737660	 	2005-05-25 13:55:13.0	Ventana	 	03:16:00:29	 	V2669-04
 	cruise	Microstomus pacificus	 	2687	 	 	 	1806908	 	2005-07-13 16:36:28.0	Ventana	 	00:03:23:28	 	V2687-01
 	ascend	marine snow	 	2673	 	 	 	1668412	 	 	Ventana	 	00:36:17:00	 	V2673-01
 	transect	Corallimorphus pilatus	 	2687	 	 	 	1810608	 	2005-07-13 19:24:09.0	Ventana	 	02:49:52:25	 	V2687-03
 	transect	Mediaster	 	2687	 	 	 	1812458	 	2005-07-13 20:39:28.0	Ventana	 	04:04:25:25	 	V2687-04
 	transect	Poeobius meseres	600.52	2681	 	36.697525	-122.053345	2493838	0.3	2005-07-07 18:26:50.0	Ventana	34.388	01:57:11:15	5.471	V2681-02HD
 	transect	Ophiuroidea	998.72	2669	 	36.732887	-122.252045	1737314	0.4	2005-05-25 20:45:21.0	Ventana	34.509	03:06:11:07	4.074	V2669-04
 	descend	Sergestes similis	258.2	2693	 	36.698338	-122.061646	1758409	1.41	2005-07-25 19:26:12.0	Ventana	34.251	02:06:13:11	8.267	V2693-02
 	transect	Porifera	 	2687	 	 	 	1810262	 	2005-07-13 19:13:09.0	Ventana	 	02:38:53:05	 	V2687-03
 	descend	Euphausiacea	157.84	2682	 	36.699867	-122.060745	1719912	2.19	2005-07-08 16:18:59.0	Ventana	34.097	00:13:04:23	8.434	V2682-01
 	transect	Nanomia bijuga	200.43	2681	 	36.69828	-122.05329	2490138	1.7	2005-07-07 17:05:06.0	Ventana	34.197	00:36:15:06	8.358	V2681-01HD
 	transect	Calycophorae	700.59	2681	 	36.6956	-122.05144	2497914	0.28	2005-07-07 18:45:52.0	Ventana	34.435	02:15:35:10	4.946	V2681-03HD
 	ascend	Poeobius meseres	1145.55	2682	 	36.69822	-122.05747	1722514	0.62	2005-07-08 19:55:10.0	Ventana	34.561	03:47:45:21	3.51	V2682-04
 	transect	Mesomyaria	997.37	2669	 	36.730633	-122.22729	1649137	0.45	2005-05-25 17:56:21.0	Ventana	34.52	00:18:49:16	3.91	V2669-01
 	transect	Ophiuroidea	999.9	2669	http://search.mbari.org/ARCHIVE/frameGrabs/Ventana/images/2669/02_11_00_01.jpg	36.731716	-122.243866	1733990	0.41	2005-05-25 19:49:30.0	Ventana	34.51	02:11:00:01	4.069	V2669-03
 	transect	Sebastolobus altivelis	799.04	2674	 	36.751415	-122.21486	1801388	0.35	2005-06-08 18:43:36.0	Ventana	34.489	01:27:39:16	4.336	V2674-02
 	transect	Chionoecetes tanneri	1000.01	2669	 	36.731045	-122.23967	1689191	0.41	2005-05-25 19:25:49.0	Ventana	34.51	01:47:46:25	4.061	V2669-02
 	descend	Bathylagus milleri	970.81	2681	 	36.69465	-122.05038	1716535	0.45	2005-07-07 19:19:12.033	Ventana	34.523	02:48:53:27	3.951	V2681-03
 	cruise	Lycodapus	1209.56	2683	 	36.706825	-122.047615	1757657	0.72	2005-07-11 20:13:34.0	Ventana	34.573	03:47:55:08	3.35	V2683-04
 	ascend	Chaetognatha	936.06	2681	 	36.697613	-122.05408	1716964	0.41	2005-07-07 19:43:16.3	Ventana	34.514	03:12:19:27	4.075	V2681-04
 	transect	Phyllospadix	200.19	2696	 	36.805058	-122.12784	1813556	1.51	2005-08-01 17:59:32.0	Ventana	34.211	01:27:24:18	8.675	V2696-02
 	transect	Nanomia bijuga	400.73	2681	 	36.697033	-122.05265	2493086	0.79	2005-07-07 17:46:26.0	Ventana	34.278	01:16:51:03	6.659	V2681-02HD
 	ascend	Apolemia	575.87	2682	 	36.698345	-122.06239	1723582	0.37	2005-07-08 21:06:14.0	Ventana	34.363	04:58:19:19	5.778	V2682-05
 	transect	Phyllospadix	801.11	2674	http://search.mbari.org/ARCHIVE/frameGrabs/Ventana/images/2674/00_22_54_21.jpg	36.7526	-122.20189	1799132	0.34	2005-06-08 17:38:21.0	Ventana	34.482	00:22:54:21	4.405	V2674-01
 	transect	Psolus squamatus	399.87	2687	 	36.788063	-122.12155	1809164	1.13	2005-07-13 17:36:21.0	Ventana	34.242	01:02:43:22	7.271	V2687-02
 	transect	Lycenchelys camchatica	999.95	2669	http://search.mbari.org/ARCHIVE/frameGrabs/Ventana/images/2669/02_23_51_09.jpg	36.731895	-122.2458	1735464	0.4	2005-05-25 20:02:21.0	Ventana	34.509	02:23:51:09	4.081	V2669-03
 	ascend	Calycophorae	371.57	2683	 	36.70387	-122.0506	1758063	1.04	2005-07-11 21:21:34.0	Ventana	34.248	04:54:25:12	6.988	V2683-05
 	ascend	Chuniphyes	796.74	2682	 	36.698654	-122.05888	1723266	0.31	2005-07-08 20:24:51.0	Ventana	34.461	04:16:59:13	4.62	V2682-05
 	descend	Poeobius meseres	1108.63	2682	 	36.69821	-122.05919	1722108	0.56	2005-07-08 19:11:05.0	Ventana	34.552	03:03:43:16	3.629	V2682-04
 	transect	Pseudosagitta maxima	1000.99	2681	 	36.69606	-122.05228	2498666	0.47	2005-07-07 19:28:07.0	Ventana	34.531	02:57:47:10	3.866	V2681-03HD
 	cruise	Eptatretus	382.09	2690	 	36.790127	-121.887375	1670262	0.94	2005-07-18 19:55:04.0	Ventana	34.268	01:10:11:07	6.956	V2690-01
 	transect	Umbellula lindahli	1000.13	2669	http://search.mbari.org/ARCHIVE/frameGrabs/Ventana/images/2669/01_02_14_13.jpg	36.73094	-122.233734	1683934	0.45	2005-05-25 18:40:13.0	Ventana	34.523	01:02:14:13	3.911	V2669-02
 	transect	Psolus squamatus	 	2687	 	 	 	1808758	 	2005-07-13 17:28:49.0	Ventana	 	00:55:41:21	 	V2687-01
 	descend	Copepoda	679.68	2682	 	36.69866	-122.05995	1721416	0.28	2005-07-08 18:12:38.0	Ventana	34.414	02:05:42:24	5.175	V2682-03
 	transect	Umbellula lindahli	599.81	2680	 	36.77798	-122.223145	1804336	0.36	2005-06-27 17:53:01.0	Ventana	34.379	00:33:08:17	5.589	V2680-01
 	ascend	Euphausiacea	258.17	2681	 	36.697838	-122.05522	1719483	 	2005-07-07 21:29:59.0	Ventana	 	05:06:56:24	 	V2681-05
 	ascend	Lensia	355.73	2681	 	36.69935	-122.05504	1718062	1.03	2005-07-07 20:52:06.3	Ventana	34.258	04:20:27:07	7.139	V2681-05
 	transect	Mesomyaria	802.87	2674	 	36.75183	-122.21008	1800982	0.36	2005-06-08 18:20:18.0	Ventana	34.49	01:04:23:13	4.32	V2674-02
 	cruise	Liponema brevicornis	504.83	2694	 	36.784054	-122.20076	1676158	0.75	2005-07-27 17:07:56.3	Ventana	34.288	00:01:04:05	6.482	V2694-01
 	transect	Henricia sanguinolenta	 	2687	 	 	 	1811014	 	2005-07-13 19:48:22.0	Ventana	 	03:13:23:01	 	V2687-04
 	descend	Appendicularia	401.17	2681	 	36.695553	-122.0512	1715114	0.81	2005-07-07 17:33:35.213	Ventana	34.278	01:03:59:09	6.695	V2681-02
 	descend	Appendicularia	558.92	2683	 	36.70178	-122.04915	1756965	0.44	2005-07-11 17:45:15.0	Ventana	34.34	01:29:22:00	6.06	V2683-02
 	transect	Rathbunaster californicus	 	2687	 	 	 	1811706	 	2005-07-13 20:21:08.0	Ventana	 	03:46:07:04	 	V2687-04
 	descend	Appendicularia	228.78	2681	 	36.698532	-122.05351	1713587	1.48	2005-07-07 17:15:25.3	Ventana	34.218	00:46:33:02	8.167	V2681-01
 	transect	Solaster borealis	999.32	2669	 	36.731377	-122.236404	1684769	0.44	2005-05-25 19:00:34.0	Ventana	34.518	01:22:33:25	3.944	V2669-02
 	transect	Nanomia bijuga	200.39	2681	 	36.69832	-122.05343	2491296	1.66	2005-07-07 17:13:26.0	Ventana	34.2	00:44:34:28	8.34	V2681-01HD
 	transect	Appendicularia	400.79	2681	 	36.6974	-122.05306	2493146	0.79	2005-07-07 17:47:57.0	Ventana	34.278	01:18:21:00	6.662	V2681-02HD
 	transect	Gastropoda sp.2	999.14	2669	 	36.731163	-122.23557	1694681	0.45	2005-05-25 18:54:23.0	Ventana	34.523	01:16:23:03	3.919	V2669-02
 	cruise	Pleuronectiformes	449.6	2688	 	36.803497	-122.01808	1677632	0.9	2005-07-14 17:37:07.0	Ventana	34.269	01:22:50:20	6.885	V2688-02
 	transect	Mesomyaria	998.77	2669	 	36.732845	-122.25188	1737254	0.4	2005-05-25 20:44:17.0	Ventana	34.509	03:05:07:02	4.075	V2669-04
 	transect	Lycenchelys camchatica	801.88	2674	 	36.75179	-122.21073	1801042	0.35	2005-06-08 18:23:07.0	Ventana	34.489	01:07:11:23	4.322	V2674-02
 	transect	Caecosagitta macrocephala	901.06	2681	 	36.69615	-122.052155	2498320	0.39	2005-07-07 19:10:21.0	Ventana	34.505	02:40:02:07	4.172	V2681-03HD
 	ascend	Aegina	675.55	2681	 	36.698757	-122.05444	1717633	0.27	2005-07-07 20:23:06.167	Ventana	34.413	03:52:07:09	5.169	V2681-04
 	transect	Mysidae 2	1001.02	2681	 	36.695385	-122.05135	2498606	0.48	2005-07-07 19:24:28.0	Ventana	34.532	02:54:07:08	3.845	V2681-03HD
 	ascend	Leptomedusae	258.17	2681	 	36.697838	-122.05522	1719566	 	2005-07-07 21:29:59.0	Ventana	 	05:14:31:26	 	V2681-05
 	transect	Nanomia bijuga	200.46	2681	 	36.69828	-122.05329	2490198	1.7	2005-07-07 17:05:42.0	Ventana	34.198	00:36:49:12	8.361	V2681-01HD
 	cruise	Pennatulacea	997.56	2679	 	36.68986	-122.1656	1824363	0.42	2005-06-16 17:32:40.0	Ventana	34.514	00:04:02:11	4.117	V2679-01
 	descend	Dosidicus gigas	789.26	2682	 	36.698406	-122.059715	1721679	0.32	2005-07-08 18:35:32.0	Ventana	34.467	02:28:37:03	4.631	V2682-03
 	ascend	Hastigerinella digitata	263.25	2681	 	36.698997	-122.05596	1718731	1.42	2005-07-07 21:17:08.36	Ventana	34.231	04:45:27:07	7.95	V2681-05
 	transect	Mesomyaria	800.45	2674	 	36.75258	-122.20238	1799192	0.34	2005-06-08 17:40:36.0	Ventana	34.476	00:25:09:11	4.408	V2674-01
 	cruise	Gorgonocephalus	93.71	2688	 	36.8143	-122.018654	1679482	1.93	2005-07-14 21:12:24.137	Ventana	34.101	04:56:37:19	8.906	V2688-05
 	transect	Psolus squamatus	 	2687	 	 	 	1807600	 	2005-07-13 17:16:55.0	Ventana	 	00:43:47:27	 	V2687-01
 	transect	Brisaster	598.33	2680	 	36.782017	-122.22705	1805088	0.35	2005-06-27 18:43:32.0	Ventana	34.377	01:22:36:28	5.579	V2680-02
 	transect	Rathbunaster californicus	198.88	2696	http://search.mbari.org/ARCHIVE/frameGrabs/Ventana/images/2696/00_59_51_12.jpg	36.803753	-122.12485	1813293	1.53	2005-08-01 17:31:34.0	Ventana	34.203	00:59:51:12	8.636	V2696-01
 	transect	Calycophorae	700.63	2681	 	36.695812	-122.051674	2497854	0.28	2005-07-07 18:44:44.0	Ventana	34.434	02:14:25:26	4.948	V2681-03HD
 	descend	Appendicularia	375.65	2682	 	36.698444	-122.059975	1720664	0.95	2005-07-08 17:34:52.0	Ventana	34.262	01:28:23:13	6.993	V2682-02
 	ascend	Colobonema	402.7	2681	 	36.699257	-122.05444	1717979	0.86	2005-07-07 20:47:31.3	Ventana	34.279	04:15:52:01	6.854	V2681-05
 	transect	Glyptocephalus zachirus	 	2687	http://search.mbari.org/ARCHIVE/frameGrabs/Ventana/images/2687/00_33_05_13.jpg	 	 	1807314	 	2005-07-13 17:06:11.0	Ventana	 	00:33:05:13	 	V2687-01
 	descend	physical object	651.16	2677	http://search.mbari.org/ARCHIVE/frameGrabs/Ventana/images/2677/00_32_11_05.jpg	36.746265	-122.05239	20008784	0.37	2005-06-15 17:16:56.0	Ventana	34.417	00:32:11:05	5.167	V2677-01
 	transect	Neptunea amianta	1000.02	2669	 	36.731407	-122.23683	1686965	0.44	2005-05-25 19:04:41.0	Ventana	34.521	01:26:40:06	3.943	V2669-02
 	descend	Appendicularia	355.0	2681	 	36.695587	-122.05122	1713670	1.03	2005-07-07 17:31:42.0	Ventana	34.254	01:02:01:09	7.134	V2681-01
 	transect	Ophiuroidea	999.16	2669	 	36.7311	-122.23399	1684017	0.45	2005-05-25 18:41:56.0	Ventana	34.523	01:03:57:00	3.912	V2669-02
 	transect	Gastropoda sp.2	 	2669	 	 	 	1737600	 	2005-05-25 13:52:58.0	Ventana	 	03:13:45:25	 	V2669-04
 	transect	Pennatulacea sp.1	602.09	2680	 	36.791416	-122.23294	1806848	0.36	2005-06-27 20:27:50.0	Ventana	34.378	03:06:25:27	5.588	V2680-03
 	stationary	Suction Sampler	 	2673	 	 	 	1668352	 	 	Ventana	 	00:16:00:12	 	V2673-01
 	transect	Psolus squamatus	 	2687	 	 	 	1808698	 	2005-07-13 17:27:24.0	Ventana	 	00:54:16:27	 	V2687-01
 	transect	Umbellula lindahli	599.87	2680	 	36.777405	-122.22255	1804276	0.36	2005-06-27 17:46:02.0	Ventana	34.379	00:26:09:23	5.58	V2680-01
 	transect	Stomphia	999.66	2669	 	36.731064	-122.23519	1684280	0.45	2005-05-25 18:51:47.0	Ventana	34.521	01:13:46:29	3.921	V2669-02
 	transect	Mesomyaria	1000.55	2669	 	36.73217	-122.24844	1736216	0.41	2005-05-25 20:21:56.0	Ventana	34.51	02:43:25:23	4.061	V2669-03
 	transect	Nanomia bijuga	200.41	2681	 	36.698284	-122.05331	2490950	1.71	2005-07-07 17:10:07.0	Ventana	34.195	00:41:15:27	8.323	V2681-01HD
 	descend	Appendicularia	281.87	2683	 	36.701008	-122.050224	1756476	1.34	2005-07-11 16:52:33.0	Ventana	34.238	00:40:13:19	7.799	V2683-01
 	transect	Mediaster	 	2687	 	 	 	1812195	 	2005-07-13 20:28:51.0	Ventana	 	03:53:49:07	 	V2687-04
 	descend	Chaetognatha	932.83	2683	 	36.703712	-122.0486	1757311	0.38	2005-07-11 19:07:46.0	Ventana	34.507	02:48:07:16	4.164	V2683-03
 	ascend	Bathochordaeus	377.61	2693	 	36.695805	-122.06062	1758785	1.19	2005-07-25 20:51:00.0	Ventana	34.234	03:15:33:19	7.154	V2693-04
 	transect	Pannychia moseleyi	798.29	2674	http://search.mbari.org/ARCHIVE/frameGrabs/Ventana/images/2674/01_22_38_25.jpg	36.751583	-122.21405	1801328	0.35	2005-06-08 18:38:35.0	Ventana	34.486	01:22:38:25	4.343	V2674-02
 	transect	Stomphia	999.94	2669	 	36.731174	-122.24039	1689251	0.41	2005-05-25 19:29:53.0	Ventana	34.51	01:51:50:24	4.06	V2669-02
 	descend	Appendicularia	335.51	2682	 	36.69879	-122.0606	1720175	1.05	2005-07-08 17:11:27.0	Ventana	34.249	01:04:59:04	7.161	V2682-02
 	transect	Mediaster	 	2687	 	 	 	1811646	 	2005-07-13 20:18:48.0	Ventana	 	03:43:47:20	 	V2687-04
 	transect	Mesomyaria	997.64	2669	 	36.730637	-122.22696	1649077	0.45	2005-05-25 17:53:33.0	Ventana	34.521	00:16:01:17	3.909	V2669-01
 	transect	Mesomyaria	999.42	2669	 	36.730495	-122.22882	1650927	0.45	2005-05-25 18:05:31.0	Ventana	34.522	00:27:59:22	3.906	V2669-01
 	ascend	Appendicularia	269.87	2681	 	36.699715	-122.054886	1718325	1.4	2005-07-07 21:04:15.287	Ventana	34.227	04:32:34:29	7.846	V2681-05
 	cruise	Lycodes	459.87	2676	 	36.80277	-122.02933	1676301	0.59	2005-06-14 16:35:36.0	Ventana	34.33	00:19:45:01	6.264	V2676-01
 	descend	Myctophidae	485.59	2688	 	36.793423	-122.018295	1677226	0.85	2005-07-14 16:15:13.0	Ventana	34.28	00:01:34:06	6.752	V2688-01
 	transect	Lycodes cortezianus	200.11	2696	 	36.804665	-122.12703	1813496	1.51	2005-08-01 17:53:19.0	Ventana	34.211	01:21:12:11	8.67	V2696-02
 	cruise	Chionoecetes tanneri	1229.66	2683	 	36.705887	-122.04776	1757574	0.74	2005-07-11 19:57:47.0	Ventana	34.58	03:32:10:19	3.322	V2683-04
 	transect	Calliostoma platinum	 	2687	 	 	 	1811097	 	2005-07-13 19:52:52.0	Ventana	 	03:17:52:17	 	V2687-04
 	transect	Ceriantharia sp. 2	997.52	2669	 	36.7306	-122.22703	1683325	0.45	2005-05-25 17:54:20.0	Ventana	34.521	00:16:48:28	3.909	V2669-01
 	descend	Poeobius meseres	612.01	2683	 	36.701973	-122.04901	1757025	0.35	2005-07-11 17:49:50.0	Ventana	34.372	01:33:55:29	5.747	V2683-02
 	ascend	Chaetognatha	370.88	2693	 	36.69638	-122.06074	1758672	1.2	2005-07-25 20:27:25.0	Ventana	34.233	03:06:57:21	7.163	V2693-03
 	cruise	rubble	108.75	2676	http://search.mbari.org/ARCHIVE/frameGrabs/Ventana/images/2676/02_17_41_12.jpg	36.80901	-122.03527	1677023	1.92	2005-06-14 18:38:57.0	Ventana	34.152	02:17:41:12	8.453	V2676-03
 	ascend	Solmissus	197.17	2683	 	36.702686	-122.050705	1758123	1.69	2005-07-11 21:29:10.0	Ventana	34.173	05:02:01:28	8.506	V2683-05
 	transect	Lycodes cortezianus	203.9	2696	 	36.805332	-122.12833	1813699	1.49	2005-08-01 18:16:36.0	Ventana	34.212	01:44:28:02	8.629	V2696-02
 	descend	Appendicularia	610.96	2681	 	36.697933	-122.05385	1715926	0.3	2005-07-07 18:29:09.0	Ventana	34.389	01:59:29:19	5.43	V2681-02
 	stationary	Merluccius productus	502.36	2694	 	36.784637	-122.20046	1676677	0.71	2005-07-27 20:36:12.0	Ventana	34.293	03:08:18:24	6.383	V2694-03
 	ascend	Anthomedusae	648.5	2683	 	36.705208	-122.04995	1757920	0.28	2005-07-11 21:09:16.0	Ventana	34.41	04:42:09:18	5.226	V2683-05
 	transect	Actiniaria sp. 3	 	2687	 	 	 	1809999	 	2005-07-13 18:49:59.0	Ventana	 	02:15:45:03	 	V2687-03
 	transect	Mesomyaria	999.29	2669	 	36.730995	-122.231735	1683671	0.45	2005-05-25 18:28:41.0	Ventana	34.521	00:51:07:03	3.913	V2669-01
 	descend	Aegina	997.44	2683	 	36.704117	-122.04959	1757371	0.43	2005-07-11 19:16:08.0	Ventana	34.521	02:56:30:23	4.002	V2683-03
 	transect	Allocentrotus fragilis	 	2687	 	 	 	1811300	 	2005-07-13 20:05:39.0	Ventana	 	03:30:38:28	 	V2687-04
 	transect	Rathbunaster californicus	 	2687	 	 	 	1812398	 	2005-07-13 20:36:35.0	Ventana	 	04:01:33:05	 	V2687-04
 	descend	Bargmannia	501.88	2683	 	36.70146	-122.049225	1756822	0.68	2005-07-11 17:34:10.0	Ventana	34.304	01:18:17:18	6.467	V2683-02
 	ascend	Appendicularia	855.12	2681	 	36.698544	-122.05571	1717370	0.34	2005-07-07 19:54:35.167	Ventana	34.493	03:23:37:17	4.348	V2681-04
 	ascend	Appendicularia	440.53	2681	 	36.69906	-122.05418	1717776	0.65	2005-07-07 20:37:23.5	Ventana	34.302	04:06:23:08	6.483	V2681-04
 	transect	Phyllospadix	999.35	2669	 	36.73109	-122.23498	1684220	0.45	2005-05-25 18:49:55.0	Ventana	34.521	01:11:56:01	3.92	V2669-02
 	cruise	Remote Instrument Node	124.27	2672	http://search.mbari.org/ARCHIVE/frameGrabs/Ventana/images/2672/00_25_33_07.jpg	36.803097	-121.8056	20003843	2.65	2005-06-03 15:06:11.0	Ventana	33.957	00:25:33:07	9.304	V2672-01
 	descend	Appendicularia	410.38	2682	 	36.69823	-122.05983	1720724	0.76	2005-07-08 17:38:55.0	Ventana	34.278	01:32:26:12	6.571	V2682-02
 	descend	Haliscera	149.7	2683	 	36.70066	-122.05167	1756273	1.69	2005-07-11 16:25:41.0	Ventana	34.174	00:13:23:18	8.833	V2683-01
 	transect	Mediaster	 	2687	 	 	 	1811849	 	2005-07-13 20:27:03.0	Ventana	 	03:52:01:03	 	V2687-04
 	transect	Mesomyaria	998.76	2669	 	36.731167	-122.23418	1684077	0.45	2005-05-25 18:43:03.0	Ventana	34.523	01:05:04:02	3.915	V2669-02
 	transect	Mesomyaria	1000.18	2669	 	36.731106	-122.23868	1689048	0.42	2005-05-25 19:19:22.0	Ventana	34.51	01:41:21:02	3.988	V2669-02
 	transect	Psolus squamatus	 	2687	 	 	 	1808901	 	2005-07-13 17:31:32.0	Ventana	 	00:58:24:08	 	V2687-01
 	ascend	Calycophorae	1175.63	2683	 	36.707138	-122.04803	1757717	0.7	2005-07-11 20:26:39.0	Ventana	34.571	04:01:01:09	3.393	V2683-04
 	transect	Neptunea amianta	800.27	2674	 	36.752632	-122.200325	1774104	0.31	2005-06-08 17:29:52.0	Ventana	34.484	00:14:26:05	4.576	V2674-01
 	transect	Phyllospadix	399.47	2687	 	36.789383	-122.1251	1809653	1.15	2005-07-13 18:30:14.0	Ventana	34.239	01:56:32:10	7.305	V2687-02
 	transect	Mesomyaria	1000.12	2669	 	36.730637	-122.229256	1651070	0.45	2005-05-25 18:08:37.0	Ventana	34.522	00:31:04:22	3.906	V2669-01
 	descend	Appendicularia	348.47	2682	 	36.698627	-122.06041	1720318	1.02	2005-07-08 17:20:28.0	Ventana	34.253	01:13:58:22	7.112	V2682-02
 	descend	Appendicularia	1148.38	2682	 	36.698204	-122.05922	1722168	0.61	2005-07-08 19:13:10.0	Ventana	34.56	03:05:47:04	3.519	V2682-04
 	transect	Mesomyaria	1000.39	2669	 	36.731197	-122.24121	1689394	0.4	2005-05-25 19:34:52.0	Ventana	34.508	01:56:50:00	4.078	V2669-02
 	transect	Mediaster	 	2687	 	 	 	1810954	 	2005-07-13 19:43:55.0	Ventana	 	03:08:56:13	 	V2687-04
 	transect	Microstomus pacificus	 	2687	 	 	 	1812804	 	2005-07-13 20:58:34.0	Ventana	 	04:23:04:14	 	V2687-05
 	descend	Chromatonema	744.34	2682	 	36.698452	-122.05965	1721619	0.29	2005-07-08 18:29:49.0	Ventana	34.443	02:22:52:22	4.84	V2682-03
 	descend	Nanomia	225.06	2683	 	36.700985	-122.05072	1756416	1.69	2005-07-11 16:48:56.0	Ventana	34.189	00:36:37:09	8.215	V2683-01
 	ascend	Cydippida	199.08	2693	 	36.6908	-122.06272	1759191	1.7	2005-07-25 21:25:52.0	Ventana	34.191	03:50:23:02	8.939	V2693-04
 	descend	Hastigerinella digitata	296.39	2693	 	36.697742	-122.06105	1758469	1.33	2005-07-25 19:38:38.0	Ventana	34.237	02:18:14:29	7.755	V2693-03
 	transect	Corallimorphus pilatus	 	2687	 	 	 	1810405	 	2005-07-13 19:17:08.0	Ventana	 	02:42:52:09	 	V2687-03
 	transect	Mesomyaria	998.22	2669	 	36.732994	-122.25252	1737457	0.4	2005-05-25 20:48:15.0	Ventana	34.509	03:09:02:27	4.074	V2669-04
 	transect	Umbellula lindahli	602.81	2680	 	36.789276	-122.23252	1806705	0.35	2005-06-27 20:09:04.0	Ventana	34.379	02:47:41:07	5.588	V2680-03
 	transect	Liponema brevicornis	 	2687	http://search.mbari.org/ARCHIVE/frameGrabs/Ventana/images/2687/02_57_03_06.jpg	 	 	1810751	 	2005-07-13 19:31:20.0	Ventana	 	02:57:03:06	 	V2687-03
 	transect	Aegina	800.87	2681	 	36.69665	-122.0527	2498260	0.31	2005-07-07 19:01:15.0	Ventana	34.474	02:30:57:02	4.503	V2681-03HD
 	ascend	Appendicularia	530.2	2682	 	36.698326	-122.06293	1723642	0.43	2005-07-08 21:11:03.0	Ventana	34.348	05:02:43:16	6.025	V2682-06
 	descend	Hormiphora	181.99	2693	 	36.696068	-122.058174	1758266	1.88	2005-07-25 18:12:06.0	Ventana	34.165	00:52:36:29	8.87	V2693-01
 	transect	Sebastolobus	 	2687	 	 	 	1810202	 	2005-07-13 19:08:51.0	Ventana	 	02:34:36:05	 	V2687-03
 	transect	Nanomia bijuga	400.81	2681	 	36.695984	-122.051414	2492943	0.79	2005-07-07 17:41:53.0	Ventana	34.277	01:12:17:00	6.661	V2681-02HD
 	transect	Calycophorae	700.64	2681	 	36.69678	-122.052666	2497711	0.29	2005-07-07 18:40:39.0	Ventana	34.436	02:10:21:01	4.931	V2681-03HD
 	cruise	Sebastolobus	546.65	2688	 	36.797768	-122.01988	1677429	0.6	2005-07-14 16:59:26.0	Ventana	34.328	00:45:44:19	6.189	V2688-01
 	transect	Gastropoda sp.2	1000.22	2669	 	36.73109	-122.2398	1694741	0.41	2005-05-25 19:26:23.0	Ventana	34.51	01:48:21:05	4.062	V2669-02
 	transect	Phyllospadix	799.23	2674	 	36.752506	-122.2043	1799538	0.35	2005-06-08 17:50:50.0	Ventana	34.484	00:35:23:11	4.386	V2674-01
 	transect	molt	100.46	2681	 	36.699486	-122.05407	2489792	2.13	2005-07-07 16:50:52.0	Ventana	34.066	00:21:59:25	9.148	V2681-01HD
 	transect	Nanomia bijuga	200.39	2681	 	36.698296	-122.05335	2491093	1.69	2005-07-07 17:11:44.0	Ventana	34.198	00:42:51:29	8.335	V2681-01HD
 	transect	Lycenchelys camchatica	801.48	2674	 	36.752224	-122.20767	1800087	0.39	2005-06-08 18:08:06.0	Ventana	34.493	00:52:38:05	4.336	V2674-01
 	ascend	Lensia	335.03	2681	 	36.69952	-122.05525	1718122	1.16	2005-07-07 20:54:52.667	Ventana	34.241	04:23:13:13	7.305	V2681-05
 	descend	Nanomia	230.52	2682	 	36.699886	-122.060715	1719972	1.44	2005-07-08 16:21:56.0	Ventana	34.224	00:16:01:01	8.007	V2682-01
 	transect	Psolus squamatus	 	2687	 	 	 	1812601	 	2005-07-13 20:46:41.0	Ventana	 	04:11:12:10	 	V2687-05
 	ascend	Calycophorae	986.41	2682	 	36.697716	-122.05831	1722920	0.45	2005-07-08 20:06:34.0	Ventana	34.523	03:59:09:16	3.956	V2682-04
 	transect	Phyllospadix	1000.11	2669	 	36.731007	-122.233116	1683874	0.45	2005-05-25 18:37:35.0	Ventana	34.523	01:00:01:04	3.91	V2669-01
 	ascend	Appendicularia	721.93	2681	 	36.6987	-122.05523	1717573	0.29	2005-07-07 20:18:32.4	Ventana	34.44	03:47:33:10	4.936	V2681-04
 	transect	Phyllospadix	600.86	2680	 	36.776814	-122.2221	1804133	0.36	2005-06-27 17:38:41.0	Ventana	34.377	00:18:48:26	5.58	V2680-01
 	descend	Chaetognatha	386.88	2683	 	36.70147	-122.04977	1756619	1.02	2005-07-11 16:58:35.0	Ventana	34.253	00:46:14:25	6.983	V2683-01
 	transect	Psolus squamatus	399.84	2687	http://search.mbari.org/ARCHIVE/frameGrabs/Ventana/images/2687/01_02_17_21.jpg	36.788036	-122.12153	1809104	1.13	2005-07-13 17:35:55.0	Ventana	34.244	01:02:17:21	7.27	V2687-02
 	transect	Phyllospadix	1000.01	2669	 	36.73123	-122.23829	1688845	0.43	2005-05-25 19:17:05.0	Ventana	34.517	01:39:03:11	3.967	V2669-02
 	ascend	Appendicularia	592.69	2682	 	36.698784	-122.06079	1723469	0.4	2005-07-08 20:47:56.0	Ventana	34.371	04:40:03:10	5.666	V2682-05
 	descend	Aegina	810.46	2683	 	36.70268	-122.04868	1757168	0.36	2005-07-11 18:03:14.0	Ventana	34.471	01:47:20:16	4.534	V2683-02
 	transect	Brisaster	599.76	2680	 	36.78436	-122.22972	1805607	0.36	2005-06-27 19:17:06.0	Ventana	34.376	01:56:09:19	5.606	V2680-02
 	transect	Mesomyaria	999.4	2669	 	36.731247	-122.23585	1684413	0.44	2005-05-25 18:56:19.0	Ventana	34.52	01:18:18:26	3.933	V2669-02
 	descend	Poeobius meseres	1016.43	2682	 	36.69832	-122.05922	1722027	0.46	2005-07-08 19:00:54.0	Ventana	34.528	02:53:56:28	3.923	V2682-03
 	ascend	Aegina	667.51	2683	 	36.70542	-122.049644	1757906	0.3	2005-07-11 21:08:06.0	Ventana	34.427	04:40:58:10	5.058	V2683-05
 	transect	Brisaster	 	2687	 	 	 	1811195	 	2005-07-13 20:00:58.0	Ventana	 	03:25:57:21	 	V2687-04
 	transect	Solmissus	300.42	2681	 	36.69675	-122.052315	2492483	1.23	2005-07-07 17:25:46.0	Ventana	34.234	00:56:53:13	7.397	V2681-01HD
 	cruise	Mysidae	341.41	2688	 	36.80778	-122.01985	1677796	1.2	2005-07-14 17:57:53.0	Ventana	34.23	01:43:35:23	7.486	V2688-02
 	descend	Doliolenetta	825.3	2683	 	36.70274	-122.048615	1757200	0.32	2005-07-11 18:17:02.0	Ventana	34.476	02:01:07:26	4.476	V2683-02
 	transect	Rathbunaster californicus	201.83	2696	 	36.805256	-122.12819	1813636	1.5	2005-08-01 18:08:48.0	Ventana	34.211	01:36:40:18	8.665	V2696-02
 	transect	Mediaster	 	2687	 	 	 	1810489	 	2005-07-13 19:20:19.0	Ventana	 	02:46:03:08	 	V2687-03
 	transect	Mesomyaria	999.24	2669	 	36.73101	-122.23201	1683707	0.45	2005-05-25 18:30:05.0	Ventana	34.52	00:52:31:00	3.913	V2669-01
 	transect	Aegina	700.64	2681	 	36.696697	-122.05259	2497718	0.29	2005-07-07 18:40:57.0	Ventana	34.436	02:10:39:04	4.93	V2681-03HD
 	transect	Lycenchelys camchatica	800.7	2674	 	36.7521	-122.20846	1800755	0.35	2005-06-08 18:11:42.0	Ventana	34.49	00:56:13:16	4.324	V2674-01
 	transect	Mesomyaria	1000.23	2669	 	36.73168	-122.24374	1733879	0.41	2005-05-25 19:48:24.0	Ventana	34.507	02:09:55:15	4.068	V2669-03
 	transect	Phyllospadix	800.58	2674	 	36.75108	-122.21765	1803519	0.35	2005-06-08 18:56:36.0	Ventana	34.488	01:40:38:22	4.338	V2674-02
 	transect	Mediaster	 	2687	 	 	 	1812224	 	2005-07-13 20:29:32.0	Ventana	 	03:54:30:19	 	V2687-04
 	ascend	Copepoda	944.32	2682	 	36.697697	-122.0585	1723056	0.42	2005-07-08 20:10:21.0	Ventana	34.515	04:02:32:04	4.052	V2682-05
 	transect	Appendicularia	400.75	2681	 	36.697643	-122.05335	2493189	0.79	2005-07-07 17:48:59.0	Ventana	34.278	01:19:23:07	6.659	V2681-02HD
 	transect	Mesomyaria	1000.42	2669	 	36.73154	-122.24277	1694530	0.4	2005-05-25 19:43:17.0	Ventana	34.506	02:05:13:29	4.087	V2669-02
 	transect	Hormiphora	200.38	2681	 	36.69829	-122.05334	2491071	1.7	2005-07-07 17:11:28.0	Ventana	34.196	00:42:35:09	8.332	V2681-01HD
 	transect	Lycenchelys camchatica	800.91	2674	 	36.75176	-122.211075	1801078	0.35	2005-06-08 18:24:24.0	Ventana	34.488	01:08:29:09	4.34	V2674-02
 	transect	Stomphia	999.23	2669	 	36.731396	-122.23638	1684736	0.44	2005-05-25 19:00:18.0	Ventana	34.52	01:22:17:21	3.946	V2669-02
 	transect	Calycophorae	800.98	2681	 	36.695045	-122.05077	2498041	0.32	2005-07-07 18:53:32.0	Ventana	34.477	02:23:14:21	4.482	V2681-03HD
 	stationary	Appendicularia	501.63	2695	 	36.78454	-122.20046	1824459	0.81	2005-07-28 17:43:51.0	Ventana	34.272	00:50:10:29	6.572	V2695-01
 	descend	Chaetognatha	171.9	2693	 	36.69617	-122.057976	1758229	1.96	2005-07-25 18:01:23.0	Ventana	34.136	00:41:53:20	8.91	V2693-01
 	transect	Psolus squamatus	 	2687	http://search.mbari.org/ARCHIVE/frameGrabs/Ventana/images/2687/03_40_03_15.jpg	 	 	1811518	 	2005-07-13 20:15:04.0	Ventana	 	03:40:03:15	 	V2687-04
 	transect	Eptatretus stoutii	199.38	2696	http://search.mbari.org/ARCHIVE/frameGrabs/Ventana/images/2696/01_01_51_29.jpg	36.803818	-122.12509	1813313	1.52	2005-08-01 17:33:35.0	Ventana	34.209	01:01:51:29	8.65	V2696-01
 	cruise	LRJ Complex	521.82	2688	 	36.799576	-122.01904	1677473	0.65	2005-07-14 17:06:30.0	Ventana	34.316	00:52:47:22	6.349	V2688-01
 	ascend	Appendicularia	585.76	2682	 	36.69883	-122.06025	1723439	0.4	2005-07-08 20:41:54.0	Ventana	34.371	04:34:02:02	5.67	V2682-05
 	descend	Appendicularia	514.01	2683	 	36.701443	-122.049164	1756877	0.66	2005-07-11 17:40:35.0	Ventana	34.304	01:24:42:21	6.424	V2683-02
 	transect	Mesomyaria	999.82	2669	 	36.731335	-122.237885	1687560	0.44	2005-05-25 19:13:55.0	Ventana	34.517	01:35:53:18	3.941	V2669-02
 	ascend	Calycophorae	309.25	2681	 	36.69966	-122.05526	1718174	1.27	2005-07-07 20:58:25.277	Ventana	34.231	04:26:45:25	7.551	V2681-05
 	descend	Euphausia 2	226.95	2682	 	36.699886	-122.060715	1719969	1.53	2005-07-08 16:21:48.47	Ventana	34.222	00:15:53:15	8.036	V2682-01
 	transect	Phyllospadix	998.22	2669	 	36.732952	-122.25215	1737379	0.4	2005-05-25 20:46:14.0	Ventana	34.51	03:07:03:24	4.074	V2669-04
 	ascend	Appendicularia	776.46	2681	 	36.69877	-122.05634	1717468	0.29	2005-07-07 20:06:46.233	Ventana	34.453	03:35:48:11	4.745	V2681-04
 	ascend	Poeobius meseres	1066.42	2682	 	36.698044	-122.05755	1722733	0.52	2005-07-08 20:01:10.0	Ventana	34.541	03:53:45:17	3.744	V2682-04
 	descend	Bathocyroe	810.69	2682	 	36.69834	-122.05957	1721704	0.31	2005-07-08 18:41:16.0	Ventana	34.473	02:34:19:28	4.512	V2682-03
 	transect	Mesomyaria	998.86	2669	 	36.731136	-122.234055	1684030	0.45	2005-05-25 18:42:24.0	Ventana	34.523	01:04:25:03	3.914	V2669-02
 	transect	Lycenchelys camchatica	801.41	2674	 	36.752262	-122.20729	1800049	0.37	2005-06-08 18:06:20.0	Ventana	34.48	00:50:52:01	4.378	V2674-01
 	transect	Mediaster	 	2687	http://search.mbari.org/ARCHIVE/frameGrabs/Ventana/images/2687/00_55_30_08.jpg	 	 	1808754	 	2005-07-13 17:28:38.0	Ventana	 	00:55:30:08	 	V2687-01
 	cruise	mud	359.52	2676	http://search.mbari.org/ARCHIVE/frameGrabs/Ventana/images/2676/00_35_30_15.jpg	36.804672	-122.02899	20003931	1.11	2005-06-14 16:51:23.0	Ventana	34.247	00:35:30:15	7.297	V2676-01
 	transect	Neptunea amianta	602.15	2680	 	36.787704	-122.23193	1805930	0.36	2005-06-27 19:52:33.0	Ventana	34.379	02:31:11:16	5.597	V2680-03
 	transect	Aegina citrea	800.94	2681	 	36.695248	-122.05104	2498101	0.31	2005-07-07 18:54:49.0	Ventana	34.476	02:24:30:12	4.491	V2681-03HD
 	transect	Ceriantharia sp. 2	997.56	2669	 	36.730618	-122.22699	1683324	0.45	2005-05-25 17:54:08.0	Ventana	34.521	00:16:36:25	3.909	V2669-01
 	descend	Appendicularia	381.17	2682	 	36.698433	-122.05994	1720675	0.93	2005-07-08 17:35:24.0	Ventana	34.261	01:28:55:04	6.963	V2682-02
 	transect	lobata	600.52	2681	 	36.697506	-122.05333	2493835	0.3	2005-07-07 18:26:46.0	Ventana	34.388	01:57:08:07	5.471	V2681-02HD
 	descend	Appendicularia	344.05	2683	 	36.70127	-122.04997	1756554	1.25	2005-07-11 16:56:12.0	Ventana	34.226	00:43:52:21	7.236	V2683-01
 	transect	Mediaster	 	2687	 	 	 	1812547	 	2005-07-13 20:45:06.0	Ventana	 	04:09:36:27	 	V2687-05
 	transect	Lycenchelys camchatica	801.17	2674	 	36.750988	-122.21838	1803579	0.35	2005-06-08 18:59:57.0	Ventana	34.49	01:43:59:12	4.355	V2674-02
 	transect	Allocentrotus fragilis	 	2687	 	 	 	1810812	 	2005-07-13 19:35:19.0	Ventana	 	03:01:02:20	 	V2687-03
 	transect	Mesomyaria	998.55	2669	 	36.731106	-122.23065	1651358	0.45	2005-05-25 18:19:13.0	Ventana	34.523	00:41:39:25	3.91	V2669-01
 	cruise	LRJ Complex	1238.63	2683	 	36.705757	-122.048134	1757523	0.73	2005-07-11 19:47:26.0	Ventana	34.577	03:21:49:24	3.335	V2683-04
 	transect	Mesomyaria	999.89	2669	 	36.730988	-122.23252	1683767	0.45	2005-05-25 18:33:51.0	Ventana	34.521	00:56:16:29	3.915	V2669-01
 	transect	Melanostigma pammelas	700.64	2681	 	36.697247	-122.053116	2497658	0.29	2005-07-07 18:38:46.0	Ventana	34.436	02:08:28:20	4.936	V2681-03HD
 	ascend	Appendicularia	426.68	2681	 	36.699085	-122.05423	1717791	0.74	2005-07-07 20:38:08.7	Ventana	34.281	04:07:08:27	6.613	V2681-04
 	transect	Phyllospadix	198.13	2696	 	36.803608	-122.12438	1813253	1.53	2005-08-01 17:27:00.0	Ventana	34.204	00:55:17:13	8.617	V2696-01
 	transect	Porifera	 	2687	 	 	 	1810106	 	2005-07-13 18:56:39.0	Ventana	 	02:22:24:29	 	V2687-03
 	transect	Actiniaria sp. 3	 	2687	 	 	 	1810549	 	2005-07-13 19:22:05.0	Ventana	 	02:47:49:14	 	V2687-03
 	transect	Ceriantharia sp. 2	1001.14	2669	 	36.7323	-122.24928	1736290	0.4	2005-05-25 20:27:48.0	Ventana	34.508	02:49:18:04	4.072	V2669-03
 	ascend	sinker	566.18	2683	 	36.70459	-122.050644	1757966	0.35	2005-07-11 21:13:34.0	Ventana	34.37	04:46:26:14	5.848	V2683-05
 	transect	molt	100.49	2681	 	36.699825	-122.05429	2489719	2.13	2005-07-07 16:48:35.0	Ventana	34.067	00:19:44:13	9.151	V2681-01HD
 	transect	Mediaster	 	2687	 	 	 	1807079	 	2005-07-13 16:58:13.0	Ventana	 	00:25:07:24	 	V2687-01
 	transect	Mesomyaria	999.98	2669	 	36.731113	-122.238625	1688882	0.43	2005-05-25 19:18:57.0	Ventana	34.525	01:40:56:00	3.98	V2669-02
 	descend	Aegina	1104.64	2682	 	36.69823	-122.05915	1722087	0.56	2005-07-08 19:08:00.0	Ventana	34.552	03:00:37:17	3.627	V2682-04
 	transect	Psolus squamatus	 	2687	http://search.mbari.org/ARCHIVE/frameGrabs/Ventana/images/2687/00_54_09_20.jpg	 	 	1808694	 	2005-07-13 17:27:17.0	Ventana	 	00:54:09:20	 	V2687-01
 	descend	Aegina	502.55	2681	 	36.698097	-122.05387	1715470	0.45	2005-07-07 17:53:59.033	Ventana	34.343	01:24:20:25	6.03	V2681-02
 	transect	Phyllospadix	801.53	2674	 	36.752167	-122.20785	1800109	0.35	2005-06-08 18:08:49.0	Ventana	34.489	00:53:20:22	4.327	V2674-01
 	transect	Calliostoma platinum	 	2687	 	 	 	1807342	 	2005-07-13 17:07:27.0	Ventana	 	00:34:20:19	 	V2687-01
 	transect	Stomphia	999.95	2669	 	36.7326	-122.25053	1736996	0.41	2005-05-25 20:36:38.0	Ventana	34.508	02:58:05:28	4.073	V2669-03
 	transect	Calliostoma platinum	399.86	2687	 	36.788048	-122.12154	1809137	1.13	2005-07-13 17:36:07.0	Ventana	34.242	01:02:29:21	7.271	V2687-02
 	descend	Appendicularia	504.91	2683	 	36.701565	-122.04933	1756817	0.68	2005-07-11 17:28:20.0	Ventana	34.305	01:12:27:12	6.466	V2683-02
 	ascend	Cydippida	184.98	2693	 	36.690613	-122.06291	1759228	1.93	2005-07-25 21:29:23.0	Ventana	34.138	03:53:55:14	8.863	V2693-04
 	transect	Euphausia	200.41	2681	 	36.698288	-122.05332	2491011	1.71	2005-07-07 17:10:46.0	Ventana	34.192	00:41:53:28	8.325	V2681-01HD
 	transect	Ophiuroidea	999.0	2669	 	36.731415	-122.2362	1684676	0.44	2005-05-25 18:59:03.0	Ventana	34.52	01:21:02:22	3.94	V2669-02
 	transect	Mesomyaria	800.19	2674	http://search.mbari.org/ARCHIVE/frameGrabs/Ventana/images/2674/00_41_15_18.jpg	36.752445	-122.20537	1799786	0.36	2005-06-08 17:56:43.0	Ventana	34.487	00:41:15:18	4.361	V2674-01
 	transect	Gastropoda sp.2	1000.49	2669	 	36.732227	-122.24865	1736230	0.41	2005-05-25 20:23:39.0	Ventana	34.509	02:45:07:28	4.063	V2669-03
 	transect	molt	100.5	2681	 	36.699696	-122.05421	2489779	2.13	2005-07-07 16:50:21.0	Ventana	34.067	00:21:30:04	9.159	V2681-01HD
 	transect	lobata	900.98	2681	 	36.69487	-122.05052	2498484	0.39	2005-07-07 19:16:45.0	Ventana	34.505	02:46:25:27	4.169	V2681-03HD
 	cruise	Chionoecetes tanneri	1210.99	2683	 	36.706734	-122.04762	1757643	0.73	2005-07-11 20:12:49.0	Ventana	34.578	03:47:10:28	3.341	V2683-04
 	descend	Calycophorae	239.78	2683	 	36.700966	-122.05063	1756434	1.71	2005-07-11 16:49:54.0	Ventana	34.188	00:37:35:03	8.075	V2683-01
 	transect	Phyllospadix	802.24	2674	 	36.75176	-122.21045	1801018	0.35	2005-06-08 18:22:04.0	Ventana	34.491	01:06:09:00	4.328	V2674-02
 	descend	Nanomia	400.23	2681	 	36.69556	-122.051155	1715147	0.8	2005-07-07 17:34:38.83	Ventana	34.278	01:05:02:10	6.678	V2681-02
 	transect	Phyllospadix	801.1	2674	 	36.752544	-122.201645	1799080	0.34	2005-06-08 17:36:42.0	Ventana	34.483	00:21:16:03	4.416	V2674-01
 	descend	Appendicularia	881.27	2682	 	36.69828	-122.05944	1721764	0.33	2005-07-08 18:50:17.0	Ventana	34.49	02:43:20:09	4.34	V2682-03
 	ascend	Calycophorae	1169.65	2682	 	36.698265	-122.057495	1722470	0.65	2005-07-08 19:53:36.0	Ventana	34.564	03:46:11:15	3.449	V2682-04
 	transect	Mesomyaria	1000.24	2669	 	36.73194	-122.24649	1735704	0.41	2005-05-25 20:08:26.0	Ventana	34.51	02:29:56:22	4.064	V2669-03
 	transect	Phyllospadix	800.5	2674	 	36.75249	-122.203094	1799283	0.34	2005-06-08 17:43:56.0	Ventana	34.479	00:28:29:05	4.411	V2674-01
 	transect	Ceriantharia sp. 1	602.39	2680	 	36.790295	-122.232704	1806756	0.35	2005-06-27 20:18:09.0	Ventana	34.378	02:56:46:06	5.586	V2680-03
 	descend	Copepoda	537.41	2683	 	36.701576	-122.04915	1756937	0.53	2005-07-11 17:43:26.0	Ventana	34.327	01:27:33:08	6.191	V2683-02
 	transect	Rathbunaster californicus	 	2687	 	 	 	1812667	 	2005-07-13 20:50:27.0	Ventana	 	04:14:57:23	 	V2687-05
 	transect	molt	100.53	2681	 	36.69983	-122.05429	2489599	2.12	2005-07-07 16:45:48.0	Ventana	34.068	00:16:57:27	9.15	V2681-01HD
 	descend	Nanomia	365.98	2682	 	36.698532	-122.06024	1720352	0.98	2005-07-08 17:28:30.0	Ventana	34.26	01:22:00:29	7.04	V2682-02
 	descend	Phialidium	784.1	2683	 	36.70256	-122.04886	1757140	0.35	2005-07-11 17:59:29.0	Ventana	34.454	01:43:34:15	4.703	V2683-02
 	transect	Nanomia bijuga	200.47	2681	 	36.69828	-122.05329	2490485	1.7	2005-07-07 17:07:06.0	Ventana	34.198	00:38:15:13	8.347	V2681-01HD
 	descend	Appendicularia	384.63	2683	 	36.70146	-122.04978	1756614	1.02	2005-07-11 16:58:27.0	Ventana	34.253	00:46:07:24	6.983	V2683-01
 	transect	Phyllospadix	204.12	2696	 	36.80529	-122.12825	1813696	1.48	2005-08-01 18:15:50.0	Ventana	34.213	01:43:42:00	8.633	V2696-02
 	transect	cyclothone	901.05	2681	 	36.696434	-122.05252	2498304	0.39	2005-07-07 19:09:09.0	Ventana	34.504	02:38:50:15	4.168	V2681-03HD
 	cruise	Pleuronectiformes	305.2	2688	 	36.808697	-122.0203	1677856	1.35	2005-07-14 18:13:02.0	Ventana	34.219	01:58:43:20	7.842	V2688-02
 	transect	Mesomyaria	999.44	2669	 	36.73133	-122.23592	1684473	0.44	2005-05-25 18:57:06.0	Ventana	34.52	01:19:05:22	3.936	V2669-02
 	ascend	Aegina	994.11	2681	 	36.696743	-122.053116	1716559	0.45	2005-07-07 19:33:00.533	Ventana	34.525	03:02:41:17	3.943	V2681-03
 	transect	Mesomyaria	999.35	2669	 	36.730503	-122.22864	1650915	0.45	2005-05-25 18:04:32.0	Ventana	34.522	00:27:00:05	3.906	V2669-01
 	transect	Allocentrotus fragilis	 	2687	 	 	 	1811255	 	2005-07-13 20:05:30.0	Ventana	 	03:30:29:27	 	V2687-04
 	transect	Mesomyaria	999.75	2669	 	36.730576	-122.22903	1651035	0.45	2005-05-25 18:06:53.0	Ventana	34.521	00:29:20:25	3.907	V2669-01
 	ascend	Appendicularia	604.81	2682	 	36.698624	-122.06167	1723529	0.33	2005-07-08 20:57:25.0	Ventana	34.374	04:49:31:26	5.619	V2682-05
 	transect	Ceriantharia sp. 1	799.27	2674	 	36.751755	-122.21234	1801198	0.35	2005-06-08 18:29:23.0	Ventana	34.488	01:13:27:29	4.335	V2674-02
 	descend	Dosidicus gigas	697.95	2682	 	36.698612	-122.05998	1721441	0.29	2005-07-08 18:15:22.0	Ventana	34.427	02:08:26:04	5.046	V2682-03
 	transect	Nanomia bijuga	200.44	2681	 	36.69828	-122.05329	2490102	1.7	2005-07-07 17:04:42.0	Ventana	34.197	00:35:50:25	8.36	V2681-01HD
 	transect	Polychaeta	700.64	2681	 	36.69611	-122.052	2497778	0.29	2005-07-07 18:43:25.0	Ventana	34.435	02:13:08:19	4.946	V2681-03HD
 	descend	Appendicularia	466.98	2683	 	36.701565	-122.04935	1756757	0.77	2005-07-11 17:13:33.0	Ventana	34.286	01:01:13:00	6.652	V2683-01
 	transect	Teuthoidea	400.76	2681	 	36.697308	-122.05296	2493129	0.79	2005-07-07 17:47:33.0	Ventana	34.278	01:17:56:28	6.663	V2681-02HD
 	transect	Neptunea amianta	999.8	2669	 	36.7313	-122.238045	1688356	0.44	2005-05-25 19:15:14.0	Ventana	34.518	01:37:12:20	3.958	V2669-02
 	descend	Appendicularia	941.64	2683	 	36.70377	-122.04859	1757320	0.4	2005-07-11 19:08:50.0	Ventana	34.508	02:49:11:23	4.125	V2683-03
 	descend	Poeobius meseres	1097.03	2683	 	36.705116	-122.048904	1757463	0.56	2005-07-11 19:29:20.0	Ventana	34.542	03:09:40:27	3.714	V2683-03
 	cruise	rock outcrop	100.9	2676	 	36.807083	-122.04038	1677150	1.92	2005-06-14 19:11:52.0	Ventana	34.158	02:50:37:15	8.439	V2676-03
 	descend	Appendicularia	212.73	2693	 	36.696053	-122.058235	1758349	1.71	2005-07-25 18:26:36.0	Ventana	34.189	01:06:40:07	8.612	V2693-02
 	transect	Parastichopus leukothele	197.74	2696	 	36.802666	-122.12169	1812990	1.53	2005-08-01 16:50:03.0	Ventana	34.204	00:18:22:20	8.565	V2696-01
 	descend	Copepoda	1182.7	2682	 	36.698364	-122.05815	1722290	0.66	2005-07-08 19:38:41.0	Ventana	34.567	03:31:17:14	3.42	V2682-04
 	transect	Nanomia bijuga	200.42	2681	 	36.69828	-122.0533	2490808	1.72	2005-07-07 17:08:59.0	Ventana	34.193	00:40:08:01	8.323	V2681-01HD
 	transect	Phyllospadix	200.4	2696	 	36.80518	-122.12806	1813576	1.5	2005-08-01 18:00:59.0	Ventana	34.211	01:28:51:29	8.67	V2696-02
 	transect	Mesomyaria	800.82	2674	 	36.75247	-122.204544	1799606	0.35	2005-06-08 17:52:25.0	Ventana	34.481	00:36:58:10	4.367	V2674-01
 	transect	Psolus squamatus	 	2687	 	 	 	1807139	 	2005-07-13 17:01:25.0	Ventana	 	00:28:19:07	 	V2687-01
 	ascend	Lobata	437.46	2683	 	36.704197	-122.05058	1758026	0.8	2005-07-11 21:18:45.0	Ventana	34.281	04:51:37:16	6.719	V2683-05
 	transect	Porifera sp. 1	 	2687	http://search.mbari.org/ARCHIVE/frameGrabs/Ventana/images/2687/03_16_31_19.jpg	 	 	1811075	 	2005-07-13 19:51:30.0	Ventana	 	03:16:31:19	 	V2687-04
 	ascend	Leuroglossus stilbius	646.56	2682	 	36.698883	-122.059654	1723379	0.3	2005-07-08 20:36:01.0	Ventana	34.391	04:28:08:06	5.375	V2682-05
 	transect	Mesomyaria	999.98	2669	 	36.731762	-122.24429	1734262	0.4	2005-05-25 19:51:43.0	Ventana	34.51	02:13:15:21	4.076	V2669-03
 	transect	Phyllospadix	800.84	2674	 	36.751984	-122.209175	1800875	0.35	2005-06-08 18:15:20.0	Ventana	34.49	00:59:51:16	4.322	V2674-01
 	transect	Sebastolobus altivelis	598.55	2680	 	36.78077	-122.22576	1804811	0.35	2005-06-27 18:27:18.0	Ventana	34.382	01:06:24:21	5.575	V2680-02
 	transect	Ophiuroidea	1000.34	2669	 	36.731464	-122.24216	1694470	0.4	2005-05-25 19:40:23.0	Ventana	34.509	02:02:20:01	4.069	V2669-02
 	transect	Mediaster	 	2687	 	 	 	1812284	 	2005-07-13 20:30:50.0	Ventana	 	03:55:47:27	 	V2687-04
 	ascend	Solmaris	401.62	2682	 	36.69778	-122.06237	1723732	0.9	2005-07-08 21:21:54.0	Ventana	34.264	05:13:35:26	6.784	V2682-06
 	stationary	Appendicularia	502.29	2694	 	36.7846	-122.20047	1676617	0.85	2005-07-27 19:51:46.0	Ventana	34.271	02:23:56:04	6.654	V2694-03
 	transect	Ceriantharia sp. 1	598.91	2680	 	36.780155	-122.22518	1804608	0.35	2005-06-27 18:19:26.0	Ventana	34.383	00:59:31:20	5.549	V2680-01
 	transect	Psolus squamatus	399.86	2687	http://search.mbari.org/ARCHIVE/frameGrabs/Ventana/images/2687/01_02_12_24.jpg	36.788044	-122.12152	1809077	1.14	2005-07-13 17:35:50.0	Ventana	34.237	01:02:12:24	7.276	V2687-02
 	starttransect	color bars	200.32	2681	 	36.69828	-122.05329	1713555	1.69	2005-07-07 17:04:12.467	Ventana	34.194	00:35:20:13	8.359	V2681-01
 	transect	Mesomyaria	998.94	2669	 	36.731396	-122.23653	1684796	0.44	2005-05-25 19:01:48.0	Ventana	34.52	01:23:47:27	3.939	V2669-02
 	transect	Ophiuroidea	999.82	2669	 	36.7314	-122.23747	1687500	0.44	2005-05-25 19:10:47.0	Ventana	34.519	01:32:46:11	3.946	V2669-02
 	transect	Mesomyaria	1000.15	2669	 	36.73118	-122.24046	1689265	0.41	2005-05-25 19:30:30.0	Ventana	34.51	01:52:27:28	4.059	V2669-02
 	ascend	Nanomia	346.78	2693	 	36.69381	-122.06113	1758905	1.25	2005-07-25 21:05:06.0	Ventana	34.234	03:29:39:12	7.383	V2693-04
 	starttransect	physical object	601.6	2680	 	36.776653	-122.22199	1804105	0.36	2005-06-27 17:36:36.0	Ventana	34.382	00:16:44:13	5.569	V2680-01
 	transect	Ceriantharia sp. 2	1000.22	2669	 	36.73175	-122.2448	1734465	0.4	2005-05-25 19:55:23.0	Ventana	34.508	02:16:54:17	4.076	V2669-03
 	transect	Pannychia moseleyi	798.88	2674	 	36.75138	-122.215096	1801401	0.35	2005-06-08 18:44:20.0	Ventana	34.489	01:28:23:23	4.338	V2674-02
 	cruise	Hippasteria	 	2687	 	 	 	1806959	 	2005-07-13 16:50:53.0	Ventana	 	00:17:47:09	 	V2687-01
 	transect	Mediaster	 	2687	 	 	 	1812487	 	2005-07-13 20:41:19.0	Ventana	 	04:06:16:04	 	V2687-04
 	transect	Pennatulacea sp.1	600.05	2680	 	36.786263	-122.23095	1805870	0.36	2005-06-27 19:36:17.0	Ventana	34.377	02:14:56:08	5.599	V2680-03
 	ascend	Solmissus	425.18	2694	 	36.785	-122.200874	1676767	1.11	2005-07-27 21:03:26.0	Ventana	34.255	03:34:46:25	7.412	V2694-04
 	ascend	Chuniphyes	741.88	2683	 	36.706234	-122.04857	1757846	0.33	2005-07-11 21:03:43.0	Ventana	34.455	04:36:35:02	4.712	V2683-05
 	transect	Euphausia	200.38	2681	 	36.698307	-122.05339	2491191	1.68	2005-07-07 17:12:40.0	Ventana	34.2	00:43:47:06	8.337	V2681-01HD
 	transect	Ophiuroidea	998.5	2669	 	36.731094	-122.23068	1683384	0.45	2005-05-25 18:19:48.0	Ventana	34.521	00:42:15:08	3.911	V2669-01
 	descend	Appendicularia	538.23	2682	 	36.698612	-122.05978	1720878	0.37	2005-07-08 18:03:49.0	Ventana	34.366	01:57:18:03	5.764	V2682-02
 	transect	Brisaster	 	2687	 	 	 	1810166	 	2005-07-13 19:03:42.0	Ventana	 	02:29:26:19	 	V2687-03
 	transect	Pennatulacea sp.1	599.91	2680	 	36.784153	-122.22951	1805517	0.36	2005-06-27 19:14:17.0	Ventana	34.375	01:53:20:06	5.608	V2680-02
 	transect	Psolus squamatus	399.87	2687	 	36.788128	-122.12165	1809257	1.13	2005-07-13 17:37:41.0	Ventana	34.243	01:04:03:22	7.26	V2687-02
 	transect	Rathbunaster californicus	197.16	2696	 	36.8034	-122.123634	1813193	1.55	2005-08-01 17:18:14.0	Ventana	34.2	00:46:32:12	8.621	V2696-01
 	transect	pseudothecosomata	1000.96	2681	 	36.69634	-122.05262	2498687	0.47	2005-07-07 19:29:21.0	Ventana	34.531	02:59:00:26	3.874	V2681-03HD
 	transect	Nanomia bijuga	200.45	2681	 	36.69828	-122.05329	2490305	1.69	2005-07-07 17:06:42.0	Ventana	34.199	00:37:49:28	8.355	V2681-01HD
 	ascend	Appendicularia	278.62	2693	 	36.691414	-122.06222	1759085	1.43	2005-07-25 21:20:29.0	Ventana	34.246	03:45:00:13	8.254	V2693-04
 	transect	Porifera sp. 1	 	2687	 	 	 	1807665	 	2005-07-13 17:21:46.0	Ventana	 	00:48:38:13	 	V2687-01
 	descend	Calycophorae	332.01	2682	 	36.698795	-122.060616	1720172	1.08	2005-07-08 17:11:03.0	Ventana	34.248	01:04:35:07	7.204	V2682-02
 	transect	Sebastolobus altivelis	801.17	2674	 	36.752167	-122.20808	1800695	0.35	2005-06-08 18:09:58.0	Ventana	34.489	00:54:29:13	4.332	V2674-01
 	transect	Rathbunaster californicus	199.43	2696	 	36.80408	-122.125755	1813373	1.52	2005-08-01 17:40:27.0	Ventana	34.208	01:08:21:16	8.67	V2696-02
 	transect	Phyllospadix	800.37	2674	 	36.752598	-122.200294	1774084	0.29	2005-06-08 17:29:29.0	Ventana	34.462	00:14:02:28	4.649	V2674-01
 	transect	Mediaster	 	2687	 	 	 	1810872	 	2005-07-13 19:38:27.0	Ventana	 	03:04:09:25	 	V2687-03
 	transect	Mesomyaria	1000.77	2669	 	36.73229	-122.2494	1736410	0.4	2005-05-25 20:28:35.0	Ventana	34.508	02:50:03:19	4.075	V2669-03
 	transect	Rathbunaster californicus	 	2687	 	 	 	1812404	 	2005-07-13 20:36:50.0	Ventana	 	04:01:47:18	 	V2687-04
 	transect	Appendicularia	800.9	2681	 	36.695984	-122.051926	2498221	0.31	2005-07-07 18:58:20.0	Ventana	34.476	02:28:01:00	4.496	V2681-03HD
 	ascend	sinker	814.16	2682	 	36.69865	-122.05874	1723259	0.32	2005-07-08 20:22:47.0	Ventana	34.466	04:14:55:15	4.535	V2682-05
 	transect	Lycenchelys camchatica	1000.04	2669	 	36.731792	-122.244644	1734405	0.4	2005-05-25 19:54:17.18	Ventana	34.51	02:15:48:13	4.084	V2669-03
 	transect	Mesomyaria	799.29	2674	 	36.75165	-122.21316	1801258	0.35	2005-06-08 18:32:23.0	Ventana	34.489	01:16:27:13	4.347	V2674-02
 	descend	Leuroglossus stilbius	435.17	2683	 	36.701473	-122.04953	1756674	0.87	2005-07-11 17:06:49.0	Ventana	34.27	00:54:29:29	6.784	V2683-01
 	transect	Poeobius meseres	600.61	2681	 	36.695953	-122.05154	2493692	0.3	2005-07-07 18:19:54.0	Ventana	34.387	01:50:16:24	5.494	V2681-02HD
 	ascend	Appendicularia	569.7	2682	 	36.6983	-122.06251	1723589	0.38	2005-07-08 21:07:02.0	Ventana	34.359	04:59:09:11	5.816	V2682-05
 	descend	Appendicularia	281.96	2693	 	36.697926	-122.06136	1758432	1.41	2005-07-25 19:36:15.0	Ventana	34.235	02:15:51:10	7.992	V2693-03
 	ascend	Appendicularia	258.8	2681	 	36.69877	-122.05686	1719083	1.42	2005-07-07 21:22:19.567	Ventana	34.228	04:50:38:19	7.961	V2681-05
 	transect	Phyllospadix	803.51	2674	 	36.75077	-122.22043	1803699	0.34	2005-06-08 19:08:53.0	Ventana	34.489	01:52:55:00	4.373	V2674-02
 	transect	molt	100.57	2681	 	36.69983	-122.05429	2489516	2.12	2005-07-07 16:43:27.0	Ventana	34.068	00:14:36:23	9.147	V2681-01HD
 	descend	Appendicularia	628.86	2681	 	36.697956	-122.05388	1715936	0.31	2005-07-07 18:29:41.203	Ventana	34.397	02:00:01:25	5.357	V2681-02
 	ascend	Cyclothone	868.09	2681	 	36.698433	-122.05547	1717348	0.35	2005-07-07 19:52:59.5	Ventana	34.5	03:22:02:15	4.309	V2681-04
 	transect	tuscaroridae	400.8	2681	 	36.696297	-122.05176	2492986	0.79	2005-07-07 17:43:11.0	Ventana	34.276	01:13:35:12	6.65	V2681-02HD
 	transect	Ceriantharia sp. 1	599.88	2680	 	36.778526	-122.22372	1804405	0.36	2005-06-27 18:00:13.0	Ventana	34.379	00:40:19:12	5.583	V2680-01
 	transect	Rathbunaster californicus	196.33	2696	 	36.803097	-122.12271	1813110	1.57	2005-08-01 17:07:24.0	Ventana	34.196	00:35:42:08	8.628	V2696-01
 	descend	Mysidae	1008.19	2683	 	36.70407	-122.0499	1757380	0.44	2005-07-11 19:16:56.0	Ventana	34.523	02:57:17:28	3.994	V2683-03
 	transect	Mediaster	 	2687	 	 	 	1810692	 	2005-07-13 19:28:36.0	Ventana	 	02:54:20:00	 	V2687-03
 	transect	Phyllospadix	1000.34	2669	 	36.731915	-122.24699	1735787	0.41	2005-05-25 20:11:39.0	Ventana	34.51	02:33:09:16	4.064	V2669-03
 	transect	Zaniolepididae	199.97	2696	 	36.804516	-122.12664	1813456	1.51	2005-08-01 17:49:28.0	Ventana	34.211	01:17:20:25	8.668	V2696-02
 	descend	Appendicularia	470.71	2682	 	36.69853	-122.05966	1720795	0.52	2005-07-08 17:56:27.0	Ventana	34.323	01:49:56:24	6.198	V2682-02
 	ascend	Copepoda	1169.33	2683	 	36.707058	-122.04815	1757726	0.7	2005-07-11 20:28:00.0	Ventana	34.569	04:02:21:11	3.407	V2683-04
 	transect	Phyllospadix	 	2687	 	 	 	1807545	 	2005-07-13 17:14:48.0	Ventana	 	00:41:41:06	 	V2687-01
 	transect	Mesomyaria	998.75	2669	 	36.73089	-122.22969	1651155	0.45	2005-05-25 18:12:09.0	Ventana	34.522	00:34:36:01	3.908	V2669-01
 	transect	Stomphia	999.91	2669	 	36.731068	-122.239204	1689122	0.43	2005-05-25 19:22:26.0	Ventana	34.517	01:44:24:02	3.976	V2669-02
 	ascend	Poeobius meseres	376.76	2693	 	36.69607	-122.06057	1758762	1.2	2005-07-25 20:49:37.0	Ventana	34.231	03:14:12:03	7.156	V2693-04
 	cruise	mud	997.6	2669	 	36.73063	-122.226875	1649037	0.45	2005-05-25 17:52:16.0	Ventana	34.521	00:14:44:07	3.909	V2669-01
 	transect	Mediaster	 	2687	 	 	 	1810992	 	2005-07-13 19:46:55.0	Ventana	 	03:11:56:07	 	V2687-04
 	cruise	mud	257.41	2688	http://search.mbari.org/ARCHIVE/frameGrabs/Ventana/images/2688/02_13_52_22.jpg	36.809193	-122.02036	20005200	1.52	2005-07-14 18:28:37.0	Ventana	34.197	02:13:52:22	8.173	V2688-03
 	transect	Solaster borealis	998.98	2669	http://search.mbari.org/ARCHIVE/frameGrabs/Ventana/images/2669/01_20_43_19.jpg	36.731403	-122.23617	1684616	0.44	2005-05-25 18:58:44.0	Ventana	34.521	01:20:43:19	3.944	V2669-02
 	ascend	Copepoda	358.17	2681	 	36.69936	-122.055	1718054	1.02	2005-07-07 20:51:52.393	Ventana	34.259	04:20:13:10	7.126	V2681-05
 	transect	Mesomyaria	998.1	2669	 	36.733032	-122.252815	1737499	0.4	2005-05-25 20:49:40.0	Ventana	34.508	03:10:27:27	4.074	V2669-04
 	ascend	Calycophorae	991.72	2682	 	36.697723	-122.0583	1722913	0.45	2005-07-08 20:06:18.0	Ventana	34.524	03:58:52:02	3.951	V2682-04
 	transect	Ophiuroidea	999.18	2669	 	36.731087	-122.23494	1684210	0.45	2005-05-25 18:49:41.0	Ventana	34.52	01:11:41:20	3.92	V2669-02
 	descend	Copepoda	400.28	2681	 	36.69562	-122.05106	1715230	0.79	2005-07-07 17:37:14.287	Ventana	34.278	01:07:38:04	6.676	V2681-02
 	ascend	Nanomia	258.17	2681	 	36.697838	-122.05522	1719383	 	2005-07-07 21:29:59.0	Ventana	 	05:03:07:02	 	V2681-05
 	cruise	Pleuronectiformes	466.02	2688	 	36.80245	-122.018234	1677593	0.82	2005-07-14 17:30:42.0	Ventana	34.283	01:16:26:04	6.738	V2688-02
 	cruise	Florometra	115.98	2688	 	36.811333	-122.022545	1677999	1.95	2005-07-14 18:41:56.0	Ventana	34.093	02:27:11:02	8.9	V2688-03
 	cruise	Rathbunaster californicus	90.23	2688	 	36.81676	-122.01586	1679351	2.0	2005-07-14 20:11:14.0	Ventana	34.086	03:55:59:06	8.912	V2688-04
 	cruise	Stylasterias	135.67	2676	 	36.808548	-122.03096	1676887	1.71	2005-06-14 18:00:15.0	Ventana	34.175	01:39:58:09	8.309	V2676-02
 	descend	Chaetognatha	307.26	2682	 	36.699432	-122.0607	1720089	1.15	2005-07-08 16:43:47.0	Ventana	34.239	00:37:50:25	7.303	V2682-01
 	transect	Copepoda	700.6	2681	 	36.695587	-122.05143	2497921	0.28	2005-07-07 18:45:56.0	Ventana	34.435	02:15:38:18	4.948	V2681-03HD
 	ascend	Hastigerinella digitata	284.31	2683	 	36.703262	-122.05065	1758086	1.31	2005-07-11 21:25:19.0	Ventana	34.249	04:58:11:05	7.831	V2683-05
 	transect	Phyllospadix	999.99	2669	http://search.mbari.org/ARCHIVE/frameGrabs/Ventana/images/2669/02_11_18_22.jpg	36.731712	-122.243935	1734059	0.41	2005-05-25 19:49:48.0	Ventana	34.513	02:11:18:22	4.081	V2669-03
 	cruise	Alepocephalus tenebrosus	621.08	2688	http://search.mbari.org/ARCHIVE/frameGrabs/Ventana/images/2688/00_15_24_22.jpg	36.79425	-122.01955	1677293	0.42	2005-07-14 16:29:06.0	Ventana	34.408	00:15:24:22	5.281	V2688-01
 	transect	Phyllospadix	1000.27	2669	 	36.73134	-122.24161	1689828	0.4	2005-05-25 19:37:20.0	Ventana	34.508	01:59:17:07	4.089	V2669-02
 	transect	Mesomyaria	999.09	2669	 	36.732754	-122.25135	1737199	0.41	2005-05-25 20:41:11.0	Ventana	34.509	03:01:59:20	4.072	V2669-04
 	cruise	Sebastes	279.3	2676	 	36.805412	-122.03181	1676211	1.43	2005-06-14 16:18:52.0	Ventana	34.215	00:03:02:15	7.864	V2676-01
 	descend	Chuniphyes	605.01	2683	 	36.70195	-122.049034	1757020	0.35	2005-07-11 17:49:30.0	Ventana	34.369	01:33:37:07	5.764	V2683-02
 	transect	Poeobius meseres	1000.99	2681	 	36.69558	-122.051636	2498627	0.48	2005-07-07 19:25:38.0	Ventana	34.533	02:55:18:24	3.846	V2681-03HD
 	descend	Chuniphyes	779.74	2681	 	36.694904	-122.05056	1716296	0.32	2005-07-07 18:51:21.733	Ventana	34.459	02:21:04:25	4.678	V2681-03
 	transect	Ceriantharia sp. 1	602.02	2680	 	36.791332	-122.232925	1806839	0.35	2005-06-27 20:27:13.0	Ventana	34.378	03:05:48:29	5.588	V2680-03
 	transect	Microstomus pacificus	999.73	2669	http://search.mbari.org/ARCHIVE/frameGrabs/Ventana/images/2669/00_47_43_22.jpg	36.731033	-122.23125	1683587	0.45	2005-05-25 18:25:17.0	Ventana	34.521	00:47:43:22	3.912	V2669-01
 	transect	Gastropoda	203.48	2696	 	36.8064	-122.12995	1813756	1.48	2005-08-01 18:27:15.0	Ventana	34.213	01:55:05:27	8.627	V2696-02
 	transect	Mesomyaria	999.71	2669	 	36.730705	-122.22948	1651095	0.45	2005-05-25 18:10:09.0	Ventana	34.521	00:32:36:11	3.908	V2669-01
 	cruise	boulder	93.68	2688	 	36.81522	-122.0173	1679411	1.96	2005-07-14 20:29:45.0	Ventana	34.094	04:14:28:28	8.949	V2688-04
 	transect	Psolus squamatus	 	2687	 	 	 	1808611	 	2005-07-13 17:25:24.0	Ventana	 	00:52:16:11	 	V2687-01
 	ascend	Nanomia	408.72	2681	 	36.699238	-122.05438	1717971	0.82	2005-07-07 20:46:45.0	Ventana	34.279	04:15:06:13	6.764	V2681-05
 	cruise	Hydrolagus colliei	 	2687	 	 	 	1806899	 	2005-07-13 16:34:03.0	Ventana	 	00:00:58:20	 	V2687-01
 	ascend	Poeobius meseres	1108.23	2683	 	36.707905	-122.04905	1757786	0.6	2005-07-11 20:42:52.0	Ventana	34.548	04:17:13:21	3.653	V2683-04
 	transect	Phyllospadix	200.4	2696	 	36.80474	-122.127235	1813516	1.51	2005-08-01 17:55:25.0	Ventana	34.21	01:23:17:29	8.672	V2696-02
 	ascend	Appendicularia	583.89	2681	 	36.69893	-122.05426	1717708	0.35	2005-07-07 20:30:41.05	Ventana	34.37	03:59:42:06	5.735	V2681-04
 	transect	Euplexaura	399.68	2687	 	36.78926	-122.12455	1809580	1.17	2005-07-13 18:21:06.0	Ventana	34.237	01:47:25:08	7.343	V2687-02
 	transect	Nanomia bijuga	200.43	2681	 	36.69828	-122.0533	2490868	1.71	2005-07-07 17:09:21.0	Ventana	34.195	00:40:29:06	8.326	V2681-01HD
 	transect	Neptunea amianta	800.86	2674	 	36.752567	-122.20244	1799200	0.34	2005-06-08 17:40:55.0	Ventana	34.476	00:25:28:29	4.411	V2674-01
 	transect	Phyllospadix	196.51	2696	 	36.802895	-122.12219	1813050	1.54	2005-08-01 17:01:19.0	Ventana	34.201	00:29:38:03	8.601	V2696-01
 	transect	Nanomia bijuga	200.46	2681	 	36.69828	-122.05329	2490628	1.73	2005-07-07 17:07:55.0	Ventana	34.193	00:39:02:08	8.328	V2681-01HD
 	transect	Psolus squamatus	 	2687	 	 	 	1807605	 	2005-07-13 17:17:16.0	Ventana	 	00:44:08:29	 	V2687-01
 	transect	Phyllospadix	 	2687	 	 	 	1812810	 	2005-07-13 20:58:55.0	Ventana	 	04:23:24:29	 	V2687-05
 	transect	chuniphyes	500.6	2681	 	36.6975	-122.05323	2493392	0.44	2005-07-07 17:56:51.0	Ventana	34.347	01:27:13:25	6.017	V2681-02HD
 	transect	Psolus squamatus	 	2687	 	 	 	1808874	 	2005-07-13 17:30:55.0	Ventana	 	00:57:47:19	 	V2687-01
 	transect	Psolus squamatus	399.87	2687	 	36.788128	-122.12177	1809317	1.13	2005-07-13 17:39:23.0	Ventana	34.241	01:05:45:16	7.267	V2687-02
 	transect	Psolus squamatus	399.49	2687	 	36.78941	-122.12518	1809663	1.15	2005-07-13 18:31:24.0	Ventana	34.242	01:57:42:19	7.305	V2687-02
 	transect	Mesomyaria	800.96	2674	 	36.752605	-122.201935	1799140	0.34	2005-06-08 17:38:37.0	Ventana	34.477	00:23:11:08	4.4	V2674-01
 	transect	Phyllospadix	801.69	2674	 	36.752476	-122.19951	1773784	0.29	2005-06-08 17:23:58.0	Ventana	34.46	00:08:33:05	4.649	V2674-01
 	stationary	Merluccius productus	502.32	2694	 	36.78459	-122.20046	1676624	0.83	2005-07-27 19:55:33.0	Ventana	34.274	02:27:43:00	6.635	V2694-03
 	transect	Ceriantharia sp. 1	598.66	2680	 	36.782173	-122.22727	1805111	0.35	2005-06-27 18:45:55.0	Ventana	34.38	01:25:00:10	5.58	V2680-02
 	transect	Calycophorae	500.59	2681	 	36.69587	-122.051315	2493655	0.43	2005-07-07 18:04:06.0	Ventana	34.348	01:34:29:01	6.006	V2681-02HD
 	transect	Phyllospadix	802.16	2674	 	36.752308	-122.20584	1799846	0.36	2005-06-08 17:59:02.0	Ventana	34.49	00:43:34:07	4.333	V2674-01
 	cruise	Lycodes	462.23	2676	 	36.802692	-122.02935	1676294	0.58	2005-06-14 16:35:14.533	Ventana	34.34	00:19:22:16	6.231	V2676-01
 	transect	Mesomyaria	999.68	2669	 	36.731426	-122.237015	1687440	0.44	2005-05-25 19:06:48.0	Ventana	34.52	01:28:47:02	3.942	V2669-02
 	transect	Glyptocephalus zachirus	 	2687	 	 	 	1810729	 	2005-07-13 19:29:59.0	Ventana	 	02:55:42:14	 	V2687-03
 	cruise	bacterial mat	1016.42	2689	http://search.mbari.org/ARCHIVE/frameGrabs/Ventana/images/2689/00_17_47_26.jpg	36.771584	-122.08293	1669677	0.51	2005-07-18 16:54:45.0	Ventana	34.535	00:17:47:26	3.825	V2689-01
 	transect	Phyllospadix	998.74	2669	 	36.732845	-122.25191	1737259	0.4	2005-05-25 20:44:30.0	Ventana	34.509	03:05:18:25	4.076	V2669-04
 	transect	Psolus squamatus	 	2687	 	 	 	1810023	 	2005-07-13 18:51:15.0	Ventana	 	02:17:00:21	 	V2687-03
 	transect	Caecosagitta macrocephala	1001.05	2681	 	36.695034	-122.050934	2498567	0.47	2005-07-07 19:22:43.0	Ventana	34.531	02:52:23:11	3.866	V2681-03HD
 	transect	Ophiuroidea	998.14	2669	 	36.73114	-122.23102	1683504	0.45	2005-05-25 18:22:42.0	Ventana	34.522	00:45:08:13	3.914	V2669-01
 	transect	Mesomyaria	1000.11	2669	 	36.73094	-122.233734	1683947	0.45	2005-05-25 18:40:15.0	Ventana	34.523	01:02:16:19	3.911	V2669-02
 	transect	Mesomyaria	799.05	2674	 	36.751328	-122.215385	1803339	0.35	2005-06-08 18:45:35.0	Ventana	34.489	01:29:38:26	4.339	V2674-02
 	transect	Porifera sp. 1	 	2687	 	 	 	1810286	 	2005-07-13 19:14:18.0	Ventana	 	02:40:01:21	 	V2687-03
 	ascend	Appendicularia	265.36	2681	 	36.699524	-122.05448	1718414	1.4	2005-07-07 21:08:16.767	Ventana	34.236	04:36:36:21	7.898	V2681-05
 	transect	Psolus squamatus	 	2687	 	 	 	1808957	 	2005-07-13 17:32:36.0	Ventana	 	00:59:28:12	 	V2687-01
 	descend	Nanomia	196.04	2683	 	36.701065	-122.05097	1756374	1.68	2005-07-11 16:46:25.0	Ventana	34.194	00:34:04:24	8.422	V2683-01
 	descend	Dosidicus gigas	602.25	2681	 	36.69565	-122.051125	1715650	0.3	2005-07-07 18:09:06.733	Ventana	34.39	01:39:28:19	5.473	V2681-02
 	descend	Euphausiacea	267.57	2682	 	36.699745	-122.060745	1720029	1.35	2005-07-08 16:31:01.0	Ventana	34.231	00:25:05:00	7.754	V2682-01
 	ascend	Nanomia	 	2683	 	 	 	1758146	 	2005-07-11 14:31:51.0	Ventana	 	05:04:41:25	 	V2683-05
 	transect	Aegina	901.08	2681	 	36.69684	-122.05298	2498281	0.39	2005-07-07 19:07:06.0	Ventana	34.505	02:36:48:20	4.164	V2681-03HD
 	cruise	Sebastes	97.12	2688	http://search.mbari.org/ARCHIVE/frameGrabs/Ventana/images/2688/03_43_59_21.jpg	36.817047	-122.01449	20005260	1.99	2005-07-14 19:59:14.0	Ventana	34.087	03:43:59:21	8.915	V2688-04
 	transect	Sebastes crameri	 	2687	 	 	 	1810932	 	2005-07-13 19:43:08.0	Ventana	 	03:08:10:01	 	V2687-04
 	transect	Mesomyaria	999.79	2669	 	36.73105	-122.23967	1689182	0.41	2005-05-25 19:25:29.0	Ventana	34.51	01:47:27:15	4.062	V2669-02
 	transect	Psolus squamatus	399.86	2687	 	36.788113	-122.12162	1809220	1.13	2005-07-13 17:37:21.0	Ventana	34.243	01:03:43:12	7.255	V2687-02
 	ascend	sinker	829.6	2681	 	36.698784	-122.056274	1717408	0.31	2005-07-07 19:57:47.667	Ventana	34.483	03:26:49:26	4.432	V2681-04
 	transect	Psolus squamatus	 	2687	 	 	 	1809017	 	2005-07-13 17:33:36.0	Ventana	 	01:00:28:25	 	V2687-01
 	transect	Mediaster	 	2687	 	 	 	1811638	 	2005-07-13 20:18:10.0	Ventana	 	03:43:09:01	 	V2687-04
 	transect	Mesomyaria	800.22	2674	 	36.752083	-122.208824	1800815	0.35	2005-06-08 18:13:33.0	Ventana	34.489	00:58:04:20	4.334	V2674-01
 	transect	Pennatula phosphorea californica	998.49	2669	 	36.731174	-122.23452	1684150	0.45	2005-05-25 18:45:56.0	Ventana	34.522	01:07:56:29	3.916	V2669-02
 	ascend	Appendicularia	945.52	2681	 	36.697453	-122.05389	1716905	0.41	2005-07-07 19:41:42.167	Ventana	34.516	03:10:45:11	4.065	V2681-04
 	transect	Ophiuroidea	999.14	2669	 	36.731163	-122.23557	1684353	0.45	2005-05-25 18:54:25.0	Ventana	34.523	01:16:25:16	3.919	V2669-02
 	transect	Chaetognatha	300.43	2681	 	36.6963	-122.05192	2492543	1.23	2005-07-07 17:27:04.0	Ventana	34.233	00:58:12:12	7.4	V2681-01HD
 	transect	Poeobius meseres	600.58	2681	 	36.69653	-122.05216	2493752	0.3	2005-07-07 18:22:27.0	Ventana	34.388	01:52:48:06	5.48	V2681-02HD
 	ascend	Aegina	715.56	2682	 	36.69882	-122.0593	1723319	0.28	2005-07-08 20:30:51.0	Ventana	34.432	04:23:00:26	4.969	V2682-05
 	transect	Actiniaria sp. 3	399.89	2687	 	36.788155	-122.12188	1809377	1.16	2005-07-13 17:40:32.0	Ventana	34.239	01:06:53:22	7.323	V2687-02
 	transect	Phyllospadix	799.41	2674	 	36.75271	-122.20078	1774144	0.29	2005-06-08 17:32:31.0	Ventana	34.454	00:17:04:23	4.638	V2674-01
 	transect	Gastropoda sp.2	997.87	2669	 	36.730556	-122.22825	1694936	0.45	2005-05-25 18:02:08.0	Ventana	34.523	00:24:36:10	3.907	V2669-01
 	ascend	Acanthamunnopsis milleri	258.17	2681	 	36.697838	-122.05522	1719526	 	2005-07-07 21:29:59.0	Ventana	 	05:11:10:19	 	V2681-05
 	transect	Mediaster	 	2687	 	 	 	1811841	 	2005-07-13 20:26:53.0	Ventana	 	03:51:51:08	 	V2687-04
 	transect	Ophiuroidea	999.79	2669	 	36.732655	-122.25105	1737056	0.41	2005-05-25 20:39:11.0	Ventana	34.509	03:00:39:19	4.069	V2669-03
 	cruise	Nanomia	363.36	2676	 	36.80455	-122.02907	1676497	0.95	2005-06-14 16:46:16.0	Ventana	34.271	00:30:24:16	7.046	V2676-01
 	transect	Phyllospadix	800.45	2674	 	36.7512	-122.21659	1803436	0.35	2005-06-08 18:51:45.0	Ventana	34.487	01:35:47:29	4.359	V2674-02
 	descend	sediment	1004.17	2679	http://search.mbari.org/ARCHIVE/frameGrabs/Ventana/images/2679/00_00_37_04.jpg	36.68986	-122.1656	1824339	0.41	2005-06-16 17:29:16.0	Ventana	34.513	00:00:37:04	4.116	V2679-01
 	transect	Mesomyaria	1000.5	2669	 	36.731224	-122.24115	1689385	0.41	2005-05-25 19:34:32.0	Ventana	34.512	01:56:29:17	4.058	V2669-02
 	transect	Ceriantharia sp. 2	1000.29	2669	 	36.731644	-122.243256	1733796	0.41	2005-05-25 19:46:05.0	Ventana	34.51	02:07:38:08	4.063	V2669-03
 	ascend	Appendicularia	332.04	2693	 	36.69214	-122.06186	1759025	1.29	2005-07-25 21:15:57.0	Ventana	34.236	03:40:29:03	7.553	V2693-04
 	transect	Ophiuroidea	998.46	2669	 	36.731136	-122.2308	1683444	0.45	2005-05-25 18:20:58.0	Ventana	34.518	00:43:24:17	3.917	V2669-01
 	transect	Psolus squamatus	 	2687	 	 	 	1810083	 	2005-07-13 18:55:09.0	Ventana	 	02:20:54:19	 	V2687-03
 	cruise	Rathbunaster californicus	440.42	2676	 	36.8032	-122.02924	1676354	0.64	2005-06-14 16:39:28.0	Ventana	34.312	00:23:36:24	6.37	V2676-01
 	transect	Caridea sp.1	999.24	2669	 	36.731018	-122.23213	1695093	0.45	2005-05-25 18:30:37.0	Ventana	34.521	00:53:02:18	3.916	V2669-01
 	transect	Porifera	 	2687	 	 	 	1810226	 	2005-07-13 19:10:32.0	Ventana	 	02:36:17:00	 	V2687-03
 	cruise	Lycodapus	404.81	2688	 	36.80648	-122.01939	1677736	1.04	2005-07-14 17:50:36.867	Ventana	34.252	01:36:20:17	7.168	V2688-02
 	ascend	Appendicularia	465.09	2681	 	36.699005	-122.0542	1717768	0.57	2005-07-07 20:36:15.267	Ventana	34.318	04:05:15:18	6.325	V2681-04
 	transect	Phyllospadix	802.98	2674	 	36.752247	-122.206245	1799906	0.36	2005-06-08 18:01:00.0	Ventana	34.489	00:45:32:08	4.334	V2674-01
 	transect	Praya	50.37	2681	 	36.69983	-122.05429	2485723	3.02	2005-07-07 16:39:28.0	Ventana	33.907	00:10:38:11	9.635	V2681-01HD
 	cruise	Pandalus platyceros	233.82	2688	 	36.80991	-122.020584	1677939	1.61	2005-07-14 18:32:03.763	Ventana	34.178	02:17:19:23	8.389	V2688-03
 	transect	Ophiuroidea	998.97	2669	 	36.731377	-122.23608	1684556	0.44	2005-05-25 18:58:08.0	Ventana	34.522	01:20:07:20	3.94	V2669-02
 	ascend	Cydippida	254.16	2681	 	36.69838	-122.05594	1719180	1.46	2005-07-07 21:24:37.833	Ventana	34.226	04:52:56:23	7.994	V2681-05
 	descend	Crustacea	894.75	2681	 	36.69693	-122.05313	1716499	0.38	2005-07-07 19:05:53.167	Ventana	34.502	02:35:35:26	4.189	V2681-03
 	transect	Ceriantharia sp. 1	598.22	2680	 	36.78174	-122.22685	1805051	0.36	2005-06-27 18:40:30.0	Ventana	34.376	01:19:35:07	5.601	V2680-02
 	transect	molt	100.54	2681	 	36.69983	-122.05429	2489659	2.13	2005-07-07 16:47:18.0	Ventana	34.069	00:18:27:27	9.147	V2681-01HD
 	cruise	rock outcrop	292.96	2676	http://search.mbari.org/ARCHIVE/frameGrabs/Ventana/images/2676/01_06_52_12.jpg	36.805122	-122.02918	1676684	1.46	2005-06-14 17:27:08.0	Ventana	34.218	01:06:52:12	7.875	V2676-02
 	transect	Sebastolobus altivelis	800.22	2674	 	36.751762	-122.21193	1801161	0.35	2005-06-08 18:27:50.0	Ventana	34.488	01:11:54:21	4.343	V2674-02
 	transect	Mediaster	 	2687	 	 	 	1810789	 	2005-07-13 19:34:40.0	Ventana	 	03:00:23:14	 	V2687-03
 	ascend	Nanomia	204.84	2693	 	36.690983	-122.06264	1759168	1.8	2005-07-25 21:25:14.0	Ventana	34.2	03:49:45:12	8.788	V2693-04
 	transect	Calycophorae	500.6	2681	 	36.696533	-122.05212	2493595	0.44	2005-07-07 18:00:59.0	Ventana	34.348	01:31:22:16	6.011	V2681-02HD
 	descend	Nanomia	160.54	2683	 	36.700813	-122.051384	1756314	1.69	2005-07-11 16:37:12.0	Ventana	34.176	00:24:54:13	8.795	V2683-01
 	ascend	Appendicularia	262.64	2681	 	36.69945	-122.054565	1718474	1.41	2005-07-07 21:10:07.6	Ventana	34.231	04:38:27:01	7.925	V2681-05
 	transect	Salpida	400.75	2681	 	36.69677	-122.05235	2493046	0.79	2005-07-07 17:45:20.0	Ventana	34.277	01:15:44:17	6.659	V2681-02HD
 	transect	Ophiuroidea	997.29	2669	 	36.730602	-122.227554	1649180	0.45	2005-05-25 17:57:51.0	Ventana	34.521	00:20:19:05	3.909	V2669-01
 	transect	Umbellula lindahli	599.87	2680	 	36.77807	-122.22322	1804345	0.36	2005-06-27 17:53:42.0	Ventana	34.377	00:33:49:16	5.591	V2680-01
 	transect	Gastropoda sp.2	999.99	2669	 	36.73109	-122.23916	1694733	0.43	2005-05-25 19:22:17.0	Ventana	34.515	01:44:15:00	3.978	V2669-02
 	transect	Dosidicus gigas	400.8	2681	 	36.695763	-122.05115	2492889	0.79	2005-07-07 17:40:42.0	Ventana	34.277	01:11:07:09	6.67	V2681-02HD
 	transect	Stomphia	801.51	2674	 	36.751907	-122.20985	1800958	0.35	2005-06-08 18:19:29.0	Ventana	34.489	01:03:34:09	4.337	V2674-02
 	cruise	Mysidae	1016.27	2689	 	36.77155	-122.08298	1669737	0.57	2005-07-18 17:10:23.0	Ventana	34.55	00:33:25:19	3.647	V2689-01
 	transect	Mesomyaria	999.25	2669	 	36.73107	-122.233955	1684007	0.45	2005-05-25 18:41:31.0	Ventana	34.522	01:03:32:03	3.913	V2669-02
 	cruise	Chionoecetes tanneri	1222.92	2683	 	36.706142	-122.047714	1757583	0.72	2005-07-11 20:00:24.0	Ventana	34.572	03:34:46:23	3.344	V2683-04
 	transect	Laminariales	999.82	2669	 	36.73129	-122.23814	1688822	0.43	2005-05-25 19:15:51.0	Ventana	34.522	01:37:49:16	3.958	V2669-02
 	transect	Mediaster	 	2687	 	 	 	1811338	 	2005-07-13 20:08:00.0	Ventana	 	03:32:59:27	 	V2687-04
 	ascend	Euphausiacea	261.18	2681	 	36.698837	-122.057	1719023	1.42	2005-07-07 21:21:04.253	Ventana	34.23	04:49:23:06	7.953	V2681-05
 	transect	Calycophorae	200.41	2681	 	36.698284	-122.05331	2490928	1.71	2005-07-07 17:09:55.0	Ventana	34.195	00:41:03:07	8.323	V2681-01HD
 	transect	Psolus squamatus	 	2687	 	 	 	1811135	 	2005-07-13 19:56:03.0	Ventana	 	03:21:03:21	 	V2687-04
 	transect	molt	100.49	2681	 	36.69897	-122.05374	2489862	2.12	2005-07-07 16:52:00.0	Ventana	34.07	00:23:08:25	9.148	V2681-01HD
 	ascend	Appendicularia	524.28	2682	 	36.698303	-122.062965	1723649	0.45	2005-07-08 21:11:23.0	Ventana	34.341	05:03:03:22	6.071	V2682-06
 	transect	Mesomyaria	798.34	2674	 	36.751614	-122.21389	1801318	0.35	2005-06-08 18:37:40.0	Ventana	34.488	01:21:44:02	4.338	V2674-02
 	transect	Mediaster	 	2687	 	 	 	1812201	 	2005-07-13 20:28:56.0	Ventana	 	03:53:54:27	 	V2687-04
 	starttransect	object	203.47	2696	 	36.80713	-122.130775	1813816	1.47	2005-08-01 18:39:31.0	Ventana	34.216	02:07:24:29	8.624	V2696-03
 	transect	Aegina	901.0	2681	 	36.69558	-122.05148	2498424	0.39	2005-07-07 19:12:58.0	Ventana	34.504	02:42:39:11	4.172	V2681-03HD
 	transect	Porifera sp. 1	 	2687	 	 	 	1807199	 	2005-07-13 17:03:20.0	Ventana	 	00:30:14:22	 	V2687-01
 	cruise	Ophiodon elongatus	114.05	2688	 	36.813114	-122.018974	1678096	1.97	2005-07-14 19:23:54.44	Ventana	34.097	03:09:06:24	8.929	V2688-03
 	transect	Psolus squamatus	 	2687	 	 	 	1808814	 	2005-07-13 17:30:01.0	Ventana	 	00:56:53:09	 	V2687-01
 	cruise	Merluccius productus	506.25	2694	 	36.783962	-122.20088	1676151	0.75	2005-07-27 17:07:01.0	Ventana	34.289	00:00:09:22	6.472	V2694-01
 	transect	Mesomyaria	999.65	2669	 	36.730946	-122.231544	1683647	0.45	2005-05-25 18:27:38.0	Ventana	34.522	00:50:04:09	3.912	V2669-01
 	descend	Crustacea	1200.66	2682	 	36.69832	-122.05902	1722207	0.68	2005-07-08 19:18:19.0	Ventana	34.573	03:10:57:11	3.368	V2682-04
 	transect	Mediaster	 	2687	 	 	 	1812750	 	2005-07-13 20:55:57.0	Ventana	 	04:20:27:03	 	V2687-05
 	transect	Mediaster	 	2687	 	 	 	1810429	 	2005-07-13 19:17:55.0	Ventana	 	02:43:39:14	 	V2687-03
 	transect	Ophiuroidea	999.35	2669	 	36.731422	-122.23627	1684713	0.44	2005-05-25 18:59:34.0	Ventana	34.52	01:21:34:00	3.941	V2669-02
 	descend	Nanomia	192.8	2693	 	36.696087	-122.05817	1758289	1.79	2005-07-25 18:14:47.0	Ventana	34.186	00:55:17:05	8.907	V2693-01
 	transect	lobata	50.54	2681	 	36.699043	-122.05368	2485393	 	2005-07-07 16:31:26.0	Ventana	 	00:02:36:02	 	V2681-01HD
 	ascend	Appendicularia	336.04	2681	 	36.69946	-122.055275	1718114	1.15	2005-07-07 20:54:27.867	Ventana	34.245	04:22:48:05	7.297	V2681-05
 	transect	Neptunea amianta	801.79	2674	 	36.75092	-122.21969	1803639	0.35	2005-06-08 19:05:15.0	Ventana	34.493	01:49:17:10	4.365	V2674-02
 	ascend	Appendicularia	695.07	2683	 	36.70574	-122.04911	1757883	0.27	2005-07-11 21:06:15.0	Ventana	34.451	04:39:07:08	4.829	V2683-05
 	transect	Mediaster	 	2687	 	 	 	1811218	 	2005-07-13 20:03:55.0	Ventana	 	03:28:54:15	 	V2687-04
 	starttransect	object	201.44	2696	 	36.805256	-122.12819	1813613	1.5	2005-08-01 18:06:01.0	Ventana	34.21	01:33:54:00	8.671	V2696-02
 	descend	Aegina	1065.15	2682	 	36.698334	-122.05914	1722050	0.5	2005-07-08 19:04:23.0	Ventana	34.537	02:57:24:18	3.789	V2682-03
 	transect	Nanomia bijuga	200.45	2681	 	36.69828	-122.05329	2490725	1.71	2005-07-07 17:08:31.0	Ventana	34.193	00:39:39:05	8.323	V2681-01HD
 	transect	Mesomyaria	997.54	2669	 	36.730656	-122.227776	1649217	0.45	2005-05-25 17:59:01.0	Ventana	34.522	00:21:29:09	3.907	V2669-01
 	descend	Appendicularia	301.53	2681	 	36.695698	-122.05132	1713652	1.24	2005-07-07 17:29:51.233	Ventana	34.233	01:00:58:18	7.414	V2681-01
 	descend	Chaetognatha	842.54	2683	 	36.702858	-122.04841	1757223	0.33	2005-07-11 18:24:45.0	Ventana	34.483	02:08:49:26	4.416	V2683-02
 	transect	Rathbunaster californicus	203.04	2696	 	36.805256	-122.12819	1813659	1.48	2005-08-01 18:12:22.0	Ventana	34.212	01:40:14:09	8.609	V2696-02
 	transect	Porifera	 	2687	 	 	 	1807702	 	2005-07-13 17:23:22.0	Ventana	 	00:50:14:16	 	V2687-01
 	transect	Mesomyaria	999.8	2669	 	36.731342	-122.23781	1687537	0.44	2005-05-25 19:13:13.0	Ventana	34.517	01:35:12:14	3.95	V2669-02
 	transect	Psolus squamatus	 	2687	 	 	 	1808731	 	2005-07-13 17:27:55.0	Ventana	 	00:54:48:01	 	V2687-01
 	transect	Mesomyaria	801.27	2674	 	36.752266	-122.20714	1800026	0.36	2005-06-08 18:05:25.0	Ventana	34.487	00:49:57:06	4.367	V2674-01
 	ascend	Euphausiacea	258.17	2681	 	36.697838	-122.05522	1719563	 	2005-07-07 21:29:59.0	Ventana	 	05:14:13:21	 	V2681-05
 	transect	Ceriantharia sp. 2	1000.04	2669	 	36.7326	-122.25035	1736973	0.41	2005-05-25 20:35:43.0	Ventana	34.51	02:57:10:26	4.068	V2669-03
 	transect	Mediaster	 	2687	 	 	 	1811878	 	2005-07-13 20:28:09.0	Ventana	 	03:53:07:14	 	V2687-04
 	ascend	Appendicularia	257.2	2681	 	36.69796	-122.05499	1719240	1.46	2005-07-07 21:26:24.7	Ventana	34.223	04:54:44:01	7.984	V2681-05
 	descend	Appendicularia	278.08	2683	 	36.701	-122.05025	1756471	1.36	2005-07-11 16:52:19.0	Ventana	34.232	00:40:00:02	7.809	V2683-01
 	transect	Sergestes similis	300.48	2681	 	36.697784	-122.0532	2492137	1.23	2005-07-07 17:22:15.0	Ventana	34.233	00:53:21:13	7.399	V2681-01HD
 	transect	Ophiuroidea	998.53	2669	 	36.73111	-122.23071	1683407	0.45	2005-05-25 18:20:07.0	Ventana	34.521	00:42:33:20	3.912	V2669-01
 	transect	Ophiuroidea	999.04	2669	 	36.73139	-122.23639	1684759	0.44	2005-05-25 19:00:23.0	Ventana	34.518	01:22:23:05	3.944	V2669-02
 	descend	Appendicularia	523.2	2683	 	36.70146	-122.04913	1756900	0.58	2005-07-11 17:41:38.0	Ventana	34.32	01:25:44:13	6.285	V2683-02
 	transect	Caecosagitta macrocephala	901.01	2681	 	36.695457	-122.05129	2498447	0.39	2005-07-07 19:13:36.0	Ventana	34.505	02:43:17:22	4.171	V2681-03HD
 	transect	cydippida	100.49	2681	 	36.699806	-122.05428	2489742	2.12	2005-07-07 16:49:23.0	Ventana	34.067	00:20:31:17	9.156	V2681-01HD
 	transect	Nanomia bijuga	200.41	2681	 	36.698296	-122.05335	2491094	1.69	2005-07-07 17:11:46.0	Ventana	34.198	00:42:53:09	8.335	V2681-01HD
 	transect	Rathbunaster californicus	198.83	2696	 	36.803745	-122.124825	1813290	1.53	2005-08-01 17:31:24.0	Ventana	34.203	00:59:41:21	8.636	V2696-01
 	transect	Ceriantharia sp. 1	603.17	2680	 	36.788742	-122.23242	1805967	0.35	2005-06-27 20:03:01.0	Ventana	34.377	02:41:39:03	5.588	V2680-03
 	transect	Calliostoma platinum	 	2687	 	 	 	1807319	 	2005-07-13 17:06:35.0	Ventana	 	00:33:28:26	 	V2687-01
 	ascend	Appendicularia	590.59	2682	 	36.69879	-122.06073	1723462	0.4	2005-07-08 20:47:26.0	Ventana	34.372	04:39:34:08	5.67	V2682-05
 	transect	Pennatula phosphorea californica	599.08	2680	 	36.779976	-122.22501	1804585	0.35	2005-06-27 18:17:17.0	Ventana	34.384	00:57:22:17	5.531	V2680-01
 	stationary	Merluccius productus	504.18	2695	 	36.78466	-122.2005	1824482	0.67	2005-07-28 18:58:47.0	Ventana	34.296	04:05:01:22	6.292	V2695-02
 	transect	Mesomyaria	998.84	2669	 	36.73115	-122.2341	1684067	0.45	2005-05-25 18:42:36.0	Ventana	34.523	01:04:37:10	3.914	V2669-02
 	transect	Psolus squamatus	399.88	2687	 	36.788036	-122.1215	1809054	1.14	2005-07-13 17:35:33.0	Ventana	34.24	01:01:55:03	7.282	V2687-02
 	transect	Microstomus pacificus	 	2687	http://search.mbari.org/ARCHIVE/frameGrabs/Ventana/images/2687/03_40_29_19.jpg	 	 	1811555	 	2005-07-13 20:15:30.0	Ventana	 	03:40:29:19	 	V2687-04
 	ascend	Chaetognatha	370.92	2693	 	36.696186	-122.060905	1758635	1.2	2005-07-25 20:22:43.0	Ventana	34.232	03:02:16:22	7.15	V2693-03
 	transect	Phyllospadix	800.21	2674	 	36.75209	-122.20857	1800778	0.35	2005-06-08 18:12:21.0	Ventana	34.488	00:56:53:06	4.326	V2674-01
 	descend	Merluccius productus	306.74	2685	 	36.793163	-121.8819	1669774	1.23	2005-07-12 20:19:08.0	Ventana	34.22	00:16:43:18	7.496	V2685-01
 	transect	Ophiuroidea	999.57	2669	 	36.73099	-122.23234	1683730	0.45	2005-05-25 18:31:50.0	Ventana	34.52	00:54:15:27	3.918	V2669-01
 	transect	Phyllospadix	1000.3	2669	 	36.731506	-122.24245	1694507	0.41	2005-05-25 19:41:41.0	Ventana	34.509	02:03:38:08	4.065	V2669-02
 	transect	Mediaster	 	2687	 	 	 	1812247	 	2005-07-13 20:29:53.0	Ventana	 	03:54:51:14	 	V2687-04
 	ascend	Euphausiacea	262.56	2681	 	36.69888	-122.056854	1718903	1.42	2005-07-07 21:19:11.233	Ventana	34.232	04:47:30:15	7.95	V2681-05
 	transect	Mesomyaria	800.72	2674	 	36.751045	-122.217995	1803542	0.35	2005-06-08 18:58:08.0	Ventana	34.485	01:42:10:15	4.34	V2674-02
 	transect	Appendicularia	400.76	2681	 	36.69754	-122.05323	2493166	0.79	2005-07-07 17:48:33.0	Ventana	34.277	01:18:56:18	6.66	V2681-02HD
 	ascend	Euphausiacea	288.82	2681	 	36.69974	-122.05521	1718211	1.36	2005-07-07 21:00:22.933	Ventana	34.229	04:28:42:26	7.728	V2681-05
 	descend	Nanomia	172.0	2682	 	36.699886	-122.06075	1719932	2.18	2005-07-08 16:19:42.0	Ventana	34.13	00:13:47:17	8.289	V2682-01
 	transect	Chionoecetes tanneri	999.73	2669	 	36.731934	-122.24611	1735621	0.41	2005-05-25 20:04:19.0	Ventana	34.51	02:25:49:02	4.062	V2669-03
 	transect	chuniphyes	901.04	2681	 	36.695904	-122.05186	2498387	0.39	2005-07-07 19:11:30.0	Ventana	34.505	02:41:11:21	4.171	V2681-03HD
 	transect	Neptunea amianta	1000.93	2669	 	36.73229	-122.24932	1736373	0.41	2005-05-25 20:28:05.0	Ventana	34.51	02:49:33:16	4.07	V2669-03
 	transect	Nanomia bijuga	200.39	2681	 	36.698303	-122.053375	2491154	1.68	2005-07-07 17:12:18.0	Ventana	34.198	00:43:26:18	8.337	V2681-01HD
 	transect	doliolenetta	500.55	2681	 	36.696976	-122.052574	2493549	0.44	2005-07-07 17:59:18.0	Ventana	34.344	01:29:42:05	6.025	V2681-02HD
 	descend	Paralepididae	504.97	2683	 	36.70151	-122.04918	1756840	0.68	2005-07-11 17:37:41.0	Ventana	34.306	01:21:48:07	6.462	V2683-02
 	transect	Sergestes similis	600.55	2681	 	36.697784	-122.05369	2493858	0.3	2005-07-07 18:28:07.0	Ventana	34.387	01:58:28:04	5.48	V2681-02HD
 	descend	Copepoda	360.23	2683	 	36.701347	-122.049866	1756577	1.14	2005-07-11 16:57:06.0	Ventana	34.237	00:44:46:29	7.148	V2683-01
 	transect	Stomphia	601.97	2680	 	36.787155	-122.23163	1805907	0.36	2005-06-27 19:46:22.0	Ventana	34.377	02:25:00:16	5.6	V2680-03
 	transect	Ceriantharia sp. 2	997.6	2669	 	36.730633	-122.2281	1683347	0.45	2005-05-25 18:01:10.0	Ventana	34.521	00:23:37:28	3.907	V2669-01
 	transect	Mesomyaria	1000.26	2669	 	36.73128	-122.240944	1689348	0.41	2005-05-25 19:33:37.0	Ventana	34.51	01:55:34:17	4.056	V2669-02
 	descend	Chaetognatha	776.38	2682	 	36.698376	-122.05977	1721667	0.3	2005-07-08 18:33:08.0	Ventana	34.458	02:26:11:00	4.687	V2682-03
 	descend	Poeobius meseres	1162.7	2683	 	36.705116	-122.048904	1757500	0.67	2005-07-11 19:34:28.0	Ventana	34.561	03:14:49:13	3.468	V2683-03
 	transect	Mesomyaria	799.96	2674	 	36.752464	-122.20493	1799689	0.35	2005-06-08 17:54:22.0	Ventana	34.488	00:38:54:16	4.354	V2674-01
 	transect	Mediaster	 	2687	 	 	 	1810835	 	2005-07-13 19:35:57.0	Ventana	 	03:01:40:15	 	V2687-03
 	transect	Sebastolobus altivelis	801.34	2674	 	36.750957	-122.21876	1803602	0.35	2005-06-08 19:01:22.0	Ventana	34.487	01:45:24:05	4.352	V2674-02
 	transect	haliscera	200.46	2681	 	36.69828	-122.05329	2490342	1.7	2005-07-07 17:07:04.0	Ventana	34.198	00:38:12:29	8.347	V2681-01HD
 	transect	Psolus squamatus	399.84	2687	http://search.mbari.org/ARCHIVE/frameGrabs/Ventana/images/2687/01_02_17_21.jpg	36.788036	-122.12153	1809114	1.13	2005-07-13 17:35:55.0	Ventana	34.244	01:02:17:21	7.27	V2687-02
 	cruise	Pennatulacea	498.73	2695	 	36.784454	-122.20028	1824422	0.89	2005-07-28 17:04:53.0	Ventana	34.264	00:11:15:08	6.708	V2695-01
 	ascend	Copepoda	737.04	2681	 	36.698734	-122.05551	1717551	0.26	2005-07-07 20:16:20.933	Ventana	34.442	03:45:22:14	4.855	V2681-04
 	transect	Caridea sp.1	602.86	2680	 	36.78958	-122.23257	1806719	0.35	2005-06-27 20:12:02.0	Ventana	34.378	02:50:38:27	5.589	V2680-03
 	transect	Halipteris californica	597.79	2680	 	36.78106	-122.22601	1804848	0.35	2005-06-27 18:31:06.0	Ventana	34.377	01:10:11:20	5.59	V2680-02
 	transect	Chaetognatha	200.46	2681	 	36.698402	-122.05348	2491417	1.68	2005-07-07 17:14:09.0	Ventana	34.2	00:45:15:23	8.341	V2681-01HD
 	descend	Crustacea	854.83	2683	 	36.702904	-122.04836	1757237	0.34	2005-07-11 18:25:49.0	Ventana	34.487	02:09:54:00	4.363	V2683-02
 	transect	Psolus squamatus	 	2687	 	 	 	1807056	 	2005-07-13 16:56:50.0	Ventana	 	00:23:44:11	 	V2687-01
 	ascend	Chaetognatha	494.81	2683	 	36.704372	-122.050575	1757989	0.6	2005-07-11 21:16:32.0	Ventana	34.317	04:49:24:22	6.403	V2683-05
 	transect	Allocentrotus fragilis	 	2687	 	 	 	1811278	 	2005-07-13 20:05:34.0	Ventana	 	03:30:33:21	 	V2687-04
 	transect	Porifera sp. 1	 	2687	 	 	 	1812630	 	2005-07-13 20:48:51.0	Ventana	 	04:13:21:20	 	V2687-05
 	transect	Mesomyaria	999.98	2669	 	36.731422	-122.23677	1686891	0.44	2005-05-25 19:04:03.0	Ventana	34.52	01:26:02:15	3.943	V2669-02
 	transect	Mesomyaria	1000.14	2669	 	36.731236	-122.23836	1688859	0.43	2005-05-25 19:17:33.0	Ventana	34.516	01:39:31:19	3.98	V2669-02
 	descend	Nanomia	177.2	2693	 	36.696087	-122.05814	1758252	1.93	2005-07-25 18:07:21.0	Ventana	34.149	00:47:51:20	8.883	V2693-01
 	transect	Lycenchelys camchatica	800.67	2674	 	36.751743	-122.21131	1801101	0.35	2005-06-08 18:25:18.0	Ventana	34.488	01:09:22:16	4.345	V2674-02
 	ascend	Chaetognatha	322.61	2681	 	36.699696	-122.05526	1718151	1.21	2005-07-07 20:57:00.067	Ventana	34.235	04:25:20:06	7.373	V2681-05
 	descend	Chaetognatha	1079.2	2682	 	36.698307	-122.059166	1722064	0.51	2005-07-08 19:05:37.0	Ventana	34.541	02:58:38:15	3.754	V2682-03
 	ascend	Calycophorae	345.23	2693	 	36.69329	-122.06137	1758942	1.25	2005-07-25 21:10:32.0	Ventana	34.236	03:35:04:17	7.407	V2693-04
 	transect	Mediaster	 	2687	 	 	 	1808671	 	2005-07-13 17:26:43.0	Ventana	 	00:53:35:24	 	V2687-01
 	transect	Chaetognatha	400.78	2681	 	36.69719	-122.05282	2493106	0.79	2005-07-07 17:47:04.0	Ventana	34.277	01:17:28:24	6.661	V2681-02HD
 	transect	Mesomyaria	1000.03	2669	 	36.73095	-122.232605	1683790	0.45	2005-05-25 18:34:26.0	Ventana	34.521	00:56:51:17	3.911	V2669-01
 	transect	Pennatula phosphorea californica	1000.0	2669	http://search.mbari.org/ARCHIVE/frameGrabs/Ventana/images/2669/02_09_27_10.jpg	36.731693	-122.24362	1733856	0.41	2005-05-25 19:47:57.0	Ventana	34.508	02:09:27:10	4.069	V2669-03
 	transect	Ceriantharia sp. 2	1000.51	2669	 	36.732388	-122.24974	1736710	0.41	2005-05-25 20:31:23.0	Ventana	34.51	02:52:52:05	4.068	V2669-03
 	descend	Nanomia	237.25	2681	 	36.698555	-122.053535	1713592	1.46	2005-07-07 17:15:41.467	Ventana	34.224	00:46:49:07	8.117	V2681-01
 	descend	Myctophidae	560.65	2682	 	36.698635	-122.0598	1720915	0.34	2005-07-08 18:06:08.0	Ventana	34.373	01:59:37:20	5.622	V2682-02
 	ascend	Appendicularia	936.79	2682	 	36.697807	-122.05851	1723079	0.41	2005-07-08 20:11:17.0	Ventana	34.514	04:03:26:11	4.093	V2682-05
 	transect	Phyllospadix	800.33	2674	 	36.752045	-122.208954	1800838	0.35	2005-06-08 18:14:13.0	Ventana	34.49	00:58:44:19	4.329	V2674-01
 	ascend	Nanomia	196.66	2682	 	36.696507	-122.06072	1723769	1.86	2005-07-08 21:31:25.0	Ventana	34.166	05:23:06:02	8.369	V2682-06
 	transect	Phyllospadix	197.9	2696	 	36.803555	-122.12411	1813230	1.54	2005-08-01 17:23:28.0	Ventana	34.2	00:51:46:05	8.612	V2696-01
 	transect	molt	100.5	2681	 	36.699406	-122.05402	2489802	2.13	2005-07-07 16:51:02.0	Ventana	34.068	00:22:10:06	9.146	V2681-01HD
 	cruise	Rathbunaster californicus	111.75	2688	 	36.812347	-122.020836	1678082	1.97	2005-07-14 19:16:47.0	Ventana	34.095	03:02:00:11	8.916	V2688-03
 	descend	Hormiphora	154.0	2693	 	36.696297	-122.05774	1758192	1.94	2005-07-25 17:57:03.0	Ventana	34.114	00:37:34:03	8.979	V2693-01
 	transect	Eptatretus stoutii	799.76	2674	 	36.752464	-122.20526	1799763	0.35	2005-06-08 17:56:15.0	Ventana	34.487	00:40:47:27	4.365	V2674-01
 	transect	Phyllospadix	1000.47	2669	 	36.73227	-122.24884	1736253	0.41	2005-05-25 20:25:19.0	Ventana	34.509	02:46:48:03	4.076	V2669-03
 	transect	Nanomia bijuga	200.39	2681	 	36.698288	-122.05333	2491034	1.7	2005-07-07 17:11:04.0	Ventana	34.196	00:42:11:16	8.332	V2681-01HD
 	descend	Chuniphyes	555.93	2683	 	36.70175	-122.04915	1756960	0.45	2005-07-11 17:44:59.0	Ventana	34.338	01:29:06:02	6.063	V2683-02
 	transect	Neptunea amianta	802.0	2674	 	36.751785	-122.210724	1801041	0.35	2005-06-08 18:23:05.0	Ventana	34.489	01:07:10:05	4.322	V2674-02
 	transect	Mesomyaria	999.03	2669	 	36.730988	-122.230194	1651261	0.45	2005-05-25 18:15:57.0	Ventana	34.521	00:38:24:04	3.91	V2669-01
 	descend	Hormiphora	221.83	2683	 	36.70099	-122.050735	1756411	1.7	2005-07-11 16:48:44.0	Ventana	34.195	00:36:25:06	8.253	V2683-01
 	transect	Lycenchelys camchatica	800.73	2674	 	36.752586	-122.20171	1799103	0.33	2005-06-08 17:37:21.0	Ventana	34.478	00:21:54:22	4.443	V2674-01
 	transect	Brisaster	1000.13	2669	 	36.73253	-122.25019	1736913	0.41	2005-05-25 20:34:18.0	Ventana	34.51	02:55:47:05	4.068	V2669-03
 	transect	Nanomia bijuga	200.4	2681	 	36.69828	-122.05329	2490282	1.7	2005-07-07 17:06:22.0	Ventana	34.199	00:37:29:28	8.36	V2681-01HD
 	descend	Mysidae	1079.68	2683	 	36.705105	-122.04892	1757440	0.52	2005-07-11 19:27:34.0	Ventana	34.536	03:07:55:23	3.801	V2683-03
 	transect	Microstomus pacificus	199.52	2696	 	36.803997	-122.12556	1813350	1.52	2005-08-01 17:38:17.0	Ventana	34.208	01:06:11:08	8.652	V2696-02
 	transect	Calycophorae	700.6	2681	 	36.695198	-122.05094	2497958	0.28	2005-07-07 18:47:37.0	Ventana	34.43	02:17:19:23	4.988	V2681-03HD
 	descend	Appendicularia	606.72	2681	 	36.69567	-122.051025	1715876	0.3	2005-07-07 18:16:48.377	Ventana	34.387	01:47:09:24	5.477	V2681-02
 	transect	Mesomyaria	999.94	2669	 	36.73176	-122.24407	1734119	0.4	2005-05-25 19:50:48.0	Ventana	34.51	02:12:17:28	4.072	V2669-03
 	transect	Mesomyaria	800.65	2674	 	36.752445	-122.20463	1799629	0.36	2005-06-08 17:52:53.0	Ventana	34.49	00:37:25:18	4.348	V2674-01
 	transect	Sebastolobus	998.59	2669	 	36.730522	-122.22847	1650892	0.45	2005-05-25 18:03:33.0	Ventana	34.523	00:26:01:24	3.906	V2669-01
 	descend	Appendicularia	952.7	2682	 	36.69826	-122.05932	1721990	0.39	2005-07-08 18:55:10.0	Ventana	34.507	02:48:12:00	4.155	V2682-03
 	transect	Nanomia bijuga	200.38	2681	 	36.69831	-122.0534	2491214	1.68	2005-07-07 17:12:48.0	Ventana	34.2	00:43:55:20	8.337	V2681-01HD
 	cruise	Sebastes	279.74	2688	 	36.809006	-122.02035	1677879	1.44	2005-07-14 18:24:38.0	Ventana	34.207	02:09:54:10	8.023	V2688-03
 	transect	Brisaster	 	2669	 	 	 	1737665	 	2005-05-25 13:55:42.0	Ventana	 	03:16:30:02	 	V2669-04
 	transect	Rathbunaster californicus	204.0	2696	 	36.805813	-122.129196	1813719	1.48	2005-08-01 18:19:42.0	Ventana	34.211	01:47:33:05	8.624	V2696-02
 	endtransect	physical object	601.42	2680	 	36.785847	-122.2308	1805847	0.36	2005-06-27 19:32:04.0	Ventana	34.377	02:10:43:27	5.602	V2680-03
 	transect	Mediaster	 	2687	 	 	 	1812510	 	2005-07-13 20:42:50.0	Ventana	 	04:07:20:26	 	V2687-05
 	descend	Copepoda	401.73	2682	 	36.69828	-122.05987	1720712	0.82	2005-07-08 17:37:55.0	Ventana	34.256	01:31:26:18	6.598	V2682-02
 	transect	Nanomia bijuga	200.44	2681	 	36.69828	-122.05329	2490079	1.7	2005-07-07 17:04:34.0	Ventana	34.197	00:35:43:06	8.362	V2681-01HD
 	transect	Nanomia bijuga	200.35	2681	 	36.698334	-122.053444	2491357	1.67	2005-07-07 17:13:42.0	Ventana	34.201	00:44:51:06	8.341	V2681-01HD
 	cruise	Pleuronectiformes	612.28	2688	 	36.795246	-122.01904	1677330	0.45	2005-07-14 16:33:24.0	Ventana	34.39	00:19:44:01	5.505	V2688-01
 	transect	Sebastes diploproa	196.68	2696	 	36.80333	-122.12336	1813170	1.55	2005-08-01 17:14:56.0	Ventana	34.201	00:43:14:01	8.63	V2696-01
 	descend	Prayidae	519.0	2682	 	36.698593	-122.059784	1720855	0.4	2005-07-08 18:01:26.0	Ventana	34.363	01:54:55:03	5.899	V2682-02
 	descend	Calycophorae	670.7	2682	 	36.698654	-122.05995	1721404	0.28	2005-07-08 18:11:53.0	Ventana	34.413	02:04:58:26	5.189	V2682-03
 	transect	Phyllospadix	800.11	2674	 	36.752495	-122.20329	1799306	0.35	2005-06-08 17:45:09.0	Ventana	34.485	00:29:42:04	4.378	V2674-01
 	transect	Munneurycope murrayi	700.64	2681	 	36.69761	-122.053474	2497635	0.29	2005-07-07 18:37:11.0	Ventana	34.432	02:06:53:19	4.981	V2681-03HD
 	descend	Nanomia	176.84	2681	 	36.69828	-122.05329	1713532	1.95	2005-07-07 17:03:00.6	Ventana	34.148	00:34:09:19	8.541	V2681-01
 	transect	Phyllospadix	196.88	2696	 	36.80265	-122.12169	1813027	1.53	2005-08-01 16:56:13.0	Ventana	34.204	00:24:32:08	8.579	V2696-01
 	ascend	Cyclothone	359.91	2693	 	36.694065	-122.06102	1758882	1.24	2005-07-25 21:03:00.0	Ventana	34.237	03:27:33:23	7.346	V2693-04
 	transect	Mediaster	 	2687	 	 	 	1806982	 	2005-07-13 16:52:42.0	Ventana	 	00:19:37:05	 	V2687-01
 	transect	molt	100.54	2681	 	36.69983	-122.05429	2489622	2.13	2005-07-07 16:46:32.0	Ventana	34.068	00:17:41:11	9.144	V2681-01HD
 	transect	Ceriantharia sp. 1	799.05	2674	 	36.75142	-122.21479	1801378	0.35	2005-06-08 18:43:17.0	Ventana	34.491	01:27:20:16	4.332	V2674-02
 	transect	Mediaster	 	2687	 	 	 	1810526	 	2005-07-13 19:21:41.0	Ventana	 	02:47:24:25	 	V2687-03
 	transect	Euplexaura	 	2687	 	 	 	1812690	 	2005-07-13 20:52:25.0	Ventana	 	04:16:55:20	 	V2687-05
 	descend	Chaetognatha	810.28	2683	 	36.702667	-122.04873	1757163	0.36	2005-07-11 18:02:26.0	Ventana	34.474	01:46:32:01	4.544	V2683-02
 	ascend	Nanomia	414.77	2683	 	36.704117	-122.05059	1758049	0.94	2005-07-11 21:19:41.0	Ventana	34.259	04:52:32:17	6.874	V2683-05
 	transect	Phyllospadix	999.78	2669	 	36.731056	-122.23894	1689085	0.43	2005-05-25 19:20:56.0	Ventana	34.518	01:42:54:24	3.96	V2669-02
 	ascend	Cyclothone	463.8	2682	 	36.698338	-122.06304	1723709	0.61	2005-07-08 21:17:39.0	Ventana	34.302	05:09:19:12	6.354	V2682-06
 	ascend	Appendicularia	624.43	2682	 	36.69887	-122.059814	1723402	0.39	2005-07-08 20:37:29.0	Ventana	34.39	04:29:37:21	5.465	V2682-05
 	transect	Mediaster	 	2687	 	 	 	1807116	 	2005-07-13 17:00:18.0	Ventana	 	00:27:12:01	 	V2687-01
 	transect	Mesomyaria	999.87	2669	 	36.731075	-122.23511	1684270	0.45	2005-05-25 18:51:12.0	Ventana	34.521	01:13:12:20	3.921	V2669-02
 	descend	Appendicularia	714.78	2681	 	36.69496	-122.05062	1716213	0.28	2005-07-07 18:49:12.067	Ventana	34.436	02:18:55:24	4.892	V2681-03
 	transect	Chionoecetes tanneri	1000.36	2669	 	36.73147	-122.24201	1694447	0.4	2005-05-25 19:39:29.0	Ventana	34.509	02:01:26:09	4.077	V2669-02
 	transect	Mesomyaria	997.85	2669	 	36.73062	-122.227135	1649097	0.45	2005-05-25 17:54:52.0	Ventana	34.522	00:17:20:28	3.911	V2669-01
 	descend	Hastigerinella digitata	347.1	2693	 	36.697094	-122.05991	1758575	1.27	2005-07-25 19:58:54.0	Ventana	34.23	02:38:28:14	7.487	V2693-03
 	transect	Mesomyaria	801.51	2674	 	36.751965	-122.209335	1800898	0.36	2005-06-08 18:16:14.0	Ventana	34.491	01:00:46:00	4.321	V2674-01
 	transect	Mediaster	 	2687	 	 	 	1812307	 	2005-07-13 20:31:45.0	Ventana	 	03:56:43:02	 	V2687-04
 	cruise	ink	382.68	2690	 	36.790127	-121.88781	1669977	0.94	2005-07-18 19:49:25.0	Ventana	34.269	01:04:33:04	6.95	V2690-01
 	cruise	Parastichopus	105.5	2676	 	36.80795	-122.03826	1677127	1.99	2005-06-14 19:01:53.0	Ventana	34.149	02:40:39:01	8.48	V2676-03
 	transect	Phyllospadix	801.05	2674	 	36.752136	-122.208206	1800718	0.35	2005-06-08 18:10:34.0	Ventana	34.489	00:55:06:05	4.328	V2674-01
 	transect	Sebastolobus altivelis	800.24	2674	 	36.751263	-122.21591	1803376	0.35	2005-06-08 18:48:54.0	Ventana	34.489	01:32:57:19	4.36	V2674-02
 	transect	Porifera sp. 1	 	2687	 	 	 	1810346	 	2005-07-13 19:16:23.0	Ventana	 	02:42:07:14	 	V2687-03
 	ascend	Mysidae	768.24	2681	 	36.698647	-122.05617	1717491	0.28	2005-07-07 20:09:48.833	Ventana	34.452	03:38:50:24	4.767	V2681-04
 	transect	Phyllospadix	1000.5	2669	 	36.732433	-122.24997	1736770	0.41	2005-05-25 20:32:39.0	Ventana	34.51	02:54:08:17	4.065	V2669-03
 	transect	Psolus squamatus	 	2687	 	 	 	1810895	 	2005-07-13 19:41:34.0	Ventana	 	03:06:36:07	 	V2687-04
 	descend	Poeobius meseres	1109.94	2682	 	36.698215	-122.05919	1722124	0.57	2005-07-08 19:11:31.0	Ventana	34.551	03:04:09:10	3.62	V2682-04
 	descend	Prayidae	490.98	2683	 	36.701504	-122.04936	1756780	0.71	2005-07-11 17:23:50.0	Ventana	34.298	01:07:58:26	6.536	V2683-02
 	transect	Phyllospadix	802.22	2674	 	36.752243	-122.20663	1799966	0.37	2005-06-08 18:03:08.0	Ventana	34.491	00:47:40:05	4.319	V2674-01
 	transect	Phyllospadix	200.2	2696	 	36.80502	-122.12777	1813553	1.51	2005-08-01 17:59:10.0	Ventana	34.211	01:27:03:03	8.675	V2696-02
 	transect	Stomphia	999.44	2669	 	36.73133	-122.23592	1684450	0.44	2005-05-25 18:57:06.0	Ventana	34.52	01:19:05:22	3.936	V2669-02
 	ascend	Poeobius meseres	914.81	2682	 	36.698128	-122.05846	1723199	0.37	2005-07-08 20:13:34.0	Ventana	34.5	04:05:44:20	4.235	V2682-05
 	ascend	Calycophorae	984.27	2683	 	36.70745	-122.04908	1757823	0.42	2005-07-11 20:52:13.0	Ventana	34.518	04:25:05:28	4.035	V2683-05
 	transect	Mesomyaria	1000.29	2669	 	36.73119	-122.24062	1689288	0.41	2005-05-25 19:31:33.0	Ventana	34.511	01:53:31:09	4.055	V2669-02
 	descend	Salpida	443.75	2681	 	36.698082	-122.053856	1715327	0.58	2005-07-07 17:52:00.767	Ventana	34.31	01:22:23:06	6.259	V2681-02
 	ascend	Chaetognatha	936.06	2681	 	36.697613	-122.05408	1716965	0.41	2005-07-07 19:43:17.033	Ventana	34.514	03:12:20:19	4.075	V2681-04
 	transect	Appendicularia	1000.95	2681	 	36.6965	-122.05287	2498710	0.47	2005-07-07 19:30:13.0	Ventana	34.532	02:59:54:08	3.883	V2681-03HD
 	transect	Porifera sp. 1	 	2687	 	 	 	1811421	 	2005-07-13 20:12:05.0	Ventana	 	03:37:04:19	 	V2687-04
 	ascend	Euphausiacea	142.43	2693	 	36.690754	-122.062965	1759265	1.93	2005-07-25 21:31:50.0	Ventana	34.113	03:56:21:15	9.114	V2693-04
 	transect	Calliostoma platinum	 	2687	 	 	 	1810143	 	2005-07-13 18:59:48.0	Ventana	 	02:25:33:18	 	V2687-03
 	transect	Brisaster	1000.27	2669	 	36.73093	-122.2337	1683933	0.45	2005-05-25 18:40:07.0	Ventana	34.522	01:02:08:01	3.912	V2669-02
 	transect	Mediaster	 	2687	 	 	 	1811758	 	2005-07-13 20:24:39.0	Ventana	 	03:49:37:15	 	V2687-04
 	transect	Mesomyaria	999.79	2669	 	36.73141	-122.23726	1687477	0.44	2005-05-25 19:08:38.0	Ventana	34.519	01:30:37:19	3.947	V2669-02
 	transect	Caridea sp.1	602.44	2680	 	36.790466	-122.232735	1806779	0.36	2005-06-27 20:19:48.0	Ventana	34.377	02:58:25:05	5.589	V2680-03
 	transect	Chaetognatha	400.8	2681	 	36.69614	-122.0516	2492963	0.79	2005-07-07 17:42:35.0	Ventana	34.277	01:12:59:19	6.661	V2681-02HD
 	transect	Neptunea amianta	999.65	2669	 	36.731422	-122.23667	1684819	0.44	2005-05-25 19:03:24.0	Ventana	34.518	01:25:24:00	3.94	V2669-02
 	transect	Mesomyaria	998.77	2669	 	36.73287	-122.25199	1737296	0.4	2005-05-25 20:44:53.0	Ventana	34.509	03:05:41:24	4.073	V2669-04
 	descend	Calycophorae	445.51	2683	 	36.70154	-122.0494	1756697	0.82	2005-07-11 17:08:32.0	Ventana	34.276	00:56:11:23	6.735	V2683-01
 	transect	Aegina	600.58	2681	 	36.696255	-122.05185	2493715	0.3	2005-07-07 18:21:11.0	Ventana	34.387	01:51:33:07	5.489	V2681-02HD
 	transect	Chionoecetes tanneri	600.2	2680	 	36.783962	-122.22939	1805480	0.35	2005-06-27 19:12:41.0	Ventana	34.379	01:51:45:03	5.594	V2680-02
 	transect	Allocentrotus fragilis	 	2687	 	 	 	1812427	 	2005-07-13 20:38:12.0	Ventana	 	04:03:09:28	 	V2687-04
 	ascend	Aegina	780.78	2682	 	36.698677	-122.058945	1723282	0.28	2005-07-08 20:26:08.0	Ventana	34.449	04:18:16:09	4.749	V2682-05
 	ascend	Aegina	587.22	2682	 	36.698425	-122.06223	1723566	0.39	2005-07-08 21:05:01.0	Ventana	34.366	04:57:08:07	5.729	V2682-05
 	transect	Eptatretus stoutii	799.43	2674	 	36.751682	-122.212845	1801235	0.35	2005-06-08 18:31:10.0	Ventana	34.489	01:15:14:05	4.335	V2674-02
 	descend	Cyclothone	292.89	2693	 	36.697803	-122.06118	1758455	1.34	2005-07-25 19:37:54.0	Ventana	34.238	02:17:29:27	7.803	V2693-03
 	ascend	Appendicularia	257.36	2681	 	36.69873	-122.05677	1719106	1.44	2005-07-07 21:22:43.633	Ventana	34.226	04:51:02:20	7.957	V2681-05
 	transect	Ceriantharia sp. 1	805.04	2674	 	36.750683	-122.22125	1803722	0.34	2005-06-08 19:13:20.0	Ventana	34.483	01:57:21:14	4.413	V2674-02
 	descend	Lobata	685.04	2681	 	36.69792	-122.05384	1715959	0.27	2005-07-07 18:31:27.0	Ventana	34.415	02:01:47:00	5.107	V2681-02
 	transect	Caecosagitta macrocephala	800.9	2681	 	36.696293	-122.05229	2498244	0.31	2005-07-07 18:59:48.0	Ventana	34.475	02:29:30:29	4.502	V2681-03HD
 	transect	Nanomia bijuga	200.46	2681	 	36.69828	-122.05329	2490199	1.7	2005-07-07 17:05:42.0	Ventana	34.198	00:36:49:19	8.361	V2681-01HD
 	cruise	LRJ Complex	613.56	2688	 	36.793655	-122.01914	1677270	0.48	2005-07-14 16:25:19.0	Ventana	34.371	00:11:40:07	5.667	V2688-01
 	transect	Allocentrotus fragilis	399.88	2687	 	36.78812	-122.12169	1809280	1.13	2005-07-13 17:38:12.0	Ventana	34.25	01:04:34:01	7.281	V2687-02
 	transect	Psolus squamatus	 	2687	 	 	 	1808934	 	2005-07-13 17:32:21.0	Ventana	 	00:59:13:23	 	V2687-01
 	transect	Mesomyaria	800.23	2674	 	36.752632	-122.20036	1774107	0.31	2005-06-08 17:30:03.0	Ventana	34.484	00:14:37:10	4.576	V2674-01
 	transect	Appendicularia	300.44	2681	 	36.69837	-122.05355	2491957	1.25	2005-07-07 17:20:10.0	Ventana	34.233	00:51:18:01	7.431	V2681-01HD
 	transect	Ceriantharia sp. 1	602.06	2680	 	36.791607	-122.232956	1806862	0.36	2005-06-27 20:29:20.0	Ventana	34.378	03:07:55:29	5.589	V2680-03
 	cruise	Osteichthyes	345.13	2676	 	36.804504	-122.03111	1676234	1.14	2005-06-14 16:22:40.0	Ventana	34.241	00:06:49:25	7.34	V2676-01
 	transect	molt	100.46	2681	 	36.69886	-122.053665	2489885	2.13	2005-07-07 16:52:18.0	Ventana	34.045	00:23:27:14	9.142	V2681-01HD
 	ascend	Appendicularia	369.52	2681	 	36.69936	-122.054855	1718031	0.97	2005-07-07 20:50:49.067	Ventana	34.265	04:19:09:18	7.06	V2681-05
 	transect	Chionoecetes tanneri	1000.77	2669	 	36.732082	-122.24795	1736170	0.4	2005-05-25 20:18:15.0	Ventana	34.508	02:39:44:16	4.082	V2669-03
 	transect	Psolus squamatus	 	2687	 	 	 	1807176	 	2005-07-13 17:02:50.0	Ventana	 	00:29:44:20	 	V2687-01
 	transect	Phyllospadix	199.65	2696	 	36.804344	-122.12627	1813433	1.52	2005-08-01 17:45:49.0	Ventana	34.208	01:13:42:07	8.66	V2696-02
 	transect	Phyllospadix	203.5	2696	 	36.80746	-122.13112	1813839	1.46	2005-08-01 18:41:58.0	Ventana	34.22	02:09:02:29	8.617	V2696-03
 	transect	Ceriantharia sp. 2	999.91	2669	 	36.731388	-122.23688	1687011	0.44	2005-05-25 19:05:17.0	Ventana	34.521	01:27:16:24	3.939	V2669-02
 	ascend	Cydippida	258.17	2681	 	36.697838	-122.05522	1719360	 	2005-07-07 21:29:59.0	Ventana	 	05:02:28:12	 	V2681-05
 	transect	Ceriantharia sp. 1	598.52	2680	 	36.78233	-122.22747	1805134	0.35	2005-06-27 18:48:35.0	Ventana	34.379	01:27:39:22	5.582	V2680-02
 	cruise	rubble	139.51	2676	http://search.mbari.org/ARCHIVE/frameGrabs/Ventana/images/2676/01_35_39_23.jpg	36.808723	-122.030846	1676864	1.71	2005-06-14 17:55:59.0	Ventana	34.174	01:35:39:23	8.314	V2676-02
 	descend	sinker	1166.04	2682	 	36.698215	-122.05921	1722184	0.63	2005-07-08 19:13:56.0	Ventana	34.563	03:06:34:23	3.475	V2682-04
 	transect	Hormiphora	200.48	2681	 	36.69828	-122.05329	2490545	1.71	2005-07-07 17:07:25.0	Ventana	34.195	00:38:32:21	8.336	V2681-01HD
 	transect	Appendicularia	1001.03	2681	 	36.695244	-122.051186	2498590	0.49	2005-07-07 19:23:49.0	Ventana	34.535	02:53:29:01	3.835	V2681-03HD
 	ascend	Appendicularia	912.54	2681	 	36.697826	-122.054535	1717025	0.38	2005-07-07 19:46:54.9	Ventana	34.503	03:15:58:08	4.198	V2681-04
 	transect	Lycenchelys camchatica	800.32	2674	http://search.mbari.org/ARCHIVE/frameGrabs/Ventana/images/2674/01_33_56_14.jpg	36.751232	-122.21612	1803399	0.35	2005-06-08 18:49:53.0	Ventana	34.488	01:33:56:14	4.337	V2674-02
 	ascend	water	 	2687	 	 	 	1812833	 	2005-07-13 21:09:30.0	Ventana	 	04:34:00:08	 	V2687-05
 	transect	Gastropoda sp.2	998.95	2669	 	36.731167	-122.234245	1694650	0.45	2005-05-25 18:43:19.0	Ventana	34.52	01:05:19:08	3.919	V2669-02
 	descend	Appendicularia	978.88	2683	 	36.704075	-122.04871	1757357	0.42	2005-07-11 19:14:12.0	Ventana	34.518	02:54:34:11	4.032	V2683-03
 	ascend	Cyclothone	370.88	2693	 	36.696873	-122.06032	1758739	1.2	2005-07-25 20:32:38.0	Ventana	34.236	03:12:10:23	7.201	V2693-03
 	transect	Phyllospadix	800.52	2674	 	36.75257	-122.20213	1799163	0.33	2005-06-08 17:39:24.0	Ventana	34.476	00:23:58:04	4.446	V2674-01
 	transect	Hormiphora	200.41	2681	 	36.698284	-122.05331	2490951	1.7	2005-07-07 17:10:09.0	Ventana	34.194	00:41:16:26	8.329	V2681-01HD
 	transect	Rathbunaster californicus	203.63	2696	 	36.80656	-122.13014	1813779	1.48	2005-08-01 18:29:29.0	Ventana	34.218	01:57:19:28	8.652	V2696-02
 	transect	Mesomyaria	1000.19	2669	 	36.731075	-122.23875	1689062	0.43	2005-05-25 19:19:45.0	Ventana	34.518	01:41:43:19	3.968	V2669-02
 	ascend	Leuroglossus stilbius	617.94	2681	 	36.69893	-122.05424	1717685	0.3	2005-07-07 20:28:58.323	Ventana	34.384	03:57:59:03	5.478	V2681-04
 	ascend	Appendicularia	421.94	2681	 	36.699203	-122.054245	1717948	0.78	2005-07-07 20:44:59.067	Ventana	34.278	04:13:35:29	6.638	V2681-05
 	transect	Phyllospadix	199.96	2696	 	36.804646	-122.126976	1813493	1.51	2005-08-01 17:52:40.0	Ventana	34.211	01:20:33:18	8.67	V2696-02
 	transect	Porifera sp. 1	 	2687	 	 	 	1808588	 	2005-07-13 17:24:25.0	Ventana	 	00:51:18:14	 	V2687-01
 	descend	Chaetognatha	164.21	2683	 	36.700684	-122.05159	1756291	1.7	2005-07-11 16:27:40.0	Ventana	34.172	00:15:22:13	8.739	V2683-01
 	descend	Chaetognatha	718.55	2683	 	36.7022	-122.04894	1757103	0.31	2005-07-11 17:55:40.0	Ventana	34.434	01:39:46:09	4.937	V2683-02
 	transect	Caridea sp.1	800.86	2674	http://search.mbari.org/ARCHIVE/frameGrabs/Ventana/images/2674/00_26_20_26.jpg	36.752525	-122.2026	1799223	0.35	2005-06-08 17:41:47.0	Ventana	34.487	00:26:20:26	4.375	V2674-01
 	transect	Neptunea amianta	800.61	2674	 	36.751953	-122.20957	1800921	0.35	2005-06-08 18:17:45.0	Ventana	34.49	01:01:49:27	4.325	V2674-02
 	transect	Phyllospadix	399.68	2687	 	36.789295	-122.124725	1809603	1.16	2005-07-13 18:23:31.0	Ventana	34.239	01:49:50:00	7.333	V2687-02
 	transect	Euphausia	200.42	2681	 	36.69828	-122.0533	2490891	1.7	2005-07-07 17:09:33.0	Ventana	34.197	00:40:40:10	8.33	V2681-01HD
 	ascend	Cydippida	212.56	2693	 	36.69116	-122.06256	1759145	1.71	2005-07-25 21:24:24.0	Ventana	34.19	03:48:55:07	8.624	V2693-04
 	transect	Psolus squamatus	 	2687	 	 	 	1810263	 	2005-07-13 19:13:09.0	Ventana	 	02:38:53:05	 	V2687-03
 	transect	Nanomia bijuga	200.43	2681	 	36.69828	-122.05329	2490139	1.7	2005-07-07 17:05:08.0	Ventana	34.197	00:36:15:10	8.358	V2681-01HD
 	transect	Mesomyaria	1000.23	2669	 	36.73183	-122.24517	1735358	0.4	2005-05-25 19:58:04.0	Ventana	34.505	02:19:35:04	4.099	V2669-03
 	ascend	Copepoda	264.98	2681	 	36.6989	-122.0567	1718783	1.41	2005-07-07 21:18:37.9	Ventana	34.231	04:46:57:06	7.931	V2681-05
 	transect	myctophidae	500.61	2681	 	36.697826	-122.05359	2493286	0.44	2005-07-07 17:55:29.0	Ventana	34.347	01:25:52:08	6.02	V2681-02HD
 	cruise	Mysidae	358.08	2676	 	36.804684	-122.029	1676580	0.98	2005-06-14 16:48:52.0	Ventana	34.264	00:32:59:27	7.107	V2676-01
 	transect	Psolus squamatus	 	2687	 	 	 	1812367	 	2005-07-13 20:34:43.0	Ventana	 	03:59:40:26	 	V2687-04
 	descend	Appendicularia	328.18	2693	 	36.697437	-122.06056	1758515	1.29	2005-07-25 19:47:21.0	Ventana	34.236	02:26:55:05	7.576	V2693-03
 	transect	Poeobius meseres	1000.98	2681	 	36.695854	-122.051994	2498650	0.48	2005-07-07 19:27:12.0	Ventana	34.532	02:56:52:11	3.866	V2681-03HD
 	cruise	Remote Instrument Node	124.32	2672	http://search.mbari.org/ARCHIVE/frameGrabs/Ventana/images/2672/00_21_25_28.jpg	36.80311	-121.805565	20003825	2.7	2005-06-03 15:02:03.0	Ventana	33.953	00:21:25:28	9.336	V2672-01
 	descend	Euphausiacea	189.4	2683	 	36.701035	-122.05107	1756351	1.79	2005-07-11 16:42:42.0	Ventana	34.18	00:30:22:09	8.44	V2683-01
 	transect	bathocyroe	500.58	2681	 	36.696033	-122.05154	2493632	0.43	2005-07-07 18:03:13.0	Ventana	34.349	01:33:37:01	6.006	V2681-02HD
 	ascend	Aegina	691.75	2682	 	36.69889	-122.059425	1723342	0.29	2005-07-08 20:32:44.0	Ventana	34.412	04:24:51:15	5.117	V2682-05
 	transect	Phyllospadix	802.48	2674	 	36.752308	-122.205734	1799823	0.36	2005-06-08 17:58:26.0	Ventana	34.489	00:42:58:17	4.333	V2674-01
 	descend	Appendicularia	400.23	2681	 	36.69557	-122.0511	1715207	0.79	2005-07-07 17:35:34.897	Ventana	34.278	01:05:58:10	6.677	V2681-02
 	descend	ink	972.49	2681	 	36.69465	-122.05038	1716536	0.45	2005-07-07 19:19:15.633	Ventana	34.523	02:48:57:15	3.951	V2681-03
 	descend	Chaetognatha	402.86	2683	 	36.70149	-122.04954	1756637	0.96	2005-07-11 17:02:44.0	Ventana	34.26	00:50:23:07	6.957	V2683-01
 	descend	Appendicularia	759.02	2681	 	36.694893	-122.05056	1716273	0.3	2005-07-07 18:50:42.78	Ventana	34.452	02:20:25:28	4.751	V2681-03
 	transect	Mesomyaria	1000.29	2669	 	36.731255	-122.241295	1689408	0.4	2005-05-25 19:35:34.0	Ventana	34.508	01:57:31:05	4.086	V2669-02
 	descend	Aegina	1045.7	2683	 	36.70493	-122.04917	1757417	0.47	2005-07-11 19:24:51.0	Ventana	34.531	03:05:13:01	3.874	V2683-03
 	cruise	LRJ Complex	611.24	2688	 	36.795765	-122.019646	1677353	0.45	2005-07-14 16:36:46.0	Ventana	34.387	00:23:06:00	5.494	V2688-01
 	transect	Ceriantharia sp. 1	599.94	2680	 	36.778297	-122.22347	1804382	0.36	2005-06-27 17:56:40.0	Ventana	34.38	00:36:46:21	5.586	V2680-01
 	ascend	Melanostigma pammelas	1130.63	2682	 	36.698177	-122.05752	1722530	0.6	2005-07-08 19:56:29.0	Ventana	34.559	03:49:03:07	3.532	V2682-04
 	transect	Porifera sp. 1	 	2687	 	 	 	1808851	 	2005-07-13 17:30:26.0	Ventana	 	00:57:18:10	 	V2687-01
 	transect	Euplexaura	 	2687	 	 	 	1811015	 	2005-07-13 19:48:25.0	Ventana	 	03:13:26:17	 	V2687-04
 	transect	Caecosagitta macrocephala	700.63	2681	 	36.695953	-122.05182	2497838	0.29	2005-07-07 18:44:08.0	Ventana	34.438	02:13:49:24	4.937	V2681-03HD
 	transect	Phyllospadix	1000.03	2669	 	36.731052	-122.23936	1689145	0.42	2005-05-25 19:23:29.0	Ventana	34.522	01:45:27:12	3.997	V2669-02
 	descend	Chaetognatha	1186.61	2682	 	36.69851	-122.05833	1722244	0.67	2005-07-08 19:33:54.0	Ventana	34.569	03:26:31:19	3.386	V2682-04
 	ascend	Mysidae	1188.51	2683	 	36.70735	-122.04765	1757703	0.71	2005-07-11 20:22:56.0	Ventana	34.575	03:57:17:09	3.372	V2683-04
 	transect	Mesomyaria	1000.24	2669	 	36.73141	-122.24179	1689865	0.4	2005-05-25 19:38:24.0	Ventana	34.509	02:00:21:15	4.076	V2669-02
 	transect	Ophiuroidea	1000.05	2669	 	36.731075	-122.23979	1689205	0.41	2005-05-25 19:26:46.0	Ventana	34.511	01:48:43:27	4.063	V2669-02
 	ascend	Appendicularia	674.83	2681	 	36.69876	-122.054436	1717634	0.28	2005-07-07 20:23:10.067	Ventana	34.413	03:52:11:06	5.179	V2681-04
 	cruise	boulder	112.03	2688	http://search.mbari.org/ARCHIVE/frameGrabs/Ventana/images/2688/03_05_02_18.jpg	36.812775	-122.01998	20005237	1.97	2005-07-14 19:19:50.0	Ventana	34.094	03:05:02:18	8.919	V2688-03
 	transect	Phyllospadix	1000.34	2669	 	36.731552	-122.242935	1694567	0.4	2005-05-25 19:44:09.0	Ventana	34.507	02:06:06:13	4.071	V2669-02
 	transect	Mediaster	 	2687	 	 	 	1810955	 	2005-07-13 19:43:57.0	Ventana	 	03:08:58:22	 	V2687-04
 	ascend	Nanomia	199.83	2693	 	36.690617	-122.062836	1759205	1.77	2005-07-25 21:28:11.0	Ventana	34.185	03:52:43:19	8.905	V2693-04
 	transect	Mediaster	 	2687	 	 	 	1810406	 	2005-07-13 19:17:12.0	Ventana	 	02:42:56:01	 	V2687-03
 	cruise	Macrouridae	997.8	2679	 	36.68986	-122.1656	1824362	0.42	2005-06-16 17:32:35.0	Ventana	34.513	00:03:58:11	4.11	V2679-01
 	ascend	Cydippida	334.69	2693	 	36.692604	-122.0619	1759002	1.27	2005-07-25 21:14:43.0	Ventana	34.238	03:39:16:00	7.474	V2693-04
 	transect	Sebastolobus altivelis	800.83	2674	 	36.751114	-122.21691	1803459	0.35	2005-06-08 18:53:02.0	Ventana	34.496	01:37:04:23	4.333	V2674-02
 	cruise	Pleuronectiformes	490.45	2688	 	36.801643	-122.01849	1677556	0.77	2005-07-14 17:25:08.0	Ventana	34.291	01:10:52:11	6.632	V2688-02
 	transect	Porifera sp. 1	 	2687	 	 	 	1810752	 	2005-07-13 19:31:27.0	Ventana	 	02:57:10:04	 	V2687-03
 	transect	Ophiuroidea	997.75	2669	 	36.731155	-122.23087	1683467	0.45	2005-05-25 18:21:41.0	Ventana	34.519	00:44:07:25	3.927	V2669-01
 	ascend	Chaetognatha	342.62	2681	 	36.69934	-122.0552	1718091	1.11	2005-07-07 20:53:15.8	Ventana	34.247	04:21:37:05	7.256	V2681-05
 	transect	Liponema brevicornis	 	2687	 	 	 	1810203	 	2005-07-13 19:08:51.0	Ventana	 	02:34:36:05	 	V2687-03
 	transect	Mesomyaria	999.67	2669	 	36.731094	-122.23539	1684330	0.45	2005-05-25 18:53:15.0	Ventana	34.521	01:15:15:06	3.924	V2669-02
 	transect	Hastigerinella digitata	300.41	2681	 	36.69613	-122.051765	2492566	1.24	2005-07-07 17:27:57.0	Ventana	34.233	00:59:02:27	7.427	V2681-01HD
 	ascend	Nanomia	258.17	2681	 	36.697838	-122.05522	1719503	 	2005-07-07 21:29:59.0	Ventana	 	05:08:52:16	 	V2681-05
 	transect	Gastropoda sp.2	999.02	2669	 	36.732838	-122.25162	1737236	0.4	2005-05-25 20:42:51.0	Ventana	34.509	03:03:39:20	4.072	V2669-04
 	transect	Psolus squamatus	 	2687	 	 	 	1808648	 	2005-07-13 17:26:06.0	Ventana	 	00:52:58:22	 	V2687-01
 	cruise	Liponema brevicornis	501.98	2694	 	36.784496	-122.20046	1676174	0.75	2005-07-27 17:14:20.0	Ventana	34.288	00:07:28:17	6.475	V2694-01
 	transect	Mediaster	 	2687	 	 	 	1811818	 	2005-07-13 20:26:19.0	Ventana	 	03:51:17:25	 	V2687-04
 	transect	Phyllospadix	799.92	2674	 	36.752647	-122.20098	1774167	0.34	2005-06-08 17:33:36.0	Ventana	34.481	00:18:09:22	4.436	V2674-01
 	transect	Lycenchelys camchatica	801.48	2674	 	36.752224	-122.20767	1800086	0.39	2005-06-08 18:08:06.0	Ventana	34.493	00:52:38:05	4.336	V2674-01
 	transect	Psolus squamatus	 	2687	 	 	 	1808791	 	2005-07-13 17:29:35.0	Ventana	 	00:56:27:12	 	V2687-01
 	ascend	Appendicularia	792.44	2681	 	36.699024	-122.05656	1717431	0.32	2005-07-07 20:02:34.2	Ventana	34.467	03:31:36:18	4.641	V2681-04
 	transect	Lycenchelys camchatica	1000.11	2669	 	36.731007	-122.233116	1683873	0.45	2005-05-25 18:37:35.0	Ventana	34.523	01:00:01:05	3.91	V2669-01
 	transect	cydippida	400.75	2681	 	36.696545	-122.05207	2493023	0.79	2005-07-07 17:44:22.0	Ventana	34.276	01:14:44:26	6.645	V2681-02HD
 	transect	Ceriantharia sp. 1	599.48	2680	 	36.777863	-122.222984	1804322	0.36	2005-06-27 17:51:36.0	Ventana	34.376	00:31:43:21	5.589	V2680-01
 	ascend	Appendicularia	260.82	2681	 	36.698814	-122.05696	1719046	1.42	2005-07-07 21:21:39.533	Ventana	34.232	04:49:58:19	7.957	V2681-05
 	transect	Halipteris californica	597.39	2680	 	36.78109	-122.226036	1804871	0.35	2005-06-27 18:31:32.0	Ventana	34.378	01:10:38:22	5.597	V2680-02
 	transect	Mesomyaria	799.81	2674	 	36.751747	-122.21219	1801184	0.35	2005-06-08 18:28:52.0	Ventana	34.49	01:12:56:06	4.336	V2674-02
 	ascend	Appendicularia	1110.87	2682	 	36.698063	-122.05752	1722590	0.58	2005-07-08 19:57:55.0	Ventana	34.554	03:50:29:14	3.586	V2682-04
 	transect	Sebastes diploproa	399.85	2687	 	36.788082	-122.12163	1809197	1.13	2005-07-13 17:37:05.0	Ventana	34.241	01:03:26:27	7.262	V2687-02
 	transect	Mediaster	 	2687	 	 	 	1811361	 	2005-07-13 20:09:21.0	Ventana	 	03:34:20:15	 	V2687-04
 	transect	Psolus squamatus	 	2687	 	 	 	1812570	 	2005-07-13 20:45:46.0	Ventana	 	04:10:17:02	 	V2687-05
 	transect	Sergestes similis	300.42	2681	 	36.69713	-122.052635	2492363	1.23	2005-07-07 17:24:28.0	Ventana	34.233	00:55:35:03	7.393	V2681-01HD
 	transect	molt	100.48	2681	 	36.699825	-122.05429	2489682	2.13	2005-07-07 16:47:45.0	Ventana	34.068	00:18:54:05	9.149	V2681-01HD
 	descend	Nanomia	205.74	2693	 	36.696045	-122.05837	1758312	1.81	2005-07-25 18:25:52.0	Ventana	34.186	01:05:57:06	8.701	V2693-02
 	transect	Phyllospadix	802.46	2674	 	36.752296	-122.206024	1799883	0.36	2005-06-08 18:00:03.0	Ventana	34.491	00:44:35:22	4.337	V2674-01
 	transect	Nanomia bijuga	400.79	2681	 	36.69586	-122.05127	2492912	0.79	2005-07-07 17:41:15.0	Ventana	34.278	01:11:38:15	6.667	V2681-02HD
 	stationary	Merluccius productus	502.38	2694	 	36.78463	-122.20045	1676661	0.72	2005-07-27 20:24:05.0	Ventana	34.293	02:56:13:12	6.412	V2694-03
 	transect	Solaster borealis	999.93	2669	 	36.73259	-122.25079	1737033	0.4	2005-05-25 20:37:55.0	Ventana	34.51	02:59:24:25	4.076	V2669-03
 	ascend	Chaetognatha	1152.61	2683	 	36.708035	-122.048904	1757763	0.69	2005-07-11 20:35:48.0	Ventana	34.569	04:10:10:02	3.418	V2683-04
 	transect	Ophiuroidea	999.23	2669	 	36.73139	-122.23607	1684533	0.44	2005-05-25 18:57:55.0	Ventana	34.52	01:19:55:03	3.939	V2669-02
 	ascend	Appendicularia	254.55	2681	 	36.69851	-122.05625	1719157	1.46	2005-07-07 21:24:06.233	Ventana	34.225	04:52:24:21	8.0	V2681-05
 	cruise	Asteroidea	 	2676	 	 	 	1677210	 	2005-06-14 19:32:24.0	Ventana	 	03:11:08:15	 	V2676-03
 	transect	Gastropoda sp.2	997.52	2669	 	36.7306	-122.22703	1694913	0.45	2005-05-25 17:54:21.0	Ventana	34.521	00:16:49:24	3.909	V2669-01
 	transect	Phyllospadix	802.66	2674	 	36.750843	-122.220024	1803662	0.34	2005-06-08 19:06:47.0	Ventana	34.488	01:50:49:15	4.38	V2674-02
 	transect	Ophiuroidea	1000.13	2669	 	36.73168	-122.24384	1733976	0.41	2005-05-25 19:49:18.0	Ventana	34.509	02:10:49:18	4.069	V2669-03
 	descend	Appendicularia	631.61	2683	 	36.702034	-122.04896	1757043	0.37	2005-07-11 17:51:11.0	Ventana	34.381	01:35:16:02	5.566	V2683-02
 	cruise	Pasiphaea	353.01	2688	 	36.807636	-122.01975	1677759	1.17	2005-07-14 17:56:37.0	Ventana	34.236	01:42:20:00	7.433	V2688-02
 	cruise	Pleurobranchaea californica	92.99	2688	 	36.816277	-122.01628	1679374	2.04	2005-07-14 20:16:15.0	Ventana	34.09	04:01:00:21	8.916	V2688-04
 	ascend	Bathocyroe	515.17	2681	 	36.69896	-122.05425	1717745	0.47	2005-07-07 20:33:53.033	Ventana	34.338	04:02:53:00	6.095	V2681-04
 	ascend	sinker	544.26	2682	 	36.698322	-122.062775	1723626	0.41	2005-07-08 21:09:43.0	Ventana	34.352	05:01:25:00	5.938	V2682-06
 	descend	Hastigerinella digitata	299.46	2683	 	36.701077	-122.05015	1756494	1.25	2005-07-11 16:53:41.0	Ventana	34.243	00:41:22:22	7.701	V2683-01
 	transect	Porifera sp. 1	 	2687	 	 	 	1811158	 	2005-07-13 19:57:38.0	Ventana	 	03:22:37:26	 	V2687-04
 	ascend	Appendicularia	373.29	2693	 	36.695583	-122.06065	1758799	1.2	2005-07-25 20:52:44.0	Ventana	34.232	03:17:18:22	7.177	V2693-04
 	transect	Appendicularia	400.71	2681	 	36.69791	-122.05362	2493226	0.79	2005-07-07 17:50:03.0	Ventana	34.279	01:20:27:19	6.66	V2681-02HD
 	transect	Mesomyaria	999.29	2669	 	36.730995	-122.231735	1683670	0.45	2005-05-25 18:28:40.0	Ventana	34.521	00:51:06:20	3.913	V2669-01
 	descend	Appendicularia	551.17	2681	 	36.69568	-122.051056	1715613	0.36	2005-07-07 18:06:15.133	Ventana	34.367	01:36:37:06	5.749	V2681-02
 	transect	Corallimorphus pilatus	 	2687	 	 	 	1810609	 	2005-07-13 19:24:11.0	Ventana	 	02:49:54:26	 	V2687-03
 	transect	Mediaster	 	2687	 	 	 	1812773	 	2005-07-13 20:56:53.0	Ventana	 	04:21:23:10	 	V2687-05
 	ascend	Copepoda	595.99	2682	 	36.698757	-122.06092	1723485	0.37	2005-07-08 20:49:29.0	Ventana	34.372	04:41:37:04	5.653	V2682-05
 	ascend	Calycophorae	219.55	2683	 	36.702847	-122.05075	1758109	1.7	2005-07-11 21:28:10.0	Ventana	34.206	05:01:00:27	8.328	V2683-05
 	transect	Gastropoda sp.2	999.81	2669	 	36.731365	-122.237366	1694710	0.44	2005-05-25 19:09:24.0	Ventana	34.519	01:31:22:26	3.945	V2669-02
 	transect	Aegina	700.64	2681	 	36.696907	-122.05277	2497695	0.29	2005-07-07 18:40:10.0	Ventana	34.436	02:09:53:27	4.928	V2681-03HD
 	transect	Mesomyaria	999.98	2669	 	36.73191	-122.24568	1735418	0.41	2005-05-25 20:01:32.0	Ventana	34.508	02:23:03:13	4.065	V2669-03
 	transect	Neptunea amianta	799.98	2674	 	36.752506	-122.20362	1799366	0.35	2005-06-08 17:47:16.0	Ventana	34.488	00:31:49:20	4.379	V2674-01
 	transect	Psolus squamatus	 	2687	 	 	 	1808994	 	2005-07-13 17:33:10.0	Ventana	 	01:00:02:17	 	V2687-01
 	cruise	Pleuronectiformes	1229.87	2683	 	36.705822	-122.04785	1757560	0.74	2005-07-11 19:53:21.0	Ventana	34.578	03:27:45:10	3.303	V2683-04
 	transect	Psolus squamatus	400.08	2687	 	36.78912	-122.12415	1809543	1.17	2005-07-13 18:14:24.0	Ventana	34.238	01:40:43:23	7.348	V2687-02
 	descend	Copepoda	445.18	2682	 	36.698395	-122.059555	1720772	0.57	2005-07-08 17:51:11.0	Ventana	34.315	01:44:40:09	6.326	V2682-02
 	transect	Mesomyaria	802.87	2674	 	36.75183	-122.21008	1800981	0.36	2005-06-08 18:20:18.0	Ventana	34.49	01:04:22:25	4.32	V2674-02
 	transect	Mesomyaria	998.18	2669	 	36.730526	-122.22835	1649360	0.45	2005-05-25 18:02:46.0	Ventana	34.523	00:25:14:00	3.907	V2669-01
 	cruise	Eptatretus	1015.89	2689	 	36.77152	-122.08299	1669714	0.53	2005-07-18 17:04:11.0	Ventana	34.54	00:27:14:15	3.751	V2689-01
 	transect	Neptunea amianta	999.87	2669	 	36.731316	-122.23798	1688312	0.44	2005-05-25 19:14:34.0	Ventana	34.521	01:36:33:11	3.951	V2669-02
 	transect	Caridea sp.1	599.37	2680	 	36.779465	-122.224556	1804525	0.36	2005-06-27 18:10:28.0	Ventana	34.377	00:50:33:22	5.604	V2680-01
 	transect	Appendicularia	200.39	2681	 	36.69832	-122.05343	2491297	1.66	2005-07-07 17:13:28.0	Ventana	34.2	00:44:35:11	8.34	V2681-01HD
 	descend	Mysidae	1087.91	2682	 	36.698277	-122.059166	1722073	0.53	2005-07-08 19:06:24.0	Ventana	34.546	02:59:25:01	3.705	V2682-03
 	transect	Mediaster	 	2687	 	 	 	1806973	 	2005-07-13 16:52:06.0	Ventana	 	00:19:00:16	 	V2687-01
 	cruise	Eptatretus	380.75	2688	 	36.80716	-122.01965	1677750	1.05	2005-07-14 17:53:31.0	Ventana	34.262	01:39:13:24	7.226	V2688-02
 	transect	Allocentrotus fragilis	 	2687	 	 	 	1811241	 	2005-07-13 20:05:30.0	Ventana	 	03:30:29:27	 	V2687-04
 	transect	Pennatulacea sp.1	599.86	2680	 	36.77735	-122.22252	1804271	0.36	2005-06-27 17:45:26.0	Ventana	34.379	00:25:33:25	5.582	V2680-01
 	transect	Nanomia bijuga	200.43	2681	 	36.69828	-122.05329	2490088	1.7	2005-07-07 17:04:38.0	Ventana	34.197	00:35:46:11	8.36	V2681-01HD
 	transect	Rathbunaster californicus	 	2687	 	 	 	1807065	 	2005-07-13 16:57:02.0	Ventana	 	00:23:56:20	 	V2687-01
 	descend	Copepoda	890.01	2683	 	36.70323	-122.04833	1757246	0.36	2005-07-11 18:31:17.0	Ventana	34.493	02:11:42:12	4.284	V2683-03
 	transect	Rathbunaster californicus	203.71	2696	 	36.805264	-122.128204	1813682	1.48	2005-08-01 18:14:49.0	Ventana	34.213	01:42:40:22	8.63	V2696-02
 	transect	Calycophorae	300.4	2681	 	36.696907	-122.052444	2492437	1.23	2005-07-07 17:25:14.0	Ventana	34.234	00:56:20:15	7.393	V2681-01HD
 	transect	Mesomyaria	999.44	2669	 	36.73133	-122.23592	1684459	0.44	2005-05-25 18:57:06.0	Ventana	34.52	01:19:05:22	3.936	V2669-02
 	transect	Microstomus pacificus	 	2687	 	 	 	1810535	 	2005-07-13 19:21:58.0	Ventana	 	02:47:41:16	 	V2687-03
 	descend	Copepoda	362.37	2682	 	36.698574	-122.06039	1720338	1.0	2005-07-08 17:22:41.0	Ventana	34.258	01:16:12:05	7.076	V2682-02
 	transect	Physonectae	400.71	2681	 	36.697956	-122.05367	2493235	0.79	2005-07-07 17:50:19.0	Ventana	34.278	01:20:43:05	6.661	V2681-02HD
 	transect	Poeobius meseres	1000.94	2681	 	36.696465	-122.052826	2498701	0.47	2005-07-07 19:29:41.0	Ventana	34.531	02:59:22:01	3.877	V2681-03HD
 	transect	Mesomyaria	799.79	2674	 	36.75254	-122.20377	1799389	0.35	2005-06-08 17:47:51.0	Ventana	34.485	00:32:23:26	4.368	V2674-01
 	transect	Ophiuroidea	999.93	2669	 	36.731422	-122.23678	1686900	0.44	2005-05-25 19:04:07.0	Ventana	34.519	01:26:06:22	3.946	V2669-02
 	transect	Mesomyaria	801.06	2674	 	36.752148	-122.20812	1800709	0.35	2005-06-08 18:10:17.0	Ventana	34.491	00:54:48:25	4.331	V2674-01
 	transect	Mediaster	 	2687	 	 	 	1812561	 	2005-07-13 20:45:30.0	Ventana	 	04:10:01:05	 	V2687-05
 	transect	Brisaster	1000.37	2669	 	36.731483	-122.24226	1694484	0.41	2005-05-25 19:40:53.0	Ventana	34.509	02:02:50:13	4.063	V2669-02
 	ascend	Hastigerinella digitata	268.51	2682	 	36.696877	-122.06117	1723746	1.36	2005-07-08 21:28:22.0	Ventana	34.236	05:20:03:21	7.815	V2682-06
 	transect	Mesomyaria	999.46	2669	 	36.730965	-122.23163	1683661	0.45	2005-05-25 18:28:14.0	Ventana	34.522	00:50:40:02	3.913	V2669-01
 	ascend	Melanostigma	951.29	2681	 	36.697403	-122.05377	1716868	0.42	2005-07-07 19:40:49.8	Ventana	34.516	03:09:53:01	4.055	V2681-04
 	ascend	Nanomia	258.17	2681	 	36.697838	-122.05522	1719309	 	2005-07-07 21:29:59.0	Ventana	 	05:00:09:09	 	V2681-05
 	transect	Gastropoda sp.2	1000.48	2669	 	36.732265	-122.248764	1736244	0.4	2005-05-25 20:24:47.0	Ventana	34.507	02:46:16:25	4.078	V2669-03
 	transect	Phyllospadix	801.02	2674	 	36.751163	-122.217125	1803473	0.35	2005-06-08 18:54:01.0	Ventana	34.492	01:38:03:23	4.338	V2674-02
 	transect	Psolus squamatus	 	2687	 	 	 	1810212	 	2005-07-13 19:09:29.0	Ventana	 	02:35:13:21	 	V2687-03
 	ascend	Chaetognatha	346.25	2693	 	36.69361	-122.06131	1758919	1.25	2005-07-25 21:08:41.0	Ventana	34.234	03:33:13:09	7.384	V2693-04
 	ascend	Crustacea	721.08	2681	 	36.6987	-122.055214	1717574	0.29	2005-07-07 20:18:37.267	Ventana	34.435	03:47:38:06	4.968	V2681-04
 	transect	Mesomyaria	998.44	2669	 	36.73118	-122.23443	1684136	0.45	2005-05-25 18:45:04.0	Ventana	34.521	01:07:04:25	3.916	V2669-02
 	transect	Phyllospadix	799.56	2674	 	36.75247	-122.20509	1799712	0.36	2005-06-08 17:55:09.0	Ventana	34.487	00:39:41:24	4.355	V2674-01
 	transect	Sebastes aurora	399.86	2687	http://search.mbari.org/ARCHIVE/frameGrabs/Ventana/images/2687/01_02_12_24.jpg	36.788044	-122.12152	1809091	1.14	2005-07-13 17:35:50.0	Ventana	34.237	01:02:12:24	7.276	V2687-02
 	cruise	Rathbunaster californicus	109.8	2688	 	36.81268	-122.02126	1678073	1.97	2005-07-14 19:14:11.0	Ventana	34.095	02:59:24:14	8.918	V2688-03
 	transect	Gastropoda sp.2	999.88	2669	 	36.732597	-122.250916	1737042	0.4	2005-05-25 20:38:21.0	Ventana	34.508	02:59:50:19	4.082	V2669-03
 	cruise	Pleuronectiformes	402.8	2676	 	36.804054	-122.0292	1676460	0.77	2005-06-14 16:44:03.0	Ventana	34.303	00:28:11:19	6.762	V2676-01
 	transect	Ceriantharia sp. 2	997.35	2669	 	36.730637	-122.22748	1683338	0.45	2005-05-25 17:57:07.0	Ventana	34.52	00:19:35:08	3.909	V2669-01
 	transect	Mesomyaria	999.67	2669	 	36.730507	-122.228874	1650929	0.45	2005-05-25 18:05:41.0	Ventana	34.521	00:28:08:19	3.908	V2669-01
 	cruise	LRJ Complex	1282.7	2673	 	36.802937	-121.804695	1668339	0.81	2005-06-07 17:24:31.0	Ventana	34.582	00:08:22:08	3.226	V2673-01
 	transect	molt	100.5	2681	 	36.699825	-122.05429	2489673	2.13	2005-07-07 16:47:31.0	Ventana	34.068	00:18:39:28	9.148	V2681-01HD
 	transect	Psolus squamatus	 	2687	 	 	 	1810918	 	2005-07-13 19:42:42.0	Ventana	 	03:07:44:07	 	V2687-04
 	transect	Phyllospadix	800.86	2674	 	36.751755	-122.21118	1801092	0.35	2005-06-08 18:24:48.0	Ventana	34.489	01:08:52:26	4.342	V2674-02
 	transect	Neptunea amianta	600.31	2680	 	36.784473	-122.22984	1805621	0.36	2005-06-27 19:18:22.0	Ventana	34.377	01:57:25:06	5.606	V2680-02
 	transect	Mediaster	 	2687	 	 	 	1812238	 	2005-07-13 20:29:42.0	Ventana	 	03:54:40:12	 	V2687-04
 	ascend	Calycophorae	495.94	2682	 	36.69833	-122.06328	1723686	0.5	2005-07-08 21:14:16.0	Ventana	34.332	05:05:57:25	6.168	V2682-06
 	descend	Appendicularia	308.49	2683	 	36.701107	-122.05014	1756508	1.25	2005-07-11 16:54:10.0	Ventana	34.24	00:41:50:08	7.64	V2683-01
 	transect	Euplexaura	 	2687	 	 	 	1810152	 	2005-07-13 19:01:01.0	Ventana	 	02:26:46:16	 	V2687-03
 	descend	Leuroglossus stilbius	736.13	2682	 	36.698433	-122.05966	1721598	0.29	2005-07-08 18:28:52.0	Ventana	34.444	02:21:56:09	4.855	V2682-03
 	transect	Neptunea amianta	600.72	2680	 	36.786533	-122.23112	1805884	0.36	2005-06-27 19:39:34.0	Ventana	34.377	02:18:13:18	5.6	V2680-03
 	transect	Actiniaria sp. 3	 	2687	 	 	 	1807711	 	2005-07-13 17:23:59.0	Ventana	 	00:50:51:10	 	V2687-01
 	ascend	Appendicularia	1174.84	2682	 	36.698284	-122.057495	1722456	0.65	2005-07-08 19:53:16.0	Ventana	34.567	03:45:50:07	3.44	V2682-04
 	transect	Porifera sp. 1	 	2687	 	 	 	1812501	 	2005-07-13 20:41:59.0	Ventana	 	04:06:56:09	 	V2687-04
 	transect	Phyllospadix	1000.24	2669	 	36.73119	-122.24059	1689279	0.41	2005-05-25 19:31:17.0	Ventana	34.51	01:53:15:07	4.057	V2669-02
 	cruise	Florometra serratissima	1229.88	2683	 	36.70587	-122.04776	1757569	0.74	2005-07-11 19:57:39.0	Ventana	34.58	03:32:02:20	3.322	V2683-04
 	transect	molt	100.51	2681	 	36.69983	-122.05429	2489613	2.13	2005-07-07 16:46:12.0	Ventana	34.068	00:17:21:19	9.146	V2681-01HD
 	transect	Psolus squamatus	 	2687	 	 	 	1811532	 	2005-07-13 20:15:12.0	Ventana	 	03:40:11:13	 	V2687-04
 	transect	Psolus squamatus	 	2687	 	 	 	1810595	 	2005-07-13 19:23:23.0	Ventana	 	02:49:07:11	 	V2687-03
 	transect	Psolus squamatus	 	2687	 	 	 	1809031	 	2005-07-13 17:34:06.0	Ventana	 	01:00:58:00	 	V2687-01
 	transect	Rathbunaster californicus	199.53	2696	 	36.80402	-122.12565	1813359	1.52	2005-08-01 17:39:17.0	Ventana	34.21	01:07:10:13	8.659	V2696-02
 	transect	Ophiuroidea	1000.28	2669	 	36.731564	-122.24307	1733773	0.41	2005-05-25 19:44:52.0	Ventana	34.512	02:06:24:05	4.075	V2669-03
 	transect	Phyllospadix	998.32	2669	 	36.73096	-122.23011	1651252	0.45	2005-05-25 18:15:07.0	Ventana	34.522	00:37:34:15	3.912	V2669-01
 	descend	Nanomia	203.55	2682	 	36.699894	-122.06072	1719955	1.87	2005-07-08 16:20:54.0	Ventana	34.17	00:14:57:18	7.985	V2682-01
 	cruise	Macrouridae	1215.1	2683	 	36.706497	-122.04764	1757629	0.73	2005-07-11 20:10:19.0	Ventana	34.575	03:44:41:14	3.333	V2683-04
 	ascend	Hastigerinella digitata	365.95	2693	 	36.694485	-122.06104	1758859	1.24	2005-07-25 21:01:07.0	Ventana	34.234	03:25:40:28	7.34	V2693-04
 	transect	Mesomyaria	999.83	2669	 	36.731335	-122.23783	1687546	0.44	2005-05-25 19:13:23.0	Ventana	34.519	01:35:21:18	3.944	V2669-02
 	transect	Mesomyaria	1000.06	2669	 	36.731136	-122.2401	1689219	0.41	2005-05-25 19:28:02.0	Ventana	34.51	01:50:00:15	4.061	V2669-02
 	cruise	Rathbunaster californicus	432.44	2688	 	36.805138	-122.01888	1677690	0.92	2005-07-14 17:44:40.0	Ventana	34.267	01:30:23:27	6.93	V2688-02
 	transect	Allocentrotus fragilis	 	2687	 	 	 	1811301	 	2005-07-13 20:05:39.0	Ventana	 	03:30:38:28	 	V2687-04
 	cruise	Parastichopus	105.28	2688	 	36.814533	-122.01667	1679254	1.97	2005-07-14 19:37:36.0	Ventana	34.086	03:22:23:14	8.895	V2688-04
 	descend	Hormiphora	184.01	2693	 	36.696064	-122.05818	1758275	1.85	2005-07-25 18:13:16.0	Ventana	34.175	00:53:46:11	8.866	V2693-01
 	ascend	Haliscera	333.78	2681	 	36.699585	-122.05522	1718128	1.16	2005-07-07 20:55:16.733	Ventana	34.241	04:23:37:14	7.306	V2681-05
 	transect	Mediaster	 	2687	 	 	 	1811795	 	2005-07-13 20:25:17.0	Ventana	 	03:50:15:29	 	V2687-04
 	transect	Sebastolobus	997.32	2669	 	36.7306	-122.22817	1649346	0.45	2005-05-25 18:01:38.0	Ventana	34.522	00:24:06:00	3.907	V2669-01
 	transect	Mesomyaria	1000.02	2669	 	36.731705	-122.24386	1733985	0.41	2005-05-25 19:49:27.0	Ventana	34.51	02:10:58:29	4.069	V2669-03
 	cruise	Sebastolobus	548.06	2688	 	36.7977	-122.01992	1677427	0.59	2005-07-14 16:59:09.0	Ventana	34.33	00:45:27:28	6.172	V2688-01
 	cruise	Rathbunaster californicus	100.63	2688	 	36.814056	-122.0185	1679517	1.92	2005-07-14 21:24:19.0	Ventana	34.111	05:08:31:03	8.87	V2688-05
 	transect	Phyllospadix	998.77	2669	 	36.731155	-122.234146	1684076	0.45	2005-05-25 18:42:58.0	Ventana	34.523	01:04:59:11	3.915	V2669-02
 	descend	Appendicularia	802.8	2683	 	36.702663	-122.04878	1757154	0.36	2005-07-11 18:01:00.0	Ventana	34.463	01:45:04:26	4.615	V2683-02
 	transect	Ophiuroidea	998.44	2669	 	36.73111	-122.2307	1683398	0.45	2005-05-25 18:20:00.0	Ventana	34.521	00:42:27:02	3.912	V2669-01
 	descend	Aegina	862.83	2681	 	36.696957	-122.05319	1716485	0.34	2005-07-07 19:04:54.133	Ventana	34.495	02:34:36:12	4.279	V2681-03
 	transect	Parastichopus leukothele	201.6	2696	 	36.805256	-122.12819	1813622	1.5	2005-08-01 18:06:53.0	Ventana	34.21	01:34:44:22	8.669	V2696-02
 	transect	Mesomyaria	801.93	2674	 	36.752247	-122.20693	1800003	0.37	2005-06-08 18:04:25.0	Ventana	34.49	00:48:57:19	4.341	V2674-01
 	transect	Umbellula lindahli	600.01	2680	 	36.77793	-122.22311	1804331	0.36	2005-06-27 17:52:28.0	Ventana	34.379	00:32:35:00	5.588	V2680-01
 	transect	Sergestes similis	300.43	2681	 	36.69706	-122.052574	2492377	1.23	2005-07-07 17:24:42.0	Ventana	34.234	00:55:49:08	7.392	V2681-01HD
 	transect	Phyllospadix	800.78	2674	 	36.75253	-122.201614	1799066	0.34	2005-06-08 17:36:26.0	Ventana	34.487	00:21:00:13	4.415	V2674-01
 	descend	Dosidicus gigas	396.24	2681	 	36.695553	-122.05119	1715101	0.82	2005-07-07 17:33:12.3	Ventana	34.275	01:03:36:12	6.694	V2681-02
 	descend	Nanomia	167.26	2693	 	36.696247	-122.05777	1758215	1.97	2005-07-25 17:58:08.0	Ventana	34.139	00:38:39:02	8.927	V2693-01
 	descend	Copepoda	824.24	2682	 	36.698357	-122.05955	1721718	0.32	2005-07-08 18:43:39.0	Ventana	34.479	02:36:41:05	4.462	V2682-03
 	transect	Mesomyaria	1000.43	2669	 	36.732143	-122.248085	1736184	0.41	2005-05-25 20:19:35.0	Ventana	34.51	02:41:03:08	4.068	V2669-03
 	cruise	Laminariales	97.18	2688	 	36.81686	-122.01443	1679314	1.99	2005-07-14 19:51:27.0	Ventana	34.087	03:36:13:17	8.916	V2688-04
 	descend	Copepoda	1183.34	2682	 	36.69825	-122.05786	1722336	0.66	2005-07-08 19:40:46.0	Ventana	34.569	03:33:23:07	3.413	V2682-04
 	transect	Nanomia bijuga	200.36	2681	 	36.69829	-122.05333	2491057	1.69	2005-07-07 17:11:14.0	Ventana	34.196	00:42:22:00	8.332	V2681-01HD
 	transect	Chionoecetes tanneri	800.88	2674	 	36.752598	-122.201904	1799126	0.34	2005-06-08 17:38:10.0	Ventana	34.482	00:22:44:06	4.405	V2674-01
 	ascend	Lobata	1198.58	2683	 	36.707233	-122.04767	1757689	0.72	2005-07-11 20:21:02.0	Ventana	34.573	03:55:24:22	3.361	V2683-04
 	transect	molt	100.48	2681	 	36.69982	-122.05429	2489733	2.13	2005-07-07 16:48:57.0	Ventana	34.067	00:20:06:10	9.155	V2681-01HD
 	transect	Brisaster	1000.08	2669	 	36.731968	-122.24628	1735658	0.41	2005-05-25 20:06:30.0	Ventana	34.51	02:27:59:26	4.062	V2669-03
 	descend	Nanomia	202.42	2683	 	36.70103	-122.05094	1756388	1.71	2005-07-11 16:47:21.0	Ventana	34.191	00:35:02:11	8.38	V2683-01
 	descend	Chuniphyes	710.9	2683	 	36.702145	-122.048935	1757094	0.3	2005-07-11 17:55:04.0	Ventana	34.421	01:39:10:01	5.028	V2683-02
 	descend	Aegina	720.53	2681	 	36.694946	-122.0506	1716222	0.29	2005-07-07 18:49:22.5	Ventana	34.446	02:19:06:07	4.85	V2681-03
 	transect	Psolus squamatus	 	2687	 	 	 	1811592	 	2005-07-13 20:16:49.0	Ventana	 	03:41:48:08	 	V2687-04
 	transect	chuniphyes	1001.01	2681	 	36.69575	-122.05184	2498641	0.48	2005-07-07 19:26:34.0	Ventana	34.535	02:56:14:09	3.849	V2681-03HD
 	transect	Mesomyaria	999.94	2669	 	36.732594	-122.25042	1736982	0.41	2005-05-25 20:36:11.0	Ventana	34.509	02:57:38:20	4.07	V2669-03
 	cruise	Parastichopus	228.71	2676	 	36.805958	-122.02935	1676781	1.58	2005-06-14 17:40:02.0	Ventana	34.203	01:19:46:27	8.06	V2676-02
 	descend	Beroe	389.36	2682	http://search.mbari.org/ARCHIVE/frameGrabs/Ventana/images/2682/01_29_55_08.jpg	36.69838	-122.05988	1720689	0.93	2005-07-08 17:36:25.0	Ventana	34.266	01:29:55:08	6.873	V2682-02
 	transect	Mediaster	 	2687	 	 	 	1812621	 	2005-07-13 20:48:22.0	Ventana	 	04:12:52:24	 	V2687-05
 	transect	Umbellula lindahli	602.77	2680	 	36.78939	-122.23253	1806710	0.36	2005-06-27 20:10:10.0	Ventana	34.379	02:48:47:26	5.59	V2680-03
 	ascend	Poeobius meseres	1144.92	2682	 	36.69822	-122.05747	1722516	0.62	2005-07-08 19:55:12.0	Ventana	34.561	03:47:48:06	3.51	V2682-04
 	descend	Appendicularia	518.91	2683	 	36.701458	-122.04915	1756891	0.6	2005-07-11 17:41:14.0	Ventana	34.311	01:25:19:09	6.323	V2683-02
 	ascend	Nanomia	257.63	2681	 	36.698742	-122.0568	1719097	1.43	2005-07-07 21:22:37.167	Ventana	34.226	04:50:56:06	7.958	V2681-05
 	transect	cydippida	100.57	2681	 	36.69983	-122.05429	2489553	2.13	2005-07-07 16:44:38.0	Ventana	34.068	00:15:48:06	9.145	V2681-01HD
 	transect	Chaetognatha	200.37	2681	 	36.69831	-122.053406	2491237	1.67	2005-07-07 17:13:00.0	Ventana	34.201	00:44:08:23	8.34	V2681-01HD
 	transect	Allocentrotus fragilis	 	2687	 	 	 	1812298	 	2005-07-13 20:31:22.0	Ventana	 	03:56:20:05	 	V2687-04
 	descend	Dosidicus gigas	404.2	2681	 	36.698025	-122.05376	1715304	0.79	2005-07-07 17:50:43.75	Ventana	34.275	01:21:06:15	6.638	V2681-02
 	transect	lobata	600.64	2681	 	36.695858	-122.0514	2493678	0.3	2005-07-07 18:19:24.0	Ventana	34.388	01:49:46:10	5.495	V2681-02HD
 	transect	Calliostoma platinum	 	2687	 	 	 	1807125	 	2005-07-13 17:00:57.0	Ventana	 	00:27:50:20	 	V2687-01
 	transect	Bathylagus	800.9	2681	 	36.695316	-122.05113	2498115	0.31	2005-07-07 18:55:09.0	Ventana	34.475	02:24:50:06	4.491	V2681-03HD
 	ascend	Appendicularia	681.26	2683	 	36.705597	-122.04937	1757892	0.31	2005-07-11 21:07:10.0	Ventana	34.431	04:40:01:12	5.012	V2683-05
 	transect	Lycenchelys camchatica	999.8	2669	 	36.73136	-122.237335	1687486	0.44	2005-05-25 19:09:07.0	Ventana	34.52	01:31:06:19	3.944	V2669-02
 	descend	Copepoda	500.34	2682	 	36.6986	-122.05978	1720832	0.44	2005-07-08 17:59:34.0	Ventana	34.348	01:53:03:16	6.029	V2682-02
 	ascend	Appendicularia	457.74	2683	 	36.704285	-122.05056	1758012	0.75	2005-07-11 21:17:55.0	Ventana	34.289	04:50:47:02	6.63	V2683-05
 	transect	Mesomyaria	998.71	2669	 	36.73286	-122.25204	1737305	0.4	2005-05-25 20:45:11.0	Ventana	34.509	03:05:59:15	4.074	V2669-04
 	transect	Brisaster	999.96	2669	 	36.731853	-122.24503	1735335	0.4	2005-05-25 19:56:52.0	Ventana	34.508	02:18:21:12	4.083	V2669-03
 	transect	Phyllospadix	799.31	2674	 	36.752525	-122.20412	1799449	0.35	2005-06-08 17:49:44.0	Ventana	34.483	00:34:17:16	4.38	V2674-01
 	transect	Gastropoda	198.07	2696	 	36.803596	-122.12418	1813239	1.54	2005-08-01 17:24:31.0	Ventana	34.202	00:52:48:26	8.611	V2696-01
 	descend	Chuniphyes	928.5	2683	 	36.703682	-122.04861	1757306	0.37	2005-07-11 19:07:14.0	Ventana	34.508	02:47:35:00	4.185	V2683-03
 	transect	Rathbunaster californicus	199.65	2696	 	36.804302	-122.126175	1813419	1.52	2005-08-01 17:44:47.0	Ventana	34.208	01:12:40:08	8.661	V2696-02
 	transect	Mesomyaria	998.1	2669	 	36.733006	-122.25276	1737485	0.4	2005-05-25 20:49:23.0	Ventana	34.508	03:10:11:02	4.075	V2669-04
 	descend	Appendicularia	481.57	2683	 	36.70152	-122.049324	1756771	0.73	2005-07-11 17:22:30.0	Ventana	34.293	01:06:37:09	6.577	V2683-02
 	transect	Copepoda	400.81	2681	 	36.696175	-122.051636	2492972	0.79	2005-07-07 17:42:43.0	Ventana	34.276	01:13:06:10	6.657	V2681-02HD
 	cruise	Sebastolobus	518.62	2688	 	36.799957	-122.01898	1677487	0.66	2005-07-14 17:09:24.0	Ventana	34.316	00:55:41:13	6.37	V2688-01
 	transect	Mediaster	 	2687	 	 	 	1812441	 	2005-07-13 20:38:55.0	Ventana	 	04:03:52:14	 	V2687-04
 	transect	Aegina	700.6	2681	 	36.695446	-122.05124	2497935	0.28	2005-07-07 18:46:26.0	Ventana	34.435	02:16:10:00	4.969	V2681-03HD
 	ascend	Bathocyroe	606.66	2682	 	36.69887	-122.05998	1723425	0.34	2005-07-08 20:39:10.0	Ventana	34.382	04:31:17:24	5.545	V2682-05
 	transect	Sebastolobus altivelis	800.24	2674	 	36.75207	-122.208885	1800829	0.35	2005-06-08 18:13:54.0	Ventana	34.489	00:58:25:21	4.325	V2674-01
 	transect	Neptunea amianta	800.47	2674	 	36.75107	-122.21783	1803533	0.35	2005-06-08 18:57:25.0	Ventana	34.49	01:41:27:17	4.359	V2674-02
 	cruise	Anthomastus ritteri	449.91	2688	 	36.803455	-122.01808	1677630	0.9	2005-07-14 17:36:37.0	Ventana	34.27	01:22:20:27	6.887	V2688-02
 	transect	Mesomyaria	999.89	2669	 	36.731777	-122.244415	1734308	0.4	2005-05-25 19:52:26.0	Ventana	34.508	02:13:56:16	4.08	V2669-03
 	transect	Calliostoma platinum	 	2687	 	 	 	1809797	 	2005-07-13 18:41:01.0	Ventana	 	02:06:47:29	 	V2687-03
 	transect	Chionoecetes tanneri	999.45	2669	 	36.731003	-122.23228	1683721	0.45	2005-05-25 18:31:04.0	Ventana	34.521	00:53:30:18	3.915	V2669-01
 	transect	Phyllospadix	200.36	2696	 	36.8051	-122.127914	1813562	1.5	2005-08-01 17:59:56.0	Ventana	34.212	01:27:48:05	8.672	V2696-02
 	transect	Caecosagitta macrocephala	901.06	2681	 	36.69619	-122.05221	2498318	0.39	2005-07-07 19:10:11.0	Ventana	34.505	02:39:52:02	4.172	V2681-03HD
 	descend	Nanomia	254.59	2681	 	36.698574	-122.05357	1713601	1.46	2005-07-07 17:16:14.567	Ventana	34.214	00:47:22:24	7.88	V2681-01
 	transect	Euphausia	200.46	2681	 	36.69828	-122.05329	2490674	1.72	2005-07-07 17:08:11.0	Ventana	34.194	00:39:18:26	8.323	V2681-01HD
 	descend	Copepoda	265.1	2682	 	36.699795	-122.06083	1720015	1.35	2005-07-08 16:26:56.0	Ventana	34.227	00:20:59:07	7.781	V2682-01
 	transect	Mediaster	 	2687	 	 	 	1811735	 	2005-07-13 20:23:07.0	Ventana	 	03:48:05:16	 	V2687-04
 	transect	Gastropoda sp.2	1000.34	2669	 	36.731304	-122.24151	1689814	0.4	2005-05-25 19:36:45.0	Ventana	34.508	01:58:42:12	4.091	V2669-02
 	transect	Mesomyaria	999.7	2669	 	36.73059	-122.22913	1651049	0.45	2005-05-25 18:07:43.0	Ventana	34.522	00:30:11:08	3.909	V2669-01
 	transect	Ceriantharia sp. 2	1000.4	2669	 	36.731293	-122.24149	1689805	0.4	2005-05-25 19:36:32.0	Ventana	34.508	01:58:29:13	4.092	V2669-02
 	cruise	crust	99.98	2676	http://search.mbari.org/ARCHIVE/frameGrabs/Ventana/images/2676/01_49_35_18.jpg	36.810036	-122.03296	1676924	1.87	2005-06-14 18:09:54.0	Ventana	34.145	01:49:35:18	8.487	V2676-02
 	ascend	Hastigerinella digitata	300.32	2681	 	36.699707	-122.055244	1718188	1.33	2005-07-07 20:59:18.78	Ventana	34.226	04:27:39:08	7.648	V2681-05
 	transect	Sebastolobus altivelis	801.33	2674	 	36.752174	-122.20795	1800123	0.35	2005-06-08 18:09:22.0	Ventana	34.49	00:53:53:29	4.329	V2674-01
 	transect	Ophiuroidea	998.86	2669	 	36.731403	-122.23618	1684662	0.44	2005-05-25 18:58:49.0	Ventana	34.521	01:20:49:02	3.944	V2669-02
 	transect	Phyllospadix	399.69	2687	 	36.789352	-122.124855	1809617	1.16	2005-07-13 18:25:57.0	Ventana	34.239	01:52:16:05	7.325	V2687-02
 	ascend	Chuniphyes	885.55	2682	 	36.698395	-122.058426	1723222	0.34	2005-07-08 20:17:03.0	Ventana	34.493	04:09:12:06	4.315	V2682-05
 	descend	Appendicularia	354.33	2683	 	36.701317	-122.049904	1756568	1.18	2005-07-11 16:56:46.0	Ventana	34.23	00:44:25:21	7.179	V2683-01
 	transect	Phyllospadix	204.0	2696	 	36.806213	-122.12979	1813742	1.49	2005-08-01 18:24:13.0	Ventana	34.209	01:52:04:04	8.635	V2696-02
 	cruise	rock outcrop	420.21	2676	http://search.mbari.org/ARCHIVE/frameGrabs/Ventana/images/2676/00_26_48_16.jpg	36.803688	-122.02921	20003917	0.68	2005-06-14 16:42:41.0	Ventana	34.307	00:26:48:16	6.498	V2676-01
 	ascend	Appendicularia	382.85	2681	 	36.699345	-122.05464	1718008	0.94	2005-07-07 20:49:24.767	Ventana	34.27	04:17:45:26	6.98	V2681-05
 	transect	Phyllospadix	1000.23	2669	 	36.732014	-122.24724	1735861	0.41	2005-05-25 20:13:39.0	Ventana	34.51	02:35:08:20	4.063	V2669-03
 	transect	Phyllospadix	799.91	2674	 	36.751312	-122.215515	1803353	0.35	2005-06-08 18:46:13.0	Ventana	34.486	01:30:16:06	4.356	V2674-02
 	ascend	Nanomia	177.64	2693	 	36.690628	-122.06294	1759242	1.95	2005-07-25 21:29:54.0	Ventana	34.128	03:54:24:29	8.878	V2693-04
 	transect	Phyllospadix	799.39	2674	 	36.751663	-122.21297	1801244	0.35	2005-06-08 18:31:36.0	Ventana	34.489	01:15:40:03	4.336	V2674-02
 	transect	Calliostoma platinum	 	2687	http://search.mbari.org/ARCHIVE/frameGrabs/Ventana/images/2687/04_24_00_10.jpg	 	 	1812824	 	2005-07-13 20:59:30.0	Ventana	 	04:24:00:10	 	V2687-05
 	ascend	Appendicularia	762.27	2681	 	36.69868	-122.056	1717514	0.29	2005-07-07 20:11:26.95	Ventana	34.449	03:40:28:09	4.8	V2681-04
 	descend	Atolla wyvillei	1174.08	2683	 	36.706745	-122.04801	1757509	0.69	2005-07-11 19:36:10.0	Ventana	34.567	03:16:32:00	3.43	V2683-03
 	transect	Neptunea amianta	800.55	2674	 	36.752434	-122.20469	1799652	0.36	2005-06-08 17:53:13.0	Ventana	34.488	00:37:46:02	4.355	V2674-01
 	transect	Aegina	400.73	2681	 	36.697575	-122.053276	2493175	0.79	2005-07-07 17:48:43.0	Ventana	34.277	01:19:07:14	6.658	V2681-02HD
 	descend	Myctophidae	589.32	2682	 	36.698647	-122.05982	1721215	0.36	2005-07-08 18:07:12.0	Ventana	34.386	02:00:16:13	5.497	V2682-03
 	transect	Umbellula lindahli	599.34	2680	 	36.779106	-122.22424	1804474	0.36	2005-06-27 18:06:31.0	Ventana	34.378	00:46:37:01	5.599	V2680-01
 	transect	Calliostoma platinum	 	2687	 	 	 	1808708	 	2005-07-13 17:27:33.0	Ventana	 	00:54:26:01	 	V2687-01
 	transect	Gastropoda	196.29	2696	 	36.802666	-122.12169	1813036	1.55	2005-08-01 16:58:44.0	Ventana	34.199	00:27:03:03	8.6	V2696-01
 	transect	Mesomyaria	802.07	2674	 	36.751816	-122.210655	1801032	0.35	2005-06-08 18:22:46.0	Ventana	34.488	01:06:51:13	4.328	V2674-02
 	transect	Ceriantharia sp. 1	599.09	2680	 	36.783264	-122.22865	1805360	0.36	2005-06-27 19:05:28.0	Ventana	34.376	01:44:31:24	5.606	V2680-02
 	ascend	Crustacea	603.29	2682	 	36.69862	-122.06176	1723543	0.33	2005-07-08 20:58:01.0	Ventana	34.378	04:50:07:21	5.632	V2682-05
 	transect	Microstomus pacificus	802.03	2674	 	36.7509	-122.21986	1803653	0.35	2005-06-08 19:06:01.0	Ventana	34.487	01:50:03:14	4.37	V2674-02
 	transect	Euphausia	200.39	2681	 	36.69832	-122.05343	2491320	1.66	2005-07-07 17:13:28.0	Ventana	34.2	00:44:35:18	8.34	V2681-01HD
 	cruise	mud	469.36	2676	 	36.802483	-122.02939	1676280	0.56	2005-06-14 16:34:04.0	Ventana	34.337	00:18:13:06	6.158	V2676-01
 	transect	Mesomyaria	999.7	2669	 	36.73142	-122.23697	1687426	0.44	2005-05-25 19:06:08.0	Ventana	34.52	01:28:07:10	3.941	V2669-02
 	cruise	Appendicularia	1015.07	2689	 	36.771572	-122.08297	1669640	0.5	2005-07-18 16:49:27.0	Ventana	34.533	00:12:31:08	3.851	V2689-01
 	ascend	Aegina	751.11	2682	 	36.698788	-122.059166	1723305	0.29	2005-07-08 20:28:50.0	Ventana	34.444	04:21:00:00	4.838	V2682-05
 	transect	Porifera sp. 1	 	2687	http://search.mbari.org/ARCHIVE/frameGrabs/Ventana/images/2687/00_43_15_13.jpg	 	 	1807591	 	2005-07-13 17:16:22.0	Ventana	 	00:43:15:13	 	V2687-01
 	transect	Appendicularia	600.58	2681	 	36.69643	-122.052055	2493738	0.3	2005-07-07 18:22:03.0	Ventana	34.388	01:52:24:06	5.48	V2681-02HD
 	transect	Porifera sp. 1	 	2687	 	 	 	1809940	 	2005-07-13 18:48:28.0	Ventana	 	02:14:13:25	 	V2687-03
 	cruise	Cancer magister	124.33	2672	http://search.mbari.org/ARCHIVE/frameGrabs/Ventana/images/2672/00_23_06_26.jpg	36.803104	-121.80557	20003834	2.65	2005-06-03 15:03:45.0	Ventana	33.96	00:23:06:26	9.309	V2672-01
 	transect	cyclothone	400.74	2681	 	36.696648	-122.0522	2493032	0.79	2005-07-07 17:44:48.0	Ventana	34.277	01:15:11:06	6.652	V2681-02HD
 	transect	Phyllospadix	1000.29	2669	 	36.73175	-122.24476	1734451	0.4	2005-05-25 19:54:59.0	Ventana	34.508	02:16:30:00	4.075	V2669-03
 	transect	Porifera sp. 1	 	2687	 	 	 	1812358	 	2005-07-13 20:34:13.0	Ventana	 	03:59:10:28	 	V2687-04
 	descend	Nanomia	301.68	2693	 	36.697678	-122.060936	1758478	1.32	2005-07-25 19:39:18.0	Ventana	34.235	02:18:53:04	7.687	V2693-03
 	transect	Ceriantharia sp. 1	598.58	2680	 	36.780693	-122.2257	1804797	0.35	2005-06-27 18:26:24.0	Ventana	34.378	01:05:30:09	5.576	V2680-02
 	transect	Stomphia	1000.05	2669	 	36.7319	-122.24553	1735395	0.41	2005-05-25 20:00:48.0	Ventana	34.51	02:22:18:10	4.063	V2669-03
 	descend	Appendicularia	1057.99	2683	 	36.705055	-122.04899	1757426	0.49	2005-07-11 19:26:05.0	Ventana	34.533	03:06:27:19	3.837	V2683-03
 	transect	Sebastolobus	997.52	2669	 	36.73061	-122.22698	1649083	0.45	2005-05-25 17:53:59.0	Ventana	34.521	00:16:27:10	3.909	V2669-01
 	ascend	Appendicularia	838.14	2681	 	36.698673	-122.056046	1717394	0.31	2005-07-07 19:56:38.933	Ventana	34.483	03:25:41:21	4.422	V2681-04
 	descend	Nanomia	430.62	2682	 	36.69824	-122.05973	1720749	0.68	2005-07-08 17:46:16.0	Ventana	34.29	01:39:46:26	6.467	V2682-02
 	transect	Mesomyaria	999.52	2669	 	36.73073	-122.229515	1651109	0.45	2005-05-25 18:10:31.0	Ventana	34.522	00:32:58:24	3.907	V2669-01
 	ascend	sinker	1145.39	2683	 	36.70815	-122.04903	1757772	0.67	2005-07-11 20:38:15.0	Ventana	34.564	04:12:35:11	3.476	V2683-04
 	transect	Phyllospadix	999.83	2669	 	36.731056	-122.238846	1689076	0.43	2005-05-25 19:20:28.0	Ventana	34.519	01:42:26:08	3.963	V2669-02
 	ascend	Solmissus	399.48	2681	 	36.69928	-122.05449	1717985	0.89	2005-07-07 20:47:46.9	Ventana	34.269	04:16:07:18	6.892	V2681-05
 	ascend	Chaetognatha	370.93	2693	 	36.696663	-122.060555	1758716	1.2	2005-07-25 20:30:52.0	Ventana	34.233	03:10:23:28	7.177	V2693-03
 	cruise	Asteroidea	212.67	2688	 	36.81026	-122.02085	1677953	1.72	2005-07-14 18:33:42.0	Ventana	34.161	02:18:57:16	8.689	V2688-03
 	transect	Psolus squamatus	 	2687	http://search.mbari.org/ARCHIVE/frameGrabs/Ventana/images/2687/03_14_09_17.jpg	 	 	1811038	 	2005-07-13 19:49:08.0	Ventana	 	03:14:09:17	 	V2687-04
 	transect	Mesomyaria	798.34	2674	 	36.751614	-122.2138	1801304	0.35	2005-06-08 18:36:59.0	Ventana	34.488	01:21:03:01	4.344	V2674-02
 	transect	Pennatulacea sp.1	599.68	2680	 	36.77888	-122.22407	1804451	0.36	2005-06-27 18:04:31.0	Ventana	34.381	00:44:37:04	5.596	V2680-01
 	transect	Psolus squamatus	 	2687	 	 	 	1810009	 	2005-07-13 18:50:36.0	Ventana	 	02:16:21:20	 	V2687-03
 	transect	Microstomus pacificus	196.5	2696	 	36.803265	-122.12321	1813156	1.54	2005-08-01 17:13:22.0	Ventana	34.204	00:41:39:27	8.614	V2696-01
 	transect	Rathbunaster californicus	204.09	2696	 	36.8076	-122.13123	1813862	1.46	2005-08-01 18:43:50.0	Ventana	34.226	02:10:55:07	8.653	V2696-03
 	transect	Chionoecetes tanneri	800.95	2674	 	36.75239	-122.205536	1799800	0.36	2005-06-08 17:57:23.0	Ventana	34.486	00:41:55:21	4.35	V2674-01
 	transect	molt	100.49	2681	 	36.69931	-122.05396	2489816	2.14	2005-07-07 16:51:14.0	Ventana	34.067	00:22:23:06	9.15	V2681-01HD
 	descend	Copepoda	1186.38	2682	 	36.69857	-122.05835	1722253	0.68	2005-07-08 19:35:00.0	Ventana	34.572	03:27:37:03	3.381	V2682-04
 	transect	Rathbunaster californicus	 	2687	 	 	 	1812704	 	2005-07-13 20:53:17.0	Ventana	 	04:17:47:01	 	V2687-05
 	transect	Psolus squamatus	399.9	2687	 	36.78812	-122.12164	1809234	1.13	2005-07-13 17:37:26.0	Ventana	34.243	01:03:48:15	7.255	V2687-02
 	cruise	Porifera	126.09	2676	 	36.8085	-122.03124	1676901	1.73	2005-06-14 18:02:56.0	Ventana	34.171	01:42:39:18	8.337	V2676-02
 	descend	Aegina	605.06	2681	 	36.695667	-122.05103	1715890	0.3	2005-07-07 18:17:04.8	Ventana	34.388	01:47:26:06	5.475	V2681-02
 	transect	Psolus squamatus	 	2687	 	 	 	1808911	 	2005-07-13 17:31:44.0	Ventana	 	00:58:36:26	 	V2687-01
 	transect	Hormiphora	200.47	2681	 	36.69828	-122.05329	2490614	1.72	2005-07-07 17:07:51.0	Ventana	34.195	00:38:58:04	8.334	V2681-01HD
 	transect	Appendicularia	1001.1	2681	 	36.69467	-122.05044	2498521	0.47	2005-07-07 19:20:43.0	Ventana	34.531	02:50:24:03	3.868	V2681-03HD
 	transect	Psolus squamatus	 	2687	 	 	 	1810332	 	2005-07-13 19:15:49.0	Ventana	 	02:41:33:12	 	V2687-03
 	descend	Calycophorae	712.56	2682	 	36.6986	-122.05995	1721455	0.28	2005-07-08 18:17:19.0	Ventana	34.434	02:10:24:15	4.937	V2682-03
 	descend	Chaetognatha	171.88	2683	 	36.70105	-122.051254	1756328	1.63	2005-07-11 16:41:02.0	Ventana	34.191	00:28:41:28	8.745	V2683-01
 	cruise	Rathbunaster californicus	349.37	2676	 	36.804688	-122.02899	1676603	1.23	2005-06-14 17:02:21.0	Ventana	34.238	00:46:27:24	7.502	V2676-01
 	ascend	Euphausiacea	258.17	2681	 	36.697838	-122.05522	1719512	 	2005-07-07 21:29:59.0	Ventana	 	05:09:24:15	 	V2681-05
 	transect	Mediaster	400.08	2687	 	36.78909	-122.124016	1809534	1.17	2005-07-13 18:12:46.0	Ventana	34.238	01:39:05:28	7.355	V2687-02
 	transect	Mediaster	 	2687	 	 	 	1811384	 	2005-07-13 20:10:28.0	Ventana	 	03:35:27:10	 	V2687-04
 	cruise	mud	94.67	2688	 	36.814804	-122.01782	1679457	1.94	2005-07-14 21:02:48.0	Ventana	34.099	04:47:02:12	8.927	V2688-05
 	ascend	Appendicularia	655.7	2681	 	36.698814	-122.05421	1717662	0.29	2005-07-07 20:26:52.4	Ventana	34.408	03:55:53:09	5.25	V2681-04
 	transect	Umbellula lindahli	601.37	2680	 	36.776752	-122.22207	1804128	0.36	2005-06-27 17:38:06.0	Ventana	34.378	00:18:13:22	5.581	V2680-01
 	transect	Ophiuroidea	998.93	2669	 	36.731403	-122.23613	1684602	0.44	2005-05-25 18:58:29.0	Ventana	34.521	01:20:29:06	3.943	V2669-02
 	transect	Phyllospadix	 	2687	 	 	 	1811121	 	2005-07-13 19:54:15.0	Ventana	 	03:19:16:04	 	V2687-04
 	transect	Sebastes diploproa	203.25	2696	 	36.806705	-122.130295	1813802	1.47	2005-08-01 18:33:19.0	Ventana	34.216	02:01:09:14	8.616	V2696-02
 	transect	Nanomia bijuga	200.4	2681	 	36.698284	-122.05331	2490914	1.7	2005-07-07 17:09:45.0	Ventana	34.189	00:40:52:19	8.321	V2681-01HD
 	transect	Phyllospadix	999.74	2669	 	36.731117	-122.23547	1684339	0.45	2005-05-25 18:53:41.0	Ventana	34.522	01:15:41:11	3.925	V2669-02
 	transect	Mesomyaria	1000.43	2669	 	36.731945	-122.24701	1735801	0.41	2005-05-25 20:11:57.0	Ventana	34.51	02:33:28:07	4.063	V2669-03
 	transect	Corallimorphus pilatus	 	2687	 	 	 	1810415	 	2005-07-13 19:17:25.0	Ventana	 	02:43:09:28	 	V2687-03
 	descend	Siphonophora	148.05	2683	 	36.700684	-122.05166	1756268	1.69	2005-07-11 16:25:09.0	Ventana	34.17	00:12:49:26	8.855	V2683-01
 	cruise	Florometra	263.24	2688	 	36.80911	-122.020355	1677893	1.52	2005-07-14 18:27:15.0	Ventana	34.191	02:12:31:15	8.186	V2688-03
 	descend	Chuniphyes	763.29	2681	 	36.694893	-122.05056	1716282	0.3	2005-07-07 18:50:50.267	Ventana	34.452	02:20:33:12	4.751	V2681-03
 	transect	Phyllospadix	196.31	2696	 	36.803066	-122.12264	1813096	1.56	2005-08-01 17:06:30.0	Ventana	34.198	00:34:48:12	8.621	V2696-01
 	transect	Lycenchelys camchatica	800.25	2674	 	36.75263	-122.2003	1774098	0.3	2005-06-08 17:29:40.0	Ventana	34.452	00:14:13:21	4.559	V2674-01
 	descend	Atolla wyvillei	911.2	2683	http://search.mbari.org/ARCHIVE/frameGrabs/Ventana/images/2683/02_30_28_28.jpg	36.70347	-122.048454	20004946	0.38	2005-07-11 18:50:05.0	Ventana	34.503	02:30:28:28	4.199	V2683-03
 	transect	Phyllospadix	800.94	2674	 	36.752514	-122.20279	1799246	0.35	2005-06-08 17:42:30.0	Ventana	34.486	00:27:03:07	4.384	V2674-01
 	transect	Appendicularia	300.41	2681	 	36.69618	-122.05182	2492557	1.24	2005-07-07 17:27:43.0	Ventana	34.233	00:58:50:04	7.427	V2681-01HD
 	ascend	Aegina	869.46	2683	 	36.706947	-122.04867	1757832	0.38	2005-07-11 20:58:13.0	Ventana	34.502	04:31:05:25	4.209	V2683-05
 	cruise	Sebastolobus	997.57	2669	http://search.mbari.org/ARCHIVE/frameGrabs/Ventana/images/2669/00_16_13_13.jpg	36.73062	-122.22699	20003774	0.45	2005-05-25 17:53:44.0	Ventana	34.522	00:16:13:13	3.91	V2669-01
 	transect	Psolus squamatus	 	2687	 	 	 	1807651	 	2005-07-13 17:20:24.0	Ventana	 	00:47:17:01	 	V2687-01
 	transect	Nanomia bijuga	200.39	2681	 	36.698284	-122.053314	2490974	1.71	2005-07-07 17:10:23.0	Ventana	34.187	00:41:30:14	8.319	V2681-01HD
 	transect	Phyllospadix	800.7	2674	 	36.75197	-122.2095	1800912	0.36	2005-06-08 18:17:23.0	Ventana	34.492	01:01:28:25	4.32	V2674-02
 	transect	Sebastolobus	 	2687	 	 	 	1812764	 	2005-07-13 20:56:32.0	Ventana	 	04:21:02:06	 	V2687-05
 	transect	Psolus squamatus	 	2687	 	 	 	1812418	 	2005-07-13 20:37:40.0	Ventana	 	04:02:37:27	 	V2687-04
 	ascend	Hastigerinella digitata	345.35	2683	 	36.70368	-122.050606	1758072	1.15	2005-07-11 21:22:40.0	Ventana	34.235	04:55:32:07	7.163	V2683-05
 	transect	Psolus squamatus	 	2687	 	 	 	1808828	 	2005-07-13 17:30:15.0	Ventana	 	00:57:08:00	 	V2687-01
 	transect	Xeneretmus	399.86	2687	 	36.788128	-122.12167	1809271	1.13	2005-07-13 17:37:55.0	Ventana	34.243	01:04:17:07	7.254	V2687-02
 	transect	Neptunea amianta	800.0	2674	 	36.75175	-122.21205	1801175	0.35	2005-06-08 18:28:27.0	Ventana	34.49	01:12:31:20	4.337	V2674-02
 	transect	molt	50.51	2681	 	36.698765	-122.05345	2485379	 	2005-07-07 16:30:46.0	Ventana	 	00:01:56:21	 	V2681-01HD
 	descend	LRJ Complex	728.29	2682	http://search.mbari.org/ARCHIVE/frameGrabs/Ventana/images/2682/02_18_27_17.jpg	36.69849	-122.05969	1721515	0.29	2005-07-08 18:25:23.0	Ventana	34.443	02:18:27:17	4.87	V2682-03
 	ascend	Appendicularia	666.97	2682	 	36.698925	-122.05958	1723365	0.28	2005-07-08 20:34:54.0	Ventana	34.403	04:27:02:03	5.237	V2682-05
 	transect	Neptunea amianta	998.13	2669	 	36.733124	-122.25303	1737545	0.4	2005-05-25 20:51:00.0	Ventana	34.509	03:11:51:11	4.076	V2669-04
 	transect	Ceriantharia sp. 1	602.11	2680	 	36.790607	-122.23277	1806793	0.35	2005-06-27 20:21:34.0	Ventana	34.379	03:00:10:13	5.586	V2680-03
 	descend	Beroe	440.44	2683	 	36.70152	-122.04942	1756688	0.83	2005-07-11 17:08:08.0	Ventana	34.273	00:55:46:26	6.749	V2683-01
 	transect	Neptunea amianta	1000.17	2669	 	36.731434	-122.24183	1689874	0.4	2005-05-25 19:38:37.0	Ventana	34.51	02:00:34:24	4.076	V2669-02
 	ascend	Nanomia	231.78	2693	 	36.69126	-122.06246	1759122	1.56	2005-07-25 21:23:14.0	Ventana	34.223	03:47:45:26	8.521	V2693-04
 	descend	Copepoda	480.83	2682	 	36.698578	-122.059746	1720809	0.51	2005-07-08 17:57:41.0	Ventana	34.329	01:51:10:08	6.17	V2682-02
 	transect	Mesomyaria	998.86	2669	 	36.73089	-122.22976	1651169	0.45	2005-05-25 18:12:36.0	Ventana	34.521	00:35:03:12	3.912	V2669-01
 	cruise	benthos	592.98	2688	 	36.793365	-122.018295	1677247	0.53	2005-07-14 16:19:14.0	Ventana	34.351	00:05:35:11	5.923	V2688-01
 	descend	Poeobius meseres	565.77	2683	 	36.701836	-122.04913	1756974	0.44	2005-07-11 17:45:55.0	Ventana	34.346	01:30:00:23	6.05	V2683-02
 	transect	Mediaster	 	2687	 	 	 	1810678	 	2005-07-13 19:27:31.0	Ventana	 	02:53:15:06	 	V2687-03
 	transect	Phyllospadix	997.44	2669	 	36.730656	-122.22753	1649166	0.45	2005-05-25 17:57:27.0	Ventana	34.521	00:19:55:05	3.909	V2669-01
 	descend	Euphausiacea	302.38	2682	 	36.699196	-122.06057	1720135	1.17	2005-07-08 16:55:46.0	Ventana	34.232	00:49:48:18	7.333	V2682-01
 	descend	Calycophorae	992.91	2683	 	36.704124	-122.04932	1757366	0.43	2005-07-11 19:15:36.0	Ventana	34.516	02:55:59:08	4.02	V2683-03
 	descend	main-camera	333.04	2693	 	36.697323	-122.060295	1758538	1.29	2005-07-25 19:52:08.0	Ventana	34.236	02:31:44:00	7.574	V2693-03
 	transect	molt	100.48	2681	 	36.698906	-122.053696	2489876	2.13	2005-07-07 16:52:10.0	Ventana	34.045	00:23:18:19	9.142	V2681-01HD
 	transect	Mesomyaria	1000.66	2669	 	36.73207	-122.247826	1736161	0.4	2005-05-25 20:17:30.0	Ventana	34.508	02:38:58:16	4.086	V2669-03
 	ascend	Hastigerinella digitata	258.17	2681	 	36.697838	-122.05522	1719369	 	2005-07-07 21:29:59.0	Ventana	 	05:02:51:24	 	V2681-05
 	transect	Ophiuroidea	999.3	2669	 	36.731422	-122.23626	1684699	0.44	2005-05-25 18:59:25.0	Ventana	34.52	01:21:24:11	3.941	V2669-02
 	transect	Stomphia	 	2687	 	 	 	1810272	 	2005-07-13 19:13:50.0	Ventana	 	02:39:34:15	 	V2687-03
 	transect	Psolus squamatus	 	2687	 	 	 	1810978	 	2005-07-13 19:45:49.0	Ventana	 	03:10:50:24	 	V2687-04
 	transect	Pennatula phosphorea californica	599.42	2680	 	36.77952	-122.22461	1804534	0.36	2005-06-27 18:11:02.0	Ventana	34.376	00:51:07:19	5.608	V2680-01
 	transect	Appendicularia	901.01	2681	 	36.695496	-122.05135	2498438	0.39	2005-07-07 19:13:22.0	Ventana	34.505	02:43:02:12	4.172	V2681-03HD
 	transect	Mesomyaria	1000.47	2669	 	36.731533	-122.24281	1694544	0.4	2005-05-25 19:43:34.0	Ventana	34.51	02:05:31:18	4.087	V2669-02
 	cruise	rock outcrop	108.69	2688	http://search.mbari.org/ARCHIVE/frameGrabs/Ventana/images/2688/02_28_15_10.jpg	36.81131	-122.02257	20005214	1.94	2005-07-14 18:43:01.0	Ventana	34.096	02:28:15:10	8.901	V2688-03
 	transect	Sebastolobus altivelis	802.1	2674	 	36.751873	-122.20995	1800972	0.35	2005-06-08 18:19:50.0	Ventana	34.489	01:03:55:00	4.328	V2674-02
 	transect	Glyptocephalus zachirus	400.09	2687	 	36.78939	-122.1254	1809677	1.14	2005-07-13 18:34:33.0	Ventana	34.242	02:00:51:18	7.303	V2687-02
 	transect	Stomphia	999.59	2669	 	36.731018	-122.23129	1683601	0.45	2005-05-25 18:25:44.0	Ventana	34.52	00:48:10:27	3.915	V2669-01
 	transect	Euplexaura	 	2687	 	 	 	1808971	 	2005-07-13 17:32:49.0	Ventana	 	00:59:40:27	 	V2687-01
 	transect	Calycophorae	400.78	2681	 	36.69584	-122.05125	2492903	0.79	2005-07-07 17:41:09.0	Ventana	34.278	01:11:33:21	6.667	V2681-02HD
 	transect	Phyllospadix	998.86	2669	 	36.73109	-122.234856	1684196	0.45	2005-05-25 18:48:39.0	Ventana	34.522	01:10:39:01	3.918	V2669-02
 	ascend	Appendicularia	782.08	2681	 	36.698856	-122.05641	1717454	0.28	2005-07-07 20:04:46.1	Ventana	34.458	03:33:47:26	4.712	V2681-04
 	transect	Psolus squamatus	 	2687	 	 	 	1808625	 	2005-07-13 17:25:37.0	Ventana	 	00:52:29:28	 	V2687-01
 	transect	Psolus squamatus	399.87	2687	 	36.788074	-122.12156	1809174	1.13	2005-07-13 17:36:33.0	Ventana	34.242	01:02:55:02	7.267	V2687-02
 	transect	Microstomus pacificus	1000.01	2669	 	36.731224	-122.238235	1688836	0.44	2005-05-25 19:16:34.0	Ventana	34.519	01:38:33:00	3.951	V2669-02
 	transect	Mesomyaria	801.41	2674	 	36.75096	-122.21862	1803593	0.35	2005-06-08 19:00:49.0	Ventana	34.486	01:44:52:04	4.373	V2674-02
 	transect	Brisaster	600.09	2680	 	36.783684	-122.22913	1805443	0.35	2005-06-27 19:09:57.0	Ventana	34.379	01:49:00:11	5.593	V2680-02
 	cruise	Eptatretus	1015.98	2689	 	36.771526	-122.08295	1669723	0.56	2005-07-18 17:07:24.0	Ventana	34.541	00:30:27:21	3.697	V2689-01
 	transect	Ophiuroidea	999.18	2669	 	36.731377	-122.23607	1684542	0.44	2005-05-25 18:58:04.0	Ventana	34.52	01:20:03:19	3.939	V2669-02
 	ascend	Prayidae	254.45	2681	 	36.69848	-122.05618	1719166	1.46	2005-07-07 21:24:13.1	Ventana	34.222	04:52:31:17	7.999	V2681-05
 	ascend	Appendicularia	557.9	2682	 	36.69827	-122.0626	1723603	0.38	2005-07-08 21:08:00.0	Ventana	34.357	05:00:05:28	5.845	V2682-05
 	transect	Phyllospadix	801.69	2674	 	36.75223	-122.20743	1800063	0.37	2005-06-08 18:06:57.0	Ventana	34.488	00:51:28:19	4.35	V2674-01
 	ascend	Hastigerinella digitata	378.22	2693	 	36.69592	-122.0606	1758776	1.19	2005-07-25 20:50:22.0	Ventana	34.23	03:14:55:24	7.141	V2693-04
 	transect	Psolus squamatus	 	2687	 	 	 	1808768	 	2005-07-13 17:29:04.0	Ventana	 	00:55:56:17	 	V2687-01
 	transect	Sebastolobus altivelis	798.96	2674	 	36.75148	-122.21456	1801364	0.35	2005-06-08 18:42:12.0	Ventana	34.489	01:26:15:25	4.334	V2674-02
 	transect	Mediaster	 	2687	 	 	 	1811324	 	2005-07-13 20:07:24.0	Ventana	 	03:32:23:24	 	V2687-04
 	transect	Stomphia	998.29	2669	 	36.730526	-122.22837	1649369	0.45	2005-05-25 18:03:02.0	Ventana	34.523	00:25:29:27	3.908	V2669-01
 	descend	Nanomia	221.79	2676	 	36.805096	-122.0318	1676197	1.56	2005-06-14 16:16:12.0	Ventana	34.199	00:00:22:17	8.022	V2676-01
 	transect	Mesomyaria	999.55	2669	 	36.731033	-122.23388	1683993	0.45	2005-05-25 18:41:08.0	Ventana	34.523	01:03:09:03	3.912	V2669-02
 	descend	Doliolida	304.65	2682	 	36.699577	-122.06074	1720075	1.18	2005-07-08 16:38:51.0	Ventana	34.232	00:32:54:23	7.343	V2682-01
 	ascend	Bathochordaeus	201.02	2693	 	36.69085	-122.0627	1759182	1.7	2005-07-25 21:25:40.0	Ventana	34.191	03:50:12:00	8.939	V2693-04
 	transect	Mediaster	 	2687	 	 	 	1810775	 	2005-07-13 19:33:43.0	Ventana	 	02:59:26:08	 	V2687-03
 	cruise	Asteroidea	103.4	2676	 	36.80555	-122.04314	1677187	1.94	2005-06-14 19:23:47.0	Ventana	34.16	03:02:31:15	8.43	V2676-03
 	ascend	Appendicularia	352.7	2681	 	36.69934	-122.05508	1718068	1.04	2005-07-07 20:52:21.507	Ventana	34.255	04:20:42:13	7.155	V2681-05
 	stationary	Merluccius productus	504.22	2695	 	36.78459	-122.2005	1824496	0.68	2005-07-28 19:09:53.0	Ventana	34.295	04:16:06:28	6.31	V2695-02
 	transect	molt	800.88	2681	 	36.69614	-122.0521	2498235	0.31	2005-07-07 18:59:04.0	Ventana	34.475	02:28:46:27	4.497	V2681-03HD
 	descend	Appendicularia	538.19	2681	 	36.695675	-122.05106	1715604	0.39	2005-07-07 18:05:52.733	Ventana	34.356	01:36:14:24	5.823	V2681-02
 	transect	Euplexaura	 	2687	 	 	 	1810475	 	2005-07-13 19:19:27.0	Ventana	 	02:45:11:10	 	V2687-03
 	transect	Stomphia	800.37	2674	 	36.751747	-122.211494	1801115	0.35	2005-06-08 18:25:58.0	Ventana	34.483	01:10:02:29	4.358	V2674-02
 	transect	Chionoecetes tanneri	802.35	2674	http://search.mbari.org/ARCHIVE/frameGrabs/Ventana/images/2674/00_44_05_08.jpg	36.752323	-122.20587	1799860	0.36	2005-06-08 17:59:33.0	Ventana	34.488	00:44:05:08	4.336	V2674-01
 	transect	Pennatulacea sp.1	602.03	2680	 	36.791492	-122.232956	1806853	0.36	2005-06-27 20:28:25.0	Ventana	34.377	03:07:00:24	5.588	V2680-03
 	descend	Appendicularia	995.74	2681	 	36.69464	-122.05039	1716545	0.46	2005-07-07 19:20:03.56	Ventana	34.529	02:49:45:11	3.887	V2681-03
 	transect	Halipteris californica	598.44	2680	 	36.78208	-122.22716	1805097	0.36	2005-06-27 18:44:35.0	Ventana	34.377	01:23:40:03	5.593	V2680-02
 	transect	Hormiphora	200.47	2681	 	36.69828	-122.05329	2490208	1.7	2005-07-07 17:05:48.0	Ventana	34.198	00:36:56:25	8.361	V2681-01HD
 	transect	phialidium	500.6	2681	 	36.69597	-122.05145	2493641	0.43	2005-07-07 18:03:33.0	Ventana	34.348	01:33:56:02	6.009	V2681-02HD
 	stationary	Merluccius productus	502.29	2694	 	36.784637	-122.20046	1676638	0.85	2005-07-27 20:08:19.0	Ventana	34.271	02:40:27:18	6.688	V2694-03
 	transect	Caridea sp.1	599.94	2680	 	36.778378	-122.22357	1804391	0.36	2005-06-27 17:57:46.0	Ventana	34.381	00:37:52:20	5.595	V2680-01
 	cruise	Pennatulacea	999.34	2679	 	36.68986	-122.1656	1824353	0.42	2005-06-16 17:31:35.0	Ventana	34.513	00:02:58:06	4.114	V2679-01
 	ascend	sinker	699.25	2681	 	36.698734	-122.05485	1717597	0.27	2005-07-07 20:20:54.633	Ventana	34.42	03:49:55:12	5.095	V2681-04
 	transect	Rathbunaster californicus	198.94	2696	 	36.803757	-122.124886	1813299	1.53	2005-08-01 17:31:48.0	Ventana	34.202	01:00:05:17	8.627	V2696-01
 	transect	Phyllospadix	799.42	2674	 	36.752674	-122.20093	1774158	0.33	2005-06-08 17:33:10.0	Ventana	34.481	00:17:43:17	4.45	V2674-01
 	transect	Mesomyaria	1000.23	2669	 	36.73092	-122.23268	1683804	0.45	2005-05-25 18:35:01.0	Ventana	34.52	00:57:26:27	3.911	V2669-01
 	transect	Chaetognatha	300.42	2681	 	36.696667	-122.05225	2492497	1.23	2005-07-07 17:26:02.0	Ventana	34.234	00:57:09:28	7.397	V2681-01HD
 	transect	Eptatretus stoutii	800.31	2674	 	36.75258	-122.20234	1799186	0.34	2005-06-08 17:40:24.0	Ventana	34.476	00:24:57:06	4.408	V2674-01
 	transect	Ophiuroidea	999.92	2669	 	36.7319	-122.245895	1735598	0.41	2005-05-25 20:02:39.0	Ventana	34.51	02:24:10:18	4.059	V2669-03
 	descend	Lensia	316.18	2681	 	36.695637	-122.05127	1713661	1.17	2005-07-07 17:30:25.667	Ventana	34.237	01:01:33:00	7.29	V2681-01
 	transect	Neptunea amianta	597.77	2680	 	36.781162	-122.22611	1804894	0.36	2005-06-27 18:32:38.0	Ventana	34.375	01:11:43:21	5.597	V2680-02
 	transect	beroe	400.74	2681	 	36.697083	-122.052704	2493092	0.79	2005-07-07 17:46:38.0	Ventana	34.278	01:17:02:08	6.661	V2681-02HD
 	transect	Aegina	600.57	2681	 	36.696926	-122.05266	2493798	0.3	2005-07-07 18:24:20.0	Ventana	34.388	01:54:40:22	5.476	V2681-02HD
 	descend	Dosidicus gigas	765.91	2682	 	36.6984	-122.05974	1721658	0.28	2005-07-08 18:31:53.0	Ventana	34.455	02:24:57:24	4.717	V2682-03
 	ascend	Atolla wyvillei	602.97	2682	 	36.698647	-122.061485	1723508	0.34	2005-07-08 20:56:11.0	Ventana	34.375	04:48:18:02	5.638	V2682-05
 	ascend	Euphausiacea	 	2683	 	 	 	1758132	 	2005-07-11 14:30:32.0	Ventana	 	05:03:22:29	 	V2683-05
 	cruise	Pleuronectiformes	497.09	2688	 	36.801308	-122.01858	1677547	0.76	2005-07-14 17:23:40.0	Ventana	34.294	01:09:24:29	6.609	V2688-02
 	ascend	Solmaris	550.19	2681	 	36.698944	-122.05426	1717722	0.38	2005-07-07 20:32:15.133	Ventana	34.361	04:01:15:21	5.877	V2681-04
 	ascend	Nanomia	258.17	2681	 	36.697838	-122.05522	1719572	 	2005-07-07 21:29:59.0	Ventana	 	05:14:59:11	 	V2681-05
 	transect	Brisaster	600.85	2680	 	36.77696	-122.22218	1804188	0.36	2005-06-27 17:40:17.0	Ventana	34.38	00:20:25:10	5.577	V2680-01
 	transect	Euphausia	200.42	2681	 	36.6983	-122.05336	2491117	1.69	2005-07-07 17:12:02.0	Ventana	34.198	00:43:09:01	8.337	V2681-01HD
 	transect	Phyllospadix	800.47	2674	 	36.752098	-122.20851	1800769	0.35	2005-06-08 18:12:01.0	Ventana	34.491	00:56:33:02	4.326	V2674-01
 	transect	Ceriantharia sp. 1	602.48	2680	 	36.78809	-122.23214	1805944	0.35	2005-06-27 19:56:23.0	Ventana	34.378	02:35:01:15	5.594	V2680-03
 	transect	Porifera sp. 1	399.91	2687	 	36.78813	-122.12181	1809331	1.13	2005-07-13 17:39:38.0	Ventana	34.238	01:06:00:07	7.275	V2687-02
 	descend	Appendicularia	502.61	2683	 	36.70146	-122.04913	1756831	0.68	2005-07-11 17:37:02.0	Ventana	34.306	01:21:10:07	6.463	V2683-02
 	transect	Mesomyaria	1000.06	2669	 	36.731667	-122.243484	1733842	0.41	2005-05-25 19:47:21.0	Ventana	34.511	02:08:52:11	4.069	V2669-03
 	ascend	Appendicularia	336.24	2693	 	36.6928	-122.06159	1758979	1.26	2005-07-25 21:13:09.0	Ventana	34.238	03:37:41:04	7.461	V2693-04
 	transect	Mediaster	 	2687	 	 	 	1811652	 	2005-07-13 20:19:01.0	Ventana	 	03:44:00:16	 	V2687-04
 	transect	sinker	1001.05	2681	 	36.69517	-122.0511	2498581	0.48	2005-07-07 19:23:25.0	Ventana	34.533	02:53:06:22	3.836	V2681-03HD
 	ascend	Chaetognatha	370.93	2693	 	36.696426	-122.0607	1758681	1.2	2005-07-25 20:27:51.0	Ventana	34.232	03:07:24:11	7.164	V2693-03
 	transect	Ophiuroidea	1000.26	2669	 	36.73128	-122.240944	1689339	0.41	2005-05-25 19:33:37.0	Ventana	34.51	01:55:34:17	4.056	V2669-02
 	descend	Appendicularia	653.53	2681	 	36.697945	-122.05386	1715950	0.29	2005-07-07 18:30:26.6	Ventana	34.405	02:00:47:05	5.222	V2681-02
 	transect	Gastropoda sp.2	999.15	2669	 	36.730824	-122.229576	1695047	0.45	2005-05-25 18:11:23.0	Ventana	34.522	00:33:49:24	3.906	V2669-01
 	ascend	Leuroglossus stilbius	640.74	2683	 	36.705097	-122.05009	1757929	0.28	2005-07-11 21:09:48.0	Ventana	34.406	04:42:41:06	5.272	V2683-05
 	descend	Chaetognatha	973.59	2682	 	36.698322	-122.05924	1722004	0.43	2005-07-08 18:57:09.0	Ventana	34.52	02:50:10:23	4.009	V2682-03
 	transect	Ceriantharia sp. 2	1000.44	2669	 	36.732025	-122.24744	1735898	0.4	2005-05-25 20:15:19.0	Ventana	34.509	02:36:49:08	4.076	V2669-03
 	descend	Calycophorae	468.08	2681	 	36.6981	-122.05389	1715341	0.51	2005-07-07 17:52:45.423	Ventana	34.326	01:23:08:09	6.135	V2681-02
 	transect	Rathbunaster californicus	204.16	2696	 	36.805405	-122.128456	1813705	1.49	2005-08-01 18:17:22.0	Ventana	34.212	01:45:13:11	8.635	V2696-02
 	transect	Aegina	700.65	2681	 	36.69733	-122.05321	2497649	0.29	2005-07-07 18:38:22.0	Ventana	34.433	02:08:04:21	4.96	V2681-03HD
 	ascend	Appendicularia	432.13	2681	 	36.69908	-122.05421	1717782	0.68	2005-07-07 20:37:50.767	Ventana	34.293	04:06:50:15	6.536	V2681-04
 	descend	Euphausiacea	365.48	2682	 	36.698544	-122.06023	1720361	0.98	2005-07-08 17:28:54.0	Ventana	34.259	01:22:25:08	7.054	V2682-02
 	transect	Mediaster	 	2687	 	 	 	1806996	 	2005-07-13 16:53:48.0	Ventana	 	00:20:43:08	 	V2687-01
 	transect	Mediaster	 	2687	 	 	 	1810512	 	2005-07-13 19:21:16.0	Ventana	 	02:46:59:27	 	V2687-03
 	transect	Nanomia bijuga	200.42	2681	 	36.69828	-122.0533	2490817	1.72	2005-07-07 17:09:03.0	Ventana	34.193	00:40:10:24	8.323	V2681-01HD
 	descend	Appendicularia	813.7	2683	 	36.70276	-122.04865	1757177	0.36	2005-07-11 18:07:44.0	Ventana	34.472	01:51:49:19	4.527	V2683-02
 	transect	Phyllospadix	999.93	2669	 	36.732616	-122.25071	1737019	0.4	2005-05-25 20:37:40.0	Ventana	34.507	02:59:07:22	4.073	V2669-03
 	cruise	lasers	197.42	2696	 	36.802654	-122.12169	1812907	1.54	2005-08-01 16:45:39.0	Ventana	34.206	00:13:58:24	8.573	V2696-01
 	transect	Stomphia	598.25	2680	 	36.78146	-122.22656	1805000	0.36	2005-06-27 18:36:57.0	Ventana	34.376	01:16:03:11	5.598	V2680-02
 	transect	Psolus squamatus	 	2687	 	 	 	1808685	 	2005-07-13 17:27:07.0	Ventana	 	00:53:59:10	 	V2687-01
 	transect	Phyllospadix	 	2687	 	 	 	1811832	 	2005-07-13 20:26:43.0	Ventana	 	03:51:41:10	 	V2687-04
 	transect	Ceriantharia sp. 2	999.71	2669	 	36.730705	-122.22948	1683361	0.45	2005-05-25 18:10:09.0	Ventana	34.521	00:32:36:23	3.908	V2669-01
 	ascend	Appendicularia	541.87	2683	 	36.704502	-122.05066	1757975	0.4	2005-07-11 21:14:34.0	Ventana	34.353	04:47:25:20	5.973	V2683-05
 	transect	Lycenchelys camchatica	802.12	2674	 	36.752247	-122.206795	1799980	0.37	2005-06-08 18:03:48.0	Ventana	34.49	00:48:20:00	4.323	V2674-01
 	descend	Chuniphyes	826.42	2681	 	36.69698	-122.05321	1716462	0.32	2005-07-07 19:03:45.1	Ventana	34.482	02:33:27:28	4.419	V2681-03
 	transect	Mesomyaria	1000.16	2669	 	36.731125	-122.23857	1688873	0.43	2005-05-25 19:18:38.0	Ventana	34.516	01:40:36:18	3.961	V2669-02
 	transect	Phyllospadix	800.72	2674	 	36.75256	-122.20169	1799089	0.34	2005-06-08 17:36:57.0	Ventana	34.479	00:21:30:28	4.445	V2674-01
 	transect	Mesomyaria	999.17	2669	 	36.730522	-122.22857	1650906	0.45	2005-05-25 18:04:13.0	Ventana	34.522	00:26:41:11	3.908	V2669-01
 	cruise	Parastichopus	107.38	2676	 	36.809002	-122.03527	1677021	1.92	2005-06-14 18:38:40.0	Ventana	34.15	02:17:27:18	8.462	V2676-03
 	transect	chuniphyes	700.58	2681	 	36.695133	-122.05086	2497972	0.28	2005-07-07 18:47:57.0	Ventana	34.432	02:17:39:09	4.996	V2681-03HD
 	transect	Mesomyaria	801.55	2674	 	36.751766	-122.210884	1801055	0.35	2005-06-08 18:23:38.0	Ventana	34.49	01:07:43:09	4.328	V2674-02
 	transect	Mediaster	 	2687	 	 	 	1812584	 	2005-07-13 20:46:06.0	Ventana	 	04:10:37:12	 	V2687-05
 	ascend	Nanomia	191.8	2693	 	36.690605	-122.062874	1759219	1.84	2005-07-25 21:29:01.0	Ventana	34.168	03:53:32:07	8.849	V2693-04
 	transect	Calliostoma platinum	 	2687	 	 	 	1810189	 	2005-07-13 19:06:50.0	Ventana	 	02:32:34:25	 	V2687-03
 	ascend	Appendicularia	353.68	2693	 	36.69391	-122.06105	1758896	1.24	2005-07-25 21:03:52.0	Ventana	34.235	03:28:24:20	7.375	V2693-04
 	transect	Rathbunaster californicus	198.46	2696	 	36.80368	-122.12463	1813276	1.53	2005-08-01 17:29:39.0	Ventana	34.204	00:57:56:27	8.628	V2696-01
 	ascend	Lensia	336.62	2681	 	36.6994	-122.05527	1718105	1.14	2005-07-07 20:54:00.017	Ventana	34.245	04:22:20:10	7.285	V2681-05
 	transect	Stomphia	998.31	2669	 	36.732975	-122.25248	1737448	0.4	2005-05-25 20:48:02.0	Ventana	34.508	03:08:51:27	4.076	V2669-04
 	transect	Mesomyaria	1000.11	2669	 	36.731136	-122.24034	1689242	0.41	2005-05-25 19:29:29.0	Ventana	34.51	01:51:26:22	4.06	V2669-02
 	cruise	mud	91.49	2688	http://search.mbari.org/ARCHIVE/frameGrabs/Ventana/images/2688/04_09_22_04.jpg	36.81604	-122.01778	20005274	1.96	2005-07-14 20:24:38.0	Ventana	34.087	04:09:22:04	8.929	V2688-04
 	cruise	trash	611.98	2688	http://search.mbari.org/ARCHIVE/frameGrabs/Ventana/images/2688/00_22_04_07.jpg	36.795597	-122.01937	1677344	0.45	2005-07-14 16:35:46.0	Ventana	34.388	00:22:04:07	5.473	V2688-01
 	ascend	Nanomia	437.76	2682	 	36.69798	-122.06269	1723723	0.75	2005-07-08 21:19:56.0	Ventana	34.282	05:11:37:22	6.59	V2682-06
 	cruise	Lycodapus	1221.2	2683	 	36.70625	-122.04756	1757606	0.72	2005-07-11 20:06:47.0	Ventana	34.573	03:41:10:16	3.352	V2683-04
 	descend	Cyclothone	325.56	2683	 	36.70119	-122.05008	1756531	1.21	2005-07-11 16:55:08.0	Ventana	34.24	00:42:47:28	7.487	V2683-01
 	transect	molt	100.5	2681	 	36.69983	-122.05429	2489636	2.13	2005-07-07 16:46:50.0	Ventana	34.068	00:18:00:15	9.144	V2681-01HD
 	transect	Mediaster	 	2687	 	 	 	1812261	 	2005-07-13 20:30:08.0	Ventana	 	03:55:06:03	 	V2687-04
 	cruise	mud	420.6	2676	 	36.80368	-122.02921	1676423	0.68	2005-06-14 16:42:39.0	Ventana	34.307	00:26:47:04	6.498	V2676-01
 	ascend	Appendicularia	513.91	2682	 	36.6983	-122.06305	1723663	0.47	2005-07-08 21:12:01.0	Ventana	34.339	05:03:42:06	6.109	V2682-06
 	transect	Lycodes diapterus	 	2687	 	 	 	1812524	 	2005-07-13 20:43:43.0	Ventana	 	04:08:14:11	 	V2687-05
 	descend	Nanomia	361.04	2693	 	36.696198	-122.06087	1758621	1.22	2005-07-25 20:20:02.0	Ventana	34.235	02:59:35:25	7.315	V2693-03
 	transect	Mesomyaria	1000.42	2669	 	36.731182	-122.240746	1689302	0.41	2005-05-25 19:32:09.0	Ventana	34.511	01:54:06:10	4.056	V2669-02
 	cruise	Poralia rufescens	1233.61	2683	 	36.70578	-122.04789	1757546	0.73	2005-07-11 19:52:11.0	Ventana	34.578	03:26:35:02	3.319	V2683-04
 	transect	Mediaster	 	2687	 	 	 	1810881	 	2005-07-13 19:39:22.0	Ventana	 	03:05:05:03	 	V2687-03
 	descend	Appendicularia	916.03	2683	 	36.70353	-122.048485	1757283	0.38	2005-07-11 18:53:46.0	Ventana	34.506	02:34:08:21	4.2	V2683-03
 	transect	Umbellula lindahli	599.39	2680	 	36.777752	-122.22276	1804308	0.36	2005-06-27 17:49:56.0	Ventana	34.378	00:30:03:08	5.585	V2680-01
 	transect	Porifera sp. 1	 	2687	http://search.mbari.org/ARCHIVE/frameGrabs/Ventana/images/2687/03_08_25_05.jpg	 	 	1810941	 	2005-07-13 19:43:23.0	Ventana	 	03:08:25:05	 	V2687-04
 	ascend	Poeobius meseres	585.47	2682	 	36.698822	-122.06032	1723448	0.4	2005-07-08 20:42:35.0	Ventana	34.371	04:34:42:04	5.672	V2682-05
 	descend	Solmissus	497.78	2683	 	36.701477	-122.049385	1756794	0.7	2005-07-11 17:25:19.0	Ventana	34.3	01:09:27:09	6.502	V2683-02
 	transect	Mesomyaria	800.94	2674	 	36.75252	-122.20148	1774204	0.34	2005-06-08 17:35:55.0	Ventana	34.477	00:20:29:01	4.423	V2674-01
 	transect	Mesomyaria	999.42	2669	 	36.731335	-122.23594	1684496	0.44	2005-05-25 18:57:09.0	Ventana	34.521	01:19:08:20	3.934	V2669-02
 	transect	Ophiuroidea	999.63	2669	 	36.73143	-122.23659	1684805	0.44	2005-05-25 19:02:47.0	Ventana	34.52	01:24:46:18	3.937	V2669-02
 	transect	molt	100.51	2681	 	36.699825	-122.05429	2489696	2.13	2005-07-07 16:48:07.0	Ventana	34.067	00:19:16:28	9.15	V2681-01HD
 	transect	Neptunea amianta	1000.77	2669	 	36.732292	-122.24904	1736267	0.41	2005-05-25 20:26:18.0	Ventana	34.509	02:47:46:25	4.065	V2669-03
 	transect	Mediaster	 	2687	 	 	 	1811772	 	2005-07-13 20:24:59.0	Ventana	 	03:49:57:11	 	V2687-04
 	transect	Chionoecetes tanneri	800.08	2674	 	36.752495	-122.20357	1799352	0.35	2005-06-08 17:46:48.0	Ventana	34.5	00:31:21:06	4.363	V2674-01
 	transect	Ophiuroidea	999.26	2669	 	36.73104	-122.231834	1683684	0.45	2005-05-25 18:29:09.0	Ventana	34.521	00:51:35:04	3.915	V2669-01
 	transect	Allocentrotus fragilis	 	2687	 	 	 	1810572	 	2005-07-13 19:22:37.0	Ventana	 	02:48:21:07	 	V2687-03
 	transect	Psolus squamatus	 	2687	 	 	 	1808745	 	2005-07-13 17:28:24.0	Ventana	 	00:55:16:27	 	V2687-01
 	transect	Appendicularia	400.72	2681	 	36.697807	-122.053505	2493212	0.79	2005-07-07 17:49:37.0	Ventana	34.278	01:20:00:08	6.66	V2681-02HD
 	transect	Psolus squamatus	 	2687	 	 	 	1809008	 	2005-07-13 17:33:27.0	Ventana	 	01:00:19:24	 	V2687-01
 	transect	Parastichopus leukothele	199.61	2696	 	36.803913	-122.12539	1813336	1.51	2005-08-01 17:36:34.0	Ventana	34.211	01:04:28:15	8.645	V2696-02
 	transect	Mesomyaria	800.98	2674	 	36.752117	-122.20826	1800732	0.35	2005-06-08 18:10:54.0	Ventana	34.49	00:55:25:17	4.322	V2674-01
 	transect	Phyllospadix	598.35	2680	 	36.781788	-122.22688	1805060	0.36	2005-06-27 18:41:15.0	Ventana	34.377	01:20:20:12	5.597	V2680-02
 	ascend	Nanomia	109.71	2693	 	36.69086	-122.06287	1759279	2.23	2005-07-25 21:35:05.0	Ventana	34.021	03:59:37:09	9.191	V2693-04
 	transect	Phyllospadix	801.0	2674	 	36.751087	-122.2174	1803496	0.35	2005-06-08 18:55:25.0	Ventana	34.489	01:39:28:06	4.347	V2674-02
 	descend	Calycophorae	238.4	2682	 	36.699883	-122.06074	1719978	1.43	2005-07-08 16:22:14.0	Ventana	34.221	00:16:19:11	7.984	V2682-01
 	transect	Sebastolobus altivelis	800.13	2674	 	36.75125	-122.21608	1803390	0.35	2005-06-08 18:49:39.0	Ventana	34.489	01:33:42:01	4.34	V2674-02
 	transect	Porifera	 	2687	 	 	 	1810129	 	2005-07-13 18:58:48.0	Ventana	 	02:24:33:08	 	V2687-03
 	ascend	Chaetognatha	368.53	2693	 	36.694946	-122.06095	1758836	1.24	2005-07-25 20:58:54.0	Ventana	34.235	03:23:28:15	7.336	V2693-04
 	transect	Phyllospadix	998.45	2669	 	36.731018	-122.230286	1651275	0.45	2005-05-25 18:16:44.0	Ventana	34.522	00:39:11:05	3.912	V2669-01
 	descend	Cyclothone	657.09	2682	 	36.698647	-122.05994	1721358	0.28	2005-07-08 18:10:41.0	Ventana	34.409	02:03:45:12	5.225	V2682-03
 	descend	sinker	233.9	2683	 	36.700974	-122.05067	1756425	1.71	2005-07-11 16:49:30.0	Ventana	34.188	00:37:10:03	8.12	V2683-01
 	transect	Mediaster	 	2687	 	 	 	1807305	 	2005-07-13 17:05:23.0	Ventana	 	00:32:16:21	 	V2687-01
 	descend	Chaetognatha	858.71	2682	 	36.698326	-122.05944	1721741	0.33	2005-07-08 18:48:26.0	Ventana	34.483	02:41:29:02	4.39	V2682-03
 	transect	Phyllospadix	1000.56	2669	 	36.73215	-122.24829	1736207	0.41	2005-05-25 20:21:02.0	Ventana	34.51	02:42:32:00	4.062	V2669-03
 	descend	Chaetognatha	192.03	2683	 	36.701073	-122.05111	1756365	1.69	2005-07-11 16:45:09.0	Ventana	34.195	00:32:49:29	8.455	V2683-01
 	cruise	Ophiodon elongatus	90.52	2688	 	36.81702	-122.015465	1679337	2.0	2005-07-14 20:06:27.0	Ventana	34.086	03:51:12:13	8.909	V2688-04
 	transect	molt	100.5	2681	 	36.699787	-122.05427	2489756	2.12	2005-07-07 16:49:45.0	Ventana	34.067	00:20:54:08	9.159	V2681-01HD
 	cruise	Merluccius productus	107.86	2688	 	36.81305	-122.024	1678036	1.95	2005-07-14 18:53:28.0	Ventana	34.097	02:38:42:14	8.899	V2688-03
 	descend	Nanomia	173.92	2693	 	36.696114	-122.058044	1758238	1.95	2005-07-25 18:04:02.0	Ventana	34.142	00:44:31:13	8.899	V2693-01
 	transect	Mesomyaria	999.95	2669	 	36.731953	-122.24621	1735635	0.41	2005-05-25 20:05:42.0	Ventana	34.51	02:27:12:25	4.065	V2669-03
 	cruise	Chionoecetes tanneri	1208.37	2683	 	36.706974	-122.04762	1757666	0.72	2005-07-11 20:14:42.0	Ventana	34.573	03:49:03:21	3.353	V2683-04
 	transect	Aegina	900.99	2681	 	36.695377	-122.05113	2498461	0.39	2005-07-07 19:14:13.0	Ventana	34.505	02:43:53:23	4.171	V2681-03HD
 	transect	Lycenchelys camchatica	800.67	2674	 	36.75256	-122.202065	1799149	0.35	2005-06-08 17:39:02.0	Ventana	34.497	00:23:35:15	4.392	V2674-01
 	transect	Mediaster	 	2687	 	 	 	1811569	 	2005-07-13 20:16:04.0	Ventana	 	03:41:02:26	 	V2687-04
 	transect	Euphausia	200.43	2681	 	36.69828	-122.05329	2490328	1.7	2005-07-07 17:06:56.0	Ventana	34.198	00:38:05:11	8.347	V2681-01HD
 	transect	Rathbunaster californicus	197.59	2696	 	36.80345	-122.12389	1813216	1.55	2005-08-01 17:21:04.0	Ventana	34.199	00:49:21:19	8.623	V2696-01
 	descend	Appendicularia	1130.74	2683	 	36.705116	-122.048904	1757486	0.62	2005-07-11 19:32:01.0	Ventana	34.55	03:12:22:03	3.612	V2683-03
 	transect	Sergestes similis	400.81	2681	 	36.69603	-122.05147	2492949	0.79	2005-07-07 17:42:05.0	Ventana	34.277	01:12:28:17	6.661	V2681-02HD
 	transect	Phyllospadix	603.2	2680	 	36.789005	-122.23248	1805981	0.36	2005-06-27 20:05:54.0	Ventana	34.38	02:44:31:06	5.588	V2680-03
 	transect	Rathbunaster californicus	199.44	2696	 	36.804214	-122.125984	1813396	1.53	2005-08-01 17:42:43.0	Ventana	34.205	01:10:36:15	8.659	V2696-02
 	descend	Melanostigma pammelas	1182.77	2682	 	36.69831	-122.058075	1722313	0.66	2005-07-08 19:39:22.0	Ventana	34.57	03:31:57:19	3.416	V2682-04
 	transect	Nanomia bijuga	200.39	2681	 	36.698296	-122.053345	2491080	1.7	2005-07-07 17:11:36.0	Ventana	34.196	00:42:44:01	8.332	V2681-01HD
 	descend	Crustacea	256.68	2693	 	36.698215	-122.06182	1758418	1.42	2005-07-25 19:28:19.0	Ventana	34.24	02:07:54:09	8.305	V2693-03
 	transect	Appendicularia	200.42	2681	 	36.69828	-122.0533	2490877	1.7	2005-07-07 17:09:25.0	Ventana	34.197	00:40:32:16	8.33	V2681-01HD
 	ascend	sinker	900.85	2681	 	36.698	-122.05478	1717154	0.37	2005-07-07 19:48:46.467	Ventana	34.503	03:17:49:18	4.202	V2681-04
 	ascend	Appendicularia	256.35	2681	 	36.69867	-122.056625	1719120	1.44	2005-07-07 21:23:11.067	Ventana	34.231	04:51:30:17	7.974	V2681-05
 	transect	Mesomyaria	1000.08	2669	 	36.73177	-122.24496	1734488	0.4	2005-05-25 19:56:03.0	Ventana	34.509	02:17:33:23	4.075	V2669-03
 	transect	Anoplopoma fimbria	 	2687	 	 	 	1812321	 	2005-07-13 20:32:07.0	Ventana	 	03:57:05:08	 	V2687-04
 	transect	Mesomyaria	798.53	2674	 	36.751743	-122.21261	1801221	0.35	2005-06-08 18:30:10.0	Ventana	34.487	01:14:14:06	4.334	V2674-02
 	ascend	Poeobius meseres	840.22	2682	 	36.698677	-122.05856	1723245	0.34	2005-07-08 20:20:56.0	Ventana	34.48	04:13:05:08	4.415	V2682-05
 	transect	Mesomyaria	802.92	2674	 	36.75224	-122.20632	1799920	0.36	2005-06-08 18:01:19.0	Ventana	34.488	00:45:51:22	4.339	V2674-01
 	transect	Poeobius meseres	600.6	2681	 	36.696087	-122.05167	2493701	0.3	2005-07-07 18:20:30.0	Ventana	34.388	01:50:51:25	5.49	V2681-02HD
 	ascend	Appendicularia	980.92	2681	 	36.69688	-122.053314	1716582	0.44	2005-07-07 19:35:23.587	Ventana	34.525	03:05:04:03	3.978	V2681-03
 	descend	Haliscera	371.87	2683	 	36.70141	-122.04982	1756591	1.08	2005-07-11 16:57:45.0	Ventana	34.245	00:45:24:24	7.027	V2683-01
 	ascend	Appendicularia	715.72	2683	 	36.70593	-122.04884	1757869	0.28	2005-07-11 21:05:17.0	Ventana	34.453	04:38:08:29	4.75	V2683-05
 	descend	Aegina	681.29	2682	 	36.69866	-122.05996	1721418	0.28	2005-07-08 18:12:46.0	Ventana	34.414	02:05:51:07	5.175	V2682-03
 	transect	Pseudosagitta maxima	1000.99	2681	 	36.696033	-122.052246	2498664	0.47	2005-07-07 19:28:01.0	Ventana	34.531	02:57:41:26	3.866	V2681-03HD
 	ascend	Aegina	633.95	2682	 	36.698868	-122.05973	1723388	0.32	2005-07-08 20:36:43.0	Ventana	34.389	04:28:52:11	5.432	V2682-05
 	descend	Appendicularia	466.55	2683	 	36.70165	-122.04936	1756734	0.77	2005-07-11 17:11:55.0	Ventana	34.287	00:59:33:11	6.652	V2683-01
 	ascend	Physonectae	426.59	2683	 	36.70416	-122.05058	1758035	0.88	2005-07-11 21:19:11.0	Ventana	34.265	04:52:03:25	6.843	V2683-05
 	transect	Nanomia bijuga	200.49	2681	 	36.69828	-122.05329	2490508	1.71	2005-07-07 17:07:12.0	Ventana	34.197	00:38:20:16	8.341	V2681-01HD
 	transect	Brisaster	999.45	2669	 	36.731	-122.23241	1683744	0.45	2005-05-25 18:32:50.0	Ventana	34.522	00:55:16:07	3.915	V2669-01
 	descend	Solmaris	530.29	2682	 	36.69861	-122.05978	1720869	0.38	2005-07-08 18:02:45.0	Ventana	34.363	01:56:13:13	5.817	V2682-02
 	transect	Stomphia	 	2687	 	 	 	1811712	 	2005-07-13 20:22:10.0	Ventana	 	03:47:09:06	 	V2687-04
 	transect	Nanomia bijuga	200.44	2681	 	36.69828	-122.05329	2490651	1.73	2005-07-07 17:08:01.0	Ventana	34.193	00:39:09:20	8.328	V2681-01HD
 	transect	Ophiuroidea	999.68	2669	 	36.731377	-122.23769	1687523	0.44	2005-05-25 19:12:05.0	Ventana	34.519	01:34:04:13	3.948	V2669-02
 	transect	Ceriantharia sp. 1	602.57	2680	 	36.78986	-122.2326	1806733	0.35	2005-06-27 20:14:28.0	Ventana	34.379	02:53:04:19	5.587	V2680-03
 	transect	Appendicularia	300.4	2681	 	36.696007	-122.051636	2492580	1.24	2005-07-07 17:28:29.0	Ventana	34.233	00:59:36:21	7.427	V2681-01HD
 	descend	Appendicularia	527.53	2683	 	36.70148	-122.04913	1756914	0.56	2005-07-11 17:42:16.0	Ventana	34.319	01:26:21:28	6.262	V2683-02
 	transect	Phyllospadix	801.53	2674	 	36.752205	-122.20779	1800100	0.35	2005-06-08 18:08:30.0	Ventana	34.489	00:53:01:19	4.326	V2674-01
 	transect	Nanomia bijuga	200.39	2681	 	36.698307	-122.05339	2491200	1.68	2005-07-07 17:12:42.0	Ventana	34.2	00:43:50:19	8.337	V2681-01HD
 	descend	physical object	208.13	2686	http://search.mbari.org/ARCHIVE/frameGrabs/Ventana/images/2686/01_08_30_25.jpg	36.79371	-121.88108	20005029	1.67	2005-07-12 22:01:21.0	Ventana	34.141	01:08:30:25	8.36	V2686-02
 	transect	Mesomyaria	798.94	2674	 	36.751343	-122.215355	1801424	0.35	2005-06-08 18:45:30.0	Ventana	34.489	01:29:34:01	4.339	V2674-02
 	cruise	Sebastes	441.62	2688	 	36.804	-122.01828	1677653	0.9	2005-07-14 17:39:50.0	Ventana	34.269	01:25:34:00	6.887	V2688-02
 	transect	Mesomyaria	800.38	2674	 	36.752037	-122.209	1800852	0.35	2005-06-08 18:14:37.0	Ventana	34.49	00:59:08:17	4.341	V2674-01
 	transect	Phyllospadix	800.9	2674	 	36.751007	-122.21821	1803556	0.35	2005-06-08 18:59:06.0	Ventana	34.495	01:43:08:11	4.338	V2674-02
 	transect	Psolus squamatus	 	2687	 	 	 	1807688	 	2005-07-13 17:22:52.0	Ventana	 	00:49:44:23	 	V2687-01
 	transect	Salpida	400.76	2681	 	36.697437	-122.05311	2493152	0.79	2005-07-07 17:48:07.0	Ventana	34.278	01:18:31:13	6.662	V2681-02HD
 	ascend	Copepoda	747.24	2681	 	36.698746	-122.05574	1717537	0.27	2005-07-07 20:14:28.833	Ventana	34.447	03:43:30:00	4.815	V2681-04
 	endtransect	object	198.26	2696	 	36.802658	-122.12169	1813013	1.52	2005-08-01 16:53:01.0	Ventana	34.206	00:21:20:21	8.556	V2696-01
 	transect	Psolus squamatus	399.88	2687	 	36.78804	-122.12151	1809068	1.14	2005-07-13 17:35:42.0	Ventana	34.237	01:02:04:28	7.276	V2687-02
 	transect	cyclothone	500.6	2681	 	36.697697	-122.05347	2493332	0.44	2005-07-07 17:55:59.0	Ventana	34.347	01:26:22:18	6.018	V2681-02HD
 	transect	Mesomyaria	800.37	2674	 	36.75248	-122.203156	1799292	0.35	2005-06-08 17:44:17.0	Ventana	34.481	00:28:50:06	4.373	V2674-01
 	transect	Mesomyaria	800.14	2674	 	36.75245	-122.20536	1799777	0.36	2005-06-08 17:56:38.0	Ventana	34.487	00:41:10:21	4.361	V2674-01
 	transect	Hormiphora	200.4	2681	 	36.698387	-122.053474	2491403	1.67	2005-07-07 17:14:03.0	Ventana	34.199	00:45:10:19	8.341	V2681-01HD
 	ascend	Solmissus	258.17	2681	 	36.697838	-122.05522	1719286	 	2005-07-07 21:29:59.0	Ventana	 	04:58:59:22	 	V2681-05
 	transect	Phyllospadix	203.56	2696	 	36.80647	-122.13004	1813765	1.48	2005-08-01 18:28:18.0	Ventana	34.213	01:56:08:21	8.628	V2696-02
 	cruise	Sebastolobus	622.86	2688	 	36.79395	-122.01953	1677284	0.41	2005-07-14 16:27:46.0	Ventana	34.411	00:14:06:16	5.206	V2688-01
 	stationary	Appendicularia	501.53	2695	 	36.78459	-122.20046	1824436	0.87	2005-07-28 17:24:16.0	Ventana	34.265	00:30:37:00	6.676	V2695-01
 	transect	Phyllospadix	998.65	2669	 	36.73118	-122.234344	1684113	0.45	2005-05-25 18:44:06.0	Ventana	34.521	01:06:07:03	3.916	V2669-02
 	transect	Mesomyaria	999.85	2669	 	36.731743	-122.244064	1734105	0.4	2005-05-25 19:50:39.0	Ventana	34.51	02:12:11:00	4.072	V2669-03
 	transect	Mediaster	 	2687	 	 	 	1807485	 	2005-07-13 17:10:24.0	Ventana	 	00:37:18:03	 	V2687-01
 	transect	Caridea sp.1	598.95	2680	 	36.780315	-122.2253	1804631	0.35	2005-06-27 18:21:12.0	Ventana	34.38	01:01:17:29	5.565	V2680-01
 	transect	Phyllospadix	999.95	2669	 	36.732574	-122.25027	1736959	0.41	2005-05-25 20:35:12.0	Ventana	34.509	02:56:40:11	4.067	V2669-03
 	descend	Appendicularia	742.62	2683	 	36.702335	-122.048935	1757117	0.3	2005-07-11 17:57:04.0	Ventana	34.445	01:41:09:27	4.808	V2683-02
 	descend	Praya	221.99	2681	 	36.6985	-122.053505	1713578	1.5	2005-07-07 17:15:11.95	Ventana	34.216	00:46:19:22	8.215	V2681-01
 	ascend	Appendicularia	312.69	2681	 	36.69966	-122.05527	1718165	1.25	2005-07-07 20:58:06.833	Ventana	34.236	04:26:27:12	7.475	V2681-05
 	ascend	Poeobius meseres	1157.88	2682	 	36.69825	-122.05749	1722493	0.63	2005-07-08 19:54:12.0	Ventana	34.56	03:46:46:17	3.487	V2682-04
 	ascend	Copepoda	879.13	2681	 	36.698284	-122.05524	1717334	0.36	2005-07-07 19:51:34.067	Ventana	34.507	03:20:36:20	4.266	V2681-04
 	descend	Appendicularia	376.75	2682	 	36.698444	-122.05997	1720666	0.94	2005-07-08 17:34:58.0	Ventana	34.261	01:28:30:03	6.981	V2682-02
 	transect	Mediaster	 	2687	 	 	 	1810715	 	2005-07-13 19:29:21.0	Ventana	 	02:55:04:21	 	V2687-03
 	transect	Sebastolobus	 	2687	http://search.mbari.org/ARCHIVE/frameGrabs/Ventana/images/2687/04_14_01_17.jpg	 	 	1812644	 	2005-07-13 20:49:31.0	Ventana	 	04:14:01:17	 	V2687-05
 	descend	Nanomia	 	2693	 	 	 	1759422	 	2005-07-25 16:44:16.0	Ventana	 	00:22:49:01	 	V2693-01
 	transect	Psolus squamatus	 	2687	 	 	 	1809986	 	2005-07-13 18:49:26.0	Ventana	 	02:15:12:00	 	V2687-03
 	transect	Allocentrotus fragilis	 	2687	 	 	 	1811264	 	2005-07-13 20:05:30.0	Ventana	 	03:30:29:27	 	V2687-04
 	cruise	Parastichopus	325.64	2688	 	36.80831	-122.020226	1677833	1.27	2005-07-14 18:10:30.033	Ventana	34.225	01:56:11:15	7.648	V2688-02
 	transect	molt	100.57	2681	 	36.69983	-122.05429	2489576	2.13	2005-07-07 16:45:18.0	Ventana	34.068	00:16:26:22	9.15	V2681-01HD
 	cruise	Pleuronectiformes	459.17	2676	 	36.802788	-122.02932	1676303	0.6	2005-06-14 16:35:42.0	Ventana	34.324	00:19:50:19	6.285	V2676-01
 	transect	Nanomia bijuga	200.37	2681	 	36.698322	-122.05344	2491343	1.66	2005-07-07 17:13:36.0	Ventana	34.2	00:44:44:26	8.34	V2681-01HD
 	ascend	Crustacea	603.95	2682	 	36.698627	-122.061615	1723520	0.34	2005-07-08 20:57:03.0	Ventana	34.375	04:49:09:25	5.634	V2682-05
 	transect	Phyllospadix	798.39	2674	 	36.75167	-122.21348	1801281	0.35	2005-06-08 18:34:55.0	Ventana	34.487	01:18:59:07	4.353	V2674-02
 	transect	molt	100.57	2681	 	36.69983	-122.05429	2489493	2.13	2005-07-07 16:43:01.0	Ventana	34.068	00:14:11:12	9.152	V2681-01HD
 	descend	Appendicularia	409.81	2683	 	36.70143	-122.04956	1756651	0.92	2005-07-11 17:05:23.0	Ventana	34.264	00:53:03:00	6.886	V2683-01
 	transect	myctophidae	600.6	2681	 	36.69664	-122.05229	2493761	0.3	2005-07-07 18:22:59.0	Ventana	34.387	01:53:20:20	5.477	V2681-02HD
 	transect	Porifera sp. 1	 	2687	 	 	 	1807568	 	2005-07-13 17:15:49.0	Ventana	 	00:42:42:25	 	V2687-01
 	descend	Solmissus	317.45	2693	 	36.697517	-122.06066	1758501	1.3	2005-07-25 19:41:23.0	Ventana	34.237	02:20:58:02	7.603	V2693-03
 	transect	Mediaster	 	2687	 	 	 	1812381	 	2005-07-13 20:35:46.0	Ventana	 	04:00:44:04	 	V2687-04
 	transect	Mesomyaria	1000.26	2669	 	36.731785	-122.24468	1734428	0.4	2005-05-25 19:54:33.0	Ventana	34.508	02:16:02:26	4.09	V2669-03
 	transect	Neptunea amianta	802.98	2674	 	36.75082	-122.22012	1803676	0.34	2005-06-08 19:07:12.0	Ventana	34.484	01:51:14:19	4.39	V2674-02
 	transect	Psolus squamatus	 	2687	 	 	 	1808865	 	2005-07-13 17:30:41.0	Ventana	 	00:57:33:18	 	V2687-01
 	transect	Mediaster	 	2687	 	 	 	1810738	 	2005-07-13 19:30:51.0	Ventana	 	02:56:34:28	 	V2687-03
 	transect	Euphausia	200.48	2681	 	36.69828	-122.05329	2490591	1.72	2005-07-07 17:07:43.0	Ventana	34.195	00:38:50:09	8.334	V2681-01HD
 	descend	Dosidicus gigas	603.24	2681	 	36.695667	-122.051056	1715913	0.3	2005-07-07 18:17:43.367	Ventana	34.385	01:48:04:07	5.486	V2681-02
 	descend	Appendicularia	324.91	2682	 	36.698895	-122.06068	1720158	1.12	2005-07-08 17:08:02.0	Ventana	34.242	01:01:34:21	7.249	V2682-02
 	transect	Psolus squamatus	 	2687	 	 	 	1808888	 	2005-07-13 17:31:20.0	Ventana	 	00:58:12:09	 	V2687-01
 	transect	Mesomyaria	998.86	2669	 	36.732838	-122.25149	1737222	0.41	2005-05-25 20:42:15.0	Ventana	34.509	03:03:04:09	4.072	V2669-04
 	transect	molt	200.45	2681	 	36.69828	-122.05329	2490245	1.7	2005-07-07 17:06:12.0	Ventana	34.199	00:37:20:21	8.36	V2681-01HD
 	transect	Phyllospadix	 	2669	 	 	 	1737568	 	2005-05-25 13:51:41.0	Ventana	 	03:12:29:02	 	V2669-04
 	descend	Dosidicus gigas	 	2693	 	 	 	1759445	 	2005-07-25 16:45:18.0	Ventana	 	00:23:52:06	 	V2693-01
 	transect	Pennatulacea sp.1	602.18	2680	 	36.79088	-122.23286	1806816	0.35	2005-06-27 20:23:30.0	Ventana	34.379	03:02:07:06	5.587	V2680-03
 	ascend	Cydippida	 	2683	 	 	 	1758155	 	2005-07-11 14:33:48.0	Ventana	 	05:06:38:25	 	V2683-05
 	transect	Allocentrotus fragilis	399.86	2687	 	36.78811	-122.12162	1809211	1.13	2005-07-13 17:37:18.0	Ventana	34.243	01:03:39:27	7.262	V2687-02
 	transect	Psolus squamatus	 	2687	 	 	 	1812727	 	2005-07-13 20:55:03.0	Ventana	 	04:19:33:14	 	V2687-05
 	transect	Gastropoda sp.2	999.1	2669	 	36.731113	-122.234795	1694664	0.45	2005-05-25 18:48:03.0	Ventana	34.521	01:10:03:09	3.916	V2669-02
 	transect	Lumpenus sagitta	196.5	2696	 	36.803165	-122.122894	1813133	1.56	2005-08-01 17:09:25.0	Ventana	34.196	00:37:43:20	8.626	V2696-01
 	transect	Chionoecetes tanneri	1000.16	2669	 	36.731865	-122.245285	1735372	0.41	2005-05-25 19:59:03.0	Ventana	34.515	02:20:33:23	4.074	V2669-03
 	transect	Appendicularia	400.78	2681	 	36.696457	-122.05196	2493009	0.79	2005-07-07 17:43:55.0	Ventana	34.277	01:14:19:23	6.641	V2681-02HD
 	descend	Leuroglossus stilbius	651.99	2683	 	36.702026	-122.04895	1757057	0.36	2005-07-11 17:52:01.0	Ventana	34.389	01:36:07:27	5.429	V2683-02
 	transect	Ophiuroidea	997.1	2669	 	36.731144	-122.23094	1683481	0.45	2005-05-25 18:22:03.0	Ventana	34.521	00:44:29:12	3.93	V2669-01
 	transect	Mesomyaria	1000.2	2669	 	36.73097	-122.233246	1683887	0.45	2005-05-25 18:38:05.0	Ventana	34.522	01:00:30:15	3.91	V2669-01
 	ascend	Chaetognatha	820.72	2681	 	36.698914	-122.05648	1717417	0.31	2005-07-07 19:58:57.0	Ventana	34.48	03:27:59:19	4.446	V2681-04
 	descend	Appendicularia	413.26	2682	 	36.69822	-122.059814	1720726	0.75	2005-07-08 17:39:16.0	Ventana	34.273	01:32:46:07	6.567	V2682-02
 	transect	Sebastolobus altivelis	800.57	2674	 	36.752518	-122.20302	1799269	0.35	2005-06-08 17:43:33.0	Ventana	34.489	00:28:06:07	4.386	V2674-01
 	ascend	Appendicularia	1167.42	2683	 	36.707737	-122.04882	1757749	0.7	2005-07-11 20:32:17.0	Ventana	34.57	04:06:38:27	3.4	V2683-04
 	transect	chuniphyes	500.56	2681	 	36.697456	-122.05317	2493415	0.44	2005-07-07 17:57:05.0	Ventana	34.346	01:27:28:27	6.018	V2681-02HD
 	transect	Ceriantharia sp. 2	999.91	2669	 	36.731083	-122.239044	1689099	0.43	2005-05-25 19:21:41.0	Ventana	34.516	01:43:39:00	3.967	V2669-02
 	ascend	Appendicularia	414.09	2681	 	36.699226	-122.05434	1717962	0.8	2005-07-07 20:46:15.3	Ventana	34.276	04:14:36:18	6.674	V2681-05
 	transect	Phyllospadix	599.95	2680	 	36.77872	-122.22393	1804428	0.36	2005-06-27 18:02:47.0	Ventana	34.379	00:42:53:06	5.588	V2680-01
 	ascend	Appendicularia	258.17	2681	 	36.697838	-122.05522	1719489	 	2005-07-07 21:29:59.0	Ventana	 	05:07:14:26	 	V2681-05
 	transect	Brisaster	800.63	2674	http://search.mbari.org/ARCHIVE/frameGrabs/Ventana/images/2674/01_02_19_06.jpg	36.75196	-122.20968	1800935	0.35	2005-06-08 18:18:14.0	Ventana	34.49	01:02:19:06	4.335	V2674-02
 	transect	Porifera	399.46	2687	 	36.7894	-122.12495	1809640	1.16	2005-07-13 18:27:44.0	Ventana	34.24	01:54:03:08	7.324	V2687-02
 	transect	Porifera sp. 1	399.69	2687	 	36.789185	-122.124306	1809557	1.18	2005-07-13 18:17:16.0	Ventana	34.239	01:43:36:05	7.362	V2687-02
 	transect	Mediaster	 	2687	 	 	 	1811407	 	2005-07-13 20:11:37.0	Ventana	 	03:36:36:22	 	V2687-04
 	transect	physical object	203.4	2696	http://search.mbari.org/ARCHIVE/frameGrabs/Ventana/images/2696/02_08_06_21.jpg	36.807377	-122.13104	1813825	1.47	2005-08-01 18:41:01.0	Ventana	34.219	02:08:06:21	8.625	V2696-03
 	transect	Ophiuroidea	999.88	2669	 	36.73063	-122.22934	1651072	0.45	2005-05-25 18:08:46.0	Ventana	34.522	00:31:13:24	3.907	V2669-01
 	transect	Psolus squamatus	 	2687	 	 	 	1807162	 	2005-07-13 17:02:16.0	Ventana	 	00:29:09:28	 	V2687-01
 	ascend	Appendicularia	1060.22	2683	 	36.707558	-122.049164	1757809	0.54	2005-07-11 20:46:33.0	Ventana	34.53	04:20:53:15	3.797	V2683-04
 	transect	Parastichopus leukothele	200.39	2696	 	36.804874	-122.127495	1813539	1.51	2005-08-01 17:57:54.0	Ventana	34.211	01:25:47:08	8.671	V2696-02
 	transect	Phyllospadix	 	2669	 	 	 	1737628	 	2005-05-25 13:53:50.0	Ventana	 	03:14:37:25	 	V2669-04
 	transect	Ceriantharia sp. 1	602.11	2680	 	36.79175	-122.23299	1806876	0.36	2005-06-27 20:30:26.0	Ventana	34.378	03:09:01:25	5.591	V2680-03
 	ascend	Appendicularia	984.3	2682	 	36.697716	-122.05832	1722922	0.45	2005-07-08 20:06:40.0	Ventana	34.52	03:59:15:03	3.97	V2682-04
 	transect	Brisaster	597.65	2680	 	36.781063	-122.22602	1804857	0.35	2005-06-27 18:31:09.0	Ventana	34.379	01:10:15:24	5.592	V2680-02
 	transect	molt	50.41	2681	 	36.69983	-122.05429	2485654	2.98	2005-07-07 16:36:57.0	Ventana	33.915	00:08:08:00	9.63	V2681-01HD
 	transect	Porifera sp. 1	 	2687	 	 	 	1810655	 	2005-07-13 19:27:16.0	Ventana	 	02:53:00:00	 	V2687-03
 	transect	Mesomyaria	997.44	2669	 	36.73055	-122.22734	1649143	0.45	2005-05-25 17:56:29.0	Ventana	34.52	00:18:56:28	3.909	V2669-01
 	descend	Cydippida 2	968.39	2683	 	36.704002	-122.04857	1757343	0.42	2005-07-11 19:12:37.0	Ventana	34.518	02:52:59:19	4.04	V2683-03
 	transect	Mesomyaria	1000.28	2669	 	36.73128	-122.24135	1689768	0.4	2005-05-25 19:35:53.0	Ventana	34.507	01:57:50:18	4.091	V2669-02
 	ascend	Appendicularia	376.35	2693	 	36.69616	-122.06057	1758753	1.19	2005-07-25 20:49:07.0	Ventana	34.234	03:13:41:18	7.156	V2693-04
 	ascend	Appendicularia	255.29	2693	 	36.691372	-122.06234	1759099	1.43	2005-07-25 21:21:45.0	Ventana	34.25	03:46:17:19	8.448	V2693-04
 	transect	Nanomia bijuga	200.45	2681	 	36.69828	-122.05329	2490185	1.7	2005-07-07 17:05:34.0	Ventana	34.197	00:36:41:24	8.358	V2681-01HD
 	transect	Gastropoda sp.2	1000.18	2669	 	36.731377	-122.2417	1689851	0.4	2005-05-25 19:38:01.0	Ventana	34.509	01:59:58:22	4.076	V2669-02
 	descend	Phialidium	463.88	2682	 	36.698498	-122.05957	1720786	0.54	2005-07-08 17:55:36.0	Ventana	34.324	01:49:05:15	6.226	V2682-02
 	descend	Sergestes similis	585.66	2683	 	36.701916	-122.0491	1756997	0.36	2005-07-11 17:48:08.0	Ventana	34.365	01:32:15:02	5.845	V2683-02
 	transect	Psolus squamatus	 	2687	 	 	 	1811144	 	2005-07-13 19:56:29.0	Ventana	 	03:21:29:11	 	V2687-04
 	transect	Gastropoda sp.2	997.51	2669	 	36.73061	-122.2278	1694927	0.45	2005-05-25 17:58:45.0	Ventana	34.521	00:21:13:05	3.907	V2669-01
 	descend	Haliscera	332.59	2693	 	36.69712	-122.06001	1758561	1.29	2005-07-25 19:57:30.0	Ventana	34.236	02:37:05:07	7.585	V2693-03
 	transect	molt	100.47	2681	 	36.698727	-122.05358	2489899	2.14	2005-07-07 16:52:42.0	Ventana	34.067	00:23:51:06	9.142	V2681-01HD
 	transect	Mysidae 2	800.87	2681	 	36.6966	-122.052635	2498258	0.31	2005-07-07 19:01:03.0	Ventana	34.475	02:30:45:04	4.504	V2681-03HD
 	descend	Poeobius meseres	1152.39	2682	 	36.698208	-122.05923	1722170	0.61	2005-07-08 19:13:20.0	Ventana	34.56	03:05:57:05	3.519	V2682-04
 	transect	Microstomus pacificus	805.9	2674	 	36.75039	-122.22179	1803759	0.34	2005-06-08 19:17:16.0	Ventana	34.486	02:01:17:17	4.405	V2674-02
 	ascend	water	60.05	2696	 	36.807682	-122.131645	1813885	2.34	2005-08-01 18:54:58.0	Ventana	33.922	02:22:01:05	9.853	V2696-03
 	cruise	Vertebrata	1015.98	2689	http://search.mbari.org/ARCHIVE/frameGrabs/Ventana/images/2689/00_24_42_05.jpg	36.771564	-122.08296	1669700	0.53	2005-07-18 17:01:43.0	Ventana	34.54	00:24:42:05	3.758	V2689-01
 	transect	Mesomyaria	999.28	2669	 	36.73108	-122.235	1684233	0.45	2005-05-25 18:50:05.0	Ventana	34.521	01:12:05:11	3.92	V2669-02
 	transect	Solmissus	1001.07	2681	 	36.69474	-122.05054	2498544	0.47	2005-07-07 19:21:15.0	Ventana	34.532	02:50:55:09	3.869	V2681-03HD
 	transect	Mesomyaria	999.64	2669	 	36.73139	-122.23719	1687463	0.44	2005-05-25 19:08:06.0	Ventana	34.52	01:30:04:29	3.942	V2669-02
 	descend	Myctophidae	453.02	2683	 	36.701607	-122.04937	1756711	0.8	2005-07-11 17:09:16.0	Ventana	34.28	00:56:55:03	6.696	V2683-01
 	transect	Mesomyaria	999.76	2669	 	36.73099	-122.23385	1683970	0.45	2005-05-25 18:40:44.0	Ventana	34.522	01:02:45:00	3.913	V2669-02
 	ascend	Appendicularia	278.91	2681	 	36.699722	-122.055	1718308	1.36	2005-07-07 21:03:19.767	Ventana	34.231	04:31:40:15	7.771	V2681-05
 	transect	Rathbunaster californicus	196.34	2696	 	36.803	-122.12252	1813073	1.55	2005-08-01 17:05:05.0	Ventana	34.199	00:33:23:17	8.608	V2696-01
 	transect	Mesomyaria	799.99	2674	 	36.75265	-122.200485	1774121	0.29	2005-06-08 17:30:59.0	Ventana	34.46	00:15:32:27	4.653	V2674-01
 	transect	Mesomyaria	800.89	2674	 	36.75247	-122.20458	1799615	0.35	2005-06-08 17:52:39.0	Ventana	34.488	00:37:12:06	4.346	V2674-01
 	transect	Diogenidae	598.58	2680	 	36.78056	-122.225555	1804774	0.35	2005-06-27 18:24:51.0	Ventana	34.383	01:03:57:15	5.553	V2680-02
 	ascend	sinker	772.91	2681	 	36.698692	-122.05632	1717477	0.29	2005-07-07 20:07:46.423	Ventana	34.453	03:36:48:00	4.758	V2681-04
 	transect	Nanomia bijuga	400.81	2681	 	36.695915	-122.05133	2492926	0.79	2005-07-07 17:41:31.0	Ventana	34.276	01:11:54:26	6.665	V2681-02HD
 	transect	Sebastolobus	 	2687	 	 	 	1807628	 	2005-07-13 17:18:44.0	Ventana	 	00:45:37:20	 	V2687-01
 	transect	Psolus squamatus	399.86	2687	 	36.78812	-122.12173	1809294	1.14	2005-07-13 17:38:36.0	Ventana	34.24	01:04:58:17	7.292	V2687-02
 	transect	beroe	200.4	2681	 	36.698284	-122.053314	2490997	1.71	2005-07-07 17:10:35.0	Ventana	34.187	00:41:43:02	8.319	V2681-01HD
 	cruise	Mediaster	90.23	2688	 	36.81643	-122.0161	1679360	2.01	2005-07-14 20:13:32.0	Ventana	34.087	03:58:17:04	8.921	V2688-04
 	ascend	sinker	256.54	2683	 	36.703068	-122.050674	1758095	1.51	2005-07-11 21:26:33.0	Ventana	34.211	04:59:25:14	7.987	V2683-05
 	cruise	Scyliorhinidae	382.72	2690	 	36.790146	-121.88782	1669963	0.94	2005-07-18 19:49:08.0	Ventana	34.27	01:04:15:11	6.946	V2690-01
 	transect	Mediaster	 	2687	 	 	 	1812787	 	2005-07-13 20:57:30.0	Ventana	 	04:21:59:25	 	V2687-05
 	transect	Ophiuroidea	999.65	2669	 	36.731434	-122.23632	1684722	0.44	2005-05-25 18:59:55.0	Ventana	34.52	01:21:54:26	3.94	V2669-02
 	ascend	Nanomia	258.17	2681	 	36.697838	-122.05522	1719346	 	2005-07-07 21:29:59.0	Ventana	 	05:01:44:19	 	V2681-05
 	transect	Mediaster	399.43	2687	 	36.789402	-122.12558	1809700	1.13	2005-07-13 18:37:40.0	Ventana	34.242	02:03:58:13	7.268	V2687-02
 	descend	Dosidicus gigas	382.57	2681	 	36.695557	-122.0512	1715078	0.93	2005-07-07 17:32:43.233	Ventana	34.261	01:03:07:11	6.893	V2681-02
 	cruise	Asteroidea	279.74	2688	http://search.mbari.org/ARCHIVE/frameGrabs/Ventana/images/2688/02_09_52_29.jpg	36.809006	-122.02035	20005191	1.44	2005-07-14 18:24:38.0	Ventana	34.207	02:09:52:29	8.023	V2688-03
 	transect	Mesomyaria	1000.0	2669	 	36.731033	-122.23953	1689159	0.41	2005-05-25 19:24:22.0	Ventana	34.511	01:46:20:11	4.061	V2669-02
 	transect	Phyllospadix	801.12	2674	 	36.75249	-122.19941	1773775	0.29	2005-06-08 17:23:17.0	Ventana	34.46	00:07:51:24	4.661	V2674-01
 	transect	bathocyroe	500.59	2681	 	36.697277	-122.05296	2493475	0.44	2005-07-07 17:57:58.0	Ventana	34.346	01:28:21:27	6.025	V2681-02HD
 	ascend	Apolemia	37.15	2682	 	36.695614	-122.06001	1723783	3.68	2005-07-08 21:38:41.0	Ventana	33.715	05:30:20:07	9.996	V2682-06
 	transect	Mesomyaria	802.82	2674	 	36.751793	-122.21019	1800995	0.36	2005-06-08 18:20:42.0	Ventana	34.491	01:04:47:11	4.317	V2674-02
 	transect	Ceriantharia sp. 1	599.39	2680	 	36.779423	-122.22451	1804511	0.36	2005-06-27 18:09:45.0	Ventana	34.378	00:49:50:28	5.602	V2680-01
 	stationary	Merluccius productus	501.93	2694	 	36.784554	-122.20048	1676566	0.77	2005-07-27 18:34:11.0	Ventana	34.28	01:16:52:27	6.537	V2694-02
 	ascend	Salpida	341.28	2693	 	36.693108	-122.06139	1758956	1.25	2005-07-25 21:11:24.0	Ventana	34.237	03:35:56:27	7.42	V2693-04
 	transect	Mesomyaria	1000.45	2669	 	36.731537	-122.24269	1694521	0.4	2005-05-25 19:42:51.0	Ventana	34.507	02:04:48:05	4.094	V2669-02
 	transect	Gastropoda sp.2	1000.1	2669	 	36.731136	-122.238594	1694724	0.43	2005-05-25 19:18:51.0	Ventana	34.516	01:40:49:15	3.961	V2669-02
 	ascend	Nanomia	207.42	2693	 	36.691055	-122.06261	1759159	1.78	2005-07-25 21:24:58.0	Ventana	34.2	03:49:29:18	8.745	V2693-04
 	transect	Ophiuroidea	998.48	2669	 	36.731125	-122.230736	1683421	0.45	2005-05-25 18:20:25.0	Ventana	34.523	00:42:52:11	3.914	V2669-01
 	ascend	Copepoda	365.07	2681	 	36.699368	-122.054924	1718045	1.0	2005-07-07 20:51:16.633	Ventana	34.263	04:19:37:19	7.11	V2681-05
 	descend	Chaetognatha	286.14	2682	 	36.6994	-122.0607	1720098	1.21	2005-07-08 16:49:14.0	Ventana	34.249	00:43:17:14	7.447	V2682-01
 	transect	Gastropoda sp.2	998.46	2669	 	36.731136	-122.2308	1695070	0.45	2005-05-25 18:20:59.0	Ventana	34.518	00:43:25:13	3.917	V2669-01
 	transect	Ceriantharia sp. 1	800.61	2674	 	36.75121	-122.21634	1803413	0.35	2005-06-08 18:50:40.0	Ventana	34.49	01:34:42:26	4.336	V2674-02
 	transect	Sebastes diploproa	 	2687	 	 	 	1810249	 	2005-07-13 19:12:22.0	Ventana	 	02:38:06:22	 	V2687-03
 	transect	Eptatretus stoutii	1000.37	2669	 	36.73123	-122.241	1689362	0.41	2005-05-25 19:33:59.0	Ventana	34.511	01:55:56:24	4.054	V2669-02
 	descend	Vitreosalpa gemini	584.64	2681	 	36.695694	-122.05106	1715627	0.33	2005-07-07 18:07:19.433	Ventana	34.38	01:37:40:13	5.584	V2681-02
 	transect	Mediaster	 	2687	 	 	 	1810452	 	2005-07-13 19:18:24.0	Ventana	 	02:44:08:05	 	V2687-03
 	transect	Neptunea amianta	798.71	2674	 	36.75156	-122.214165	1801341	0.35	2005-06-08 18:39:25.0	Ventana	34.488	01:23:29:01	4.338	V2674-02
 	transect	Poeobius meseres	600.55	2681	 	36.697266	-122.05305	2493821	0.3	2005-07-07 18:25:50.0	Ventana	34.388	01:56:11:12	5.469	V2681-02HD
 	transect	Psolus squamatus	 	2687	 	 	 	1809903	 	2005-07-13 18:47:47.0	Ventana	 	02:13:33:19	 	V2687-03
 	ascend	Aegina	600.11	2681	 	36.698936	-122.05425	1717699	0.32	2005-07-07 20:29:54.897	Ventana	34.38	03:58:55:18	5.58	V2681-04
 	ascend	Appendicularia	578.87	2682	 	36.698353	-122.06238	1723580	0.37	2005-07-08 21:06:02.0	Ventana	34.364	04:58:07:16	5.771	V2682-05
 	endtransect	physical object	400.51	2687	 	36.788994	-122.12377	1809497	1.16	2005-07-13 18:08:11.0	Ventana	34.239	01:34:31:04	7.332	V2687-02
 	transect	Psolus squamatus	399.88	2687	http://search.mbari.org/ARCHIVE/frameGrabs/Ventana/images/2687/01_06_16_14.jpg	36.788166	-122.121796	1809354	1.13	2005-07-13 17:39:54.0	Ventana	34.252	01:06:16:14	7.29	V2687-02
 	transect	Mediaster	 	2687	 	 	 	1811204	 	2005-07-13 20:01:43.0	Ventana	 	03:26:43:10	 	V2687-04
 	transect	Glyptocephalus zachirus	 	2687	 	 	 	1811347	 	2005-07-13 20:08:46.0	Ventana	 	03:33:45:09	 	V2687-04
 	ascend	Appendicularia	282.8	2681	 	36.69975	-122.05516	1718248	1.36	2005-07-07 21:00:59.27	Ventana	34.231	04:29:19:05	7.734	V2681-05
 	transect	Euplexaura	 	2687	 	 	 	1810046	 	2005-07-13 18:52:06.0	Ventana	 	02:17:51:28	 	V2687-03
 	transect	Phyllospadix	800.6	2674	 	36.752583	-122.2012	1774181	0.35	2005-06-08 17:34:39.0	Ventana	34.487	00:19:13:05	4.368	V2674-01
 	transect	Allocentrotus fragilis	 	2687	 	 	 	1808805	 	2005-07-13 17:29:47.0	Ventana	 	00:56:39:02	 	V2687-01
 	transect	Porifera sp. 1	 	2687	 	 	 	1808948	 	2005-07-13 17:32:32.0	Ventana	 	00:59:24:15	 	V2687-01
 	transect	bathocyroe	500.61	2681	 	36.69793	-122.05367	2493272	0.44	2005-07-07 17:55:05.0	Ventana	34.346	01:25:28:07	6.022	V2681-02HD
 	transect	Ophiuroidea	998.92	2669	 	36.731117	-122.23475	1684173	0.45	2005-05-25 18:47:41.0	Ventana	34.522	01:09:41:05	3.916	V2669-02
 	transect	Phyllospadix	800.13	2674	 	36.752098	-122.20864	1800792	0.35	2005-06-08 18:12:47.0	Ventana	34.491	00:57:19:03	4.323	V2674-01
 	descend	Solmissus	290.38	2681	 	36.69856	-122.0537	1713638	1.26	2005-07-07 17:18:41.333	Ventana	34.231	00:49:48:27	7.491	V2681-01
 	cruise	Asteroidea	503.98	2694	 	36.784145	-122.200676	1676160	0.76	2005-07-27 17:08:31.0	Ventana	34.285	00:01:39:14	6.496	V2694-01
 	transect	Merluccius productus	800.98	2681	 	36.695084	-122.05082	2498055	0.31	2005-07-07 18:53:48.0	Ventana	34.476	02:23:30:01	4.483	V2681-03HD
 	descend	Aegina	939.62	2681	 	36.694668	-122.05039	1716522	0.42	2005-07-07 19:18:10.467	Ventana	34.518	02:47:51:27	4.019	V2681-03
 	transect	Mesomyaria	1001.0	2669	http://search.mbari.org/ARCHIVE/frameGrabs/Ventana/images/2669/02_49_21_12.jpg	36.732277	-122.24929	1736327	0.4	2005-05-25 20:27:52.0	Ventana	34.508	02:49:21:12	4.072	V2669-03
 	transect	Stomphia	800.35	2674	 	36.75173	-122.21169	1801138	0.35	2005-06-08 18:26:50.0	Ventana	34.491	01:10:55:04	4.336	V2674-02
 	transect	Euphausia	200.4	2681	 	36.698284	-122.05331	2490937	1.71	2005-07-07 17:10:01.0	Ventana	34.195	00:41:09:11	8.323	V2681-01HD
 	transect	Poeobius meseres	500.61	2681	 	36.696136	-122.05166	2493618	0.43	2005-07-07 18:02:45.0	Ventana	34.347	01:33:07:10	6.009	V2681-02HD
 	transect	Ceriantharia sp. 2	1000.43	2669	 	36.731876	-122.24699	1735778	0.41	2005-05-25 20:11:17.0	Ventana	34.51	02:32:47:24	4.066	V2669-03
 	transect	Phyllospadix	802.36	2674	 	36.75232	-122.20575	1799837	0.36	2005-06-08 17:58:45.0	Ventana	34.489	00:43:17:22	4.333	V2674-01
 	transect	Ceriantharia sp. 1	599.84	2680	 	36.778164	-122.223366	1804368	0.36	2005-06-27 17:55:06.0	Ventana	34.378	00:35:13:18	5.593	V2680-01
 	cruise	Asteroidea	192.05	2676	 	36.80727	-122.029594	1676818	1.61	2005-06-14 17:46:06.0	Ventana	34.196	01:25:49:26	8.116	V2676-02
 	cruise	Pannychia moseleyi	611.6	2688	 	36.79588	-122.01996	1677367	0.45	2005-07-14 16:37:41.0	Ventana	34.382	00:24:00:29	5.517	V2688-01
 	transect	Poeobius meseres	1001.02	2681	 	36.695362	-122.05132	2498604	0.48	2005-07-07 19:24:20.0	Ventana	34.535	02:54:00:13	3.844	V2681-03HD
 	transect	Mesomyaria	801.08	2674	 	36.750965	-122.21892	1803616	0.35	2005-06-08 19:02:11.0	Ventana	34.49	01:46:13:27	4.333	V2674-02
 	transect	Phyllospadix	 	2687	 	 	 	1807222	 	2005-07-13 17:03:33.0	Ventana	 	00:30:27:18	 	V2687-01
 	descend	Calycophorae	792.44	2682	 	36.698406	-122.05971	1721681	0.31	2005-07-08 18:35:59.0	Ventana	34.465	02:29:01:12	4.61	V2682-03
 	descend	Nanomia	170.21	2683	 	36.7008	-122.051384	1756305	1.64	2005-07-11 16:33:31.0	Ventana	34.189	00:21:12:25	8.738	V2683-01
 	transect	Chaetognatha	300.43	2681	 	36.698303	-122.05353	2491971	1.24	2005-07-07 17:20:24.0	Ventana	34.231	00:51:31:19	7.426	V2681-01HD
 	transect	molt	100.5	2681	 	36.699146	-122.053856	2489839	2.13	2005-07-07 16:51:36.0	Ventana	34.068	00:22:45:14	9.141	V2681-01HD
 	transect	Appendicularia	300.43	2681	 	36.696594	-122.052185	2492520	1.23	2005-07-07 17:26:18.0	Ventana	34.233	00:57:25:12	7.398	V2681-01HD
 	descend	Poeobius meseres	1197.4	2682	 	36.698456	-122.05854	1722230	0.68	2005-07-08 19:27:50.0	Ventana	34.573	03:20:26:25	3.375	V2682-04
 	descend	Appendicularia	506.59	2683	 	36.701435	-122.04917	1756854	0.68	2005-07-11 17:39:35.0	Ventana	34.306	01:23:41:15	6.467	V2683-02
 	transect	Phyllospadix	801.53	2674	 	36.752277	-122.20723	1800040	0.37	2005-06-08 18:06:01.0	Ventana	34.495	00:50:33:16	4.36	V2674-01
 	ascend	Nanomia	258.17	2681	 	36.697838	-122.05522	1719549	 	2005-07-07 21:29:59.0	Ventana	 	05:12:45:05	 	V2681-05
 	transect	lobata	700.62	2681	 	36.69582	-122.05168	2497852	0.28	2005-07-07 18:44:42.0	Ventana	34.434	02:14:24:04	4.948	V2681-03HD
 	transect	Appendicularia	400.75	2681	 	36.69691	-122.05252	2493069	0.79	2005-07-07 17:45:56.0	Ventana	34.277	01:16:20:05	6.659	V2681-02HD
 	transect	Umbellula lindahli	801.74	2674	 	36.75249	-122.19994	1773978	0.29	2005-06-08 17:26:26.0	Ventana	34.462	00:11:00:23	4.648	V2674-01
 	transect	Phyllospadix	 	2687	 	 	 	1808602	 	2005-07-13 17:24:58.0	Ventana	 	00:51:51:05	 	V2687-01
 	transect	Mesomyaria	1000.47	2669	 	36.730896	-122.232864	1683827	0.45	2005-05-25 18:35:54.0	Ventana	34.522	00:58:20:00	3.91	V2669-01
 	descend	Chaetognatha	1020.4	2683	 	36.704636	-122.0496	1757403	0.44	2005-07-11 19:23:24.0	Ventana	34.521	03:03:45:05	3.968	V2683-03
 	transect	Ophiuroidea	999.13	2669	 	36.73079	-122.22957	1651132	0.45	2005-05-25 18:11:03.0	Ventana	34.523	00:33:30:01	3.907	V2669-01
 	transect	Phyllospadix	800.93	2674	 	36.752537	-122.202515	1799209	0.35	2005-06-08 17:41:20.0	Ventana	34.486	00:25:53:12	4.374	V2674-01
 	ascend	Prayidae	624.99	2683	 	36.70491	-122.05036	1757952	0.3	2005-07-11 21:10:49.0	Ventana	34.398	04:43:41:24	5.462	V2683-05
 	transect	Psolus squamatus	399.84	2687	 	36.788048	-122.121544	1809151	1.13	2005-07-13 17:36:10.0	Ventana	34.242	01:02:32:10	7.271	V2687-02
 	transect	Phyllospadix	200.16	2696	 	36.804585	-122.12685	1813479	1.51	2005-08-01 17:51:29.0	Ventana	34.211	01:19:21:19	8.667	V2696-02
 	transect	Ophiuroidea	999.71	2669	 	36.7312	-122.23575	1684376	0.44	2005-05-25 18:55:33.0	Ventana	34.519	01:17:32:19	3.934	V2669-02
 	ascend	sinker	709.07	2682	 	36.69884	-122.05934	1723328	0.28	2005-07-08 20:31:37.0	Ventana	34.427	04:23:46:09	5.0	V2682-05
 	ascend	Chuniphyes	684.4	2681	 	36.69874	-122.05459	1717620	0.28	2005-07-07 20:22:16.4	Ventana	34.415	03:51:17:18	5.148	V2681-04
 	descend	Bolinopsis	225.56	2681	 	36.69852	-122.05351	1713583	1.5	2005-07-07 17:15:19.557	Ventana	34.216	00:46:27:10	8.215	V2681-01
 	transect	Ceriantharia sp. 1	599.55	2680	 	36.777786	-122.22284	1804317	0.36	2005-06-27 17:50:34.0	Ventana	34.379	00:30:41:12	5.584	V2680-01
 	transect	Poeobius meseres	400.78	2681	 	36.697132	-122.05276	2493097	0.79	2005-07-07 17:46:50.0	Ventana	34.278	01:17:15:01	6.661	V2681-02HD
 	transect	Rathbunaster californicus	200.36	2696	 	36.80494	-122.127625	1813544	1.51	2005-08-01 17:58:32.0	Ventana	34.211	01:26:24:17	8.672	V2696-02
 	cruise	Zoarcidae	430.83	2688	 	36.805386	-122.01904	1677704	0.92	2005-07-14 17:46:16.0	Ventana	34.267	01:31:59:05	6.931	V2688-02
 	descend	Halicreas	927.65	2683	 	36.70357	-122.04857	1757292	0.38	2005-07-11 18:55:30.0	Ventana	34.504	02:35:54:13	4.196	V2683-03
 	transect	Psolus squamatus	 	2687	 	 	 	1808846	 	2005-07-13 17:30:23.0	Ventana	 	00:57:15:15	 	V2687-01
 	transect	Ophiuroidea	1000.03	2669	 	36.730633	-122.22924	1651067	0.45	2005-05-25 18:08:29.0	Ventana	34.522	00:30:56:27	3.906	V2669-01
 	ascend	Calycophorae	264.54	2681	 	36.69947	-122.05455	1718465	1.4	2005-07-07 21:09:46.833	Ventana	34.23	04:38:07:05	7.911	V2681-05
 	ascend	Chaetognatha	486.21	2681	 	36.698956	-122.05423	1717759	0.53	2005-07-07 20:35:15.17	Ventana	34.324	04:04:15:17	6.217	V2681-04
 	transect	Chuniphyes	700.66	2681	 	36.69773	-122.05358	2497626	0.29	2005-07-07 18:36:39.0	Ventana	34.435	02:06:22:26	4.975	V2681-03HD
 	cruise	Sebastes	93.92	2688	 	36.814816	-122.01713	1679439	1.95	2005-07-14 20:52:18.0	Ventana	34.098	04:36:32:26	8.933	V2688-05
 	transect	Chionoecetes tanneri	1000.62	2669	 	36.732357	-122.24959	1736581	0.41	2005-05-25 20:30:21.0	Ventana	34.509	02:51:50:06	4.07	V2669-03
 	transect	Mesomyaria	801.19	2674	 	36.75096	-122.21884	1803611	0.35	2005-06-08 19:01:44.0	Ventana	34.488	01:45:46:28	4.352	V2674-02
 	transect	bathylagidae	1001.01	2681	 	36.69589	-122.05205	2498655	0.47	2005-07-07 19:27:23.0	Ventana	34.53	02:57:02:22	3.868	V2681-03HD
 	ascend	Lobata	254.41	2681	 	36.698456	-122.05613	1719171	1.46	2005-07-07 21:24:19.433	Ventana	34.222	04:52:37:27	7.999	V2681-05
 	transect	Mesomyaria	999.51	2669	http://search.mbari.org/ARCHIVE/frameGrabs/Ventana/images/2669/00_48_13_12.jpg	36.731018	-122.2313	1683615	0.45	2005-05-25 18:25:47.0	Ventana	34.52	00:48:13:12	3.915	V2669-01
 	transect	Phyllospadix	 	2669	 	 	 	1737610	 	2005-05-25 13:53:19.0	Ventana	 	03:14:07:02	 	V2669-04
 	stationary	Merluccius productus	502.37	2694	 	36.784645	-122.20046	1676675	0.74	2005-07-27 20:34:15.0	Ventana	34.291	03:06:22:09	6.444	V2694-03
 	transect	Mediaster	 	2687	 	 	 	1812515	 	2005-07-13 20:43:06.0	Ventana	 	04:07:37:10	 	V2687-05
 	transect	Phyllospadix	799.43	2674	 	36.75252	-122.204056	1799435	0.35	2005-06-08 17:49:22.0	Ventana	34.485	00:33:55:02	4.379	V2674-01
 	transect	Allocentrotus fragilis	 	2687	 	 	 	1811287	 	2005-07-13 20:05:34.0	Ventana	 	03:30:33:21	 	V2687-04
 	descend	physical object	599.02	2677	http://search.mbari.org/ARCHIVE/frameGrabs/Ventana/images/2677/00_07_28_22.jpg	36.746216	-122.05242	20008781	0.4	2005-06-15 16:52:11.0	Ventana	34.394	00:07:28:22	5.43	V2677-01
 	transect	Lycenchelys camchatica	800.62	2674	 	36.75264	-122.20184	1799112	0.34	2005-06-08 17:37:45.0	Ventana	34.484	00:22:18:26	4.416	V2674-01
 	transect	Mesomyaria	802.89	2674	 	36.75181	-122.21014	1800986	0.36	2005-06-08 18:20:25.0	Ventana	34.49	01:04:30:03	4.316	V2674-02
 	cruise	Pleuronectiformes	599.36	2688	 	36.79625	-122.020226	1677381	0.46	2005-07-14 16:39:36.0	Ventana	34.384	00:25:55:21	5.573	V2688-01
 	descend	Hormiphora	211.07	2693	 	36.69605	-122.05826	1758321	1.71	2005-07-25 18:26:28.0	Ventana	34.189	01:06:32:28	8.612	V2693-02
 	ascend	Chaetognatha	196.97	2693	 	36.690758	-122.062744	1759196	1.78	2005-07-25 21:26:04.0	Ventana	34.185	03:50:36:18	8.895	V2693-04
 	transect	Pennatulacea sp.1	598.96	2680	 	36.780422	-122.22538	1804640	0.35	2005-06-27 18:22:04.0	Ventana	34.384	01:02:09:21	5.566	V2680-01
 	transect	Nanomia bijuga	200.39	2681	 	36.698303	-122.053375	2491163	1.68	2005-07-07 17:12:22.0	Ventana	34.198	00:43:30:23	8.337	V2681-01HD
 	descend	Aegina	709.8	2681	 	36.694984	-122.05065	1716208	0.28	2005-07-07 18:49:01.137	Ventana	34.434	02:18:44:27	4.94	V2681-03
 	ascend	Chuniphyes	731.31	2681	 	36.698708	-122.05539	1717560	0.26	2005-07-07 20:17:21.733	Ventana	34.442	03:46:23:22	4.868	V2681-04
 	descend	Chaetognatha	148.19	2683	 	36.70071	-122.05164	1756263	1.71	2005-07-11 16:24:17.0	Ventana	34.167	00:11:58:13	8.871	V2683-01
 	transect	Appendicularia	700.6	2681	 	36.695293	-122.05106	2497949	0.28	2005-07-07 18:47:10.0	Ventana	34.431	02:16:53:06	5.0	V2681-03HD
 	transect	Sebastes diploproa	399.67	2687	 	36.78916	-122.12426	1809552	1.18	2005-07-13 18:16:34.0	Ventana	34.238	01:42:53:23	7.364	V2687-02
 	transect	Medusae	600.6	2681	 	36.696987	-122.05272	2493803	0.3	2005-07-07 18:24:38.0	Ventana	34.387	01:54:59:07	5.475	V2681-02HD
 	descend	Melanostigma	963.09	2681	 	36.694656	-122.050385	1716531	0.44	2005-07-07 19:18:53.433	Ventana	34.523	02:48:35:10	3.982	V2681-03
 	descend	Mysidae	935.57	2682	 	36.69826	-122.05937	1721796	0.35	2005-07-08 18:53:22.0	Ventana	34.498	02:46:25:11	4.255	V2682-03
 	transect	Sebastolobus altivelis	802.13	2674	 	36.752243	-122.206566	1799957	0.36	2005-06-08 18:02:43.0	Ventana	34.484	00:47:15:25	4.347	V2674-01
 	ascend	Appendicularia	476.76	2683	 	36.70433	-122.05057	1757998	0.72	2005-07-11 21:17:13.0	Ventana	34.296	04:50:05:07	6.569	V2683-05
 	transect	Ceriantharia sp. 1	601.2	2680	 	36.786983	-122.231384	1805898	0.36	2005-06-27 19:44:17.0	Ventana	34.375	02:22:55:21	5.604	V2680-03
 	transect	Ophiuroidea	1000.07	2669	 	36.73123	-122.238304	1688850	0.43	2005-05-25 19:17:11.0	Ventana	34.519	01:39:10:04	3.975	V2669-02
 	transect	Brisaster	998.94	2669	 	36.732838	-122.25149	1737227	0.4	2005-05-25 20:42:23.0	Ventana	34.509	03:03:10:29	4.073	V2669-04
 	descend	Solmaris	240.55	2693	 	36.698547	-122.06172	1758381	1.5	2005-07-25 19:23:35.0	Ventana	34.233	02:03:37:23	8.541	V2693-02
 	transect	Psolus squamatus	 	2687	 	 	 	1812192	 	2005-07-13 20:28:41.0	Ventana	 	03:53:39:20	 	V2687-04
 	cruise	Alepocephalus tenebrosus	612.52	2688	 	36.79502	-122.019066	1677321	0.44	2005-07-14 16:32:20.767	Ventana	34.391	00:18:40:04	5.452	V2688-01
 	ascend	Chuniphyes	955.16	2681	 	36.697323	-122.053734	1716854	0.42	2005-07-07 19:40:16.833	Ventana	34.517	03:09:20:18	4.048	V2681-04
 	transect	Pennatula phosphorea californica	599.92	2680	 	36.78347	-122.22892	1805406	0.35	2005-06-27 19:07:46.0	Ventana	34.38	01:46:50:04	5.581	V2680-02
 	transect	Mesomyaria	1000.13	2669	http://search.mbari.org/ARCHIVE/frameGrabs/Ventana/images/2669/01_02_14_13.jpg	36.73094	-122.233734	1683938	0.45	2005-05-25 18:40:13.0	Ventana	34.523	01:02:14:13	3.911	V2669-02
 	ascend	Calycophorae	531.45	2682	 	36.698334	-122.06291	1723640	0.43	2005-07-08 21:10:53.0	Ventana	34.348	05:02:35:01	6.025	V2682-06
 	ascend	Chaetognatha	370.99	2693	 	36.69617	-122.06087	1758644	1.2	2005-07-25 20:24:38.0	Ventana	34.232	03:04:10:22	7.163	V2693-03
 	ascend	Appendicularia	256.78	2681	 	36.698696	-122.056694	1719111	1.44	2005-07-07 21:22:59.333	Ventana	34.229	04:51:18:26	7.958	V2681-05
 	transect	Neptunea amianta	999.89	2669	 	36.732605	-122.25031	1736964	0.41	2005-05-25 20:35:25.0	Ventana	34.51	02:56:53:17	4.068	V2669-03
 	transect	Gastropoda sp.2	999.53	2669	 	36.73097	-122.23161	1695084	0.45	2005-05-25 18:28:08.0	Ventana	34.522	00:50:34:05	3.913	V2669-01
 	transect	Sebastolobus altivelis	801.76	2674	 	36.75178	-122.21077	1801046	0.36	2005-06-08 18:23:15.0	Ventana	34.492	01:07:19:25	4.322	V2674-02
 	transect	Ophiuroidea	999.38	2669	 	36.73141	-122.23625	1684704	0.44	2005-05-25 18:59:29.0	Ventana	34.52	01:21:29:02	3.941	V2669-02
 	cruise	Chionoecetes tanneri	1207.69	2683	 	36.70707	-122.047676	1757675	0.72	2005-07-11 20:16:38.0	Ventana	34.572	03:51:00:25	3.355	V2683-04
 	ascend	Lensia	366.01	2693	 	36.69543	-122.06088	1758813	1.23	2005-07-25 20:56:27.0	Ventana	34.235	03:20:59:29	7.313	V2693-04
 	transect	Mesomyaria	1000.09	2669	 	36.73104	-122.239624	1689173	0.41	2005-05-25 19:25:05.55	Ventana	34.509	01:47:04:17	4.064	V2669-02
 	transect	Brisaster	 	2669	 	 	 	1737670	 	2005-05-25 13:55:59.0	Ventana	 	03:16:47:06	 	V2669-04
 	transect	Mesomyaria	798.33	2674	 	36.75161	-122.21383	1801309	0.35	2005-06-08 18:37:15.0	Ventana	34.487	01:21:19:11	4.341	V2674-02
 	transect	Mediaster	 	2687	 	 	 	1807310	 	2005-07-13 17:05:44.0	Ventana	 	00:32:38:05	 	V2687-01
 	ascend	Periphylla	900.71	2682	 	36.6982	-122.05843	1723208	0.36	2005-07-08 20:14:20.0	Ventana	34.494	04:06:29:24	4.267	V2682-05
 	transect	Sebastes diploproa	399.82	2687	 	36.788074	-122.12156	1809169	1.13	2005-07-13 17:36:29.0	Ventana	34.242	01:02:51:13	7.267	V2687-02
 	transect	molt	100.46	2681	 	36.6998	-122.054276	2489751	2.12	2005-07-07 16:49:35.0	Ventana	34.067	00:20:44:14	9.156	V2681-01HD
 	transect	Mesomyaria	997.62	2669	 	36.73062	-122.227005	1649088	0.45	2005-05-25 17:54:12.0	Ventana	34.521	00:16:40:09	3.909	V2669-01
 	transect	Microstomus pacificus	999.55	2669	 	36.731033	-122.23388	1683998	0.45	2005-05-25 18:41:08.0	Ventana	34.523	01:03:09:03	3.912	V2669-02
 	transect	Psolus squamatus	 	2687	 	 	 	1808906	 	2005-07-13 17:31:38.0	Ventana	 	00:58:30:05	 	V2687-01
 	transect	Psolus squamatus	 	2687	 	 	 	1810258	 	2005-07-13 19:12:56.0	Ventana	 	02:38:40:16	 	V2687-03
 	transect	Poeobius meseres	400.76	2681	 	36.69746	-122.05314	2493157	0.79	2005-07-07 17:48:13.0	Ventana	34.277	01:18:37:00	6.662	V2681-02HD
 	transect	bathocyroe	500.57	2681	 	36.697437	-122.053154	2493420	0.44	2005-07-07 17:57:10.0	Ventana	34.346	01:27:32:21	6.018	V2681-02HD
 	transect	Diogenidae	602.09	2680	 	36.791687	-122.23298	1806867	0.36	2005-06-27 20:29:56.0	Ventana	34.379	03:08:32:22	5.59	V2680-03
 	transect	Mediaster	 	2687	 	 	 	1811227	 	2005-07-13 20:04:58.0	Ventana	 	03:29:57:21	 	V2687-04
 	transect	Halipteris californica	599.07	2680	 	36.783222	-122.2286	1805346	0.36	2005-06-27 19:05:04.0	Ventana	34.38	01:44:08:08	5.595	V2680-02
 	descend	Appendicularia	367.22	2683	 	36.701385	-122.049835	1756586	1.12	2005-07-11 16:57:29.0	Ventana	34.236	00:45:09:00	7.099	V2683-01
 	transect	Mesomyaria	801.3	2674	 	36.7525	-122.20012	1773996	0.29	2005-06-08 17:27:24.0	Ventana	34.466	00:11:58:06	4.639	V2674-01
 	transect	Sebastolobus altivelis	800.88	2674	 	36.751026	-122.21811	1803551	0.35	2005-06-08 18:58:46.0	Ventana	34.492	01:42:48:27	4.326	V2674-02
 	descend	Copepoda	400.46	2682	 	36.698288	-122.05987	1720707	0.84	2005-07-08 17:37:47.0	Ventana	34.249	01:31:18:24	6.657	V2682-02
 	ascend	Appendicularia	636.5	2683	 	36.70504	-122.05016	1757938	0.31	2005-07-11 21:10:05.0	Ventana	34.408	04:42:57:25	5.322	V2683-05
 	transect	Poeobius meseres	600.53	2681	 	36.697815	-122.05373	2493863	0.3	2005-07-07 18:28:17.0	Ventana	34.387	01:58:38:11	5.478	V2681-02HD
 	descend	Hormiphora	169.24	2683	 	36.701054	-122.05131	1756323	1.69	2005-07-11 16:40:35.0	Ventana	34.179	00:28:17:17	8.728	V2683-01
 	transect	Mediaster	 	2687	 	 	 	1810964	 	2005-07-13 19:44:33.0	Ventana	 	03:09:34:22	 	V2687-04
 	descend	Copepoda	678.46	2682	 	36.69866	-122.05995	1721413	0.28	2005-07-08 18:12:31.0	Ventana	34.413	02:05:35:22	5.182	V2682-03
 	transect	Ceriantharia sp. 1	602.96	2680	 	36.788597	-122.232346	1805958	0.36	2005-06-27 20:01:21.0	Ventana	34.381	02:39:58:23	5.596	V2680-03
 	transect	Mesomyaria	802.65	2674	 	36.752285	-122.20611	1799897	0.36	2005-06-08 18:00:30.0	Ventana	34.486	00:45:02:20	4.338	V2674-01
 	ascend	Copepoda	976.38	2681	 	36.696964	-122.05338	1716591	0.44	2005-07-07 19:36:22.573	Ventana	34.521	03:06:03:12	3.997	V2681-03
 	transect	Nanomia bijuga	200.41	2681	 	36.698296	-122.05335	2491103	1.69	2005-07-07 17:11:50.0	Ventana	34.198	00:42:57:00	8.335	V2681-01HD
 	ascend	Calycophorae	592.98	2682	 	36.698784	-122.06081	1723471	0.4	2005-07-08 20:48:02.0	Ventana	34.371	04:40:10:24	5.666	V2682-05
 	transect	Rathbunaster californicus	 	2687	 	 	 	1807573	 	2005-07-13 17:15:49.0	Ventana	 	00:42:42:25	 	V2687-01
 	descend	Appendicularia	614.27	2683	 	36.701984	-122.049	1757029	0.34	2005-07-11 17:50:00.0	Ventana	34.371	01:34:06:27	5.722	V2683-02
 	stationary	Appendicularia	501.76	2695	 	36.784595	-122.20046	1824427	0.87	2005-07-28 17:19:08.0	Ventana	34.264	00:25:29:12	6.68	V2695-01
 	descend	Chaetognatha	177.29	2682	 	36.69989	-122.06075	1719937	2.1	2005-07-08 16:19:54.0	Ventana	34.151	00:13:58:05	8.296	V2682-01
 	descend	Appendicularia	179.16	2693	 	36.69609	-122.058174	1758261	1.9	2005-07-25 18:10:54.0	Ventana	34.158	00:51:24:24	8.875	V2693-01
 	transect	Phyllospadix	800.46	2674	 	36.752563	-122.20223	1799172	0.33	2005-06-08 17:39:42.0	Ventana	34.478	00:24:15:07	4.435	V2674-01
 	descend	Euphausiacea	359.89	2682	 	36.69849	-122.0601	1720463	1.0	2005-07-08 17:33:12.0	Ventana	34.257	01:26:42:15	7.08	V2682-02
 	transect	Lycenchelys camchatica	999.87	2669	 	36.73189	-122.24605	1735612	0.41	2005-05-25 20:03:43.0	Ventana	34.51	02:25:13:13	4.06	V2669-03
 	cruise	line	177.86	2688	http://search.mbari.org/ARCHIVE/frameGrabs/Ventana/images/2688/02_21_50_15.jpg	36.810684	-122.02159	1677967	1.87	2005-07-14 18:36:35.0	Ventana	34.114	02:21:50:15	8.859	V2688-03
 	transect	Psolus squamatus	399.84	2687	http://search.mbari.org/ARCHIVE/frameGrabs/Ventana/images/2687/01_02_17_21.jpg	36.788036	-122.12153	1809109	1.13	2005-07-13 17:35:55.0	Ventana	34.244	01:02:17:21	7.27	V2687-02
 	transect	Mediaster	 	2687	 	 	 	1811546	 	2005-07-13 20:15:20.0	Ventana	 	03:40:19:05	 	V2687-04
 	cruise	Allocentrotus fragilis	252.4	2676	 	36.80563	-122.02948	1676735	1.55	2005-06-14 17:37:01.0	Ventana	34.208	01:16:45:16	8.026	V2676-02
 	transect	Porifera	 	2687	 	 	 	1812575	 	2005-07-13 20:45:53.0	Ventana	 	04:10:24:09	 	V2687-05
 	transect	Mesomyaria	999.37	2669	 	36.73102	-122.23118	1683555	0.45	2005-05-25 18:24:35.0	Ventana	34.522	00:47:01:20	3.91	V2669-01
 	transect	Euplexaura	 	2687	 	 	 	1808583	 	2005-07-13 17:24:25.0	Ventana	 	00:51:18:14	 	V2687-01
 	descend	Nanomia	400.38	2681	 	36.69565	-122.05104	1715239	0.79	2005-07-07 17:38:12.333	Ventana	34.278	01:08:35:19	6.675	V2681-02
 	ascend	Appendicularia	765.78	2681	 	36.698666	-122.05609	1717500	0.29	2005-07-07 20:10:27.967	Ventana	34.451	03:39:30:11	4.787	V2681-04
 	ascend	Appendicularia	262.99	2681	 	36.69901	-122.05587	1718728	1.42	2005-07-07 21:17:00.067	Ventana	34.227	04:45:18:28	7.957	V2681-05
 	transect	Mesomyaria	997.51	2669	 	36.73061	-122.2278	1649208	0.45	2005-05-25 17:58:45.0	Ventana	34.521	00:21:13:04	3.907	V2669-01
 	descend	Appendicularia	304.95	2682	 	36.699184	-122.060555	1720140	1.17	2005-07-08 16:56:00.0	Ventana	34.236	00:50:02:12	7.317	V2682-01
 	transect	Phyllospadix	799.98	2674	 	36.75266	-122.200424	1774116	0.29	2005-06-08 17:30:27.0	Ventana	34.462	00:15:01:10	4.653	V2674-01
 	transect	Sebastolobus	1000.37	2669	 	36.73195	-122.247086	1735815	0.41	2005-05-25 20:12:32.0	Ventana	34.511	02:34:02:27	4.072	V2669-03
 	transect	Phyllospadix	200.03	2696	 	36.80462	-122.126915	1813484	1.51	2005-08-01 17:52:07.0	Ventana	34.209	01:20:00:11	8.671	V2696-02
 	cruise	Zoarcidae	442.94	2688	 	36.803715	-122.0181	1677644	0.89	2005-07-14 17:38:33.0	Ventana	34.272	01:24:16:22	6.881	V2688-02
 	descend	Hastigerinella digitata	359.3	2693	 	36.69706	-122.05987	1758584	1.25	2005-07-25 19:59:50.0	Ventana	34.232	02:39:25:07	7.394	V2693-03
 	transect	Mediaster	 	2687	 	 	 	1811869	 	2005-07-13 20:27:48.0	Ventana	 	03:52:46:14	 	V2687-04
 	descend	Appendicularia	504.01	2683	 	36.701443	-122.04917	1756849	0.68	2005-07-11 17:39:23.0	Ventana	34.306	01:23:30:00	6.467	V2683-02
 	transect	Microstomus pacificus	999.42	2669	 	36.7312	-122.23579	1684381	0.44	2005-05-25 18:55:39.0	Ventana	34.52	01:17:39:09	3.93	V2669-02
 	ascend	sinker	795.14	2682	 	36.698654	-122.05889	1723268	0.33	2005-07-08 20:25:01.0	Ventana	34.461	04:17:10:16	4.644	V2682-05
 	transect	Mesomyaria	999.53	2669	 	36.731056	-122.23506	1684261	0.45	2005-05-25 18:50:49.0	Ventana	34.521	01:12:49:16	3.922	V2669-02
 	ascend	Appendicularia	614.47	2682	 	36.698868	-122.05988	1723411	0.38	2005-07-08 20:38:09.0	Ventana	34.38	04:30:16:24	5.511	V2682-05
 	transect	Ceriantharia sp. 2	998.46	2669	 	36.730522	-122.22843	1683352	0.45	2005-05-25 18:03:19.0	Ventana	34.522	00:25:47:12	3.907	V2669-01
 	descend	Appendicularia	366.26	2681	 	36.695564	-122.05123	1715059	0.97	2005-07-07 17:32:09.7	Ventana	34.261	01:02:33:11	7.011	V2681-02
 	transect	Mediaster	 	2687	 	 	 	1812778	 	2005-07-13 20:57:06.0	Ventana	 	04:21:35:22	 	V2687-05
 	transect	Nanomia bijuga	200.42	2681	 	36.69828	-122.0533	2490900	1.7	2005-07-07 17:09:33.0	Ventana	34.197	00:40:42:00	8.33	V2681-01HD
 	cruise	crevice	286.69	2688	http://search.mbari.org/ARCHIVE/frameGrabs/Ventana/images/2688/02_00_42_21.jpg	36.808937	-122.02033	20005172	1.41	2005-07-14 18:15:01.0	Ventana	34.211	02:00:42:21	7.934	V2688-02
 	ascend	Appendicularia	258.17	2681	 	36.697838	-122.05522	1719434	 	2005-07-07 21:29:59.0	Ventana	 	05:04:42:17	 	V2681-05
 	transect	Mediaster	399.87	2687	 	36.788136	-122.12171	1809289	1.14	2005-07-13 17:38:24.0	Ventana	34.24	01:04:46:04	7.292	V2687-02
 	transect	Porifera sp. 1	 	2687	 	 	 	1811749	 	2005-07-13 20:24:23.0	Ventana	 	03:49:21:15	 	V2687-04
 	descend	Dosidicus gigas	643.27	2681	 	36.697956	-122.05388	1715945	0.29	2005-07-07 18:30:07.2	Ventana	34.395	02:00:27:24	5.31	V2681-02
 	descend	Chaetognatha	444.06	2682	 	36.69836	-122.05959	1720767	0.57	2005-07-08 17:50:21.0	Ventana	34.315	01:43:50:25	6.33	V2682-02
 	cruise	Chionoecetes tanneri	1231.47	2683	 	36.705795	-122.04785	1757555	0.75	2005-07-11 19:52:55.0	Ventana	34.583	03:27:19:27	3.295	V2683-04
 	transect	Stomphia	999.53	2669	 	36.73078	-122.229515	1651127	0.45	2005-05-25 18:10:48.0	Ventana	34.523	00:33:15:06	3.906	V2669-01
 	descend	Appendicularia	289.61	2693	 	36.697857	-122.06128	1758441	1.37	2005-07-25 19:37:12.0	Ventana	34.239	02:16:47:11	7.886	V2693-03
 	transect	Euplexaura	 	2687	 	 	 	1810198	 	2005-07-13 19:08:26.0	Ventana	 	02:34:11:05	 	V2687-03
 	cruise	Allocentrotus fragilis	414.84	2676	 	36.803825	-122.02921	1676446	0.68	2005-06-14 16:43:13.533	Ventana	34.309	00:27:21:16	6.499	V2676-01
 	descend	Aegina	811.98	2683	 	36.702724	-122.04861	1757172	0.36	2005-07-11 18:05:07.0	Ventana	34.472	01:49:12:23	4.528	V2683-02
 	transect	Psolus squamatus	 	2687	 	 	 	1808966	 	2005-07-13 17:32:42.0	Ventana	 	00:59:34:19	 	V2687-01
 	transect	Phyllospadix	196.64	2696	 	36.80329	-122.123276	1813161	1.54	2005-08-01 17:14:10.0	Ventana	34.202	00:42:28:23	8.615	V2696-01
 	transect	Phyllospadix	203.05	2696	 	36.805256	-122.12819	1813664	1.47	2005-08-01 18:13:03.0	Ventana	34.215	01:40:54:13	8.607	V2696-02
 	cruise	Remote Instrument Node	124.3	2672	http://search.mbari.org/ARCHIVE/frameGrabs/Ventana/images/2672/00_23_56_24.jpg	36.80311	-121.80558	20003839	2.65	2005-06-03 15:04:35.0	Ventana	33.956	00:23:56:24	9.311	V2672-01
 	descend	Chuniphyes	632.06	2682	 	36.69862	-122.05986	1721293	0.28	2005-07-08 18:09:00.0	Ventana	34.399	02:02:05:14	5.362	V2682-03
 	transect	Ceriantharia sp. 1	601.11	2680	 	36.785667	-122.2307	1805838	0.36	2005-06-27 19:30:08.0	Ventana	34.377	02:08:48:06	5.605	V2680-03
 	transect	lobata	800.85	2681	 	36.696938	-122.05307	2498272	0.31	2005-07-07 19:02:37.0	Ventana	34.474	02:32:18:22	4.508	V2681-03HD
 	transect	Mediaster	 	2687	 	 	 	1812455	 	2005-07-13 20:39:24.0	Ventana	 	04:04:22:10	 	V2687-04
 	ascend	Solmaris	328.63	2681	 	36.699703	-122.05524	1718142	1.18	2005-07-07 20:56:20.067	Ventana	34.239	04:24:41:07	7.335	V2681-05
 	transect	Porifera sp. 1	 	2687	 	 	 	1810904	 	2005-07-13 19:41:52.0	Ventana	 	03:06:54:02	 	V2687-04
 	transect	Aegina	900.99	2681	 	36.695435	-122.05125	2498452	0.39	2005-07-07 19:13:46.0	Ventana	34.505	02:43:27:18	4.171	V2681-03HD
 	transect	Calliostoma platinum	399.48	2687	 	36.789436	-122.1252	1809672	1.15	2005-07-13 18:32:53.0	Ventana	34.242	01:59:11:19	7.303	V2687-02
 	ascend	Copepoda	863.48	2681	 	36.698475	-122.05556	1717357	0.34	2005-07-07 19:53:34.4	Ventana	34.498	03:22:37:11	4.316	V2681-04
 	ascend	Calycophorae	703.49	2683	 	36.705814	-122.049	1757878	0.27	2005-07-11 21:05:51.0	Ventana	34.45	04:38:44:17	4.774	V2683-05
 	descend	Appendicularia	405.39	2683	 	36.70144	-122.049545	1756646	0.94	2005-07-11 17:04:49.0	Ventana	34.263	00:52:28:17	6.938	V2683-01
 	transect	Sebastolobus	999.67	2669	 	36.731346	-122.23778	1687532	0.44	2005-05-25 19:12:46.0	Ventana	34.52	01:34:45:04	3.95	V2669-02
 	transect	Neptunea amianta	602.65	2680	 	36.789734	-122.232574	1806724	0.35	2005-06-27 20:13:22.0	Ventana	34.378	02:51:59:01	5.587	V2680-03
 	descend	Nanomia	161.34	2681	 	36.69828	-122.05329	1713523	2.03	2005-07-07 17:02:30.733	Ventana	34.139	00:33:39:09	8.649	V2681-01
 	transect	Mesomyaria	1000.11	2669	 	36.731007	-122.233116	1683878	0.45	2005-05-25 18:37:35.0	Ventana	34.523	01:00:01:04	3.91	V2669-01
 	ascend	Copepoda	260.4	2681	 	36.698807	-122.056946	1719051	1.42	2005-07-07 21:21:47.367	Ventana	34.232	04:50:06:14	7.957	V2681-05
 	transect	Psolus squamatus	 	2687	 	 	 	1808786	 	2005-07-13 17:29:29.0	Ventana	 	00:56:21:20	 	V2687-01
 	ascend	Appendicularia	471.52	2682	 	36.698338	-122.06314	1723700	0.58	2005-07-08 21:16:57.0	Ventana	34.309	05:08:37:11	6.297	V2682-06
 	transect	Mediaster	 	2687	 	 	 	1812252	 	2005-07-13 20:29:57.0	Ventana	 	03:54:55:11	 	V2687-04
 	transect	molt	100.48	2681	 	36.69934	-122.05398	2489811	2.14	2005-07-07 16:51:10.0	Ventana	34.067	00:22:17:25	9.15	V2681-01HD
 	transect	Ceriantharia sp. 2	1000.49	2669	 	36.732147	-122.24822	1736198	0.41	2005-05-25 20:20:33.0	Ventana	34.51	02:42:01:29	4.06	V2669-03
 	descend	Caecosagitta macrocephala	974.56	2683	 	36.70406	-122.04864	1757352	0.42	2005-07-11 19:13:46.0	Ventana	34.516	02:54:07:06	4.035	V2683-03
 	ascend	Appendicularia	382.27	2683	 	36.703953	-122.05058	1758058	1.0	2005-07-11 21:21:06.0	Ventana	34.25	04:53:57:01	6.963	V2683-05
 	transect	Chionoecetes tanneri	800.53	2674	 	36.75122	-122.216225	1803408	0.35	2005-06-08 18:50:22.0	Ventana	34.491	01:34:25:11	4.335	V2674-02
 	descend	Crustacea	275.93	2683	 	36.700993	-122.05026	1756466	1.36	2005-07-11 16:52:11.0	Ventana	34.232	00:39:51:23	7.809	V2683-01
 	ascend	Hastigerinella digitata	361.88	2693	 	36.694202	-122.061005	1758873	1.24	2005-07-25 21:02:23.0	Ventana	34.232	03:26:56:23	7.352	V2693-04
 	transect	Mesomyaria	999.28	2669	 	36.73138	-122.23639	1684764	0.44	2005-05-25 19:00:29.0	Ventana	34.518	01:22:28:21	3.944	V2669-02
 	transect	Stomphia	1000.2	2669	 	36.731144	-122.24024	1689233	0.41	2005-05-25 19:28:59.0	Ventana	34.511	01:50:57:04	4.059	V2669-02
 	transect	Mesomyaria	798.92	2674	 	36.751453	-122.21465	1801369	0.35	2005-06-08 18:42:44.0	Ventana	34.489	01:26:47:24	4.333	V2674-02
 	transect	Neptunea amianta	1000.15	2669	 	36.731075	-122.23872	1689053	0.43	2005-05-25 19:19:30.0	Ventana	34.514	01:41:28:21	3.969	V2669-02
 	transect	Umbellula lindahli	598.38	2680	 	36.781567	-122.22669	1805023	0.36	2005-06-27 18:38:19.0	Ventana	34.376	01:17:25:02	5.601	V2680-02
 	transect	molt	100.53	2681	 	36.69983	-122.05429	2489631	2.13	2005-07-07 16:46:38.0	Ventana	34.068	00:17:48:06	9.144	V2681-01HD
 	descend	Chuniphyes	968.03	2682	 	36.698326	-122.05931	1721999	0.42	2005-07-08 18:56:09.0	Ventana	34.514	02:49:11:25	4.053	V2682-03
 	transect	Mesomyaria	1000.31	2669	 	36.732513	-122.25015	1736904	0.41	2005-05-25 20:34:00.0	Ventana	34.51	02:55:28:26	4.067	V2669-03
 	transect	Mesomyaria	799.93	2674	 	36.752506	-122.20336	1799315	0.35	2005-06-08 17:45:23.0	Ventana	34.484	00:29:56:00	4.372	V2674-01
 	ascend	Appendicularia	895.52	2681	 	36.69806	-122.05491	1717177	0.37	2005-07-07 19:49:31.407	Ventana	34.505	03:18:34:19	4.209	V2681-04
 	transect	Rathbunaster californicus	204.16	2696	 	36.807617	-122.13125	1813867	1.46	2005-08-01 18:44:10.0	Ventana	34.221	02:11:14:26	8.649	V2696-03
 	transect	Sebastolobus altivelis	799.39	2674	 	36.752457	-122.2052	1799754	0.35	2005-06-08 17:56:01.0	Ventana	34.49	00:40:33:25	4.357	V2674-01
 	descend	Appendicularia	543.06	2682	 	36.698616	-122.05976	1720887	0.36	2005-07-08 18:04:25.0	Ventana	34.368	01:57:54:24	5.737	V2682-02
 	descend	Haliscera	329.5	2693	 	36.697414	-122.060524	1758524	1.29	2005-07-25 19:47:57.0	Ventana	34.235	02:27:32:01	7.57	V2693-03
 	transect	Lycenchelys camchatica	800.57	2674	 	36.75261	-122.20109	1774176	0.34	2005-06-08 17:34:11.0	Ventana	34.482	00:18:44:23	4.417	V2674-01
 	transect	cydippida	200.35	2681	 	36.698345	-122.05345	2491366	1.67	2005-07-07 17:13:48.0	Ventana	34.201	00:44:55:13	8.341	V2681-01HD
 	cruise	Pleuronectiformes	451.44	2676	 	36.80292	-122.02928	1676326	0.62	2005-06-14 16:36:42.0	Ventana	34.321	00:20:51:12	6.337	V2676-01
 	transect	Gastropoda sp.2	999.04	2669	 	36.730526	-122.22855	1694941	0.45	2005-05-25 18:04:10.0	Ventana	34.522	00:26:38:03	3.908	V2669-01
 	transect	bathocyroe	500.62	2681	 	36.696106	-122.05163	2493623	0.43	2005-07-07 18:02:53.0	Ventana	34.347	01:33:16:15	6.006	V2681-02HD
 	ascend	Leuroglossus stilbius	1091.22	2682	 	36.698055	-122.05753	1722645	0.57	2005-07-08 19:59:16.0	Ventana	34.551	03:51:49:26	3.618	V2682-04
 	transect	Mediaster	 	2687	 	 	 	1812312	 	2005-07-13 20:31:56.0	Ventana	 	03:56:53:28	 	V2687-04
 	transect	Mesomyaria	1000.32	2669	 	36.73092	-122.23285	1683818	0.45	2005-05-25 18:35:30.0	Ventana	34.521	00:57:56:04	3.911	V2669-01
 	transect	Pannychia moseleyi	799.69	2674	http://search.mbari.org/ARCHIVE/frameGrabs/Ventana/images/2674/01_12_59_23.jpg	36.751747	-122.21219	1801189	0.35	2005-06-08 18:28:55.0	Ventana	34.49	01:12:59:23	4.336	V2674-02
 	transect	Gastropoda	197.15	2696	 	36.80265	-122.12169	1813018	1.52	2005-08-01 16:54:21.0	Ventana	34.206	00:22:40:20	8.559	V2696-01
 	stationary	cable	998.09	2679	http://search.mbari.org/ARCHIVE/frameGrabs/Ventana/images/2679/00_59_03_02.jpg	36.69042	-122.16628	20004402	0.47	2005-06-16 20:20:49.0	Ventana	34.532	00:59:03:02	3.872	V2679-01
 	ascend	sinker	996.79	2683	 	36.707447	-122.049095	1757818	0.43	2005-07-11 20:51:33.0	Ventana	34.52	04:24:27:04	4.018	V2683-05
 	transect	Mesomyaria	800.56	2674	 	36.752434	-122.20464	1799638	0.36	2005-06-08 17:53:02.0	Ventana	34.49	00:37:34:17	4.348	V2674-01
 	transect	molt	100.54	2681	 	36.69983	-122.05429	2489608	2.13	2005-07-07 16:45:58.0	Ventana	34.067	00:17:07:13	9.149	V2681-01HD
 	transect	Chaetognatha	300.39	2681	 	36.69585	-122.05146	2492594	1.24	2005-07-07 17:29:09.0	Ventana	34.232	01:00:15:04	7.431	V2681-01HD
 	cruise	Ceriantharia sp. 1	254.5	2688	 	36.809254	-122.02036	1677907	1.52	2005-07-14 18:29:20.0	Ventana	34.198	02:14:35:27	8.193	V2688-03
 	ascend	Aegina	678.67	2682	 	36.69889	-122.059525	1723351	0.28	2005-07-08 20:33:36.0	Ventana	34.41	04:25:44:14	5.168	V2682-05
 	transect	Calliostoma platinum	 	2687	http://search.mbari.org/ARCHIVE/frameGrabs/Ventana/images/2687/00_26_47_23.jpg	 	 	1807107	 	2005-07-13 16:59:53.0	Ventana	 	00:26:47:23	 	V2687-01
 	descend	Leuroglossus stilbius	734.28	2683	 	36.702293	-122.04894	1757112	0.32	2005-07-11 17:56:36.0	Ventana	34.445	01:40:42:18	4.838	V2683-02
 	transect	Phyllospadix	199.45	2696	 	36.804043	-122.12569	1813364	1.52	2005-08-01 17:39:43.0	Ventana	34.209	01:07:36:18	8.668	V2696-02
 	cruise	Appendicularia	504.66	2695	 	36.78454	-122.20044	1824510	0.69	2005-07-28 20:26:04.0	Ventana	34.287	05:27:23:11	6.334	V2695-03
 	transect	Ceriantharia sp. 1	602.47	2680	 	36.79017	-122.23267	1806747	0.35	2005-06-27 20:17:06.0	Ventana	34.378	02:55:42:28	5.586	V2680-03
 	transect	Appendicularia	700.63	2681	 	36.696037	-122.05192	2497829	0.29	2005-07-07 18:43:45.0	Ventana	34.435	02:13:27:17	4.945	V2681-03HD
 	transect	Mesomyaria	998.37	2669	 	36.73095	-122.230095	1651247	0.45	2005-05-25 18:15:01.0	Ventana	34.522	00:37:28:01	3.912	V2669-01
 	descend	Hastigerinella digitata	254.71	2682	 	36.6998	-122.06083	1719997	1.38	2005-07-08 16:25:39.0	Ventana	34.231	00:19:43:20	7.883	V2682-01
 	descend	Euphausiacea	146.28	2693	 	36.696342	-122.05773	1758178	1.95	2005-07-25 17:56:19.0	Ventana	34.108	00:36:50:26	9.019	V2693-01
 	transect	Ceriantharia sp. 1	599.42	2680	 	36.779446	-122.22453	1804520	0.36	2005-06-27 18:10:09.0	Ventana	34.377	00:50:15:23	5.605	V2680-01
 	transect	Lycenchelys camchatica	997.81	2669	 	36.730564	-122.22823	1649351	0.45	2005-05-25 18:02:02.0	Ventana	34.521	00:24:30:14	3.908	V2669-01
 	transect	Phyllospadix	801.02	2674	 	36.752514	-122.202675	1799232	0.35	2005-06-08 17:42:00.0	Ventana	34.487	00:26:33:16	4.377	V2674-01
 	transect	Mesomyaria	800.56	2674	 	36.752014	-122.2091	1800866	0.35	2005-06-08 18:15:02.0	Ventana	34.487	00:59:33:15	4.328	V2674-01
 	cruise	rubble	98.14	2688	http://search.mbari.org/ARCHIVE/frameGrabs/Ventana/images/2688/04_25_04_28.jpg	36.81464	-122.01708	20005292	1.95	2005-07-14 20:40:51.0	Ventana	34.095	04:25:04:28	8.942	V2688-05
 	descend	Myctophidae	436.39	2681	 	36.69808	-122.05384	1715322	0.62	2005-07-07 17:51:45.56	Ventana	34.3	01:22:08:00	6.341	V2681-02
 	transect	Copepoda	1001.06	2681	 	36.694714	-122.0505	2498535	0.47	2005-07-07 19:21:03.0	Ventana	34.532	02:50:44:08	3.867	V2681-03HD
 	cruise	rock outcrop	204.93	2676	http://search.mbari.org/ARCHIVE/frameGrabs/Ventana/images/2676/01_21_25_19.jpg	36.806248	-122.02922	1676795	1.63	2005-06-14 17:41:42.0	Ventana	34.199	01:21:25:19	8.104	V2676-02
 	transect	Mesomyaria	1000.39	2669	 	36.73156	-122.24289	1694558	0.4	2005-05-25 19:43:55.0	Ventana	34.505	02:05:52:13	4.096	V2669-02
 	transect	Mediaster	 	2687	 	 	 	1810761	 	2005-07-13 19:32:34.0	Ventana	 	02:58:17:19	 	V2687-03
 	transect	Diogenidae	399.89	2687	http://search.mbari.org/ARCHIVE/frameGrabs/Ventana/images/2687/02_02_40_01.jpg	36.789402	-122.1255	1809695	1.13	2005-07-13 18:36:21.0	Ventana	34.241	02:02:40:01	7.267	V2687-02
 	transect	Mediaster	 	2687	 	 	 	1811606	 	2005-07-13 20:17:05.0	Ventana	 	03:42:04:15	 	V2687-04
 	transect	Ophiuroidea	999.07	2669	 	36.731388	-122.23602	1684524	0.44	2005-05-25 18:57:47.0	Ventana	34.52	01:19:46:26	3.938	V2669-02
 	transect	Appendicularia	400.79	2681	 	36.695873	-122.051285	2492917	0.79	2005-07-07 17:41:19.0	Ventana	34.278	01:11:43:14	6.667	V2681-02HD
 	transect	Mesomyaria	999.77	2669	 	36.731422	-122.23723	1687472	0.44	2005-05-25 19:08:26.0	Ventana	34.519	01:30:24:25	3.946	V2669-02
 	transect	Nanomia bijuga	200.43	2681	 	36.69828	-122.05329	2490314	1.69	2005-07-07 17:06:48.0	Ventana	34.199	00:37:57:19	8.355	V2681-01HD
 	descend	Nanomia	283.57	2682	 	36.69967	-122.06082	1720057	1.31	2005-07-08 16:36:25.0	Ventana	34.225	00:30:28:09	7.604	V2682-01
 	transect	Psolus squamatus	 	2687	http://search.mbari.org/ARCHIVE/frameGrabs/Ventana/images/2687/00_59_58_03.jpg	 	 	1808989	 	2005-07-13 17:33:06.0	Ventana	 	00:59:58:03	 	V2687-01
 	transect	Chionoecetes tanneri	800.3	2674	 	36.75209	-122.20861	1800783	0.36	2005-06-08 18:12:33.0	Ventana	34.49	00:57:04:17	4.319	V2674-01
 	descend	Appendicularia	365.67	2682	 	36.698536	-122.06037	1720343	1.0	2005-07-08 17:23:27.0	Ventana	34.256	01:16:58:20	7.075	V2682-02
 	transect	Mediaster	 	2687	 	 	 	1811430	 	2005-07-13 20:12:37.0	Ventana	 	03:37:36:09	 	V2687-04
 	descend	Appendicularia	567.31	2681	 	36.6957	-122.05105	1715622	0.36	2005-07-07 18:06:45.2	Ventana	34.365	01:37:07:07	5.668	V2681-02
 	transect	haliscera	300.41	2681	 	36.697464	-122.052925	2492248	1.24	2005-07-07 17:23:19.0	Ventana	34.233	00:54:27:03	7.402	V2681-01HD
 	cruise	Lycenchelys	310.58	2688	 	36.808598	-122.02029	1677847	1.34	2005-07-14 18:12:27.0	Ventana	34.218	01:58:08:25	7.79	V2688-02
 	transect	Mesomyaria	999.44	2669	 	36.73133	-122.23592	1684464	0.44	2005-05-25 18:57:06.0	Ventana	34.52	01:19:05:22	3.936	V2669-02
 	transect	Mesomyaria	802.28	2674	 	36.752335	-122.205666	1799814	0.36	2005-06-08 17:58:06.0	Ventana	34.487	00:42:38:10	4.341	V2674-01
 	transect	Poeobius meseres	400.78	2681	 	36.696053	-122.0515	2492954	0.79	2005-07-07 17:42:13.0	Ventana	34.278	01:12:36:18	6.661	V2681-02HD
 	ascend	Crustacea	335.21	2693	 	36.692738	-122.06188	1758993	1.26	2005-07-25 21:14:07.0	Ventana	34.238	03:38:39:24	7.464	V2693-04
 	transect	Umbellula lindahli	599.72	2680	 	36.778854	-122.22404	1804437	0.36	2005-06-27 18:04:16.0	Ventana	34.38	00:44:22:21	5.59	V2680-01
 	transect	Lycenchelys camchatica	801.42	2674	 	36.75221	-122.20761	1800077	0.38	2005-06-08 18:07:36.0	Ventana	34.495	00:52:08:06	4.339	V2674-01
 	transect	Chaetognatha	300.42	2681	 	36.69663	-122.052216	2492511	1.23	2005-07-07 17:26:10.0	Ventana	34.233	00:57:17:20	7.398	V2681-01HD
 	transect	Ophiuroidea	997.21	2669	 	36.731148	-122.230896	1683472	0.45	2005-05-25 18:21:50.0	Ventana	34.519	00:44:16:24	3.927	V2669-01
 	descend	Hormiphora	218.57	2683	 	36.700996	-122.05076	1756406	1.7	2005-07-11 16:48:32.0	Ventana	34.194	00:36:12:11	8.261	V2683-01
 	transect	Nanomia bijuga	200.4	2681	 	36.698288	-122.05332	2491020	1.71	2005-07-07 17:10:52.0	Ventana	34.192	00:41:59:26	8.325	V2681-01HD
 	transect	Mesomyaria	999.79	2669	 	36.731003	-122.2325	1683758	0.45	2005-05-25 18:33:37.883	Ventana	34.521	00:56:04:08	3.915	V2669-01
 	transect	Phyllospadix	998.27	2669	 	36.73302	-122.25265	1737467	0.4	2005-05-25 20:48:47.0	Ventana	34.509	03:09:34:12	4.074	V2669-04
 	ascend	Chaetognatha	206.3	2683	 	36.70275	-122.050735	1758118	1.68	2005-07-11 21:28:46.0	Ventana	34.204	05:01:36:16	8.424	V2683-05
 	transect	Psolus squamatus	 	2687	 	 	 	1812372	 	2005-07-13 20:34:50.0	Ventana	 	03:59:48:11	 	V2687-04
 	transect	Phyllospadix	800.86	2674	 	36.751114	-122.217064	1803468	0.35	2005-06-08 18:53:38.0	Ventana	34.489	01:37:40:25	4.34	V2674-02
 	cruise	Sebastes	485.98	2688	 	36.8018	-122.01842	1677561	0.78	2005-07-14 17:26:12.0	Ventana	34.291	01:11:56:12	6.641	V2688-02
 	transect	Phyllospadix	1000.15	2669	 	36.73164	-122.243416	1733828	0.41	2005-05-25 19:46:59.0	Ventana	34.511	02:08:29:17	4.068	V2669-03
 	transect	Mesomyaria	999.89	2669	 	36.73262	-122.25071	1737024	0.4	2005-05-25 20:37:41.0	Ventana	34.507	02:59:09:14	4.073	V2669-03
 	descend	Sergestes similis	295.11	2693	 	36.69777	-122.061104	1758464	1.33	2005-07-25 19:38:22.0	Ventana	34.235	02:17:57:20	7.78	V2693-03
 	descend	Cydippida	 	2693	 	 	 	1759436	 	2005-07-25 16:44:52.0	Ventana	 	00:23:24:27	 	V2693-01
 	cruise	Arctapodema	398.6	2676	 	36.803665	-122.03034	1676243	0.86	2005-06-14 16:25:20.0	Ventana	34.279	00:09:29:25	6.865	V2676-01
 	ascend	Chaetognatha	908.59	2681	 	36.697884	-122.05459	1717034	0.37	2005-07-07 19:47:35.033	Ventana	34.504	03:16:37:26	4.199	V2681-04
 	ascend	Euphausiacea	259.66	2681	 	36.69925	-122.054306	1718645	1.43	2005-07-07 21:14:37.167	Ventana	34.23	04:42:56:21	7.972	V2681-05
 	cruise	Mysidae	985.81	2689	 	36.771538	-122.082825	1669626	0.46	2005-07-18 16:43:48.0	Ventana	34.522	00:06:52:28	3.966	V2689-01
 	descend	Pantachogon	1185.35	2682	 	36.698326	-122.058105	1722299	0.66	2005-07-08 19:39:06.0	Ventana	34.569	03:31:42:05	3.413	V2682-04
 	ascend	Haliscera	761.73	2682	 	36.69875	-122.059044	1723291	0.3	2005-07-08 20:27:22.0	Ventana	34.445	04:19:31:11	4.819	V2682-05
 	transect	Neptunea amianta	1000.46	2669	 	36.732426	-122.24991	1736761	0.41	2005-05-25 20:32:21.0	Ventana	34.509	02:53:50:18	4.066	V2669-03
 	descend	Copepoda	1114.49	2683	 	36.705116	-122.048904	1757472	0.6	2005-07-11 19:30:39.0	Ventana	34.548	03:10:59:12	3.641	V2683-03
 	transect	Mesomyaria	1000.26	2669	 	36.73128	-122.240944	1689353	0.41	2005-05-25 19:33:37.0	Ventana	34.51	01:55:34:17	4.056	V2669-02
 	transect	Gastropoda sp.2	999.25	2669	 	36.73107	-122.233955	1694641	0.45	2005-05-25 18:41:31.0	Ventana	34.522	01:03:31:14	3.913	V2669-02
 	transect	Psolus squamatus	 	2687	 	 	 	1808643	 	2005-07-13 17:26:00.0	Ventana	 	00:52:52:16	 	V2687-01
 	ascend	Cydippida	258.17	2681	 	36.697838	-122.05522	1719351	 	2005-07-07 21:29:59.0	Ventana	 	05:01:53:17	 	V2681-05
 	transect	Mesomyaria	999.78	2669	 	36.731056	-122.23894	1689090	0.43	2005-05-25 19:20:56.0	Ventana	34.518	01:42:54:24	3.96	V2669-02
 	ascend	Poeobius meseres	374.75	2681	 	36.699356	-122.054794	1718022	0.95	2005-07-07 20:50:17.287	Ventana	34.27	04:18:37:25	7.021	V2681-05
 	transect	Anoplopoma fimbria	399.88	2687	http://search.mbari.org/ARCHIVE/frameGrabs/Ventana/images/2687/01_06_16_14.jpg	36.788166	-122.121796	1809349	1.13	2005-07-13 17:39:54.0	Ventana	34.252	01:06:16:14	7.29	V2687-02
 	ascend	Appendicularia	370.89	2693	 	36.696823	-122.06037	1758730	1.2	2005-07-25 20:32:06.0	Ventana	34.232	03:11:39:11	7.183	V2693-03
 	endtransect	object	805.74	2674	 	36.750645	-122.22132	1803731	0.34	2005-06-08 19:13:56.0	Ventana	34.483	01:57:58:11	4.404	V2674-02
 	cruise	Sebastes	108.55	2688	http://search.mbari.org/ARCHIVE/frameGrabs/Ventana/images/2688/02_49_38_16.jpg	36.816006	-122.024475	20005232	1.96	2005-07-14 19:04:24.0	Ventana	34.091	02:49:38:16	8.891	V2688-03
 	transect	Mesomyaria	998.65	2669	 	36.73047	-122.22843	1650887	0.45	2005-05-25 18:03:27.0	Ventana	34.523	00:25:54:27	3.906	V2669-01
 	cruise	Mediaster	149.67	2676	 	36.808735	-122.03068	1676855	1.69	2005-06-14 17:54:17.0	Ventana	34.177	01:34:00:07	8.277	V2676-02
 	transect	Mesomyaria	999.83	2669	 	36.73174	-122.24399	1734091	0.4	2005-05-25 19:50:18.2	Ventana	34.509	02:11:49:06	4.069	V2669-03
 	transect	Gastropoda sp.2	997.65	2669	 	36.73062	-122.22695	1694904	0.45	2005-05-25 17:53:21.0	Ventana	34.522	00:15:50:02	3.909	V2669-01
 	cruise	Sebastes	105.56	2676	 	36.807453	-122.0395	1677141	1.97	2005-06-14 19:08:16.0	Ventana	34.153	02:47:01:10	8.468	V2676-03
 	transect	Neptunea amianta	799.17	2674	 	36.751717	-122.212776	1801226	0.35	2005-06-08 18:30:44.0	Ventana	34.49	01:14:48:04	4.332	V2674-02
 	transect	Phyllospadix	204.11	2696	 	36.805946	-122.12944	1813724	1.49	2005-08-01 18:20:38.0	Ventana	34.211	01:48:29:10	8.635	V2696-02
 	transect	Mesomyaria	999.01	2669	 	36.73113	-122.23478	1684178	0.45	2005-05-25 18:47:52.0	Ventana	34.521	01:09:52:14	3.916	V2669-02
 	transect	Nanomia bijuga	200.45	2681	 	36.69828	-122.05329	2490660	1.73	2005-07-07 17:08:05.0	Ventana	34.193	00:39:13:13	8.328	V2681-01HD
 	transect	Phyllospadix	800.68	2674	 	36.751965	-122.209625	1800926	0.35	2005-06-08 18:17:56.0	Ventana	34.493	01:02:01:12	4.326	V2674-02
 	transect	Parastichopus leukothele	198.59	2696	 	36.80371	-122.124725	1813281	1.52	2005-08-01 17:30:29.0	Ventana	34.203	00:58:46:05	8.643	V2696-01
 	transect	Pennatulacea sp.1	598.93	2680	 	36.77994	-122.225	1804580	0.35	2005-06-27 18:16:56.0	Ventana	34.381	00:57:02:03	5.543	V2680-01
 	transect	Calycophorae	300.45	2681	 	36.697727	-122.053154	2492151	1.23	2005-07-07 17:22:27.0	Ventana	34.234	00:53:34:20	7.4	V2681-01HD
 	ascend	Euphausiacea	214.9	2682	 	36.696594	-122.06084	1723760	1.95	2005-07-08 21:30:37.0	Ventana	34.163	05:22:16:13	7.958	V2682-06
 	cruise	rock outcrop	327.72	2676	http://search.mbari.org/ARCHIVE/frameGrabs/Ventana/images/2676/01_03_22_25.jpg	36.804836	-122.02902	20003959	1.31	2005-06-14 17:19:18.0	Ventana	34.229	01:03:22:25	7.688	V2676-01
 	stationary	Merluccius productus	502.04	2694	 	36.784622	-122.200485	1676589	0.79	2005-07-27 19:04:21.0	Ventana	34.279	01:47:01:28	6.574	V2694-02
 	transect	Mediaster	 	2687	 	 	 	1810318	 	2005-07-13 19:15:27.0	Ventana	 	02:41:11:00	 	V2687-03
 	transect	Phyllospadix	203.46	2696	 	36.80659	-122.13017	1813784	1.48	2005-08-01 18:29:55.0	Ventana	34.219	01:57:45:24	8.65	V2696-02
 	transect	Calycophorae	901.04	2681	 	36.69581	-122.05174	2498392	0.39	2005-07-07 19:12:00.0	Ventana	34.505	02:41:41:29	4.174	V2681-03HD
 	transect	Porifera	399.68	2687	 	36.789307	-122.12482	1809612	1.15	2005-07-13 18:24:52.0	Ventana	34.24	01:51:10:26	7.318	V2687-02
 	transect	cydippida	100.52	2681	 	36.699825	-122.05429	2489691	2.13	2005-07-07 16:48:03.0	Ventana	34.067	00:19:12:23	9.15	V2681-01HD
 	descend	Nanomia	186.04	2683	 	36.70104	-122.05111	1756346	1.69	2005-07-11 16:42:24.0	Ventana	34.168	00:30:04:25	8.531	V2683-01
 	descend	Appendicularia	305.95	2683	 	36.7011	-122.05015	1756503	1.26	2005-07-11 16:54:02.0	Ventana	34.243	00:41:41:15	7.663	V2683-01
 	transect	Brisaster	598.47	2680	 	36.78199	-122.22699	1805083	0.35	2005-06-27 18:43:06.0	Ventana	34.378	01:22:11:07	5.586	V2680-02
 	transect	Poeobius meseres	1001.04	2681	 	36.69528	-122.05122	2498595	0.48	2005-07-07 19:23:58.0	Ventana	34.535	02:53:38:01	3.84	V2681-03HD
 	starttransect	object	800.35	2674	 	36.751266	-122.21588	1803371	0.35	2005-06-08 18:48:53.0	Ventana	34.485	01:32:56:11	4.365	V2674-02
 	transect	Ceriantharia sp. 1	599.63	2680	 	36.78299	-122.228294	1805286	0.36	2005-06-27 19:02:22.0	Ventana	34.379	01:41:26:21	5.6	V2680-02
 	transect	molt	100.5	2681	 	36.69878	-122.05362	2489894	2.14	2005-07-07 16:52:32.0	Ventana	34.068	00:23:41:22	9.136	V2681-01HD
 	transect	Lycenchelys camchatica	801.04	2674	http://search.mbari.org/ARCHIVE/frameGrabs/Ventana/images/2674/00_55_11_13.jpg	36.75213	-122.20821	1800723	0.35	2005-06-08 18:10:40.0	Ventana	34.49	00:55:11:13	4.32	V2674-01
 	transect	Phyllospadix	196.26	2696	 	36.803036	-122.122574	1813078	1.55	2005-08-01 17:05:47.0	Ventana	34.198	00:34:06:02	8.614	V2696-01
 	ascend	Leuroglossus stilbius	630.71	2681	 	36.698906	-122.05423	1717676	0.31	2005-07-07 20:28:19.17	Ventana	34.391	03:57:19:15	5.404	V2681-04
 	descend	Appendicularia	449.12	2683	 	36.70158	-122.049385	1756706	0.8	2005-07-11 17:08:58.0	Ventana	34.28	00:56:36:15	6.7	V2683-01
 	transect	Euphausia	200.48	2681	 	36.69828	-122.05329	2490600	1.72	2005-07-07 17:07:45.0	Ventana	34.195	00:38:53:15	8.334	V2681-01HD
 	transect	Phyllospadix	800.64	2674	 	36.75108	-122.217766	1803528	0.35	2005-06-08 18:57:11.0	Ventana	34.49	01:41:13:12	4.361	V2674-02
 	transect	Ceriantharia sp. 1	598.53	2680	 	36.780617	-122.22564	1804783	0.35	2005-06-27 18:25:36.0	Ventana	34.378	01:04:43:00	5.571	V2680-02
 	ascend	Chaetognatha	376.45	2693	 	36.69577	-122.06063	1758790	1.2	2005-07-25 20:51:12.0	Ventana	34.233	03:15:45:08	7.166	V2693-04
 	transect	Mesomyaria	798.38	2674	 	36.75166	-122.2135	1801286	0.35	2005-06-08 18:35:05.0	Ventana	34.487	01:19:09:21	4.353	V2674-02
 	transect	Mediaster	 	2687	 	 	 	1811024	 	2005-07-13 19:48:40.0	Ventana	 	03:13:41:16	 	V2687-04
 	transect	Psolus squamatus	 	2687	 	 	 	1811167	 	2005-07-13 19:59:04.0	Ventana	 	03:24:04:16	 	V2687-04
 	transect	Phyllospadix	201.68	2696	 	36.805256	-122.12819	1813627	1.5	2005-08-01 18:07:07.0	Ventana	34.212	01:34:59:17	8.667	V2696-02
 	ascend	Vitreosalpa gemini	549.8	2682	 	36.698307	-122.06274	1723617	0.39	2005-07-08 21:09:15.0	Ventana	34.354	05:00:56:25	5.897	V2682-06
 	transect	Phyllospadix	1000.26	2669	 	36.731777	-122.24471	1734437	0.4	2005-05-25 19:54:42.0	Ventana	34.505	02:16:13:19	4.085	V2669-03
 	descend	Phialidium	1040.32	2683	 	36.704876	-122.04925	1757412	0.47	2005-07-11 19:24:31.0	Ventana	34.532	03:04:52:19	3.872	V2683-03
 	transect	Gastropoda sp.2	999.98	2669	 	36.73138	-122.236885	1694701	0.44	2005-05-25 19:05:20.0	Ventana	34.521	01:27:19:15	3.939	V2669-02
 	transect	Mesomyaria	800.3	2674	 	36.75173	-122.21162	1801129	0.35	2005-06-08 18:26:32.0	Ventana	34.49	01:10:37:05	4.331	V2674-02
 	transect	Sebastolobus	 	2687	 	 	 	1808703	 	2005-07-13 17:27:28.0	Ventana	 	00:54:20:16	 	V2687-01
 	ascend	Medusae	344.99	2693	 	36.693405	-122.061356	1758933	1.25	2005-07-25 21:09:58.0	Ventana	34.238	03:34:31:10	7.392	V2693-04
 	transect	Pennatulacea sp.1	599.81	2680	 	36.778267	-122.22345	1804377	0.36	2005-06-27 17:56:18.0	Ventana	34.378	00:36:25:10	5.591	V2680-01
 	descend	Mysidae	1187.72	2682	 	36.69848	-122.05832	1722239	0.68	2005-07-08 19:33:16.0	Ventana	34.571	03:25:52:16	3.391	V2682-04
 	transect	Neptunea amianta	602.1	2680	 	36.79077	-122.232834	1806807	0.35	2005-06-27 20:22:51.0	Ventana	34.379	03:01:27:02	5.587	V2680-03
 	transect	zoarcidae	400.73	2681	 	36.697834	-122.053535	2493217	0.79	2005-07-07 17:49:43.0	Ventana	34.278	01:20:07:16	6.66	V2681-02HD
 	transect	Phyllospadix	199.67	2696	 	36.804317	-122.126205	1813424	1.52	2005-08-01 17:45:04.0	Ventana	34.209	01:12:57:27	8.662	V2696-02
 	descend	Calycophorae	526.5	2683	 	36.701477	-122.04913	1756909	0.56	2005-07-11 17:42:08.0	Ventana	34.319	01:26:15:17	6.262	V2683-02
 	transect	Psolus squamatus	399.87	2687	 	36.788136	-122.121635	1809252	1.13	2005-07-13 17:37:39.0	Ventana	34.243	01:04:01:20	7.26	V2687-02
 	transect	Mesomyaria	998.93	2669	 	36.730923	-122.229904	1651187	0.45	2005-05-25 18:13:33.0	Ventana	34.521	00:36:00:01	3.906	V2669-01
 	transect	Appendicularia	600.58	2681	 	36.696297	-122.0519	2493720	0.3	2005-07-07 18:21:23.0	Ventana	34.386	01:51:43:23	5.487	V2681-02HD
 	cruise	Gorgonocephalus	99.67	2688	 	36.81335	-122.01988	1679522	1.94	2005-07-14 21:27:38.0	Ventana	34.105	05:11:50:19	8.895	V2688-05
 	transect	Mesomyaria	802.95	2674	 	36.75084	-122.22006	1803671	0.34	2005-06-08 19:07:02.0	Ventana	34.482	01:51:04:02	4.385	V2674-02
 	transect	Porifera	 	2687	 	 	 	1812718	 	2005-07-13 20:54:41.0	Ventana	 	04:19:10:27	 	V2687-05
 	transect	Mesomyaria	998.59	2669	 	36.73111	-122.230736	1683412	0.45	2005-05-25 18:20:18.0	Ventana	34.522	00:42:44:29	3.913	V2669-01
 	transect	Leuckartiara	100.55	2681	 	36.69983	-122.05429	2489548	2.13	2005-07-07 16:44:34.0	Ventana	34.067	00:15:43:11	9.144	V2681-01HD
 	transect	Phyllospadix	799.32	2674	 	36.75251	-122.20441	1799578	0.35	2005-06-08 17:51:25.0	Ventana	34.486	00:35:58:14	4.385	V2674-01
 	transect	Phyllospadix	801.58	2674	 	36.752254	-122.20707	1800017	0.36	2005-06-08 18:05:06.0	Ventana	34.488	00:49:38:17	4.348	V2674-01
 	ascend	Appendicularia	346.68	2681	 	36.699333	-122.05516	1718082	1.1	2005-07-07 20:52:55.443	Ventana	34.247	04:21:16:10	7.233	V2681-05
 	ascend	Phialidium	667.5	2681	 	36.69876	-122.054344	1717643	0.28	2005-07-07 20:23:51.067	Ventana	34.41	03:52:52:20	5.204	V2681-04
 	transect	Mediaster	 	2687	 	 	 	1807010	 	2005-07-13 16:54:31.0	Ventana	 	00:21:26:05	 	V2687-01
 	transect	Psolus squamatus	 	2687	 	 	 	1810115	 	2005-07-13 18:58:11.0	Ventana	 	02:23:55:29	 	V2687-03
 	transect	Appendicularia	300.45	2681	 	36.6984	-122.053566	2491948	1.25	2005-07-07 17:20:02.0	Ventana	34.234	00:51:09:16	7.43	V2681-01HD
 	descend	Calycophorae	495.86	2682	 	36.6986	-122.05978	1720827	0.46	2005-07-08 17:59:09.0	Ventana	34.342	01:52:38:24	6.055	V2682-02
 	transect	Amphipoda	400.76	2681	 	36.69649	-122.05201	2493014	0.79	2005-07-07 17:44:06.0	Ventana	34.277	01:14:28:16	6.641	V2681-02HD
 	ascend	Doliolenetta	785.33	2681	 	36.698902	-122.056496	1717440	0.28	2005-07-07 20:03:44.967	Ventana	34.457	03:32:47:09	4.699	V2681-04
 	transect	Rathbunaster californicus	 	2687	 	 	 	1811370	 	2005-07-13 20:09:50.0	Ventana	 	03:34:50:04	 	V2687-04
 	transect	Mesomyaria	1000.45	2669	 	36.731506	-122.24235	1694498	0.41	2005-05-25 19:41:15.0	Ventana	34.509	02:03:12:15	4.06	V2669-02
 	ascend	Nanomia	258.17	2681	 	36.697838	-122.05522	1719494	 	2005-07-07 21:29:59.0	Ventana	 	05:08:15:27	 	V2681-05
 	transect	Corallimorphus pilatus	 	2687	 	 	 	1810821	 	2005-07-13 19:35:21.0	Ventana	 	03:01:03:29	 	V2687-03
 	cruise	sinker	1218.19	2683	 	36.70634	-122.04752	1757615	0.73	2005-07-11 20:08:48.0	Ventana	34.575	03:43:11:27	3.34	V2683-04
 	transect	Euphausia	200.41	2681	 	36.698284	-122.05331	2490960	1.7	2005-07-07 17:10:13.0	Ventana	34.194	00:41:20:26	8.329	V2681-01HD
 	ascend	Nanomia	216.61	2693	 	36.6912	-122.06253	1759136	1.66	2005-07-25 21:24:02.0	Ventana	34.197	03:48:34:13	8.61	V2693-04
 	transect	Poeobius meseres	500.56	2681	 	36.696926	-122.05252	2493563	0.44	2005-07-07 17:59:28.0	Ventana	34.346	01:29:52:02	6.023	V2681-02HD
 	transect	Psolus squamatus	399.86	2687	 	36.788017	-122.12144	1809049	1.15	2005-07-13 17:35:10.0	Ventana	34.24	01:01:32:23	7.293	V2687-02
 	transect	Mediaster	 	2687	 	 	 	1808823	 	2005-07-13 17:30:15.0	Ventana	 	00:57:08:00	 	V2687-01
 	transect	Umbellula lindahli	599.72	2680	 	36.777588	-122.22261	1804294	0.36	2005-06-27 17:47:52.0	Ventana	34.378	00:27:59:04	5.587	V2680-01
 	cruise	Rathbunaster californicus	414.98	2688	 	36.806065	-122.019226	1677727	0.93	2005-07-14 17:49:04.0	Ventana	34.27	01:34:46:27	6.957	V2688-02
 	transect	Appendicularia	400.74	2681	 	36.696953	-122.05257	2493074	0.79	2005-07-07 17:46:06.0	Ventana	34.277	01:16:29:21	6.659	V2681-02HD
 	ascend	sinker	522.62	2681	 	36.698963	-122.05425	1717736	0.45	2005-07-07 20:33:32.467	Ventana	34.343	04:02:32:14	6.068	V2681-04
 	descend	Aegina	903.96	2683	 	36.70339	-122.048325	1757269	0.38	2005-07-11 18:37:23.0	Ventana	34.501	02:17:47:02	4.222	V2683-03
 	transect	Ceriantharia sp. 1	598.5	2680	 	36.781704	-122.22683	1805046	0.36	2005-06-27 18:40:01.0	Ventana	34.379	01:19:07:01	5.596	V2680-02
 	ascend	Lensia	367.55	2693	 	36.69468	-122.06101	1758850	1.24	2005-07-25 21:00:07.0	Ventana	34.234	03:24:39:18	7.344	V2693-04
 	transect	Bathyraja kincaidii	399.69	2687	http://search.mbari.org/ARCHIVE/frameGrabs/Ventana/images/2687/01_46_33_15.jpg	36.789257	-122.12452	1809575	1.17	2005-07-13 18:20:14.0	Ventana	34.239	01:46:33:15	7.346	V2687-02
 	transect	Phyllospadix	802.46	2674	 	36.75223	-122.20641	1799934	0.36	2005-06-08 18:01:45.0	Ventana	34.489	00:46:17:14	4.339	V2674-01
 	transect	Poeobius meseres	600.53	2681	 	36.69732	-122.05312	2493826	0.3	2005-07-07 18:26:06.0	Ventana	34.35	01:56:27:27	5.469	V2681-02HD
 	endtransect	color bars	900.98	2681	 	36.69487	-122.05052	1716508	0.39	2005-07-07 19:16:45.667	Ventana	34.505	02:46:27:21	4.169	V2681-03
 	ascend	Bolinopsis	258.17	2681	 	36.697838	-122.05522	1719471	 	2005-07-07 21:29:59.0	Ventana	 	05:06:22:00	 	V2681-05
 	transect	Chionoecetes tanneri	799.16	2674	 	36.751553	-122.21418	1801346	0.35	2005-06-08 18:39:43.0	Ventana	34.489	01:23:47:11	4.335	V2674-02
 	transect	Ophiuroidea	999.89	2669	 	36.73112	-122.23525	1684298	0.45	2005-05-25 18:52:33.0	Ventana	34.523	01:14:33:01	3.921	V2669-02
 	transect	Mesomyaria	999.93	2669	 	36.731293	-122.23817	1688827	0.43	2005-05-25 19:15:59.0	Ventana	34.518	01:37:58:12	3.957	V2669-02
 	descend	Poeobius meseres	700.3	2682	 	36.69863	-122.05999	1721436	0.29	2005-07-08 18:14:36.0	Ventana	34.429	02:07:40:23	5.047	V2682-03
 	ascend	Nanomia	446.61	2683	 	36.70423	-122.050575	1758021	0.78	2005-07-11 21:18:23.0	Ventana	34.284	04:51:15:13	6.677	V2683-05
 	transect	Lycenchelys camchatica	801.27	2674	http://search.mbari.org/ARCHIVE/frameGrabs/Ventana/images/2674/00_12_04_12.jpg	36.7525	-122.200134	20003876	0.29	2005-06-08 17:27:29.0	Ventana	34.466	00:12:04:12	4.639	V2674-01
 	transect	Phyllospadix	802.15	2674	 	36.751747	-122.210365	1801009	0.35	2005-06-08 18:21:36.0	Ventana	34.488	01:05:41:06	4.332	V2674-02
 	transect	Rathbunaster californicus	197.25	2696	 	36.80341	-122.1237	1813198	1.56	2005-08-01 17:19:02.0	Ventana	34.196	00:47:20:03	8.63	V2696-01
 	transect	Coryphaenoides acrolepis	998.66	2669	 	36.732853	-122.251976	1737264	0.4	2005-05-25 20:44:48.0	Ventana	34.509	03:05:36:02	4.076	V2669-04
 	transect	Ophiuroidea	999.75	2669	 	36.731003	-122.23385	1683975	0.45	2005-05-25 18:40:50.0	Ventana	34.522	01:02:51:04	3.913	V2669-02
 	transect	Gastropoda sp.2	1000.04	2669	 	36.731033	-122.23953	1694738	0.41	2005-05-25 19:24:17.0	Ventana	34.511	01:46:15:14	4.061	V2669-02
 	transect	Asteronyx loveni	1000.48	2669	 	36.732166	-122.248474	1736221	0.41	2005-05-25 20:22:23.0	Ventana	34.51	02:43:51:17	4.059	V2669-03
 	transect	molt	100.49	2681	 	36.69919	-122.05388	2489834	2.13	2005-07-07 16:51:30.0	Ventana	34.068	00:22:39:29	9.141	V2681-01HD
 	descend	Copepoda	874.57	2682	 	36.698296	-122.05944	1721759	0.33	2005-07-08 18:49:47.0	Ventana	34.489	02:42:49:03	4.355	V2682-03
 	transect	Allocentrotus fragilis	 	2687	 	 	 	1807227	 	2005-07-13 17:04:16.0	Ventana	 	00:31:10:08	 	V2687-01
 	transect	Nanomia bijuga	200.44	2681	 	36.69828	-122.0533	2490863	1.71	2005-07-07 17:09:19.0	Ventana	34.195	00:40:26:23	8.326	V2681-01HD
 	transect	Calycophorae	1000.98	2681	 	36.696255	-122.05249	2498678	0.47	2005-07-07 19:28:55.0	Ventana	34.529	02:58:35:28	3.873	V2681-03HD
 	transect	Phyllospadix	999.94	2669	 	36.73143	-122.23678	1686923	0.44	2005-05-25 19:04:14.0	Ventana	34.519	01:26:14:02	3.946	V2669-02
 	transect	Mesomyaria	801.83	2674	 	36.75091	-122.21966	1803634	0.34	2005-06-08 19:05:06.0	Ventana	34.479	01:49:08:06	4.367	V2674-02
 	ascend	Appendicularia	335.44	2681	 	36.699493	-122.05527	1718119	1.16	2005-07-07 20:54:41.2	Ventana	34.242	04:23:01:29	7.303	V2681-05
 	transect	Psolus squamatus	399.84	2687	 	36.788048	-122.121544	1809146	1.13	2005-07-13 17:36:10.0	Ventana	34.242	01:02:32:10	7.271	V2687-02
 	transect	Phyllospadix	 	2687	 	 	 	1811310	 	2005-07-13 20:06:29.0	Ventana	 	03:31:28:16	 	V2687-04
 	transect	Rathbunaster californicus	200.45	2696	 	36.804752	-122.127266	1813521	1.51	2005-08-01 17:55:46.0	Ventana	34.213	01:23:38:21	8.671	V2696-02
 	transect	Mesomyaria	801.25	2674	 	36.75217	-122.20793	1800686	0.35	2005-06-08 18:09:33.0	Ventana	34.49	00:54:05:10	4.329	V2674-01
 	transect	Porifera	 	2687	 	 	 	1811463	 	2005-07-13 20:13:46.0	Ventana	 	03:38:45:04	 	V2687-04
 	transect	Microstomus pacificus	999.89	2669	 	36.730927	-122.231445	1683638	0.45	2005-05-25 18:27:02.0	Ventana	34.521	00:49:28:05	3.919	V2669-01
 	transect	Calycophorae	700.59	2681	 	36.695087	-122.05079	2497986	0.28	2005-07-07 18:48:13.0	Ventana	34.43	02:17:55:09	4.983	V2681-03HD
 	ascend	Appendicularia	963.45	2681	 	36.697235	-122.05366	1716831	0.43	2005-07-07 19:39:14.8	Ventana	34.519	03:08:18:19	4.022	V2681-04
 	transect	Phyllospadix	999.14	2669	 	36.732758	-122.25137	1737204	0.41	2005-05-25 20:41:17.0	Ventana	34.509	03:02:06:12	4.072	V2669-04
 	ascend	Calycophorae	598.58	2682	 	36.698757	-122.06106	1723494	0.34	2005-07-08 20:50:43.0	Ventana	34.374	04:42:49:28	5.632	V2682-05
 	ascend	Appendicularia	370.98	2693	 	36.69636	-122.06075	1758667	1.2	2005-07-25 20:27:13.0	Ventana	34.231	03:06:45:08	7.163	V2693-03
 	cruise	Microstomus pacificus	620.05	2688	http://search.mbari.org/ARCHIVE/frameGrabs/Ventana/images/2688/00_15_48_09.jpg	36.794346	-122.019516	1677298	0.42	2005-07-14 16:29:30.0	Ventana	34.402	00:15:48:09	5.299	V2688-01
 	transect	Mediaster	 	2687	 	 	 	1812215	 	2005-07-13 20:29:19.0	Ventana	 	03:54:17:09	 	V2687-04
 	ascend	Poeobius meseres	1166.42	2682	 	36.698257	-122.057495	1722479	0.64	2005-07-08 19:53:46.0	Ventana	34.564	03:46:21:17	3.465	V2682-04
 	transect	Mediaster	 	2687	 	 	 	1812478	 	2005-07-13 20:41:00.0	Ventana	 	04:05:57:28	 	V2687-04
 	transect	Mesomyaria	999.83	2669	 	36.731323	-122.23799	1688321	0.43	2005-05-25 19:14:44.0	Ventana	34.518	01:36:43:08	3.959	V2669-02
 	descend	Copepoda	255.07	2693	 	36.698402	-122.06164	1758404	1.44	2005-07-25 19:25:28.0	Ventana	34.242	02:05:30:12	8.313	V2693-02
 	transect	Mesomyaria	801.25	2674	 	36.751755	-122.21097	1801069	0.35	2005-06-08 18:24:01.0	Ventana	34.491	01:08:05:22	4.329	V2674-02
 	transect	Mediaster	 	2687	 	 	 	1810987	 	2005-07-13 19:46:12.0	Ventana	 	03:11:14:00	 	V2687-04
 	transect	Euphausia	100.57	2681	 	36.69983	-122.05429	2489511	2.12	2005-07-07 16:43:19.0	Ventana	34.068	00:14:28:26	9.15	V2681-01HD
 	transect	Umbellula lindahli	598.3	2680	 	36.781403	-122.22648	1804986	0.36	2005-06-27 18:36:12.0	Ventana	34.378	01:15:17:11	5.599	V2680-02
 	ascend	Appendicularia	989.65	2681	 	36.6968	-122.05317	1716568	0.45	2005-07-07 19:33:47.2	Ventana	34.524	03:03:28:05	3.946	V2681-03
 	transect	Umbellula lindahli	599.79	2680	 	36.77811	-122.223274	1804354	0.36	2005-06-27 17:54:06.0	Ventana	34.378	00:34:13:16	5.59	V2680-01
 	transect	Mesomyaria	997.4	2669	 	36.730637	-122.2276	1649185	0.45	2005-05-25 17:58:01.0	Ventana	34.52	00:20:29:16	3.909	V2669-01
 	transect	chuniphyes	400.78	2681	 	36.69733	-122.052986	2493134	0.79	2005-07-07 17:47:39.0	Ventana	34.279	01:18:02:14	6.663	V2681-02HD
 	transect	Psolus squamatus	 	2687	 	 	 	1810235	 	2005-07-13 19:11:18.0	Ventana	 	02:37:02:18	 	V2687-03
 	ascend	Appendicularia	888.19	2681	 	36.698147	-122.055084	1717320	0.36	2005-07-07 19:50:28.22	Ventana	34.503	03:19:31:11	4.226	V2681-04
 	ascend	Nanomia	203.04	2693	 	36.69091	-122.06267	1759173	1.76	2005-07-25 21:25:26.0	Ventana	34.225	03:49:57:08	8.907	V2693-04
 	transect	Mediaster	 	2687	 	 	 	1811846	 	2005-07-13 20:26:59.0	Ventana	 	03:51:57:22	 	V2687-04
 	ascend	Appendicularia	655.3	2683	 	36.70529	-122.04985	1757915	0.28	2005-07-11 21:08:50.0	Ventana	34.422	04:41:43:15	5.161	V2683-05
 	transect	Mesomyaria	999.24	2669	 	36.731163	-122.235634	1684358	0.45	2005-05-25 18:54:40.0	Ventana	34.522	01:16:40:09	3.927	V2669-02
 	transect	Gastropoda	200.02	2696	 	36.804527	-122.1267	1813461	1.51	2005-08-01 17:49:55.0	Ventana	34.212	01:17:47:27	8.668	V2696-02
 	descend	Copepoda	386.79	2682	 	36.698406	-122.0599	1720684	0.92	2005-07-08 17:35:57.0	Ventana	34.26	01:29:28:09	6.907	V2682-02
 	transect	Allocentrotus fragilis	 	2687	 	 	 	1811250	 	2005-07-13 20:05:30.0	Ventana	 	03:30:29:27	 	V2687-04
 	ascend	Chuniphyes	712.23	2681	 	36.698704	-122.055084	1717583	0.29	2005-07-07 20:19:30.933	Ventana	34.43	03:48:32:09	5.018	V2681-04
 	descend	Appendicularia	382.8	2683	 	36.701454	-122.04979	1756609	1.05	2005-07-11 16:58:21.0	Ventana	34.244	00:46:01:20	6.991	V2683-01
 	transect	Psolus squamatus	 	2687	 	 	 	1809898	 	2005-07-13 18:47:43.0	Ventana	 	02:13:29:10	 	V2687-03
 	transect	Medusae	1001.0	2681	 	36.695496	-122.05151	2498618	0.48	2005-07-07 19:25:06.0	Ventana	34.534	02:54:45:21	3.849	V2681-03HD
 	transect	Ophiuroidea	1000.53	2669	 	36.732388	-122.2496	1736604	0.41	2005-05-25 20:30:32.0	Ventana	34.509	02:52:00:26	4.069	V2669-03
 	transect	Psolus squamatus	 	2687	 	 	 	1807287	 	2005-07-13 17:05:01.0	Ventana	 	00:31:55:03	 	V2687-01
 	transect	Phyllospadix	399.46	2687	 	36.789364	-122.12494	1809635	1.15	2005-07-13 18:27:16.0	Ventana	34.24	01:53:35:05	7.321	V2687-02
 	transect	Brisaster	999.52	2669	 	36.73102	-122.23122	1683578	0.45	2005-05-25 18:25:02.0	Ventana	34.522	00:47:28:20	3.913	V2669-01
 	cruise	sinker	1210.31	2683	 	36.706768	-122.04761	1757652	0.72	2005-07-11 20:13:07.0	Ventana	34.575	03:47:29:13	3.343	V2683-04
 	ascend	Nanomia	258.17	2681	 	36.697838	-122.05522	1719531	 	2005-07-07 21:29:59.0	Ventana	 	05:11:42:26	 	V2681-05
 	cruise	Siphonophora	94.51	2688	 	36.814724	-122.018265	1679462	1.95	2005-07-14 21:03:47.0	Ventana	34.097	04:48:01:18	8.933	V2688-05
 	ascend	Poeobius meseres	1062.21	2682	 	36.698036	-122.057556	1722742	0.51	2005-07-08 20:01:24.0	Ventana	34.536	03:53:58:28	3.767	V2682-04
 	transect	Umbellula lindahli	598.96	2680	 	36.78022	-122.225266	1804617	0.35	2005-06-27 18:20:18.0	Ventana	34.382	01:00:23:18	5.563	V2680-01
 	transect	Stomphia	1000.36	2669	 	36.731045	-122.23968	1689196	0.41	2005-05-25 19:25:56.0	Ventana	34.511	01:47:54:11	4.062	V2669-02
 	transect	Mesomyaria	999.78	2669	 	36.731342	-122.23792	1687569	0.44	2005-05-25 19:14:10.0	Ventana	34.52	01:36:08:25	3.94	V2669-02
 	ascend	Euphausiacea	264.55	2681	 	36.69895	-122.05631	1718751	1.42	2005-07-07 21:17:43.733	Ventana	34.228	04:46:02:17	7.94	V2681-05
 	transect	molt	100.48	2681	 	36.69972	-122.05422	2489774	2.13	2005-07-07 16:50:15.0	Ventana	34.067	00:21:25:01	9.159	V2681-01HD
 	transect	lensia	300.45	2681	 	36.69823	-122.0535	2491985	1.24	2005-07-07 17:20:40.0	Ventana	34.232	00:51:48:03	7.415	V2681-01HD
 	ascend	Copepoda	924.53	2681	 	36.697704	-122.05428	1716997	0.4	2005-07-07 19:44:57.467	Ventana	34.507	03:14:00:14	4.154	V2681-04
 	transect	Psolus squamatus	 	2687	http://search.mbari.org/ARCHIVE/frameGrabs/Ventana/images/2687/03_40_03_15.jpg	 	 	1811523	 	2005-07-13 20:15:04.0	Ventana	 	03:40:03:15	 	V2687-04
 	descend	Appendicularia	190.73	2693	 	36.696075	-122.05817	1758284	1.81	2005-07-25 18:14:25.0	Ventana	34.184	00:54:54:29	8.892	V2693-01
 	ascend	Euphausiacea	253.91	2681	 	36.698273	-122.055695	1719208	1.46	2005-07-07 21:25:02.3	Ventana	34.227	04:53:21:06	8.0	V2681-05
 	transect	Psolus squamatus	399.86	2687	http://search.mbari.org/ARCHIVE/frameGrabs/Ventana/images/2687/01_02_12_24.jpg	36.788044	-122.12152	1809086	1.14	2005-07-13 17:35:50.0	Ventana	34.237	01:02:12:24	7.276	V2687-02
 	transect	Appendicularia	200.41	2681	 	36.698284	-122.05331	2490923	1.7	2005-07-07 17:09:49.0	Ventana	34.189	00:40:57:17	8.321	V2681-01HD
 	transect	Mesomyaria	998.96	2669	 	36.7314	-122.23647	1684787	0.44	2005-05-25 19:01:29.0	Ventana	34.52	01:23:28:07	3.941	V2669-02
 	descend	Nanomia	168.3	2683	 	36.7008	-122.05139	1756300	1.7	2005-07-11 16:30:59.0	Ventana	34.177	00:18:40:27	8.733	V2683-01
 	transect	Psolus squamatus	 	2687	 	 	 	1812801	 	2005-07-13 20:58:23.0	Ventana	 	04:22:52:24	 	V2687-05
 	transect	Ophiuroidea	998.54	2669	 	36.731106	-122.23068	1683375	0.45	2005-05-25 18:19:39.0	Ventana	34.521	00:42:06:07	3.911	V2669-01
 	ascend	Nanomia	389.18	2681	 	36.69932	-122.05458	1717999	0.92	2005-07-07 20:48:45.813	Ventana	34.269	04:17:06:29	6.952	V2681-05
 	transect	Ceriantharia sp. 1	801.17	2674	 	36.75099	-122.21837	1803574	0.35	2005-06-08 18:59:46.0	Ventana	34.491	01:43:48:27	4.343	V2674-02
 	ascend	Appendicularia	305.94	2681	 	36.699673	-122.05526	1718179	1.29	2005-07-07 20:58:43.933	Ventana	34.232	04:27:04:14	7.589	V2681-05
 	transect	Mesomyaria	998.78	2669	 	36.730873	-122.22965	1651150	0.45	2005-05-25 18:12:03.0	Ventana	34.522	00:34:30:23	3.907	V2669-01
 	descend	Euphausia 2	212.14	2682	 	36.69989	-122.06071	1719960	1.86	2005-07-08 16:21:14.0	Ventana	34.174	00:15:18:20	7.97	V2682-01
 	cruise	Sebastolobus	527.68	2688	 	36.798893	-122.019356	1677464	0.62	2005-07-14 17:03:57.0	Ventana	34.331	00:50:15:27	6.273	V2688-01
 	ascend	Appendicularia	999.69	2682	 	36.697727	-122.05826	1722908	0.45	2005-07-08 20:05:52.0	Ventana	34.523	03:58:25:12	3.939	V2682-04
 	cruise	Chionoecetes tanneri	1236.98	2683	 	36.705673	-122.04805	1757532	0.72	2005-07-11 19:48:48.0	Ventana	34.575	03:23:12:10	3.345	V2683-04
 	transect	Porifera sp. 1	 	2687	http://search.mbari.org/ARCHIVE/frameGrabs/Ventana/images/2687/00_25_56_27.jpg	 	 	1806890	 	2005-07-13 16:59:03.0	Ventana	 	00:25:56:27	 	V2687-01
 	descend	Lensia	327.78	2682	 	36.698868	-122.06068	1720163	1.11	2005-07-08 17:08:32.0	Ventana	34.244	01:02:04:24	7.237	V2682-02
 	cruise	Rathbunaster californicus	471.34	2676	 	36.802353	-122.02936	1676266	0.56	2005-06-14 16:33:06.0	Ventana	34.339	00:17:15:17	6.142	V2676-01
 	transect	Mesomyaria	1000.28	2669	 	36.730946	-122.23339	1683901	0.45	2005-05-25 18:38:35.0	Ventana	34.522	01:01:00:10	3.912	V2669-01
 	transect	Mesomyaria	999.25	2669	 	36.731083	-122.23502	1684238	0.45	2005-05-25 18:50:14.0	Ventana	34.522	01:12:14:09	3.92	V2669-02
 	transect	Mesomyaria	999.62	2669	 	36.731358	-122.23761	1687509	0.44	2005-05-25 19:11:30.0	Ventana	34.52	01:33:29:17	3.949	V2669-02
 	transect	Ophiuroidea	998.97	2669	 	36.731377	-122.23608	1684561	0.44	2005-05-25 18:58:08.0	Ventana	34.522	01:20:07:20	3.94	V2669-02
 	ascend	Poralia rufescens	1183.29	2683	 	36.70734	-122.04792	1757712	0.71	2005-07-11 20:24:59.0	Ventana	34.571	03:59:20:12	3.369	V2683-04
 	transect	Mediaster	 	2687	 	 	 	1812598	 	2005-07-13 20:46:39.0	Ventana	 	04:11:09:28	 	V2687-05
 	transect	Ceriantharia sp. 2	999.54	2669	 	36.731266	-122.23587	1684418	0.44	2005-05-25 18:56:32.0	Ventana	34.52	01:18:31:16	3.932	V2669-02
 	ascend	Poeobius meseres	1078.61	2682	 	36.698055	-122.05753	1722682	0.56	2005-07-08 20:00:06.0	Ventana	34.55	03:52:41:18	3.652	V2682-04
 	ascend	Chaetognatha	848.34	2681	 	36.698578	-122.05583	1717380	0.33	2005-07-07 19:55:20.933	Ventana	34.49	03:24:23:09	4.36	V2681-04
 	ascend	Appendicularia	873.59	2682	 	36.698483	-122.05846	1723231	0.33	2005-07-08 20:18:15.0	Ventana	34.489	04:10:24:06	4.34	V2682-05
 	ascend	sinker	730.45	2683	 	36.706093	-122.04862	1757855	0.3	2005-07-11 21:04:23.0	Ventana	34.454	04:37:15:27	4.724	V2683-05
 	transect	Mediaster	 	2687	 	 	 	1810724	 	2005-07-13 19:29:51.0	Ventana	 	02:55:34:20	 	V2687-03
 	descend	Physonectae	429.68	2683	 	36.701466	-122.04955	1756669	0.87	2005-07-11 17:06:29.0	Ventana	34.267	00:54:08:19	6.799	V2683-01
 	transect	Corallimorphus pilatus	 	2687	 	 	 	1809838	 	2005-07-13 18:45:18.0	Ventana	 	02:11:04:07	 	V2687-03
 	transect	Leuroglossus stilbius	500.59	2681	 	36.6958	-122.05124	2493660	0.43	2005-07-07 18:04:26.0	Ventana	34.348	01:34:48:23	6.007	V2681-02HD
 	ascend	Chuniphyes	759.91	2681	 	36.69868	-122.05592	1717523	0.29	2005-07-07 20:12:09.367	Ventana	34.448	03:41:11:05	4.814	V2681-04
 	ascend	Poeobius meseres	1129.72	2682	 	36.69815	-122.057526	1722539	0.6	2005-07-08 19:56:45.0	Ventana	34.56	03:49:20:17	3.532	V2682-04
 	descend	Appendicularia	817.75	2683	 	36.70271	-122.04862	1757195	0.31	2005-07-11 18:15:56.0	Ventana	34.476	02:00:01:24	4.488	V2683-02
 	transect	Aegina	700.64	2681	 	36.696648	-122.05254	2497723	0.29	2005-07-07 18:41:09.0	Ventana	34.437	02:10:51:07	4.93	V2681-03HD
 	transect	Chionoecetes tanneri	1000.22	2669	 	36.731438	-122.24192	1689916	0.4	2005-05-25 19:38:59.0	Ventana	34.509	02:00:56:05	4.077	V2669-02
 	ascend	Nanomia	183.55	2693	 	36.690613	-122.06292	1759233	1.93	2005-07-25 21:29:29.0	Ventana	34.138	03:54:02:06	8.863	V2693-04
 	transect	Psolus squamatus	 	2687	 	 	 	1808943	 	2005-07-13 17:32:27.0	Ventana	 	00:59:19:08	 	V2687-01
 	transect	Calliostoma platinum	 	2687	 	 	 	1810175	 	2005-07-13 19:04:48.0	Ventana	 	02:30:32:23	 	V2687-03
 	transect	Rathbunaster californicus	196.47	2696	 	36.80317	-122.12291	1813138	1.56	2005-08-01 17:09:37.0	Ventana	34.196	00:37:55:24	8.626	V2696-01
 	transect	Sebastes saxicola	203.89	2696	http://search.mbari.org/ARCHIVE/frameGrabs/Ventana/images/2696/01_42_52_22.jpg	36.805267	-122.12821	1813687	1.48	2005-08-01 18:15:01.0	Ventana	34.215	01:42:52:22	8.635	V2696-02
 	transect	Calycophorae	901.06	2681	 	36.696655	-122.05279	2498295	0.39	2005-07-07 19:08:03.0	Ventana	34.506	02:37:44:22	4.17	V2681-03HD
 	descend	Appendicularia	626.35	2682	 	36.69862	-122.05983	1721270	0.29	2005-07-08 18:08:34.0	Ventana	34.397	02:01:38:19	5.369	V2682-03
 	transect	Phyllospadix	999.16	2669	 	36.73103	-122.231895	1683698	0.45	2005-05-25 18:29:40.0	Ventana	34.521	00:52:05:27	3.914	V2669-01
 	transect	Euphausia	200.36	2681	 	36.69829	-122.05334	2491066	1.69	2005-07-07 17:11:22.0	Ventana	34.196	00:42:30:20	8.332	V2681-01HD
 	transect	lobata	200.47	2681	 	36.69828	-122.05329	2490494	1.71	2005-07-07 17:07:08.0	Ventana	34.197	00:38:17:04	8.341	V2681-01HD
 	descend	Nanomia	247.46	2683	 	36.70094	-122.05058	1756443	1.67	2005-07-11 16:50:26.0	Ventana	34.193	00:38:06:19	8.037	V2683-01
 	transect	Mesomyaria	799.54	2674	 	36.752457	-122.205185	1799731	0.35	2005-06-08 17:55:53.0	Ventana	34.49	00:40:25:26	4.357	V2674-01
 	transect	Mediaster	 	2687	 	 	 	1811726	 	2005-07-13 20:22:39.0	Ventana	 	03:47:37:25	 	V2687-04
 	transect	Sebastes aurora	400.29	2687	http://search.mbari.org/ARCHIVE/frameGrabs/Ventana/images/2687/01_37_19_23.jpg	36.78903	-122.12391	1809515	1.17	2005-07-13 18:10:59.0	Ventana	34.235	01:37:19:23	7.356	V2687-02
 	descend	Cyclothone	581.88	2683	 	36.701897	-122.0491	1756992	0.37	2005-07-11 17:47:46.0	Ventana	34.364	01:31:52:19	5.862	V2683-02
 	transect	Phyllospadix	800.2	2674	 	36.752537	-122.20345	1799338	0.35	2005-06-08 17:46:10.0	Ventana	34.486	00:30:43:03	4.368	V2674-01
 	descend	Appendicularia	427.14	2682	 	36.698177	-122.059784	1720744	0.69	2005-07-08 17:41:52.0	Ventana	34.287	01:35:22:10	6.474	V2682-02
 	descend	Appendicularia	1010.98	2682	 	36.69831	-122.059235	1722022	0.45	2005-07-08 18:59:12.0	Ventana	34.524	02:52:12:24	3.953	V2682-03
 	transect	Mesomyaria	801.03	2674	 	36.75258	-122.20191	1799135	0.34	2005-06-08 17:38:29.0	Ventana	34.491	00:23:03:00	4.389	V2674-01
 	transect	Mesomyaria	999.91	2669	 	36.731968	-122.24622	1735649	0.41	2005-05-25 20:06:19.0	Ventana	34.509	02:27:48:29	4.063	V2669-03
 	transect	Sebastolobus altivelis	799.59	2674	 	36.752693	-122.20071	1774139	0.29	2005-06-08 17:32:11.0	Ventana	34.46	00:16:44:23	4.649	V2674-01
 	transect	Psolus squamatus	 	2687	 	 	 	1808763	 	2005-07-13 17:28:58.0	Ventana	 	00:55:50:09	 	V2687-01
 	transect	Mediaster	 	2687	 	 	 	1812275	 	2005-07-13 20:30:22.0	Ventana	 	03:55:20:03	 	V2687-04
 	transect	Mesomyaria	998.45	2669	 	36.731064	-122.23035	1651293	0.45	2005-05-25 18:17:15.0	Ventana	34.522	00:39:42:19	3.91	V2669-01
 	descend	Euphausiacea	370.57	2693	 	36.696457	-122.060425	1758607	1.2	2005-07-25 20:12:40.0	Ventana	34.231	02:52:14:18	7.163	V2693-03
 	ascend	Melanostigma pammelas	505.56	2682	 	36.698353	-122.06321	1723677	0.48	2005-07-08 21:13:32.0	Ventana	34.335	05:05:13:00	6.137	V2682-06
 	ascend	Nanomia	305.18	2683	 	36.70336	-122.05064	1758081	1.32	2005-07-11 21:24:23.0	Ventana	34.234	04:57:14:03	7.513	V2683-05
 	transect	Phyllospadix	399.87	2687	 	36.788128	-122.12177	1809312	1.13	2005-07-13 17:39:23.0	Ventana	34.241	01:05:45:16	7.267	V2687-02
 	ascend	Appendicularia	591.79	2682	 	36.698837	-122.06009	1723434	0.33	2005-07-08 20:40:20.0	Ventana	34.373	04:32:28:23	5.608	V2682-05
 	transect	Microstomus pacificus	199.46	2696	 	36.803825	-122.12513	1813318	1.52	2005-08-01 17:33:56.0	Ventana	34.206	01:02:12:21	8.638	V2696-01
 	transect	Melanostigma pammelas	700.59	2681	 	36.695576	-122.051414	2497926	0.28	2005-07-07 18:46:06.0	Ventana	34.435	02:15:48:24	4.948	V2681-03HD
 	transect	Caridea sp.1	800.45	2674	 	36.7512	-122.2165	1803431	0.35	2005-06-08 18:51:27.0	Ventana	34.487	01:35:29:26	4.367	V2674-02
 	transect	Dosidicus gigas	500.6	2681	 	36.69788	-122.053635	2493277	0.44	2005-07-07 17:55:17.0	Ventana	34.346	01:25:40:07	6.021	V2681-02HD
 	cruise	Actiniaria	273.25	2676	 	36.805286	-122.029396	1676712	1.5	2005-06-14 17:34:02.0	Ventana	34.211	01:13:46:10	7.952	V2676-02
 	transect	Sebastes diploproa	 	2687	 	 	 	1810927	 	2005-07-13 19:43:00.0	Ventana	 	03:08:02:09	 	V2687-04
 	transect	Euphausia	200.48	2681	 	36.69828	-122.05329	2490697	1.72	2005-07-07 17:08:21.0	Ventana	34.194	00:39:28:07	8.323	V2681-01HD
 	transect	Calycophorae	900.99	2681	 	36.69506	-122.05072	2498475	0.39	2005-07-07 19:15:51.0	Ventana	34.506	02:45:32:06	4.162	V2681-03HD
 	transect	Sebastolobus	 	2687	 	 	 	1811107	 	2005-07-13 19:53:32.0	Ventana	 	03:18:32:09	 	V2687-04
 	transect	Mesomyaria	999.61	2669	 	36.73049	-122.228775	1650924	0.45	2005-05-25 18:05:11.0	Ventana	34.523	00:27:39:16	3.906	V2669-01
 	transect	Ceriantharia sp. 2	 	2669	 	 	 	1737633	 	2005-05-25 13:54:01.0	Ventana	 	03:14:49:13	 	V2669-04
 	transect	Nanomia bijuga	200.37	2681	 	36.698315	-122.05341	2491246	1.67	2005-07-07 17:13:06.0	Ventana	34.201	00:44:14:10	8.34	V2681-01HD
 	transect	Phyllospadix	801.03	2674	 	36.752537	-122.20138	1774199	0.35	2005-06-08 17:35:28.0	Ventana	34.485	00:20:01:14	4.379	V2674-01
 	transect	Calliostoma platinum	 	2687	 	 	 	1810032	 	2005-07-13 18:51:50.0	Ventana	 	02:17:36:04	 	V2687-03
 	transect	Mesomyaria	999.79	2669	 	36.731415	-122.23708	1687449	0.44	2005-05-25 19:07:14.0	Ventana	34.521	01:29:12:27	3.946	V2669-02
 	ascend	Appendicularia	261.16	2681	 	36.69884	-122.05701	1719014	1.42	2005-07-07 21:20:54.83	Ventana	34.23	04:49:13:14	7.953	V2681-05
 	endtransect	physical object	999.51	2669	 	36.732677	-122.25119	1737061	0.41	2005-05-25 20:40:05.0	Ventana	34.508	03:00:51:29	4.071	V2669-03
 	descend	Aegina	523.17	2682	 	36.6986	-122.059784	1720864	0.39	2005-07-08 18:02:04.0	Ventana	34.358	01:55:32:16	5.861	V2682-02
 	cruise	Sebastes	442.42	2676	 	36.80317	-122.02924	1676349	0.64	2005-06-14 16:39:13.0	Ventana	34.318	00:23:21:28	6.4	V2676-01
 	transect	Nanomia bijuga	200.34	2681	 	36.698364	-122.05346	2491389	1.67	2005-07-07 17:13:56.0	Ventana	34.199	00:45:03:15	8.341	V2681-01HD
 	transect	Mesomyaria	1000.32	2669	 	36.730938	-122.23295	1683841	0.45	2005-05-25 18:36:30.0	Ventana	34.523	00:58:56:04	3.911	V2669-01
 	transect	Stomphia	 	2687	 	 	 	1812335	 	2005-07-13 20:32:33.0	Ventana	 	03:57:31:15	 	V2687-04
 	transect	Aegina	500.62	2681	 	36.696415	-122.05197	2493600	0.44	2005-07-07 18:01:29.0	Ventana	34.348	01:31:52:21	6.01	V2681-02HD
 	transect	Phyllospadix	197.78	2696	 	36.802666	-122.12168	1812995	1.52	2005-08-01 16:50:45.0	Ventana	34.209	00:19:04:12	8.554	V2696-01
 	transect	Mesomyaria	1000.41	2669	 	36.731224	-122.2411	1689376	0.41	2005-05-25 19:34:21.0	Ventana	34.51	01:56:18:08	4.055	V2669-02
 	transect	molt	100.51	2681	 	36.69983	-122.05429	2489654	2.13	2005-07-07 16:47:12.0	Ventana	34.069	00:18:22:25	9.147	V2681-01HD
 	transect	Euphausia	200.44	2681	 	36.69828	-122.05329	2490637	1.73	2005-07-07 17:07:57.0	Ventana	34.193	00:39:05:00	8.328	V2681-01HD
 	transect	Mesomyaria	999.72	2669	 	36.73134	-122.235954	1684501	0.44	2005-05-25 18:57:14.0	Ventana	34.521	01:19:13:27	3.934	V2669-02
 	transect	Dosidicus gigas	400.8	2681	 	36.695965	-122.05139	2492940	0.79	2005-07-07 17:41:47.0	Ventana	34.277	01:12:12:03	6.662	V2681-02HD
 	descend	Appendicularia	494.31	2683	 	36.701466	-122.049385	1756789	0.71	2005-07-11 17:25:03.0	Ventana	34.3	01:09:10:00	6.516	V2683-02
 	transect	Rathbunaster californicus	203.93	2696	 	36.806267	-122.12984	1813747	1.5	2005-08-01 18:24:57.0	Ventana	34.21	01:52:48:12	8.649	V2696-02
 	transect	Neptunea amianta	599.36	2680	 	36.77929	-122.22437	1804497	0.36	2005-06-27 18:08:00.0	Ventana	34.377	00:48:06:13	5.602	V2680-01
 	transect	Psolus squamatus	399.9	2687	 	36.78815	-122.121864	1809372	1.16	2005-07-13 17:40:28.0	Ventana	34.239	01:06:50:14	7.323	V2687-02
 	transect	Psolus squamatus	 	2687	 	 	 	1809026	 	2005-07-13 17:33:56.0	Ventana	 	01:00:48:03	 	V2687-01
 	transect	Pennatulacea sp.1	602.42	2680	 	36.79041	-122.23273	1806770	0.35	2005-06-27 20:19:16.0	Ventana	34.379	02:57:53:11	5.587	V2680-03
 	descend	Copepoda	1182.46	2682	 	36.698456	-122.058266	1722276	0.67	2005-07-08 19:37:49.0	Ventana	34.57	03:30:25:22	3.41	V2682-04
 	transect	Stomphia	800.7	2674	 	36.752506	-122.20285	1799255	0.34	2005-06-08 17:42:52.0	Ventana	34.482	00:27:25:27	4.383	V2674-01
 	transect	Ceriantharia sp. 2	998.14	2669	 	36.732975	-122.25226	1737407	0.4	2005-05-25 20:46:53.0	Ventana	34.508	03:07:41:22	4.076	V2669-04
 	transect	Rathbunaster californicus	199.61	2696	 	36.803963	-122.1255	1813341	1.52	2005-08-01 17:37:37.0	Ventana	34.206	01:05:30:27	8.643	V2696-02
 	descend	Nanomia	200.59	2683	 	36.70104	-122.05096	1756383	1.71	2005-07-11 16:47:03.0	Ventana	34.192	00:34:44:00	8.397	V2683-01
 	descend	Appendicularia	1085.63	2683	 	36.705112	-122.04891	1757449	0.53	2005-07-11 19:28:10.0	Ventana	34.536	03:08:31:04	3.779	V2683-03
 	transect	Rathbunaster californicus	 	2687	 	 	 	1812741	 	2005-07-13 20:55:39.0	Ventana	 	04:20:09:19	 	V2687-05
 	transect	Mesomyaria	800.39	2674	 	36.752426	-122.20473	1799661	0.36	2005-06-08 17:53:20.0	Ventana	34.488	00:37:53:03	4.355	V2674-01
 	transect	Nanomia bijuga	200.38	2681	 	36.69829	-122.05333	2491043	1.69	2005-07-07 17:11:08.0	Ventana	34.196	00:42:15:02	8.332	V2681-01HD
 	cruise	Parastichopus	242.65	2688	 	36.80971	-122.0205	1677930	1.56	2005-07-14 18:31:23.173	Ventana	34.187	02:16:39:00	8.28	V2688-03
 	ascend	Appendicularia	654.9	2682	 	36.6989	-122.059616	1723374	0.29	2005-07-08 20:35:34.0	Ventana	34.398	04:27:42:10	5.31	V2682-05
 	ascend	Nanomia	 	2683	 	 	 	1758141	 	2005-07-11 14:31:35.0	Ventana	 	05:04:26:11	 	V2683-05
 	descend	Appendicularia	360.82	2682	 	36.698517	-122.060135	1720426	1.0	2005-07-08 17:32:25.0	Ventana	34.258	01:25:55:20	7.07	V2682-02
 	transect	Mesomyaria	1000.33	2669	 	36.731983	-122.24645	1735672	0.41	2005-05-25 20:07:27.0	Ventana	34.51	02:28:57:12	4.065	V2669-03
 	transect	Mesomyaria	800.95	2674	 	36.751118	-122.217285	1803491	0.35	2005-06-08 18:55:15.0	Ventana	34.489	01:39:17:20	4.353	V2674-02
 	transect	Umbellula lindahli	598.59	2680	 	36.780838	-122.225815	1804820	0.35	2005-06-27 18:28:00.0	Ventana	34.38	01:07:06:03	5.57	V2680-02
 	cruise	Pannychia moseleyi	472.62	2688	 	36.80223	-122.01823	1677584	0.81	2005-07-14 17:29:13.0	Ventana	34.287	01:14:57:01	6.722	V2688-02
 	transect	Phyllospadix	800.05	2674	 	36.752117	-122.20873	1800806	0.35	2005-06-08 18:13:16.0	Ventana	34.489	00:57:47:20	4.334	V2674-01
 	cruise	Gorgonocephalus eucnemis	168.48	2688	http://search.mbari.org/ARCHIVE/frameGrabs/Ventana/images/2688/02_22_23_06.jpg	36.81076	-122.0217	20005209	1.94	2005-07-14 18:37:08.0	Ventana	34.098	02:22:23:06	8.91	V2688-03
 	transect	chuniphyes	300.42	2681	 	36.69738	-122.05286	2492271	1.23	2005-07-07 17:23:37.0	Ventana	34.232	00:54:45:07	7.397	V2681-01HD
 	transect	Psolus squamatus	 	2687	 	 	 	1807490	 	2005-07-13 17:11:40.0	Ventana	 	00:38:33:19	 	V2687-01
 	transect	Phyllospadix	800.37	2674	 	36.75244	-122.20538	1799791	0.36	2005-06-08 17:56:48.0	Ventana	34.487	00:41:21:03	4.361	V2674-01
 	transect	Ceriantharia sp. 1	599.85	2680	 	36.77866	-122.22387	1804414	0.36	2005-06-27 18:01:56.0	Ventana	34.378	00:42:02:20	5.587	V2680-01
 	cruise	Psolus squamatus	286.23	2688	http://search.mbari.org/ARCHIVE/frameGrabs/Ventana/images/2688/02_01_01_29.jpg	36.808945	-122.02033	1677870	1.4	2005-07-14 18:15:20.0	Ventana	34.211	02:01:01:29	7.935	V2688-02
 	descend	Bathocyroe	784.73	2681	 	36.694904	-122.05056	1716305	0.33	2005-07-07 18:51:32.833	Ventana	34.454	02:21:15:28	4.641	V2681-03
 	ascend	Solmissus	295.19	2694	 	36.784927	-122.20065	1676772	1.21	2005-07-27 21:08:08.0	Ventana	34.287	03:39:28:11	8.681	V2694-04
 	descend	Copepoda	1010.71	2683	 	36.704174	-122.05022	1757389	0.44	2005-07-11 19:20:42.0	Ventana	34.522	03:01:03:28	3.983	V2683-03
 	transect	Mediaster	 	2687	http://search.mbari.org/ARCHIVE/frameGrabs/Ventana/images/2687/02_54_32_28.jpg	 	 	1810701	 	2005-07-13 19:28:49.0	Ventana	 	02:54:32:28	 	V2687-03
 	cruise	Allocentrotus fragilis	182.66	2676	 	36.80781	-122.02987	1676832	1.63	2005-06-14 17:48:01.0	Ventana	34.198	01:27:45:05	8.129	V2676-02
 	transect	Mesomyaria	1000.4	2669	 	36.73154	-122.24276	1694535	0.4	2005-05-25 19:43:19.0	Ventana	34.506	02:05:16:14	4.087	V2669-02
 	transect	Mesomyaria	999.58	2669	 	36.731323	-122.23592	1684441	0.44	2005-05-25 18:57:03.0	Ventana	34.52	01:19:02:21	3.936	V2669-02
 	cruise	Sebastes	101.92	2688	 	36.81541	-122.01543	1679282	1.97	2005-07-14 19:42:23.0	Ventana	34.086	03:27:09:20	8.9	V2688-04
 	transect	Anthoptilum grandiflorum	998.31	2669	http://search.mbari.org/ARCHIVE/frameGrabs/Ventana/images/2669/01_08_37_22.jpg	36.731167	-122.234566	1684155	0.45	2005-05-25 18:46:37.0	Ventana	34.522	01:08:37:22	3.917	V2669-02
 	ascend	Appendicularia	831.74	2681	 	36.698757	-122.056206	1717403	0.31	2005-07-07 19:57:29.133	Ventana	34.483	03:26:31:11	4.429	V2681-04
 	transect	Mesomyaria	799.11	2674	 	36.751743	-122.2124	1801203	0.35	2005-06-08 18:29:31.0	Ventana	34.491	01:13:35:12	4.33	V2674-02
 	ascend	Cydippida	256.05	2681	 	36.698032	-122.055115	1719268	1.46	2005-07-07 21:27:33.033	Ventana	34.224	04:55:51:09	7.988	V2681-05
 	transect	doliolenetta	600.62	2681	 	36.69587	-122.051414	2493683	0.3	2005-07-07 18:19:28.0	Ventana	34.388	01:49:49:18	5.495	V2681-02HD
 	transect	Phyllospadix	800.34	2674	 	36.75175	-122.21186	1801152	0.35	2005-06-08 18:27:27.0	Ventana	34.489	01:11:31:21	4.341	V2674-02
 	descend	Myctophidae	 	2693	 	 	 	1759459	 	2005-07-25 16:46:24.0	Ventana	 	00:24:58:05	 	V2693-01
 	transect	Antimora microlepis	801.33	2674	 	36.751953	-122.20928	1800889	0.36	2005-06-08 18:15:53.0	Ventana	34.49	01:00:24:19	4.318	V2674-01
 	transect	Mesomyaria	999.87	2669	 	36.731285	-122.23809	1688361	0.43	2005-05-25 19:15:28.0	Ventana	34.518	01:37:26:19	3.959	V2669-02
 	descend	Solmaris	604.45	2681	 	36.695683	-122.051094	1715705	0.3	2005-07-07 18:12:18.587	Ventana	34.388	01:42:39:28	5.458	V2681-02
 	descend	Nanomia	157.73	2693	 	36.69628	-122.05774	1758201	1.97	2005-07-25 17:57:22.0	Ventana	34.117	00:37:52:15	8.964	V2693-01
 	transect	Psolus squamatus	 	2687	 	 	 	1808620	 	2005-07-13 17:25:37.0	Ventana	 	00:52:29:28	 	V2687-01
 	ascend	Appendicularia	727.47	2682	 	36.698803	-122.05926	1723314	0.28	2005-07-08 20:30:07.0	Ventana	34.437	04:22:15:15	4.913	V2682-05
 	ascend	Appendicularia	604.82	2682	 	36.698624	-122.06171	1723534	0.33	2005-07-08 20:57:39.0	Ventana	34.377	04:49:45:18	5.617	V2682-05
 	transect	Mesomyaria	801.56	2674	 	36.75225	-122.20736	1800054	0.37	2005-06-08 18:06:42.0	Ventana	34.485	00:51:14:12	4.355	V2674-01
 	ascend	Haliscera	292.63	2681	 	36.699734	-122.05522	1718202	1.34	2005-07-07 21:00:02.733	Ventana	34.234	04:28:23:20	7.697	V2681-05
 	transect	Mesomyaria	1000.23	2669	 	36.73163	-122.24329	1733805	0.41	2005-05-25 19:46:14.0	Ventana	34.51	02:07:45:01	4.065	V2669-03
 	transect	Rathbunaster californicus	 	2687	 	 	 	1812681	 	2005-07-13 20:51:56.0	Ventana	 	04:16:26:12	 	V2687-05
 	descend	Appendicularia	510.12	2683	 	36.701427	-122.04918	1756872	0.68	2005-07-11 17:40:11.0	Ventana	34.304	01:24:17:15	6.459	V2683-02
 	transect	Porifera sp. 1	 	2687	 	 	 	1812395	 	2005-07-13 20:36:31.0	Ventana	 	04:01:28:21	 	V2687-04
 	descend	Appendicularia	308.46	2682	 	36.69954	-122.060715	1720080	1.17	2005-07-08 16:39:36.0	Ventana	34.235	00:33:39:29	7.322	V2682-01
 	transect	Mysidae	700.62	2681	 	36.69576	-122.05163	2497866	0.28	2005-07-07 18:44:58.0	Ventana	34.435	02:14:40:15	4.945	V2681-03HD
 	cruise	Asteroidea	349.1	2676	 	36.80471	-122.029015	1676612	1.24	2005-06-14 17:07:45.0	Ventana	34.236	00:51:55:05	7.551	V2676-01
 	transect	Phyllospadix	801.22	2674	 	36.751957	-122.20976	1800949	0.35	2005-06-08 18:18:50.0	Ventana	34.489	01:02:54:25	4.328	V2674-02
 	transect	Glyptocephalus zachirus	198.29	2696	 	36.803608	-122.12443	1813258	1.53	2005-08-01 17:27:29.0	Ventana	34.204	00:55:46:15	8.617	V2696-01
 	transect	Mesomyaria	998.4	2669	 	36.731075	-122.230576	1651353	0.45	2005-05-25 18:18:52.0	Ventana	34.522	00:41:19:04	3.911	V2669-01
 	stationary	Appendicularia	504.12	2695	 	36.784546	-122.20047	1824473	0.67	2005-07-28 18:33:19.0	Ventana	34.296	01:21:36:05	6.285	V2695-02
 	transect	Salpida	300.44	2681	 	36.69783	-122.05324	2492128	1.23	2005-07-07 17:22:05.0	Ventana	34.233	00:53:11:13	7.4	V2681-01HD
 	transect	Mesomyaria	800.56	2674	 	36.752583	-122.202385	1799195	0.34	2005-06-08 17:40:40.0	Ventana	34.481	00:25:13:10	4.407	V2674-01
 	ascend	Sergestes similis	239.42	2693	 	36.6913	-122.06242	1759113	1.5	2005-07-25 21:22:43.0	Ventana	34.235	03:47:16:04	8.487	V2693-04
 	transect	Caridea sp.1	599.27	2680	 	36.77975	-122.22493	1804557	0.36	2005-06-27 18:15:07.0	Ventana	34.375	00:55:13:04	5.619	V2680-01
 	transect	Porifera	 	2687	 	 	 	1810295	 	2005-07-13 19:14:51.0	Ventana	 	02:40:35:26	 	V2687-03
 	descend	Chuniphyes	688.47	2683	 	36.70204	-122.048935	1757075	0.31	2005-07-11 17:53:33.0	Ventana	34.42	01:37:39:11	5.101	V2683-02
 	transect	Psolus squamatus	 	2687	 	 	 	1807144	 	2005-07-13 17:01:25.0	Ventana	 	00:28:19:07	 	V2687-01
 	transect	Rathbunaster californicus	203.37	2696	 	36.80672	-122.13031	1813807	1.48	2005-08-01 18:34:32.0	Ventana	34.217	02:02:22:16	8.637	V2696-02
 	transect	Phyllospadix	798.88	2674	 	36.751366	-122.21513	1801406	0.35	2005-06-08 18:44:35.0	Ventana	34.489	01:28:38:24	4.339	V2674-02
 	transect	Ceriantharia sp. 1	602.54	2680	 	36.787827	-122.232	1805935	0.36	2005-06-27 19:53:47.0	Ventana	34.379	02:32:24:24	5.589	V2680-03
 	transect	Psolus squamatus	 	2687	 	 	 	1811047	 	2005-07-13 19:49:22.0	Ventana	 	03:14:23:08	 	V2687-04
 	transect	Chionoecetes tanneri	999.91	2669	 	36.73109	-122.23916	1689113	0.43	2005-05-25 19:22:14.0	Ventana	34.515	01:44:12:04	3.978	V2669-02
 	transect	Pennatula phosphorea californica	1000.38	2669	 	36.73147	-122.24223	1694475	0.4	2005-05-25 19:40:41.0	Ventana	34.509	02:02:38:02	4.067	V2669-02
 	transect	Mediaster	 	2687	 	 	 	1807347	 	2005-07-13 17:07:32.0	Ventana	 	00:34:26:00	 	V2687-01
 	transect	Stomphia	 	2687	 	 	 	1810498	 	2005-07-13 19:21:01.0	Ventana	 	02:46:45:04	 	V2687-03
 	transect	Psolus squamatus	 	2687	 	 	 	1807693	 	2005-07-13 17:23:01.0	Ventana	 	00:49:53:16	 	V2687-01
 	ascend	Forskalia	345.11	2693	 	36.69377	-122.06115	1758910	1.25	2005-07-25 21:05:36.0	Ventana	34.236	03:30:08:16	7.394	V2693-04
 	transect	Nanomia bijuga	200.4	2681	 	36.6983	-122.05337	2491126	1.68	2005-07-07 17:12:10.0	Ventana	34.198	00:43:17:01	8.337	V2681-01HD
 	transect	Gastropoda sp.2	1000.25	2669	 	36.73122	-122.24089	1689316	0.41	2005-05-25 19:32:57.897	Ventana	34.511	01:54:56:00	4.058	V2669-02
 	descend	Mysidae	1012.87	2689	 	36.771427	-122.08294	1669603	0.54	2005-07-18 16:37:42.0	Ventana	34.533	00:00:46:15	3.898	V2689-01
 	descend	Appendicularia	478.48	2682	 	36.69857	-122.05972	1720804	0.52	2005-07-08 17:57:21.0	Ventana	34.327	01:50:50:22	6.186	V2682-02
 	transect	Calycophorae	700.63	2681	 	36.69718	-122.05304	2497663	0.29	2005-07-07 18:39:06.0	Ventana	34.436	02:08:50:00	4.936	V2681-03HD
 	cruise	Phialidium	430.69	2676	 	36.803467	-122.029236	1676409	0.67	2005-06-14 16:41:39.0	Ventana	34.311	00:25:47:23	6.476	V2676-01
 	transect	Mesomyaria	999.9	2669	 	36.73261	-122.25054	1737001	0.41	2005-05-25 20:36:43.0	Ventana	34.508	02:58:10:25	4.073	V2669-03
 	descend	Calycophorae	289.89	2681	 	36.69857	-122.0537	1713620	1.29	2005-07-07 17:17:27.253	Ventana	34.224	00:48:34:12	7.532	V2681-01
 	ascend	Solmissus	260.85	2681	 	36.69886	-122.056984	1718954	1.42	2005-07-07 21:20:05.833	Ventana	34.23	04:48:25:16	7.957	V2681-05
 	transect	Psolus squamatus	 	2687	 	 	 	1808883	 	2005-07-13 17:31:09.0	Ventana	 	00:58:00:29	 	V2687-01
 	transect	Mesomyaria	1000.07	2669	 	36.73188	-122.24544	1735386	0.41	2005-05-25 20:00:01.0	Ventana	34.508	02:21:30:17	4.062	V2669-03
 	transect	Lycenchelys camchatica	 	2669	 	 	 	1737550	 	2005-05-25 13:51:11.0	Ventana	 	03:11:58:27	 	V2669-04
 	transect	Appendicularia	200.37	2681	 	36.69832	-122.05344	2491329	1.66	2005-07-07 17:13:32.0	Ventana	34.2	00:44:39:11	8.34	V2681-01HD
 	transect	Neptunea amianta	799.83	2674	 	36.752537	-122.20387	1799398	0.35	2005-06-08 17:48:14.0	Ventana	34.488	00:32:47:02	4.37	V2674-01
 	transect	Halipteris californica	598.16	2680	 	36.781303	-122.22628	1804963	0.36	2005-06-27 18:34:32.0	Ventana	34.378	01:13:38:06	5.597	V2680-02
 	transect	molt	100.53	2681	 	36.69983	-122.05429	2489571	2.13	2005-07-07 16:45:08.0	Ventana	34.068	00:16:18:03	9.15	V2681-01HD
 	transect	molt	100.5	2681	 	36.699825	-122.05429	2489714	2.13	2005-07-07 16:48:33.0	Ventana	34.067	00:19:41:24	9.151	V2681-01HD
 	descend	Chaetognatha	322.17	2683	 	36.70117	-122.0501	1756526	1.22	2005-07-11 16:54:56.0	Ventana	34.241	00:42:36:00	7.516	V2683-01
 	transect	Halipteris californica	598.69	2680	 	36.78214	-122.22723	1805106	0.35	2005-06-27 18:45:23.0	Ventana	34.38	01:24:28:04	5.577	V2680-02
 	descend	Aegina	654.24	2682	 	36.698643	-122.05994	1721353	0.28	2005-07-08 18:10:29.0	Ventana	34.409	02:03:33:18	5.229	V2682-03
 	transect	Phyllospadix	801.99	2674	 	36.75225	-122.20688	1799994	0.37	2005-06-08 18:04:12.0	Ventana	34.49	00:48:43:28	4.328	V2674-01
 	transect	Solmissus	300.41	2681	 	36.697216	-122.05271	2492331	1.23	2005-07-07 17:24:10.0	Ventana	34.234	00:55:16:00	7.397	V2681-01HD
 	transect	Mesomyaria	999.94	2669	 	36.73097	-122.232574	1683781	0.45	2005-05-25 18:34:16.0	Ventana	34.521	00:56:42:05	3.912	V2669-01
 	transect	Phyllospadix	799.9	2674	 	36.75132	-122.215454	1803348	0.35	2005-06-08 18:45:58.0	Ventana	34.484	01:30:01:17	4.368	V2674-02
 	transect	Phyllospadix	802.09	2674	 	36.752323	-122.20586	1799851	0.36	2005-06-08 17:59:16.0	Ventana	34.486	00:43:48:22	4.337	V2674-01
 	transect	Mediaster	 	2687	 	 	 	1807033	 	2005-07-13 16:55:27.0	Ventana	 	00:22:21:21	 	V2687-01
 	transect	Appendicularia	400.74	2681	 	36.697674	-122.05338	2493194	0.79	2005-07-07 17:49:07.0	Ventana	34.278	01:19:29:24	6.659	V2681-02HD
 	descend	Dosidicus gigas	601.16	2681	 	36.69566	-122.05112	1715645	0.3	2005-07-07 18:08:30.117	Ventana	34.39	01:38:51:16	5.471	V2681-02
 	transect	Pennatulacea sp.1	602.11	2680	 	36.791065	-122.23289	1806830	0.35	2005-06-27 20:24:52.0	Ventana	34.378	03:03:28:11	5.588	V2680-03
 	transect	Allocentrotus fragilis	399.86	2687	 	36.788113	-122.12162	1809229	1.13	2005-07-13 17:37:21.0	Ventana	34.243	01:03:43:12	7.255	V2687-02
 	transect	Polychaeta	200.47	2681	 	36.69828	-122.05329	2490231	1.7	2005-07-07 17:06:00.0	Ventana	34.198	00:37:08:22	8.363	V2681-01HD
 	descend	Cydippida	534.65	2683	 	36.701546	-122.04914	1756932	0.54	2005-07-11 17:43:06.0	Ventana	34.324	01:27:13:14	6.217	V2683-02
 	transect	Calycophorae	600.6	2681	 	36.696465	-122.05209	2493743	0.3	2005-07-07 18:22:13.0	Ventana	34.387	01:52:33:19	5.48	V2681-02HD
 	transect	Mesomyaria	1000.06	2669	 	36.731697	-122.24367	1733865	0.41	2005-05-25 19:48:05.0	Ventana	34.508	02:09:36:16	4.069	V2669-03
 	cruise	Chionoecetes tanneri	1221.91	2683	 	36.706184	-122.0477	1757592	0.72	2005-07-11 20:01:36.0	Ventana	34.574	03:35:58:04	3.338	V2683-04
 	starttransect	object	798.25	2674	 	36.751694	-122.21334	1801263	0.35	2005-06-08 18:34:04.0	Ventana	34.491	01:18:08:10	4.343	V2674-02
 	descend	Appendicularia	393.2	2681	 	36.695557	-122.05119	1715096	0.86	2005-07-07 17:33:06.333	Ventana	34.259	01:03:30:13	6.794	V2681-02
 	transect	Aegina	1001.07	2681	 	36.694897	-122.05075	2498558	0.48	2005-07-07 19:22:05.0	Ventana	34.532	02:51:46:10	3.859	V2681-03HD
 	ascend	Nanomia	377.35	2693	 	36.69602	-122.060585	1758767	1.19	2005-07-25 20:49:53.0	Ventana	34.231	03:14:26:18	7.143	V2693-04
 	transect	Sebastes diploproa	 	2687	 	 	 	1810641	 	2005-07-13 19:26:14.0	Ventana	 	02:51:57:18	 	V2687-03
 	transect	Acanthamunnopsis milleri	200.39	2681	 	36.698284	-122.053314	2490983	1.71	2005-07-07 17:10:25.0	Ventana	34.187	00:41:34:03	8.319	V2681-01HD
 	transect	Caecosagitta macrocephala	800.89	2681	 	36.695847	-122.05178	2498212	0.32	2005-07-07 18:57:42.0	Ventana	34.475	02:27:24:00	4.495	V2681-03HD
 	ascend	Appendicularia	563.08	2682	 	36.69828	-122.06254	1723594	0.38	2005-07-08 21:07:24.0	Ventana	34.358	04:59:31:04	5.835	V2682-05
 	transect	Phyllospadix	200.91	2696	 	36.805252	-122.12818	1813604	1.5	2005-08-01 18:03:44.0	Ventana	34.211	01:31:35:28	8.667	V2696-02
 	cruise	Mysidae	1190.59	2682	 	36.698395	-122.05754	1722419	0.68	2005-07-08 19:51:43.0	Ventana	34.57	03:44:18:17	3.381	V2682-04
 	starttransect	color bars	801.01	2681	 	36.694958	-122.05066	1716365	0.31	2005-07-07 18:52:45.727	Ventana	34.476	02:22:29:07	4.481	V2681-03
 	transect	Psolus squamatus	 	2687	 	 	 	1811190	 	2005-07-13 20:00:24.0	Ventana	 	03:25:24:03	 	V2687-04
 	transect	Lycodes cortezianus	199.42	2696	 	36.80424	-122.12604	1813401	1.52	2005-08-01 17:43:16.0	Ventana	34.208	01:11:10:08	8.661	V2696-02
 	transect	Psolus squamatus	 	2687	 	 	 	1808680	 	2005-07-13 17:26:56.0	Ventana	 	00:53:48:19	 	V2687-01
 	transect	Nanomia bijuga	200.43	2681	 	36.69828	-122.0533	2490780	1.73	2005-07-07 17:08:47.0	Ventana	34.193	00:39:55:24	8.321	V2681-01HD
 	descend	Appendicularia	606.98	2681	 	36.69571	-122.051	1715848	0.3	2005-07-07 18:15:50.667	Ventana	34.385	01:46:12:04	5.488	V2681-02
 	descend	physical object	206.86	2686	http://search.mbari.org/ARCHIVE/frameGrabs/Ventana/images/2686/01_17_24_08.jpg	36.79371	-121.88108	20005034	1.6	2005-07-12 22:10:15.0	Ventana	34.152	01:17:24:08	8.258	V2686-02
 	transect	Calliostoma platinum	 	2687	 	 	 	1810092	 	2005-07-13 18:55:52.0	Ventana	 	02:21:38:01	 	V2687-03
 	transect	Phyllospadix	800.76	2674	 	36.752106	-122.20837	1800746	0.35	2005-06-08 18:11:18.0	Ventana	34.488	00:55:50:00	4.328	V2674-01
 	ascend	Aegina	778.49	2681	 	36.698795	-122.05635	1717463	0.28	2005-07-07 20:06:19.3	Ventana	34.454	03:35:21:14	4.736	V2681-04
 	transect	Mediaster	 	2687	 	 	 	1811393	 	2005-07-13 20:11:03.0	Ventana	 	03:36:02:21	 	V2687-04
 	descend	Appendicularia	466.02	2683	 	36.701668	-122.04935	1756729	0.77	2005-07-11 17:11:21.0	Ventana	34.287	00:58:59:29	6.657	V2683-01
 	transect	Ophiuroidea	998.5	2669	 	36.731136	-122.230774	1683435	0.45	2005-05-25 18:20:46.0	Ventana	34.523	00:43:12:25	3.914	V2669-01
 	ascend	Hastigerinella digitata	357.06	2681	 	36.699356	-122.05502	1718059	1.03	2005-07-07 20:51:58.833	Ventana	34.258	04:20:19:23	7.139	V2681-05
 	ascend	Poeobius meseres	1094.9	2683	 	36.70779	-122.04909	1757795	0.58	2005-07-11 20:43:47.0	Ventana	34.546	04:18:07:04	3.687	V2683-04
 	transect	Phyllospadix	800.47	2674	 	36.75247	-122.20451	1799601	0.35	2005-06-08 17:52:15.0	Ventana	34.485	00:36:47:15	4.38	V2674-01
 	transect	Mesomyaria	803.29	2674	 	36.750774	-122.22041	1803694	0.34	2005-06-08 19:08:35.0	Ventana	34.478	01:52:37:07	4.395	V2674-02
 	cruise	benthos	280.57	2676	 	36.80526	-122.03181	1676206	1.46	2005-06-14 16:18:14.0	Ventana	34.211	00:02:24:07	7.893	V2676-01
 	transect	Mediaster	 	2687	 	 	 	1812538	 	2005-07-13 20:44:33.0	Ventana	 	04:09:03:17	 	V2687-05
 	descend	Nanomia	217.17	2693	 	36.696136	-122.05819	1758344	1.69	2005-07-25 18:28:05.0	Ventana	34.195	01:08:08:25	8.607	V2693-02
 	transect	Psolus squamatus	 	2687	 	 	 	1808800	 	2005-07-13 17:29:43.0	Ventana	 	00:56:35:02	 	V2687-01
 	transect	Mediaster	 	2687	 	 	 	1811763	 	2005-07-13 20:24:42.0	Ventana	 	03:49:40:26	 	V2687-04
 	transect	Sebastes saxicola	200.49	2696	 	36.805237	-122.12816	1813590	1.5	2005-08-01 18:02:25.0	Ventana	34.212	01:30:17:12	8.671	V2696-02
 	transect	Mesomyaria	999.73	2669	 	36.73055	-122.22895	1651021	0.45	2005-05-25 18:06:18.0	Ventana	34.523	00:28:46:04	3.905	V2669-01
 	descend	Solmissus	298.77	2681	 	36.69857	-122.05373	1713629	1.27	2005-07-07 17:17:45.633	Ventana	34.226	00:48:52:23	7.49	V2681-01
 	transect	Porifera	 	2687	 	 	 	1810627	 	2005-07-13 19:25:28.0	Ventana	 	02:51:11:21	 	V2687-03
 	transect	Mesomyaria	999.47	2669	 	36.731182	-122.235664	1684367	0.44	2005-05-25 18:55:02.0	Ventana	34.522	01:17:02:16	3.933	V2669-02
 	transect	Sebastolobus	 	2669	 	 	 	1737656	 	2005-05-25 13:55:05.0	Ventana	 	03:15:52:24	 	V2669-04
 	transect	Ophiuroidea	997.12	2669	 	36.730648	-122.22761	1649194	0.45	2005-05-25 17:58:16.0	Ventana	34.522	00:20:44:09	3.909	V2669-01
 	ascend	Appendicularia	264.24	2681	 	36.699524	-122.05449	1718419	1.4	2005-07-07 21:08:30.49	Ventana	34.231	04:36:50:12	7.908	V2681-05
 	transect	Ceriantharia sp. 1	599.82	2680	 	36.778137	-122.22333	1804363	0.36	2005-06-27 17:54:38.0	Ventana	34.378	00:34:44:19	5.589	V2680-01
 	stationary	Merluccius productus	502.33	2694	 	36.784626	-122.20047	1676629	0.85	2005-07-27 19:59:22.0	Ventana	34.272	02:31:31:00	6.69	V2694-03
 	transect	Mediaster	 	2687	 	 	 	1812469	 	2005-07-13 20:40:35.0	Ventana	 	04:05:32:18	 	V2687-04
 	descend	Poeobius meseres	1141.23	2682	 	36.6982	-122.05922	1722165	0.6	2005-07-08 19:12:54.0	Ventana	34.558	03:05:30:17	3.536	V2682-04
 	transect	Sergestes similis	400.77	2681	 	36.697384	-122.05305	2493143	0.79	2005-07-07 17:47:53.0	Ventana	34.278	01:18:17:19	6.662	V2681-02HD
 	cruise	Pleuronectiformes	442.09	2688	 	36.804146	-122.018394	1677658	0.87	2005-07-14 17:40:23.0	Ventana	34.274	01:26:06:28	6.834	V2688-02
 	transect	Mediaster	 	2687	 	 	 	1811333	 	2005-07-13 20:07:42.0	Ventana	 	03:32:41:22	 	V2687-04
 	ascend	Nanomia	254.81	2681	 	36.69812	-122.055336	1719217	1.46	2005-07-07 21:25:33.233	Ventana	34.222	04:53:52:04	8.004	V2681-05
 	descend	Chaetognatha	229.46	2693	 	36.69864	-122.061714	1758367	1.5	2005-07-25 19:21:59.0	Ventana	34.241	02:02:01:16	8.592	V2693-02
 	transect	Phyllospadix	801.1	2674	 	36.750996	-122.21833	1803565	0.35	2005-06-08 18:59:33.0	Ventana	34.491	01:43:36:02	4.336	V2674-02
 	ascend	Poeobius meseres	1161.2	2682	 	36.698254	-122.05749	1722488	0.63	2005-07-08 19:54:02.0	Ventana	34.561	03:46:37:15	3.48	V2682-04
 	transect	Leuroglossus stilbius	500.56	2681	 	36.697323	-122.05301	2493466	0.44	2005-07-07 17:57:46.0	Ventana	34.346	01:28:09:27	6.022	V2681-02HD
 	descend	Mertensiidae	371.77	2682	 	36.698456	-122.06	1720661	0.96	2005-07-08 17:34:30.0	Ventana	34.262	01:28:00:07	7.006	V2682-02
 	transect	molt	100.51	2681	 	36.69976	-122.05425	2489765	2.12	2005-07-07 16:50:01.0	Ventana	34.067	00:21:11:03	9.159	V2681-01HD
 	transect	Mesomyaria	999.5	2669	 	36.73102	-122.23118	1683569	0.45	2005-05-25 18:24:47.0	Ventana	34.521	00:47:13:11	3.914	V2669-01
 	transect	Aegina	1001.02	2681	 	36.695415	-122.0514	2498609	0.49	2005-07-07 19:24:38.0	Ventana	34.536	02:54:18:07	3.827	V2681-03HD
 	descend	Appendicularia	331.61	2683	 	36.701218	-122.05005	1756540	1.22	2005-07-11 16:55:28.0	Ventana	34.229	00:43:07:19	7.406	V2683-01
 	transect	Lycenchelys camchatica	799.05	2674	 	36.751335	-122.21527	1801415	0.35	2005-06-08 18:45:06.0	Ventana	34.488	01:29:09:09	4.351	V2674-02
 	transect	Psolus squamatus	 	2687	 	 	 	1807296	 	2005-07-13 17:05:08.0	Ventana	 	00:32:02:18	 	V2687-01
 	transect	Mesomyaria	1000.6	2669	 	36.732067	-122.24774	1736152	0.4	2005-05-25 20:16:58.0	Ventana	34.508	02:38:26:01	4.086	V2669-03
 	transect	Gastropoda sp.2	999.82	2669	 	36.73133	-122.23795	1694715	0.44	2005-05-25 19:14:27.0	Ventana	34.521	01:36:25:19	3.951	V2669-02
 	transect	Pseudosagitta maxima	901.06	2681	 	36.696804	-122.05294	2498286	0.39	2005-07-07 19:07:19.0	Ventana	34.506	02:36:58:28	4.16	V2681-03HD
 	transect	Ceriantharia sp. 1	598.44	2680	 	36.7819	-122.22694	1805069	0.36	2005-06-27 18:42:11.0	Ventana	34.378	01:21:16:12	5.595	V2680-02
 	ascend	Hastigerinella digitata	367.91	2693	 	36.695076	-122.06093	1758827	1.23	2005-07-25 20:58:20.0	Ventana	34.239	03:22:52:09	7.324	V2693-04
 	transect	Psolus squamatus	 	2687	 	 	 	1811010	 	2005-07-13 19:48:10.0	Ventana	 	03:13:11:07	 	V2687-04
 	transect	Stomphia	1000.14	2669	 	36.73105	-122.23967	1689187	0.41	2005-05-25 19:25:45.0	Ventana	34.51	01:47:43:24	4.061	V2669-02
 	ascend	Bathocyroe	566.16	2681	 	36.69894	-122.05426	1717713	0.38	2005-07-07 20:31:32.72	Ventana	34.364	04:00:33:00	5.836	V2681-04
 	cruise	Crossota	1209.42	2683	 	36.70689	-122.04762	1757661	0.72	2005-07-11 20:14:06.0	Ventana	34.573	03:48:27:08	3.351	V2683-04
 	transect	Mediaster	 	2687	 	 	 	1812792	 	2005-07-13 20:57:37.0	Ventana	 	04:22:07:04	 	V2687-05
 	ascend	Euphausiacea	258.17	2681	 	36.697838	-122.05522	1719540	 	2005-07-07 21:29:59.0	Ventana	 	05:12:14:05	 	V2681-05
 	transect	Mesomyaria	1000.1	2669	 	36.732574	-122.250244	1736950	0.41	2005-05-25 20:34:57.0	Ventana	34.509	02:56:26:03	4.067	V2669-03
 	cruise	Pleuronectiformes	382.55	2690	 	36.790024	-121.887474	1670258	0.94	2005-07-18 19:52:37.0	Ventana	34.269	01:07:44:04	6.95	V2690-01
 	cruise	LRJ Complex	622.51	2688	 	36.79374	-122.0194	1677275	0.41	2005-07-14 16:26:23.0	Ventana	34.415	00:12:43:09	5.195	V2688-01
 	transect	Gastropoda sp.2	999.84	2669	 	36.73064	-122.22934	1695038	0.45	2005-05-25 18:08:59.0	Ventana	34.522	00:31:27:09	3.905	V2669-01
 	transect	Porifera sp. 1	 	2687	 	 	 	1809889	 	2005-07-13 18:47:26.0	Ventana	 	02:13:12:20	 	V2687-03
 	transect	Calycophorae	500.59	2681	 	36.69708	-122.05269	2493526	0.44	2005-07-07 17:58:54.0	Ventana	34.345	01:29:17:02	6.03	V2681-02HD
 	transect	Ophiuroidea	999.92	2669	 	36.73097	-122.23136	1683629	0.45	2005-05-25 18:26:32.0	Ventana	34.521	00:48:58:19	3.915	V2669-01
 	transect	Actiniaria sp. 1	800.75	2674	 	36.752552	-122.2017	1799098	0.33	2005-06-08 17:37:10.0	Ventana	34.478	00:21:43:26	4.443	V2674-01
 	transect	Poeobius meseres	1001.0	2681	 	36.696114	-122.05233	2498669	0.47	2005-07-07 19:28:19.0	Ventana	34.532	02:57:58:26	3.867	V2681-03HD
 	ascend	Aegina	946.22	2681	 	36.697445	-122.05387	1716900	0.41	2005-07-07 19:41:36.633	Ventana	34.515	03:10:39:25	4.061	V2681-04
 	transect	Umbellula lindahli	1000.18	2669	 	36.731663	-122.24378	1733957	0.41	2005-05-25 19:48:48.0	Ventana	34.509	02:10:20:22	4.064	V2669-03
 	descend	Calycophorae	376.05	2681	 	36.69556	-122.051216	1715073	0.96	2005-07-07 17:32:29.867	Ventana	34.254	01:02:53:16	6.979	V2681-02
 	transect	Phyllospadix	801.02	2674	 	36.75095	-122.2191	1803625	0.35	2005-06-08 19:02:47.0	Ventana	34.49	01:46:49:07	4.376	V2674-02
 	transect	Phyllospadix	802.32	2674	 	36.75223	-122.206696	1799971	0.37	2005-06-08 18:03:22.0	Ventana	34.491	00:47:54:06	4.323	V2674-01
 	transect	Calycophorae	300.44	2681	 	36.697002	-122.05252	2492405	1.23	2005-07-07 17:24:54.0	Ventana	34.234	00:56:00:25	7.395	V2681-01HD
 	ascend	Appendicularia	339.88	2681	 	36.699356	-122.05523	1718096	1.13	2005-07-07 20:53:31.473	Ventana	34.245	04:21:51:25	7.27	V2681-05
 	transect	Ophiuroidea	997.51	2669	 	36.730633	-122.227264	1649134	0.45	2005-05-25 17:56:07.0	Ventana	34.52	00:18:35:08	3.91	V2669-01
 	transect	Rathbunaster californicus	197.45	2696	 	36.803436	-122.12379	1813207	1.57	2005-08-01 17:19:55.0	Ventana	34.196	00:48:12:20	8.633	V2696-01
 	transect	Calycophorae	700.59	2681	 	36.69518	-122.05092	2497963	0.28	2005-07-07 18:47:43.0	Ventana	34.432	02:17:24:29	4.989	V2681-03HD
 	ascend	Appendicularia	938.16	2681	 	36.697575	-122.05404	1716960	0.41	2005-07-07 19:42:56.763	Ventana	34.514	03:12:00:11	4.074	V2681-04
 	starttransect	object	798.79	2674	 	36.751488	-122.21449	1801355	0.35	2005-06-08 18:41:54.0	Ventana	34.49	01:25:57:20	4.333	V2674-02
 	transect	Rathbunaster californicus	202.61	2696	 	36.805256	-122.12819	1813650	1.46	2005-08-01 18:10:48.0	Ventana	34.214	01:38:40:06	8.59	V2696-02
 	transect	Ceriantharia sp. 1	599.81	2680	 	36.777733	-122.22273	1804303	0.36	2005-06-27 17:49:39.0	Ventana	34.378	00:29:46:00	5.586	V2680-01
 	transect	Phyllospadix	 	2687	 	 	 	1811823	 	2005-07-13 20:26:27.0	Ventana	 	03:51:25:27	 	V2687-04
 	descend	Aegina	990.38	2682	 	36.69833	-122.05923	1722013	0.43	2005-07-08 18:58:05.0	Ventana	34.52	02:51:07:11	4.002	V2682-03
 	descend	Hastigerinella digitata	346.88	2682	 	36.698753	-122.06053	1720186	1.03	2005-07-08 17:12:50.0	Ventana	34.251	01:06:21:03	7.125	V2682-02
 	transect	Mesomyaria	1000.25	2669	 	36.731445	-122.241936	1689925	0.4	2005-05-25 19:39:07.0	Ventana	34.509	02:01:04:14	4.077	V2669-02
 	transect	Mesomyaria	800.9	2674	 	36.75195	-122.20969	1800940	0.35	2005-06-08 18:18:22.0	Ventana	34.49	01:02:27:09	4.335	V2674-02
 	descend	Pleurobrachia	165.16	2682	 	36.69988	-122.06075	1719923	2.24	2005-07-08 16:19:19.0	Ventana	34.118	00:13:24:07	8.347	V2682-01
 	transect	Calycophorae	400.74	2681	 	36.697025	-122.05264	2493083	0.79	2005-07-07 17:46:24.0	Ventana	34.278	01:16:48:05	6.659	V2681-02HD
 	cruise	Liponema brevicornis	502.13	2694	 	36.784424	-122.200485	1676169	0.76	2005-07-27 17:10:27.0	Ventana	34.287	00:03:35:06	6.484	V2694-01
 	ascend	Aegina	694.71	2681	 	36.69873	-122.05474	1717606	0.27	2005-07-07 20:21:24.08	Ventana	34.42	03:50:24:25	5.107	V2681-04
 	ascend	Nanomia	258.17	2681	 	36.697838	-122.05522	1719480	 	2005-07-07 21:29:59.0	Ventana	 	05:06:49:05	 	V2681-05
 	transect	Chaetognatha	200.37	2681	 	36.698307	-122.05339	2491209	1.68	2005-07-07 17:12:46.0	Ventana	34.2	00:43:54:06	8.337	V2681-01HD
 	ascend	Leuroglossus stilbius	457.53	2682	 	36.698288	-122.06296	1723714	0.63	2005-07-08 21:18:11.0	Ventana	34.299	05:09:52:15	6.394	V2682-06
 	ascend	Poeobius meseres	419.62	2683	 	36.704136	-122.05059	1758044	0.92	2005-07-11 21:19:29.0	Ventana	34.258	04:52:21:18	6.866	V2683-05
 	transect	Nanomia bijuga	200.4	2681	 	36.698284	-122.05331	2490946	1.71	2005-07-07 17:10:05.0	Ventana	34.195	00:41:13:06	8.323	V2681-01HD
 	transect	Calycophorae	800.88	2681	 	36.69605	-122.051994	2498226	0.31	2005-07-07 18:58:38.0	Ventana	34.475	02:28:20:00	4.497	V2681-03HD
 	descend	Appendicularia	285.6	2683	 	36.70102	-122.0502	1756480	1.32	2005-07-11 16:52:49.0	Ventana	34.237	00:40:30:00	7.789	V2683-01
 	transect	Psolus squamatus	 	2687	 	 	 	1807679	 	2005-07-13 17:22:19.0	Ventana	 	00:49:11:20	 	V2687-01
 	transect	Porifera sp. 1	 	2687	 	 	 	1812732	 	2005-07-13 20:55:11.0	Ventana	 	04:19:41:14	 	V2687-05
 	descend	Copepoda	867.42	2682	 	36.69831	-122.05943	1721750	0.32	2005-07-08 18:49:07.0	Ventana	34.488	02:42:10:00	4.368	V2682-03
 	ascend	Appendicularia	358.95	2693	 	36.694035	-122.06103	1758887	1.24	2005-07-25 21:03:10.0	Ventana	34.237	03:27:43:10	7.355	V2693-04
 	descend	Doliolenetta	638.64	2682	 	36.69863	-122.05989	1721307	0.28	2005-07-08 18:09:27.0	Ventana	34.401	02:02:32:11	5.326	V2682-03
 	transect	Mesomyaria	1000.38	2669	 	36.731945	-122.246826	1735769	0.41	2005-05-25 20:10:44.0	Ventana	34.509	02:32:14:18	4.067	V2669-03
 	transect	Mesomyaria	1000.69	2669	 	36.732166	-122.24836	1736212	0.41	2005-05-25 20:21:24.0	Ventana	34.51	02:42:54:05	4.062	V2669-03
 	transect	Neptunea amianta	600.94	2680	 	36.785988	-122.23085	1805852	0.36	2005-06-27 19:33:47.0	Ventana	34.379	02:12:26:16	5.598	V2680-03
 	transect	Mesomyaria	998.28	2669	 	36.731026	-122.23031	1651284	0.45	2005-05-25 18:16:53.0	Ventana	34.522	00:39:20:15	3.911	V2669-01
 	transect	molt	100.51	2681	 	36.69925	-122.05392	2489825	2.14	2005-07-07 16:51:22.0	Ventana	34.067	00:22:30:20	9.15	V2681-01HD
 	cruise	Sebastolobus	589.54	2688	 	36.796673	-122.0201	1677395	0.47	2005-07-14 16:41:12.0	Ventana	34.374	00:27:32:04	5.686	V2688-01
 	descend	Appendicularia	573.27	2683	 	36.701874	-122.04911	1756983	0.39	2005-07-11 17:46:55.0	Ventana	34.357	01:31:01:01	5.908	V2683-02
 	cruise	rock outcrop	95.36	2688	http://search.mbari.org/ARCHIVE/frameGrabs/Ventana/images/2688/05_15_24_09.jpg	36.813023	-122.021324	20005329	1.92	2005-07-14 21:31:12.0	Ventana	34.109	05:15:24:09	8.873	V2688-05
 	transect	Glyptocephalus zachirus	 	2687	 	 	 	1811500	 	2005-07-13 20:14:50.0	Ventana	 	03:39:48:29	 	V2687-04
 	transect	Phyllospadix	203.73	2696	 	36.80755	-122.13119	1813853	1.46	2005-08-01 18:43:06.0	Ventana	34.225	02:10:10:27	8.633	V2696-03
 	cruise	Pennatulacea	997.58	2679	 	36.690426	-122.166275	1824381	0.47	2005-06-16 20:20:36.0	Ventana	34.533	00:58:50:08	3.875	V2679-01
 	transect	Mesomyaria	1000.11	2669	 	36.73108	-122.238754	1689067	0.43	2005-05-25 19:19:53.0	Ventana	34.518	01:41:51:23	3.963	V2669-02
 	descend	Calycophorae	925.47	2681	 	36.69469	-122.05042	1716517	0.41	2005-07-07 19:17:43.9	Ventana	34.512	02:47:25:11	4.063	V2681-03
 	transect	molt	100.54	2681	 	36.69983	-122.05429	2489645	2.13	2005-07-07 16:47:00.0	Ventana	34.069	00:18:09:27	9.144	V2681-01HD
 	transect	Mesomyaria	998.28	2669	 	36.73113	-122.23104	1683509	0.45	2005-05-25 18:22:51.0	Ventana	34.522	00:45:17:19	3.914	V2669-01
 	ascend	Copepoda	742.89	2681	 	36.69874	-122.05565	1717546	0.26	2005-07-07 20:15:22.233	Ventana	34.444	03:44:23:25	4.841	V2681-04
 	descend	Appendicularia	792.16	2681	 	36.69491	-122.05056	1716314	0.33	2005-07-07 18:51:45.133	Ventana	34.466	02:21:28:06	4.557	V2681-03
 	transect	Stomphia	1000.26	2669	 	36.730923	-122.232925	1683832	0.45	2005-05-25 18:36:13.0	Ventana	34.523	00:58:39:05	3.909	V2669-01
 	transect	Calliostoma platinum	 	2687	 	 	 	1808740	 	2005-07-13 17:28:10.0	Ventana	 	00:55:02:20	 	V2687-01
 	ascend	sinker	 	2676	 	 	 	1677215	 	2005-06-14 19:34:02.0	Ventana	 	03:12:45:22	 	V2676-03
 	transect	Mesomyaria	999.17	2669	 	36.731064	-122.23186	1683689	0.45	2005-05-25 18:29:26.0	Ventana	34.522	00:51:52:15	3.915	V2669-01
 	ascend	Appendicularia	873.2	2681	 	36.69837	-122.05535	1717343	0.35	2005-07-07 19:52:19.567	Ventana	34.502	03:21:22:18	4.294	V2681-04
 	descend	Myctophidae	572.47	2682	 	36.698643	-122.059814	1720924	0.33	2005-07-08 18:06:34.0	Ventana	34.376	02:00:02:01	5.591	V2682-02
 	descend	Hormiphora	213.25	2681	 	36.69847	-122.05351	1713569	1.53	2005-07-07 17:14:53.233	Ventana	34.213	00:46:01:01	8.259	V2681-01
 	descend	Bargmannia	1197.07	2682	 	36.69843	-122.05858	1722225	0.68	2005-07-08 19:27:12.0	Ventana	34.572	03:19:49:19	3.378	V2682-04
 	transect	Mesomyaria	1000.11	2669	 	36.73122	-122.238396	1688864	0.43	2005-05-25 19:17:50.0	Ventana	34.516	01:39:48:19	3.976	V2669-02
 	transect	Mediaster	 	2687	 	 	 	1812206	 	2005-07-13 20:29:05.0	Ventana	 	03:54:03:03	 	V2687-04
 	transect	Rathbunaster californicus	196.51	2696	 	36.803234	-122.12307	1813147	1.56	2005-08-01 17:11:42.0	Ventana	34.198	00:40:00:27	8.624	V2696-01
 	descend	Copepoda	1015.68	2683	 	36.704536	-122.049736	1757398	0.44	2005-07-11 19:23:02.0	Ventana	34.522	03:03:24:02	3.984	V2683-03
 	transect	Allocentrotus fragilis	 	2687	 	 	 	1811273	 	2005-07-13 20:05:34.0	Ventana	 	03:30:33:21	 	V2687-04
 	ascend	Copepoda	406.68	2681	 	36.69924	-122.05441	1717976	0.83	2005-07-07 20:47:11.78	Ventana	34.278	04:15:32:16	6.794	V2681-05
 	transect	Calliostoma platinum	 	2687	 	 	 	1807619	 	2005-07-13 17:18:09.0	Ventana	 	00:45:02:08	 	V2687-01
 	transect	Ophiuroidea	999.58	2669	 	36.73142	-122.23661	1684810	0.44	2005-05-25 19:03:06.0	Ventana	34.521	01:25:05:09	3.938	V2669-02
 	ascend	Chaetognatha	232.58	2683	 	36.70292	-122.05073	1758104	1.74	2005-07-11 21:27:36.0	Ventana	34.19	05:00:27:25	8.03	V2683-05
 	descend	Nanomia	249.57	2682	 	36.69988	-122.0608	1719983	1.4	2005-07-08 16:22:59.0	Ventana	34.23	00:17:04:03	7.911	V2682-01
 	descend	Hastigerinella digitata	292.81	2682	 	36.699245	-122.0606	1720126	1.21	2005-07-08 16:54:46.0	Ventana	34.241	00:48:49:02	7.451	V2682-01
 	transect	Microstomus pacificus	199.63	2696	 	36.803867	-122.12527	1813327	1.53	2005-08-01 17:35:23.0	Ventana	34.202	01:03:17:09	8.637	V2696-02
 	descend	Cydippida	153.85	2683	 	36.700657	-122.05165	1756277	1.69	2005-07-11 16:26:13.0	Ventana	34.175	00:13:54:21	8.813	V2683-01
 	transect	Mesomyaria	999.57	2669	 	36.731056	-122.235054	1684247	0.45	2005-05-25 18:50:31.0	Ventana	34.522	01:12:31:20	3.924	V2669-02
 	descend	Cyclothone	408.56	2682	 	36.698242	-122.05983	1720721	0.77	2005-07-08 17:38:43.0	Ventana	34.276	01:32:13:01	6.575	V2682-02
 	ascend	Acanthamunnopsis milleri	195.97	2693	 	36.690613	-122.06285	1759210	1.82	2005-07-25 21:28:39.0	Ventana	34.177	03:53:09:29	8.866	V2693-04
 	ascend	Hastigerinella digitata	281.84	2681	 	36.699734	-122.055046	1718299	1.36	2005-07-07 21:02:50.167	Ventana	34.232	04:31:10:13	7.735	V2681-05
 	transect	Mesomyaria	802.43	2674	 	36.751785	-122.21026	1801000	0.36	2005-06-08 18:20:59.0	Ventana	34.49	01:05:04:01	4.324	V2674-02
 	transect	Mediaster	399.71	2687	 	36.78935	-122.12491	1809626	1.15	2005-07-13 18:26:40.0	Ventana	34.24	01:52:58:21	7.313	V2687-02
 	transect	Parmaturus xaniurus	 	2687	 	 	 	1807093	 	2005-07-13 16:59:15.0	Ventana	 	00:26:09:28	 	V2687-01
 	transect	Psolus squamatus	 	2687	 	 	 	1810244	 	2005-07-13 19:11:45.0	Ventana	 	02:37:29:12	 	V2687-03
 	transect	Nanomia bijuga	400.8	2681	 	36.69593	-122.051346	2492931	0.79	2005-07-07 17:41:35.0	Ventana	34.276	01:11:58:26	6.665	V2681-02HD
 	descend	Myctophidae	608.76	2682	 	36.69863	-122.0598	1721247	0.3	2005-07-08 18:07:56.0	Ventana	34.393	02:01:00:21	5.398	V2682-03
 	transect	Pennatula phosphorea californica	600.97	2680	 	36.78542	-122.23058	1805792	0.36	2005-06-27 19:27:45.0	Ventana	34.378	02:06:48:10	5.6	V2680-02
 	transect	Microstomus pacificus	204.24	2696	 	36.805485	-122.1286	1813710	1.48	2005-08-01 18:18:01.0	Ventana	34.212	01:45:52:12	8.623	V2696-02
 	descend	Appendicularia	690.94	2682	 	36.69865	-122.05998	1721427	0.29	2005-07-08 18:13:38.0	Ventana	34.422	02:06:41:23	5.103	V2682-03
 	ascend	Poeobius meseres	644.2	2683	 	36.70516	-122.05001	1757924	0.27	2005-07-11 21:09:30.0	Ventana	34.408	04:42:23:19	5.26	V2683-05
 	transect	Chionoecetes tanneri	603.24	2680	 	36.788795	-122.23244	1805972	0.35	2005-06-27 20:03:37.0	Ventana	34.379	02:42:14:29	5.589	V2680-03
 	starttransect	Phyllospadix	 	2687	 	 	 	1812409	 	2005-07-13 20:37:21.0	Ventana	 	04:02:19:11	 	V2687-04
 	ascend	Mysidae	1171.76	2683	 	36.707073	-122.04807	1757721	0.7	2005-07-11 20:27:20.0	Ventana	34.57	04:01:41:23	3.399	V2683-04
 	transect	Psolus squamatus	 	2687	 	 	 	1810950	 	2005-07-13 19:43:38.0	Ventana	 	03:08:40:02	 	V2687-04
 	transect	Phyllospadix	197.83	2696	 	36.80266	-122.12168	1813004	1.53	2005-08-01 16:51:50.0	Ventana	34.204	00:20:09:24	8.569	V2696-01
 	transect	Phyllospadix	998.99	2669	 	36.73051	-122.22854	1650901	0.45	2005-05-25 18:03:57.0	Ventana	34.522	00:26:25:09	3.907	V2669-01
 	ascend	Cydippida	258.17	2681	 	36.697838	-122.05522	1719420	 	2005-07-07 21:29:59.0	Ventana	 	05:04:18:29	 	V2681-05
 	transect	Mediaster	 	2687	http://search.mbari.org/ARCHIVE/frameGrabs/Ventana/images/2687/02_57_03_06.jpg	 	 	1810747	 	2005-07-13 19:31:20.0	Ventana	 	02:57:03:06	 	V2687-03
 	descend	Chaetognatha	379.15	2683	 	36.70144	-122.0498	1756600	1.05	2005-07-11 16:58:09.0	Ventana	34.244	00:45:47:20	6.991	V2683-01
 	transect	Nanomia bijuga	200.36	2681	 	36.698315	-122.05342	2491269	1.66	2005-07-07 17:13:18.0	Ventana	34.2	00:44:25:11	8.341	V2681-01HD
 	ascend	Appendicularia	826.83	2682	 	36.698658	-122.05865	1723254	0.33	2005-07-08 20:21:44.0	Ventana	34.477	04:13:53:09	4.449	V2682-05
 	transect	Psolus squamatus	399.84	2687	http://search.mbari.org/ARCHIVE/frameGrabs/Ventana/images/2687/01_02_17_21.jpg	36.788036	-122.12153	1809123	1.13	2005-07-13 17:35:55.0	Ventana	34.244	01:02:17:21	7.27	V2687-02
 	transect	Mesomyaria	999.84	2669	 	36.73196	-122.24616	1735626	0.41	2005-05-25 20:05:03.0	Ventana	34.509	02:26:34:14	4.062	V2669-03
 	descend	Appendicularia	371.14	2693	 	36.696175	-122.060905	1758630	1.19	2005-07-25 20:21:37.0	Ventana	34.238	03:01:09:14	7.139	V2693-03
 	transect	Parastichopus leukothele	200.32	2696	 	36.804813	-122.12739	1813530	1.51	2005-08-01 17:57:00.0	Ventana	34.211	01:24:53:08	8.672	V2696-02
 	transect	Mesomyaria	800.0	2674	 	36.752083	-122.20886	1800820	0.35	2005-06-08 18:13:42.0	Ventana	34.488	00:58:13:10	4.33	V2674-01
 	transect	Mesomyaria	999.94	2669	 	36.73065	-122.229355	1651081	0.45	2005-05-25 18:09:03.0	Ventana	34.522	00:31:30:18	3.905	V2669-01
 	transect	Gastropoda sp.2	1000.03	2669	 	36.731007	-122.2331	1695098	0.45	2005-05-25 18:37:28.0	Ventana	34.523	00:59:53:08	3.91	V2669-01
 	descend	Appendicularia	501.91	2683	 	36.701534	-122.04939	1756803	0.68	2005-07-11 17:26:57.0	Ventana	34.304	01:11:04:24	6.47	V2683-02
 	transect	Phyllospadix	997.41	2669	 	36.730606	-122.227974	1649254	0.45	2005-05-25 18:00:23.0	Ventana	34.522	00:22:51:20	3.906	V2669-01
 	transect	Phyllospadix	800.51	2674	 	36.75257	-122.20212	1799158	0.34	2005-06-08 17:39:19.0	Ventana	34.482	00:23:53:07	4.44	V2674-01
 	ascend	Crustacea	589.72	2682	 	36.698795	-122.06067	1723457	0.4	2005-07-08 20:46:54.0	Ventana	34.371	04:39:01:08	5.671	V2682-05
 	transect	Microstomus pacificus	 	2687	 	 	 	1810041	 	2005-07-13 18:51:50.0	Ventana	 	02:17:36:15	 	V2687-03
 	transect	Stomphia	1000.5	2669	 	36.73243	-122.24991	1736747	0.41	2005-05-25 20:32:16.0	Ventana	34.509	02:53:43:17	4.066	V2669-03
 	transect	Nanomia bijuga	200.39	2681	 	36.698296	-122.05335	2491089	1.69	2005-07-07 17:11:44.0	Ventana	34.198	00:42:51:07	8.335	V2681-01HD
 	transect	Phyllospadix	802.98	2674	 	36.752243	-122.20626	1799911	0.36	2005-06-08 18:01:06.0	Ventana	34.489	00:45:38:05	4.334	V2674-01
 	ascend	Solmissus	450.65	2681	 	36.699036	-122.05418	1717773	0.6	2005-07-07 20:36:56.1	Ventana	34.313	04:05:55:27	6.368	V2681-04
 	cruise	mud	133.62	2676	 	36.808483	-122.03109	1676892	1.71	2005-06-14 18:01:30.0	Ventana	34.173	01:41:12:25	8.301	V2676-02
 	ascend	Appendicularia	958.07	2681	 	36.69728	-122.0537	1716840	0.42	2005-07-07 19:39:51.067	Ventana	34.517	03:08:54:26	4.037	V2681-04
 	transect	Poeobius meseres	600.53	2681	 	36.69767	-122.05354	2493849	0.3	2005-07-07 18:27:23.0	Ventana	34.388	01:57:43:04	5.48	V2681-02HD
 	ascend	Appendicularia	329.81	2693	 	36.692028	-122.061905	1759030	1.29	2005-07-25 21:16:22.0	Ventana	34.236	03:40:53:22	7.553	V2693-04
 	cruise	mud	602.09	2680	 	36.791813	-122.232994	1806881	0.36	2005-06-27 20:30:56.0	Ventana	34.38	03:09:31:17	5.591	V2680-03
 	transect	Mediaster	 	2687	 	 	 	1811703	 	2005-07-13 20:21:01.0	Ventana	 	03:46:00:02	 	V2687-04
 	transect	Hydrolagus colliei	 	2687	http://search.mbari.org/ARCHIVE/frameGrabs/Ventana/images/2687/04_10_50_11.jpg	 	 	1812589	 	2005-07-13 20:46:19.0	Ventana	 	04:10:50:11	 	V2687-05
 	transect	Atolla wyvillei	800.98	2681	 	36.69519	-122.050964	2498083	0.31	2005-07-07 18:54:29.0	Ventana	34.477	02:24:11:07	4.486	V2681-03HD
 	transect	Mesomyaria	1000.38	2669	 	36.731224	-122.24118	1689390	0.41	2005-05-25 19:34:45.0	Ventana	34.514	01:56:43:02	4.069	V2669-02
 	transect	Gastropoda sp.2	997.35	2669	 	36.730587	-122.22735	1694918	0.45	2005-05-25 17:56:37.0	Ventana	34.521	00:19:05:16	3.908	V2669-01
 	transect	Mesomyaria	798.83	2674	 	36.75174	-122.212494	1801212	0.35	2005-06-08 18:29:51.0	Ventana	34.49	01:13:55:02	4.33	V2674-02
 	descend	Chaetognatha	341.99	2693	 	36.69711	-122.059944	1758570	1.29	2005-07-25 19:58:28.0	Ventana	34.234	02:38:03:15	7.574	V2693-03
 	transect	Psolus squamatus	 	2687	 	 	 	1810101	 	2005-07-13 18:56:34.0	Ventana	 	02:22:19:21	 	V2687-03
 	transect	molt	100.53	2681	 	36.69983	-122.05429	2489562	2.13	2005-07-07 16:44:58.0	Ventana	34.068	00:16:06:23	9.147	V2681-01HD
 	transect	Aegina	600.65	2681	 	36.695766	-122.05125	2493669	0.3	2005-07-07 18:18:52.0	Ventana	34.387	01:49:13:01	5.496	V2681-02HD
 	ascend	Poeobius meseres	721.26	2683	 	36.705994	-122.04875	1757864	0.29	2005-07-11 21:04:55.0	Ventana	34.454	04:37:47:27	4.733	V2683-05
 	transect	Mesomyaria	800.41	2674	 	36.751728	-122.21173	1801143	0.35	2005-06-08 18:27:01.0	Ventana	34.488	01:11:05:28	4.339	V2674-02
 	descend	sinker	203.65	2685	 	36.79363	-121.88314	1669755	1.88	2005-07-12 20:13:52.0	Ventana	34.109	00:11:27:14	8.651	V2685-01
 	transect	Sebastolobus	999.88	2669	 	36.730984	-122.232544	1683772	0.45	2005-05-25 18:33:57.0	Ventana	34.522	00:56:23:02	3.91	V2669-01
 	transect	Ophiuroidea	1000.14	2669	 	36.73161	-122.24331	1733814	0.41	2005-05-25 19:46:24.0	Ventana	34.508	02:07:56:09	4.071	V2669-03
 	cruise	Rathbunaster californicus	300.34	2688	 	36.808784	-122.02032	1677861	1.35	2005-07-14 18:13:35.0	Ventana	34.214	01:59:16:14	7.829	V2688-02
 	transect	Phyllospadix	801.48	2674	 	36.75218	-122.207886	1800114	0.35	2005-06-08 18:08:59.0	Ventana	34.49	00:53:30:28	4.328	V2674-01
 	transect	Psolus squamatus	 	2687	 	 	 	1812266	 	2005-07-13 20:30:14.0	Ventana	 	03:55:12:16	 	V2687-04
 	transect	Phyllospadix	196.46	2696	 	36.802948	-122.12238	1813064	1.55	2005-08-01 17:03:25.0	Ventana	34.193	00:31:44:05	8.606	V2696-01
 	transect	molt	50.46	2681	 	36.699787	-122.05427	2485471	2.97	2005-07-07 16:33:18.0	Ventana	33.917	00:04:27:24	9.622	V2681-01HD
 	ascend	Appendicularia	627.49	2682	 	36.698868	-122.05977	1723397	0.36	2005-07-08 20:37:05.0	Ventana	34.387	04:29:13:00	5.448	V2682-05
 	transect	Neptunea amianta	800.1	2674	 	36.75245	-122.204926	1799684	0.35	2005-06-08 17:54:06.0	Ventana	34.487	00:38:39:06	4.356	V2674-01
 	transect	Psolus squamatus	 	2687	 	 	 	1807153	 	2005-07-13 17:02:07.0	Ventana	 	00:29:00:28	 	V2687-01
 	descend	Appendicularia	505.69	2682	 	36.698597	-122.05978	1720841	0.43	2005-07-08 18:00:10.0	Ventana	34.35	01:53:40:01	5.986	V2682-02
 	transect	Microstomus pacificus	 	2687	 	 	 	1807499	 	2005-07-13 17:12:31.0	Ventana	 	00:39:25:00	 	V2687-01
 	descend	Haliscera	358.97	2682	 	36.698505	-122.06012	1720449	1.0	2005-07-08 17:32:46.0	Ventana	34.258	01:26:17:19	7.077	V2682-02
 	cruise	Chionoecetes tanneri	602.42	2680	 	36.776585	-122.222	1804091	0.36	2005-06-27 17:35:18.0	Ventana	34.382	00:15:26:15	5.564	V2680-01
 	transect	Psolus squamatus	 	2687	 	 	 	1808597	 	2005-07-13 17:24:48.0	Ventana	 	00:51:41:07	 	V2687-01
 	transect	Poeobius meseres	500.59	2681	 	36.69763	-122.0534	2493346	0.44	2005-07-07 17:56:15.0	Ventana	34.347	01:26:38:02	6.017	V2681-02HD
 	transect	Ophiuroidea	998.5	2669	 	36.73115	-122.230736	1683426	0.45	2005-05-25 18:20:33.0	Ventana	34.523	00:42:59:14	3.914	V2669-01
 	descend	Lycodapus	1236.38	2683	 	36.70606	-122.04813	1757518	0.73	2005-07-11 19:46:27.0	Ventana	34.574	03:20:51:04	3.344	V2683-04
 	cruise	slope	194.17	2676	http://search.mbari.org/ARCHIVE/frameGrabs/Ventana/images/2676/01_24_23_09.jpg	36.806866	-122.02952	1676809	1.6	2005-06-14 17:44:42.0	Ventana	34.197	01:24:23:09	8.097	V2676-02
 	transect	Brisaster	1000.42	2669	 	36.73117	-122.24078	1689307	0.41	2005-05-25 19:32:20.0	Ventana	34.511	01:54:17:23	4.056	V2669-02
 	ascend	Copepoda	770.63	2681	 	36.69864	-122.05622	1717486	0.28	2005-07-07 20:09:15.853	Ventana	34.452	03:38:17:25	4.761	V2681-04
 	transect	Actiniaria sp. 3	399.85	2687	 	36.78811	-122.121735	1809303	1.14	2005-07-13 17:39:03.0	Ventana	34.238	01:05:25:05	7.284	V2687-02
 	transect	Psolus squamatus	 	2687	 	 	 	1811153	 	2005-07-13 19:57:18.0	Ventana	 	03:22:18:04	 	V2687-04
 	transect	molt	200.41	2681	 	36.698288	-122.05332	2491006	1.71	2005-07-07 17:10:43.0	Ventana	34.192	00:41:51:14	8.325	V2681-01HD
 	descend	Chaetognatha	228.3	2683	 	36.70098	-122.0507	1756420	1.7	2005-07-11 16:49:08.0	Ventana	34.189	00:36:47:19	8.15	V2683-01
 	transect	trawl mark	800.18	2674	http://search.mbari.org/ARCHIVE/frameGrabs/Ventana/images/2674/01_33_24_26.jpg	36.751263	-122.21601	1803385	0.35	2005-06-08 18:49:21.0	Ventana	34.486	01:33:24:26	4.36	V2674-02
 	ascend	Nanomia	258.17	2681	 	36.697838	-122.05522	1719397	 	2005-07-07 21:29:59.0	Ventana	 	05:03:28:05	 	V2681-05
 	ascend	Nanomia	180.9	2682	 	36.696426	-122.06064	1723774	1.96	2005-07-08 21:32:05.0	Ventana	34.175	05:23:45:01	8.401	V2682-06
 	transect	Microstomus pacificus	203.58	2696	 	36.80651	-122.13009	1813770	1.48	2005-08-01 18:28:51.0	Ventana	34.215	01:56:41:12	8.632	V2696-02
 	transect	Euphausia	200.48	2681	 	36.69828	-122.05329	2490706	1.71	2005-07-07 17:08:23.0	Ventana	34.193	00:39:31:16	8.323	V2681-01HD
 	transect	Mediaster	 	2687	 	 	 	1809003	 	2005-07-13 17:33:22.0	Ventana	 	01:00:14:01	 	V2687-01
 	descend	Myctophidae	462.01	2683	 	36.70168	-122.04931	1756720	0.78	2005-07-11 17:09:54.0	Ventana	34.284	00:57:34:14	6.665	V2683-01
 	transect	Phyllospadix	800.04	2674	 	36.752502	-122.2036	1799361	0.35	2005-06-08 17:47:08.0	Ventana	34.488	00:31:41:18	4.379	V2674-01
 	transect	Umbellula lindahli	599.31	2680	 	36.779167	-122.22427	1804483	0.36	2005-06-27 18:06:59.0	Ventana	34.376	00:47:05:18	5.601	V2680-01
 	transect	Calycophorae	700.65	2681	 	36.69684	-122.05271	2497700	0.29	2005-07-07 18:40:26.0	Ventana	34.437	02:10:08:21	4.93	V2681-03HD
 	ascend	Mysidae	348.34	2695	 	36.783882	-122.20093	1824524	1.26	2005-07-28 20:42:38.0	Ventana	34.25	05:40:13:16	8.084	V2695-04
 	transect	Metridium farcimen	200.22	2696	 	36.804554	-122.126785	1813470	1.51	2005-08-01 17:50:47.0	Ventana	34.21	01:18:40:08	8.667	V2696-02
 	transect	Mediaster	 	2687	 	 	 	1807024	 	2005-07-13 16:54:44.0	Ventana	 	00:21:38:22	 	V2687-01
 	transect	Phyllospadix	799.7	2674	 	36.75247	-122.20527	1799768	0.35	2005-06-08 17:56:20.0	Ventana	34.487	00:40:52:23	4.365	V2674-01
 	descend	Copepoda	752.44	2683	 	36.702377	-122.04892	1757126	0.28	2005-07-11 17:57:39.0	Ventana	34.451	01:41:43:07	4.754	V2683-02
 	transect	Mesomyaria	800.46	2674	 	36.751205	-122.216415	1803422	0.35	2005-06-08 18:50:56.0	Ventana	34.491	01:34:59:23	4.344	V2674-02
 	descend	Appendicularia	719.55	2682	 	36.69849	-122.05989	1721487	0.28	2005-07-08 18:22:57.0	Ventana	34.439	02:16:01:16	4.907	V2682-03
 	transect	Mesomyaria	801.41	2674	 	36.75228	-122.20719	1800031	0.36	2005-06-08 18:05:44.0	Ventana	34.485	00:50:15:27	4.359	V2674-01
 	transect	Poeobius meseres	400.78	2681	 	36.696384	-122.05187	2493000	0.79	2005-07-07 17:43:35.0	Ventana	34.275	01:13:59:17	6.648	V2681-02HD
 	descend	Appendicularia	172.39	2693	 	36.696194	-122.057884	1758224	1.96	2005-07-25 18:00:20.0	Ventana	34.14	00:40:50:26	8.912	V2693-01
 	transect	Pennatulacea sp.1	602.37	2680	 	36.79036	-122.23272	1806761	0.35	2005-06-27 20:18:44.0	Ventana	34.379	02:57:20:25	5.587	V2680-03
 	transect	Funiculina	999.2	2669	 	36.731026	-122.23206	1683712	0.45	2005-05-25 18:30:17.0	Ventana	34.523	00:52:42:25	3.913	V2669-01
 	descend	Dosidicus gigas	457.42	2681	 	36.69809	-122.05388	1715336	0.53	2005-07-07 17:52:26.7	Ventana	34.319	01:22:49:18	6.171	V2681-02
 	descend	Copepoda	285.09	2682	 	36.69938	-122.06068	1720103	1.26	2005-07-08 16:49:57.0	Ventana	34.233	00:43:59:11	7.552	V2682-01
 	transect	Ceriantharia sp. 2	998.71	2669	 	36.73091	-122.229774	1683366	0.45	2005-05-25 18:12:49.0	Ventana	34.521	00:35:16:19	3.908	V2669-01
 	transect	Ceriantharia sp. 1	599.3	2680	 	36.779835	-122.22495	1804566	0.35	2005-06-27 18:15:49.0	Ventana	34.381	00:55:55:09	5.579	V2680-01
 	transect	Psolus squamatus	 	2687	 	 	 	1810447	 	2005-07-13 19:18:24.0	Ventana	 	02:44:08:05	 	V2687-03
 	transect	Mesomyaria	800.49	2674	 	36.752506	-122.20307	1799278	0.34	2005-06-08 17:43:48.0	Ventana	34.485	00:28:21:06	4.416	V2674-01
 	transect	Phyllospadix	199.68	2696	 	36.80426	-122.12608	1813410	1.52	2005-08-01 17:43:47.0	Ventana	34.208	01:11:41:09	8.663	V2696-02
 	transect	ink	800.98	2681	 	36.695065	-122.0508	2498046	0.31	2005-07-07 18:53:40.0	Ventana	34.476	02:23:21:20	4.483	V2681-03HD
 	cruise	LRJ Complex	533.42	2688	 	36.798717	-122.01944	1677455	0.61	2005-07-14 17:02:55.0	Ventana	34.324	00:49:12:26	6.239	V2688-01
 	descend	Appendicularia	416.76	2683	 	36.70144	-122.04957	1756660	0.89	2005-07-11 17:05:45.0	Ventana	34.266	00:53:24:21	6.852	V2683-01
 	transect	Mediaster	 	2687	 	 	 	1810807	 	2005-07-13 19:35:11.0	Ventana	 	03:00:54:02	 	V2687-03
 	cruise	Parastichopus	250.88	2688	 	36.809483	-122.02042	1677921	1.55	2005-07-14 18:30:37.0	Ventana	34.189	02:15:53:17	8.254	V2688-03
 	transect	Ophiuridae	 	2687	http://search.mbari.org/ARCHIVE/frameGrabs/Ventana/images/2687/03_16_31_19.jpg	 	 	1811070	 	2005-07-13 19:51:30.0	Ventana	 	03:16:31:19	 	V2687-04
 	transect	Mesomyaria	1000.05	2669	 	36.73116	-122.240364	1689247	0.41	2005-05-25 19:29:44.0	Ventana	34.51	01:51:42:11	4.063	V2669-02
 	transect	Lycenchelys crotalinus	1000.32	2669	 	36.731503	-122.24255	1694512	0.41	2005-05-25 19:42:15.0	Ventana	34.513	02:04:12:22	4.067	V2669-02
 	cruise	Chionoecetes tanneri	1221.49	2683	 	36.70628	-122.04761	1757601	0.73	2005-07-11 20:04:49.0	Ventana	34.571	03:39:10:29	3.348	V2683-04
 	transect	Calycophorae	600.6	2681	 	36.696144	-122.05172	2493706	0.3	2005-07-07 18:20:41.0	Ventana	34.387	01:51:01:26	5.497	V2681-02HD
 	transect	Lycenchelys crotalinus	999.64	2669	http://search.mbari.org/ARCHIVE/frameGrabs/Ventana/images/2669/01_33_37_16.jpg	36.73137	-122.23764	1687518	0.44	2005-05-25 19:11:38.0	Ventana	34.519	01:33:37:16	3.949	V2669-02
 	cruise	Rathbunaster californicus	238.72	2676	 	36.80583	-122.02944	1676749	1.56	2005-06-14 17:38:31.0	Ventana	34.205	01:18:15:07	8.044	V2676-02
 	ascend	Appendicularia	796.0	2681	 	36.69912	-122.0566	1717426	0.33	2005-07-07 20:01:17.393	Ventana	34.466	03:30:19:11	4.605	V2681-04
 	transect	Ophiuroidea	999.07	2669	 	36.731388	-122.23609	1684570	0.44	2005-05-25 18:58:13.0	Ventana	34.522	01:20:13:11	3.94	V2669-02
 	transect	Phyllospadix	800.94	2674	 	36.752533	-122.20259	1799218	0.35	2005-06-08 17:41:36.0	Ventana	34.486	00:26:09:19	4.382	V2674-01
 	transect	Pennatulacea sp.1	598.9	2680	 	36.7803	-122.225296	1804626	0.35	2005-06-27 18:21:06.0	Ventana	34.38	01:01:11:01	5.575	V2680-01
 	transect	Sebastolobus altivelis	801.06	2674	 	36.751965	-122.20924	1800880	0.36	2005-06-08 18:15:40.0	Ventana	34.49	01:00:11:04	4.318	V2674-01
 	transect	Caecosagitta macrocephala	700.63	2681	 	36.6959	-122.051765	2497843	0.29	2005-07-07 18:44:20.0	Ventana	34.438	02:14:03:20	4.937	V2681-03HD
 	transect	chuniphyes	500.57	2681	 	36.69748	-122.05321	2493406	0.44	2005-07-07 17:56:57.0	Ventana	34.346	01:27:20:26	6.018	V2681-02HD
 	transect	Mediaster	 	2687	 	 	 	1807213	 	2005-07-13 17:03:33.0	Ventana	 	00:30:27:18	 	V2687-01
 	transect	Psolus squamatus	399.87	2687	 	36.78804	-122.12149	1809063	1.14	2005-07-13 17:35:40.0	Ventana	34.237	01:02:02:09	7.276	V2687-02
 	transect	Phyllospadix	203.42	2696	 	36.807407	-122.13107	1813830	1.47	2005-08-01 18:41:20.0	Ventana	34.217	02:08:25:00	8.62	V2696-03
 	transect	Neptunea amianta	1000.26	2669	 	36.731377	-122.24169	1689842	0.4	2005-05-25 19:37:53.0	Ventana	34.509	01:59:50:01	4.076	V2669-02
 	ascend	Haliscera	270.12	2693	 	36.691395	-122.06226	1759090	1.44	2005-07-25 21:20:53.0	Ventana	34.245	03:45:24:12	8.338	V2693-04
 	transect	Umbellula lindahli	598.5	2680	 	36.782307	-122.22745	1805129	0.35	2005-06-27 18:48:20.0	Ventana	34.379	01:27:24:29	5.586	V2680-02
 	transect	Calycophorae	300.42	2681	 	36.69576	-122.05138	2492608	1.24	2005-07-07 17:29:33.0	Ventana	34.233	01:00:40:26	7.415	V2681-01HD
 	transect	Hastigerinella digitata	300.45	2681	 	36.697926	-122.05331	2492105	1.24	2005-07-07 17:21:47.0	Ventana	34.234	00:52:53:23	7.402	V2681-01HD
 	transect	Poeobius meseres	1001.08	2681	 	36.69477	-122.050575	2498549	0.47	2005-07-07 19:21:25.0	Ventana	34.532	02:51:05:12	3.868	V2681-03HD
 	transect	molt	100.49	2681	 	36.69903	-122.05378	2489848	2.13	2005-07-07 16:51:50.0	Ventana	34.069	00:22:58:29	9.146	V2681-01HD
 	transect	cydippida	200.45	2681	 	36.69828	-122.05329	2490240	1.7	2005-07-07 17:06:10.0	Ventana	34.199	00:37:18:13	8.36	V2681-01HD
 	transect	Mesomyaria	998.27	2669	 	36.732967	-122.25228	1737416	0.4	2005-05-25 20:47:03.0	Ventana	34.508	03:07:51:08	4.076	V2669-04
 	transect	Phyllospadix	802.49	2674	 	36.75231	-122.20575	1799828	0.36	2005-06-08 17:58:36.0	Ventana	34.489	00:43:08:04	4.333	V2674-01
 	transect	Porifera sp. 1	399.71	2687	http://search.mbari.org/ARCHIVE/frameGrabs/Ventana/images/2687/01_44_34_19.jpg	36.78922	-122.124405	1809566	1.16	2005-07-13 18:18:15.0	Ventana	34.242	01:44:34:19	7.335	V2687-02
 	descend	Chaetognatha	327.66	2693	 	36.697445	-122.06057	1758510	1.29	2005-07-25 19:47:11.0	Ventana	34.236	02:26:46:01	7.576	V2693-03
 	transect	Psolus squamatus	 	2687	 	 	 	1808860	 	2005-07-13 17:30:35.0	Ventana	 	00:57:27:27	 	V2687-01
 	transect	Psolus squamatus	 	2687	 	 	 	1810161	 	2005-07-13 19:02:27.0	Ventana	 	02:28:12:14	 	V2687-03
 	transect	Phyllospadix	998.81	2669	 	36.732803	-122.25143	1737213	0.41	2005-05-25 20:41:53.0	Ventana	34.509	03:02:42:10	4.072	V2669-04
 	descend	Appendicularia	897.15	2683	 	36.703274	-122.048325	1757255	0.37	2005-07-11 18:31:59.0	Ventana	34.495	02:12:24:16	4.267	V2683-03
 	transect	Ceriantharia sp. 1	798.35	2674	 	36.751686	-122.21344	1801272	0.35	2005-06-08 18:34:39.0	Ventana	34.488	01:18:43:13	4.353	V2674-02
 	transect	Neptunea amianta	999.69	2669	 	36.731415	-122.23715	1687458	0.44	2005-05-25 19:07:53.0	Ventana	34.52	01:29:52:20	3.942	V2669-02
 	descend	Poeobius meseres	1099.88	2682	 	36.698227	-122.05915	1722082	0.56	2005-07-08 19:07:48.0	Ventana	34.55	03:00:25:12	3.644	V2682-04
 	transect	Nanomia bijuga	400.75	2681	 	36.696865	-122.05247	2493060	0.79	2005-07-07 17:45:44.0	Ventana	34.277	01:16:07:25	6.659	V2681-02HD
 	transect	Gastropoda sp.2	 	2669	 	 	 	1737573	 	2005-05-25 13:51:51.0	Ventana	 	03:12:39:04	 	V2669-04
 	transect	Pennatulacea sp.1	602.23	2680	 	36.790977	-122.23287	1806821	0.36	2005-06-27 20:24:11.0	Ventana	34.378	03:02:47:28	5.587	V2680-03
 	ascend	Appendicularia	695.55	2682	 	36.698875	-122.05941	1723337	0.3	2005-07-08 20:32:28.0	Ventana	34.415	04:24:36:09	5.097	V2682-05
 	ascend	Appendicularia	600.12	2683	 	36.704773	-122.050606	1757961	0.3	2005-07-11 21:12:03.0	Ventana	34.381	04:44:56:13	5.613	V2683-05
 	transect	Mediaster	 	2687	 	 	 	1810710	 	2005-07-13 19:29:07.0	Ventana	 	02:54:50:17	 	V2687-03
 	descend	Bathocyroe	450.12	2682	 	36.698494	-122.05953	1720781	0.57	2005-07-08 17:54:44.0	Ventana	34.317	01:48:13:24	6.301	V2682-02
 	transect	Sebastolobus	 	2687	 	 	 	1812529	 	2005-07-13 20:44:10.0	Ventana	 	04:08:41:14	 	V2687-05
 	transect	Nanomia bijuga	400.73	2681	 	36.697735	-122.05344	2493203	0.79	2005-07-07 17:49:21.0	Ventana	34.278	01:19:45:04	6.66	V2681-02HD
 	transect	Gastropoda sp.2	1000.84	2669	 	36.732292	-122.24911	1736272	0.41	2005-05-25 20:26:40.0	Ventana	34.51	02:48:10:02	4.065	V2669-03
 	transect	Umbellula lindahli	602.01	2680	 	36.78723	-122.23167	1805912	0.36	2005-06-27 19:47:17.0	Ventana	34.378	02:25:55:18	5.598	V2680-03
 	transect	Mesomyaria	1000.27	2669	 	36.731464	-122.24206	1694452	0.4	2005-05-25 19:39:43.0	Ventana	34.509	02:01:40:03	4.076	V2669-02
 	transect	Psolus squamatus	 	2687	 	 	 	1811416	 	2005-07-13 20:11:59.0	Ventana	 	03:36:58:19	 	V2687-04
 	transect	Lycenchelys camchatica	803.17	2674	 	36.750782	-122.22027	1803685	0.34	2005-06-08 19:07:41.0	Ventana	34.484	01:51:43:19	4.387	V2674-02
 	ascend	Poeobius meseres	1070.69	2683	 	36.707596	-122.04913	1757804	0.56	2005-07-11 20:46:01.0	Ventana	34.541	04:20:20:24	3.727	V2683-04
 	transect	Mediaster	 	2687	 	 	 	1810867	 	2005-07-13 19:38:11.0	Ventana	 	03:03:54:02	 	V2687-03
 	transect	Mesomyaria	800.98	2674	 	36.75212	-122.208305	1800737	0.35	2005-06-08 18:11:04.0	Ventana	34.49	00:55:36:00	4.322	V2674-01
 	transect	Nanomia bijuga	200.39	2681	 	36.698303	-122.053375	2491149	1.68	2005-07-07 17:12:18.0	Ventana	34.198	00:43:25:23	8.337	V2681-01HD
 	transect	apolemia	500.6	2681	 	36.69625	-122.05179	2493609	0.44	2005-07-07 18:02:11.0	Ventana	34.347	01:32:34:02	6.013	V2681-02HD
 	descend	sinker	508.35	2683	 	36.70142	-122.04919	1756863	0.68	2005-07-11 17:39:53.0	Ventana	34.305	01:24:01:08	6.461	V2683-02
 	transect	Euplexaura	 	2687	 	 	 	1808657	 	2005-07-13 17:26:25.0	Ventana	 	00:53:17:12	 	V2687-01
 	transect	Mesomyaria	800.75	2674	 	36.752537	-122.20163	1799075	0.34	2005-06-08 17:36:35.0	Ventana	34.487	00:21:08:27	4.415	V2674-01
 	transect	Mesomyaria	997.53	2669	 	36.730614	-122.22813	1649337	0.45	2005-05-25 18:01:19.0	Ventana	34.521	00:23:47:01	3.907	V2669-01
 	transect	Chaetognatha	100.5	2681	 	36.699825	-122.05429	2489705	2.13	2005-07-07 16:48:21.0	Ventana	34.067	00:19:29:21	9.15	V2681-01HD
 	ascend	Copepoda	344.55	2693	 	36.693253	-122.06137	1758947	1.25	2005-07-25 21:10:44.0	Ventana	34.237	03:35:16:26	7.406	V2693-04
 	cruise	Stylasterias forreri	199.79	2696	 	36.80219	-122.12132	1812875	1.56	2005-08-01 16:37:01.0	Ventana	34.2	00:05:21:28	8.612	V2696-01
 	cruise	Metridium farcimen	90.59	2688	 	36.816414	-122.016106	1679365	2.02	2005-07-14 20:13:46.0	Ventana	34.09	03:58:31:11	8.927	V2688-04
 	ascend	surface water	 	2683	 	 	 	1758164	 	2005-07-11 14:45:04.0	Ventana	 	05:17:54:17	 	V2683-05
 	transect	Ceriantharia sp. 1	600.8	2680	 	36.777107	-122.22226	1804220	0.36	2005-06-27 17:41:36.0	Ventana	34.378	00:21:44:13	5.582	V2680-01
 	transect	Allocentrotus fragilis	399.86	2687	 	36.7881	-122.12162	1809206	1.13	2005-07-13 17:37:11.0	Ventana	34.243	01:03:32:03	7.262	V2687-02
 	transect	Vitreosalpa gemini	600.61	2681	 	36.69671	-122.05238	2493766	0.3	2005-07-07 18:23:19.0	Ventana	34.388	01:53:41:04	5.478	V2681-02HD
 	transect	Ophiuroidea	999.24	2669	 	36.731365	-122.236	1684510	0.44	2005-05-25 18:57:39.0	Ventana	34.52	01:19:39:03	3.938	V2669-02
 	ascend	Appendicularia	255.7	2681	 	36.698624	-122.05652	1719134	1.46	2005-07-07 21:23:30.967	Ventana	34.228	04:51:49:14	7.986	V2681-05
 	transect	Mediaster	 	2687	 	 	 	1811620	 	2005-07-13 20:17:39.0	Ventana	 	03:42:37:23	 	V2687-04
 	descend	Solmaris	795.82	2682	 	36.69836	-122.059685	1721690	0.31	2005-07-08 18:36:55.0	Ventana	34.469	02:29:58:23	4.577	V2682-03
 	transect	Mesomyaria	999.86	2669	 	36.7326	-122.250626	1737010	0.41	2005-05-25 20:37:08.0	Ventana	34.511	02:58:34:26	4.073	V2669-03
 	transect	Phyllospadix	999.93	2669	 	36.731422	-122.23678	1686909	0.44	2005-05-25 19:04:08.0	Ventana	34.519	01:26:07:28	3.946	V2669-02
 	cruise	Ophiodon elongatus	108.05	2688	 	36.815887	-122.024414	1678064	1.96	2005-07-14 19:04:09.0	Ventana	34.09	02:49:23:10	8.89	V2688-03
 	ascend	Appendicularia	368.28	2681	 	36.69936	-122.05488	1718036	0.98	2005-07-07 20:50:58.867	Ventana	34.265	04:19:19:11	7.069	V2681-05
 	descend	Nanomia	190.22	2683	 	36.701023	-122.05111	1756360	1.73	2005-07-11 16:44:29.0	Ventana	34.193	00:32:08:27	8.463	V2683-01
 	transect	Mediaster	 	2687	 	 	 	1812672	 	2005-07-13 20:50:55.0	Ventana	 	04:15:25:16	 	V2687-05
 	transect	Allocentrotus fragilis	 	2687	 	 	 	1812326	 	2005-07-13 20:32:18.0	Ventana	 	03:57:16:13	 	V2687-04
 	transect	Phyllospadix	 	2687	 	 	 	1806964	 	2005-07-13 16:51:06.0	Ventana	 	00:18:01:04	 	V2687-01
 	cruise	Cydippida	334.27	2676	 	36.804653	-122.03126	1676229	1.22	2005-06-14 16:22:10.0	Ventana	34.237	00:06:19:17	7.497	V2676-01
 	transect	Phyllospadix	1000.09	2669	 	36.731693	-122.24371	1733874	0.41	2005-05-25 19:48:16.0	Ventana	34.509	02:09:48:15	4.067	V2669-03
 	transect	Psolus squamatus	 	2687	 	 	 	1809912	 	2005-07-13 18:47:57.0	Ventana	 	02:13:43:10	 	V2687-03
 	descend	Hastigerinella digitata	 	2693	 	 	 	1759450	 	2005-07-25 16:45:28.0	Ventana	 	00:24:02:17	 	V2693-01
 	transect	Psolus squamatus	 	2687	 	 	 	1810304	 	2005-07-13 19:15:03.0	Ventana	 	02:40:47:29	 	V2687-03
 	transect	molt	100.55	2681	 	36.69983	-122.05429	2489502	2.12	2005-07-07 16:43:09.0	Ventana	34.068	00:14:18:22	9.15	V2681-01HD
 	transect	Sebastolobus	998.68	2669	 	36.73116	-122.23463	1684164	0.45	2005-05-25 18:47:01.0	Ventana	34.52	01:09:01:28	3.916	V2669-02
 	transect	chuniphyes	700.63	2681	 	36.697575	-122.053444	2497640	0.29	2005-07-07 18:37:20.0	Ventana	34.432	02:07:02:29	4.981	V2681-03HD
 	stationary	Merluccius productus	501.98	2694	 	36.784637	-122.20049	1676575	0.78	2005-07-27 18:50:41.0	Ventana	34.28	01:33:22:05	6.545	V2694-02
 	descend	Poeobius meseres	594.59	2681	 	36.695686	-122.05108	1715636	0.32	2005-07-07 18:07:37.133	Ventana	34.379	01:37:58:18	5.551	V2681-02
 	transect	Nanomia bijuga	200.44	2681	 	36.69828	-122.05329	2490097	1.7	2005-07-07 17:04:40.0	Ventana	34.197	00:35:47:11	8.36	V2681-01HD
 	descend	Appendicularia	316.97	2683	 	36.70114	-122.050125	1756517	1.22	2005-07-11 16:54:38.0	Ventana	34.24	00:42:16:27	7.552	V2683-01
 	transect	Phyllospadix	801.06	2674	 	36.752556	-122.20134	1774190	0.34	2005-06-08 17:35:14.0	Ventana	34.482	00:19:48:01	4.38	V2674-01
 	transect	Lycenchelys camchatica	799.66	2674	 	36.752525	-122.20394	1799421	0.35	2005-06-08 17:48:45.0	Ventana	34.483	00:33:18:19	4.374	V2674-01
 	transect	molt	200.43	2681	 	36.69828	-122.05329	2490646	1.73	2005-07-07 17:07:59.0	Ventana	34.193	00:39:07:20	8.328	V2681-01HD
 	descend	Chaetognatha	276.05	2682	 	36.69977	-122.06079	1720043	1.34	2005-07-08 16:33:52.0	Ventana	34.226	00:27:56:13	7.706	V2682-01
 	transect	Phyllospadix	1000.3	2669	http://search.mbari.org/ARCHIVE/frameGrabs/Ventana/images/2669/02_19_45_18.jpg	36.731842	-122.245224	1735363	0.4	2005-05-25 19:58:15.0	Ventana	34.506	02:19:45:18	4.099	V2669-03
 	transect	Rathbunaster californicus	198.41	2696	 	36.80362	-122.124504	1813267	1.53	2005-08-01 17:28:14.0	Ventana	34.196	00:56:31:18	8.624	V2696-01
 	transect	Mesomyaria	999.94	2669	 	36.731106	-122.23909	1689104	0.43	2005-05-25 19:22:01.0	Ventana	34.518	01:43:59:16	3.97	V2669-02
 	transect	Mesomyaria	800.83	2674	 	36.751133	-122.21722	1803482	0.35	2005-06-08 18:54:47.0	Ventana	34.491	01:38:49:26	4.331	V2674-02
 	ascend	Euphausiacea	378.8	2693	 	36.69624	-122.06056	1758744	1.2	2005-07-25 20:48:17.0	Ventana	34.228	03:12:50:01	7.172	V2693-04
 	transect	Gastropoda sp.2	998.64	2669	 	36.73118	-122.23449	1694655	0.45	2005-05-25 18:45:29.0	Ventana	34.522	01:07:29:14	3.914	V2669-02
 	transect	Ceriantharia sp. 1	800.86	2674	 	36.751755	-122.211105	1801083	0.35	2005-06-08 18:24:34.0	Ventana	34.488	01:08:39:07	4.34	V2674-02
 	descend	Mysidae	671.68	2683	 	36.70203	-122.04894	1757066	0.32	2005-07-11 17:52:51.0	Ventana	34.416	01:36:58:04	5.139	V2683-02
 	descend	sinker	1092.13	2683	 	36.705112	-122.048904	1757458	0.55	2005-07-11 19:28:48.0	Ventana	34.539	03:09:09:29	3.744	V2683-03
 	transect	Mediaster	 	2687	 	 	 	1811213	 	2005-07-13 20:03:04.0	Ventana	 	03:28:03:13	 	V2687-04
 	transect	Mediaster	 	2687	 	 	 	1811740	 	2005-07-13 20:23:24.0	Ventana	 	03:48:22:17	 	V2687-04
 	transect	Rathbunaster californicus	200.37	2696	 	36.80514	-122.12798	1813567	1.5	2005-08-01 18:00:24.0	Ventana	34.212	01:28:16:15	8.67	V2696-02
 	transect	Ophiuroidea	999.32	2669	 	36.731148	-122.235535	1684344	0.44	2005-05-25 18:54:03.0	Ventana	34.521	01:16:03:14	3.927	V2669-02
 	transect	Mesomyaria	 	2669	 	 	 	1737679	 	2005-05-25 13:56:47.0	Ventana	 	03:17:34:13	 	V2669-04
 	descend	Copepoda	936.62	2683	 	36.70374	-122.0486	1757315	0.39	2005-07-11 19:08:14.0	Ventana	34.505	02:48:36:02	4.145	V2683-03
 	transect	Mediaster	 	2687	 	 	 	1810604	 	2005-07-13 19:23:48.0	Ventana	 	02:49:32:10	 	V2687-03
 	ascend	Lycodapus	1270.53	2673	 	36.802937	-121.804695	1668408	0.8	2005-06-07 17:51:10.0	Ventana	34.581	00:35:00:18	3.252	V2673-01
 	descend	Solmissus	264.36	2681	 	36.69857	-122.05361	1713606	1.42	2005-07-07 17:16:35.867	Ventana	34.22	00:47:44:02	7.818	V2681-01
 	cruise	Microstomus pacificus	 	2687	 	 	 	1806904	 	2005-07-13 16:35:47.0	Ventana	 	00:02:42:15	 	V2687-01
 	transect	Sebastolobus	999.51	2669	 	36.730583	-122.2291	1651044	0.45	2005-05-25 18:07:37.0	Ventana	34.522	00:30:05:04	3.908	V2669-01
 	ascend	Nanomia	264.11	2681	 	36.699516	-122.054504	1718442	1.41	2005-07-07 21:09:07.567	Ventana	34.23	04:37:27:13	7.911	V2681-05
 	transect	Mesomyaria	997.43	2669	 	36.730667	-122.22755	1649171	0.45	2005-05-25 17:57:38.0	Ventana	34.521	00:20:06:17	3.909	V2669-01
 	transect	Umbellula lindahli	599.8	2680	 	36.778038	-122.22319	1804340	0.36	2005-06-27 17:53:29.0	Ventana	34.377	00:33:36:18	5.591	V2680-01
 	transect	Phyllospadix	400.06	2687	 	36.789066	-122.12398	1809529	1.17	2005-07-13 18:12:04.0	Ventana	34.238	01:38:24:08	7.357	V2687-02
 	transect	Lycenchelys camchatica	802.5	2674	 	36.752285	-122.20608	1799888	0.36	2005-06-08 18:00:15.0	Ventana	34.49	00:44:47:15	4.342	V2674-01
 	ascend	Euphausiacea	258.17	2681	 	36.697838	-122.05522	1719517	 	2005-07-07 21:29:59.0	Ventana	 	05:09:39:28	 	V2681-05
 	transect	Rhopalonematidae	901.04	2681	 	36.696354	-122.05242	2498309	0.39	2005-07-07 19:09:29.0	Ventana	34.505	02:39:09:24	4.17	V2681-03HD
 	ascend	Phialidium	613.71	2681	 	36.69893	-122.05424	1717690	0.31	2005-07-07 20:29:13.4	Ventana	34.385	03:58:14:05	5.508	V2681-04
 	transect	Porifera sp. 1	 	2687	 	 	 	1807656	 	2005-07-13 17:21:10.0	Ventana	 	00:48:03:02	 	V2687-01
 	ascend	Lobata	357.12	2683	 	36.703766	-122.050606	1758067	1.11	2005-07-11 21:22:10.0	Ventana	34.24	04:55:02:17	7.117	V2683-05
 	ascend	Haliscera	370.34	2693	 	36.695602	-122.06066	1758804	1.21	2005-07-25 20:53:45.0	Ventana	34.231	03:18:17:23	7.239	V2693-04
 	cruise	pebble	381.98	2676	http://search.mbari.org/ARCHIVE/frameGrabs/Ventana/images/2676/00_29_20_26.jpg	36.804375	-122.029175	20003922	0.92	2005-06-14 16:45:14.0	Ventana	34.274	00:29:20:26	7.015	V2676-01
 	transect	Psolus squamatus	 	2687	 	 	 	1812815	 	2005-07-13 20:59:08.0	Ventana	 	04:23:38:19	 	V2687-05
 	transect	Mediaster	 	2687	 	 	 	1808777	 	2005-07-13 17:29:19.0	Ventana	 	00:56:11:25	 	V2687-01
 	cruise	LRJ Complex	611.0	2688	 	36.79582	-122.01976	1677358	0.45	2005-07-14 16:37:08.0	Ventana	34.387	00:23:28:02	5.524	V2688-01
 	transect	Porifera	 	2687	 	 	 	1810281	 	2005-07-13 19:14:01.0	Ventana	 	02:39:45:18	 	V2687-03
 	ascend	Euphausiacea	227.24	2693	 	36.691242	-122.06249	1759127	1.6	2005-07-25 21:23:30.0	Ventana	34.21	03:48:01:09	8.527	V2693-04
 	transect	Phyllospadix	800.36	2674	 	36.75256	-122.20232	1799181	0.34	2005-06-08 17:40:06.0	Ventana	34.479	00:24:39:23	4.433	V2674-01
 	ascend	Phialidium	678.68	2681	 	36.69875	-122.054504	1717629	0.27	2005-07-07 20:22:47.9	Ventana	34.413	03:51:49:02	5.162	V2681-04
 	descend	Lilyopsis fluoracantha	351.97	2683	 	36.701305	-122.04992	1756563	1.18	2005-07-11 16:56:38.0	Ventana	34.23	00:44:17:25	7.179	V2683-01
 	transect	Phyllospadix	798.92	2674	 	36.751408	-122.21489	1801392	0.35	2005-06-08 18:43:43.0	Ventana	34.49	01:27:46:13	4.336	V2674-02
 	descend	Nanomia	189.67	2682	 	36.699894	-122.06074	1719946	1.95	2005-07-08 16:20:22.0	Ventana	34.155	00:14:27:16	8.32	V2682-01
 	ascend	Appendicularia	538.94	2682	 	36.69833	-122.062805	1723631	0.41	2005-07-08 21:10:05.0	Ventana	34.355	05:01:45:29	5.965	V2682-06
 	descend	Appendicularia	739.66	2681	 	36.694912	-122.05057	1716231	0.3	2005-07-07 18:50:05.633	Ventana	34.446	02:19:49:09	4.793	V2681-03
 	ascend	Appendicularia	893.64	2682	 	36.698345	-122.05842	1723217	0.34	2005-07-08 20:16:19.0	Ventana	34.496	04:08:28:19	4.282	V2682-05
 	transect	Mediaster	 	2687	 	 	 	1810973	 	2005-07-13 19:45:32.0	Ventana	 	03:10:33:12	 	V2687-04
 	transect	Ophiuroidea	999.17	2669	 	36.731407	-122.23642	1684773	0.44	2005-05-25 19:00:40.0	Ventana	34.521	01:22:40:03	3.939	V2669-02
 	transect	Microstomus pacificus	1000.07	2669	 	36.73105	-122.2394	1689150	0.41	2005-05-25 19:23:42.0	Ventana	34.517	01:45:40:12	4.046	V2669-02
 	ascend	Lycodapus	1190.68	2683	 	36.707325	-122.04765	1757698	0.71	2005-07-11 20:22:28.0	Ventana	34.572	03:56:49:28	3.366	V2683-04
 	cruise	LRJ Complex	432.81	2688	 	36.805035	-122.01879	1677681	0.92	2005-07-14 17:43:58.0	Ventana	34.266	01:29:41:16	6.946	V2688-02
 	descend	Solmaris	243.36	2693	 	36.69851	-122.0617	1758390	1.49	2005-07-25 19:24:08.0	Ventana	34.241	02:04:08:26	8.498	V2693-02
 	transect	molt	100.5	2681	 	36.69982	-122.05429	2489728	2.13	2005-07-07 16:48:47.0	Ventana	34.067	00:19:57:07	9.152	V2681-01HD
 	transect	Phyllospadix	196.97	2696	 	36.80337	-122.1235	1813184	1.55	2005-08-01 17:16:40.0	Ventana	34.2	00:44:58:08	8.626	V2696-01
 	transect	Ophiuroidea	999.01	2669	 	36.731415	-122.23619	1684667	0.44	2005-05-25 18:58:57.0	Ventana	34.52	01:20:57:07	3.94	V2669-02
 	ascend	Chaetognatha	378.39	2681	 	36.699352	-122.05473	1718013	0.94	2005-07-07 20:49:50.41	Ventana	34.268	04:18:12:00	6.999	V2681-05
 	transect	Mediaster	 	2687	 	 	 	1812492	 	2005-07-13 20:41:35.0	Ventana	 	04:06:32:26	 	V2687-04
 	transect	Gastropoda sp.2	998.73	2669	 	36.73099	-122.230225	1695061	0.45	2005-05-25 18:16:16.0	Ventana	34.523	00:38:42:09	3.908	V2669-01
 	transect	Mesomyaria	998.8	2669	 	36.73285	-122.25187	1737250	0.4	2005-05-25 20:44:12.0	Ventana	34.509	03:05:01:03	4.075	V2669-04
 	transect	Neptunea amianta	800.71	2674	 	36.752605	-122.2019	1799121	0.34	2005-06-08 17:38:03.0	Ventana	34.479	00:22:37:00	4.403	V2674-01
 	transect	Bathylagus	600.57	2681	 	36.697083	-122.05282	2493812	0.3	2005-07-07 18:25:00.0	Ventana	34.388	01:55:21:06	5.472	V2681-02HD
 	transect	Calycophorae	1000.94	2681	 	36.696354	-122.05264	2498692	0.47	2005-07-07 19:29:27.0	Ventana	34.53	02:59:06:24	3.878	V2681-03HD
 	transect	Ophiuroidea	999.7	2669	 	36.730934	-122.2316	1683652	0.45	2005-05-25 18:27:57.0	Ventana	34.522	00:50:23:09	3.916	V2669-01
 	transect	Mesomyaria	1000.28	2669	 	36.731667	-122.24377	1733934	0.41	2005-05-25 19:48:37.0	Ventana	34.507	02:10:08:23	4.068	V2669-03
 	transect	Chionoecetes tanneri	802.1	2674	 	36.751762	-122.21051	1801023	0.35	2005-06-08 18:22:22.0	Ventana	34.49	01:06:26:19	4.33	V2674-02
 	transect	Phyllospadix	197.87	2696	 	36.80265	-122.1217	1812921	1.53	2005-08-01 16:48:41.0	Ventana	34.204	00:17:00:27	8.563	V2696-01
 	transect	Psolus squamatus	399.85	2687	 	36.788048	-122.121544	1809160	1.13	2005-07-13 17:36:19.0	Ventana	34.242	01:02:41:19	7.271	V2687-02
 	transect	Psolus squamatus	 	2687	 	 	 	1807596	 	2005-07-13 17:16:30.0	Ventana	 	00:43:23:17	 	V2687-01
 	descend	Aegina	700.61	2681	 	36.697994	-122.05374	1716125	0.29	2005-07-07 18:34:53.533	Ventana	34.43	02:04:37:20	4.993	V2681-03
 	transect	Sternoptychidae	800.87	2681	 	36.696358	-122.05236	2498249	0.31	2005-07-07 19:00:04.0	Ventana	34.475	02:29:47:01	4.5	V2681-03HD
 	descend	Copepoda	893.94	2682	 	36.698257	-122.05944	1721773	0.34	2005-07-08 18:50:59.0	Ventana	34.493	02:44:02:07	4.309	V2682-03
 	transect	molt	50.42	2681	 	36.69983	-122.05429	2485614	2.98	2005-07-07 16:36:11.0	Ventana	33.915	00:07:21:09	9.622	V2681-01HD
 	transect	Ceriantharia sp. 2	1000.52	2669	 	36.73224	-122.24868	1736235	0.41	2005-05-25 20:24:06.0	Ventana	34.509	02:45:34:28	4.063	V2669-03
 	cruise	Macrouridae	1001.65	2679	 	36.68986	-122.1656	1824344	0.42	2005-06-16 17:30:29.0	Ventana	34.513	00:01:51:23	4.116	V2679-01
 	descend	Solmissus	324.21	2681	 	36.695633	-122.051254	1713666	1.13	2005-07-07 17:30:40.167	Ventana	34.243	01:01:47:15	7.254	V2681-01
 	transect	Stomphia	998.58	2669	 	36.73288	-122.252045	1737310	0.4	2005-05-25 20:45:18.0	Ventana	34.509	03:06:07:02	4.074	V2669-04
 	descend	Copepoda	544.86	2683	 	36.701633	-122.04916	1756946	0.49	2005-07-11 17:43:59.0	Ventana	34.328	01:28:05:10	6.129	V2683-02
 	ascend	Lycenchelys	1016.86	2689	 	36.771614	-122.08296	1669912	0.51	2005-07-18 17:36:50.0	Ventana	34.533	00:59:51:17	3.826	V2689-01
 	transect	Mesomyaria	999.17	2669	 	36.73113	-122.23401	1684021	0.45	2005-05-25 18:42:08.0	Ventana	34.523	01:04:09:13	3.913	V2669-02
 	transect	Phyllospadix	999.73	2669	 	36.7311	-122.23521	1684284	0.45	2005-05-25 18:51:58.0	Ventana	34.521	01:13:58:00	3.922	V2669-02
 	cruise	Coryphaenoides acrolepis	1284.11	2673	 	36.802937	-121.804695	1668348	0.8	2005-06-07 17:29:52.0	Ventana	34.581	00:13:43:12	3.227	V2673-01
 	transect	Phyllospadix	801.72	2674	 	36.75191	-122.209854	1800963	0.35	2005-06-08 18:19:36.0	Ventana	34.489	01:03:41:18	4.337	V2674-02
 	transect	Neptunea amianta	601.99	2680	 	36.79139	-122.23293	1806844	0.36	2005-06-27 20:27:39.0	Ventana	34.378	03:06:15:05	5.588	V2680-03
 	transect	Calycophorae	500.55	2681	 	36.697376	-122.05308	2493443	0.44	2005-07-07 17:57:28.0	Ventana	34.346	01:27:50:07	6.02	V2681-02HD
 	ascend	Appendicularia	351.18	2681	 	36.699337	-122.05509	1718073	1.06	2005-07-07 20:52:30.917	Ventana	34.252	04:20:51:25	7.17	V2681-05
 	transect	Gastropoda sp.2	999.63	2669	 	36.73143	-122.23659	1694692	0.44	2005-05-25 19:02:48.0	Ventana	34.52	01:24:47:22	3.937	V2669-02
 	transect	Mediaster	 	2687	 	 	 	1812552	 	2005-07-13 20:45:17.0	Ventana	 	04:09:48:11	 	V2687-05
 	transect	Mesomyaria	802.52	2674	 	36.75223	-122.2065	1799948	0.36	2005-06-08 18:02:14.0	Ventana	34.488	00:46:46:11	4.345	V2674-01
 	transect	Microstomus pacificus	 	2687	 	 	 	1811356	 	2005-07-13 20:09:03.0	Ventana	 	03:34:02:15	 	V2687-04
 	cruise	Glyptocephalus zachirus	399.12	2688	 	36.806717	-122.019485	1677741	1.03	2005-07-14 17:51:37.167	Ventana	34.252	01:37:19:24	7.135	V2688-02
 	transect	Lycenchelys camchatica	798.42	2674	 	36.75156	-122.2141	1801332	0.35	2005-06-08 18:38:55.0	Ventana	34.488	01:22:59:05	4.339	V2674-02
 	descend	Mysidae	1116.69	2682	 	36.69821	-122.05919	1722142	0.58	2005-07-08 19:11:53.0	Ventana	34.554	03:04:32:10	3.59	V2682-04
 	transect	Poeobius meseres	700.59	2681	 	36.69538	-122.05116	2497940	0.28	2005-07-07 18:46:44.0	Ventana	34.433	02:16:27:23	4.984	V2681-03HD
 	transect	Mesomyaria	997.86	2669	 	36.730576	-122.227196	1649111	0.45	2005-05-25 17:55:29.0	Ventana	34.521	00:17:58:03	3.91	V2669-01
 	transect	Phyllospadix	203.45	2696	 	36.80526	-122.1282	1813673	1.48	2005-08-01 18:14:16.0	Ventana	34.217	01:42:07:14	8.631	V2696-02
 	transect	Ophiuroidea	998.51	2669	 	36.731056	-122.23049	1651307	0.45	2005-05-25 18:18:14.0	Ventana	34.522	00:40:41:08	3.91	V2669-01
 	descend	Phialidium	1183.95	2682	 	36.698242	-122.05786	1722405	0.66	2005-07-08 19:41:34.0	Ventana	34.57	03:34:10:09	3.414	V2682-04
 	cruise	Laminariales	559.57	2688	 	36.797314	-122.01997	1677418	0.51	2005-07-14 16:57:12.6	Ventana	34.358	00:43:30:28	5.858	V2688-01
 	descend	Calycophorae	592.09	2683	 	36.701923	-122.04909	1757006	0.35	2005-07-11 17:48:40.0	Ventana	34.367	01:32:46:11	5.809	V2683-02
 	descend	Poeobius meseres	400.23	2681	 	36.695564	-122.05114	1715170	0.8	2005-07-07 17:34:50.167	Ventana	34.278	01:05:13:20	6.678	V2681-02
 	transect	Psolus squamatus	 	2687	 	 	 	1811477	 	2005-07-13 20:14:02.0	Ventana	 	03:39:01:06	 	V2687-04
 	descend	Hastigerinella digitata	265.12	2683	 	36.700935	-122.05039	1756457	1.39	2005-07-11 16:51:33.0	Ventana	34.227	00:39:13:18	7.931	V2683-01
 	cruise	Stylasterias	105.05	2688	 	36.81431	-122.01708	1679245	1.97	2005-07-14 19:35:59.0	Ventana	34.091	03:20:46:13	8.905	V2688-04
 	transect	Ophiuroidea	999.25	2669	 	36.7314	-122.236145	1684607	0.44	2005-05-25 18:58:40.0	Ventana	34.521	01:20:39:15	3.944	V2669-02
 	transect	Phyllospadix	1000.32	2669	 	36.731285	-122.24143	1689796	0.4	2005-05-25 19:36:22.0	Ventana	34.507	01:58:20:02	4.091	V2669-02
 	ascend	Appendicularia	492.78	2682	 	36.69831	-122.06331	1723691	0.52	2005-07-08 21:14:38.0	Ventana	34.328	05:06:18:16	6.206	V2682-06
 	transect	Psolus squamatus	 	2687	 	 	 	1811093	 	2005-07-13 19:52:30.0	Ventana	 	03:17:30:23	 	V2687-04
 	transect	Lycodes diapterus	 	2687	 	 	 	1812755	 	2005-07-13 20:56:11.0	Ventana	 	04:20:41:01	 	V2687-05
 	ascend	Cydippida	258.17	2681	 	36.697838	-122.05522	1719457	 	2005-07-07 21:29:59.0	Ventana	 	05:05:55:27	 	V2681-05
 	ascend	Chaetognatha	181.93	2683	 	36.7026	-122.050705	1758127	1.77	2005-07-11 21:29:52.0	Ventana	34.166	05:02:44:18	8.712	V2683-05
 	transect	Psolus squamatus	399.88	2687	 	36.788124	-122.12167	1809266	1.13	2005-07-13 17:37:52.0	Ventana	34.243	01:04:14:23	7.254	V2687-02
 	cruise	Sebastes	140.15	2676	 	36.80867	-122.03088	1676869	1.72	2005-06-14 17:57:04.0	Ventana	34.175	01:36:47:19	8.311	V2676-02
 	descend	Copepoda	600.61	2681	 	36.69789	-122.0538	1715922	0.3	2005-07-07 18:28:45.433	Ventana	34.388	01:59:05:18	5.477	V2681-02
 	ascend	Appendicularia	332.58	2681	 	36.699623	-122.05521	1718133	1.17	2005-07-07 20:55:33.1	Ventana	34.241	04:23:53:25	7.313	V2681-05
 	cruise	Lycodapus	1225.2	2683	 	36.706	-122.04777	1757578	0.73	2005-07-11 19:58:53.0	Ventana	34.581	03:33:16:11	3.322	V2683-04
 	transect	Actiniaria sp. 1	999.4	2669	http://search.mbari.org/ARCHIVE/frameGrabs/Ventana/images/2669/00_32_54_06.jpg	36.73072	-122.22952	1651104	0.45	2005-05-25 18:10:27.0	Ventana	34.522	00:32:54:06	3.907	V2669-01
 	descend	Chaetognatha	147.38	2683	 	36.700577	-122.05153	1756254	1.69	2005-07-11 16:20:19.0	Ventana	34.158	00:08:01:12	8.933	V2683-01
 	descend	Appendicularia	259.61	2682	 	36.699795	-122.06083	1720006	1.38	2005-07-08 16:26:20.0	Ventana	34.23	00:20:24:14	7.854	V2682-01
 	descend	Doliolenetta	629.26	2682	 	36.69862	-122.059845	1721284	0.29	2005-07-08 18:08:46.0	Ventana	34.398	02:01:50:22	5.367	V2682-03
 	transect	Rathbunaster californicus	198.95	2696	 	36.803764	-122.12491	1813304	1.53	2005-08-01 17:32:00.0	Ventana	34.207	01:00:17:25	8.628	V2696-01
 	ascend	Chuniphyes	858.52	2681	 	36.698517	-122.05563	1717366	0.34	2005-07-07 19:54:08.467	Ventana	34.499	03:23:10:27	4.332	V2681-04
 	descend	Nanomia	193.43	2681	 	36.69828	-122.05329	1713546	1.98	2005-07-07 17:03:33.333	Ventana	34.164	00:34:42:10	8.305	V2681-01
 	descend	Poeobius meseres	1197.52	2682	 	36.69827	-122.059135	1722202	0.68	2005-07-08 19:15:49.0	Ventana	34.572	03:08:27:01	3.372	V2682-04
 	descend	Appendicularia	503.26	2683	 	36.701458	-122.04913	1756826	0.68	2005-07-11 17:35:58.0	Ventana	34.305	01:20:05:09	6.466	V2683-02
 	transect	Rathbunaster californicus	200.34	2696	 	36.804718	-122.12719	1813507	1.51	2005-08-01 17:54:50.0	Ventana	34.211	01:22:42:17	8.671	V2696-02
 	ascend	Appendicularia	261.23	2681	 	36.698833	-122.05699	1719028	1.42	2005-07-07 21:21:09.467	Ventana	34.232	04:49:28:18	7.954	V2681-05
 	ascend	Chuniphyes	967.16	2681	 	36.6972	-122.05362	1716817	0.43	2005-07-07 19:38:47.367	Ventana	34.519	03:07:51:07	4.012	V2681-04
 	transect	Mediaster	 	2687	 	 	 	1812229	 	2005-07-13 20:29:36.0	Ventana	 	03:54:34:06	 	V2687-04
 	descend	Appendicularia	1002.77	2683	 	36.7041	-122.04975	1757375	0.44	2005-07-11 19:16:30.0	Ventana	34.521	02:56:51:23	4.0	V2683-03
 	transect	Euplexaura	 	2687	 	 	 	1810018	 	2005-07-13 18:51:10.0	Ventana	 	02:16:55:24	 	V2687-03
 	stationary	Merluccius productus	502.39	2694	 	36.78453	-122.20048	1676666	0.72	2005-07-27 20:28:48.0	Ventana	34.291	03:00:55:28	6.429	V2694-03
 	transect	Hormiphora	200.45	2681	 	36.69828	-122.05329	2490743	1.71	2005-07-07 17:08:37.0	Ventana	34.193	00:39:44:03	8.323	V2681-01HD
 	transect	Psolus squamatus	 	2687	 	 	 	1808717	 	2005-07-13 17:27:46.0	Ventana	 	00:54:38:16	 	V2687-01
 	descend	Appendicularia	880.98	2681	 	36.69694	-122.05316	1716494	0.36	2005-07-07 19:05:28.31	Ventana	34.498	02:35:10:29	4.221	V2681-03
 	ascend	Euphausiacea	258.17	2681	 	36.697838	-122.05522	1719577	 	2005-07-07 21:29:59.0	Ventana	 	05:15:26:24	 	V2681-05
 	transect	Ophiuroidea	998.98	2669	 	36.731087	-122.23112	1683532	0.45	2005-05-25 18:23:21.0	Ventana	34.521	00:45:47:07	3.917	V2669-01
 	ascend	Calycophorae	595.11	2682	 	36.698765	-122.06088	1723480	0.38	2005-07-08 20:49:07.0	Ventana	34.373	04:41:13:20	5.657	V2682-05
 	transect	Psolus squamatus	 	2687	 	 	 	1808897	 	2005-07-13 17:31:29.0	Ventana	 	00:58:21:17	 	V2687-01
 	transect	Ophiuroidea	999.71	2669	 	36.731403	-122.23694	1687029	0.44	2005-05-25 19:05:50.0	Ventana	34.521	01:27:48:28	3.939	V2669-02
 	descend	Appendicularia	753.98	2682	 	36.698425	-122.05968	1721653	0.28	2005-07-08 18:30:51.0	Ventana	34.454	02:23:55:17	4.763	V2682-03
 	ascend	Nanomia	200.05	2693	 	36.690823	-122.06271	1759187	1.7	2005-07-25 21:25:46.0	Ventana	34.191	03:50:18:15	8.939	V2693-04
 	descend	Appendicularia	396.37	2682	 	36.698315	-122.05988	1720698	0.88	2005-07-08 17:37:21.0	Ventana	34.26	01:30:52:26	6.732	V2682-02
 	transect	Psolus squamatus	 	2687	 	 	 	1810221	 	2005-07-13 19:09:58.0	Ventana	 	02:35:42:05	 	V2687-03
 	transect	Mediaster	 	2687	 	 	 	1811860	 	2005-07-13 20:27:20.0	Ventana	 	03:52:18:08	 	V2687-04
 	descend	Chaetognatha	291.78	2693	 	36.697823	-122.06122	1758450	1.34	2005-07-25 19:37:40.0	Ventana	34.236	02:17:14:23	7.821	V2693-03
 	transect	Corallimorphus pilatus	399.49	2687	 	36.789394	-122.125046	1809649	1.15	2005-07-13 18:29:37.0	Ventana	34.239	01:55:55:21	7.32	V2687-02
 	transect	Phyllospadix	204.02	2696	 	36.806103	-122.12966	1813733	1.49	2005-08-01 18:22:38.0	Ventana	34.211	01:50:29:08	8.642	V2696-02
 	cruise	Rathbunaster californicus	310.58	2688	http://search.mbari.org/ARCHIVE/frameGrabs/Ventana/images/2688/01_58_10_11.jpg	36.808598	-122.02029	20005163	1.34	2005-07-14 18:12:28.0	Ventana	34.218	01:58:10:11	7.79	V2688-02
 	ascend	Poeobius meseres	1135.58	2682	 	36.69821	-122.05748	1722525	0.61	2005-07-08 19:55:42.0	Ventana	34.558	03:48:18:16	3.538	V2682-04
 	descend	Siphonophora	795.43	2683	 	36.70265	-122.0488	1757149	0.36	2005-07-11 18:00:29.0	Ventana	34.458	01:44:34:15	4.664	V2683-02
 	transect	Mediaster	 	2687	 	 	 	1812432	 	2005-07-13 20:38:36.0	Ventana	 	04:03:33:22	 	V2687-04
 	transect	Mediaster	 	2687	 	 	 	1807070	 	2005-07-13 16:57:21.0	Ventana	 	00:24:15:20	 	V2687-01
 	transect	Euphausia	200.41	2681	 	36.698296	-122.05335	2491112	1.69	2005-07-07 17:11:56.0	Ventana	34.198	00:43:04:20	8.337	V2681-01HD
 	transect	Brisaster	1000.13	2669	 	36.7311	-122.24001	1689210	0.41	2005-05-25 19:27:39.0	Ventana	34.51	01:49:36:28	4.063	V2669-02
 	transect	Ceriantharia sp. 2	1000.5	2669	 	36.73241	-122.24981	1736724	0.41	2005-05-25 20:31:41.0	Ventana	34.51	02:53:11:10	4.07	V2669-03
 	transect	Allocentrotus fragilis	 	2687	 	 	 	1811296	 	2005-07-13 20:05:34.0	Ventana	 	03:30:33:21	 	V2687-04
 	transect	Mediaster	 	2687	 	 	 	1812612	 	2005-07-13 20:47:29.0	Ventana	 	04:12:00:02	 	V2687-05
 	ascend	Chuniphyes	504.09	2681	 	36.69895	-122.054245	1717750	0.5	2005-07-07 20:34:25.133	Ventana	34.331	04:03:25:02	6.137	V2681-04
 	transect	Nanomia bijuga	200.48	2681	 	36.69828	-122.05329	2490540	1.71	2005-07-07 17:07:22.0	Ventana	34.197	00:38:30:09	8.341	V2681-01HD
 	transect	Mesomyaria	1000.29	2669	 	36.731255	-122.241295	1689413	0.4	2005-05-25 19:35:35.0	Ventana	34.508	01:57:33:03	4.086	V2669-02
 	transect	Psolus squamatus	 	2687	 	 	 	1810401	 	2005-07-13 19:17:05.0	Ventana	 	02:42:49:09	 	V2687-03
 	descend	Appendicularia	182.94	2693	 	36.696064	-122.05818	1758270	1.87	2005-07-25 18:12:32.0	Ventana	34.17	00:53:02:17	8.853	V2693-01
 	ascend	Appendicularia	334.52	2693	 	36.69253	-122.061874	1759007	1.27	2005-07-25 21:14:53.0	Ventana	34.252	03:39:25:26	7.523	V2693-04
 	transect	Ceriantharia sp. 2	998.17	2669	 	36.733006	-122.25274	1737476	0.4	2005-05-25 20:49:18.0	Ventana	34.509	03:10:07:23	4.074	V2669-04
 	descend	Copepoda	359.65	2682	 	36.698593	-122.06039	1720329	1.0	2005-07-08 17:22:24.0	Ventana	34.255	01:15:56:01	7.079	V2682-02
 	transect	Umbellula lindahli	600.86	2680	 	36.776814	-122.2221	1804137	0.36	2005-06-27 17:38:42.0	Ventana	34.377	00:18:50:06	5.58	V2680-01
 	cruise	Gorgonocephalus	92.99	2688	 	36.814697	-122.0171	1679448	1.94	2005-07-14 20:56:47.0	Ventana	34.097	04:41:01:14	8.934	V2688-05
 	ascend	Chaetognatha	1068.72	2682	 	36.698048	-122.05754	1722728	0.52	2005-07-08 20:00:56.0	Ventana	34.543	03:53:31:17	3.733	V2682-04
 	cruise	Rathbunaster californicus	453.87	2688	 	36.803288	-122.01809	1677621	0.89	2005-07-14 17:34:25.0	Ventana	34.27	01:20:09:07	6.875	V2688-02
 	descend	Calycophorae	549.88	2682	 	36.698627	-122.05977	1720901	0.35	2005-07-08 18:05:23.0	Ventana	34.37	01:58:52:14	5.68	V2682-02
 	transect	molt	100.49	2681	 	36.69955	-122.054115	2489788	2.13	2005-07-07 16:50:44.0	Ventana	34.066	00:21:52:13	9.148	V2681-01HD
 	transect	Ceriantharia sp. 2	997.62	2669	 	36.73061	-122.22716	1683329	0.45	2005-05-25 17:55:07.0	Ventana	34.522	00:17:36:00	3.909	V2669-01
 	ascend	Appendicularia	420.97	2681	 	36.69921	-122.05427	1717953	0.79	2005-07-07 20:45:18.333	Ventana	34.278	04:13:55:07	6.642	V2681-05
 	transect	Phyllospadix	801.48	2674	 	36.75096	-122.21855	1803588	0.35	2005-06-08 19:00:32.0	Ventana	34.487	01:44:34:15	4.359	V2674-02
 	transect	Sergestes similis	300.41	2681	 	36.69609	-122.05173	2492571	1.24	2005-07-07 17:28:07.0	Ventana	34.233	00:59:14:23	7.427	V2681-01HD
 	transect	Ophiuroidea	1000.02	2669	 	36.73123	-122.238266	1688841	0.43	2005-05-25 19:16:53.0	Ventana	34.517	01:38:51:27	3.967	V2669-02
 	transect	Sebastolobus altivelis	801.54	2674	 	36.75222	-122.20769	1800091	0.4	2005-06-08 18:08:12.0	Ventana	34.49	00:52:44:12	4.334	V2674-01
 	transect	Calycophorae	200.4	2681	 	36.69828	-122.0533	2490909	1.7	2005-07-07 17:09:41.0	Ventana	34.189	00:40:48:19	8.321	V2681-01HD
 	descend	Dosidicus gigas	703.51	2682	 	36.698605	-122.059975	1721450	0.29	2005-07-08 18:16:05.0	Ventana	34.428	02:09:09:21	5.023	V2682-03
 	transect	Aegina	1000.99	2681	 	36.695656	-122.05173	2498632	0.48	2005-07-07 19:26:02.0	Ventana	34.534	02:55:43:03	3.85	V2681-03HD
 	transect	Lycenchelys camchatica	799.6	2674	 	36.752457	-122.20501	1799707	0.35	2005-06-08 17:54:56.0	Ventana	34.487	00:39:28:25	4.361	V2674-01
 	ascend	sinker	724.29	2681	 	36.698696	-122.05526	1717569	0.28	2005-07-07 20:18:18.533	Ventana	34.44	03:47:19:14	4.913	V2681-04
 	transect	Nanomia bijuga	400.77	2681	 	36.697266	-122.05291	2493120	0.79	2005-07-07 17:47:22.0	Ventana	34.278	01:17:47:00	6.663	V2681-02HD
 	transect	Psolus squamatus	399.84	2687	http://search.mbari.org/ARCHIVE/frameGrabs/Ventana/images/2687/01_02_17_21.jpg	36.788036	-122.12153	1809100	1.13	2005-07-13 17:35:55.0	Ventana	34.244	01:02:17:21	7.27	V2687-02
 	ascend	Chuniphyes	784.52	2682	 	36.69866	-122.05894	1723277	0.28	2005-07-08 20:25:56.0	Ventana	34.45	04:18:04:23	4.741	V2682-05
 	ascend	Aegina	673.83	2683	 	36.705513	-122.0495	1757901	0.31	2005-07-11 21:07:38.0	Ventana	34.428	04:40:30:28	5.042	V2683-05
 	transect	Stomphia	 	2687	 	 	 	1810078	 	2005-07-13 18:54:38.0	Ventana	 	02:20:23:09	 	V2687-03
 	transect	Mesomyaria	1000.28	2669	 	36.7316	-122.24324	1733791	0.41	2005-05-25 19:45:57.0	Ventana	34.51	02:07:29:21	4.063	V2669-03
 	transect	Ceriantharia sp. 1	800.07	2674	 	36.75176	-122.21197	1801166	0.35	2005-06-08 18:28:00.0	Ventana	34.488	01:12:04:13	4.341	V2674-02
 	transect	Gastropoda	196.24	2696	 	36.80267	-122.1217	1813041	1.55	2005-08-01 16:59:06.0	Ventana	34.2	00:27:25:05	8.6	V2696-01
 	transect	Mesomyaria	1000.34	2669	 	36.731564	-122.24306	1733768	0.41	2005-05-25 19:44:48.0	Ventana	34.512	02:06:20:01	4.075	V2669-03
 	transect	molt	100.55	2681	 	36.69983	-122.05429	2489585	2.12	2005-07-07 16:45:30.0	Ventana	34.068	00:16:38:29	9.151	V2681-01HD
 	transect	Nanomia bijuga	200.45	2681	 	36.698414	-122.05349	2491435	1.68	2005-07-07 17:14:13.0	Ventana	34.2	00:45:19:07	8.341	V2681-01HD
 	descend	Euphotic zone	146.94	2685	 	36.793503	-121.88327	1669732	2.01	2005-07-12 20:11:26.0	Ventana	34.102	00:06:42:16	8.898	V2685-01
 	transect	Mesomyaria	1000.21	2669	 	36.730927	-122.232666	1683795	0.45	2005-05-25 18:34:51.0	Ventana	34.522	00:57:16:21	3.91	V2669-01
 	cruise	Sebastes	103.15	2676	 	36.80773	-122.03882	1677132	1.94	2005-06-14 19:04:50.0	Ventana	34.156	02:43:35:29	8.444	V2676-03
 	transect	Glyptocephalus zachirus	 	2687	 	 	 	1811176	 	2005-07-13 19:59:27.0	Ventana	 	03:24:27:02	 	V2687-04
 	transect	Appendicularia	500.59	2681	 	36.695908	-122.05137	2493646	0.43	2005-07-07 18:03:52.0	Ventana	34.348	01:34:13:26	6.006	V2681-02HD
 	transect	Mesomyaria	801.73	2674	 	36.75223	-122.20752	1800068	0.38	2005-06-08 18:07:13.0	Ventana	34.49	00:51:44:20	4.327	V2674-01
 	transect	Psolus squamatus	399.88	2687	 	36.788128	-122.121796	1809326	1.13	2005-07-13 17:39:34.0	Ventana	34.241	01:05:56:14	7.267	V2687-02
 	transect	Ophiuroidea	999.18	2669	 	36.731377	-122.23607	1684547	0.44	2005-05-25 18:58:04.0	Ventana	34.52	01:20:03:19	3.939	V2669-02
 	transect	Calliostoma platinum	 	2687	 	 	 	1808980	 	2005-07-13 17:32:59.0	Ventana	 	00:59:51:03	 	V2687-01
 	transect	Appendicularia	400.8	2681	 	36.695786	-122.05118	2492894	0.79	2005-07-07 17:40:51.0	Ventana	34.277	01:11:14:02	6.67	V2681-02HD
 	transect	Rathbunaster californicus	203.18	2696	 	36.806652	-122.13022	1813793	1.49	2005-08-01 18:30:57.0	Ventana	34.212	01:58:47:25	8.641	V2696-02
 	transect	Nanomia bijuga	200.44	2681	 	36.69828	-122.05329	2490337	1.7	2005-07-07 17:07:02.0	Ventana	34.198	00:38:11:05	8.347	V2681-01HD
 	transect	Lycenchelys camchatica	999.77	2669	 	36.731373	-122.23737	1687495	0.44	2005-05-25 19:09:35.0	Ventana	34.519	01:31:34:22	3.945	V2669-02
 	descend	Appendicularia	466.99	2683	 	36.70161	-122.049355	1756743	0.77	2005-07-11 17:12:41.0	Ventana	34.287	01:00:19:23	6.65	V2683-01
 	transect	Phyllospadix	799.59	2674	 	36.752693	-122.20084	1774153	0.3	2005-06-08 17:32:50.0	Ventana	34.464	00:17:24:05	4.607	V2674-01
 	transect	Mesomyaria	800.25	2674	 	36.752033	-122.208984	1800843	0.35	2005-06-08 18:14:26.0	Ventana	34.49	00:58:57:17	4.341	V2674-01
 	transect	Psolus squamatus	 	2687	 	 	 	1808574	 	2005-07-13 17:24:14.0	Ventana	 	00:51:07:07	 	V2687-01
 	transect	Porifera sp. 1	 	2687	 	 	 	1810424	 	2005-07-13 19:17:43.0	Ventana	 	02:43:27:07	 	V2687-03
 	transect	Diogenidae	601.52	2680	 	36.776688	-122.222015	1804114	0.36	2005-06-27 17:37:13.0	Ventana	34.379	00:17:21:10	5.582	V2680-01
 	transect	Psolus squamatus	 	2687	 	 	 	1811537	 	2005-07-13 20:15:20.0	Ventana	 	03:40:19:05	 	V2687-04
 	transect	Mesomyaria	1000.2	2669	 	36.73188	-122.24597	1735603	0.41	2005-05-25 20:03:11.0	Ventana	34.51	02:24:42:09	4.059	V2669-03
 	transect	Psolus squamatus	 	2687	 	 	 	1810830	 	2005-07-13 19:35:32.0	Ventana	 	03:01:15:10	 	V2687-03
 	transect	Ophiuroidea	1000.24	2669	 	36.731266	-122.240906	1689330	0.41	2005-05-25 19:33:14.0	Ventana	34.51	01:55:12:01	4.057	V2669-02
 	ascend	Appendicularia	763.33	2681	 	36.69868	-122.05602	1717509	0.29	2005-07-07 20:11:10.767	Ventana	34.45	03:40:12:04	4.797	V2681-04
 	ascend	Chuniphyes	790.2	2683	 	36.70652	-122.04858	1757841	0.38	2005-07-11 21:01:40.0	Ventana	34.475	04:34:32:09	4.512	V2683-05
 	transect	Umbellula lindahli	598.81	2680	 	36.78268	-122.227905	1805212	0.35	2005-06-27 18:58:27.0	Ventana	34.382	01:37:31:11	5.567	V2680-02
 	transect	rock outcrop	 	2687	 	 	 	1812635	 	2005-07-13 20:48:56.0	Ventana	 	04:13:27:07	 	V2687-05
 	descend	Copepoda	801.02	2681	 	36.694958	-122.05065	1716351	0.31	2005-07-07 18:52:44.0	Ventana	34.476	02:22:27:16	4.481	V2681-03
 	descend	Calycophorae	176.95	2693	 	36.69609	-122.05814	1758247	1.94	2005-07-25 18:06:20.0	Ventana	34.145	00:46:51:27	8.899	V2693-01
 	transect	Mesomyaria	1000.54	2669	 	36.732395	-122.24973	1736701	0.41	2005-05-25 20:31:22.0	Ventana	34.51	02:52:49:28	4.066	V2669-03
 	ascend	Appendicularia	335.86	2693	 	36.692783	-122.06166	1758984	1.26	2005-07-25 21:13:23.0	Ventana	34.236	03:37:56:06	7.463	V2693-04
 	transect	Umbellula lindahli	602.78	2680	 	36.788208	-122.23219	1805949	0.36	2005-06-27 19:57:32.0	Ventana	34.377	02:36:09:25	5.608	V2680-03
 	transect	Poeobius meseres	900.99	2681	 	36.695557	-122.05145	2498429	0.39	2005-07-07 19:13:04.0	Ventana	34.504	02:42:45:17	4.172	V2681-03HD
 	descend	Dosidicus gigas	486.11	2682	 	36.698586	-122.05976	1720818	0.49	2005-07-08 17:58:17.0	Ventana	34.333	01:51:46:13	6.132	V2682-02
 	transect	Stomphia	 	2687	 	 	 	1807476	 	2005-07-13 17:09:21.0	Ventana	 	00:36:14:06	 	V2687-01
 	descend	Leuroglossus stilbius	528.54	2681	 	36.69568	-122.05106	1715599	0.4	2005-07-07 18:05:33.0	Ventana	34.355	01:35:54:18	5.863	V2681-02
 	transect	Lycenchelys camchatica	799.95	2674	 	36.75254	-122.20375	1799384	0.35	2005-06-08 17:47:39.0	Ventana	34.487	00:32:12:21	4.359	V2674-01
 	transect	Sebastolobus altivelis	800.67	2674	 	36.7521	-122.2085	1800760	0.35	2005-06-08 18:11:52.0	Ventana	34.49	00:56:24:06	4.324	V2674-01
 	transect	Ceriantharia sp. 1	599.34	2680	 	36.778957	-122.22413	1804460	0.36	2005-06-27 18:05:11.0	Ventana	34.377	00:45:17:29	5.603	V2680-01
 	descend	Dosidicus gigas	417.92	2681	 	36.698067	-122.0538	1715313	0.7	2005-07-07 17:51:11.323	Ventana	34.292	01:21:33:24	6.511	V2681-02
 	cruise	Metridium farcimen	93.47	2688	 	36.816013	-122.016785	1679388	1.95	2005-07-14 20:18:11.0	Ventana	34.094	04:02:55:27	8.931	V2688-04
 	transect	Ceriantharia sp. 2	1000.37	2669	 	36.731495	-122.24231	1694489	0.41	2005-05-25 19:41:04.0	Ventana	34.509	02:03:00:24	4.063	V2669-02
 	transect	Mediaster	 	2687	 	 	 	1807047	 	2005-07-13 16:56:26.0	Ventana	 	00:23:20:11	 	V2687-01
 	transect	Nanomia bijuga	400.8	2681	 	36.696228	-122.05169	2492977	0.79	2005-07-07 17:42:55.0	Ventana	34.277	01:13:18:27	6.654	V2681-02HD
 	cruise	Lycenchelys	335.48	2688	 	36.80812	-122.02017	1677824	1.22	2005-07-14 18:08:43.0	Ventana	34.229	01:54:24:22	7.525	V2688-02
 	transect	Mesomyaria	999.44	2669	 	36.73133	-122.23592	1684487	0.44	2005-05-25 18:57:06.0	Ventana	34.52	01:19:05:22	3.936	V2669-02
 	descend	Myctophidae	591.24	2682	 	36.698647	-122.059814	1721224	0.36	2005-07-08 18:07:16.0	Ventana	34.386	02:00:21:23	5.497	V2682-03
 	descend	Appendicularia	801.13	2681	 	36.696957	-122.05312	1716411	0.31	2005-07-07 19:02:52.8	Ventana	34.473	02:32:35:21	4.499	V2681-03
 	transect	Halipteris californica	599.61	2680	 	36.783047	-122.22837	1805295	0.36	2005-06-27 19:03:06.0	Ventana	34.374	01:42:09:27	5.601	V2680-02
 	transect	Gastropoda sp.2	1000.18	2669	 	36.73176	-122.24478	1734460	0.4	2005-05-25 19:55:14.0	Ventana	34.507	02:16:45:15	4.072	V2669-03
 	transect	Microstomus pacificus	803.73	2674	 	36.75073	-122.220634	1803708	0.34	2005-06-08 19:09:38.0	Ventana	34.485	01:53:39:28	4.402	V2674-02
 	transect	Phyllospadix	799.92	2674	 	36.751297	-122.215645	1803362	0.35	2005-06-08 18:47:02.0	Ventana	34.486	01:31:05:01	4.356	V2674-02
 	transect	Mesomyaria	799.4	2674	 	36.751648	-122.21304	1801249	0.35	2005-06-08 18:31:56.0	Ventana	34.49	01:16:00:18	4.341	V2674-02
 	transect	Appendicularia	600.56	2681	 	36.69636	-122.05198	2493729	0.3	2005-07-07 18:21:43.0	Ventana	34.388	01:52:04:02	5.482	V2681-02HD
 	starttransect	color bars	50.55	2681	 	36.698673	-122.053375	1713463	 	2005-07-07 16:30:31.667	Ventana	 	00:01:42:22	 	V2681-01
 	cruise	Pennatulacea	263.71	2676	 	36.805447	-122.02947	1676726	1.53	2005-06-14 17:35:47.0	Ventana	34.207	01:15:32:00	7.983	V2676-02
 	ascend	Appendicularia	783.07	2681	 	36.698864	-122.056435	1717449	0.27	2005-07-07 20:04:29.5	Ventana	34.459	03:33:31:09	4.705	V2681-04
 	transect	Solmaris	500.58	2681	 	36.698036	-122.05379	2493240	0.44	2005-07-07 17:54:31.0	Ventana	34.345	01:24:54:13	6.025	V2681-02HD
 	transect	Phyllospadix	800.25	2674	 	36.752487	-122.20324	1799301	0.34	2005-06-08 17:44:46.0	Ventana	34.48	00:29:19:13	4.421	V2674-01
 	transect	Mesomyaria	998.27	2669	 	36.730534	-122.22841	1649374	0.45	2005-05-25 18:03:13.0	Ventana	34.522	00:25:41:09	3.907	V2669-01
 	transect	Phyllospadix	998.48	2669	 	36.730988	-122.23005	1651224	0.45	2005-05-25 18:14:40.0	Ventana	34.521	00:37:07:04	3.913	V2669-01
 	ascend	Nanomia	261.43	2681	 	36.698875	-122.05688	1718908	1.42	2005-07-07 21:19:19.527	Ventana	34.232	04:47:38:23	7.95	V2681-05
 	transect	Lycodes cortezianus	199.34	2696	 	36.804176	-122.12593	1813387	1.52	2005-08-01 17:42:08.0	Ventana	34.206	01:10:01:17	8.657	V2696-02
 	transect	Parastichopus leukothele	196.34	2696	 	36.803066	-122.122635	1813101	1.56	2005-08-01 17:06:26.0	Ventana	34.198	00:34:44:25	8.621	V2696-01
 	transect	Ophiuroidea	998.48	2669	 	36.731167	-122.230804	1683449	0.45	2005-05-25 18:21:06.0	Ventana	34.518	00:43:32:24	3.917	V2669-01
 	transect	Nanomia bijuga	200.45	2681	 	36.69828	-122.0533	2490766	1.73	2005-07-07 17:08:41.0	Ventana	34.193	00:39:49:21	8.321	V2681-01HD
 	descend	Appendicularia	1143.77	2683	 	36.705116	-122.048904	1757495	0.64	2005-07-11 19:33:15.0	Ventana	34.555	03:13:35:24	3.545	V2683-03
 	transect	Neptunea amianta	800.36	2674	 	36.751183	-122.21676	1803445	0.35	2005-06-08 18:52:14.0	Ventana	34.486	01:36:17:09	4.366	V2674-02
 	transect	Sebastes diploproa	399.86	2687	 	36.78812	-122.12163	1809243	1.13	2005-07-13 17:37:27.0	Ventana	34.243	01:03:49:25	7.255	V2687-02
 	ascend	Tuscaroridae	610.56	2682	 	36.698875	-122.05992	1723420	0.36	2005-07-08 20:38:33.0	Ventana	34.383	04:30:42:00	5.524	V2682-05
 	transect	Mediaster	 	2687	 	 	 	1812289	 	2005-07-13 20:30:57.0	Ventana	 	03:55:55:24	 	V2687-04
 	transect	molt	100.52	2681	 	36.69983	-122.05429	2489668	2.13	2005-07-07 16:47:25.0	Ventana	34.068	00:18:33:28	9.148	V2681-01HD
 	transect	Mediaster	 	2687	 	 	 	1807130	 	2005-07-13 17:01:15.0	Ventana	 	00:28:09:01	 	V2687-01
 	cruise	Anoplopoma fimbria	409.59	2676	 	36.803932	-122.029205	1676455	0.69	2005-06-14 16:43:36.0	Ventana	34.308	00:27:44:07	6.547	V2676-01
 	transect	Caridea sp.1	999.71	2669	 	36.73263	-122.251015	1737047	0.4	2005-05-25 20:38:52.0	Ventana	34.508	03:00:20:07	4.074	V2669-03
 	transect	Mesomyaria	998.21	2669	 	36.732944	-122.25222	1737393	0.41	2005-05-25 20:46:35.0	Ventana	34.508	03:07:23:11	4.075	V2669-04
 	transect	Stomphia	801.99	2674	 	36.75247	-122.19987	1773867	0.29	2005-06-08 17:26:13.0	Ventana	34.467	00:10:47:19	4.64	V2674-01
 	transect	Vitreosalpa gemini	500.59	2681	 	36.69753	-122.05327	2493383	0.44	2005-07-07 17:56:43.0	Ventana	34.347	01:27:07:11	6.017	V2681-02HD
 	transect	Chionoecetes tanneri	800.9	2674	 	36.752506	-122.202736	1799241	0.35	2005-06-08 17:42:14.0	Ventana	34.485	00:26:47:11	4.379	V2674-01
 	transect	Neptunea amianta	801.11	2674	 	36.75197	-122.20937	1800903	0.36	2005-06-08 18:16:33.0	Ventana	34.49	01:01:04:06	4.318	V2674-01
 	transect	Psolus squamatus	 	2687	 	 	 	1807190	 	2005-07-13 17:03:15.0	Ventana	 	00:30:09:03	 	V2687-01
 	starttransect	physical object	399.84	2687	 	36.78801	-122.1214	1809040	1.15	2005-07-13 17:34:44.0	Ventana	34.239	01:01:07:02	7.299	V2687-02
 	transect	Mesomyaria	1000.3	2669	 	36.73131	-122.24153	1689819	0.4	2005-05-25 19:36:55.0	Ventana	34.507	01:58:52:12	4.091	V2669-02
 	ascend	Appendicularia	308.27	2693	 	36.691513	-122.06207	1759067	1.31	2005-07-25 21:19:04.0	Ventana	34.237	03:43:36:22	7.632	V2693-04
 	descend	Hormiphora	215.22	2693	 	36.696075	-122.05821	1758330	1.69	2005-07-25 18:26:54.0	Ventana	34.192	01:06:58:07	8.613	V2693-02
 	transect	Psolus squamatus	 	2687	 	 	 	1810341	 	2005-07-13 19:16:12.0	Ventana	 	02:41:56:05	 	V2687-03
 	transect	Neptunea amianta	800.79	2674	 	36.751083	-122.21751	1803505	0.35	2005-06-08 18:55:55.0	Ventana	34.49	01:39:57:29	4.333	V2674-02
 	transect	Nanomia bijuga	200.38	2681	 	36.698303	-122.05338	2491172	1.68	2005-07-07 17:12:28.0	Ventana	34.2	00:43:36:19	8.339	V2681-01HD
 	transect	Actiniaria sp. 1	1000.1	2669	 	36.7312	-122.24049	1689270	0.41	2005-05-25 19:30:48.0	Ventana	34.511	01:52:46:00	4.057	V2669-02
 	ascend	Phialidium	925.61	2682	 	36.698	-122.05849	1723157	0.38	2005-07-08 20:12:34.0	Ventana	34.504	04:04:44:07	4.192	V2682-05
 	ascend	Appendicularia	1137.45	2683	 	36.70808	-122.04916	1757781	0.67	2005-07-11 20:40:50.0	Ventana	34.559	04:15:10:26	3.503	V2683-04
 	transect	Gastropoda sp.2	999.87	2669	 	36.730972	-122.23382	1694632	0.45	2005-05-25 18:40:36.0	Ventana	34.523	01:02:37:11	3.913	V2669-02
 	transect	Psolus squamatus	 	2687	 	 	 	1810890	 	2005-07-13 19:41:12.0	Ventana	 	03:06:13:18	 	V2687-04
 	transect	Mesomyaria	1000.29	2669	 	36.731922	-122.24664	1735746	0.41	2005-05-25 20:09:51.0	Ventana	34.509	02:31:21:03	4.065	V2669-03
 	transect	Appendicularia	500.56	2681	 	36.69668	-122.05227	2493586	0.44	2005-07-07 18:00:24.0	Ventana	34.348	01:30:46:25	6.013	V2681-02HD
 	transect	Phyllospadix	800.39	2674	 	36.751747	-122.211395	1801106	0.35	2005-06-08 18:25:37.0	Ventana	34.488	01:09:41:28	4.35	V2674-02
 	ascend	Nanomia	128.25	2693	 	36.690796	-122.062935	1759270	2.04	2005-07-25 21:32:34.0	Ventana	34.076	03:57:05:12	9.156	V2693-04
 	descend	Appendicularia	849.47	2683	 	36.702885	-122.04838	1757232	0.34	2005-07-11 18:25:31.0	Ventana	34.484	02:09:34:16	4.385	V2683-02
 	transect	Appendicularia	400.74	2681	 	36.696674	-122.05223	2493037	0.79	2005-07-07 17:44:54.0	Ventana	34.278	01:15:17:21	6.655	V2681-02HD
 	transect	Stomphia	 	2687	 	 	 	1810138	 	2005-07-13 18:59:16.0	Ventana	 	02:25:01:21	 	V2687-03
 	transect	Umbellula lindahli	598.52	2680	 	36.78072	-122.225716	1804806	0.35	2005-06-27 18:26:40.0	Ventana	34.379	01:05:46:12	5.575	V2680-02
 	ascend	Chaetognatha	370.93	2693	 	36.696705	-122.06054	1758721	1.2	2005-07-25 20:31:08.0	Ventana	34.233	03:10:40:06	7.178	V2693-03
 	transect	Psolus squamatus	 	2687	 	 	 	1810687	 	2005-07-13 19:28:25.0	Ventana	 	02:54:08:28	 	V2687-03
 	transect	myctophidae	400.77	2681	 	36.6976	-122.05331	2493180	0.79	2005-07-07 17:48:49.0	Ventana	34.277	01:19:13:00	6.658	V2681-02HD
 	transect	Phyllospadix	801.26	2674	http://search.mbari.org/ARCHIVE/frameGrabs/Ventana/images/2674/00_54_36_10.jpg	36.75217	-122.208084	1800700	0.35	2005-06-08 18:10:05.0	Ventana	34.489	00:54:36:10	4.332	V2674-01
 	transect	Mesomyaria	999.61	2669	 	36.73141	-122.237	1687435	0.44	2005-05-25 19:06:35.0	Ventana	34.521	01:28:34:12	3.939	V2669-02
 	descend	Bathocyroe	1074.56	2682	 	36.69832	-122.059166	1722059	0.51	2005-07-08 19:05:19.0	Ventana	34.541	02:58:21:13	3.768	V2682-03
 	descend	Nanomia	436.33	2683	 	36.701492	-122.04947	1756683	0.83	2005-07-11 17:07:32.0	Ventana	34.276	00:55:10:00	6.761	V2683-01
 	transect	Calycophorae	300.42	2681	 	36.696697	-122.05228	2492488	1.23	2005-07-07 17:25:56.0	Ventana	34.234	00:57:02:14	7.397	V2681-01HD
 	transect	Chionoecetes tanneri	801.65	2674	 	36.750908	-122.219826	1803648	0.34	2005-06-08 19:05:48.0	Ventana	34.484	01:49:50:01	4.37	V2674-02
 	transect	Lycenchelys camchatica	801.93	2674	 	36.752247	-122.20697	1800008	0.37	2005-06-08 18:04:31.0	Ventana	34.49	00:49:03:05	4.341	V2674-01
 	transect	Phyllospadix	 	2687	 	 	 	1812349	 	2005-07-13 20:33:42.0	Ventana	 	03:58:40:16	 	V2687-04
 	transect	Mysidae 2	1001.04	2681	 	36.69509	-122.05101	2498572	0.47	2005-07-07 19:22:59.0	Ventana	34.531	02:52:39:13	3.869	V2681-03HD
 	cruise	Apolemia	451.46	2676	 	36.80283	-122.029594	1676252	0.59	2005-06-14 16:28:08.0	Ventana	34.33	00:12:17:24	6.25	V2676-01
 	transect	Gastropoda sp.2	1000.49	2669	 	36.73247	-122.25012	1736844	0.41	2005-05-25 20:33:29.0	Ventana	34.51	02:54:56:14	4.066	V2669-03
 	transect	Hastigerinella digitata	300.47	2681	 	36.697964	-122.05334	2492082	1.24	2005-07-07 17:21:39.0	Ventana	34.234	00:52:46:13	7.402	V2681-01HD
 	transect	Porifera sp. 1	399.7	2687	 	36.789284	-122.12464	1809589	1.17	2005-07-13 18:22:20.0	Ventana	34.24	01:48:39:07	7.344	V2687-02
 	transect	Phyllospadix	1000.0	2669	 	36.731686	-122.24355	1733851	0.41	2005-05-25 19:47:40.0	Ventana	34.511	02:09:12:18	4.072	V2669-03
 	transect	molt	100.49	2681	 	36.698944	-122.05372	2489871	2.12	2005-07-07 16:52:04.0	Ventana	34.07	00:23:12:27	9.148	V2681-01HD
 	transect	Rathbunaster californicus	199.76	2696	 	36.804417	-122.12641	1813447	1.51	2005-08-01 17:47:14.0	Ventana	34.21	01:15:07:08	8.667	V2696-02
 	transect	Psolus squamatus	 	2687	 	 	 	1808634	 	2005-07-13 17:25:48.0	Ventana	 	00:52:40:17	 	V2687-01
 	descend	Euphotic zone	12.19	2673	 	36.802937	-121.804695	1668288	5.16	2005-06-07 16:30:54.0	Ventana	33.805	00:00:02:13	10.35	V2673-01
 	transect	Phyllospadix	998.05	2669	 	36.73308	-122.25295	1737536	0.4	2005-05-25 20:50:31.0	Ventana	34.509	03:11:18:28	4.075	V2669-04
 	transect	Pennatulacea sp.1	602.2	2680	 	36.79054	-122.23274	1806784	0.35	2005-06-27 20:20:40.0	Ventana	34.379	02:59:16:14	5.591	V2680-03
 	transect	Brisaster	999.9	2669	 	36.731297	-122.23813	1688375	0.43	2005-05-25 19:15:49.0	Ventana	34.522	01:37:48:12	3.958	V2669-02
 	transect	Mediaster	 	2687	 	 	 	1810484	 	2005-07-13 19:20:05.0	Ventana	 	02:45:48:22	 	V2687-03
 	descend	Poeobius meseres	1184.44	2682	 	36.698566	-122.05835	1722262	0.67	2005-07-08 19:35:32.0	Ventana	34.573	03:28:09:20	3.39	V2682-04
 	descend	Appendicularia	518.02	2683	 	36.701458	-122.04915	1756886	0.6	2005-07-11 17:41:10.0	Ventana	34.311	01:25:16:05	6.323	V2683-02
 	descend	Nanomia	151.46	2693	 	36.696304	-122.05774	1758187	1.94	2005-07-25 17:56:49.0	Ventana	34.114	00:37:20:00	8.99	V2693-01
 	ascend	Cydippida	345.45	2693	 	36.69354	-122.06133	1758924	1.25	2005-07-25 21:09:13.0	Ventana	34.236	03:33:46:12	7.385	V2693-04
 	descend	Calycophorae	818.36	2682	 	36.698357	-122.05953	1721713	0.31	2005-07-08 18:43:01.0	Ventana	34.473	02:36:04:17	4.496	V2682-03
 	descend	Beroe	181.68	2683	 	36.701042	-122.05115	1756337	1.6	2005-07-11 16:42:04.0	Ventana	34.194	00:29:44:03	8.684	V2683-01
 	transect	Psolus squamatus	399.87	2687	 	36.78806	-122.12152	1809183	1.13	2005-07-13 17:36:45.0	Ventana	34.241	01:03:07:07	7.262	V2687-02
 	transect	Allocentrotus fragilis	 	2687	 	 	 	1811236	 	2005-07-13 20:05:26.0	Ventana	 	03:30:25:20	 	V2687-04
 	transect	Stomphia	999.99	2669	 	36.731056	-122.23925	1689127	0.43	2005-05-25 19:22:42.0	Ventana	34.516	01:44:40:09	3.981	V2669-02
 	ascend	Euphausiacea	243.34	2682	 	36.69673	-122.06103	1723751	1.64	2005-07-08 21:29:25.0	Ventana	34.164	05:21:04:10	7.868	V2682-06
 	transect	Ceriantharia sp. 2	1000.57	2669	 	36.73233	-122.24946	1736438	0.41	2005-05-25 20:29:18.0	Ventana	34.51	02:50:47:20	4.072	V2669-03
 	ascend	Appendicularia	672.77	2682	 	36.698917	-122.05957	1723360	0.28	2005-07-08 20:34:30.0	Ventana	34.413	04:26:37:23	5.18	V2682-05
 	ascend	Poeobius meseres	508.73	2683	 	36.704426	-122.050606	1757984	0.54	2005-07-11 21:15:58.0	Ventana	34.322	04:48:50:20	6.257	V2683-05
 	transect	Nanomia bijuga	200.35	2681	 	36.69835	-122.05345	2491375	1.67	2005-07-07 17:13:50.0	Ventana	34.201	00:44:57:22	8.341	V2681-01HD
 	ascend	Poeobius meseres	951.34	2682	 	36.697712	-122.058464	1723014	0.43	2005-07-08 20:08:42.0	Ventana	34.517	04:00:53:03	4.027	V2682-05
 	cruise	Embassichthys bathybius	1212.26	2683	 	36.706684	-122.04767	1757638	0.73	2005-07-11 20:12:25.0	Ventana	34.576	03:46:47:03	3.33	V2683-04
 	transect	Psolus squamatus	 	2687	http://search.mbari.org/ARCHIVE/frameGrabs/Ventana/images/2687/03_14_09_17.jpg	 	 	1811033	 	2005-07-13 19:49:08.0	Ventana	 	03:14:09:17	 	V2687-04
 	ascend	Copepoda	1040.85	2682	 	36.697807	-122.05779	1722811	0.48	2005-07-08 20:03:05.0	Ventana	34.533	03:55:40:13	3.855	V2682-04
 	descend	Appendicularia	1071.94	2683	 	36.705093	-122.048935	1757435	0.51	2005-07-11 19:26:57.0	Ventana	34.533	03:07:18:19	3.811	V2683-03
 	ascend	Aegina	600.75	2682	 	36.698612	-122.0618	1723548	0.34	2005-07-08 20:58:19.0	Ventana	34.372	04:50:27:15	5.655	V2682-05
 	descend	Chuniphyes	705.87	2683	 	36.70211	-122.048935	1757089	0.32	2005-07-11 17:54:40.0	Ventana	34.422	01:38:45:24	5.051	V2683-02
 	transect	Calycophorae	700.73	2681	 	36.697876	-122.053696	2497617	0.29	2005-07-07 18:35:59.0	Ventana	34.429	02:05:41:27	4.964	V2681-03HD
 	transect	Pennatulacea sp.1	599.92	2680	 	36.778477	-122.22366	1804400	0.35	2005-06-27 17:59:31.0	Ventana	34.38	00:39:38:07	5.583	V2680-01
 	stationary	Dosidicus gigas	504.19	2695	 	36.784657	-122.20049	1824487	0.67	2005-07-28 19:03:04.0	Ventana	34.297	04:09:19:00	6.298	V2695-02
 	transect	Mesomyaria	998.53	2669	 	36.731102	-122.23067	1651367	0.45	2005-05-25 18:19:36.0	Ventana	34.522	00:42:02:21	3.912	V2669-01
 	cruise	Pleuronectiformes	612.08	2688	 	36.79532	-122.0191	1677335	0.45	2005-07-14 16:33:43.0	Ventana	34.386	00:20:02:28	5.538	V2688-01
 	cruise	mud	221.64	2676	 	36.806065	-122.02929	1676786	1.59	2005-06-14 17:40:37.0	Ventana	34.202	01:20:20:26	8.07	V2676-02
 	transect	Psolus squamatus	 	2687	 	 	 	1808837	 	2005-07-13 17:30:15.0	Ventana	 	00:57:08:00	 	V2687-01
 	transect	Mesomyaria	1000.15	2669	 	36.731857	-122.24507	1735340	0.4	2005-05-25 19:57:20.0	Ventana	34.508	02:18:51:06	4.09	V2669-03
 	transect	Phyllospadix	197.97	2696	 	36.803604	-122.12425	1813244	1.53	2005-08-01 17:25:24.0	Ventana	34.203	00:53:41:09	8.609	V2696-01
 	transect	Ceriantharia sp. 2	998.4	2669	 	36.731182	-122.23448	1684141	0.45	2005-05-25 18:45:40.0	Ventana	34.522	01:07:40:13	3.916	V2669-02
 	transect	Diogenidae	600.93	2680	 	36.78675	-122.23124	1805889	0.36	2005-06-27 19:41:40.0	Ventana	34.377	02:20:18:26	5.602	V2680-03
 	transect	Mesomyaria	801.45	2674	 	36.752377	-122.20557	1799805	0.36	2005-06-08 17:57:36.0	Ventana	34.486	00:42:08:20	4.35	V2674-01
 	transect	Psolus squamatus	 	2687	http://search.mbari.org/ARCHIVE/frameGrabs/Ventana/images/2687/00_41_09_03.jpg	 	 	1807536	 	2005-07-13 17:14:15.0	Ventana	 	00:41:09:03	 	V2687-01
 	ascend	Lobata	648.59	2681	 	36.69884	-122.05421	1717667	0.28	2005-07-07 20:27:18.9	Ventana	34.401	03:56:20:08	5.333	V2681-04
 	transect	Rathbunaster californicus	 	2687	 	 	 	1812695	 	2005-07-13 20:52:47.0	Ventana	 	04:17:17:18	 	V2687-05
 	transect	Ceriantharia sp. 2	999.93	2669	 	36.73102	-122.23128	1683592	0.45	2005-05-25 18:25:29.0	Ventana	34.52	00:47:55:20	3.915	V2669-01
 	cruise	line	274.62	2688	http://search.mbari.org/ARCHIVE/frameGrabs/Ventana/images/2688/02_10_41_24.jpg	36.809036	-122.02035	1677884	1.48	2005-07-14 18:25:27.0	Ventana	34.2	02:10:41:24	8.1	V2688-03
 	transect	cydippida	100.58	2681	 	36.69983	-122.05429	2489525	2.13	2005-07-07 16:43:53.0	Ventana	34.068	00:15:02:03	9.147	V2681-01HD
 	transect	Lycenchelys camchatica	1000.21	2669	 	36.73096	-122.233284	1683891	0.45	2005-05-25 18:38:09.0	Ventana	34.522	01:00:34:16	3.91	V2669-01
 	transect	Gastropoda sp.2	1000.01	2669	 	36.730625	-122.2293	1695037	0.45	2005-05-25 18:08:43.0	Ventana	34.522	00:31:10:19	3.907	V2669-01
 	transect	Neptunea amianta	800.26	2674	 	36.752644	-122.20033	1774103	0.3	2005-06-08 17:29:48.0	Ventana	34.452	00:14:22:15	4.559	V2674-01
 	descend	Appendicularia	621.96	2681	 	36.69795	-122.05387	1715932	0.31	2005-07-07 18:29:29.5	Ventana	34.392	01:59:50:04	5.391	V2681-02
 	cruise	rockwall	1008.12	2689	http://search.mbari.org/ARCHIVE/frameGrabs/Ventana/images/2689/00_01_39_13.jpg	36.771423	-122.08278	1669613	0.54	2005-07-18 16:38:37.0	Ventana	34.528	00:01:39:13	3.905	V2689-01
 	transect	Lycenchelys camchatica	803.86	2674	 	36.750744	-122.22051	1803703	0.34	2005-06-08 19:09:21.0	Ventana	34.487	01:53:23:17	4.388	V2674-02
 	transect	Ceriantharia sp. 1	599.84	2680	 	36.778606	-122.22381	1804409	0.35	2005-06-27 18:01:19.0	Ventana	34.38	00:41:26:01	5.584	V2680-01
 	starttransect	Phyllospadix	 	2687	 	 	 	1812408	 	2005-07-13 20:37:21.0	Ventana	 	04:02:19:11	 	V2687-04
 	ascend	Aegina	854.05	2682	 	36.698654	-122.0585	1723240	0.33	2005-07-08 20:20:08.0	Ventana	34.485	04:12:17:19	4.385	V2682-05
 	transect	Ophiuroidea	998.6	2669	 	36.730892	-122.22973	1651159	0.45	2005-05-25 18:12:17.0	Ventana	34.522	00:34:44:12	3.908	V2669-01
 	transect	Ophiuroidea	999.09	2669	 	36.7314	-122.2361	1684597	0.44	2005-05-25 18:58:23.0	Ventana	34.521	01:20:23:16	3.943	V2669-02
 	descend	Appendicularia	400.23	2681	 	36.695595	-122.05108	1715226	0.79	2005-07-07 17:36:31.433	Ventana	34.277	01:06:55:10	6.676	V2681-02
 	ascend	Chaetognatha	368.51	2681	 	36.69936	-122.05488	1718035	0.98	2005-07-07 20:50:55.607	Ventana	34.265	04:19:16:04	7.069	V2681-05
 	endtransect	object	799.03	2674	 	36.75165	-122.21322	1801262	0.35	2005-06-08 18:32:42.0	Ventana	34.489	01:16:46:26	4.346	V2674-02
 	descend	Appendicularia	473.88	2682	 	36.698555	-122.05969	1720799	0.52	2005-07-08 17:56:51.0	Ventana	34.325	01:50:19:15	6.193	V2682-02
 	transect	Allocentrotus fragilis	399.93	2687	 	36.788124	-122.12169	1809276	1.13	2005-07-13 17:38:02.0	Ventana	34.243	01:04:24:15	7.254	V2687-02
 	descend	Chaetognatha	190.4	2683	 	36.701027	-122.051056	1756355	1.77	2005-07-11 16:43:28.0	Ventana	34.185	00:31:08:19	8.451	V2683-01
 	cruise	Eptatretus	458.79	2688	 	36.803032	-122.018135	1677612	0.88	2005-07-14 17:33:08.0	Ventana	34.271	01:18:52:24	6.847	V2688-02
 	descend	Aegina	1007.99	2683	 	36.70408	-122.05019	1757384	0.44	2005-07-11 19:18:55.0	Ventana	34.521	02:59:16:06	3.993	V2683-03
 	transect	Copepoda	300.44	2681	 	36.698353	-122.05354	2491961	1.25	2005-07-07 17:20:14.0	Ventana	34.233	00:51:22:17	7.431	V2681-01HD
 	descend	Lensia	302.23	2682	 	36.6994	-122.06077	1720093	1.17	2005-07-08 16:45:55.0	Ventana	34.239	00:39:59:04	7.323	V2682-01
 	transect	Phyllospadix	800.51	2674	 	36.75257	-122.20212	1799159	0.34	2005-06-08 17:39:20.0	Ventana	34.482	00:23:53:23	4.44	V2674-01
 	transect	Phyllospadix	800.78	2674	 	36.75196	-122.20969	1800939	0.35	2005-06-08 18:18:17.0	Ventana	34.49	01:02:22:17	4.335	V2674-02
 	transect	Atolla vanhoeffeni	400.81	2681	 	36.69632	-122.05179	2492990	0.79	2005-07-07 17:43:17.0	Ventana	34.276	01:13:40:25	6.65	V2681-02HD
 	cruise	shell hash	90.04	2688	 	36.816963	-122.01572	1679347	2.0	2005-07-14 20:10:07.0	Ventana	34.088	03:54:52:13	8.908	V2688-04
 	transect	Psolus squamatus	 	2687	 	 	 	1811394	 	2005-07-13 20:11:15.0	Ventana	 	03:36:14:07	 	V2687-04
 	transect	Phyllospadix	199.7	2696	 	36.804382	-122.12632	1813437	1.52	2005-08-01 17:46:28.0	Ventana	34.208	01:14:21:14	8.665	V2696-02
 	transect	Mesomyaria	999.19	2669	 	36.731087	-122.23497	1684214	0.45	2005-05-25 18:49:48.0	Ventana	34.52	01:11:48:24	3.92	V2669-02
 	ascend	Nanomia	258.17	2681	 	36.697838	-122.05522	1719387	 	2005-07-07 21:29:59.0	Ventana	 	05:03:09:20	 	V2681-05
 	transect	Mesomyaria	1000.66	2669	 	36.73207	-122.247894	1736166	0.4	2005-05-25 20:17:48.0	Ventana	34.505	02:39:17:02	4.083	V2669-03
 	ascend	sinker	266.9	2683	 	36.703136	-122.05065	1758090	1.39	2005-07-11 21:26:05.0	Ventana	34.231	04:58:57:13	7.983	V2683-05
 	transect	Porifera sp. 1	399.69	2687	 	36.789288	-122.1247	1809599	1.16	2005-07-13 18:23:21.0	Ventana	34.238	01:49:40:10	7.333	V2687-02
 	transect	Phyllospadix	802.98	2674	 	36.752243	-122.20626	1799910	0.36	2005-06-08 18:01:05.0	Ventana	34.489	00:45:37:14	4.334	V2674-01
 	transect	Porifera sp. 1	 	2687	 	 	 	1812731	 	2005-07-13 20:55:10.0	Ventana	 	04:19:40:15	 	V2687-05
 	transect	Brisaster	999.97	2669	 	36.731804	-122.244576	1734386	0.4	2005-05-25 19:53:57.0	Ventana	34.51	02:15:27:14	4.078	V2669-03
 	transect	Nanomia bijuga	200.4	2681	 	36.698284	-122.05331	2490947	1.71	2005-07-07 17:10:05.0	Ventana	34.195	00:41:13:12	8.323	V2681-01HD
 	transect	Sergestes similis	300.4	2681	 	36.697323	-122.05281	2492284	1.23	2005-07-07 17:23:47.0	Ventana	34.233	00:54:55:04	7.396	V2681-01HD
 	descend	Appendicularia	656.24	2683	 	36.702026	-122.04894	1757061	0.34	2005-07-11 17:52:11.0	Ventana	34.404	01:36:16:27	5.258	V2683-02
 	transect	Mediaster	 	2687	 	 	 	1811702	 	2005-07-13 20:21:01.0	Ventana	 	03:46:00:02	 	V2687-04
 	transect	Gastropoda sp.2	998.76	2669	 	36.73119	-122.234344	1694654	0.45	2005-05-25 18:44:14.0	Ventana	34.521	01:06:14:15	3.917	V2669-02
 	transect	Pennatulacea sp.1	602.37	2680	 	36.791195	-122.2329	1806835	0.36	2005-06-27 20:26:05.0	Ventana	34.379	03:04:41:11	5.586	V2680-03
 	transect	Neptunea amianta	999.57	2669	 	36.732746	-122.25132	1737195	0.4	2005-05-25 20:41:00.0	Ventana	34.509	03:01:49:12	4.072	V2669-04
 	transect	lobata	200.45	2681	 	36.69828	-122.05329	2490181	1.7	2005-07-07 17:05:32.0	Ventana	34.197	00:36:40:08	8.358	V2681-01HD
 	descend	Hormiphora	163.39	2683	 	36.70069	-122.051575	1756295	1.7	2005-07-11 16:28:32.0	Ventana	34.175	00:16:14:01	8.752	V2683-01
 	transect	Neptunea amianta	800.95	2674	 	36.752525	-122.2026	1799219	0.35	2005-06-08 17:41:38.0	Ventana	34.487	00:26:11:07	4.375	V2674-01
 	transect	Neptunea amianta	1000.22	2669	 	36.731384	-122.24171	1689847	0.4	2005-05-25 19:38:00.4	Ventana	34.509	01:59:58:10	4.076	V2669-02
 	ascend	Lobata	573.03	2681	 	36.698944	-122.05426	1717712	0.37	2005-07-07 20:31:11.767	Ventana	34.364	04:00:11:27	5.824	V2681-04
 	ascend	Euphausiacea	264.33	2681	 	36.699524	-122.05449	1718418	1.4	2005-07-07 21:08:29.577	Ventana	34.231	04:36:49:15	7.908	V2681-05
 	ascend	Appendicularia	407.06	2681	 	36.69924	-122.054405	1717975	0.83	2005-07-07 20:47:08.4	Ventana	34.278	04:15:29:04	6.794	V2681-05
 	descend	Poeobius meseres	587.32	2683	 	36.70192	-122.0491	1757001	0.36	2005-07-11 17:48:16.0	Ventana	34.365	01:32:22:09	5.845	V2683-02
 	transect	Phyllospadix	203.46	2696	 	36.806442	-122.130005	1813760	1.49	2005-08-01 18:27:54.0	Ventana	34.21	01:55:45:06	8.637	V2696-02
 	transect	Allocentrotus fragilis	 	2687	 	 	 	1810365	 	2005-07-13 19:16:42.0	Ventana	 	02:42:25:27	 	V2687-03
 	transect	Phyllospadix	399.48	2687	 	36.789406	-122.125145	1809659	1.14	2005-07-13 18:30:56.0	Ventana	34.242	01:57:15:13	7.293	V2687-02
 	transect	Phyllospadix	999.57	2669	 	36.730717	-122.22948	1651099	0.45	2005-05-25 18:10:14.0	Ventana	34.521	00:32:41:00	3.908	V2669-01
 	descend	Appendicularia	467.39	2683	 	36.70163	-122.04936	1756738	0.77	2005-07-11 17:12:25.0	Ventana	34.288	01:00:03:21	6.648	V2683-01
 	transect	chuniphyes	700.62	2681	 	36.695797	-122.05166	2497857	0.28	2005-07-07 18:44:48.0	Ventana	34.434	02:14:29:27	4.948	V2681-03HD
 	ascend	Nanomia	256.09	2681	 	36.69865	-122.05658	1719124	1.44	2005-07-07 21:23:18.767	Ventana	34.231	04:51:38:08	7.974	V2681-05
 	transect	Microstomus pacificus	196.45	2696	 	36.80292	-122.12226	1813054	1.54	2005-08-01 17:01:55.0	Ventana	34.201	00:30:13:25	8.607	V2696-01
 	transect	Gastropoda	200.24	2696	 	36.80468	-122.12706	1813497	1.51	2005-08-01 17:53:40.0	Ventana	34.211	01:21:33:19	8.672	V2696-02
 	transect	Psolus squamatus	 	2687	 	 	 	1807158	 	2005-07-13 17:02:11.0	Ventana	 	00:29:05:25	 	V2687-01
 	transect	Brisaster	1000.16	2669	 	36.73198	-122.247154	1735843	0.41	2005-05-25 20:13:05.0	Ventana	34.507	02:34:34:20	4.068	V2669-03
 	transect	Sebastolobus altivelis	805.93	2674	 	36.750385	-122.221825	1803763	0.34	2005-06-08 19:17:22.0	Ventana	34.486	02:01:24:05	4.405	V2674-02
 	transect	Glyptocephalus zachirus	 	2687	 	 	 	1810305	 	2005-07-13 19:15:03.0	Ventana	 	02:40:47:29	 	V2687-03
 	transect	Mesomyaria	1000.11	2669	 	36.73094	-122.233734	1683951	0.45	2005-05-25 18:40:15.0	Ventana	34.523	01:02:16:19	3.911	V2669-02
 	descend	Poeobius meseres	1081.38	2683	 	36.70511	-122.04891	1757444	0.52	2005-07-11 19:27:44.0	Ventana	34.534	03:08:04:21	3.797	V2683-03
 	transect	Psolus squamatus	 	2687	 	 	 	1808953	 	2005-07-13 17:32:35.0	Ventana	 	00:59:27:03	 	V2687-01
 	ascend	Chaetognatha	871.28	2681	 	36.6984	-122.055405	1717344	0.35	2005-07-07 19:52:35.633	Ventana	34.5	03:21:38:20	4.303	V2681-04
 	transect	Psolus squamatus	399.86	2687	 	36.788113	-122.12162	1809216	1.13	2005-07-13 17:37:21.0	Ventana	34.243	01:03:43:12	7.255	V2687-02
 	stationary	Merluccius productus	502.33	2694	 	36.784595	-122.20043	1676643	0.85	2005-07-27 20:13:48.0	Ventana	34.271	02:45:56:11	6.687	V2694-03
 	transect	Mesomyaria	1000.32	2669	 	36.73125	-122.24128	1689404	0.4	2005-05-25 19:35:31.0	Ventana	34.508	01:57:28:17	4.086	V2669-02
 	transect	molt	100.57	2681	 	36.69983	-122.05429	2489535	2.13	2005-07-07 16:44:04.0	Ventana	34.068	00:15:12:09	9.147	V2681-01HD
 	ascend	Praya	 	2683	 	 	 	1758150	 	 	Ventana	 	05:05:07:15	 	V2683-05
 	cruise	Eptatretus stoutii	 	2687	 	 	 	1806895	 	2005-07-13 16:33:26.0	Ventana	 	00:00:22:00	 	V2687-01
 	transect	Microstomus pacificus	 	2687	 	 	 	1812791	 	2005-07-13 20:57:30.0	Ventana	 	04:21:59:25	 	V2687-05
 	transect	Neptunea amianta	801.5	2674	 	36.752464	-122.19947	1773780	0.29	2005-06-08 17:23:43.0	Ventana	34.46	00:08:18:02	4.657	V2674-01
 	transect	Phyllospadix	 	2687	 	 	 	1811011	 	2005-07-13 19:48:16.0	Ventana	 	03:13:16:29	 	V2687-04
 	ascend	Medusae	378.53	2693	 	36.695866	-122.060616	1758781	1.19	2005-07-25 20:50:40.0	Ventana	34.233	03:15:13:26	7.139	V2693-04
 	transect	Calliostoma platinum	 	2687	 	 	 	1812348	 	2005-07-13 20:33:13.0	Ventana	 	03:58:11:05	 	V2687-04
 	transect	Gastropoda sp.2	999.95	2669	 	36.731052	-122.23932	1689141	0.42	2005-05-25 19:23:20.0	Ventana	34.516	01:45:18:24	3.995	V2669-02
 	ascend	Poralia rufescens	1187.8	2683	 	36.70738	-122.047745	1757707	0.71	2005-07-11 20:23:47.0	Ventana	34.571	03:58:09:09	3.368	V2683-04
 	transect	Mesomyaria	802.09	2674	 	36.752323	-122.20586	1799850	0.36	2005-06-08 17:59:15.0	Ventana	34.486	00:43:47:18	4.337	V2674-01
 	cruise	Parastichopus	93.17	2688	 	36.815357	-122.017426	1679407	1.96	2005-07-14 20:29:14.0	Ventana	34.094	04:13:58:02	8.947	V2688-04
 	transect	Ceriantharia sp. 1	800.26	2674	 	36.751205	-122.21664	1803440	0.35	2005-06-08 18:51:54.0	Ventana	34.488	01:35:56:22	4.352	V2674-02
 	transect	Psolus squamatus	 	2687	 	 	 	1810245	 	2005-07-13 19:11:51.0	Ventana	 	02:37:35:07	 	V2687-03
 	ascend	Gonatus	377.72	2695	 	36.7839	-122.20097	1824523	1.16	2005-07-28 20:41:29.0	Ventana	34.284	05:39:04:27	7.937	V2695-04
 	transect	Phyllospadix	1000.19	2669	 	36.7311	-122.2398	1689201	0.41	2005-05-25 19:26:18.0	Ventana	34.51	01:48:15:26	4.062	V2669-02
 	transect	Phyllospadix	802.78	2674	 	36.751785	-122.21024	1800999	0.36	2005-06-08 18:20:56.0	Ventana	34.49	01:05:01:17	4.324	V2674-02
 	transect	Calycophorae	400.8	2681	 	36.69593	-122.051346	2492930	0.79	2005-07-07 17:41:35.0	Ventana	34.276	01:11:58:15	6.665	V2681-02HD
 	ascend	Hastigerinella digitata	282.52	2681	 	36.699734	-122.05505	1718298	1.36	2005-07-07 21:02:46.253	Ventana	34.232	04:31:06:16	7.735	V2681-05
 	transect	Mesomyaria	998.77	2669	 	36.732845	-122.25188	1737255	0.4	2005-05-25 20:44:17.0	Ventana	34.509	03:05:07:09	4.075	V2669-04
 	transect	Psolus squamatus	 	2687	 	 	 	1809013	 	2005-07-13 17:33:34.0	Ventana	 	01:00:26:01	 	V2687-01
 	ascend	Appendicularia	340.24	2681	 	36.699352	-122.05522	1718095	1.13	2005-07-07 20:53:29.2	Ventana	34.245	04:21:49:17	7.27	V2681-05
 	transect	Mediaster	 	2687	 	 	 	1810951	 	2005-07-13 19:43:41.0	Ventana	 	03:08:42:11	 	V2687-04
 	ascend	Appendicularia	258.17	2681	 	36.697838	-122.05522	1719327	 	2005-07-07 21:29:59.0	Ventana	 	05:01:11:19	 	V2681-05
 	ascend	Euphausiacea	258.17	2681	 	36.697838	-122.05522	1719507	 	2005-07-07 21:29:59.0	Ventana	 	05:09:03:20	 	V2681-05
 	ascend	Appendicularia	602.73	2682	 	36.698654	-122.06145	1723503	0.34	2005-07-08 20:55:55.0	Ventana	34.375	04:48:01:26	5.641	V2682-05
 	ascend	Appendicularia	831.74	2681	 	36.698757	-122.056206	1717404	0.31	2005-07-07 19:57:29.967	Ventana	34.483	03:26:32:06	4.429	V2681-04
 	transect	phialidium	500.58	2681	 	36.69602	-122.05152	2493636	0.43	2005-07-07 18:03:17.0	Ventana	34.349	01:33:40:09	6.006	V2681-02HD
 	transect	Porifera sp. 1	 	2687	http://search.mbari.org/ARCHIVE/frameGrabs/Ventana/images/2687/02_57_03_06.jpg	 	 	1810748	 	2005-07-13 19:31:20.0	Ventana	 	02:57:03:06	 	V2687-03
 	transect	Mesomyaria	1000.23	2669	 	36.73163	-122.24326	1733800	0.41	2005-05-25 19:46:08.0	Ventana	34.51	02:07:40:10	4.065	V2669-03
 	transect	Phyllospadix	799.64	2674	 	36.752666	-122.20094	1774163	0.34	2005-06-08 17:33:25.0	Ventana	34.481	00:17:58:29	4.436	V2674-01
 	transect	Chionoecetes tanneri	799.97	2674	 	36.752087	-122.208855	1800819	0.35	2005-06-08 18:13:40.0	Ventana	34.488	00:58:11:27	4.33	V2674-01
 	transect	Gastropoda sp.2	999.89	2669	 	36.730988	-122.233086	1695097	0.45	2005-05-25 18:37:16.0	Ventana	34.522	00:59:41:28	3.912	V2669-01
 	transect	Microstomus pacificus	 	2687	 	 	 	1807601	 	2005-07-13 17:17:00.0	Ventana	 	00:43:52:29	 	V2687-01
 	ascend	Chaetognatha	368.96	2693	 	36.69486	-122.06098	1758841	1.24	2005-07-25 20:59:18.0	Ventana	34.233	03:23:52:12	7.338	V2693-04
 	transect	Phyllospadix	 	2687	 	 	 	1811822	 	2005-07-13 20:26:27.0	Ventana	 	03:51:25:16	 	V2687-04
 	transect	Psolus squamatus	399.85	2687	 	36.788136	-122.1218	1809336	1.13	2005-07-13 17:39:42.0	Ventana	34.238	01:06:04:20	7.275	V2687-02
 	transect	Mesomyaria	999.73	2669	 	36.731102	-122.23539	1684334	0.45	2005-05-25 18:53:18.0	Ventana	34.521	01:15:18:22	3.924	V2669-02
 	cruise	Anoplopoma fimbria	492.77	2688	http://search.mbari.org/ARCHIVE/frameGrabs/Ventana/images/2688/01_10_07_21.jpg	36.80149	-122.01853	1677552	0.77	2005-07-14 17:24:25.0	Ventana	34.291	01:10:07:21	6.626	V2688-02
 	ascend	Apolemia	694.08	2681	 	36.69873	-122.054726	1717607	0.27	2005-07-07 20:21:28.0	Ventana	34.42	03:50:28:22	5.107	V2681-04
 	ascend	Poeobius meseres	370.92	2693	 	36.696407	-122.060715	1758676	1.2	2005-07-25 20:27:41.0	Ventana	34.232	03:07:12:28	7.164	V2693-03
 	ascend	Appendicularia	510.93	2682	 	36.69836	-122.06316	1723668	0.47	2005-07-08 21:13:02.0	Ventana	34.337	05:04:43:04	6.11	V2682-06
 	cruise	Allocentrotus fragilis	408.91	2688	 	36.80631	-122.01931	1677732	1.04	2005-07-14 17:49:58.56	Ventana	34.249	01:35:41:24	7.164	V2688-02
 	transect	Glyptocephalus zachirus	 	2687	 	 	 	1810628	 	2005-07-13 19:25:31.0	Ventana	 	02:51:14:22	 	V2687-03
 	ascend	Appendicularia	457.44	2681	 	36.69902	-122.054184	1717772	0.59	2005-07-07 20:36:37.067	Ventana	34.315	04:05:37:26	6.335	V2681-04
 	transect	Mesomyaria	1000.26	2669	 	36.73128	-122.240944	1689344	0.41	2005-05-25 19:33:37.0	Ventana	34.51	01:55:34:17	4.056	V2669-02
 	transect	Aegina	1000.99	2681	 	36.695553	-122.0516	2498623	0.48	2005-07-07 19:25:28.0	Ventana	34.532	02:55:08:12	3.847	V2681-03HD
 	transect	Phyllospadix	801.64	2674	 	36.75248	-122.200005	1773983	0.29	2005-06-08 17:26:50.0	Ventana	34.455	00:11:23:23	4.641	V2674-01
 	transect	lobata	600.58	2681	 	36.69657	-122.05221	2493756	0.3	2005-07-07 18:22:39.0	Ventana	34.387	01:53:01:08	5.479	V2681-02HD
 	cruise	Eptatretus	1015.84	2689	 	36.771545	-122.08298	1669733	0.55	2005-07-18 17:09:24.0	Ventana	34.552	00:32:27:00	3.725	V2689-01
 	ascend	Amphipoda	915.06	2681	 	36.697803	-122.05449	1717021	0.39	2005-07-07 19:46:27.367	Ventana	34.506	03:15:30:23	4.189	V2681-04
 	ascend	Nanomia	206.11	2693	 	36.691017	-122.06262	1759164	1.78	2005-07-25 21:25:06.0	Ventana	34.2	03:49:37:04	8.745	V2693-04
 	transect	Mesomyaria	998.21	2669	 	36.730534	-122.22834	1649364	0.45	2005-05-25 18:02:52.0	Ventana	34.523	00:25:20:07	3.907	V2669-01
 	transect	Mesomyaria	999.2	2669	 	36.731068	-122.233955	1684011	0.45	2005-05-25 18:41:33.0	Ventana	34.522	01:03:33:29	3.913	V2669-02
 	transect	Gastropoda sp.2	997.42	2669	 	36.73055	-122.22734	1694917	0.45	2005-05-25 17:56:31.0	Ventana	34.52	00:18:59:09	3.909	V2669-01
 	transect	molt	400.75	2681	 	36.696777	-122.05236	2493050	0.79	2005-07-07 17:45:22.0	Ventana	34.277	01:15:46:26	6.659	V2681-02HD
 	ascend	Mysidae	1150.09	2683	 	36.708084	-122.04895	1757767	0.69	2005-07-11 20:37:17.0	Ventana	34.569	04:11:37:07	3.435	V2683-04
 	transect	Mesomyaria	800.33	2674	 	36.75173	-122.211716	1801142	0.35	2005-06-08 18:26:55.0	Ventana	34.488	01:10:59:24	4.339	V2674-02
 	transect	Mediaster	 	2687	 	 	 	1811499	 	2005-07-13 20:14:46.0	Ventana	 	03:39:45:07	 	V2687-04
 	transect	molt	50.42	2681	 	36.69983	-122.05429	2485577	2.96	2005-07-07 16:35:39.0	Ventana	33.92	00:06:49:14	9.619	V2681-01HD
 	transect	Mesomyaria	 	2669	 	 	 	1737578	 	2005-05-25 13:52:05.0	Ventana	 	03:12:52:27	 	V2669-04
 	descend	Appendicularia	930.67	2681	 	36.69468	-122.05041	1716518	0.42	2005-07-07 19:17:54.61	Ventana	34.515	02:47:36:02	4.042	V2681-03
 	ascend	ink	754.42	2682	http://search.mbari.org/ARCHIVE/frameGrabs/Ventana/images/2682/04_20_22_28.jpg	36.69877	-122.05912	1723300	0.29	2005-07-08 20:28:14.0	Ventana	34.445	04:20:22:28	4.838	V2682-05
 	transect	Appendicularia	300.42	2681	 	36.696247	-122.05187	2492547	1.24	2005-07-07 17:27:23.0	Ventana	34.237	00:58:29:25	7.412	V2681-01HD
 	transect	Ophiuroidea	999.21	2669	 	36.731388	-122.23606	1684537	0.44	2005-05-25 18:58:00.0	Ventana	34.52	01:19:59:29	3.939	V2669-02
 	transect	molt	100.51	2681	 	36.69983	-122.05429	2489655	2.13	2005-07-07 16:47:14.0	Ventana	34.069	00:18:23:20	9.147	V2681-01HD
 	descend	Copepoda	1189.46	2682	 	36.69833	-122.05787	1722414	0.67	2005-07-08 19:45:50.0	Ventana	34.57	03:38:26:14	3.382	V2682-04
 	transect	Psolus squamatus	 	2687	 	 	 	1808630	 	2005-07-13 17:25:45.0	Ventana	 	00:52:38:06	 	V2687-01
 	transect	Mediaster	 	2687	 	 	 	1811334	 	2005-07-13 20:07:50.0	Ventana	 	03:32:49:07	 	V2687-04
 	transect	Neptunea amianta	599.87	2680	 	36.77807	-122.22322	1804349	0.36	2005-06-27 17:53:42.0	Ventana	34.377	00:33:49:10	5.591	V2680-01
 	descend	Cydippida	547.11	2681	 	36.695675	-122.05106	1715609	0.36	2005-07-07 18:06:08.1	Ventana	34.367	01:36:30:05	5.749	V2681-02
 	transect	Psolus squamatus	 	2687	 	 	 	1808833	 	2005-07-13 17:30:15.0	Ventana	 	00:57:08:00	 	V2687-01
 	cruise	Mysidae	1222.54	2683	 	36.706173	-122.04771	1757587	0.73	2005-07-11 20:01:00.0	Ventana	34.577	03:35:22:12	3.334	V2683-04
 	transect	Mediaster	 	2687	 	 	 	1812205	 	2005-07-13 20:29:00.0	Ventana	 	03:53:58:04	 	V2687-04
 	transect	Phyllospadix	799.11	2674	 	36.752506	-122.20436	1799542	0.35	2005-06-08 17:51:05.0	Ventana	34.484	00:35:38:14	4.373	V2674-01
 	transect	Psolus squamatus	 	2687	http://search.mbari.org/ARCHIVE/frameGrabs/Ventana/images/2687/03_20_39_05.jpg	 	 	1811131	 	2005-07-13 19:55:39.0	Ventana	 	03:20:39:05	 	V2687-04
 	transect	Gastropoda sp.2	999.78	2669	 	36.73134	-122.23788	1694714	0.44	2005-05-25 19:13:50.0	Ventana	34.52	01:35:48:21	3.943	V2669-02
 	transect	molt	100.5	2681	 	36.698982	-122.05375	2489858	2.12	2005-07-07 16:51:58.0	Ventana	34.07	00:23:07:15	9.148	V2681-01HD
 	transect	Mediaster	 	2687	 	 	 	1807038	 	2005-07-13 16:55:41.0	Ventana	 	00:22:35:19	 	V2687-01
 	transect	Halipteris californica	600.18	2680	 	36.784344	-122.229706	1805603	0.36	2005-06-27 19:16:51.0	Ventana	34.377	01:55:54:26	5.606	V2680-02
 	cruise	Pandalus platyceros	237.86	2688	 	36.809834	-122.020546	1677935	1.57	2005-07-14 18:31:48.5	Ventana	34.193	02:17:04:16	8.313	V2688-03
 	descend	Gonatus	438.19	2683	 	36.70148	-122.04951	1756678	0.84	2005-07-11 17:07:07.0	Ventana	34.275	00:54:46:01	6.765	V2683-01
 	transect	cydippida	800.88	2681	 	36.69618	-122.052155	2498240	0.31	2005-07-07 18:59:14.0	Ventana	34.475	02:28:56:28	4.5	V2681-03HD
 	cruise	Merluccius productus	505.21	2694	 	36.784016	-122.2008	1676155	0.75	2005-07-27 17:07:41.0	Ventana	34.288	00:00:49:23	6.475	V2694-01
 	transect	Gastropoda sp.2	998.2	2669	 	36.73295	-122.252235	1737398	0.4	2005-05-25 20:46:39.0	Ventana	34.51	03:07:26:14	4.075	V2669-04
 	transect	Phyllospadix	798.33	2674	 	36.75159	-122.21397	1801322	0.35	2005-06-08 18:38:01.0	Ventana	34.488	01:22:04:25	4.342	V2674-02
 	transect	Nanomia bijuga	200.48	2681	 	36.69828	-122.05329	2490564	1.71	2005-07-07 17:07:33.0	Ventana	34.195	00:38:41:10	8.336	V2681-01HD
 	transect	Mesomyaria	801.71	2674	 	36.750923	-122.219696	1803643	0.35	2005-06-08 19:05:22.0	Ventana	34.493	01:49:24:04	4.365	V2674-02
 	transect	Mediaster	400.08	2687	 	36.78912	-122.12411	1809539	1.17	2005-07-13 18:13:49.0	Ventana	34.238	01:40:09:09	7.359	V2687-02
 	transect	Psolus squamatus	 	2687	 	 	 	1810425	 	2005-07-13 19:17:45.0	Ventana	 	02:43:29:23	 	V2687-03
 	transect	Stomphia	1000.26	2669	 	36.730923	-122.232925	1683831	0.45	2005-05-25 18:36:13.0	Ventana	34.523	00:58:38:25	3.909	V2669-01
 	transect	Mesomyaria	999.26	2669	 	36.731422	-122.236275	1684717	0.44	2005-05-25 18:59:39.0	Ventana	34.517	01:21:39:05	3.943	V2669-02
 	descend	Nanomia	192.79	2693	 	36.69606	-122.05814	1758293	1.79	2005-07-25 18:16:15.0	Ventana	34.187	00:56:44:26	8.915	V2693-01
 	transect	Zaniolepididae	203.49	2696	 	36.80736	-122.13103	1813820	1.47	2005-08-01 18:40:47.0	Ventana	34.216	02:07:52:06	8.625	V2696-03
 	transect	Mesomyaria	997.33	2669	 	36.73066	-122.22783	1649244	0.45	2005-05-25 17:59:40.0	Ventana	34.522	00:22:09:00	3.907	V2669-01
 	transect	Chionoecetes tanneri	801.03	2674	 	36.75212	-122.208305	1800736	0.35	2005-06-08 18:11:02.0	Ventana	34.49	00:55:34:04	4.322	V2674-01
 	transect	Nanomia bijuga	400.77	2681	 	36.697556	-122.053246	2493170	0.79	2005-07-07 17:48:37.0	Ventana	34.277	01:19:00:25	6.66	V2681-02HD
 	transect	Mesomyaria	1000.06	2669	 	36.731697	-122.24367	1733860	0.41	2005-05-25 19:48:05.0	Ventana	34.508	02:09:36:16	4.069	V2669-03
 	descend	Appendicularia	349.83	2682	 	36.698627	-122.06041	1720296	1.02	2005-07-08 17:17:13.0	Ventana	34.254	01:10:43:24	7.103	V2682-02
 	transect	Actiniaria sp. 3	 	2687	 	 	 	1808750	 	2005-07-13 17:28:31.0	Ventana	 	00:55:24:00	 	V2687-01
 	transect	Nanomia bijuga	200.34	2681	 	36.69828	-122.05329	2490038	1.69	2005-07-07 17:04:18.0	Ventana	34.194	00:35:26:00	8.359	V2681-01HD
 	transect	Stomphia	999.87	2669	 	36.732605	-122.25046	1736992	0.41	2005-05-25 20:36:24.0	Ventana	34.51	02:57:50:21	4.073	V2669-03
 	transect	Lumpenus sagitta	202.12	2696	 	36.805256	-122.12819	1813640	1.5	2005-08-01 18:09:20.0	Ventana	34.212	01:37:12:15	8.662	V2696-02
 	ascend	Appendicularia	661.16	2683	 	36.705353	-122.04976	1757910	0.28	2005-07-11 21:08:30.0	Ventana	34.417	04:41:23:00	5.116	V2683-05
 	cruise	Sebastolobus	424.66	2676	 	36.803596	-122.02922	1676418	0.68	2005-06-14 16:42:19.0	Ventana	34.31	00:26:27:09	6.489	V2676-01
 	ascend	Poeobius meseres	903.41	2681	 	36.697968	-122.05471	1717141	0.37	2005-07-07 19:48:23.0	Ventana	34.503	03:17:25:24	4.203	V2681-04
 	descend	Appendicularia	516.46	2683	 	36.701454	-122.04916	1756881	0.62	2005-07-11 17:40:56.0	Ventana	34.312	01:25:01:08	6.358	V2683-02
 	transect	Rathbunaster californicus	 	2687	 	 	 	1812611	 	2005-07-13 20:47:25.0	Ventana	 	04:11:56:05	 	V2687-05
 	descend	Appendicularia	1021.25	2682	 	36.698322	-122.0592	1722031	0.46	2005-07-08 19:01:32.0	Ventana	34.527	02:54:33:16	3.895	V2682-03
 	transect	Henricia sanguinolenta	 	2687	 	 	 	1809802	 	2005-07-13 18:42:17.0	Ventana	 	02:08:03:11	 	V2687-03
 	cruise	Sebastolobus	343.51	2688	 	36.807877	-122.020096	1677815	1.21	2005-07-14 18:06:07.0	Ventana	34.23	01:51:49:14	7.493	V2688-02
 	ascend	Appendicularia	585.73	2682	 	36.698826	-122.06028	1723443	0.4	2005-07-08 20:42:14.0	Ventana	34.371	04:34:23:19	5.67	V2682-05
 	transect	Phyllospadix	801.19	2674	 	36.752285	-122.207184	1800030	0.36	2005-06-08 18:05:40.0	Ventana	34.485	00:50:12:12	4.359	V2674-01
 	transect	Ophiuroidea	999.2	2669	 	36.731014	-122.23203	1683711	0.45	2005-05-25 18:30:14.0	Ventana	34.523	00:52:40:24	3.913	V2669-01
 	transect	Phyllospadix	800.27	2674	 	36.752533	-122.20347	1799339	0.35	2005-06-08 17:46:11.0	Ventana	34.486	00:30:44:12	4.368	V2674-01
 	transect	Neptunea amianta	1001.15	2669	 	36.732292	-122.24928	1736286	0.4	2005-05-25 20:27:47.0	Ventana	34.508	02:49:15:08	4.072	V2669-03
 	transect	molt	50.45	2681	 	36.69982	-122.05429	2485517	2.94	2005-07-07 16:34:09.0	Ventana	33.928	00:05:19:07	9.616	V2681-01HD
 	transect	Ceriantharia sp. 2	999.21	2669	 	36.730846	-122.22962	1683365	0.45	2005-05-25 18:11:45.0	Ventana	34.522	00:34:12:14	3.906	V2669-01
 	stationary	Appendicularia	501.61	2695	 	36.78457	-122.20045	1824463	0.78	2005-07-28 17:49:39.0	Ventana	34.278	00:55:58:07	6.51	V2695-01
 	transect	Mesomyaria	998.77	2669	 	36.73115	-122.234116	1684071	0.45	2005-05-25 18:42:48.0	Ventana	34.522	01:04:49:02	3.916	V2669-02
 	descend	Nanomia	196.08	2682	 	36.699894	-122.06074	1719950	2.0	2005-07-08 16:20:36.0	Ventana	34.137	00:14:40:16	8.133	V2682-01
 	ascend	Appendicularia	958.07	2681	 	36.69728	-122.0537	1716841	0.42	2005-07-07 19:39:52.933	Ventana	34.517	03:08:56:22	4.037	V2681-04
 	descend	Copepoda	827.25	2683	 	36.702744	-122.04861	1757204	0.32	2005-07-11 18:17:27.0	Ventana	34.478	02:01:31:10	4.464	V2683-02
 	transect	Chaetognatha	200.36	2681	 	36.69829	-122.05334	2491067	1.7	2005-07-07 17:11:24.0	Ventana	34.196	00:42:31:27	8.332	V2681-01HD
 	transect	Ophiuroidea	998.83	2669	 	36.731087	-122.23067	1651362	0.45	2005-05-25 18:19:25.25	Ventana	34.522	00:41:52:11	3.912	V2669-01
 	transect	Umbellula lindahli	598.96	2680	 	36.780197	-122.22525	1804612	0.35	2005-06-27 18:20:05.0	Ventana	34.383	01:00:10:23	5.549	V2680-01
 	transect	Sebastes diploproa	 	2687	 	 	 	1810808	 	2005-07-13 19:35:15.0	Ventana	 	03:00:58:08	 	V2687-03
 	descend	Appendicularia	806.64	2681	 	36.696968	-122.05316	1716435	0.31	2005-07-07 19:03:06.767	Ventana	34.473	02:32:49:19	4.499	V2681-03
 	transect	Mesomyaria	998.36	2669	 	36.732944	-122.25215	1737338	0.4	2005-05-25 20:46:09.0	Ventana	34.51	03:06:58:14	4.074	V2669-04
 	transect	Mesomyaria	999.83	2669	 	36.73134	-122.23789	1687564	0.44	2005-05-25 19:14:01.0	Ventana	34.517	01:36:00:03	3.941	V2669-02
 	transect	Chionoecetes tanneri	1000.33	2669	 	36.731525	-122.242485	1694511	0.41	2005-05-25 19:41:59.0	Ventana	34.51	02:03:56:16	4.062	V2669-02
 	descend	Leuroglossus stilbius	812.63	2682	 	36.698357	-122.05954	1721708	0.31	2005-07-08 18:42:18.0	Ventana	34.473	02:35:21:04	4.512	V2682-03
 	transect	Nanomia bijuga	400.81	2681	 	36.695732	-122.05112	2492870	0.79	2005-07-07 17:40:28.0	Ventana	34.277	01:10:52:02	6.668	V2681-02HD
 	transect	Mysidae 2	700.66	2681	 	36.696438	-122.05236	2497737	0.28	2005-07-07 18:41:59.0	Ventana	34.433	02:11:42:21	4.961	V2681-03HD
 	transect	Phyllospadix	800.86	2674	 	36.751755	-122.211105	1801082	0.35	2005-06-08 18:24:33.0	Ventana	34.488	01:08:37:19	4.34	V2674-02
 	transect	Phyllospadix	198.03	2696	 	36.803585	-122.12415	1813234	1.54	2005-08-01 17:24:08.0	Ventana	34.202	00:52:25:05	8.608	V2696-01
 	descend	Appendicularia	659.08	2682	 	36.698647	-122.05994	1721362	0.28	2005-07-08 18:10:49.0	Ventana	34.409	02:03:53:26	5.225	V2682-03
 	descend	Calycophorae	1169.49	2683	 	36.706745	-122.04801	1757504	0.68	2005-07-11 19:35:14.0	Ventana	34.566	03:15:35:05	3.45	V2683-03
 	cruise	Actiniaria	500.43	2695	 	36.78384	-122.19984	1824403	0.89	2005-07-28 16:58:33.0	Ventana	34.264	00:04:55:29	6.714	V2695-01
 	transect	cydippida	200.43	2681	 	36.6984	-122.05348	2491413	1.67	2005-07-07 17:14:07.0	Ventana	34.199	00:45:13:13	8.341	V2681-01HD
 	descend	Appendicularia	860.45	2683	 	36.703	-122.04838	1757241	0.35	2005-07-11 18:27:07.0	Ventana	34.488	02:11:10:21	4.351	V2683-02
 	transect	Corallimorphus pilatus	399.86	2687	 	36.788048	-122.12155	1809156	1.13	2005-07-13 17:36:16.0	Ventana	34.242	01:02:38:13	7.271	V2687-02
 	transect	Psolus squamatus	 	2687	 	 	 	1810102	 	2005-07-13 18:56:34.0	Ventana	 	02:22:19:21	 	V2687-03
 	descend	Copepoda	1182.95	2682	 	36.698277	-122.05795	1722331	0.66	2005-07-08 19:40:08.0	Ventana	34.569	03:32:45:04	3.413	V2682-04
 	transect	phialidium	500.53	2681	 	36.69678	-122.05237	2493576	0.44	2005-07-07 18:00:00.0	Ventana	34.346	01:30:23:21	6.019	V2681-02HD
 	transect	Mysidae 2	800.9	2681	 	36.695225	-122.051	2498097	0.31	2005-07-07 18:54:41.0	Ventana	34.476	02:24:23:19	4.491	V2681-03HD
 	transect	Ceriantharia sp. 2	999.87	2669	 	36.730988	-122.23252	1683771	0.45	2005-05-25 18:33:53.0	Ventana	34.521	00:56:18:29	3.915	V2669-01
 	descend	Appendicularia	329.2	2683	 	36.701206	-122.050064	1756535	1.21	2005-07-11 16:55:20.0	Ventana	34.24	00:43:00:22	7.487	V2683-01
 	transect	Aegina	700.64	2681	 	36.6973	-122.05318	2497654	0.29	2005-07-07 18:38:30.0	Ventana	34.435	02:08:13:25	4.944	V2681-03HD
 	transect	Mediaster	 	2687	 	 	 	1812528	 	2005-07-13 20:44:08.0	Ventana	 	04:08:38:21	 	V2687-05
 	ascend	Hastigerinella digitata	307.34	2681	 	36.69967	-122.05526	1718178	1.27	2005-07-07 20:58:36.6	Ventana	34.231	04:26:57:04	7.551	V2681-05
 	descend	Appendicularia	367.73	2682	 	36.698467	-122.060036	1720656	0.98	2005-07-08 17:34:04.0	Ventana	34.256	01:27:35:10	7.047	V2682-02
 	descend	Appendicularia	500.94	2683	 	36.701492	-122.04939	1756798	0.69	2005-07-11 17:25:33.0	Ventana	34.303	01:09:41:11	6.471	V2683-02
 	descend	Chaetognatha	1083.53	2682	 	36.698296	-122.059166	1722068	0.53	2005-07-08 19:05:54.0	Ventana	34.545	02:58:55:11	3.721	V2682-03
 	transect	Phyllospadix	801.6	2674	 	36.752182	-122.20788	1800113	0.35	2005-06-08 18:08:53.0	Ventana	34.49	00:53:24:17	4.328	V2674-01
 	transect	molt	100.48	2681	 	36.699814	-122.05428	2489738	2.13	2005-07-07 16:49:11.0	Ventana	34.067	00:20:19:17	9.155	V2681-01HD
 	cruise	Laminariales	105.46	2688	 	36.813744	-122.018074	1679227	1.97	2005-07-14 19:32:50.0	Ventana	34.091	03:17:37:26	8.924	V2688-04
 	transect	Phyllospadix	800.08	2674	 	36.752457	-122.204926	1799685	0.35	2005-06-08 17:54:08.0	Ventana	34.487	00:38:40:13	4.356	V2674-01
 	cruise	rock outcrop	357.16	2676	http://search.mbari.org/ARCHIVE/frameGrabs/Ventana/images/2676/00_32_27_21.jpg	36.804684	-122.029	20003927	0.98	2005-06-14 16:48:21.0	Ventana	34.263	00:32:27:21	7.099	V2676-01
 	transect	Mediaster	 	2687	 	 	 	1812265	 	2005-07-13 20:30:12.0	Ventana	 	03:55:09:25	 	V2687-04
 	transect	Umbellula lindahli	602.77	2680	 	36.789547	-122.23256	1806715	0.35	2005-06-27 20:11:41.0	Ventana	34.38	02:50:18:15	5.59	V2680-03
 	descend	Appendicularia	275.07	2681	 	36.69857	-122.05366	1713611	1.37	2005-07-07 17:16:58.067	Ventana	34.222	00:48:06:07	7.694	V2681-01
 	cruise	Metridium farcimen	103.23	2676	 	36.806072	-122.04213	1677169	1.93	2005-06-14 19:18:02.0	Ventana	34.16	02:56:46:21	8.429	V2676-03
 	ascend	Aegina	741.23	2681	 	36.698734	-122.05561	1717547	0.26	2005-07-07 20:15:38.133	Ventana	34.442	03:44:39:22	4.844	V2681-04
 	transect	Pennatulacea sp.1	602.3	2680	 	36.787643	-122.23188	1805926	0.36	2005-06-27 19:51:34.0	Ventana	34.378	02:30:12:16	5.594	V2680-03
 	ascend	Euphausiacea	263.11	2681	 	36.69889	-122.056786	1718884	1.42	2005-07-07 21:18:55.967	Ventana	34.232	04:47:15:07	7.941	V2681-05
 	ascend	Chaetognatha	339.87	2693	 	36.69302	-122.06143	1758961	1.26	2005-07-25 21:11:46.0	Ventana	34.239	03:36:18:24	7.434	V2693-04
 	transect	Sebastolobus altivelis	800.94	2674	 	36.75108	-122.21744	1803500	0.35	2005-06-08 18:55:35.0	Ventana	34.489	01:39:38:00	4.347	V2674-02
 	transect	Psolus squamatus	 	2687	 	 	 	1810568	 	2005-07-13 19:22:32.0	Ventana	 	02:48:15:25	 	V2687-03
 	transect	Appendicularia	400.78	2681	 	36.697216	-122.05285	2493110	0.79	2005-07-07 17:47:08.0	Ventana	34.278	01:17:32:25	6.663	V2681-02HD
 	transect	Allocentrotus fragilis	 	2687	 	 	 	1811274	 	2005-07-13 20:05:34.0	Ventana	 	03:30:33:21	 	V2687-04
 	transect	Sebastolobus	 	2687	http://search.mbari.org/ARCHIVE/frameGrabs/Ventana/images/2687/00_54_09_20.jpg	 	 	1808690	 	2005-07-13 17:27:17.0	Ventana	 	00:54:09:20	 	V2687-01
 	transect	Ceriantharia sp. 2	998.43	2669	 	36.731144	-122.23073	1683425	0.45	2005-05-25 18:20:31.0	Ventana	34.523	00:42:57:23	3.914	V2669-01
 	transect	zoarcidae	600.57	2681	 	36.69717	-122.05292	2493816	0.3	2005-07-07 18:25:20.0	Ventana	34.388	01:55:42:00	5.469	V2681-02HD
 	transect	Mesomyaria	998.35	2669	 	36.731018	-122.2303	1651279	0.45	2005-05-25 18:16:50.0	Ventana	34.522	00:39:16:28	3.912	V2669-01
 	transect	Mediaster	 	2687	 	 	 	1807075	 	2005-07-13 16:57:58.0	Ventana	 	00:24:52:12	 	V2687-01
 	transect	Gastropoda	203.52	2696	 	36.80526	-122.1282	1813677	1.48	2005-08-01 18:14:32.0	Ventana	34.216	01:42:23:09	8.634	V2696-02
 	descend	Dosidicus gigas	563.13	2682	 	36.698635	-122.0598	1720919	0.34	2005-07-08 18:06:14.0	Ventana	34.373	01:59:43:06	5.622	V2682-02
 	cruise	rock outcrop	94.9	2688	http://search.mbari.org/ARCHIVE/frameGrabs/Ventana/images/2688/04_16_53_20.jpg	36.81471	-122.01714	20005279	1.95	2005-07-14 20:32:10.0	Ventana	34.094	04:16:53:20	8.942	V2688-04
 	cruise	glass	113.84	2688	 	36.81226	-122.02106	1678078	1.97	2005-07-14 19:15:54.0	Ventana	34.094	03:01:07:09	8.918	V2688-03
 	transect	Nanomia bijuga	200.39	2681	 	36.698303	-122.053375	2491150	1.68	2005-07-07 17:12:18.0	Ventana	34.198	00:43:25:27	8.337	V2681-01HD
 	descend	Sergestes similis	261.85	2682	 	36.699795	-122.06083	1720010	1.37	2005-07-08 16:26:34.0	Ventana	34.23	00:20:38:02	7.821	V2682-01
 	transect	Ceriantharia sp. 2	1000.47	2669	 	36.732418	-122.24984	1736729	0.41	2005-05-25 20:31:54.0	Ventana	34.509	02:53:22:05	4.069	V2669-03
 	transect	Neptunea amianta	800.55	2674	 	36.75254	-122.201645	1799076	0.34	2005-06-08 17:36:37.0	Ventana	34.487	00:21:10:16	4.415	V2674-01
 	descend	Dosidicus gigas	618.53	2682	 	36.698627	-122.05981	1721265	0.3	2005-07-08 18:08:16.0	Ventana	34.395	02:01:22:05	5.382	V2682-03
 	cruise	Macrouridae	1210.89	2683	 	36.706738	-122.04762	1757647	0.73	2005-07-11 20:12:51.0	Ventana	34.578	03:47:13:03	3.341	V2683-04
 	transect	Phyllospadix	802.29	2674	 	36.751743	-122.210526	1801022	0.35	2005-06-08 18:22:18.0	Ventana	34.49	01:06:23:13	4.327	V2674-02
 	transect	Osmeridae	598.81	2680	 	36.78246	-122.22763	1805175	0.35	2005-06-27 18:50:49.0	Ventana	34.377	01:29:53:25	5.59	V2680-02
 	transect	Hormiphora	200.44	2681	 	36.69828	-122.05329	2490301	1.69	2005-07-07 17:06:40.0	Ventana	34.199	00:37:48:03	8.355	V2681-01HD
 	descend	Lensia	242.28	2683	 	36.700962	-122.05061	1756438	1.71	2005-07-11 16:50:04.0	Ventana	34.188	00:37:44:16	8.075	V2683-01
 	transect	Neptunea amianta	799.7	2674	 	36.75247	-122.20527	1799767	0.35	2005-06-08 17:56:20.0	Ventana	34.487	00:40:52:23	4.365	V2674-01
 	transect	Mediaster	 	2687	 	 	 	1811619	 	2005-07-13 20:17:37.0	Ventana	 	03:42:35:22	 	V2687-04
 	transect	Halipteris californica	599.87	2680	 	36.783344	-122.22877	1805378	0.35	2005-06-27 19:06:16.0	Ventana	34.379	01:45:20:17	5.587	V2680-02
 	transect	Mesomyaria	1000.58	2669	 	36.732204	-122.2486	1736226	0.41	2005-05-25 20:23:12.0	Ventana	34.51	02:44:39:26	4.061	V2669-03
 	transect	Phyllospadix	802.33	2674	 	36.75224	-122.206665	1799970	0.37	2005-06-08 18:03:21.0	Ventana	34.491	00:47:52:22	4.319	V2674-01
 	transect	Mediaster	 	2687	 	 	 	1812325	 	2005-07-13 20:32:14.0	Ventana	 	03:57:12:23	 	V2687-04
 	transect	molt	100.53	2681	 	36.69983	-122.05429	2489595	2.12	2005-07-07 16:45:44.0	Ventana	34.068	00:16:53:14	9.15	V2681-01HD
 	transect	Poeobius meseres	901.08	2681	 	36.696476	-122.05259	2498300	0.39	2005-07-07 19:08:55.0	Ventana	34.505	02:38:35:25	4.17	V2681-03HD
 	cruise	Suction Sampler	1284.72	2673	http://search.mbari.org/ARCHIVE/frameGrabs/Ventana/images/2673/00_17_37_05.jpg	36.802937	-121.804695	20003867	0.8	2005-06-07 17:34:18.0	Ventana	34.584	00:17:37:05	3.228	V2673-01
 	descend	Copepoda	788.42	2683	 	36.702587	-122.04884	1757144	0.36	2005-07-11 17:59:43.0	Ventana	34.457	01:43:49:00	4.69	V2683-02
 	transect	Lycenchelys camchatica	800.7	2674	 	36.75244	-122.20462	1799625	0.35	2005-06-08 17:52:52.0	Ventana	34.488	00:37:24:18	4.346	V2674-01
 	transect	Mediaster	 	2687	 	 	 	1812671	 	2005-07-13 20:50:48.0	Ventana	 	04:15:19:01	 	V2687-05
 	cruise	Sebastomus complex	99.94	2688	 	36.815662	-122.01506	1679287	1.97	2005-07-14 19:43:50.0	Ventana	34.085	03:28:37:04	8.903	V2688-04
 	descend	Chuniphyes	1184.29	2682	 	36.6985	-122.058334	1722271	0.67	2005-07-08 19:36:41.0	Ventana	34.571	03:29:17:18	3.39	V2682-04
 	descend	Appendicularia	373.79	2683	 	36.701416	-122.04981	1756595	1.08	2005-07-11 16:57:51.0	Ventana	34.245	00:45:30:13	7.027	V2683-01
 	transect	molt	100.49	2681	 	36.699436	-122.05404	2489798	2.13	2005-07-07 16:50:58.0	Ventana	34.068	00:22:06:02	9.146	V2681-01HD
 	descend	Leuroglossus stilbius	540.17	2683	 	36.701595	-122.04915	1756941	0.51	2005-07-11 17:43:38.0	Ventana	34.325	01:27:45:08	6.162	V2683-02
 	transect	Chionoecetes tanneri	800.48	2674	 	36.752502	-122.20308	1799279	0.34	2005-06-08 17:43:52.0	Ventana	34.479	00:28:26:00	4.411	V2674-01
 	transect	Microstomus pacificus	200.5	2696	 	36.80521	-122.128105	1813580	1.5	2005-08-01 18:01:34.0	Ventana	34.211	01:29:26:21	8.67	V2696-02
 	transect	Nanomia bijuga	200.44	2681	 	36.69828	-122.05329	2490098	1.7	2005-07-07 17:04:40.0	Ventana	34.197	00:35:47:18	8.36	V2681-01HD
 	transect	Euphausia	200.35	2681	 	36.698326	-122.053444	2491353	1.67	2005-07-07 17:13:40.0	Ventana	34.201	00:44:48:19	8.341	V2681-01HD
 	transect	Umbellula lindahli	599.25	2680	 	36.77903	-122.224174	1804469	0.36	2005-06-27 18:05:49.0	Ventana	34.377	00:45:55:00	5.602	V2680-01
 	transect	Phyllospadix	196.76	2696	 	36.80335	-122.1234	1813174	1.54	2005-08-01 17:15:24.0	Ventana	34.201	00:43:42:18	8.626	V2696-01
 	transect	Sebastolobus	999.27	2669	 	36.730507	-122.228645	1650919	0.45	2005-05-25 18:04:37.0	Ventana	34.522	00:27:05:00	3.906	V2669-01
 	ascend	Crustacea	370.95	2693	 	36.696537	-122.06061	1758698	1.2	2005-07-25 20:29:15.0	Ventana	34.233	03:08:48:10	7.173	V2693-03
 	transect	Euphausia	200.38	2681	 	36.69831	-122.0534	2491210	1.68	2005-07-07 17:12:48.0	Ventana	34.2	00:43:54:25	8.337	V2681-01HD
 	cruise	Actiniaria	95.92	2688	 	36.813934	-122.01844	1679490	1.93	2005-07-14 21:15:16.0	Ventana	34.101	04:59:29:12	8.901	V2688-05
 	transect	lobata	700.58	2681	 	36.695053	-122.05074	2498000	0.28	2005-07-07 18:48:27.0	Ventana	34.435	02:18:09:04	4.984	V2681-03HD
 	transect	Ceriantharia sp. 1	799.0	2674	 	36.751427	-122.21481	1801382	0.35	2005-06-08 18:43:24.0	Ventana	34.489	01:27:27:18	4.336	V2674-02
 	ascend	Leuroglossus stilbius	984.74	2681	 	36.69685	-122.053246	1716578	0.45	2005-07-07 19:34:41.167	Ventana	34.525	03:04:21:18	3.954	V2681-03
 	descend	Chaetognatha	404.22	2682	 	36.698265	-122.059845	1720716	0.81	2005-07-08 17:38:15.0	Ventana	34.262	01:31:46:22	6.579	V2682-02
 	ascend	Calycophorae	604.71	2682	 	36.698624	-122.06166	1723525	0.34	2005-07-08 20:57:19.0	Ventana	34.373	04:49:25:11	5.63	V2682-05
 	transect	Mesomyaria	999.44	2669	 	36.73133	-122.23592	1684477	0.44	2005-05-25 18:57:06.0	Ventana	34.52	01:19:05:22	3.936	V2669-02
 	descend	Dosidicus gigas	520.34	2682	 	36.698593	-122.059784	1720859	0.39	2005-07-08 18:01:40.0	Ventana	34.358	01:55:09:01	5.866	V2682-02
 	transect	Psolus squamatus	 	2687	http://search.mbari.org/ARCHIVE/frameGrabs/Ventana/images/2687/03_16_31_19.jpg	 	 	1811071	 	2005-07-13 19:51:30.0	Ventana	 	03:16:31:19	 	V2687-04
 	transect	Ophiuroidea	998.72	2669	 	36.730946	-122.23007	1651219	0.45	2005-05-25 18:14:32.0	Ventana	34.521	00:36:58:27	3.913	V2669-01
 	cruise	Porifera	281.45	2688	 	36.809	-122.02035	1677875	1.43	2005-07-14 18:24:22.0	Ventana	34.21	02:09:38:14	7.991	V2688-03
 	transect	Calliostoma platinum	 	2687	 	 	 	1806978	 	2005-07-13 16:52:15.0	Ventana	 	00:19:09:26	 	V2687-01
 	transect	Mesomyaria	1000.26	2669	 	36.732014	-122.24727	1735866	0.41	2005-05-25 20:13:46.0	Ventana	34.51	02:35:16:25	4.063	V2669-03
 	ascend	Appendicularia	919.88	2682	 	36.69807	-122.05847	1723180	0.37	2005-07-08 20:13:08.0	Ventana	34.501	04:05:17:11	4.23	V2682-05
 	transect	Parastichopus leukothele	196.43	2696	 	36.80266	-122.12168	1813031	1.55	2005-08-01 16:58:02.0	Ventana	34.2	00:26:21:23	8.597	V2696-01
 	transect	Mesomyaria	 	2669	 	 	 	1737638	 	2005-05-25 13:54:06.0	Ventana	 	03:14:54:10	 	V2669-04
 	transect	Umbellula lindahli	598.55	2680	 	36.780792	-122.225784	1804815	0.35	2005-06-27 18:27:32.0	Ventana	34.38	01:06:38:05	5.57	V2680-02
 	transect	Mesomyaria	997.63	2669	 	36.730587	-122.227135	1649101	0.45	2005-05-25 17:55:00.0	Ventana	34.522	00:17:29:10	3.909	V2669-01
 	transect	Psolus squamatus	 	2687	 	 	 	1808893	 	2005-07-13 17:31:27.0	Ventana	 	00:58:19:04	 	V2687-01
 	ascend	Chaetognatha	349.57	2693	 	36.693855	-122.06108	1758901	1.24	2005-07-25 21:04:24.0	Ventana	34.235	03:28:57:11	7.384	V2693-04
 	transect	Stomphia	800.97	2674	 	36.75196	-122.20925	1800879	0.36	2005-06-08 18:15:38.0	Ventana	34.49	01:00:09:14	4.318	V2674-01
 	transect	Neptunea amianta	801.15	2674	 	36.750996	-122.21829	1803560	0.35	2005-06-08 18:59:26.0	Ventana	34.491	01:43:29:04	4.336	V2674-02
 	descend	Nanomia	163.6	2693	 	36.696262	-122.057755	1758210	2.0	2005-07-25 17:57:50.0	Ventana	34.124	00:38:20:21	8.957	V2693-01
 	transect	Asteronyx loveni	600.29	2680	 	36.777287	-122.222466	1804266	0.36	2005-06-27 17:44:36.0	Ventana	34.38	00:24:44:02	5.578	V2680-01
 	transect	Psolus squamatus	 	2687	 	 	 	1807684	 	2005-07-13 17:22:40.0	Ventana	 	00:49:32:15	 	V2687-01
 	cruise	mud	434.69	2688	 	36.80485	-122.01868	1677672	0.91	2005-07-14 17:42:57.0	Ventana	34.272	01:28:40:15	6.916	V2688-02
 	transect	Mesomyaria	1000.16	2669	 	36.731747	-122.24488	1734469	0.4	2005-05-25 19:55:36.0	Ventana	34.508	02:17:07:28	4.076	V2669-03
 	transect	Parastichopus leukothele	204.03	2696	 	36.80615	-122.12972	1813737	1.5	2005-08-01 18:23:20.0	Ventana	34.208	01:51:11:17	8.65	V2696-02
 	cruise	Sebastolobus	525.09	2688	 	36.799282	-122.01918	1677469	0.65	2005-07-14 17:04:53.0	Ventana	34.317	00:51:11:13	6.341	V2688-01
 	descend	Poeobius meseres	1110.79	2682	 	36.698215	-122.05919	1722128	0.57	2005-07-08 19:11:35.0	Ventana	34.551	03:04:13:20	3.62	V2682-04
 	transect	Sergestes similis	300.42	2681	 	36.695766	-122.05138	2492607	1.24	2005-07-07 17:29:31.0	Ventana	34.233	01:00:37:21	7.415	V2681-01HD
 	descend	Lensia	317.67	2682	 	36.698917	-122.06067	1720153	1.14	2005-07-08 17:07:34.0	Ventana	34.24	01:01:07:24	7.276	V2682-02
 	transect	Mediaster	 	2687	 	 	 	1812468	 	2005-07-13 20:40:35.0	Ventana	 	04:05:33:01	 	V2687-04
 	ascend	Cydippida	263.56	2681	 	36.698975	-122.05613	1718741	1.42	2005-07-07 21:17:24.667	Ventana	34.232	04:45:43:16	7.941	V2681-05
 	transect	Appendicularia	400.81	2681	 	36.696148	-122.051605	2492967	0.79	2005-07-07 17:42:37.0	Ventana	34.277	01:13:01:19	6.661	V2681-02HD
 	ascend	Cyclothone	1079.91	2682	 	36.698055	-122.05753	1722677	0.56	2005-07-08 20:00:00.0	Ventana	34.55	03:52:35:04	3.652	V2682-04
 	descend	Appendicularia	921.81	2683	 	36.703663	-122.04861	1757301	0.38	2005-07-11 19:06:31.0	Ventana	34.504	02:46:54:23	4.192	V2683-03
 	transect	Euplexaura	399.84	2687	http://search.mbari.org/ARCHIVE/frameGrabs/Ventana/images/2687/01_02_17_21.jpg	36.788036	-122.12153	1809096	1.13	2005-07-13 17:35:55.0	Ventana	34.244	01:02:17:21	7.27	V2687-02
 	cruise	Sebastolobus	616.65	2688	 	36.79481	-122.019226	1677312	0.43	2005-07-14 16:31:21.0	Ventana	34.4	00:17:41:23	5.381	V2688-01
 	transect	Caecosagitta macrocephala	1000.95	2681	 	36.69647	-122.05283	2498706	0.47	2005-07-07 19:29:51.0	Ventana	34.531	02:59:30:22	3.877	V2681-03HD
 	transect	Phyllospadix	1000.1	2669	 	36.731174	-122.24042	1689261	0.41	2005-05-25 19:30:06.0	Ventana	34.51	01:52:03:29	4.06	V2669-02
 	descend	Praya	107.97	2683	 	36.70057	-122.05168	1756235	2.31	2005-07-11 16:17:55.0	Ventana	34.032	00:05:36:15	9.302	V2683-01
 	transect	Mediaster	 	2687	 	 	 	1810162	 	2005-07-13 19:02:33.0	Ventana	 	02:28:17:29	 	V2687-03
 	transect	Psolus squamatus	 	2687	 	 	 	1811417	 	2005-07-13 20:12:00.0	Ventana	 	03:36:59:19	 	V2687-04
 	ascend	Calycophorae	770.37	2681	 	36.69864	-122.05621	1717487	0.28	2005-07-07 20:09:20.423	Ventana	34.452	03:38:22:12	4.761	V2681-04
 	descend	Cydippida	332.2	2693	 	36.697124	-122.0601	1758556	1.29	2005-07-25 19:56:49.0	Ventana	34.236	02:36:24:01	7.582	V2693-03
 	transect	Mediaster	 	2687	 	 	 	1810711	 	2005-07-13 19:29:08.0	Ventana	 	02:54:51:10	 	V2687-03
 	transect	Chionoecetes tanneri	600.24	2680	 	36.78621	-122.23091	1805866	0.36	2005-06-27 19:35:35.0	Ventana	34.377	02:14:14:03	5.6	V2680-03
 	descend	Polychaeta	199.75	2681	 	36.69828	-122.05329	1713551	1.81	2005-07-07 17:03:46.533	Ventana	34.188	00:34:55:16	8.349	V2681-01
 	transect	Umbellula lindahli	602.43	2680	 	36.79045	-122.232735	1806775	0.36	2005-06-27 20:19:39.0	Ventana	34.377	02:58:15:20	5.589	V2680-03
 	transect	Phyllospadix	 	2687	 	 	 	1810868	 	2005-07-13 19:38:18.0	Ventana	 	03:04:00:22	 	V2687-03
 	transect	Phyllospadix	1000.27	2669	 	36.731464	-122.242065	1694451	0.4	2005-05-25 19:39:40.0	Ventana	34.509	02:01:37:10	4.076	V2669-02
 	ascend	Aegina	636.93	2682	 	36.69887	-122.059715	1723383	0.3	2005-07-08 20:36:33.0	Ventana	34.389	04:28:41:25	5.407	V2682-05
 	ascend	Leuroglossus stilbius	464.08	2683	 	36.7043	-122.05056	1758007	0.74	2005-07-11 21:17:41.0	Ventana	34.293	04:50:32:26	6.602	V2683-05
 	ascend	Nanomia	423.15	2682	 	36.697865	-122.062584	1723728	0.79	2005-07-08 21:20:44.0	Ventana	34.268	05:12:25:22	6.612	V2682-06
 	transect	Euphausia	200.41	2681	 	36.698288	-122.05332	2491007	1.71	2005-07-07 17:10:43.0	Ventana	34.192	00:41:51:27	8.325	V2681-01HD
 	ascend	Nanomia	258.17	2681	 	36.697838	-122.05522	1719447	 	2005-07-07 21:29:59.0	Ventana	 	05:05:17:26	 	V2681-05
 	transect	Mesomyaria	999.46	2669	 	36.731083	-122.2351	1684274	0.45	2005-05-25 18:51:20.0	Ventana	34.521	01:13:20:10	3.921	V2669-02
 	ascend	Appendicularia	734.12	2683	 	36.706127	-122.0486	1757850	0.31	2005-07-11 21:04:13.0	Ventana	34.455	04:37:04:21	4.722	V2683-05
 	transect	Parastichopus leukothele	199.56	2696	 	36.804115	-122.125824	1813377	1.52	2005-08-01 17:41:09.0	Ventana	34.208	01:09:03:02	8.661	V2696-02
 	descend	Appendicularia	983.31	2683	 	36.704098	-122.04891	1757361	0.42	2005-07-11 19:14:46.0	Ventana	34.518	02:55:08:03	4.034	V2683-03
 	transect	Phyllospadix	799.95	2674	 	36.752666	-122.20054	1774126	0.29	2005-06-08 17:31:19.0	Ventana	34.462	00:15:52:26	4.659	V2674-01
 	descend	Chuniphyes	668.3	2681	 	36.69793	-122.05385	1715955	0.28	2005-07-07 18:30:56.633	Ventana	34.411	02:01:16:20	5.157	V2681-02
 	transect	Psolus squamatus	399.87	2687	 	36.788136	-122.121635	1809253	1.13	2005-07-13 17:37:40.0	Ventana	34.243	01:04:02:02	7.26	V2687-02
 	transect	Mesomyaria	1000.32	2669	 	36.731934	-122.24672	1735760	0.41	2005-05-25 20:10:15.0	Ventana	34.509	02:31:44:13	4.07	V2669-03
 	transect	Stomphia	599.91	2680	 	36.778347	-122.22351	1804386	0.36	2005-06-27 17:57:13.0	Ventana	34.377	00:37:19:28	5.595	V2680-01
 	transect	Gastropoda sp.2	998.77	2669	 	36.730976	-122.23015	1695060	0.45	2005-05-25 18:15:34.0	Ventana	34.521	00:38:00:28	3.913	V2669-01
 	ascend	sinker	805.32	2682	 	36.69865	-122.05885	1723263	0.31	2005-07-08 20:24:23.0	Ventana	34.465	04:16:32:20	4.591	V2682-05
 	transect	Funiculina	804.93	2674	 	36.75065	-122.22133	1803726	0.33	2005-06-08 19:13:46.0	Ventana	34.479	01:57:48:02	4.419	V2674-02
 	transect	Rathbunaster californicus	 	2687	 	 	 	1812431	 	2005-07-13 20:38:36.0	Ventana	 	04:03:33:22	 	V2687-04
 	transect	Salpida	600.61	2681	 	36.696285	-122.05189	2493719	0.3	2005-07-07 18:21:19.0	Ventana	34.387	01:51:41:16	5.489	V2681-02HD
 	ascend	Aegina	575.19	2682	 	36.698334	-122.06242	1723585	0.37	2005-07-08 21:06:40.0	Ventana	34.359	04:58:45:27	5.799	V2682-05
 	transect	Solaster borealis	999.69	2669	 	36.731808	-122.24451	1734363	0.4	2005-05-25 19:53:08.0	Ventana	34.51	02:14:40:05	4.076	V2669-03
 	transect	Psolus squamatus	 	2687	http://search.mbari.org/ARCHIVE/frameGrabs/Ventana/images/2687/03_14_09_17.jpg	 	 	1811034	 	2005-07-13 19:49:08.0	Ventana	 	03:14:09:17	 	V2687-04
 	cruise	mud	1000.14	2669	http://search.mbari.org/ARCHIVE/frameGrabs/Ventana/images/2669/00_59_11_09.jpg	36.73097	-122.23301	20003784	0.45	2005-05-25 18:36:46.0	Ventana	34.522	00:59:11:09	3.911	V2669-01
 	ascend	Appendicularia	215.42	2683	 	36.70282	-122.05075	1758113	1.7	2005-07-11 21:28:22.0	Ventana	34.206	05:01:12:21	8.328	V2683-05
 	transect	Poeobius meseres	600.65	2681	 	36.695797	-122.05129	2493673	0.3	2005-07-07 18:19:02.0	Ventana	34.386	01:49:22:25	5.495	V2681-02HD
 	transect	Dosidicus gigas	601.05	2680	http://search.mbari.org/ARCHIVE/frameGrabs/Ventana/images/2680/02_05_22_16.jpg	36.785244	-122.23051	1805783	0.36	2005-06-27 19:26:20.0	Ventana	34.377	02:05:22:16	5.599	V2680-02
 	transect	Poeobius meseres	800.83	2681	 	36.696785	-122.05283	2498263	0.31	2005-07-07 19:01:45.0	Ventana	34.475	02:31:27:14	4.506	V2681-03HD
 	descend	Hastigerinella digitata	446.31	2683	 	36.70157	-122.049385	1756701	0.81	2005-07-11 17:08:40.0	Ventana	34.278	00:56:19:18	6.718	V2683-01
 	transect	cydippida	100.57	2681	 	36.69983	-122.05429	2489558	2.13	2005-07-07 16:44:50.0	Ventana	34.068	00:15:59:04	9.145	V2681-01HD
 	transect	Nanomia bijuga	200.48	2681	 	36.69828	-122.05329	2490541	1.71	2005-07-07 17:07:22.0	Ventana	34.197	00:38:30:12	8.341	V2681-01HD
 	transect	Pennatulacea sp.1	602.07	2680	 	36.791565	-122.232956	1806858	0.36	2005-06-27 20:28:57.0	Ventana	34.379	03:07:33:05	5.587	V2680-03
 	transect	Rathbunaster californicus	203.62	2696	 	36.807487	-122.13115	1813843	1.46	2005-08-01 18:42:18.0	Ventana	34.22	02:09:23:08	8.622	V2696-03
 	transect	lobata	200.47	2681	 	36.69828	-122.05329	2490218	1.7	2005-07-07 17:05:56.0	Ventana	34.198	00:37:04:21	8.363	V2681-01HD
 	transect	Sebastolobus altivelis	801.44	2674	 	36.75191	-122.209854	1800962	0.35	2005-06-08 18:19:33.0	Ventana	34.489	01:03:38:13	4.337	V2674-02
 	transect	Lycenchelys camchatica	800.41	2674	 	36.75123	-122.216194	1803403	0.35	2005-06-08 18:50:08.0	Ventana	34.491	01:34:11:18	4.335	V2674-02
 	transect	Psolus squamatus	 	2687	 	 	 	1808930	 	2005-07-13 17:32:13.0	Ventana	 	00:59:05:01	 	V2687-01
 	descend	Agalma	177.65	2683	 	36.701042	-122.051186	1756332	1.6	2005-07-11 16:41:42.0	Ventana	34.196	00:29:22:15	8.718	V2683-01
 	transect	Mesomyaria	998.95	2669	 	36.73111	-122.23483	1684191	0.45	2005-05-25 18:48:23.0	Ventana	34.522	01:10:23:09	3.918	V2669-02
 	transect	Pseudosagitta maxima	1001.05	2681	 	36.6952	-122.05113	2498586	0.48	2005-07-07 19:23:35.0	Ventana	34.533	02:53:15:10	3.836	V2681-03HD
 	transect	molt	100.48	2681	 	36.698883	-122.05368	2489881	2.13	2005-07-07 16:52:14.0	Ventana	34.045	00:23:22:21	9.142	V2681-01HD
 	descend	Lensia	292.24	2682	 	36.699333	-122.06064	1720116	1.22	2005-07-08 16:53:28.0	Ventana	34.236	00:47:30:08	7.448	V2682-01
 	transect	Halipteris californica	600.15	2680	 	36.78387	-122.22932	1805461	0.35	2005-06-27 19:11:46.0	Ventana	34.378	01:50:49:17	5.592	V2680-02
 	descend	Leuroglossus stilbius	608.13	2683	 	36.701958	-122.04903	1757024	0.35	2005-07-11 17:49:38.0	Ventana	34.372	01:33:44:21	5.747	V2683-02
 	transect	Phyllospadix	799.44	2674	 	36.751675	-122.21292	1801239	0.35	2005-06-08 18:31:21.0	Ventana	34.489	01:15:25:26	4.335	V2674-02
 	transect	Ophiuroidea	998.63	2669	 	36.730915	-122.22987	1651182	0.45	2005-05-25 18:13:22.0	Ventana	34.521	00:35:48:28	3.906	V2669-01
 	descend	Appendicularia	1170.23	2682	 	36.69822	-122.059204	1722188	0.63	2005-07-08 19:14:06.0	Ventana	34.563	03:06:43:29	3.475	V2682-04
 	transect	molt	200.4	2681	 	36.69828	-122.0533	2490910	1.7	2005-07-07 17:09:41.0	Ventana	34.189	00:40:49:14	8.321	V2681-01HD
 	transect	Phyllospadix	200.15	2696	 	36.80457	-122.12682	1813474	1.51	2005-08-01 17:51:11.0	Ventana	34.212	01:19:03:25	8.668	V2696-02
 	transect	Psolus squamatus	 	2687	 	 	 	1807135	 	2005-07-13 17:01:25.0	Ventana	 	00:28:19:07	 	V2687-01
 	transect	Psolus squamatus	399.89	2687	 	36.788097	-122.121735	1809299	1.14	2005-07-13 17:38:51.0	Ventana	34.242	01:05:13:20	7.287	V2687-02
 	transect	Nanomia bijuga	200.42	2681	 	36.69828	-122.05329	2490158	1.7	2005-07-07 17:05:14.0	Ventana	34.197	00:36:22:29	8.358	V2681-01HD
 	transect	Mesomyaria	1000.14	2669	 	36.73186	-122.24534	1735377	0.4	2005-05-25 19:59:26.0	Ventana	34.508	02:20:57:13	4.07	V2669-03
 	transect	Phyllospadix	800.89	2674	 	36.75251	-122.20275	1799242	0.35	2005-06-08 17:42:20.0	Ventana	34.485	00:26:53:05	4.379	V2674-01
 	transect	Psolus squamatus	 	2687	 	 	 	1808870	 	2005-07-13 17:30:48.0	Ventana	 	00:57:40:29	 	V2687-01
 	ascend	Appendicularia	1013.83	2682	 	36.697723	-122.05812	1722880	0.47	2005-07-08 20:04:51.0	Ventana	34.528	03:57:26:20	3.89	V2682-04
 	transect	Chaetognatha	400.75	2681	 	36.6966	-122.05214	2493027	0.79	2005-07-07 17:44:36.0	Ventana	34.277	01:14:59:18	6.648	V2681-02HD
 	descend	Copepoda	149.54	2683	 	36.700665	-122.05167	1756272	1.69	2005-07-11 16:25:39.0	Ventana	34.174	00:13:20:14	8.833	V2683-01
 	transect	Stomphia	1000.29	2669	 	36.731327	-122.241585	1689824	0.4	2005-05-25 19:37:14.0	Ventana	34.508	01:59:11:12	4.089	V2669-02
 	transect	Mesomyaria	1000.15	2669	 	36.731075	-122.23872	1689058	0.43	2005-05-25 19:19:30.0	Ventana	34.514	01:41:28:21	3.969	V2669-02
 	ascend	Calycophorae	421.44	2681	 	36.699203	-122.05426	1717952	0.79	2005-07-07 20:45:10.933	Ventana	34.278	04:13:47:25	6.642	V2681-05
 	transect	Phyllospadix	203.62	2696	 	36.80658	-122.130165	1813783	1.48	2005-08-01 18:29:46.0	Ventana	34.216	01:57:36:14	8.647	V2696-02
 	transect	Euphausia	200.4	2681	 	36.698284	-122.05331	2490970	1.7	2005-07-07 17:10:17.0	Ventana	34.194	00:41:25:17	8.329	V2681-01HD
 	transect	Mediaster	 	2687	 	 	 	1811094	 	2005-07-13 19:52:32.0	Ventana	 	03:17:33:12	 	V2687-04
 	cruise	Rathbunaster californicus	 	2687	 	 	 	1806918	 	2005-07-13 16:39:02.0	Ventana	 	00:05:57:10	 	V2687-01
 	transect	Ceriantharia sp. 2	1000.23	2669	 	36.731033	-122.23962	1689164	0.41	2005-05-25 19:25:00.0	Ventana	34.509	01:46:58:09	4.064	V2669-02
 	ascend	Appendicularia	998.02	2681	 	36.69672	-122.0531	1716555	0.46	2005-07-07 19:32:31.167	Ventana	34.53	03:02:12:07	3.93	V2681-03
 	descend	Copepoda	703.16	2683	 	36.70209	-122.048935	1757084	0.31	2005-07-11 17:54:28.0	Ventana	34.422	01:38:32:18	5.071	V2683-02
 	ascend	Calycophorae	615.03	2681	 	36.69893	-122.05424	1717689	0.31	2005-07-07 20:29:09.333	Ventana	34.385	03:58:10:03	5.508	V2681-04
 	descend	Appendicularia	502.24	2682	 	36.6986	-122.05978	1720836	0.44	2005-07-08 17:59:46.0	Ventana	34.352	01:53:15:22	6.017	V2682-02
 	cruise	Sebastes rubrivinctus	94.31	2688	 	36.81457	-122.01707	1679430	1.95	2005-07-14 20:36:22.0	Ventana	34.094	04:20:38:03	8.942	V2688-05
 	cruise	Chionoecetes tanneri	1205.7	2683	 	36.707066	-122.04763	1757684	0.72	2005-07-11 20:19:13.0	Ventana	34.573	03:53:36:01	3.352	V2683-04
 	transect	Chaetognatha	1001.01	2681	 	36.6958	-122.05191	2498646	0.48	2005-07-07 19:26:52.0	Ventana	34.531	02:56:33:14	3.857	V2681-03HD
 	transect	Phyllospadix	802.49	2674	 	36.75231	-122.20575	1799827	0.36	2005-06-08 17:58:35.0	Ventana	34.489	00:43:07:07	4.333	V2674-01
 	transect	Mediaster	 	2687	 	 	 	1812814	 	2005-07-13 20:59:05.0	Ventana	 	04:23:35:13	 	V2687-05
 	transect	Psolus squamatus	 	2687	 	 	 	1810282	 	2005-07-13 19:14:05.0	Ventana	 	02:39:49:10	 	V2687-03
 	ascend	Appendicularia	857.76	2681	 	36.698524	-122.055664	1717367	0.34	2005-07-07 19:54:15.643	Ventana	34.499	03:23:18:02	4.332	V2681-04
 	stationary	Appendicularia	502.32	2694	 	36.784584	-122.20046	1676620	0.83	2005-07-27 19:54:06.0	Ventana	34.272	02:26:16:16	6.641	V2694-03
 	ascend	Copepoda	676.47	2681	 	36.698757	-122.05446	1717630	0.27	2005-07-07 20:23:01.733	Ventana	34.413	03:52:02:26	5.169	V2681-04
 	descend	Appendicularia	1052.63	2683	 	36.704987	-122.04909	1757421	0.48	2005-07-11 19:25:19.0	Ventana	34.53	03:05:40:08	3.862	V2683-03
 	transect	Rathbunaster californicus	199.65	2696	 	36.804287	-122.126144	1813414	1.52	2005-08-01 17:44:30.0	Ventana	34.209	01:12:23:29	8.664	V2696-02
 	transect	Ophiuroidea	999.04	2669	 	36.731426	-122.23621	1684680	0.44	2005-05-25 18:59:08.0	Ventana	34.52	01:21:07:16	3.941	V2669-02
 	transect	Stomphia	998.04	2669	 	36.733105	-122.25297	1737541	0.4	2005-05-25 20:50:45.0	Ventana	34.509	03:11:33:12	4.075	V2669-04
 	transect	Ophiuroidea	999.07	2669	 	36.731388	-122.23609	1684574	0.44	2005-05-25 18:58:13.0	Ventana	34.522	01:20:13:11	3.94	V2669-02
 	transect	Mesomyaria	999.81	2669	 	36.731773	-122.24441	1734303	0.4	2005-05-25 19:52:22.0	Ventana	34.507	02:13:52:19	4.082	V2669-03
 	transect	chuniphyes	700.62	2681	 	36.69599	-122.05186	2497834	0.29	2005-07-07 18:43:58.0	Ventana	34.436	02:13:39:08	4.934	V2681-03HD
 	cruise	Remote Instrument Node	124.3	2672	http://search.mbari.org/ARCHIVE/frameGrabs/Ventana/images/2672/00_25_54_06.jpg	36.803093	-121.80561	20003844	2.63	2005-06-03 15:06:33.0	Ventana	33.956	00:25:54:06	9.304	V2672-01
 	transect	Ophiuroidea	999.03	2669	 	36.731087	-122.23112	1683531	0.45	2005-05-25 18:23:20.0	Ventana	34.521	00:45:46:21	3.917	V2669-01
 	transect	Stomphia	998.22	2669	 	36.73298	-122.252365	1737435	0.4	2005-05-25 20:47:30.0	Ventana	34.508	03:08:18:29	4.076	V2669-04
 	descend	sinker	1187.06	2682	 	36.69856	-122.05834	1722248	0.68	2005-07-08 19:34:34.0	Ventana	34.571	03:27:10:10	3.381	V2682-04
 	cruise	Rathbunaster californicus	448.29	2688	 	36.803535	-122.01808	1677635	0.9	2005-07-14 17:37:26.0	Ventana	34.269	01:23:09:21	6.893	V2688-02
 	transect	Sergestes similis	300.44	2681	 	36.698418	-122.05357	2491938	1.25	2005-07-07 17:19:56.0	Ventana	34.234	00:51:03:19	7.43	V2681-01HD
 	transect	molt	100.5	2681	 	36.69928	-122.05394	2489821	2.14	2005-07-07 16:51:18.0	Ventana	34.067	00:22:26:09	9.15	V2681-01HD
 	ascend	Hastigerinella digitata	332.71	2693	 	36.6922	-122.06184	1759021	1.29	2005-07-25 21:15:45.0	Ventana	34.237	03:40:17:25	7.551	V2693-04
 	transect	Mesomyaria	800.75	2674	 	36.751114	-122.2169	1803463	0.35	2005-06-08 18:53:08.0	Ventana	34.495	01:37:11:12	4.351	V2674-02
 	transect	Euplexaura	 	2687	 	 	 	1810222	 	2005-07-13 19:10:03.0	Ventana	 	02:35:48:01	 	V2687-03
 	transect	Mesomyaria	1000.29	2669	 	36.731255	-122.241295	1689750	0.4	2005-05-25 19:35:35.0	Ventana	34.508	01:57:33:03	4.086	V2669-02
 	cruise	LRJ Complex	609.8	2688	 	36.795933	-122.02012	1677372	0.45	2005-07-14 16:38:11.0	Ventana	34.387	00:24:30:19	5.499	V2688-01
 	transect	Phyllospadix	999.53	2669	 	36.730938	-122.231606	1683651	0.45	2005-05-25 18:27:52.0	Ventana	34.522	00:50:18:05	3.912	V2669-01
 	transect	Psolus squamatus	 	2687	http://search.mbari.org/ARCHIVE/frameGrabs/Ventana/images/2687/00_59_58_03.jpg	 	 	1808990	 	2005-07-13 17:33:06.0	Ventana	 	00:59:58:03	 	V2687-01
 	transect	Mesomyaria	998.98	2669	 	36.732853	-122.25155	1737232	0.4	2005-05-25 20:42:37.0	Ventana	34.509	03:03:25:20	4.073	V2669-04
 	stationary	Merluccius productus	 	2694	 	 	 	1676178	 	2005-07-27 17:16:02.0	Ventana	 	00:09:09:26	 	V2694-01
 	transect	Mesomyaria	997.46	2669	 	36.73115	-122.23089	1683471	0.45	2005-05-25 18:21:44.0	Ventana	34.519	00:44:11:04	3.927	V2669-01
 	transect	Chionoecetes tanneri	999.98	2669	 	36.73116	-122.24016	1689224	0.41	2005-05-25 19:28:29.0	Ventana	34.51	01:50:27:09	4.058	V2669-02
 	ascend	Appendicularia	508.76	2681	 	36.698956	-122.054245	1717749	0.48	2005-07-07 20:34:11.467	Ventana	34.333	04:03:11:12	6.123	V2681-04
 	transect	Psolus squamatus	 	2687	 	 	 	1812371	 	2005-07-13 20:34:49.0	Ventana	 	03:59:47:02	 	V2687-04
 	transect	Calliostoma platinum	399.7	2687	 	36.789207	-122.124344	1809562	1.17	2005-07-13 18:17:39.0	Ventana	34.237	01:43:58:12	7.348	V2687-02
 	cruise	Sebastes	191.41	2676	http://search.mbari.org/ARCHIVE/frameGrabs/Ventana/images/2676/01_26_21_17.jpg	36.807457	-122.029625	1676823	1.6	2005-06-14 17:46:39.0	Ventana	34.198	01:26:21:17	8.093	V2676-02
 	descend	Chaetognatha	282.2	2682	 	36.69968	-122.06084	1720056	1.31	2005-07-08 16:36:06.0	Ventana	34.229	00:30:09:19	7.618	V2682-01
 	transect	Mesomyaria	802.73	2674	 	36.750843	-122.22005	1803666	0.34	2005-06-08 19:06:58.0	Ventana	34.482	01:51:00:12	4.385	V2674-02
 	ascend	Appendicularia	526.81	2682	 	36.69831	-122.06295	1723645	0.44	2005-07-08 21:11:15.0	Ventana	34.345	05:02:56:20	6.033	V2682-06
 	transect	Phyllospadix	1000.35	2669	 	36.73159	-122.24313	1733777	0.41	2005-05-25 19:45:11.0	Ventana	34.511	02:06:43:07	4.062	V2669-03
 	transect	Allocentrotus fragilis	 	2687	 	 	 	1810402	 	2005-07-13 19:17:02.0	Ventana	 	02:42:46:17	 	V2687-03
 	stationary	mud	1284.22	2673	 	36.802937	-121.804695	1668298	0.81	2005-06-07 17:17:06.0	Ventana	34.579	00:00:58:17	3.219	V2673-01
 	cruise	mud	478.7	2688	 	36.802013	-122.01829	1677575	0.8	2005-07-14 17:27:39.0	Ventana	34.285	01:13:23:00	6.678	V2688-02
 	transect	Ophiuroidea	999.24	2669	 	36.731377	-122.23601	1684514	0.44	2005-05-25 18:57:43.0	Ventana	34.52	01:19:43:02	3.938	V2669-02
 	transect	Phyllospadix	801.49	2674	 	36.75222	-122.20769	1800090	0.4	2005-06-08 18:08:11.0	Ventana	34.49	00:52:42:24	4.334	V2674-01
 	transect	Mediaster	 	2687	 	 	 	1812551	 	2005-07-13 20:45:17.0	Ventana	 	04:09:48:11	 	V2687-05
 	ascend	ink	351.56	2681	 	36.699337	-122.055084	1718072	1.06	2005-07-07 20:52:28.983	Ventana	34.252	04:20:49:27	7.17	V2681-05
 	ascend	Appendicularia	716.44	2682	 	36.698826	-122.05932	1723323	0.28	2005-07-08 20:31:03.0	Ventana	34.433	04:23:12:11	4.97	V2682-05
 	ascend	Crustacea	629.22	2683	 	36.704956	-122.05029	1757947	0.3	2005-07-11 21:10:33.0	Ventana	34.396	04:43:24:10	5.414	V2683-05
 	transect	Appendicularia	500.6	2681	 	36.696182	-122.05171	2493613	0.43	2005-07-07 18:02:31.0	Ventana	34.348	01:32:55:06	6.012	V2681-02HD
 	descend	Nanomia	314.07	2693	 	36.69756	-122.06076	1758496	1.31	2005-07-25 19:40:43.0	Ventana	34.234	02:20:18:14	7.605	V2693-03
 	transect	Solmissus	300.41	2681	 	36.69609	-122.05173	2492570	1.24	2005-07-07 17:28:07.0	Ventana	34.233	00:59:13:12	7.427	V2681-01HD
 	transect	Mesomyaria	999.78	2669	 	36.732643	-122.25103	1737052	0.4	2005-05-25 20:39:02.0	Ventana	34.51	03:00:30:18	4.07	V2669-03
 	transect	Phyllospadix	599.62	2680	 	36.77792	-122.22308	1804326	0.36	2005-06-27 17:52:19.0	Ventana	34.379	00:32:26:08	5.585	V2680-01
 	transect	Allocentrotus fragilis	399.88	2687	 	36.788086	-122.1216	1809193	1.13	2005-07-13 17:36:59.0	Ventana	34.241	01:03:21:20	7.262	V2687-02
 	ascend	Mysidae	796.25	2681	 	36.69911	-122.05657	1717427	0.33	2005-07-07 20:01:33.433	Ventana	34.465	03:30:35:12	4.608	V2681-04
 	transect	Psolus squamatus	 	2687	 	 	 	1810771	 	2005-07-13 19:33:22.0	Ventana	 	02:59:05:26	 	V2687-03
 	cruise	Sebastolobus	439.44	2676	 	36.80323	-122.02924	1676358	0.63	2005-06-14 16:39:44.0	Ventana	34.327	00:23:52:16	6.38	V2676-01
 	transect	Psolus squamatus	 	2687	 	 	 	1808607	 	2005-07-13 17:25:16.0	Ventana	 	00:52:08:18	 	V2687-01
 	transect	Psolus squamatus	 	2687	 	 	 	1809885	 	2005-07-13 18:47:26.0	Ventana	 	02:13:12:20	 	V2687-03
 	cruise	Asteroidea	1015.99	2689	http://search.mbari.org/ARCHIVE/frameGrabs/Ventana/images/2689/00_25_20_19.jpg	36.771557	-122.08298	1669710	0.53	2005-07-18 17:02:19.0	Ventana	34.54	00:25:20:19	3.752	V2689-01
 	descend	Euphausiacea	158.11	2682	 	36.69987	-122.06075	1719913	2.19	2005-07-08 16:19:01.0	Ventana	34.097	00:13:05:15	8.434	V2682-01
 	transect	Ceriantharia sp. 1	599.42	2680	 	36.779396	-122.224464	1804506	0.36	2005-06-27 18:09:21.0	Ventana	34.376	00:49:27:14	5.602	V2680-01
 	ascend	Chuniphyes	926.57	2682	 	36.69799	-122.058495	1723143	0.38	2005-07-08 20:12:28.0	Ventana	34.504	04:04:38:11	4.192	V2682-05
 	transect	Mesomyaria	997.54	2669	 	36.730614	-122.22813	1649341	0.45	2005-05-25 18:01:20.0	Ventana	34.521	00:23:48:11	3.907	V2669-01
 	ascend	Appendicularia	1169.62	2683	 	36.70769	-122.04892	1757744	0.71	2005-07-11 20:31:21.0	Ventana	34.57	04:05:42:25	3.398	V2683-04
 	transect	Phyllospadix	800.07	2674	 	36.751755	-122.21197	1801165	0.35	2005-06-08 18:27:58.0	Ventana	34.488	01:12:02:14	4.341	V2674-02
 	transect	Phyllospadix	802.39	2674	 	36.75229	-122.20608	1799887	0.36	2005-06-08 18:00:12.0	Ventana	34.49	00:44:44:21	4.342	V2674-01
 	transect	Ceriantharia sp. 2	 	2669	 	 	 	1737601	 	2005-05-25 13:52:59.0	Ventana	 	03:13:47:09	 	V2669-04
 	transect	Ceriantharia sp. 1	598.36	2680	 	36.781982	-122.22698	1805078	0.35	2005-06-27 18:43:00.0	Ventana	34.378	01:22:05:11	5.586	V2680-02
 	transect	Phyllospadix	798.4	2674	 	36.75164	-122.21368	1801299	0.35	2005-06-08 18:36:20.0	Ventana	34.486	01:20:24:09	4.344	V2674-02
 	descend	Calycophorae	387.55	2681	 	36.695557	-122.05119	1715083	0.86	2005-07-07 17:32:54.167	Ventana	34.259	01:03:18:09	6.794	V2681-02
 	transect	Mesomyaria	998.36	2669	http://search.mbari.org/ARCHIVE/frameGrabs/Ventana/images/2669/03_06_58_25.jpg	36.732944	-122.25215	1737375	0.4	2005-05-25 20:46:09.0	Ventana	34.51	03:06:58:25	4.074	V2669-04
 	transect	Mediaster	 	2687	 	 	 	1812754	 	2005-07-13 20:56:07.0	Ventana	 	04:20:37:07	 	V2687-05
 	cruise	Asteroidea	202.75	2688	 	36.810375	-122.021126	1677958	1.73	2005-07-14 18:34:39.0	Ventana	34.159	02:19:55:00	8.68	V2688-03
 	descend	Appendicularia	207.73	2693	 	36.69605	-122.058334	1758316	1.78	2005-07-25 18:26:10.0	Ventana	34.17	01:06:14:10	8.659	V2693-02
 	transect	Praya	50.4	2681	 	36.69983	-122.05429	2485719	3.03	2005-07-07 16:38:48.0	Ventana	33.906	00:09:58:06	9.644	V2681-01HD
 	transect	molt	100.57	2681	 	36.69983	-122.05429	2489498	2.13	2005-07-07 16:43:05.0	Ventana	34.068	00:14:15:02	9.152	V2681-01HD
 	transect	Ophiuroidea	1000.45	2669	 	36.731243	-122.241	1689367	0.41	2005-05-25 19:34:04.0	Ventana	34.511	01:56:01:14	4.054	V2669-02
 	transect	Dosidicus gigas	400.81	2681	 	36.695778	-122.05117	2492893	0.79	2005-07-07 17:40:49.0	Ventana	34.277	01:11:13:16	6.67	V2681-02HD
 	transect	Funiculina	999.87	2669	 	36.73097	-122.233086	1683854	0.45	2005-05-25 18:37:07.0	Ventana	34.522	00:59:32:28	3.912	V2669-01
 	descend	Calycophorae	592.38	2681	 	36.695686	-122.05108	1715632	0.32	2005-07-07 18:07:32.593	Ventana	34.379	01:37:54:02	5.551	V2681-02
 	transect	Physonectae	600.61	2681	 	36.69677	-122.052475	2493779	0.3	2005-07-07 18:23:37.0	Ventana	34.388	01:53:58:16	5.477	V2681-02HD
 	descend	Solmissus	303.78	2683	 	36.70109	-122.05015	1756498	1.26	2005-07-11 16:53:55.0	Ventana	34.243	00:41:35:19	7.663	V2683-01
 	transect	Appendicularia	400.73	2681	 	36.69792	-122.053635	2493230	0.79	2005-07-07 17:50:07.0	Ventana	34.279	01:20:31:06	6.66	V2681-02HD
 	cruise	sediment	1230.93	2683	 	36.705822	-122.047775	1757564	0.72	2005-07-11 19:56:34.0	Ventana	34.571	03:30:58:04	3.339	V2683-04
 	transect	Mediaster	 	2687	 	 	 	1812228	 	2005-07-13 20:29:35.0	Ventana	 	03:54:33:11	 	V2687-04
 	transect	Phyllospadix	800.87	2674	 	36.75257	-122.20129	1774186	0.35	2005-06-08 17:35:00.0	Ventana	34.488	00:19:33:17	4.378	V2674-01
 	transect	Phyllospadix	800.4	2674	 	36.75257	-122.20232	1799182	0.34	2005-06-08 17:40:11.0	Ventana	34.481	00:24:45:01	4.424	V2674-01
 	transect	Psolus squamatus	 	2687	 	 	 	1808810	 	2005-07-13 17:29:54.0	Ventana	 	00:56:46:27	 	V2687-01
 	transect	Sebastes diploproa	399.87	2687	 	36.78815	-122.12181	1809359	1.13	2005-07-13 17:40:00.0	Ventana	34.252	01:06:22:08	7.29	V2687-02
 	transect	Psolus squamatus	 	2687	 	 	 	1811154	 	2005-07-13 19:57:19.0	Ventana	 	03:22:19:14	 	V2687-04
 	cruise	Stylasterias	91.22	2688	 	36.816303	-122.016235	1679370	2.03	2005-07-14 20:15:53.0	Ventana	34.092	04:00:38:21	8.917	V2688-04
 	transect	molt	100.47	2681	 	36.699825	-122.05429	2489678	2.13	2005-07-07 16:47:43.0	Ventana	34.068	00:18:51:17	9.149	V2681-01HD
 	descend	Copepoda	446.17	2682	 	36.69845	-122.059525	1720776	0.57	2005-07-08 17:52:48.0	Ventana	34.317	01:46:17:01	6.32	V2682-02
 	transect	Ceriantharia sp. 1	599.45	2680	 	36.782913	-122.22822	1805258	0.35	2005-06-27 19:01:22.0	Ventana	34.38	01:40:25:27	5.579	V2680-02
 	descend	sinker	883.15	2681	 	36.69694	-122.05316	1716495	0.36	2005-07-07 19:05:32.7	Ventana	34.498	02:35:15:13	4.221	V2681-03
 	transect	Mediaster	 	2687	 	 	 	1810974	 	2005-07-13 19:45:34.0	Ventana	 	03:10:35:27	 	V2687-04
 	transect	Hormiphora	200.39	2681	 	36.69832	-122.05343	2491293	1.66	2005-07-07 17:13:26.0	Ventana	34.2	00:44:34:11	8.34	V2681-01HD
 	transect	Mediaster	 	2687	 	 	 	1811882	 	2005-07-13 20:28:40.0	Ventana	 	03:53:38:24	 	V2687-04
 	transect	Sebastolobus altivelis	800.67	2674	 	36.7521	-122.2085	1800759	0.35	2005-06-08 18:11:51.0	Ventana	34.49	00:56:23:05	4.324	V2674-01
 	transect	Psolus squamatus	 	2687	 	 	 	1808727	 	2005-07-13 17:27:55.0	Ventana	 	00:54:48:01	 	V2687-01
 	descend	Appendicularia	348.57	2682	 	36.698627	-122.0604	1720319	1.02	2005-07-08 17:21:18.0	Ventana	34.255	01:14:50:29	7.104	V2682-02
 	transect	cydippida	400.79	2681	 	36.6974	-122.05306	2493147	0.79	2005-07-07 17:47:57.0	Ventana	34.278	01:18:21:21	6.662	V2681-02HD
 	transect	Phyllospadix	 	2687	 	 	 	1810485	 	2005-07-13 19:20:08.0	Ventana	 	02:45:51:28	 	V2687-03
 	ascend	Appendicularia	686.8	2683	 	36.70567	-122.04925	1757887	0.3	2005-07-11 21:06:43.0	Ventana	34.435	04:39:35:15	4.965	V2683-05
 	transect	Mesomyaria	1000.36	2669	 	36.731495	-122.242294	1694488	0.41	2005-05-25 19:41:00.0	Ventana	34.509	02:02:56:26	4.063	V2669-02
 	transect	Calycophorae	700.63	2681	 	36.696762	-122.05265	2497714	0.29	2005-07-07 18:40:43.0	Ventana	34.436	02:10:26:00	4.931	V2681-03HD
 	ascend	Leptomedusae	258.17	2681	 	36.697838	-122.05522	1719567	 	2005-07-07 21:29:59.0	Ventana	 	05:14:37:07	 	V2681-05
 	descend	Appendicularia	835.94	2682	 	36.698296	-122.05948	1721731	0.33	2005-07-08 18:46:50.0	Ventana	34.479	02:39:52:29	4.442	V2682-03
 	transect	Allocentrotus fragilis	 	2687	 	 	 	1811237	 	2005-07-13 20:05:26.0	Ventana	 	03:30:25:20	 	V2687-04
 	transect	Lycenchelys camchatica	799.9	2674	 	36.752537	-122.20376	1799385	0.35	2005-06-08 17:47:42.0	Ventana	34.487	00:32:15:15	4.359	V2674-01
 	ascend	Hastigerinella digitata	262.02	2681	 	36.69888	-122.05686	1718907	1.42	2005-07-07 21:19:16.95	Ventana	34.232	04:47:36:06	7.95	V2681-05
 	transect	Mesomyaria	598.95	2680	 	36.779995	-122.22503	1804589	0.35	2005-06-27 18:17:28.0	Ventana	34.382	00:57:34:05	5.548	V2680-01
 	transect	Phyllospadix	198.91	2696	 	36.803757	-122.12487	1813294	1.53	2005-08-01 17:31:44.0	Ventana	34.202	01:00:00:28	8.627	V2696-01
 	descend	Nanomia	231.42	2682	 	36.699886	-122.060715	1719973	1.44	2005-07-08 16:21:58.0	Ventana	34.224	00:16:02:09	8.007	V2682-01
 	stationary	sinker	504.21	2695	 	36.78466	-122.20049	1824486	0.67	2005-07-28 19:01:51.0	Ventana	34.296	04:08:07:00	6.298	V2695-02
 	transect	Amphipoda	500.58	2681	 	36.697197	-122.052864	2493493	0.44	2005-07-07 17:58:20.0	Ventana	34.346	01:28:43:04	6.026	V2681-02HD
 	cruise	Sergestes similis	543.58	2688	 	36.797977	-122.019775	1677432	0.61	2005-07-14 17:00:11.0	Ventana	34.334	00:46:29:27	6.225	V2688-01
 	transect	Appendicularia	300.42	2681	 	36.697754	-122.05318	2492141	1.23	2005-07-07 17:22:21.0	Ventana	34.233	00:53:28:03	7.399	V2681-01HD
 	cruise	Lycodapus	1230.87	2683	 	36.705795	-122.047935	1757541	0.72	2005-07-11 19:51:15.0	Ventana	34.575	03:25:39:04	3.346	V2683-04
 	cruise	Stylasterias	250.0	2676	http://search.mbari.org/ARCHIVE/frameGrabs/Ventana/images/2676/01_17_03_09.jpg	36.805683	-122.02948	1676740	1.55	2005-06-14 17:37:20.0	Ventana	34.202	01:17:03:09	8.024	V2676-02
 	transect	Nanomia bijuga	200.41	2681	 	36.698296	-122.05335	2491090	1.69	2005-07-07 17:11:46.0	Ventana	34.198	00:42:53:04	8.335	V2681-01HD
 	descend	sinker	523.94	2683	 	36.701466	-122.04913	1756904	0.58	2005-07-11 17:41:54.0	Ventana	34.319	01:25:59:24	6.282	V2683-02
 	transect	molt	100.5	2681	 	36.69977	-122.05426	2489761	2.12	2005-07-07 16:49:55.0	Ventana	34.067	00:21:04:25	9.159	V2681-01HD
 	transect	Teuthoidea	900.99	2681	 	36.69525	-122.05092	2498466	0.39	2005-07-07 19:15:05.0	Ventana	34.504	02:44:46:10	4.166	V2681-03HD
 	cruise	Glyptocephalus zachirus	323.12	2688	 	36.80837	-122.02023	1677838	1.28	2005-07-14 18:10:58.137	Ventana	34.222	01:56:39:18	7.659	V2688-02
 	ascend	Appendicularia	591.19	2682	 	36.698788	-122.06076	1723466	0.4	2005-07-08 20:47:42.0	Ventana	34.37	04:39:50:05	5.67	V2682-05
 	transect	Mesomyaria	799.02	2674	 	36.75134	-122.21534	1801419	0.35	2005-06-08 18:45:19.0	Ventana	34.488	01:29:22:29	4.349	V2674-02
 	transect	Rathbunaster californicus	201.39	2696	 	36.805256	-122.12819	1813617	1.5	2005-08-01 18:06:34.0	Ventana	34.211	01:34:26:05	8.67	V2696-02
 	descend	Rathbunaster californicus	448.06	2676	http://search.mbari.org/ARCHIVE/frameGrabs/Ventana/images/2676/00_22_09_25.jpg	36.803047	-122.02924	20003904	0.61	2005-06-14 16:38:01.0	Ventana	34.322	00:22:09:25	6.326	V2676-01
 	ascend	Copepoda	723.56	2681	 	36.698696	-122.055244	1717570	0.28	2005-07-07 20:18:21.2	Ventana	34.44	03:47:22:04	4.913	V2681-04
 	descend	Lensia	281.36	2683	 	36.701008	-122.050224	1756475	1.34	2005-07-11 16:52:31.0	Ventana	34.238	00:40:11:04	7.799	V2683-01
 	ascend	ink	370.95	2693	 	36.69617	-122.060905	1758639	1.2	2005-07-25 20:23:58.0	Ventana	34.232	03:03:30:16	7.155	V2693-03
 	transect	Phyllospadix	799.54	2674	 	36.752464	-122.20508	1799708	0.35	2005-06-08 17:55:04.0	Ventana	34.487	00:39:36:20	4.361	V2674-01
 	transect	Mesomyaria	999.94	2669	 	36.731747	-122.244194	1734243	0.4	2005-05-25 19:51:20.0	Ventana	34.511	02:12:50:20	4.09	V2669-03
 	transect	Mesomyaria	999.62	2669	 	36.730995	-122.23234	1683734	0.45	2005-05-25 18:31:56.0	Ventana	34.521	00:54:22:20	3.914	V2669-01
 	descend	Myctophidae	664.38	2682	 	36.69865	-122.059944	1721385	0.28	2005-07-08 18:11:19.0	Ventana	34.411	02:04:25:03	5.201	V2682-03
 	transect	Psolus squamatus	 	2687	 	 	 	1810079	 	2005-07-13 18:54:51.0	Ventana	 	02:20:36:03	 	V2687-03
 	transect	Mesomyaria	801.48	2674	 	36.75097	-122.218506	1803583	0.35	2005-06-08 19:00:23.0	Ventana	34.487	01:44:25:21	4.359	V2674-02
 	stationary	Appendicularia	501.76	2695	 	36.784607	-122.200455	1824426	0.88	2005-07-28 17:16:37.0	Ventana	34.265	00:22:58:25	6.688	V2695-01
 	ascend	Lobata	261.05	2681	 	36.698856	-122.05699	1718967	1.42	2005-07-07 21:20:18.333	Ventana	34.231	04:48:37:01	7.953	V2681-05
 	transect	Mesomyaria	999.84	2669	 	36.731937	-122.24624	1735640	0.41	2005-05-25 20:06:00.0	Ventana	34.51	02:27:30:00	4.063	V2669-03
 	transect	Mesomyaria	1000.25	2669	 	36.73093	-122.232666	1683794	0.45	2005-05-25 18:34:49.0	Ventana	34.522	00:57:14:25	3.91	V2669-01
 	descend	Appendicularia	346.57	2683	 	36.70128	-122.04996	1756558	1.25	2005-07-11 16:56:20.0	Ventana	34.226	00:44:00:04	7.236	V2683-01
 	transect	sinker	700.65	2681	 	36.697662	-122.05352	2497631	0.29	2005-07-07 18:36:57.0	Ventana	34.432	02:06:40:17	4.981	V2681-03HD
 	transect	Psolus squamatus	399.88	2687	 	36.788048	-122.12153	1809133	1.13	2005-07-13 17:36:01.0	Ventana	34.244	01:02:23:08	7.27	V2687-02
 	transect	Ceriantharia sp. 2	997.62	2669	 	36.73061	-122.22716	1683328	0.45	2005-05-25 17:55:07.0	Ventana	34.522	00:17:35:17	3.909	V2669-01
 	descend	Hormiphora	172.52	2693	 	36.69614	-122.05803	1758233	1.96	2005-07-25 18:02:59.0	Ventana	34.14	00:43:29:21	8.906	V2693-01
 	transect	Mesomyaria	1000.05	2669	 	36.73113	-122.23858	1688878	0.43	2005-05-25 19:18:44.0	Ventana	34.516	01:40:43:09	3.961	V2669-02
 	transect	Ophiuroidea	998.61	2669	 	36.731064	-122.23046	1651302	0.45	2005-05-25 18:18:01.0	Ventana	34.522	00:40:27:29	3.91	V2669-01
 	transect	Caridea sp.1	600.85	2680	 	36.784634	-122.23	1805640	0.35	2005-06-27 19:20:02.0	Ventana	34.379	01:59:05:17	5.591	V2680-02
 	transect	Poeobius meseres	600.54	2681	 	36.697533	-122.05336	2493839	0.3	2005-07-07 18:26:52.0	Ventana	34.388	01:57:13:25	5.471	V2681-02HD
 	ascend	Appendicularia	554.23	2683	 	36.704536	-122.050644	1757970	0.38	2005-07-11 21:14:04.0	Ventana	34.359	04:46:55:04	5.907	V2683-05
 	transect	Sebastolobus altivelis	798.77	2674	 	36.751495	-122.21447	1801359	0.35	2005-06-08 18:41:53.0	Ventana	34.49	01:25:56:23	4.333	V2674-02
 	descend	Melanostigma pammelas	547.89	2682	 	36.698627	-122.05976	1720896	0.37	2005-07-08 18:05:05.0	Ventana	34.366	01:58:33:24	5.725	V2682-02
 	ascend	Appendicularia	941.27	2682	 	36.69776	-122.05851	1723060	0.42	2005-07-08 20:10:59.0	Ventana	34.516	04:03:08:06	4.057	V2682-05
 	transect	Rathbunaster californicus	204.1	2696	 	36.80534	-122.12834	1813700	1.49	2005-08-01 18:16:41.0	Ventana	34.211	01:44:32:25	8.633	V2696-02
 	transect	Phyllospadix	800.44	2674	 	36.75175	-122.21139	1801105	0.35	2005-06-08 18:25:35.0	Ventana	34.488	01:09:40:03	4.35	V2674-02
 	transect	Euphausia	200.46	2681	 	36.69828	-122.05329	2490684	1.72	2005-07-07 17:08:15.0	Ventana	34.194	00:39:22:23	8.323	V2681-01HD
 	transect	Euphausia	200.39	2681	 	36.698303	-122.05338	2491173	1.68	2005-07-07 17:12:30.0	Ventana	34.2	00:43:37:02	8.339	V2681-01HD
 	transect	Nanomia bijuga	200.44	2681	 	36.69828	-122.05329	2490338	1.7	2005-07-07 17:07:02.0	Ventana	34.198	00:38:11:12	8.347	V2681-01HD
 	ascend	Appendicularia	345.27	2693	 	36.693344	-122.06137	1758938	1.25	2005-07-25 21:10:16.0	Ventana	34.239	03:34:47:14	7.408	V2693-04
 	transect	Euplexaura	 	2687	 	 	 	1811799	 	2005-07-13 20:25:28.0	Ventana	 	03:50:27:08	 	V2687-04
 	transect	Nanomia bijuga	400.73	2681	 	36.69704	-122.05266	2493087	0.79	2005-07-07 17:46:28.0	Ventana	34.278	01:16:52:21	6.659	V2681-02HD
 	transect	Mesomyaria	997.37	2669	 	36.730633	-122.22729	1649138	0.45	2005-05-25 17:56:22.0	Ventana	34.52	00:18:50:09	3.91	V2669-01
 	ascend	Nanomia	189.64	2693	 	36.69061	-122.06289	1759224	1.89	2005-07-25 21:29:09.0	Ventana	34.16	03:53:40:17	8.869	V2693-04
 	transect	Phyllospadix	800.22	2674	 	36.752045	-122.20898	1800842	0.35	2005-06-08 18:14:24.0	Ventana	34.49	00:58:55:11	4.341	V2674-01
 	transect	Phyllospadix	800.71	2674	 	36.75108	-122.21768	1803523	0.35	2005-06-08 18:56:46.0	Ventana	34.49	01:40:49:02	4.343	V2674-02
 	cruise	Rathbunaster californicus	103.0	2688	 	36.814068	-122.01849	1679513	1.91	2005-07-14 21:23:28.0	Ventana	34.108	05:07:41:01	8.878	V2688-05
 	transect	Allocentrotus fragilis	 	2687	 	 	 	1811297	 	2005-07-13 20:05:34.0	Ventana	 	03:30:33:21	 	V2687-04
 	transect	Psolus squamatus	 	2687	 	 	 	1808667	 	2005-07-13 17:26:39.0	Ventana	 	00:53:32:07	 	V2687-01
 	transect	Allocentrotus fragilis	 	2687	 	 	 	1810831	 	2005-07-13 19:35:33.0	Ventana	 	03:01:16:17	 	V2687-03
 	ascend	Medusae	1047.28	2682	 	36.697884	-122.0577	1722797	0.49	2005-07-08 20:02:33.0	Ventana	34.535	03:55:07:05	3.835	V2682-04
 	transect	Lycenchelys camchatica	801.93	2674	 	36.752247	-122.20697	1800007	0.37	2005-06-08 18:04:31.0	Ventana	34.49	00:49:03:05	4.341	V2674-01
 	cruise	slope	106.91	2688	 	36.814434	-122.0168	1679250	1.98	2005-07-14 19:37:02.0	Ventana	34.093	03:21:49:13	8.918	V2688-04
 	descend	Bargmannia	502.31	2683	 	36.701538	-122.049324	1756821	0.68	2005-07-11 17:30:00.0	Ventana	34.306	01:14:08:07	6.464	V2683-02
 	ascend	Chaetognatha	318.02	2681	 	36.699677	-122.05527	1718155	1.24	2005-07-07 20:57:30.2	Ventana	34.235	04:25:50:09	7.434	V2681-05
 	ascend	Euphausiacea	258.17	2681	 	36.697838	-122.05522	1719484	 	2005-07-07 21:29:59.0	Ventana	 	05:06:57:18	 	V2681-05
 	transect	Porifera sp. 1	 	2687	 	 	 	1812634	 	2005-07-13 20:48:56.0	Ventana	 	04:13:27:07	 	V2687-05
 	transect	Ceriantharia sp. 1	601.58	2680	 	36.787037	-122.23151	1805903	0.36	2005-06-27 19:45:11.0	Ventana	34.377	02:23:50:05	5.602	V2680-03
 	transect	Calycophorae	901.05	2681	 	36.695942	-122.05191	2498383	0.39	2005-07-07 19:11:18.0	Ventana	34.505	02:40:59:11	4.173	V2681-03HD
 	transect	Diogenidae	602.56	2680	 	36.789906	-122.23262	1806738	0.35	2005-06-27 20:14:59.0	Ventana	34.38	02:53:36:07	5.589	V2680-03
 	descend	Euphausiacea	268.13	2682	 	36.69974	-122.06075	1720033	1.35	2005-07-08 16:31:27.0	Ventana	34.232	00:25:31:09	7.758	V2682-01
 	transect	Phyllospadix	800.79	2674	 	36.752556	-122.2017	1799099	0.33	2005-06-08 17:37:12.0	Ventana	34.478	00:21:45:13	4.443	V2674-01
 	descend	Myctophidae	605.45	2682	 	36.698635	-122.0598	1721242	0.35	2005-07-08 18:07:48.0	Ventana	34.389	02:00:53:13	5.441	V2682-03
 	cruise	Lycodapus	1215.6	2683	 	36.706467	-122.04761	1757624	0.73	2005-07-11 20:09:58.0	Ventana	34.573	03:44:21:13	3.335	V2683-04
 	descend	Chaetognatha	927.18	2682	 	36.698257	-122.05939	1721791	0.35	2005-07-08 18:52:52.0	Ventana	34.497	02:45:53:04	4.267	V2682-03
 	transect	Mesomyaria	800.62	2674	 	36.75243	-122.20469	1799648	0.36	2005-06-08 17:53:12.0	Ventana	34.488	00:37:44:23	4.355	V2674-01
 	descend	Prayidae	224.71	2683	 	36.700985	-122.05072	1756415	1.69	2005-07-11 16:48:54.0	Ventana	34.189	00:36:33:28	8.215	V2683-01
 	transect	Euphausia	200.41	2681	 	36.69828	-122.05329	2490278	1.7	2005-07-07 17:06:20.0	Ventana	34.199	00:37:28:15	8.36	V2681-01HD
 	transect	Mesomyaria	801.96	2674	 	36.75178	-122.21075	1801045	0.36	2005-06-08 18:23:13.0	Ventana	34.492	01:07:18:03	4.322	V2674-02
 	transect	Mesomyaria	998.22	2669	 	36.732994	-122.25252	1737458	0.4	2005-05-25 20:48:15.0	Ventana	34.509	03:09:02:27	4.074	V2669-04
 	descend	Siphonophora	142.5	2693	 	36.696384	-122.05774	1758173	1.94	2005-07-25 17:55:57.0	Ventana	34.109	00:36:28:23	9.052	V2693-01
 	cruise	Porifera	258.66	2688	 	36.80916	-122.020355	1677898	1.51	2005-07-14 18:28:04.0	Ventana	34.199	02:13:20:16	8.177	V2688-03
 	transect	Euphausia	200.41	2681	 	36.698288	-122.05332	2491030	1.7	2005-07-07 17:10:58.0	Ventana	34.196	00:42:05:13	8.332	V2681-01HD
 	transect	Ceriantharia sp. 2	1000.34	2669	 	36.731926	-122.246445	1735700	0.41	2005-05-25 20:08:15.0	Ventana	34.51	02:29:44:26	4.065	V2669-03
 	descend	Appendicularia	392.62	2682	 	36.69834	-122.05988	1720693	0.9	2005-07-08 17:36:59.0	Ventana	34.26	01:30:30:05	6.759	V2682-02
 	ascend	Calycophorae	928.86	2683	 	36.707275	-122.04888	1757827	0.38	2005-07-11 20:55:12.0	Ventana	34.508	04:28:04:23	4.179	V2683-05
 	transect	Parastichopus leukothele	196.4	2696	 	36.803238	-122.1231	1813151	1.56	2005-08-01 17:12:12.0	Ventana	34.195	00:40:30:01	8.623	V2696-01
 	transect	Nanomia bijuga	200.45	2681	 	36.69828	-122.05329	2490075	1.7	2005-07-07 17:04:32.0	Ventana	34.197	00:35:40:23	8.362	V2681-01HD
 	transect	Stomphia	800.11	2674	 	36.75243	-122.20326	1799302	0.34	2005-06-08 17:44:49.0	Ventana	34.48	00:29:22:22	4.421	V2674-01
 	descend	Lobata	364.2	2682	 	36.698544	-122.0602	1720379	0.99	2005-07-08 17:29:47.0	Ventana	34.259	01:23:17:14	7.051	V2682-02
 	transect	Pennatulacea sp.1	602.11	2680	 	36.79066	-122.232796	1806798	0.35	2005-06-27 20:22:01.0	Ventana	34.376	03:00:38:03	5.593	V2680-03
 	transect	Ophiuroidea	998.54	2669	 	36.73054	-122.228485	1650896	0.45	2005-05-25 18:03:44.0	Ventana	34.523	00:26:12:00	3.907	V2669-01
 	transect	Stomphia	1000.26	2669	 	36.73252	-122.25017	1736909	0.41	2005-05-25 20:34:09.0	Ventana	34.51	02:55:36:10	4.068	V2669-03
 	transect	Chaetognatha	200.37	2681	 	36.69831	-122.053406	2491233	1.67	2005-07-07 17:12:58.0	Ventana	34.201	00:44:06:25	8.34	V2681-01HD
 	transect	Ophiuroidea	999.64	2669	 	36.730595	-122.22908	1651039	0.45	2005-05-25 18:07:25.0	Ventana	34.522	00:29:53:17	3.908	V2669-01
 	descend	Nanomia	170.88	2681	 	36.69828	-122.05329	1713528	1.95	2005-07-07 17:02:48.067	Ventana	34.144	00:33:56:27	8.578	V2681-01
 	transect	Ophiuroidea	998.98	2669	 	36.731403	-122.23617	1684657	0.44	2005-05-25 18:58:43.0	Ventana	34.521	01:20:43:00	3.944	V2669-02
 	ascend	Paralepididae	257.1	2681	 	36.697975	-122.055176	1719281	1.46	2005-07-07 21:29:04.8	Ventana	34.224	04:57:23:14	8.002	V2681-05
 	descend	sinker	701.29	2682	 	36.69861	-122.059975	1721445	0.29	2005-07-08 18:15:50.0	Ventana	34.427	02:08:55:10	5.034	V2682-03
 	transect	Mediaster	 	2687	 	 	 	1812694	 	2005-07-13 20:52:38.0	Ventana	 	04:17:08:12	 	V2687-05
 	transect	molt	100.52	2681	 	36.69983	-122.05429	2489618	2.13	2005-07-07 16:46:20.0	Ventana	34.068	00:17:29:07	9.146	V2681-01HD
 	cruise	Rathbunaster californicus	433.46	2688	 	36.805172	-122.01893	1677695	0.92	2005-07-14 17:44:56.0	Ventana	34.269	01:30:39:05	6.922	V2688-02
 	transect	Phyllospadix	802.58	2674	 	36.75224	-122.20646	1799947	0.36	2005-06-08 18:02:03.0	Ventana	34.489	00:46:35:18	4.343	V2674-01
 	descend	Chaetognatha	467.04	2683	 	36.70155	-122.04935	1756761	0.77	2005-07-11 17:13:51.0	Ventana	34.286	01:01:30:09	6.654	V2683-01
 	descend	Appendicularia	809.57	2683	 	36.70268	-122.04868	1757167	0.36	2005-07-11 18:03:10.0	Ventana	34.471	01:47:16:12	4.534	V2683-02
 	transect	Caecosagitta macrocephala	901.05	2681	 	36.696087	-122.05208	2498323	0.39	2005-07-07 19:10:38.0	Ventana	34.506	02:40:19:19	4.171	V2681-03HD
 	descend	Appendicularia	386.27	2683	 	36.701466	-122.049774	1756618	1.02	2005-07-11 16:58:33.0	Ventana	34.253	00:46:13:20	6.983	V2683-01
 	cruise	Rathbunaster californicus	95.78	2688	 	36.814888	-122.0174	1679453	1.94	2005-07-14 21:01:59.0	Ventana	34.099	04:46:13:17	8.927	V2688-05
 	descend	Appendicularia	959.28	2682	 	36.698303	-122.05934	1721994	0.39	2005-07-08 18:55:32.0	Ventana	34.508	02:48:34:05	4.119	V2682-03
 	transect	Mesomyaria	999.85	2669	 	36.731743	-122.244064	1734100	0.4	2005-05-25 19:50:39.0	Ventana	34.51	02:12:11:00	4.072	V2669-03
 	cruise	Parastichopus	104.83	2676	 	36.80727	-122.03988	1677146	1.93	2005-06-14 19:09:41.0	Ventana	34.156	02:48:26:11	8.429	V2676-03
 	descend	Appendicularia	336.12	2682	 	36.69879	-122.06059	1720176	1.05	2005-07-08 17:11:31.0	Ventana	34.249	01:05:03:27	7.161	V2682-02
 	transect	Sebastolobus altivelis	801.22	2674	 	36.751965	-122.209366	1800902	0.36	2005-06-08 18:16:31.0	Ventana	34.49	01:01:02:16	4.318	V2674-01
 	transect	Rathbunaster californicus	 	2687	 	 	 	1807661	 	2005-07-13 17:21:27.0	Ventana	 	00:48:19:27	 	V2687-01
 	transect	Mediaster	 	2687	 	 	 	1811739	 	2005-07-13 20:23:23.0	Ventana	 	03:48:21:21	 	V2687-04
 	ascend	Chaetognatha	360.53	2693	 	36.6941	-122.06101	1758878	1.24	2005-07-25 21:02:51.0	Ventana	34.235	03:27:24:00	7.343	V2693-04
 	transect	Umbellula lindahli	600.5	2680	 	36.77716	-122.22233	1804243	0.36	2005-06-27 17:42:37.0	Ventana	34.379	00:22:44:19	5.578	V2680-01
 	transect	Mediaster	 	2687	 	 	 	1812288	 	2005-07-13 20:30:57.0	Ventana	 	03:55:55:08	 	V2687-04
 	transect	Ophiuroidea	999.86	2669	 	36.731068	-122.238846	1689081	0.43	2005-05-25 19:20:41.0	Ventana	34.517	01:42:39:14	3.969	V2669-02
 	ascend	Appendicularia	468.12	2682	 	36.698345	-122.06309	1723705	0.59	2005-07-08 21:17:19.0	Ventana	34.305	05:08:59:17	6.308	V2682-06
 	transect	Porifera	 	2687	 	 	 	1810342	 	2005-07-13 19:16:16.0	Ventana	 	02:42:00:24	 	V2687-03
 	transect	Psolus squamatus	 	2687	 	 	 	1810891	 	2005-07-13 19:41:13.0	Ventana	 	03:06:15:03	 	V2687-04
 	transect	Ophiuroidea	998.96	2669	 	36.731415	-122.236534	1684800	0.44	2005-05-25 19:01:55.0	Ventana	34.52	01:23:55:03	3.938	V2669-02
 	transect	Phyllospadix	399.67	2687	 	36.789352	-122.1249	1809622	1.15	2005-07-13 18:26:21.0	Ventana	34.238	01:52:40:02	7.318	V2687-02
 	transect	Neptunea amianta	999.44	2669	 	36.73133	-122.23592	1684454	0.44	2005-05-25 18:57:06.0	Ventana	34.52	01:19:05:22	3.936	V2669-02
 	ascend	Appendicularia	618.23	2682	 	36.698868	-122.05985	1723406	0.39	2005-07-08 20:37:55.0	Ventana	34.385	04:30:02:22	5.489	V2682-05
 	ascend	Appendicularia	430.77	2683	 	36.70417	-122.05058	1758030	0.83	2005-07-11 21:19:01.0	Ventana	34.276	04:51:53:01	6.791	V2683-05
 	transect	Porifera	 	2687	http://search.mbari.org/ARCHIVE/frameGrabs/Ventana/images/2687/03_37_41_08.jpg	 	 	1811440	 	2005-07-13 20:12:42.0	Ventana	 	03:37:41:08	 	V2687-04
 	transect	Gastropoda sp.2	1000.29	2669	 	36.73095	-122.23369	1694631	0.45	2005-05-25 18:39:58.0	Ventana	34.522	01:01:59:03	3.912	V2669-02
 	transect	Gastropoda sp.2	 	2669	 	 	 	1737661	 	2005-05-25 13:55:17.0	Ventana	 	03:16:04:14	 	V2669-04
 	descend	Aegina	1124.21	2683	 	36.705116	-122.048904	1757481	0.61	2005-07-11 19:31:23.0	Ventana	34.548	03:11:43:29	3.624	V2683-03
 	transect	Psolus squamatus	399.86	2687	http://search.mbari.org/ARCHIVE/frameGrabs/Ventana/images/2687/01_02_12_24.jpg	36.788044	-122.12152	1809073	1.14	2005-07-13 17:35:50.0	Ventana	34.237	01:02:12:24	7.276	V2687-02
 	transect	Gastropoda	197.71	2696	 	36.80266	-122.12168	1813008	1.53	2005-08-01 16:52:11.0	Ventana	34.204	00:20:30:23	8.567	V2696-01
 	descend	Appendicularia	903.05	2683	 	36.703518	-122.04833	1757278	0.38	2005-07-11 18:46:05.0	Ventana	34.502	02:26:29:20	4.215	V2683-03
 	transect	Phyllospadix	800.19	2674	 	36.751263	-122.215935	1803380	0.35	2005-06-08 18:49:01.0	Ventana	34.489	01:33:04:22	4.36	V2674-02
 	transect	Psolus squamatus	 	2687	 	 	 	1810139	 	2005-07-13 18:59:15.0	Ventana	 	02:25:00:05	 	V2687-03
 	ascend	Appendicularia	937.74	2681	 	36.697582	-122.05405	1716961	0.41	2005-07-07 19:43:01.3	Ventana	34.514	03:12:04:27	4.074	V2681-04
 	transect	Neptunea amianta	1000.19	2669	 	36.731205	-122.2406	1689284	0.41	2005-05-25 19:31:27.0	Ventana	34.511	01:53:24:11	4.055	V2669-02
 	transect	Rathbunaster californicus	200.21	2696	 	36.80506	-122.127846	1813557	1.51	2005-08-01 17:59:34.0	Ventana	34.211	01:27:26:26	8.675	V2696-02
 	transect	Stomphia	999.72	2669	 	36.73138	-122.23729	1687481	0.44	2005-05-25 19:08:59.0	Ventana	34.52	01:30:58:01	3.944	V2669-02
 	descend	Beroe	352.59	2693	 	36.69708	-122.05989	1758579	1.26	2005-07-25 19:59:20.0	Ventana	34.234	02:38:55:05	7.473	V2693-03
 	transect	Mediaster	 	2687	 	 	 	1810688	 	2005-07-13 19:28:26.0	Ventana	 	02:54:09:09	 	V2687-03
 	transect	Chorilia longipes	801.26	2674	http://search.mbari.org/ARCHIVE/frameGrabs/Ventana/images/2674/00_54_36_10.jpg	36.75217	-122.208084	1800699	0.35	2005-06-08 18:10:05.0	Ventana	34.489	00:54:36:10	4.332	V2674-01
 	descend	Phialidium	475.74	2681	 	36.69811	-122.053894	1715346	0.49	2005-07-07 17:52:59.767	Ventana	34.334	01:23:22:19	6.107	V2681-02
 	ascend	Appendicularia	763.1	2681	 	36.69868	-122.056015	1717510	0.29	2005-07-07 20:11:13.7	Ventana	34.45	03:40:15:02	4.797	V2681-04
 	ascend	Chaetognatha	379.37	2681	 	36.699352	-122.05471	1718012	0.94	2005-07-07 20:49:44.467	Ventana	34.268	04:18:06:02	6.999	V2681-05
 	transect	Mesomyaria	1000.48	2669	 	36.732254	-122.248825	1736249	0.41	2005-05-25 20:25:05.0	Ventana	34.51	02:46:35:10	4.069	V2669-03
 	transect	Calycophorae	700.58	2681	 	36.695118	-122.050835	2497977	0.28	2005-07-07 18:48:03.0	Ventana	34.432	02:17:45:25	4.996	V2681-03HD
 	transect	Poeobius meseres	1001.08	2681	 	36.69469	-122.05046	2498526	0.47	2005-07-07 19:20:51.0	Ventana	34.531	02:50:31:25	3.868	V2681-03HD
 	cruise	Actiniaria	518.29	2688	 	36.799995	-122.01898	1677492	0.66	2005-07-14 17:09:37.0	Ventana	34.316	00:55:55:05	6.37	V2688-01
 	transect	Rathbunaster californicus	 	2687	 	 	 	1812491	 	2005-07-13 20:41:31.0	Ventana	 	04:06:29:00	 	V2687-04
 	transect	Anthomastus ritteri	 	2687	 	 	 	1807587	 	2005-07-13 17:16:16.0	Ventana	 	00:43:09:04	 	V2687-01
 	transect	Mysidae	600.59	2681	 	36.696457	-122.052086	2493742	0.3	2005-07-07 18:22:11.0	Ventana	34.387	01:52:32:11	5.48	V2681-02HD
 	transect	Chaetognatha	800.92	2681	 	36.695705	-122.05163	2498194	0.32	2005-07-07 18:57:03.0	Ventana	34.475	02:26:44:18	4.494	V2681-03HD
 	ascend	Chuniphyes	772.24	2682	 	36.698727	-122.05897	1723286	0.29	2005-07-08 20:26:38.0	Ventana	34.445	04:18:46:20	4.788	V2682-05
 	transect	Mesomyaria	1000.26	2669	 	36.731785	-122.24468	1734432	0.4	2005-05-25 19:54:33.0	Ventana	34.508	02:16:04:07	4.09	V2669-03
 	transect	Allocentrotus fragilis	399.86	2687	 	36.788113	-122.12162	1809230	1.13	2005-07-13 17:37:21.0	Ventana	34.243	01:03:43:12	7.255	V2687-02
 	transect	Ophiuroidea	1000.07	2669	 	36.730976	-122.233025	1683845	0.45	2005-05-25 18:36:53.0	Ventana	34.522	00:59:19:09	3.911	V2669-01
 	transect	molt	100.41	2681	 	36.69983	-122.05429	2489489	2.13	2005-07-07 16:42:51.0	Ventana	34.069	00:14:00:04	9.146	V2681-01HD
 	descend	Cyclothone	1187.24	2682	 	36.698574	-122.05835	1722257	0.68	2005-07-08 19:35:12.0	Ventana	34.572	03:27:48:09	3.382	V2682-04
 	transect	Phyllospadix	 	2687	 	 	 	1812362	 	2005-07-13 20:34:29.0	Ventana	 	03:59:26:24	 	V2687-04
 	cruise	Rathbunaster californicus	482.78	2688	 	36.80188	-122.01834	1677566	0.78	2005-07-14 17:26:45.0	Ventana	34.292	01:12:29:07	6.649	V2688-02
 	descend	Sergestes similis	 	2693	 	 	 	1759441	 	2005-07-25 16:45:00.0	Ventana	 	00:23:34:01	 	V2693-01
 	transect	Neptunea amianta	802.79	2674	 	36.75087	-122.21995	1803657	0.34	2005-06-08 19:06:27.0	Ventana	34.487	01:50:28:28	4.371	V2674-02
 	transect	Umbellula lindahli	599.32	2680	 	36.778904	-122.22409	1804455	0.36	2005-06-27 18:04:42.0	Ventana	34.376	00:44:48:25	5.604	V2680-01
 	transect	Mesomyaria	997.56	2669	 	36.730618	-122.22699	1649087	0.45	2005-05-25 17:54:09.0	Ventana	34.521	00:16:38:03	3.909	V2669-01
 	transect	Neptunea amianta	798.36	2674	 	36.751614	-122.21383	1801308	0.35	2005-06-08 18:37:13.0	Ventana	34.487	01:21:16:28	4.341	V2674-02
 	transect	Phyllospadix	196.61	2696	 	36.803288	-122.123276	1813160	1.54	2005-08-01 17:14:07.0	Ventana	34.202	00:42:25:18	8.615	V2696-01
 	descend	Appendicularia	1058.88	2683	 	36.705063	-122.04898	1757430	0.49	2005-07-11 19:26:13.0	Ventana	34.534	03:06:34:10	3.834	V2683-03
 	transect	LRJ Complex	800.94	2674	 	36.752533	-122.20025	1774057	0.3	2005-06-08 17:28:20.0	Ventana	34.469	00:12:54:22	4.601	V2674-01
 	transect	Nanomia bijuga	400.8	2681	 	36.69599	-122.05142	2492944	0.79	2005-07-07 17:41:55.0	Ventana	34.277	01:12:19:16	6.661	V2681-02HD
 	ascend	Appendicularia	396.75	2681	 	36.6993	-122.05453	1717989	0.91	2005-07-07 20:48:00.6	Ventana	34.265	04:16:21:24	6.908	V2681-05
 	transect	Mesomyaria	 	2669	 	 	 	1737564	 	2005-05-25 13:51:32.0	Ventana	 	03:12:20:14	 	V2669-04
 	ascend	Poeobius meseres	840.64	2681	 	36.698643	-122.05599	1717390	0.32	2005-07-07 19:56:19.2	Ventana	34.486	03:25:22:00	4.406	V2681-04
 	ascend	Chaetognatha	261.72	2681	 	36.699116	-122.05504	1718695	1.43	2005-07-07 21:15:59.833	Ventana	34.231	04:44:19:08	7.965	V2681-05
 	transect	Mesomyaria	1000.39	2669	 	36.732513	-122.25014	1736858	0.41	2005-05-25 20:33:55.0	Ventana	34.51	02:55:23:17	4.067	V2669-03
 	transect	Psolus squamatus	 	2687	 	 	 	1808907	 	2005-07-13 17:31:38.0	Ventana	 	00:58:30:19	 	V2687-01
 	ascend	sinker	1114.88	2682	 	36.698067	-122.05751	1722580	0.59	2005-07-08 19:57:41.0	Ventana	34.555	03:50:15:14	3.576	V2682-04
 	transect	Mediaster	 	2687	 	 	 	1812745	 	2005-07-13 20:55:49.0	Ventana	 	04:20:18:23	 	V2687-05
 	transect	Ophiuroidea	998.53	2669	 	36.731117	-122.23108	1683522	0.45	2005-05-25 18:23:00.0	Ventana	34.521	00:45:27:05	3.922	V2669-01
 	descend	Bargmannia	436.86	2682	 	36.698265	-122.05971	1720753	0.64	2005-07-08 17:46:42.0	Ventana	34.304	01:40:12:24	6.427	V2682-02
 	transect	molt	100.48	2681	 	36.69934	-122.05398	2489812	2.14	2005-07-07 16:51:10.0	Ventana	34.067	00:22:18:18	9.15	V2681-01HD
 	descend	Appendicularia	396.37	2683	 	36.701477	-122.049644	1756632	0.97	2005-07-11 17:00:54.0	Ventana	34.256	00:48:34:05	7.004	V2683-01
 	ascend	Chaetognatha	258.17	2681	 	36.697838	-122.05522	1719493	 	2005-07-07 21:29:59.0	Ventana	 	05:08:00:25	 	V2681-05
 	ascend	Appendicularia	590.97	2682	 	36.69846	-122.062195	1723562	0.4	2005-07-08 21:04:47.0	Ventana	34.367	04:56:52:27	5.721	V2682-05
 	transect	Corallimorphus pilatus	 	2687	 	 	 	1811057	 	2005-07-13 19:49:45.0	Ventana	 	03:14:46:11	 	V2687-04
 	descend	Aegina	716.65	2682	 	36.698597	-122.059944	1721459	0.28	2005-07-08 18:18:01.0	Ventana	34.438	02:11:05:13	4.921	V2682-03
 	ascend	Appendicularia	651.44	2681	 	36.698833	-122.05421	1717666	0.28	2005-07-07 20:27:07.7	Ventana	34.401	03:56:09:03	5.333	V2681-04
 	transect	Raja rhina	204.13	2696	 	36.807613	-122.13125	1813866	1.47	2005-08-01 18:44:06.0	Ventana	34.224	02:11:11:11	8.655	V2696-03
 	transect	Nanomia bijuga	200.48	2681	 	36.69828	-122.05329	2490610	1.72	2005-07-07 17:07:49.0	Ventana	34.195	00:38:56:27	8.334	V2681-01HD
 	ascend	Atolla vanhoeffeni	370.9	2693	 	36.696854	-122.06033	1758735	1.2	2005-07-25 20:32:26.0	Ventana	34.235	03:11:58:27	7.192	V2693-03
 	transect	Mesomyaria	801.35	2674	 	36.752388	-122.20556	1799804	0.36	2005-06-08 17:57:33.0	Ventana	34.486	00:42:06:02	4.35	V2674-01
 	transect	Pennatula phosphorea californica	999.83	2669	 	36.73109	-122.239	1689095	0.43	2005-05-25 19:21:20.0	Ventana	34.52	01:43:18:22	3.966	V2669-02
 	ascend	Mysidae	1161.04	2683	 	36.707863	-122.0488	1757753	0.7	2005-07-11 20:33:38.0	Ventana	34.569	04:07:59:13	3.405	V2683-04
 	transect	Mediaster	 	2687	 	 	 	1811716	 	2005-07-13 20:22:18.0	Ventana	 	03:47:16:16	 	V2687-04
 	transect	Phyllospadix	1000.19	2669	 	36.73182	-122.245155	1735354	0.4	2005-05-25 19:57:56.0	Ventana	34.505	02:19:27:10	4.099	V2669-03
 	transect	Lycenchelys camchatica	800.59	2674	 	36.752506	-122.20297	1799265	0.35	2005-06-08 17:43:20.0	Ventana	34.486	00:27:53:24	4.377	V2674-01
 	transect	Psolus squamatus	 	2687	 	 	 	1810411	 	2005-07-13 19:17:23.0	Ventana	 	02:43:07:07	 	V2687-03
 	transect	Phyllospadix	799.26	2674	 	36.75252	-122.204254	1799528	0.35	2005-06-08 17:50:32.0	Ventana	34.484	00:35:05:03	4.371	V2674-01
 	transect	Phyllospadix	999.83	2669	 	36.731407	-122.23689	1687024	0.44	2005-05-25 19:05:29.0	Ventana	34.52	01:27:28:23	3.939	V2669-02
 	transect	Psolus squamatus	 	2687	 	 	 	1808847	 	2005-07-13 17:30:23.0	Ventana	 	00:57:15:25	 	V2687-01
 	transect	Gastropoda	200.3	2696	 	36.804928	-122.1276	1813543	1.51	2005-08-01 17:58:26.0	Ventana	34.211	01:26:18:27	8.672	V2696-02
 	descend	Cydippida	550.15	2683	 	36.701694	-122.04916	1756955	0.46	2005-07-11 17:44:29.0	Ventana	34.335	01:28:34:10	6.079	V2683-02
 	transect	Rathbunaster californicus	203.37	2696	 	36.806717	-122.13031	1813806	1.48	2005-08-01 18:34:20.0	Ventana	34.213	02:02:11:02	8.636	V2696-02
 	transect	Gastropoda sp.2	1000.3	2669	 	36.7316	-122.24321	1733786	0.41	2005-05-25 19:45:47.0	Ventana	34.51	02:07:19:26	4.063	V2669-03
 	ascend	Copepoda	1054.31	2683	 	36.707527	-122.04916	1757813	0.52	2005-07-11 20:48:08.0	Ventana	34.535	04:22:27:11	3.822	V2683-04
 	transect	Euplexaura	399.71	2687	 	36.789165	-122.124275	1809553	1.18	2005-07-13 18:16:41.0	Ventana	34.238	01:43:00:16	7.364	V2687-02
 	transect	Lycenchelys camchatica	997.28	2669	 	36.730648	-122.22739	1649147	0.45	2005-05-25 17:56:45.0	Ventana	34.521	00:19:13:09	3.908	V2669-01
 	cruise	mud	453.09	2676	 	36.8029	-122.02929	1676321	0.61	2005-06-14 16:36:30.0	Ventana	34.323	00:20:39:06	6.332	V2676-01
 	ascend	Sergestes similis	235.63	2693	 	36.69128	-122.06244	1759118	1.54	2005-07-25 21:22:57.0	Ventana	34.231	03:47:30:16	8.485	V2693-04
 	transect	Phyllospadix	 	2669	 	 	 	1737624	 	2005-05-25 13:53:40.0	Ventana	 	03:14:28:02	 	V2669-04
 	transect	Psolus squamatus	 	2687	 	 	 	1807204	 	2005-07-13 17:03:20.0	Ventana	 	00:30:14:22	 	V2687-01
 	descend	Copepoda	443.76	2683	 	36.701534	-122.04941	1756692	0.82	2005-07-11 17:08:24.0	Ventana	34.276	00:56:02:26	6.735	V2683-01
 	transect	Mediaster	 	2687	 	 	 	1812422	 	2005-07-13 20:37:55.0	Ventana	 	04:02:53:10	 	V2687-04
 	ascend	Calycophorae	688.2	2682	 	36.6989	-122.05944	1723346	0.28	2005-07-08 20:32:58.0	Ventana	34.407	04:25:05:16	5.149	V2682-05
 	cruise	Gastropoda	359.24	2676	 	36.804684	-122.029	1676584	0.99	2005-06-14 16:50:10.0	Ventana	34.271	00:34:17:19	7.114	V2676-01
 	descend	Chaetognatha	910.48	2682	 	36.69825	-122.059425	1721782	0.35	2005-07-08 18:51:53.0	Ventana	34.497	02:44:55:11	4.267	V2682-03
 	descend	Euphausiacea	137.24	2683	 	36.700573	-122.05158	1756249	1.74	2005-07-11 16:19:39.0	Ventana	34.154	00:07:21:18	8.953	V2683-01
 	ascend	Chaetognatha	329.83	2683	 	36.703556	-122.05062	1758076	1.18	2005-07-11 21:23:20.0	Ventana	34.234	04:56:12:25	7.221	V2683-05
 	descend	Hastigerinella digitata	328.58	2693	 	36.697433	-122.060555	1758519	1.29	2005-07-25 19:47:29.0	Ventana	34.236	02:27:04:27	7.575	V2693-03
 	transect	Psolus squamatus	 	2687	 	 	 	1808584	 	2005-07-13 17:24:25.0	Ventana	 	00:51:18:14	 	V2687-01
 	transect	Mesomyaria	999.58	2669	 	36.731056	-122.23507	1684260	0.45	2005-05-25 18:50:48.0	Ventana	34.521	01:12:48:21	3.922	V2669-02
 	cruise	Pandalus platyceros	223.28	2688	http://search.mbari.org/ARCHIVE/frameGrabs/Ventana/images/2688/02_18_01_06.jpg	36.810097	-122.02068	1677949	1.73	2005-07-14 18:32:47.0	Ventana	34.154	02:18:01:06	8.654	V2688-03
 	transect	Mesomyaria	801.45	2674	 	36.75195	-122.20934	1800893	0.36	2005-06-08 18:16:05.0	Ventana	34.49	01:00:36:15	4.317	V2674-01
 	transect	Poeobius meseres	400.75	2681	 	36.696667	-122.052216	2493036	0.79	2005-07-07 17:44:52.0	Ventana	34.277	01:15:15:29	6.652	V2681-02HD
 	ascend	Poeobius meseres	661.79	2681	 	36.698788	-122.0542	1717653	0.29	2005-07-07 20:26:26.7	Ventana	34.406	03:55:27:19	5.241	V2681-04
 	descend	Calycophorae	997.13	2683	 	36.704117	-122.049576	1757370	0.43	2005-07-11 19:16:06.0	Ventana	34.52	02:56:28:08	4.009	V2683-03
 	transect	Brisaster	599.41	2680	 	36.779423	-122.22451	1804515	0.36	2005-06-27 18:09:48.0	Ventana	34.378	00:49:54:15	5.602	V2680-01
 	transect	Calycophorae	300.41	2681	 	36.696163	-122.0518	2492561	1.24	2005-07-07 17:27:47.0	Ventana	34.233	00:58:53:14	7.427	V2681-01HD
 	ascend	ink	361.63	2681	 	36.699368	-122.05496	1718049	1.01	2005-07-07 20:51:33.7	Ventana	34.259	04:19:54:20	7.121	V2681-05
 	descend	Appendicularia	304.28	2682	 	36.699184	-122.060555	1720139	1.17	2005-07-08 16:55:58.0	Ventana	34.236	00:50:01:26	7.317	V2682-01
 	transect	Phyllospadix	800.0	2674	 	36.75266	-122.20044	1774117	0.29	2005-06-08 17:30:37.0	Ventana	34.462	00:15:10:27	4.653	V2674-01
 	transect	Ophiuroidea	999.67	2669	 	36.731415	-122.23719	1687467	0.44	2005-05-25 19:08:11.0	Ventana	34.52	01:30:10:22	3.945	V2669-02
 	transect	Ceriantharia sp. 1	602.08	2680	 	36.7906	-122.23277	1806789	0.35	2005-06-27 20:21:27.0	Ventana	34.379	03:00:04:05	5.586	V2680-03
 	transect	Psolus squamatus	 	2687	 	 	 	1811117	 	2005-07-13 19:53:50.0	Ventana	 	03:18:51:00	 	V2687-04
 	descend	Aegina	1183.81	2682	 	36.698257	-122.05915	1722197	0.66	2005-07-08 19:15:14.0	Ventana	34.568	03:07:52:04	3.409	V2682-04
 	transect	Euphausia	200.39	2681	 	36.698284	-122.053314	2490993	1.71	2005-07-07 17:10:31.0	Ventana	34.187	00:41:39:27	8.319	V2681-01HD
 	cruise	Actiniaria sp. 1	999.67	2669	http://search.mbari.org/ARCHIVE/frameGrabs/Ventana/images/2669/01_34_16_15.jpg	36.73136	-122.2377	20003793	0.44	2005-05-25 19:12:18.0	Ventana	34.518	01:34:16:15	3.947	V2669-02
 	ascend	Euphausiacea	258.17	2681	 	36.697838	-122.05522	1719433	 	2005-07-07 21:29:59.0	Ventana	 	05:04:39:20	 	V2681-05
 	transect	Psolus squamatus	399.87	2687	 	36.788136	-122.121704	1809290	1.14	2005-07-13 17:38:26.0	Ventana	34.24	01:04:48:12	7.292	V2687-02
 	transect	Nanomia bijuga	200.37	2681	 	36.698315	-122.05341	2491256	1.66	2005-07-07 17:13:10.0	Ventana	34.2	00:44:19:03	8.341	V2681-01HD
 	descend	Appendicularia	482.71	2682	 	36.69858	-122.059746	1720813	0.51	2005-07-08 17:57:51.0	Ventana	34.329	01:51:20:07	6.17	V2682-02
 	transect	Porifera	 	2687	 	 	 	1812685	 	2005-07-13 20:52:11.0	Ventana	 	04:16:42:03	 	V2687-05
 	transect	Ophiuroidea	998.86	2669	 	36.73091	-122.22979	1651173	0.45	2005-05-25 18:12:52.0	Ventana	34.521	00:35:19:01	3.908	V2669-01
 	ascend	Appendicularia	276.92	2681	 	36.699722	-122.05498	1718312	1.37	2005-07-07 21:03:29.067	Ventana	34.231	04:31:48:24	7.81	V2681-05
 	ascend	Chaetognatha	264.97	2681	 	36.698936	-122.05643	1718755	1.41	2005-07-07 21:17:55.633	Ventana	34.227	04:46:14:29	7.926	V2681-05
 	transect	Porifera sp. 1	 	2687	 	 	 	1810674	 	2005-07-13 19:27:31.0	Ventana	 	02:53:15:06	 	V2687-03
 	transect	molt	100.49	2681	 	36.698944	-122.05372	2489872	2.12	2005-07-07 16:52:04.0	Ventana	34.07	00:23:13:08	9.148	V2681-01HD
 	descend	Lobata	581.06	2688	 	36.79339	-122.018295	1677243	0.55	2005-07-14 16:18:46.0	Ventana	34.342	00:05:07:21	5.973	V2688-01
 	transect	Lycenchelys camchatica	800.4	2674	 	36.751247	-122.21611	1803394	0.35	2005-06-08 18:49:46.0	Ventana	34.489	01:33:49:04	4.34	V2674-02
 	transect	Brisaster	998.77	2669	 	36.73109	-122.23491	1684200	0.45	2005-05-25 18:48:56.0	Ventana	34.522	01:10:56:07	3.919	V2669-02
 	ascend	Copepoda	335.08	2693	 	36.692703	-122.061905	1758998	1.26	2005-07-25 21:14:21.0	Ventana	34.237	03:38:53:24	7.468	V2693-04
 	ascend	Poeobius meseres	281.73	2681	 	36.69975	-122.05515	1718252	1.36	2005-07-07 21:01:09.613	Ventana	34.232	04:29:29:19	7.737	V2681-05
 	transect	Psolus squamatus	 	2687	 	 	 	1808967	 	2005-07-13 17:32:43.0	Ventana	 	00:59:35:01	 	V2687-01
 	transect	Sebastes diploproa	399.75	2687	 	36.789364	-122.1253	1809673	1.15	2005-07-13 18:33:34.0	Ventana	34.241	01:59:52:23	7.306	V2687-02
 	stationary	Merluccius productus	504.03	2695	 	36.784557	-122.20048	1824477	0.67	2005-07-28 18:34:11.0	Ventana	34.296	01:22:27:19	6.285	V2695-02
 	transect	Appendicularia	400.83	2681	 	36.695747	-122.05113	2492884	0.79	2005-07-07 17:40:36.0	Ventana	34.277	01:11:01:04	6.668	V2681-02HD
 	transect	Mesomyaria	999.38	2669	 	36.73141	-122.23625	1684703	0.44	2005-05-25 18:59:28.0	Ventana	34.52	01:21:27:23	3.941	V2669-02
 	transect	Mediaster	 	2687	 	 	 	1810997	 	2005-07-13 19:47:11.0	Ventana	 	03:12:12:00	 	V2687-04
 	ascend	Hastigerinella digitata	258.17	2681	 	36.697838	-122.05522	1719373	 	2005-07-07 21:29:59.0	Ventana	 	05:02:58:15	 	V2681-05
 	transect	Sebastolobus altivelis	801.1	2674	 	36.75194	-122.20981	1800953	0.35	2005-06-08 18:19:19.0	Ventana	34.483	01:03:24:10	4.35	V2674-02
 	transect	Mediaster	 	2687	 	 	 	1807052	 	2005-07-13 16:56:38.0	Ventana	 	00:23:32:24	 	V2687-01
 	transect	Sebastes diploproa	399.82	2687	 	36.788074	-122.12156	1809170	1.13	2005-07-13 17:36:29.0	Ventana	34.242	01:02:51:25	7.267	V2687-02
 	transect	Mediaster	 	2687	 	 	 	1810794	 	2005-07-13 19:34:55.0	Ventana	 	03:00:38:00	 	V2687-03
 	transect	ink	800.86	2681	 	36.696465	-122.052475	2498254	0.31	2005-07-07 19:00:30.0	Ventana	34.474	02:30:11:12	4.503	V2681-03HD
 	transect	Gastropoda sp.2	1000.19	2669	 	36.731075	-122.23875	1694728	0.43	2005-05-25 19:19:44.0	Ventana	34.518	01:41:42:25	3.968	V2669-02
 	ascend	Chuniphyes	782.98	2681	 	36.698864	-122.05643	1717450	0.27	2005-07-07 20:04:32.333	Ventana	34.459	03:33:34:03	4.705	V2681-04
 	transect	Phyllospadix	800.28	2674	 	36.751755	-122.211914	1801156	0.35	2005-06-08 18:27:38.0	Ventana	34.488	01:11:42:27	4.343	V2674-02
 	transect	Stomphia	 	2687	 	 	 	1810471	 	2005-07-13 19:19:19.0	Ventana	 	02:45:03:18	 	V2687-03
 	transect	Mesomyaria	1000.06	2669	 	36.730953	-122.23259	1683785	0.45	2005-05-25 18:34:21.0	Ventana	34.521	00:56:47:08	3.912	V2669-01
 	transect	Mesomyaria	1000.35	2669	 	36.731277	-122.240944	1689358	0.41	2005-05-25 19:33:45.0	Ventana	34.51	01:55:42:09	4.055	V2669-02
 	transect	Psolus squamatus	 	2687	 	 	 	1808787	 	2005-07-13 17:29:29.0	Ventana	 	00:56:21:28	 	V2687-01
 	transect	Mesomyaria	1000.61	2669	 	36.732346	-122.24952	1736503	0.41	2005-05-25 20:29:48.0	Ventana	34.507	02:51:16:10	4.075	V2669-03
 	transect	Mediaster	 	2687	 	 	 	1810614	 	2005-07-13 19:24:37.0	Ventana	 	02:50:20:15	 	V2687-03
 	transect	Mesomyaria	999.55	2669	 	36.731033	-122.23388	1683997	0.45	2005-05-25 18:41:08.0	Ventana	34.523	01:03:09:03	3.912	V2669-02
 	transect	Mesomyaria	799.09	2674	 	36.75145	-122.21465	1801368	0.35	2005-06-08 18:42:42.0	Ventana	34.489	01:26:45:21	4.333	V2674-02
 	endtransect	color bars	100.49	2681	 	36.69868	-122.05355	1713477	2.14	2005-07-07 16:52:51.6	Ventana	34.067	00:24:01:05	9.142	V2681-01
 	transect	Psolus squamatus	 	2687	 	 	 	1808644	 	2005-07-13 17:26:00.0	Ventana	 	00:52:53:00	 	V2687-01
 	transect	Phyllospadix	 	2687	 	 	 	1811177	 	2005-07-13 19:59:27.0	Ventana	 	03:24:27:02	 	V2687-04
 	transect	Mediaster	 	2687	 	 	 	1811320	 	2005-07-13 20:07:01.0	Ventana	 	03:32:00:18	 	V2687-04
 	transect	Mesomyaria	1000.43	2669	 	36.73155	-122.242836	1694548	0.4	2005-05-25 19:43:38.0	Ventana	34.51	02:05:35:06	4.087	V2669-02
 	transect	Sebastolobus altivelis	801.44	2674	 	36.75096	-122.21869	1803597	0.34	2005-06-08 19:01:03.0	Ventana	34.485	01:45:06:04	4.379	V2674-02
 	transect	Psolus squamatus	399.88	2687	http://search.mbari.org/ARCHIVE/frameGrabs/Ventana/images/2687/01_06_16_14.jpg	36.788166	-122.121796	1809350	1.13	2005-07-13 17:39:54.0	Ventana	34.252	01:06:16:14	7.29	V2687-02
 	cruise	Lycenchelys	1015.63	2689	 	36.771523	-122.08295	1669719	0.57	2005-07-18 17:06:51.0	Ventana	34.549	00:29:54:14	3.659	V2689-01
 	ascend	Nanomia	201.97	2693	 	36.690876	-122.06268	1759178	1.76	2005-07-25 21:25:34.0	Ventana	34.225	03:50:05:26	8.907	V2693-04
 	transect	Phyllospadix	800.53	2674	 	36.752605	-122.201096	1774177	0.34	2005-06-08 17:34:14.0	Ventana	34.482	00:18:47:19	4.417	V2674-01
 	descend	Bathylagus milleri	1049.06	2682	 	36.698338	-122.059135	1722045	0.48	2005-07-08 19:03:43.0	Ventana	34.532	02:56:45:01	3.856	V2682-03
 	descend	Appendicularia	306.71	2682	 	36.69955	-122.060715	1720079	1.17	2005-07-08 16:39:25.0	Ventana	34.235	00:33:28:07	7.322	V2682-01
 	transect	Stomphia	999.99	2669	http://search.mbari.org/ARCHIVE/frameGrabs/Ventana/images/2669/02_11_18_22.jpg	36.731712	-122.243935	1734049	0.41	2005-05-25 19:49:48.0	Ventana	34.513	02:11:18:22	4.081	V2669-03
 	transect	molt	1001.04	2681	 	36.69515	-122.05107	2498577	0.48	2005-07-07 19:23:17.0	Ventana	34.53	02:52:58:17	3.858	V2681-03HD
 	cruise	Sebastes	321.69	2676	 	36.804947	-122.028984	1676657	1.34	2005-06-14 17:20:44.0	Ventana	34.22	01:04:50:19	7.732	V2676-01
 	descend	Chuniphyes	839.55	2683	 	36.702835	-122.048454	1757218	0.34	2005-07-11 18:24:03.0	Ventana	34.481	02:08:06:12	4.427	V2683-02
 	descend	Euphausiacea	359.7	2682	 	36.698494	-122.0601	1720462	1.0	2005-07-08 17:33:10.0	Ventana	34.257	01:26:41:20	7.08	V2682-02
 	transect	Aegina	500.62	2681	 	36.696114	-122.051636	2493622	0.43	2005-07-07 18:02:51.0	Ventana	34.347	01:33:14:18	6.009	V2681-02HD
 	transect	Ophiuroidea	999.07	2669	 	36.73139	-122.23609	1684583	0.44	2005-05-25 18:58:18.0	Ventana	34.522	01:20:17:22	3.94	V2669-02
 	transect	Mesomyaria	802.18	2674	 	36.752316	-122.20591	1799864	0.36	2005-06-08 17:59:40.0	Ventana	34.49	00:44:12:04	4.332	V2674-01
 	transect	Ceriantharia sp. 1	602.27	2680	 	36.79142	-122.23294	1806849	0.35	2005-06-27 20:27:52.0	Ventana	34.378	03:06:27:23	5.587	V2680-03
 	transect	Leuroglossus stilbius	700.62	2681	 	36.69574	-122.051605	2497871	0.28	2005-07-07 18:45:04.0	Ventana	34.435	02:14:47:07	4.945	V2681-03HD
 	cruise	Lycodapus	610.87	2688	 	36.795856	-122.01987	1677363	0.45	2005-07-14 16:37:27.0	Ventana	34.384	00:23:47:06	5.531	V2688-01
 	transect	Lycenchelys camchatica	801.72	2674	 	36.752235	-122.207504	1800067	0.38	2005-06-08 18:07:08.0	Ventana	34.49	00:51:39:25	4.327	V2674-01
 	transect	Umbellula lindahli	599.94	2680	 	36.77842	-122.22363	1804395	0.36	2005-06-27 17:58:30.0	Ventana	34.378	00:38:37:09	5.583	V2680-01
 	transect	Ophiuroidea	998.61	2669	 	36.73113	-122.230835	1683462	0.45	2005-05-25 18:21:26.0	Ventana	34.522	00:43:52:16	3.909	V2669-01
 	descend	Appendicularia	310.62	2681	 	36.695652	-122.05129	1713657	1.19	2005-07-07 17:30:12.277	Ventana	34.236	01:01:19:19	7.321	V2681-01
 	descend	Copepoda	400.33	2681	 	36.695656	-122.05104	1715240	0.79	2005-07-07 17:38:26.633	Ventana	34.277	01:08:49:27	6.675	V2681-02
 	ascend	Aegina	704.58	2681	 	36.698727	-122.054955	1717593	0.29	2005-07-07 20:20:21.423	Ventana	34.426	03:49:22:22	5.064	V2681-04
 	transect	Poeobius meseres	400.76	2681	 	36.697124	-122.05275	2493096	0.79	2005-07-07 17:46:48.0	Ventana	34.278	01:17:12:07	6.661	V2681-02HD
 	transect	Appendicularia	300.41	2681	 	36.69666	-122.05224	2492501	1.23	2005-07-07 17:26:04.0	Ventana	34.234	00:57:12:03	7.397	V2681-01HD
 	transect	Microstomus pacificus	200.0	2696	 	36.80461	-122.1269	1813483	1.51	2005-08-01 17:52:00.0	Ventana	34.209	01:19:52:21	8.671	V2696-02
 	ascend	Chaetognatha	373.32	2693	 	36.69564	-122.06065	1758795	1.2	2005-07-25 20:52:04.0	Ventana	34.233	03:16:37:14	7.171	V2693-04
 	transect	Phyllospadix	800.93	2674	 	36.752544	-122.20247	1799205	0.35	2005-06-08 17:41:10.0	Ventana	34.486	00:25:43:09	4.374	V2674-01
 	transect	Mesomyaria	999.83	2669	 	36.731335	-122.23798	1688316	0.43	2005-05-25 19:14:43.0	Ventana	34.518	01:36:41:18	3.959	V2669-02
 	transect	Gastropoda sp.2	998.59	2669	 	36.730907	-122.229744	1695051	0.45	2005-05-25 18:12:29.0	Ventana	34.521	00:34:56:03	3.912	V2669-01
 	transect	Mesomyaria	1000.05	2669	 	36.73166	-122.24348	1733846	0.41	2005-05-25 19:47:22.0	Ventana	34.511	02:08:54:22	4.069	V2669-03
 	transect	Phyllospadix	999.42	2669	 	36.7312	-122.23579	1684380	0.44	2005-05-25 18:55:39.0	Ventana	34.52	01:17:39:09	3.93	V2669-02
 	transect	Calycophorae	901.02	2681	 	36.695774	-122.051704	2498397	0.39	2005-07-07 19:12:10.0	Ventana	34.505	02:41:50:23	4.174	V2681-03HD
 	transect	Stomphia	998.41	2669	 	36.731064	-122.23053	1651316	0.45	2005-05-25 18:18:29.0	Ventana	34.522	00:40:56:06	3.909	V2669-01
 	descend	Chaetognatha	158.73	2683	 	36.700806	-122.051384	1756309	1.69	2005-07-11 16:35:28.0	Ventana	34.177	00:23:08:24	8.781	V2683-01
 	transect	Solmissus	300.42	2681	 	36.698257	-122.05351	2491975	1.24	2005-07-07 17:20:34.0	Ventana	34.231	00:51:42:06	7.426	V2681-01HD
 	descend	Calycophorae	846.41	2683	 	36.70287	-122.04839	1757227	0.34	2005-07-11 18:25:11.0	Ventana	34.485	02:09:14:04	4.393	V2683-02
 	ascend	Lobata	 	2683	 	 	 	1758136	 	2005-07-11 14:31:12.0	Ventana	 	05:04:03:11	 	V2683-05
 	transect	Phyllospadix	800.46	2674	 	36.752098	-122.208534	1800773	0.35	2005-06-08 18:12:16.0	Ventana	34.488	00:56:47:13	4.326	V2674-01
 	transect	Euphausia	200.42	2681	 	36.6983	-122.05336	2491113	1.69	2005-07-07 17:11:58.0	Ventana	34.198	00:43:05:25	8.337	V2681-01HD
 	descend	Appendicularia	366.26	2681	 	36.695564	-122.05123	1715060	0.97	2005-07-07 17:32:10.733	Ventana	34.261	01:02:34:12	7.011	V2681-02
 	ascend	Chuniphyes	545.24	2681	 	36.69895	-122.05425	1717726	0.39	2005-07-07 20:32:30.853	Ventana	34.362	04:01:31:12	5.882	V2681-04
 	descend	Copepoda	772.54	2682	 	36.698387	-122.05976	1721662	0.29	2005-07-08 18:32:23.0	Ventana	34.457	02:25:26:19	4.698	V2682-03
 	descend	Appendicularia	1069.2	2682	 	36.698334	-122.05916	1722054	0.5	2005-07-08 19:04:51.0	Ventana	34.538	02:57:51:24	3.793	V2682-03
 	transect	Porifera	 	2687	 	 	 	1810088	 	2005-07-13 18:55:26.0	Ventana	 	02:21:11:04	 	V2687-03
 	cruise	physical object	611.6	2688	http://search.mbari.org/ARCHIVE/frameGrabs/Ventana/images/2688/00_21_45_05.jpg	36.79555	-122.019295	20005085	0.45	2005-07-14 16:35:27.0	Ventana	34.383	00:21:45:05	5.503	V2688-01
 	descend	Sergestes similis	645.96	2681	 	36.697952	-122.05387	1715946	0.29	2005-07-07 18:30:13.733	Ventana	34.402	02:00:34:10	5.252	V2681-02
 	transect	Mesomyaria	998.87	2669	 	36.732857	-122.25173	1737241	0.41	2005-05-25 20:43:30.0	Ventana	34.51	03:04:18:19	4.074	V2669-04
 	transect	Solmundella bitentaculata	600.6	2681	 	36.696987	-122.05272	2493802	0.3	2005-07-07 18:24:38.0	Ventana	34.387	01:54:59:11	5.475	V2681-02HD
 	transect	Mesomyaria	997.49	2669	 	36.730614	-122.2278	1649207	0.45	2005-05-25 17:58:44.0	Ventana	34.521	00:21:12:11	3.907	V2669-01
 	transect	Mesomyaria	999.97	2669	 	36.731422	-122.236755	1686881	0.44	2005-05-25 19:04:01.0	Ventana	34.52	01:26:01:00	3.943	V2669-02
 	ascend	Phialidium	545.55	2682	 	36.698315	-122.06276	1723622	0.4	2005-07-08 21:09:33.0	Ventana	34.352	05:01:13:26	5.926	V2682-06
 	descend	Calycophorae	598.38	2683	 	36.70193	-122.049065	1757015	0.35	2005-07-11 17:49:08.0	Ventana	34.369	01:33:15:05	5.773	V2683-02
 	transect	Mediaster	 	2687	 	 	 	1811656	 	2005-07-13 20:19:16.0	Ventana	 	03:44:15:17	 	V2687-04
 	transect	Psolus squamatus	 	2687	 	 	 	1808704	 	2005-07-13 17:27:29.0	Ventana	 	00:54:21:23	 	V2687-01
 	transect	Mediaster	 	2687	 	 	 	1810554	 	2005-07-13 19:22:11.0	Ventana	 	02:47:54:18	 	V2687-03
 	descend	Chaetognatha	365.41	2682	 	36.698536	-122.06037	1720342	1.0	2005-07-08 17:23:25.0	Ventana	34.256	01:16:56:24	7.075	V2682-02
 	transect	Sebastolobus altivelis	799.85	2674	 	36.752537	-122.203896	1799408	0.35	2005-06-08 17:48:21.0	Ventana	34.488	00:32:54:09	4.37	V2674-01
 	transect	Mesomyaria	999.91	2669	 	36.73259	-122.25089	1737038	0.4	2005-05-25 20:38:16.0	Ventana	34.508	02:59:43:23	4.082	V2669-03
 	ascend	Aegina	618.97	2683	 	36.704876	-122.05042	1757956	0.3	2005-07-11 21:11:05.0	Ventana	34.392	04:43:56:10	5.5	V2683-05
 	transect	Mediaster	 	2687	 	 	 	1811859	 	2005-07-13 20:27:19.0	Ventana	 	03:52:17:09	 	V2687-04
 	ascend	Cydippida	148.25	2693	 	36.69074	-122.06297	1759261	1.92	2005-07-25 21:31:34.0	Ventana	34.114	03:56:05:08	9.069	V2693-04
 	transect	Mesomyaria	999.44	2669	 	36.73133	-122.23592	1684463	0.44	2005-05-25 18:57:06.0	Ventana	34.52	01:19:05:22	3.936	V2669-02
 	transect	Phyllospadix	202.96	2696	 	36.805256	-122.12819	1813663	1.47	2005-08-01 18:12:57.0	Ventana	34.215	01:40:49:10	8.607	V2696-02
 	transect	molt	50.43	2681	 	36.699825	-122.05429	2485563	2.97	2005-07-07 16:35:23.0	Ventana	33.919	00:06:34:03	9.619	V2681-01HD
 	ascend	Copepoda	597.09	2682	 	36.698742	-122.060974	1723489	0.35	2005-07-08 20:49:57.0	Ventana	34.374	04:42:04:28	5.646	V2682-05
 	transect	Sebastolobus altivelis	802.19	2674	 	36.752254	-122.20685	1799984	0.37	2005-06-08 18:04:03.0	Ventana	34.49	00:48:34:28	4.326	V2674-01
 	transect	Mediaster	 	2687	 	 	 	1807061	 	2005-07-13 16:56:50.0	Ventana	 	00:23:44:11	 	V2687-01
 	ascend	sinker	429.62	2681	 	36.699085	-122.054214	1717786	0.71	2005-07-07 20:37:58.167	Ventana	34.284	04:06:58:11	6.59	V2681-04
 	transect	Ceriantharia sp. 2	1000.49	2669	 	36.73223	-122.24876	1736240	0.41	2005-05-25 20:24:36.0	Ventana	34.512	02:46:04:22	4.07	V2669-03
 	transect	Ceriantharia sp. 2	997.57	2669	 	36.73062	-122.22699	1683319	0.45	2005-05-25 17:53:44.0	Ventana	34.522	00:16:13:14	3.91	V2669-01
 	transect	Mediaster	 	2687	 	 	 	1812565	 	2005-07-13 20:45:41.0	Ventana	 	04:10:11:24	 	V2687-05
 	cruise	Cancer	97.83	2675	http://search.mbari.org/ARCHIVE/frameGrabs/Ventana/images/2675/02_07_17_06.jpg	36.750988	-122.22278	1803860	1.81	2005-06-08 22:16:59.0	Ventana	34.104	02:07:17:06	8.453	V2675-01
 	transect	Phyllospadix	1000.59	2669	 	36.73239	-122.249664	1736646	0.41	2005-05-25 20:30:50.0	Ventana	34.508	02:52:19:00	4.067	V2669-03
 	cruise	sinker	1211.58	2683	 	36.70663	-122.04767	1757633	0.72	2005-07-11 20:11:57.0	Ventana	34.572	03:46:20:22	3.349	V2683-04
 	transect	phialidium	500.56	2681	 	36.696926	-122.05252	2493562	0.44	2005-07-07 17:59:28.0	Ventana	34.346	01:29:50:20	6.023	V2681-02HD
 	transect	Lycenchelys camchatica	999.49	2669	 	36.730976	-122.23167	1683665	0.45	2005-05-25 18:28:20.0	Ventana	34.522	00:50:46:09	3.913	V2669-01
 	ascend	Hastigerinella digitata	342.51	2693	 	36.693653	-122.06128	1758915	1.25	2005-07-25 21:07:49.0	Ventana	34.237	03:32:22:07	7.411	V2693-04
 	transect	Neptunea amianta	800.58	2674	 	36.751137	-122.21691	1803454	0.35	2005-06-08 18:52:44.0	Ventana	34.485	01:36:47:18	4.353	V2674-02
 	ascend	Aegina	748.38	2681	 	36.698742	-122.05576	1717533	0.27	2005-07-07 20:14:17.473	Ventana	34.447	03:43:18:20	4.815	V2681-04
 	transect	Ceriantharia sp. 2	1000.56	2669	 	36.732395	-122.24979	1736715	0.41	2005-05-25 20:31:32.0	Ventana	34.51	02:53:00:08	4.068	V2669-03
 	transect	Neptunea amianta	603.04	2680	 	36.78862	-122.23235	1805963	0.36	2005-06-27 20:01:34.0	Ventana	34.379	02:40:11:26	5.604	V2680-03
 	transect	Mesomyaria	999.28	2669	 	36.73138	-122.23639	1684763	0.44	2005-05-25 19:00:29.0	Ventana	34.518	01:22:28:11	3.944	V2669-02
 	descend	Calycophorae	217.49	2693	 	36.69611	-122.058205	1758339	1.69	2005-07-25 18:27:23.0	Ventana	34.195	01:07:27:24	8.609	V2693-02
 	transect	Sebastolobus	999.73	2669	 	36.73052	-122.22893	1650933	0.45	2005-05-25 18:06:01.0	Ventana	34.522	00:28:29:11	3.906	V2669-01
 	cruise	Lycodes	396.72	2676	 	36.804153	-122.02919	1676464	0.83	2005-06-14 16:44:25.4	Ventana	34.291	00:28:33:25	6.853	V2676-01
 	transect	Anthomastus ritteri	 	2687	http://search.mbari.org/ARCHIVE/frameGrabs/Ventana/images/2687/03_07_30_20.jpg	 	 	1810914	 	2005-07-13 19:42:29.0	Ventana	 	03:07:30:20	 	V2687-04
 	ascend	Cydippida	964.43	2681	 	36.697227	-122.05364	1716827	0.43	2005-07-07 19:39:06.2	Ventana	34.519	03:08:10:01	4.018	V2681-04
 	descend	Myctophidae	502.73	2683	 	36.701553	-122.04936	1756812	0.68	2005-07-11 17:27:48.0	Ventana	34.305	01:11:54:03	6.466	V2683-02
 	transect	Ophiuroidea	999.68	2669	 	36.73191	-122.246086	1735617	0.41	2005-05-25 20:04:05.0	Ventana	34.51	02:25:35:20	4.06	V2669-03
 	transect	Sebastolobus altivelis	801.29	2674	 	36.752167	-122.20797	1800690	0.35	2005-06-08 18:09:41.0	Ventana	34.489	00:54:12:26	4.332	V2674-01
 	transect	Parastichopus leukothele	198.61	2696	 	36.80371	-122.12472	1813280	1.52	2005-08-01 17:30:24.0	Ventana	34.203	00:58:41:24	8.643	V2696-01
 	transect	Porifera sp. 1	399.87	2687	 	36.788033	-122.12143	1809050	1.15	2005-07-13 17:35:12.0	Ventana	34.24	01:01:34:22	7.293	V2687-02
 	ascend	Calycophorae	367.51	2693	 	36.69457	-122.06103	1758855	1.24	2005-07-25 21:00:41.0	Ventana	34.234	03:25:14:14	7.341	V2693-04
 	cruise	Chionoecetes tanneri	1232.42	2683	 	36.70578	-122.047874	1757550	0.74	2005-07-11 19:52:33.0	Ventana	34.576	03:26:56:10	3.308	V2683-04
 	transect	Psolus squamatus	399.84	2687	http://search.mbari.org/ARCHIVE/frameGrabs/Ventana/images/2687/01_02_17_21.jpg	36.788036	-122.12153	1809110	1.13	2005-07-13 17:35:55.0	Ventana	34.244	01:02:17:21	7.27	V2687-02
 	transect	molt	100.51	2681	 	36.69983	-122.05429	2489609	2.13	2005-07-07 16:46:08.0	Ventana	34.068	00:17:17:16	9.146	V2681-01HD
 	transect	Phyllospadix	800.45	2674	 	36.751747	-122.21121	1801096	0.35	2005-06-08 18:24:58.0	Ventana	34.487	01:09:02:20	4.341	V2674-02
 	ascend	Copepoda	922.18	2682	 	36.698048	-122.05848	1723166	0.37	2005-07-08 20:12:54.0	Ventana	34.502	04:05:02:19	4.218	V2682-05
 	ascend	Appendicularia	499.69	2682	 	36.69834	-122.06324	1723682	0.49	2005-07-08 21:13:52.0	Ventana	34.334	05:05:33:20	6.15	V2682-06
 	cruise	Pleuronectiformes	554.11	2688	 	36.797455	-122.01999	1677423	0.54	2005-07-14 16:58:12.0	Ventana	34.354	00:44:30:24	6.033	V2688-01
 	cruise	Rathbunaster californicus	104.24	2688	 	36.81512	-122.01581	1679273	1.97	2005-07-14 19:40:46.0	Ventana	34.088	03:25:32:28	8.9	V2688-04
 	transect	Mediaster	 	2687	 	 	 	1811200	 	2005-07-13 20:01:21.0	Ventana	 	03:26:21:22	 	V2687-04
 	transect	Ceriantharia sp. 1	599.33	2680	 	36.77777	-122.22279	1804312	0.36	2005-06-27 17:50:12.0	Ventana	34.379	00:30:19:07	5.584	V2680-01
 	transect	Mediaster	 	2687	 	 	 	1812219	 	2005-07-13 20:29:22.0	Ventana	 	03:54:20:22	 	V2687-04
 	ascend	Appendicularia	332.88	2681	 	36.699615	-122.055214	1718132	1.17	2005-07-07 20:55:29.3	Ventana	34.241	04:23:50:01	7.313	V2681-05
 	cruise	mud	98.66	2688	 	36.81296	-122.02107	1679536	1.92	2005-07-14 21:30:10.0	Ventana	34.11	05:14:22:18	8.872	V2688-05
 	transect	molt	100.52	2681	 	36.699825	-122.05429	2489692	2.13	2005-07-07 16:48:05.0	Ventana	34.067	00:19:14:02	9.15	V2681-01HD
 	ascend	Solmissus	317.64	2682	 	36.697224	-122.061554	1723742	1.18	2005-07-08 21:26:04.0	Ventana	34.24	05:17:43:26	7.377	V2682-06
 	descend	Copepoda	921.64	2683	 	36.703533	-122.0485	1757287	0.38	2005-07-11 18:54:18.0	Ventana	34.504	02:34:41:17	4.198	V2683-03
 	descend	Appendicularia	261.21	2683	 	36.70091	-122.05045	1756452	1.51	2005-07-11 16:51:19.0	Ventana	34.218	00:38:59:02	7.971	V2683-01
 	transect	Neptunea amianta	600.73	2680	 	36.786457	-122.23107	1805880	0.36	2005-06-27 19:38:47.0	Ventana	34.377	02:17:25:29	5.6	V2680-03
 	transect	Calliostoma platinum	 	2687	 	 	 	1810208	 	2005-07-13 19:09:17.0	Ventana	 	02:35:01:20	 	V2687-03
 	ascend	Appendicularia	991.3	2681	 	36.69678	-122.05315	1716564	0.45	2005-07-07 19:33:30.367	Ventana	34.524	03:03:11:11	3.946	V2681-03
 	transect	Lycenchelys camchatica	800.14	2674	 	36.752533	-122.20339	1799325	0.35	2005-06-08 17:45:47.0	Ventana	34.481	00:30:20:21	4.39	V2674-01
 	transect	Rathbunaster californicus	201.69	2696	 	36.805256	-122.12819	1813626	1.5	2005-08-01 18:07:03.0	Ventana	34.21	01:34:55:09	8.669	V2696-02
 	transect	Mesomyaria	999.99	2669	 	36.73176	-122.24423	1734252	0.4	2005-05-25 19:51:28.0	Ventana	34.503	02:12:59:07	4.083	V2669-03
 	descend	Chuniphyes	808.95	2683	 	36.70267	-122.04877	1757158	0.35	2005-07-11 18:01:26.0	Ventana	34.472	01:45:31:17	4.563	V2683-02
 	transect	Psolus squamatus	 	2687	http://search.mbari.org/ARCHIVE/frameGrabs/Ventana/images/2687/03_40_03_15.jpg	 	 	1811513	 	2005-07-13 20:15:04.0	Ventana	 	03:40:03:15	 	V2687-04
 	transect	Phyllospadix	997.62	2669	 	36.730583	-122.22822	1649350	0.45	2005-05-25 18:01:59.0	Ventana	34.521	00:24:27:02	3.908	V2669-01
 	transect	Mediaster	 	2687	 	 	 	1810494	 	2005-07-13 19:20:34.0	Ventana	 	02:46:18:12	 	V2687-03
 	transect	Stomphia	998.29	2669	 	36.732964	-122.25217	1737384	0.41	2005-05-25 20:46:24.0	Ventana	34.508	03:07:13:09	4.075	V2669-04
 	transect	Actiniaria sp. 3	 	2687	 	 	 	1810854	 	2005-07-13 19:37:35.0	Ventana	 	03:03:18:14	 	V2687-03
 	transect	Phyllospadix	199.45	2696	 	36.80404	-122.12569	1813363	1.52	2005-08-01 17:39:40.0	Ventana	34.209	01:07:33:18	8.668	V2696-02
 	descend	Euphausiacea	177.07	2693	 	36.696083	-122.05814	1758256	1.93	2005-07-25 18:07:43.0	Ventana	34.148	00:48:12:23	8.885	V2693-01
 	transect	Pennatulacea sp.1	601.36	2680	http://search.mbari.org/ARCHIVE/frameGrabs/Ventana/images/2680/00_18_00_08.jpg	36.776733	-122.22205	1804123	0.36	2005-06-27 17:37:52.0	Ventana	34.379	00:18:00:08	5.578	V2680-01
 	transect	Mesomyaria	1000.07	2669	 	36.731243	-122.23833	1688855	0.43	2005-05-25 19:17:22.0	Ventana	34.519	01:39:20:29	3.975	V2669-02
 	ascend	Nanomia	486.67	2683	 	36.70435	-122.05057	1757993	0.67	2005-07-11 21:16:51.0	Ventana	34.305	04:49:42:06	6.478	V2683-05
 	ascend	Chuniphyes	934.55	2682	 	36.697826	-122.05851	1723083	0.4	2005-07-08 20:11:25.0	Ventana	34.51	04:03:34:04	4.141	V2682-05
 	transect	Pennatulacea	800.83	2674	 	36.75252	-122.20156	1799062	0.34	2005-06-08 17:36:19.0	Ventana	34.485	00:20:52:21	4.422	V2674-01
 	cruise	LRJ Complex	432.06	2688	 	36.805088	-122.01884	1677686	0.93	2005-07-14 17:44:21.0	Ventana	34.265	01:30:04:18	6.949	V2688-02
 	ascend	Appendicularia	1193.0	2683	 	36.70728	-122.04766	1757693	0.71	2005-07-11 20:21:48.0	Ventana	34.571	03:56:09:07	3.365	V2683-04
 	transect	Aegina	500.58	2681	 	36.697166	-122.05282	2493502	0.44	2005-07-07 17:58:30.0	Ventana	34.345	01:28:53:25	6.029	V2681-02HD
 	transect	Mediaster	 	2687	 	 	 	1811573	 	2005-07-13 20:16:17.0	Ventana	 	03:41:16:09	 	V2687-04
 	transect	Phyllospadix	199.55	2696	 	36.804314	-122.12619	1813423	1.52	2005-08-01 17:44:59.0	Ventana	34.209	01:12:52:07	8.662	V2696-02
 	ascend	Appendicularia	950.94	2682	 	36.697704	-122.05847	1723023	0.43	2005-07-08 20:08:50.0	Ventana	34.517	04:01:00:29	4.027	V2682-05
 	transect	Phyllospadix	800.74	2674	 	36.7526	-122.2019	1799122	0.34	2005-06-08 17:38:05.0	Ventana	34.479	00:22:38:25	4.403	V2674-01
 	transect	Copepoda	900.99	2681	 	36.69541	-122.0512	2498457	0.39	2005-07-07 19:13:57.0	Ventana	34.505	02:43:37:22	4.17	V2681-03HD
 	transect	Phyllospadix	998.46	2669	 	36.732906	-122.252075	1737324	0.4	2005-05-25 20:45:38.0	Ventana	34.509	03:06:27:18	4.083	V2669-04
 	transect	Leuroglossus stilbius	400.81	2681	 	36.696037	-122.05148	2492953	0.79	2005-07-07 17:42:09.0	Ventana	34.278	01:12:32:04	6.661	V2681-02HD
 	descend	Acanthamunnopsis milleri	205.36	2683	 	36.701027	-122.05091	1756392	1.7	2005-07-11 16:47:36.0	Ventana	34.192	00:35:16:05	8.343	V2683-01
 	transect	Halipteris californica	598.42	2680	 	36.78274	-122.22797	1805221	0.35	2005-06-27 18:59:08.0	Ventana	34.381	01:38:12:22	5.567	V2680-02
 	transect	Rathbunaster californicus	 	2687	 	 	 	1812828	 	2005-07-13 20:59:52.0	Ventana	 	04:24:22:13	 	V2687-05
 	cruise	Scyliorhinidae	611.42	2688	http://search.mbari.org/ARCHIVE/frameGrabs/Ventana/images/2688/00_19_15_04.jpg	36.795147	-122.019005	1677326	0.45	2005-07-14 16:32:57.0	Ventana	34.389	00:19:15:04	5.475	V2688-01
 	descend	Appendicularia	713.41	2683	 	36.702164	-122.048935	1757098	0.29	2005-07-11 17:55:16.0	Ventana	34.426	01:39:22:22	4.998	V2683-02
 	transect	Calycophorae	700.6	2681	 	36.695217	-122.05097	2497954	0.28	2005-07-07 18:47:31.0	Ventana	34.43	02:17:14:08	4.988	V2681-03HD
 	descend	Cyclothone	339.1	2683	 	36.70125	-122.05	1756549	1.26	2005-07-11 16:55:54.0	Ventana	34.22	00:43:34:16	7.279	V2683-01
 	transect	Lycenchelys camchatica	802.83	2674	 	36.75223	-122.20635	1799924	0.36	2005-06-08 18:01:28.0	Ventana	34.489	00:46:00:07	4.339	V2674-01
 	transect	Mediaster	 	2687	 	 	 	1812279	 	2005-07-13 20:30:43.0	Ventana	 	03:55:41:19	 	V2687-04
 	descend	Appendicularia	827.28	2682	 	36.698357	-122.059555	1721722	0.32	2005-07-08 18:43:51.0	Ventana	34.479	02:36:53:25	4.462	V2682-03
 	transect	molt	100.46	2681	 	36.6998	-122.054276	2489752	2.12	2005-07-07 16:49:35.0	Ventana	34.067	00:20:45:08	9.156	V2681-01HD
 	descend	Chuniphyes	522.39	2683	 	36.70146	-122.04914	1756895	0.59	2005-07-11 17:41:28.0	Ventana	34.324	01:25:34:04	6.308	V2683-02
 	transect	molt	100.55	2681	 	36.69983	-122.05429	2489549	2.13	2005-07-07 16:44:36.0	Ventana	34.067	00:15:45:28	9.144	V2681-01HD
 	cruise	Stylasterias	89.88	2688	 	36.817017	-122.01529	1679333	1.99	2005-07-14 20:03:10.0	Ventana	34.086	03:47:56:06	8.909	V2688-04
 	transect	Appendicularia	1000.99	2681	 	36.69597	-122.05217	2498660	0.47	2005-07-07 19:27:45.0	Ventana	34.532	02:57:25:16	3.869	V2681-03HD
 	descend	Copepoda	1133.41	2683	 	36.705116	-122.048904	1757490	0.62	2005-07-11 19:32:19.0	Ventana	34.55	03:12:40:18	3.61	V2683-03
 	ascend	Poeobius meseres	678.39	2683	 	36.705563	-122.04942	1757896	0.31	2005-07-11 21:07:22.0	Ventana	34.431	04:40:14:06	5.012	V2683-05
 	descend	Appendicularia	536.26	2682	 	36.698612	-122.05978	1720873	0.37	2005-07-08 18:03:31.0	Ventana	34.365	01:57:00:22	5.775	V2682-02
 	transect	Ophiuroidea	998.54	2669	 	36.731106	-122.23068	1683379	0.45	2005-05-25 18:19:39.0	Ventana	34.521	00:42:06:07	3.911	V2669-01
 	descend	Solmissus	248.41	2681	 	36.698574	-122.05356	1713597	1.47	2005-07-07 17:16:03.133	Ventana	34.213	00:47:10:27	8.026	V2681-01
 	transect	Mediaster	 	2687	 	 	 	1812482	 	2005-07-13 20:41:10.0	Ventana	 	04:06:07:17	 	V2687-04
 	transect	Euplexaura	 	2687	 	 	 	1812625	 	2005-07-13 20:48:34.0	Ventana	 	04:13:04:21	 	V2687-05
 	transect	Teuthoidea	400.78	2681	 	36.697453	-122.05313	2493156	0.79	2005-07-07 17:48:11.0	Ventana	34.277	01:18:35:21	6.662	V2681-02HD
 	descend	Appendicularia	971.27	2683	 	36.70403	-122.048584	1757347	0.42	2005-07-11 19:12:59.0	Ventana	34.519	02:53:21:26	4.035	V2683-03
 	transect	Calliostoma platinum	 	2687	 	 	 	1807121	 	2005-07-13 17:00:34.0	Ventana	 	00:27:28:22	 	V2687-01
 	transect	Nanomia bijuga	200.36	2681	 	36.69829	-122.05333	2491053	1.69	2005-07-07 17:11:12.0	Ventana	34.196	00:42:20:14	8.332	V2681-01HD
 	cruise	Pleuronectiformes	452.64	2688	 	36.80335	-122.01808	1677626	0.9	2005-07-14 17:34:56.0	Ventana	34.27	01:20:39:26	6.886	V2688-02
 	transect	Mesomyaria	998.1	2669	 	36.733006	-122.25276	1737481	0.4	2005-05-25 20:49:23.0	Ventana	34.508	03:10:11:02	4.075	V2669-04
 	transect	Ceriantharia sp. 1	602.62	2680	 	36.789803	-122.23259	1806729	0.36	2005-06-27 20:13:56.0	Ventana	34.38	02:52:32:25	5.586	V2680-03
 	transect	chuniphyes	600.53	2681	 	36.697807	-122.05372	2493862	0.3	2005-07-07 18:28:15.0	Ventana	34.387	01:58:36:13	5.478	V2681-02HD
 	descend	Myctophidae	400.2	2681	 	36.695553	-122.051186	1715120	0.8	2005-07-07 17:33:57.8	Ventana	34.281	01:04:21:26	6.681	V2681-02
 	ascend	sinker	603.09	2682	 	36.698856	-122.060036	1723429	0.34	2005-07-08 20:39:42.0	Ventana	34.379	04:31:49:03	5.573	V2682-05
 	ascend	Nanomia	408.98	2683	 	36.704094	-122.0506	1758053	0.95	2005-07-11 21:19:59.0	Ventana	34.258	04:52:50:22	6.884	V2683-05
 	cruise	Sebastolobus	519.13	2688	 	36.79987	-122.01899	1677483	0.66	2005-07-14 17:08:56.0	Ventana	34.315	00:55:13:13	6.367	V2688-01
 	transect	Phyllospadix	798.97	2674	 	36.75173	-122.21272	1801225	0.35	2005-06-08 18:30:32.0	Ventana	34.488	01:14:36:29	4.333	V2674-02
 	transect	Porifera sp. 1	 	2687	 	 	 	1807670	 	2005-07-13 17:22:04.0	Ventana	 	00:48:57:14	 	V2687-01
 	transect	Phyllospadix	204.08	2696	 	36.805946	-122.12943	1813723	1.49	2005-08-01 18:20:36.0	Ventana	34.211	01:48:26:28	8.631	V2696-02
 	cruise	Asteroidea	107.52	2688	 	36.812553	-122.024765	1678032	1.95	2005-07-14 18:51:42.0	Ventana	34.093	02:36:57:02	8.896	V2688-03
 	transect	Phyllospadix	800.22	2674	 	36.752056	-122.208916	1800833	0.35	2005-06-08 18:14:04.0	Ventana	34.489	00:58:35:20	4.325	V2674-01
 	descend	Nanomia	155.82	2693	 	36.69629	-122.05774	1758196	1.97	2005-07-25 17:57:12.0	Ventana	34.117	00:37:42:13	8.964	V2693-01
 	ascend	Copepoda	880.46	2681	 	36.69827	-122.05522	1717330	0.36	2005-07-07 19:51:24.333	Ventana	34.507	03:20:26:28	4.266	V2681-04
 	transect	Rathbunaster californicus	200.36	2696	 	36.805138	-122.127975	1813566	1.5	2005-08-01 18:00:22.0	Ventana	34.212	01:28:14:07	8.671	V2696-02
 	transect	Nanomia bijuga	200.47	2681	 	36.69828	-122.05329	2490490	1.71	2005-07-07 17:07:08.0	Ventana	34.197	00:38:15:26	8.341	V2681-01HD
 	transect	bathocyroe	500.6	2681	 	36.697586	-122.053345	2493359	0.44	2005-07-07 17:56:27.0	Ventana	34.347	01:26:51:10	6.018	V2681-02HD
 	transect	Mesomyaria	999.43	2669	 	36.731018	-122.2323	1683725	0.45	2005-05-25 18:31:23.0	Ventana	34.519	00:53:49:05	3.923	V2669-01
 	transect	Aegina	901.06	2681	 	36.696236	-122.05227	2498314	0.39	2005-07-07 19:09:59.0	Ventana	34.505	02:39:39:27	4.172	V2681-03HD
 	transect	Mesomyaria	999.77	2669	 	36.731773	-122.24443	1734312	0.4	2005-05-25 19:52:30.0	Ventana	34.508	02:14:00:05	4.08	V2669-03
 	transect	Phyllospadix	197.36	2696	 	36.802654	-122.12169	1813017	1.52	2005-08-01 16:54:01.0	Ventana	34.205	00:22:20:14	8.562	V2696-01
 	transect	Mesomyaria	800.12	2674	 	36.752445	-122.20536	1799781	0.36	2005-06-08 17:56:40.0	Ventana	34.487	00:41:12:25	4.361	V2674-01
 	cruise	Laminariales	91.94	2688	 	36.814556	-122.0188	1679476	1.95	2005-07-14 21:11:22.0	Ventana	34.098	04:55:35:06	8.925	V2688-05
 	descend	Appendicularia	467.34	2683	 	36.701584	-122.049355	1756752	0.77	2005-07-11 17:13:09.0	Ventana	34.287	01:00:48:25	6.652	V2683-01
 	endtransect	object	804.69	2674	 	36.750698	-122.22081	1803717	0.34	2005-06-08 19:10:15.0	Ventana	34.485	01:54:16:23	4.414	V2674-02
 	ascend	Apolemia	297.73	2681	 	36.69972	-122.05524	1718192	1.33	2005-07-07 20:59:34.767	Ventana	34.226	04:27:55:07	7.648	V2681-05
 	transect	haliscera	300.46	2681	 	36.69802	-122.053375	2492058	1.23	2005-07-07 17:21:27.0	Ventana	34.233	00:52:35:04	7.401	V2681-01HD
 	cruise	ledge	98.89	2676	http://search.mbari.org/ARCHIVE/frameGrabs/Ventana/images/2676/02_36_50_16.jpg	36.808365	-122.03765	1677123	1.97	2005-06-14 18:58:07.0	Ventana	34.15	02:36:50:16	8.476	V2676-03
 	transect	Mesomyaria	800.8	2674	 	36.751076	-122.21761	1803514	0.35	2005-06-08 18:56:24.0	Ventana	34.488	01:40:27:10	4.338	V2674-02
 	transect	Sebastolobus	1000.48	2669	 	36.731293	-122.24151	1689810	0.4	2005-05-25 19:36:39.0	Ventana	34.508	01:58:36:08	4.091	V2669-02
 	ascend	Lobata	321.82	2693	 	36.6916	-122.06202	1759058	1.29	2005-07-25 21:18:20.0	Ventana	34.238	03:42:53:02	7.568	V2693-04
 	descend	Appendicularia	437.51	2681	 	36.69808	-122.05384	1715323	0.62	2005-07-07 17:51:48.733	Ventana	34.3	01:22:11:05	6.341	V2681-02
 	descend	Hastigerinella digitata	253.69	2682	 	36.699806	-122.06084	1719996	1.38	2005-07-08 16:25:25.0	Ventana	34.233	00:19:29:18	7.886	V2682-01
 	transect	Phyllospadix	197.69	2696	 	36.80347	-122.12394	1813220	1.54	2005-08-01 17:21:33.0	Ventana	34.201	00:49:51:07	8.611	V2696-01
 	transect	Hormiphora	200.46	2681	 	36.69828	-122.05329	2490693	1.72	2005-07-07 17:08:17.0	Ventana	34.194	00:39:25:07	8.323	V2681-01HD
 	transect	Chionoecetes tanneri	799.9	2674	 	36.75131	-122.21555	1803357	0.35	2005-06-08 18:46:29.0	Ventana	34.491	01:30:32:23	4.341	V2674-02
 	cruise	Pleuronectiformes	472.03	2676	 	36.80232	-122.02936	1676261	0.56	2005-06-14 16:32:39.0	Ventana	34.338	00:16:48:17	6.147	V2676-01
 	transect	Gastropoda sp.2	 	2669	 	 	 	1737684	 	2005-05-25 13:56:55.0	Ventana	 	03:17:43:04	 	V2669-04
 	transect	Allocentrotus fragilis	 	2687	 	 	 	1811260	 	2005-07-13 20:05:30.0	Ventana	 	03:30:29:27	 	V2687-04
 	transect	lobata	200.44	2681	 	36.69828	-122.0533	2490850	1.71	2005-07-07 17:09:13.0	Ventana	34.195	00:40:21:12	8.326	V2681-01HD
 	descend	Copepoda	251.18	2693	 	36.698444	-122.06166	1758399	1.48	2005-07-25 19:25:02.0	Ventana	34.238	02:05:03:00	8.361	V2693-02
 	ascend	Chuniphyes	881.83	2682	 	36.698425	-122.05843	1723226	0.33	2005-07-08 20:17:29.0	Ventana	34.489	04:09:37:23	4.333	V2682-05
 	transect	Neptunea amianta	802.03	2674	http://search.mbari.org/ARCHIVE/frameGrabs/Ventana/images/2674/01_06_58_19.jpg	36.751797	-122.21068	1801036	0.35	2005-06-08 18:22:54.0	Ventana	34.489	01:06:58:19	4.322	V2674-02
 	transect	Neptunea amianta	599.67	2680	 	36.78329	-122.22868	1805364	0.36	2005-06-27 19:05:43.0	Ventana	34.376	01:44:47:15	5.591	V2680-02
 	transect	Euphausia	200.39	2681	 	36.69838	-122.05347	2491399	1.67	2005-07-07 17:14:00.0	Ventana	34.199	00:45:08:23	8.341	V2681-01HD
 	cruise	Parastichopus	329.69	2688	 	36.80822	-122.0202	1677829	1.23	2005-07-14 18:09:43.0	Ventana	34.229	01:55:25:02	7.558	V2688-02
 	transect	Ceriantharia sp. 2	999.04	2669	 	36.731407	-122.23618	1684666	0.44	2005-05-25 18:58:53.0	Ventana	34.52	01:20:52:29	3.94	V2669-02
 	ascend	Appendicularia	258.17	2681	 	36.697838	-122.05522	1719290	 	2005-07-07 21:29:59.0	Ventana	 	04:59:17:09	 	V2681-05
 	transect	Mesomyaria	999.64	2669	 	36.73057	-122.229004	1651030	0.45	2005-05-25 18:06:42.0	Ventana	34.521	00:29:10:07	3.907	V2669-01
 	descend	Nanomia	378.73	2682	 	36.69844	-122.05995	1720670	0.93	2005-07-08 17:35:08.0	Ventana	34.259	01:28:39:08	6.973	V2682-02
 	transect	Mesomyaria	800.55	2674	 	36.75257	-122.20029	1774080	0.3	2005-06-08 17:29:08.0	Ventana	34.466	00:13:41:26	4.639	V2674-01
 	ascend	Chuniphyes	743.4	2682	 	36.69879	-122.0592	1723309	0.29	2005-07-08 20:29:15.0	Ventana	34.442	04:21:23:06	4.855	V2682-05
 	endtransect	physical object	601.38	2680	 	36.784744	-122.23013	1805737	0.36	2005-06-27 19:21:51.0	Ventana	34.379	02:00:54:00	5.597	V2680-02
 	transect	Appendicularia	800.88	2681	 	36.69593	-122.051865	2498217	0.31	2005-07-07 18:58:06.0	Ventana	34.476	02:27:48:14	4.495	V2681-03HD
 	transect	Mesomyaria	803.05	2674	 	36.750816	-122.22016	1803680	0.34	2005-06-08 19:07:22.0	Ventana	34.484	01:51:24:04	4.39	V2674-02
 	transect	Mediaster	 	2687	 	 	 	1807564	 	2005-07-13 17:15:36.0	Ventana	 	00:42:28:26	 	V2687-01
 	transect	Poeobius meseres	600.61	2681	 	36.69671	-122.05238	2493765	0.3	2005-07-07 18:23:19.0	Ventana	34.388	01:53:40:13	5.478	V2681-02HD
 	transect	Allocentrotus fragilis	399.86	2687	 	36.7881	-122.12162	1809207	1.13	2005-07-13 17:37:11.0	Ventana	34.243	01:03:32:20	7.262	V2687-02
 	descend	Appendicularia	412.87	2683	 	36.701435	-122.04956	1756655	0.92	2005-07-11 17:05:33.0	Ventana	34.264	00:53:11:27	6.886	V2683-01
 	transect	molt	100.57	2681	 	36.69983	-122.05429	2489512	2.12	2005-07-07 16:43:19.0	Ventana	34.068	00:14:30:00	9.15	V2681-01HD
 	ascend	Appendicularia	604.77	2682	 	36.69862	-122.06174	1723539	0.33	2005-07-08 20:57:51.0	Ventana	34.377	04:49:57:22	5.617	V2682-05
 	transect	Mesomyaria	998.92	2669	 	36.732834	-122.25147	1737218	0.41	2005-05-25 20:42:12.0	Ventana	34.509	03:03:01:00	4.072	V2669-04
 	ascend	Medusae	370.94	2693	 	36.69663	-122.06057	1758712	1.2	2005-07-25 20:30:36.0	Ventana	34.233	03:10:08:11	7.177	V2693-03
 	transect	Ceriantharia sp. 1	602.22	2680	 	36.790874	-122.23286	1806812	0.35	2005-06-27 20:23:27.0	Ventana	34.379	03:02:03:02	5.587	V2680-03
 	cruise	Rathbunaster californicus	466.69	2676	 	36.80258	-122.02938	1676284	0.57	2005-06-14 16:34:39.0	Ventana	34.336	00:18:48:05	6.183	V2676-01
 	descend	Appendicularia	716.56	2682	 	36.698467	-122.059906	1721482	0.28	2005-07-08 18:22:30.0	Ventana	34.438	02:15:34:04	4.914	V2682-03
 	ascend	Doliolenetta	825.96	2681	 	36.698833	-122.05636	1717413	0.31	2005-07-07 19:58:17.9	Ventana	34.481	03:27:20:02	4.44	V2681-04
 	transect	Rathbunaster californicus	200.01	2696	 	36.804523	-122.12667	1813460	1.51	2005-08-01 17:49:46.0	Ventana	34.212	01:17:38:29	8.667	V2696-02
 	ascend	Chaetognatha	282.98	2681	 	36.69974	-122.05508	1718289	1.36	2005-07-07 21:02:25.633	Ventana	34.23	04:30:45:28	7.739	V2681-05
 	transect	Nanomia bijuga	400.76	2681	 	36.696484	-122.051994	2493013	0.79	2005-07-07 17:44:03.0	Ventana	34.277	01:14:26:26	6.641	V2681-02HD
 	descend	Chaetognatha	415.09	2682	 	36.698215	-122.05981	1720730	0.74	2005-07-08 17:39:30.0	Ventana	34.275	01:33:01:05	6.555	V2682-02
 	descend	Phialidium	762.23	2681	 	36.694893	-122.05056	1716278	0.3	2005-07-07 18:50:47.3	Ventana	34.452	02:20:30:13	4.751	V2681-03
 	transect	Phyllospadix	801.02	2674	 	36.752514	-122.20266	1799228	0.35	2005-06-08 17:41:58.0	Ventana	34.487	00:26:31:13	4.377	V2674-01
 	transect	Calliostoma platinum	 	2687	 	 	 	1810757	 	2005-07-13 19:32:11.0	Ventana	 	02:57:54:09	 	V2687-03
 	ascend	Praya	 	2683	 	 	 	1758159	 	 	Ventana	 	05:07:57:18	 	V2683-05
 	cruise	Rathbunaster californicus	468.87	2688	 	36.802364	-122.01823	1677589	0.83	2005-07-14 17:30:14.0	Ventana	34.279	01:15:58:10	6.742	V2688-02
 	descend	Crustacea	304.36	2693	 	36.697655	-122.0609	1758482	1.32	2005-07-25 19:39:34.0	Ventana	34.236	02:19:10:12	7.673	V2693-03
 	transect	Phyllospadix	399.45	2687	 	36.789368	-122.12494	1809636	1.15	2005-07-13 18:27:18.0	Ventana	34.24	01:53:37:16	7.321	V2687-02
 	transect	Euphausia	200.37	2681	 	36.698322	-122.05344	2491339	1.66	2005-07-07 17:13:36.0	Ventana	34.2	00:44:44:02	8.34	V2681-01HD
 	stationary	Appendicularia	502.11	2694	 	36.784573	-122.20047	1676607	0.8	2005-07-27 19:21:40.0	Ventana	34.278	02:04:20:02	6.589	V2694-02
 	transect	Ophiuroidea	997.82	2669	 	36.731144	-122.23096	1683485	0.45	2005-05-25 18:22:16.0	Ventana	34.52	00:44:42:11	3.924	V2669-01
 	ascend	Hastigerinella digitata	328.23	2693	 	36.69196	-122.06193	1759035	1.29	2005-07-25 21:16:40.0	Ventana	34.236	03:41:11:01	7.556	V2693-04
 	transect	molt	50.45	2681	 	36.699673	-122.05419	2485443	 	2005-07-07 16:32:40.0	Ventana	 	00:03:50:00	 	V2681-01HD
 	ascend	Nanomia	411.39	2681	 	36.699234	-122.05436	1717966	0.81	2005-07-07 20:46:29.067	Ventana	34.285	04:14:50:26	6.716	V2681-05
 	transect	Chionoecetes tanneri	 	2669	 	 	 	1737587	 	2005-05-25 13:52:25.0	Ventana	 	03:13:13:12	 	V2669-04
 	transect	Mediaster	 	2687	 	 	 	1808824	 	2005-07-13 17:30:15.0	Ventana	 	00:57:08:00	 	V2687-01
 	transect	Phyllospadix	200.46	2696	 	36.80475	-122.127266	1813520	1.51	2005-08-01 17:55:42.0	Ventana	34.213	01:23:34:22	8.671	V2696-02
 	ascend	Chaetognatha	260.9	2693	 	36.691383	-122.06231	1759095	1.44	2005-07-25 21:21:23.0	Ventana	34.247	03:45:54:17	8.398	V2693-04
 	cruise	Rathbunaster californicus	102.87	2676	 	36.806404	-122.04162	1677160	1.93	2005-06-14 19:16:32.0	Ventana	34.158	02:55:17:15	8.438	V2676-03
 	transect	Rathbunaster californicus	203.41	2696	 	36.80739	-122.13106	1813829	1.47	2005-08-01 18:41:10.0	Ventana	34.217	02:08:14:28	8.62	V2696-03
 	transect	Nanomia bijuga	200.41	2681	 	36.698288	-122.05332	2491016	1.71	2005-07-07 17:10:50.0	Ventana	34.192	00:41:57:27	8.325	V2681-01HD
 	transect	Mesomyaria	1000.26	2669	 	36.73141	-122.24179	1689870	0.4	2005-05-25 19:38:26.0	Ventana	34.509	02:00:23:09	4.076	V2669-02
 	descend	Appendicularia	568.01	2683	 	36.70186	-122.049126	1756978	0.42	2005-07-11 17:46:25.0	Ventana	34.353	01:30:30:29	5.984	V2683-02
 	ascend	Aegina	1104.24	2683	 	36.707867	-122.04906	1757790	0.58	2005-07-11 20:43:08.0	Ventana	34.547	04:17:29:21	3.665	V2683-04
 	transect	Pennatulacea sp.1	602.09	2680	 	36.791714	-122.23298	1806872	0.36	2005-06-27 20:30:06.0	Ventana	34.379	03:08:41:27	5.59	V2680-03
 	transect	Rathbunaster californicus	399.69	2687	 	36.78924	-122.12451	1809576	1.17	2005-07-13 18:20:21.0	Ventana	34.239	01:46:40:24	7.346	V2687-02
 	transect	LRJ Complex	999.67	2669	 	36.731407	-122.23703	1687444	0.44	2005-05-25 19:06:52.0	Ventana	34.52	01:28:51:18	3.942	V2669-02
 	transect	Phyllospadix	 	2687	 	 	 	1812708	 	2005-07-13 20:53:46.0	Ventana	 	04:18:16:21	 	V2687-05
 	cruise	Lycenchelys camchatica	997.26	2669	http://search.mbari.org/ARCHIVE/frameGrabs/Ventana/images/2669/00_14_52_01.jpg	36.730637	-122.226875	20003770	0.45	2005-05-25 17:52:23.0	Ventana	34.522	00:14:52:01	3.91	V2669-01
 	ascend	Cydippida	258.17	2681	 	36.697838	-122.05522	1719410	 	2005-07-07 21:29:59.0	Ventana	 	05:04:04:17	 	V2681-05
 	transect	Stylasterias forreri	399.87	2687	 	36.788128	-122.12177	1809313	1.13	2005-07-13 17:39:23.0	Ventana	34.241	01:05:45:16	7.267	V2687-02
 	transect	Psolus squamatus	 	2687	 	 	 	1812768	 	2005-07-13 20:56:46.0	Ventana	 	04:21:16:08	 	V2687-05
 	transect	Ophiuroidea	999.94	2669	 	36.731396	-122.23687	1687001	0.44	2005-05-25 19:05:12.0	Ventana	34.521	01:27:11:29	3.939	V2669-02
 	transect	Mesomyaria	999.96	2669	 	36.7311	-122.23919	1689118	0.43	2005-05-25 19:22:23.0	Ventana	34.517	01:44:21:22	3.976	V2669-02
 	descend	sinker	465.96	2682	 	36.6985	-122.0596	1720790	0.52	2005-07-08 17:55:57.0	Ventana	34.328	01:49:27:03	6.209	V2682-02
 	transect	Rathbunaster californicus	 	2687	 	 	 	1810651	 	2005-07-13 19:26:58.0	Ventana	 	02:52:41:05	 	V2687-03
 	ascend	Lycodapus	1168.95	2683	 	36.7071	-122.04826	1757730	0.7	2005-07-11 20:28:44.0	Ventana	34.569	04:03:05:16	3.404	V2683-04
 	transect	Mediaster	 	2687	 	 	 	1811140	 	2005-07-13 19:56:29.0	Ventana	 	03:21:29:11	 	V2687-04
 	transect	molt	100.49	2681	 	36.69877	-122.05361	2489895	2.14	2005-07-07 16:52:34.0	Ventana	34.068	00:23:42:06	9.136	V2681-01HD
 	cruise	Pleuronectiformes	382.79	2690	 	36.790142	-121.88782	1669959	0.94	2005-07-18 19:49:10.0	Ventana	34.27	01:04:17:19	6.946	V2690-01
 	transect	Gastropoda sp.2	997.62	2669	 	36.730606	-122.22697	1694908	0.45	2005-05-25 17:53:51.0	Ventana	34.522	00:16:20:06	3.91	V2669-01
 	transect	Gastropoda sp.2	999.07	2669	 	36.73111	-122.234	1694645	0.45	2005-05-25 18:42:02.0	Ventana	34.523	01:04:03:01	3.912	V2669-02
 	transect	Mesomyaria	999.69	2669	 	36.731003	-122.23385	1683974	0.45	2005-05-25 18:40:48.0	Ventana	34.522	01:02:48:21	3.913	V2669-02
 	transect	Phyllospadix	800.58	2674	 	36.75197	-122.209526	1800916	0.36	2005-06-08 18:17:28.0	Ventana	34.49	01:01:33:05	4.325	V2674-02
 	descend	Appendicularia	327.66	2682	 	36.69888	-122.06068	1720162	1.11	2005-07-08 17:08:18.0	Ventana	34.244	01:01:51:16	7.24	V2682-02
 	cruise	Doliolula	326.04	2676	 	36.804794	-122.031395	1676224	1.23	2005-06-14 16:21:44.0	Ventana	34.236	00:05:54:03	7.522	V2676-01
 	transect	Mesomyaria	999.25	2669	 	36.731083	-122.23502	1684237	0.45	2005-05-25 18:50:13.0	Ventana	34.522	01:12:13:22	3.92	V2669-02
 	ascend	Copepoda	373.93	2681	 	36.699356	-122.05481	1718026	0.97	2005-07-07 20:50:24.633	Ventana	34.266	04:18:45:05	7.051	V2681-05
 	cruise	Rathbunaster californicus	90.0	2688	 	36.816532	-122.01602	1679356	2.01	2005-07-14 20:12:35.0	Ventana	34.088	03:57:20:16	8.922	V2688-04
 	descend	Appendicularia	459.43	2683	 	36.70166	-122.049324	1756715	0.78	2005-07-11 17:09:42.0	Ventana	34.283	00:57:20:26	6.672	V2683-01
 	transect	Mediaster	 	2687	 	 	 	1811403	 	2005-07-13 20:11:31.0	Ventana	 	03:36:30:06	 	V2687-04
 	ascend	Appendicularia	663.27	2682	 	36.698917	-122.059586	1723369	0.28	2005-07-08 20:35:06.0	Ventana	34.403	04:27:15:26	5.237	V2682-05
 	transect	Gastropoda sp.2	1000.2	2669	 	36.731976	-122.24651	1735714	0.41	2005-05-25 20:08:43.0	Ventana	34.511	02:30:12:20	4.063	V2669-03
 	transect	Mesomyaria	798.38	2674	 	36.75166	-122.2135	1801285	0.35	2005-06-08 18:35:05.0	Ventana	34.487	01:19:09:21	4.353	V2674-02
 	transect	Leuroglossus stilbius	500.59	2681	 	36.6958	-122.05124	2493659	0.43	2005-07-07 18:04:26.0	Ventana	34.348	01:34:48:17	6.007	V2681-02HD
 	transect	Poeobius meseres	901.14	2681	 	36.696877	-122.05303	2498277	0.39	2005-07-07 19:06:48.0	Ventana	34.505	02:36:30:14	4.167	V2681-03HD
 	ascend	Solmissus	247.82	2683	 	36.703014	-122.050705	1758099	1.64	2005-07-11 21:26:56.0	Ventana	34.196	04:59:47:28	8.024	V2683-05
 	transect	Coryphaenoides acrolepis	800.44	2674	http://search.mbari.org/ARCHIVE/frameGrabs/Ventana/images/2674/00_24_06_25.jpg	36.752563	-122.20219	1799168	0.33	2005-06-08 17:39:33.0	Ventana	34.476	00:24:06:25	4.446	V2674-01
 	transect	Rathbunaster californicus	196.33	2696	 	36.80303	-122.12257	1813077	1.55	2005-08-01 17:05:40.0	Ventana	34.198	00:33:58:12	8.614	V2696-01
 	descend	Nanomia	332.44	2693	 	36.697224	-122.06027	1758542	1.29	2005-07-25 19:53:34.0	Ventana	34.236	02:33:09:11	7.577	V2693-03
 	transect	Lycenchelys camchatica	799.86	2674	 	36.75176	-122.212135	1801179	0.35	2005-06-08 18:28:39.0	Ventana	34.487	01:12:43:13	4.339	V2674-02
 	transect	Glyptocephalus zachirus	 	2687	 	 	 	1807624	 	2005-07-13 17:18:35.0	Ventana	 	00:45:28:18	 	V2687-01
 	transect	Porifera sp. 1	 	2687	 	 	 	1807181	 	2005-07-13 17:02:56.0	Ventana	 	00:29:50:13	 	V2687-01
 	ascend	Aegina	910.77	2681	 	36.697853	-122.054565	1717030	0.37	2005-07-07 19:47:14.847	Ventana	34.503	03:16:18:21	4.199	V2681-04
 	ascend	Appendicularia	774.59	2681	 	36.698734	-122.05633	1717473	0.28	2005-07-07 20:07:11.627	Ventana	34.454	03:36:14:04	4.753	V2681-04
 	transect	Embassichthys bathybius	999.91	2669	http://search.mbari.org/ARCHIVE/frameGrabs/Ventana/images/2669/02_12_38_25.jpg	36.731754	-122.244156	1734146	0.4	2005-05-25 19:51:07.0	Ventana	34.511	02:12:38:25	4.078	V2669-03
 	cruise	lasers	801.19	2674	 	36.752544	-122.19936	1773771	0.29	2005-06-08 17:22:35.0	Ventana	34.459	00:07:09:27	4.654	V2674-01
 	ascend	Chaetognatha	336.49	2693	 	36.692806	-122.06156	1758975	1.26	2005-07-25 21:13:03.0	Ventana	34.236	03:37:35:07	7.459	V2693-04
 	stationary	Appendicularia	504.23	2695	 	36.78466	-122.20051	1824500	0.68	2005-07-28 19:14:03.0	Ventana	34.293	04:20:17:22	6.312	V2695-02
 	cruise	Parastichopus	158.53	2688	http://search.mbari.org/ARCHIVE/frameGrabs/Ventana/images/2688/02_23_13_04.jpg	36.810917	-122.02191	20005210	1.95	2005-07-14 18:38:03.0	Ventana	34.098	02:23:13:04	8.918	V2688-03
 	transect	Ceriantharia sp. 1	802.54	2674	 	36.75185	-122.210014	1800976	0.36	2005-06-08 18:20:02.0	Ventana	34.492	01:04:07:14	4.32	V2674-02
 	transect	Psolus squamatus	 	2687	 	 	 	1808944	 	2005-07-13 17:32:28.0	Ventana	 	00:59:19:28	 	V2687-01
 	transect	Phyllospadix	1000.16	2669	 	36.731075	-122.23966	1689178	0.41	2005-05-25 19:25:12.0	Ventana	34.509	01:47:10:15	4.062	V2669-02
 	transect	Mediaster	 	2687	 	 	 	1810268	 	2005-07-13 19:13:32.0	Ventana	 	02:39:15:26	 	V2687-03
 	transect	Chaetognatha	400.79	2681	 	36.695847	-122.051254	2492907	0.79	2005-07-07 17:41:11.0	Ventana	34.278	01:11:35:20	6.667	V2681-02HD
 	ascend	sinker	594.46	2681	 	36.698936	-122.05425	1717703	0.33	2005-07-07 20:30:11.6	Ventana	34.376	03:59:12:09	5.609	V2681-04
 	transect	Rathbunaster californicus	 	2687	 	 	 	1811343	 	2005-07-13 20:08:40.0	Ventana	 	03:33:40:00	 	V2687-04
 	transect	Mesomyaria	1000.42	2669	 	36.731552	-122.24272	1694525	0.4	2005-05-25 19:43:06.0	Ventana	34.507	02:05:02:27	4.093	V2669-02
 	transect	Mesomyaria	801.15	2674	 	36.750954	-122.21901	1803620	0.35	2005-06-08 19:02:28.0	Ventana	34.494	01:46:30:23	4.341	V2674-02
 	descend	Appendicularia	285.14	2682	 	36.699383	-122.060684	1720102	1.26	2005-07-08 16:49:53.0	Ventana	34.233	00:43:55:12	7.552	V2682-01
 	ascend	Aegina	559.36	2682	 	36.698265	-122.06258	1723599	0.38	2005-07-08 21:07:48.0	Ventana	34.359	04:59:54:15	5.841	V2682-05
 	ascend	Copepoda	265.76	2681	 	36.698902	-122.05667	1718778	1.41	2005-07-07 21:18:32.337	Ventana	34.231	04:46:51:19	7.918	V2681-05
 	transect	Sebastolobus altivelis	800.56	2674	 	36.7512	-122.216385	1803417	0.35	2005-06-08 18:50:49.0	Ventana	34.49	01:34:52:06	4.336	V2674-02
 	ascend	Nanomia	208.66	2693	 	36.691086	-122.06259	1759155	1.74	2005-07-25 21:24:50.0	Ventana	34.201	03:49:21:07	8.677	V2693-04
 	ascend	Lensia	377.87	2693	 	36.695976	-122.06059	1758772	1.19	2005-07-25 20:50:05.0	Ventana	34.231	03:14:38:12	7.143	V2693-04
 	transect	Psolus squamatus	 	2687	 	 	 	1808621	 	2005-07-13 17:25:37.0	Ventana	 	00:52:29:28	 	V2687-01
 	transect	Psolus squamatus	 	2687	 	 	 	1808764	 	2005-07-13 17:28:59.0	Ventana	 	00:55:51:27	 	V2687-01
 	transect	Rathbunaster californicus	 	2687	 	 	 	1810448	 	2005-07-13 19:18:24.0	Ventana	 	02:44:08:05	 	V2687-03
 	cruise	Sebastolobus	381.52	2690	 	36.79013	-121.8872	1670268	0.94	2005-07-18 20:00:30.0	Ventana	34.268	01:15:36:21	6.96	V2690-01
 	transect	Phyllospadix	799.41	2674	 	36.75271	-122.20072	1774140	0.29	2005-06-08 17:32:23.0	Ventana	34.454	00:16:57:15	4.638	V2674-01
 	transect	Actiniaria sp. 1	799.92	2674	 	36.7521	-122.20868	1800796	0.35	2005-06-08 18:12:57.0	Ventana	34.49	00:57:28:29	4.329	V2674-01
 	transect	Mesomyaria	999.24	2669	 	36.731163	-122.235634	1684357	0.45	2005-05-25 18:54:40.0	Ventana	34.522	01:16:39:25	3.927	V2669-02
 	transect	lobata	500.59	2681	 	36.697914	-122.05366	2493276	0.44	2005-07-07 17:55:09.0	Ventana	34.346	01:25:32:10	6.021	V2681-02HD
 	transect	Chionoecetes tanneri	600.98	2680	 	36.776917	-122.22217	1804169	0.36	2005-06-27 17:39:49.0	Ventana	34.379	00:19:56:26	5.577	V2680-01
 	descend	Gonatus	981.36	2681	 	36.69464	-122.050385	1716541	0.45	2005-07-07 19:19:36.367	Ventana	34.525	02:49:18:06	3.94	V2681-03
 	ascend	Euphausiacea	258.17	2681	 	36.697838	-122.05522	1719530	 	2005-07-07 21:29:59.0	Ventana	 	05:11:41:18	 	V2681-05
 	transect	Mesomyaria	999.56	2669	 	36.731426	-122.23631	1684726	0.44	2005-05-25 18:59:59.0	Ventana	34.52	01:21:59:00	3.94	V2669-02
 	transect	Neptunea amianta	999.71	2669	 	36.731792	-122.24448	1734349	0.4	2005-05-25 19:52:45.0	Ventana	34.508	02:14:17:02	4.075	V2669-03
 	descend	Sergestes similis	293.22	2681	 	36.698566	-122.05373	1713634	1.26	2005-07-07 17:18:24.17	Ventana	34.231	00:49:31:23	7.499	V2681-01
 	transect	Psolus squamatus	 	2687	 	 	 	1811020	 	2005-07-13 19:48:31.0	Ventana	 	03:13:32:15	 	V2687-04
 	transect	Mesomyaria	998.98	2669	 	36.73112	-122.23477	1684177	0.45	2005-05-25 18:47:50.0	Ventana	34.522	01:09:50:25	3.916	V2669-02
 	transect	Halipteris californica	598.47	2680	http://search.mbari.org/ARCHIVE/frameGrabs/Ventana/images/2680/01_27_02_10.jpg	36.782276	-122.22742	1805124	0.36	2005-06-27 18:47:57.0	Ventana	34.379	01:27:02:10	5.585	V2680-02
 	ascend	Poeobius meseres	687.83	2681	 	36.69873	-122.054634	1717616	0.28	2005-07-07 20:22:01.393	Ventana	34.417	03:51:02:18	5.143	V2681-04
 	transect	Appendicularia	400.74	2681	 	36.696945	-122.05256	2493073	0.79	2005-07-07 17:46:04.0	Ventana	34.277	01:16:28:05	6.659	V2681-02HD
 	stationary	Merluccius productus	502.28	2694	 	36.78461	-122.20045	1676634	0.85	2005-07-27 20:04:57.0	Ventana	34.272	02:37:05:28	6.69	V2694-03
 	transect	Calycophorae	500.61	2681	 	36.696423	-122.05199	2493599	0.44	2005-07-07 18:01:27.0	Ventana	34.348	01:31:49:14	6.01	V2681-02HD
 	transect	Ophiuroidea	998.97	2669	 	36.731377	-122.23608	1684560	0.44	2005-05-25 18:58:08.0	Ventana	34.522	01:20:07:20	3.94	V2669-02
 	transect	Nanomia bijuga	200.46	2681	 	36.69828	-122.05329	2490204	1.7	2005-07-07 17:05:46.0	Ventana	34.198	00:36:53:11	8.361	V2681-01HD
 	descend	sinker	365.8	2682	 	36.69847	-122.06005	1720485	0.99	2005-07-08 17:33:52.0	Ventana	34.256	01:27:22:05	7.056	V2682-02
 	transect	Mesomyaria	800.35	2674	 	36.751743	-122.211525	1801119	0.35	2005-06-08 18:26:09.0	Ventana	34.486	01:10:14:02	4.34	V2674-02
 	cruise	Macrouridae	998.42	2679	 	36.68986	-122.1656	1824357	0.42	2005-06-16 17:32:20.0	Ventana	34.513	00:03:43:02	4.109	V2679-01
 	cruise	Pannychia moseleyi	443.64	2676	 	36.803146	-122.029236	1676344	0.63	2005-06-14 16:39:01.0	Ventana	34.334	00:23:10:01	6.371	V2676-01
 	descend	Copepoda	295.67	2683	 	36.70106	-122.050156	1756489	1.26	2005-07-11 16:53:27.0	Ventana	34.243	00:41:07:26	7.723	V2683-01
 	transect	Mesomyaria	998.18	2669	 	36.732967	-122.25229	1737421	0.4	2005-05-25 20:47:08.0	Ventana	34.508	03:07:56:03	4.076	V2669-04
 	transect	Neptunea amianta	799.16	2674	 	36.751553	-122.214165	1801345	0.35	2005-06-08 18:39:39.0	Ventana	34.489	01:23:43:08	4.335	V2674-02
 	cruise	mud	253.25	2688	 	36.809303	-122.02037	1677912	1.53	2005-07-14 18:29:46.0	Ventana	34.193	02:15:01:21	8.207	V2688-03
 	transect	Ceriantharia sp. 2	1000.6	2669	 	36.732063	-122.24769	1736143	0.4	2005-05-25 20:16:33.0	Ventana	34.51	02:38:02:29	4.081	V2669-03
 	transect	Poeobius meseres	600.53	2681	 	36.69732	-122.05312	2493825	0.3	2005-07-07 18:26:06.0	Ventana	34.35	01:56:27:08	5.469	V2681-02HD
 	descend	Chuniphyes	697.15	2681	 	36.697926	-122.0538	1715969	0.27	2005-07-07 18:31:52.4	Ventana	34.418	02:02:12:11	5.068	V2681-02
 	ascend	Chaetognatha	345.48	2681	 	36.699333	-122.055176	1718086	1.1	2005-07-07 20:53:02.133	Ventana	34.247	04:21:23:15	7.233	V2681-05
 	transect	Pennatulacea sp.1	599.31	2680	 	36.77971	-122.22488	1804552	0.36	2005-06-27 18:14:32.0	Ventana	34.376	00:54:38:12	5.618	V2680-01
 	transect	Mesomyaria	997.39	2669	 	36.73062	-122.22757	1649184	0.45	2005-05-25 17:57:58.0	Ventana	34.52	00:20:26:28	3.909	V2669-01
 	transect	Mesomyaria	1000.22	2669	 	36.73091	-122.232704	1683808	0.45	2005-05-25 18:35:05.0	Ventana	34.52	00:57:30:28	3.911	V2669-01
 	transect	Pseudosagitta maxima	1001.03	2681	 	36.69534	-122.05129	2498600	0.48	2005-07-07 19:24:12.0	Ventana	34.535	02:53:51:27	3.844	V2681-03HD
 	transect	Gastropoda sp.2	999.01	2669	 	36.73104	-122.231155	1695074	0.45	2005-05-25 18:23:43.0	Ventana	34.521	00:46:09:05	3.915	V2669-01
 	transect	Phyllospadix	1000.2	2669	 	36.73163	-122.243385	1733823	0.41	2005-05-25 19:46:54.0	Ventana	34.511	02:08:25:04	4.068	V2669-03
 	transect	molt	100.49	2681	 	36.699177	-122.05387	2489835	2.13	2005-07-07 16:51:32.0	Ventana	34.068	00:22:42:01	9.141	V2681-01HD
 	transect	Ceriantharia sp. 2	1000.05	2669	 	36.73189	-122.24552	1735391	0.41	2005-05-25 20:00:33.0	Ventana	34.509	02:22:02:01	4.064	V2669-03
 	descend	Cydippida	162.52	2683	 	36.700657	-122.05164	1756286	1.69	2005-07-11 16:27:07.0	Ventana	34.174	00:14:49:15	8.79	V2683-01
 	transect	ink	901.02	2681	 	36.69564	-122.05156	2498420	0.39	2005-07-07 19:12:42.0	Ventana	34.505	02:42:23:22	4.172	V2681-03HD
 	ascend	Calycophorae	603.25	2682	 	36.698643	-122.06152	1723512	0.34	2005-07-08 20:56:27.0	Ventana	34.374	04:48:34:25	5.635	V2682-05
 	transect	Pennatulacea sp.1	602.74	2680	 	36.787983	-122.23209	1805940	0.35	2005-06-27 19:55:26.0	Ventana	34.378	02:34:04:04	5.588	V2680-03
 	cruise	Allocentrotus fragilis	175.11	2676	 	36.808	-122.03009	1676837	1.65	2005-06-14 17:48:49.0	Ventana	34.193	01:28:32:07	8.155	V2676-02
 	transect	Mysidae	700.62	2681	 	36.69583	-122.0517	2497848	0.28	2005-07-07 18:44:38.0	Ventana	34.434	02:14:20:10	4.948	V2681-03HD
 	descend	Appendicularia	507.12	2683	 	36.70143	-122.04918	1756858	0.68	2005-07-11 17:39:37.0	Ventana	34.306	01:23:45:08	6.467	V2683-02
 	transect	Allocentrotus fragilis	 	2687	 	 	 	1812385	 	2005-07-13 20:36:04.0	Ventana	 	04:01:02:10	 	V2687-04
 	transect	Appendicularia	300.43	2681	 	36.696568	-122.052155	2492524	1.23	2005-07-07 17:26:24.0	Ventana	34.233	00:57:32:04	7.399	V2681-01HD
 	transect	Mesomyaria	999.24	2669	 	36.730804	-122.22957	1651136	0.45	2005-05-25 18:11:10.0	Ventana	34.522	00:33:37:24	3.906	V2669-01
 	transect	Liponema brevicornis	399.89	2687	http://search.mbari.org/ARCHIVE/frameGrabs/Ventana/images/2687/02_02_40_01.jpg	36.789402	-122.1255	1809696	1.13	2005-07-13 18:36:21.0	Ventana	34.241	02:02:40:01	7.267	V2687-02
 	cruise	LRJ Complex	595.99	2688	 	36.79647	-122.02017	1677386	0.47	2005-07-14 16:40:21.0	Ventana	34.379	00:26:40:14	5.626	V2688-01
 	transect	Phyllospadix	801.55	2674	 	36.752266	-122.20724	1800044	0.37	2005-06-08 18:06:04.0	Ventana	34.495	00:50:36:10	4.36	V2674-01
 	transect	Stomphia	599.96	2680	 	36.77821	-122.22341	1804372	0.36	2005-06-27 17:55:39.0	Ventana	34.378	00:35:46:04	5.592	V2680-01
 	ascend	Hastigerinella digitata	371.03	2693	 	36.696457	-122.06067	1758685	1.2	2005-07-25 20:28:13.0	Ventana	34.232	03:07:46:15	7.167	V2693-03
 	transect	Allocentrotus fragilis	 	2687	 	 	 	1810817	 	2005-07-13 19:35:22.0	Ventana	 	03:01:05:18	 	V2687-03
 	transect	Nanomia bijuga	200.41	2681	 	36.698284	-122.05331	2490956	1.7	2005-07-07 17:10:11.0	Ventana	34.194	00:41:19:28	8.329	V2681-01HD
 	descend	Cydippida 2	1034.9	2683	 	36.704796	-122.04936	1757407	0.45	2005-07-11 19:24:07.0	Ventana	34.525	03:04:28:28	3.917	V2683-03
 	transect	Psolus squamatus	399.84	2687	 	36.788048	-122.121544	1809147	1.13	2005-07-13 17:36:10.0	Ventana	34.242	01:02:32:10	7.271	V2687-02
 	transect	Mesomyaria	1000.18	2669	 	36.731693	-122.24374	1733883	0.41	2005-05-25 19:48:27.0	Ventana	34.507	02:09:57:23	4.068	V2669-03
 	transect	Appendicularia	400.74	2681	 	36.697666	-122.053375	2493193	0.79	2005-07-07 17:49:05.0	Ventana	34.278	01:19:27:25	6.659	V2681-02HD
 	transect	Psolus squamatus	 	2687	 	 	 	1811836	 	2005-07-13 20:26:46.0	Ventana	 	03:51:44:24	 	V2687-04
 	descend	Phialidium	556.17	2682	 	36.69863	-122.05979	1720910	0.34	2005-07-08 18:05:58.0	Ventana	34.37	01:59:26:27	5.654	V2682-02
 	transect	Stomphia	999.72	2669	 	36.731304	-122.23592	1684440	0.44	2005-05-25 18:56:52.0	Ventana	34.521	01:18:52:16	3.933	V2669-02
 	ascend	Poeobius meseres	639.46	2683	 	36.70508	-122.05011	1757933	0.31	2005-07-11 21:09:54.0	Ventana	34.408	04:42:47:00	5.322	V2683-05
 	ascend	Nanomia	181.24	2693	 	36.690617	-122.06293	1759238	1.95	2005-07-25 21:29:39.0	Ventana	34.133	03:54:10:19	8.871	V2693-04
 	transect	Rathbunaster californicus	 	2687	 	 	 	1811813	 	2005-07-13 20:26:06.0	Ventana	 	03:51:04:27	 	V2687-04
 	transect	Phyllospadix	203.74	2696	 	36.805264	-122.128204	1813686	1.48	2005-08-01 18:14:53.0	Ventana	34.213	01:42:45:08	8.63	V2696-02
 	transect	Allocentrotus fragilis	 	2687	 	 	 	1811283	 	2005-07-13 20:05:34.0	Ventana	 	03:30:33:21	 	V2687-04
 	descend	Appendicularia	502.28	2683	 	36.701466	-122.04914	1756835	0.68	2005-07-11 17:37:14.0	Ventana	34.305	01:21:21:04	6.463	V2683-02
 	transect	Mediaster	 	2687	 	 	 	1807015	 	2005-07-13 16:54:34.0	Ventana	 	00:21:29:05	 	V2687-01
 	cruise	Parastichopus	368.85	2676	 	36.804497	-122.02909	1676487	0.95	2005-06-14 16:45:57.77	Ventana	34.27	00:30:05:19	7.042	V2676-01
 	descend	Chuniphyes	822.02	2681	 	36.69698	-122.05321	1716458	0.32	2005-07-07 19:03:36.22	Ventana	34.481	02:33:19:02	4.425	V2681-03
 	descend	Bathylagus milleri	794.45	2682	 	36.698387	-122.05969	1721685	0.31	2005-07-08 18:36:25.0	Ventana	34.463	02:29:28:02	4.597	V2682-03
 	transect	Phyllospadix	197.94	2696	 	36.802658	-122.12169	1812911	1.54	2005-08-01 16:47:20.0	Ventana	34.204	00:15:40:19	8.57	V2696-01
 	transect	Lycenchelys camchatica	801.17	2674	 	36.752136	-122.208145	1800713	0.35	2005-06-08 18:10:21.0	Ventana	34.491	00:54:52:29	4.331	V2674-01
 	transect	Psolus squamatus	 	2687	 	 	 	1808681	 	2005-07-13 17:26:56.0	Ventana	 	00:53:49:05	 	V2687-01
 	cruise	sediment	1221.12	2683	 	36.706276	-122.047516	1757610	0.72	2005-07-11 20:07:52.0	Ventana	34.574	03:42:14:20	3.346	V2683-04
 	ascend	Mysidae	733.28	2681	 	36.698715	-122.05543	1717556	0.26	2005-07-07 20:17:01.033	Ventana	34.441	03:46:02:16	4.863	V2681-04
 	transect	Stomphia	1000.25	2669	 	36.731148	-122.24031	1689238	0.41	2005-05-25 19:29:16.0	Ventana	34.51	01:51:13:29	4.06	V2669-02
 	ascend	Chaetognatha	356.93	2693	 	36.69398	-122.061035	1758892	1.24	2005-07-25 21:03:26.0	Ventana	34.236	03:27:58:04	7.372	V2693-04
 	transect	Psolus squamatus	 	2687	 	 	 	1810185	 	2005-07-13 19:06:08.0	Ventana	 	02:31:52:25	 	V2687-03
 	descend	Poeobius meseres	812.93	2683	 	36.70275	-122.04857	1757181	0.36	2005-07-11 18:10:51.0	Ventana	34.472	01:54:55:20	4.527	V2683-02
 	transect	Psolus squamatus	 	2687	 	 	 	1810877	 	2005-07-13 19:38:35.0	Ventana	 	03:04:18:09	 	V2687-03
 	transect	Neptunea amianta	800.71	2674	 	36.751144	-122.2172	1803477	0.35	2005-06-08 18:54:30.0	Ventana	34.489	01:38:33:08	4.336	V2674-02
 	transect	Mesomyaria	802.05	2674	 	36.75225	-122.2066	1799961	0.37	2005-06-08 18:02:58.0	Ventana	34.489	00:47:30:10	4.322	V2674-01
 	transect	Sergestes similis	300.41	2681	 	36.696888	-122.05243	2492441	1.23	2005-07-07 17:25:18.0	Ventana	34.234	00:56:25:08	7.393	V2681-01HD
 	descend	Calycophorae	978.62	2682	 	36.698326	-122.059235	1722008	0.43	2005-07-08 18:57:25.0	Ventana	34.52	02:50:26:28	4.004	V2682-03
 	transect	Henricia sanguinolenta	 	2687	 	 	 	1812588	 	2005-07-13 20:46:22.0	Ventana	 	04:10:52:10	 	V2687-05
 	transect	Nanomia bijuga	200.39	2681	 	36.698303	-122.053375	2491159	1.68	2005-07-07 17:12:22.0	Ventana	34.198	00:43:29:28	8.337	V2681-01HD
 	transect	tuscaroridae	700.64	2681	 	36.697487	-122.05335	2497645	0.29	2005-07-07 18:37:42.0	Ventana	34.43	02:07:25:24	4.976	V2681-03HD
 	transect	molt	100.52	2681	 	36.69983	-122.05429	2489632	2.13	2005-07-07 16:46:40.0	Ventana	34.068	00:17:49:01	9.144	V2681-01HD
 	cruise	LRJ Complex	538.04	2688	 	36.798386	-122.019585	1677446	0.62	2005-07-14 17:01:45.0	Ventana	34.325	00:48:03:15	6.251	V2688-01
 	transect	molt	50.44	2681	 	36.69983	-122.05429	2485586	2.96	2005-07-07 16:35:47.0	Ventana	33.92	00:06:56:22	9.619	V2681-01HD
 	ascend	Copepoda	336.65	2681	 	36.699413	-122.055275	1718109	1.14	2005-07-07 20:54:06.323	Ventana	34.245	04:22:26:19	7.285	V2681-05
 	transect	Brisaster	998.17	2669	 	36.732986	-122.2524	1737444	0.4	2005-05-25 20:47:47.0	Ventana	34.509	03:08:36:05	4.076	V2669-04
 	transect	Ceriantharia sp. 2	997.53	2669	 	36.73064	-122.22782	1683342	0.45	2005-05-25 17:59:28.0	Ventana	34.523	00:21:56:22	3.907	V2669-01
 	ascend	Leuroglossus stilbius	448.46	2682	 	36.698193	-122.06284	1723719	0.71	2005-07-08 21:18:53.0	Ventana	34.282	05:10:33:27	6.485	V2682-06
 	cruise	Rathbunaster californicus	93.15	2688	http://search.mbari.org/ARCHIVE/frameGrabs/Ventana/images/2688/05_17_06_21.jpg	36.813	-122.02142	20005330	1.92	2005-07-14 21:32:54.0	Ventana	34.109	05:17:06:21	8.878	V2688-05
 	cruise	Macrouridae	1238.4	2683	 	36.70566	-122.04807	1757527	0.74	2005-07-11 19:48:26.0	Ventana	34.58	03:22:49:12	3.333	V2683-04
 	cruise	Chionoecetes tanneri	997.67	2679	 	36.69043	-122.16627	1824380	0.47	2005-06-16 20:20:29.0	Ventana	34.533	00:58:43:01	3.875	V2679-01
 	transect	Phyllospadix	198.25	2696	 	36.803608	-122.12441	1813257	1.53	2005-08-01 17:27:22.0	Ventana	34.202	00:55:39:25	8.62	V2696-01
 	transect	Phyllospadix	801.03	2674	 	36.752537	-122.20138	1774200	0.35	2005-06-08 17:35:28.0	Ventana	34.485	00:20:01:29	4.379	V2674-01
 	transect	Mesomyaria	1000.39	2669	 	36.731186	-122.24068	1689298	0.41	2005-05-25 19:31:56.0	Ventana	34.511	01:53:54:05	4.055	V2669-02
 	transect	Psolus squamatus	 	2687	 	 	 	1810125	 	2005-07-13 18:58:42.0	Ventana	 	02:24:27:21	 	V2687-03
 	ascend	Appendicularia	517.56	2682	 	36.698288	-122.06301	1723659	0.46	2005-07-08 21:11:47.0	Ventana	34.34	05:03:29:10	6.1	V2682-06
 	transect	Psolus squamatus	399.86	2687	http://search.mbari.org/ARCHIVE/frameGrabs/Ventana/images/2687/01_02_12_24.jpg	36.788044	-122.12152	1809087	1.14	2005-07-13 17:35:50.0	Ventana	34.237	01:02:12:24	7.276	V2687-02
 	transect	Phyllospadix	197.78	2696	 	36.802666	-122.12168	1812994	1.52	2005-08-01 16:50:41.0	Ventana	34.209	00:19:00:22	8.554	V2696-01
 	descend	Hastigerinella digitata	312.36	2683	 	36.701122	-122.05014	1756512	1.23	2005-07-11 16:54:24.0	Ventana	34.244	00:42:02:27	7.58	V2683-01
 	transect	Psolus squamatus	 	2687	 	 	 	1807707	 	2005-07-13 17:23:48.0	Ventana	 	00:50:40:08	 	V2687-01
 	descend	Hormiphora	187.72	2693	 	36.69607	-122.05817	1758279	1.83	2005-07-25 18:14:01.0	Ventana	34.179	00:54:31:18	8.884	V2693-01
 	transect	Chionoecetes tanneri	999.9	2669	 	36.731216	-122.23821	1688832	0.43	2005-05-25 19:16:17.0	Ventana	34.518	01:38:16:08	3.954	V2669-02
 	transect	Psolus squamatus	399.9	2687	 	36.78815	-122.121864	1809373	1.16	2005-07-13 17:40:29.0	Ventana	34.239	01:06:51:05	7.323	V2687-02
 	transect	Sebastes crameri	 	2687	http://search.mbari.org/ARCHIVE/frameGrabs/Ventana/images/2687/03_08_25_05.jpg	 	 	1810937	 	2005-07-13 19:43:23.0	Ventana	 	03:08:25:05	 	V2687-04
 	transect	Ophiuroidea	998.91	2669	 	36.730984	-122.23014	1651256	0.45	2005-05-25 18:15:31.0	Ventana	34.521	00:37:58:13	3.913	V2669-01
 	transect	Ophiuroidea	998.95	2669	 	36.731388	-122.236465	1684786	0.44	2005-05-25 19:01:26.0	Ventana	34.52	01:23:25:20	3.941	V2669-02
 	descend	Appendicularia	228.59	2693	 	36.69864	-122.06163	1758362	1.5	2005-07-25 19:19:26.0	Ventana	34.241	01:59:27:22	8.589	V2693-02
 	descend	Nanomia	211.26	2682	 	36.69989	-122.060715	1719959	1.86	2005-07-08 16:21:12.0	Ventana	34.174	00:15:17:10	7.97	V2682-01
 	transect	Lycenchelys camchatica	801.2	2674	 	36.752556	-122.201675	1799085	0.34	2005-06-08 17:36:47.0	Ventana	34.483	00:21:21:10	4.416	V2674-01
 	transect	Psolus squamatus	 	2687	 	 	 	1809027	 	2005-07-13 17:33:57.0	Ventana	 	01:00:49:20	 	V2687-01
 	transect	Mesomyaria	999.72	2669	 	36.73134	-122.235954	1684500	0.44	2005-05-25 18:57:13.0	Ventana	34.521	01:19:13:10	3.934	V2669-02
 	ascend	Appendicularia	586.33	2682	 	36.698826	-122.06045	1723452	0.4	2005-07-08 20:44:07.0	Ventana	34.371	04:36:14:21	5.673	V2682-05
 	transect	Halipteris californica	598.28	2680	 	36.781647	-122.22677	1805041	0.36	2005-06-27 18:39:19.0	Ventana	34.377	01:18:25:05	5.597	V2680-02
 	cruise	Coryphaenoides acrolepis	 	2673	 	 	 	1668395	 	 	Ventana	 	00:23:16:25	 	V2673-01
 	descend	Appendicularia	613.6	2682	 	36.698627	-122.0598	1721256	0.3	2005-07-08 18:08:06.0	Ventana	34.393	02:01:10:21	5.398	V2682-03
 	transect	Euplexaura	 	2687	 	 	 	1808741	 	2005-07-13 17:28:14.0	Ventana	 	00:55:06:08	 	V2687-01
 	transect	Phyllospadix	800.12	2674	 	36.75251	-122.20355	1799348	0.35	2005-06-08 17:46:39.0	Ventana	34.5	00:31:11:29	4.363	V2674-01
 	starttransect	object	 	2687	 	 	 	1812505	 	2005-07-13 20:42:36.0	Ventana	 	04:07:07:04	 	V2687-05
 	transect	Phyllospadix	199.57	2696	 	36.80396	-122.125496	1813340	1.52	2005-08-01 17:37:33.0	Ventana	34.206	01:05:27:06	8.643	V2696-02
 	ascend	Phialidium	474.09	2681	 	36.69898	-122.054214	1717763	0.56	2005-07-07 20:35:48.8	Ventana	34.318	04:04:49:05	6.257	V2681-04
 	cruise	Asteroidea	345.88	2688	 	36.807724	-122.01979	1677792	1.2	2005-07-14 17:57:20.0	Ventana	34.231	01:43:02:16	7.474	V2688-02
 	transect	Mediaster	 	2687	 	 	 	1811223	 	2005-07-13 20:04:36.0	Ventana	 	03:29:36:09	 	V2687-04
 	descend	Solmissus	236.78	2683	 	36.70097	-122.05065	1756429	1.71	2005-07-11 16:49:42.0	Ventana	34.188	00:37:22:09	8.1	V2683-01
 	transect	Mediaster	 	2687	 	 	 	1812242	 	2005-07-13 20:29:48.0	Ventana	 	03:54:45:27	 	V2687-04
 	transect	molt	100.5	2681	 	36.699825	-122.05429	2489715	2.13	2005-07-07 16:48:33.0	Ventana	34.067	00:19:42:03	9.151	V2681-01HD
 	transect	Mesomyaria	999.17	2669	 	36.731064	-122.23186	1683688	0.45	2005-05-25 18:29:25.0	Ventana	34.522	00:51:50:25	3.915	V2669-01
 	transect	Mesomyaria	1000.74	2669	 	36.732292	-122.24899	1736263	0.41	2005-05-25 20:26:08.0	Ventana	34.509	02:47:37:26	4.065	V2669-03
 	descend	Copepoda	901.61	2683	 	36.7033	-122.04833	1757264	0.37	2005-07-11 18:32:29.0	Ventana	34.494	02:12:54:16	4.239	V2683-03
 	transect	Nanomia bijuga	200.43	2681	 	36.69828	-122.05329	2490324	1.7	2005-07-07 17:06:54.0	Ventana	34.198	00:38:03:12	8.347	V2681-01HD
 	ascend	Copepoda	767.12	2681	 	36.698658	-122.05613	1717496	0.29	2005-07-07 20:10:06.9	Ventana	34.454	03:39:08:25	4.774	V2681-04
 	transect	Phyllospadix	 	2687	 	 	 	1811550	 	2005-07-13 20:15:20.0	Ventana	 	03:40:19:05	 	V2687-04
 	transect	Gastropoda	199.44	2696	 	36.804234	-122.12602	1813400	1.52	2005-08-01 17:43:05.0	Ventana	34.209	01:10:58:27	8.661	V2696-02
 	cruise	sinker	1207.63	2683	 	36.707035	-122.04763	1757670	0.72	2005-07-11 20:15:24.0	Ventana	34.573	03:49:46:24	3.354	V2683-04
 	transect	Phyllospadix	800.72	2674	 	36.752586	-122.20199	1799145	0.34	2005-06-08 17:38:47.0	Ventana	34.477	00:23:20:26	4.4	V2674-01
 	transect	Gastropoda sp.2	998.68	2669	 	36.73286	-122.25202	1737301	0.4	2005-05-25 20:45:03.0	Ventana	34.509	03:05:51:15	4.073	V2669-04
 	descend	Aegina	748.09	2683	 	36.70236	-122.04893	1757121	0.27	2005-07-11 17:57:23.0	Ventana	34.45	01:41:27:20	4.77	V2683-02
 	descend	Poeobius meseres	393.2	2681	 	36.695557	-122.05119	1715097	0.86	2005-07-07 17:33:06.3	Ventana	34.259	01:03:30:12	6.794	V2681-02
 	cruise	Lycodapus	619.07	2688	 	36.794453	-122.01947	1677303	0.43	2005-07-14 16:29:53.0	Ventana	34.401	00:16:13:13	5.34	V2688-01
 	transect	Phyllospadix	799.82	2674	 	36.75246	-122.20497	1799694	0.35	2005-06-08 17:54:35.0	Ventana	34.486	00:39:08:01	4.357	V2674-01
 	transect	Calycophorae	700.64	2681	 	36.696552	-122.05247	2497728	0.29	2005-07-07 18:41:31.0	Ventana	34.439	02:11:12:28	4.946	V2681-03HD
 	descend	Appendicularia	278.48	2693	 	36.698013	-122.06136	1758422	1.41	2005-07-25 19:34:51.0	Ventana	34.237	02:14:26:27	8.021	V2693-03
 	transect	Porifera sp. 1	 	2687	 	 	 	1807098	 	2005-07-13 16:59:23.0	Ventana	 	00:26:17:00	 	V2687-01
 	cruise	Sebastolobus	309.26	2688	 	36.80862	-122.02029	1677852	1.34	2005-07-14 18:12:36.0	Ventana	34.218	01:58:18:09	7.79	V2688-02
 	transect	Phyllospadix	1000.08	2669	 	36.731968	-122.24628	1735654	0.41	2005-05-25 20:06:30.0	Ventana	34.51	02:28:00:02	4.062	V2669-03
 	transect	cydippida	50.46	2681	 	36.69982	-122.05429	2485526	2.94	2005-07-07 16:34:17.0	Ventana	33.928	00:05:26:00	9.616	V2681-01HD
 	transect	Nanomia bijuga	200.42	2681	 	36.69828	-122.0533	2490873	1.7	2005-07-07 17:09:23.0	Ventana	34.197	00:40:30:29	8.33	V2681-01HD
 	cruise	slope	107.18	2688	 	36.81411	-122.023796	1678055	1.95	2005-07-14 19:00:40.0	Ventana	34.092	02:45:53:23	8.887	V2688-03
 	ascend	Chaetognatha	834.99	2682	 	36.698673	-122.05859	1723249	0.34	2005-07-08 20:21:14.0	Ventana	34.479	04:13:23:27	4.43	V2682-05
 	ascend	Chuniphyes	712.84	2683	 	36.70589	-122.0489	1757873	0.27	2005-07-11 21:05:29.0	Ventana	34.45	04:38:22:01	4.764	V2683-05
 	transect	Mesomyaria	799.11	2674	 	36.751743	-122.2124	1801202	0.35	2005-06-08 18:29:30.0	Ventana	34.491	01:13:35:01	4.33	V2674-02
 	descend	Hormiphora	168.92	2693	 	36.696243	-122.05778	1758219	1.97	2005-07-25 17:58:22.0	Ventana	34.139	00:38:52:18	8.927	V2693-01
 	transect	Allocentrotus fragilis	 	2687	 	 	 	1807647	 	2005-07-13 17:20:10.0	Ventana	 	00:47:03:05	 	V2687-01
 	transect	Chaetognatha	200.38	2681	 	36.69829	-122.053345	2491076	1.7	2005-07-07 17:11:32.0	Ventana	34.196	00:42:39:27	8.332	V2681-01HD
 	transect	Appendicularia	600.63	2681	 	36.69586	-122.05141	2493682	0.3	2005-07-07 18:19:26.0	Ventana	34.388	01:49:48:16	5.495	V2681-02HD
 	descend	Aegina	1102.76	2683	 	36.705116	-122.048904	1757467	0.57	2005-07-11 19:29:46.0	Ventana	34.542	03:10:08:03	3.687	V2683-03
 	transect	Appendicularia	400.78	2681	 	36.69733	-122.052986	2493133	0.79	2005-07-07 17:47:39.0	Ventana	34.279	01:18:01:14	6.663	V2681-02HD
 	transect	Microstomus pacificus	200.88	2696	 	36.805252	-122.12818	1813603	1.5	2005-08-01 18:03:38.0	Ventana	34.211	01:31:30:14	8.667	V2696-02
 	transect	Mesomyaria	1000.18	2669	 	36.731663	-122.24378	1733943	0.41	2005-05-25 19:48:48.0	Ventana	34.509	02:10:20:01	4.064	V2669-03
 	ascend	Doliolenetta	630.89	2682	 	36.698868	-122.05975	1723392	0.36	2005-07-08 20:36:53.0	Ventana	34.387	04:29:01:01	5.448	V2682-05
 	ascend	Chaetognatha	451.15	2683	 	36.704258	-122.05057	1758016	0.76	2005-07-11 21:18:11.0	Ventana	34.287	04:51:03:20	6.648	V2683-05
 	descend	Dosidicus gigas	403.4	2681	 	36.698017	-122.05375	1715300	0.79	2005-07-07 17:50:41.233	Ventana	34.275	01:21:04:07	6.638	V2681-02
 	descend	Appendicularia	944.23	2683	 	36.703785	-122.048584	1757324	0.41	2005-07-11 19:09:08.0	Ventana	34.509	02:49:31:22	4.109	V2683-03
 	descend	Appendicularia	366.65	2693	 	36.69618	-122.06092	1758625	1.2	2005-07-25 20:20:43.0	Ventana	34.234	03:00:15:13	7.195	V2693-03
 	transect	Mediaster	 	2687	 	 	 	1812445	 	2005-07-13 20:39:11.0	Ventana	 	04:04:09:05	 	V2687-04
 	transect	Mesomyaria	1000.6	2669	 	36.73217	-122.24826	1736203	0.41	2005-05-25 20:20:53.0	Ventana	34.51	02:42:22:26	4.062	V2669-03
 	transect	Chaetognatha	300.39	2681	 	36.695942	-122.05156	2492584	1.24	2005-07-07 17:28:45.0	Ventana	34.234	00:59:51:14	7.427	V2681-01HD
 	transect	Mediaster	 	2687	 	 	 	1812302	 	2005-07-13 20:31:37.0	Ventana	 	03:56:35:02	 	V2687-04
 	descend	Euphausiacea	195.35	2683	 	36.70107	-122.051	1756369	1.68	2005-07-11 16:45:59.0	Ventana	34.196	00:33:39:10	8.43	V2683-01
 	descend	Myctophidae	484.53	2683	 	36.70152	-122.04934	1756775	0.72	2005-07-11 17:23:06.0	Ventana	34.295	01:07:14:26	6.559	V2683-02
 	transect	Phyllospadix	801.57	2674	 	36.752167	-122.20782	1800104	0.35	2005-06-08 18:08:37.0	Ventana	34.489	00:53:08:27	4.326	V2674-01
 	transect	Phyllospadix	999.68	2669	 	36.731354	-122.237724	1687527	0.44	2005-05-25 19:12:25.0	Ventana	34.52	01:34:24:09	3.947	V2669-02
 	descend	Bathocyroe	860.4	2682	 	36.698322	-122.05944	1721745	0.33	2005-07-08 18:48:36.0	Ventana	34.483	02:41:40:02	4.39	V2682-03
 	descend	Poeobius meseres	1123.89	2682	 	36.698208	-122.0592	1722151	0.58	2005-07-08 19:12:09.0	Ventana	34.556	03:04:48:08	3.583	V2682-04
 	transect	molt	100.48	2681	 	36.69972	-122.05422	2489775	2.13	2005-07-07 16:50:15.0	Ventana	34.067	00:21:25:08	9.159	V2681-01HD
 	transect	Aegina	900.98	2681	 	36.69494	-122.050575	2498480	0.39	2005-07-07 19:16:25.0	Ventana	34.505	02:46:06:08	4.168	V2681-03HD
 	descend	Chuniphyes	529.16	2683	 	36.701492	-122.04914	1756918	0.55	2005-07-11 17:42:28.0	Ventana	34.32	01:26:33:28	6.24	V2683-02
 	transect	Mediaster	 	2687	 	 	 	1811753	 	2005-07-13 20:24:31.0	Ventana	 	03:49:29:25	 	V2687-04
 	transect	Appendicularia	500.59	2681	 	36.697678	-122.05345	2493336	0.44	2005-07-07 17:56:03.0	Ventana	34.347	01:26:25:26	6.018	V2681-02HD
 	ascend	Copepoda	865.08	2681	 	36.698463	-122.055534	1717353	0.34	2005-07-07 19:53:22.633	Ventana	34.499	03:22:25:18	4.311	V2681-04
 	transect	Phyllospadix	800.61	2674	 	36.752033	-122.20904	1800856	0.35	2005-06-08 18:14:45.0	Ventana	34.488	00:59:16:20	4.335	V2674-01
 	transect	Microstomus pacificus	600.5	2680	 	36.786076	-122.23088	1805857	0.36	2005-06-27 19:34:26.0	Ventana	34.378	02:13:05:06	5.599	V2680-03
 	transect	Phyllospadix	999.57	2669	 	36.73099	-122.23244	1683748	0.45	2005-05-25 18:33:12.0	Ventana	34.522	00:55:37:24	3.911	V2669-01
 	cruise	Pleuronectiformes	441.49	2688	 	36.803852	-122.018166	1677649	0.9	2005-07-14 17:39:12.0	Ventana	34.269	01:24:56:08	6.888	V2688-02
 	ascend	Euphausiacea	258.17	2681	 	36.697838	-122.05522	1719470	 	2005-07-07 21:29:59.0	Ventana	 	05:06:18:29	 	V2681-05
 	transect	Phyllospadix	798.83	2674	 	36.751385	-122.21512	1801405	0.35	2005-06-08 18:44:33.0	Ventana	34.489	01:28:36:08	4.339	V2674-02
 	transect	Stomphia	801.59	2674	 	36.751766	-122.2109	1801059	0.35	2005-06-08 18:23:40.0	Ventana	34.49	01:07:45:05	4.328	V2674-02
 	transect	Mediaster	 	2687	 	 	 	1807504	 	2005-07-13 17:12:58.0	Ventana	 	00:39:51:07	 	V2687-01
 	transect	Phyllospadix	800.5	2674	 	36.7525	-122.203094	1799288	0.34	2005-06-08 17:44:05.0	Ventana	34.479	00:28:38:12	4.411	V2674-01
 	transect	Phyllospadix	999.8	2669	 	36.7306	-122.22913	1651053	0.45	2005-05-25 18:07:48.0	Ventana	34.522	00:30:16:07	3.909	V2669-01
 	transect	Rathbunaster californicus	203.99	2696	 	36.80625	-122.12982	1813746	1.49	2005-08-01 18:24:44.0	Ventana	34.214	01:52:34:26	8.638	V2696-02
 	transect	Poeobius meseres	1000.93	2681	 	36.696323	-122.0526	2498683	0.47	2005-07-07 19:29:15.0	Ventana	34.531	02:58:55:29	3.874	V2681-03HD
 	descend	Appendicularia	512.08	2682	 	36.69859	-122.05978	1720850	0.41	2005-07-08 18:00:52.0	Ventana	34.354	01:54:22:02	5.923	V2682-02
 	transect	Nanomia bijuga	200.44	2681	 	36.69828	-122.05329	2490121	1.7	2005-07-07 17:04:58.0	Ventana	34.197	00:36:06:29	8.358	V2681-01HD
 	transect	Gastropoda sp.2	999.92	2669	 	36.732582	-122.25026	1736955	0.41	2005-05-25 20:35:07.0	Ventana	34.509	02:56:34:10	4.067	V2669-03
 	transect	Mediaster	 	2687	 	 	 	1808884	 	2005-07-13 17:31:11.0	Ventana	 	00:58:03:21	 	V2687-01
 	transect	Ophiuroidea	999.07	2669	 	36.73105	-122.23117	1683545	0.45	2005-05-25 18:23:59.0	Ventana	34.521	00:46:25:18	3.914	V2669-01
 	descend	Nanomia	218.82	2681	 	36.69849	-122.053505	1713574	1.53	2005-07-07 17:15:04.367	Ventana	34.213	00:46:12:05	8.259	V2681-01
 	ascend	Hastigerinella digitata	311.66	2681	 	36.69966	-122.05526	1718169	1.26	2005-07-07 20:58:11.9	Ventana	34.235	04:26:32:14	7.513	V2681-05
 	transect	Anthoptilum grandiflorum	998.16	2669	 	36.733036	-122.252815	1737504	0.4	2005-05-25 20:49:41.0	Ventana	34.508	03:10:29:13	4.074	V2669-04
 	transect	Pennatulacea sp.1	602.38	2680	 	36.790215	-122.23268	1806752	0.35	2005-06-27 20:17:28.0	Ventana	34.379	02:56:05:13	5.589	V2680-03
 	descend	Solmissus	267.64	2682	 	36.6998	-122.0608	1720019	1.35	2005-07-08 16:27:44.0	Ventana	34.228	00:21:48:11	7.722	V2682-01
 	transect	Mesomyaria	1000.2	2669	 	36.732018	-122.24722	1735857	0.41	2005-05-25 20:13:35.0	Ventana	34.509	02:35:04:10	4.065	V2669-03
 	transect	cydippida	100.55	2681	 	36.69983	-122.05429	2489572	2.13	2005-07-07 16:45:14.0	Ventana	34.068	00:16:22:26	9.15	V2681-01HD
 	transect	Rathbunaster californicus	 	2687	 	 	 	1812648	 	2005-07-13 20:49:43.0	Ventana	 	04:14:13:16	 	V2687-05
 	cruise	Pleuronectiformes	98.41	2688	 	36.81402	-122.01845	1679499	1.93	2005-07-14 21:19:06.0	Ventana	34.103	05:03:19:09	8.897	V2688-05
 	transect	Psolus squamatus	 	2687	 	 	 	1809982	 	2005-07-13 18:49:26.0	Ventana	 	02:15:12:00	 	V2687-03
 	descend	Aegina	700.7	2681	 	36.697968	-122.05373	1716052	0.29	2005-07-07 18:33:05.367	Ventana	34.433	02:03:25:23	4.982	V2681-02
 	transect	Mesomyaria	999.96	2669	http://search.mbari.org/ARCHIVE/frameGrabs/Ventana/images/2669/02_13_40_22.jpg	36.73176	-122.24438	1734289	0.4	2005-05-25 19:52:09.0	Ventana	34.507	02:13:40:22	4.082	V2669-03
 	transect	Caridea sp.1	800.65	2674	 	36.751064	-122.21789	1803537	0.35	2005-06-08 18:57:46.0	Ventana	34.486	01:41:48:23	4.377	V2674-02
 	descend	Copepoda	355.53	2683	 	36.70132	-122.0499	1756572	1.18	2005-07-11 16:56:50.0	Ventana	34.23	00:44:31:06	7.179	V2683-01
 	descend	Bathochordaeus	192.91	2693	http://search.mbari.org/ARCHIVE/frameGrabs/Ventana/images/2693/00_55_38_03.jpg	36.69609	-122.058174	20005473	1.8	2005-07-25 18:15:08.0	Ventana	34.185	00:55:38:03	8.898	V2693-01
 	transect	Allocentrotus fragilis	399.93	2687	 	36.788155	-122.12185	1809368	1.15	2005-07-13 17:40:13.0	Ventana	34.238	01:06:35:09	7.314	V2687-02
 	transect	Nanomia bijuga	200.45	2681	 	36.69828	-122.05329	2490656	1.73	2005-07-07 17:08:05.0	Ventana	34.193	00:39:12:06	8.328	V2681-01HD
 	transect	Mesomyaria	1000.5	2669	 	36.73124	-122.24102	1689372	0.41	2005-05-25 19:34:10.0	Ventana	34.51	01:56:08:05	4.055	V2669-02
 	ascend	Poeobius meseres	705.31	2682	 	36.698845	-122.05936	1723332	0.29	2005-07-08 20:31:53.0	Ventana	34.426	04:24:03:02	5.028	V2682-05
 	transect	Mesomyaria	999.72	2669	 	36.73134	-122.235954	1684505	0.44	2005-05-25 18:57:14.0	Ventana	34.521	01:19:13:27	3.934	V2669-02
 	transect	Mesomyaria	1000.24	2669	 	36.73092	-122.23268	1683799	0.45	2005-05-25 18:34:54.0	Ventana	34.52	00:57:20:07	3.911	V2669-01
 	descend	Nanomia	427.49	2681	 	36.698074	-122.053825	1715318	0.67	2005-07-07 17:51:30.867	Ventana	34.297	01:21:53:10	6.458	V2681-02
 	transect	Phyllospadix	801.03	2674	 	36.75255	-122.201355	1774195	0.34	2005-06-08 17:35:22.0	Ventana	34.482	00:19:55:12	4.38	V2674-01
 	transect	Phyllospadix	196.87	2696	 	36.80265	-122.12169	1813022	1.53	2005-08-01 16:55:38.0	Ventana	34.203	00:23:57:09	8.577	V2696-01
 	transect	Poeobius meseres	800.92	2681	 	36.695427	-122.05127	2498148	0.31	2005-07-07 18:55:41.0	Ventana	34.476	02:25:22:28	4.491	V2681-03HD
 	transect	Mesomyaria	1000.18	2669	 	36.73176	-122.2449	1734478	0.4	2005-05-25 19:55:46.0	Ventana	34.508	02:17:16:25	4.072	V2669-03
 	transect	rock outcrop	 	2687	http://search.mbari.org/ARCHIVE/frameGrabs/Ventana/images/2687/03_18_12_18.jpg	 	 	1811103	 	2005-07-13 19:53:11.0	Ventana	 	03:18:12:18	 	V2687-04
 	transect	Phyllospadix	599.35	2680	 	36.779305	-122.22439	1804501	0.36	2005-06-27 18:08:16.0	Ventana	34.377	00:48:22:10	5.6	V2680-01
 	ascend	Medusae	261.05	2681	 	36.698856	-122.05699	1718972	1.42	2005-07-07 21:20:19.407	Ventana	34.231	04:48:38:03	7.953	V2681-05
 	transect	Ophiuroidea	1000.33	2669	 	36.731937	-122.24644	1735691	0.41	2005-05-25 20:07:57.0	Ventana	34.51	02:29:26:13	4.064	V2669-03
 	transect	Euphausia	200.36	2681	 	36.698338	-122.05345	2491362	1.67	2005-07-07 17:13:44.0	Ventana	34.201	00:44:52:26	8.341	V2681-01HD
 	transect	Allocentrotus fragilis	 	2687	 	 	 	1812316	 	2005-07-13 20:32:02.0	Ventana	 	03:57:00:05	 	V2687-04
 	transect	Dosidicus gigas	500.6	2681	 	36.697853	-122.05361	2493281	0.44	2005-07-07 17:55:23.0	Ventana	34.347	01:25:46:20	6.02	V2681-02HD
 	cruise	Lycodes	516.07	2688	 	36.80058	-122.01904	1677520	0.68	2005-07-14 17:18:27.0	Ventana	34.31	01:04:43:22	6.406	V2688-01
 	transect	Phyllospadix	999.78	2669	 	36.731396	-122.2371	1687453	0.44	2005-05-25 19:07:24.0	Ventana	34.518	01:29:22:29	3.947	V2669-02
 	transect	Gastropoda sp.2	1000.34	2669	 	36.731564	-122.24306	1733772	0.41	2005-05-25 19:44:48.0	Ventana	34.512	02:06:20:01	4.075	V2669-03
 	descend	Poeobius meseres	1117.33	2683	 	36.705116	-122.048904	1757476	0.6	2005-07-11 19:30:51.0	Ventana	34.548	03:11:12:02	3.641	V2683-03
 	transect	Ophiuroidea	998.29	2669	 	36.730953	-122.23011	1651251	0.45	2005-05-25 18:15:05.0	Ventana	34.522	00:37:32:18	3.912	V2669-01
 	transect	Psolus squamatus	 	2687	 	 	 	1810397	 	2005-07-13 19:16:58.0	Ventana	 	02:42:42:01	 	V2687-03
 	ascend	Chaetognatha	422.46	2681	 	36.699203	-122.054214	1717943	0.78	2005-07-07 20:44:33.667	Ventana	34.277	04:13:10:03	6.638	V2681-05
 	transect	Lycenchelys camchatica	997.51	2669	 	36.73063	-122.22805	1649332	0.45	2005-05-25 18:00:58.0	Ventana	34.522	00:23:26:04	3.907	V2669-01
 	descend	Calycophorae	544.8	2682	 	36.69862	-122.05976	1720891	0.37	2005-07-08 18:04:39.0	Ventana	34.368	01:58:08:03	5.725	V2682-02
 	cruise	Rathbunaster californicus	105.19	2688	 	36.81454	-122.01666	1679255	1.97	2005-07-14 19:37:37.0	Ventana	34.087	03:22:24:18	8.893	V2688-04
 	transect	Ophiuroidea	999.9	2669	 	36.73141	-122.23671	1684828	0.44	2005-05-25 19:03:47.0	Ventana	34.52	01:25:46:18	3.938	V2669-02
 	cruise	Rathbunaster californicus	257.39	2688	 	36.809204	-122.02036	1677903	1.52	2005-07-14 18:28:47.0	Ventana	34.198	02:14:02:26	8.185	V2688-03
 	transect	Chionoecetes tanneri	1000.27	2669	 	36.73186	-122.245255	1735368	0.4	2005-05-25 19:58:40.0	Ventana	34.508	02:20:10:14	4.07	V2669-03
 	descend	Nanomia	148.17	2693	 	36.69632	-122.05773	1758182	1.94	2005-07-25 17:56:31.0	Ventana	34.112	00:37:03:05	9.003	V2693-01
 	transect	Phyllospadix	800.79	2674	 	36.752514	-122.20281	1799251	0.34	2005-06-08 17:42:42.0	Ventana	34.482	00:27:15:05	4.383	V2674-01
 	transect	Mesomyaria	998.34	2669	 	36.732983	-122.25232	1737426	0.4	2005-05-25 20:47:15.0	Ventana	34.508	03:08:03:19	4.076	V2669-04
 	transect	Chionoecetes tanneri	800.58	2674	http://search.mbari.org/ARCHIVE/frameGrabs/Ventana/images/2674/00_59_04_07.jpg	36.752033	-122.209015	1800847	0.35	2005-06-08 18:14:33.0	Ventana	34.49	00:59:04:07	4.341	V2674-01
 	transect	Mesomyaria	800.17	2674	 	36.75176	-122.21201	1801170	0.35	2005-06-08 18:28:12.0	Ventana	34.487	01:12:16:08	4.337	V2674-02
 	descend	Aegina	801.82	2683	 	36.702663	-122.04878	1757153	0.36	2005-07-11 18:00:56.0	Ventana	34.463	01:45:01:19	4.615	V2683-02
 	transect	Diogenidae	602.42	2680	 	36.79008	-122.23266	1806743	0.35	2005-06-27 20:16:19.0	Ventana	34.379	02:54:55:26	5.584	V2680-03
 	transect	Mesomyaria	998.56	2669	 	36.73118	-122.234375	1684122	0.45	2005-05-25 18:44:37.0	Ventana	34.522	01:06:37:09	3.916	V2669-02
 	transect	Psolus squamatus	 	2687	 	 	 	1808662	 	2005-07-13 17:26:36.0	Ventana	 	00:53:29:03	 	V2687-01
 	ascend	Euphausiacea	258.17	2681	 	36.697838	-122.05522	1719295	 	2005-07-07 21:29:59.0	Ventana	 	04:59:51:25	 	V2681-05
 	transect	Umbellula lindahli	598.41	2680	 	36.780876	-122.22584	1804824	0.35	2005-06-27 18:28:23.0	Ventana	34.38	01:07:29:17	5.572	V2680-02
 	transect	Mediaster	400.09	2687	 	36.7894	-122.125496	1809691	1.13	2005-07-13 18:35:48.0	Ventana	34.243	02:02:06:12	7.262	V2687-02
 	cruise	Sebastes	457.65	2676	http://search.mbari.org/ARCHIVE/frameGrabs/Ventana/images/2676/00_20_03_02.jpg	36.80282	-122.02931	1676307	0.59	2005-06-14 16:35:55.0	Ventana	34.326	00:20:03:02	6.241	V2676-01
 	ascend	Mysidae	851.36	2681	 	36.698563	-122.05578	1717376	0.33	2005-07-07 19:55:00.9	Ventana	34.492	03:24:03:08	4.35	V2681-04
 	transect	Mediaster	 	2687	 	 	 	1812639	 	2005-07-13 20:49:13.0	Ventana	 	04:13:43:14	 	V2687-05
 	ascend	Lobata	724.47	2683	 	36.70604	-122.04868	1757859	0.29	2005-07-11 21:04:41.0	Ventana	34.454	04:37:34:11	4.726	V2683-05
 	transect	Ophiuroidea	1000.34	2669	 	36.731564	-122.242905	1694562	0.4	2005-05-25 19:44:00.0	Ventana	34.505	02:05:57:15	4.096	V2669-02
 	transect	Mesomyaria	998.1	2669	 	36.733006	-122.25276	1737486	0.4	2005-05-25 20:49:23.0	Ventana	34.508	03:10:11:02	4.075	V2669-04
 	transect	Poeobius meseres	1001.07	2681	 	36.69471	-122.05049	2498531	0.47	2005-07-07 19:21:01.0	Ventana	34.532	02:50:40:29	3.867	V2681-03HD
 	transect	molt	50.41	2681	 	36.69983	-122.05429	2485650	2.98	2005-07-07 16:36:53.0	Ventana	33.915	00:08:02:28	9.63	V2681-01HD
 	transect	cydippida	100.53	2681	 	36.69983	-122.05429	2489567	2.13	2005-07-07 16:45:04.0	Ventana	34.068	00:16:14:11	9.147	V2681-01HD
 	ascend	Sergestes similis	300.83	2693	 	36.691486	-122.062096	1759072	1.32	2005-07-25 21:19:24.0	Ventana	34.238	03:43:55:18	7.721	V2693-04
 	transect	Brisaster	598.03	2680	 	36.781147	-122.22609	1804884	0.35	2005-06-27 18:32:23.0	Ventana	34.377	01:11:29:11	5.598	V2680-02
 	transect	Appendicularia	400.81	2681	 	36.69608	-122.05154	2492958	0.79	2005-07-07 17:42:21.0	Ventana	34.278	01:12:45:01	6.661	V2681-02HD
 	transect	Psolus squamatus	 	2687	 	 	 	1808722	 	2005-07-13 17:27:51.0	Ventana	 	00:54:43:10	 	V2687-01
 	transect	Neptunea amianta	802.72	2674	 	36.75231	-122.205666	1799818	0.36	2005-06-08 17:58:13.0	Ventana	34.488	00:42:45:22	4.332	V2674-01
 	descend	Nanomia	288.94	2682	 	36.699654	-122.0608	1720061	1.3	2005-07-08 16:36:47.0	Ventana	34.225	00:30:50:12	7.578	V2682-01
 	transect	Mediaster	 	2687	 	 	 	1812376	 	2005-07-13 20:35:09.0	Ventana	 	04:00:07:14	 	V2687-04
 	descend	Copepoda	256.65	2682	 	36.699795	-122.06083	1720001	1.38	2005-07-08 16:25:55.0	Ventana	34.23	00:20:00:18	7.87	V2682-01
 	ascend	Hastigerinella digitata	333.97	2693	 	36.69239	-122.06184	1759012	1.28	2005-07-25 21:15:11.0	Ventana	34.237	03:39:43:21	7.546	V2693-04
 	transect	Mesomyaria	801.0	2674	 	36.75118	-122.2171	1803472	0.35	2005-06-08 18:53:58.0	Ventana	34.492	01:38:01:13	4.338	V2674-02
 	transect	Mesomyaria	999.58	2669	 	36.731323	-122.23592	1684445	0.44	2005-05-25 18:57:03.0	Ventana	34.52	01:19:02:22	3.936	V2669-02
 	ascend	sinker	197.96	2683	 	36.702694	-122.050705	1758122	1.69	2005-07-11 21:29:08.0	Ventana	34.173	05:01:59:04	8.506	V2683-05
 	descend	Calycophorae	336.97	2693	 	36.69712	-122.059975	1758565	1.29	2005-07-25 19:58:00.0	Ventana	34.235	02:37:35:03	7.582	V2693-03
 	transect	Phyllospadix	800.69	2674	 	36.75244	-122.204636	1799634	0.36	2005-06-08 17:52:58.0	Ventana	34.49	00:37:30:23	4.348	V2674-01
 	transect	Sebastes diploproa	 	2687	 	 	 	1810780	 	2005-07-13 19:34:16.0	Ventana	 	02:59:58:24	 	V2687-03
 	transect	Bargmannia	400.8	2681	 	36.69581	-122.05121	2492898	0.79	2005-07-07 17:40:59.0	Ventana	34.278	01:11:22:00	6.668	V2681-02HD
 	transect	Brisaster	999.48	2669	 	36.73099	-122.23237	1683739	0.45	2005-05-25 18:32:20.0	Ventana	34.524	00:54:45:28	3.914	V2669-01
 	transect	Ceriantharia sp. 1	601.16	2680	 	36.78519	-122.230484	1805774	0.36	2005-06-27 19:25:56.0	Ventana	34.378	02:04:59:01	5.6	V2680-02
 	transect	Mediaster	 	2687	 	 	 	1807126	 	2005-07-13 17:01:02.0	Ventana	 	00:27:56:01	 	V2687-01
 	transect	Phyllospadix	801.57	2674	 	36.75222	-122.20762	1800081	0.38	2005-06-08 18:07:49.0	Ventana	34.486	00:52:20:16	4.35	V2674-01
 	transect	Ophiuroidea	997.11	2669	 	36.731155	-122.2309	1683476	0.45	2005-05-25 18:21:55.0	Ventana	34.521	00:44:22:05	3.93	V2669-01
 	ascend	Nanomia	258.17	2681	 	36.697838	-122.05522	1719355	 	2005-07-07 21:29:59.0	Ventana	 	05:02:08:27	 	V2681-05
 	transect	Eptatretus stoutii	999.91	2669	 	36.73261	-122.250946	1737043	0.4	2005-05-25 20:38:35.0	Ventana	34.508	03:00:03:04	4.081	V2669-03
 	transect	Psolus squamatus	 	2687	 	 	 	1810074	 	2005-07-13 18:54:21.0	Ventana	 	02:20:06:04	 	V2687-03
 	cruise	Appendicularia	103.6	2676	 	36.80763	-122.03915	1677137	1.95	2005-06-14 19:06:57.0	Ventana	34.153	02:45:43:07	8.455	V2676-03
 	transect	cydippida	500.64	2681	 	36.69636	-122.05191	2493604	0.44	2005-07-07 18:01:43.0	Ventana	34.347	01:32:06:08	6.011	V2681-02HD
 	cruise	Bathocyroe	475.77	2688	 	36.80212	-122.018265	1677580	0.8	2005-07-14 17:28:25.0	Ventana	34.289	01:14:09:08	6.708	V2688-02
 	transect	Phyllospadix	204.2	2696	 	36.80596	-122.12949	1813728	1.49	2005-08-01 18:20:59.0	Ventana	34.209	01:48:50:16	8.634	V2696-02
 	transect	Ceriantharia sp. 2	999.93	2669	 	36.731747	-122.244026	1734095	0.41	2005-05-25 19:50:26.0	Ventana	34.51	02:11:55:24	4.074	V2669-03
 	descend	Myctophidae	480.99	2683	 	36.70152	-122.04932	1756770	0.74	2005-07-11 17:22:22.0	Ventana	34.289	01:06:30:14	6.591	V2683-02
 	transect	Phyllospadix	800.14	2674	 	36.752094	-122.208626	1800787	0.36	2005-06-08 18:12:35.0	Ventana	34.49	00:57:07:01	4.319	V2674-01
 	transect	Mesomyaria	799.17	2674	 	36.751717	-122.212776	1801230	0.35	2005-06-08 18:30:52.0	Ventana	34.49	01:14:56:02	4.332	V2674-02
 	transect	Mysidae 2	901.02	2681	 	36.695744	-122.051674	2498411	0.39	2005-07-07 19:12:18.0	Ventana	34.505	02:42:00:07	4.174	V2681-03HD
 	transect	Mesomyaria	999.88	2669	 	36.731094	-122.23912	1689109	0.43	2005-05-25 19:22:07.0	Ventana	34.518	01:44:05:17	3.97	V2669-02
 	transect	Gastropoda sp.2	999.49	2669	 	36.731197	-122.23567	1694682	0.44	2005-05-25 18:55:09.0	Ventana	34.52	01:17:09:02	3.935	V2669-02
 	descend	Appendicularia	308.49	2683	 	36.701107	-122.05014	1756507	1.25	2005-07-11 16:54:10.0	Ventana	34.24	00:41:49:13	7.64	V2683-01
 	ascend	Euphausiacea	290.53	2681	 	36.699738	-122.055214	1718206	1.36	2005-07-07 21:00:13.533	Ventana	34.23	04:28:33:14	7.721	V2681-05
 	ascend	Appendicularia	342.53	2693	 	36.69316	-122.06138	1758952	1.25	2005-07-25 21:11:10.0	Ventana	34.237	03:35:41:29	7.419	V2693-04
 	transect	Psolus squamatus	 	2687	 	 	 	1807186	 	2005-07-13 17:02:56.0	Ventana	 	00:29:50:13	 	V2687-01
 	transect	Ceriantharia sp. 1	800.69	2674	 	36.751064	-122.2178	1803532	0.35	2005-06-08 18:57:21.0	Ventana	34.49	01:41:23:14	4.361	V2674-02
 	transect	Psolus squamatus	 	2687	 	 	 	1807712	 	2005-07-13 17:24:04.0	Ventana	 	00:50:56:28	 	V2687-01
 	transect	Porifera sp. 1	 	2687	 	 	 	1810337	 	2005-07-13 19:16:03.0	Ventana	 	02:41:47:01	 	V2687-03
 	ascend	Nanomia	156.23	2682	 	36.69627	-122.06049	1723779	1.64	2005-07-08 21:33:12.0	Ventana	34.184	05:24:51:19	8.932	V2682-06
 	transect	molt	100.49	2681	 	36.699825	-122.05429	2489687	2.13	2005-07-07 16:47:53.0	Ventana	34.067	00:19:01:20	9.15	V2681-01HD
 	transect	Leuroglossus stilbius	500.62	2681	 	36.697662	-122.05343	2493341	0.44	2005-07-07 17:56:07.0	Ventana	34.347	01:26:30:27	6.018	V2681-02HD
 	transect	Poeobius meseres	500.56	2681	 	36.697014	-122.05261	2493544	0.44	2005-07-07 17:59:10.0	Ventana	34.344	01:29:33:29	6.025	V2681-02HD
 	stationary	Merluccius productus	501.95	2694	 	36.784565	-122.20048	1676570	0.77	2005-07-27 18:41:44.0	Ventana	34.281	01:24:26:01	6.541	V2694-02
 	endtransect	physical object	800.53	2674	 	36.75197	-122.20949	1800907	0.36	2005-06-08 18:17:17.0	Ventana	34.492	01:01:21:11	4.32	V2674-01
 	transect	Mesomyaria	800.33	2674	 	36.751755	-122.21146	1801110	0.35	2005-06-08 18:25:51.0	Ventana	34.488	01:09:55:16	4.349	V2674-02
 	descend	Solmissus	 	2693	 	 	 	1759455	 	2005-07-25 16:45:52.0	Ventana	 	00:24:24:26	 	V2693-01
 	transect	Mesomyaria	1000.34	2669	 	36.731304	-122.24151	1689815	0.4	2005-05-25 19:36:46.0	Ventana	34.508	01:58:43:27	4.091	V2669-02
 	transect	molt	100.47	2681	 	36.698814	-122.053635	2489890	2.14	2005-07-07 16:52:26.0	Ventana	34.068	00:23:36:02	9.136	V2681-01HD
 	transect	Psolus squamatus	 	2687	 	 	 	1811043	 	2005-07-13 19:49:17.0	Ventana	 	03:14:17:27	 	V2687-04
 	transect	Neptunea amianta	800.36	2674	 	36.752583	-122.20237	1799191	0.34	2005-06-08 17:40:34.0	Ventana	34.476	00:25:07:27	4.408	V2674-01
 	transect	Lycenchelys camchatica	802.35	2674	 	36.752308	-122.20597	1799878	0.36	2005-06-08 17:59:54.0	Ventana	34.491	00:44:26:24	4.337	V2674-01
 	cruise	mud	997.62	2669	http://search.mbari.org/ARCHIVE/frameGrabs/Ventana/images/2669/00_16_19_13.jpg	36.730606	-122.22697	20003775	0.45	2005-05-25 17:53:51.0	Ventana	34.522	00:16:19:13	3.91	V2669-01
 	transect	Ceriantharia sp. 2	 	2669	 	 	 	1737689	 	2005-05-25 13:57:21.0	Ventana	 	03:18:08:11	 	V2669-04
 	transect	molt	50.39	2681	 	36.69983	-122.05429	2485710	3.0	2005-07-07 16:37:50.0	Ventana	33.913	00:09:00:10	9.634	V2681-01HD
 	transect	Mesomyaria	998.13	2669	 	36.733124	-122.25303	1737546	0.4	2005-05-25 20:51:00.0	Ventana	34.509	03:11:53:02	4.076	V2669-04
 	transect	Phyllospadix	800.99	2674	 	36.752132	-122.20822	1800727	0.35	2005-06-08 18:10:46.0	Ventana	34.49	00:55:18:05	4.32	V2674-01
 	transect	Actiniaria sp. 1	798.47	2674	 	36.751656	-122.21355	1801290	0.35	2005-06-08 18:35:21.0	Ventana	34.487	01:19:25:07	4.35	V2674-02
 	transect	Rathbunaster californicus	203.21	2696	 	36.806625	-122.130196	1813788	1.48	2005-08-01 18:30:21.0	Ventana	34.214	01:58:11:18	8.647	V2696-02
 	transect	Phyllospadix	 	2687	 	 	 	1807509	 	2005-07-13 17:13:36.0	Ventana	 	00:40:29:25	 	V2687-01
 	descend	sinker	451.72	2683	 	36.701595	-122.04938	1756710	0.8	2005-07-11 17:09:10.0	Ventana	34.28	00:56:49:14	6.696	V2683-01
 	transect	Phyllospadix	799.89	2674	 	36.75252	-122.20367	1799371	0.35	2005-06-08 17:47:28.0	Ventana	34.483	00:32:01:08	4.378	V2674-01
 	ascend	Sergestes similis	377.94	2693	 	36.696217	-122.06057	1758749	1.19	2005-07-25 20:48:37.0	Ventana	34.23	03:13:10:21	7.148	V2693-04
 	transect	Caridea sp.1	599.25	2680	 	36.779797	-122.224945	1804561	0.36	2005-06-27 18:15:31.0	Ventana	34.378	00:55:36:25	5.59	V2680-01
 	transect	sinker	300.41	2681	 	36.696613	-122.0522	2492515	1.23	2005-07-07 17:26:14.0	Ventana	34.233	00:57:21:14	7.398	V2681-01HD
 	ascend	Appendicularia	627.65	2681	 	36.698917	-122.05423	1717680	0.31	2005-07-07 20:28:28.633	Ventana	34.39	03:57:28:28	5.423	V2681-04
 	transect	Mediaster	 	2687	 	 	 	1810134	 	2005-07-13 18:58:53.0	Ventana	 	02:24:38:18	 	V2687-03
 	descend	Poeobius meseres	1044.62	2683	 	36.704918	-122.04919	1757416	0.47	2005-07-11 19:24:47.0	Ventana	34.531	03:05:08:07	3.874	V2683-03
 	transect	Phyllospadix	799.96	2674	 	36.751316	-122.215515	1803352	0.35	2005-06-08 18:46:12.0	Ventana	34.486	01:30:15:08	4.356	V2674-02
 	transect	Pennatulacea sp.1	599.84	2680	 	36.778294	-122.223465	1804381	0.36	2005-06-27 17:56:35.0	Ventana	34.379	00:36:42:10	5.585	V2680-01
 	transect	Phyllospadix	800.73	2674	 	36.752575	-122.20028	1774075	0.31	2005-06-08 17:28:51.0	Ventana	34.469	00:13:25:16	4.513	V2674-01
 	transect	Chaetognatha	400.72	2681	 	36.697865	-122.053566	2493221	0.79	2005-07-07 17:49:51.0	Ventana	34.278	01:20:14:28	6.66	V2681-02HD
 	cruise	Zoarcidae	382.82	2690	 	36.79014	-121.88782	1669968	0.94	2005-07-18 19:49:12.0	Ventana	34.27	01:04:19:08	6.946	V2690-01
 	ascend	Calycophorae	580.5	2682	 	36.69836	-122.06236	1723576	0.37	2005-07-08 21:05:52.0	Ventana	34.363	04:57:57:26	5.768	V2682-05
 	transect	Sebastolobus	399.87	2687	 	36.788136	-122.121635	1809248	1.13	2005-07-13 17:37:35.0	Ventana	34.243	01:03:57:12	7.255	V2687-02
 	transect	Psolus squamatus	 	2687	 	 	 	1811163	 	2005-07-13 19:58:15.0	Ventana	 	03:23:15:11	 	V2687-04
 	descend	Poeobius meseres	1186.61	2682	 	36.69851	-122.05833	1722243	0.67	2005-07-08 19:33:54.0	Ventana	34.569	03:26:31:05	3.386	V2682-04
 	descend	Calycophorae	822.43	2682	 	36.698357	-122.05954	1721717	0.32	2005-07-08 18:43:27.0	Ventana	34.477	02:36:29:29	4.473	V2682-03
 	transect	Phyllospadix	799.08	2674	 	36.752514	-122.20436	1799574	0.35	2005-06-08 17:51:12.0	Ventana	34.488	00:35:45:12	4.374	V2674-01
 	cruise	Rathbunaster californicus	197.52	2696	 	36.802673	-122.12168	1812902	1.56	2005-08-01 16:43:43.0	Ventana	34.202	00:12:02:22	8.589	V2696-01
 	transect	Brisaster	1000.85	2669	 	36.73229	-122.249176	1736277	0.41	2005-05-25 20:27:01.0	Ventana	34.51	02:48:29:29	4.069	V2669-03
 	transect	Leptomedusae	200.43	2681	 	36.69828	-122.0533	2490776	1.73	2005-07-07 17:08:47.0	Ventana	34.193	00:39:54:13	8.321	V2681-01HD
 	cruise	slope	97.81	2688	 	36.81685	-122.014244	1679315	1.99	2005-07-14 19:52:03.0	Ventana	34.086	03:36:50:01	8.917	V2688-04
 	ascend	Aegina	670.34	2681	 	36.69876	-122.054375	1717639	0.28	2005-07-07 20:23:34.167	Ventana	34.411	03:52:35:09	5.197	V2681-04
 	ascend	Euphausiacea	259.47	2681	 	36.69942	-122.05454	1718589	1.42	2005-07-07 21:12:51.467	Ventana	34.225	04:41:11:03	7.96	V2681-05
 	cruise	Lycodapus	1220.46	2683	 	36.7062	-122.04771	1757596	0.73	2005-07-11 20:02:16.0	Ventana	34.576	03:36:39:19	3.336	V2683-04
 	transect	Ceriantharia sp. 1	602.54	2680	 	36.790707	-122.23282	1806803	0.35	2005-06-27 20:22:26.0	Ventana	34.378	03:01:02:19	5.59	V2680-03
 	transect	Mesomyaria	802.94	2674	 	36.75082	-122.2201	1803675	0.34	2005-06-08 19:07:10.0	Ventana	34.484	01:51:12:06	4.39	V2674-02
 	stationary	Phyllospadix	1282.97	2673	 	36.802937	-121.804695	1668353	0.8	2005-06-07 17:32:30.0	Ventana	34.58	00:16:21:10	3.237	V2673-01
 	descend	Poeobius meseres	602.01	2681	 	36.69568	-122.051094	1715641	0.31	2005-07-07 18:07:55.813	Ventana	34.386	01:38:17:08	5.496	V2681-02
 	ascend	Appendicularia	1185.13	2682	 	36.698326	-122.05751	1722423	0.66	2005-07-08 19:52:40.0	Ventana	34.566	03:45:14:16	3.419	V2682-04
 	transect	Parastichopus leukothele	201.03	2696	 	36.805256	-122.12819	1813608	1.5	2005-08-01 18:04:07.0	Ventana	34.211	01:31:59:21	8.668	V2696-02
 	descend	Appendicularia	710.24	2683	 	36.702137	-122.048935	1757093	0.3	2005-07-11 17:55:00.0	Ventana	34.421	01:39:05:23	5.028	V2683-02
 	transect	Euplexaura	 	2687	 	 	 	1809954	 	2005-07-13 18:48:37.0	Ventana	 	02:14:23:11	 	V2687-03
 	transect	Ceriantharia sp. 2	1000.36	2669	 	36.73194	-122.24667	1735751	0.41	2005-05-25 20:10:01.0	Ventana	34.51	02:31:31:10	4.064	V2669-03
 	stationary	Merluccius productus	501.77	2694	 	36.784554	-122.20048	1676187	0.74	2005-07-27 17:47:43.0	Ventana	34.284	00:40:49:08	6.463	V2694-01
 	descend	Appendicularia	518.35	2683	 	36.701458	-122.04915	1756890	0.6	2005-07-11 17:41:12.0	Ventana	34.311	01:25:18:24	6.323	V2683-02
 	transect	Euphausia	200.39	2681	 	36.698284	-122.053314	2490979	1.71	2005-07-07 17:10:23.0	Ventana	34.187	00:41:31:26	8.319	V2681-01HD
 	transect	Sebastolobus altivelis	801.87	2674	 	36.752262	-122.20709	1800021	0.36	2005-06-08 18:05:14.0	Ventana	34.492	00:49:46:07	4.356	V2674-01
 	transect	Ophiuroidea	998.45	2669	 	36.731113	-122.230736	1683416	0.45	2005-05-25 18:20:23.0	Ventana	34.522	00:42:49:13	3.913	V2669-01
 	transect	Mesomyaria	1000.01	2669	 	36.73101	-122.23127	1683596	0.45	2005-05-25 18:25:33.0	Ventana	34.52	00:47:59:17	3.915	V2669-01
 	transect	Pennatulacea sp.1	602.25	2680	 	36.78742	-122.23177	1805917	0.36	2005-06-27 19:49:10.0	Ventana	34.378	02:27:48:22	5.592	V2680-03
 	transect	Phyllospadix	1000.28	2669	 	36.7312	-122.240845	1689312	0.41	2005-05-25 19:32:38.0	Ventana	34.511	01:54:36:01	4.056	V2669-02
 	descend	Appendicularia	498.74	2682	 	36.6986	-122.05978	1720831	0.44	2005-07-08 17:59:24.0	Ventana	34.348	01:52:52:12	6.029	V2682-02
 	transect	Poeobius meseres	600.57	2681	 	36.696323	-122.05193	2493724	0.3	2005-07-07 18:21:31.0	Ventana	34.386	01:51:52:01	5.487	V2681-02HD
 	cruise	mud	192.65	2676	 	36.807064	-122.029564	1676814	1.6	2005-06-14 17:45:25.0	Ventana	34.196	01:25:09:03	8.099	V2676-02
 	transect	Microstomus pacificus	 	2687	 	 	 	1812699	 	2005-07-13 20:52:55.0	Ventana	 	04:17:25:19	 	V2687-05
 	ascend	Appendicularia	788.6	2681	 	36.69895	-122.056564	1717436	0.3	2005-07-07 20:03:04.2	Ventana	34.459	03:32:06:17	4.688	V2681-04
 	transect	Hastigerinella digitata	300.45	2681	 	36.697823	-122.05323	2492132	1.23	2005-07-07 17:22:07.0	Ventana	34.233	00:53:14:00	7.4	V2681-01HD
 	transect	Halipteris californica	598.49	2680	 	36.780506	-122.22548	1804764	0.35	2005-06-27 18:24:05.0	Ventana	34.377	01:03:11:22	5.561	V2680-02
 	transect	Stomphia	399.83	2687	 	36.78801	-122.12143	1809045	1.15	2005-07-13 17:34:52.0	Ventana	34.24	01:01:14:24	7.298	V2687-02
 	transect	Mesomyaria	1000.35	2669	http://search.mbari.org/ARCHIVE/frameGrabs/Ventana/images/2669/02_03_26_01.jpg	36.73152	-122.24239	1694502	0.41	2005-05-25 19:41:29.0	Ventana	34.511	02:03:26:01	4.062	V2669-02
 	descend	Colobonema	400.67	2681	 	36.695553	-122.0512	1715115	0.81	2005-07-07 17:33:40.1	Ventana	34.279	01:04:04:05	6.693	V2681-02
 	descend	Lobata	256.73	2685	 	36.793427	-121.88272	1669765	1.54	2005-07-12 20:16:08.0	Ventana	34.164	00:13:43:17	8.106	V2685-01
 	ascend	Cydippida	223.13	2693	 	36.69123	-122.06251	1759132	1.62	2005-07-25 21:23:42.0	Ventana	34.207	03:48:13:28	8.549	V2693-04
 	stationary	Merluccius productus	504.2	2695	 	36.78462	-122.2005	1824491	0.68	2005-07-28 19:06:04.0	Ventana	34.296	04:12:18:27	6.304	V2695-02
 	ascend	Appendicularia	355.28	2681	 	36.69935	-122.055046	1718063	1.04	2005-07-07 20:52:07.233	Ventana	34.255	04:20:28:05	7.155	V2681-05
 	transect	Appendicularia	400.75	2681	 	36.696526	-122.05205	2493018	0.79	2005-07-07 17:44:16.0	Ventana	34.276	01:14:40:11	6.645	V2681-02HD
 	transect	Solaster borealis	 	2669	 	 	 	1737606	 	2005-05-25 13:53:09.0	Ventana	 	03:13:57:15	 	V2669-04
 	cruise	Sebastes	94.69	2688	 	36.8148	-122.01784	1679458	1.94	2005-07-14 21:02:51.0	Ventana	34.099	04:47:04:20	8.927	V2688-05
 	transect	Mesomyaria	999.7	2669	 	36.73059	-122.22913	1651048	0.45	2005-05-25 18:07:43.0	Ventana	34.522	00:30:10:22	3.909	V2669-01
 	ascend	Leuroglossus stilbius	529.02	2683	 	36.704487	-122.05066	1757979	0.47	2005-07-11 21:15:08.0	Ventana	34.338	04:47:59:12	6.129	V2683-05
 	transect	Mediaster	 	2687	http://search.mbari.org/ARCHIVE/frameGrabs/Ventana/images/2687/03_50_12_28.jpg	 	 	1811790	 	2005-07-13 20:25:14.0	Ventana	 	03:50:12:28	 	V2687-04
 	transect	Poeobius meseres	400.74	2681	 	36.696968	-122.05258	2493078	0.79	2005-07-07 17:46:10.0	Ventana	34.277	01:16:34:22	6.658	V2681-02HD
 	transect	Sebastolobus	997.33	2669	 	36.730648	-122.22749	1649152	0.45	2005-05-25 17:57:01.0	Ventana	34.52	00:19:30:09	3.909	V2669-01
 	cruise	Pleuronectiformes	417.41	2688	 	36.80596	-122.019196	1677723	0.93	2005-07-14 17:48:38.0	Ventana	34.267	01:34:21:09	6.954	V2688-02
 	cruise	Anthomastus ritteri	433.05	2688	 	36.805283	-122.01901	1677700	0.92	2005-07-14 17:45:46.0	Ventana	34.268	01:31:29:11	6.927	V2688-02
 	descend	Atolla wyvillei	911.07	2683	http://search.mbari.org/ARCHIVE/frameGrabs/Ventana/images/2683/02_30_44_27.jpg	36.703472	-122.04846	20004947	0.38	2005-07-11 18:50:22.0	Ventana	34.502	02:30:44:27	4.199	V2683-03
 	ascend	Cydippida	192.83	2693	 	36.690605	-122.06287	1759215	1.84	2005-07-25 21:28:55.0	Ventana	34.168	03:53:26:12	8.849	V2693-04
 	transect	Psolus squamatus	 	2687	 	 	 	1808842	 	2005-07-13 17:30:21.0	Ventana	 	00:57:13:29	 	V2687-01
 	descend	Poeobius meseres	951.43	2681	 	36.69466	-122.050385	1716527	0.43	2005-07-07 19:18:32.163	Ventana	34.518	02:48:13:17	4.01	V2681-03
 	transect	Lycodes diapterus	598.28	2680	http://search.mbari.org/ARCHIVE/frameGrabs/Ventana/images/2680/01_16_08_26.jpg	36.781467	-122.22658	1805004	0.36	2005-06-27 18:37:03.0	Ventana	34.376	01:16:08:26	5.598	V2680-02
 	transect	Phyllospadix	200.19	2696	 	36.80498	-122.1277	1813548	1.51	2005-08-01 17:58:53.0	Ventana	34.212	01:26:46:02	8.677	V2696-02
 	transect	Copepoda	700.67	2681	 	36.697815	-122.05366	2497622	0.29	2005-07-07 18:36:17.0	Ventana	34.435	02:06:01:12	4.953	V2681-03HD
 	ascend	Appendicularia	518.89	2681	 	36.698963	-122.05425	1717740	0.46	2005-07-07 20:33:42.253	Ventana	34.34	04:02:42:07	6.085	V2681-04
 	transect	Phyllospadix	599.39	2680	 	36.777657	-122.222664	1804298	0.36	2005-06-27 17:48:30.0	Ventana	34.379	00:28:37:16	5.584	V2680-01
 	transect	Euphausia	200.39	2681	 	36.698307	-122.05338	2491182	1.68	2005-07-07 17:12:34.0	Ventana	34.2	00:43:42:09	8.339	V2681-01HD
 	transect	Mesomyaria	997.46	2669	 	36.7306	-122.22726	1649129	0.45	2005-05-25 17:55:46.0	Ventana	34.521	00:18:14:29	3.908	V2669-01
 	transect	chuniphyes	700.57	2681	 	36.695152	-122.05089	2497968	0.28	2005-07-07 18:47:51.0	Ventana	34.432	02:17:33:02	4.989	V2681-03HD
 	transect	Mesomyaria	1000.04	2669	 	36.731194	-122.23847	1688869	0.43	2005-05-25 19:18:06.0	Ventana	34.516	01:40:04:15	3.966	V2669-02
 	transect	Psolus squamatus	 	2687	 	 	 	1807652	 	2005-07-13 17:20:26.0	Ventana	 	00:47:18:28	 	V2687-01
 	transect	Phyllospadix	799.7	2674	 	36.75154	-122.21422	1801350	0.35	2005-06-08 18:39:53.0	Ventana	34.49	01:23:57:06	4.337	V2674-02
 	transect	Phyllospadix	197.28	2696	 	36.803417	-122.12374	1813202	1.56	2005-08-01 17:19:24.0	Ventana	34.196	00:47:41:24	8.631	V2696-01
 	transect	Calycophorae	600.6	2681	 	36.696804	-122.05252	2493784	0.3	2005-07-07 18:23:47.0	Ventana	34.388	01:54:08:12	5.477	V2681-02HD
 	transect	Mesomyaria	999.98	2669	 	36.73111	-122.23529	1684302	0.45	2005-05-25 18:52:40.0	Ventana	34.522	01:14:40:03	3.921	V2669-02
 	transect	Allocentrotus fragilis	 	2687	 	 	 	1810600	 	2005-07-13 19:23:40.0	Ventana	 	02:49:23:22	 	V2687-03
 	transect	Psolus squamatus	 	2687	 	 	 	1811467	 	2005-07-13 20:13:53.0	Ventana	 	03:38:52:03	 	V2687-04
 	descend	Appendicularia	941.97	2682	 	36.698257	-122.05936	1721800	0.36	2005-07-08 18:53:50.0	Ventana	34.502	02:46:53:00	4.228	V2682-03
 	transect	Pennatulacea sp.1	600.94	2680	 	36.78692	-122.23133	1805894	0.36	2005-06-27 19:43:26.0	Ventana	34.377	02:22:04:27	5.603	V2680-03
 	transect	Ophiuroidea	999.38	2669	 	36.73142	-122.23622	1684685	0.44	2005-05-25 18:59:14.0	Ventana	34.52	01:21:13:22	3.941	V2669-02
 	descend	Appendicularia	353.73	2683	 	36.701313	-122.049904	1756567	1.18	2005-07-11 16:56:44.0	Ventana	34.23	00:44:25:01	7.179	V2683-01
 	transect	Euplexaura	399.69	2687	 	36.78913	-122.12419	1809548	1.18	2005-07-13 18:15:27.0	Ventana	34.238	01:41:47:00	7.36	V2687-02
 	transect	Psolus squamatus	 	2687	 	 	 	1810900	 	2005-07-13 19:41:52.0	Ventana	 	03:06:54:02	 	V2687-04
 	descend	Appendicularia	565.68	2683	 	36.70183	-122.04913	1756973	0.44	2005-07-11 17:45:53.0	Ventana	34.346	01:29:58:21	6.05	V2683-02
 	ascend	Appendicularia	324.9	2681	 	36.699703	-122.055244	1718146	1.21	2005-07-07 20:56:43.467	Ventana	34.237	04:25:04:19	7.367	V2681-05
 	cruise	Alepocephalus tenebrosus	604.75	2688	 	36.796074	-122.020226	1677377	0.45	2005-07-14 16:38:57.933	Ventana	34.381	00:25:16:26	5.545	V2688-01
 	ascend	Euphausiacea	258.17	2681	 	36.697838	-122.05522	1719475	 	2005-07-07 21:29:59.0	Ventana	 	05:06:26:25	 	V2681-05
 	descend	Copepoda	902.19	2683	 	36.703506	-122.0483	1757273	0.38	2005-07-11 18:43:44.0	Ventana	34.5	02:24:08:09	4.22	V2683-03
 	descend	Appendicularia	339.77	2682	 	36.69878	-122.06058	1720181	1.05	2005-07-08 17:12:01.0	Ventana	34.251	01:05:32:19	7.153	V2682-02
 	descend	Appendicularia	205.79	2693	 	36.696033	-122.0584	1758302	1.81	2005-07-25 18:25:16.0	Ventana	34.186	01:05:20:03	8.702	V2693-02
 	transect	molt	100.5	2681	 	36.699203	-122.05389	2489830	2.13	2005-07-07 16:51:28.0	Ventana	34.068	00:22:37:22	9.141	V2681-01HD
 	transect	Mediaster	 	2687	 	 	 	1811306	 	2005-07-13 20:06:21.0	Ventana	 	03:31:20:22	 	V2687-04
 	ascend	Solmissus	254.62	2681	 	36.698524	-122.05628	1719152	1.46	2005-07-07 21:24:01.2	Ventana	34.225	04:52:19:20	8.0	V2681-05
 	transect	Phyllospadix	800.62	2674	 	36.752586	-122.20175	1799108	0.34	2005-06-08 17:37:38.0	Ventana	34.484	00:22:12:09	4.416	V2674-01
 	transect	Mesomyaria	803.0	2674	 	36.75181	-122.21014	1800990	0.36	2005-06-08 18:20:31.0	Ventana	34.49	01:04:36:05	4.316	V2674-02
 	transect	Mediaster	 	2687	 	 	 	1812496	 	2005-07-13 20:41:45.0	Ventana	 	04:06:42:27	 	V2687-04
 	cruise	Merluccius productus	503.34	2694	 	36.784218	-122.200615	1676164	0.76	2005-07-27 17:08:56.0	Ventana	34.288	00:02:05:01	6.49	V2694-01
 	transect	Mesomyaria	998.82	2669	 	36.732853	-122.25182	1737246	0.4	2005-05-25 20:44:02.0	Ventana	34.507	03:04:49:28	4.078	V2669-04
 	descend	benthos	1004.17	2679	http://search.mbari.org/ARCHIVE/frameGrabs/Ventana/images/2679/00_00_37_04.jpg	36.68986	-122.1656	20004241	0.41	2005-06-16 17:29:16.0	Ventana	34.513	00:00:37:04	4.116	V2679-01
 	ascend	Appendicularia	929.64	2682	 	36.697937	-122.0585	1723129	0.38	2005-07-08 20:12:05.0	Ventana	34.505	04:04:16:14	4.188	V2682-05
 	transect	Ceriantharia sp. 1	599.91	2680	 	36.783493	-122.22894	1805410	0.35	2005-06-27 19:07:56.0	Ventana	34.38	01:47:00:01	5.583	V2680-02
 	transect	Poeobius meseres	1000.97	2681	 	36.69622	-122.052444	2498674	0.47	2005-07-07 19:28:45.0	Ventana	34.532	02:58:24:22	3.872	V2681-03HD
 	ascend	sinker	894.84	2682	 	36.698223	-122.058426	1723212	0.35	2005-07-08 20:14:40.0	Ventana	34.495	04:06:50:23	4.276	V2682-05
 	transect	Neptunea amianta	999.71	2669	 	36.731804	-122.2445	1734358	0.4	2005-05-25 19:53:00.0	Ventana	34.508	02:14:31:14	4.076	V2669-03
 	ascend	Euphausiacea	258.17	2681	 	36.697838	-122.05522	1719558	 	2005-07-07 21:29:59.0	Ventana	 	05:13:45:20	 	V2681-05
 	transect	Stylasterias forreri	 	2687	 	 	 	1807592	 	2005-07-13 17:16:30.0	Ventana	 	00:43:23:17	 	V2687-01
 	transect	Mediaster	 	2687	 	 	 	1810960	 	2005-07-13 19:44:12.0	Ventana	 	03:09:13:24	 	V2687-04
 	ascend	Leuroglossus stilbius	534.57	2682	 	36.698334	-122.06284	1723636	0.43	2005-07-08 21:10:21.0	Ventana	34.347	05:02:01:15	6.004	V2682-06
 	transect	Sebastolobus altivelis	802.03	2674	 	36.7509	-122.21986	1803652	0.35	2005-06-08 19:06:01.0	Ventana	34.487	01:50:03:14	4.37	V2674-02
 	ascend	Poeobius meseres	1147.93	2682	 	36.698223	-122.05748	1722506	0.62	2005-07-08 19:55:02.0	Ventana	34.561	03:47:37:13	3.509	V2682-04
 	transect	Phyllospadix	801.8	2674	 	36.751774	-122.21081	1801050	0.36	2005-06-08 18:23:21.0	Ventana	34.492	01:07:25:28	4.322	V2674-02
 	transect	Allocentrotus fragilis	 	2687	 	 	 	1811246	 	2005-07-13 20:05:30.0	Ventana	 	03:30:29:27	 	V2687-04
 	transect	Gastropoda sp.2	998.23	2669	 	36.731056	-122.23037	1695065	0.45	2005-05-25 18:17:29.0	Ventana	34.521	00:39:56:12	3.908	V2669-01
 	ascend	Chaetognatha	256.57	2681	 	36.698685	-122.05666	1719115	1.44	2005-07-07 21:23:04.423	Ventana	34.229	04:51:23:28	7.958	V2681-05
 	transect	Pennatulacea sp.1	599.81	2680	 	36.778126	-122.2233	1804358	0.36	2005-06-27 17:54:20.0	Ventana	34.377	00:34:26:29	5.589	V2680-01
 	transect	Mediaster	 	2687	 	 	 	1811873	 	2005-07-13 20:27:53.0	Ventana	 	03:52:51:13	 	V2687-04
 	transect	Pseudosagitta maxima	400.79	2681	 	36.697353	-122.05302	2493138	0.79	2005-07-07 17:47:45.0	Ventana	34.279	01:18:09:09	6.663	V2681-02HD
 	ascend	Chaetognatha	368.8	2693	 	36.695522	-122.0608	1758809	1.22	2005-07-25 20:55:21.0	Ventana	34.238	03:19:54:08	7.296	V2693-04
 	transect	Mesomyaria	1000.11	2669	 	36.731045	-122.23962	1689169	0.41	2005-05-25 19:25:03.0	Ventana	34.509	01:47:01:24	4.064	V2669-02
 	cruise	Chionoecetes tanneri	1206.29	2683	 	36.707115	-122.047676	1757679	0.72	2005-07-11 20:17:05.0	Ventana	34.574	03:51:27:09	3.354	V2683-04
 	transect	Mediaster	 	2687	 	 	 	1810254	 	2005-07-13 19:12:44.0	Ventana	 	02:38:28:00	 	V2687-03
 	ascend	Poeobius meseres	714.86	2681	 	36.698704	-122.05513	1717579	0.29	2005-07-07 20:19:14.867	Ventana	34.431	03:48:16:08	5.008	V2681-04
 	ascend	Aegina	633.68	2683	 	36.70501	-122.05021	1757942	0.3	2005-07-11 21:10:15.0	Ventana	34.4	04:43:07:04	5.397	V2683-05
 	transect	Mesomyaria	 	2669	 	 	 	1737666	 	2005-05-25 13:55:44.0	Ventana	 	03:16:32:09	 	V2669-04
 	transect	Chionoecetes tanneri	798.87	2674	 	36.751347	-122.21523	1801410	0.35	2005-06-08 18:44:51.0	Ventana	34.49	01:28:55:00	4.338	V2674-02
 	stationary	Merluccius productus	502.37	2694	 	36.784622	-122.20045	1676671	0.73	2005-07-27 20:32:52.0	Ventana	34.288	03:04:59:22	6.473	V2694-03
 	descend	Cydippida	389.57	2682	 	36.698387	-122.05989	1720688	0.93	2005-07-08 17:36:15.0	Ventana	34.262	01:29:46:10	6.884	V2682-02
 	transect	Mediaster	 	2687	 	 	 	1812579	 	2005-07-13 20:46:03.0	Ventana	 	04:10:33:29	 	V2687-05
 	ascend	Appendicularia	891.06	2681	 	36.698112	-122.055016	1717316	0.37	2005-07-07 19:50:07.067	Ventana	34.505	03:19:10:07	4.22	V2681-04
 	transect	Psolus squamatus	399.87	2687	 	36.788082	-122.12158	1809188	1.13	2005-07-13 17:36:55.0	Ventana	34.241	01:03:17:12	7.262	V2687-02
 	transect	zoarcidae	1000.98	2681	 	36.695477	-122.05149	2498614	0.48	2005-07-07 19:25:00.0	Ventana	34.534	02:54:40:12	3.849	V2681-03HD
 	transect	Mesomyaria	998.71	2669	 	36.73286	-122.25204	1737306	0.4	2005-05-25 20:45:11.0	Ventana	34.509	03:05:59:29	4.074	V2669-04
 	transect	cydippida	500.57	2681	 	36.697407	-122.053116	2493424	0.44	2005-07-07 17:57:18.0	Ventana	34.346	01:27:41:02	6.018	V2681-02HD
 	ascend	Chaetognatha	371.01	2693	 	36.696198	-122.060844	1758648	1.2	2005-07-25 20:25:08.0	Ventana	34.232	03:04:41:19	7.165	V2693-03
 	ascend	Cydippida	120.19	2693	 	36.690815	-122.062935	1759275	2.11	2005-07-25 21:32:58.0	Ventana	34.057	03:57:29:22	9.128	V2693-04
 	descend	Crustacea	241.99	2693	 	36.69853	-122.06171	1758385	1.5	2005-07-25 19:23:52.0	Ventana	34.238	02:03:52:23	8.515	V2693-02
 	transect	Parastichopus leukothele	198.71	2696	 	36.803726	-122.12477	1813285	1.53	2005-08-01 17:30:55.0	Ventana	34.207	00:59:12:12	8.636	V2696-01
 	ascend	Aegina	594.19	2682	 	36.69878	-122.060844	1723475	0.38	2005-07-08 20:48:24.0	Ventana	34.373	04:40:31:27	5.656	V2682-05
 	transect	molt	100.48	2681	 	36.69973	-122.05423	2489770	2.13	2005-07-07 16:50:11.0	Ventana	34.067	00:21:20:00	9.159	V2681-01HD
 	transect	Calycophorae	300.41	2681	 	36.696926	-122.05246	2492432	1.23	2005-07-07 17:25:10.0	Ventana	34.234	00:56:17:18	7.393	V2681-01HD
 	transect	Nanomia bijuga	200.41	2681	 	36.698296	-122.05335	2491099	1.69	2005-07-07 17:11:48.0	Ventana	34.198	00:42:55:12	8.335	V2681-01HD
 	descend	Nanomia	171.75	2683	 	36.70105	-122.05126	1756327	1.63	2005-07-11 16:41:00.0	Ventana	34.191	00:28:40:05	8.745	V2683-01
 	transect	Mesomyaria	998.7	2669	 	36.731083	-122.23112	1683536	0.45	2005-05-25 18:23:25.0	Ventana	34.521	00:45:52:00	3.915	V2669-01
 	transect	Pennatulacea sp.1	603.17	2680	 	36.788925	-122.232475	1805977	0.35	2005-06-27 20:05:04.0	Ventana	34.379	02:43:41:17	5.588	V2680-03
 	cruise	slope	120.18	2688	 	36.813026	-122.01887	1679195	1.97	2005-07-14 19:28:06.0	Ventana	34.098	03:12:54:10	8.929	V2688-04
 	ascend	Appendicularia	760.72	2681	 	36.698677	-122.055954	1717519	0.29	2005-07-07 20:11:54.233	Ventana	34.45	03:40:55:17	4.809	V2681-04
 	cruise	Rathbunaster californicus	258.19	2676	 	36.80553	-122.02948	1676731	1.54	2005-06-14 17:36:22.0	Ventana	34.209	01:16:06:17	7.999	V2676-02
 	transect	Mediaster	 	2687	 	 	 	1812782	 	2005-07-13 20:57:18.0	Ventana	 	04:21:48:17	 	V2687-05
 	cruise	Sebastes	142.21	2688	 	36.811092	-122.02216	1677986	1.95	2005-07-14 18:39:03.0	Ventana	34.097	02:24:18:20	8.918	V2688-03
 	transect	Psolus squamatus	 	2687	http://search.mbari.org/ARCHIVE/frameGrabs/Ventana/images/2687/03_40_03_15.jpg	 	 	1811527	 	2005-07-13 20:15:04.0	Ventana	 	03:40:03:15	 	V2687-04
 	descend	Nanomia	161.35	2682	 	36.699875	-122.06075	1719918	2.24	2005-07-08 16:19:09.0	Ventana	34.118	00:13:13:21	8.347	V2682-01
 	cruise	rock outcrop	287.97	2688	http://search.mbari.org/ARCHIVE/frameGrabs/Ventana/images/2688/02_00_26_21.jpg	36.80892	-122.02033	20005168	1.4	2005-07-14 18:14:45.0	Ventana	34.211	02:00:26:21	7.93	V2688-02
 	ascend	Appendicularia	934.07	2681	 	36.69765	-122.05411	1716970	0.41	2005-07-07 19:43:35.4	Ventana	34.513	03:12:38:29	4.079	V2681-04
 	ascend	Lycodapus	1170.09	2683	 	36.707382	-122.04863	1757739	0.7	2005-07-11 20:30:11.0	Ventana	34.569	04:04:31:11	3.406	V2683-04
 	transect	Mediaster	 	2687	 	 	 	1812233	 	2005-07-13 20:29:39.0	Ventana	 	03:54:36:28	 	V2687-04
 	transect	Psolus squamatus	 	2687	 	 	 	1808579	 	2005-07-13 17:24:20.0	Ventana	 	00:51:12:21	 	V2687-01
 	transect	Ptychogena	700.58	2681	 	36.695606	-122.05146	2497908	0.28	2005-07-07 18:45:48.0	Ventana	34.435	02:15:30:16	4.946	V2681-03HD
 	cruise	Chionoecetes tanneri	1234.66	2683	 	36.705704	-122.04803	1757536	0.73	2005-07-11 19:49:16.0	Ventana	34.577	03:23:40:17	3.319	V2683-04
 	transect	Psolus squamatus	399.84	2687	 	36.788048	-122.12153	1809128	1.13	2005-07-13 17:35:58.0	Ventana	34.244	01:02:20:22	7.27	V2687-02
 	ascend	Euphausiacea	258.17	2681	 	36.697838	-122.05522	1719415	 	2005-07-07 21:29:59.0	Ventana	 	05:04:11:12	 	V2681-05
 	transect	Psolus squamatus	 	2687	 	 	 	1808925	 	2005-07-13 17:32:08.0	Ventana	 	00:59:00:01	 	V2687-01
 	descend	Appendicularia	318.28	2681	 	36.695637	-122.05127	1713662	1.17	2005-07-07 17:30:28.167	Ventana	34.237	01:01:35:15	7.29	V2681-01
 	transect	Mediaster	 	2687	 	 	 	1811730	 	2005-07-13 20:22:45.0	Ventana	 	03:47:44:06	 	V2687-04
 	transect	Psolus squamatus	399.88	2687	 	36.788136	-122.1217	1809285	1.13	2005-07-13 17:38:18.0	Ventana	34.25	01:04:40:13	7.281	V2687-02
 	transect	Euphausia	200.45	2681	 	36.69828	-122.05329	2490739	1.71	2005-07-07 17:08:35.0	Ventana	34.193	00:39:42:10	8.323	V2681-01HD
 	descend	Chuniphyes	760.42	2682	 	36.698406	-122.059715	1721657	0.28	2005-07-08 18:31:31.0	Ventana	34.454	02:24:35:05	4.747	V2682-03
 	ascend	Munneurycope	1018.37	2682	 	36.697723	-122.05806	1722866	0.47	2005-07-08 20:04:35.0	Ventana	34.529	03:57:10:20	3.888	V2682-04
 	ascend	Copepoda	795.6	2682	 	36.698654	-122.0589	1723272	0.33	2005-07-08 20:25:17.0	Ventana	34.467	04:17:27:14	4.651	V2682-05
 	transect	Mesomyaria	799.45	2674	 	36.752525	-122.20422	1799514	0.35	2005-06-08 17:50:09.0	Ventana	34.483	00:34:41:21	4.379	V2674-01
 	cruise	Metridium farcimen	99.41	2676	http://search.mbari.org/ARCHIVE/frameGrabs/Ventana/images/2676/01_56_42_24.jpg	36.810074	-122.03296	1676934	1.87	2005-06-14 18:17:03.0	Ventana	34.148	01:56:42:24	8.48	V2676-02
 	ascend	Appendicularia	387.21	2681	 	36.699333	-122.054596	1718003	0.92	2005-07-07 20:49:02.8	Ventana	34.268	04:17:23:28	6.959	V2681-05
 	ascend	Crustacea	613.26	2682	 	36.69887	-122.05989	1723415	0.38	2005-07-08 20:38:13.0	Ventana	34.38	04:30:22:18	5.511	V2682-05
 	ascend	Appendicularia	425.24	2683	 	36.70415	-122.05058	1758039	0.88	2005-07-11 21:19:15.0	Ventana	34.265	04:52:07:27	6.843	V2683-05
 	transect	Poeobius meseres	600.53	2681	 	36.69759	-122.05343	2493844	0.3	2005-07-07 18:27:06.0	Ventana	34.389	01:57:28:17	5.471	V2681-02HD
 	descend	Copepoda	502.62	2683	 	36.70146	-122.04913	1756830	0.68	2005-07-11 17:37:00.0	Ventana	34.306	01:21:06:17	6.463	V2683-02
 	transect	Phyllospadix	199.92	2696	 	36.804634	-122.126945	1813488	1.51	2005-08-01 17:52:23.0	Ventana	34.213	01:20:16:20	8.672	V2696-02
 	descend	Appendicularia	356.48	2682	 	36.698616	-122.06039	1720324	1.01	2005-07-08 17:21:58.0	Ventana	34.253	01:15:29:19	7.089	V2682-02
 	descend	Appendicularia	362.02	2693	 	36.69705	-122.05986	1758588	1.23	2005-07-25 20:00:02.0	Ventana	34.223	02:39:36:08	7.333	V2693-03
 	transect	Sebastes diploproa	 	2687	 	 	 	1809991	 	2005-07-13 18:49:51.0	Ventana	 	02:15:37:15	 	V2687-03
 	cruise	Allocentrotus fragilis	412.91	2676	 	36.803867	-122.029205	1676450	0.69	2005-06-14 16:43:23.567	Ventana	34.308	00:27:31:17	6.547	V2676-01
 	transect	cydippida	50.42	2681	 	36.699825	-122.05429	2485549	2.94	2005-07-07 16:34:43.0	Ventana	33.927	00:05:52:18	9.617	V2681-01HD
 	transect	Stomphia	 	2687	 	 	 	1809834	 	2005-07-13 18:44:59.0	Ventana	 	02:10:45:04	 	V2687-03
 	transect	Mesomyaria	997.48	2669	 	36.73063	-122.22776	1649212	0.45	2005-05-25 17:58:51.0	Ventana	34.521	00:21:19:25	3.907	V2669-01
 	transect	Nanomia bijuga	200.44	2681	 	36.698418	-122.05349	2491445	1.68	2005-07-07 17:14:15.0	Ventana	34.2	00:45:23:04	8.341	V2681-01HD
 	descend	Chuniphyes	972.42	2682	 	36.69832	-122.05924	1722003	0.43	2005-07-08 18:56:59.0	Ventana	34.519	02:50:01:11	4.027	V2682-03
 	transect	Embassichthys bathybius	999.33	2669	 	36.731018	-122.23179	1683679	0.45	2005-05-25 18:28:52.0	Ventana	34.523	00:51:18:01	3.912	V2669-01
 	ascend	Bathylagidae	698.3	2683	 	36.705772	-122.049065	1757882	0.27	2005-07-11 21:06:05.0	Ventana	34.449	04:38:58:14	4.795	V2683-05
 	cruise	Remote Instrument Node	124.29	2672	http://search.mbari.org/ARCHIVE/frameGrabs/Ventana/images/2672/00_23_23_26.jpg	36.803104	-121.80558	20003835	2.66	2005-06-03 15:04:03.0	Ventana	33.955	00:23:23:26	9.318	V2672-01
 	transect	Ophiuroidea	1000.18	2669	 	36.73114	-122.24022	1689229	0.41	2005-05-25 19:28:52.0	Ventana	34.511	01:50:49:23	4.059	V2669-02
 	descend	Aegina	813.53	2683	 	36.70276	-122.04865	1757176	0.36	2005-07-11 18:07:42.0	Ventana	34.472	01:51:46:12	4.527	V2683-02
 	transect	Calliostoma platinum	 	2687	 	 	 	1810194	 	2005-07-13 19:07:48.0	Ventana	 	02:33:32:08	 	V2687-03
 	transect	Nanomia bijuga	200.4	2681	 	36.698288	-122.05333	2491039	1.7	2005-07-07 17:11:06.0	Ventana	34.196	00:42:13:17	8.332	V2681-01HD
 	transect	Poeobius meseres	800.86	2681	 	36.696873	-122.052925	2498268	0.31	2005-07-07 19:02:03.0	Ventana	34.474	02:31:45:05	4.507	V2681-03HD
 	transect	Psolus squamatus	 	2687	 	 	 	1808782	 	2005-07-13 17:29:27.0	Ventana	 	00:56:19:19	 	V2687-01
 	transect	Rathbunaster californicus	199.55	2696	 	36.80398	-122.125534	1813345	1.52	2005-08-01 17:37:59.0	Ventana	34.208	01:05:53:09	8.645	V2696-02
 	transect	Phyllospadix	800.03	2674	 	36.75265	-122.20041	1774112	0.29	2005-06-08 17:30:24.0	Ventana	34.462	00:14:58:10	4.653	V2674-01
 	descend	Nanomia	429.04	2682	 	36.698215	-122.05974	1720748	0.68	2005-07-08 17:45:49.0	Ventana	34.291	01:39:20:15	6.464	V2682-02
 	transect	Rathbunaster californicus	203.68	2696	 	36.807514	-122.131165	1813848	1.46	2005-08-01 18:42:33.0	Ventana	34.218	02:09:38:03	8.62	V2696-03
 	transect	Sebastolobus	999.9	2669	 	36.731064	-122.23883	1689072	0.43	2005-05-25 19:20:21.0	Ventana	34.518	01:42:19:09	3.962	V2669-02
 	ascend	Aegina	477.34	2682	 	36.698326	-122.06321	1723696	0.56	2005-07-08 21:16:25.0	Ventana	34.311	05:08:06:12	6.283	V2682-06
 	descend	Copepoda	952.49	2683	 	36.703857	-122.04853	1757333	0.42	2005-07-11 19:10:25.0	Ventana	34.514	02:50:47:07	4.049	V2683-03
 	transect	Stomphia	997.6	2669	 	36.73059	-122.227234	1683333	0.45	2005-05-25 17:55:38.0	Ventana	34.521	00:18:07:16	3.908	V2669-01
 	transect	Phyllospadix	1000.45	2669	 	36.73215	-122.24816	1736194	0.41	2005-05-25 20:20:12.0	Ventana	34.51	02:41:41:23	4.06	V2669-03
 	descend	Appendicularia	278.08	2683	 	36.701	-122.05025	1756470	1.36	2005-07-11 16:52:19.0	Ventana	34.232	00:39:59:21	7.809	V2683-01
 	transect	Mesomyaria	999.52	2669	 	36.73073	-122.229515	1651108	0.45	2005-05-25 18:10:31.0	Ventana	34.522	00:32:58:08	3.907	V2669-01
 	transect	lobata	900.99	2681	 	36.695145	-122.05082	2498471	0.39	2005-07-07 19:15:33.0	Ventana	34.507	02:45:12:28	4.16	V2681-03HD
 	ascend	Nanomia	254.32	2681	 	36.698177	-122.05547	1719212	1.46	2005-07-07 21:25:21.933	Ventana	34.225	04:53:40:25	8.005	V2681-05
 	descend	Poeobius meseres	1126.51	2682	 	36.698208	-122.0592	1722160	0.58	2005-07-08 19:12:15.0	Ventana	34.556	03:04:53:17	3.583	V2682-04
 	transect	Microstomus pacificus	999.82	2669	 	36.731342	-122.23781	1687536	0.44	2005-05-25 19:13:10.0	Ventana	34.517	01:35:08:19	3.95	V2669-02
 	transect	Phyllospadix	802.66	2674	 	36.752228	-122.20644	1799938	0.36	2005-06-08 18:01:55.0	Ventana	34.489	00:46:27:05	4.343	V2674-01
 	descend	Hastigerinella digitata	294.97	2682	 	36.69929	-122.06062	1720121	1.2	2005-07-08 16:54:04.0	Ventana	34.241	00:48:07:08	7.428	V2682-01
 	transect	Mesomyaria	1000.28	2669	 	36.731277	-122.24138	1689778	0.4	2005-05-25 19:36:04.0	Ventana	34.507	01:58:01:29	4.091	V2669-02
 	transect	Mediaster	 	2687	 	 	 	1812436	 	2005-07-13 20:38:50.0	Ventana	 	04:03:47:24	 	V2687-04
 	transect	Nanomia bijuga	200.37	2681	 	36.698315	-122.05341	2491242	1.67	2005-07-07 17:13:04.0	Ventana	34.201	00:44:12:20	8.34	V2681-01HD
 	ascend	Leuroglossus stilbius	896.54	2681	 	36.69805	-122.054886	1717173	0.37	2005-07-07 19:49:23.167	Ventana	34.505	03:18:26:12	4.209	V2681-04
 	transect	molt	100.55	2681	 	36.69983	-122.05429	2489627	2.13	2005-07-07 16:46:36.0	Ventana	34.068	00:17:46:15	9.144	V2681-01HD
 	descend	Euphausiacea	173.95	2693	 	36.696095	-122.05806	1758242	1.95	2005-07-25 18:04:50.0	Ventana	34.142	00:45:19:28	8.901	V2693-01
 	descend	Gonatus	710.73	2682	http://search.mbari.org/ARCHIVE/frameGrabs/Ventana/images/2682/02_10_13_10.jpg	36.6986	-122.05995	1721454	0.28	2005-07-08 18:17:09.0	Ventana	34.434	02:10:13:10	4.937	V2682-03
 	transect	Mesomyaria	1000.2	2669	 	36.731667	-122.24379	1733952	0.41	2005-05-25 19:48:51.0	Ventana	34.509	02:10:22:15	4.064	V2669-03
 	cruise	Pannychia moseleyi	541.45	2688	 	36.798138	-122.019684	1677437	0.62	2005-07-14 17:00:48.0	Ventana	34.322	00:47:06:16	6.264	V2688-01
 	transect	Phyllospadix	801.61	2674	 	36.750957	-122.218575	1803592	0.35	2005-06-08 19:00:44.0	Ventana	34.486	01:44:47:02	4.373	V2674-02
 	transect	Calycophorae	300.4	2681	 	36.69606	-122.0517	2492575	1.24	2005-07-07 17:28:15.0	Ventana	34.233	00:59:22:23	7.427	V2681-01HD
 	transect	Mesomyaria	1000.15	2669	 	36.730976	-122.23318	1683882	0.45	2005-05-25 18:37:47.0	Ventana	34.523	01:00:12:13	3.909	V2669-01
 	transect	Phyllospadix	800.03	2674	 	36.752502	-122.20335	1799311	0.35	2005-06-08 17:45:18.0	Ventana	34.485	00:29:51:08	4.378	V2674-01
 	transect	Mesomyaria	1000.39	2669	 	36.731197	-122.24121	1689395	0.4	2005-05-25 19:34:52.0	Ventana	34.508	01:56:50:00	4.078	V2669-02
 	ascend	Chaetognatha	673.23	2682	 	36.69889	-122.05955	1723355	0.28	2005-07-08 20:33:54.0	Ventana	34.411	04:26:03:16	5.178	V2682-05
 	transect	Phyllospadix	801.48	2674	 	36.75221	-122.207886	1800118	0.35	2005-06-08 18:09:06.0	Ventana	34.49	00:53:37:10	4.328	V2674-01
 	transect	Mesomyaria	1000.22	2669	 	36.73176	-122.24477	1734455	0.4	2005-05-25 19:55:06.0	Ventana	34.508	02:16:37:10	4.075	V2669-03
 	transect	Psolus squamatus	 	2687	 	 	 	1811126	 	2005-07-13 19:55:10.0	Ventana	 	03:20:10:23	 	V2687-04
 	transect	Mesomyaria	999.44	2669	 	36.73133	-122.23592	1684482	0.44	2005-05-25 18:57:06.0	Ventana	34.52	01:19:05:22	3.936	V2669-02
 	transect	Phyllospadix	197.83	2696	 	36.80266	-122.12168	1812999	1.53	2005-08-01 16:51:04.0	Ventana	34.204	00:19:23:19	8.566	V2696-01
 	transect	Ceriantharia sp. 2	1000.54	2669	 	36.730904	-122.23288	1683822	0.45	2005-05-25 18:35:46.0	Ventana	34.522	00:58:12:12	3.91	V2669-01
 	descend	Copepoda	400.95	2681	 	36.697998	-122.05373	1715295	0.79	2005-07-07 17:50:33.78	Ventana	34.277	01:20:56:24	6.661	V2681-02
 	descend	Chaetognatha	331.9	2693	 	36.6974	-122.06052	1758528	1.29	2005-07-25 19:48:15.0	Ventana	34.236	02:27:51:07	7.568	V2693-03
 	transect	Euplexaura	 	2687	 	 	 	1808639	 	2005-07-13 17:25:53.0	Ventana	 	00:52:46:03	 	V2687-01
 	transect	Pennatulacea sp.1	602.35	2680	 	36.790382	-122.23272	1806766	0.35	2005-06-27 20:19:00.0	Ventana	34.379	02:57:37:06	5.588	V2680-03
 	transect	Rathbunaster californicus	203.67	2696	 	36.80635	-122.12992	1813751	1.49	2005-08-01 18:26:17.0	Ventana	34.213	01:54:07:23	8.635	V2696-02
 	transect	Caridea sp.1	1000.17	2669	 	36.73185	-122.24511	1735345	0.4	2005-05-25 19:57:39.0	Ventana	34.507	02:19:09:23	4.096	V2669-03
 	transect	Hastigerinella digitata	300.42	2681	 	36.69581	-122.05142	2492598	1.24	2005-07-07 17:29:19.0	Ventana	34.232	01:00:25:09	7.431	V2681-01HD
 	transect	Solmissus	500.55	2681	 	36.696697	-122.052284	2493581	0.44	2005-07-07 18:00:20.0	Ventana	34.346	01:30:44:10	6.016	V2681-02HD
 	descend	Appendicularia	496.94	2683	 	36.701473	-122.049385	1756793	0.7	2005-07-11 17:25:17.0	Ventana	34.3	01:09:24:16	6.502	V2683-02
 	transect	molt	100.52	2681	 	36.69983	-122.05429	2489650	2.13	2005-07-07 16:47:04.0	Ventana	34.069	00:18:14:20	9.144	V2681-01HD
 	descend	Chaetognatha	233.38	2683	 	36.700974	-122.05067	1756424	1.71	2005-07-11 16:49:28.0	Ventana	34.188	00:37:08:25	8.12	V2683-01
 	transect	Halipteris californica	598.71	2680	 	36.782795	-122.22802	1805230	0.35	2005-06-27 18:59:42.0	Ventana	34.381	01:38:46:16	5.567	V2680-02
 	transect	Nanomia bijuga	400.8	2681	 	36.695896	-122.05131	2492921	0.79	2005-07-07 17:41:25.0	Ventana	34.276	01:11:48:07	6.665	V2681-02HD
 	cruise	mud	247.96	2688	 	36.809578	-122.020454	1677926	1.56	2005-07-14 18:30:57.0	Ventana	34.188	02:16:12:29	8.264	V2688-03
 	cruise	Parastichopus	213.86	2676	 	36.806164	-122.029236	1676791	1.59	2005-06-14 17:41:15.0	Ventana	34.203	01:20:57:23	8.075	V2676-02
 	transect	Lycenchelys camchatica	800.7	2674	 	36.752003	-122.20916	1800870	0.35	2005-06-08 18:15:10.0	Ventana	34.49	00:59:41:22	4.322	V2674-01
 	ascend	Nanomia	258.17	2681	 	36.697838	-122.05522	1719332	 	2005-07-07 21:29:59.0	Ventana	 	05:01:13:12	 	V2681-05
 	descend	Appendicularia	1182.68	2682	 	36.698425	-122.05821	1722280	0.66	2005-07-08 19:38:11.0	Ventana	34.57	03:30:46:24	3.415	V2682-04
 	transect	Microstomus pacificus	199.39	2696	 	36.80415	-122.125885	1813382	1.53	2005-08-01 17:41:39.0	Ventana	34.206	01:09:32:09	8.663	V2696-02
 	ascend	Appendicularia	261.25	2681	 	36.69885	-122.05701	1718995	1.42	2005-07-07 21:20:35.133	Ventana	34.231	04:48:53:24	7.955	V2681-05
 	transect	Phyllospadix	801.91	2674	 	36.752453	-122.19956	1773789	0.29	2005-06-08 17:24:24.0	Ventana	34.463	00:08:58:26	4.654	V2674-01
 	transect	Calliostoma platinum	 	2687	 	 	 	1812339	 	2005-07-13 20:32:40.0	Ventana	 	03:57:38:14	 	V2687-04
 	descend	Mysidae	1089.56	2683	 	36.705112	-122.048904	1757453	0.54	2005-07-11 19:28:32.0	Ventana	34.536	03:08:54:01	3.765	V2683-03
 	transect	Mesomyaria	800.26	2674	 	36.751263	-122.21605	1803389	0.35	2005-06-08 18:49:30.0	Ventana	34.488	01:33:33:05	4.337	V2674-02
 	descend	Appendicularia	741.44	2683	 	36.70233	-122.048935	1757116	0.3	2005-07-11 17:57:00.0	Ventana	34.445	01:41:06:24	4.808	V2683-02
 	transect	Phyllospadix	801.02	2674	 	36.75109	-122.2174	1803495	0.35	2005-06-08 18:55:22.0	Ventana	34.489	01:39:25:07	4.347	V2674-02
 	transect	Nanomia bijuga	200.43	2681	 	36.69828	-122.05329	2490310	1.69	2005-07-07 17:06:46.0	Ventana	34.199	00:37:53:26	8.355	V2681-01HD
 	transect	Ophiuroidea	998.83	2669	 	36.730984	-122.23024	1651274	0.45	2005-05-25 18:16:14.0	Ventana	34.523	00:38:40:24	3.908	V2669-01
 	transect	Chaetognatha	200.4	2681	 	36.698284	-122.053314	2491002	1.71	2005-07-07 17:10:39.0	Ventana	34.192	00:41:47:19	8.325	V2681-01HD
 	transect	Mesomyaria	1000.42	2669	 	36.731533	-122.2428	1694539	0.4	2005-05-25 19:43:26.0	Ventana	34.51	02:05:23:17	4.087	V2669-02
 	ascend	Aegina	838.13	2683	 	36.70677	-122.04863	1757836	0.36	2005-07-11 20:59:39.0	Ventana	34.495	04:32:31:27	4.311	V2683-05
 	transect	Psolus squamatus	 	2687	 	 	 	1810434	 	2005-07-13 19:18:07.0	Ventana	 	02:43:51:15	 	V2687-03
 	transect	Mesomyaria	1000.23	2669	 	36.73163	-122.24329	1733809	0.41	2005-05-25 19:46:14.0	Ventana	34.51	02:07:45:26	4.065	V2669-03
 	transect	Halipteris californica	597.8	2680	 	36.781197	-122.22616	1804907	0.36	2005-06-27 18:33:08.0	Ventana	34.377	01:12:14:06	5.595	V2680-02
 	cruise	mud	292.81	2688	 	36.808887	-122.02033	1677866	1.37	2005-07-14 18:14:20.0	Ventana	34.216	02:00:01:10	7.878	V2688-02
 	transect	Mediaster	 	2687	 	 	 	1811647	 	2005-07-13 20:18:48.0	Ventana	 	03:43:47:20	 	V2687-04
 	transect	Leptomedusae	100.54	2681	 	36.69983	-122.05429	2489590	2.12	2005-07-07 16:45:38.0	Ventana	34.068	00:16:46:16	9.15	V2681-01HD
 	transect	Eptatretus stoutii	998.97	2669	 	36.73118	-122.23434	1684099	0.45	2005-05-25 18:43:53.0	Ventana	34.521	01:05:53:18	3.916	V2669-02
 	descend	Chaetognatha	365.61	2682	 	36.698547	-122.06032	1720347	0.99	2005-07-08 17:26:42.0	Ventana	34.26	01:20:13:09	7.068	V2682-02
 	transect	Chionoecetes tanneri	999.89	2669	 	36.73262	-122.25071	1737020	0.4	2005-05-25 20:37:41.0	Ventana	34.507	02:59:10:02	4.073	V2669-03
 	transect	Poeobius meseres	600.6	2681	 	36.695896	-122.05146	2493687	0.3	2005-07-07 18:19:38.0	Ventana	34.387	01:50:00:03	5.496	V2681-02HD
 	transect	Mesomyaria	999.81	2669	 	36.73136	-122.23736	1687490	0.44	2005-05-25 19:09:22.0	Ventana	34.519	01:31:21:13	3.945	V2669-02
 	transect	Mesomyaria	800.0	2674	 	36.752094	-122.20879	1800810	0.35	2005-06-08 18:13:25.0	Ventana	34.489	00:57:56:11	4.334	V2674-01
 	transect	Sebastolobus altivelis	798.9	2674	 	36.75174	-122.21248	1801207	0.35	2005-06-08 18:29:45.0	Ventana	34.49	01:13:49:05	4.33	V2674-02
 	transect	Mediaster	 	2687	 	 	 	1812662	 	2005-07-13 20:50:08.0	Ventana	 	04:14:38:09	 	V2687-05
 	transect	Phyllospadix	202.31	2696	 	36.805256	-122.12819	1813645	1.48	2005-08-01 18:09:59.0	Ventana	34.211	01:37:51:01	8.623	V2696-02
 	ascend	sinker	834.64	2681	 	36.698723	-122.05613	1717399	0.31	2005-07-07 19:57:06.0	Ventana	34.483	03:26:08:22	4.423	V2681-04
 	transect	Mediaster	 	2687	 	 	 	1810697	 	2005-07-13 19:28:42.0	Ventana	 	02:54:25:17	 	V2687-03
 	transect	Corallimorphus pilatus	 	2687	http://search.mbari.org/ARCHIVE/frameGrabs/Ventana/images/2687/03_00_48_18.jpg	 	 	1810803	 	2005-07-13 19:35:05.0	Ventana	 	03:00:48:18	 	V2687-03
 	transect	Mesomyaria	999.86	2669	 	36.731014	-122.23251	1683762	0.45	2005-05-25 18:33:48.0	Ventana	34.521	00:56:14:14	3.915	V2669-01
 	transect	Henricia sanguinolenta	 	2687	http://search.mbari.org/ARCHIVE/frameGrabs/Ventana/images/2687/00_26_47_23.jpg	 	 	1807103	 	2005-07-13 16:59:53.0	Ventana	 	00:26:47:23	 	V2687-01
 	cruise	rubble	102.08	2688	http://search.mbari.org/ARCHIVE/frameGrabs/Ventana/images/2688/03_26_21_10.jpg	36.815266	-122.01561	1679278	1.99	2005-07-14 19:41:36.0	Ventana	34.083	03:26:21:10	8.918	V2688-04
 	ascend	Appendicularia	758.28	2682	 	36.698757	-122.05907	1723295	0.29	2005-07-08 20:27:40.0	Ventana	34.444	04:19:49:18	4.833	V2682-05
 	ascend	Aegina	599.77	2682	 	36.69857	-122.0619	1723553	0.37	2005-07-08 21:01:24.0	Ventana	34.373	04:53:30:25	5.671	V2682-05
 	transect	Hastigerinella digitata	300.43	2681	 	36.69649	-122.05208	2492538	1.23	2005-07-07 17:26:42.0	Ventana	34.233	00:57:48:25	7.398	V2681-01HD
 	descend	Calycophorae	1011.18	2683	 	36.704346	-122.05001	1757393	0.44	2005-07-11 19:22:24.0	Ventana	34.521	03:02:46:15	3.99	V2683-03
 	transect	Mesomyaria	801.8	2674	 	36.752247	-122.207375	1800058	0.37	2005-06-08 18:06:46.0	Ventana	34.485	00:51:18:05	4.355	V2674-01
 	transect	Lycenchelys camchatica	800.47	2674	 	36.7525	-122.20304	1799274	0.34	2005-06-08 17:43:39.0	Ventana	34.485	00:28:12:09	4.416	V2674-01
 	cruise	Lobata	996.31	2689	 	36.771416	-122.08274	1669622	0.54	2005-07-18 16:39:27.0	Ventana	34.526	00:02:31:19	3.938	V2689-01
 	transect	Sebastolobus altivelis	800.83	2674	 	36.75242	-122.20544	1799795	0.36	2005-06-08 17:56:59.0	Ventana	34.487	00:41:31:28	4.356	V2674-01
 	transect	Halipteris californica	 	2687	 	 	 	1812399	 	2005-07-13 20:36:35.0	Ventana	 	04:01:33:05	 	V2687-04
 	ascend	Calycophorae	335.54	2693	 	36.692757	-122.061844	1758989	1.26	2005-07-25 21:13:55.0	Ventana	34.238	03:38:26:06	7.464	V2693-04
 	transect	lensia	300.43	2681	 	36.697342	-122.052826	2492275	1.23	2005-07-07 17:23:43.0	Ventana	34.233	00:54:49:19	7.396	V2681-01HD
 	transect	Glyptocephalus zachirus	 	2687	 	 	 	1811066	 	2005-07-13 19:51:06.0	Ventana	 	03:16:07:07	 	V2687-04
 	transect	Psolus squamatus	 	2687	 	 	 	1807163	 	2005-07-13 17:02:16.0	Ventana	 	00:29:09:28	 	V2687-01
 	transect	Umbellula lindahli	599.44	2680	 	36.783016	-122.228325	1805290	0.36	2005-06-27 19:02:45.0	Ventana	34.376	01:41:49:11	5.609	V2680-02
 	descend	Appendicularia	324.58	2683	 	36.701183	-122.05009	1756530	1.22	2005-07-11 16:55:04.0	Ventana	34.241	00:42:44:26	7.516	V2683-01
 	transect	Appendicularia	901.01	2681	 	36.695515	-122.051384	2498434	0.39	2005-07-07 19:13:16.0	Ventana	34.505	02:42:56:26	4.172	V2681-03HD
 	transect	Sebastolobus altivelis	801.1	2674	 	36.75101	-122.21819	1803555	0.35	2005-06-08 18:59:03.0	Ventana	34.495	01:43:05:26	4.338	V2674-02
 	transect	molt	100.5	2681	 	36.699825	-122.05429	2489710	2.13	2005-07-07 16:48:27.0	Ventana	34.067	00:19:36:07	9.151	V2681-01HD
 	transect	lobata	200.41	2681	 	36.698284	-122.05331	2490942	1.71	2005-07-07 17:10:03.0	Ventana	34.195	00:41:10:16	8.323	V2681-01HD
 	transect	Appendicularia	500.58	2681	 	36.697086	-122.052704	2493521	0.44	2005-07-07 17:58:52.0	Ventana	34.346	01:29:14:13	6.03	V2681-02HD
 	transect	Mesomyaria	1000.11	2669	 	36.731056	-122.23928	1689132	0.43	2005-05-25 19:22:57.0	Ventana	34.517	01:44:55:24	3.982	V2669-02
 	ascend	Melanostigma	656.63	2681	 	36.69881	-122.0542	1717657	0.29	2005-07-07 20:26:48.263	Ventana	34.408	03:55:49:05	5.25	V2681-04
 	ascend	Euphausiacea	232.7	2682	 	36.69668	-122.06095	1723756	1.91	2005-07-08 21:29:53.0	Ventana	34.162	05:21:32:23	7.893	V2682-06
 	transect	Mediaster	 	2687	 	 	 	1811389	 	2005-07-13 20:10:53.0	Ventana	 	03:35:52:13	 	V2687-04
 	transect	Phyllospadix	199.82	2696	 	36.8044	-122.126366	1813442	1.51	2005-08-01 17:46:53.0	Ventana	34.211	01:14:46:05	8.666	V2696-02
 	transect	Psolus squamatus	 	2687	 	 	 	1807689	 	2005-07-13 17:22:54.0	Ventana	 	00:49:47:13	 	V2687-01
 	transect	Porifera sp. 1	 	2687	 	 	 	1810111	 	2005-07-13 18:57:46.0	Ventana	 	02:23:31:01	 	V2687-03
 	transect	Phyllospadix	198.34	2696	 	36.80361	-122.12446	1813262	1.53	2005-08-01 17:27:48.0	Ventana	34.201	00:56:05:04	8.621	V2696-01
 	transect	Nanomia bijuga	400.77	2681	 	36.69635	-122.05183	2492995	0.79	2005-07-07 17:43:25.0	Ventana	34.275	01:13:48:19	6.648	V2681-02HD
 	transect	molt	200.39	2681	 	36.6983	-122.05337	2491122	1.69	2005-07-07 17:12:06.0	Ventana	34.198	00:43:12:26	8.337	V2681-01HD
 	transect	Phyllospadix	1000.42	2669	 	36.73147	-122.24225	1694479	0.4	2005-05-25 19:40:50.0	Ventana	34.509	02:02:46:24	4.067	V2669-02
 	transect	Calycophorae	300.46	2681	 	36.697906	-122.05329	2492109	1.24	2005-07-07 17:21:51.0	Ventana	34.234	00:52:57:10	7.402	V2681-01HD
 	ascend	Euphausiacea	266.19	2681	 	36.69952	-122.054474	1718409	1.4	2005-07-07 21:08:10.7	Ventana	34.236	04:36:30:19	7.898	V2681-05
 	transect	molt	200.47	2681	 	36.69828	-122.05329	2490573	1.71	2005-07-07 17:07:37.0	Ventana	34.195	00:38:43:21	8.336	V2681-01HD
 	transect	Ceriantharia sp. 2	 	2669	 	 	 	1737569	 	2005-05-25 13:51:43.0	Ventana	 	03:12:30:23	 	V2669-04
 	transect	Lycodapus	598.66	2680	 	36.782173	-122.22727	1805110	0.35	2005-06-27 18:45:55.0	Ventana	34.38	01:25:00:10	5.58	V2680-02
 	transect	Gastropoda sp.2	999.75	2669	 	36.730576	-122.22903	1695028	0.45	2005-05-25 18:06:53.0	Ventana	34.521	00:29:20:16	3.907	V2669-01
 	transect	Phyllospadix	1000.06	2669	 	36.731697	-122.24367	1733869	0.41	2005-05-25 19:48:05.0	Ventana	34.508	02:09:36:16	4.069	V2669-03
 	transect	Mediaster	 	2687	 	 	 	1807486	 	2005-07-13 17:10:29.0	Ventana	 	00:37:23:03	 	V2687-01
 	descend	Appendicularia	480.07	2682	 	36.698578	-122.05974	1720808	0.52	2005-07-08 17:57:35.0	Ventana	34.329	01:51:05:23	6.186	V2682-02
 	transect	Phyllospadix	799.85	2674	 	36.752537	-122.20381	1799394	0.35	2005-06-08 17:48:06.0	Ventana	34.485	00:32:39:06	4.368	V2674-01
 	transect	Zaniolepididae	203.42	2696	 	36.806732	-122.130325	1813811	1.48	2005-08-01 18:35:19.0	Ventana	34.216	02:03:09:18	8.645	V2696-02
 	transect	Caridea sp.1	599.46	2680	 	36.77958	-122.22466	1804538	0.36	2005-06-27 18:11:32.0	Ventana	34.379	00:51:37:23	5.595	V2680-01
 	cruise	Gorgonocephalus	93.51	2688	 	36.813015	-122.02142	1679541	1.92	2005-07-14 21:32:41.357	Ventana	34.111	05:16:54:02	8.873	V2688-05
 	cruise	Appendicularia	359.59	2676	 	36.804665	-122.02901	1676593	1.18	2005-06-14 16:58:56.0	Ventana	34.233	00:43:03:24	7.452	V2676-01
 	transect	Mesomyaria	800.28	2674	 	36.75173	-122.21164	1801133	0.35	2005-06-08 18:26:37.0	Ventana	34.491	01:10:41:29	4.336	V2674-02
 	transect	Actiniaria sp. 3	 	2687	 	 	 	1808699	 	2005-07-13 17:27:26.0	Ventana	 	00:54:18:22	 	V2687-01
 	ascend	Appendicularia	345.23	2693	 	36.6935	-122.06134	1758929	1.24	2005-07-25 21:09:27.0	Ventana	34.237	03:34:00:04	7.388	V2693-04
 	transect	Sebastolobus altivelis	801.99	2674	 	36.75225	-122.20688	1799998	0.37	2005-06-08 18:04:12.0	Ventana	34.49	00:48:43:28	4.328	V2674-01
 	transect	Calliostoma platinum	 	2687	http://search.mbari.org/ARCHIVE/frameGrabs/Ventana/images/2687/00_21_43_25.jpg	 	 	1807029	 	2005-07-13 16:54:49.0	Ventana	 	00:21:43:25	 	V2687-01
 	transect	Sebastolobus altivelis	802.3	2674	 	36.75232	-122.20587	1799855	0.36	2005-06-08 17:59:26.0	Ventana	34.488	00:43:58:28	4.336	V2674-01
 	transect	Mysidae	800.88	2681	 	36.696106	-122.05206	2498231	0.31	2005-07-07 18:58:54.0	Ventana	34.475	02:28:36:01	4.497	V2681-03HD
 	descend	Myctophidae	655.59	2682	 	36.698647	-122.05994	1721357	0.28	2005-07-08 18:10:35.0	Ventana	34.409	02:03:39:13	5.229	V2682-03
 	ascend	Nanomia	 	2683	 	 	 	1758145	 	2005-07-11 14:31:49.0	Ventana	 	05:04:40:08	 	V2683-05
 	transect	Phyllospadix	800.89	2674	 	36.752537	-122.20255	1799214	0.35	2005-06-08 17:41:27.0	Ventana	34.486	00:26:00:21	4.382	V2674-01
 	ascend	Poeobius meseres	377.43	2693	 	36.6958	-122.06062	1758786	1.19	2005-07-25 20:51:02.0	Ventana	34.234	03:15:35:20	7.154	V2693-04
 	transect	Solmissus	300.42	2681	 	36.696777	-122.05234	2492478	1.23	2005-07-07 17:25:40.0	Ventana	34.234	00:56:46:01	7.397	V2681-01HD
 	transect	Neptunea amianta	800.34	2674	 	36.752487	-122.20449	1799597	0.35	2005-06-08 17:52:07.0	Ventana	34.485	00:36:40:12	4.38	V2674-01
 	transect	Psolus squamatus	399.86	2687	 	36.788113	-122.12162	1809225	1.13	2005-07-13 17:37:21.0	Ventana	34.243	01:03:43:12	7.255	V2687-02
 	transect	Caecosagitta macrocephala	1001.08	2681	 	36.69484	-122.05067	2498554	0.47	2005-07-07 19:21:47.0	Ventana	34.529	02:51:27:01	3.868	V2681-03HD
 	transect	Euphausia	200.43	2681	 	36.69828	-122.0533	2490799	1.72	2005-07-07 17:08:55.0	Ventana	34.193	00:40:02:15	8.323	V2681-01HD
 	transect	Appendicularia	200.46	2681	 	36.69828	-122.05329	2490250	1.7	2005-07-07 17:06:14.0	Ventana	34.199	00:37:22:10	8.36	V2681-01HD
 	transect	Pannychia moseleyi	803.51	2674	 	36.75077	-122.22043	1803698	0.34	2005-06-08 19:08:53.0	Ventana	34.489	01:52:55:00	4.373	V2674-02
 	transect	Ceriantharia sp. 1	602.21	2680	 	36.791035	-122.23288	1806826	0.35	2005-06-27 20:24:38.0	Ventana	34.379	03:03:14:28	5.586	V2680-03
 	transect	Sebastolobus	 	2687	 	 	 	1811006	 	2005-07-13 19:47:42.0	Ventana	 	03:12:43:04	 	V2687-04
 	transect	Microstomus pacificus	200.51	2696	 	36.805218	-122.12812	1813585	1.5	2005-08-01 18:01:43.0	Ventana	34.211	01:29:35:22	8.671	V2696-02
 	descend	Mysidae	858.71	2682	 	36.698326	-122.05944	1721740	0.33	2005-07-08 18:48:26.0	Ventana	34.483	02:41:29:14	4.39	V2682-03
 	descend	Chaetognatha	191.11	2683	 	36.701065	-122.05112	1756364	1.69	2005-07-11 16:45:01.0	Ventana	34.194	00:32:41:27	8.465	V2683-01
 	cruise	rock outcrop	97.06	2688	http://search.mbari.org/ARCHIVE/frameGrabs/Ventana/images/2688/04_23_49_15.jpg	36.81463	-122.017105	20005288	1.95	2005-07-14 20:39:29.0	Ventana	34.096	04:23:49:15	8.94	V2688-05
 	transect	Nanomia bijuga	200.37	2681	 	36.69832	-122.05344	2491325	1.66	2005-07-07 17:13:30.0	Ventana	34.2	00:44:37:19	8.34	V2681-01HD
 	transect	cyclothone	500.58	2681	 	36.697548	-122.0533	2493378	0.44	2005-07-07 17:56:37.0	Ventana	34.347	01:27:01:14	6.018	V2681-02HD
 	cruise	Lycodes	436.78	2676	 	36.80329	-122.02926	1676390	0.64	2005-06-14 16:40:18.633	Ventana	34.316	00:24:26:25	6.383	V2676-01
 	transect	lobata	200.37	2681	 	36.69828	-122.05329	2490047	1.69	2005-07-07 17:04:20.0	Ventana	34.194	00:35:28:08	8.359	V2681-01HD
 	transect	Chaetognatha	400.74	2681	 	36.69771	-122.05341	2493198	0.79	2005-07-07 17:49:15.0	Ventana	34.278	01:19:38:01	6.66	V2681-02HD
 	descend	Nanomia	213.78	2693	 	36.696056	-122.05822	1758325	1.69	2005-07-25 18:26:42.0	Ventana	34.191	01:06:46:12	8.613	V2693-02
 	descend	Sergestes similis	389.55	2681	 	36.695557	-122.05119	1715092	0.86	2005-07-07 17:32:58.3	Ventana	34.259	01:03:22:12	6.794	V2681-02
 	transect	Phyllospadix	196.47	2696	 	36.802937	-122.12234	1813059	1.55	2005-08-01 17:02:50.0	Ventana	34.2	00:31:08:13	8.607	V2696-01
 	transect	Calliostoma platinum	 	2687	 	 	 	1809022	 	2005-07-13 17:33:45.0	Ventana	 	01:00:37:08	 	V2687-01
 	transect	Psolus squamatus	 	2687	 	 	 	1811186	 	2005-07-13 20:00:14.0	Ventana	 	03:25:14:12	 	V2687-04
 	cruise	Dosidicus gigas	501.83	2695	 	36.78439	-122.20044	1824514	0.69	2005-07-28 20:29:40.0	Ventana	34.289	05:30:59:22	6.316	V2695-03
 	ascend	Apolemia	366.56	2681	 	36.699364	-122.0549	1718040	1.0	2005-07-07 20:51:07.0	Ventana	34.263	04:19:27:15	7.11	V2681-05
 	ascend	sinker	1144.95	2683	 	36.7082	-122.049164	1757776	0.67	2005-07-11 20:39:27.0	Ventana	34.563	04:13:48:23	3.475	V2683-04
 	cruise	mud	97.2	2675	 	36.750988	-122.22278	1803878	1.78	2005-06-08 22:19:48.0	Ventana	34.108	02:10:06:12	8.426	V2675-01
 	transect	Psolus squamatus	 	2687	 	 	 	1810637	 	2005-07-13 19:26:04.0	Ventana	 	02:51:47:10	 	V2687-03
 	transect	Psolus squamatus	399.7	2687	 	36.78927	-122.124695	1809594	1.16	2005-07-13 18:23:05.0	Ventana	34.244	01:49:24:00	7.331	V2687-02
 	transect	Mesomyaria	1000.22	2669	 	36.73127	-122.24091	1689335	0.41	2005-05-25 19:33:32.0	Ventana	34.51	01:55:29:24	4.056	V2669-02
 	transect	Sebastes crameri	 	2687	http://search.mbari.org/ARCHIVE/frameGrabs/Ventana/images/2687/04_19_19_27.jpg	 	 	1812722	 	2005-07-13 20:54:49.0	Ventana	 	04:19:19:27	 	V2687-05
 	transect	Leuroglossus stilbius	600.6	2681	 	36.696465	-122.05209	2493747	0.3	2005-07-07 18:22:13.0	Ventana	34.387	01:52:35:13	5.48	V2681-02HD
 	ascend	Bathocyroe	780.91	2681	 	36.698845	-122.05639	1717459	0.28	2005-07-07 20:05:04.813	Ventana	34.457	03:34:06:17	4.716	V2681-04
 	descend	Polychaeta	892.8	2683	 	36.70325	-122.04833	1757250	0.36	2005-07-11 18:31:35.0	Ventana	34.494	02:11:59:23	4.282	V2683-03
 	descend	Appendicularia	466.58	2683	 	36.701653	-122.04936	1756733	0.77	2005-07-11 17:11:53.0	Ventana	34.287	00:59:31:18	6.652	V2683-01
 	transect	Mesomyaria	800.64	2674	 	36.752094	-122.2084	1800750	0.35	2005-06-08 18:11:26.0	Ventana	34.487	00:55:57:27	4.328	V2674-01
 	transect	Phyllospadix	800.6	2674	 	36.751957	-122.20966	1800930	0.35	2005-06-08 18:18:07.0	Ventana	34.49	01:02:12:07	4.335	V2674-02
 	transect	Lycenchelys camchatica	999.65	2669	 	36.731407	-122.237	1687430	0.44	2005-05-25 19:06:18.0	Ventana	34.52	01:28:17:26	3.941	V2669-02
 	transect	Asteronyx loveni	1000.01	2669	http://search.mbari.org/ARCHIVE/frameGrabs/Ventana/images/2669/02_15_35_06.jpg	36.731796	-122.2446	1734395	0.4	2005-05-25 19:54:05.0	Ventana	34.51	02:15:35:06	4.078	V2669-03
 	descend	Copepoda	527.28	2683	 	36.70148	-122.04913	1756913	0.56	2005-07-11 17:42:14.0	Ventana	34.319	01:26:20:23	6.262	V2683-02
 	transect	Allocentrotus fragilis	 	2687	 	 	 	1812542	 	2005-07-13 20:44:50.0	Ventana	 	04:09:20:23	 	V2687-05
 	descend	physical object	208.12	2686	http://search.mbari.org/ARCHIVE/frameGrabs/Ventana/images/2686/01_08_33_24.jpg	36.79371	-121.88108	20005030	1.67	2005-07-12 22:01:23.0	Ventana	34.139	01:08:33:24	8.363	V2686-02
 	cruise	rock outcrop	277.79	2676	http://search.mbari.org/ARCHIVE/frameGrabs/Ventana/images/2676/00_02_51_08.jpg	36.80538	-122.03181	1676210	1.43	2005-06-14 16:18:42.0	Ventana	34.215	00:02:51:08	7.859	V2676-01
 	transect	Ophiuroidea	998.51	2669	 	36.731136	-122.2308	1683439	0.45	2005-05-25 18:20:54.0	Ventana	34.518	00:43:20:23	3.917	V2669-01
 	transect	Mesomyaria	 	2669	 	 	 	1737629	 	2005-05-25 13:53:53.0	Ventana	 	03:14:40:27	 	V2669-04
 	ascend	Nanomia	471.15	2683	 	36.70432	-122.05057	1758002	0.73	2005-07-11 21:17:25.0	Ventana	34.294	04:50:15:24	6.578	V2683-05
 	transect	Lycenchelys camchatica	1000.01	2669	 	36.730625	-122.2293	1651071	0.45	2005-05-25 18:08:43.0	Ventana	34.522	00:31:11:04	3.907	V2669-01
 	endtransect	color bars	200.44	2681	 	36.69842	-122.0535	1713556	1.68	2005-07-07 17:14:17.667	Ventana	34.2	00:45:25:00	8.341	V2681-01
 	transect	Porifera sp. 1	 	2687	 	 	 	1809917	 	2005-07-13 18:48:08.0	Ventana	 	02:13:53:16	 	V2687-03
 	transect	Actiniaria sp. 3	 	2687	 	 	 	1808819	 	2005-07-13 17:30:06.0	Ventana	 	00:56:58:08	 	V2687-01
 	descend	Chaetognatha	900.58	2681	 	36.696896	-122.05306	1716504	0.39	2005-07-07 19:06:35.41	Ventana	34.507	02:36:18:02	4.166	V2681-03
 	transect	Mediaster	 	2687	 	 	 	1811767	 	2005-07-13 20:24:50.0	Ventana	 	03:49:48:10	 	V2687-04
 	transect	Appendicularia	400.77	2681	 	36.696827	-122.05242	2493055	0.79	2005-07-07 17:45:34.0	Ventana	34.278	01:15:57:19	6.659	V2681-02HD
 	ascend	Mitrocoma	263.38	2681	 	36.69946	-122.05456	1718469	1.41	2005-07-07 21:09:56.367	Ventana	34.231	04:38:16:21	7.916	V2681-05
 	ascend	Cydippida	198.74	2693	 	36.690792	-122.06272	1759192	1.78	2005-07-25 21:25:54.0	Ventana	34.185	03:50:26:03	8.895	V2693-04
 	transect	Sergestes similis	300.47	2681	 	36.698074	-122.05341	2492049	1.24	2005-07-07 17:21:15.0	Ventana	34.233	00:52:21:22	7.404	V2681-01HD
 	transect	Mediaster	 	2687	 	 	 	1811329	 	2005-07-13 20:07:29.0	Ventana	 	03:32:28:11	 	V2687-04
 	descend	physical object	651.7	2677	http://search.mbari.org/ARCHIVE/frameGrabs/Ventana/images/2677/00_32_33_19.jpg	36.74627	-122.0524	20008785	0.37	2005-06-15 17:17:19.0	Ventana	34.417	00:32:33:19	5.168	V2677-01
 	descend	Phialidium	1094.31	2682	http://search.mbari.org/ARCHIVE/frameGrabs/Ventana/images/2682/02_59_51_11.jpg	36.698235	-122.05916	1722077	0.55	2005-07-08 19:07:12.0	Ventana	34.548	02:59:51:11	3.654	V2682-04
 	transect	Mediaster	 	2687	 	 	 	1812519	 	2005-07-13 20:43:15.0	Ventana	 	04:07:46:05	 	V2687-05
 	transect	Poeobius meseres	1000.96	2681	 	36.69637	-122.052666	2498697	0.47	2005-07-07 19:29:33.0	Ventana	34.53	02:59:12:17	3.878	V2681-03HD
 	transect	Phyllospadix	1000.12	2669	 	36.73095	-122.23378	1683956	0.45	2005-05-25 18:40:23.0	Ventana	34.523	01:02:24:11	3.913	V2669-02
 	transect	Mesomyaria	801.07	2674	 	36.750954	-122.218895	1803615	0.35	2005-06-08 19:02:03.0	Ventana	34.488	01:46:05:25	4.34	V2674-02
 	cruise	Ophiodon elongatus	111.82	2688	 	36.813305	-122.02129	1678069	1.96	2005-07-14 19:12:38.0	Ventana	34.096	02:57:51:27	8.9	V2688-03
 	transect	Gastropoda sp.2	1000.2	2669	 	36.731068	-122.23984	1694742	0.41	2005-05-25 19:26:59.0	Ventana	34.51	01:48:56:27	4.062	V2669-02
 	cruise	Parastichopus	325.68	2676	 	36.80487	-122.029015	1676648	1.32	2005-06-14 17:19:43.0	Ventana	34.228	01:03:49:21	7.688	V2676-01
 	transect	Mediaster	399.7	2687	 	36.789223	-122.124435	1809571	1.17	2005-07-13 18:19:05.0	Ventana	34.238	01:45:24:21	7.354	V2687-02
 	transect	beroe	200.44	2681	 	36.69828	-122.0533	2490859	1.71	2005-07-07 17:09:17.0	Ventana	34.195	00:40:24:13	8.326	V2681-01HD
 	transect	Stomphia	599.77	2680	 	36.78627	-122.23095	1805871	0.36	2005-06-27 19:36:24.0	Ventana	34.378	02:15:04:00	5.598	V2680-03
 	transect	Ophiuroidea	999.71	2669	 	36.730923	-122.23152	1683642	0.45	2005-05-25 18:27:22.0	Ventana	34.52	00:49:47:29	3.92	V2669-01
 	transect	Phyllospadix	1000.54	2669	 	36.73217	-122.248436	1736217	0.41	2005-05-25 20:21:59.0	Ventana	34.51	02:43:28:13	4.061	V2669-03
 	descend	Crustacea	585.26	2683	 	36.701916	-122.0491	1756996	0.36	2005-07-11 17:48:06.0	Ventana	34.366	01:32:13:03	5.859	V2683-02
 	transect	Calycophorae	700.59	2681	 	36.69532	-122.051094	2497945	0.28	2005-07-07 18:47:02.0	Ventana	34.432	02:16:44:18	4.999	V2681-03HD
 	transect	Solaster borealis	999.35	2669	 	36.731422	-122.23627	1684708	0.44	2005-05-25 18:59:34.0	Ventana	34.52	01:21:34:00	3.941	V2669-02
 	ascend	Solmissus	335.15	2681	 	36.699528	-122.055244	1718123	1.16	2005-07-07 20:54:54.933	Ventana	34.241	04:23:15:21	7.305	V2681-05
 	ascend	Cydippida	258.17	2681	 	36.697838	-122.05522	1719452	 	2005-07-07 21:29:59.0	Ventana	 	05:05:41:20	 	V2681-05
 	transect	Brisaster	 	2687	 	 	 	1812196	 	2005-07-13 20:28:53.0	Ventana	 	03:53:51:08	 	V2687-04
 	transect	Umbellula lindahli	599.88	2680	 	36.777374	-122.222534	1804275	0.36	2005-06-27 17:45:43.0	Ventana	34.378	00:25:51:06	5.583	V2680-01
 	transect	Sebastolobus altivelis	800.87	2674	 	36.752533	-122.201614	1799071	0.34	2005-06-08 17:36:29.0	Ventana	34.487	00:21:03:13	4.415	V2674-01
 	transect	Corallimorphus pilatus	 	2687	 	 	 	1807629	 	2005-07-13 17:18:44.0	Ventana	 	00:45:37:20	 	V2687-01
 	descend	Appendicularia	376.34	2682	 	36.698444	-122.05997	1720665	0.94	2005-07-08 17:34:56.0	Ventana	34.261	01:28:26:09	6.981	V2682-02
 	transect	Mysidae 2	600.58	2681	 	36.69701	-122.05274	2493807	0.3	2005-07-07 18:24:44.0	Ventana	34.387	01:55:06:11	5.475	V2681-02HD
 	transect	Mesomyaria	999.52	2669	 	36.73107	-122.23518	1684279	0.45	2005-05-25 18:51:34.0	Ventana	34.521	01:13:34:20	3.922	V2669-02
 	transect	Phyllospadix	1000.03	2669	 	36.73123	-122.23828	1688846	0.43	2005-05-25 19:17:07.0	Ventana	34.519	01:39:05:28	3.975	V2669-02
 	ascend	Appendicularia	563.19	2681	 	36.69894	-122.05426	1717717	0.38	2005-07-07 20:31:39.56	Ventana	34.364	04:00:40:05	5.85	V2681-04
 	transect	Mesomyaria	798.32	2674	 	36.751587	-122.21403	1801327	0.35	2005-06-08 18:38:24.0	Ventana	34.486	01:22:27:29	4.343	V2674-02
 	transect	Rathbunaster californicus	200.43	2696	 	36.804783	-122.12733	1813525	1.51	2005-08-01 17:56:07.0	Ventana	34.211	01:23:59:18	8.673	V2696-02
 	cruise	Asteroidea	500.23	2695	 	36.78451	-122.200264	1824394	0.89	2005-07-28 16:56:49.0	Ventana	34.266	00:03:11:18	6.707	V2695-01
 	ascend	Apolemia	858.28	2682	 	36.69859	-122.05847	1723235	0.33	2005-07-08 20:19:20.0	Ventana	34.486	04:11:29:09	4.373	V2682-05
 	ascend	Chaetognatha	258.17	2681	 	36.697838	-122.05522	1719535	 	2005-07-07 21:29:59.0	Ventana	 	05:11:57:27	 	V2681-05
 	cruise	Chionoecetes tanneri	1229.66	2683	 	36.705887	-122.04776	1757573	0.74	2005-07-11 19:57:47.0	Ventana	34.58	03:32:09:27	3.322	V2683-04
 	transect	Ophiuroidea	999.87	2669	 	36.731308	-122.23801	1688325	0.43	2005-05-25 19:14:52.0	Ventana	34.519	01:36:50:15	3.954	V2669-02
 	ascend	Appendicularia	553.51	2682	 	36.6983	-122.062706	1723613	0.39	2005-07-08 21:08:58.0	Ventana	34.357	05:00:40:14	5.864	V2682-06
 	transect	Gastropoda sp.2	999.2	2669	 	36.731068	-122.23185	1695088	0.45	2005-05-25 18:29:18.0	Ventana	34.521	00:51:44:08	3.915	V2669-01
 	transect	Psolus squamatus	 	2687	 	 	 	1810983	 	2005-07-13 19:46:10.0	Ventana	 	03:11:11:20	 	V2687-04
 	transect	Mesomyaria	999.3	2669	 	36.73118	-122.23566	1684362	0.45	2005-05-25 18:54:52.0	Ventana	34.522	01:16:52:15	3.927	V2669-02
 	ascend	Appendicularia	370.89	2693	 	36.69638	-122.06074	1758671	1.2	2005-07-25 20:27:23.0	Ventana	34.233	03:06:56:10	7.163	V2693-03
 	ascend	Chaetognatha	165.09	2693	 	36.69066	-122.06298	1759252	1.95	2005-07-25 21:30:42.0	Ventana	34.119	03:55:13:23	8.93	V2693-04
 	transect	Mesomyaria	997.21	2669	 	36.730667	-122.227615	1649189	0.45	2005-05-25 17:58:10.0	Ventana	34.522	00:20:38:23	3.909	V2669-01
 	transect	molt	100.49	2681	 	36.698997	-122.05376	2489853	2.12	2005-07-07 16:51:56.0	Ventana	34.07	00:23:05:24	9.148	V2681-01HD
 	cruise	Macrouridae	1017.92	2689	 	36.771553	-122.08294	1669885	0.51	2005-07-18 17:29:54.0	Ventana	34.543	00:52:56:00	3.801	V2689-01
 	transect	molt	100.46	2681	 	36.699486	-122.05407	2489793	2.13	2005-07-07 16:50:52.0	Ventana	34.066	00:22:00:07	9.148	V2681-01HD
 	transect	Mesomyaria	998.92	2669	 	36.732838	-122.25149	1737223	0.41	2005-05-25 20:42:19.0	Ventana	34.509	03:03:07:01	4.072	V2669-04
 	cruise	Pleuronectiformes	615.68	2688	 	36.794884	-122.019165	1677317	0.44	2005-07-14 16:31:39.0	Ventana	34.4	00:17:59:10	5.42	V2688-01
 	ascend	Polychaeta	602.24	2682	 	36.698746	-122.06128	1723498	0.34	2005-07-08 20:53:32.0	Ventana	34.375	04:45:38:29	5.631	V2682-05
 	transect	Lycenchelys camchatica	802.27	2674	 	36.752247	-122.20676	1799975	0.37	2005-06-08 18:03:39.0	Ventana	34.49	00:48:11:17	4.323	V2674-01
 	transect	Mesomyaria	1000.01	2669	 	36.731045	-122.23967	1689192	0.41	2005-05-25 19:25:50.0	Ventana	34.51	01:47:48:06	4.061	V2669-02
 	descend	Euphausiacea	371.87	2683	 	36.70141	-122.04982	1756590	1.08	2005-07-11 16:57:45.0	Ventana	34.245	00:45:23:20	7.027	V2683-01
 	transect	Psolus squamatus	399.87	2687	 	36.788063	-122.12155	1809165	1.13	2005-07-13 17:36:22.0	Ventana	34.242	01:02:44:02	7.271	V2687-02
 	transect	molt	100.56	2681	 	36.69983	-122.05429	2489507	2.12	2005-07-07 16:43:13.0	Ventana	34.068	00:14:22:11	9.15	V2681-01HD
 	ascend	Crustacea	696.09	2681	 	36.69873	-122.05477	1717602	0.27	2005-07-07 20:21:14.767	Ventana	34.421	03:50:15:16	5.098	V2681-04
 	transect	Mesomyaria	1000.01	2669	 	36.731747	-122.24434	1734275	0.4	2005-05-25 19:51:56.0	Ventana	34.509	02:13:27:08	4.083	V2669-03
 	ascend	Poeobius meseres	649.09	2683	 	36.70521	-122.04994	1757919	0.28	2005-07-11 21:09:14.0	Ventana	34.41	04:42:05:21	5.226	V2683-05
 	ascend	Leuroglossus stilbius	1061.58	2682	 	36.698036	-122.057556	1722746	0.51	2005-07-08 20:01:26.0	Ventana	34.536	03:54:00:04	3.767	V2682-04
 	descend	Myctophidae	680.89	2682	 	36.69866	-122.05996	1721417	0.28	2005-07-08 18:12:44.0	Ventana	34.414	02:05:48:02	5.175	V2682-03
 	transect	Mesomyaria	798.96	2674	 	36.751415	-122.21484	1801387	0.35	2005-06-08 18:43:32.0	Ventana	34.489	01:27:36:01	4.336	V2674-02
 	transect	Chionoecetes tanneri	599.82	2680	 	36.777977	-122.223145	1804335	0.36	2005-06-27 17:52:59.0	Ventana	34.379	00:33:06:13	5.589	V2680-01
 	transect	Phyllospadix	200.14	2696	 	36.80454	-122.12674	1813465	1.51	2005-08-01 17:50:18.0	Ventana	34.213	01:18:11:06	8.668	V2696-02
 	transect	Phyllospadix	801.41	2674	 	36.75249	-122.20009	1773992	0.31	2005-06-08 17:27:13.0	Ventana	34.476	00:11:47:14	4.582	V2674-01
 	transect	Neptunea amianta	801.06	2674	 	36.75175	-122.21102	1801073	0.35	2005-06-08 18:24:10.0	Ventana	34.49	01:08:14:27	4.338	V2674-02
 	transect	Nanomia bijuga	200.37	2681	 	36.698307	-122.05339	2491205	1.68	2005-07-07 17:12:46.0	Ventana	34.2	00:43:52:26	8.337	V2681-01HD
 	transect	Psolus squamatus	 	2687	 	 	 	1810231	 	2005-07-13 19:10:50.0	Ventana	 	02:36:34:07	 	V2687-03
 	descend	Euphausiacea	290.95	2681	 	36.698555	-122.0537	1713639	1.26	2005-07-07 17:18:43.9	Ventana	34.231	00:49:51:14	7.491	V2681-01
 	transect	Ophiuroidea	1000.65	2669	 	36.732063	-122.247795	1736157	0.4	2005-05-25 20:17:17.0	Ventana	34.507	02:38:47:07	4.087	V2669-03
 	transect	Porifera sp. 1	 	2687	 	 	 	1807569	 	2005-07-13 17:15:49.0	Ventana	 	00:42:42:25	 	V2687-01
 	transect	Mediaster	 	2687	 	 	 	1811850	 	2005-07-13 20:27:03.0	Ventana	 	03:52:01:15	 	V2687-04
 	transect	Ptychogena	700.62	2681	 	36.695663	-122.05153	2497885	0.28	2005-07-07 18:45:26.0	Ventana	34.436	02:15:07:23	4.943	V2681-03HD
 	ascend	Appendicularia	978.63	2681	 	36.696907	-122.05336	1716587	0.44	2005-07-07 19:35:52.267	Ventana	34.52	03:05:33:03	3.992	V2681-03
 	cruise	Mysidae	1209.77	2683	 	36.706814	-122.047615	1757656	0.72	2005-07-11 20:13:30.0	Ventana	34.573	03:47:51:25	3.35	V2683-04
 	transect	Umbellula lindahli	598.85	2680	 	36.780235	-122.225266	1804621	0.35	2005-06-27 18:20:26.0	Ventana	34.379	01:00:31:08	5.572	V2680-01
 	transect	Porifera sp. 1	 	2687	 	 	 	1808902	 	2005-07-13 17:31:33.0	Ventana	 	00:58:25:26	 	V2687-01
 	transect	Mesomyaria	999.52	2669	 	36.73102	-122.23117	1683559	0.45	2005-05-25 18:24:40.0	Ventana	34.521	00:47:06:15	3.914	V2669-01
 	ascend	Haliscera	303.92	2681	 	36.69968	-122.05525	1718183	1.31	2005-07-07 20:58:55.933	Ventana	34.229	04:27:16:13	7.631	V2681-05
 	cruise	Rathbunaster californicus	109.45	2688	 	36.813442	-122.01856	1679218	1.97	2005-07-14 19:31:00.0	Ventana	34.094	03:15:47:18	8.93	V2688-04
 	transect	Rathbunaster californicus	 	2687	 	 	 	1811504	 	2005-07-13 20:14:55.0	Ventana	 	03:39:53:29	 	V2687-04
 	cruise	rock outcrop	275.16	2676	http://search.mbari.org/ARCHIVE/frameGrabs/Ventana/images/2676/01_12_13_04.jpg	36.805256	-122.02933	1676708	1.5	2005-06-14 17:32:29.0	Ventana	34.21	01:12:13:04	7.944	V2676-02
 	transect	Psolus squamatus	399.84	2687	http://search.mbari.org/ARCHIVE/frameGrabs/Ventana/images/2687/01_02_17_21.jpg	36.788036	-122.12153	1809105	1.13	2005-07-13 17:35:55.0	Ventana	34.244	01:02:17:21	7.27	V2687-02
 	transect	Psolus squamatus	 	2687	 	 	 	1812805	 	2005-07-13 20:58:38.0	Ventana	 	04:23:08:16	 	V2687-05
 	stationary	Dosidicus gigas	501.65	2695	 	36.784573	-122.20044	1824454	0.84	2005-07-28 17:37:06.0	Ventana	34.273	00:43:26:18	6.622	V2695-01
 	transect	Chaetognatha	200.4	2681	 	36.698284	-122.05331	2490919	1.7	2005-07-07 17:09:45.0	Ventana	34.189	00:40:54:13	8.321	V2681-01HD
 	transect	Sebastomus complex	399.48	2687	http://search.mbari.org/ARCHIVE/frameGrabs/Ventana/images/2687/01_56_40_29.jpg	36.789394	-122.125114	1809654	1.15	2005-07-13 18:30:22.0	Ventana	34.239	01:56:40:29	7.305	V2687-02
 	ascend	sinker	926.81	2681	 	36.697697	-122.05424	1716993	0.4	2005-07-07 19:44:40.677	Ventana	34.511	03:13:43:21	4.134	V2681-04
 	ascend	Mysidae	1177.49	2683	 	36.70722	-122.048	1757716	0.71	2005-07-11 20:26:05.0	Ventana	34.569	04:00:26:29	3.398	V2683-04
 	transect	Liponema brevicornis	602.8	2680	http://search.mbari.org/ARCHIVE/frameGrabs/Ventana/images/2680/02_48_08_01.jpg	36.789326	-122.23252	1806706	0.35	2005-06-27 20:09:30.0	Ventana	34.378	02:48:08:01	5.588	V2680-03
 	cruise	Pennatulacea	598.85	2688	 	36.79339	-122.01843	1677257	0.5	2005-07-14 16:23:14.0	Ventana	34.363	00:09:35:08	5.792	V2688-01
 	transect	Mesomyaria	999.15	2669	 	36.731083	-122.233986	1684016	0.45	2005-05-25 18:41:53.0	Ventana	34.523	01:03:53:25	3.912	V2669-02
 	transect	Ophiuroidea	999.87	2669	 	36.731884	-122.246	1735608	0.41	2005-05-25 20:03:32.0	Ventana	34.511	02:25:00:21	4.06	V2669-03
 	descend	Chaetognatha	181.76	2693	 	36.69607	-122.058174	1758265	1.88	2005-07-25 18:12:00.0	Ventana	34.165	00:52:30:18	8.87	V2693-01
 	transect	molt	50.42	2681	 	36.699825	-122.05429	2485572	2.97	2005-07-07 16:35:33.0	Ventana	33.919	00:06:42:25	9.619	V2681-01HD
 	descend	Appendicularia	791.88	2682	 	36.698406	-122.05971	1721680	0.31	2005-07-08 18:35:53.0	Ventana	34.465	02:28:55:18	4.61	V2682-03
 	descend	Hormiphora	170.57	2683	 	36.7008	-122.051384	1756304	1.64	2005-07-11 16:33:27.0	Ventana	34.189	00:21:09:02	8.738	V2683-01
 	descend	Appendicularia	400.26	2681	 	36.695637	-122.05105	1715235	0.79	2005-07-07 17:37:46.987	Ventana	34.278	01:08:10:01	6.674	V2681-02
 	transect	Nanomia bijuga	200.44	2681	 	36.69828	-122.05329	2490716	1.71	2005-07-07 17:08:27.0	Ventana	34.193	00:39:34:27	8.323	V2681-01HD
 	transect	Phyllospadix	999.09	2669	 	36.73078	-122.22955	1651131	0.45	2005-05-25 18:11:00.0	Ventana	34.523	00:33:26:29	3.907	V2669-01
 	transect	Mesomyaria	805.83	2674	 	36.750393	-122.221794	1803758	0.34	2005-06-08 19:17:14.0	Ventana	34.486	02:01:15:09	4.405	V2674-02
 	transect	Ophiuroidea	998.97	2669	 	36.731377	-122.23608	1684565	0.44	2005-05-25 18:58:08.0	Ventana	34.522	01:20:07:20	3.94	V2669-02
 	ascend	Copepoda	875.99	2681	 	36.698334	-122.05529	1717339	0.35	2005-07-07 19:51:58.1	Ventana	34.503	03:21:00:20	4.29	V2681-04
 	descend	Appendicularia	505.54	2683	 	36.70144	-122.04917	1756853	0.68	2005-07-11 17:39:31.0	Ventana	34.306	01:23:38:10	6.467	V2683-02
 	transect	Mediaster	 	2687	 	 	 	1812459	 	2005-07-13 20:39:29.0	Ventana	 	04:04:26:17	 	V2687-04
 	transect	Actiniaria sp. 1	999.61	2669	 	36.73059	-122.22908	1683356	0.45	2005-05-25 18:07:22.0	Ventana	34.522	00:29:49:26	3.908	V2669-01
 	ascend	Appendicularia	402.25	2681	 	36.69926	-122.05444	1717980	0.86	2005-07-07 20:47:33.8	Ventana	34.279	04:15:54:16	6.854	V2681-05
 	descend	Appendicularia	308.27	2682	 	36.699177	-122.060555	1720144	1.16	2005-07-08 16:56:09.0	Ventana	34.24	00:50:10:15	7.303	V2682-01
 	transect	Euplexaura	 	2687	 	 	 	1812602	 	2005-07-13 20:46:41.0	Ventana	 	04:11:12:10	 	V2687-05
 	transect	pseudothecosomata	1001.01	2681	 	36.69572	-122.0518	2498637	0.48	2005-07-07 19:26:24.0	Ventana	34.535	02:56:04:20	3.849	V2681-03HD
 	transect	Mesomyaria	997.48	2669	 	36.730656	-122.22786	1649249	0.45	2005-05-25 17:59:53.0	Ventana	34.523	00:22:21:09	3.906	V2669-01
 	transect	Mesomyaria	999.62	2669	 	36.73136	-122.23762	1687513	0.44	2005-05-25 19:11:32.0	Ventana	34.52	01:33:31:09	3.949	V2669-02
 	ascend	Poeobius meseres	1129.05	2682	 	36.698143	-122.057526	1722543	0.6	2005-07-08 19:56:49.0	Ventana	34.56	03:49:25:01	3.532	V2682-04
 	transect	Gastropoda	203.2	2696	 	36.805256	-122.12819	1813668	1.48	2005-08-01 18:13:45.0	Ventana	34.214	01:41:36:22	8.623	V2696-02
 	transect	Mesomyaria	1000.35	2669	 	36.73195	-122.24708	1735811	0.41	2005-05-25 20:12:24.0	Ventana	34.511	02:33:53:04	4.072	V2669-03
 	transect	Allocentrotus fragilis	 	2687	 	 	 	1811269	 	2005-07-13 20:05:34.0	Ventana	 	03:30:33:21	 	V2687-04
 	transect	Poeobius meseres	600.66	2681	 	36.69573	-122.05117	2493664	0.3	2005-07-07 18:18:34.0	Ventana	34.387	01:48:55:17	5.495	V2681-02HD
 	transect	Sebastolobus	999.54	2669	 	36.731266	-122.23587	1684422	0.44	2005-05-25 18:56:32.0	Ventana	34.52	01:18:31:26	3.932	V2669-02
 	transect	Acanthamunnopsis milleri	200.42	2681	 	36.69828	-122.05329	2490167	1.7	2005-07-07 17:05:22.0	Ventana	34.197	00:36:29:10	8.358	V2681-01HD
 	transect	Brisaster	600.06	2680	 	36.78437	-122.22974	1805608	0.36	2005-06-27 19:17:13.0	Ventana	34.377	01:56:15:28	5.607	V2680-02
 	transect	Appendicularia	400.77	2681	 	36.69725	-122.052895	2493115	0.79	2005-07-07 17:47:18.0	Ventana	34.278	01:17:41:17	6.663	V2681-02HD
 	ascend	sinker	1076.06	2682	 	36.698055	-122.05753	1722686	0.55	2005-07-08 20:00:16.0	Ventana	34.547	03:52:50:20	3.671	V2682-04
 	descend	Chaetognatha	932.56	2683	 	36.703712	-122.0486	1757310	0.38	2005-07-11 19:07:44.0	Ventana	34.507	02:48:06:22	4.164	V2683-03
 	transect	Sebastolobus	999.17	2669	 	36.731014	-122.23199	1683702	0.45	2005-05-25 18:29:59.0	Ventana	34.52	00:52:25:25	3.913	V2669-01
 	ascend	Euphausiacea	269.83	2681	 	36.69971	-122.05488	1718326	1.4	2005-07-07 21:04:17.167	Ventana	34.227	04:32:36:25	7.846	V2681-05
 	transect	Mediaster	 	2687	 	 	 	1810720	 	2005-07-13 19:29:33.0	Ventana	 	02:55:16:27	 	V2687-03
 	descend	Appendicularia	407.49	2683	 	36.70143	-122.04955	1756650	0.93	2005-07-11 17:05:11.0	Ventana	34.262	00:52:50:17	6.919	V2683-01
 	transect	Nanomia bijuga	200.5	2681	 	36.69828	-122.05329	2490513	1.71	2005-07-07 17:07:14.0	Ventana	34.197	00:38:22:12	8.341	V2681-01HD
 	transect	Mesomyaria	999.94	2669	 	36.731174	-122.24039	1689252	0.41	2005-05-25 19:29:54.0	Ventana	34.51	01:51:52:07	4.06	V2669-02
 	descend	Physonectae	1011.85	2682	 	36.6983	-122.059235	1722026	0.45	2005-07-08 18:59:56.0	Ventana	34.524	02:52:58:13	3.944	V2682-03
 	transect	Mediaster	400.29	2687	 	36.789013	-122.12386	1809511	1.17	2005-07-13 18:10:19.0	Ventana	34.235	01:36:39:14	7.355	V2687-02
 	transect	Psolus squamatus	 	2687	 	 	 	1808962	 	2005-07-13 17:32:41.0	Ventana	 	00:59:33:13	 	V2687-01
 	transect	lobata	200.36	2681	 	36.69829	-122.05334	2491062	1.69	2005-07-07 17:11:20.0	Ventana	34.196	00:42:27:00	8.332	V2681-01HD
 	ascend	Poeobius meseres	439.08	2681	 	36.699062	-122.054184	1717777	0.65	2005-07-07 20:37:27.83	Ventana	34.302	04:06:27:17	6.483	V2681-04
 	transect	Psolus squamatus	 	2687	 	 	 	1810171	 	2005-07-13 19:04:24.0	Ventana	 	02:30:08:27	 	V2687-03
 	transect	doliolenetta	901.06	2681	 	36.696724	-122.05286	2498291	0.39	2005-07-07 19:07:43.0	Ventana	34.507	02:37:24:15	4.16	V2681-03HD
 	descend	Appendicularia	822.31	2683	 	36.70273	-122.04862	1757199	0.31	2005-07-11 18:16:28.0	Ventana	34.477	02:00:32:19	4.474	V2683-02
 	descend	Chaetognatha	368.99	2693	 	36.69644	-122.06047	1758611	1.2	2005-07-25 20:13:16.0	Ventana	34.233	02:52:50:03	7.169	V2693-03
 	transect	Nanomia bijuga	200.37	2681	 	36.698315	-122.05342	2491265	1.66	2005-07-07 17:13:16.0	Ventana	34.2	00:44:23:11	8.341	V2681-01HD
 	ascend	Copepoda	324.66	2693	 	36.691753	-122.06199	1759049	1.29	2005-07-25 21:17:34.0	Ventana	34.236	03:42:06:04	7.559	V2693-04
 	transect	Lycenchelys camchatica	802.17	2674	 	36.75174	-122.210396	1801013	0.35	2005-06-08 18:21:49.0	Ventana	34.49	01:05:54:12	4.329	V2674-02
 	transect	Neptunea amianta	800.48	2674	 	36.75121	-122.216324	1803412	0.35	2005-06-08 18:50:36.0	Ventana	34.489	01:34:38:27	4.336	V2674-02
 	descend	Phialidium	716.21	2682	 	36.698486	-122.05992	1721477	0.28	2005-07-08 18:21:36.0	Ventana	34.437	02:14:39:21	4.912	V2682-03
 	descend	Appendicularia	612.81	2681	 	36.697937	-122.053856	1715927	0.3	2005-07-07 18:29:12.863	Ventana	34.389	01:59:33:15	5.43	V2681-02
 	transect	Brisaster	1000.28	2669	 	36.730946	-122.23339	1683905	0.45	2005-05-25 18:38:35.0	Ventana	34.522	01:01:00:28	3.912	V2669-01
 	cruise	Gorgonocephalus	93.9	2688	 	36.81481	-122.017136	1679421	1.96	2005-07-14 20:31:39.0	Ventana	34.094	04:16:23:02	8.945	V2688-04
 	transect	Mesomyaria	999.85	2669	 	36.731747	-122.244125	1734132	0.4	2005-05-25 19:51:00.0	Ventana	34.511	02:12:31:05	4.078	V2669-03
 	transect	Mesomyaria	1000.19	2669	 	36.731075	-122.2387	1689049	0.43	2005-05-25 19:19:25.0	Ventana	34.514	01:41:23:23	3.969	V2669-02
 	ascend	Poeobius meseres	505.7	2682	 	36.698357	-122.06319	1723673	0.48	2005-07-08 21:13:20.0	Ventana	34.333	05:05:01:15	6.129	V2682-06
 	descend	Hormiphora	251.77	2683	 	36.70091	-122.05055	1756447	1.64	2005-07-11 16:50:43.0	Ventana	34.198	00:38:23:00	8.007	V2683-01
 	transect	Mediaster	 	2687	 	 	 	1810923	 	2005-07-13 19:42:52.0	Ventana	 	03:07:53:13	 	V2687-04
 	descend	Bathocyroe	1231.03	2683	 	36.706196	-122.0481	1757513	0.73	2005-07-11 19:45:57.0	Ventana	34.574	03:20:21:08	3.345	V2683-04
 	transect	Lycenchelys camchatica	802.82	2674	 	36.752243	-122.20631	1799915	0.36	2005-06-08 18:01:13.0	Ventana	34.488	00:45:45:23	4.339	V2674-01
 	transect	Chaetognatha	300.45	2681	 	36.69702	-122.052536	2492395	1.23	2005-07-07 17:24:50.0	Ventana	34.234	00:55:56:05	7.392	V2681-01HD
 	descend	Medusae	628.84	2682	 	36.698616	-122.059845	1721274	0.29	2005-07-08 18:08:44.0	Ventana	34.398	02:01:48:16	5.367	V2682-03
 	ascend	Appendicularia	585.91	2682	 	36.69883	-122.060234	1723438	0.41	2005-07-08 20:41:48.0	Ventana	34.373	04:33:56:04	5.668	V2682-05
 	ascend	Solmaris	373.42	2683	 	36.70389	-122.0506	1758062	1.04	2005-07-11 21:21:28.0	Ventana	34.248	04:54:19:09	6.988	V2683-05
 	transect	Psolus squamatus	399.9	2687	 	36.788116	-122.12176	1809308	1.13	2005-07-13 17:39:11.0	Ventana	34.24	01:05:33:05	7.261	V2687-02
 	descend	Appendicularia	1183.49	2682	 	36.698246	-122.05785	1722340	0.66	2005-07-08 19:40:54.0	Ventana	34.569	03:33:30:29	3.414	V2682-04
 	transect	Phyllospadix	599.37	2680	 	36.779133	-122.22426	1804478	0.36	2005-06-27 18:06:45.0	Ventana	34.378	00:46:51:00	5.601	V2680-01
 	transect	Mediaster	 	2687	 	 	 	1812256	 	2005-07-13 20:29:58.0	Ventana	 	03:54:56:24	 	V2687-04
 	transect	Phyllospadix	799.73	2674	 	36.75269	-122.20068	1774135	0.29	2005-06-08 17:32:00.0	Ventana	34.464	00:16:33:25	4.649	V2674-01
 	transect	Mediaster	 	2687	 	 	 	1808759	 	2005-07-13 17:28:53.0	Ventana	 	00:55:45:27	 	V2687-01
 	descend	Lobata	412.52	2682	 	36.698223	-122.05982	1720725	0.75	2005-07-08 17:39:11.0	Ventana	34.273	01:32:42:17	6.567	V2682-02
 	transect	Lycodes cortezianus	199.6	2696	 	36.803844	-122.125206	1813322	1.52	2005-08-01 17:34:43.0	Ventana	34.207	01:02:37:15	8.636	V2696-02
 	transect	Actiniaria sp. 3	 	2687	 	 	 	1811707	 	2005-07-13 20:21:12.0	Ventana	 	03:46:11:03	 	V2687-04
 	transect	Rathbunaster californicus	204.31	2696	 	36.807644	-122.13128	1813871	1.46	2005-08-01 18:44:42.0	Ventana	34.223	02:11:46:21	8.648	V2696-03
 	transect	Leuroglossus stilbius	700.65	2681	 	36.6963	-122.05222	2497742	0.28	2005-07-07 18:42:33.0	Ventana	34.435	02:12:15:18	4.957	V2681-03HD
 	transect	Ophiuroidea	999.32	2669	 	36.731384	-122.236404	1684768	0.44	2005-05-25 19:00:32.0	Ventana	34.518	01:22:31:29	3.944	V2669-02
 	transect	Mediaster	 	2687	 	 	 	1807495	 	2005-07-13 17:11:58.0	Ventana	 	00:38:50:29	 	V2687-01
 	transect	Phyllospadix	196.38	2696	http://search.mbari.org/ARCHIVE/frameGrabs/Ventana/images/2696/00_32_23_20.jpg	36.802963	-122.12244	1813068	1.55	2005-08-01 17:04:04.0	Ventana	34.199	00:32:23:20	8.606	V2696-01
 	ascend	Appendicularia	647.85	2682	 	36.698887	-122.05965	1723378	0.3	2005-07-08 20:35:57.0	Ventana	34.391	04:28:04:29	5.375	V2682-05
 	transect	Sebastolobus altivelis	801.41	2674	 	36.752205	-122.207726	1800095	0.4	2005-06-08 18:08:18.0	Ventana	34.49	00:52:50:12	4.334	V2674-01
 	transect	Appendicularia	200.48	2681	 	36.69828	-122.05329	2490702	1.72	2005-07-07 17:08:21.0	Ventana	34.194	00:39:29:22	8.323	V2681-01HD
 	transect	Neptunea amianta	799.59	2674	 	36.75269	-122.20084	1774149	0.3	2005-06-08 17:32:47.0	Ventana	34.464	00:17:20:22	4.607	V2674-01
 	transect	Sebastolobus	1000.25	2669	 	36.73124	-122.2409	1689326	0.41	2005-05-25 19:33:06.0	Ventana	34.511	01:55:03:25	4.058	V2669-02
 	transect	Psolus squamatus	 	2687	 	 	 	1811149	 	2005-07-13 19:56:41.0	Ventana	 	03:21:41:22	 	V2687-04
 	transect	Phyllospadix	805.77	2674	 	36.750416	-122.2217	1803749	0.34	2005-06-08 19:16:43.0	Ventana	34.482	02:00:44:15	4.411	V2674-02
 	transect	Stomphia	600.7	2680	 	36.784668	-122.23004	1805668	0.36	2005-06-27 19:20:33.0	Ventana	34.377	01:59:36:16	5.595	V2680-02
 	transect	Phyllospadix	1000.27	2669	 	36.731632	-122.24332	1733818	0.41	2005-05-25 19:46:36.0	Ventana	34.508	02:08:08:02	4.071	V2669-03
 	transect	Chionoecetes tanneri	799.93	2674	 	36.75209	-122.20872	1800801	0.35	2005-06-08 18:13:06.0	Ventana	34.49	00:57:37:12	4.329	V2674-01
 	transect	Mesomyaria	798.55	2674	 	36.751743	-122.21255	1801216	0.35	2005-06-08 18:30:00.0	Ventana	34.49	01:14:04:29	4.337	V2674-02
 	descend	Dosidicus gigas	509.07	2682	 	36.698593	-122.05978	1720845	0.43	2005-07-08 18:00:36.0	Ventana	34.353	01:54:05:29	5.966	V2682-02
 	cruise	LRJ Complex	1239.08	2683	 	36.70587	-122.04815	1757522	0.73	2005-07-11 19:47:02.0	Ventana	34.573	03:21:24:22	3.337	V2683-04
 	transect	molt	100.5	2681	 	36.69869	-122.05356	2489904	2.14	2005-07-07 16:52:50.0	Ventana	34.067	00:23:59:11	9.142	V2681-01HD
 	transect	Ophiuroidea	998.5	2669	 	36.730965	-122.230034	1651205	0.45	2005-05-25 18:14:21.0	Ventana	34.522	00:36:48:11	3.907	V2669-01
 	transect	Ophiuroidea	999.18	2669	 	36.731377	-122.23607	1684551	0.44	2005-05-25 18:58:04.0	Ventana	34.52	01:20:03:19	3.939	V2669-02
 	transect	Microstomus pacificus	999.83	2669	 	36.731007	-122.232475	1683753	0.45	2005-05-25 18:33:30.0	Ventana	34.523	00:55:55:24	3.912	V2669-01
 	transect	Ophiuroidea	999.96	2669	 	36.731388	-122.237465	1687499	0.44	2005-05-25 19:10:43.0	Ventana	34.519	01:32:41:22	3.946	V2669-02
 	starttransect	physical object	599.37	2680	 	36.77967	-122.224754	1804547	0.36	2005-06-27 18:13:35.0	Ventana	34.379	00:53:40:29	5.6	V2680-01
 	transect	Psolus squamatus	399.87	2687	 	36.788136	-122.121796	1809322	1.13	2005-07-13 17:39:29.0	Ventana	34.241	01:05:51:01	7.267	V2687-02
 	transect	Mediaster	 	2687	 	 	 	1812270	 	2005-07-13 20:30:17.0	Ventana	 	03:55:15:08	 	V2687-04
 	cruise	Lycenchelys	303.86	2688	 	36.808727	-122.02031	1677857	1.36	2005-07-14 18:13:12.0	Ventana	34.215	01:58:53:28	7.833	V2688-02
 	transect	Sebastolobus	1000.03	2669	 	36.73195	-122.24625	1735645	0.41	2005-05-25 20:06:10.0	Ventana	34.509	02:27:40:00	4.063	V2669-03
 	descend	Appendicularia	213.04	2683	 	36.701008	-122.050804	1756401	1.69	2005-07-11 16:48:12.0	Ventana	34.195	00:35:51:12	8.283	V2683-01
 	transect	Porifera	 	2687	 	 	 	1812653	 	2005-07-13 20:49:57.0	Ventana	 	04:14:27:23	 	V2687-05
 	transect	Ophiuroidea	998.47	2669	 	36.731144	-122.230736	1683430	0.45	2005-05-25 18:20:34.0	Ventana	34.523	00:43:01:00	3.914	V2669-01
 	transect	Phyllospadix	800.28	2674	 	36.75119	-122.21645	1803426	0.35	2005-06-08 18:51:12.0	Ventana	34.49	01:35:14:23	4.357	V2674-02
 	ascend	Leuroglossus stilbius	756.14	2683	 	36.70634	-122.04858	1757845	0.35	2005-07-11 21:03:08.0	Ventana	34.462	04:36:00:17	4.659	V2683-05
 	transect	Allocentrotus fragilis	 	2687	 	 	 	1810826	 	2005-07-13 19:35:10.0	Ventana	 	03:00:53:01	 	V2687-03
 	ascend	Solmissus	366.16	2694	 	36.785034	-122.20087	1676768	1.28	2005-07-27 21:05:29.0	Ventana	34.246	03:36:49:27	7.717	V2694-04
 	descend	Appendicularia	594.07	2682	 	36.698643	-122.059814	1721228	0.36	2005-07-08 18:07:22.0	Ventana	34.386	02:00:26:16	5.497	V2682-03
 	transect	Nanomia bijuga	500.61	2681	 	36.697704	-122.053474	2493327	0.44	2005-07-07 17:55:57.0	Ventana	34.347	01:26:20:11	6.018	V2681-02HD
 	ascend	Chaetognatha	771.51	2681	 	36.698658	-122.056305	1717482	0.29	2005-07-07 20:08:28.133	Ventana	34.452	03:37:29:20	4.759	V2681-04
 	transect	Psolus squamatus	 	2687	 	 	 	1810120	 	2005-07-13 18:58:36.0	Ventana	 	02:24:21:13	 	V2687-03
 	transect	Leuroglossus stilbius	500.6	2681	 	36.6959	-122.05135	2493650	0.43	2005-07-07 18:03:56.0	Ventana	34.348	01:34:18:04	6.006	V2681-02HD
 	transect	Phyllospadix	203.5	2696	 	36.806534	-122.13011	1813774	1.48	2005-08-01 18:29:05.0	Ventana	34.216	01:56:55:28	8.642	V2696-02
 	transect	molt	100.54	2681	 	36.69983	-122.05429	2489581	2.12	2005-07-07 16:45:26.0	Ventana	34.068	00:16:35:21	9.151	V2681-01HD
 	descend	Dosidicus gigas	602.34	2681	 	36.695633	-122.05113	1715655	0.3	2005-07-07 18:09:46.763	Ventana	34.388	01:40:08:18	5.472	V2681-02
 	descend	Nanomia	465.31	2683	 	36.7017	-122.0493	1756724	0.78	2005-07-11 17:10:08.0	Ventana	34.283	00:57:48:08	6.664	V2683-01
 	transect	Euplexaura	 	2687	 	 	 	1808999	 	2005-07-13 17:33:17.0	Ventana	 	01:00:09:24	 	V2687-01
 	transect	Ceriantharia sp. 2	998.72	2669	 	36.731064	-122.230446	1683370	0.45	2005-05-25 18:17:58.0	Ventana	34.522	00:40:25:08	3.91	V2669-01
 	transect	Gastropoda sp.2	1000.35	2669	 	36.731537	-122.24259	1694516	0.4	2005-05-25 19:42:26.0	Ventana	34.511	02:04:23:10	4.084	V2669-02
 	transect	Calycophorae	400.78	2681	 	36.696438	-122.05194	2493004	0.79	2005-07-07 17:43:49.0	Ventana	34.276	01:14:13:25	6.644	V2681-02HD
 	transect	Ceriantharia sp. 1	602.42	2680	 	36.7903	-122.232704	1806757	0.35	2005-06-27 20:18:11.0	Ventana	34.378	02:56:47:18	5.586	V2680-03
 	transect	Psolus squamatus	 	2687	 	 	 	1809968	 	2005-07-13 18:49:01.0	Ventana	 	02:14:47:19	 	V2687-03
 	ascend	Leuroglossus stilbius	339.51	2693	 	36.69293	-122.06147	1758966	1.26	2005-07-25 21:12:08.0	Ventana	34.236	03:36:39:28	7.444	V2693-04
 	transect	Mediaster	399.48	2687	 	36.789413	-122.12562	1809705	1.13	2005-07-13 18:38:08.0	Ventana	34.239	02:04:26:25	7.252	V2687-02
 	transect	Eptatretus stoutii	998.71	2669	http://search.mbari.org/ARCHIVE/frameGrabs/Ventana/images/2669/00_34_21_21.jpg	36.73086	-122.229645	1651145	0.45	2005-05-25 18:11:54.0	Ventana	34.522	00:34:21:21	3.907	V2669-01
 	transect	Mesomyaria	999.44	2669	 	36.73133	-122.23592	1684491	0.44	2005-05-25 18:57:06.0	Ventana	34.52	01:19:05:22	3.936	V2669-02
 	transect	Phyllospadix	799.78	2674	 	36.752453	-122.20533	1799772	0.35	2005-06-08 17:56:33.0	Ventana	34.486	00:41:05:11	4.355	V2674-01
 	descend	Haliscera	287.0	2682	 	36.699375	-122.06067	1720107	1.25	2005-07-08 16:52:29.0	Ventana	34.228	00:46:32:27	7.494	V2682-01
 	transect	Sebastolobus altivelis	800.28	2674	http://search.mbari.org/ARCHIVE/frameGrabs/Ventana/images/2674/01_31_27_25.jpg	36.75129	-122.21571	1803366	0.35	2005-06-08 18:47:24.0	Ventana	34.485	01:31:27:25	4.343	V2674-02
 	ascend	Mysidae	943.96	2682	 	36.69769	-122.058495	1723055	0.42	2005-07-08 20:10:09.0	Ventana	34.515	04:02:19:13	4.052	V2682-05
 	ascend	Leuroglossus stilbius	717.23	2682	 	36.698814	-122.059296	1723318	0.28	2005-07-08 20:30:39.0	Ventana	34.432	04:22:48:26	4.969	V2682-05
 	transect	Calycophorae	300.39	2681	 	36.69591	-122.05153	2492589	1.24	2005-07-07 17:28:53.0	Ventana	34.233	00:59:59:23	7.428	V2681-01HD
 	descend	Myctophidae	724.04	2682	 	36.69852	-122.05986	1721491	0.28	2005-07-08 18:23:37.0	Ventana	34.438	02:16:41:08	4.904	V2682-03
 	ascend	Copepoda	604.72	2682	 	36.698624	-122.061676	1723530	0.33	2005-07-08 20:57:27.0	Ventana	34.374	04:49:34:07	5.619	V2682-05
 	transect	Sebastolobus	 	2687	 	 	 	1811564	 	2005-07-13 20:15:50.0	Ventana	 	03:40:49:22	 	V2687-04
 	transect	Phyllospadix	197.83	2696	 	36.802658	-122.1217	1812916	1.53	2005-08-01 16:47:42.0	Ventana	34.206	00:16:01:25	8.56	V2696-01
 	cruise	Sebastolobus	521.74	2688	 	36.799587	-122.019035	1677474	0.66	2005-07-14 17:06:39.0	Ventana	34.315	00:52:56:22	6.353	V2688-01
 	transect	Phyllospadix	800.37	2674	 	36.751736	-122.2116	1801124	0.35	2005-06-08 18:26:23.0	Ventana	34.49	01:10:27:21	4.331	V2674-02
 	transect	Phyllospadix	199.39	2696	 	36.804195	-122.12596	1813391	1.52	2005-08-01 17:42:25.0	Ventana	34.208	01:10:19:11	8.66	V2696-02
 	ascend	Copepoda	370.84	2693	 	36.696556	-122.06061	1758703	1.2	2005-07-25 20:29:35.0	Ventana	34.233	03:09:08:29	7.175	V2693-03
 	transect	Mesomyaria	800.27	2674	 	36.752495	-122.20317	1799297	0.35	2005-06-08 17:44:28.0	Ventana	34.494	00:29:01:05	4.389	V2674-01
 	transect	Lumpenus sagitta	203.48	2696	http://search.mbari.org/ARCHIVE/frameGrabs/Ventana/images/2696/02_08_40_01.jpg	36.807434	-122.13109	1813834	1.46	2005-08-01 18:41:35.0	Ventana	34.22	02:08:40:01	8.616	V2696-03
 	transect	Nanomia bijuga	200.43	2681	 	36.69828	-122.05329	2490056	1.7	2005-07-07 17:04:26.0	Ventana	34.197	00:35:33:09	8.362	V2681-01HD
 	transect	Psolus squamatus	 	2687	 	 	 	1808616	 	2005-07-13 17:25:37.0	Ventana	 	00:52:29:28	 	V2687-01
 	transect	Appendicularia	600.59	2681	 	36.696186	-122.051765	2493710	0.3	2005-07-07 18:20:53.0	Ventana	34.387	01:51:15:00	5.491	V2681-02HD
 	descend	Euphausiacea	365.0	2682	 	36.698544	-122.06021	1720370	0.98	2005-07-08 17:29:19.0	Ventana	34.26	01:22:50:19	7.055	V2682-02
 	descend	Chuniphyes	724.12	2683	 	36.702236	-122.04894	1757107	0.32	2005-07-11 17:56:02.0	Ventana	34.436	01:40:08:00	4.902	V2683-02
 	transect	Nanomia bijuga	200.43	2681	 	36.69828	-122.05329	2490319	1.69	2005-07-07 17:06:52.0	Ventana	34.199	00:38:01:05	8.355	V2681-01HD
 	cruise	rock outcrop	440.96	2676	http://search.mbari.org/ARCHIVE/frameGrabs/Ventana/images/2676/00_23_31_27.jpg	36.80319	-122.02924	1676353	0.64	2005-06-14 16:39:24.0	Ventana	34.312	00:23:31:27	6.37	V2676-01
 	ascend	sinker	809.64	2681	 	36.699043	-122.05662	1717422	0.32	2005-07-07 20:00:16.9	Ventana	34.473	03:29:19:13	4.536	V2681-04
 	transect	bathocyroe	500.61	2681	 	36.697975	-122.05372	2493267	0.44	2005-07-07 17:54:53.0	Ventana	34.346	01:25:16:13	6.022	V2681-02HD
 	ascend	surface water	 	2686	 	 	 	1670014	 	2005-07-12 22:28:36.7	Ventana	 	01:35:44:25	 	V2686-01
 	descend	Lensia	311.63	2693	 	36.697582	-122.0608	1758491	1.31	2005-07-25 19:40:23.0	Ventana	34.233	02:19:57:19	7.619	V2693-03
 	transect	Psolus squamatus	 	2687	 	 	 	1810180	 	2005-07-13 19:05:45.0	Ventana	 	02:31:29:22	 	V2687-03
 	ascend	Cydippida	398.29	2682	 	36.697765	-122.06234	1723733	0.9	2005-07-08 21:22:06.0	Ventana	34.264	05:13:46:13	6.784	V2682-06
 	transect	Caridea sp.1	599.49	2680	 	36.783096	-122.22846	1805313	0.36	2005-06-27 19:03:46.0	Ventana	34.379	01:42:50:05	5.587	V2680-02
 	transect	Anthomastus ritteri	 	2687	 	 	 	1810886	 	2005-07-13 19:40:55.0	Ventana	 	03:05:56:17	 	V2687-04
 	transect	Mesomyaria	999.98	2669	 	36.731762	-122.24429	1734261	0.4	2005-05-25 19:51:43.0	Ventana	34.51	02:13:15:15	4.076	V2669-03
 	transect	Microstomus pacificus	602.22	2680	 	36.78772	-122.23194	1805931	0.36	2005-06-27 19:52:44.0	Ventana	34.377	02:31:22:28	5.595	V2680-03
 	transect	Mesomyaria	800.84	2674	 	36.751125	-122.21726	1803486	0.35	2005-06-08 18:55:02.0	Ventana	34.493	01:39:04:23	4.344	V2674-02
 	ascend	sinker	1110.4	2683	 	36.707916	-122.04905	1757785	0.6	2005-07-11 20:42:44.0	Ventana	34.548	04:17:04:11	3.653	V2683-04
 	stationary	Appendicularia	502.27	2694	 	36.784622	-122.20046	1676616	0.85	2005-07-27 19:50:13.0	Ventana	34.275	02:22:23:11	6.68	V2694-03
 	transect	molt	100.49	2681	 	36.699078	-122.05381	2489844	2.13	2005-07-07 16:51:46.0	Ventana	34.069	00:22:55:04	9.146	V2681-01HD
 	transect	Mesomyaria	1000.23	2669	 	36.731388	-122.24176	1689861	0.4	2005-05-25 19:38:13.0	Ventana	34.508	02:00:10:02	4.076	V2669-02
 	transect	Phyllospadix	598.97	2680	 	36.780155	-122.22518	1804607	0.35	2005-06-27 18:19:23.0	Ventana	34.383	00:59:28:20	5.549	V2680-01
 	descend	Appendicularia	458.65	2682	 	36.698498	-122.05955	1720785	0.55	2005-07-08 17:55:08.0	Ventana	34.325	01:48:38:22	6.245	V2682-02
 	transect	chuniphyes	700.64	2681	 	36.697247	-122.053116	2497659	0.29	2005-07-07 18:38:46.0	Ventana	34.436	02:08:29:14	4.936	V2681-03HD
 	transect	Phyllospadix	801.44	2674	 	36.751762	-122.21093	1801064	0.35	2005-06-08 18:23:50.0	Ventana	34.49	01:07:55:03	4.328	V2674-02
 	transect	Aegina	500.62	2681	 	36.696587	-122.05218	2493590	0.44	2005-07-07 18:00:45.0	Ventana	34.347	01:31:07:01	6.012	V2681-02HD
 	transect	Mesomyaria	1000.15	2669	 	36.73118	-122.24046	1689266	0.41	2005-05-25 19:30:30.0	Ventana	34.51	01:52:28:15	4.059	V2669-02
 	transect	Mesomyaria	802.36	2674	 	36.75232	-122.20575	1799832	0.36	2005-06-08 17:58:46.0	Ventana	34.489	00:43:18:12	4.333	V2674-01
 	transect	Mediaster	 	2687	 	 	 	1808879	 	2005-07-13 17:31:05.0	Ventana	 	00:57:57:22	 	V2687-01
 	ascend	Appendicularia	346.27	2693	 	36.6938	-122.06113	1758906	1.25	2005-07-25 21:05:14.0	Ventana	34.238	03:29:47:29	7.389	V2693-04
 	cruise	Remote Instrument Node	124.36	2672	http://search.mbari.org/ARCHIVE/frameGrabs/Ventana/images/2672/00_19_18_03.jpg	36.803104	-121.80559	20003821	2.7	2005-06-03 14:59:56.0	Ventana	33.952	00:19:18:03	9.338	V2672-01
 	transect	cydippida	500.59	2681	 	36.697514	-122.05325	2493387	0.44	2005-07-07 17:56:47.0	Ventana	34.347	01:27:10:18	6.017	V2681-02HD
 	transect	Neptunea amianta	800.93	2674	 	36.752514	-122.20268	1799237	0.35	2005-06-08 17:42:07.0	Ventana	34.487	00:26:40:05	4.377	V2674-01
 	transect	Neptunea amianta	800.55	2674	 	36.75203	-122.20906	1800861	0.35	2005-06-08 18:14:54.0	Ventana	34.487	00:59:25:05	4.328	V2674-01
 	transect	Psolus squamatus	 	2687	 	 	 	1812713	 	2005-07-13 20:54:26.0	Ventana	 	04:18:56:03	 	V2687-05
 	transect	Salpida	800.93	2681	 	36.69551	-122.05138	2498162	0.32	2005-07-07 18:56:05.0	Ventana	34.475	02:25:48:13	4.491	V2681-03HD
 	ascend	Sergestes similis	566.18	2683	 	36.70459	-122.050644	1757965	0.35	2005-07-11 21:13:34.0	Ventana	34.37	04:46:24:28	5.848	V2683-05
 	transect	Poeobius meseres	400.76	2681	 	36.696873	-122.05248	2493064	0.79	2005-07-07 17:45:46.0	Ventana	34.277	01:16:10:14	6.659	V2681-02HD
 	transect	Calliostoma platinum	 	2687	 	 	 	1812533	 	2005-07-13 20:44:22.0	Ventana	 	04:08:53:08	 	V2687-05
 	transect	Appendicularia	400.73	2681	 	36.69777	-122.053474	2493207	0.79	2005-07-07 17:49:29.0	Ventana	34.278	01:19:53:03	6.66	V2681-02HD
 	transect	Stomphia	1001.14	2669	 	36.7323	-122.24928	1736291	0.4	2005-05-25 20:27:48.0	Ventana	34.508	02:49:18:04	4.072	V2669-03
 	transect	Ceriantharia sp. 1	602.1	2680	 	36.790894	-122.23286	1806817	0.35	2005-06-27 20:23:35.0	Ventana	34.379	03:02:11:18	5.587	V2680-03
 	transect	Mesomyaria	999.68	2669	 	36.731426	-122.237015	1687439	0.44	2005-05-25 19:06:48.0	Ventana	34.52	01:28:47:02	3.942	V2669-02
 	transect	Mediaster	 	2687	http://search.mbari.org/ARCHIVE/frameGrabs/Ventana/images/2687/02_54_32_28.jpg	 	 	1810706	 	2005-07-13 19:28:49.0	Ventana	 	02:54:32:28	 	V2687-03
 	descend	Bathocyroe	1104.64	2682	 	36.69823	-122.05915	1722086	0.56	2005-07-08 19:08:00.0	Ventana	34.552	03:00:37:17	3.627	V2682-04
 	transect	Lycenchelys camchatica	801.39	2674	 	36.75227	-122.20722	1800035	0.37	2005-06-08 18:05:53.0	Ventana	34.495	00:50:25:00	4.36	V2674-01
 	transect	Calycophorae	1000.96	2681	 	36.69634	-122.05262	2498688	0.47	2005-07-07 19:29:21.0	Ventana	34.531	02:59:01:26	3.874	V2681-03HD
 	cruise	Mysidae	1008.48	2689	 	36.771564	-122.08286	1669631	0.49	2005-07-18 16:46:25.0	Ventana	34.528	00:09:29:16	3.88	V2689-01
 	transect	Nanomia bijuga	200.44	2681	 	36.69828	-122.05329	2490116	1.7	2005-07-07 17:04:54.0	Ventana	34.197	00:36:02:00	8.358	V2681-01HD
 	ascend	Nanomia	277.16	2693	 	36.69141	-122.062225	1759086	1.43	2005-07-25 21:20:33.0	Ventana	34.246	03:45:04:08	8.254	V2693-04
 	transect	Sebastolobus altivelis	800.98	2674	 	36.75212	-122.208305	1800741	0.35	2005-06-08 18:11:04.0	Ventana	34.49	00:55:36:09	4.322	V2674-01
 	transect	Mesomyaria	798.28	2674	 	36.751682	-122.21346	1801276	0.35	2005-06-08 18:34:45.0	Ventana	34.488	01:18:49:22	4.353	V2674-02
 	transect	Umbellula lindahli	598.53	2680	 	36.78073	-122.22573	1804810	0.35	2005-06-27 18:26:51.0	Ventana	34.379	01:05:57:27	5.575	V2680-02
 	cruise	rock outcrop	428.6	2676	 	36.80351	-122.02923	1676413	0.67	2005-06-14 16:41:53.0	Ventana	34.311	00:26:01:25	6.482	V2676-01
 	transect	Mesomyaria	1000.03	2669	 	36.731895	-122.245415	1735382	0.41	2005-05-25 19:59:47.0	Ventana	34.51	02:21:17:08	4.065	V2669-03
 	transect	Porifera	399.68	2687	 	36.789265	-122.1246	1809585	1.16	2005-07-13 18:21:48.0	Ventana	34.242	01:48:07:13	7.338	V2687-02
 	cruise	Pleuronectiformes	508.85	2688	 	36.800976	-122.01871	1677534	0.68	2005-07-14 17:22:02.0	Ventana	34.31	01:07:46:25	6.426	V2688-02
 	descend	Copepoda	899.3	2683	 	36.703285	-122.048325	1757259	0.37	2005-07-11 18:32:11.0	Ventana	34.496	02:12:36:08	4.252	V2683-03
 	transect	Ophiuroidea	1000.33	2669	 	36.73145	-122.24209	1694456	0.4	2005-05-25 19:39:55.0	Ventana	34.509	02:01:52:21	4.076	V2669-02
 	starttransect	object	803.21	2674	 	36.75076	-122.22035	1803689	0.34	2005-06-08 19:08:17.0	Ventana	34.487	01:52:18:06	4.402	V2674-02
 	transect	Aegina	700.63	2681	 	36.695953	-122.05182	2497839	0.29	2005-07-07 18:44:08.0	Ventana	34.438	02:13:50:24	4.937	V2681-03HD
 	descend	Euphausiacea	183.84	2683	 	36.70104	-122.051125	1756341	1.62	2005-07-11 16:42:14.0	Ventana	34.186	00:29:54:10	8.649	V2683-01
 	transect	Psolus squamatus	399.87	2687	 	36.788094	-122.12162	1809202	1.13	2005-07-13 17:37:08.0	Ventana	34.243	01:03:30:27	7.262	V2687-02
 	transect	lobata	200.42	2681	 	36.69828	-122.0533	2490822	1.72	2005-07-07 17:09:07.0	Ventana	34.193	00:40:14:08	8.323	V2681-01HD
 	cruise	Rathbunaster californicus	106.55	2688	 	36.814766	-122.02403	1678060	1.95	2005-07-14 19:02:28.0	Ventana	34.09	02:47:41:23	8.887	V2688-03
 	ascend	Aegina	567.16	2682	 	36.69829	-122.06252	1723590	0.38	2005-07-08 21:07:10.0	Ventana	34.358	04:59:15:25	5.826	V2682-05
 	transect	Mesomyaria	600.82	2680	 	36.77711	-122.22226	1804224	0.36	2005-06-27 17:41:38.0	Ventana	34.379	00:21:46:13	5.576	V2680-01
 	transect	Mesomyaria	997.95	2669	 	36.73306	-122.252914	1737532	0.4	2005-05-25 20:50:17.0	Ventana	34.508	03:11:06:17	4.075	V2669-04
 	transect	Rathbunaster californicus	 	2687	 	 	 	1811624	 	2005-07-13 20:17:56.0	Ventana	 	03:42:55:02	 	V2687-04
 	transect	Psolus squamatus	 	2687	 	 	 	1812330	 	2005-07-13 20:32:24.0	Ventana	 	03:57:21:28	 	V2687-04
 	descend	Bargmannia elongata	431.95	2682	http://search.mbari.org/ARCHIVE/frameGrabs/Ventana/images/2682/01_39_51_29.jpg	36.698246	-122.05972	20004670	0.68	2005-07-08 17:46:22.0	Ventana	34.29	01:39:51:29	6.467	V2682-02
 	transect	Mesomyaria	1000.27	2669	 	36.73195	-122.2465	1735705	0.41	2005-05-25 20:08:29.0	Ventana	34.51	02:29:58:10	4.064	V2669-03
 	transect	Mesomyaria	800.69	2674	 	36.75246	-122.2046	1799620	0.35	2005-06-08 17:52:43.0	Ventana	34.488	00:37:16:11	4.346	V2674-01
 	cruise	Lithodidae	1211.43	2683	 	36.70671	-122.04764	1757642	0.73	2005-07-11 20:12:39.0	Ventana	34.578	03:47:02:22	3.341	V2683-04
 	transect	Rathbunaster californicus	 	2687	 	 	 	1811029	 	2005-07-13 19:48:51.0	Ventana	 	03:13:52:01	 	V2687-04
 	transect	molt	100.49	2681	 	36.699825	-122.05429	2489701	2.13	2005-07-07 16:48:13.0	Ventana	34.067	00:19:21:13	9.15	V2681-01HD
 	transect	Gastropoda sp.2	999.65	2669	 	36.73049	-122.228775	1695019	0.45	2005-05-25 18:05:14.0	Ventana	34.523	00:27:42:14	3.906	V2669-01
 	transect	Mesomyaria	1000.21	2669	 	36.73169	-122.24373	1733878	0.41	2005-05-25 19:48:23.0	Ventana	34.507	02:09:54:29	4.068	V2669-03
 	ascend	Poeobius meseres	1170.26	2682	 	36.69827	-122.057495	1722469	0.65	2005-07-08 19:53:34.0	Ventana	34.564	03:46:09:02	3.449	V2682-04
 	transect	Mesomyaria	999.94	2669	 	36.7326	-122.25074	1737029	0.4	2005-05-25 20:37:45.0	Ventana	34.507	02:59:13:14	4.073	V2669-03
 	ascend	Cydippida	376.88	2693	 	36.696056	-122.06058	1758763	1.19	2005-07-25 20:49:41.0	Ventana	34.23	03:14:14:26	7.151	V2693-04
 	transect	Phyllospadix	999.96	2669	 	36.731056	-122.239235	1689123	0.43	2005-05-25 19:22:34.0	Ventana	34.517	01:44:32:01	3.976	V2669-02
 	transect	Psolus squamatus	 	2687	 	 	 	1810503	 	2005-07-13 19:21:07.0	Ventana	 	02:46:50:28	 	V2687-03
 	cruise	Nanomia	345.92	2676	 	36.804497	-122.031105	1676233	1.14	2005-06-14 16:22:42.0	Ventana	34.241	00:06:51:16	7.34	V2676-01
 	transect	Phyllospadix	199.81	2696	 	36.80445	-122.12648	1813451	1.51	2005-08-01 17:47:55.0	Ventana	34.213	01:15:48:08	8.669	V2696-02
 	transect	molt	50.47	2681	 	36.699722	-122.05423	2485452	 	2005-07-07 16:32:50.0	Ventana	 	00:04:00:00	 	V2681-01HD
 	descend	Appendicularia	279.17	2682	 	36.69974	-122.06084	1720047	1.32	2005-07-08 16:34:08.0	Ventana	34.226	00:28:11:14	7.649	V2682-01
 	transect	Phyllospadix	800.91	2674	 	36.75252	-122.201485	1774209	0.34	2005-06-08 17:36:00.0	Ventana	34.477	00:20:33:20	4.423	V2674-01
 	transect	Phyllospadix	198.4	2696	 	36.803642	-122.124565	1813271	1.53	2005-08-01 17:28:49.0	Ventana	34.202	00:57:06:04	8.616	V2696-01
 	ascend	Cydippida	258.17	2681	 	36.697838	-122.05522	1719521	 	2005-07-07 21:29:59.0	Ventana	 	05:10:10:26	 	V2681-05
 	transect	Phyllospadix	799.8	2674	 	36.752514	-122.20392	1799417	0.35	2005-06-08 17:48:38.0	Ventana	34.483	00:33:10:21	4.374	V2674-01
 	transect	Gastropoda sp.2	999.89	2669	 	36.73174	-122.24399	1734081	0.4	2005-05-25 19:50:16.0	Ventana	34.509	02:11:46:03	4.069	V2669-03
 	transect	cydippida	200.44	2681	 	36.69828	-122.05329	2490642	1.73	2005-07-07 17:07:57.0	Ventana	34.193	00:39:05:26	8.328	V2681-01HD
 	descend	Aegina	652.19	2682	 	36.698643	-122.05993	1721348	0.28	2005-07-08 18:10:21.0	Ventana	34.408	02:03:25:11	5.244	V2682-03
 	descend	Calycophorae	1095.64	2683	 	36.705116	-122.048904	1757462	0.56	2005-07-11 19:29:10.0	Ventana	34.542	03:09:31:19	3.714	V2683-03
 	cruise	Ophiodon elongatus	103.1	2676	 	36.80702	-122.04044	1677151	1.96	2005-06-14 19:12:32.0	Ventana	34.151	02:51:17:15	8.454	V2676-03
 	transect	molt	100.56	2681	 	36.69983	-122.05429	2489521	2.13	2005-07-07 16:43:39.0	Ventana	34.068	00:14:48:23	9.147	V2681-01HD
 	transect	Brisaster	 	2687	 	 	 	1811209	 	2005-07-13 20:02:06.0	Ventana	 	03:27:05:23	 	V2687-04
 	descend	Medusae	318.8	2683	 	36.701153	-122.05012	1756521	1.22	2005-07-11 16:54:44.0	Ventana	34.24	00:42:22:26	7.552	V2683-01
 	transect	Nanomia bijuga	200.35	2681	 	36.698326	-122.053444	2491348	1.67	2005-07-07 17:13:40.0	Ventana	34.201	00:44:47:15	8.341	V2681-01HD
 	transect	Ceriantharia sp. 1	599.89	2680	 	36.778706	-122.223915	1804427	0.36	2005-06-27 18:02:33.0	Ventana	34.379	00:42:40:06	5.592	V2680-01
 	ascend	Leuroglossus stilbius	438.91	2683	 	36.7042	-122.05058	1758025	0.8	2005-07-11 21:18:41.0	Ventana	34.281	04:51:33:03	6.719	V2683-05
 	transect	cydippida	50.36	2681	 	36.69983	-122.05429	2485724	3.01	2005-07-07 16:39:44.0	Ventana	33.908	00:10:54:16	9.636	V2681-01HD
 	transect	Leuroglossus stilbius	400.78	2681	 	36.697292	-122.05294	2493124	0.79	2005-07-07 17:47:29.0	Ventana	34.278	01:17:52:14	6.663	V2681-02HD
 	transect	Phyllospadix	999.98	2669	 	36.73142	-122.23683	1686973	0.44	2005-05-25 19:04:49.0	Ventana	34.521	01:26:48:28	3.943	V2669-02
 	descend	Praya	35.54	2683	 	36.700756	-122.051575	1756221	3.59	2005-07-11 16:14:44.0	Ventana	33.659	00:02:26:10	9.437	V2683-01
 	transect	Mediaster	 	2687	 	 	 	1812450	 	2005-07-13 20:39:14.0	Ventana	 	04:04:11:23	 	V2687-04
 	cruise	Pleuronectiformes	442.65	2688	 	36.80406	-122.01833	1677654	0.89	2005-07-14 17:40:05.0	Ventana	34.269	01:25:48:23	6.872	V2688-02
 	transect	Mediaster	 	2687	 	 	 	1808796	 	2005-07-13 17:29:40.0	Ventana	 	00:56:32:23	 	V2687-01
 	transect	Pennatulacea sp.1	599.85	2680	 	36.77806	-122.22321	1804344	0.36	2005-06-27 17:53:39.0	Ventana	34.377	00:33:46:18	5.591	V2680-01
 	transect	Halipteris californica	598.0	2680	 	36.781734	-122.22685	1805050	0.36	2005-06-27 18:40:27.0	Ventana	34.376	01:19:32:12	5.601	V2680-02
 	transect	Stomphia	997.12	2669	 	36.73066	-122.22765	1649198	0.45	2005-05-25 17:58:25.0	Ventana	34.521	00:20:53:24	3.908	V2669-01
 	transect	Rathbunaster californicus	 	2687	 	 	 	1811744	 	2005-07-13 20:23:46.0	Ventana	 	03:48:44:10	 	V2687-04
 	transect	Gastropoda sp.2	999.83	2669	 	36.730927	-122.23143	1695079	0.45	2005-05-25 18:26:47.0	Ventana	34.522	00:49:13:24	3.917	V2669-01
 	transect	Rathbunaster californicus	200.71	2696	 	36.80525	-122.128174	1813594	1.5	2005-08-01 18:03:03.0	Ventana	34.211	01:30:55:26	8.668	V2696-02
 	transect	Gastropoda sp.2	1000.17	2669	 	36.73199	-122.247185	1735848	0.41	2005-05-25 20:13:17.0	Ventana	34.51	02:34:46:26	4.068	V2669-03
 	transect	Lycenchelys camchatica	798.89	2674	 	36.751404	-122.21496	1801396	0.35	2005-06-08 18:43:50.0	Ventana	34.49	01:27:53:21	4.336	V2674-02
 	transect	Mediaster	 	2687	 	 	 	1810646	 	2005-07-13 19:26:30.0	Ventana	 	02:52:13:16	 	V2687-03
 	stationary	Appendicularia	502.31	2694	 	36.78459	-122.20046	1676625	0.83	2005-07-27 19:55:43.0	Ventana	34.274	02:27:53:10	6.636	V2694-03
 	transect	Psolus squamatus	 	2687	 	 	 	1807698	 	2005-07-13 17:23:15.0	Ventana	 	00:50:07:17	 	V2687-01
 	ascend	Appendicularia	607.67	2681	 	36.69893	-122.054245	1717694	0.31	2005-07-07 20:29:31.813	Ventana	34.38	03:58:32:17	5.543	V2681-04
 	transect	Aegina	600.53	2681	 	36.697426	-122.053246	2493830	0.3	2005-07-07 18:26:30.0	Ventana	34.388	01:56:52:00	5.47	V2681-02HD
 	ascend	sinker	524.28	2682	 	36.698303	-122.062965	1723650	0.45	2005-07-08 21:11:23.0	Ventana	34.341	05:03:05:11	6.071	V2682-06
 	transect	Mesomyaria	1000.59	2669	 	36.732056	-122.247734	1736148	0.4	2005-05-25 20:16:51.0	Ventana	34.509	02:38:21:15	4.084	V2669-03
 	transect	Neptunea amianta	800.78	2674	 	36.751034	-122.21803	1803546	0.35	2005-06-08 18:58:22.0	Ventana	34.485	01:42:25:06	4.34	V2674-02
 	transect	Mediaster	 	2687	 	 	 	1812796	 	2005-07-13 20:57:53.0	Ventana	 	04:22:22:24	 	V2687-05
 	transect	Euphausia	200.42	2681	 	36.69828	-122.0533	2490882	1.7	2005-07-07 17:09:27.0	Ventana	34.197	00:40:35:16	8.33	V2681-01HD
 	transect	Gastropoda sp.2	1000.14	2669	 	36.731243	-122.23834	1694719	0.43	2005-05-25 19:17:24.0	Ventana	34.516	01:39:22:09	3.98	V2669-02
 	ascend	Aegina	680.21	2681	 	36.698746	-122.05453	1717625	0.27	2005-07-07 20:22:38.767	Ventana	34.413	03:51:39:28	5.162	V2681-04
 	transect	Psolus squamatus	399.84	2687	 	36.788048	-122.121544	1809142	1.13	2005-07-13 17:36:10.0	Ventana	34.242	01:02:32:10	7.271	V2687-02
 	transect	Sebastolobus altivelis	802.66	2674	 	36.75229	-122.206085	1799892	0.36	2005-06-08 18:00:22.0	Ventana	34.49	00:44:54:26	4.342	V2674-01
 	cruise	sediment	506.05	2694	 	36.783962	-122.20089	1676150	0.75	2005-07-27 17:06:54.0	Ventana	34.289	00:00:03:04	6.472	V2694-01
 	transect	Mesomyaria	999.25	2669	 	36.731033	-122.23118	1683550	0.45	2005-05-25 18:24:12.0	Ventana	34.522	00:46:39:01	3.911	V2669-01
 	ascend	Hastigerinella digitata	367.72	2693	 	36.69514	-122.06092	1758823	1.23	2005-07-25 20:58:04.0	Ventana	34.234	03:22:37:27	7.318	V2693-04
 	transect	Euplexaura	 	2687	 	 	 	1810240	 	2005-07-13 19:11:23.0	Ventana	 	02:37:08:08	 	V2687-03
 	ascend	Merluccius productus	134.81	2686	 	0.0	0.0	1669954	2.14	2005-07-12 22:18:44.0	Ventana	34.053	01:25:52:19	8.953	V2686-01
 	transect	Sebastolobus	999.46	2669	 	36.731197	-122.23567	1684371	0.44	2005-05-25 18:55:11.0	Ventana	34.52	01:17:11:10	3.935	V2669-02
 	ascend	Nanomia	258.17	2681	 	36.697838	-122.05522	1719544	 	2005-07-07 21:29:59.0	Ventana	 	05:12:29:07	 	V2681-05
 	transect	molt	100.49	2681	 	36.69982	-122.05429	2489724	2.13	2005-07-07 16:48:41.0	Ventana	34.067	00:19:50:17	9.152	V2681-01HD
 	transect	Umbellula lindahli	600.33	2680	 	36.783768	-122.22922	1805456	0.36	2005-06-27 19:10:44.0	Ventana	34.377	01:49:47:27	5.595	V2680-02
 	transect	Sebastes jordani	197.87	2696	 	36.80265	-122.1217	1812925	1.53	2005-08-01 16:48:52.0	Ventana	34.204	00:17:11:28	8.563	V2696-01
 	transect	Aegina	800.88	2681	 	36.695988	-122.05193	2498222	0.31	2005-07-07 18:58:22.0	Ventana	34.476	02:28:03:29	4.496	V2681-03HD
 	ascend	Appendicularia	377.02	2681	 	36.699356	-122.05476	1718017	0.94	2005-07-07 20:50:01.067	Ventana	34.268	04:18:22:19	7.008	V2681-05
 	transect	Ceriantharia sp. 2	1000.56	2669	 	36.732166	-122.24832	1736208	0.41	2005-05-25 20:21:05.0	Ventana	34.51	02:42:34:23	4.062	V2669-03
 	transect	Sebastolobus altivelis	801.21	2674	 	36.75096	-122.21878	1803606	0.35	2005-06-08 19:01:29.0	Ventana	34.487	01:45:31:11	4.352	V2674-02
 	descend	Copepoda	780.66	2682	 	36.69837	-122.05975	1721671	0.3	2005-07-08 18:34:18.0	Ventana	34.456	02:27:21:11	4.685	V2682-03
 	descend	Colobonema	364.12	2683	 	36.701366	-122.04985	1756581	1.12	2005-07-11 16:57:19.0	Ventana	34.236	00:44:58:13	7.121	V2683-01
 	descend	Nanomia	207.29	2681	 	36.69846	-122.05351	1713565	1.59	2005-07-07 17:14:39.667	Ventana	34.206	00:45:47:15	8.31	V2681-01
 	transect	Phyllospadix	800.75	2674	 	36.752556	-122.201706	1799094	0.34	2005-06-08 17:37:03.0	Ventana	34.479	00:21:36:17	4.445	V2674-01
 	transect	Ceriantharia sp. 1	598.29	2680	 	36.781418	-122.226494	1804990	0.36	2005-06-27 18:36:23.0	Ventana	34.376	01:15:28:16	5.598	V2680-02
 	transect	Phyllospadix	 	2687	 	 	 	1811827	 	2005-07-13 20:26:34.0	Ventana	 	03:51:32:29	 	V2687-04
 	ascend	Poeobius meseres	938.94	2681	 	36.69756	-122.05402	1716956	0.41	2005-07-07 19:42:49.983	Ventana	34.515	03:11:53:18	4.072	V2681-04
 	cruise	Glyptocephalus zachirus	404.46	2688	 	36.806507	-122.019394	1677737	1.04	2005-07-14 17:50:42.0	Ventana	34.25	01:36:25:04	7.165	V2688-02
 	descend	Nanomia	151.32	2682	 	36.69986	-122.06074	1719904	2.12	2005-07-08 16:18:41.0	Ventana	34.124	00:12:45:28	8.597	V2682-01
 	transect	Mesomyaria	997.73	2669	 	36.73057	-122.2272	1649115	0.45	2005-05-25 17:55:32.0	Ventana	34.521	00:18:01:08	3.91	V2669-01
 	starttransect	physical object	600.87	2680	 	36.78593	-122.23083	1805848	0.36	2005-06-27 19:33:19.0	Ventana	34.377	02:11:59:07	5.6	V2680-03
 	transect	Mediaster	400.26	2687	 	36.788986	-122.123825	1809502	1.17	2005-07-13 18:09:39.0	Ventana	34.238	01:35:59:03	7.353	V2687-02
 	transect	Mediaster	 	2687	 	 	 	1811352	 	2005-07-13 20:08:57.0	Ventana	 	03:33:56:13	 	V2687-04
 	descend	Appendicularia	533.5	2683	 	36.70153	-122.04914	1756927	0.54	2005-07-11 17:42:56.0	Ventana	34.324	01:27:03:02	6.217	V2683-02
 	transect	Ophiuroidea	999.91	2669	 	36.731075	-122.23518	1684288	0.45	2005-05-25 18:52:08.0	Ventana	34.521	01:14:07:26	3.921	V2669-02
 	transect	Mesomyaria	999.23	2669	 	36.731396	-122.23638	1684731	0.44	2005-05-25 19:00:18.0	Ventana	34.52	01:22:17:21	3.946	V2669-02
 	ascend	sinker	337.32	2681	 	36.69938	-122.05525	1718100	1.14	2005-07-07 20:53:46.3	Ventana	34.245	04:22:06:19	7.281	V2681-05
 	transect	Mesomyaria	1000.17	2669	 	36.73144	-122.24192	1689921	0.4	2005-05-25 19:39:03.0	Ventana	34.509	02:01:00:18	4.077	V2669-02
 	descend	Appendicularia	940.55	2683	 	36.703766	-122.0486	1757319	0.4	2005-07-11 19:08:42.0	Ventana	34.508	02:49:04:10	4.125	V2683-03
 	transect	Mesomyaria	801.21	2674	 	36.751953	-122.20974	1800944	0.35	2005-06-08 18:18:31.0	Ventana	34.49	01:02:36:21	4.331	V2674-02
 	transect	Mesomyaria	798.67	2674	 	36.75156	-122.21414	1801336	0.35	2005-06-08 18:39:12.0	Ventana	34.488	01:23:16:05	4.338	V2674-02
 	transect	Umbellula lindahli	599.62	2680	 	36.7775	-122.22256	1804284	0.36	2005-06-27 17:47:06.0	Ventana	34.379	00:27:13:15	5.585	V2680-01
 	transect	Ceriantharia sp. 2	999.96	2669	 	36.730923	-122.231445	1683633	0.45	2005-05-25 18:27:01.0	Ventana	34.521	00:49:27:22	3.919	V2669-01
 	transect	Mesomyaria	 	2669	 	 	 	1737592	 	2005-05-25 13:52:37.0	Ventana	 	03:13:25:01	 	V2669-04
 	transect	Pennatulacea sp.1	602.02	2680	 	36.791348	-122.232925	1806840	0.35	2005-06-27 20:27:19.0	Ventana	34.378	03:05:55:01	5.588	V2680-03
 	transect	Mesomyaria	802.13	2674	 	36.75223	-122.20651	1799952	0.36	2005-06-08 18:02:21.0	Ventana	34.488	00:46:53:07	4.345	V2674-01
 	transect	Calliostoma platinum	 	2687	 	 	 	1809788	 	2005-07-13 18:40:10.0	Ventana	 	02:05:56:11	 	V2687-03
 	cruise	Sebastolobus	620.56	2688	 	36.794266	-122.01955	1677294	0.42	2005-07-14 16:29:10.0	Ventana	34.41	00:15:30:10	5.297	V2688-01
 	descend	Appendicularia	872.2	2682	 	36.6983	-122.05943	1721754	0.33	2005-07-08 18:49:31.0	Ventana	34.489	02:42:33:22	4.358	V2682-03
 	ascend	Salpida	359.73	2693	 	36.69406	-122.06102	1758883	1.24	2005-07-25 21:03:02.0	Ventana	34.237	03:27:34:18	7.346	V2693-04
 	descend	Appendicularia	1119.33	2682	 	36.69821	-122.05919	1722146	0.58	2005-07-08 19:11:59.0	Ventana	34.554	03:04:37:10	3.59	V2682-04
 	ascend	Copepoda	315.38	2681	 	36.69967	-122.05527	1718160	1.25	2005-07-07 20:57:47.803	Ventana	34.232	04:26:07:27	7.457	V2681-05
 	transect	Sebastolobus	 	2687	 	 	 	1812736	 	2005-07-13 20:55:23.0	Ventana	 	04:19:53:17	 	V2687-05
 	cruise	mud	233.66	2688	 	36.809933	-122.02059	1677940	1.61	2005-07-14 18:32:07.0	Ventana	34.178	02:17:23:04	8.389	V2688-03
 	descend	Calycophorae	288.98	2683	 	36.70103	-122.050186	1756484	1.29	2005-07-11 16:53:01.0	Ventana	34.241	00:40:41:04	7.765	V2683-01
 	descend	Hormiphora	220.74	2682	 	36.69989	-122.06071	1719964	1.77	2005-07-08 16:21:34.0	Ventana	34.197	00:15:39:27	7.986	V2682-01
 	transect	Psolus squamatus	399.86	2687	http://search.mbari.org/ARCHIVE/frameGrabs/Ventana/images/2687/01_02_12_24.jpg	36.788044	-122.12152	1809082	1.14	2005-07-13 17:35:50.0	Ventana	34.237	01:02:12:24	7.276	V2687-02
 	cruise	rockwall	104.55	2688	 	36.814266	-122.01717	1679241	1.97	2005-07-14 19:35:37.133	Ventana	34.09	03:20:24:24	8.904	V2688-04
 	ascend	Copepoda	727.73	2681	 	36.698692	-122.05531	1717565	0.28	2005-07-07 20:17:53.367	Ventana	34.44	03:46:54:10	4.906	V2681-04
 	descend	Hormiphora	192.8	2693	 	36.696087	-122.05817	1758288	1.79	2005-07-25 18:14:47.0	Ventana	34.186	00:55:16:07	8.907	V2693-01
 	descend	Solmaris	604.7	2681	 	36.695694	-122.051094	1715715	0.3	2005-07-07 18:12:40.333	Ventana	34.39	01:43:02:00	5.451	V2681-02
 	ascend	Calycophorae	916.21	2681	 	36.69779	-122.05446	1717016	0.39	2005-07-07 19:46:16.067	Ventana	34.504	03:15:19:14	4.188	V2681-04
 	descend	Prayidae	574.78	2683	 	36.701878	-122.0491	1756987	0.39	2005-07-11 17:47:07.0	Ventana	34.357	01:31:14:15	5.908	V2683-02
 	descend	Poeobius meseres	811.52	2683	 	36.7027	-122.04863	1757190	0.36	2005-07-11 18:15:10.0	Ventana	34.468	01:59:14:21	4.519	V2683-02
 	transect	molt	100.52	2681	 	36.69983	-122.05429	2489641	2.13	2005-07-07 16:46:54.0	Ventana	34.069	00:18:04:03	9.144	V2681-01HD
 	descend	Copepoda	998.15	2682	 	36.69832	-122.05923	1722017	0.43	2005-07-08 18:58:37.0	Ventana	34.52	02:51:39:20	3.997	V2682-03
 	descend	Amphipoda	1184.14	2682	 	36.69824	-122.057884	1722409	0.66	2005-07-08 19:42:04.0	Ventana	34.569	03:34:41:15	3.414	V2682-04
 	ascend	Cydippida	258.17	2681	 	36.697838	-122.05522	1719461	 	2005-07-07 21:29:59.0	Ventana	 	05:06:08:15	 	V2681-05
 	descend	Solmissus	404.75	2683	 	36.701454	-122.04954	1756641	0.95	2005-07-11 17:04:07.0	Ventana	34.262	00:51:46:08	6.947	V2683-01
 	transect	Phyllospadix	 	2687	 	 	 	1811481	 	2005-07-13 20:14:25.0	Ventana	 	03:39:24:15	 	V2687-04
 	transect	Psolus squamatus	 	2687	 	 	 	1811089	 	2005-07-13 19:52:26.0	Ventana	 	03:17:26:25	 	V2687-04
 	transect	Ophiuroidea	998.95	2669	 	36.731403	-122.23648	1684791	0.44	2005-05-25 19:01:32.0	Ventana	34.52	01:23:31:15	3.941	V2669-02
 	descend	sinker	917.26	2681	 	36.694725	-122.050446	1716513	0.4	2005-07-07 19:17:28.067	Ventana	34.505	02:47:09:16	4.111	V2681-03
 	cruise	Chionoecetes tanneri	1222.78	2683	 	36.706123	-122.04773	1757582	0.73	2005-07-11 20:00:07.0	Ventana	34.575	03:34:31:09	3.337	V2683-04
 	transect	Brisaster	999.67	2669	 	36.731422	-122.23695	1687033	0.44	2005-05-25 19:05:57.0	Ventana	34.519	01:27:56:10	3.942	V2669-02
 	transect	Mesomyaria	1000.09	2669	 	36.731113	-122.238686	1688883	0.42	2005-05-25 19:19:19.0	Ventana	34.51	01:41:17:21	3.988	V2669-02
 	descend	Chaetognatha	157.88	2683	 	36.700653	-122.051636	1756281	1.69	2005-07-11 16:26:37.0	Ventana	34.175	00:14:19:18	8.806	V2683-01
 	descend	Melanostigma	600.32	2681	 	36.695698	-122.05111	1715918	0.3	2005-07-07 18:18:13.967	Ventana	34.386	01:48:34:24	5.498	V2681-02
 	transect	Mesomyaria	999.12	2669	 	36.731045	-122.231865	1683693	0.45	2005-05-25 18:29:29.0	Ventana	34.522	00:51:55:04	3.915	V2669-01
 	descend	Calycophorae	329.48	2682	 	36.698795	-122.06063	1720167	1.09	2005-07-08 17:10:43.0	Ventana	34.248	01:04:14:19	7.225	V2682-02
 	descend	Poeobius meseres	1199.76	2682	 	36.698315	-122.059044	1722206	0.68	2005-07-08 19:17:39.0	Ventana	34.574	03:10:17:16	3.367	V2682-04
 	transect	Mesomyaria	1000.04	2669	 	36.7306	-122.229225	1651062	0.45	2005-05-25 18:08:18.0	Ventana	34.523	00:30:46:07	3.906	V2669-01
 	transect	Acanthamunnopsis milleri	200.37	2681	 	36.69832	-122.05343	2491288	1.66	2005-07-07 17:13:24.0	Ventana	34.2	00:44:32:20	8.34	V2681-01HD
 	transect	Euplexaura	 	2687	 	 	 	1810383	 	2005-07-13 19:16:50.0	Ventana	 	02:42:34:16	 	V2687-03
 	cruise	Alepocephalus tenebrosus	592.75	2688	 	36.796608	-122.02012	1677391	0.47	2005-07-14 16:40:56.2	Ventana	34.377	00:27:15:16	5.655	V2688-01
 	transect	Mesomyaria	1000.44	2669	 	36.73094	-122.23294	1683836	0.45	2005-05-25 18:36:18.2	Ventana	34.523	00:58:43:16	3.909	V2669-01
 	transect	Mediaster	 	2687	 	 	 	1812390	 	2005-07-13 20:36:16.0	Ventana	 	04:01:14:05	 	V2687-04
 	transect	Rathbunaster californicus	199.59	2696	 	36.803886	-122.12532	1813331	1.52	2005-08-01 17:35:56.0	Ventana	34.207	01:03:49:20	8.636	V2696-02
 	descend	Melanostigma pammelas	674.91	2682	 	36.69866	-122.05995	1721408	0.28	2005-07-08 18:12:13.0	Ventana	34.412	02:05:18:15	5.189	V2682-03
 	ascend	Nanomia	184.4	2693	 	36.690613	-122.06291	1759229	1.93	2005-07-25 21:29:25.0	Ventana	34.138	03:53:57:04	8.863	V2693-04
 	cruise	Sebastolobus	340.78	2688	 	36.807793	-122.01987	1677797	1.2	2005-07-14 17:58:01.0	Ventana	34.23	01:43:43:07	7.486	V2688-02
 	transect	Sebastolobus	 	2687	 	 	 	1812593	 	2005-07-13 20:46:30.0	Ventana	 	04:11:01:01	 	V2687-05
 	transect	Ceriantharia sp. 1	601.5	2680	 	36.785397	-122.230576	1805788	0.36	2005-06-27 19:27:28.0	Ventana	34.377	02:06:30:08	5.601	V2680-02
 	transect	Mediaster	 	2687	 	 	 	1807638	 	2005-07-13 17:19:47.0	Ventana	 	00:46:39:24	 	V2687-01
 	transect	Rathbunaster californicus	197.03	2696	 	36.803387	-122.12356	1813188	1.55	2005-08-01 17:17:22.0	Ventana	34.198	00:45:40:14	8.624	V2696-01
 	ascend	Appendicularia	280.5	2681	 	36.69973	-122.05503	1718303	1.36	2005-07-07 21:02:59.067	Ventana	34.234	04:31:19:25	7.751	V2681-05
 	ascend	Chaetognatha	816.76	2682	 	36.69865	-122.05872	1723258	0.32	2005-07-08 20:22:39.0	Ventana	34.466	04:14:47:23	4.535	V2682-05
 	transect	haliscera	300.43	2681	 	36.69706	-122.052574	2492386	1.23	2005-07-07 17:24:42.0	Ventana	34.234	00:55:50:00	7.392	V2681-01HD
 	transect	Neptunea amianta	800.89	2674	http://search.mbari.org/ARCHIVE/frameGrabs/Ventana/images/2674/00_12_49_11.jpg	36.752533	-122.20024	20003881	0.3	2005-06-08 17:28:17.0	Ventana	34.469	00:12:49:11	4.601	V2674-01
 	transect	Ophiuroidea	1000.12	2669	 	36.731045	-122.23967	1689183	0.41	2005-05-25 19:25:42.0	Ventana	34.51	01:47:40:13	4.061	V2669-02
 	ascend	Poeobius meseres	497.71	2681	 	36.69895	-122.054245	1717754	0.51	2005-07-07 20:34:43.983	Ventana	34.328	04:03:44:12	6.15	V2681-04
 	descend	Appendicularia	281.59	2693	 	36.69793	-122.06137	1758431	1.41	2005-07-25 19:36:11.0	Ventana	34.235	02:15:47:20	7.992	V2693-03
 	cruise	Sebastolobus	364.57	2676	http://search.mbari.org/ARCHIVE/frameGrabs/Ventana/images/2676/00_30_18_15.jpg	36.80454	-122.029076	1676496	0.95	2005-06-14 16:46:11.0	Ventana	34.271	00:30:18:15	7.046	V2676-01
 	transect	Euphausia	200.4	2681	 	36.698296	-122.053345	2491085	1.69	2005-07-07 17:11:40.0	Ventana	34.198	00:42:48:01	8.335	V2681-01HD
 	transect	Poeobius meseres	400.79	2681	 	36.695942	-122.05136	2492935	0.79	2005-07-07 17:41:39.0	Ventana	34.277	01:12:04:00	6.662	V2681-02HD
 	transect	Psolus squamatus	 	2687	 	 	 	1808939	 	2005-07-13 17:32:24.0	Ventana	 	00:59:16:18	 	V2687-01
 	descend	Appendicularia	1005.85	2683	 	36.704086	-122.049835	1757379	0.44	2005-07-11 19:16:44.0	Ventana	34.52	02:57:07:00	4.001	V2683-03
 	descend	Appendicularia	397.56	2682	 	36.698303	-122.059875	1720702	0.86	2005-07-08 17:37:29.0	Ventana	34.255	01:31:00:06	6.703	V2682-02
 	transect	Ceriantharia sp. 1	802.41	2674	 	36.751766	-122.21033	1801004	0.35	2005-06-08 18:21:10.0	Ventana	34.491	01:05:15:10	4.336	V2674-02
 	transect	Psolus squamatus	 	2687	 	 	 	1808736	 	2005-07-13 17:27:59.0	Ventana	 	00:54:51:15	 	V2687-01
 	transect	Sebastes saxicola	204.06	2696	 	36.805283	-122.128235	1813691	1.49	2005-08-01 18:15:36.0	Ventana	34.214	01:43:28:03	8.637	V2696-02
 	transect	Allocentrotus fragilis	 	2687	 	 	 	1811292	 	2005-07-13 20:05:34.0	Ventana	 	03:30:33:21	 	V2687-04
 	ascend	Crustacea	1169.82	2683	 	36.707058	-122.04812	1757725	0.7	2005-07-11 20:27:46.0	Ventana	34.569	04:02:07:00	3.406	V2683-04
 	ascend	Appendicularia	642.17	2683	 	36.705128	-122.05005	1757928	0.28	2005-07-11 21:09:40.0	Ventana	34.406	04:42:33:15	5.272	V2683-05
 	transect	Calycophorae	700.63	2681	 	36.69669	-122.05258	2497719	0.29	2005-07-07 18:40:59.0	Ventana	34.436	02:10:41:25	4.93	V2681-03HD
 	transect	Mesomyaria	999.1	2669	 	36.73052	-122.22855	1650905	0.45	2005-05-25 18:04:12.0	Ventana	34.522	00:26:40:18	3.908	V2669-01
 	transect	Mediaster	 	2687	http://search.mbari.org/ARCHIVE/frameGrabs/Ventana/images/2687/03_08_34_04.jpg	 	 	1810946	 	2005-07-13 19:43:32.0	Ventana	 	03:08:34:04	 	V2687-04
 	cruise	Rathbunaster californicus	465.81	2688	 	36.802456	-122.018234	1677594	0.82	2005-07-14 17:30:44.0	Ventana	34.283	01:16:28:12	6.738	V2688-02
 	ascend	Appendicularia	418.65	2681	 	36.699223	-122.054306	1717957	0.79	2005-07-07 20:45:49.3	Ventana	34.281	04:14:10:19	6.659	V2681-05
 	transect	Mesomyaria	998.21	2669	 	36.732967	-122.25248	1737449	0.4	2005-05-25 20:48:05.0	Ventana	34.508	03:08:53:00	4.076	V2669-04
 	descend	Nanomia	492.3	2683	 	36.70149	-122.04937	1756784	0.71	2005-07-11 17:24:05.0	Ventana	34.298	01:08:11:22	6.529	V2683-02
 	transect	Microstomus pacificus	200.31	2696	 	36.804855	-122.12746	1813534	1.51	2005-08-01 17:57:38.0	Ventana	34.211	01:25:30:23	8.672	V2696-02
 	cruise	Florometra	136.06	2676	 	36.808506	-122.030975	1676888	1.71	2005-06-14 18:00:33.0	Ventana	34.175	01:40:16:14	8.304	V2676-02
 	transect	Sebastolobus altivelis	799.41	2674	 	36.751755	-122.212296	1801193	0.35	2005-06-08 18:29:10.0	Ventana	34.488	01:13:14:15	4.335	V2674-02
 	ascend	Appendicularia	590.59	2682	 	36.69879	-122.06073	1723461	0.4	2005-07-08 20:47:26.0	Ventana	34.372	04:39:33:10	5.67	V2682-05
 	ascend	Hastigerinella digitata	287.31	2683	 	36.703278	-122.05065	1758085	1.31	2005-07-11 21:25:11.0	Ventana	34.249	04:58:02:16	7.831	V2683-05
 	transect	beroe	200.43	2681	 	36.69828	-122.05329	2490176	1.7	2005-07-07 17:05:28.0	Ventana	34.197	00:36:36:23	8.358	V2681-01HD
 	transect	Mesomyaria	999.69	2669	 	36.731293	-122.235886	1684431	0.44	2005-05-25 18:56:42.0	Ventana	34.521	01:18:42:12	3.933	V2669-02
 	descend	Bathocyroe	552.58	2682	 	36.69863	-122.059784	1720905	0.35	2005-07-08 18:05:43.0	Ventana	34.374	01:59:12:22	5.665	V2682-02
 	transect	molt	100.5	2681	 	36.699635	-122.05417	2489784	2.13	2005-07-07 16:50:33.0	Ventana	34.067	00:21:43:08	9.16	V2681-01HD
 	stationary	cable	997.57	2679	http://search.mbari.org/ARCHIVE/frameGrabs/Ventana/images/2679/01_00_01_00.jpg	36.690403	-122.16632	1824385	0.47	2005-06-16 20:21:47.0	Ventana	34.533	01:00:01:00	3.873	V2679-01
 	transect	Mesomyaria	998.82	2669	 	36.730988	-122.23022	1651265	0.45	2005-05-25 18:16:06.0	Ventana	34.521	00:38:32:27	3.91	V2669-01
 	transect	Phyllospadix	800.62	2674	 	36.75257	-122.202095	1799154	0.34	2005-06-08 17:39:09.0	Ventana	34.482	00:23:42:29	4.44	V2674-01
 	transect	Phyllospadix	1000.43	2669	 	36.731213	-122.24116	1689386	0.41	2005-05-25 19:34:34.0	Ventana	34.512	01:56:31:23	4.058	V2669-02
 	ascend	Appendicularia	370.94	2693	 	36.696186	-122.060905	1758634	1.2	2005-07-25 20:22:39.0	Ventana	34.232	03:02:13:04	7.15	V2693-03
 	transect	Psolus squamatus	 	2687	 	 	 	1810037	 	2005-07-13 18:51:50.0	Ventana	 	02:17:36:15	 	V2687-03
 	transect	Phyllospadix	1000.29	2669	 	36.73162	-122.243256	1733795	0.41	2005-05-25 19:46:01.0	Ventana	34.51	02:07:33:15	4.063	V2669-03
 	ascend	Calycophorae	331.8	2693	 	36.69212	-122.06187	1759026	1.29	2005-07-25 21:16:01.0	Ventana	34.236	03:40:33:21	7.553	V2693-04
 	transect	Calliostoma platinum	399.49	2687	 	36.789368	-122.125	1809645	1.16	2005-07-13 18:29:08.0	Ventana	34.239	01:55:26:24	7.325	V2687-02
 	transect	Poeobius meseres	1000.98	2681	 	36.695595	-122.05166	2498628	0.48	2005-07-07 19:25:44.0	Ventana	34.533	02:55:23:24	3.846	V2681-03HD
 	transect	Ophiuroidea	998.06	2669	 	36.731133	-122.230995	1683490	0.45	2005-05-25 18:22:27.0	Ventana	34.523	00:44:53:15	3.912	V2669-01
 	transect	Phyllospadix	999.77	2669	http://search.mbari.org/ARCHIVE/frameGrabs/Ventana/images/2669/02_14_12_12.jpg	36.731773	-122.24447	1734344	0.4	2005-05-25 19:52:41.0	Ventana	34.508	02:14:12:12	4.075	V2669-03
 	transect	Microstomus pacificus	799.79	2674	 	36.75246	-122.204994	1799703	0.35	2005-06-08 17:54:49.0	Ventana	34.487	00:39:21:25	4.357	V2674-01
 	transect	Stomphia	997.37	2669	http://search.mbari.org/ARCHIVE/frameGrabs/Ventana/images/2669/00_23_00_07.jpg	36.730637	-122.22799	1649258	0.45	2005-05-25 18:00:32.0	Ventana	34.522	00:23:00:07	3.906	V2669-01
 	ascend	Appendicularia	624.38	2682	 	36.69887	-122.05981	1723401	0.39	2005-07-08 20:37:27.0	Ventana	34.39	04:29:35:21	5.465	V2682-05
 	transect	Phyllospadix	801.61	2674	 	36.75223	-122.20754	1800072	0.38	2005-06-08 18:07:18.0	Ventana	34.49	00:51:50:12	4.327	V2674-01
 	transect	Psolus squamatus	 	2687	 	 	 	1811172	 	2005-07-13 19:59:15.0	Ventana	 	03:24:15:09	 	V2687-04
 	transect	Ophiuroidea	999.94	2669	 	36.73097	-122.23258	1683776	0.45	2005-05-25 18:34:05.0	Ventana	34.522	00:56:31:08	3.91	V2669-01
 	transect	Mesomyaria	1000.26	2669	 	36.73128	-122.240944	1689349	0.41	2005-05-25 19:33:37.0	Ventana	34.51	01:55:34:17	4.056	V2669-02
 	transect	Sebastolobus altivelis	800.25	2674	 	36.752617	-122.201065	1774172	0.34	2005-06-08 17:33:58.0	Ventana	34.487	00:18:32:07	4.423	V2674-01
 	transect	Gastropoda	196.38	2696	 	36.80281	-122.122	1813045	1.55	2005-08-01 17:00:40.0	Ventana	34.2	00:28:59:13	8.601	V2696-01
 	transect	Microstomus pacificus	203.25	2696	 	36.80668	-122.13026	1813797	1.48	2005-08-01 18:31:43.0	Ventana	34.214	01:59:33:15	8.642	V2696-02
 	transect	Psolus squamatus	 	2687	 	 	 	1810097	 	2005-07-13 18:56:26.0	Ventana	 	02:22:11:23	 	V2687-03
 	transect	Pennatula phosphorea californica	602.62	2680	http://search.mbari.org/ARCHIVE/frameGrabs/Ventana/images/2680/02_50_57_13.jpg	36.78961	-122.23257	1806720	0.35	2005-06-27 20:12:20.0	Ventana	34.378	02:50:57:13	5.589	V2680-03
 	transect	Poeobius meseres	500.61	2681	 	36.69609	-122.05161	2493627	0.43	2005-07-07 18:02:57.0	Ventana	34.347	01:33:20:27	6.006	V2681-02HD
 	descend	Appendicularia	466.92	2683	 	36.7016	-122.049355	1756747	0.77	2005-07-11 17:12:51.0	Ventana	34.287	01:00:29:26	6.65	V2683-01
 	transect	molt	100.54	2681	 	36.69983	-122.05429	2489604	2.12	2005-07-07 16:45:52.0	Ventana	34.068	00:17:00:21	9.15	V2681-01HD
 	transect	Halipteris californica	597.89	2680	 	36.78116	-122.226105	1804893	0.35	2005-06-27 18:32:33.0	Ventana	34.377	01:11:38:25	5.598	V2680-02
 	transect	Appendicularia	300.43	2681	 	36.69623	-122.05186	2492552	1.24	2005-07-07 17:27:29.0	Ventana	34.237	00:58:36:08	7.412	V2681-01HD
 	ascend	Melanostigma pammelas	985.64	2683	 	36.70745	-122.04908	1757822	0.42	2005-07-11 20:52:09.0	Ventana	34.518	04:25:02:12	4.035	V2683-05
 	transect	Psolus squamatus	 	2687	 	 	 	1810849	 	2005-07-13 19:37:35.0	Ventana	 	03:03:18:14	 	V2687-03
 	descend	Appendicularia	177.72	2693	 	36.69609	-122.05815	1758251	1.93	2005-07-25 18:07:08.0	Ventana	34.149	00:47:39:21	8.883	V2693-01
 	transect	Rathbunaster californicus	 	2687	 	 	 	1807149	 	2005-07-13 17:01:39.0	Ventana	 	00:28:33:02	 	V2687-01
 	ascend	Medusae	764.25	2681	 	36.698677	-122.056046	1717505	0.29	2005-07-07 20:10:54.033	Ventana	34.451	03:39:55:13	4.792	V2681-04
 	transect	Psolus squamatus	 	2687	 	 	 	1811541	 	2005-07-13 20:15:20.0	Ventana	 	03:40:19:05	 	V2687-04
 	transect	Lycodes cortezianus	199.42	2696	 	36.804073	-122.12573	1813368	1.52	2005-08-01 17:40:14.0	Ventana	34.213	01:08:07:11	8.663	V2696-02
 	cruise	Scyliorhinidae	517.44	2688	 	36.80021	-122.01894	1677497	0.66	2005-07-14 17:10:57.0	Ventana	34.313	00:57:14:22	6.368	V2688-01
 	cruise	Pleuronectiformes	97.41	2688	 	36.817043	-122.01443	1679324	1.99	2005-07-14 19:58:55.0	Ventana	34.086	03:43:40:19	8.915	V2688-04
 	transect	Chionoecetes tanneri	800.4	2674	 	36.75175	-122.21184	1801147	0.35	2005-06-08 18:27:14.0	Ventana	34.49	01:11:18:29	4.339	V2674-02
 	transect	Psolus squamatus	 	2687	 	 	 	1808593	 	2005-07-13 17:24:36.0	Ventana	 	00:51:28:26	 	V2687-01
 	descend	Appendicularia	400.64	2681	 	36.695683	-122.05107	1715249	0.79	2005-07-07 17:39:51.333	Ventana	34.278	01:10:15:00	6.672	V2681-02
 	descend	Appendicularia	491.27	2682	 	36.69859	-122.05977	1720822	0.47	2005-07-08 17:58:47.0	Ventana	34.339	01:52:16:16	6.105	V2682-02
 	ascend	Appendicularia	345.14	2693	 	36.693283	-122.06137	1758943	1.25	2005-07-25 21:10:34.0	Ventana	34.236	03:35:07:02	7.407	V2693-04
 	transect	Phyllospadix	799.87	2674	 	36.752514	-122.20338	1799320	0.35	2005-06-08 17:45:34.0	Ventana	34.484	00:30:07:02	4.372	V2674-01
 	transect	Ceriantharia sp. 2	998.11	2669	 	36.733013	-122.252785	1737495	0.4	2005-05-25 20:49:32.0	Ventana	34.508	03:10:21:13	4.075	V2669-04
 	transect	Mesomyaria	1000.51	2669	 	36.73239	-122.249695	1736697	0.41	2005-05-25 20:31:15.0	Ventana	34.51	02:52:44:16	4.066	V2669-03
 	transect	Psolus squamatus	 	2687	 	 	 	1810420	 	2005-07-13 19:17:36.0	Ventana	 	02:43:20:11	 	V2687-03
 	transect	Phyllospadix	799.39	2674	 	36.752457	-122.2052	1799749	0.35	2005-06-08 17:56:01.0	Ventana	34.49	00:40:33:11	4.357	V2674-01
 	transect	Calycophorae	700.64	2681	 	36.6969	-122.052765	2497696	0.29	2005-07-07 18:40:12.0	Ventana	34.436	02:09:54:24	4.928	V2681-03HD
 	transect	Neptunea amianta	999.78	2669	 	36.731403	-122.23724	1687476	0.44	2005-05-25 19:08:37.0	Ventana	34.519	01:30:36:09	3.946	V2669-02
 	transect	Ceriantharia sp. 1	599.25	2680	 	36.782707	-122.227936	1805216	0.35	2005-06-27 18:58:46.0	Ventana	34.381	01:37:50:05	5.562	V2680-02
 	transect	Sergestes similis	300.42	2681	 	36.69752	-122.05298	2492229	1.24	2005-07-07 17:23:07.0	Ventana	34.233	00:54:14:07	7.406	V2681-01HD
 	transect	Brisaster	997.92	2669	 	36.730556	-122.22826	1649355	0.45	2005-05-25 18:02:17.0	Ventana	34.523	00:24:45:06	3.907	V2669-01
 	descend	Appendicularia	297.26	2682	 	36.69922	-122.060585	1720130	1.2	2005-07-08 16:55:18.0	Ventana	34.235	00:49:21:25	7.404	V2682-01
 	transect	Caridea sp.1	599.37	2680	 	36.779465	-122.224556	1804524	0.36	2005-06-27 18:10:27.0	Ventana	34.377	00:50:33:02	5.604	V2680-01
 	cruise	Eptatretus stoutii	999.07	2669	 	36.730465	-122.22681	1649032	0.45	2005-05-25 17:50:57.0	Ventana	34.52	00:13:26:09	3.913	V2669-01
 	transect	Poeobius meseres	300.45	2681	 	36.697853	-122.05325	2492123	1.23	2005-07-07 17:22:01.0	Ventana	34.233	00:53:08:22	7.4	V2681-01HD
 	descend	Dosidicus gigas	556.69	2681	 	36.695686	-122.051056	1715618	0.35	2005-07-07 18:06:25.667	Ventana	34.366	01:36:47:22	5.705	V2681-02
 	transect	Lycodapus	599.31	2680	 	36.778988	-122.224144	1804464	0.36	2005-06-27 18:05:28.0	Ventana	34.378	00:45:34:04	5.602	V2680-01
 	transect	Phyllospadix	 	2687	 	 	 	1807043	 	2005-07-13 16:55:51.0	Ventana	 	00:22:45:08	 	V2687-01
 	transect	Phyllospadix	800.55	2674	 	36.752434	-122.20469	1799643	0.36	2005-06-08 17:53:13.0	Ventana	34.488	00:37:46:06	4.355	V2674-01
 	transect	Nanomia bijuga	400.8	2681	 	36.696255	-122.05172	2492981	0.79	2005-07-07 17:43:01.0	Ventana	34.277	01:13:26:03	6.654	V2681-02HD
 	cruise	Zoarcidae	338.45	2688	 	36.807995	-122.02014	1677820	1.22	2005-07-14 18:07:00.0	Ventana	34.228	01:52:41:27	7.517	V2688-02
 	transect	Mesomyaria	1000.25	2669	 	36.731503	-122.24232	1694493	0.41	2005-05-25 19:41:08.0	Ventana	34.509	02:03:05:16	4.06	V2669-02
 	transect	Brisaster	1000.48	2669	http://search.mbari.org/ARCHIVE/frameGrabs/Ventana/images/2669/02_29_09_29.jpg	36.731964	-122.246445	1735682	0.41	2005-05-25 20:07:41.0	Ventana	34.509	02:29:09:29	4.064	V2669-03
 	ascend	back deck	 	2695	 	 	 	1824528	 	2005-07-28 21:06:27.0	Ventana	 	06:04:01:05	 	V2695-04
 	transect	beroe	600.59	2681	 	36.696396	-122.05202	2493733	0.3	2005-07-07 18:21:53.0	Ventana	34.388	01:52:14:13	5.48	V2681-02HD
 	endtransect	physical object	802.21	2674	 	36.752457	-122.19965	1773803	0.29	2005-06-08 17:25:05.0	Ventana	34.46	00:09:38:29	4.655	V2674-01
 	transect	Nanomia bijuga	200.42	2681	 	36.69828	-122.05329	2490296	1.69	2005-07-07 17:06:38.0	Ventana	34.199	00:37:45:21	8.355	V2681-01HD
 	cruise	Appendicularia	418.32	2676	 	36.80374	-122.02921	1676436	0.68	2005-06-14 16:42:53.0	Ventana	34.309	00:27:01:26	6.494	V2676-01
 	cruise	Lycodes	489.9	2688	 	36.801662	-122.018486	1677557	0.77	2005-07-14 17:25:15.0	Ventana	34.291	01:10:59:18	6.632	V2688-02
 	transect	phialidium	500.62	2681	 	36.698006	-122.05375	2493244	0.44	2005-07-07 17:54:43.0	Ventana	34.347	01:25:05:18	6.021	V2681-02HD
 	ascend	Aegina	785.05	2681	 	36.698887	-122.05647	1717445	0.28	2005-07-07 20:04:02.17	Ventana	34.458	03:33:04:18	4.699	V2681-04
 	cruise	Pleuronectiformes	93.8	2688	 	36.816116	-122.01659	1679384	1.96	2005-07-14 20:17:37.0	Ventana	34.094	04:02:22:12	8.934	V2688-04
 	transect	Lycenchelys camchatica	800.61	2674	 	36.752087	-122.20851	1800764	0.35	2005-06-08 18:11:59.0	Ventana	34.491	00:56:30:25	4.326	V2674-01
 	transect	Mesomyaria	799.34	2674	 	36.75165	-122.2131	1801253	0.35	2005-06-08 18:32:10.0	Ventana	34.489	01:16:14:21	4.344	V2674-02
 	transect	Psolus squamatus	 	2687	 	 	 	1808976	 	2005-07-13 17:32:54.0	Ventana	 	00:59:46:13	 	V2687-01
 	transect	Microstomus pacificus	803.73	2674	 	36.750732	-122.22071	1803712	0.34	2005-06-08 19:09:45.0	Ventana	34.485	01:53:47:08	4.402	V2674-02
 	transect	Euphausia	200.37	2681	 	36.69829	-122.05333	2491048	1.69	2005-07-07 17:11:10.0	Ventana	34.196	00:42:18:01	8.332	V2681-01HD
 	transect	Allocentrotus fragilis	399.86	2687	 	36.78812	-122.12163	1809239	1.13	2005-07-13 17:37:27.0	Ventana	34.243	01:03:49:25	7.255	V2687-02
 	transect	Hormiphora	200.43	2681	 	36.69828	-122.0533	2490785	1.73	2005-07-07 17:08:49.0	Ventana	34.193	00:39:56:29	8.321	V2681-01HD
 	transect	Brisaster	800.47	2674	 	36.751144	-122.216805	1803449	0.35	2005-06-08 18:52:28.0	Ventana	34.487	01:36:31:10	4.363	V2674-02
 	transect	Mesomyaria	800.8	2674	 	36.752552	-122.20028	1774066	0.3	2005-06-08 17:28:36.0	Ventana	34.454	00:13:09:17	4.605	V2674-01
 	transect	Phyllospadix	203.88	2696	 	36.807575	-122.13121	1813857	1.46	2005-08-01 18:43:32.0	Ventana	34.227	02:10:37:11	8.645	V2696-03
 	descend	Euphotic zone	146.94	2685	 	36.793503	-121.88327	1669728	2.01	2005-07-12 20:11:26.0	Ventana	34.102	00:00:46:07	8.898	V2685-01
 	ascend	Appendicularia	1111.52	2682	 	36.698063	-122.05752	1722589	0.58	2005-07-08 19:57:53.0	Ventana	34.554	03:50:27:27	3.586	V2682-04
 	descend	Nanomia	 	2693	 	 	 	1759432	 	2005-07-25 16:44:42.0	Ventana	 	00:23:15:27	 	V2693-01
 	transect	Mesomyaria	999.44	2669	 	36.73133	-122.23592	1684468	0.44	2005-05-25 18:57:06.0	Ventana	34.52	01:19:05:22	3.936	V2669-02
 	descend	Appendicularia	1161.73	2683	 	36.705116	-122.048904	1757499	0.67	2005-07-11 19:34:24.0	Ventana	34.561	03:14:44:09	3.468	V2683-03
 	descend	Appendicularia	443.98	2682	 	36.698322	-122.05967	1720762	0.59	2005-07-08 17:47:50.0	Ventana	34.31	01:41:21:03	6.353	V2682-02
 	ascend	Hastigerinella digitata	280.75	2681	 	36.69975	-122.05514	1718257	1.36	2005-07-07 21:01:19.567	Ventana	34.232	04:29:39:28	7.737	V2681-05
 	transect	Rathbunaster californicus	 	2687	 	 	 	1812293	 	2005-07-13 20:31:10.0	Ventana	 	03:56:07:27	 	V2687-04
 	transect	Phyllospadix	799.7	2674	 	36.751312	-122.21544	1803343	0.35	2005-06-08 18:45:52.0	Ventana	34.494	01:29:55:17	4.361	V2674-02
 	descend	Cydippida	408.95	2681	 	36.698044	-122.05378	1715309	0.75	2005-07-07 17:50:53.0	Ventana	34.285	01:21:15:00	6.574	V2681-02
 	transect	Mediaster	399.84	2687	 	36.78801	-122.1214	1809036	1.15	2005-07-13 17:34:46.0	Ventana	34.239	01:01:03:05	7.299	V2687-01
 	transect	Phyllospadix	999.78	2669	 	36.731056	-122.23894	1689086	0.43	2005-05-25 19:20:56.0	Ventana	34.518	01:42:54:24	3.96	V2669-02
 	ascend	Calycophorae	463.22	2682	 	36.698334	-122.06304	1723710	0.61	2005-07-08 21:17:41.0	Ventana	34.302	05:09:22:28	6.354	V2682-06
 	transect	Aegina	901.04	2681	 	36.695892	-122.05184	2498388	0.39	2005-07-07 19:11:34.0	Ventana	34.505	02:41:14:07	4.171	V2681-03HD
 	transect	Ceriantharia sp. 1	801.05	2674	 	36.751083	-122.217514	1803509	0.35	2005-06-08 18:56:09.0	Ventana	34.491	01:40:12:13	4.345	V2674-02
 	transect	Stomphia	801.88	2674	 	36.75235	-122.20561	1799809	0.36	2005-06-08 17:57:48.0	Ventana	34.487	00:42:20:06	4.345	V2674-01
 	transect	Ceriantharia sp. 1	601.9	2680	 	36.787167	-122.23163	1805908	0.36	2005-06-27 19:46:33.0	Ventana	34.377	02:25:11:14	5.6	V2680-03
 	transect	Porifera sp. 1	399.68	2687	 	36.78929	-122.12475	1809608	1.16	2005-07-13 18:23:43.0	Ventana	34.239	01:50:02:24	7.337	V2687-02
 	transect	molt	100.51	2681	 	36.69983	-122.05429	2489664	2.13	2005-07-07 16:47:23.0	Ventana	34.068	00:18:32:15	9.148	V2681-01HD
 	transect	Mesomyaria	1000.27	2669	 	36.73183	-122.24517	1735359	0.4	2005-05-25 19:58:05.0	Ventana	34.505	02:19:35:17	4.099	V2669-03
 	transect	Euplexaura	 	2687	 	 	 	1810157	 	2005-07-13 19:01:56.0	Ventana	 	02:27:41:19	 	V2687-03
 	transect	cydippida	200.46	2681	 	36.69828	-122.05329	2490236	1.7	2005-07-07 17:06:04.0	Ventana	34.198	00:37:12:15	8.363	V2681-01HD
 	transect	Umbellula lindahli	598.53	2680	 	36.78066	-122.22568	1804787	0.35	2005-06-27 18:26:02.0	Ventana	34.383	01:05:08:12	5.552	V2680-02
 	ascend	Kiyohimea	312.51	2693	 	36.691532	-122.06206	1759063	1.3	2005-07-25 21:18:52.0	Ventana	34.236	03:43:23:13	7.619	V2693-04
 	transect	Pennatulacea sp.1	600.35	2680	 	36.777233	-122.22241	1804261	0.36	2005-06-27 17:43:52.0	Ventana	34.379	00:23:59:18	5.579	V2680-01
 	descend	Appendicularia	328.07	2693	 	36.69744	-122.06056	1758514	1.29	2005-07-25 19:47:19.0	Ventana	34.236	02:26:53:22	7.576	V2693-03
 	transect	Phyllospadix	801.98	2674	 	36.75246	-122.19987	1773863	0.29	2005-06-08 17:26:11.0	Ventana	34.467	00:10:45:09	4.64	V2674-01
 	transect	Appendicularia	400.76	2681	 	36.696747	-122.05232	2493041	0.79	2005-07-07 17:45:14.0	Ventana	34.277	01:15:37:14	6.659	V2681-02HD
 	descend	Chuniphyes	854.3	2683	 	36.7029	-122.04836	1757236	0.34	2005-07-11 18:25:45.0	Ventana	34.487	02:09:48:11	4.363	V2683-02
 	ascend	Chuniphyes	692.23	2682	 	36.69889	-122.05942	1723341	0.29	2005-07-08 20:32:42.0	Ventana	34.412	04:24:50:16	5.117	V2682-05
 	transect	Diogenidae	600.02	2680	 	36.784256	-122.22963	1805539	0.36	2005-06-27 19:15:47.0	Ventana	34.378	01:54:50:23	5.604	V2680-02
 	transect	Mediaster	 	2687	 	 	 	1811232	 	2005-07-13 20:05:15.0	Ventana	 	03:30:15:02	 	V2687-04
 	transect	Salpida	400.75	2681	 	36.697617	-122.05332	2493184	0.79	2005-07-07 17:48:53.0	Ventana	34.278	01:19:16:06	6.659	V2681-02HD
 	transect	Poeobius meseres	1001.06	2681	 	36.69504	-122.05094	2498568	0.47	2005-07-07 19:22:45.0	Ventana	34.531	02:52:24:29	3.866	V2681-03HD
 	descend	Chaetognatha	1078.45	2682	 	36.69831	-122.059166	1722063	0.51	2005-07-08 19:05:31.0	Ventana	34.541	02:58:33:29	3.754	V2682-03
 	transect	Phyllospadix	801.1	2674	 	36.752155	-122.20811	1800704	0.35	2005-06-08 18:10:10.0	Ventana	34.491	00:54:41:18	4.331	V2674-01
 	ascend	Appendicularia	496.22	2683	 	36.704384	-122.05058	1757988	0.6	2005-07-11 21:16:28.0	Ventana	34.317	04:49:19:20	6.403	V2683-05
 	ascend	Cydippida	137.01	2693	 	36.69077	-122.06296	1759266	1.94	2005-07-25 21:32:06.0	Ventana	34.093	03:56:37:03	9.168	V2693-04
 	transect	Euplexaura	 	2687	 	 	 	1810683	 	2005-07-13 19:27:59.0	Ventana	 	02:53:42:14	 	V2687-03
 	transect	Mesomyaria	801.79	2674	 	36.75225	-122.20702	1800012	0.36	2005-06-08 18:04:43.0	Ventana	34.489	00:49:14:27	4.344	V2674-01
 	transect	Poeobius meseres	600.56	2681	 	36.696873	-122.0526	2493793	0.3	2005-07-07 18:24:04.0	Ventana	34.388	01:54:24:07	5.477	V2681-02HD
 	transect	Poeobius meseres	1000.95	2681	 	36.6965	-122.05288	2498711	0.47	2005-07-07 19:30:15.0	Ventana	34.532	02:59:55:02	3.883	V2681-03HD
 	transect	Phyllospadix	801.09	2674	 	36.751957	-122.20926	1800884	0.36	2005-06-08 18:15:43.0	Ventana	34.49	01:00:14:06	4.318	V2674-01
 	transect	Glyptocephalus zachirus	202.08	2696	 	36.805256	-122.12819	1813631	1.5	2005-08-01 18:08:04.0	Ventana	34.211	01:35:56:00	8.664	V2696-02
 	transect	molt	100.52	2681	 	36.698956	-122.053734	2489867	2.12	2005-07-07 16:52:02.0	Ventana	34.07	00:23:11:12	9.148	V2681-01HD
 	transect	Phyllospadix	800.92	2674	 	36.75252	-122.20149	1799057	0.34	2005-06-08 17:36:07.0	Ventana	34.477	00:20:40:29	4.423	V2674-01
 	transect	Gastropoda sp.2	999.65	2669	 	36.7307	-122.22941	1695042	0.45	2005-05-25 18:09:42.0	Ventana	34.522	00:32:09:20	3.91	V2669-01
 	transect	Mesomyaria	1000.08	2669	 	36.73168	-122.24359	1733855	0.41	2005-05-25 19:47:54.0	Ventana	34.508	02:09:25:14	4.069	V2669-03
 	cruise	Chionoecetes tanneri	1000.57	2669	http://search.mbari.org/ARCHIVE/frameGrabs/Ventana/images/2669/02_39_31_05.jpg	36.732082	-122.24793	20003798	0.4	2005-05-25 20:18:02.0	Ventana	34.509	02:39:31:05	4.072	V2669-03
 	transect	Psolus squamatus	 	2687	 	 	 	1808856	 	2005-07-13 17:30:31.0	Ventana	 	00:57:23:22	 	V2687-01
 	transect	Phyllospadix	1000.47	2669	 	36.73207	-122.24757	1736111	0.4	2005-05-25 20:16:10.0	Ventana	34.508	02:37:41:21	4.077	V2669-03
 	descend	Appendicularia	509.0	2683	 	36.70142	-122.04919	1756867	0.68	2005-07-11 17:40:01.0	Ventana	34.305	01:24:09:00	6.461	V2683-02
 	transect	Mediaster	 	2687	 	 	 	1811804	 	2005-07-13 20:25:42.0	Ventana	 	03:50:40:12	 	V2687-04
 	ascend	Appendicularia	586.16	2682	 	36.698418	-122.06225	1723567	0.39	2005-07-08 21:05:05.0	Ventana	34.366	04:57:11:10	5.729	V2682-05
 	transect	Corallimorphus pilatus	 	2687	 	 	 	1811052	 	2005-07-13 19:49:36.0	Ventana	 	03:14:37:14	 	V2687-04
 	descend	Appendicularia	804.79	2682	 	36.69835	-122.05965	1721694	0.31	2005-07-08 18:37:49.0	Ventana	34.47	02:30:52:00	4.559	V2682-03
 	descend	Chaetognatha	161.9	2683	 	36.700943	-122.051384	1756318	1.69	2005-07-11 16:38:25.0	Ventana	34.176	00:26:06:23	8.793	V2683-01
 	cruise	Rathbunaster californicus	111.47	2688	 	36.81237	-122.0208	1678083	1.97	2005-07-14 19:16:55.0	Ventana	34.095	03:02:08:05	8.915	V2688-03
 	transect	Pennatula phosphorea californica	1000.47	2669	http://search.mbari.org/ARCHIVE/frameGrabs/Ventana/images/2669/02_46_49_02.jpg	36.73227	-122.24884	1736254	0.41	2005-05-25 20:25:19.0	Ventana	34.509	02:46:49:02	4.076	V2669-03
 	transect	Mediaster	399.82	2687	 	36.78806	-122.12151	1809179	1.13	2005-07-13 17:36:42.0	Ventana	34.241	01:03:04:11	7.262	V2687-02
 	transect	Leptomedusae	100.54	2681	 	36.69983	-122.05429	2489544	2.13	2005-07-07 16:44:16.0	Ventana	34.067	00:15:25:05	9.146	V2681-01HD
 	transect	Mesomyaria	998.72	2669	 	36.730907	-122.22974	1651168	0.45	2005-05-25 18:12:26.0	Ventana	34.521	00:34:53:19	3.912	V2669-01
 	cruise	Chionoecetes tanneri	1217.96	2683	 	36.70637	-122.04755	1757619	0.72	2005-07-11 20:09:06.0	Ventana	34.576	03:43:29:11	3.333	V2683-04
 	transect	Pennatulacea sp.1	602.41	2680	 	36.790478	-122.232735	1806780	0.35	2005-06-27 20:19:55.0	Ventana	34.378	02:58:31:17	5.59	V2680-03
 	transect	Gastropoda sp.2	 	2669	 	 	 	1737555	 	2005-05-25 13:51:19.0	Ventana	 	03:12:07:04	 	V2669-04
 	transect	Psolus squamatus	 	2687	 	 	 	1812353	 	2005-07-13 20:33:47.0	Ventana	 	03:58:45:13	 	V2687-04
 	transect	Ophiuroidea	998.49	2669	 	36.731174	-122.23452	1684145	0.45	2005-05-25 18:45:56.0	Ventana	34.522	01:07:56:15	3.916	V2669-02
 	ascend	Aegina	1039.8	2682	 	36.697803	-122.0578	1722815	0.48	2005-07-08 20:03:09.0	Ventana	34.528	03:55:43:11	3.87	V2682-04
 	descend	Poeobius meseres	1079.68	2683	 	36.705105	-122.04892	1757439	0.52	2005-07-11 19:27:34.0	Ventana	34.536	03:07:54:10	3.801	V2683-03
 	transect	Caridea sp.1	599.88	2680	 	36.778507	-122.223694	1804404	0.36	2005-06-27 17:59:57.0	Ventana	34.378	00:40:03:27	5.583	V2680-01
 	transect	Neptunea amianta	1000.47	2669	 	36.732327	-122.24945	1736434	0.41	2005-05-25 20:29:15.0	Ventana	34.51	02:50:43:12	4.072	V2669-03
 	ascend	Nanomia	258.17	2681	 	36.697838	-122.05522	1719318	 	2005-07-07 21:29:59.0	Ventana	 	05:00:38:15	 	V2681-05
 	ascend	Cydippida	258.17	2681	 	36.697838	-122.05522	1719498	 	2005-07-07 21:29:59.0	Ventana	 	05:08:26:05	 	V2681-05
 	transect	Lycodes cortezianus	 	2687	http://search.mbari.org/ARCHIVE/frameGrabs/Ventana/images/2687/00_41_09_03.jpg	 	 	1807532	 	2005-07-13 17:14:15.0	Ventana	 	00:41:09:03	 	V2687-01
 	transect	Glyptocephalus zachirus	197.98	2696	 	36.8036	-122.124306	1813248	1.53	2005-08-01 17:26:07.0	Ventana	34.204	00:54:24:22	8.609	V2696-01
 	transect	molt	50.47	2681	 	36.699795	-122.054276	2485475	2.96	2005-07-07 16:33:22.0	Ventana	33.922	00:04:32:17	9.617	V2681-01HD
 	transect	Nanomia bijuga	200.38	2681	 	36.698303	-122.05338	2491168	1.68	2005-07-07 17:12:28.0	Ventana	34.2	00:43:35:25	8.339	V2681-01HD
 	cruise	Sebastolobus	612.23	2688	 	36.795254	-122.01905	1677331	0.45	2005-07-14 16:33:25.0	Ventana	34.39	00:19:45:10	5.505	V2688-01
 	cruise	Sebastolobus	1013.0	2689	 	36.771427	-122.082855	1669608	0.53	2005-07-18 16:38:08.0	Ventana	34.528	00:01:13:04	3.905	V2689-01
 	transect	Euphausia	200.47	2681	 	36.69828	-122.05329	2490619	1.72	2005-07-07 17:07:51.0	Ventana	34.195	00:38:59:20	8.334	V2681-01HD
 	transect	Phyllospadix	800.69	2674	 	36.752506	-122.202896	1799260	0.35	2005-06-08 17:43:01.0	Ventana	34.486	00:27:34:04	4.376	V2674-01
 	transect	chuniphyes	500.56	2681	 	36.69688	-122.052475	2493567	0.44	2005-07-07 17:59:38.0	Ventana	34.346	01:30:02:05	6.021	V2681-02HD
 	transect	Sebastolobus altivelis	800.75	2674	 	36.75175	-122.21117	1801087	0.35	2005-06-08 18:24:44.0	Ventana	34.489	01:08:48:26	4.342	V2674-02
 	descend	Copepoda	679.0	2683	 	36.702034	-122.04894	1757070	0.31	2005-07-11 17:53:09.0	Ventana	34.42	01:37:14:18	5.115	V2683-02
 	transect	Amphipoda	700.64	2681	 	36.697598	-122.05347	2497636	0.29	2005-07-07 18:37:14.0	Ventana	34.432	02:06:56:18	4.981	V2681-03HD
 	ascend	Poeobius meseres	641.19	2681	 	36.698864	-122.05421	1717671	0.28	2005-07-07 20:27:44.333	Ventana	34.396	03:56:44:21	5.364	V2681-04
 	transect	Sebastes diploproa	 	2687	 	 	 	1810480	 	2005-07-13 19:19:45.0	Ventana	 	02:45:28:26	 	V2687-03
 	ascend	Calycophorae	370.92	2693	 	36.696884	-122.06031	1758740	1.2	2005-07-25 20:32:46.0	Ventana	34.236	03:12:19:21	7.201	V2693-03
 	transect	Psolus squamatus	 	2687	 	 	 	1808653	 	2005-07-13 17:26:19.0	Ventana	 	00:53:11:23	 	V2687-01
 	transect	Parastichopus leukothele	199.67	2696	 	36.804337	-122.12624	1813428	1.52	2005-08-01 17:45:32.0	Ventana	34.209	01:13:25:08	8.663	V2696-02
 	transect	Mediaster	 	2687	 	 	 	1806983	 	2005-07-13 16:52:42.0	Ventana	 	00:19:37:05	 	V2687-01
 	cruise	Gorgonocephalus	98.42	2688	 	36.813034	-122.0205	1679527	1.94	2005-07-14 21:28:47.967	Ventana	34.108	05:13:00:13	8.877	V2688-05
 	cruise	Sebastes	432.81	2688	 	36.805035	-122.01879	1677677	0.92	2005-07-14 17:43:59.0	Ventana	34.266	01:29:42:13	6.946	V2688-02
 	transect	Psolus squamatus	 	2687	 	 	 	1808773	 	2005-07-13 17:29:06.0	Ventana	 	00:55:59:00	 	V2687-01
 	transect	Mediaster	 	2687	 	 	 	1812473	 	2005-07-13 20:40:47.0	Ventana	 	04:05:44:24	 	V2687-04
 	cruise	Copepoda	1000.88	2681	 	36.696587	-122.05298	1716550	0.47	2005-07-07 19:30:54.3	Ventana	34.529	03:00:34:29	3.885	V2681-03
 	transect	Phyllospadix	799.3	2674	 	36.752518	-122.20422	1799523	0.35	2005-06-08 17:50:25.0	Ventana	34.484	00:34:57:28	4.371	V2674-01
 	transect	Appendicularia	400.78	2681	 	36.69716	-122.05279	2493101	0.79	2005-07-07 17:46:56.0	Ventana	34.277	01:17:21:09	6.661	V2681-02HD
 	transect	Mesomyaria	997.47	2669	 	36.730633	-122.227585	1649175	0.45	2005-05-25 17:57:44.0	Ventana	34.521	00:20:12:26	3.909	V2669-01
 	ascend	Poeobius meseres	986.43	2681	 	36.696835	-122.053215	1716573	0.45	2005-07-07 19:34:22.323	Ventana	34.524	03:04:02:23	3.95	V2681-03
 	descend	Euphausiacea	256.3	2681	 	36.698574	-122.05358	1713602	1.46	2005-07-07 17:16:18.803	Ventana	34.214	00:47:27:01	7.88	V2681-01
 	transect	Corallimorphus pilatus	 	2687	http://search.mbari.org/ARCHIVE/frameGrabs/Ventana/images/2687/02_13_09_08.jpg	 	 	1809871	 	2005-07-13 18:47:23.0	Ventana	 	02:13:09:08	 	V2687-03
 	descend	Calycophorae	294.97	2681	 	36.69857	-122.05372	1713625	1.27	2005-07-07 17:17:37.133	Ventana	34.226	00:48:44:08	7.49	V2681-01
 	transect	Ceriantharia sp. 2	 	2669	 	 	 	1737675	 	2005-05-25 13:56:32.0	Ventana	 	03:17:20:03	 	V2669-04
 	transect	Hormiphora	200.43	2681	 	36.69828	-122.05329	2490153	1.7	2005-07-07 17:05:12.0	Ventana	34.197	00:36:20:13	8.358	V2681-01HD
 	cruise	Sebastomus complex	100.88	2676	 	36.810062	-122.03297	1676925	1.86	2005-06-14 18:10:08.0	Ventana	34.149	01:49:50:08	8.479	V2676-02
 	transect	Mesomyaria	999.14	2669	 	36.731163	-122.23557	1684348	0.45	2005-05-25 18:54:22.0	Ventana	34.523	01:16:21:21	3.919	V2669-02
 	descend	Appendicularia	917.93	2683	 	36.703667	-122.048615	1757296	0.38	2005-07-11 19:05:51.0	Ventana	34.502	02:46:14:08	4.203	V2683-03
 	transect	Mediaster	 	2687	 	 	 	1811721	 	2005-07-13 20:22:22.0	Ventana	 	03:47:20:17	 	V2687-04
 	starttransect	color bars	500.58	2681	 	36.698036	-122.05379	1715475	0.44	2005-07-07 17:54:30.167	Ventana	34.345	01:24:52:13	6.025	V2681-02
 	transect	Gastropoda sp.2	1000.2	2669	 	36.731674	-122.243835	1733975	0.41	2005-05-25 19:49:14.0	Ventana	34.509	02:10:47:02	4.069	V2669-03
 	transect	Calycophorae	1000.98	2681	 	36.695854	-122.051994	2498651	0.48	2005-07-07 19:27:12.0	Ventana	34.532	02:56:53:01	3.866	V2681-03HD
 	transect	Phyllospadix	999.37	2669	 	36.731052	-122.23389	1684002	0.45	2005-05-25 18:41:19.0	Ventana	34.523	01:03:19:24	3.912	V2669-02
 	ascend	Aegina	663.74	2681	 	36.69877	-122.05418	1717648	0.29	2005-07-07 20:26:04.467	Ventana	34.408	03:55:05:13	5.223	V2681-04
 	transect	Neptunea amianta	1000.13	2669	 	36.732536	-122.250206	1736923	0.41	2005-05-25 20:34:27.0	Ventana	34.51	02:55:55:27	4.067	V2669-03
 	cruise	Urochordata	357.91	2676	 	36.80468	-122.02901	1676579	0.96	2005-06-14 16:47:48.0	Ventana	34.268	00:31:56:05	7.075	V2676-01
 	descend	Crustacea	898.44	2682	 	36.698254	-122.05944	1721777	0.34	2005-07-08 18:51:13.0	Ventana	34.496	02:44:15:10	4.285	V2682-03
 	transect	Pseudosagitta maxima	901.05	2681	 	36.69642	-122.052505	2498305	0.39	2005-07-07 19:09:13.0	Ventana	34.504	02:38:55:06	4.168	V2681-03HD
 	transect	Mediaster	 	2687	 	 	 	1812819	 	2005-07-13 20:59:20.0	Ventana	 	04:23:50:09	 	V2687-05
 	descend	Aegina	730.89	2681	 	36.694927	-122.050575	1716227	0.3	2005-07-07 18:49:47.333	Ventana	34.445	02:19:31:01	4.819	V2681-03
 	transect	Psolus squamatus	399.84	2687	http://search.mbari.org/ARCHIVE/frameGrabs/Ventana/images/2687/01_02_17_21.jpg	36.788036	-122.12153	1809119	1.13	2005-07-13 17:35:55.0	Ventana	34.244	01:02:17:21	7.27	V2687-02
 	transect	Sebastes diploproa	 	2687	 	 	 	1810969	 	2005-07-13 19:45:17.0	Ventana	 	03:10:18:10	 	V2687-04
 	transect	Mesomyaria	801.04	2674	 	36.75099	-122.218346	1803569	0.35	2005-06-08 18:59:39.0	Ventana	34.491	01:43:42:01	4.343	V2674-02
 	descend	Appendicularia	333.38	2683	 	36.701225	-122.05004	1756544	1.22	2005-07-11 16:55:34.0	Ventana	34.229	00:43:15:06	7.406	V2683-01
 	cruise	Lycodes	413.42	2676	http://search.mbari.org/ARCHIVE/frameGrabs/Ventana/images/2676/00_27_29_00.jpg	36.80386	-122.02921	20003918	0.68	2005-06-14 16:43:21.0	Ventana	34.309	00:27:29:00	6.499	V2676-01
 	ascend	Appendicularia	887.51	2682	 	36.698387	-122.058426	1723221	0.34	2005-07-08 20:16:57.0	Ventana	34.493	04:09:07:08	4.315	V2682-05
 	ascend	Appendicularia	542.51	2682	 	36.698326	-122.06278	1723627	0.41	2005-07-08 21:09:51.0	Ventana	34.352	05:01:31:24	5.938	V2682-06
 	transect	Mediaster	 	2687	 	 	 	1811375	 	2005-07-13 20:09:58.0	Ventana	 	03:34:57:29	 	V2687-04
 	ascend	Chaetognatha	373.35	2693	 	36.695614	-122.06065	1758800	1.2	2005-07-25 20:53:02.0	Ventana	34.233	03:17:35:02	7.176	V2693-04
 	descend	Appendicularia	382.51	2682	 	36.69843	-122.05993	1720679	0.93	2005-07-08 17:35:32.0	Ventana	34.261	01:29:02:21	6.963	V2682-02
 	ascend	Poeobius meseres	1131.16	2682	 	36.698185	-122.05752	1722529	0.6	2005-07-08 19:56:25.0	Ventana	34.559	03:49:00:20	3.532	V2682-04
 	cruise	boulder	114.3	2688	 	36.813133	-122.01889	1679204	1.97	2005-07-14 19:28:58.0	Ventana	34.096	03:13:45:23	8.931	V2688-04
 	transect	Mesomyaria	999.98	2669	 	36.73191	-122.24568	1735419	0.41	2005-05-25 20:01:32.0	Ventana	34.508	02:23:03:13	4.065	V2669-03
 	transect	Mesomyaria	802.27	2674	 	36.75179	-122.2107	1801027	0.35	2005-06-08 18:22:26.0	Ventana	34.49	01:06:31:06	4.33	V2674-02
 	transect	Sebastolobus	999.0	2669	 	36.731415	-122.2362	1684671	0.44	2005-05-25 18:59:03.0	Ventana	34.52	01:21:02:22	3.94	V2669-02
 	ascend	sinker	1188.61	2683	 	36.70735	-122.047646	1757702	0.71	2005-07-11 20:22:54.0	Ventana	34.575	03:57:16:00	3.372	V2683-04
 	transect	Phyllospadix	197.77	2696	 	36.80351	-122.124016	1813225	1.54	2005-08-01 17:22:28.0	Ventana	34.199	00:50:46:08	8.61	V2696-01
 	transect	Ophiuroidea	999.66	2669	 	36.73055	-122.228966	1651025	0.45	2005-05-25 18:06:21.0	Ventana	34.523	00:28:48:26	3.905	V2669-01
 	transect	Euphausia	200.37	2681	 	36.698315	-122.05341	2491251	1.66	2005-07-07 17:13:08.0	Ventana	34.2	00:44:16:19	8.341	V2681-01HD
 	descend	Copepoda	247.58	2693	 	36.698475	-122.06168	1758394	1.47	2005-07-25 19:24:36.0	Ventana	34.229	02:04:37:24	8.471	V2693-02
 	transect	Psolus squamatus	 	2687	 	 	 	1810277	 	2005-07-13 19:13:56.0	Ventana	 	02:39:40:25	 	V2687-03
 	ascend	Chuniphyes	884.82	2681	 	36.69819	-122.055145	1717325	0.36	2005-07-07 19:50:51.533	Ventana	34.503	03:19:54:05	4.228	V2681-04
 	transect	Mesomyaria	801.87	2674	 	36.75091	-122.21958	1803629	0.35	2005-06-08 19:04:46.0	Ventana	34.49	01:48:48:03	4.362	V2674-02
 	transect	haliscera	800.88	2681	 	36.696316	-122.052315	2498245	0.31	2005-07-07 18:59:54.0	Ventana	34.475	02:29:35:08	4.5	V2681-03HD
 	ascend	Leuroglossus stilbius	393.36	2681	 	36.69931	-122.054565	1717994	0.93	2005-07-07 20:48:19.467	Ventana	34.266	04:16:40:19	6.914	V2681-05
 	transect	Lycenchelys camchatica	999.96	2669	http://search.mbari.org/ARCHIVE/frameGrabs/Ventana/images/2669/02_15_19_03.jpg	36.7318	-122.24456	1734381	0.4	2005-05-25 19:53:48.0	Ventana	34.506	02:15:19:03	4.08	V2669-03
 	transect	Mesomyaria	1000.47	2669	 	36.732235	-122.24865	1736231	0.41	2005-05-25 20:23:45.0	Ventana	34.509	02:45:14:11	4.063	V2669-03
 	cruise	mud	122.21	2688	 	36.812977	-122.01879	1678106	1.97	2005-07-14 19:27:28.0	Ventana	34.097	03:12:40:27	8.93	V2688-03
 	starttransect	physical object	600.78	2680	 	36.785137	-122.23045	1805765	0.36	2005-06-27 19:25:33.0	Ventana	34.377	02:04:34:11	5.597	V2680-02
 	ascend	Phialidium	529.6	2681	 	36.69897	-122.05425	1717731	0.43	2005-07-07 20:33:14.367	Ventana	34.348	04:02:15:11	6.033	V2681-04
 	transect	Chorilia longipes	802.04	2674	 	36.751892	-122.20991	1800967	0.35	2005-06-08 18:19:44.0	Ventana	34.489	01:03:49:17	4.328	V2674-02
 	transect	Phyllospadix	202.7	2696	 	36.805256	-122.12819	1813654	1.46	2005-08-01 18:11:40.0	Ventana	34.216	01:39:32:12	8.593	V2696-02
 	transect	Pennatulacea sp.1	602.04	2680	 	36.791626	-122.232956	1806863	0.36	2005-06-27 20:29:28.0	Ventana	34.378	03:08:03:29	5.589	V2680-03
 	transect	molt	100.5	2681	 	36.699802	-122.054276	2489747	2.12	2005-07-07 16:49:29.0	Ventana	34.067	00:20:38:01	9.156	V2681-01HD
 	ascend	Appendicularia	349.21	2681	 	36.699333	-122.05512	1718077	1.08	2005-07-07 20:52:41.8	Ventana	34.254	04:21:02:21	7.207	V2681-05
 	descend	Nanomia	169.13	2682	 	36.699883	-122.06075	1719927	2.24	2005-07-08 16:19:34.0	Ventana	34.122	00:13:38:19	8.307	V2682-01
 	transect	Phyllospadix	999.9	2669	 	36.731422	-122.236755	1686867	0.44	2005-05-25 19:03:57.0	Ventana	34.52	01:25:56:07	3.943	V2669-02
 	cruise	Pennatulacea	107.08	2688	 	36.811493	-122.02279	1678023	1.94	2005-07-14 18:48:34.0	Ventana	34.092	02:33:49:00	8.889	V2688-03
 	transect	Gastropoda sp.2	999.6	2669	 	36.731426	-122.23664	1694696	0.44	2005-05-25 19:03:13.0	Ventana	34.521	01:25:12:06	3.939	V2669-02
 	descend	Copepoda	1039.52	2682	 	36.69833	-122.05914	1722040	0.47	2005-07-08 19:03:13.0	Ventana	34.532	02:56:15:09	3.863	V2682-03
 	transect	Calliostoma platinum	400.03	2687	 	36.789074	-122.123955	1809525	1.17	2005-07-13 18:11:53.0	Ventana	34.238	01:38:13:07	7.357	V2687-02
 	descend	Appendicularia	546.37	2683	 	36.70165	-122.04916	1756950	0.49	2005-07-11 17:44:07.0	Ventana	34.328	01:28:12:01	6.129	V2683-02
 	transect	Sebastes diploproa	 	2687	 	 	 	1812556	 	2005-07-13 20:45:31.0	Ventana	 	04:10:01:18	 	V2687-05
 	transect	pseudothecosomata	1001.03	2681	 	36.695244	-122.051186	2498591	0.49	2005-07-07 19:23:49.0	Ventana	34.535	02:53:30:09	3.835	V2681-03HD
 	transect	Brisaster	998.34	2669	 	36.73293	-122.252075	1737329	0.4	2005-05-25 20:45:51.0	Ventana	34.509	03:06:41:17	4.083	V2669-04
 	cruise	Liponema brevicornis	501.89	2694	 	36.78449	-122.20046	1676173	0.75	2005-07-27 17:14:12.0	Ventana	34.288	00:07:20:21	6.475	V2694-01
 	descend	Cydippida	350.13	2682	 	36.69874	-122.06051	1720190	1.03	2005-07-08 17:13:14.0	Ventana	34.255	01:06:45:05	7.105	V2682-02
 	transect	Solaster borealis	1000.25	2669	http://search.mbari.org/ARCHIVE/frameGrabs/Ventana/images/2669/02_55_26_18.jpg	36.732517	-122.25014	1736863	0.41	2005-05-25 20:33:59.0	Ventana	34.51	02:55:26:18	4.067	V2669-03
 	descend	Mysidae	834.46	2683	 	36.702805	-122.04848	1757213	0.33	2005-07-11 18:23:26.0	Ventana	34.478	02:07:29:23	4.444	V2683-02
 	transect	Phyllospadix	800.62	2674	 	36.75263	-122.20187	1799117	0.34	2005-06-08 17:37:57.0	Ventana	34.479	00:22:30:16	4.403	V2674-01
 	transect	Rathbunaster californicus	200.3	2696	 	36.80517	-122.12804	1813571	1.5	2005-08-01 18:00:48.0	Ventana	34.211	01:28:40:21	8.671	V2696-02
 	ascend	Solmissus	257.98	2681	 	36.698753	-122.05682	1719092	1.43	2005-07-07 21:22:30.763	Ventana	34.226	04:50:49:24	7.958	V2681-05
 	transect	Rathbunaster californicus	 	2687	 	 	 	1811458	 	2005-07-13 20:13:47.0	Ventana	 	03:38:46:22	 	V2687-04
 	transect	Nanomia bijuga	400.76	2681	 	36.69751	-122.05319	2493161	0.79	2005-07-07 17:48:25.0	Ventana	34.277	01:18:48:10	6.66	V2681-02HD
 	transect	Ceriantharia sp. 2	1000.3	2669	 	36.73193	-122.24673	1735765	0.41	2005-05-25 20:10:23.0	Ventana	34.508	02:31:52:09	4.068	V2669-03
 	transect	Psolus squamatus	 	2687	 	 	 	1807675	 	2005-07-13 17:22:11.0	Ventana	 	00:49:04:02	 	V2687-01
 	cruise	Asteroidea	1002.06	2679	 	36.68986	-122.1656	1824348	0.42	2005-06-16 17:30:51.0	Ventana	34.513	00:02:14:08	4.108	V2679-01
 	transect	Nanomia bijuga	200.48	2681	 	36.69828	-122.05329	2490213	1.7	2005-07-07 17:05:52.0	Ventana	34.198	00:36:59:12	8.361	V2681-01HD
 	ascend	Appendicularia	416.44	2683	 	36.704124	-122.05059	1758048	0.92	2005-07-11 21:19:37.0	Ventana	34.258	04:52:29:08	6.866	V2683-05
 	transect	Sebastes crameri	 	2687	http://search.mbari.org/ARCHIVE/frameGrabs/Ventana/images/2687/03_07_30_20.jpg	 	 	1810909	 	2005-07-13 19:42:29.0	Ventana	 	03:07:30:20	 	V2687-04
 	transect	Rathbunaster californicus	 	2687	 	 	 	1812759	 	2005-07-13 20:56:18.0	Ventana	 	04:20:48:13	 	V2687-05
 	transect	Mesomyaria	1000.19	2669	 	36.731075	-122.23875	1689063	0.43	2005-05-25 19:19:45.0	Ventana	34.518	01:41:44:02	3.968	V2669-02
 	ascend	Dosidicus gigas	495.14	2682	 	36.69833	-122.06328	1723687	0.5	2005-07-08 21:14:20.0	Ventana	34.332	05:06:01:18	6.168	V2682-06
 	descend	Hormiphora	205.65	2693	 	36.696045	-122.05837	1758311	1.81	2005-07-25 18:25:50.0	Ventana	34.186	01:05:55:06	8.701	V2693-02
 	descend	Poeobius meseres	765.78	2681	 	36.694893	-122.05056	1716287	0.31	2005-07-07 18:50:56.5	Ventana	34.451	02:20:39:19	4.711	V2681-03
 	descend	Solmissus	252.58	2682	 	36.69987	-122.06081	1719987	1.39	2005-07-08 16:23:19.0	Ventana	34.228	00:17:22:26	7.902	V2682-01
 	ascend	Copepoda	706.39	2681	 	36.69872	-122.05498	1717588	0.29	2005-07-07 20:20:09.467	Ventana	34.426	03:49:10:24	5.064	V2681-04
 	stationary	Merluccius productus	502.38	2694	 	36.78453	-122.20048	1676662	0.73	2005-07-27 20:26:57.0	Ventana	34.293	02:59:05:13	6.407	V2694-03
 	ascend	Leuroglossus stilbius	928.07	2682	 	36.697968	-122.058495	1723138	0.38	2005-07-08 20:12:17.0	Ventana	34.504	04:04:28:13	4.191	V2682-05
 	ascend	Appendicularia	1152.92	2683	 	36.708035	-122.0489	1757762	0.69	2005-07-11 20:35:42.0	Ventana	34.569	04:10:03:05	3.418	V2683-04
 	descend	Solmissus	268.41	2683	 	36.700962	-122.05034	1756461	1.37	2005-07-11 16:51:45.0	Ventana	34.229	00:39:26:07	7.876	V2683-01
 	cruise	Actiniaria	500.2	2695	 	36.783733	-122.19958	1824408	0.89	2005-07-28 17:01:01.0	Ventana	34.263	00:07:24:00	6.705	V2695-01
 	transect	Mediaster	 	2687	 	 	 	1812210	 	2005-07-13 20:29:05.0	Ventana	 	03:54:03:03	 	V2687-04
 	descend	Appendicularia	423.72	2682	 	36.69819	-122.059784	1720739	0.69	2005-07-08 17:41:30.0	Ventana	34.286	01:35:01:14	6.477	V2682-02
 	transect	Euplexaura	 	2687	 	 	 	1810360	 	2005-07-13 19:16:22.0	Ventana	 	02:42:06:09	 	V2687-03
 	transect	Funiculina	998.81	2669	 	36.731148	-122.23409	1684062	0.45	2005-05-25 18:42:31.0	Ventana	34.523	01:04:32:03	3.914	V2669-02
 	ascend	Euphausiacea	261.71	2681	 	36.699165	-122.05465	1718686	1.42	2005-07-07 21:15:33.263	Ventana	34.231	04:43:52:22	7.972	V2681-05
 	transect	Rathbunaster californicus	199.13	2696	 	36.80379	-122.12501	1813308	1.53	2005-08-01 17:32:50.0	Ventana	34.204	01:01:07:13	8.632	V2696-01
 	cruise	Pleuronectiformes	564.55	2688	 	36.7972	-122.01997	1677414	0.51	2005-07-14 16:56:29.0	Ventana	34.353	00:42:47:15	5.868	V2688-01
 	ascend	Appendicularia	331.23	2681	 	36.699654	-122.05521	1718137	1.17	2005-07-07 20:55:49.5	Ventana	34.239	04:24:10:06	7.318	V2681-05
 	ascend	Appendicularia	365.66	2693	 	36.694473	-122.06104	1758860	1.24	2005-07-25 21:01:11.0	Ventana	34.238	03:25:44:29	7.345	V2693-04
 	transect	Microstomus pacificus	1000.14	2669	 	36.731236	-122.23836	1688860	0.43	2005-05-25 19:17:33.0	Ventana	34.516	01:39:31:19	3.98	V2669-02
 	ascend	Copepoda	595.87	2682	 	36.698757	-122.06091	1723484	0.37	2005-07-08 20:49:25.0	Ventana	34.372	04:41:32:26	5.653	V2682-05
 	ascend	Appendicularia	222.01	2683	 	36.70286	-122.05074	1758108	1.73	2005-07-11 21:28:04.0	Ventana	34.207	05:00:56:10	8.184	V2683-05
 	transect	Mediaster	399.89	2687	 	36.788124	-122.121666	1809262	1.13	2005-07-13 17:37:48.0	Ventana	34.243	01:04:10:09	7.26	V2687-02
 	transect	Psolus squamatus	 	2687	 	 	 	1811112	 	2005-07-13 19:53:46.0	Ventana	 	03:18:47:12	 	V2687-04
 	descend	Calycophorae	636.46	2681	 	36.697956	-122.05388	1715941	0.29	2005-07-07 18:29:55.767	Ventana	34.395	02:00:16:11	5.31	V2681-02
 	transect	Sebastolobus	997.52	2669	 	36.7306	-122.22703	1649092	0.45	2005-05-25 17:54:20.0	Ventana	34.521	00:16:48:27	3.909	V2669-01
 	transect	Mesomyaria	999.29	2669	 	36.731018	-122.2321	1683716	0.45	2005-05-25 18:30:35.0	Ventana	34.52	00:53:00:25	3.916	V2669-01
 	transect	Porifera sp. 1	 	2687	 	 	 	1808713	 	2005-07-13 17:27:39.0	Ventana	 	00:54:31:12	 	V2687-01
 	cruise	Pennatulacea	93.0	2688	 	36.81479	-122.018616	1679467	1.94	2005-07-14 21:07:12.0	Ventana	34.1	04:51:25:23	8.919	V2688-05
 	transect	Rathbunaster californicus	200.39	2696	 	36.80473	-122.127205	1813511	1.51	2005-08-01 17:55:01.0	Ventana	34.211	01:22:53:17	8.67	V2696-02
 	descend	Euphausia 2	186.39	2681	 	36.69828	-122.05329	1713542	1.92	2005-07-07 17:03:18.1	Ventana	34.142	00:34:27:04	8.464	V2681-01
 	descend	Sergestes similis	595.06	2683	 	36.701927	-122.04907	1757010	0.35	2005-07-11 17:48:54.0	Ventana	34.368	01:33:01:02	5.784	V2683-02
 	transect	Mediaster	 	2687	 	 	 	1811661	 	2005-07-13 20:20:01.0	Ventana	 	03:45:00:06	 	V2687-04
 	cruise	Chionoecetes tanneri	1229.87	2683	 	36.705822	-122.04785	1757559	0.74	2005-07-11 19:53:21.0	Ventana	34.578	03:27:45:00	3.303	V2683-04
 	transect	Mesomyaria	999.6	2669	 	36.731426	-122.23664	1684814	0.44	2005-05-25 19:03:14.0	Ventana	34.521	01:25:13:26	3.939	V2669-02
 	transect	Chionoecetes tanneri	999.79	2669	 	36.73132	-122.23797	1688311	0.44	2005-05-25 19:14:30.0	Ventana	34.521	01:36:28:18	3.951	V2669-02
 	ascend	Nanomia	258.17	2681	 	36.697838	-122.05522	1719438	 	2005-07-07 21:29:59.0	Ventana	 	05:04:54:22	 	V2681-05
 	descend	Chaetognatha	874.81	2681	 	36.69695	-122.05318	1716490	0.35	2005-07-07 19:05:15.367	Ventana	34.498	02:34:57:18	4.247	V2681-03
 	transect	Nanomia bijuga	200.49	2681	 	36.69828	-122.05329	2490559	1.71	2005-07-07 17:07:29.0	Ventana	34.195	00:38:37:17	8.336	V2681-01HD
 	transect	molt	50.43	2681	 	36.699825	-122.05429	2485558	2.94	2005-07-07 16:35:07.0	Ventana	33.926	00:06:18:04	9.618	V2681-01HD
 	transect	Psolus squamatus	 	2687	 	 	 	1807615	 	2005-07-13 17:17:57.0	Ventana	 	00:44:50:13	 	V2687-01
 	transect	Psolus squamatus	 	2687	 	 	 	1810766	 	2005-07-13 19:33:15.0	Ventana	 	02:58:57:28	 	V2687-03
 	transect	Euphausia	200.41	2681	 	36.698296	-122.05335	2491108	1.69	2005-07-07 17:11:54.0	Ventana	34.198	00:43:01:11	8.337	V2681-01HD
 	ascend	Nanomia	258.17	2681	 	36.697838	-122.05522	1719581	 	2005-07-07 21:29:59.0	Ventana	 	05:15:37:02	 	V2681-05
 	ascend	sinker	781.42	2682	 	36.698673	-122.058945	1723281	0.28	2005-07-08 20:26:06.0	Ventana	34.45	04:18:14:18	4.741	V2682-05
 	ascend	Crustacea	669.08	2683	 	36.70545	-122.04961	1757905	0.3	2005-07-11 21:08:00.0	Ventana	34.427	04:40:52:20	5.058	V2683-05
 	descend	Appendicularia	380.98	2683	 	36.701447	-122.0498	1756604	1.05	2005-07-11 16:58:15.0	Ventana	34.244	00:45:55:26	6.991	V2683-01
 	transect	Psolus squamatus	 	2687	 	 	 	1807066	 	2005-07-13 16:57:02.0	Ventana	 	00:23:56:20	 	V2687-01
 	transect	Psolus squamatus	 	2687	 	 	 	1808916	 	2005-07-13 17:31:56.0	Ventana	 	00:58:48:11	 	V2687-01
 	transect	Mesomyaria	999.99	2669	 	36.73107	-122.2398	1689206	0.41	2005-05-25 19:26:50.0	Ventana	34.511	01:48:48:02	4.063	V2669-02
 	descend	Calycophorae	292.73	2693	 	36.697807	-122.06119	1758454	1.34	2005-07-25 19:37:52.0	Ventana	34.236	02:17:28:10	7.821	V2693-03
 	transect	Calliostoma platinum	 	2687	 	 	 	1810217	 	2005-07-13 19:09:40.0	Ventana	 	02:35:25:13	 	V2687-03
 	ascend	Appendicularia	334.6	2693	 	36.692562	-122.06188	1759003	1.27	2005-07-25 21:14:49.0	Ventana	34.238	03:39:21:04	7.474	V2693-04
 	transect	Lycenchelys camchatica	800.34	2674	 	36.75256	-122.202255	1799177	0.34	2005-06-08 17:39:58.0	Ventana	34.479	00:24:31:13	4.433	V2674-01
 	transect	Ophiuroidea	999.39	2669	 	36.731216	-122.23583	1684408	0.44	2005-05-25 18:56:09.1	Ventana	34.52	01:18:09:17	3.933	V2669-02
 	transect	molt	100.51	2681	 	36.69939	-122.05401	2489807	2.13	2005-07-07 16:51:04.0	Ventana	34.068	00:22:13:10	9.146	V2681-01HD
 	transect	Mesomyaria	1000.29	2669	 	36.731255	-122.241295	1689409	0.4	2005-05-25 19:35:34.0	Ventana	34.508	01:57:31:18	4.086	V2669-02
 	ascend	Calycophorae	370.85	2693	 	36.696285	-122.06082	1758657	1.2	2005-07-25 20:26:18.0	Ventana	34.232	03:05:50:20	7.167	V2693-03
 	transect	Psolus squamatus	 	2687	 	 	 	1810014	 	2005-07-13 18:51:00.0	Ventana	 	02:16:45:26	 	V2687-03
 	transect	Mediaster	 	2687	 	 	 	1812413	 	2005-07-13 20:37:34.0	Ventana	 	04:02:32:06	 	V2687-04
 	transect	Mesomyaria	997.54	2669	 	36.730633	-122.2278	1649235	0.45	2005-05-25 17:59:11.0	Ventana	34.522	00:21:39:18	3.907	V2669-01
 	transect	Mesomyaria	999.92	2669	 	36.730984	-122.233086	1683859	0.45	2005-05-25 18:37:14.0	Ventana	34.522	00:59:39:28	3.912	V2669-01
 	transect	Glyptocephalus zachirus	399.49	2687	 	36.789413	-122.12522	1809668	1.14	2005-07-13 18:32:09.0	Ventana	34.246	01:58:27:24	7.296	V2687-02
 	transect	Phyllospadix	799.41	2674	 	36.752457	-122.20517	1799726	0.36	2005-06-08 17:55:40.0	Ventana	34.486	00:40:13:00	4.357	V2674-01
 	descend	Appendicularia	692.62	2682	 	36.698647	-122.05998	1721431	0.29	2005-07-08 18:13:48.0	Ventana	34.422	02:06:51:20	5.103	V2682-03
 	ascend	Nanomia	199.34	2693	 	36.690617	-122.06284	1759206	1.77	2005-07-25 21:28:15.0	Ventana	34.185	03:52:46:13	8.905	V2693-04
 	transect	rock outcrop	 	2687	 	 	 	1812616	 	2005-07-13 20:47:44.0	Ventana	 	04:12:15:01	 	V2687-05
 	descend	Chaetognatha	148.35	2683	 	36.700603	-122.05149	1756258	1.7	2005-07-11 16:21:04.0	Ventana	34.169	00:08:46:13	8.875	V2683-01
 	transect	Leptomedusae	200.42	2681	 	36.69828	-122.0533	2490905	1.7	2005-07-07 17:09:37.0	Ventana	34.197	00:40:45:03	8.33	V2681-01HD
 	transect	Phyllospadix	1000.58	2669	 	36.73208	-122.24796	1736171	0.4	2005-05-25 20:18:24.0	Ventana	34.507	02:39:53:26	4.08	V2669-03
 	cruise	Pleuronectiformes	454.69	2676	 	36.802876	-122.02929	1676316	0.59	2005-06-14 16:36:21.0	Ventana	34.336	00:20:29:20	6.261	V2676-01
 	transect	Appendicularia	901.01	2681	 	36.69545	-122.05127	2498448	0.39	2005-07-07 19:13:40.0	Ventana	34.505	02:43:21:04	4.171	V2681-03HD
 	cruise	Anoplopoma fimbria	458.23	2688	 	36.803074	-122.01812	1677617	0.88	2005-07-14 17:33:20.0	Ventana	34.271	01:19:04:22	6.847	V2688-02
 	transect	Umbellula lindahli	603.08	2680	 	36.788757	-122.23243	1805968	0.35	2005-06-27 20:03:12.0	Ventana	34.377	02:41:49:25	5.587	V2680-03
 	transect	Mesomyaria	999.73	2669	 	36.730663	-122.22941	1651085	0.45	2005-05-25 18:09:26.0	Ventana	34.522	00:31:54:01	3.908	V2669-01
 	descend	Appendicularia	360.3	2682	 	36.69859	-122.06039	1720333	1.0	2005-07-08 17:22:28.0	Ventana	34.255	01:16:01:12	7.079	V2682-02
 	descend	Appendicularia	502.58	2683	 	36.70154	-122.049385	1756807	0.68	2005-07-11 17:27:11.0	Ventana	34.304	01:11:19:00	6.468	V2683-02
 	transect	Mesomyaria	998.98	2669	http://search.mbari.org/ARCHIVE/frameGrabs/Ventana/images/2669/01_20_43_19.jpg	36.731403	-122.23617	1684611	0.44	2005-05-25 18:58:44.0	Ventana	34.521	01:20:43:19	3.944	V2669-02
 	ascend	Aegina	845.16	2681	 	36.6986	-122.05589	1717385	0.32	2005-07-07 19:55:42.867	Ventana	34.488	03:24:45:21	4.384	V2681-04
 	transect	Mesomyaria	999.79	2669	 	36.73134	-122.23789	1687559	0.44	2005-05-25 19:13:53.0	Ventana	34.517	01:35:51:29	3.941	V2669-02
 	descend	Copepoda	1165.18	2682	 	36.69821	-122.05921	1722183	0.63	2005-07-08 19:13:54.0	Ventana	34.563	03:06:31:17	3.475	V2682-04
 	transect	Phyllospadix	800.19	2674	 	36.752083	-122.20887	1800824	0.35	2005-06-08 18:13:47.0	Ventana	34.488	00:58:18:15	4.33	V2674-01
 	transect	Porifera	 	2687	 	 	 	1811864	 	2005-07-13 20:27:35.0	Ventana	 	03:52:33:06	 	V2687-04
 	transect	Rathbunaster californicus	204.01	2696	 	36.80571	-122.12901	1813714	1.48	2005-08-01 18:19:15.0	Ventana	34.213	01:47:06:18	8.623	V2696-02
 	descend	Appendicularia	978.53	2683	 	36.70407	-122.048706	1757356	0.42	2005-07-11 19:14:10.0	Ventana	34.518	02:54:32:23	4.032	V2683-03
 	transect	Gastropoda sp.2	1000.22	2669	 	36.730957	-122.23335	1695102	0.45	2005-05-25 18:38:18.0	Ventana	34.522	01:00:43:08	3.91	V2669-01
 	transect	Ceriantharia sp. 1	599.56	2680	 	36.77786	-122.22297	1804321	0.36	2005-06-27 17:51:32.0	Ventana	34.376	00:31:38:26	5.589	V2680-01
 	transect	Phyllospadix	798.92	2674	 	36.751442	-122.21471	1801373	0.35	2005-06-08 18:42:57.0	Ventana	34.49	01:27:01:07	4.332	V2674-02
 	transect	Mediaster	 	2687	 	 	 	1811315	 	2005-07-13 20:06:50.0	Ventana	 	03:31:49:11	 	V2687-04
 	transect	Mesomyaria	1000.36	2669	 	36.73155	-122.242874	1694553	0.4	2005-05-25 19:43:49.0	Ventana	34.508	02:05:46:17	4.097	V2669-02
 	transect	Mesomyaria	999.6	2669	 	36.73195	-122.24613	1735622	0.41	2005-05-25 20:04:33.0	Ventana	34.51	02:26:03:29	4.064	V2669-03
 	transect	Calycophorae	600.53	2681	 	36.69771	-122.0536	2493853	0.3	2005-07-07 18:27:37.0	Ventana	34.388	01:57:58:12	5.48	V2681-02HD
 	ascend	Euphausiacea	262.97	2681	 	36.698887	-122.056816	1718895	1.42	2005-07-07 21:19:01.4	Ventana	34.232	04:47:20:20	7.941	V2681-05
 	transect	Ceriantharia sp. 2	998.54	2669	 	36.731064	-122.23035	1683369	0.45	2005-05-25 18:17:13.0	Ventana	34.522	00:39:39:20	3.91	V2669-01
 	transect	Ceriantharia sp. 1	600.08	2680	 	36.784477	-122.22985	1805622	0.36	2005-06-27 19:18:26.0	Ventana	34.377	01:57:29:19	5.606	V2680-02
 	transect	Mediaster	 	2687	 	 	 	1812239	 	2005-07-13 20:29:42.0	Ventana	 	03:54:40:27	 	V2687-04
 	descend	Medusae	507.65	2683	 	36.701424	-122.04918	1756862	0.68	2005-07-11 17:39:45.0	Ventana	34.306	01:23:51:13	6.462	V2683-02
 	transect	Euphausia	200.4	2681	 	36.698296	-122.053345	2491086	1.69	2005-07-07 17:11:40.0	Ventana	34.198	00:42:48:23	8.335	V2681-01HD
 	transect	Mediaster	 	2687	 	 	 	1809798	 	2005-07-13 18:41:40.0	Ventana	 	02:07:27:02	 	V2687-03
 	ascend	Nanomia	169.89	2682	 	36.69635	-122.06058	1723777	1.67	2005-07-08 21:32:34.0	Ventana	34.217	05:24:14:11	8.721	V2682-06
 	descend	sinker	816.56	2681	 	36.696976	-122.0532	1716454	0.32	2005-07-07 19:03:26.477	Ventana	34.481	02:33:09:10	4.425	V2681-03
 	transect	Mesomyaria	1000.06	2669	 	36.731697	-122.24367	1733864	0.41	2005-05-25 19:48:05.0	Ventana	34.508	02:09:36:16	4.069	V2669-03
 	transect	Mesomyaria	999.88	2669	 	36.732586	-122.250656	1737011	0.41	2005-05-25 20:37:14.0	Ventana	34.511	02:58:40:23	4.073	V2669-03
 	ascend	Chaetognatha	299.42	2681	 	36.69971	-122.055244	1718189	1.33	2005-07-07 20:59:23.767	Ventana	34.226	04:27:44:08	7.648	V2681-05
 	transect	Porifera	 	2687	 	 	 	1808769	 	2005-07-13 17:29:03.0	Ventana	 	00:55:55:27	 	V2687-01
 	transect	Hastigerinella digitata	300.41	2681	 	36.69666	-122.05224	2492498	1.23	2005-07-07 17:26:04.0	Ventana	34.234	00:57:10:22	7.397	V2681-01HD
 	cruise	Pleuronectiformes	532.17	2688	 	36.79879	-122.0194	1677458	0.61	2005-07-14 17:03:13.0	Ventana	34.326	00:49:30:29	6.222	V2688-01
 	ascend	Appendicularia	899.2	2681	 	36.69802	-122.05482	1717160	0.37	2005-07-07 19:49:00.31	Ventana	34.503	03:18:03:17	4.205	V2681-04
 	transect	Pennatulacea sp.1	598.94	2680	 	36.78005	-122.22507	1804593	0.35	2005-06-27 18:17:58.0	Ventana	34.384	00:58:04:00	5.545	V2680-01
 	transect	Mesomyaria	999.97	2669	 	36.731876	-122.24592	1735599	0.41	2005-05-25 20:02:47.0	Ventana	34.51	02:24:18:03	4.059	V2669-03
 	transect	Lyopsetta exilis	202.77	2696	http://search.mbari.org/ARCHIVE/frameGrabs/Ventana/images/2696/01_38_58_24.jpg	36.805256	-122.12819	1813651	1.47	2005-08-01 18:11:07.0	Ventana	34.223	01:38:58:24	8.6	V2696-02
 	descend	Apolemia	646.31	2682	 	36.698643	-122.05991	1721336	0.28	2005-07-08 18:09:57.0	Ventana	34.404	02:03:01:15	5.285	V2682-03
 	transect	Psolus squamatus	 	2687	 	 	 	1811533	 	2005-07-13 20:15:12.0	Ventana	 	03:40:11:13	 	V2687-04
 	descend	Chaetognatha	183.3	2693	 	36.696064	-122.05819	1758274	1.86	2005-07-25 18:12:58.0	Ventana	34.175	00:53:29:11	8.862	V2693-01
 	transect	Brisaster	601.01	2680	 	36.77701	-122.222206	1804210	0.36	2005-06-27 17:40:45.0	Ventana	34.378	00:20:52:25	5.581	V2680-01
 	transect	Mesomyaria	997.4	2669	 	36.730614	-122.22798	1649255	0.45	2005-05-25 18:00:25.0	Ventana	34.522	00:22:53:19	3.906	V2669-01
 	transect	Mesomyaria	998.25	2669	 	36.732933	-122.25212	1737334	0.4	2005-05-25 20:46:01.0	Ventana	34.508	03:06:51:14	4.077	V2669-04
 	descend	physical object	206.89	2686	http://search.mbari.org/ARCHIVE/frameGrabs/Ventana/images/2686/01_18_36_06.jpg	36.79371	-121.88108	20005035	1.61	2005-07-12 22:11:28.0	Ventana	34.151	01:18:36:06	8.267	V2686-02
 	descend	Chuniphyes	768.01	2682	 	36.698395	-122.059746	1721659	0.28	2005-07-08 18:32:01.0	Ventana	34.455	02:25:05:11	4.717	V2682-03
 	transect	Euphausia	200.45	2681	 	36.69828	-122.0533	2490763	1.73	2005-07-07 17:08:41.0	Ventana	34.193	00:39:48:20	8.321	V2681-01HD
 	transect	Prayidae	300.46	2681	 	36.697887	-122.053276	2492115	1.23	2005-07-07 17:21:55.0	Ventana	34.233	00:53:01:23	7.4	V2681-01HD
 	transect	Phyllospadix	198.41	2696	 	36.803623	-122.12451	1813268	1.53	2005-08-01 17:28:19.0	Ventana	34.196	00:56:35:29	8.624	V2696-01
 	cruise	Coryphaenoides acrolepis	 	2673	 	 	 	1668400	 	 	Ventana	 	00:27:24:02	 	V2673-01
 	transect	cydippida	200.43	2681	 	36.69828	-122.05329	2490057	1.7	2005-07-07 17:04:26.0	Ventana	34.197	00:35:34:00	8.362	V2681-01HD
 	ascend	Appendicularia	958.07	2681	 	36.69728	-122.0537	1716837	0.42	2005-07-07 19:39:52.033	Ventana	34.517	03:08:55:25	4.037	V2681-04
 	ascend	Appendicularia	336.24	2693	 	36.6928	-122.06159	1758980	1.26	2005-07-25 21:13:09.0	Ventana	34.238	03:37:41:29	7.461	V2693-04
 	transect	Solmaris	600.53	2681	 	36.69767	-122.05354	2493850	0.3	2005-07-07 18:27:23.0	Ventana	34.388	01:57:45:04	5.48	V2681-02HD
 	descend	Appendicularia	285.07	2683	 	36.70102	-122.0502	1756479	1.32	2005-07-11 16:52:47.0	Ventana	34.237	00:40:28:10	7.789	V2683-01
 	transect	Neptunea amianta	800.37	2674	 	36.751736	-122.21158	1801123	0.35	2005-06-08 18:26:21.0	Ventana	34.486	01:10:26:07	4.34	V2674-02
 	transect	Porifera sp. 1	 	2687	 	 	 	1807680	 	2005-07-13 17:22:21.0	Ventana	 	00:49:14:03	 	V2687-01
 	transect	Ceriantharia sp. 1	602.76	2680	 	36.78812	-122.232155	1805945	0.35	2005-06-27 19:56:41.0	Ventana	34.38	02:35:19:13	5.593	V2680-03
 	transect	Mediaster	 	2687	 	 	 	1811210	 	2005-07-13 20:02:13.0	Ventana	 	03:27:13:15	 	V2687-04
 	transect	Calliostoma platinum	 	2687	 	 	 	1810181	 	2005-07-13 19:05:50.0	Ventana	 	02:31:34:23	 	V2687-03
 	transect	Hormiphora	200.48	2681	 	36.69828	-122.05329	2490703	1.71	2005-07-07 17:08:23.0	Ventana	34.193	00:39:30:04	8.323	V2681-01HD
 	transect	Rathbunaster californicus	 	2687	 	 	 	1806974	 	2005-07-13 16:52:10.0	Ventana	 	00:19:05:07	 	V2687-01
 	descend	Copepoda	824.24	2682	 	36.698357	-122.05955	1721719	0.32	2005-07-08 18:43:39.0	Ventana	34.479	02:36:41:26	4.462	V2682-03
 	transect	Sebastolobus altivelis	801.41	2674	 	36.752205	-122.207726	1800094	0.4	2005-06-08 18:08:18.0	Ventana	34.49	00:52:49:17	4.334	V2674-01
 	transect	Phyllospadix	200.53	2696	 	36.80524	-122.12816	1813591	1.5	2005-08-01 18:02:30.0	Ventana	34.212	01:30:22:02	8.671	V2696-02
 	transect	Actiniaria sp. 1	1000.08	2669	 	36.731968	-122.24628	1735659	0.41	2005-05-25 20:06:30.0	Ventana	34.51	02:27:59:26	4.062	V2669-03
 	transect	molt	100.48	2681	 	36.69982	-122.05429	2489734	2.13	2005-07-07 16:48:57.0	Ventana	34.067	00:20:07:00	9.155	V2681-01HD
 	ascend	Poeobius meseres	1177.46	2682	 	36.6983	-122.05749	1722425	0.65	2005-07-08 19:53:06.0	Ventana	34.566	03:45:40:28	3.429	V2682-04
 	descend	Chuniphyes	889.67	2683	 	36.703228	-122.04833	1757245	0.36	2005-07-11 18:31:13.0	Ventana	34.493	02:11:37:05	4.284	V2683-03
 	stationary	Myxinidae	997.89	2679	 	36.690414	-122.16629	1824384	0.47	2005-06-16 20:20:57.0	Ventana	34.534	00:59:11:00	3.872	V2679-01
 	transect	Hormiphora	200.41	2681	 	36.69839	-122.053474	2491409	1.67	2005-07-07 17:14:05.0	Ventana	34.199	00:45:11:24	8.341	V2681-01HD
 	descend	Nanomia bijuga	190.78	2685	 	36.793674	-121.88326	1669752	1.92	2005-07-12 20:13:15.0	Ventana	34.108	00:10:50:27	8.756	V2685-01
 	transect	Rathbunaster californicus	 	2687	 	 	 	1812622	 	2005-07-13 20:48:33.0	Ventana	 	04:13:03:16	 	V2687-05
 	ascend	Hastigerinella digitata	254.97	2681	 	36.6981	-122.05529	1719218	1.46	2005-07-07 21:25:37.05	Ventana	34.223	04:53:55:28	7.993	V2681-05
 	descend	Copepoda	813.21	2683	 	36.702755	-122.048615	1757185	0.36	2005-07-11 18:11:31.0	Ventana	34.473	01:55:36:19	4.522	V2683-02
 	transect	Caridea sp.1	602.75	2680	 	36.78944	-122.23254	1806711	0.36	2005-06-27 20:10:37.0	Ventana	34.377	02:49:14:22	5.589	V2680-03
 	transect	Ophiuroidea	998.47	2669	 	36.731144	-122.230736	1683429	0.45	2005-05-25 18:20:34.0	Ventana	34.523	00:43:00:21	3.914	V2669-01
 	transect	Allocentrotus fragilis	 	2687	 	 	 	1810827	 	2005-07-13 19:35:10.0	Ventana	 	03:00:53:01	 	V2687-03
 	transect	Appendicularia	900.96	2681	 	36.69519	-122.050865	2498469	0.39	2005-07-07 19:15:21.0	Ventana	34.506	02:45:01:16	4.156	V2681-03HD
 	transect	Mesomyaria	999.12	2669	 	36.731045	-122.231865	1683692	0.45	2005-05-25 18:29:29.0	Ventana	34.522	00:51:55:04	3.915	V2669-01
 	ascend	Solmissus	260.85	2681	 	36.69886	-122.056984	1718955	1.42	2005-07-07 21:20:06.7	Ventana	34.23	04:48:26:05	7.957	V2681-05
 	transect	Psolus squamatus	 	2687	 	 	 	1810564	 	2005-07-13 19:22:36.0	Ventana	 	02:48:19:28	 	V2687-03
 	descend	Appendicularia	331.01	2683	 	36.701214	-122.05006	1756539	1.22	2005-07-11 16:55:26.0	Ventana	34.229	00:43:06:18	7.406	V2683-01
 	ascend	Poeobius meseres	682.37	2683	 	36.705612	-122.04934	1757891	0.31	2005-07-11 21:07:04.0	Ventana	34.434	04:39:56:12	4.981	V2683-05
 	transect	Phyllospadix	801.2	2674	 	36.752266	-122.20721	1800034	0.36	2005-06-08 18:05:50.0	Ventana	34.485	00:50:22:09	4.359	V2674-01
 	transect	Nanomia bijuga	400.73	2681	 	36.697742	-122.053444	2493204	0.79	2005-07-07 17:49:23.0	Ventana	34.278	01:19:47:18	6.66	V2681-02HD
 	transect	Sebastolobus altivelis	801.08	2674	 	36.751072	-122.21752	1803504	0.35	2005-06-08 18:55:51.0	Ventana	34.487	01:39:53:24	4.35	V2674-02
 	transect	Mesomyaria	998.44	2669	 	36.73118	-122.23443	1684135	0.45	2005-05-25 18:45:04.0	Ventana	34.521	01:07:04:15	3.916	V2669-02
 	ascend	Euphausiacea	282.31	2681	 	36.69975	-122.05516	1718249	1.36	2005-07-07 21:01:02.507	Ventana	34.231	04:29:22:12	7.734	V2681-05
 	transect	Psolus squamatus	 	2687	 	 	 	1810121	 	2005-07-13 18:58:39.0	Ventana	 	02:24:24:05	 	V2687-03
 	transect	Allocentrotus fragilis	 	2687	 	 	 	1811270	 	2005-07-13 20:05:34.0	Ventana	 	03:30:33:21	 	V2687-04
 	transect	Lycenchelys camchatica	800.84	2674	 	36.752113	-122.20833	1800740	0.35	2005-06-08 18:11:07.0	Ventana	34.49	00:55:39:09	4.322	V2674-01
 	transect	Hormiphora	200.39	2681	 	36.698303	-122.053375	2491146	1.68	2005-07-07 17:12:18.0	Ventana	34.198	00:43:25:00	8.337	V2681-01HD
 	transect	Phyllospadix	999.61	2669	 	36.730515	-122.2289	1650930	0.45	2005-05-25 18:05:47.0	Ventana	34.521	00:28:15:08	3.908	V2669-01
 	transect	Rathbunaster californicus	199.66	2696	 	36.803867	-122.125275	1813328	1.53	2005-08-01 17:35:26.0	Ventana	34.202	01:03:20:09	8.637	V2696-02
 	transect	Sergestes similis	300.46	2681	 	36.698036	-122.05338	2492055	1.23	2005-07-07 17:21:23.0	Ventana	34.233	00:52:29:20	7.401	V2681-01HD
 	descend	Appendicularia	215.76	2693	 	36.696087	-122.05821	1758334	1.69	2005-07-25 18:27:02.0	Ventana	34.192	01:07:07:20	8.613	V2693-02
 	transect	Nanomia bijuga	200.42	2681	 	36.69828	-122.0533	2490823	1.72	2005-07-07 17:09:07.0	Ventana	34.193	00:40:15:16	8.323	V2681-01HD
 	transect	Lycenchelys camchatica	800.56	2674	 	36.75252	-122.202995	1799268	0.35	2005-06-08 17:43:27.0	Ventana	34.489	00:28:00:28	4.386	V2674-01
 	transect	Umbellula lindahli	600.72	2680	 	36.786545	-122.231125	1805885	0.36	2005-06-27 19:39:41.0	Ventana	34.375	02:18:20:18	5.606	V2680-03
 	transect	Zaniolepididae	204.24	2696	 	36.805485	-122.1286	1813711	1.48	2005-08-01 18:18:01.0	Ventana	34.212	01:45:52:12	8.623	V2696-02
 	transect	Mediaster	 	2687	 	 	 	1812502	 	2005-07-13 20:42:02.0	Ventana	 	04:06:59:05	 	V2687-04
 	descend	Aegina	751.54	2683	 	36.702374	-122.04892	1757125	0.27	2005-07-11 17:57:35.0	Ventana	34.45	01:41:40:19	4.77	V2683-02
 	transect	molt	100.51	2681	 	36.69983	-122.05429	2489614	2.13	2005-07-07 16:46:12.0	Ventana	34.068	00:17:22:02	9.146	V2681-01HD
 	transect	Parmaturus xaniurus	 	2687	 	 	 	1807094	 	2005-07-13 16:59:16.0	Ventana	 	00:26:10:17	 	V2687-01
 	descend	Appendicularia	546.05	2682	 	36.698624	-122.05976	1720893	0.37	2005-07-08 18:04:47.0	Ventana	34.368	01:58:17:07	5.725	V2682-02
 	transect	Calycophorae	700.58	2681	 	36.695156	-122.050896	2497966	0.28	2005-07-07 18:47:49.0	Ventana	34.432	02:17:31:18	4.989	V2681-03HD
 	transect	Ophiuroidea	998.73	2669	 	36.730965	-122.230125	1651253	0.45	2005-05-25 18:15:10.0	Ventana	34.521	00:37:37:10	3.91	V2669-01
 	ascend	Caecosagitta macrocephala	877.25	2683	 	36.707005	-122.0487	1757831	0.38	2005-07-11 20:57:49.0	Ventana	34.503	04:30:40:27	4.203	V2683-05
 	transect	Psolus squamatus	 	2687	 	 	 	1807297	 	2005-07-13 17:05:08.0	Ventana	 	00:32:02:18	 	V2687-01
 	descend	Appendicularia	377.93	2683	 	36.70143	-122.049805	1756599	1.06	2005-07-11 16:58:05.0	Ventana	34.243	00:45:43:22	7.008	V2683-01
 	transect	Mesomyaria	802.29	2674	 	36.752235	-122.20673	1799974	0.37	2005-06-08 18:03:36.0	Ventana	34.491	00:48:08:07	4.323	V2674-01
 	transect	Phyllospadix	197.51	2696	 	36.80344	-122.12381	1813208	1.56	2005-08-01 17:20:09.0	Ventana	34.195	00:48:26:18	8.631	V2696-01
 	transect	molt	100.46	2681	 	36.699486	-122.05407	2489794	2.13	2005-07-07 16:50:52.0	Ventana	34.066	00:22:00:17	9.148	V2681-01HD
 	transect	Mesomyaria	999.84	2669	 	36.730587	-122.229126	1651050	0.45	2005-05-25 18:07:44.0	Ventana	34.522	00:30:11:26	3.909	V2669-01
 	descend	Aegina	902.51	2682	 	36.69825	-122.05943	1721779	0.34	2005-07-08 18:51:25.0	Ventana	34.496	02:44:27:04	4.273	V2682-03
 	transect	Lumpenus sagitta	197.83	2696	http://search.mbari.org/ARCHIVE/frameGrabs/Ventana/images/2696/00_20_11_00.jpg	36.80266	-122.12168	1813005	1.53	2005-08-01 16:51:51.0	Ventana	34.204	00:20:11:00	8.569	V2696-01
 	transect	molt	50.41	2681	 	36.69983	-122.05429	2485618	2.99	2005-07-07 16:36:23.0	Ventana	33.913	00:07:33:13	9.627	V2681-01HD
 	transect	Mesomyaria	997.42	2669	 	36.730637	-122.22728	1649135	0.45	2005-05-25 17:56:11.0	Ventana	34.52	00:18:39:07	3.91	V2669-01
 	transect	molt	200.4	2681	 	36.698288	-122.05332	2491026	1.7	2005-07-07 17:10:56.0	Ventana	34.196	00:42:02:20	8.332	V2681-01HD
 	descend	Calycophorae	530.74	2683	 	36.701508	-122.04914	1756922	0.55	2005-07-11 17:42:38.0	Ventana	34.323	01:26:44:07	6.225	V2683-02
 	transect	Rathbunaster californicus	199.4	2696	 	36.804188	-122.12594	1813388	1.52	2005-08-01 17:42:16.0	Ventana	34.206	01:10:10:01	8.657	V2696-02
 	descend	Chaetognatha	347.43	2682	 	36.698753	-122.06053	1720187	1.03	2005-07-08 17:12:54.0	Ventana	34.252	01:06:25:09	7.119	V2682-02
 	transect	Ophiuroidea	998.91	2669	 	36.73139	-122.23617	1684661	0.44	2005-05-25 18:58:48.0	Ventana	34.521	01:20:47:16	3.944	V2669-02
 	descend	Lampocteis	501.63	2683	 	36.7015	-122.04939	1756802	0.68	2005-07-11 17:25:45.0	Ventana	34.306	01:09:52:29	6.469	V2683-02
 	cruise	Stylasterias	105.19	2688	 	36.81454	-122.01666	1679253	1.97	2005-07-14 19:37:37.333	Ventana	34.087	03:22:24:11	8.893	V2688-04
 	transect	Rathbunaster californicus	200.19	2696	 	36.80482	-122.127396	1813531	1.51	2005-08-01 17:57:05.0	Ventana	34.211	01:24:58:04	8.672	V2696-02
 	transect	Mediaster	 	2687	 	 	 	1811796	 	2005-07-13 20:25:26.0	Ventana	 	03:50:24:02	 	V2687-04
 	ascend	Nanomia	177.64	2693	 	36.690628	-122.06294	1759243	1.95	2005-07-25 21:29:54.0	Ventana	34.128	03:54:25:28	8.878	V2693-04
 	transect	Lycenchelys camchatica	798.95	2674	 	36.751408	-122.21485	1801386	0.35	2005-06-08 18:43:31.0	Ventana	34.489	01:27:34:09	4.336	V2674-02
 	cruise	Asteroidea	109.69	2688	 	36.8136	-122.02296	1678044	1.95	2005-07-14 18:57:38.0	Ventana	34.093	02:42:52:11	8.892	V2688-03
 	transect	Mesomyaria	998.22	2669	 	36.732994	-122.25252	1737454	0.4	2005-05-25 20:48:15.0	Ventana	34.509	03:09:02:27	4.074	V2669-04
 	transect	Lycodes cortezianus	 	2687	 	 	 	1812825	 	2005-07-13 20:59:39.0	Ventana	 	04:24:09:01	 	V2687-05
 	ascend	Euphausiacea	258.17	2681	 	36.697838	-122.05522	1719481	 	2005-07-07 21:29:59.0	Ventana	 	05:06:51:25	 	V2681-05
 	transect	Psolus squamatus	 	2687	 	 	 	1808709	 	2005-07-13 17:27:35.0	Ventana	 	00:54:27:26	 	V2687-01
 	transect	Nanomia bijuga	200.37	2681	 	36.698307	-122.05339	2491206	1.68	2005-07-07 17:12:46.0	Ventana	34.2	00:43:53:02	8.337	V2681-01HD
 	transect	Anthomastus ritteri	 	2687	 	 	 	1812682	 	2005-07-13 20:52:05.0	Ventana	 	04:16:35:12	 	V2687-05
 	transect	Euphausia	200.43	2681	 	36.69828	-122.05329	2490320	1.69	2005-07-07 17:06:52.0	Ventana	34.199	00:38:01:12	8.355	V2681-01HD
 	transect	chuniphyes	700.64	2681	 	36.69754	-122.053406	2497643	0.29	2005-07-07 18:37:26.0	Ventana	34.432	02:07:08:14	4.981	V2681-03HD
 	transect	Ceriantharia sp. 1	599.22	2680	 	36.779095	-122.224236	1804473	0.36	2005-06-27 18:06:24.0	Ventana	34.378	00:46:30:16	5.599	V2680-01
 	cruise	LRJ Complex	612.32	2688	 	36.79544	-122.019165	1677338	0.45	2005-07-14 16:34:26.0	Ventana	34.385	00:20:46:18	5.529	V2688-01
 	ascend	Appendicularia	455.08	2682	 	36.69826	-122.06291	1723717	0.65	2005-07-08 21:18:25.0	Ventana	34.291	05:10:07:12	6.427	V2682-06
 	descend	Appendicularia	1172.91	2683	 	36.706745	-122.04801	1757508	0.68	2005-07-11 19:35:56.0	Ventana	34.564	03:16:18:02	3.435	V2683-03
 	transect	Phyllospadix	800.78	2674	 	36.75253	-122.201614	1799065	0.34	2005-06-08 17:36:26.0	Ventana	34.487	00:21:00:00	4.415	V2674-01
 	transect	Poeobius meseres	1001.07	2681	 	36.694702	-122.05048	2498529	0.47	2005-07-07 19:20:57.0	Ventana	34.532	02:50:37:22	3.867	V2681-03HD
 	transect	Stomphia	599.92	2680	 	36.77735	-122.22252	1804270	0.36	2005-06-27 17:45:28.0	Ventana	34.379	00:25:35:21	5.582	V2680-01
 	transect	Mesomyaria	999.73	2669	 	36.73129	-122.23811	1688371	0.43	2005-05-25 19:15:43.0	Ventana	34.522	01:37:41:13	3.958	V2669-02
 	ascend	Appendicularia	985.84	2681	 	36.69684	-122.05322	1716574	0.45	2005-07-07 19:34:28.933	Ventana	34.524	03:04:09:11	3.95	V2681-03
 	cruise	Parastichopus	320.87	2688	 	36.80842	-122.02025	1677841	1.28	2005-07-14 18:11:21.307	Ventana	34.228	01:57:03:02	7.688	V2688-02
 	transect	Mesomyaria	999.83	2669	 	36.731007	-122.232475	1683752	0.45	2005-05-25 18:33:30.0	Ventana	34.523	00:55:55:24	3.912	V2669-01
 	transect	Mesomyaria	999.44	2669	 	36.73133	-122.23592	1684458	0.44	2005-05-25 18:57:06.0	Ventana	34.52	01:19:05:22	3.936	V2669-02
 	transect	Mediaster	 	2687	 	 	 	1811593	 	2005-07-13 20:16:56.0	Ventana	 	03:41:55:11	 	V2687-04
 	transect	Psolus squamatus	 	2687	 	 	 	1808889	 	2005-07-13 17:31:20.0	Ventana	 	00:58:12:29	 	V2687-01
 	ascend	Chaetognatha	346.26	2693	 	36.693607	-122.06131	1758920	1.25	2005-07-25 21:08:43.0	Ventana	34.234	03:33:15:29	7.384	V2693-04
 	transect	Ceriantharia sp. 1	801.02	2674	 	36.75099	-122.21831	1803564	0.35	2005-06-08 18:59:31.0	Ventana	34.491	01:43:33:26	4.336	V2674-02
 	descend	Appendicularia	389.89	2682	 	36.69836	-122.05988	1720690	0.93	2005-07-08 17:36:43.0	Ventana	34.252	01:30:12:27	6.84	V2682-02
 	ascend	Poeobius meseres	370.93	2693	 	36.696674	-122.06055	1758717	1.2	2005-07-25 20:30:56.0	Ventana	34.233	03:10:28:28	7.177	V2693-03
 	transect	Mesomyaria	999.86	2669	 	36.731064	-122.238846	1689077	0.43	2005-05-25 19:20:35.0	Ventana	34.519	01:42:33:07	3.963	V2669-02
 	ascend	Appendicularia	629.71	2682	 	36.698868	-122.05976	1723394	0.36	2005-07-08 20:36:57.0	Ventana	34.387	04:29:05:25	5.448	V2682-05
 	transect	Phyllospadix	801.44	2674	 	36.751762	-122.21093	1801063	0.35	2005-06-08 18:23:50.0	Ventana	34.49	01:07:54:17	4.328	V2674-02
 	transect	Neptunea amianta	 	2669	 	 	 	1737657	 	2005-05-25 13:55:07.0	Ventana	 	03:15:54:24	 	V2669-04
 	transect	Ophiuroidea	1000.01	2669	 	36.73141	-122.23683	1686959	0.44	2005-05-25 19:04:31.0	Ventana	34.519	01:26:30:18	3.945	V2669-02
 	transect	Appendicularia	400.78	2681	 	36.69739	-122.053055	2493144	0.79	2005-07-07 17:47:55.0	Ventana	34.278	01:18:19:12	6.662	V2681-02HD
 	cruise	Sebastolobus	441.1	2688	 	36.80423	-122.01844	1677661	0.87	2005-07-14 17:40:41.0	Ventana	34.275	01:26:24:21	6.826	V2688-02
 	transect	Phyllospadix	800.42	2674	 	36.75202	-122.20907	1800860	0.35	2005-06-08 18:14:51.0	Ventana	34.488	00:59:22:13	4.335	V2674-01
 	transect	Ophiuroidea	999.42	2669	 	36.73103	-122.23119	1683572	0.45	2005-05-25 18:24:51.0	Ventana	34.521	00:47:18:00	3.914	V2669-01
 	ascend	tether	771.34	2681	 	36.698654	-122.0563	1717483	0.29	2005-07-07 20:08:33.333	Ventana	34.452	03:37:34:26	4.759	V2681-04
 	transect	Neptunea amianta	602.43	2680	 	36.790436	-122.232735	1806771	0.36	2005-06-27 20:19:31.0	Ventana	34.38	02:58:07:25	5.587	V2680-03
 	cruise	Umbellula lindahli	602.26	2680	 	36.77658	-122.222	1804090	0.36	2005-06-27 17:35:11.0	Ventana	34.382	00:15:19:08	5.564	V2680-01
 	descend	Nanomia	213.25	2681	 	36.69847	-122.05351	1713570	1.53	2005-07-07 17:14:53.867	Ventana	34.213	00:46:01:20	8.259	V2681-01
 	transect	Phyllospadix	1000.41	2669	 	36.73225	-122.24878	1736245	0.4	2005-05-25 20:24:51.0	Ventana	34.507	02:46:20:07	4.078	V2669-03
 	transect	Caridea sp.1	800.15	2674	 	36.751263	-122.216	1803384	0.35	2005-06-08 18:49:16.0	Ventana	34.486	01:33:19:07	4.36	V2674-02
 	transect	Mediaster	 	2687	 	 	 	1810707	 	2005-07-13 19:28:54.0	Ventana	 	02:54:37:25	 	V2687-03
 	ascend	Nanomia	458.66	2683	 	36.704285	-122.05056	1758011	0.75	2005-07-11 21:17:53.0	Ventana	34.289	04:50:45:09	6.63	V2683-05
 	transect	Mediaster	 	2687	 	 	 	1811413	 	2005-07-13 20:11:54.0	Ventana	 	03:36:53:00	 	V2687-04
 	cruise	Beroe	421.33	2676	 	36.803303	-122.03001	1676249	0.74	2005-06-14 16:26:35.0	Ventana	34.298	00:10:44:18	6.641	V2676-01
 	transect	Mesomyaria	999.72	2669	 	36.731056	-122.235176	1684278	0.45	2005-05-25 18:51:30.0	Ventana	34.521	01:13:30:07	3.922	V2669-02
 	transect	Gastropoda sp.2	1000.1	2669	 	36.73186	-122.24505	1735336	0.4	2005-05-25 19:57:07.0	Ventana	34.508	02:18:37:25	4.083	V2669-03
 	descend	Nanomia	227.75	2683	 	36.70098	-122.050705	1756419	1.69	2005-07-11 16:49:06.0	Ventana	34.189	00:36:46:10	8.215	V2683-01
 	transect	Embassichthys bathybius	399.84	2687	http://search.mbari.org/ARCHIVE/frameGrabs/Ventana/images/2687/01_02_17_21.jpg	36.788036	-122.12153	1809092	1.13	2005-07-13 17:35:55.0	Ventana	34.244	01:02:17:21	7.27	V2687-02
 	transect	Mesomyaria	1000.02	2669	 	36.73258	-122.25024	1736951	0.41	2005-05-25 20:34:59.0	Ventana	34.509	02:56:26:23	4.067	V2669-03
 	descend	Appendicularia	926.89	2683	 	36.703674	-122.04861	1757305	0.38	2005-07-11 19:07:04.0	Ventana	34.509	02:47:24:29	4.183	V2683-03
 	descend	Solmissus	250.68	2682	 	36.699875	-122.0608	1719984	1.4	2005-07-08 16:23:05.0	Ventana	34.23	00:17:09:02	7.911	V2682-01
 	transect	Mediaster	 	2687	 	 	 	1812299	 	2005-07-13 20:31:27.0	Ventana	 	03:56:25:01	 	V2687-04
 	ascend	Nanomia	257.54	2681	 	36.69874	-122.05679	1719098	1.44	2005-07-07 21:22:38.167	Ventana	34.226	04:50:57:06	7.957	V2681-05
 	transect	Agalma	200.44	2681	 	36.69828	-122.05329	2490117	1.7	2005-07-07 17:04:58.0	Ventana	34.197	00:36:06:06	8.358	V2681-01HD
 	transect	Laqueus californianus	200.22	2696	 	36.804554	-122.126785	1813471	1.51	2005-08-01 17:50:47.0	Ventana	34.21	01:18:40:08	8.667	V2696-02
 	transect	Ophiuroidea	998.93	2669	 	36.731403	-122.23613	1684601	0.44	2005-05-25 18:58:29.0	Ventana	34.521	01:20:28:28	3.943	V2669-02
 	ascend	Appendicularia	653.75	2681	 	36.698822	-122.05421	1717663	0.29	2005-07-07 20:27:00.333	Ventana	34.4	03:56:01:07	5.294	V2681-04
 	transect	Pennatulacea sp.1	602.06	2680	 	36.79151	-122.232956	1806854	0.36	2005-06-27 20:28:33.0	Ventana	34.377	03:07:08:24	5.588	V2680-03
 	cruise	Pleuronectiformes	622.57	2688	 	36.7938	-122.01947	1677278	0.41	2005-07-14 16:26:54.0	Ventana	34.413	00:13:14:13	5.195	V2688-01
 	transect	Mediaster	 	2687	 	 	 	1811713	 	2005-07-13 20:22:14.0	Ventana	 	03:47:13:02	 	V2687-04
 	transect	Solmaris	400.77	2681	 	36.696392	-122.05188	2493001	0.79	2005-07-07 17:43:37.0	Ventana	34.275	01:14:01:07	6.648	V2681-02HD
 	descend	Nanomia	400.43	2681	 	36.695667	-122.05105	1715245	0.79	2005-07-07 17:39:11.8	Ventana	34.277	01:09:35:01	6.674	V2681-02
 	transect	Mesomyaria	1000.44	2669	 	36.73195	-122.247025	1735802	0.41	2005-05-25 20:12:00.0	Ventana	34.51	02:33:29:04	4.063	V2669-03
 	transect	Calliostoma platinum	 	2687	 	 	 	1811007	 	2005-07-13 19:47:58.0	Ventana	 	03:12:58:27	 	V2687-04
 	transect	Brisaster	599.93	2680	http://search.mbari.org/ARCHIVE/frameGrabs/Ventana/images/2680/00_37_34_01.jpg	36.778362	-122.22353	1804390	0.36	2005-06-27 17:57:27.0	Ventana	34.377	00:37:34:01	5.594	V2680-01
 	cruise	Nanomia	328.72	2676	 	36.80475	-122.03135	1676226	1.22	2005-06-14 16:21:52.0	Ventana	34.238	00:06:01:27	7.509	V2676-01
 	descend	Sternoptychidae	190.34	2683	 	36.701015	-122.05109	1756359	1.75	2005-07-11 16:44:06.0	Ventana	34.187	00:31:48:00	8.458	V2683-01
 	transect	Calliostoma platinum	 	2687	 	 	 	1807560	 	2005-07-13 17:15:24.0	Ventana	 	00:42:16:28	 	V2687-01
 	transect	Mediaster	 	2687	 	 	 	1812765	 	2005-07-13 20:56:36.0	Ventana	 	04:21:05:29	 	V2687-05
 	stationary	Merluccius productus	501.97	2694	 	36.784637	-122.200485	1676572	0.78	2005-07-27 18:49:40.0	Ventana	34.278	01:32:21:16	6.547	V2694-02
 	transect	Brisaster	598.51	2680	 	36.782078	-122.22715	1805096	0.36	2005-06-27 18:44:32.0	Ventana	34.377	01:23:37:13	5.593	V2680-02
 	ascend	Copepoda	1120.34	2682	 	36.69808	-122.05751	1722568	0.6	2005-07-08 19:57:21.0	Ventana	34.557	03:49:55:12	3.554	V2682-04
 	transect	Mesomyaria	1000.48	2669	 	36.731293	-122.24151	1689806	0.4	2005-05-25 19:36:39.0	Ventana	34.508	01:58:36:08	4.091	V2669-02
 	transect	Sebastolobus altivelis	800.33	2674	 	36.75257	-122.20235	1799185	0.34	2005-06-08 17:40:22.0	Ventana	34.481	00:24:56:02	4.424	V2674-01
 	transect	Porifera sp. 1	 	2687	 	 	 	1810301	 	2005-07-13 19:14:58.0	Ventana	 	02:40:42:26	 	V2687-03
 	transect	Euphausia	200.48	2681	 	36.69828	-122.05329	2490583	1.72	2005-07-07 17:07:41.0	Ventana	34.195	00:38:48:18	8.334	V2681-01HD
 	ascend	Aegina	346.16	2683	 	36.703686	-122.050606	1758071	1.15	2005-07-11 21:22:38.0	Ventana	34.235	04:55:29:15	7.163	V2683-05
 	transect	Phyllospadix	799.29	2674	 	36.752514	-122.20426	1799531	0.35	2005-06-08 17:50:38.0	Ventana	34.484	00:35:11:13	4.386	V2674-01
 	transect	Allocentrotus fragilis	399.9	2687	 	36.788124	-122.12168	1809272	1.13	2005-07-13 17:38:00.0	Ventana	34.243	01:04:22:23	7.254	V2687-02
 	transect	rock outcrop	 	2687	 	 	 	1812419	 	2005-07-13 20:37:40.0	Ventana	 	04:02:37:27	 	V2687-04
 	ascend	Copepoda	938.55	2681	 	36.697567	-122.05403	1716957	0.41	2005-07-07 19:42:52.8	Ventana	34.514	03:11:56:12	4.074	V2681-04
 	descend	Euphausiacea	286.38	2682	 	36.69938	-122.06068	1720104	1.26	2005-07-08 16:52:13.0	Ventana	34.231	00:46:16:22	7.52	V2682-01
 	transect	Brisaster	998.13	2669	 	36.73305	-122.252914	1737514	0.4	2005-05-25 20:50:06.0	Ventana	34.509	03:10:54:09	4.074	V2669-04
 	cruise	Sebastomus complex	104.66	2688	 	36.814274	-122.01716	1869877	1.97	2005-07-14 19:35:41.0	Ventana	34.089	03:20:28:27	8.902	V2688-04
 	cruise	Parastichopus	101.43	2676	http://search.mbari.org/ARCHIVE/frameGrabs/Ventana/images/2676/01_55_52_29.jpg	36.810112	-122.03293	1676932	1.87	2005-06-14 18:16:13.0	Ventana	34.147	01:55:52:29	8.483	V2676-02
 	transect	Porifera	399.69	2687	 	36.789272	-122.124695	1809595	1.16	2005-07-13 18:23:09.0	Ventana	34.238	01:49:27:26	7.333	V2687-02
 	transect	Mesomyaria	799.4	2674	 	36.751667	-122.21296	1801243	0.35	2005-06-08 18:31:34.0	Ventana	34.489	01:15:37:28	4.336	V2674-02
 	cruise	Rathbunaster californicus	90.77	2688	 	36.815983	-122.01767	1679396	1.96	2005-07-14 20:22:23.0	Ventana	34.093	04:07:07:17	8.925	V2688-04
 	descend	Appendicularia	416.76	2683	 	36.70144	-122.04957	1756659	0.89	2005-07-11 17:05:45.0	Ventana	34.266	00:53:23:26	6.852	V2683-01
 	cruise	Sebastolobus	1011.76	2689	 	36.771427	-122.08283	1669609	0.53	2005-07-18 16:38:15.0	Ventana	34.528	00:01:20:03	3.905	V2689-01
 	descend	Dosidicus gigas	481.54	2682	 	36.698578	-122.059746	1720810	0.51	2005-07-08 17:57:45.0	Ventana	34.329	01:51:13:28	6.17	V2682-02
 	ascend	Copepoda	579.67	2682	 	36.698376	-122.062325	1723574	0.37	2005-07-08 21:05:33.0	Ventana	34.364	04:57:39:17	5.769	V2682-05
 	transect	Mesomyaria	801.21	2674	 	36.751953	-122.20974	1800943	0.35	2005-06-08 18:18:31.0	Ventana	34.49	01:02:35:24	4.331	V2674-02
 	ascend	Calycophorae	230.72	2693	 	36.691257	-122.06247	1759123	1.56	2005-07-25 21:23:18.0	Ventana	34.223	03:47:48:22	8.521	V2693-04
 	transect	Mediaster	 	2687	 	 	 	1811353	 	2005-07-13 20:08:59.0	Ventana	 	03:33:58:19	 	V2687-04
 	transect	Microstomus pacificus	998.66	2669	 	36.730904	-122.22977	1651170	0.45	2005-05-25 18:12:43.0	Ventana	34.521	00:35:10:14	3.908	V2669-01
 	descend	Aegina	991.47	2683	 	36.704124	-122.04925	1757365	0.43	2005-07-11 19:15:28.0	Ventana	34.516	02:55:50:28	4.02	V2683-03
 	transect	molt	100.46	2681	 	36.698895	-122.05369	2489877	2.13	2005-07-07 16:52:12.0	Ventana	34.045	00:23:20:19	9.142	V2681-01HD
 	transect	Caridea sp.1	600.79	2680	 	36.78546	-122.230606	1805802	0.36	2005-06-27 19:28:11.0	Ventana	34.377	02:07:13:15	5.601	V2680-02
 	descend	Appendicularia	653.53	2681	 	36.697945	-122.05386	1715951	0.29	2005-07-07 18:30:27.067	Ventana	34.405	02:00:47:19	5.222	V2681-02
 	cruise	Pleuronectiformes	447.25	2688	 	36.803562	-122.01808	1677638	0.9	2005-07-14 17:37:41.0	Ventana	34.268	01:23:25:08	6.898	V2688-02
 	transect	Hastigerinella digitata	300.44	2681	 	36.69842	-122.05357	2491935	1.25	2005-07-07 17:19:54.0	Ventana	34.234	00:51:01:01	7.43	V2681-01HD
 	transect	Mesomyaria	1000.66	2669	 	36.73207	-122.247826	1736162	0.4	2005-05-25 20:17:30.0	Ventana	34.508	02:38:58:27	4.086	V2669-03
 	descend	Aegina	670.03	2683	 	36.70203	-122.04894	1757065	0.32	2005-07-11 17:52:47.0	Ventana	34.416	01:36:52:21	5.139	V2683-02
 	transect	Poeobius meseres	600.61	2681	 	36.696163	-122.05174	2493707	0.3	2005-07-07 18:20:47.0	Ventana	34.387	01:51:08:07	5.497	V2681-02HD
 	descend	Appendicularia	714.17	2682	 	36.698605	-122.05995	1721456	0.28	2005-07-08 18:17:27.0	Ventana	34.439	02:10:31:14	4.917	V2682-03
 	descend	Appendicularia	592.09	2683	 	36.701923	-122.04909	1757005	0.35	2005-07-11 17:48:40.0	Ventana	34.367	01:32:46:14	5.809	V2683-02
 	ascend	Hastigerinella digitata	261.28	2681	 	36.698822	-122.05698	1719038	1.42	2005-07-07 21:21:29.2	Ventana	34.231	04:49:48:09	7.954	V2681-05
 	transect	Mediaster	 	2687	 	 	 	1812359	 	2005-07-13 20:34:18.0	Ventana	 	03:59:15:23	 	V2687-04
 	transect	Rathbunaster californicus	196.45	2696	 	36.802948	-122.12238	1813065	1.55	2005-08-01 17:03:30.0	Ventana	34.193	00:31:49:01	8.606	V2696-01
 	transect	Gastropoda sp.2	1000.56	2669	 	36.732353	-122.24949	1736448	0.41	2005-05-25 20:29:33.0	Ventana	34.508	02:51:02:12	4.077	V2669-03
 	transect	Hormiphora	200.41	2681	 	36.698284	-122.05331	2490943	1.71	2005-07-07 17:10:03.0	Ventana	34.195	00:41:11:10	8.323	V2681-01HD
 	transect	Caecosagitta macrocephala	800.87	2681	 	36.696857	-122.0529	2498266	0.31	2005-07-07 19:01:59.0	Ventana	34.474	02:31:40:00	4.507	V2681-03HD
 	transect	Mesomyaria	800.88	2674	 	36.752598	-122.201904	1799125	0.34	2005-06-08 17:38:09.0	Ventana	34.482	00:22:42:13	4.405	V2674-01
 	transect	Nanomia bijuga	200.43	2681	 	36.69828	-122.05329	2490177	1.7	2005-07-07 17:05:28.0	Ventana	34.197	00:36:37:03	8.358	V2681-01HD
 	transect	lobata	600.65	2681	 	36.695763	-122.05124	2493670	0.3	2005-07-07 18:18:50.0	Ventana	34.387	01:49:12:03	5.496	V2681-02HD
 	descend	Poeobius meseres	1132.85	2682	 	36.698204	-122.05921	1722162	0.58	2005-07-08 19:12:30.0	Ventana	34.556	03:05:07:02	3.581	V2682-04
 	transect	Ceriantharia sp. 2	1000.03	2669	 	36.73192	-122.245575	1735396	0.41	2005-05-25 20:00:55.0	Ventana	34.51	02:22:24:21	4.066	V2669-03
 	descend	Euphausiacea	166.6	2683	 	36.700794	-122.05141	1756299	1.7	2005-07-11 16:30:22.0	Ventana	34.175	00:18:04:16	8.749	V2683-01
 	transect	Psolus squamatus	 	2687	 	 	 	1808972	 	2005-07-13 17:32:52.0	Ventana	 	00:59:44:24	 	V2687-01
 	transect	Mesomyaria	999.52	2669	 	36.73073	-122.229515	1651110	0.45	2005-05-25 18:10:32.0	Ventana	34.522	00:32:59:11	3.907	V2669-01
 	descend	Tomopteris	1057.99	2683	 	36.705048	-122.049	1757425	0.49	2005-07-11 19:25:59.0	Ventana	34.533	03:06:19:26	3.837	V2683-03
 	transect	Careproctus melanurus	598.27	2680	http://search.mbari.org/ARCHIVE/frameGrabs/Ventana/images/2680/01_18_04_28.jpg	36.781616	-122.22674	1805036	0.36	2005-06-27 18:38:59.0	Ventana	34.376	01:18:04:28	5.602	V2680-02
 	descend	Cyclothone	434.09	2682	 	36.698257	-122.059715	1720750	0.66	2005-07-08 17:46:32.0	Ventana	34.297	01:40:02:12	6.444	V2682-02
 	transect	Appendicularia	200.36	2681	 	36.69831	-122.053406	2491229	1.67	2005-07-07 17:12:56.0	Ventana	34.201	00:44:05:07	8.34	V2681-01HD
 	transect	Psolus squamatus	 	2687	 	 	 	1807154	 	2005-07-13 17:02:08.0	Ventana	 	00:29:02:07	 	V2687-01
 	transect	Poeobius meseres	200.46	2681	 	36.69828	-122.05329	2490237	1.7	2005-07-07 17:06:06.0	Ventana	34.198	00:37:13:23	8.363	V2681-01HD
 	cruise	Stylasterias	90.59	2688	 	36.817013	-122.01534	1679336	1.99	2005-07-14 20:03:25.0	Ventana	34.086	03:48:11:01	8.911	V2688-04
 	ascend	Cyclothone	399.07	2681	 	36.699284	-122.05449	1717986	0.89	2005-07-07 20:47:48.667	Ventana	34.269	04:16:09:11	6.892	V2681-05
 	ascend	Haliscera	266.03	2681	 	36.69891	-122.05663	1718775	1.41	2005-07-07 21:18:25.867	Ventana	34.231	04:46:45:05	7.918	V2681-05
 	descend	Chaetognatha	257.63	2693	 	36.698246	-122.061745	1758417	1.42	2005-07-25 19:27:29.0	Ventana	34.249	02:07:05:14	8.302	V2693-03
 	transect	Psolus squamatus	 	2687	 	 	 	1810647	 	2005-07-13 19:26:32.0	Ventana	 	02:52:16:00	 	V2687-03
 	transect	Psolus squamatus	 	2687	 	 	 	1811090	 	2005-07-13 19:52:27.0	Ventana	 	03:17:27:24	 	V2687-04
 	ascend	Leuroglossus stilbius	679.82	2681	 	36.69875	-122.05452	1717626	0.27	2005-07-07 20:22:40.867	Ventana	34.413	03:51:42:01	5.162	V2681-04
 	transect	molt	100.61	2681	 	36.69983	-122.05429	2489531	2.13	2005-07-07 16:43:59.0	Ventana	34.068	00:15:08:13	9.147	V2681-01HD
 	transect	Psolus squamatus	399.9	2687	 	36.78812	-122.12164	1809235	1.13	2005-07-13 17:37:26.0	Ventana	34.243	01:03:48:20	7.255	V2687-02
 	ascend	Poeobius meseres	943.52	2681	 	36.697483	-122.05393	1716920	0.41	2005-07-07 19:42:03.033	Ventana	34.514	03:11:06:21	4.068	V2681-04
 	ascend	Appendicularia	860.93	2681	 	36.698494	-122.055595	1717363	0.34	2005-07-07 19:53:52.833	Ventana	34.497	03:22:56:08	4.32	V2681-04
 	transect	molt	200.5	2681	 	36.69828	-122.05329	2490523	1.71	2005-07-07 17:07:16.0	Ventana	34.197	00:38:25:12	8.341	V2681-01HD
 	ascend	Copepoda	1184.38	2683	 	36.70735	-122.0479	1757711	0.71	2005-07-11 20:24:43.0	Ventana	34.572	03:59:04:19	3.368	V2683-04
 	transect	Mesomyaria	1000.27	2669	 	36.731236	-122.24127	1689400	0.4	2005-05-25 19:35:22.0	Ventana	34.509	01:57:19:27	4.085	V2669-02
 	ascend	Chaetognatha	378.28	2693	 	36.695908	-122.06061	1758777	1.19	2005-07-25 20:50:26.0	Ventana	34.232	03:14:58:23	7.138	V2693-04
 	transect	Calliostoma platinum	 	2687	 	 	 	1807620	 	2005-07-13 17:18:11.0	Ventana	 	00:45:04:12	 	V2687-01
 	transect	lobata	700.62	2681	 	36.69586	-122.05173	2497846	0.28	2005-07-07 18:44:30.0	Ventana	34.435	02:14:11:27	4.945	V2681-03HD
 	ascend	Poeobius meseres	700.27	2682	 	36.698856	-122.05939	1723334	0.29	2005-07-08 20:32:11.0	Ventana	34.419	04:24:19:22	5.07	V2682-05
 	ascend	Haliscera	326.89	2693	 	36.691887	-122.06195	1759040	1.29	2005-07-25 21:17:00.0	Ventana	34.236	03:41:31:05	7.555	V2693-04
 	transect	Mesomyaria	803.24	2674	 	36.750793	-122.22026	1803684	0.34	2005-06-08 19:07:39.0	Ventana	34.484	01:51:40:26	4.387	V2674-02
 	ascend	ink	352.32	2681	 	36.69934	-122.05508	1718069	1.06	2005-07-07 20:52:24.747	Ventana	34.252	04:20:45:20	7.17	V2681-05
 	descend	Dosidicus gigas	405.42	2681	 	36.69803	-122.053764	1715305	0.79	2005-07-07 17:50:44.65	Ventana	34.275	01:21:07:03	6.638	V2681-02
 	transect	molt	100.49	2681	 	36.69931	-122.05396	2489817	2.14	2005-07-07 16:51:14.0	Ventana	34.067	00:22:23:19	9.15	V2681-01HD
 	cruise	Asteroidea	146.53	2688	 	36.81104	-122.02208	1677984	1.95	2005-07-14 18:38:46.0	Ventana	34.098	02:24:02:02	8.919	V2688-03
 	descend	Prayidae	461.25	2683	 	36.701675	-122.04931	1756719	0.78	2005-07-11 17:09:50.0	Ventana	34.283	00:57:30:05	6.672	V2683-01
 	transect	Lycenchelys camchatica	799.95	2674	 	36.752674	-122.20052	1774129	0.29	2005-06-08 17:31:28.0	Ventana	34.458	00:16:02:06	4.661	V2674-01
 	transect	Gastropoda	203.58	2696	 	36.80652	-122.1301	1813771	1.48	2005-08-01 18:28:56.0	Ventana	34.216	01:56:46:18	8.642	V2696-02
 	transect	Calliostoma platinum	 	2687	 	 	 	1810744	 	2005-07-13 19:31:16.0	Ventana	 	02:56:59:06	 	V2687-03
 	transect	Mesomyaria	997.53	2669	 	36.730614	-122.22813	1649338	0.45	2005-05-25 18:01:19.0	Ventana	34.521	00:23:47:20	3.907	V2669-01
 	ascend	Nanomia	255.54	2681	 	36.698612	-122.05649	1719135	1.46	2005-07-07 21:23:33.333	Ventana	34.228	04:51:51:25	7.986	V2681-05
 	ascend	surface water	3.02	2695	 	36.783722	-122.19895	1824527	 	2005-07-28 21:04:50.0	Ventana	 	06:02:24:07	 	V2695-04
 	transect	haliscera	600.61	2681	 	36.69672	-122.05241	2493767	0.3	2005-07-07 18:23:23.0	Ventana	34.388	01:53:45:21	5.477	V2681-02HD
 	cruise	Sebastes	417.91	2688	 	36.805923	-122.01918	1677721	0.92	2005-07-14 17:48:30.0	Ventana	34.265	01:34:13:17	6.943	V2688-02
 	transect	Ophiuroidea	999.55	2669	 	36.731117	-122.235466	1684338	0.45	2005-05-25 18:53:36.0	Ventana	34.52	01:15:36:15	3.924	V2669-02
 	transect	Porifera sp. 1	 	2687	 	 	 	1810241	 	2005-07-13 19:11:23.0	Ventana	 	02:37:08:08	 	V2687-03
 	transect	Phyllospadix	802.35	2674	 	36.75177	-122.210304	1801003	0.35	2005-06-08 18:21:09.0	Ventana	34.491	01:05:13:23	4.336	V2674-02
 	transect	Psolus squamatus	 	2687	 	 	 	1808829	 	2005-07-13 17:30:15.0	Ventana	 	00:57:08:00	 	V2687-01
 	transect	Phyllospadix	800.62	2674	http://search.mbari.org/ARCHIVE/frameGrabs/Ventana/images/2674/01_34_53_07.jpg	36.7512	-122.2164	1803421	0.35	2005-06-08 18:50:50.0	Ventana	34.49	01:34:53:07	4.336	V2674-02
 	transect	Mesomyaria	801.26	2674	 	36.75095	-122.219086	1803624	0.35	2005-06-08 19:02:45.0	Ventana	34.49	01:46:47:14	4.376	V2674-02
 	ascend	Appendicularia	333.19	2681	 	36.699608	-122.055214	1718129	1.17	2005-07-07 20:55:24.6	Ventana	34.241	04:23:45:10	7.313	V2681-05
 	transect	Phyllospadix	1000.36	2669	 	36.73159	-122.24318	1733781	0.41	2005-05-25 19:45:29.0	Ventana	34.511	02:07:00:27	4.06	V2669-03
 	transect	Psolus squamatus	399.84	2687	 	36.788006	-122.12136	1809032	1.15	2005-07-13 17:34:07.0	Ventana	34.241	01:00:59:04	7.304	V2687-01
 	transect	Allocentrotus fragilis	 	2687	 	 	 	1811293	 	2005-07-13 20:05:34.0	Ventana	 	03:30:33:21	 	V2687-04
 	transect	Appendicularia	300.41	2681	 	36.69618	-122.05182	2492558	1.24	2005-07-07 17:27:43.0	Ventana	34.233	00:58:50:10	7.427	V2681-01HD
 	ascend	Nanomia	259.23	2681	 	36.69931	-122.05434	1718632	1.43	2005-07-07 21:14:14.467	Ventana	34.229	04:42:33:16	7.974	V2681-05
 	ascend	Calycophorae	 	2683	 	 	 	1758131	 	2005-07-11 14:30:25.0	Ventana	 	05:03:16:02	 	V2683-05
 	ascend	Solmaris	549.45	2681	 	36.698944	-122.05426	1717723	0.38	2005-07-07 20:32:17.1	Ventana	34.361	04:01:17:20	5.877	V2681-04
 	transect	Psolus squamatus	 	2687	http://search.mbari.org/ARCHIVE/frameGrabs/Ventana/images/2687/03_08_34_04.jpg	 	 	1810947	 	2005-07-13 19:43:32.0	Ventana	 	03:08:34:04	 	V2687-04
 	cruise	Parastichopus	249.22	2688	 	36.80954	-122.02044	1677924	1.55	2005-07-14 18:30:49.5	Ventana	34.189	02:16:05:03	8.254	V2688-03
 	ascend	Nanomia	370.94	2693	 	36.696423	-122.0607	1758680	1.2	2005-07-25 20:27:49.0	Ventana	34.232	03:07:21:29	7.164	V2693-03
 	transect	Phyllospadix	800.99	2674	 	36.752552	-122.201324	1774189	0.34	2005-06-08 17:35:12.0	Ventana	34.482	00:19:46:08	4.38	V2674-01
 	descend	Prayidae	277.2	2682	 	36.69975	-122.06083	1720044	1.33	2005-07-08 16:34:00.0	Ventana	34.228	00:28:03:14	7.676	V2682-01
 	transect	Stomphia	800.0	2674	 	36.752094	-122.20871	1800800	0.35	2005-06-08 18:13:04.0	Ventana	34.49	00:57:35:10	4.329	V2674-01
 	transect	Porifera sp. 1	399.91	2687	 	36.78813	-122.12181	1809332	1.13	2005-07-13 17:39:38.0	Ventana	34.238	01:06:00:21	7.275	V2687-02
 	transect	Psolus squamatus	 	2687	 	 	 	1810038	 	2005-07-13 18:51:50.0	Ventana	 	02:17:36:15	 	V2687-03
 	transect	Mesomyaria	1000.26	2669	 	36.73128	-122.240944	1689340	0.41	2005-05-25 19:33:37.0	Ventana	34.51	01:55:34:17	4.056	V2669-02
 	transect	Mesomyaria	1000.12	2669	 	36.73107	-122.23975	1689197	0.41	2005-05-25 19:26:11.0	Ventana	34.51	01:48:09:00	4.062	V2669-02
 	ascend	Nanomia	258.17	2681	 	36.697838	-122.05522	1719338	 	2005-07-07 21:29:59.0	Ventana	 	05:01:33:29	 	V2681-05
 	cruise	Merluccius productus	502.68	2694	 	36.784348	-122.20052	1676166	0.76	2005-07-27 17:09:51.0	Ventana	34.287	00:02:59:23	6.488	V2694-01
 	ascend	Appendicularia	929.15	2682	 	36.69795	-122.0585	1723131	0.38	2005-07-08 20:12:09.0	Ventana	34.504	04:04:20:09	4.191	V2682-05
 	transect	Mediaster	 	2687	 	 	 	1811653	 	2005-07-13 20:19:01.0	Ventana	 	03:44:00:16	 	V2687-04
 	ascend	Chuniphyes	804.25	2681	 	36.699097	-122.056625	1717423	0.31	2005-07-07 20:00:36.733	Ventana	34.472	03:29:39:23	4.539	V2681-04
 	transect	Sebastolobus altivelis	599.94	2680	 	36.777927	-122.2231	1804330	0.36	2005-06-27 17:52:23.0	Ventana	34.379	00:32:30:25	5.588	V2680-01
 	transect	Ophiuroidea	998.07	2669	 	36.731133	-122.23099	1683489	0.45	2005-05-25 18:22:25.0	Ventana	34.523	00:44:51:11	3.912	V2669-01
 	transect	Sebastolobus altivelis	801.27	2674	 	36.7525	-122.20013	1774032	0.29	2005-06-08 17:27:26.0	Ventana	34.466	00:12:00:07	4.639	V2674-01
 	transect	Mediaster	 	2687	 	 	 	1809738	 	2005-07-13 18:39:27.0	Ventana	 	02:05:13:20	 	V2687-03
 	cruise	Appendicularia	136.7	2676	 	36.808655	-122.0309	1676872	1.72	2005-06-14 17:57:25.0	Ventana	34.172	01:37:07:28	8.33	V2676-02
 	transect	Mesomyaria	999.69	2669	 	36.731426	-122.23697	1687425	0.44	2005-05-25 19:06:07.0	Ventana	34.519	01:28:06:19	3.942	V2669-02
 	descend	Euphausiacea	299.43	2681	 	36.69857	-122.05373	1713630	1.27	2005-07-07 17:17:51.067	Ventana	34.226	00:48:58:13	7.49	V2681-01
 	cruise	Merluccius productus	382.25	2690	 	36.790043	-121.887566	1670255	0.94	2005-07-18 19:51:28.0	Ventana	34.269	01:06:35:17	6.951	V2690-01
 	ascend	Chuniphyes	726.86	2681	 	36.698696	-122.05529	1717566	0.28	2005-07-07 20:18:02.067	Ventana	34.44	03:47:03:01	4.906	V2681-04
 	transect	Brisaster	599.45	2680	 	36.7795	-122.224594	1804533	0.36	2005-06-27 18:10:49.0	Ventana	34.378	00:50:55:14	5.604	V2680-01
 	transect	Psolus squamatus	 	2687	 	 	 	1811150	 	2005-07-13 19:56:42.0	Ventana	 	03:21:42:18	 	V2687-04
 	cruise	Parastichopus	110.87	2688	http://search.mbari.org/ARCHIVE/frameGrabs/Ventana/images/2688/02_29_31_23.jpg	36.811314	-122.02257	20005215	1.94	2005-07-14 18:44:18.0	Ventana	34.092	02:29:31:23	8.895	V2688-03
 	transect	Porifera sp. 1	 	2687	 	 	 	1807214	 	2005-07-13 17:03:33.0	Ventana	 	00:30:27:18	 	V2687-01
 	transect	Rathbunaster californicus	203.45	2696	 	36.807415	-122.13107	1813831	1.46	2005-08-01 18:41:23.0	Ventana	34.22	02:08:27:23	8.616	V2696-03
 	transect	Mesomyaria	996.98	2669	 	36.73065	-122.22762	1649195	0.45	2005-05-25 17:58:19.0	Ventana	34.522	00:20:47:00	3.909	V2669-01
 	ascend	Crustacea	536.97	2682	 	36.698334	-122.06283	1723634	0.43	2005-07-08 21:10:13.0	Ventana	34.347	05:01:54:27	6.004	V2682-06
 	descend	Nanomia	301.34	2693	 	36.69768	-122.06094	1758477	1.32	2005-07-25 19:39:16.0	Ventana	34.235	02:18:52:00	7.687	V2693-03
 	transect	Mesomyaria	1000.02	2669	 	36.731705	-122.24386	1733984	0.41	2005-05-25 19:49:27.0	Ventana	34.51	02:10:58:21	4.069	V2669-03
 	cruise	Alepocephalus tenebrosus	606.03	2688	 	36.796043	-122.02022	1677375	0.45	2005-07-14 16:38:50.337	Ventana	34.387	00:25:09:09	5.53	V2688-01
 	transect	Mesomyaria	800.35	2674	 	36.75175	-122.21184	1801146	0.35	2005-06-08 18:27:12.0	Ventana	34.49	01:11:16:08	4.339	V2674-02
 	transect	Psolus squamatus	 	2687	 	 	 	1808626	 	2005-07-13 17:25:37.0	Ventana	 	00:52:29:28	 	V2687-01
 	transect	Ophiuroidea	998.79	2669	 	36.731094	-122.23483	1684195	0.45	2005-05-25 18:48:33.0	Ventana	34.522	01:10:33:22	3.918	V2669-02
 	ascend	Bolinopsis	1145.59	2683	 	36.708145	-122.04901	1757771	0.67	2005-07-11 20:38:11.0	Ventana	34.564	04:12:32:26	3.476	V2683-04
 	transect	Mesomyaria	999.18	2669	 	36.731377	-122.23607	1684541	0.44	2005-05-25 18:58:04.0	Ventana	34.52	01:20:03:19	3.939	V2669-02
 	transect	Psolus squamatus	399.92	2687	 	36.788067	-122.12157	1809175	1.13	2005-07-13 17:36:33.0	Ventana	34.242	01:02:55:13	7.267	V2687-02
 	transect	Porifera sp. 1	 	2687	 	 	 	1812562	 	2005-07-13 20:45:36.0	Ventana	 	04:10:06:26	 	V2687-05
 	transect	apolemia	300.45	2681	 	36.69714	-122.05264	2492355	1.23	2005-07-07 17:24:26.0	Ventana	34.233	00:55:33:05	7.393	V2681-01HD
 	descend	Chuniphyes	917.65	2681	 	36.694717	-122.05044	1716514	0.4	2005-07-07 19:17:30.0	Ventana	34.505	02:47:11:14	4.111	V2681-03
 	transect	Mesomyaria	998.27	2669	 	36.732967	-122.25228	1737417	0.4	2005-05-25 20:47:03.0	Ventana	34.508	03:07:51:24	4.076	V2669-04
 	transect	Mesomyaria	798.44	2674	 	36.75163	-122.21376	1801303	0.35	2005-06-08 18:36:47.0	Ventana	34.489	01:20:51:09	4.342	V2674-02
 	transect	Chaetognatha	1000.97	2681	 	36.69547	-122.051476	2498612	0.48	2005-07-07 19:24:56.0	Ventana	34.534	02:54:35:22	3.849	V2681-03HD
 	stationary	Merluccius productus	502.37	2694	 	36.784546	-122.20047	1676669	0.72	2005-07-27 20:30:13.0	Ventana	34.29	03:02:20:21	6.409	V2694-03
 	transect	Ceriantharia sp. 1	600.26	2680	 	36.78367	-122.229126	1805442	0.35	2005-06-27 19:09:50.0	Ventana	34.378	01:48:54:11	5.594	V2680-02
 	transect	Ceriantharia sp. 2	998.9	2669	 	36.732803	-122.25145	1737214	0.41	2005-05-25 20:41:57.0	Ventana	34.509	03:02:44:28	4.072	V2669-04
 	transect	Stomphia	 	2669	 	 	 	1737574	 	2005-05-25 13:51:55.0	Ventana	 	03:12:43:01	 	V2669-04
 	transect	Neptunea amianta	802.66	2674	 	36.75229	-122.206085	1799891	0.36	2005-06-08 18:00:21.0	Ventana	34.49	00:44:53:20	4.342	V2674-01
 	transect	Brisaster	1000.02	2669	 	36.731228	-122.23824	1688837	0.44	2005-05-25 19:16:36.0	Ventana	34.519	01:38:34:28	3.951	V2669-02
 	cruise	Lycenchelys	1230.14	2683	 	36.705868	-122.04776	1757568	0.74	2005-07-11 19:57:35.0	Ventana	34.579	03:31:57:23	3.308	V2683-04
 	descend	Phialidium	539.31	2681	 	36.695675	-122.05106	1715605	0.38	2005-07-07 18:05:53.2	Ventana	34.36	01:36:15:08	5.774	V2681-02
 	ascend	Nanomia	258.17	2681	 	36.697838	-122.05522	1719541	 	2005-07-07 21:29:59.0	Ventana	 	05:12:18:13	 	V2681-05
 	cruise	Zoarcidae	477.03	2688	 	36.802074	-122.01827	1677578	0.8	2005-07-14 17:28:07.0	Ventana	34.289	01:13:51:15	6.677	V2688-02
 	transect	Mesomyaria	1000.47	2669	 	36.73154	-122.24283	1694545	0.4	2005-05-25 19:43:35.0	Ventana	34.51	02:05:31:28	4.087	V2669-02
 	ascend	Poeobius meseres	594.32	2682	 	36.698776	-122.06086	1723477	0.38	2005-07-08 20:48:34.0	Ventana	34.373	04:40:42:13	5.656	V2682-05
 	ascend	Calycophorae	200.7	2693	 	36.69084	-122.0627	1759183	1.7	2005-07-25 21:25:42.0	Ventana	34.191	03:50:13:22	8.939	V2693-04
 	transect	chuniphyes	500.59	2681	 	36.69623	-122.051765	2493610	0.44	2005-07-07 18:02:17.0	Ventana	34.347	01:32:39:07	6.013	V2681-02HD
 	transect	molt	100.5	2681	 	36.699825	-122.05429	2489674	2.13	2005-07-07 16:47:33.0	Ventana	34.068	00:18:42:09	9.148	V2681-01HD
 	transect	Mediaster	 	2687	 	 	 	1812262	 	2005-07-13 20:30:08.0	Ventana	 	03:55:06:23	 	V2687-04
 	cruise	boulder	259.87	2676	 	36.80551	-122.02948	1676729	1.54	2005-06-14 17:36:15.0	Ventana	34.206	01:15:59:18	7.994	V2676-02
 	descend	Appendicularia	640.06	2682	 	36.698635	-122.0599	1721313	0.28	2005-07-08 18:09:33.0	Ventana	34.401	02:02:38:14	5.326	V2682-03
 	transect	Neptunea amianta	798.92	2674	 	36.75134	-122.215355	1801423	0.35	2005-06-08 18:45:28.0	Ventana	34.489	01:29:32:02	4.339	V2674-02
 	descend	Chaetognatha	517.88	2683	 	36.701458	-122.04915	1756885	0.6	2005-07-11 17:41:08.0	Ventana	34.311	01:25:14:09	6.323	V2683-02
 	transect	Neptunea amianta	600.18	2680	 	36.78434	-122.229706	1805599	0.36	2005-06-27 19:16:50.0	Ventana	34.377	01:55:53:11	5.606	V2680-02
 	descend	main-camera	361.08	2693	 	36.6962	-122.06083	1758620	1.22	2005-07-25 20:19:46.0	Ventana	34.233	02:59:19:06	7.314	V2693-03
 	transect	Euplexaura	 	2687	 	 	 	1810481	 	2005-07-13 19:19:48.0	Ventana	 	02:45:32:20	 	V2687-03
 	ascend	Haliscera	236.42	2682	 	36.696697	-122.06098	1723754	1.88	2005-07-08 21:29:43.0	Ventana	34.164	05:21:23:02	7.873	V2682-06
 	transect	Nanomia bijuga	200.41	2681	 	36.698296	-122.05335	2491109	1.69	2005-07-07 17:11:54.0	Ventana	34.198	00:43:01:18	8.337	V2681-01HD
 	transect	Neptunea amianta	1000.4	2669	 	36.731186	-122.240746	1689303	0.41	2005-05-25 19:32:11.0	Ventana	34.511	01:54:08:29	4.056	V2669-02
 	transect	Phyllospadix	999.97	2669	 	36.732594	-122.25043	1736988	0.41	2005-05-25 20:36:15.0	Ventana	34.509	02:57:44:05	4.07	V2669-03
 	transect	Calycophorae	700.64	2681	 	36.69702	-122.05288	2497680	0.29	2005-07-07 18:39:44.0	Ventana	34.437	02:09:28:03	4.928	V2681-03HD
 	transect	Halipteris californica	597.81	2680	 	36.781216	-122.22617	1804939	0.36	2005-06-27 18:33:23.0	Ventana	34.376	01:12:29:16	5.595	V2680-02
 	transect	Neptunea amianta	800.58	2674	 	36.7521	-122.20851	1800763	0.35	2005-06-08 18:11:58.0	Ventana	34.491	00:56:29:15	4.326	V2674-01
 	transect	Psolus squamatus	399.88	2687	 	36.78804	-122.12151	1809069	1.14	2005-07-13 17:35:43.0	Ventana	34.237	01:02:05:08	7.276	V2687-02
 	transect	Mediaster	 	2687	 	 	 	1811233	 	2005-07-13 20:05:17.0	Ventana	 	03:30:17:04	 	V2687-04
 	descend	Appendicularia	359.97	2682	 	36.698593	-122.06039	1720330	1.0	2005-07-08 17:22:26.0	Ventana	34.255	01:15:57:28	7.079	V2682-02
 	transect	Phyllospadix	197.92	2696	 	36.803604	-122.124275	1813245	1.53	2005-08-01 17:25:39.0	Ventana	34.203	00:53:56:22	8.609	V2696-01
 	descend	Chaetognatha	834.57	2683	 	36.702766	-122.04856	1757208	0.33	2005-07-11 18:19:43.0	Ventana	34.479	02:03:47:24	4.456	V2683-02
 	descend	sinker	325.96	2681	 	36.695633	-122.051254	1713667	1.13	2005-07-07 17:30:44.033	Ventana	34.243	01:01:50:11	7.254	V2681-01
 	transect	Neptunea amianta	998.71	2669	 	36.73289	-122.252045	1737311	0.4	2005-05-25 20:45:20.0	Ventana	34.509	03:06:08:24	4.074	V2669-04
 	ascend	Chaetognatha	259.34	2681	 	36.699413	-122.05453	1718595	1.42	2005-07-07 21:13:05.9	Ventana	34.232	04:41:26:01	7.968	V2681-05
 	transect	Phyllospadix	800.03	2674	 	36.752506	-122.20357	1799351	0.35	2005-06-08 17:46:44.0	Ventana	34.5	00:31:17:18	4.363	V2674-01
 	transect	Ophiuroidea	999.63	2669	 	36.73143	-122.23659	1684804	0.44	2005-05-25 19:02:47.0	Ventana	34.52	01:24:46:08	3.937	V2669-02
 	transect	Euplexaura	 	2687	 	 	 	1808746	 	2005-07-13 17:28:26.0	Ventana	 	00:55:18:15	 	V2687-01
 	ascend	Appendicularia	312.34	2681	 	36.69966	-122.05527	1718166	1.26	2005-07-07 20:58:07.867	Ventana	34.235	04:26:28:13	7.513	V2681-05
 	cruise	Chionoecetes tanneri	1233.36	2683	 	36.705788	-122.04791	1757545	0.72	2005-07-11 19:51:53.0	Ventana	34.57	03:26:15:21	3.338	V2683-04
 	transect	Lycenchelys camchatica	800.75	2674	 	36.75175	-122.21117	1801086	0.35	2005-06-08 18:24:43.0	Ventana	34.489	01:08:47:17	4.342	V2674-02
 	transect	Ceriantharia sp. 2	1000.06	2669	 	36.731667	-122.243484	1733841	0.41	2005-05-25 19:47:21.0	Ventana	34.511	02:08:50:21	4.069	V2669-03
 	transect	Sebastolobus altivelis	801.29	2674	 	36.750965	-122.21853	1803587	0.35	2005-06-08 19:00:30.0	Ventana	34.487	01:44:32:27	4.359	V2674-02
 	cruise	Sebastolobus	519.26	2688	 	36.79983	-122.019	1677481	0.66	2005-07-14 17:08:43.0	Ventana	34.315	00:55:00:28	6.362	V2688-01
 	ascend	Appendicularia	612.03	2682	 	36.69887	-122.0599	1723417	0.38	2005-07-08 20:38:17.0	Ventana	34.38	04:30:26:11	5.511	V2682-05
 	transect	Chaetognatha	300.42	2681	 	36.696587	-122.05218	2492521	1.23	2005-07-07 17:26:20.0	Ventana	34.233	00:57:28:03	7.398	V2681-01HD
 	transect	Ophiuroidea	1000.32	2669	 	36.73145	-122.2421	1694462	0.4	2005-05-25 19:40:03.0	Ventana	34.509	02:02:00:05	4.076	V2669-02
 	transect	Microstomus pacificus	 	2687	http://search.mbari.org/ARCHIVE/frameGrabs/Ventana/images/2687/04_14_01_17.jpg	 	 	1812645	 	2005-07-13 20:49:31.0	Ventana	 	04:14:01:17	 	V2687-05
 	ascend	Chaetognatha	106.17	2693	 	36.69086	-122.06285	1759280	2.39	2005-07-25 21:35:23.0	Ventana	33.985	03:59:54:28	9.236	V2693-04
 	transect	Phyllospadix	203.44	2696	 	36.80526	-122.1282	1813674	1.48	2005-08-01 18:14:18.0	Ventana	34.217	01:42:09:17	8.631	V2696-02
 	descend	Dosidicus gigas	657.09	2682	 	36.698647	-122.05994	1721359	0.28	2005-07-08 18:10:41.0	Ventana	34.409	02:03:46:25	5.225	V2682-03
 	transect	Rathbunaster californicus	199.03	2696	 	36.80377	-122.12493	1813305	1.53	2005-08-01 17:32:11.0	Ventana	34.203	01:00:27:28	8.633	V2696-01
 	descend	sinker	266.36	2681	 	36.69857	-122.05362	1713607	1.4	2005-07-07 17:16:39.1	Ventana	34.222	00:47:47:09	7.77	V2681-01
 	transect	Porifera sp. 1	 	2687	 	 	 	1806997	 	2005-07-13 16:53:55.0	Ventana	 	00:20:49:21	 	V2687-01
 	transect	Anthomastus ritteri	 	2687	http://search.mbari.org/ARCHIVE/frameGrabs/Ventana/images/2687/03_07_30_20.jpg	 	 	1810910	 	2005-07-13 19:42:29.0	Ventana	 	03:07:30:20	 	V2687-04
 	descend	Aegina	859.22	2682	 	36.698326	-122.05944	1721742	0.33	2005-07-08 18:48:30.0	Ventana	34.483	02:41:32:27	4.39	V2682-03
 	descend	Hormiphora	173.91	2693	 	36.696117	-122.058044	1758237	1.95	2005-07-25 18:03:58.0	Ventana	34.142	00:44:27:10	8.899	V2693-01
 	transect	Sergestes similis	400.78	2681	 	36.697273	-122.05292	2493121	0.79	2005-07-07 17:47:24.0	Ventana	34.278	01:17:47:14	6.663	V2681-02HD
 	transect	Psolus squamatus	399.87	2687	 	36.788048	-122.12153	1809129	1.13	2005-07-13 17:35:59.0	Ventana	34.244	01:02:20:26	7.27	V2687-02
 	transect	Rathbunaster californicus	200.36	2696	 	36.80514	-122.12799	1813568	1.5	2005-08-01 18:00:26.0	Ventana	34.212	01:28:18:12	8.67	V2696-02
 	descend	Chaetognatha	974.31	2682	 	36.698322	-122.05924	1722005	0.43	2005-07-08 18:57:11.0	Ventana	34.52	02:50:13:09	4.009	V2682-03
 	transect	Mesomyaria	999.92	2669	 	36.730957	-122.23254	1683775	0.45	2005-05-25 18:34:03.0	Ventana	34.522	00:56:28:19	3.91	V2669-01
 	ascend	Appendicularia	431.51	2681	 	36.69908	-122.05421	1717783	0.68	2005-07-07 20:37:51.5	Ventana	34.293	04:06:51:07	6.536	V2681-04
 	cruise	Actiniaria	500.16	2695	 	36.78373	-122.19958	1824407	0.89	2005-07-28 17:01:00.0	Ventana	34.263	00:07:22:11	6.705	V2695-01
 	ascend	Appendicularia	285.74	2681	 	36.699745	-122.05518	1718226	1.36	2005-07-07 21:00:40.133	Ventana	34.232	04:29:00:01	7.731	V2681-05
 	transect	Porifera	 	2687	 	 	 	1810098	 	2005-07-13 18:56:33.0	Ventana	 	02:22:18:07	 	V2687-03
 	transect	Ceriantharia sp. 1	602.36	2680	 	36.78752	-122.23184	1805922	0.36	2005-06-27 19:50:20.0	Ventana	34.378	02:28:58:28	5.594	V2680-03
 	transect	Porifera sp. 1	 	2687	 	 	 	1808686	 	2005-07-13 17:27:08.0	Ventana	 	00:54:00:12	 	V2687-01
 	descend	Copepoda	263.46	2683	 	36.700924	-122.05042	1756456	1.39	2005-07-11 16:51:27.0	Ventana	34.227	00:39:06:19	7.931	V2683-01
 	transect	Phyllospadix	800.26	2674	 	36.75244	-122.20484	1799674	0.35	2005-06-08 17:53:46.0	Ventana	34.487	00:38:18:13	4.356	V2674-01
 	transect	Sebastolobus altivelis	603.17	2680	 	36.789005	-122.23248	1805982	0.36	2005-06-27 20:05:57.0	Ventana	34.38	02:44:34:05	5.588	V2680-03
 	transect	Mesomyaria	999.17	2669	 	36.730522	-122.22857	1650907	0.45	2005-05-25 18:04:14.0	Ventana	34.522	00:26:42:04	3.908	V2669-01
 	transect	Nanomia bijuga	200.38	2681	 	36.698303	-122.05338	2491169	1.68	2005-07-07 17:12:28.0	Ventana	34.2	00:43:35:29	8.339	V2681-01HD
 	ascend	Chaetognatha	341.11	2693	 	36.6931	-122.06139	1758957	1.25	2005-07-25 21:11:26.0	Ventana	34.237	03:35:59:08	7.42	V2693-04
 	transect	haliscera	800.93	2681	 	36.69527	-122.05106	2498109	0.32	2005-07-07 18:54:55.0	Ventana	34.475	02:24:37:00	4.495	V2681-03HD
 	cruise	rock outcrop	378.09	2676	http://search.mbari.org/ARCHIVE/frameGrabs/Ventana/images/2676/00_29_34_26.jpg	36.804417	-122.029144	20003923	0.94	2005-06-14 16:45:28.0	Ventana	34.269	00:29:34:26	7.032	V2676-01
 	transect	Mesomyaria	1000.16	2669	 	36.731125	-122.23857	1688874	0.43	2005-05-25 19:18:38.0	Ventana	34.516	01:40:36:18	3.961	V2669-02
 	ascend	Poeobius meseres	482.14	2682	 	36.69832	-122.06326	1723694	0.54	2005-07-08 21:15:55.0	Ventana	34.326	05:07:36:05	6.264	V2682-06
 	ascend	Appendicularia	545.82	2683	 	36.70451	-122.05065	1757974	0.4	2005-07-11 21:14:24.0	Ventana	34.353	04:47:16:02	5.973	V2683-05
 	transect	Mesomyaria	1000.08	2669	 	36.73177	-122.24496	1734487	0.4	2005-05-25 19:56:03.0	Ventana	34.509	02:17:33:13	4.075	V2669-03
 	transect	Nanomia bijuga	400.75	2681	 	36.697613	-122.053314	2493181	0.79	2005-07-07 17:48:51.0	Ventana	34.277	01:19:14:15	6.658	V2681-02HD
 	transect	Mesomyaria	999.31	2669	 	36.73102	-122.2321	1683715	0.45	2005-05-25 18:30:34.0	Ventana	34.52	00:53:00:14	3.916	V2669-01
 	transect	Eptatretus stoutii	 	2687	http://search.mbari.org/ARCHIVE/frameGrabs/Ventana/images/2687/02_47_45_09.jpg	 	 	1810541	 	2005-07-13 19:22:01.0	Ventana	 	02:47:45:09	 	V2687-03
 	descend	Appendicularia	503.23	2683	 	36.701458	-122.04914	1756825	0.68	2005-07-11 17:35:56.0	Ventana	34.305	01:20:03:05	6.466	V2683-02
 	starttransect	physical object	400.39	2687	 	36.788975	-122.123764	1809498	1.16	2005-07-13 18:09:01.0	Ventana	34.24	01:35:21:16	7.341	V2687-02
 	transect	Psolus squamatus	 	2687	 	 	 	1810850	 	2005-07-13 19:37:35.0	Ventana	 	03:03:18:14	 	V2687-03
 	ascend	Poeobius meseres	716.83	2683	 	36.70594	-122.04882	1757868	0.28	2005-07-11 21:05:13.0	Ventana	34.453	04:38:06:08	4.75	V2683-05
 	ascend	Cydippida	191.31	2693	 	36.690605	-122.062874	1759220	1.84	2005-07-25 21:29:03.0	Ventana	34.168	03:53:34:18	8.849	V2693-04
 	transect	Mesomyaria	800.6	2674	 	36.75108	-122.217766	1803527	0.35	2005-06-08 18:57:09.0	Ventana	34.49	01:41:12:02	4.361	V2674-02
 	descend	Appendicularia	351.97	2683	 	36.701305	-122.04992	1756562	1.18	2005-07-11 16:56:38.0	Ventana	34.23	00:44:17:24	7.179	V2683-01
 	transect	Phyllospadix	801.88	2674	 	36.75225	-122.20701	1800011	0.36	2005-06-08 18:04:41.0	Ventana	34.489	00:49:12:28	4.344	V2674-01
 	transect	Eptatretus stoutii	798.96	2674	 	36.75148	-122.21456	1801363	0.35	2005-06-08 18:42:12.0	Ventana	34.489	01:26:15:25	4.334	V2674-02
 	cruise	Anoplopoma fimbria	501.46	2688	 	36.801155	-122.01862	1677541	0.71	2005-07-14 17:23:02.0	Ventana	34.316	01:08:47:08	6.512	V2688-02
 	ascend	Nanomia	258.17	2681	 	36.697838	-122.05522	1719578	 	2005-07-07 21:29:59.0	Ventana	 	05:15:29:14	 	V2681-05
 	transect	Appendicularia	300.39	2681	 	36.69599	-122.05162	2492581	1.24	2005-07-07 17:28:33.0	Ventana	34.233	00:59:39:15	7.427	V2681-01HD
 	transect	Phyllospadix	799.39	2674	 	36.752457	-122.2052	1799748	0.35	2005-06-08 17:56:01.0	Ventana	34.49	00:40:33:11	4.357	V2674-01
 	transect	Mesomyaria	799.85	2674	 	36.75252	-122.203896	1799411	0.35	2005-06-08 17:48:27.0	Ventana	34.487	00:33:00:02	4.388	V2674-01
 	transect	Phyllospadix	599.28	2680	 	36.779892	-122.22497	1804570	0.35	2005-06-27 18:16:20.0	Ventana	34.38	00:56:25:13	5.563	V2680-01
 	transect	Umbellula lindahli	602.53	2680	 	36.78987	-122.232605	1806734	0.35	2005-06-27 20:14:37.0	Ventana	34.379	02:53:14:19	5.587	V2680-03
 	cruise	Macrouridae	1221.23	2683	 	36.706253	-122.04756	1757605	0.72	2005-07-11 20:06:45.0	Ventana	34.573	03:41:07:24	3.352	V2683-04
 	transect	Mysidae	700.65	2681	 	36.69636	-122.05228	2497740	0.28	2005-07-07 18:42:19.0	Ventana	34.435	02:12:01:07	4.954	V2681-03HD
 	transect	Ophiuroidea	999.67	2669	 	36.731373	-122.23768	1687522	0.44	2005-05-25 19:11:57.0	Ventana	34.519	01:33:56:08	3.948	V2669-02
 	transect	Ophiuroidea	1000.09	2669	 	36.731136	-122.24035	1689243	0.41	2005-05-25 19:29:31.0	Ventana	34.51	01:51:29:01	4.06	V2669-02
 	descend	Copepoda	1183.54	2682	 	36.698246	-122.057846	1722342	0.66	2005-07-08 19:41:00.0	Ventana	34.569	03:33:36:12	3.414	V2682-04
 	transect	Calycophorae	1000.96	2681	 	36.69636	-122.05265	2498695	0.47	2005-07-07 19:29:29.0	Ventana	34.53	02:59:09:02	3.878	V2681-03HD
 	descend	Melanostigma pammelas	793.86	2683	 	36.702633	-122.04882	1757148	0.36	2005-07-11 18:00:09.0	Ventana	34.461	01:44:14:12	4.66	V2683-02
 	transect	Hastigerinella digitata	300.45	2681	 	36.698116	-122.053444	2492032	1.24	2005-07-07 17:21:05.0	Ventana	34.233	00:52:12:12	7.409	V2681-01HD
 	transect	Phyllospadix	800.35	2674	 	36.752487	-122.203125	1799291	0.35	2005-06-08 17:44:09.0	Ventana	34.481	00:28:42:17	4.373	V2674-01
 	transect	Phyllospadix	196.98	2696	 	36.803375	-122.12351	1813185	1.55	2005-08-01 17:16:50.0	Ventana	34.2	00:45:08:06	8.626	V2696-01
 	transect	Rathbunaster californicus	 	2687	 	 	 	1807071	 	2005-07-13 16:57:30.0	Ventana	 	00:24:24:10	 	V2687-01
 	transect	Mediaster	 	2687	 	 	 	1812525	 	2005-07-13 20:43:58.0	Ventana	 	04:08:28:19	 	V2687-05
 	transect	Mesomyaria	999.94	2669	 	36.731747	-122.244354	1734284	0.4	2005-05-25 19:52:04.0	Ventana	34.509	02:13:35:07	4.083	V2669-03
 	transect	Stomphia	600.41	2680	 	36.786182	-122.2309	1805862	0.36	2005-06-27 19:35:19.0	Ventana	34.378	02:13:59:00	5.599	V2680-03
 	descend	Amphipoda	1182.69	2682	 	36.69841	-122.0582	1722282	0.66	2005-07-08 19:38:19.0	Ventana	34.57	03:30:56:28	3.415	V2682-04
 	transect	Leuroglossus stilbius	800.92	2681	 	36.695538	-122.05141	2498169	0.32	2005-07-07 18:56:13.0	Ventana	34.476	02:25:56:13	4.491	V2681-03HD
 	transect	Phyllospadix	204.0	2696	 	36.806114	-122.12968	1813734	1.49	2005-08-01 18:22:47.0	Ventana	34.211	01:50:38:12	8.642	V2696-02
 	transect	molt	100.5	2681	 	36.69983	-122.05429	2489637	2.13	2005-07-07 16:46:52.0	Ventana	34.068	00:18:01:00	9.144	V2681-01HD
 	descend	Aegina	1095.85	2682	 	36.69823	-122.05916	1722079	0.55	2005-07-08 19:07:22.0	Ventana	34.548	03:00:00:23	3.654	V2682-04
 	descend	Euphausiacea	207.38	2683	 	36.701023	-122.05089	1756396	1.71	2005-07-11 16:47:46.0	Ventana	34.188	00:35:26:24	8.298	V2683-01
 	transect	rock outcrop	 	2687	 	 	 	1812705	 	2005-07-13 20:53:33.0	Ventana	 	04:18:03:07	 	V2687-05
 	ascend	Appendicularia	673.73	2682	 	36.698902	-122.05956	1723357	0.28	2005-07-08 20:34:14.0	Ventana	34.411	04:26:23:11	5.177	V2682-05
 	descend	Poeobius meseres	912.79	2683	 	36.70353	-122.048485	1757282	0.38	2005-07-11 18:53:29.0	Ventana	34.502	02:33:52:25	4.204	V2683-03
 	transect	Appendicularia	700.69	2681	 	36.697838	-122.05367	2497620	0.29	2005-07-07 18:36:11.0	Ventana	34.435	02:05:55:00	4.953	V2681-03HD
 	cruise	Ophiodon elongatus	92.46	2688	http://search.mbari.org/ARCHIVE/frameGrabs/Ventana/images/2688/04_56_02_07.jpg	36.814457	-122.01874	1679479	1.94	2005-07-14 21:11:51.0	Ventana	34.1	04:56:02:07	8.915	V2688-05
 	transect	Nanomia bijuga	200.43	2681	 	36.69828	-122.05329	2490094	1.7	2005-07-07 17:04:38.0	Ventana	34.197	00:35:46:20	8.36	V2681-01HD
 	cruise	Gorgonocephalus	216.03	2676	http://search.mbari.org/ARCHIVE/frameGrabs/Ventana/images/2676/01_20_48_10.jpg	36.806133	-122.02925	1676789	1.59	2005-06-14 17:41:05.0	Ventana	34.202	01:20:48:10	8.072	V2676-02
 	transect	Euphausia	200.46	2681	 	36.69828	-122.05329	2490620	1.73	2005-07-07 17:07:53.0	Ventana	34.193	00:39:00:12	8.328	V2681-01HD
 	descend	Medusae	543.47	2683	 	36.70162	-122.04916	1756945	0.51	2005-07-11 17:43:52.0	Ventana	34.325	01:27:58:16	6.162	V2683-02
 	descend	Appendicularia	612.63	2682	 	36.69863	-122.0598	1721253	0.3	2005-07-08 18:08:04.0	Ventana	34.393	02:01:09:02	5.398	V2682-03
 	transect	Ceriantharia sp. 2	1000.76	2669	 	36.73229	-122.24904	1736268	0.41	2005-05-25 20:26:21.0	Ventana	34.509	02:47:49:02	4.065	V2669-03
 	transect	Caridea sp.1	602.17	2680	 	36.790623	-122.23278	1806794	0.35	2005-06-27 20:21:39.0	Ventana	34.379	03:00:15:21	5.589	V2680-03
 	transect	Mediaster	 	2687	 	 	 	1811773	 	2005-07-13 20:25:02.0	Ventana	 	03:50:01:02	 	V2687-04
 	transect	Mesomyaria	999.79	2669	 	36.731415	-122.23717	1687462	0.44	2005-05-25 19:07:59.0	Ventana	34.52	01:29:58:17	3.942	V2669-02
 	transect	Stomphia	998.1	2669	 	36.733006	-122.25276	1737477	0.4	2005-05-25 20:49:23.0	Ventana	34.508	03:10:11:02	4.075	V2669-04
 	descend	Appendicularia	377.59	2682	 	36.698444	-122.05996	1720667	0.94	2005-07-08 17:35:02.0	Ventana	34.261	01:28:32:11	6.981	V2682-02
 	transect	Mesomyaria	999.85	2669	 	36.731743	-122.244064	1734104	0.4	2005-05-25 19:50:39.0	Ventana	34.51	02:12:11:00	4.072	V2669-03
 	ascend	sinker	1064.84	2683	 	36.707573	-122.04916	1757808	0.56	2005-07-11 20:46:19.0	Ventana	34.533	04:20:40:07	3.759	V2683-04
 	ascend	Crustacea	370.96	2693	 	36.696514	-122.06062	1758694	1.2	2005-07-25 20:28:53.0	Ventana	34.233	03:08:25:20	7.172	V2693-03
 	transect	Copepoda	700.6	2681	 	36.695354	-122.05113	2497943	0.28	2005-07-07 18:46:52.0	Ventana	34.433	02:16:35:23	4.984	V2681-03HD
 	descend	Appendicularia	479.08	2683	 	36.70152	-122.04931	1756765	0.75	2005-07-11 17:21:48.0	Ventana	34.291	01:05:56:08	6.618	V2683-02
 	transect	Nanomia bijuga	200.36	2681	 	36.69829	-122.05333	2491049	1.69	2005-07-07 17:11:12.0	Ventana	34.196	00:42:19:12	8.332	V2681-01HD
 	transect	Mesomyaria	997.79	2669	 	36.73058	-122.22721	1649112	0.45	2005-05-25 17:55:30.0	Ventana	34.521	00:17:58:29	3.91	V2669-01
 	transect	Mesomyaria	998.39	2669	 	36.73102	-122.23029	1651276	0.45	2005-05-25 18:16:47.0	Ventana	34.522	00:39:14:04	3.912	V2669-01
 	descend	Calycophorae	942.86	2682	 	36.698257	-122.05935	1721802	0.36	2005-07-08 18:53:54.0	Ventana	34.501	02:46:55:24	4.224	V2682-03
 	descend	Solmissus	389.33	2683	 	36.701473	-122.04975	1756622	0.99	2005-07-11 16:58:43.0	Ventana	34.256	00:46:22:18	6.992	V2683-01
 	transect	Mesomyaria	802.13	2674	 	36.75223	-122.20651	1799951	0.36	2005-06-08 18:02:20.0	Ventana	34.488	00:46:52:23	4.345	V2674-01
 	transect	Mesomyaria	 	2669	 	 	 	1737680	 	2005-05-25 13:56:47.0	Ventana	 	03:17:35:03	 	V2669-04
 	ascend	Mysidae	890.21	2682	 	36.698257	-122.05841	1723214	0.34	2005-07-08 20:15:06.0	Ventana	34.494	04:07:15:25	4.291	V2682-05
 	transect	Sergestes similis	300.43	2681	 	36.696815	-122.05237	2492461	1.23	2005-07-07 17:25:32.0	Ventana	34.234	00:56:39:17	7.391	V2681-01HD
 	transect	Brisaster	1000.36	2669	 	36.73158	-122.24304	1733767	0.41	2005-05-25 19:44:42.0	Ventana	34.512	02:06:13:28	4.075	V2669-03
 	transect	Psolus squamatus	 	2687	 	 	 	1807657	 	2005-07-13 17:21:13.0	Ventana	 	00:48:06:00	 	V2687-01
 	transect	molt	100.49	2681	 	36.699783	-122.05426	2489757	2.12	2005-07-07 16:49:49.0	Ventana	34.067	00:20:58:03	9.159	V2681-01HD
 	ascend	Siphonophora	255.97	2681	 	36.697968	-122.05501	1719255	1.46	2005-07-07 21:26:55.333	Ventana	34.225	04:55:13:19	7.984	V2681-05
 	transect	Mesomyaria	1000.18	2669	 	36.731796	-122.244675	1734427	0.4	2005-05-25 19:54:30.0	Ventana	34.508	02:16:01:29	4.09	V2669-03
 	cruise	Sebastolobus	1209.18	2683	 	36.70695	-122.04762	1757665	0.72	2005-07-11 20:14:32.0	Ventana	34.574	03:48:53:26	3.352	V2683-04
 	ascend	Chaetognatha	352.66	2693	 	36.693893	-122.06106	1758897	1.24	2005-07-25 21:04:00.0	Ventana	34.235	03:28:33:04	7.379	V2693-04
 	transect	Glyptocephalus zachirus	 	2687	 	 	 	1811570	 	2005-07-13 20:16:09.0	Ventana	 	03:41:08:14	 	V2687-04
 	descend	Copepoda	1130.23	2683	 	36.705116	-122.048904	1757485	0.62	2005-07-11 19:31:57.0	Ventana	34.55	03:12:18:09	3.612	V2683-03
 	transect	Stomphia	999.53	2669	 	36.731064	-122.23507	1684255	0.45	2005-05-25 18:50:43.0	Ventana	34.521	01:12:43:16	3.922	V2669-02
 	descend	Dosidicus gigas	471.38	2681	 	36.698105	-122.05389	1715342	0.51	2005-07-07 17:52:52.833	Ventana	34.326	01:23:15:21	6.135	V2681-02
 	cruise	Ceriantharia sp. 1	294.71	2688	 	36.808865	-122.020325	1677864	1.37	2005-07-14 18:14:08.0	Ventana	34.216	01:59:49:12	7.878	V2688-02
 	descend	Copepoda	259.93	2682	 	36.699795	-122.06083	1720007	1.38	2005-07-08 16:26:22.0	Ventana	34.23	00:20:27:03	7.854	V2682-01
 	ascend	Copepoda	1172.79	2682	 	36.698277	-122.057495	1722462	0.65	2005-07-08 19:53:24.0	Ventana	34.564	03:45:59:11	3.449	V2682-04
 	descend	Sergestes similis	 	2693	 	 	 	1759446	 	2005-07-25 16:45:20.0	Ventana	 	00:23:54:16	 	V2693-01
 	transect	Lycenchelys camchatica	1000.36	2669	 	36.731934	-122.24643	1735696	0.41	2005-05-25 20:08:07.0	Ventana	34.51	02:29:37:11	4.064	V2669-03
 	transect	Anoplopoma fimbria	 	2687	 	 	 	1812322	 	2005-07-13 20:32:07.0	Ventana	 	03:57:05:08	 	V2687-04
 	descend	Nanomia	194.48	2681	 	36.69828	-122.05329	1713547	1.98	2005-07-07 17:03:34.0	Ventana	34.164	00:34:43:00	8.305	V2681-01
 	transect	Phyllospadix	800.72	2674	 	36.75256	-122.20169	1799088	0.34	2005-06-08 17:36:57.0	Ventana	34.479	00:21:30:14	4.445	V2674-01
 	descend	Myctophidae	734.39	2681	 	36.69492	-122.05057	1716228	0.3	2005-07-07 18:49:54.067	Ventana	34.446	02:19:37:23	4.793	V2681-03
 	ascend	Copepoda	764.08	2681	 	36.698677	-122.056046	1717506	0.29	2005-07-07 20:10:58.327	Ventana	34.451	03:39:59:21	4.792	V2681-04
 	descend	Chaetognatha	332.13	2693	 	36.69712	-122.06003	1758560	1.29	2005-07-25 19:57:24.0	Ventana	34.236	02:36:58:06	7.585	V2693-03
 	ascend	Nanomia	427.44	2683	 	36.70416	-122.05058	1758034	0.88	2005-07-11 21:19:09.0	Ventana	34.265	04:52:00:29	6.843	V2683-05
 	transect	Phyllospadix	801.1	2674	 	36.752155	-122.20811	1800703	0.35	2005-06-08 18:10:10.0	Ventana	34.491	00:54:41:18	4.331	V2674-01
 	transect	Mesomyaria	798.58	2674	 	36.75174	-122.21261	1801220	0.35	2005-06-08 18:30:09.0	Ventana	34.487	01:14:13:07	4.334	V2674-02
 	descend	Melanostigma pammelas	681.96	2682	 	36.698658	-122.05996	1721419	0.28	2005-07-08 18:12:50.0	Ventana	34.414	02:05:53:23	5.175	V2682-03
 	transect	Psolus squamatus	 	2687	 	 	 	1810684	 	2005-07-13 19:28:14.0	Ventana	 	02:53:57:26	 	V2687-03
 	transect	Phyllospadix	199.49	2696	 	36.804054	-122.1257	1813365	1.52	2005-08-01 17:39:55.0	Ventana	34.21	01:07:49:01	8.665	V2696-02
 	descend	Poeobius meseres	532.43	2682	 	36.69861	-122.05978	1720870	0.37	2005-07-08 18:03:01.0	Ventana	34.36	01:56:30:10	5.794	V2682-02
 	cruise	Macrouridae	999.2	2679	http://search.mbari.org/ARCHIVE/frameGrabs/Ventana/images/2679/00_03_17_13.jpg	36.68986	-122.1656	20004246	0.42	2005-06-16 17:31:54.0	Ventana	34.512	00:03:17:13	4.119	V2679-01
 	transect	Mesomyaria	999.85	2669	 	36.730633	-122.22935	1651073	0.45	2005-05-25 18:08:51.0	Ventana	34.522	00:31:18:29	3.907	V2669-01
 	transect	Mesomyaria	999.91	2669	 	36.731087	-122.23905	1689100	0.43	2005-05-25 19:21:43.0	Ventana	34.516	01:43:41:08	3.967	V2669-02
 	cruise	Macrocystis	507.65	2688	http://search.mbari.org/ARCHIVE/frameGrabs/Ventana/images/2688/01_08_03_12.jpg	36.801014	-122.018684	20005132	0.68	2005-07-14 17:22:19.0	Ventana	34.307	01:08:03:12	6.433	V2688-02
 	ascend	Cydippida	291.17	2693	 	36.691452	-122.06214	1759077	1.34	2005-07-25 21:19:51.0	Ventana	34.263	03:44:23:16	7.908	V2693-04
 	transect	Phyllospadix	801.09	2674	 	36.751957	-122.20926	1800883	0.36	2005-06-08 18:15:42.0	Ventana	34.49	01:00:13:18	4.318	V2674-01
 	transect	Microstomus pacificus	199.88	2696	 	36.804424	-122.12643	1813448	1.51	2005-08-01 17:47:23.0	Ventana	34.21	01:15:16:25	8.667	V2696-02
 	transect	Ophiuroidea	999.07	2669	 	36.73139	-122.23609	1684578	0.44	2005-05-25 18:58:18.0	Ventana	34.522	01:20:17:22	3.94	V2669-02
 	transect	Pennatulacea sp.1	602.12	2680	 	36.79176	-122.23299	1806877	0.36	2005-06-27 20:30:29.0	Ventana	34.378	03:09:04:23	5.591	V2680-03
 	transect	Phyllospadix	599.77	2680	 	36.778152	-122.22335	1804367	0.36	2005-06-27 17:54:55.0	Ventana	34.378	00:35:01:29	5.593	V2680-01
 	transect	Chaetognatha	400.79	2681	 	36.696236	-122.0517	2492978	0.79	2005-07-07 17:42:57.0	Ventana	34.277	01:13:22:01	6.654	V2681-02HD
 	transect	Brisaster	1000.38	2669	 	36.731895	-122.24699	1735779	0.41	2005-05-25 20:11:21.0	Ventana	34.51	02:32:51:00	4.066	V2669-03
 	transect	Actiniaria sp. 3	 	2687	http://search.mbari.org/ARCHIVE/frameGrabs/Ventana/images/2687/00_41_09_03.jpg	 	 	1807537	 	2005-07-13 17:14:15.0	Ventana	 	00:41:09:03	 	V2687-01
 	transect	Calycophorae	300.39	2681	 	36.697247	-122.05274	2492318	1.23	2005-07-07 17:24:04.0	Ventana	34.234	00:55:09:18	7.393	V2681-01HD
 	ascend	Nanomia	258.17	2681	 	36.697838	-122.05522	1719375	 	2005-07-07 21:29:59.0	Ventana	 	05:03:01:20	 	V2681-05
 	transect	Sebastolobus altivelis	799.94	2674	 	36.751297	-122.21561	1803361	0.35	2005-06-08 18:46:47.0	Ventana	34.489	01:30:50:20	4.354	V2674-02
 	descend	Aegina	965.27	2683	 	36.703968	-122.04855	1757342	0.42	2005-07-11 19:12:09.0	Ventana	34.516	02:52:31:05	4.04	V2683-03
 	ascend	Calycophorae	253.26	2693	 	36.69137	-122.06235	1759100	1.43	2005-07-25 21:21:53.0	Ventana	34.246	03:46:24:24	8.47	V2693-04
 	transect	Phyllospadix	802.04	2674	 	36.751892	-122.20991	1800966	0.35	2005-06-08 18:19:43.0	Ventana	34.489	01:03:47:21	4.328	V2674-02
 	descend	Solmissus	463.48	2682	 	36.698498	-122.05959	1720787	0.53	2005-07-08 17:55:48.0	Ventana	34.328	01:49:19:02	6.21	V2682-02
 	transect	Neptunea amianta	803.79	2674	 	36.750725	-122.2206	1803707	0.34	2005-06-08 19:09:30.0	Ventana	34.483	01:53:32:10	4.396	V2674-02
 	transect	molt	100.48	2681	 	36.69872	-122.05357	2489900	2.14	2005-07-07 16:52:44.0	Ventana	34.067	00:23:52:22	9.142	V2681-01HD
 	transect	Poeobius meseres	600.56	2681	 	36.69636	-122.05198	2493730	0.3	2005-07-07 18:21:43.0	Ventana	34.388	01:52:04:28	5.482	V2681-02HD
 	transect	Phyllospadix	1000.01	2669	 	36.73101	-122.23127	1683595	0.45	2005-05-25 18:25:33.0	Ventana	34.52	00:47:59:17	3.915	V2669-01
 	transect	Phyllospadix	999.42	2669	 	36.73271	-122.25128	1737191	0.4	2005-05-25 20:40:41.0	Ventana	34.509	03:01:29:06	4.079	V2669-04
 	transect	Prayidae	300.44	2681	 	36.698296	-122.05352	2491972	1.24	2005-07-07 17:20:26.0	Ventana	34.231	00:51:34:13	7.426	V2681-01HD
 	transect	Psolus squamatus	399.69	2687	 	36.789352	-122.12487	1809618	1.16	2005-07-13 18:26:01.0	Ventana	34.239	01:52:20:18	7.325	V2687-02
 	transect	Appendicularia	1001.01	2681	 	36.69569	-122.051765	2498635	0.48	2005-07-07 19:26:14.0	Ventana	34.532	02:55:55:02	3.848	V2681-03HD
 	transect	Chionoecetes tanneri	800.93	2674	 	36.752537	-122.202515	1799208	0.35	2005-06-08 17:41:20.0	Ventana	34.486	00:25:53:12	4.374	V2674-01
 	transect	Mesomyaria	998.27	2669	 	36.730534	-122.22841	1649375	0.45	2005-05-25 18:03:13.0	Ventana	34.522	00:25:41:09	3.907	V2669-01
 	cruise	Sebastolobus	381.58	2690	http://search.mbari.org/ARCHIVE/frameGrabs/Ventana/images/2690/01_22_51_01.jpg	36.79012	-121.88719	1670338	0.96	2005-07-18 20:07:46.0	Ventana	34.264	01:22:51:01	6.994	V2690-01
 	transect	Ceriantharia sp. 1	600.51	2680	 	36.783882	-122.229324	1805465	0.35	2005-06-27 19:11:54.0	Ventana	34.378	01:50:57:07	5.596	V2680-02
 	ascend	Appendicularia	843.35	2681	 	36.698612	-122.05593	1717386	0.32	2005-07-07 19:55:57.6	Ventana	34.486	03:25:00:12	4.396	V2681-04
 	transect	Brisaster	1000.53	2669	 	36.732437	-122.249954	1736785	0.41	2005-05-25 20:32:38.0	Ventana	34.51	02:54:07:05	4.065	V2669-03
 	cruise	Sebastes	470.55	2676	 	36.802402	-122.02937	1676272	0.56	2005-06-14 16:33:31.0	Ventana	34.337	00:17:40:02	6.157	V2676-01
 	ascend	Appendicularia	262.6	2681	 	36.699028	-122.055725	1718715	1.43	2005-07-07 21:16:47.55	Ventana	34.231	04:45:06:18	7.967	V2681-05
 	transect	Sebastolobus	1000.48	2669	 	36.73208	-122.24761	1736125	0.4	2005-05-25 20:16:22.0	Ventana	34.508	02:37:51:12	4.077	V2669-03
 	transect	Phyllospadix	800.84	2674	 	36.752544	-122.20028	1774069	0.3	2005-06-08 17:28:33.0	Ventana	34.454	00:13:07:05	4.605	V2674-01
 	descend	Euphausiacea	180.96	2683	 	36.701042	-122.051155	1756336	1.6	2005-07-11 16:42:00.0	Ventana	34.194	00:29:41:00	8.684	V2683-01
 	transect	Chionoecetes tanneri	598.58	2680	 	36.78056	-122.225555	1804773	0.35	2005-06-27 18:24:51.0	Ventana	34.383	01:03:57:15	5.553	V2680-02
 	stationary	Merluccius productus	502.08	2694	 	36.784573	-122.20047	1676595	0.8	2005-07-27 19:15:38.0	Ventana	34.278	01:58:18:00	6.579	V2694-02
 	transect	Mesomyaria	999.26	2669	 	36.730797	-122.22956	1651133	0.45	2005-05-25 18:11:06.0	Ventana	34.523	00:33:33:06	3.907	V2669-01
 	transect	Mesomyaria	999.31	2669	 	36.731056	-122.23496	1684232	0.45	2005-05-25 18:50:04.0	Ventana	34.521	01:12:04:22	3.92	V2669-02
 	cruise	Mediaster	90.3	2688	 	36.816437	-122.01609	1679359	2.01	2005-07-14 20:13:28.0	Ventana	34.087	03:58:13:12	8.921	V2688-04
 	transect	Sebastolobus altivelis	801.67	2674	 	36.75236	-122.2056	1799808	0.36	2005-06-08 17:57:45.0	Ventana	34.487	00:42:17:15	4.345	V2674-01
 	transect	Chaetognatha	200.47	2681	 	36.69828	-122.05329	2490214	1.7	2005-07-07 17:05:54.0	Ventana	34.198	00:37:01:20	8.363	V2681-01HD
 	ascend	Appendicularia	258.75	2683	 	36.703083	-122.05067	1758094	1.51	2005-07-11 21:26:27.0	Ventana	34.211	04:59:18:16	7.987	V2683-05
 	transect	lobata	800.89	2681	 	36.69609	-122.05205	2498229	0.31	2005-07-07 18:58:50.0	Ventana	34.475	02:28:32:11	4.497	V2681-03HD
 	descend	Nanomia	 	2693	 	 	 	1759423	 	2005-07-25 16:44:16.0	Ventana	 	00:22:49:28	 	V2693-01
 	transect	Mediaster	 	2687	 	 	 	1812788	 	2005-07-13 20:57:30.0	Ventana	 	04:21:59:25	 	V2687-05
 	transect	Euphausia	200.42	2681	 	36.69828	-122.0533	2490906	1.7	2005-07-07 17:09:37.0	Ventana	34.197	00:40:46:07	8.33	V2681-01HD
 	transect	Mediaster	 	2687	 	 	 	1807131	 	2005-07-13 17:01:17.0	Ventana	 	00:28:10:24	 	V2687-01
 	transect	Sebastes diploproa	399.87	2687	 	36.788124	-122.12173	1809295	1.14	2005-07-13 17:38:38.0	Ventana	34.242	01:05:00:10	7.287	V2687-02
 	transect	Phyllospadix	799.59	2674	 	36.752693	-122.20084	1774152	0.3	2005-06-08 17:32:49.0	Ventana	34.464	00:17:23:14	4.607	V2674-01
 	transect	Phyllospadix	800.77	2674	 	36.752563	-122.20203	1799148	0.35	2005-06-08 17:38:53.0	Ventana	34.497	00:23:26:22	4.392	V2674-01
 	transect	Psolus squamatus	 	2687	 	 	 	1810361	 	2005-07-13 19:16:22.0	Ventana	 	02:42:06:09	 	V2687-03
 	transect	chuniphyes	901.05	2681	 	36.696793	-122.052925	2498289	0.39	2005-07-07 19:07:23.0	Ventana	34.506	02:37:03:27	4.159	V2681-03HD
 	transect	Mesomyaria	999.97	2669	 	36.731033	-122.23955	1689160	0.41	2005-05-25 19:24:25.0	Ventana	34.51	01:46:23:24	4.061	V2669-02
 	transect	Rathbunaster californicus	196.18	2696	 	36.802677	-122.12171	1813042	1.55	2005-08-01 16:59:30.0	Ventana	34.2	00:27:49:19	8.601	V2696-01
 	transect	Rathbunaster californicus	203.9	2696	 	36.807564	-122.1312	1813854	1.46	2005-08-01 18:43:20.0	Ventana	34.225	02:10:25:13	8.639	V2696-03
 	transect	Psolus squamatus	 	2687	 	 	 	1808866	 	2005-07-13 17:30:42.0	Ventana	 	00:57:34:00	 	V2687-01
 	transect	Nanomia bijuga	200.41	2681	 	36.698284	-122.05331	2490966	1.7	2005-07-07 17:10:15.0	Ventana	34.194	00:41:24:04	8.329	V2681-01HD
 	transect	Mediaster	399.51	2687	 	36.789413	-122.12559	1809701	1.13	2005-07-13 18:37:43.0	Ventana	34.242	02:04:01:19	7.268	V2687-02
 	transect	Nanomia bijuga	200.43	2681	 	36.69828	-122.05329	2490154	1.7	2005-07-07 17:05:12.0	Ventana	34.197	00:36:20:24	8.358	V2681-01HD
 	transect	Mesomyaria	1000.3	2669	 	36.73131	-122.24153	1689820	0.4	2005-05-25 19:36:56.0	Ventana	34.507	01:58:53:08	4.091	V2669-02
 	descend	Copepoda	613.41	2683	 	36.70198	-122.04901	1757028	0.34	2005-07-11 17:49:56.0	Ventana	34.371	01:34:03:11	5.722	V2683-02
 	cruise	Macrouridae	1204.95	2683	 	36.707138	-122.047646	1757688	0.72	2005-07-11 20:19:47.0	Ventana	34.573	03:54:10:04	3.355	V2683-04
 	transect	Mesomyaria	998.85	2669	 	36.73094	-122.22998	1651193	0.45	2005-05-25 18:13:55.0	Ventana	34.521	00:36:22:17	3.909	V2669-01
 	ascend	Appendicularia	364.71	2681	 	36.699368	-122.054924	1718046	1.0	2005-07-07 20:51:18.333	Ventana	34.263	04:19:39:10	7.11	V2681-05
 	transect	Phyllospadix	203.17	2696	 	36.80667	-122.13025	1813794	1.48	2005-08-01 18:31:33.0	Ventana	34.215	01:59:23:20	8.649	V2696-02
 	descend	Appendicularia	467.26	2683	 	36.701626	-122.049355	1756742	0.77	2005-07-11 17:12:31.0	Ventana	34.288	01:00:09:08	6.648	V2683-01
 	transect	Mesomyaria	1000.43	2669	 	36.732143	-122.248085	1736185	0.41	2005-05-25 20:19:35.0	Ventana	34.51	02:41:04:00	4.068	V2669-03
 	ascend	Poeobius meseres	1008.18	2682	 	36.69773	-122.05821	1722891	0.46	2005-07-08 20:05:25.0	Ventana	34.523	03:58:00:16	3.93	V2682-04
 	descend	Solmissus	288.9	2693	 	36.697865	-122.061295	1758440	1.39	2005-07-25 19:37:06.0	Ventana	34.234	02:16:42:15	7.926	V2693-03
 	ascend	Melanostigma	664.19	2681	 	36.698772	-122.05418	1717649	0.29	2005-07-07 20:26:07.5	Ventana	34.408	03:55:08:14	5.224	V2681-04
 	transect	molt	100.58	2681	 	36.69983	-122.05429	2489554	2.13	2005-07-07 16:44:42.0	Ventana	34.068	00:15:51:23	9.145	V2681-01HD
 	transect	Rathbunaster californicus	200.34	2696	 	36.804718	-122.12719	1813508	1.51	2005-08-01 17:54:50.0	Ventana	34.211	01:22:42:17	8.671	V2696-02
 	ascend	Praya	 	2683	 	 	 	1758154	 	 	Ventana	 	05:06:29:20	 	V2683-05
 	ascend	Leuroglossus stilbius	599.41	2681	 	36.698936	-122.05425	1717700	0.32	2005-07-07 20:29:57.753	Ventana	34.38	03:58:58:14	5.58	V2681-04
 	transect	Allocentrotus fragilis	399.86	2687	 	36.78811	-122.12162	1809212	1.13	2005-07-13 17:37:18.0	Ventana	34.243	01:03:40:16	7.262	V2687-02
 	transect	Mediaster	 	2687	 	 	 	1812728	 	2005-07-13 20:55:03.0	Ventana	 	04:19:33:14	 	V2687-05
 	descend	Copepoda	413.44	2682	 	36.69822	-122.059814	1720727	0.75	2005-07-08 17:39:18.0	Ventana	34.273	01:32:48:21	6.567	V2682-02
 	descend	Mitrocoma	153.1	2683	 	36.700657	-122.05165	1756276	1.69	2005-07-11 16:26:09.0	Ventana	34.175	00:13:51:01	8.813	V2683-01
 	transect	Halipteris californica	598.33	2680	 	36.782204	-122.227325	1805119	0.35	2005-06-27 18:46:46.0	Ventana	34.381	01:25:51:15	5.582	V2680-02
 	transect	Laminariales	802.27	2674	 	36.75179	-122.2107	1801026	0.35	2005-06-08 18:22:27.0	Ventana	34.49	01:06:31:28	4.33	V2674-02
 	transect	Mediaster	 	2687	 	 	 	1812442	 	2005-07-13 20:38:56.0	Ventana	 	04:03:54:04	 	V2687-04
 	transect	Appendicularia	200.37	2681	 	36.698315	-122.05341	2491252	1.66	2005-07-07 17:13:10.0	Ventana	34.2	00:44:17:26	8.341	V2681-01HD
 	transect	Psolus squamatus	 	2687	 	 	 	1808949	 	2005-07-13 17:32:33.0	Ventana	 	00:59:25:20	 	V2687-01
 	transect	Psolus squamatus	 	2687	 	 	 	1811113	 	2005-07-13 19:53:47.0	Ventana	 	03:18:47:29	 	V2687-04
 	transect	Poeobius meseres	1001.04	2681	 	36.69515	-122.05107	2498575	0.48	2005-07-07 19:23:17.0	Ventana	34.53	02:52:57:15	3.858	V2681-03HD
 	ascend	Appendicularia	414.09	2681	 	36.699226	-122.05434	1717963	0.8	2005-07-07 20:46:16.467	Ventana	34.276	04:14:37:23	6.674	V2681-05
 	descend	Calycophorae	294.65	2682	 	36.69923	-122.06059	1720127	1.21	2005-07-08 16:55:02.0	Ventana	34.24	00:49:05:14	7.444	V2682-01
 	transect	Gastropoda sp.2	1000.13	2669	 	36.73185	-122.245316	1735373	0.4	2005-05-25 19:59:12.0	Ventana	34.506	02:20:42:17	4.095	V2669-03
 	transect	Porifera	399.7	2687	 	36.78919	-122.1243	1809558	1.18	2005-07-13 18:17:20.0	Ventana	34.239	01:43:40:03	7.362	V2687-02
 	transect	Appendicularia	500.56	2681	 	36.698032	-122.05379	2493241	0.44	2005-07-07 17:54:33.0	Ventana	34.345	01:24:55:24	6.025	V2681-02HD
 	transect	Mesomyaria	998.8	2669	 	36.73285	-122.25187	1737251	0.4	2005-05-25 20:44:12.0	Ventana	34.509	03:05:01:13	4.075	V2669-04
 	transect	Porifera sp. 1	 	2687	 	 	 	1809009	 	2005-07-13 17:33:27.0	Ventana	 	01:00:19:24	 	V2687-01
 	transect	Mesomyaria	999.9	2669	 	36.731102	-122.23532	1684315	0.45	2005-05-25 18:53:00.0	Ventana	34.522	01:15:00:06	3.922	V2669-02
 	transect	Mesomyaria	1000.28	2669	 	36.73128	-122.24135	1689769	0.4	2005-05-25 19:35:53.0	Ventana	34.507	01:57:50:18	4.091	V2669-02
 	ascend	Copepoda	333.25	2693	 	36.69227	-122.06183	1759017	1.28	2005-07-25 21:15:31.0	Ventana	34.237	03:40:04:10	7.548	V2693-04
 	transect	Psolus squamatus	 	2687	 	 	 	1810218	 	2005-07-13 19:09:40.0	Ventana	 	02:35:25:13	 	V2687-03
 	ascend	Poeobius meseres	946.95	2681	 	36.697437	-122.053856	1716897	0.41	2005-07-07 19:41:31.867	Ventana	34.515	03:10:35:02	4.061	V2681-04
 	ascend	Siphonophora	258.17	2681	 	36.697838	-122.05522	1719315	 	2005-07-07 21:29:59.0	Ventana	 	05:00:27:23	 	V2681-05
 	transect	Psolus squamatus	 	2687	 	 	 	1810015	 	2005-07-13 18:51:07.0	Ventana	 	02:16:52:07	 	V2687-03
 	ascend	Chuniphyes	784.4	2681	 	36.69888	-122.05646	1717446	0.27	2005-07-07 20:04:10.567	Ventana	34.458	03:33:12:11	4.701	V2681-04
 	transect	Brisaster	1000.09	2669	 	36.731133	-122.24012	1689220	0.41	2005-05-25 19:28:05.0	Ventana	34.51	01:50:02:20	4.061	V2669-02
 	cruise	Rathbunaster californicus	447.1	2676	 	36.803066	-122.02924	1676332	0.61	2005-06-14 16:38:15.0	Ventana	34.322	00:22:23:13	6.33	V2676-01
 	transect	Mesomyaria	999.92	2669	 	36.730984	-122.233086	1683858	0.45	2005-05-25 18:37:14.0	Ventana	34.522	00:59:39:15	3.912	V2669-01
 	stationary	Merluccius productus	502.34	2694	 	36.784576	-122.20044	1676646	0.86	2005-07-27 20:15:45.0	Ventana	34.272	02:47:53:24	6.691	V2694-03
 	transect	molt	100.5	2681	 	36.699146	-122.053856	2489840	2.13	2005-07-07 16:51:36.0	Ventana	34.068	00:22:45:19	9.141	V2681-01HD
 	transect	Ophiuroidea	998.36	2669	 	36.73116	-122.23081	1683452	0.45	2005-05-25 18:21:11.0	Ventana	34.521	00:43:38:11	3.913	V2669-01
 	transect	Ophiuroidea	1000.11	2669	 	36.73167	-122.24381	1733961	0.41	2005-05-25 19:49:03.0	Ventana	34.511	02:10:33:26	4.066	V2669-03
 	transect	Mesomyaria	800.3	2674	 	36.75208	-122.20887	1800823	0.35	2005-06-08 18:13:46.0	Ventana	34.488	00:58:17:09	4.33	V2674-01
 	transect	Mesomyaria	999.71	2669	 	36.730976	-122.23383	1683969	0.45	2005-05-25 18:40:43.0	Ventana	34.522	01:02:44:15	3.913	V2669-02
 	cruise	Glyptocephalus zachirus	393.82	2688	 	36.806854	-122.01954	1677744	1.02	2005-07-14 17:52:12.133	Ventana	34.253	01:37:55:07	7.12	V2688-02
 	transect	Euplexaura	 	2687	 	 	 	1808603	 	2005-07-13 17:25:04.0	Ventana	 	00:51:56:20	 	V2687-01
 	descend	Copepoda	1019.56	2683	 	36.704617	-122.04962	1757402	0.44	2005-07-11 19:23:20.0	Ventana	34.519	03:03:41:03	3.979	V2683-03
 	transect	Appendicularia	400.81	2681	 	36.695915	-122.05133	2492927	0.79	2005-07-07 17:41:31.0	Ventana	34.276	01:11:55:10	6.665	V2681-02HD
 	transect	Mediaster	 	2687	 	 	 	1811316	 	2005-07-13 20:06:53.0	Ventana	 	03:31:52:09	 	V2687-04
 	cruise	Pennatulacea	1001.54	2679	 	36.68986	-122.1656	1824347	0.42	2005-06-16 17:30:55.0	Ventana	34.513	00:02:17:14	4.11	V2679-01
 	ascend	Poeobius meseres	625.77	2683	 	36.704914	-122.050354	1757951	0.3	2005-07-11 21:10:47.0	Ventana	34.398	04:43:38:13	5.462	V2683-05
 	transect	Psolus squamatus	399.84	2687	 	36.788048	-122.121544	1809152	1.13	2005-07-13 17:36:10.0	Ventana	34.242	01:02:32:10	7.271	V2687-02
 	transect	Mesomyaria	999.24	2669	 	36.731377	-122.23601	1684518	0.44	2005-05-25 18:57:43.0	Ventana	34.52	01:19:43:02	3.938	V2669-02
 	transect	Phyllospadix	798.39	2674	 	36.751675	-122.21348	1801280	0.35	2005-06-08 18:34:48.0	Ventana	34.488	01:18:52:12	4.353	V2674-02
 	transect	Mesomyaria	800.38	2674	 	36.751183	-122.21676	1803444	0.35	2005-06-08 18:52:12.0	Ventana	34.486	01:36:15:07	4.366	V2674-02
 	ascend	Appendicularia	278.44	2681	 	36.699722	-122.055	1718309	1.36	2005-07-07 21:03:20.5	Ventana	34.231	04:31:41:07	7.771	V2681-05
 	transect	Stomphia	999.73	2669	 	36.73263	-122.251015	1737048	0.4	2005-05-25 20:38:53.0	Ventana	34.51	03:00:22:00	4.07	V2669-03
 	transect	molt	100.57	2681	 	36.69983	-122.05429	2489494	2.13	2005-07-07 16:43:01.0	Ventana	34.068	00:14:11:20	9.152	V2681-01HD
 	transect	Mesomyaria	998.21	2669	 	36.732944	-122.25222	1737394	0.41	2005-05-25 20:46:35.0	Ventana	34.508	03:07:23:11	4.075	V2669-04
 	descend	Lensia	317.23	2693	 	36.69752	-122.06067	1758500	1.3	2005-07-25 19:41:21.0	Ventana	34.236	02:20:55:13	7.603	V2693-03
 	transect	Lycenchelys camchatica	801.61	2674	 	36.75223	-122.20754	1800071	0.38	2005-06-08 18:07:17.0	Ventana	34.49	00:51:48:21	4.327	V2674-01
 	ascend	Copepoda	706.39	2681	 	36.69872	-122.05498	1717589	0.29	2005-07-07 20:20:10.2	Ventana	34.426	03:49:11:16	5.064	V2681-04
 	transect	Phyllospadix	 	2687	 	 	 	1811833	 	2005-07-13 20:26:43.0	Ventana	 	03:51:41:19	 	V2687-04
 	descend	Poeobius meseres	1183.77	2682	 	36.698242	-122.057846	1722402	0.66	2005-07-08 19:41:18.0	Ventana	34.569	03:33:54:28	3.416	V2682-04
 	ascend	Calycophorae	554.23	2682	 	36.698296	-122.0627	1723611	0.39	2005-07-08 21:08:54.0	Ventana	34.357	05:00:36:12	5.864	V2682-06
 	transect	Pennatulacea sp.1	599.39	2680	 	36.779415	-122.224495	1804510	0.36	2005-06-27 18:09:39.0	Ventana	34.378	00:49:45:19	5.602	V2680-01
 	transect	Psolus squamatus	 	2687	 	 	 	1811173	 	2005-07-13 19:59:16.0	Ventana	 	03:24:16:15	 	V2687-04
 	descend	Euphotic zone	146.94	2685	 	36.793503	-121.88327	1669729	2.01	2005-07-12 20:11:26.0	Ventana	34.102	00:02:25:28	8.898	V2685-01
 	transect	Psolus squamatus	 	2687	 	 	 	1807191	 	2005-07-13 17:03:15.0	Ventana	 	00:30:09:03	 	V2687-01
 	transect	Sebastolobus	 	2687	 	 	 	1812382	 	2005-07-13 20:35:49.0	Ventana	 	04:00:47:06	 	V2687-04
 	ascend	Cydippida	258.17	2681	 	36.697838	-122.05522	1719518	 	2005-07-07 21:29:59.0	Ventana	 	05:09:41:14	 	V2681-05
 	cruise	Anthomastus ritteri	461.99	2688	 	36.802666	-122.01823	1677601	0.85	2005-07-14 17:31:37.0	Ventana	34.279	01:17:21:19	6.791	V2688-02
 	transect	Ophiuroidea	1000.37	2669	 	36.731533	-122.24269	1694522	0.4	2005-05-25 19:42:53.0	Ventana	34.507	02:04:50:19	4.093	V2669-02
 	descend	Aegina	585.74	2681	 	36.69569	-122.05106	1715628	0.33	2005-07-07 18:07:21.2	Ventana	34.38	01:37:42:06	5.584	V2681-02
 	ascend	Nanomia	207.42	2693	 	36.691055	-122.06261	1759160	1.78	2005-07-25 21:24:58.0	Ventana	34.2	03:49:30:24	8.745	V2693-04
 	transect	phialidium	500.59	2681	 	36.69663	-122.052216	2493587	0.44	2005-07-07 18:00:35.0	Ventana	34.348	01:30:57:08	6.013	V2681-02HD
 	transect	Gastropoda sp.2	1000.16	2669	 	36.73111	-122.23865	1694725	0.43	2005-05-25 19:19:05.0	Ventana	34.525	01:41:03:24	3.98	V2669-02
 	ascend	Poeobius meseres	602.48	2682	 	36.69866	-122.061424	1723500	0.34	2005-07-08 20:55:43.0	Ventana	34.374	04:47:50:22	5.643	V2682-05
 	transect	molt	100.51	2681	 	36.699825	-122.05429	2489697	2.13	2005-07-07 16:48:07.0	Ventana	34.067	00:19:17:10	9.15	V2681-01HD
 	transect	Gastropoda sp.2	997.63	2669	 	36.731148	-122.23095	1695071	0.45	2005-05-25 18:22:13.0	Ventana	34.52	00:44:39:23	3.924	V2669-01
 	transect	Ceriantharia sp. 1	601.19	2680	 	36.776913	-122.22217	1804164	0.36	2005-06-27 17:39:45.0	Ventana	34.379	00:19:53:16	5.577	V2680-01
 	transect	Appendicularia	400.74	2681	 	36.696674	-122.05223	2493038	0.79	2005-07-07 17:44:54.0	Ventana	34.278	01:15:18:20	6.655	V2681-02HD
 	transect	Porifera sp. 1	 	2687	 	 	 	1810421	 	2005-07-13 19:17:36.0	Ventana	 	02:43:20:11	 	V2687-03
 	descend	Appendicularia	436.95	2683	 	36.70149	-122.04947	1756682	0.83	2005-07-11 17:07:30.0	Ventana	34.276	00:55:08:06	6.761	V2683-01
 	cruise	Asteroidea	223.78	2688	 	36.81009	-122.020676	1677947	1.73	2005-07-14 18:32:45.0	Ventana	34.154	02:18:00:18	8.654	V2688-03
 	transect	Sebastolobus altivelis	802.34	2674	 	36.75231	-122.205925	1799868	0.36	2005-06-08 17:59:44.0	Ventana	34.49	00:44:16:07	4.332	V2674-01
 	transect	Psolus squamatus	399.88	2687	http://search.mbari.org/ARCHIVE/frameGrabs/Ventana/images/2687/01_06_16_14.jpg	36.788166	-122.121796	1809355	1.13	2005-07-13 17:39:54.0	Ventana	34.252	01:06:16:14	7.29	V2687-02
 	transect	Neptunea amianta	800.05	2674	 	36.75176	-122.212	1801169	0.35	2005-06-08 18:28:09.0	Ventana	34.487	01:12:13:11	4.337	V2674-02
 	transect	Sebastolobus altivelis	801.73	2674	 	36.750908	-122.219795	1803647	0.34	2005-06-08 19:05:40.0	Ventana	34.484	01:49:42:15	4.37	V2674-02
 	transect	Calliostoma platinum	 	2687	 	 	 	1808806	 	2005-07-13 17:29:48.0	Ventana	 	00:56:41:01	 	V2687-01
 	cruise	Pleuronectiformes	584.63	2688	 	36.796825	-122.02004	1677398	0.48	2005-07-14 16:42:07.0	Ventana	34.37	00:28:27:03	5.732	V2688-01
 	descend	Crustacea	1189.87	2682	 	36.69826	-122.05914	1722199	0.67	2005-07-08 19:15:28.0	Ventana	34.572	03:08:05:21	3.381	V2682-04
 	ascend	Copepoda	1167.57	2683	 	36.707737	-122.04883	1757748	0.7	2005-07-11 20:32:15.0	Ventana	34.57	04:06:36:18	3.4	V2683-04
 	ascend	Chaetognatha	336.62	2681	 	36.6994	-122.05527	1718106	1.14	2005-07-07 20:54:01.917	Ventana	34.245	04:22:22:07	7.285	V2681-05
 	transect	Mediaster	 	2687	 	 	 	1812585	 	2005-07-13 20:46:11.0	Ventana	 	04:10:42:04	 	V2687-05
 	descend	Calycophorae	878.08	2681	 	36.696945	-122.05317	1716491	0.35	2005-07-07 19:05:21.0	Ventana	34.498	02:35:03:07	4.247	V2681-03
 	transect	sinker	901.01	2681	 	36.69553	-122.05141	2498432	0.39	2005-07-07 19:13:12.0	Ventana	34.505	02:42:53:20	4.172	V2681-03HD
 	transect	Neptunea amianta	599.55	2680	 	36.782906	-122.2282	1805262	0.35	2005-06-27 19:01:15.0	Ventana	34.38	01:40:19:17	5.58	V2680-02
 	descend	Chuniphyes	895.84	2681	 	36.696926	-122.05312	1716500	0.38	2005-07-07 19:05:57.367	Ventana	34.502	02:35:40:02	4.189	V2681-03
 	transect	Appendicularia	500.55	2681	 	36.696796	-122.05239	2493573	0.44	2005-07-07 17:59:56.0	Ventana	34.346	01:30:18:25	6.019	V2681-02HD
 	ascend	Chaetognatha	371.0	2693	 	36.696167	-122.06087	1758643	1.2	2005-07-25 20:24:36.0	Ventana	34.232	03:04:08:01	7.162	V2693-03
 	ascend	Nanomia	157.13	2693	 	36.69071	-122.06299	1759257	1.91	2005-07-25 21:31:08.0	Ventana	34.116	03:55:38:20	9.023	V2693-04
 	transect	Ceriantharia sp. 2	997.52	2669	 	36.73061	-122.22698	1683323	0.45	2005-05-25 17:53:58.0	Ventana	34.521	00:16:27:07	3.909	V2669-01
 	transect	Ceriantharia sp. 2	999.71	2669	 	36.73267	-122.25105	1737057	0.41	2005-05-25 20:39:14.0	Ventana	34.509	03:00:41:29	4.069	V2669-03
 	cruise	Coryphaenoides acrolepis	 	2673	 	 	 	1668354	 	 	Ventana	 	00:16:43:14	 	V2673-01
 	ascend	Vitreosalpa gemini	412.18	2682	 	36.69781	-122.06246	1723731	0.84	2005-07-08 21:21:20.0	Ventana	34.27	05:13:00:10	6.699	V2682-06
 	transect	Bolinopsis	300.44	2681	 	36.696835	-122.05238	2492452	1.23	2005-07-07 17:25:28.0	Ventana	34.234	00:56:35:04	7.391	V2681-01HD
 	transect	Mesomyaria	999.58	2669	 	36.731323	-122.23592	1684444	0.44	2005-05-25 18:57:03.0	Ventana	34.52	01:19:02:22	3.936	V2669-02
 	transect	sinker	700.65	2681	 	36.697266	-122.05314	2497657	0.29	2005-07-07 18:38:40.0	Ventana	34.436	02:08:22:23	4.936	V2681-03HD
 	cruise	Laminariales	102.71	2688	http://search.mbari.org/ARCHIVE/frameGrabs/Ventana/images/2688/03_19_39_16.jpg	36.814163	-122.01735	1679239	1.98	2005-07-14 19:34:54.0	Ventana	34.089	03:19:39:16	8.911	V2688-04
 	ascend	Calycophorae	327.57	2681	 	36.699703	-122.05524	1718143	1.2	2005-07-07 20:56:26.033	Ventana	34.237	04:24:47:06	7.35	V2681-05
 	transect	Psolus squamatus	 	2687	 	 	 	1808723	 	2005-07-13 17:27:52.0	Ventana	 	00:54:44:10	 	V2687-01
 	transect	Mediaster	 	2687	 	 	 	1811487	 	2005-07-13 20:14:25.0	Ventana	 	03:39:24:20	 	V2687-04
 	transect	Stomphia	 	2687	 	 	 	1810550	 	2005-07-13 19:22:05.0	Ventana	 	02:47:49:14	 	V2687-03
 	transect	Phyllospadix	204.1	2696	 	36.80529	-122.12826	1813697	1.48	2005-08-01 18:15:52.0	Ventana	34.213	01:43:44:02	8.633	V2696-02
 	transect	Mediaster	 	2687	 	 	 	1807080	 	2005-07-13 16:58:15.0	Ventana	 	00:25:09:19	 	V2687-01
 	descend	Euphausiacea	365.92	2682	 	36.698536	-122.060234	1720353	0.98	2005-07-08 17:28:36.0	Ventana	34.26	01:22:07:28	7.04	V2682-02
 	ascend	Bathylagus milleri	755.0	2681	http://search.mbari.org/ARCHIVE/frameGrabs/Ventana/images/2681/03_42_20_28.jpg	36.698734	-122.05579	1717529	0.28	2005-07-07 20:13:19.2	Ventana	34.446	03:42:20:28	4.818	V2681-04
 	descend	Hastigerinella digitata	299.46	2683	 	36.701077	-122.05015	1756493	1.25	2005-07-11 16:53:41.0	Ventana	34.243	00:41:22:11	7.701	V2683-01
 	descend	Poeobius meseres	1104.64	2682	 	36.69823	-122.05915	1722088	0.56	2005-07-08 19:08:00.0	Ventana	34.552	03:00:37:17	3.627	V2682-04
 	transect	Mesomyaria	999.69	2669	 	36.730923	-122.23152	1683646	0.45	2005-05-25 18:27:27.0	Ventana	34.52	00:49:53:17	3.92	V2669-01
 	cruise	Lithodidae	1218.5	2683	 	36.706326	-122.04752	1757614	0.73	2005-07-11 20:08:40.0	Ventana	34.575	03:43:03:21	3.34	V2683-04
 	transect	Glyptocephalus zachirus	 	2687	 	 	 	1810167	 	2005-07-13 19:03:56.0	Ventana	 	02:29:41:03	 	V2687-03
 	ascend	Bolinopsis	637.47	2683	 	36.70505	-122.05015	1757937	0.31	2005-07-11 21:10:02.0	Ventana	34.408	04:42:55:21	5.322	V2683-05
 	transect	Chionoecetes tanneri	802.15	2674	 	36.752254	-122.206856	1799988	0.37	2005-06-08 18:04:07.0	Ventana	34.49	00:48:39:16	4.326	V2674-01
 	transect	Poeobius meseres	1000.94	2681	 	36.696327	-122.0526	2498686	0.47	2005-07-07 19:29:17.0	Ventana	34.531	02:58:58:02	3.874	V2681-03HD
 	descend	Copepoda	964.95	2682	 	36.698322	-122.05933	1721996	0.42	2005-07-08 18:55:57.0	Ventana	34.519	02:48:59:17	4.046	V2682-03
 	transect	Pennatulacea sp.1	602.96	2680	 	36.788597	-122.232346	1805959	0.36	2005-06-27 20:01:20.0	Ventana	34.381	02:39:57:19	5.596	V2680-03
 	cruise	Sebastes	427.51	2676	 	36.80353	-122.02923	1676415	0.67	2005-06-14 16:42:01.0	Ventana	34.311	00:26:10:01	6.482	V2676-01
 	transect	Stomphia	1000.25	2669	 	36.731144	-122.24026	1689234	0.41	2005-05-25 19:29:02.0	Ventana	34.511	01:50:59:24	4.059	V2669-02
 	transect	Ophiuroidea	1000.39	2669	 	36.73151	-122.24238	1694499	0.41	2005-05-25 19:41:22.0	Ventana	34.509	02:03:19:15	4.06	V2669-02
 	transect	Phyllospadix	801.21	2674	 	36.75217	-122.20802	1800694	0.35	2005-06-08 18:09:48.0	Ventana	34.489	00:54:20:01	4.332	V2674-01
 	transect	Cydippida 2	700.58	2681	 	36.69511	-122.05083	2497980	0.28	2005-07-07 18:48:05.0	Ventana	34.432	02:17:48:08	4.996	V2681-03HD
 	transect	Mediaster	399.83	2687	 	36.78802	-122.12142	1809046	1.15	2005-07-13 17:34:59.0	Ventana	34.24	01:01:21:02	7.298	V2687-02
 	transect	molt	100.55	2681	 	36.69983	-122.05429	2489628	2.13	2005-07-07 16:46:36.0	Ventana	34.068	00:17:46:23	9.144	V2681-01HD
 	transect	Ophiuroidea	999.32	2669	 	36.731384	-122.236404	1684767	0.44	2005-05-25 19:00:32.0	Ventana	34.518	01:22:31:19	3.944	V2669-02
 	transect	Mesomyaria	998.31	2669	 	36.733	-122.252396	1737440	0.4	2005-05-25 20:47:44.0	Ventana	34.509	03:08:33:12	4.076	V2669-04
 	transect	Phyllospadix	201.83	2696	 	36.805256	-122.12819	1813637	1.5	2005-08-01 18:08:52.0	Ventana	34.211	01:36:44:08	8.665	V2696-02
 	transect	Porifera	 	2687	 	 	 	1810933	 	2005-07-13 19:43:08.0	Ventana	 	03:08:10:01	 	V2687-04
 	transect	Porifera	 	2687	 	 	 	1811196	 	2005-07-13 20:01:03.0	Ventana	 	03:26:03:14	 	V2687-04
 	transect	Gastropoda sp.2	999.79	2669	 	36.7319	-122.246056	1735613	0.41	2005-05-25 20:03:47.0	Ventana	34.51	02:25:16:26	4.06	V2669-03
 	descend	Nemertea	927.46	2683	 	36.703564	-122.04856	1757291	0.38	2005-07-11 18:55:24.0	Ventana	34.504	02:35:47:15	4.196	V2683-03
 	transect	Psolus squamatus	399.84	2687	http://search.mbari.org/ARCHIVE/frameGrabs/Ventana/images/2687/01_02_17_21.jpg	36.788036	-122.12153	1809106	1.13	2005-07-13 17:35:55.0	Ventana	34.244	01:02:17:21	7.27	V2687-02
 	ascend	Nanomia	258.17	2681	 	36.697838	-122.05522	1719324	 	2005-07-07 21:29:59.0	Ventana	 	05:01:02:00	 	V2681-05
 	transect	Mediaster	 	2687	http://search.mbari.org/ARCHIVE/frameGrabs/Ventana/images/2687/03_50_51_10.jpg	 	 	1811810	 	2005-07-13 20:25:53.0	Ventana	 	03:50:51:10	 	V2687-04
 	transect	Solaster borealis	997.47	2669	 	36.73064	-122.22781	1649241	0.45	2005-05-25 17:59:33.0	Ventana	34.523	00:22:01:18	3.907	V2669-01
 	ascend	Appendicularia	484.73	2681	 	36.698956	-122.05423	1717760	0.53	2005-07-07 20:35:18.667	Ventana	34.324	04:04:19:01	6.217	V2681-04
 	descend	Appendicularia	239.29	2683	 	36.700966	-122.05063	1756433	1.71	2005-07-11 16:49:52.0	Ventana	34.188	00:37:33:16	8.1	V2683-01
 	descend	Dosidicus gigas	553.93	2682	 	36.69863	-122.059784	1720907	0.35	2005-07-08 18:05:51.0	Ventana	34.374	01:59:21:02	5.665	V2682-02
 	descend	Calycophorae	179.01	2693	 	36.696087	-122.05817	1758260	1.91	2005-07-25 18:10:46.0	Ventana	34.162	00:51:15:22	8.859	V2693-01
 	cruise	Sebastes	341.95	2688	 	36.807774	-122.019844	1677795	1.2	2005-07-14 17:57:50.0	Ventana	34.23	01:43:32:20	7.485	V2688-02
 	transect	molt	100.49	2681	 	36.699825	-122.05429	2489688	2.13	2005-07-07 16:47:55.0	Ventana	34.067	00:19:04:21	9.15	V2681-01HD
 	transect	Pennatulacea sp.1	599.38	2680	 	36.777782	-122.222824	1804316	0.36	2005-06-27 17:50:28.0	Ventana	34.379	00:30:35:09	5.584	V2680-01
 	transect	Mediaster	 	2687	 	 	 	1812576	 	2005-07-13 20:45:53.0	Ventana	 	04:10:24:09	 	V2687-05
 	transect	Calycophorae	700.64	2681	 	36.69673	-122.05262	2497717	0.29	2005-07-07 18:40:49.0	Ventana	34.436	02:10:31:29	4.931	V2681-03HD
 	transect	Mesomyaria	999.72	2669	 	36.73134	-122.235954	1684504	0.44	2005-05-25 18:57:14.0	Ventana	34.521	01:19:13:27	3.934	V2669-02
 	descend	Chuniphyes	776.97	2683	 	36.702507	-122.048874	1757139	0.33	2005-07-11 17:59:05.0	Ventana	34.454	01:43:10:27	4.726	V2683-02
 	transect	Ophiuroidea	1000.13	2669	 	36.73167	-122.243805	1733970	0.41	2005-05-25 19:49:06.0	Ventana	34.511	02:10:38:14	4.066	V2669-03
 	transect	Phyllospadix	799.55	2674	 	36.75253	-122.20405	1799434	0.35	2005-06-08 17:49:18.0	Ventana	34.486	00:33:51:16	4.37	V2674-01
 	transect	Psolus squamatus	399.94	2687	 	36.78815	-122.12185	1809369	1.15	2005-07-13 17:40:15.0	Ventana	34.238	01:06:37:08	7.314	V2687-02
 	transect	Mediaster	 	2687	 	 	 	1812516	 	2005-07-13 20:43:07.0	Ventana	 	04:07:37:28	 	V2687-05
 	transect	Mediaster	 	2687	 	 	 	1811870	 	2005-07-13 20:27:50.0	Ventana	 	03:52:48:13	 	V2687-04
 	ascend	Appendicularia	993.74	2681	 	36.696747	-122.05312	1716560	0.45	2005-07-07 19:33:04.49	Ventana	34.525	03:02:45:15	3.943	V2681-03
 	transect	Euphausia	200.42	2681	 	36.69828	-122.0533	2490809	1.72	2005-07-07 17:09:01.0	Ventana	34.193	00:40:08:12	8.323	V2681-01HD
 	descend	Calycophorae	513.76	2683	 	36.701443	-122.049164	1756876	0.66	2005-07-11 17:40:33.0	Ventana	34.304	01:24:40:27	6.424	V2683-02
 	transect	Nanomia bijuga	200.38	2681	 	36.69829	-122.05334	2491072	1.7	2005-07-07 17:11:28.0	Ventana	34.196	00:42:36:02	8.332	V2681-01HD
 	ascend	Cydippida	196.91	2693	 	36.69075	-122.062744	1759197	1.78	2005-07-25 21:26:06.0	Ventana	34.185	03:50:37:28	8.895	V2693-04
 	descend	Appendicularia	742.5	2682	 	36.698456	-122.059654	1721613	0.29	2005-07-08 18:29:39.0	Ventana	34.443	02:22:42:12	4.84	V2682-03
 	ascend	Lobata	585.76	2682	 	36.69883	-122.06025	1723440	0.4	2005-07-08 20:41:54.0	Ventana	34.371	04:34:02:22	5.67	V2682-05
 	descend	Nanomia	227.83	2682	 	36.699886	-122.060715	1719970	1.53	2005-07-08 16:21:50.0	Ventana	34.222	00:15:55:15	8.036	V2682-01
 	transect	Mediaster	 	2687	 	 	 	1810490	 	2005-07-13 19:20:21.0	Ventana	 	02:46:04:20	 	V2687-03
 	transect	Euphausia	200.44	2681	 	36.69828	-122.05329	2490103	1.7	2005-07-07 17:04:44.0	Ventana	34.197	00:35:51:22	8.36	V2681-01HD
 	transect	Stomphia	998.22	2669	 	36.732964	-122.25217	1737380	0.4	2005-05-25 20:46:21.0	Ventana	34.51	03:07:09:06	4.074	V2669-04
 	transect	Psolus squamatus	 	2687	 	 	 	1808663	 	2005-07-13 17:26:37.0	Ventana	 	00:53:29:26	 	V2687-01
 	transect	Phyllospadix	197.75	2696	 	36.802666	-122.12169	1812991	1.52	2005-08-01 16:50:07.0	Ventana	34.206	00:18:26:13	8.565	V2696-01
 	transect	Ceriantharia sp. 1	601.07	2680	 	36.787	-122.23142	1805899	0.36	2005-06-27 19:44:34.0	Ventana	34.377	02:23:12:28	5.598	V2680-03
 	transect	Mediaster	 	2687	 	 	 	1810227	 	2005-07-13 19:10:32.0	Ventana	 	02:36:17:00	 	V2687-03
 	transect	Phyllospadix	799.76	2674	 	36.75246	-122.20499	1799697	0.35	2005-06-08 17:54:39.0	Ventana	34.487	00:39:11:28	4.357	V2674-01
 	transect	Ceriantharia sp. 1	598.16	2680	 	36.781303	-122.22628	1804962	0.36	2005-06-27 18:34:32.0	Ventana	34.378	01:13:38:06	5.597	V2680-02
 	ascend	Appendicularia	506.5	2682	 	36.698357	-122.06319	1723671	0.48	2005-07-08 21:13:16.0	Ventana	34.333	05:04:57:14	6.129	V2682-06
 	cruise	Chionoecetes tanneri	1231.76	2683	 	36.70579	-122.04786	1757554	0.75	2005-07-11 19:52:49.0	Ventana	34.577	03:27:13:03	3.289	V2683-04
 	transect	Mesomyaria	800.93	2674	 	36.75175	-122.21108	1801077	0.35	2005-06-08 18:24:22.0	Ventana	34.49	01:08:26:17	4.338	V2674-02
 	transect	Ophiuroidea	1000.29	2669	 	36.73123	-122.23831	1688851	0.43	2005-05-25 19:17:18.0	Ventana	34.519	01:39:16:24	3.975	V2669-02
 	ascend	Chuniphyes	776.31	2681	 	36.698765	-122.05634	1717469	0.29	2005-07-07 20:06:47.433	Ventana	34.453	03:35:49:17	4.745	V2681-04
 	ascend	Chaetognatha	1065.89	2682	 	36.698044	-122.05755	1722734	0.52	2005-07-08 20:01:12.0	Ventana	34.541	03:53:47:08	3.744	V2682-04
 	transect	Ceriantharia sp. 2	1000.74	2669	 	36.732277	-122.248955	1736259	0.41	2005-05-25 20:25:54.0	Ventana	34.51	02:47:22:23	4.067	V2669-03
 	ascend	Chaetognatha	478.63	2683	 	36.704334	-122.05057	1757997	0.72	2005-07-11 21:17:09.0	Ventana	34.296	04:50:00:23	6.569	V2683-05
 	ascend	Cydippida	345.04	2693	 	36.693394	-122.061356	1758934	1.25	2005-07-25 21:10:02.0	Ventana	34.238	03:34:34:24	7.392	V2693-04
 	transect	Phyllospadix	799.96	2674	 	36.752514	-122.20336	1799314	0.35	2005-06-08 17:45:21.0	Ventana	34.485	00:29:54:19	4.378	V2674-01
 	transect	Psolus squamatus	 	2687	 	 	 	1807140	 	2005-07-13 17:01:25.0	Ventana	 	00:28:19:07	 	V2687-01
 	descend	Appendicularia	343.49	2683	 	36.701267	-122.04997	1756553	1.25	2005-07-11 16:56:10.0	Ventana	34.226	00:43:50:06	7.236	V2683-01
 	cruise	Halipteris	432.94	2688	 	36.804993	-122.01876	1677675	0.93	2005-07-14 17:43:43.0	Ventana	34.266	01:29:26:21	6.946	V2688-02
 	transect	cydippida	100.53	2681	 	36.69983	-122.05429	2489568	2.13	2005-07-07 16:45:06.0	Ventana	34.068	00:16:14:25	9.147	V2681-01HD
 	descend	Copepoda	696.35	2683	 	36.70206	-122.048935	1757079	0.31	2005-07-11 17:54:00.0	Ventana	34.422	01:38:05:04	5.083	V2683-02
 	descend	Euphausiacea	602.18	2681	 	36.69568	-122.051094	1715642	0.31	2005-07-07 18:07:57.95	Ventana	34.386	01:38:19:12	5.496	V2681-02
 	transect	Mediaster	 	2687	 	 	 	1812456	 	2005-07-13 20:39:26.0	Ventana	 	04:04:24:06	 	V2687-04
 	descend	Tuscaroridae	240.09	2693	 	36.69856	-122.06172	1758380	1.5	2005-07-25 19:23:29.0	Ventana	34.233	02:03:30:27	8.541	V2693-02
 	ascend	Appendicularia	703.49	2683	 	36.705814	-122.049	1757877	0.27	2005-07-11 21:05:51.0	Ventana	34.45	04:38:43:25	4.774	V2683-05
 	stationary	Appendicularia	501.62	2695	 	36.784542	-122.20046	1824458	0.81	2005-07-28 17:43:40.0	Ventana	34.272	00:49:59:09	6.572	V2695-01
 	cruise	Pleuronectiformes	522.1	2688	 	36.799553	-122.01905	1677472	0.65	2005-07-14 17:06:13.0	Ventana	34.318	00:52:31:02	6.343	V2688-01
 	descend	Bathocyroe	510.24	2682	 	36.698593	-122.05978	1720847	0.41	2005-07-08 18:00:42.0	Ventana	34.354	01:54:11:23	5.923	V2682-02
 	cruise	Lycodapus	1207.71	2683	 	36.70705	-122.04767	1757674	0.72	2005-07-11 20:16:24.0	Ventana	34.574	03:50:47:10	3.355	V2683-04
 	transect	Phyllospadix	998.5	2669	 	36.730965	-122.230034	1651207	0.45	2005-05-25 18:14:26.0	Ventana	34.521	00:36:53:09	3.913	V2669-01
 	transect	Rathbunaster californicus	196.41	2696	 	36.802902	-122.122215	1813051	1.54	2005-08-01 17:01:29.0	Ventana	34.203	00:29:48:11	8.6	V2696-01
 	descend	Lensia	281.5	2681	 	36.69857	-122.05368	1713616	1.34	2005-07-07 17:17:10.7	Ventana	34.223	00:48:18:26	7.637	V2681-01
 	transect	Phyllospadix	802.69	2674	 	36.75224	-122.20636	1799928	0.36	2005-06-08 18:01:32.0	Ventana	34.489	00:46:04:00	4.339	V2674-01
 	transect	Phyllospadix	198.18	2696	 	36.803608	-122.12439	1813254	1.53	2005-08-01 17:27:02.0	Ventana	34.204	00:55:19:04	8.617	V2696-01
 	transect	molt	100.5	2681	 	36.699802	-122.054276	2489748	2.12	2005-07-07 16:49:29.0	Ventana	34.067	00:20:38:12	9.156	V2681-01HD
 	transect	Calycophorae	500.53	2681	 	36.69712	-122.05275	2493513	0.44	2005-07-07 17:58:44.0	Ventana	34.346	01:29:06:10	6.03	V2681-02HD
 	transect	Mesomyaria	999.65	2669	 	36.73136	-122.237755	1687531	0.44	2005-05-25 19:12:38.0	Ventana	34.52	01:34:36:18	3.95	V2669-02
 	transect	Phyllospadix	801.61	2674	 	36.752167	-122.20784	1800108	0.35	2005-06-08 18:08:45.0	Ventana	34.489	00:53:17:03	4.327	V2674-01
 	descend	Appendicularia	973.52	2683	 	36.70406	-122.04863	1757351	0.42	2005-07-11 19:13:39.0	Ventana	34.516	02:54:00:28	4.035	V2683-03
 	descend	Myctophidae	594.07	2682	 	36.698643	-122.059814	1721230	0.36	2005-07-08 18:07:22.0	Ventana	34.386	02:00:28:01	5.497	V2682-03
 	transect	Nanomia bijuga	200.38	2681	 	36.698307	-122.05339	2491192	1.68	2005-07-07 17:12:40.0	Ventana	34.2	00:43:48:02	8.337	V2681-01HD
 	ascend	Nanomia	383.96	2683	 	36.70396	-122.05058	1758057	1.0	2005-07-11 21:21:02.0	Ventana	34.25	04:53:53:17	6.963	V2683-05
 	transect	Mediaster	 	2687	 	 	 	1807343	 	2005-07-13 17:07:32.0	Ventana	 	00:34:26:02	 	V2687-01
 	ascend	Chuniphyes	942.49	2681	 	36.6975	-122.05395	1716943	0.41	2005-07-07 19:42:13.567	Ventana	34.514	03:11:17:07	4.071	V2681-04
 	transect	Neptunea amianta	1000.51	2669	 	36.732147	-122.24822	1736199	0.41	2005-05-25 20:20:36.0	Ventana	34.51	02:42:06:02	4.06	V2669-03
 	descend	Appendicularia	1143.29	2683	 	36.705116	-122.048904	1757494	0.64	2005-07-11 19:33:13.0	Ventana	34.555	03:13:34:22	3.545	V2683-03
 	transect	Ceriantharia sp. 1	602.65	2680	 	36.78974	-122.23258	1806725	0.35	2005-06-27 20:13:26.0	Ventana	34.378	02:52:02:21	5.587	V2680-03
 	transect	Mediaster	 	2687	 	 	 	1807666	 	2005-07-13 17:21:49.0	Ventana	 	00:48:41:20	 	V2687-01
 	transect	Mediaster	 	2687	 	 	 	1812253	 	2005-07-13 20:29:58.0	Ventana	 	03:54:56:01	 	V2687-04
 	ascend	Appendicularia	644.02	2682	 	36.69888	-122.05967	1723380	0.3	2005-07-08 20:36:09.0	Ventana	34.392	04:28:17:17	5.384	V2682-05
 	descend	Nanomia	157.32	2693	 	36.69628	-122.05774	1758200	1.97	2005-07-25 17:57:20.0	Ventana	34.117	00:37:51:17	8.964	V2693-01
 	transect	Rathbunaster californicus	199.48	2696	 	36.80409	-122.12577	1813374	1.52	2005-08-01 17:40:36.0	Ventana	34.208	01:08:29:18	8.67	V2696-02
 	cruise	mud	100.41	2688	 	36.81402	-122.01845	1679502	1.93	2005-07-14 21:19:33.0	Ventana	34.103	05:03:46:00	8.902	V2688-05
 	descend	Nanomia	400.33	2681	 	36.695553	-122.05119	1715116	0.81	2005-07-07 17:33:44.067	Ventana	34.279	01:04:08:04	6.693	V2681-02
 	descend	Prayidae	195.61	2683	 	36.70107	-122.05098	1756373	1.68	2005-07-11 16:46:21.0	Ventana	34.198	00:34:02:14	8.427	V2683-01
 	transect	Brisaster	999.95	2669	 	36.732613	-122.250534	1736997	0.41	2005-05-25 20:36:39.0	Ventana	34.508	02:58:08:04	4.073	V2669-03
 	descend	Nanomia	267.46	2682	 	36.69974	-122.06075	1720030	1.35	2005-07-08 16:31:09.0	Ventana	34.232	00:25:14:00	7.761	V2682-01
 	transect	Mesomyaria	799.13	2674	 	36.751717	-122.212776	1801229	0.35	2005-06-08 18:30:51.0	Ventana	34.49	01:14:55:12	4.332	V2674-02
 	descend	Appendicularia	676.01	2682	 	36.69866	-122.05995	1721410	0.28	2005-07-08 18:12:19.0	Ventana	34.412	02:05:25:08	5.189	V2682-03
 	transect	Appendicularia	900.99	2681	 	36.694878	-122.05053	2498483	0.39	2005-07-07 19:16:43.0	Ventana	34.505	02:46:24:25	4.169	V2681-03HD
 	descend	Copepoda	536.5	2683	 	36.701565	-122.04915	1756936	0.54	2005-07-11 17:43:20.0	Ventana	34.326	01:27:28:00	6.207	V2683-02
 	transect	Chionoecetes tanneri	805.01	2674	 	36.750687	-122.22124	1803721	0.34	2005-06-08 19:13:15.0	Ventana	34.483	01:57:17:10	4.413	V2674-02
 	transect	Mediaster	 	2687	 	 	 	1811547	 	2005-07-13 20:15:20.0	Ventana	 	03:40:19:05	 	V2687-04
 	ascend	Prayidae	857.39	2682	 	36.698605	-122.05848	1723237	0.33	2005-07-08 20:19:30.0	Ventana	34.487	04:11:38:12	4.372	V2682-05
 	transect	Neptunea amianta	802.19	2674	 	36.75176	-122.21045	1801017	0.35	2005-06-08 18:22:02.0	Ventana	34.491	01:06:07:07	4.328	V2674-02
 	transect	Microstomus pacificus	600.09	2680	 	36.78426	-122.22964	1805548	0.36	2005-06-27 19:15:52.0	Ventana	34.378	01:54:55:29	5.604	V2680-02
 	transect	Poeobius meseres	600.59	2681	 	36.695972	-122.05156	2493693	0.3	2005-07-07 18:20:00.0	Ventana	34.387	01:50:22:07	5.494	V2681-02HD
 	ascend	sinker	902.51	2681	 	36.697983	-122.05473	1717146	0.37	2005-07-07 19:48:31.067	Ventana	34.503	03:17:33:26	4.203	V2681-04
 	transect	Mesomyaria	999.2	2669	 	36.731007	-122.232	1683706	0.45	2005-05-25 18:30:04.0	Ventana	34.52	00:52:30:20	3.913	V2669-01
 	transect	Mesomyaria	800.76	2674	 	36.751072	-122.217636	1803518	0.35	2005-06-08 18:56:31.0	Ventana	34.488	01:40:34:04	4.338	V2674-02
 	transect	Nanomia bijuga	200.47	2681	 	36.69828	-122.05329	2490486	1.7	2005-07-07 17:07:06.0	Ventana	34.198	00:38:15:16	8.347	V2681-01HD
 	transect	haliscera	400.75	2681	 	36.69765	-122.05336	2493190	0.79	2005-07-07 17:49:01.0	Ventana	34.278	01:19:23:26	6.659	V2681-02HD
 	ascend	Copepoda	944.43	2682	 	36.69771	-122.0585	1723057	0.42	2005-07-08 20:10:29.0	Ventana	34.516	04:02:39:10	4.054	V2682-05
 	descend	Appendicularia	467.05	2683	 	36.70157	-122.04935	1756756	0.77	2005-07-11 17:13:31.0	Ventana	34.286	01:01:11:11	6.652	V2683-01
 	transect	Poeobius meseres	901.07	2681	 	36.696445	-122.05254	2498303	0.39	2005-07-07 19:09:05.0	Ventana	34.505	02:38:47:06	4.17	V2681-03HD
 	transect	Mesomyaria	1000.38	2669	 	36.731983	-122.246445	1735673	0.41	2005-05-25 20:07:36.0	Ventana	34.51	02:29:05:29	4.065	V2669-03
 	transect	Mesomyaria	800.6	2674	 	36.7526	-122.201775	1799111	0.34	2005-06-08 17:37:43.0	Ventana	34.484	00:22:16:27	4.416	V2674-01
 	transect	Sebastes saxicola	200.44	2696	 	36.80519	-122.128075	1813577	1.5	2005-08-01 18:01:12.0	Ventana	34.212	01:29:05:00	8.67	V2696-02
 	transect	Porifera	 	2687	 	 	 	1811750	 	2005-07-13 20:24:26.0	Ventana	 	03:49:24:06	 	V2687-04
 	transect	Euphausia	200.46	2681	 	36.69828	-122.05329	2490689	1.72	2005-07-07 17:08:17.0	Ventana	34.194	00:39:24:10	8.323	V2681-01HD
 	transect	Allocentrotus fragilis	 	2687	 	 	 	1811256	 	2005-07-13 20:05:30.0	Ventana	 	03:30:29:27	 	V2687-04
 	transect	Ophiuroidea	999.9	2669	 	36.73141	-122.23671	1684827	0.44	2005-05-25 19:03:47.0	Ventana	34.52	01:25:46:18	3.938	V2669-02
 	descend	Dosidicus gigas	431.98	2681	 	36.69808	-122.05383	1715319	0.62	2005-07-07 17:51:37.333	Ventana	34.3	01:21:59:24	6.341	V2681-02
 	transect	Henricia aspera	 	2687	 	 	 	1812636	 	2005-07-13 20:49:03.0	Ventana	 	04:13:34:02	 	V2687-05
 	transect	Lycenchelys camchatica	998.88	2669	 	36.73119	-122.23438	1684121	0.45	2005-05-25 18:44:31.0	Ventana	34.521	01:06:31:13	3.916	V2669-02
 	ascend	Copepoda	604.81	2682	 	36.698624	-122.06167	1723528	0.33	2005-07-08 20:57:23.0	Ventana	34.374	04:49:30:01	5.619	V2682-05
 	transect	Gastropoda sp.2	1000.3	2669	 	36.73134	-122.24163	1689829	0.4	2005-05-25 19:37:27.0	Ventana	34.509	01:59:24:08	4.082	V2669-02
 	descend	Crustacea	1121.15	2682	 	36.69821	-122.05919	1722148	0.58	2005-07-08 19:12:03.0	Ventana	34.554	03:04:42:03	3.59	V2682-04
 	ascend	Copepoda	883.95	2681	 	36.698204	-122.05516	1717326	0.36	2005-07-07 19:50:58.8	Ventana	34.504	03:20:01:13	4.241	V2681-04
 	transect	Mesomyaria	599.94	2680	 	36.778828	-122.22401	1804436	0.36	2005-06-27 18:03:57.0	Ventana	34.378	00:44:04:04	5.589	V2680-01
 	transect	Neptunea amianta	602.1	2680	 	36.79077	-122.232834	1806808	0.35	2005-06-27 20:22:52.0	Ventana	34.379	03:01:29:00	5.587	V2680-03
 	transect	Psolus squamatus	399.87	2687	 	36.78813	-122.121635	1809249	1.13	2005-07-13 17:37:38.0	Ventana	34.243	01:04:00:13	7.26	V2687-02
 	cruise	Mediaster	235.08	2688	 	36.80989	-122.02058	1677938	1.61	2005-07-14 18:31:59.0	Ventana	34.178	02:17:15:06	8.389	V2688-03
 	transect	Glyptocephalus zachirus	200.44	2696	 	36.804745	-122.12724	1813517	1.51	2005-08-01 17:55:30.0	Ventana	34.21	01:23:23:14	8.672	V2696-02
 	descend	Nanomia	176.84	2681	 	36.69828	-122.05329	1713533	1.95	2005-07-07 17:03:00.967	Ventana	34.148	00:34:10:00	8.541	V2681-01
 	descend	Solmaris	604.19	2681	 	36.695667	-122.05103	1715905	0.3	2005-07-07 18:17:08.867	Ventana	34.382	01:47:30:08	5.495	V2681-02
 	transect	Deiopea	50.42	2681	 	36.69983	-122.05429	2485632	2.99	2005-07-07 16:36:33.0	Ventana	33.913	00:07:43:29	9.627	V2681-01HD
 	descend	Leuroglossus stilbius	531.04	2688	 	36.79344	-122.01826	1677232	0.68	2005-07-14 16:16:59.0	Ventana	34.311	00:03:20:16	6.38	V2688-01
 	descend	Chaetognatha	161.4	2683	 	36.700806	-122.051384	1756313	1.69	2005-07-11 16:36:32.0	Ventana	34.174	00:24:12:29	8.794	V2683-01
 	transect	Microstomus pacificus	 	2687	 	 	 	1811667	 	2005-07-13 20:20:20.0	Ventana	 	03:45:19:13	 	V2687-04
 	transect	Psolus squamatus	 	2687	 	 	 	1811053	 	2005-07-13 19:49:33.0	Ventana	 	03:14:34:24	 	V2687-04
 	transect	Mesomyaria	997.85	2669	 	36.73062	-122.227135	1649098	0.45	2005-05-25 17:54:53.0	Ventana	34.522	00:17:21:23	3.911	V2669-01
 	transect	Phyllospadix	1000.34	2669	 	36.73193	-122.246704	1735756	0.41	2005-05-25 20:10:08.0	Ventana	34.509	02:31:37:26	4.07	V2669-03
 	transect	Mesomyaria	801.51	2674	 	36.751965	-122.209335	1800897	0.36	2005-06-08 18:16:14.0	Ventana	34.491	01:00:46:00	4.321	V2674-01
 	stationary	Merluccius productus	502.29	2694	 	36.784595	-122.20047	1676618	0.84	2005-07-27 19:51:58.0	Ventana	34.273	02:24:07:18	6.647	V2694-03
 	ascend	Appendicularia	922.97	2681	 	36.697712	-122.05431	1717003	0.39	2005-07-07 19:45:10.4	Ventana	34.507	03:14:13:11	4.161	V2681-04
 	transect	Ptychogena	700.62	2681	 	36.69579	-122.05166	2497860	0.28	2005-07-07 18:44:50.0	Ventana	34.434	02:14:32:08	4.948	V2681-03HD
 	transect	Chaetognatha	300.39	2681	 	36.697456	-122.05292	2492249	1.24	2005-07-07 17:23:21.0	Ventana	34.233	00:54:28:24	7.402	V2681-01HD
 	transect	Calycophorae	400.75	2681	 	36.696777	-122.05236	2493047	0.79	2005-07-07 17:45:22.0	Ventana	34.277	01:15:45:07	6.659	V2681-02HD
 	transect	Mesomyaria	999.98	2669	 	36.73097	-122.233025	1683849	0.45	2005-05-25 18:36:56.0	Ventana	34.522	00:59:21:22	3.911	V2669-01
 	transect	Psolus squamatus	 	2687	 	 	 	1807606	 	2005-07-13 17:17:18.0	Ventana	 	00:44:11:10	 	V2687-01
 	transect	Mediaster	 	2687	 	 	 	1812373	 	2005-07-13 20:34:53.0	Ventana	 	03:59:50:29	 	V2687-04
 	transect	Glyptocephalus zachirus	 	2687	 	 	 	1812719	 	2005-07-13 20:54:44.0	Ventana	 	04:19:14:04	 	V2687-05
 	transect	Euphausia	200.46	2681	 	36.69828	-122.05329	2490629	1.73	2005-07-07 17:07:55.0	Ventana	34.193	00:39:02:20	8.328	V2681-01HD
 	ascend	Appendicularia	207.14	2683	 	36.70276	-122.050735	1758117	1.68	2005-07-11 21:28:44.0	Ventana	34.204	05:01:34:20	8.424	V2683-05
 	ascend	Hastigerinella digitata	323.57	2693	 	36.691692	-122.062	1759054	1.29	2005-07-25 21:17:52.0	Ventana	34.238	03:42:24:07	7.562	V2693-04
 	transect	Neptunea amianta	799.32	2674	 	36.75251	-122.20441	1799577	0.35	2005-06-08 17:51:25.0	Ventana	34.486	00:35:58:14	4.385	V2674-01
 	descend	Euphausiacea	315.62	2682	 	36.698917	-122.06067	1720150	1.14	2005-07-08 17:07:28.0	Ventana	34.24	01:00:59:17	7.276	V2682-02
 	ascend	Euphausiacea	259.73	2681	 	36.69925	-122.054306	1718646	1.43	2005-07-07 21:14:39.0	Ventana	34.23	04:42:58:16	7.97	V2681-05
 	transect	Mesomyaria	802.02	2674	 	36.75231	-122.20583	1799845	0.36	2005-06-08 17:59:00.0	Ventana	34.49	00:43:32:21	4.333	V2674-01
 	transect	Mediaster	 	2687	 	 	 	1807200	 	2005-07-13 17:03:20.0	Ventana	 	00:30:14:22	 	V2687-01
 	transect	chuniphyes	500.6	2681	 	36.6975	-122.05323	2493393	0.44	2005-07-07 17:56:51.0	Ventana	34.347	01:27:14:01	6.017	V2681-02HD
 	transect	Ophiuroidea	998.14	2669	 	36.73114	-122.23102	1683503	0.45	2005-05-25 18:22:41.0	Ventana	34.522	00:45:07:21	3.914	V2669-01
 	transect	Solmissus	200.37	2681	 	36.698322	-122.05344	2491335	1.66	2005-07-07 17:13:34.0	Ventana	34.2	00:44:42:29	8.34	V2681-01HD
 	ascend	Phialidium	829.08	2681	 	36.69879	-122.05628	1717409	0.31	2005-07-07 19:57:52.667	Ventana	34.483	03:26:54:26	4.432	V2681-04
 	transect	Ceriantharia sp. 2	998.74	2669	 	36.732853	-122.25192	1737260	0.4	2005-05-25 20:44:31.0	Ventana	34.509	03:05:20:03	4.076	V2669-04
 	transect	Hydrolagus colliei	 	2687	 	 	 	1810730	 	2005-07-13 19:29:59.0	Ventana	 	02:55:42:14	 	V2687-03
 	descend	Appendicularia	1200.71	2682	 	36.69832	-122.05901	1722208	0.68	2005-07-08 19:18:23.0	Ventana	34.573	03:11:01:13	3.368	V2682-04
 	transect	Poeobius meseres	1001.04	2681	 	36.695026	-122.05093	2498566	0.47	2005-07-07 19:22:41.0	Ventana	34.531	02:52:21:27	3.866	V2681-03HD
 	cruise	Allocentrotus	382.8	2690	 	36.790054	-121.88762	1670001	0.94	2005-07-18 19:51:04.0	Ventana	34.269	01:06:11:11	6.952	V2690-01
 	descend	Nanomia	 	2693	 	 	 	1759437	 	2005-07-25 16:44:52.0	Ventana	 	00:23:25:23	 	V2693-01
 	transect	Mesomyaria	999.78	2669	 	36.731056	-122.23894	1689091	0.43	2005-05-25 19:20:56.0	Ventana	34.518	01:42:54:24	3.96	V2669-02
 	ascend	Cyclothone	374.5	2681	 	36.699356	-122.0548	1718023	0.95	2005-07-07 20:50:20.237	Ventana	34.27	04:18:40:24	7.021	V2681-05
 	transect	Neptunea amianta	1000.34	2669	 	36.7325	-122.250145	1736854	0.41	2005-05-25 20:33:45.0	Ventana	34.509	02:55:13:06	4.067	V2669-03
 	transect	Neptunea amianta	1000.15	2669	 	36.731075	-122.23872	1689054	0.43	2005-05-25 19:19:30.0	Ventana	34.514	01:41:28:21	3.969	V2669-02
 	ascend	Appendicularia	1155.99	2683	 	36.707993	-122.04884	1757757	0.7	2005-07-11 20:34:52.0	Ventana	34.57	04:09:13:19	3.409	V2683-04
 	transect	Sergestes similis	300.4	2681	 	36.696075	-122.05171	2492572	1.24	2005-07-07 17:28:11.0	Ventana	34.233	00:59:18:14	7.427	V2681-01HD
 	cruise	Holothuroidea	511.02	2688	 	36.80095	-122.01873	1677532	0.68	2005-07-14 17:21:48.0	Ventana	34.31	01:07:32:27	6.424	V2688-02
 	transect	Mesomyaria	999.83	2669	 	36.73174	-122.24399	1734090	0.4	2005-05-25 19:50:18.2	Ventana	34.509	02:11:49:06	4.069	V2669-03
 	ascend	Chaetognatha	370.89	2693	 	36.696827	-122.06036	1758731	1.2	2005-07-25 20:32:08.0	Ventana	34.234	03:11:40:25	7.184	V2693-03
 	transect	Stomphia	801.79	2674	 	36.75092	-122.21969	1803638	0.35	2005-06-08 19:05:15.0	Ventana	34.493	01:49:17:10	4.365	V2674-02
 	transect	Rathbunaster californicus	203.44	2696	 	36.807346	-122.13102	1813817	1.47	2005-08-01 18:40:26.0	Ventana	34.219	02:07:31:15	8.626	V2696-03
 	descend	Solmissus	329.18	2693	 	36.697422	-122.06054	1758523	1.29	2005-07-25 19:47:43.0	Ventana	34.236	02:27:17:03	7.571	V2693-03
 	transect	Sebastolobus altivelis	800.31	2674	 	36.75257	-122.20222	1799171	0.33	2005-06-08 17:39:40.0	Ventana	34.478	00:24:13:25	4.435	V2674-01
 	cruise	Chionoecetes tanneri	999.82	2669	http://search.mbari.org/ARCHIVE/frameGrabs/Ventana/images/2669/01_25_48_00.jpg	36.73142	-122.23673	20003789	0.44	2005-05-25 19:03:50.0	Ventana	34.52	01:25:48:00	3.938	V2669-02
 	ascend	Copepoda	815.91	2682	 	36.698654	-122.05881	1723260	0.32	2005-07-08 20:23:35.0	Ventana	34.469	04:15:45:08	4.538	V2682-05
 	stationary	Sebastes	204.86	2696	 	36.807667	-122.13128	1813877	1.47	2005-08-01 18:45:48.0	Ventana	34.219	02:12:52:16	8.653	V2696-03
 	ascend	Copepoda	571.6	2682	 	36.698303	-122.0625	1723588	0.38	2005-07-08 21:06:56.0	Ventana	34.359	04:59:02:04	5.816	V2682-05
 	ascend	Apolemia	216.04	2693	 	36.691196	-122.06253	1759137	1.66	2005-07-25 21:24:04.0	Ventana	34.197	03:48:35:20	8.61	V2693-04
 	transect	Psolus squamatus	 	2687	 	 	 	1808843	 	2005-07-13 17:30:22.0	Ventana	 	00:57:14:15	 	V2687-01
 	transect	Mesomyaria	999.89	2669	 	36.73061	-122.22924	1651064	0.45	2005-05-25 18:08:24.0	Ventana	34.522	00:30:51:27	3.906	V2669-01
 	transect	Psolus squamatus	 	2687	 	 	 	1808580	 	2005-07-13 17:24:22.0	Ventana	 	00:51:14:15	 	V2687-01
 	transect	molt	100.48	2681	 	36.698803	-122.05363	2489891	2.14	2005-07-07 16:52:28.0	Ventana	34.068	00:23:36:11	9.136	V2681-01HD
 	descend	Appendicularia	398.93	2682	 	36.698296	-122.059875	1720704	0.86	2005-07-08 17:37:37.0	Ventana	34.255	01:31:08:12	6.703	V2682-02
 	ascend	Aegina	1001.82	2683	 	36.70744	-122.04911	1757817	0.43	2005-07-11 20:51:15.0	Ventana	34.52	04:24:08:03	4.01	V2683-05
 	transect	Mesomyaria	800.22	2674	 	36.752083	-122.208824	1800814	0.35	2005-06-08 18:13:33.0	Ventana	34.489	00:58:04:04	4.334	V2674-01
 	transect	Allocentrotus fragilis	 	2687	 	 	 	1812313	 	2005-07-13 20:32:00.0	Ventana	 	03:56:57:24	 	V2687-04
 	transect	Chaetognatha	200.4	2681	 	36.69828	-122.05329	2490283	1.69	2005-07-07 17:06:24.0	Ventana	34.2	00:37:32:11	8.359	V2681-01HD
 	transect	Mediaster	 	2687	 	 	 	1810693	 	2005-07-13 19:28:36.0	Ventana	 	02:54:20:00	 	V2687-03
 	transect	Actiniaria sp. 3	 	2687	 	 	 	1807546	 	2005-07-13 17:14:52.0	Ventana	 	00:41:45:14	 	V2687-01
 	transect	Nanomia bijuga	200.37	2681	 	36.69832	-122.05342	2491275	1.66	2005-07-07 17:13:20.0	Ventana	34.2	00:44:27:22	8.341	V2681-01HD
 	transect	Psolus squamatus	 	2687	 	 	 	1808926	 	2005-07-13 17:32:09.0	Ventana	 	00:59:01:01	 	V2687-01
 	ascend	Appendicularia	423.62	2681	 	36.699203	-122.0542	1717940	0.78	2005-07-07 20:44:23.633	Ventana	34.277	04:13:00:03	6.638	V2681-05
 	transect	Lycenchelys crotalinus	1000.16	2669	http://search.mbari.org/ARCHIVE/frameGrabs/Ventana/images/2669/02_19_23_06.jpg	36.731815	-122.24515	1735350	0.4	2005-05-25 19:57:51.0	Ventana	34.507	02:19:23:06	4.096	V2669-03
 	descend	Beroe	144.72	2683	 	36.700577	-122.051544	1756253	1.71	2005-07-11 16:20:07.0	Ventana	34.158	00:07:50:23	8.956	V2683-01
 	transect	Ophiuroidea	1000.24	2669	 	36.73195	-122.2471	1735816	0.41	2005-05-25 20:12:36.0	Ventana	34.511	02:34:05:20	4.072	V2669-03
 	descend	sinker	384.02	2683	 	36.701458	-122.04978	1756613	1.02	2005-07-11 16:58:25.0	Ventana	34.253	00:46:05:02	6.983	V2683-01
 	transect	Psolus squamatus	399.88	2687	 	36.788136	-122.1217	1809286	1.13	2005-07-13 17:38:19.0	Ventana	34.25	01:04:41:02	7.281	V2687-02
 	cruise	Sebastolobus	280.57	2688	 	36.809002	-122.02035	1677878	1.43	2005-07-14 18:24:28.0	Ventana	34.213	02:09:44:02	8.005	V2688-03
 	transect	Lycodes cortezianus	199.93	2696	 	36.80452	-122.126656	1813457	1.51	2005-08-01 17:49:35.0	Ventana	34.211	01:17:27:27	8.668	V2696-02
 	descend	Euphausiacea	146.28	2693	 	36.696342	-122.05773	1758177	1.95	2005-07-25 17:56:19.0	Ventana	34.108	00:36:50:02	9.019	V2693-01
 	transect	Phyllospadix	801.02	2674	 	36.752514	-122.202675	1799231	0.35	2005-06-08 17:42:00.0	Ventana	34.487	00:26:33:06	4.377	V2674-01
 	transect	Brisaster	599.4	2680	 	36.77944	-122.224525	1804519	0.36	2005-06-27 18:10:03.0	Ventana	34.376	00:50:08:25	5.605	V2680-01
 	ascend	Appendicularia	629.4	2681	 	36.69891	-122.05423	1717677	0.31	2005-07-07 20:28:22.667	Ventana	34.39	03:57:22:29	5.423	V2681-04
 	transect	Actiniaria sp. 3	399.7	2687	 	36.789143	-122.12421	1809549	1.17	2005-07-13 18:15:42.0	Ventana	34.24	01:42:01:24	7.36	V2687-02
 	transect	Mediaster	 	2687	 	 	 	1811399	 	2005-07-13 20:11:26.0	Ventana	 	03:36:25:23	 	V2687-04
 	transect	Ophiuroidea	999.38	2669	 	36.73142	-122.23622	1684684	0.44	2005-05-25 18:59:13.0	Ventana	34.52	01:21:12:28	3.941	V2669-02
 	transect	Phyllospadix	196.75	2696	 	36.803337	-122.123375	1813171	1.55	2005-08-01 17:15:08.0	Ventana	34.201	00:43:26:09	8.623	V2696-01
 	transect	Mesomyaria	798.33	2674	 	36.75166	-122.21354	1801289	0.35	2005-06-08 18:35:16.0	Ventana	34.487	01:19:19:28	4.35	V2674-02
 	ascend	Nanomia	258.17	2681	 	36.697838	-122.05522	1719527	 	2005-07-07 21:29:59.0	Ventana	 	05:11:12:14	 	V2681-05
 	transect	Osmeridae	598.35	2680	 	36.78277	-122.22799	1805225	0.35	2005-06-27 18:59:24.0	Ventana	34.382	01:38:28:24	5.566	V2680-02
 	transect	Brisaster	1000.33	2669	 	36.731556	-122.242905	1694559	0.4	2005-05-25 19:43:57.0	Ventana	34.505	02:05:54:18	4.096	V2669-02
 	transect	Mediaster	 	2687	 	 	 	1812779	 	2005-07-13 20:57:07.0	Ventana	 	04:21:37:01	 	V2687-05
 	cruise	rock outcrop	287.02	2688	http://search.mbari.org/ARCHIVE/frameGrabs/Ventana/images/2688/02_00_38_21.jpg	36.808933	-122.02033	20005169	1.41	2005-07-14 18:14:57.0	Ventana	34.211	02:00:38:21	7.934	V2688-02
 	cruise	Pleuronectiformes	466.76	2688	 	36.80243	-122.01823	1677592	0.82	2005-07-14 17:30:36.0	Ventana	34.279	01:16:20:06	6.739	V2688-02
 	transect	Mesomyaria	999.09	2669	 	36.732754	-122.25135	1737200	0.41	2005-05-25 20:41:11.0	Ventana	34.509	03:02:00:00	4.072	V2669-04
 	transect	Dosidicus gigas	400.8	2681	 	36.69588	-122.05129	2492918	0.79	2005-07-07 17:41:21.0	Ventana	34.278	01:11:45:13	6.667	V2681-02HD
 	transect	Antimora microlepis	999.75	2669	 	36.731003	-122.23385	1683978	0.45	2005-05-25 18:40:50.0	Ventana	34.522	01:02:51:04	3.913	V2669-02
 	transect	chuniphyes	600.58	2681	 	36.696537	-122.05217	2493753	0.3	2005-07-07 18:22:29.0	Ventana	34.388	01:52:51:29	5.48	V2681-02HD
 	cruise	Nanomia	277.54	2676	 	36.805424	-122.03179	1676212	1.43	2005-06-14 16:19:22.0	Ventana	34.215	00:03:31:24	7.871	V2676-01
 	transect	Mesomyaria	999.73	2669	 	36.731426	-122.23723	1687471	0.44	2005-05-25 19:08:25.0	Ventana	34.519	01:30:24:15	3.946	V2669-02
 	transect	Gastropoda sp.2	998.51	2669	 	36.731014	-122.23026	1695062	0.45	2005-05-25 18:16:29.0	Ventana	34.523	00:38:55:20	3.91	V2669-01
 	transect	Phyllospadix	802.84	2674	 	36.75226	-122.20624	1799905	0.36	2005-06-08 18:00:57.0	Ventana	34.489	00:45:29:12	4.334	V2674-01
 	transect	Lycodes cortezianus	 	2687	http://search.mbari.org/ARCHIVE/frameGrabs/Ventana/images/2687/03_00_31_05.jpg	 	 	1810790	 	2005-07-13 19:34:48.0	Ventana	 	03:00:31:05	 	V2687-03
 	transect	Porifera sp. 1	 	2687	http://search.mbari.org/ARCHIVE/frameGrabs/Ventana/images/2687/00_59_58_03.jpg	 	 	1808986	 	2005-07-13 17:33:06.0	Ventana	 	00:59:58:03	 	V2687-01
 	transect	Dosidicus gigas	600.57	2681	 	36.69711	-122.05285	2493813	0.3	2005-07-07 18:25:06.0	Ventana	34.388	01:55:27:15	5.472	V2681-02HD
 	descend	Chuniphyes	557.79	2681	 	36.695686	-122.051056	1715619	0.35	2005-07-07 18:06:28.233	Ventana	34.366	01:36:50:08	5.705	V2681-02
 	descend	Euphausiacea	360.48	2682	 	36.698513	-122.060135	1720436	1.0	2005-07-08 17:32:29.0	Ventana	34.258	01:26:00:04	7.07	V2682-02
 	ascend	Appendicularia	335.17	2693	 	36.692734	-122.06189	1758994	1.26	2005-07-25 21:14:09.0	Ventana	34.237	03:38:41:22	7.468	V2693-04
 	transect	Mesomyaria	801.32	2674	 	36.750988	-122.21838	1803578	0.35	2005-06-08 18:59:54.0	Ventana	34.49	01:43:56:24	4.355	V2674-02
 	ascend	Appendicularia	346.68	2681	 	36.699333	-122.05516	1718083	1.1	2005-07-07 20:52:56.1	Ventana	34.247	04:21:17:00	7.233	V2681-05
 	transect	Psolus squamatus	 	2687	 	 	 	1808783	 	2005-07-13 17:29:28.0	Ventana	 	00:56:20:08	 	V2687-01
 	transect	Phyllospadix	1000.15	2669	 	36.73164	-122.243416	1733827	0.41	2005-05-25 19:46:59.0	Ventana	34.511	02:08:28:28	4.068	V2669-03
 	transect	Phyllospadix	800.15	2674	 	36.75176	-122.211914	1801160	0.35	2005-06-08 18:27:43.0	Ventana	34.488	01:11:47:15	4.343	V2674-02
 	transect	Phyllospadix	997.37	2669	 	36.730606	-122.22757	1649181	0.45	2005-05-25 17:57:53.0	Ventana	34.52	00:20:21:18	3.909	V2669-01
 	cruise	Parastichopus	105.13	2676	 	36.8059	-122.04247	1677172	1.92	2005-06-14 19:19:05.0	Ventana	34.162	02:57:49:22	8.416	V2676-03
 	transect	Mediaster	 	2687	 	 	 	1811339	 	2005-07-13 20:08:10.0	Ventana	 	03:33:09:25	 	V2687-04
 	transect	Phyllospadix	801.21	2674	 	36.751923	-122.20983	1800957	0.35	2005-06-08 18:19:26.0	Ventana	34.489	01:03:31:11	4.337	V2674-02
 	transect	Forskalia	300.45	2681	 	36.698162	-122.05347	2492009	1.24	2005-07-07 17:20:55.0	Ventana	34.233	00:52:01:03	7.409	V2681-01HD
 	stationary	Merluccius productus	502.31	2694	 	36.784588	-122.20046	1676623	0.83	2005-07-27 19:55:21.0	Ventana	34.272	02:27:30:18	6.642	V2694-03
 	transect	Appendicularia	500.6	2681	 	36.695854	-122.0513	2493656	0.43	2005-07-07 18:04:10.0	Ventana	34.349	01:34:32:12	6.006	V2681-02HD
 	transect	Mesomyaria	801.67	2674	 	36.752457	-122.19949	1773783	0.29	2005-06-08 17:23:54.0	Ventana	34.46	00:08:29:00	4.649	V2674-01
 	transect	Porifera sp. 1	 	2687	 	 	 	1811136	 	2005-07-13 19:56:06.0	Ventana	 	03:21:06:14	 	V2687-04
 	transect	Sebastolobus	 	2669	 	 	 	1737620	 	2005-05-25 13:53:23.0	Ventana	 	03:14:10:27	 	V2669-04
 	transect	Ceriantharia sp. 1	602.1	2680	 	36.7917	-122.23298	1806868	0.36	2005-06-27 20:29:59.0	Ventana	34.379	03:08:35:13	5.59	V2680-03
 	transect	Psolus squamatus	399.87	2687	 	36.788082	-122.12158	1809189	1.13	2005-07-13 17:36:56.0	Ventana	34.241	01:03:17:29	7.262	V2687-02
 	transect	Gastropoda sp.2	997.64	2669	 	36.730637	-122.22696	1694905	0.45	2005-05-25 17:53:33.0	Ventana	34.521	00:16:01:16	3.909	V2669-01
 	transect	Calycophorae	900.99	2681	 	36.69561	-122.05152	2498423	0.39	2005-07-07 19:12:50.0	Ventana	34.505	02:42:32:03	4.172	V2681-03HD
 	cruise	Pennatulacea	506.61	2694	 	36.78397	-122.20087	1676152	0.75	2005-07-27 17:07:08.0	Ventana	34.289	00:00:16:24	6.473	V2694-01
 	transect	Mesomyaria	1000.29	2669	 	36.73128	-122.240944	1689354	0.41	2005-05-25 19:33:41.0	Ventana	34.51	01:55:38:14	4.055	V2669-02
 	transect	Psolus squamatus	 	2687	 	 	 	1809895	 	2005-07-13 18:47:34.0	Ventana	 	02:13:20:12	 	V2687-03
 	transect	Mediaster	 	2687	 	 	 	1810430	 	2005-07-13 19:17:57.0	Ventana	 	02:43:41:15	 	V2687-03
 	transect	Phyllospadix	1000.03	2669	 	36.73095	-122.232605	1683789	0.45	2005-05-25 18:34:26.0	Ventana	34.521	00:56:51:17	3.911	V2669-01
 	transect	Stomphia	999.1	2669	 	36.731113	-122.234795	1684181	0.45	2005-05-25 18:48:03.0	Ventana	34.521	01:10:03:12	3.916	V2669-02
 	transect	molt	50.39	2681	 	36.69983	-122.05429	2485692	3.0	2005-07-07 16:37:42.0	Ventana	33.913	00:08:51:13	9.634	V2681-01HD
 	transect	Chionoecetes tanneri	801.28	2674	 	36.75227	-122.207275	1800048	0.37	2005-06-08 18:06:18.0	Ventana	34.48	00:50:50:10	4.378	V2674-01
 	transect	phialidium	500.56	2681	 	36.697353	-122.05305	2493453	0.44	2005-07-07 17:57:36.0	Ventana	34.346	01:27:58:06	6.02	V2681-02HD
 	descend	Appendicularia	364.28	2681	 	36.695568	-122.05123	1715056	1.02	2005-07-07 17:32:05.933	Ventana	34.256	01:02:29:18	7.091	V2681-02
 	descend	Typhloscolecidae	842.0	2683	http://search.mbari.org/ARCHIVE/frameGrabs/Ventana/images/2683/02_08_40_26.jpg	36.702854	-122.048416	1757222	0.33	2005-07-11 18:24:37.0	Ventana	34.484	02:08:40:26	4.414	V2683-02
 	ascend	Poeobius meseres	690.27	2681	 	36.69873	-122.054665	1717612	0.27	2005-07-07 20:21:48.9	Ventana	34.42	03:50:49:19	5.124	V2681-04
 	transect	Poeobius meseres	800.89	2681	 	36.695972	-122.05191	2498220	0.31	2005-07-07 18:58:18.0	Ventana	34.476	02:27:58:26	4.496	V2681-03HD
 	transect	Lycenchelys camchatica	800.63	2674	 	36.752106	-122.20845	1800754	0.35	2005-06-08 18:11:37.0	Ventana	34.49	00:56:08:13	4.324	V2674-01
 	transect	Chionoecetes tanneri	999.99	2669	 	36.73172	-122.24394	1734030	0.41	2005-05-25 19:49:45.0	Ventana	34.513	02:11:15:26	4.081	V2669-03
 	transect	Gastropoda	196.36	2696	 	36.803097	-122.12273	1813111	1.57	2005-08-01 17:07:33.0	Ventana	34.196	00:35:51:10	8.628	V2696-01
 	ascend	Appendicularia	521.13	2681	 	36.698963	-122.05425	1717737	0.45	2005-07-07 20:33:37.163	Ventana	34.343	04:02:37:04	6.068	V2681-04
 	descend	Chuniphyes	782.94	2682	 	36.69838	-122.059746	1721673	0.32	2005-07-08 18:34:32.0	Ventana	34.464	02:27:35:08	4.652	V2682-03
 	transect	Chionoecetes tanneri	799.54	2674	 	36.75154	-122.21421	1801349	0.35	2005-06-08 18:39:51.0	Ventana	34.489	01:23:54:28	4.335	V2674-02
 	cruise	Florometra	184.71	2676	 	36.80767	-122.02971	1676826	1.61	2005-06-14 17:47:22.0	Ventana	34.198	01:27:06:10	8.108	V2676-02
 	transect	cydippida	200.41	2681	 	36.698284	-122.05331	2490929	1.71	2005-07-07 17:09:55.0	Ventana	34.195	00:41:04:05	8.323	V2681-01HD
 	descend	Copepoda	604.35	2683	 	36.701946	-122.049034	1757019	0.35	2005-07-11 17:49:28.0	Ventana	34.369	01:33:35:12	5.764	V2683-02
 	ascend	Melanostigma pammelas	715.99	2682	 	36.698822	-122.05931	1723320	0.28	2005-07-08 20:30:55.0	Ventana	34.433	04:23:04:01	4.97	V2682-05
 	transect	Gastropoda	199.39	2696	 	36.803818	-122.1251	1813314	1.52	2005-08-01 17:33:40.0	Ventana	34.206	01:01:57:02	8.636	V2696-01
 	cruise	Ophiodon elongatus	105.56	2676	http://search.mbari.org/ARCHIVE/frameGrabs/Ventana/images/2676/02_18_45_01.jpg	36.809048	-122.03533	1677029	1.92	2005-06-14 18:39:59.0	Ventana	34.154	02:18:45:01	8.461	V2676-03
 	ascend	Nanomia	258.17	2681	 	36.697838	-122.05522	1719384	 	2005-07-07 21:29:59.0	Ventana	 	05:03:08:08	 	V2681-05
 	descend	Euphausiacea	307.11	2682	 	36.699432	-122.0607	1720090	1.15	2005-07-08 16:43:49.0	Ventana	34.239	00:37:52:18	7.303	V2682-01
 	transect	Mediaster	 	2687	 	 	 	1810633	 	2005-07-13 19:25:41.0	Ventana	 	02:51:24:17	 	V2687-03
 	transect	Phyllospadix	799.41	2674	 	36.75271	-122.20078	1774143	0.29	2005-06-08 17:32:29.0	Ventana	34.454	00:17:02:17	4.638	V2674-01
 	transect	Chionoecetes tanneri	999.47	2669	 	36.731205	-122.235825	1684384	0.44	2005-05-25 18:55:56.0	Ventana	34.521	01:17:56:20	3.935	V2669-02
 	transect	lobata	200.47	2681	 	36.69828	-122.05329	2490223	1.7	2005-07-07 17:05:58.0	Ventana	34.198	00:37:06:08	8.363	V2681-01HD
 	transect	Mesomyaria	999.36	2669	 	36.73076	-122.22951	1651124	0.45	2005-05-25 18:10:39.0	Ventana	34.523	00:33:06:24	3.906	V2669-01
 	transect	molt	100.5	2681	 	36.699203	-122.05389	2489831	2.13	2005-07-07 16:51:28.0	Ventana	34.068	00:22:37:28	9.141	V2681-01HD
 	descend	Appendicularia	444.66	2682	 	36.698326	-122.05966	1720764	0.58	2005-07-08 17:47:56.0	Ventana	34.317	01:41:26:12	6.336	V2682-02
 	transect	Phyllospadix	800.15	2674	http://search.mbari.org/ARCHIVE/frameGrabs/Ventana/images/2674/01_35_42_08.jpg	36.7512	-122.21656	1803435	0.35	2005-06-08 18:51:39.0	Ventana	34.487	01:35:42:08	4.359	V2674-02
 	transect	Ceriantharia sp. 2	1000.17	2669	 	36.73105	-122.2394	1689151	0.41	2005-05-25 19:23:46.0	Ventana	34.517	01:45:44:08	4.046	V2669-02
 	transect	Ophiuroidea	998.47	2669	 	36.731136	-122.2308	1683443	0.45	2005-05-25 18:20:57.0	Ventana	34.518	00:43:23:20	3.917	V2669-01
 	descend	Appendicularia	1039.11	2683	 	36.704865	-122.04926	1757411	0.47	2005-07-11 19:24:27.0	Ventana	34.532	03:04:49:08	3.872	V2683-03
 	transect	Psolus squamatus	 	2687	 	 	 	1810084	 	2005-07-13 18:55:15.0	Ventana	 	02:21:00:22	 	V2687-03
 	cruise	Sebastolobus	405.78	2688	 	36.806458	-122.01937	1677735	1.04	2005-07-14 17:50:30.0	Ventana	34.252	01:36:13:09	7.168	V2688-02
 	transect	Gastropoda sp.2	999.74	2669	 	36.73141	-122.236946	1694702	0.44	2005-05-25 19:05:53.0	Ventana	34.519	01:27:51:20	3.942	V2669-02
 	transect	Ceriantharia sp. 2	997.39	2669	 	36.730637	-122.228	1683346	0.45	2005-05-25 18:00:42.0	Ventana	34.522	00:23:10:02	3.908	V2669-01
 	ascend	Calycophorae	927.53	2682	 	36.697975	-122.058495	1723140	0.38	2005-07-08 20:12:21.0	Ventana	34.504	04:04:31:11	4.191	V2682-05
 	descend	Solmaris	504.96	2683	 	36.701496	-122.04917	1756839	0.68	2005-07-11 17:37:39.0	Ventana	34.306	01:21:45:17	6.462	V2683-02
 	transect	Mesomyaria	999.78	2669	 	36.731342	-122.23792	1687568	0.44	2005-05-25 19:14:10.0	Ventana	34.52	01:36:08:16	3.94	V2669-02
 	transect	Mediaster	 	2687	 	 	 	1812216	 	2005-07-13 20:29:20.0	Ventana	 	03:54:18:11	 	V2687-04
 	transect	Nanomia bijuga	200.39	2681	 	36.698303	-122.053375	2491155	1.68	2005-07-07 17:12:20.0	Ventana	34.198	00:43:26:26	8.337	V2681-01HD
 	transect	chuniphyes	901.03	2681	 	36.69591	-122.051865	2498386	0.39	2005-07-07 19:11:28.0	Ventana	34.505	02:41:09:21	4.171	V2681-03HD
 	cruise	Appendicularia	293.37	2676	 	36.80512	-122.02918	1676683	1.45	2005-06-14 17:27:03.0	Ventana	34.214	01:06:48:17	7.881	V2676-02
 	descend	Dosidicus gigas	624.15	2682	 	36.698624	-122.05982	1721267	0.29	2005-07-08 18:08:28.0	Ventana	34.397	02:01:34:08	5.369	V2682-03
 	ascend	Nanomia	183.09	2693	 	36.690613	-122.06292	1759234	1.93	2005-07-25 21:29:31.0	Ventana	34.138	03:54:02:19	8.863	V2693-04
 	transect	Neptunea amianta	999.93	2669	 	36.73259	-122.25079	1737034	0.4	2005-05-25 20:37:55.0	Ventana	34.51	02:59:24:25	4.076	V2669-03
 	transect	Phyllospadix	800.82	2674	 	36.752537	-122.20163	1799074	0.34	2005-06-08 17:36:33.0	Ventana	34.487	00:21:07:02	4.415	V2674-01
 	ascend	Aegina	464.78	2682	 	36.698338	-122.06305	1723708	0.59	2005-07-08 21:17:35.0	Ventana	34.306	05:09:16:07	6.323	V2682-06
 	transect	Mesomyaria	1000.09	2669	 	36.73118	-122.24041	1689257	0.41	2005-05-25 19:30:03.0	Ventana	34.51	01:52:01:15	4.06	V2669-02
 	transect	Mesomyaria	998.54	2669	 	36.731064	-122.23035	1651290	0.45	2005-05-25 18:17:14.0	Ventana	34.522	00:39:40:26	3.91	V2669-01
 	descend	Aegina	1001.9	2682	 	36.69832	-122.05923	1722019	0.44	2005-07-08 18:58:47.0	Ventana	34.521	02:51:48:23	3.983	V2682-03
 	cruise	Actiniaria	498.69	2695	 	36.784428	-122.20024	1824421	0.9	2005-07-28 17:04:40.0	Ventana	34.264	00:11:02:11	6.716	V2695-01
 	transect	Mesomyaria	801.05	2674	 	36.752132	-122.20816	1800717	0.35	2005-06-08 18:10:24.0	Ventana	34.489	00:54:55:15	4.328	V2674-01
 	descend	Bathocyroe	1079.38	2682	 	36.698307	-122.059166	1722065	0.52	2005-07-08 19:05:39.0	Ventana	34.541	02:58:41:15	3.734	V2682-03
 	transect	Ceriantharia sp. 1	598.29	2680	 	36.7814	-122.22646	1804985	0.36	2005-06-27 18:36:05.0	Ventana	34.378	01:15:10:20	5.598	V2680-02
 	cruise	Parastichopus	354.81	2688	 	36.807617	-122.01975	1677758	1.17	2005-07-14 17:56:27.0	Ventana	34.236	01:42:10:01	7.433	V2688-02
 	ascend	Copepoda	736.72	2681	 	36.69873	-122.055504	1717552	0.26	2005-07-07 20:16:24.247	Ventana	34.442	03:45:25:24	4.858	V2681-04
 	transect	Phyllospadix	 	2687	 	 	 	1810896	 	2005-07-13 19:41:42.0	Ventana	 	03:06:44:00	 	V2687-04
 	transect	Gastropoda sp.2	1000.87	2669	 	36.73229	-122.24919	1736282	0.41	2005-05-25 20:27:16.0	Ventana	34.51	02:48:44:12	4.073	V2669-03
 	cruise	mud	97.89	2675	 	36.750988	-122.22278	1803864	1.8	2005-06-08 22:17:09.0	Ventana	34.105	02:07:26:28	8.438	V2675-01
 	transect	Mediaster	 	2687	 	 	 	1807011	 	2005-07-13 16:54:31.0	Ventana	 	00:21:26:05	 	V2687-01
 	transect	Psolus squamatus	 	2687	 	 	 	1809023	 	2005-07-13 17:33:51.0	Ventana	 	01:00:43:11	 	V2687-01
 	transect	Porifera sp. 1	 	2687	 	 	 	1807057	 	2005-07-13 16:56:50.0	Ventana	 	00:23:44:11	 	V2687-01
 	transect	Praya	50.43	2681	 	36.699825	-122.05429	2485567	2.97	2005-07-07 16:35:31.0	Ventana	33.919	00:06:40:10	9.619	V2681-01HD
 	transect	Lycenchelys camchatica	802.09	2674	 	36.752247	-122.20662	1799965	0.37	2005-06-08 18:03:06.0	Ventana	34.489	00:47:38:16	4.322	V2674-01
 	transect	Allocentrotus fragilis	 	2687	 	 	 	1811279	 	2005-07-13 20:05:34.0	Ventana	 	03:30:33:21	 	V2687-04
 	transect	Mediaster	 	2687	 	 	 	1811847	 	2005-07-13 20:27:01.0	Ventana	 	03:51:59:15	 	V2687-04
 	transect	Chionoecetes tanneri	999.39	2669	 	36.730995	-122.23173	1683669	0.45	2005-05-25 18:28:39.1	Ventana	34.521	00:51:05:12	3.913	V2669-01
 	descend	Appendicularia	316.31	2683	 	36.701138	-122.050125	1756516	1.23	2005-07-11 16:54:36.0	Ventana	34.244	00:42:15:18	7.58	V2683-01
 	transect	Stomphia	598.88	2680	 	36.780212	-122.22526	1804616	0.35	2005-06-27 18:20:14.0	Ventana	34.382	01:00:19:12	5.563	V2680-01
 	ascend	Appendicularia	655.3	2683	 	36.70529	-122.04985	1757914	0.28	2005-07-11 21:08:50.0	Ventana	34.422	04:41:43:05	5.161	V2683-05
 	descend	Solmissus	253.16	2682	http://search.mbari.org/ARCHIVE/frameGrabs/Ventana/images/2682/00_17_47_25.jpg	36.699856	-122.06082	1719993	1.39	2005-07-08 16:23:43.0	Ventana	34.233	00:17:47:25	7.895	V2682-01
 	transect	Psolus squamatus	 	2687	 	 	 	1810144	 	2005-07-13 19:00:08.0	Ventana	 	02:25:53:20	 	V2687-03
 	transect	Calycophorae	400.72	2681	 	36.697914	-122.05363	2493227	0.79	2005-07-07 17:50:05.0	Ventana	34.279	01:20:28:28	6.66	V2681-02HD
 	transect	Mesomyaria	800.66	2674	 	36.75113	-122.21722	1803481	0.35	2005-06-08 18:54:42.0	Ventana	34.491	01:38:44:24	4.331	V2674-02
 	transect	Ophiuroidea	999.25	2669	 	36.730484	-122.228714	1650921	0.45	2005-05-25 18:04:55.0	Ventana	34.522	00:27:23:16	3.906	V2669-01
 	transect	Allocentrotus fragilis	 	2687	 	 	 	1812539	 	2005-07-13 20:44:35.0	Ventana	 	04:09:05:20	 	V2687-05
 	descend	Chaetognatha	217.38	2693	 	36.69613	-122.0582	1758343	1.69	2005-07-25 18:27:55.0	Ventana	34.195	01:08:00:08	8.607	V2693-02
 	transect	Rathbunaster californicus	201.28	2696	 	36.805256	-122.12819	1813614	1.5	2005-08-01 18:06:09.0	Ventana	34.21	01:34:01:13	8.67	V2696-02
 	transect	Psolus squamatus	399.86	2687	http://search.mbari.org/ARCHIVE/frameGrabs/Ventana/images/2687/01_02_12_24.jpg	36.788044	-122.12152	1809083	1.14	2005-07-13 17:35:50.0	Ventana	34.237	01:02:12:24	7.276	V2687-02
 	descend	Appendicularia	903.46	2683	 	36.70339	-122.048325	1757268	0.38	2005-07-11 18:37:17.0	Ventana	34.499	02:17:39:29	4.225	V2683-03
 	descend	Appendicularia	808.11	2682	 	36.698345	-122.0596	1721696	0.31	2005-07-08 18:39:56.0	Ventana	34.471	02:32:59:25	4.534	V2682-03
 	transect	Stomphia	 	2687	 	 	 	1811219	 	2005-07-13 20:03:57.0	Ventana	 	03:28:57:02	 	V2687-04
 	descend	Haliscera	541.74	2682	 	36.698616	-122.05977	1720884	0.36	2005-07-08 18:04:17.0	Ventana	34.366	01:57:46:00	5.742	V2682-02
 	transect	Mesomyaria	799.43	2674	 	36.75246	-122.20513	1799720	0.36	2005-06-08 17:55:32.0	Ventana	34.485	00:40:04:17	4.357	V2674-01
 	transect	Psolus squamatus	 	2687	http://search.mbari.org/ARCHIVE/frameGrabs/Ventana/images/2687/03_40_03_15.jpg	 	 	1811524	 	2005-07-13 20:15:04.0	Ventana	 	03:40:03:15	 	V2687-04
 	descend	Appendicularia	349.43	2682	 	36.698612	-122.06041	1720316	1.02	2005-07-08 17:19:28.0	Ventana	34.256	01:12:59:07	7.105	V2682-02
 	descend	Hormiphora	221.83	2683	 	36.70099	-122.050735	1756410	1.7	2005-07-11 16:48:44.0	Ventana	34.195	00:36:24:07	8.253	V2683-01
 	transect	Porifera	 	2687	 	 	 	1810956	 	2005-07-13 19:44:01.0	Ventana	 	03:09:02:20	 	V2687-04
 	transect	molt	100.5	2681	 	36.699825	-122.05429	2489711	2.13	2005-07-07 16:48:27.0	Ventana	34.067	00:19:36:12	9.151	V2681-01HD
 	transect	Neptunea amianta	600.43	2680	 	36.786392	-122.231026	1805876	0.36	2005-06-27 19:38:06.0	Ventana	34.379	02:16:45:13	5.599	V2680-03
 	transect	Microstomus pacificus	 	2687	 	 	 	1810204	 	2005-07-13 19:09:06.0	Ventana	 	02:34:50:27	 	V2687-03
 	ascend	Prayidae	446.61	2683	 	36.70423	-122.050575	1758020	0.78	2005-07-11 21:18:23.0	Ventana	34.284	04:51:14:04	6.677	V2683-05
 	transect	Actiniaria sp. 3	 	2687	 	 	 	1808640	 	2005-07-13 17:25:53.0	Ventana	 	00:52:46:03	 	V2687-01
 	transect	Stomphia	1000.38	2669	 	36.73147	-122.24223	1694476	0.4	2005-05-25 19:40:41.0	Ventana	34.509	02:02:38:02	4.067	V2669-02
 	transect	Neptunea amianta	800.8	2674	 	36.751743	-122.21124	1801100	0.35	2005-06-08 18:25:10.0	Ventana	34.488	01:09:14:29	4.345	V2674-02
 	transect	Psolus squamatus	 	2687	 	 	 	1807703	 	2005-07-13 17:23:25.0	Ventana	 	00:50:18:07	 	V2687-01
 	transect	Ophiuroidea	998.94	2669	 	36.731403	-122.23647	1684790	0.44	2005-05-25 19:01:31.0	Ventana	34.52	01:23:31:02	3.941	V2669-02
 	transect	Appendicularia	300.45	2681	 	36.697926	-122.05331	2492106	1.24	2005-07-07 17:21:47.0	Ventana	34.234	00:52:54:24	7.402	V2681-01HD
 	transect	Phyllospadix	999.88	2669	 	36.731297	-122.23819	1688828	0.43	2005-05-25 19:16:07.0	Ventana	34.518	01:38:05:10	3.954	V2669-02
 	ascend	Chaetognatha	524.99	2682	 	36.698303	-122.06296	1723648	0.44	2005-07-08 21:11:21.0	Ventana	34.345	05:03:03:00	6.033	V2682-06
 	ascend	Chaetognatha	344.92	2693	 	36.693752	-122.061165	1758911	1.25	2005-07-25 21:05:58.0	Ventana	34.236	03:30:30:13	7.399	V2693-04
 	descend	Nanomia	282.18	2682	 	36.699684	-122.060844	1720053	1.31	2005-07-08 16:35:56.0	Ventana	34.229	00:29:59:21	7.618	V2682-01
 	transect	Ophiuroidea	1000.3	2669	 	36.731228	-122.240906	1689317	0.41	2005-05-25 19:33:01.0	Ventana	34.511	01:54:59:00	4.058	V2669-02
 	cruise	Chionoecetes tanneri	1237.13	2683	 	36.70567	-122.04806	1757531	0.72	2005-07-11 19:48:44.0	Ventana	34.575	03:23:08:29	3.345	V2683-04
 	cruise	bacterial mat	1016.45	2689	http://search.mbari.org/ARCHIVE/frameGrabs/Ventana/images/2689/00_20_26_06.jpg	36.771564	-122.08295	20005349	0.52	2005-07-18 16:57:24.0	Ventana	34.538	00:20:26:06	3.808	V2689-01
 	transect	Phyllospadix	204.03	2696	 	36.80586	-122.12928	1813720	1.49	2005-08-01 18:19:55.0	Ventana	34.211	01:47:46:22	8.628	V2696-02
 	transect	chuniphyes	901.01	2681	 	36.695465	-122.0513	2498446	0.39	2005-07-07 19:13:34.0	Ventana	34.505	02:43:15:06	4.171	V2681-03HD
 	descend	Appendicularia	523.13	2683	 	36.70146	-122.04914	1756899	0.59	2005-07-11 17:41:36.0	Ventana	34.324	01:25:43:14	6.308	V2683-02
 	transect	Nanomia bijuga	200.41	2681	 	36.698296	-122.05335	2491095	1.69	2005-07-07 17:11:46.0	Ventana	34.198	00:42:53:14	8.335	V2681-01HD
 	ascend	Polychaeta	590.9	2682	 	36.69879	-122.060745	1723463	0.4	2005-07-08 20:47:34.0	Ventana	34.372	04:39:40:28	5.67	V2682-05
 	cruise	Holothuroidea	612.28	2688	 	36.795246	-122.01904	1677329	0.45	2005-07-14 16:33:24.0	Ventana	34.39	00:19:43:28	5.505	V2688-01
 	transect	Gastropoda sp.2	999.95	2669	 	36.731026	-122.23961	1694739	0.41	2005-05-25 19:24:50.0	Ventana	34.511	01:46:48:12	4.064	V2669-02
 	transect	Nanomia bijuga	200.44	2681	 	36.69828	-122.05329	2490080	1.7	2005-07-07 17:04:34.0	Ventana	34.197	00:35:43:09	8.362	V2681-01HD
 	cruise	Sebastolobus	541.63	2688	 	36.79812	-122.01969	1677435	0.62	2005-07-14 17:00:43.0	Ventana	34.322	00:47:01:04	6.264	V2688-01
 	stationary	Appendicularia	504.18	2695	 	36.784657	-122.20049	1824481	0.67	2005-07-28 18:58:09.0	Ventana	34.297	04:04:24:27	6.29	V2695-02
 	transect	Aegina	700.63	2681	 	36.697617	-122.05348	2497634	0.29	2005-07-07 18:37:09.0	Ventana	34.432	02:06:51:19	4.981	V2681-03HD
 	cruise	Stylasterias	102.43	2688	 	36.81477	-122.0164	1679262	1.97	2005-07-14 19:38:39.233	Ventana	34.086	03:23:26:21	8.891	V2688-04
 	ascend	Melanostigma pammelas	335.36	2681	 	36.699497	-122.05526	1718120	1.16	2005-07-07 20:54:43.467	Ventana	34.242	04:23:04:07	7.303	V2681-05
 	cruise	Parastichopus	361.01	2676	 	36.804573	-122.02906	1676498	0.96	2005-06-14 16:46:23.3	Ventana	34.268	00:30:31:03	7.072	V2676-01
 	cruise	mud	 	2673	 	 	 	1668391	 	 	Ventana	 	00:21:08:22	 	V2673-01
 	ascend	Solmissus	257.42	2681	 	36.69796	-122.05499	1719241	1.46	2005-07-07 21:26:27.867	Ventana	34.223	04:54:47:06	7.984	V2681-05
 	transect	Mediaster	 	2687	 	 	 	1809835	 	2005-07-13 18:45:07.0	Ventana	 	02:10:53:08	 	V2687-03
 	descend	Aegina	808.48	2683	 	36.702667	-122.04875	1757162	0.36	2005-07-11 18:01:54.0	Ventana	34.471	01:45:58:21	4.542	V2683-02
 	transect	Lycenchelys camchatica	800.25	2674	 	36.752537	-122.20347	1799337	0.35	2005-06-08 17:46:08.0	Ventana	34.486	00:30:40:29	4.368	V2674-01
 	transect	Mesomyaria	998.77	2669	 	36.73287	-122.25199	1737297	0.4	2005-05-25 20:44:53.0	Ventana	34.509	03:05:42:10	4.073	V2669-04
 	transect	Rathbunaster californicus	203.58	2696	 	36.806564	-122.13014	1813780	1.48	2005-08-01 18:29:31.0	Ventana	34.218	01:57:22:07	8.652	V2696-02
 	transect	Periphylla periphylla	800.94	2681	 	36.695347	-122.05116	2498123	0.31	2005-07-07 18:55:17.0	Ventana	34.475	02:24:58:05	4.491	V2681-03HD
 	transect	molt	100.54	2681	 	36.69983	-122.05429	2489591	2.12	2005-07-07 16:45:38.0	Ventana	34.068	00:16:47:15	9.15	V2681-01HD
 	descend	Prayidae	716.86	2683	 	36.70219	-122.048935	1757102	0.3	2005-07-11 17:55:32.0	Ventana	34.428	01:39:38:21	4.974	V2683-02
 	cruise	Pannychia moseleyi	434.16	2688	 	36.805237	-122.019	1677698	0.92	2005-07-14 17:45:27.0	Ventana	34.27	01:31:10:10	6.923	V2688-02
 	transect	Mediaster	 	2687	 	 	 	1812479	 	2005-07-13 20:41:04.0	Ventana	 	04:06:01:09	 	V2687-04
 	descend	Copepoda	1182.57	2682	 	36.698288	-122.058	1722328	0.66	2005-07-08 19:39:54.0	Ventana	34.569	03:32:29:25	3.414	V2682-04
 	transect	Psolus squamatus	 	2687	 	 	 	1812659	 	2005-07-13 20:50:02.0	Ventana	 	04:14:32:27	 	V2687-05
 	transect	Nanomia bijuga	200.43	2681	 	36.69828	-122.05329	2490140	1.7	2005-07-07 17:05:08.0	Ventana	34.197	00:36:15:28	8.358	V2681-01HD
 	descend	Nanomia	390.54	2681	 	36.695557	-122.05119	1715093	0.86	2005-07-07 17:32:59.7	Ventana	34.259	01:03:23:24	6.794	V2681-02
 	cruise	Porifera	100.97	2676	 	36.808186	-122.03783	1677126	1.98	2005-06-14 19:00:16.0	Ventana	34.149	02:39:02:20	8.482	V2676-03
 	ascend	Copepoda	768.11	2681	 	36.69865	-122.05616	1717492	0.28	2005-07-07 20:09:51.36	Ventana	34.452	03:38:53:09	4.767	V2681-04
 	transect	Mesomyaria	800.24	2674	 	36.751263	-122.21591	1803375	0.35	2005-06-08 18:48:54.0	Ventana	34.489	01:32:57:19	4.36	V2674-02
 	cruise	Sebastes rubrivinctus	98.82	2688	 	36.81322	-122.02012	1679525	1.94	2005-07-14 21:28:03.0	Ventana	34.106	05:12:15:18	8.884	V2688-05
 	descend	Cydippida	188.22	2683	 	36.701035	-122.05108	1756350	1.69	2005-07-11 16:42:36.0	Ventana	34.168	00:30:17:21	8.531	V2683-01
 	ascend	Calycophorae	623.54	2682	 	36.69887	-122.05982	1723403	0.39	2005-07-08 20:37:35.0	Ventana	34.39	04:29:43:10	5.465	V2682-05
 	transect	Lycenchelys camchatica	798.9	2674	 	36.751747	-122.21246	1801206	0.35	2005-06-08 18:29:43.0	Ventana	34.49	01:13:47:18	4.33	V2674-02
 	transect	Poeobius meseres	1000.99	2681	 	36.695843	-122.05198	2498649	0.48	2005-07-07 19:27:08.0	Ventana	34.532	02:56:47:25	3.866	V2681-03HD
 	transect	Phyllospadix	200.16	2696	 	36.80504	-122.1278	1813554	1.51	2005-08-01 17:59:20.0	Ventana	34.211	01:27:12:28	8.675	V2696-02
 	descend	Appendicularia	660.92	2682	 	36.698647	-122.059944	1721373	0.28	2005-07-08 18:10:59.0	Ventana	34.411	02:04:04:11	5.22	V2682-03
 	transect	Mesomyaria	999.92	2669	 	36.731968	-122.24624	1735650	0.41	2005-05-25 20:06:20.0	Ventana	34.509	02:27:49:19	4.063	V2669-03
 	descend	Appendicularia	370.66	2693	 	36.69646	-122.06042	1758606	1.2	2005-07-25 20:12:32.0	Ventana	34.231	02:52:05:19	7.164	V2693-03
 	ascend	Appendicularia	914.45	2682	 	36.69813	-122.05845	1723200	0.37	2005-07-08 20:13:36.0	Ventana	34.5	04:05:46:21	4.235	V2682-05
 	descend	Appendicularia	490.4	2683	 	36.701504	-122.04936	1756779	0.71	2005-07-11 17:23:46.0	Ventana	34.298	01:07:53:19	6.536	V2683-02
 	transect	Rathbunaster californicus	199.9	2696	 	36.80427	-122.126114	1813411	1.52	2005-08-01 17:44:06.0	Ventana	34.208	01:11:59:23	8.662	V2696-02
 	descend	Hormiphora	239.36	2681	 	36.69856	-122.053535	1713593	1.46	2005-07-07 17:15:44.627	Ventana	34.224	00:46:52:11	8.117	V2681-01
 	transect	Phyllospadix	800.98	2674	 	36.75259	-122.201904	1799134	0.34	2005-06-08 17:38:27.0	Ventana	34.491	00:23:00:21	4.389	V2674-01
 	descend	Chaetognatha	950.06	2683	 	36.703827	-122.04855	1757328	0.41	2005-07-11 19:09:48.0	Ventana	34.518	02:50:10:20	4.052	V2683-03
 	descend	Poeobius meseres	1109.88	2683	 	36.705116	-122.048904	1757471	0.59	2005-07-11 19:30:18.0	Ventana	34.546	03:10:40:05	3.654	V2683-03
 	transect	Phyllospadix	798.83	2674	 	36.751366	-122.21513	1801409	0.35	2005-06-08 18:44:39.0	Ventana	34.49	01:28:42:13	4.338	V2674-02
 	ascend	Poeobius meseres	935.13	2681	 	36.69763	-122.05409	1716966	0.41	2005-07-07 19:43:24.323	Ventana	34.513	03:12:27:27	4.079	V2681-04
 	descend	Appendicularia	384.3	2682	 	36.69842	-122.05991	1720681	0.93	2005-07-08 17:35:42.0	Ventana	34.265	01:29:14:04	6.945	V2682-02
 	transect	Phyllospadix	800.35	2674	 	36.75205	-122.20895	1800837	0.35	2005-06-08 18:14:12.0	Ventana	34.49	00:58:43:26	4.329	V2674-01
 	cruise	Chionoecetes tanneri	1210.4	2683	 	36.706764	-122.047615	1757651	0.72	2005-07-11 20:13:05.0	Ventana	34.575	03:47:27:04	3.343	V2683-04
 	transect	Nanomia bijuga	400.81	2681	 	36.696148	-122.051605	2492964	0.79	2005-07-07 17:42:37.0	Ventana	34.277	01:13:00:12	6.661	V2681-02HD
 	cruise	LRJ Complex	517.9	2688	 	36.80009	-122.01897	1677495	0.66	2005-07-14 17:10:06.0	Ventana	34.314	00:56:23:03	6.366	V2688-01
 	transect	Rathbunaster californicus	197.91	2696	 	36.80357	-122.12413	1813231	1.54	2005-08-01 17:23:47.0	Ventana	34.203	00:52:04:11	8.609	V2696-01
 	transect	molt	100.48	2681	 	36.69973	-122.05423	2489771	2.13	2005-07-07 16:50:11.0	Ventana	34.067	00:21:20:12	9.159	V2681-01HD
 	transect	Phyllospadix	999.79	2669	 	36.730556	-122.228966	1651027	0.45	2005-05-25 18:06:27.0	Ventana	34.523	00:28:55:10	3.906	V2669-01
 	transect	Mesomyaria	1000.06	2669	 	36.73142	-122.23684	1686982	0.44	2005-05-25 19:04:55.0	Ventana	34.519	01:26:54:07	3.94	V2669-02
 	transect	Mesomyaria	1000.18	2669	 	36.731663	-122.24378	1733947	0.41	2005-05-25 19:48:48.0	Ventana	34.509	02:10:20:21	4.064	V2669-03
 	ascend	Euphausiacea	264.77	2681	 	36.69894	-122.05638	1718752	1.42	2005-07-07 21:17:49.333	Ventana	34.228	04:46:08:20	7.94	V2681-05
 	transect	Umbellula lindahli	599.69	2680	 	36.777576	-122.2226	1804293	0.36	2005-06-27 17:47:46.0	Ventana	34.379	00:27:53:08	5.586	V2680-01
 	transect	Euphausia	200.4	2681	 	36.698288	-122.05333	2491035	1.7	2005-07-07 17:11:06.0	Ventana	34.196	00:42:12:20	8.332	V2681-01HD
 	transect	Poeobius meseres	600.58	2681	 	36.696262	-122.05186	2493716	0.3	2005-07-07 18:21:13.0	Ventana	34.387	01:51:33:25	5.489	V2681-02HD
 	transect	Phyllospadix	1000.12	2669	 	36.73176	-122.2449	1734473	0.4	2005-05-25 19:55:42.0	Ventana	34.508	02:17:12:17	4.072	V2669-03
 	cruise	Pasiphaea	342.23	2688	 	36.807922	-122.02012	1677818	1.21	2005-07-14 18:06:28.733	Ventana	34.232	01:52:10:29	7.502	V2688-02
 	transect	Mesomyaria	999.44	2669	 	36.73133	-122.23592	1684481	0.44	2005-05-25 18:57:06.0	Ventana	34.52	01:19:05:22	3.936	V2669-02
 	descend	Appendicularia	401.51	2681	 	36.698006	-122.053734	1715296	0.79	2005-07-07 17:50:35.787	Ventana	34.277	01:20:58:24	6.661	V2681-02
 	ascend	Poeobius meseres	389.57	2681	 	36.699326	-122.05458	1718000	0.92	2005-07-07 20:48:50.833	Ventana	34.269	04:17:11:29	6.952	V2681-05
 	cruise	Rathbunaster californicus	417.42	2676	 	36.803764	-122.02921	1676438	0.68	2005-06-14 16:42:58.0	Ventana	34.309	00:27:06:26	6.494	V2676-01
 	ascend	Calycophorae	305.34	2681	 	36.699677	-122.05525	1718180	1.29	2005-07-07 20:58:48.407	Ventana	34.232	04:27:08:28	7.589	V2681-05
 	ascend	sinker	1147.37	2682	 	36.698223	-122.05748	1722508	0.62	2005-07-08 19:55:04.0	Ventana	34.561	03:47:40:27	3.509	V2682-04
 	transect	Calycophorae	300.41	2681	 	36.695843	-122.05145	2492595	1.24	2005-07-07 17:29:11.0	Ventana	34.232	01:00:17:08	7.431	V2681-01HD
 	transect	Mediaster	 	2687	 	 	 	1812276	 	2005-07-13 20:30:28.0	Ventana	 	03:55:26:17	 	V2687-04
 	ascend	Aegina	867.81	2681	 	36.698437	-122.05547	1717349	0.35	2005-07-07 19:53:02.233	Ventana	34.5	03:22:05:07	4.309	V2681-04
 	transect	Stomphia	 	2687	 	 	 	1807500	 	2005-07-13 17:12:42.0	Ventana	 	00:39:35:01	 	V2687-01
 	transect	Ophiuroidea	999.58	2669	 	36.7314	-122.23757	1687508	0.44	2005-05-25 19:11:17.0	Ventana	34.52	01:33:16:19	3.942	V2669-02
 	descend	Myctophidae	585.89	2682	 	36.69865	-122.05982	1721207	0.33	2005-07-08 18:07:04.0	Ventana	34.379	02:00:09:02	5.538	V2682-03
 	transect	Ceriantharia sp. 1	602.48	2680	 	36.790173	-122.23267	1806748	0.35	2005-06-27 20:17:07.0	Ventana	34.38	02:55:43:20	5.586	V2680-03
 	transect	Mediaster	 	2687	 	 	 	1811727	 	2005-07-13 20:22:39.0	Ventana	 	03:47:37:25	 	V2687-04
 	transect	Nanomia bijuga	200.38	2681	 	36.69831	-122.0534	2491215	1.68	2005-07-07 17:12:48.0	Ventana	34.2	00:43:55:24	8.337	V2681-01HD
 	transect	chuniphyes	901.04	2681	 	36.696033	-122.05201	2498326	0.39	2005-07-07 19:10:54.0	Ventana	34.504	02:40:35:05	4.175	V2681-03HD
 	cruise	Parastichopus	247.6	2676	 	36.805725	-122.02947	1676743	1.57	2005-06-14 17:37:38.0	Ventana	34.2	01:17:22:14	8.033	V2676-02
 	cruise	line	107.08	2688	http://search.mbari.org/ARCHIVE/frameGrabs/Ventana/images/2688/02_33_18_06.jpg	36.811394	-122.02267	1678021	1.95	2005-07-14 18:48:08.0	Ventana	34.091	02:33:18:06	8.89	V2688-03
 	transect	Nanomia bijuga	200.46	2681	 	36.69828	-122.05329	2490666	1.72	2005-07-07 17:08:09.0	Ventana	34.194	00:39:16:29	8.323	V2681-01HD
 	transect	Mesomyaria	1000.51	2669	 	36.732193	-122.248505	1736222	0.41	2005-05-25 20:22:39.0	Ventana	34.51	02:44:09:04	4.061	V2669-03
 	transect	haliscera	700.63	2681	 	36.69621	-122.05212	2497754	0.28	2005-07-07 18:42:59.0	Ventana	34.435	02:12:41:29	4.951	V2681-03HD
 	ascend	sinker	730.45	2683	 	36.706093	-122.04862	1757854	0.3	2005-07-11 21:04:23.0	Ventana	34.454	04:37:15:14	4.724	V2683-05
 	transect	Parastichopus leukothele	195.88	2696	 	36.80265	-122.12169	1813028	1.52	2005-08-01 16:56:52.0	Ventana	34.204	00:25:11:18	8.578	V2696-01
 	transect	Neptunea amianta	802.0	2674	 	36.751785	-122.210724	1801040	0.35	2005-06-08 18:23:04.0	Ventana	34.489	01:07:09:01	4.322	V2674-02
 	transect	Halipteris californica	599.74	2680	 	36.783287	-122.228676	1805368	0.36	2005-06-27 19:05:40.0	Ventana	34.376	01:44:44:17	5.591	V2680-02
 	transect	Sebastolobus	 	2687	 	 	 	1808700	 	2005-07-13 17:27:29.0	Ventana	 	00:54:21:07	 	V2687-01
 	transect	Mesomyaria	999.52	2669	 	36.731003	-122.23233	1683729	0.45	2005-05-25 18:31:36.0	Ventana	34.519	00:54:02:17	3.923	V2669-01
 	transect	Sebastes diploproa	 	2687	 	 	 	1809978	 	2005-07-13 18:49:21.0	Ventana	 	02:15:07:08	 	V2687-03
 	descend	Appendicularia	872.8	2682	 	36.6983	-122.05943	1721756	0.33	2005-07-08 18:49:37.0	Ventana	34.489	02:42:39:08	4.358	V2682-03
 	transect	Phyllospadix	800.39	2674	 	36.752426	-122.20473	1799660	0.36	2005-06-08 17:53:19.0	Ventana	34.488	00:37:51:15	4.355	V2674-01
 	transect	Appendicularia	400.76	2681	 	36.69754	-122.05323	2493167	0.79	2005-07-07 17:48:33.0	Ventana	34.277	01:18:56:21	6.66	V2681-02HD
 	descend	Chuniphyes	359.59	2683	 	36.701344	-122.04987	1756576	1.14	2005-07-11 16:57:04.0	Ventana	34.237	00:44:44:08	7.148	V2683-01
 	transect	Chionoecetes tanneri	800.66	2674	 	36.75105	-122.21798	1803541	0.34	2005-06-08 18:58:06.0	Ventana	34.486	01:42:08:25	4.37	V2674-02
 	transect	Halipteris californica	598.56	2680	 	36.78083	-122.225815	1804819	0.35	2005-06-27 18:27:56.0	Ventana	34.38	01:07:02:23	5.57	V2680-02
 	transect	Ceriantharia sp. 1	602.11	2680	 	36.791096	-122.232895	1806831	0.35	2005-06-27 20:25:06.0	Ventana	34.378	03:03:42:03	5.588	V2680-03
 	transect	Psolus squamatus	399.86	2687	 	36.788113	-122.12162	1809226	1.13	2005-07-13 17:37:21.0	Ventana	34.243	01:03:43:12	7.255	V2687-02
 	transect	Porifera sp. 1	 	2687	 	 	 	1811076	 	2005-07-13 19:51:40.0	Ventana	 	03:16:41:15	 	V2687-04
 	transect	Psolus squamatus	 	2687	 	 	 	1811099	 	2005-07-13 19:53:03.0	Ventana	 	03:18:03:23	 	V2687-04
 	cruise	slope	197.27	2688	 	36.81046	-122.02127	1677961	1.73	2005-07-14 18:35:09.0	Ventana	34.16	02:20:24:28	8.692	V2688-03
 	transect	Lycenchelys camchatica	800.22	2674	 	36.75248	-122.2045	1799600	0.35	2005-06-08 17:52:12.0	Ventana	34.485	00:36:45:11	4.38	V2674-01
 	transect	Phyllospadix	199.97	2696	 	36.804646	-122.126976	1813494	1.51	2005-08-01 17:52:42.0	Ventana	34.211	01:20:35:06	8.67	V2696-02
 	ascend	Lobata	270.49	2681	 	36.699715	-122.0549	1718323	1.4	2005-07-07 21:04:09.49	Ventana	34.227	04:32:29:05	7.846	V2681-05
 	transect	Phyllospadix	1000.03	2669	 	36.731018	-122.23311	1683872	0.45	2005-05-25 18:37:33.0	Ventana	34.523	00:59:58:13	3.91	V2669-01
 	descend	Chaetognatha	163.66	2683	 	36.70068	-122.0516	1756290	1.7	2005-07-11 16:27:34.0	Ventana	34.171	00:15:14:24	8.76	V2683-01
 	transect	Antimora microlepis	800.6	2674	 	36.751953	-122.20956	1800920	0.35	2005-06-08 18:17:41.0	Ventana	34.49	01:01:46:05	4.325	V2674-02
 	cruise	Merluccius productus	 	2676	 	 	 	1677209	 	2005-06-14 19:32:12.0	Ventana	 	03:10:56:03	 	V2676-03
 	ascend	Crustacea	370.93	2693	 	36.69659	-122.0606	1758708	1.2	2005-07-25 20:30:17.0	Ventana	34.234	03:09:49:23	7.177	V2693-03
 	transect	molt	100.49	2681	 	36.698997	-122.05376	2489854	2.12	2005-07-07 16:51:56.0	Ventana	34.07	00:23:06:01	9.148	V2681-01HD
 	descend	Poeobius meseres	613.93	2681	 	36.69794	-122.053856	1715928	0.3	2005-07-07 18:29:15.833	Ventana	34.389	01:59:36:14	5.43	V2681-02
 	descend	Copepoda	1010.77	2683	 	36.704174	-122.050224	1757388	0.44	2005-07-11 19:20:38.0	Ventana	34.522	03:00:58:22	3.983	V2683-03
 	ascend	Nanomia	259.45	2681	 	36.698788	-122.0569	1719075	1.42	2005-07-07 21:22:06.8	Ventana	34.23	04:50:25:26	7.96	V2681-05
 	descend	Bolinopsis	425.49	2682	 	36.69818	-122.059784	1720741	0.69	2005-07-08 17:41:42.0	Ventana	34.287	01:35:12:10	6.474	V2682-02
 	transect	Ceriantharia sp. 2	1000.02	2669	 	36.731796	-122.24462	1734413	0.4	2005-05-25 19:54:12.0	Ventana	34.51	02:15:43:29	4.084	V2669-03
 	descend	Appendicularia	629.76	2683	 	36.702034	-122.048965	1757042	0.36	2005-07-11 17:51:05.0	Ventana	34.379	01:35:10:05	5.58	V2683-02
 	cruise	Remote Instrument Node	124.35	2672	http://search.mbari.org/ARCHIVE/frameGrabs/Ventana/images/2672/00_21_59_13.jpg	36.803112	-121.80558	20003826	2.68	2005-06-03 15:02:39.0	Ventana	33.951	00:21:59:13	9.33	V2672-01
 	transect	Neptunea amianta	999.8	2669	 	36.731285	-122.23809	1688362	0.43	2005-05-25 19:15:30.0	Ventana	34.518	01:37:29:01	3.959	V2669-02
 	ascend	Aegina	691.75	2682	 	36.69889	-122.059425	1723343	0.29	2005-07-08 20:32:44.0	Ventana	34.412	04:24:52:18	5.117	V2682-05
 	descend	Chaetognatha	306.78	2693	 	36.697636	-122.06086	1758486	1.32	2005-07-25 19:39:48.0	Ventana	34.236	02:19:24:02	7.661	V2693-03
 	transect	Radiolaria	600.61	2681	 	36.696762	-122.05246	2493776	0.3	2005-07-07 18:23:35.0	Ventana	34.388	01:53:56:05	5.477	V2681-02HD
 	transect	molt	100.56	2681	 	36.69983	-122.05429	2489508	2.12	2005-07-07 16:43:13.0	Ventana	34.068	00:14:22:28	9.15	V2681-01HD
 	descend	Aegina	760.09	2681	 	36.694893	-122.05056	1716274	0.3	2005-07-07 18:50:43.967	Ventana	34.452	02:20:27:03	4.751	V2681-03
 	transect	Phyllospadix	802.48	2674	 	36.752308	-122.205734	1799822	0.36	2005-06-08 17:58:25.0	Ventana	34.489	00:42:58:01	4.333	V2674-01
 	transect	Psolus squamatus	 	2687	 	 	 	1810753	 	2005-07-13 19:31:39.0	Ventana	 	02:57:22:13	 	V2687-03
 	cruise	Pennatulacea	94.1	2688	 	36.814713	-122.01836	1679465	1.94	2005-07-14 21:04:02.0	Ventana	34.098	04:48:15:28	8.925	V2688-05
 	endtransect	physical object	1000.36	2669	 	36.73158	-122.24304	1694619	0.41	2005-05-25 19:44:42.0	Ventana	34.512	02:06:12:25	4.075	V2669-02
 	cruise	Merluccius productus	382.59	2690	 	36.790115	-121.887794	1669978	0.94	2005-07-18 19:49:34.0	Ventana	34.269	01:04:41:03	6.95	V2690-01
 	descend	Copepoda	400.89	2683	 	36.701492	-122.04956	1756636	0.96	2005-07-11 17:02:20.0	Ventana	34.259	00:49:59:22	6.987	V2683-01
 	transect	Porifera sp. 1	 	2687	 	 	 	1811422	 	2005-07-13 20:12:07.0	Ventana	 	03:37:06:04	 	V2687-04
 	descend	Crustacea	1187.34	2682	 	36.698517	-122.05833	1722245	0.67	2005-07-08 19:34:02.0	Ventana	34.569	03:26:38:05	3.386	V2682-04
 	ascend	Calycophorae	1097.43	2683	 	36.70781	-122.04907	1757794	0.58	2005-07-11 20:43:35.0	Ventana	34.547	04:17:55:15	3.676	V2683-04
 	transect	Ceriantharia sp. 1	598.49	2680	 	36.782413	-122.227585	1805165	0.35	2005-06-27 18:50:05.0	Ventana	34.378	01:29:09:25	5.584	V2680-02
 	ascend	Chuniphyes	853.63	2681	 	36.69855	-122.05574	1717372	0.33	2005-07-07 19:54:45.687	Ventana	34.492	03:23:48:02	4.348	V2681-04
 	descend	Chaetognatha	332.57	2682	 	36.698795	-122.060616	1720173	1.08	2005-07-08 17:11:07.0	Ventana	34.248	01:04:38:19	7.204	V2682-02
 	transect	Porifera sp. 1	 	2687	 	 	 	1808903	 	2005-07-13 17:31:34.0	Ventana	 	00:58:26:16	 	V2687-01
 	transect	Xeneretmus	 	2687	 	 	 	1812396	 	2005-07-13 20:36:31.0	Ventana	 	04:01:28:21	 	V2687-04
 	transect	Nanomia bijuga	200.48	2681	 	36.69828	-122.05329	2490606	1.72	2005-07-07 17:07:47.0	Ventana	34.195	00:38:55:07	8.334	V2681-01HD
 	transect	Poeobius meseres	700.63	2681	 	36.69596	-122.05183	2497837	0.29	2005-07-07 18:44:06.0	Ventana	34.436	02:13:47:27	4.934	V2681-03HD
 	ascend	Nanomia	329.6	2693	 	36.69202	-122.061905	1759031	1.29	2005-07-25 21:16:24.0	Ventana	34.237	03:40:56:03	7.555	V2693-04
 	descend	Appendicularia	695.12	2682	 	36.698643	-122.05999	1721433	0.29	2005-07-08 18:14:04.0	Ventana	34.427	02:07:08:06	5.084	V2682-03
 	descend	Copepoda	572.98	2683	 	36.701874	-122.04911	1756982	0.39	2005-07-11 17:46:53.0	Ventana	34.357	01:30:59:12	5.908	V2683-02
 	transect	molt	200.41	2681	 	36.698288	-122.05332	2491012	1.71	2005-07-07 17:10:48.0	Ventana	34.192	00:41:54:15	8.325	V2681-01HD
 	transect	Mesomyaria	1000.24	2669	 	36.73141	-122.24179	1689866	0.4	2005-05-25 19:38:24.0	Ventana	34.509	02:00:21:26	4.076	V2669-02
 	ascend	Copepoda	779.06	2682	 	36.69869	-122.058945	1723283	0.28	2005-07-08 20:26:14.0	Ventana	34.449	04:18:22:07	4.749	V2682-05
 	ascend	Appendicularia	587.22	2682	 	36.698425	-122.06223	1723565	0.39	2005-07-08 21:05:01.0	Ventana	34.366	04:57:07:13	5.729	V2682-05
 	transect	Porifera sp. 1	 	2687	 	 	 	1808820	 	2005-07-13 17:30:08.0	Ventana	 	00:57:00:17	 	V2687-01
 	ascend	Lobata	239.01	2693	 	36.6913	-122.06242	1759114	1.5	2005-07-25 21:22:45.0	Ventana	34.235	03:47:16:09	8.487	V2693-04
 	transect	Psolus squamatus	399.48	2687	http://search.mbari.org/ARCHIVE/frameGrabs/Ventana/images/2687/01_56_40_29.jpg	36.789394	-122.125114	1809655	1.15	2005-07-13 18:30:22.0	Ventana	34.239	01:56:40:29	7.305	V2687-02
 	transect	Psolus squamatus	 	2687	 	 	 	1812336	 	2005-07-13 20:32:33.0	Ventana	 	03:57:31:15	 	V2687-04
 	transect	Mediaster	 	2687	 	 	 	1812802	 	2005-07-13 20:58:28.0	Ventana	 	04:22:58:01	 	V2687-05
 	ascend	Calycophorae	306.01	2683	 	36.703365	-122.05064	1758080	1.28	2005-07-11 21:24:21.0	Ventana	34.233	04:57:11:29	7.418	V2683-05
 	transect	Porifera sp. 1	 	2687	 	 	 	1809918	 	2005-07-13 18:48:11.0	Ventana	 	02:13:56:16	 	V2687-03
 	transect	Psolus squamatus	 	2687	 	 	 	1810407	 	2005-07-13 19:17:14.0	Ventana	 	02:42:58:02	 	V2687-03
 	transect	Ceriantharia sp. 2	1000.01	2669	 	36.7311	-122.23916	1689114	0.43	2005-05-25 19:22:19.0	Ventana	34.515	01:44:17:00	3.978	V2669-02
 	ascend	Appendicularia	1169.06	2683	 	36.7072	-122.04841	1757734	0.7	2005-07-11 20:29:24.0	Ventana	34.569	04:03:45:23	3.406	V2683-04
 	transect	Medusae	400.82	2681	 	36.695972	-122.0514	2492941	0.79	2005-07-07 17:41:49.0	Ventana	34.277	01:12:13:26	6.662	V2681-02HD
 	transect	Ophiuroidea	1000.19	2669	 	36.730946	-122.23377	1683955	0.45	2005-05-25 18:40:21.0	Ventana	34.523	01:02:21:23	3.911	V2669-02
 	descend	Nanomia	445.09	2683	 	36.70154	-122.0494	1756696	0.82	2005-07-11 17:08:30.0	Ventana	34.276	00:56:09:25	6.735	V2683-01
 	transect	Phyllospadix	800.25	2674	 	36.75263	-122.20034	1774106	0.31	2005-06-08 17:29:58.0	Ventana	34.484	00:14:32:00	4.576	V2674-01
 	cruise	Zoarcidae	348.23	2676	 	36.804466	-122.031075	1676235	1.14	2005-06-14 16:22:48.0	Ventana	34.241	00:06:58:01	7.34	V2676-01
 	transect	Ophiuroidea	999.62	2669	 	36.73141	-122.237076	1687448	0.44	2005-05-25 19:07:05.0	Ventana	34.52	01:29:04:10	3.943	V2669-02
 	transect	Solaster borealis	1000.44	2669	 	36.73194	-122.247	1735793	0.41	2005-05-25 20:11:53.0	Ventana	34.51	02:33:24:01	4.063	V2669-03
 	transect	Sebastolobus altivelis	800.7	2674	 	36.752506	-122.20285	1799254	0.34	2005-06-08 17:42:50.0	Ventana	34.482	00:27:23:25	4.383	V2674-01
 	transect	Phyllospadix	799.09	2674	 	36.752514	-122.20433	1799540	0.35	2005-06-08 17:50:58.0	Ventana	34.484	00:35:30:23	4.373	V2674-01
 	transect	Mesomyaria	599.36	2680	 	36.77929	-122.22437	1804496	0.36	2005-06-27 18:08:00.0	Ventana	34.377	00:48:06:13	5.602	V2680-01
 	transect	Rathbunaster californicus	199.63	2696	 	36.80435	-122.126274	1813434	1.52	2005-08-01 17:45:56.0	Ventana	34.211	01:13:49:15	8.666	V2696-02
 	transect	Euplexaura	399.69	2687	 	36.789223	-122.12445	1809572	1.17	2005-07-13 18:19:21.0	Ventana	34.238	01:45:40:25	7.352	V2687-02
 	cruise	Actiniaria sp. 3	 	2687	http://search.mbari.org/ARCHIVE/frameGrabs/Ventana/images/2687/00_17_42_27.jpg	 	 	1806891	 	2005-07-13 16:50:49.0	Ventana	 	00:17:42:27	 	V2687-01
 	transect	Ophiuroidea	999.46	2669	 	36.731422	-122.23627	1684707	0.44	2005-05-25 18:59:33.0	Ventana	34.52	01:21:32:19	3.941	V2669-02
 	descend	Vitreosalpa gemini	476.49	2682	 	36.698566	-122.059715	1720801	0.52	2005-07-08 17:57:13.0	Ventana	34.327	01:50:43:03	6.186	V2682-02
 	cruise	Rathbunaster californicus	453.41	2676	 	36.802895	-122.02929	1676318	0.61	2005-06-14 16:36:29.0	Ventana	34.323	00:20:37:28	6.332	V2676-01
 	descend	Copepoda	1084.86	2683	 	36.705112	-122.04891	1757448	0.53	2005-07-11 19:28:06.0	Ventana	34.535	03:08:27:18	3.792	V2683-03
 	ascend	Appendicularia	258.17	2681	 	36.697838	-122.05522	1719504	 	2005-07-07 21:29:59.0	Ventana	 	05:08:55:14	 	V2681-05
 	transect	Phyllospadix	801.6	2674	 	36.752216	-122.20762	1800085	0.39	2005-06-08 18:08:01.0	Ventana	34.493	00:52:32:24	4.336	V2674-01
 	transect	trawl mark	800.32	2674	http://search.mbari.org/ARCHIVE/frameGrabs/Ventana/images/2674/01_33_56_14.jpg	36.751232	-122.21612	1803398	0.35	2005-06-08 18:49:53.0	Ventana	34.488	01:33:56:14	4.337	V2674-02
 	transect	Sebastolobus	999.67	2669	 	36.7307	-122.22941	1651087	0.45	2005-05-25 18:09:44.0	Ventana	34.522	00:32:11:15	3.91	V2669-01
 	cruise	Rathbunaster californicus	102.34	2676	 	36.807102	-122.040344	1677149	1.92	2005-06-14 19:11:39.0	Ventana	34.158	02:50:24:12	8.439	V2676-03
 	transect	molt	50.52	2681	 	36.69895	-122.053604	2485387	 	2005-07-07 16:31:14.0	Ventana	 	00:02:23:10	 	V2681-01HD
 	transect	Euphausia	200.44	2681	 	36.69828	-122.05329	2490260	1.7	2005-07-07 17:06:18.0	Ventana	34.199	00:37:27:04	8.36	V2681-01HD
 	transect	Appendicularia	400.75	2681	 	36.696552	-122.052086	2493024	0.79	2005-07-07 17:44:24.0	Ventana	34.277	01:14:48:11	6.648	V2681-02HD
 	transect	Chionoecetes tanneri	799.78	2674	 	36.75176	-122.212166	1801183	0.35	2005-06-08 18:28:50.0	Ventana	34.487	01:12:54:15	4.339	V2674-02
 	transect	Psolus squamatus	 	2687	 	 	 	1807177	 	2005-07-13 17:02:52.0	Ventana	 	00:29:46:02	 	V2687-01
 	transect	Poeobius meseres	800.9	2681	 	36.69564	-122.051544	2498183	0.32	2005-07-07 18:56:45.0	Ventana	34.475	02:26:28:03	4.494	V2681-03HD
 	transect	Gastropoda sp.2	999.29	2669	 	36.730995	-122.231735	1695085	0.45	2005-05-25 18:28:41.0	Ventana	34.521	00:51:07:12	3.913	V2669-01
 	transect	Mesomyaria	802.48	2674	 	36.752296	-122.20601	1799882	0.36	2005-06-08 18:00:02.0	Ventana	34.491	00:44:34:09	4.337	V2674-01
 	transect	Mesomyaria	998.18	2669	 	36.730526	-122.22835	1649361	0.45	2005-05-25 18:02:46.0	Ventana	34.523	00:25:14:21	3.907	V2669-01
 	transect	Allocentrotus fragilis	 	2687	 	 	 	1810813	 	2005-07-13 19:35:20.0	Ventana	 	03:01:03:01	 	V2687-03
 	transect	Poeobius meseres	600.52	2681	 	36.697514	-122.05334	2493836	0.3	2005-07-07 18:26:48.0	Ventana	34.388	01:57:09:21	5.471	V2681-02HD
 	ascend	Appendicularia	337.72	2693	 	36.692837	-122.061516	1758971	1.26	2005-07-25 21:12:44.0	Ventana	34.237	03:37:16:04	7.456	V2693-04
 	transect	Phyllospadix	801.32	2674	 	36.75096	-122.21874	1803601	0.34	2005-06-08 19:01:20.0	Ventana	34.492	01:45:22:12	4.36	V2674-02
 	stationary	Appendicularia	504.24	2695	 	36.784653	-122.20051	1824504	0.69	2005-07-28 19:21:03.0	Ventana	34.292	04:27:17:06	6.331	V2695-02
 	transect	Ophiuroidea	999.37	2669	 	36.731182	-122.235664	1684361	0.44	2005-05-25 18:54:56.0	Ventana	34.522	01:16:56:09	3.933	V2669-02
 	ascend	Appendicularia	254.52	2681	 	36.6985	-122.05623	1719158	1.46	2005-07-07 21:24:08.6	Ventana	34.222	04:52:27:02	7.999	V2681-05
 	transect	Psolus squamatus	 	2687	 	 	 	1808963	 	2005-07-13 17:32:41.0	Ventana	 	00:59:33:23	 	V2687-01
 	transect	Mesomyaria	1000.09	2669	 	36.73104	-122.239624	1689174	0.41	2005-05-25 19:25:05.55	Ventana	34.509	01:47:04:17	4.064	V2669-02
 	transect	Halipteris californica	599.27	2680	 	36.782883	-122.228165	1805248	0.35	2005-06-27 19:00:48.0	Ventana	34.378	01:39:52:12	5.576	V2680-02
 	cruise	Rathbunaster californicus	359.18	2676	 	36.804684	-122.029	1676581	0.98	2005-06-14 16:49:17.0	Ventana	34.267	00:33:24:26	7.108	V2676-01
 	descend	Euphausiacea	157.04	2682	 	36.699867	-122.060745	1719910	2.19	2005-07-08 16:18:57.0	Ventana	34.097	00:13:02:25	8.434	V2682-01
 	transect	Phyllospadix	 	2687	 	 	 	1810264	 	2005-07-13 19:13:09.0	Ventana	 	02:38:53:05	 	V2687-03
 	ascend	Solmissus	377.35	2693	 	36.69602	-122.060585	1758768	1.19	2005-07-25 20:49:53.0	Ventana	34.231	03:14:27:11	7.143	V2693-04
 	transect	Mesomyaria	998.31	2669	http://search.mbari.org/ARCHIVE/frameGrabs/Ventana/images/2669/01_08_37_22.jpg	36.731167	-122.234566	1684158	0.45	2005-05-25 18:46:37.0	Ventana	34.522	01:08:37:22	3.917	V2669-02
 	transect	Mesomyaria	1000.4	2669	 	36.73154	-122.24276	1694536	0.4	2005-05-25 19:43:20.0	Ventana	34.506	02:05:16:24	4.087	V2669-02
 	ascend	Haliscera	258.17	2681	 	36.697838	-122.05522	1719361	 	2005-07-07 21:29:59.0	Ventana	 	05:02:33:19	 	V2681-05
 	transect	Mesomyaria	1000.31	2669	 	36.7309	-122.23285	1683812	0.45	2005-05-25 18:35:26.0	Ventana	34.521	00:57:52:05	3.911	V2669-01
 	transect	Aegina	500.6	2681	 	36.6978	-122.053566	2493287	0.44	2005-07-07 17:55:33.0	Ventana	34.347	01:25:56:07	6.02	V2681-02HD
 	transect	Stomphia	599.87	2680	 	36.7781	-122.22325	1804353	0.36	2005-06-27 17:53:59.0	Ventana	34.378	00:34:05:24	5.59	V2680-01
 	transect	Porifera sp. 1	399.92	2687	 	36.78812	-122.12176	1809309	1.13	2005-07-13 17:39:12.0	Ventana	34.24	01:05:34:18	7.261	V2687-02
 	transect	Porifera sp. 1	 	2687	 	 	 	1811159	 	2005-07-13 19:57:54.0	Ventana	 	03:22:53:23	 	V2687-04
 	ascend	Appendicularia	544.47	2682	 	36.69832	-122.06277	1723625	0.41	2005-07-08 21:09:41.0	Ventana	34.352	05:01:21:21	5.938	V2682-06
 	ascend	Euphausiacea	202.83	2693	 	36.690903	-122.062675	1759174	1.76	2005-07-25 21:25:28.0	Ventana	34.225	03:49:58:29	8.907	V2693-04
 	cruise	mud	257.55	2688	 	36.80919	-122.020355	1677901	1.52	2005-07-14 18:28:31.0	Ventana	34.197	02:13:46:20	8.173	V2688-03
 	transect	Mesomyaria	1000.25	2669	 	36.731445	-122.241936	1689926	0.4	2005-05-25 19:39:07.0	Ventana	34.509	02:01:04:24	4.077	V2669-02
 	transect	Psolus squamatus	399.87	2687	 	36.788063	-122.12155	1809166	1.13	2005-07-13 17:36:22.0	Ventana	34.242	01:02:44:20	7.271	V2687-02
 	transect	Mediaster	 	2687	 	 	 	1810610	 	2005-07-13 19:24:23.0	Ventana	 	02:50:06:27	 	V2687-03
 	transect	Nanomia bijuga	400.74	2681	 	36.697025	-122.05264	2493084	0.79	2005-07-07 17:46:24.0	Ventana	34.278	01:16:49:01	6.659	V2681-02HD
 	transect	Calliostoma platinum	 	2687	 	 	 	1810467	 	2005-07-13 19:18:54.0	Ventana	 	02:44:38:05	 	V2687-03
 	transect	Mesomyaria	1000.35	2669	 	36.731216	-122.24112	1689377	0.41	2005-05-25 19:34:22.0	Ventana	34.512	01:56:19:09	4.058	V2669-02
 	transect	Psolus squamatus	 	2687	 	 	 	1808617	 	2005-07-13 17:25:37.0	Ventana	 	00:52:29:28	 	V2687-01
 	cruise	Pleuronectiformes	611.48	2688	 	36.795746	-122.01961	1677352	0.45	2005-07-14 16:36:39.0	Ventana	34.387	00:22:58:23	5.494	V2688-01
 	transect	molt	50.4	2681	 	36.69983	-122.05429	2485729	3.0	2005-07-07 16:40:04.0	Ventana	33.91	00:11:14:25	9.627	V2681-01HD
 	transect	Calycophorae	700.63	2681	 	36.69692	-122.05278	2497694	0.29	2005-07-07 18:40:08.0	Ventana	34.436	02:09:52:01	4.928	V2681-03HD
 	ascend	Appendicularia	356.46	2681	 	36.699352	-122.05503	1718060	1.03	2005-07-07 20:52:02.033	Ventana	34.258	04:20:23:00	7.139	V2681-05
 	transect	Phyllospadix	802.87	2674	 	36.751827	-122.21007	1800980	0.36	2005-06-08 18:20:15.0	Ventana	34.49	01:04:20:19	4.32	V2674-02
 	transect	Halipteris californica	599.9	2680	 	36.783722	-122.22917	1805451	0.36	2005-06-27 19:10:20.0	Ventana	34.379	01:49:23:29	5.595	V2680-02
 	transect	Mediaster	 	2687	 	 	 	1808760	 	2005-07-13 17:28:54.0	Ventana	 	00:55:46:25	 	V2687-01
 	transect	Mesomyaria	1000.23	2669	 	36.73163	-122.24329	1733804	0.41	2005-05-25 19:46:14.0	Ventana	34.51	02:07:44:26	4.065	V2669-03
 	descend	Gonatus	974.11	2681	 	36.694645	-122.05038	1716537	0.45	2005-07-07 19:19:19.767	Ventana	34.523	02:49:01:19	3.951	V2681-03
 	transect	Psolus squamatus	 	2687	 	 	 	1811016	 	2005-07-13 19:48:29.0	Ventana	 	03:13:30:01	 	V2687-04
 	descend	Appendicularia	302.83	2681	 	36.695686	-122.051315	1713653	1.23	2005-07-07 17:29:54.467	Ventana	34.229	01:01:01:25	7.376	V2681-01
 	transect	cydippida	200.45	2681	 	36.69828	-122.0533	2490749	1.73	2005-07-07 17:08:39.0	Ventana	34.193	00:39:47:09	8.321	V2681-01HD
 	transect	Phyllospadix	800.47	2674	 	36.75258	-122.202385	1799194	0.34	2005-06-08 17:40:38.0	Ventana	34.476	00:25:11:21	4.408	V2674-01
 	transect	Pennatulacea sp.1	599.3	2680	 	36.77974	-122.22492	1804556	0.36	2005-06-27 18:14:59.0	Ventana	34.375	00:55:04:24	5.619	V2680-01
 	ascend	Appendicularia	674.83	2681	 	36.69876	-122.054436	1717635	0.28	2005-07-07 20:23:10.933	Ventana	34.413	03:52:12:02	5.179	V2681-04
 	transect	chuniphyes	800.88	2681	 	36.696278	-122.05228	2498243	0.31	2005-07-07 18:59:44.0	Ventana	34.475	02:29:26:25	4.502	V2681-03HD
 	transect	Mesomyaria	998.65	2669	 	36.73086	-122.229645	1651147	0.45	2005-05-25 18:11:58.0	Ventana	34.522	00:34:25:05	3.907	V2669-01
 	transect	Lycenchelys camchatica	800.86	2674	 	36.75112	-122.21692	1803458	0.35	2005-06-08 18:53:00.0	Ventana	34.496	01:37:02:27	4.333	V2674-02
 	transect	Pennatulacea sp.1	602.49	2680	 	36.78786	-122.23202	1805936	0.36	2005-06-27 19:54:07.0	Ventana	34.379	02:32:45:26	5.59	V2680-03
 	transect	Nanomia bijuga	200.46	2681	 	36.69828	-122.05329	2490200	1.7	2005-07-07 17:05:42.0	Ventana	34.198	00:36:49:23	8.361	V2681-01HD
 	cruise	Chionoecetes tanneri	998.02	2679	 	36.68986	-122.1656	1824361	0.42	2005-06-16 17:32:29.0	Ventana	34.513	00:03:52:07	4.11	V2679-01
 	transect	Gastropoda sp.2	999.6	2669	 	36.731068	-122.235176	1694679	0.45	2005-05-25 18:51:40.0	Ventana	34.521	01:13:40:05	3.921	V2669-02
 	transect	molt	100.52	2681	 	36.69983	-122.05429	2489651	2.13	2005-07-07 16:47:06.0	Ventana	34.069	00:18:16:03	9.144	V2681-01HD
 	cruise	Parastichopus	123.69	2688	 	36.812965	-122.018776	1678104	1.97	2005-07-14 19:27:17.0	Ventana	34.097	03:12:29:02	8.93	V2688-03
 	transect	Ophiuroidea	997.75	2669	 	36.731155	-122.23087	1683466	0.45	2005-05-25 18:21:41.0	Ventana	34.519	00:44:07:25	3.927	V2669-01
 	transect	Leuroglossus stilbius	500.58	2681	 	36.696026	-122.05153	2493633	0.43	2005-07-07 18:03:15.0	Ventana	34.349	01:33:38:14	6.006	V2681-02HD
 	descend	Appendicularia	400.26	2681	 	36.695637	-122.05105	1715236	0.79	2005-07-07 17:37:48.733	Ventana	34.278	01:08:12:01	6.674	V2681-02
 	transect	Phyllospadix	801.64	2674	 	36.752266	-122.207115	1800025	0.36	2005-06-08 18:05:20.0	Ventana	34.492	00:49:52:03	4.356	V2674-01
 	transect	lobata	200.41	2681	 	36.698284	-122.05331	2490952	1.7	2005-07-07 17:10:09.0	Ventana	34.194	00:41:17:15	8.329	V2681-01HD
 	transect	Neptunea amianta	998.92	2669	 	36.73284	-122.25163	1737237	0.41	2005-05-25 20:43:00.0	Ventana	34.51	03:03:47:19	4.072	V2669-04
 	transect	Rathbunaster californicus	203.52	2696	 	36.80747	-122.13113	1813840	1.46	2005-08-01 18:42:02.0	Ventana	34.22	02:09:06:26	8.617	V2696-03
 	cruise	Appendicularia	 	2694	 	 	 	1676175	 	2005-07-27 17:14:40.0	Ventana	 	00:07:48:17	 	V2694-01
 	transect	Lycenchelys camchatica	799.86	2674	 	36.752647	-122.20098	1774166	0.34	2005-06-08 17:33:34.0	Ventana	34.481	00:18:07:28	4.436	V2674-01
 	descend	Appendicularia	290.92	2682	 	36.699345	-122.060646	1720113	1.23	2005-07-08 16:53:18.0	Ventana	34.237	00:47:20:04	7.45	V2682-01
 	cruise	Appendicularia	1222.05	2683	 	36.70618	-122.0477	1757591	0.72	2005-07-11 20:01:28.0	Ventana	34.574	03:35:50:10	3.338	V2683-04
 	descend	physical object	652.89	2677	http://search.mbari.org/ARCHIVE/frameGrabs/Ventana/images/2677/00_29_47_24.jpg	36.746258	-122.052376	20008782	0.37	2005-06-15 17:14:32.0	Ventana	34.419	00:29:47:24	5.156	V2677-01
 	transect	Rathbunaster californicus	198.88	2696	 	36.80375	-122.12485	1813291	1.53	2005-08-01 17:31:33.0	Ventana	34.203	00:59:50:20	8.636	V2696-01
 	transect	Poeobius meseres	1001.04	2681	 	36.695217	-122.051155	2498589	0.49	2005-07-07 19:23:41.0	Ventana	34.535	02:53:22:12	3.835	V2681-03HD
 	descend	Phialidium	723.94	2682	 	36.698544	-122.05984	1721493	0.28	2005-07-08 18:23:51.0	Ventana	34.441	02:16:54:24	4.896	V2682-03
 	transect	Sebastolobus	1000.11	2669	 	36.731903	-122.24549	1735387	0.41	2005-05-25 20:00:20.0	Ventana	34.51	02:21:50:12	4.063	V2669-03
 	transect	Mesomyaria	799.88	2674	 	36.752533	-122.20385	1799397	0.35	2005-06-08 17:48:10.0	Ventana	34.488	00:32:42:24	4.37	V2674-01
 	transect	Mediaster	 	2687	 	 	 	1812742	 	2005-07-13 20:55:44.0	Ventana	 	04:20:14:03	 	V2687-05
 	transect	Actiniaria sp. 1	800.21	2674	 	36.75209	-122.20857	1800777	0.35	2005-06-08 18:12:21.0	Ventana	34.488	00:56:53:06	4.326	V2674-01
 	transect	Porifera sp. 1	 	2687	 	 	 	1807583	 	2005-07-13 17:16:05.0	Ventana	 	00:42:58:12	 	V2687-01
 	ascend	Appendicularia	789.73	2681	 	36.69897	-122.056564	1717432	0.3	2005-07-07 20:02:54.533	Ventana	34.459	03:31:56:28	4.688	V2681-04
 	ascend	Bathocyroe	566.16	2681	 	36.69894	-122.05426	1717714	0.38	2005-07-07 20:31:32.827	Ventana	34.364	04:00:33:04	5.836	V2681-04
 	descend	Cydippida 2	1041.7	2682	 	36.698334	-122.059135	1722042	0.48	2005-07-08 19:03:25.0	Ventana	34.532	02:56:26:16	3.862	V2682-03
 	transect	Ophiuroidea	998.97	2669	 	36.731377	-122.23608	1684564	0.44	2005-05-25 18:58:08.0	Ventana	34.522	01:20:07:20	3.94	V2669-02
 	ascend	Praya	 	2683	 	 	 	1758140	 	2005-07-11 14:31:26.0	Ventana	 	05:04:17:02	 	V2683-05
 	transect	Lycenchelys camchatica	798.15	2674	 	36.751587	-122.21402	1801326	0.35	2005-06-08 18:38:20.0	Ventana	34.489	01:22:24:00	4.34	V2674-02
 	transect	Rathbunaster californicus	 	2687	 	 	 	1812193	 	2005-07-13 20:28:45.0	Ventana	 	03:53:43:27	 	V2687-04
 	transect	Mediaster	 	2687	 	 	 	1807034	 	2005-07-13 16:55:29.0	Ventana	 	00:22:23:11	 	V2687-01
 	ascend	Crustacea	370.94	2693	 	36.696484	-122.06065	1758689	1.2	2005-07-25 20:28:29.0	Ventana	34.233	03:08:02:00	7.17	V2693-03
 	ascend	Cydippida	195.5	2693	 	36.69061	-122.06285	1759211	1.82	2005-07-25 21:28:41.0	Ventana	34.177	03:53:12:28	8.866	V2693-04
 	descend	Nanomia	408.78	2682	 	36.69824	-122.05983	1720722	0.77	2005-07-08 17:38:45.0	Ventana	34.276	01:32:15:01	6.575	V2682-02
 	ascend	Poeobius meseres	496.84	2682	 	36.698334	-122.06327	1723685	0.5	2005-07-08 21:14:10.0	Ventana	34.332	05:05:51:14	6.168	V2682-06
 	transect	Nanomia bijuga	200.39	2681	 	36.698303	-122.05338	2491178	1.68	2005-07-07 17:12:30.0	Ventana	34.2	00:43:38:11	8.339	V2681-01HD
 	cruise	Raja rhina	197.74	2696	 	36.802376	-122.121254	1812853	1.61	2005-08-01 16:34:09.0	Ventana	34.189	00:02:30:11	8.659	V2696-01
 	stationary	Merluccius productus	502.37	2694	 	36.784634	-122.20044	1676660	0.75	2005-07-27 20:22:27.0	Ventana	34.288	02:54:34:27	6.443	V2694-03
 	descend	Cydippida 2	996.81	2681	 	36.69464	-122.0504	1716546	0.46	2005-07-07 19:20:05.733	Ventana	34.529	02:49:47:16	3.887	V2681-03
 	transect	Phyllospadix	1000.13	2669	 	36.73253	-122.25019	1736919	0.41	2005-05-25 20:34:18.0	Ventana	34.51	02:55:47:05	4.068	V2669-03
 	transect	Phyllospadix	800.76	2674	 	36.752563	-122.201706	1799097	0.34	2005-06-08 17:37:07.0	Ventana	34.479	00:21:41:13	4.445	V2674-01
 	transect	chuniphyes	901.05	2681	 	36.696198	-122.052216	2498317	0.39	2005-07-07 19:10:09.0	Ventana	34.505	02:39:50:05	4.172	V2681-03HD
 	transect	Psolus squamatus	399.93	2687	 	36.788067	-122.12153	1809184	1.13	2005-07-13 17:36:46.0	Ventana	34.241	01:03:08:00	7.262	V2687-02
 	transect	Mesomyaria	1000.12	2669	 	36.731216	-122.23842	1688865	0.43	2005-05-25 19:17:51.0	Ventana	34.516	01:39:49:09	3.976	V2669-02
 	ascend	Appendicularia	518.48	2683	 	36.704456	-122.05064	1757983	0.5	2005-07-11 21:15:34.0	Ventana	34.333	04:48:26:15	6.171	V2683-05
 	transect	Rathbunaster californicus	200.23	2696	 	36.805073	-122.12786	1813559	1.5	2005-08-01 17:59:41.0	Ventana	34.211	01:27:34:04	8.674	V2696-02
 	descend	Chaetognatha	691.28	2682	 	36.69865	-122.05998	1721428	0.29	2005-07-08 18:13:40.0	Ventana	34.422	02:06:43:27	5.103	V2682-03
 	ascend	Appendicularia	1174.84	2682	 	36.698284	-122.057495	1722457	0.65	2005-07-08 19:53:16.0	Ventana	34.567	03:45:52:00	3.44	V2682-04
 	ascend	Nanomia	258.17	2681	 	36.697838	-122.05522	1719509	 	2005-07-07 21:29:59.0	Ventana	 	05:09:14:26	 	V2681-05
 	transect	Umbellula lindahli	599.19	2680	 	36.77772	-122.22272	1804302	0.36	2005-06-27 17:49:28.0	Ventana	34.378	00:29:35:23	5.587	V2680-01
 	endtransect	object	799.86	2674	 	36.751514	-122.214325	1801354	0.35	2005-06-08 18:40:34.0	Ventana	34.489	01:24:37:15	4.334	V2674-02
 	cruise	Lycodapus	611.6	2688	 	36.79588	-122.01996	1677366	0.45	2005-07-14 16:37:41.033	Ventana	34.382	00:24:00:17	5.517	V2688-01
 	transect	Mesomyaria	999.94	2669	 	36.73065	-122.229355	1651082	0.45	2005-05-25 18:09:03.0	Ventana	34.522	00:31:31:08	3.905	V2669-01
 	transect	Phyllospadix	799.71	2674	 	36.752533	-122.20392	1799420	0.35	2005-06-08 17:48:42.0	Ventana	34.483	00:33:15:11	4.374	V2674-01
 	descend	Bathylagus milleri	902.49	2683	 	36.703518	-122.04832	1757277	0.38	2005-07-11 18:45:49.0	Ventana	34.501	02:26:14:03	4.217	V2683-03
 	transect	Allocentrotus fragilis	 	2687	 	 	 	1811302	 	2005-07-13 20:05:39.0	Ventana	 	03:30:38:28	 	V2687-04
 	transect	molt	700.59	2681	 	36.695057	-122.05075	2497994	0.28	2005-07-07 18:48:25.0	Ventana	34.435	02:18:07:24	4.984	V2681-03HD
 	cruise	Sebastes	432.37	2688	 	36.805122	-122.01887	1677689	0.92	2005-07-14 17:44:34.0	Ventana	34.267	01:30:17:15	6.932	V2688-02
 	transect	Phyllospadix	 	2687	 	 	 	1811824	 	2005-07-13 20:26:28.0	Ventana	 	03:51:26:05	 	V2687-04
 	transect	Rathbunaster californicus	196.76	2696	 	36.803352	-122.12341	1813176	1.54	2005-08-01 17:15:36.0	Ventana	34.201	00:43:54:11	8.626	V2696-01
 	transect	Mesomyaria	1000.09	2669	 	36.731106	-122.23529	1684306	0.45	2005-05-25 18:52:45.0	Ventana	34.522	01:14:45:03	3.921	V2669-02
 	cruise	Rathbunaster californicus	94.67	2688	 	36.814674	-122.01714	1679424	1.95	2005-07-14 20:32:24.0	Ventana	34.095	04:17:08:11	8.942	V2688-04
 	ascend	Appendicularia	338.9	2681	 	36.699364	-122.05524	1718097	1.13	2005-07-07 20:53:36.443	Ventana	34.245	04:21:56:24	7.27	V2681-05
 	ascend	Appendicularia	596.57	2682	 	36.698746	-122.06095	1723486	0.36	2005-07-08 20:49:45.0	Ventana	34.371	04:41:53:12	5.651	V2682-05
 	ascend	water	189.9	2696	 	36.807716	-122.13149	1813882	1.46	2005-08-01 18:49:28.0	Ventana	34.221	02:16:33:12	8.644	V2696-03
 	transect	Mesomyaria	1000.69	2669	 	36.732166	-122.24836	1736213	0.41	2005-05-25 20:21:24.0	Ventana	34.51	02:42:54:18	4.062	V2669-03
 	ascend	Aegina	449.91	2681	 	36.699036	-122.05418	1717774	0.6	2005-07-07 20:36:58.433	Ventana	34.313	04:05:58:06	6.368	V2681-04
 	transect	Psolus squamatus	 	2687	 	 	 	1810273	 	2005-07-13 19:13:50.0	Ventana	 	02:39:34:15	 	V2687-03
 	transect	Phyllospadix	998.87	2669	 	36.732857	-122.25173	1737242	0.41	2005-05-25 20:43:32.0	Ventana	34.51	03:04:20:06	4.074	V2669-04
 	ascend	Appendicularia	358.7	2693	 	36.694027	-122.06103	1758888	1.24	2005-07-25 21:03:12.0	Ventana	34.237	03:27:44:13	7.355	V2693-04
 	transect	Mesomyaria	999.65	2669	 	36.731007	-122.23385	1683983	0.45	2005-05-25 18:40:55.0	Ventana	34.522	01:02:55:27	3.913	V2669-02
 	transect	Gastropoda sp.2	1000.09	2669	 	36.731007	-122.233116	1695099	0.45	2005-05-25 18:37:38.0	Ventana	34.523	01:00:03:14	3.91	V2669-01
 	transect	Lycenchelys camchatica	802.15	2674	 	36.751846	-122.210686	1801031	0.35	2005-06-08 18:22:37.0	Ventana	34.49	01:06:42:09	4.33	V2674-02
 	transect	Aegina	600.61	2681	 	36.696594	-122.05224	2493758	0.3	2005-07-07 18:22:45.0	Ventana	34.387	01:53:06:26	5.479	V2681-02HD
 	descend	Chaetognatha	870.65	2682	 	36.698303	-122.05943	1721751	0.33	2005-07-08 18:49:21.0	Ventana	34.49	02:42:23:01	4.359	V2682-03
 	descend	Appendicularia	355.53	2683	 	36.70132	-122.0499	1756571	1.18	2005-07-11 16:56:50.0	Ventana	34.23	00:44:30:11	7.179	V2683-01
 	transect	Phyllospadix	801.99	2674	 	36.752247	-122.20693	1800002	0.37	2005-06-08 18:04:23.0	Ventana	34.49	00:48:55:03	4.341	V2674-01
 	transect	Umbellula lindahli	601.04	2680	 	36.785995	-122.23086	1805853	0.36	2005-06-27 19:33:51.0	Ventana	34.379	02:12:30:14	5.598	V2680-03
 	transect	Nanomia bijuga	200.44	2681	 	36.69828	-122.0533	2490855	1.71	2005-07-07 17:09:15.0	Ventana	34.195	00:40:23:17	8.326	V2681-01HD
 	transect	Mesomyaria	999.47	2669	 	36.731182	-122.235664	1684366	0.44	2005-05-25 18:55:02.0	Ventana	34.522	01:17:02:04	3.933	V2669-02
 	transect	Caridea sp.1	598.9	2680	 	36.780293	-122.225296	1804625	0.35	2005-06-27 18:21:02.0	Ventana	34.38	01:01:07:17	5.575	V2680-01
 	transect	Allocentrotus fragilis	 	2687	 	 	 	1811242	 	2005-07-13 20:05:30.0	Ventana	 	03:30:29:27	 	V2687-04
 	descend	Pleurobrachia	136.92	2682	 	36.699833	-122.06066	1719892	2.21	2005-07-08 16:17:58.86	Ventana	34.104	00:12:04:04	8.684	V2682-01
 	transect	beroe	400.77	2681	 	36.69681	-122.05241	2493052	0.79	2005-07-07 17:45:30.0	Ventana	34.278	01:15:53:25	6.659	V2681-02HD
 	transect	Mesomyaria	997.61	2669	 	36.7306	-122.22716	1649103	0.45	2005-05-25 17:55:03.0	Ventana	34.522	00:17:32:04	3.909	V2669-01
 	transect	Mesomyaria	802.57	2674	 	36.750874	-122.219925	1803656	0.34	2005-06-08 19:06:18.0	Ventana	34.483	01:50:19:27	4.378	V2674-02
 	transect	Neptunea amianta	599.82	2680	 	36.778137	-122.22333	1804362	0.36	2005-06-27 17:54:38.0	Ventana	34.378	00:34:45:09	5.589	V2680-01
 	transect	Calliostoma platinum	 	2687	 	 	 	1807588	 	2005-07-13 17:16:16.0	Ventana	 	00:43:09:04	 	V2687-01
 	descend	Euphausiacea	205.74	2693	 	36.696037	-122.058395	1758306	1.81	2005-07-25 18:25:28.0	Ventana	34.186	01:05:32:18	8.702	V2693-02
 	transect	Mesomyaria	802.04	2674	 	36.751884	-122.20993	1800971	0.35	2005-06-08 18:19:48.0	Ventana	34.489	01:03:53:13	4.328	V2674-02
 	transect	Psolus squamatus	 	2687	 	 	 	1810979	 	2005-07-13 19:45:50.0	Ventana	 	03:10:51:09	 	V2687-04
 	transect	Mesomyaria	 	2669	 	 	 	1737565	 	2005-05-25 13:51:33.0	Ventana	 	03:12:21:06	 	V2669-04
 	transect	Halipteris californica	599.37	2680	 	36.783195	-122.22857	1805331	0.35	2005-06-27 19:04:45.0	Ventana	34.379	01:43:49:00	5.587	V2680-02
 	transect	Mediaster	 	2687	 	 	 	1812470	 	2005-07-13 20:40:43.0	Ventana	 	04:05:40:14	 	V2687-04
 	transect	Nanomia bijuga	500.58	2681	 	36.69719	-122.05286	2493495	0.44	2005-07-07 17:58:22.0	Ventana	34.346	01:28:45:23	6.026	V2681-02HD
 	descend	Chuniphyes	720.53	2681	 	36.694946	-122.0506	1716223	0.29	2005-07-07 18:49:23.533	Ventana	34.446	02:19:07:08	4.85	V2681-03
 	transect	Neptunea amianta	801.21	2674	 	36.75215	-122.20812	1800708	0.35	2005-06-08 18:10:15.0	Ventana	34.491	00:54:47:09	4.331	V2674-01
 	descend	Chaetognatha	323.71	2682	 	36.6989	-122.06068	1720155	1.12	2005-07-08 17:07:56.0	Ventana	34.242	01:01:28:02	7.249	V2682-02
 	descend	Chaetognatha	229.06	2693	 	36.698647	-122.06171	1758366	1.5	2005-07-25 19:21:37.0	Ventana	34.241	02:01:39:04	8.589	V2693-02
 	ascend	Chaetognatha	933.24	2682	 	36.697857	-122.05851	1723103	0.4	2005-07-08 20:11:35.0	Ventana	34.51	04:03:45:17	4.141	V2682-05
 	transect	Mysidae	1000.93	2681	 	36.696465	-122.052826	2498700	0.47	2005-07-07 19:29:39.0	Ventana	34.531	02:59:19:26	3.877	V2681-03HD
 	transect	Mesomyaria	999.47	2669	 	36.730972	-122.23163	1683660	0.45	2005-05-25 18:28:12.0	Ventana	34.522	00:50:38:02	3.913	V2669-01
 	transect	Mediaster	 	2687	 	 	 	1807648	 	2005-07-13 17:20:10.0	Ventana	 	00:47:03:05	 	V2687-01
 	ascend	Leuroglossus stilbius	275.24	2682	 	36.696915	-122.061226	1723745	1.33	2005-07-08 21:28:04.0	Ventana	34.241	05:19:44:17	7.747	V2682-06
 	cruise	sediment	1209.43	2683	 	36.706875	-122.04762	1757660	0.72	2005-07-11 20:13:58.0	Ventana	34.573	03:48:20:27	3.351	V2683-04
 	ascend	Euphausiacea	126.79	2693	 	36.6908	-122.062935	1759271	2.06	2005-07-25 21:32:38.0	Ventana	34.073	03:57:10:01	9.144	V2693-04
 	transect	molt	100.5	2681	 	36.699757	-122.054245	2489766	2.12	2005-07-07 16:50:03.0	Ventana	34.067	00:21:12:01	9.159	V2681-01HD
 	descend	Copepoda	454.45	2682	 	36.698498	-122.05954	1720782	0.56	2005-07-08 17:54:56.0	Ventana	34.321	01:48:26:04	6.275	V2682-02
 	transect	Mesomyaria	999.97	2669	 	36.731754	-122.244354	1734279	0.4	2005-05-25 19:52:00.0	Ventana	34.509	02:13:31:00	4.083	V2669-03
 	transect	Mediaster	 	2687	 	 	 	1812207	 	2005-07-13 20:29:05.0	Ventana	 	03:54:03:03	 	V2687-04
 	cruise	Umbellula lindahli	618.42	2688	 	36.794605	-122.01939	1677306	0.43	2005-07-14 16:30:29.0	Ventana	34.398	00:16:50:01	5.35	V2688-01
 	transect	Gastropoda sp.2	999.73	2669	 	36.73129	-122.23811	1694716	0.43	2005-05-25 19:15:40.0	Ventana	34.522	01:37:39:03	3.958	V2669-02
 	ascend	Chaetognatha	950.36	2681	 	36.697407	-122.05379	1716869	0.42	2005-07-07 19:40:57.833	Ventana	34.516	03:10:01:02	4.057	V2681-04
 	transect	Sebastolobus altivelis	799.05	2674	 	36.751335	-122.21527	1801414	0.35	2005-06-08 18:45:06.0	Ventana	34.488	01:29:09:18	4.351	V2674-02
 	transect	Mesomyaria	1000.6	2669	 	36.732067	-122.24774	1736153	0.4	2005-05-25 20:16:58.0	Ventana	34.508	02:38:26:09	4.086	V2669-03
 	transect	Ceriantharia sp. 2	1000.36	2669	 	36.73092	-122.2336	1683923	0.45	2005-05-25 18:39:39.0	Ventana	34.522	01:01:40:14	3.914	V2669-02
 	cruise	Pennatulacea	999.41	2679	 	36.68986	-122.1656	1824352	0.42	2005-06-16 17:31:33.0	Ventana	34.513	00:02:56:02	4.114	V2679-01
 	transect	Mesomyaria	1000.14	2669	 	36.73105	-122.23967	1689188	0.41	2005-05-25 19:25:45.0	Ventana	34.51	01:47:43:24	4.061	V2669-02
 	ascend	Calycophorae	367.95	2693	 	36.69506	-122.06093	1758828	1.24	2005-07-25 20:58:24.0	Ventana	34.235	03:22:57:14	7.336	V2693-04
 	transect	cydippida	200.48	2681	 	36.69828	-122.05329	2490209	1.7	2005-07-07 17:05:50.0	Ventana	34.198	00:36:57:16	8.361	V2681-01HD
 	transect	Mesomyaria	1000.27	2669	 	36.731464	-122.24206	1694453	0.4	2005-05-25 19:39:43.0	Ventana	34.509	02:01:40:18	4.076	V2669-02
 	ascend	Appendicularia	720.79	2681	 	36.6987	-122.05521	1717575	0.29	2005-07-07 20:18:39.49	Ventana	34.435	03:47:40:12	4.968	V2681-04
 	transect	Parastichopus leukothele	203.49	2696	 	36.80736	-122.13103	1813822	1.47	2005-08-01 18:40:48.0	Ventana	34.216	02:07:53:20	8.625	V2696-03
 	transect	Hastigerinella digitata	300.47	2681	 	36.697964	-122.05334	2492083	1.24	2005-07-07 17:21:39.0	Ventana	34.234	00:52:46:16	7.402	V2681-01HD
 	cruise	rock outcrop	284.72	2688	http://search.mbari.org/ARCHIVE/frameGrabs/Ventana/images/2688/02_09_31_28.jpg	36.808994	-122.02034	20005187	1.43	2005-07-14 18:23:50.0	Ventana	34.208	02:09:31:28	7.991	V2688-02
 	transect	Mesomyaria	999.57	2669	 	36.731056	-122.235054	1684246	0.45	2005-05-25 18:50:31.0	Ventana	34.522	01:12:31:02	3.924	V2669-02
 	descend	Aegina	838.51	2683	 	36.702827	-122.04846	1757217	0.34	2005-07-11 18:23:57.0	Ventana	34.481	02:08:00:28	4.427	V2683-02
 	descend	Prayidae	377.92	2681	 	36.695557	-122.051216	1715074	0.96	2005-07-07 17:32:34.367	Ventana	34.254	01:02:58:00	6.979	V2681-02
 	ascend	Chaetognatha	1004.32	2682	 	36.69773	-122.058235	1722900	0.46	2005-07-08 20:05:37.0	Ventana	34.523	03:58:13:04	3.93	V2682-04
 	ascend	Appendicularia	1173.73	2683	 	36.707096	-122.04805	1757720	0.7	2005-07-11 20:27:02.0	Ventana	34.57	04:01:23:18	3.395	V2683-04
 	descend	Chaetognatha	280.69	2693	 	36.69796	-122.06136	1758426	1.41	2005-07-25 19:35:39.0	Ventana	34.237	02:15:15:18	8.01	V2693-03
 	transect	Euphausia	200.4	2681	 	36.698284	-122.05331	2490915	1.7	2005-07-07 17:09:45.0	Ventana	34.189	00:40:52:28	8.321	V2681-01HD
 	transect	Phyllospadix	399.7	2687	 	36.789356	-122.12491	1809627	1.15	2005-07-13 18:26:43.0	Ventana	34.24	01:53:02:19	7.313	V2687-02
 	transect	molt	50.44	2681	 	36.69982	-122.05429	2485530	2.94	2005-07-07 16:34:21.0	Ventana	33.928	00:05:30:24	9.616	V2681-01HD
 	transect	Mesomyaria	999.4	2669	 	36.731	-122.23228	1683720	0.45	2005-05-25 18:30:57.0	Ventana	34.521	00:53:23:17	3.915	V2669-01
 	transect	Psolus squamatus	 	2687	 	 	 	1812410	 	2005-07-13 20:37:23.0	Ventana	 	04:02:21:06	 	V2687-04
 	descend	Dosidicus gigas	719.85	2682	 	36.69849	-122.05989	1721488	0.28	2005-07-08 18:22:59.0	Ventana	34.439	02:16:03:20	4.907	V2682-03
 	transect	Psolus squamatus	 	2687	 	 	 	1808921	 	2005-07-13 17:32:06.0	Ventana	 	00:58:58:01	 	V2687-01
 	transect	Phyllospadix	800.26	2674	 	36.752644	-122.20033	1774101	0.3	2005-06-08 17:29:46.0	Ventana	34.452	00:14:19:25	4.559	V2674-01
 	descend	Appendicularia	313.38	2681	 	36.695644	-122.051285	1713658	1.19	2005-07-07 17:30:18.533	Ventana	34.236	01:01:25:26	7.321	V2681-01
 	transect	Pennatulacea sp.1	603.16	2680	 	36.78886	-122.23246	1805973	0.35	2005-06-27 20:04:21.0	Ventana	34.379	02:42:59:04	5.588	V2680-03
 	ascend	Poeobius meseres	644.66	2683	 	36.705166	-122.05	1757923	0.27	2005-07-11 21:09:28.0	Ventana	34.408	04:42:19:26	5.26	V2683-05
 	transect	Psolus squamatus	399.84	2687	http://search.mbari.org/ARCHIVE/frameGrabs/Ventana/images/2687/01_02_17_21.jpg	36.788036	-122.12153	1809124	1.13	2005-07-13 17:35:55.0	Ventana	34.244	01:02:17:21	7.27	V2687-02
 	ascend	Chuniphyes	966.89	2681	 	36.69716	-122.053566	1716809	0.43	2005-07-07 19:38:18.567	Ventana	34.518	03:07:21:29	4.018	V2681-04
 	transect	Caecosagitta macrocephala	800.86	2681	 	36.696583	-122.05261	2498257	0.31	2005-07-07 19:00:59.0	Ventana	34.475	02:30:41:03	4.504	V2681-03HD
 	descend	Chaetognatha	994.41	2682	 	36.698322	-122.05923	1722014	0.43	2005-07-08 18:58:25.0	Ventana	34.52	02:51:28:03	3.997	V2682-03
 	ascend	Doliolenetta	884.89	2682	 	36.698395	-122.058426	1723223	0.34	2005-07-08 20:17:05.0	Ventana	34.493	04:09:14:14	4.315	V2682-05
 	transect	Psolus squamatus	 	2687	 	 	 	1811704	 	2005-07-13 20:21:01.0	Ventana	 	03:46:00:02	 	V2687-04
 	transect	Mediaster	 	2687	 	 	 	1811561	 	2005-07-13 20:15:42.0	Ventana	 	03:40:41:08	 	V2687-04
 	transect	Mesomyaria	999.54	2669	 	36.731266	-122.23587	1684426	0.44	2005-05-25 18:56:32.0	Ventana	34.52	01:18:31:26	3.932	V2669-02
 	descend	Physonectae	371.52	2693	 	36.69618	-122.06091	1758629	1.19	2005-07-25 20:21:29.0	Ventana	34.238	03:01:02:19	7.139	V2693-03
 	descend	Nanomia	196.99	2682	 	36.699894	-122.06073	1719952	1.91	2005-07-08 16:20:38.0	Ventana	34.166	00:14:41:23	8.016	V2682-01
 	transect	Neptunea amianta	800.56	2674	 	36.75257	-122.20211	1799157	0.34	2005-06-08 17:39:15.0	Ventana	34.482	00:23:48:19	4.44	V2674-01
 	ascend	Nanomia	258.17	2681	 	36.697838	-122.05522	1719569	 	2005-07-07 21:29:59.0	Ventana	 	05:14:45:02	 	V2681-05
 	transect	Mesomyaria	999.69	2669	 	36.731964	-122.24617	1735627	0.41	2005-05-25 20:05:06.0	Ventana	34.509	02:26:35:12	4.062	V2669-03
 	cruise	Scyliorhinidae	548.17	2688	http://search.mbari.org/ARCHIVE/frameGrabs/Ventana/images/2688/00_45_24_15.jpg	36.79769	-122.01992	1677426	0.59	2005-07-14 16:59:08.0	Ventana	34.33	00:45:24:15	6.172	V2688-01
 	transect	Lycodes cortezianus	198.87	2696	http://search.mbari.org/ARCHIVE/frameGrabs/Ventana/images/2696/01_00_01_02.jpg	36.803757	-122.12487	1813296	1.53	2005-08-01 17:31:43.0	Ventana	34.202	01:00:01:02	8.627	V2696-01
 	descend	Chaetognatha	301.01	2682	 	36.69939	-122.06077	1720095	1.17	2005-07-08 16:46:30.0	Ventana	34.239	00:40:32:27	7.344	V2682-01
 	transect	Merluccius productus	700.64	2681	 	36.69651	-122.05243	2497731	0.28	2005-07-07 18:41:41.0	Ventana	34.434	02:11:23:14	4.959	V2681-03HD
 	cruise	Actiniaria	105.75	2676	 	36.808434	-122.037224	1677103	1.97	2005-06-14 18:55:41.0	Ventana	34.151	02:34:27:22	8.468	V2676-03
 	descend	Appendicularia	639.17	2682	 	36.698635	-122.05989	1721308	0.28	2005-07-08 18:09:29.0	Ventana	34.401	02:02:34:06	5.326	V2682-03
 	ascend	Appendicularia	420.41	2683	 	36.704136	-122.05059	1758043	0.92	2005-07-11 21:19:27.0	Ventana	34.258	04:52:18:29	6.866	V2683-05
 	ascend	Appendicularia	761.43	2681	 	36.69868	-122.05598	1717515	0.29	2005-07-07 20:11:40.0	Ventana	34.45	03:40:41:10	4.802	V2681-04
 	descend	Appendicularia	597.91	2683	 	36.70193	-122.049065	1757014	0.35	2005-07-11 17:49:06.0	Ventana	34.368	01:33:11:09	5.784	V2683-02
 	cruise	Rathbunaster californicus	472.28	2676	 	36.80229	-122.029335	1676258	0.56	2005-06-14 16:31:23.0	Ventana	34.339	00:15:32:06	6.134	V2676-01
 	transect	Lycenchelys camchatica	999.6	2669	 	36.73137	-122.23764	1687517	0.44	2005-05-25 19:11:35.0	Ventana	34.52	01:33:34:14	3.949	V2669-02
 	transect	Mesomyaria	1000.17	2669	 	36.731163	-122.24037	1689248	0.41	2005-05-25 19:29:45.0	Ventana	34.51	01:51:42:24	4.063	V2669-02
 	descend	Chuniphyes	863.92	2681	 	36.696957	-122.05319	1716486	0.34	2005-07-07 19:04:55.667	Ventana	34.495	02:34:37:28	4.279	V2681-03
 	transect	Psolus squamatus	 	2687	 	 	 	1808801	 	2005-07-13 17:29:43.0	Ventana	 	00:56:35:26	 	V2687-01
 	transect	Ophiuroidea	999.07	2669	 	36.731388	-122.23609	1684569	0.44	2005-05-25 18:58:13.0	Ventana	34.522	01:20:13:11	3.94	V2669-02
 	descend	Nanomia	183.23	2681	 	36.69828	-122.05329	1713538	1.92	2005-07-07 17:03:13.333	Ventana	34.142	00:34:22:11	8.464	V2681-01
 	descend	Pantachogon	1179.24	2682	 	36.698242	-122.05917	1722194	0.66	2005-07-08 19:14:42.0	Ventana	34.57	03:07:19:12	3.413	V2682-04
 	transect	Phyllospadix	800.4	2674	 	36.75125	-122.216095	1803393	0.35	2005-06-08 18:49:44.0	Ventana	34.489	01:33:46:29	4.34	V2674-02
 	descend	Aegina	958.7	2683	 	36.703896	-122.04853	1757337	0.42	2005-07-11 19:11:05.0	Ventana	34.516	02:51:28:00	4.047	V2683-03
 	transect	molt	100.51	2681	 	36.69925	-122.05392	2489826	2.14	2005-07-07 16:51:22.0	Ventana	34.067	00:22:30:25	9.15	V2681-01HD
 	ascend	Acanthamunnopsis milleri	261.46	2681	 	36.699177	-122.054565	1718683	1.42	2005-07-07 21:15:26.08	Ventana	34.231	04:43:45:17	7.972	V2681-05
 	transect	Chaetognatha	200.36	2681	 	36.69829	-122.05333	2491058	1.69	2005-07-07 17:11:16.0	Ventana	34.196	00:42:23:13	8.332	V2681-01HD
 	transect	Euplexaura	400.29	2687	http://search.mbari.org/ARCHIVE/frameGrabs/Ventana/images/2687/01_36_29_23.jpg	36.789017	-122.12386	1809507	1.17	2005-07-13 18:10:09.0	Ventana	34.235	01:36:29:23	7.355	V2687-02
 	transect	Mesomyaria	998.28	2669	 	36.731026	-122.23031	1651285	0.45	2005-05-25 18:16:54.0	Ventana	34.522	00:39:21:00	3.911	V2669-01
 	transect	Ceriantharia sp. 2	1000.34	2669	 	36.731968	-122.24715	1735830	0.41	2005-05-25 20:12:52.0	Ventana	34.511	02:34:21:11	4.069	V2669-03
 	transect	Mediaster	 	2687	 	 	 	1807062	 	2005-07-13 16:56:50.0	Ventana	 	00:23:44:11	 	V2687-01
 	transect	molt	200.48	2681	 	36.69828	-122.05329	2490532	1.71	2005-07-07 17:07:20.0	Ventana	34.197	00:38:27:24	8.341	V2681-01HD
 	transect	Mesomyaria	1000.11	2669	 	36.73108	-122.238754	1689068	0.43	2005-05-25 19:19:54.0	Ventana	34.518	01:41:52:12	3.963	V2669-02
 	descend	Appendicularia	502.25	2683	 	36.701466	-122.04914	1756834	0.68	2005-07-11 17:37:12.0	Ventana	34.305	01:21:18:25	6.463	V2683-02
 	transect	Porifera sp. 1	 	2687	 	 	 	1812267	 	2005-07-13 20:30:17.0	Ventana	 	03:55:15:08	 	V2687-04
 	transect	Ophiuroidea	1000.04	2669	 	36.731007	-122.2331	1683863	0.45	2005-05-25 18:37:26.0	Ventana	34.523	00:59:51:28	3.91	V2669-01
 	transect	molt	100.54	2681	 	36.69983	-122.05429	2489646	2.13	2005-07-07 16:47:00.0	Ventana	34.069	00:18:10:10	9.144	V2681-01HD
 	transect	Rathbunaster californicus	200.26	2696	 	36.80469	-122.12709	1813499	1.51	2005-08-01 17:53:58.0	Ventana	34.211	01:21:50:26	8.672	V2696-02
 	cruise	Lobata	350.92	2688	 	36.807713	-122.020004	1677809	1.16	2005-07-14 18:04:28.0	Ventana	34.238	01:50:10:18	7.391	V2688-02
 	transect	Psolus squamatus	 	2687	 	 	 	1808598	 	2005-07-13 17:24:51.0	Ventana	 	00:51:43:10	 	V2687-01
 	cruise	LRJ Complex	1232.29	2683	 	36.705746	-122.048	1757540	0.72	2005-07-11 19:49:38.0	Ventana	34.574	03:24:01:06	3.343	V2683-04
 	transect	Poeobius meseres	400.77	2681	 	36.69722	-122.05286	2493112	0.79	2005-07-07 17:47:10.0	Ventana	34.278	01:17:34:25	6.663	V2681-02HD
 	transect	Sebastolobus altivelis	801.55	2674	 	36.75095	-122.21865	1803596	0.34	2005-06-08 19:00:57.0	Ventana	34.485	01:44:59:18	4.379	V2674-02
 	transect	rock outcrop	 	2687	 	 	 	1812793	 	2005-07-13 20:57:40.0	Ventana	 	04:22:10:21	 	V2687-05
 	ascend	Chuniphyes	929.62	2681	 	36.697678	-122.05418	1716989	0.41	2005-07-07 19:44:14.933	Ventana	34.513	03:13:17:29	4.112	V2681-04
 	transect	Calliostoma platinum	 	2687	 	 	 	1810213	 	2005-07-13 19:09:34.0	Ventana	 	02:35:18:22	 	V2687-03
 	descend	Myctophidae	572.47	2682	 	36.698643	-122.059814	1720925	0.33	2005-07-08 18:06:34.0	Ventana	34.376	02:00:02:17	5.591	V2682-02
 	transect	Poeobius meseres	1001.01	2681	 	36.69574	-122.05183	2498640	0.48	2005-07-07 19:26:30.0	Ventana	34.535	02:56:10:09	3.849	V2681-03HD
 	ascend	Appendicularia	405.89	2681	 	36.699245	-122.05441	1717977	0.83	2005-07-07 20:47:15.567	Ventana	34.278	04:15:36:09	6.794	V2681-05
 	transect	Chaetognatha	600.57	2681	 	36.697224	-122.05298	2493818	0.3	2005-07-07 18:25:36.0	Ventana	34.388	01:55:57:06	5.469	V2681-02HD
 	descend	Appendicularia	363.13	2682	 	36.69848	-122.060074	1720478	1.0	2005-07-08 17:33:36.0	Ventana	34.255	01:27:06:24	7.084	V2682-02
 	transect	Phyllospadix	801.23	2674	 	36.7525	-122.199455	1773778	0.29	2005-06-08 17:23:29.0	Ventana	34.46	00:08:03:18	4.661	V2674-01
 	descend	Appendicularia	394.89	2683	 	36.701473	-122.049644	1756631	0.97	2005-07-11 17:00:40.0	Ventana	34.256	00:48:19:24	7.002	V2683-01
 	transect	Raja rhina	399.85	2687	 	36.78811	-122.121735	1809304	1.14	2005-07-13 17:39:01.0	Ventana	34.238	01:05:23:22	7.284	V2687-02
 	transect	Lycodes cortezianus	203.66	2696	 	36.805264	-122.128204	1813679	1.48	2005-08-01 18:14:41.0	Ventana	34.213	01:42:32:26	8.63	V2696-02
 	transect	Ceriantharia sp. 2	997.35	2669	 	36.730606	-122.22736	1683337	0.45	2005-05-25 17:56:40.0	Ventana	34.521	00:19:08:18	3.908	V2669-01
 	ascend	Appendicularia	316.55	2681	 	36.699673	-122.05527	1718157	1.25	2005-07-07 20:57:40.367	Ventana	34.232	04:26:00:14	7.457	V2681-05
 	transect	Teuthoidea	700.59	2681	 	36.695454	-122.05125	2497934	0.28	2005-07-07 18:46:24.0	Ventana	34.435	02:16:07:14	4.969	V2681-03HD
 	ascend	Appendicularia	606.71	2682	 	36.69887	-122.05998	1723426	0.34	2005-07-08 20:39:12.0	Ventana	34.382	04:31:20:07	5.545	V2682-05
 	descend	Chaetognatha	176.82	2693	 	36.69609	-122.05814	1758246	1.94	2005-07-25 18:06:18.0	Ventana	34.145	00:46:49:27	8.899	V2693-01
 	transect	Psolus squamatus	 	2687	 	 	 	1810919	 	2005-07-13 19:42:45.0	Ventana	 	03:07:46:29	 	V2687-04
 	transect	Mediaster	 	2687	 	 	 	1811621	 	2005-07-13 20:17:39.0	Ventana	 	03:42:38:15	 	V2687-04
 	descend	sinker	459.64	2681	 	36.698093	-122.05388	1715337	0.53	2005-07-07 17:52:30.167	Ventana	34.319	01:22:53:02	6.171	V2681-02
 	transect	Brisaster	599.38	2680	 	36.779346	-122.22442	1804505	0.36	2005-06-27 18:08:48.0	Ventana	34.377	00:48:54:04	5.603	V2680-01
 	transect	Phyllospadix	 	2687	 	 	 	1811122	 	2005-07-13 19:54:21.0	Ventana	 	03:19:22:04	 	V2687-04
 	descend	Appendicularia	263.42	2682	 	36.699795	-122.06083	1720012	1.36	2005-07-08 16:26:44.0	Ventana	34.227	00:20:47:21	7.8	V2682-01
 	transect	Lycodapus	599.24	2680	 	36.779163	-122.22427	1804482	0.36	2005-06-27 18:06:57.0	Ventana	34.376	00:47:03:08	5.601	V2680-01
 	ascend	Euphausiacea	281.59	2681	 	36.69973	-122.055046	1718300	1.36	2005-07-07 21:02:52.367	Ventana	34.234	04:31:12:19	7.751	V2681-05
 	transect	Neptunea amianta	800.38	2674	 	36.752037	-122.209	1800851	0.35	2005-06-08 18:14:37.0	Ventana	34.49	00:59:08:17	4.341	V2674-01
 	descend	Myctophidae	608.76	2682	 	36.69863	-122.0598	1721248	0.3	2005-07-08 18:07:56.0	Ventana	34.393	02:01:01:11	5.398	V2682-03
 	transect	cyclothone	400.79	2681	 	36.695934	-122.05135	2492932	0.79	2005-07-07 17:41:37.0	Ventana	34.276	01:12:01:19	6.665	V2681-02HD
 	transect	Sebastolobus	1000.22	2669	 	36.73091	-122.232704	1683803	0.45	2005-05-25 18:35:04.0	Ventana	34.52	00:57:29:22	3.911	V2669-01
 	transect	Mediaster	 	2687	 	 	 	1812327	 	2005-07-13 20:32:23.0	Ventana	 	03:57:20:28	 	V2687-04
 	transect	Poeobius meseres	500.56	2681	 	36.696007	-122.051506	2493638	0.43	2005-07-07 18:03:21.0	Ventana	34.349	01:33:43:09	6.006	V2681-02HD
 	ascend	Praya	 	2683	 	 	 	1758163	 	 	Ventana	 	05:10:46:21	 	V2683-05
 	descend	Sergestes similis	260.65	2683	 	36.700905	-122.05046	1756451	1.51	2005-07-11 16:51:17.0	Ventana	34.218	00:38:57:08	7.971	V2683-01
 	transect	Ophiuroidea	998.95	2669	 	36.73052	-122.228546	1650902	0.45	2005-05-25 18:04:01.0	Ventana	34.522	00:26:29:18	3.907	V2669-01
 	transect	Brisaster	1000.51	2669	 	36.73123	-122.241	1689368	0.41	2005-05-25 19:34:08.0	Ventana	34.51	01:56:05:25	4.055	V2669-02
 	ascend	Chaetognatha	334.22	2693	 	36.692444	-122.06185	1759008	1.27	2005-07-25 21:15:03.0	Ventana	34.252	03:39:35:24	7.523	V2693-04
 	transect	Pennatulacea sp.1	602.37	2680	 	36.79036	-122.23272	1806762	0.35	2005-06-27 20:18:44.0	Ventana	34.379	02:57:20:25	5.587	V2680-03
 	ascend	Appendicularia	666.97	2682	 	36.698925	-122.05958	1723366	0.28	2005-07-08 20:34:54.0	Ventana	34.403	04:27:02:27	5.237	V2682-05
 	transect	Phyllospadix	800.52	2674	 	36.752514	-122.20306	1799277	0.34	2005-06-08 17:43:41.0	Ventana	34.485	00:28:14:24	4.416	V2674-01
 	transect	Nanomia bijuga	200.39	2681	 	36.698284	-122.053314	2490975	1.71	2005-07-07 17:10:23.0	Ventana	34.187	00:41:30:16	8.319	V2681-01HD
 	cruise	Sebastolobus	497.38	2688	 	36.801292	-122.01858	1677546	0.76	2005-07-14 17:23:36.0	Ventana	34.294	01:09:21:07	6.602	V2688-02
 	transect	Stomphia	598.35	2680	 	36.78094	-122.22588	1804828	0.35	2005-06-27 18:29:14.0	Ventana	34.381	01:08:20:01	5.574	V2680-02
 	descend	Copepoda	808.63	2683	 	36.70267	-122.04877	1757157	0.35	2005-07-11 18:01:24.0	Ventana	34.472	01:45:28:19	4.563	V2683-02
 	transect	Phyllospadix	799.48	2674	 	36.75268	-122.200935	1774161	0.33	2005-06-08 17:33:19.0	Ventana	34.481	00:17:52:14	4.45	V2674-01
 	transect	Mesomyaria	800.05	2674	 	36.751755	-122.21203	1801174	0.35	2005-06-08 18:28:17.0	Ventana	34.487	01:12:21:27	4.337	V2674-02
 	descend	Crustacea	596.81	2681	 	36.695686	-122.05108	1715637	0.31	2005-07-07 18:07:40.1	Ventana	34.38	01:38:01:17	5.52	V2681-02
 	descend	Appendicularia	550.73	2682	 	36.69863	-122.05978	1720902	0.35	2005-07-08 18:05:29.0	Ventana	34.37	01:58:57:28	5.68	V2682-02
 	cruise	Allocentrotus fragilis	171.39	2676	 	36.80809	-122.03019	1676840	1.64	2005-06-14 17:49:09.0	Ventana	34.191	01:28:51:27	8.171	V2676-02
 	transect	Calycophorae	300.4	2681	 	36.69575	-122.05137	2492609	1.24	2005-07-07 17:29:35.0	Ventana	34.233	01:00:41:17	7.415	V2681-01HD
 	transect	Ophiuroidea	998.66	2669	 	36.73115	-122.23462	1684163	0.45	2005-05-25 18:46:58.0	Ventana	34.52	01:08:58:29	3.916	V2669-02
 	ascend	Chuniphyes	418.92	2681	 	36.699223	-122.0543	1717954	0.79	2005-07-07 20:45:38.957	Ventana	34.281	04:14:02:26	6.659	V2681-05
 	transect	Embassichthys bathybius	1000.3	2669	http://search.mbari.org/ARCHIVE/frameGrabs/Ventana/images/2669/02_19_45_18.jpg	36.731842	-122.245224	1735364	0.4	2005-05-25 19:58:15.0	Ventana	34.506	02:19:45:18	4.099	V2669-03
 	transect	Mesomyaria	1000.18	2669	 	36.731766	-122.24493	1734482	0.4	2005-05-25 19:55:49.0	Ventana	34.508	02:17:19:21	4.072	V2669-03
 	transect	Ceriantharia sp. 1	601.36	2680	http://search.mbari.org/ARCHIVE/frameGrabs/Ventana/images/2680/00_18_00_08.jpg	36.776733	-122.22205	1804122	0.36	2005-06-27 17:37:52.0	Ventana	34.379	00:18:00:08	5.578	V2680-01
 	transect	Ceriantharia sp. 1	597.35	2680	 	36.781082	-122.22603	1804865	0.35	2005-06-27 18:31:28.0	Ventana	34.378	01:10:33:20	5.597	V2680-02
 	transect	Mesomyaria	801.33	2674	 	36.752174	-122.20795	1800145	0.35	2005-06-08 18:09:23.0	Ventana	34.49	00:53:53:14	4.329	V2674-01
 	descend	Poeobius meseres	1090.91	2683	 	36.705112	-122.048904	1757457	0.55	2005-07-11 19:28:40.0	Ventana	34.539	03:09:00:21	3.744	V2683-03
 	transect	Allocentrotus fragilis	 	2687	 	 	 	1808658	 	2005-07-13 17:26:28.0	Ventana	 	00:53:20:14	 	V2687-01
 	ascend	sinker	747.84	2682	 	36.698788	-122.05917	1723306	0.29	2005-07-08 20:29:00.0	Ventana	34.445	04:21:08:24	4.844	V2682-05
 	ascend	Appendicularia	603.72	2682	 	36.69862	-122.06175	1723542	0.33	2005-07-08 20:57:59.0	Ventana	34.378	04:50:05:10	5.632	V2682-05
 	transect	Mesomyaria	999.91	2669	 	36.73259	-122.25089	1737039	0.4	2005-05-25 20:38:16.0	Ventana	34.508	02:59:44:06	4.082	V2669-03
 	descend	Calycophorae	339.72	2693	 	36.697117	-122.05995	1758569	1.29	2005-07-25 19:58:16.0	Ventana	34.235	02:37:50:18	7.579	V2693-03
 	transect	Mesomyaria	798.87	2674	 	36.751747	-122.21248	1801211	0.35	2005-06-08 18:29:49.0	Ventana	34.49	01:13:53:27	4.33	V2674-02
 	cruise	Merluccius productus	381.47	2690	 	36.790154	-121.88732	1670347	0.97	2005-07-18 20:19:51.0	Ventana	34.263	01:34:56:28	7.036	V2690-01
 	transect	Mesomyaria	998.17	2669	 	36.73053	-122.22835	1649366	0.45	2005-05-25 18:02:54.0	Ventana	34.523	00:25:21:13	3.908	V2669-01
 	transect	Brisaster	1000.21	2669	 	36.731606	-122.24329	1733813	0.41	2005-05-25 19:46:21.0	Ventana	34.51	02:07:52:11	4.065	V2669-03
 	ascend	Crustacea	721.73	2683	 	36.706	-122.04874	1757863	0.29	2005-07-11 21:04:53.0	Ventana	34.454	04:37:46:04	4.733	V2683-05
 	transect	Calycophorae	100.53	2681	 	36.69983	-122.05429	2489563	2.13	2005-07-07 16:44:58.0	Ventana	34.068	00:16:08:08	9.147	V2681-01HD
 	ascend	Bathylagus milleri	837.66	2681	 	36.69868	-122.05606	1717395	0.31	2005-07-07 19:56:43.4	Ventana	34.483	03:25:46:05	4.422	V2681-04
 	descend	Euphausiacea	365.54	2682	 	36.698544	-122.06023	1720358	0.98	2005-07-08 17:28:50.0	Ventana	34.26	01:22:22:05	7.046	V2682-02
 	transect	Phyllospadix	800.61	2674	 	36.752087	-122.20851	1800768	0.35	2005-06-08 18:12:00.0	Ventana	34.491	00:56:31:10	4.326	V2674-01
 	ascend	surface water	 	2694	 	 	 	1676780	 	2005-07-27 21:22:29.0	Ventana	 	03:53:48:24	 	V2694-04
 	transect	Mesomyaria	1001.0	2669	http://search.mbari.org/ARCHIVE/frameGrabs/Ventana/images/2669/02_49_21_12.jpg	36.732277	-122.24929	1736333	0.4	2005-05-25 20:27:52.0	Ventana	34.508	02:49:21:12	4.072	V2669-03
 	transect	Psolus squamatus	 	2687	http://search.mbari.org/ARCHIVE/frameGrabs/Ventana/images/2687/03_14_09_17.jpg	 	 	1811039	 	2005-07-13 19:49:08.0	Ventana	 	03:14:09:17	 	V2687-04
 	transect	molt	50.46	2681	 	36.699783	-122.05427	2485470	2.97	2005-07-07 16:33:16.0	Ventana	33.917	00:04:27:09	9.622	V2681-01HD
 	ascend	Cydippida	258.17	2681	 	36.697838	-122.05522	1719366	 	2005-07-07 21:29:59.0	Ventana	 	05:02:44:27	 	V2681-05
 	transect	Neptunea amianta	800.81	2674	 	36.752396	-122.20553	1799799	0.36	2005-06-08 17:57:20.0	Ventana	34.486	00:41:52:19	4.362	V2674-01
 	transect	Calycophorae	1001.1	2681	 	36.69467	-122.05044	2498520	0.47	2005-07-07 19:20:43.0	Ventana	34.531	02:50:22:17	3.868	V2681-03HD
 	descend	Hastigerinella digitata	301.0	2682	 	36.6996	-122.06076	1720072	1.21	2005-07-08 16:37:45.0	Ventana	34.238	00:31:48:19	7.398	V2682-01
 	transect	Appendicularia	400.73	2681	 	36.697933	-122.05364	2493232	0.79	2005-07-07 17:50:11.0	Ventana	34.278	01:20:34:18	6.661	V2681-02HD
 	transect	Rathbunaster californicus	 	2687	 	 	 	1812673	 	2005-07-13 20:51:01.0	Ventana	 	04:15:31:26	 	V2687-05
 	transect	Neptunea amianta	800.58	2674	 	36.751137	-122.21691	1803453	0.35	2005-06-08 18:52:43.0	Ventana	34.485	01:36:46:18	4.353	V2674-02
 	descend	Halicreas	1014.28	2683	 	36.704502	-122.04979	1757397	0.44	2005-07-11 19:22:54.0	Ventana	34.522	03:03:15:21	3.984	V2683-03
 	transect	Mesomyaria	801.85	2674	 	36.75224	-122.20739	1800062	0.37	2005-06-08 18:06:51.0	Ventana	34.485	00:51:23:14	4.355	V2674-01
 	transect	Psolus squamatus	 	2687	 	 	 	1808718	 	2005-07-13 17:27:46.0	Ventana	 	00:54:38:27	 	V2687-01
 	transect	Mesomyaria	998.1	2669	 	36.733006	-122.25276	1737482	0.4	2005-05-25 20:49:23.0	Ventana	34.508	03:10:11:02	4.075	V2669-04
 	transect	Ceriantharia sp. 2	999.55	2669	 	36.731	-122.23241	1683743	0.45	2005-05-25 18:32:49.0	Ventana	34.522	00:55:15:02	3.915	V2669-01
 	transect	Phyllospadix	 	2687	 	 	 	1807122	 	2005-07-13 17:00:41.0	Ventana	 	00:27:35:00	 	V2687-01
 	transect	Lycenchelys camchatica	999.71	2669	 	36.731415	-122.23658	1684809	0.44	2005-05-25 19:03:01.0	Ventana	34.521	01:25:00:11	3.938	V2669-02
 	transect	Mesomyaria	1000.63	2669	 	36.73231	-122.24941	1736416	0.41	2005-05-25 20:28:53.0	Ventana	34.51	02:50:20:20	4.07	V2669-03
 	transect	Sebastes diploproa	 	2687	 	 	 	1810333	 	2005-07-13 19:15:49.0	Ventana	 	02:41:33:12	 	V2687-03
 	ascend	Hastigerinella digitata	241.54	2683	 	36.702976	-122.05072	1758103	1.71	2005-07-11 21:27:12.0	Ventana	34.185	05:00:03:05	8.017	V2683-05
 	transect	Mediaster	 	2687	 	 	 	1812387	 	2005-07-13 20:36:11.0	Ventana	 	04:01:08:25	 	V2687-04
 	transect	Porifera	 	2687	 	 	 	1809004	 	2005-07-13 17:33:22.0	Ventana	 	01:00:14:01	 	V2687-01
 	transect	Mediaster	 	2687	 	 	 	1810776	 	2005-07-13 19:33:54.0	Ventana	 	02:59:37:03	 	V2687-03
 	transect	Rathbunaster californicus	199.4	2696	 	36.80413	-122.12585	1813379	1.52	2005-08-01 17:41:23.0	Ventana	34.208	01:09:17:08	8.666	V2696-02
 	cruise	Sebastolobus	349.24	2676	 	36.80469	-122.029	1676604	1.22	2005-06-14 17:02:40.0	Ventana	34.238	00:46:47:21	7.51	V2676-01
 	transect	Stomphia	800.37	2674	 	36.751747	-122.211494	1801114	0.35	2005-06-08 18:25:57.0	Ventana	34.483	01:10:01:29	4.358	V2674-02
 	transect	molt	100.5	2681	 	36.699825	-122.05429	2489706	2.13	2005-07-07 16:48:21.0	Ventana	34.067	00:19:31:01	9.15	V2681-01HD
 	transect	Appendicularia	400.75	2681	 	36.697567	-122.05327	2493172	0.79	2005-07-07 17:48:41.0	Ventana	34.277	01:19:04:19	6.658	V2681-02HD
 	cruise	Pleuronectiformes	90.39	2688	 	36.816418	-122.016106	1679364	2.02	2005-07-14 20:13:43.0	Ventana	34.09	03:58:27:29	8.927	V2688-04
 	transect	Gastropoda sp.2	999.25	2669	 	36.730484	-122.228714	1695016	0.45	2005-05-25 18:04:53.0	Ventana	34.522	00:27:21:16	3.906	V2669-01
 	transect	Chionoecetes tanneri	802.35	2674	http://search.mbari.org/ARCHIVE/frameGrabs/Ventana/images/2674/00_44_05_08.jpg	36.752323	-122.20587	1799859	0.36	2005-06-08 17:59:33.0	Ventana	34.488	00:44:05:08	4.336	V2674-01
 	transect	Mesomyaria	1000.35	2669	 	36.73152	-122.242584	1694513	0.4	2005-05-25 19:42:22.0	Ventana	34.511	02:04:18:25	4.084	V2669-02
 	transect	Sebastolobus altivelis	600.62	2680	 	36.7771	-122.22225	1804219	0.36	2005-06-27 17:41:32.0	Ventana	34.378	00:21:39:26	5.582	V2680-01
 	transect	Mesomyaria	999.94	2669	 	36.731106	-122.23909	1689105	0.43	2005-05-25 19:22:01.0	Ventana	34.518	01:43:59:25	3.97	V2669-02
 	ascend	Chaetognatha	343.76	2693	 	36.69321	-122.06138	1758948	1.25	2005-07-25 21:10:56.0	Ventana	34.239	03:35:27:21	7.412	V2693-04
 	transect	Euplexaura	 	2687	 	 	 	1810836	 	2005-07-13 19:36:09.0	Ventana	 	03:01:51:29	 	V2687-03
 	transect	Rathbunaster californicus	196.39	2696	 	36.803062	-122.12263	1813093	1.56	2005-08-01 17:06:21.0	Ventana	34.197	00:34:39:26	8.623	V2696-01
 	descend	Appendicularia	796.91	2682	 	36.69836	-122.059685	1721691	0.31	2005-07-08 18:37:01.0	Ventana	34.469	02:30:04:19	4.577	V2682-03
 	transect	Phyllospadix	999.47	2669	 	36.73268	-122.251205	1737182	0.41	2005-05-25 20:40:14.0	Ventana	34.509	03:01:04:07	4.072	V2669-04
 	endtransect	physical object	400.7	2681	http://search.mbari.org/ARCHIVE/frameGrabs/Ventana/images/2681/01_20_29_01.jpg	36.69797	-122.053696	20004477	0.79	2005-07-07 17:50:25.533	Ventana	34.277	01:20:48:17	6.661	V2681-02
 	transect	Phyllospadix	1000.6	2669	 	36.732063	-122.24765	1736130	0.4	2005-05-25 20:16:26.0	Ventana	34.51	02:37:54:23	4.081	V2669-03
 	descend	Poeobius meseres	442.56	2683	 	36.70153	-122.049416	1756691	0.83	2005-07-11 17:08:18.0	Ventana	34.273	00:55:57:18	6.749	V2683-01
 	cruise	Mesomyaria	997.6	2669	http://search.mbari.org/ARCHIVE/frameGrabs/Ventana/images/2669/00_14_58_16.jpg	36.73066	-122.22688	20003771	0.45	2005-05-25 17:52:30.0	Ventana	34.522	00:14:58:16	3.91	V2669-01
 	transect	Actiniaria sp. 1	1000.13	2669	 	36.731792	-122.244675	1734422	0.4	2005-05-25 19:54:29.0	Ventana	34.508	02:15:59:28	4.09	V2669-03
 	transect	Glyptocephalus zachirus	202.27	2696	 	36.805256	-122.12819	1813642	1.48	2005-08-01 18:09:41.0	Ventana	34.207	01:37:33:09	8.65	V2696-02
 	transect	Hastigerinella digitata	300.44	2681	 	36.698345	-122.05354	2491963	1.25	2005-07-07 17:20:16.0	Ventana	34.233	00:51:24:05	7.431	V2681-01HD
 	descend	Tomopteridae	 	2693	 	 	 	1759451	 	2005-07-25 16:45:36.0	Ventana	 	00:24:09:01	 	V2693-01
 	transect	Phyllospadix	800.7	2674	 	36.75197	-122.2095	1800911	0.36	2005-06-08 18:17:23.0	Ventana	34.492	01:01:28:00	4.32	V2674-02
 	transect	molt	100.55	2681	 	36.69983	-122.05429	2489503	2.12	2005-07-07 16:43:09.0	Ventana	34.068	00:14:18:28	9.15	V2681-01HD
 	transect	Phyllospadix	203.25	2696	 	36.806686	-122.13027	1813799	1.48	2005-08-01 18:31:59.0	Ventana	34.213	01:59:49:22	8.632	V2696-02
 	transect	Mesomyaria	1000.26	2669	 	36.731308	-122.24151	1689811	0.4	2005-05-25 19:36:43.0	Ventana	34.508	01:58:40:26	4.091	V2669-02
 	transect	Mesomyaria	800.87	2674	 	36.751076	-122.217575	1803513	0.35	2005-06-08 18:56:17.0	Ventana	34.491	01:40:19:14	4.345	V2674-02
 	transect	Phyllospadix	804.41	2674	 	36.75073	-122.22077	1803716	0.34	2005-06-08 19:10:02.0	Ventana	34.483	01:54:04:15	4.409	V2674-02
 	ascend	water	56.42	2686	 	0.0	0.0	1669987	2.54	2005-07-12 22:22:23.0	Ventana	33.986	01:29:31:10	9.296	V2686-01
 	ascend	Appendicularia	368.04	2681	 	36.699364	-122.054886	1718037	0.98	2005-07-07 20:50:59.333	Ventana	34.265	04:19:19:25	7.069	V2681-05
 	transect	Ophiuroidea	1000.09	2669	 	36.731693	-122.24371	1733873	0.41	2005-05-25 19:48:15.0	Ventana	34.509	02:09:46:20	4.067	V2669-03
 	transect	Mediaster	 	2687	 	 	 	1811385	 	2005-07-13 20:10:43.0	Ventana	 	03:35:42:20	 	V2687-04
 	transect	Allocentrotus fragilis	 	2687	 	 	 	1809973	 	2005-07-13 18:49:08.0	Ventana	 	02:14:54:00	 	V2687-03
 	transect	Nanomia bijuga	200.42	2681	 	36.6983	-122.05336	2491118	1.69	2005-07-07 17:12:02.0	Ventana	34.198	00:43:09:09	8.337	V2681-01HD
 	ascend	Copepoda	209.79	2693	 	36.69111	-122.062584	1759151	1.74	2005-07-25 21:24:42.0	Ventana	34.201	03:49:13:13	8.677	V2693-04
 	transect	Phyllospadix	599.27	2680	 	36.779827	-122.22495	1804565	0.35	2005-06-27 18:15:45.0	Ventana	34.381	00:55:50:21	5.579	V2680-01
 	transect	Mesomyaria	1000.01	2669	 	36.732594	-122.25042	1736979	0.41	2005-05-25 20:36:09.0	Ventana	34.509	02:57:37:15	4.07	V2669-03
 	transect	Leuroglossus stilbius	700.61	2681	 	36.69571	-122.051575	2497874	0.28	2005-07-07 18:45:12.0	Ventana	34.437	02:14:54:27	4.942	V2681-03HD
 	ascend	Lensia	378.35	2693	 	36.69623	-122.06057	1758745	1.19	2005-07-25 20:48:25.0	Ventana	34.23	03:12:58:23	7.148	V2693-04
 	descend	Copepoda	651.67	2682	 	36.698643	-122.05993	1721345	0.28	2005-07-08 18:10:19.0	Ventana	34.408	02:03:22:24	5.244	V2682-03
 	transect	Stomphia	799.9	2674	 	36.75131	-122.21555	1803356	0.35	2005-06-08 18:46:29.0	Ventana	34.491	01:30:32:23	4.341	V2674-02
 	transect	Lycodes cortezianus	199.83	2696	 	36.8044	-122.126366	1813439	1.52	2005-08-01 17:46:50.0	Ventana	34.209	01:14:43:23	8.665	V2696-02
 	transect	Phyllospadix	997.95	2669	 	36.73312	-122.253	1737542	0.4	2005-05-25 20:50:48.0	Ventana	34.509	03:11:35:14	4.075	V2669-04
 	transect	Psolus squamatus	 	2687	 	 	 	1807025	 	2005-07-13 16:54:49.0	Ventana	 	00:21:43:08	 	V2687-01
 	transect	Ophiuroidea	998.44	2669	 	36.73111	-122.2307	1683397	0.45	2005-05-25 18:20:00.0	Ventana	34.521	00:42:26:22	3.912	V2669-01
 	transect	Mediaster	 	2687	 	 	 	1810679	 	2005-07-13 19:27:31.0	Ventana	 	02:53:15:06	 	V2687-03
 	transect	Mediaster	 	2687	 	 	 	1810130	 	2005-07-13 18:58:48.0	Ventana	 	02:24:33:08	 	V2687-03
 	transect	Microstomus pacificus	 	2687	 	 	 	1812733	 	2005-07-13 20:55:14.0	Ventana	 	04:19:44:04	 	V2687-05
 	transect	Melanostigma pammelas	1001.05	2681	 	36.695168	-122.051094	2498580	0.48	2005-07-07 19:23:23.0	Ventana	34.533	02:53:03:29	3.836	V2681-03HD
 	transect	Gastropoda sp.2	998.16	2669	 	36.731186	-122.23449	1694656	0.45	2005-05-25 18:45:35.0	Ventana	34.522	01:07:35:28	3.914	V2669-02
 	transect	Ceriantharia sp. 2	 	2669	 	 	 	1737685	 	2005-05-25 13:57:01.0	Ventana	 	03:17:49:05	 	V2669-04
 	transect	Psolus squamatus	 	2687	 	 	 	1807182	 	2005-07-13 17:02:56.0	Ventana	 	00:29:50:13	 	V2687-01
 	transect	Nanomia bijuga	400.81	2681	 	36.695736	-122.051125	2492872	0.79	2005-07-07 17:40:30.0	Ventana	34.277	01:10:54:27	6.668	V2681-02HD
 	transect	Aegina	800.91	2681	 	36.69556	-122.051445	2498174	0.32	2005-07-07 18:56:21.0	Ventana	34.476	02:26:03:26	4.491	V2681-03HD
 	cruise	Lithodidae	1220.81	2683	 	36.70628	-122.04765	1757600	0.72	2005-07-11 20:04:03.0	Ventana	34.573	03:38:25:24	3.348	V2683-04
 	transect	Phyllospadix	800.94	2674	 	36.752533	-122.20259	1799217	0.35	2005-06-08 17:41:36.0	Ventana	34.486	00:26:09:06	4.382	V2674-01
 	transect	Phyllospadix	197.95	2696	 	36.803593	-122.12417	1813236	1.54	2005-08-01 17:24:19.0	Ventana	34.202	00:52:36:15	8.608	V2696-01
 	descend	Appendicularia	713.0	2683	 	36.70216	-122.048935	1757097	0.29	2005-07-11 17:55:14.0	Ventana	34.426	01:39:20:07	4.998	V2683-02
 	transect	Psolus squamatus	399.87	2687	 	36.78804	-122.12149	1809064	1.14	2005-07-13 17:35:40.0	Ventana	34.237	01:02:02:25	7.276	V2687-02
 	transect	Nanomia bijuga	200.44	2681	 	36.69828	-122.0533	2490772	1.73	2005-07-07 17:08:43.0	Ventana	34.193	00:39:50:28	8.321	V2681-01HD
 	transect	Amphipoda	400.76	2681	 	36.696625	-122.05217	2493029	0.79	2005-07-07 17:44:42.0	Ventana	34.277	01:15:05:15	6.652	V2681-02HD
 	transect	Brisaster	1000.81	2669	 	36.73229	-122.24912	1736273	0.41	2005-05-25 20:26:47.0	Ventana	34.51	02:48:14:10	4.065	V2669-03
 	ascend	Appendicularia	612.38	2681	 	36.69893	-122.05424	1717691	0.31	2005-07-07 20:29:16.233	Ventana	34.385	03:58:17:00	5.508	V2681-04
 	ascend	Salpida	781.58	2681	 	36.698853	-122.0564	1717455	0.28	2005-07-07 20:04:54.6	Ventana	34.457	03:33:56:11	4.716	V2681-04
 	transect	sinker	500.54	2681	 	36.696754	-122.052345	2493578	0.44	2005-07-07 18:00:06.0	Ventana	34.346	01:30:29:28	6.019	V2681-02HD
 	transect	Liponema brevicornis	399.68	2687	 	36.78923	-122.124405	1809567	1.16	2005-07-13 18:18:21.0	Ventana	34.242	01:44:40:11	7.335	V2687-02
 	transect	Poeobius meseres	600.57	2681	 	36.696407	-122.05203	2493735	0.3	2005-07-07 18:21:57.0	Ventana	34.388	01:52:17:22	5.48	V2681-02HD
 	transect	Mesomyaria	998.52	2669	 	36.730957	-122.23003	1651202	0.45	2005-05-25 18:14:12.0	Ventana	34.522	00:36:39:23	3.907	V2669-01
 	descend	Calycophorae	521.82	2683	 	36.701458	-122.04914	1756894	0.59	2005-07-11 17:41:24.0	Ventana	34.324	01:25:31:18	6.308	V2683-02
 	descend	sinker	507.87	2682	 	36.698593	-122.05978	1720842	0.43	2005-07-08 18:00:28.0	Ventana	34.353	01:53:57:24	5.966	V2682-02
 	descend	Chaetognatha	337.33	2683	 	36.70124	-122.05001	1756548	1.24	2005-07-11 16:55:48.0	Ventana	34.221	00:43:28:29	7.329	V2683-01
 	transect	lobata	200.39	2681	 	36.69832	-122.05343	2491321	1.66	2005-07-07 17:13:28.0	Ventana	34.2	00:44:37:02	8.34	V2681-01HD
 	descend	Copepoda	896.73	2683	 	36.703274	-122.048325	1757254	0.37	2005-07-11 18:31:57.0	Ventana	34.495	02:12:20:25	4.267	V2683-03
 	transect	Phyllospadix	798.33	2674	 	36.751694	-122.21343	1801271	0.35	2005-06-08 18:34:37.0	Ventana	34.488	01:18:41:11	4.35	V2674-02
 	ascend	Appendicularia	558.75	2682	 	36.69827	-122.06259	1723602	0.38	2005-07-08 21:07:56.0	Ventana	34.357	05:00:02:16	5.845	V2682-05
 	descend	Calycophorae	327.5	2693	 	36.697445	-122.06057	1758509	1.29	2005-07-25 19:47:07.0	Ventana	34.236	02:26:41:08	7.579	V2693-03
 	transect	Microstomus pacificus	 	2687	 	 	 	1811182	 	2005-07-13 19:59:59.0	Ventana	 	03:24:59:12	 	V2687-04
 	descend	Nanomia	249.45	2681	 	36.698574	-122.053566	1713598	1.47	2005-07-07 17:16:05.9	Ventana	34.213	00:47:14:04	8.026	V2681-01
 	transect	Pennatulacea sp.1	602.2	2680	 	36.79098	-122.23287	1806822	0.36	2005-06-27 20:24:13.0	Ventana	34.378	03:02:49:20	5.587	V2680-03
 	transect	Psolus squamatus	 	2687	 	 	 	1808861	 	2005-07-13 17:30:36.0	Ventana	 	00:57:28:23	 	V2687-01
 	transect	Mesomyaria	999.75	2669	 	36.731426	-122.23714	1687457	0.44	2005-05-25 19:07:51.0	Ventana	34.519	01:29:50:20	3.946	V2669-02
 	transect	Ceriantharia sp. 1	601.99	2680	 	36.787277	-122.2317	1805913	0.36	2005-06-27 19:47:44.0	Ventana	34.378	02:26:22:14	5.594	V2680-03
 	transect	Mediaster	 	2687	 	 	 	1812530	 	2005-07-13 20:44:14.0	Ventana	 	04:08:44:23	 	V2687-05
 	descend	Sergestes similis	222.85	2676	 	36.805096	-122.0318	1676198	1.56	2005-06-14 16:16:14.0	Ventana	34.199	00:00:24:21	8.022	V2676-01
 	ascend	Appendicularia	601.71	2683	 	36.704784	-122.05058	1757960	0.3	2005-07-11 21:11:57.0	Ventana	34.381	04:44:48:26	5.613	V2683-05
 	transect	Prayidae	200.44	2681	 	36.69828	-122.05329	2490066	1.7	2005-07-07 17:04:30.0	Ventana	34.197	00:35:38:04	8.362	V2681-01HD
 	stationary	Appendicularia	504.22	2695	 	36.78459	-122.2005	1824495	0.68	2005-07-28 19:09:30.0	Ventana	34.295	04:15:44:06	6.309	V2695-02
 	transect	Mediaster	 	2687	 	 	 	1810476	 	2005-07-13 19:19:31.0	Ventana	 	02:45:15:16	 	V2687-03
 	ascend	Nanomia	514.98	2682	 	36.698296	-122.063034	1723662	0.47	2005-07-08 21:11:55.0	Ventana	34.339	05:03:36:24	6.109	V2682-06
 	descend	Melanostigma	943.7	2681	 	36.694664	-122.05039	1716523	0.42	2005-07-07 19:18:17.4	Ventana	34.518	02:47:58:25	4.019	V2681-03
 	transect	Psolus squamatus	 	2687	 	 	 	1809913	 	2005-07-13 18:47:57.0	Ventana	 	02:13:43:10	 	V2687-03
 	descend	Appendicularia	396.73	2682	 	36.69831	-122.05988	1720699	0.86	2005-07-08 17:37:23.0	Ventana	34.255	01:30:53:22	6.703	V2682-02
 	ascend	Chuniphyes	919.16	2682	 	36.69808	-122.058464	1723186	0.37	2005-07-08 20:13:12.0	Ventana	34.501	04:05:22:06	4.23	V2682-05
 	transect	Lycodes cortezianus	598.27	2680	http://search.mbari.org/ARCHIVE/frameGrabs/Ventana/images/2680/01_17_59_22.jpg	36.781612	-122.22673	1805031	0.36	2005-06-27 18:38:54.0	Ventana	34.376	01:17:59:22	5.602	V2680-02
 	stationary	Appendicularia	502.29	2694	 	36.784637	-122.20047	1676637	0.85	2005-07-27 20:07:25.0	Ventana	34.272	02:39:33:27	6.694	V2694-03
 	transect	Brisaster	1000.28	2669	 	36.731667	-122.24377	1733933	0.41	2005-05-25 19:48:37.0	Ventana	34.507	02:10:07:17	4.068	V2669-03
 	descend	Appendicularia	567.6	2683	 	36.70186	-122.049126	1756977	0.42	2005-07-11 17:46:23.0	Ventana	34.353	01:30:30:04	5.984	V2683-02
 	ascend	Poeobius meseres	502.62	2681	 	36.69895	-122.054245	1717751	0.5	2005-07-07 20:34:29.3	Ventana	34.331	04:03:29:07	6.137	V2681-04
 	transect	Psolus squamatus	399.85	2687	 	36.788048	-122.121544	1809161	1.13	2005-07-13 17:36:20.0	Ventana	34.242	01:02:42:09	7.271	V2687-02
 	transect	Ophiuroidea	1000.03	2669	 	36.7311	-122.24001	1689211	0.41	2005-05-25 19:27:41.0	Ventana	34.51	01:49:38:29	4.063	V2669-02
 	transect	Mediaster	 	2687	 	 	 	1806965	 	2005-07-13 16:51:10.0	Ventana	 	00:18:05:13	 	V2687-01
 	transect	Mesomyaria	997.51	2669	 	36.730614	-122.22729	1649140	0.45	2005-05-25 17:56:24.0	Ventana	34.52	00:18:53:03	3.909	V2669-01
 	transect	Megalodicopia hians	 	2687	http://search.mbari.org/ARCHIVE/frameGrabs/Ventana/images/2687/03_08_34_04.jpg	 	 	1810942	 	2005-07-13 19:43:32.0	Ventana	 	03:08:34:04	 	V2687-04
 	descend	Appendicularia	894.65	2682	 	36.698257	-122.05944	1721774	0.34	2005-07-08 18:51:01.0	Ventana	34.493	02:44:04:17	4.309	V2682-03
 	transect	Chaetognatha	400.74	2681	 	36.697056	-122.05267	2493089	0.79	2005-07-07 17:46:32.0	Ventana	34.278	01:16:55:20	6.659	V2681-02HD
 	ascend	Aegina	698.0	2681	 	36.698734	-122.05482	1717598	0.27	2005-07-07 20:21:02.167	Ventana	34.42	03:50:02:28	5.095	V2681-04
 	transect	Ceriantharia sp. 2	1000.55	2669	 	36.73224	-122.24869	1736236	0.41	2005-05-25 20:24:14.0	Ventana	34.51	02:45:42:08	4.069	V2669-03
 	transect	Mesomyaria	999.72	2669	 	36.731064	-122.23519	1684283	0.45	2005-05-25 18:51:50.0	Ventana	34.521	01:13:49:29	3.921	V2669-02
 	transect	Psolus squamatus	 	2687	 	 	 	1807625	 	2005-07-13 17:18:35.0	Ventana	 	00:45:28:18	 	V2687-01
 	transect	Mesomyaria	799.51	2674	 	36.75252	-122.20411	1799443	0.35	2005-06-08 17:49:38.0	Ventana	34.483	00:34:10:27	4.38	V2674-01
 	transect	molt	100.49	2681	 	36.69955	-122.054115	2489789	2.13	2005-07-07 16:50:44.0	Ventana	34.066	00:21:52:19	9.148	V2681-01HD
 	transect	Ophiuroidea	999.35	2669	 	36.731422	-122.23627	1684712	0.44	2005-05-25 18:59:34.0	Ventana	34.52	01:21:34:00	3.941	V2669-02
 	ascend	Appendicularia	350.93	2681	 	36.699337	-122.0551	1718074	1.06	2005-07-07 20:52:31.727	Ventana	34.252	04:20:52:19	7.17	V2681-05
 	cruise	Chionoecetes tanneri	1212.55	2683	 	36.706676	-122.04767	1757637	0.72	2005-07-11 20:12:21.0	Ventana	34.57	03:46:43:19	3.336	V2683-04
 	transect	Hormiphora	200.44	2681	 	36.69828	-122.05329	2490126	1.7	2005-07-07 17:05:02.0	Ventana	34.197	00:36:09:14	8.358	V2681-01HD
 	ascend	Tuscaroridae	603.04	2682	 	36.698643	-122.0615	1723509	0.34	2005-07-08 20:56:19.0	Ventana	34.375	04:48:26:18	5.638	V2682-05
 	transect	Lycodes cortezianus	600.94	2680	 	36.786755	-122.23124	1805890	0.36	2005-06-27 19:41:43.0	Ventana	34.377	02:20:22:23	5.602	V2680-03
 	transect	Allocentrotus fragilis	 	2687	 	 	 	1812553	 	2005-07-13 20:45:22.0	Ventana	 	04:09:52:21	 	V2687-05
 	descend	Nanomia	218.82	2681	 	36.69849	-122.053505	1713575	1.53	2005-07-07 17:15:05.067	Ventana	34.213	00:46:12:26	8.259	V2681-01
 	transect	Ophiuroidea	1000.02	2669	 	36.73123	-122.238266	1688842	0.43	2005-05-25 19:16:53.0	Ventana	34.517	01:38:51:27	3.967	V2669-02
 	transect	Mesomyaria	999.27	2669	 	36.731033	-122.23185	1683683	0.45	2005-05-25 18:29:06.0	Ventana	34.523	00:51:32:05	3.912	V2669-01
 	ascend	Appendicularia	464.08	2683	 	36.7043	-122.05056	1758006	0.74	2005-07-11 21:17:41.0	Ventana	34.293	04:50:31:24	6.602	V2683-05
 	transect	Phyllospadix	800.74	2674	 	36.75261	-122.20188	1799120	0.34	2005-06-08 17:38:01.0	Ventana	34.479	00:22:35:06	4.403	V2674-01
 	transect	Phyllospadix	798.32	2674	 	36.751575	-122.21407	1801331	0.35	2005-06-08 18:38:46.0	Ventana	34.489	01:22:49:29	4.34	V2674-02
 	cruise	Pleuronectiformes	594.42	2688	 	36.796543	-122.02014	1677389	0.47	2005-07-14 16:40:39.0	Ventana	34.374	00:26:58:16	5.618	V2688-01
 	transect	Allocentrotus fragilis	 	2687	 	 	 	1810573	 	2005-07-13 19:22:37.0	Ventana	 	02:48:21:07	 	V2687-03
 	descend	Bathochordaeus	158.91	2682	 	36.69987	-122.06075	1719915	2.19	2005-07-08 16:19:03.0	Ventana	34.097	00:13:08:27	8.434	V2682-01
 	transect	molt	100.49	2681	 	36.69903	-122.05378	2489849	2.13	2005-07-07 16:51:50.0	Ventana	34.069	00:22:59:06	9.146	V2681-01HD
 	descend	Aegina	933.41	2683	 	36.703716	-122.0486	1757314	0.38	2005-07-11 19:07:50.0	Ventana	34.507	02:48:12:25	4.164	V2683-03
 	transect	Actiniaria sp. 3	 	2687	 	 	 	1807565	 	2005-07-13 17:15:49.0	Ventana	 	00:42:42:25	 	V2687-01
 	transect	Allocentrotus fragilis	 	2687	 	 	 	1811265	 	2005-07-13 20:05:30.0	Ventana	 	03:30:29:27	 	V2687-04
 	ascend	Appendicularia	939.49	2681	 	36.69754	-122.05401	1716952	0.41	2005-07-07 19:42:41.067	Ventana	34.515	03:11:44:21	4.072	V2681-04
 	transect	Sebastolobus	997.62	2669	 	36.730606	-122.22697	1649080	0.45	2005-05-25 17:53:51.0	Ventana	34.522	00:16:20:09	3.91	V2669-01
 	cruise	Laminariales	107.03	2688	 	36.812897	-122.02455	1678035	1.95	2005-07-14 18:52:46.0	Ventana	34.092	02:38:00:18	8.898	V2688-03
 	transect	Brisaster	999.26	2669	 	36.731148	-122.23552	1684343	0.44	2005-05-25 18:53:59.0	Ventana	34.521	01:15:59:11	3.927	V2669-02
 	transect	Ophiuroidea	999.25	2669	 	36.7314	-122.236145	1684606	0.44	2005-05-25 18:58:39.0	Ventana	34.521	01:20:39:05	3.944	V2669-02
 	transect	Mesomyaria	802.84	2674	 	36.751793	-122.21017	1800994	0.36	2005-06-08 18:20:40.0	Ventana	34.491	01:04:44:27	4.317	V2674-02
 	transect	Caridea sp.1	599.81	2680	http://search.mbari.org/ARCHIVE/frameGrabs/Ventana/images/2680/00_33_28_11.jpg	36.778023	-122.22318	1804339	0.36	2005-06-27 17:53:21.0	Ventana	34.379	00:33:28:11	5.591	V2680-01
 	transect	Porifera sp. 1	400.09	2687	 	36.78908	-122.12401	1809530	1.17	2005-07-13 18:12:33.0	Ventana	34.238	01:38:52:20	7.359	V2687-02
 	transect	Mediaster	 	2687	 	 	 	1811741	 	2005-07-13 20:23:25.0	Ventana	 	03:48:23:28	 	V2687-04
 	transect	Ophiuroidea	1000.13	2669	http://search.mbari.org/ARCHIVE/frameGrabs/Ventana/images/2669/01_02_14_13.jpg	36.73094	-122.233734	1683946	0.45	2005-05-25 18:40:13.0	Ventana	34.523	01:02:14:13	3.911	V2669-02
 	transect	Psolus squamatus	399.88	2687	 	36.788124	-122.12167	1809267	1.13	2005-07-13 17:37:53.0	Ventana	34.243	01:04:15:05	7.254	V2687-02
 	transect	Liponema brevicornis	 	2687	 	 	 	1810250	 	2005-07-13 19:12:22.0	Ventana	 	02:38:06:22	 	V2687-03
 	transect	Mediaster	 	2687	 	 	 	1812230	 	2005-07-13 20:29:36.0	Ventana	 	03:54:34:24	 	V2687-04
 	ascend	Calycophorae	370.31	2693	 	36.695602	-122.06067	1758805	1.21	2005-07-25 20:53:47.0	Ventana	34.231	03:18:21:13	7.239	V2693-04
 	transect	Sebastolobus altivelis	801.68	2674	 	36.751766	-122.21086	1801054	0.36	2005-06-08 18:23:34.0	Ventana	34.488	01:07:38:29	4.33	V2674-02
 	descend	Appendicularia	373.79	2683	 	36.701416	-122.04981	1756594	1.08	2005-07-11 16:57:51.0	Ventana	34.245	00:45:29:20	7.027	V2683-01
 	cruise	Lithodidae	1226.0	2683	 	36.705975	-122.04776	1757577	0.72	2005-07-11 19:58:41.0	Ventana	34.571	03:33:05:15	3.332	V2683-04
 	transect	Phyllospadix	802.12	2674	 	36.752247	-122.206795	1799979	0.37	2005-06-08 18:03:48.0	Ventana	34.49	00:48:20:00	4.323	V2674-01
 	transect	Mesomyaria	998.92	2669	 	36.732834	-122.25147	1737219	0.41	2005-05-25 20:42:12.0	Ventana	34.509	03:03:01:10	4.072	V2669-04
 	transect	myctophidae	300.46	2681	 	36.69801	-122.05337	2492060	1.23	2005-07-07 17:21:29.0	Ventana	34.233	00:52:36:10	7.401	V2681-01HD
 	transect	Prayidae	600.6	2681	 	36.696777	-122.05248	2493781	0.3	2005-07-07 18:23:39.0	Ventana	34.388	01:54:01:21	5.477	V2681-02HD
 	ascend	Appendicularia	980.75	2681	 	36.69688	-122.053314	1716583	0.44	2005-07-07 19:35:24.787	Ventana	34.525	03:05:05:18	3.978	V2681-03
 	transect	Mediaster	 	2687	 	 	 	1811325	 	2005-07-13 20:07:25.0	Ventana	 	03:32:25:04	 	V2687-04
 	descend	sinker	516.03	2681	 	36.695694	-122.051094	1715540	0.41	2005-07-07 18:05:10.033	Ventana	34.348	01:35:31:20	5.92	V2681-02
 	ascend	Appendicularia	443.76	2682	 	36.69807	-122.062744	1723722	0.72	2005-07-08 21:19:34.0	Ventana	34.287	05:11:13:28	6.51	V2682-06
 	transect	Aegina	700.58	2681	 	36.695133	-122.05086	2497971	0.28	2005-07-07 18:47:57.0	Ventana	34.432	02:17:38:16	4.996	V2681-03HD
 	transect	Phyllospadix	800.33	2674	 	36.752563	-122.20229	1799180	0.34	2005-06-08 17:40:04.0	Ventana	34.479	00:24:37:18	4.433	V2674-01
 	transect	Mesomyaria	798.92	2674	 	36.751408	-122.21489	1801391	0.35	2005-06-08 18:43:43.0	Ventana	34.49	01:27:46:13	4.336	V2674-02
 	ascend	Appendicularia	370.98	2693	 	36.69622	-122.060844	1758652	1.2	2005-07-25 20:25:28.0	Ventana	34.232	03:05:00:10	7.165	V2693-03
 	transect	Phyllospadix	999.98	2669	 	36.73177	-122.24424	1734256	0.4	2005-05-25 19:51:36.0	Ventana	34.503	02:13:07:23	4.083	V2669-03
 	transect	Mediaster	 	2687	 	 	 	1810513	 	2005-07-13 19:21:18.0	Ventana	 	02:47:02:05	 	V2687-03
 	transect	Mediaster	 	2687	 	 	 	1812493	 	2005-07-13 20:41:36.0	Ventana	 	04:06:33:27	 	V2687-04
 	transect	Phyllospadix	200.28	2696	 	36.80486	-122.12747	1813536	1.51	2005-08-01 17:57:42.0	Ventana	34.211	01:25:35:11	8.672	V2696-02
 	transect	Diogenidae	599.1	2680	 	36.78326	-122.228645	1805354	0.36	2005-06-27 19:05:26.0	Ventana	34.376	01:44:30:12	5.606	V2680-02
 	transect	Psolus squamatus	 	2687	 	 	 	1808898	 	2005-07-13 17:31:30.0	Ventana	 	00:58:22:11	 	V2687-01
 	ascend	Appendicularia	930.05	2682	 	36.697926	-122.0585	1723126	0.38	2005-07-08 20:12:01.0	Ventana	34.505	04:04:11:29	4.188	V2682-05
 	descend	Sergestes similis	292.55	2681	 	36.698566	-122.05373	1713635	1.26	2005-07-07 17:18:26.5	Ventana	34.231	00:49:34:02	7.499	V2681-01
 	transect	chuniphyes	500.57	2681	 	36.69746	-122.053185	2493412	0.44	2005-07-07 17:57:03.0	Ventana	34.346	01:27:27:02	6.018	V2681-02HD
 	cruise	Merluccius productus	503.97	2694	 	36.784172	-122.20065	1676161	0.76	2005-07-27 17:08:41.0	Ventana	34.289	00:01:50:04	6.486	V2694-01
 	ascend	Chaetognatha	378.07	2681	 	36.699352	-122.05474	1718014	0.94	2005-07-07 20:49:53.0	Ventana	34.268	04:18:14:17	7.008	V2681-05
 	descend	Vitreosalpa gemini	337.45	2682	 	36.69879	-122.06059	1720178	1.05	2005-07-08 17:11:39.0	Ventana	34.254	01:05:12:07	7.155	V2682-02
 	ascend	Euphausiacea	261.69	2681	 	36.699432	-122.054565	1718563	1.42	2005-07-07 21:12:21.083	Ventana	34.232	04:40:40:23	7.94	V2681-05
 	cruise	mud	93.57	2688	 	36.81604	-122.01673	1679387	1.95	2005-07-14 20:18:04.0	Ventana	34.093	04:02:49:17	8.93	V2688-04
 	descend	Dosidicus gigas	528.54	2681	 	36.69568	-122.05106	1715600	0.4	2005-07-07 18:05:34.667	Ventana	34.355	01:35:56:08	5.863	V2681-02
 	transect	lobata	800.96	2681	 	36.695175	-122.05094	2498077	0.31	2005-07-07 18:54:23.0	Ventana	34.477	02:24:05:23	4.486	V2681-03HD
 	descend	Crustacea	291.78	2693	 	36.697823	-122.06122	1758449	1.34	2005-07-25 19:37:40.0	Ventana	34.236	02:17:14:21	7.821	V2693-03
 	transect	Psolus squamatus	399.48	2687	 	36.78939	-122.12506	1809650	1.15	2005-07-13 18:29:46.0	Ventana	34.24	01:56:04:29	7.312	V2687-02
 	transect	Mediaster	 	2687	 	 	 	1811861	 	2005-07-13 20:27:21.0	Ventana	 	03:52:19:04	 	V2687-04
 	transect	Mesomyaria	997.25	2669	 	36.73062	-122.22766	1649200	0.45	2005-05-25 17:58:29.0	Ventana	34.521	00:20:57:05	3.908	V2669-01
 	cruise	Rathbunaster californicus	441.67	2688	 	36.803993	-122.01827	1677652	0.9	2005-07-14 17:39:47.0	Ventana	34.269	01:25:30:21	6.887	V2688-02
 	ascend	Calycophorae	979.71	2682	 	36.697712	-122.058334	1722923	0.44	2005-07-08 20:06:54.0	Ventana	34.519	03:59:27:29	3.983	V2682-04
 	descend	Appendicularia	292.93	2683	 	36.701046	-122.05016	1756488	1.26	2005-07-11 16:53:17.0	Ventana	34.243	00:40:58:07	7.744	V2683-01
 	ascend	Appendicularia	747.08	2681	 	36.698746	-122.05574	1717538	0.27	2005-07-07 20:14:31.567	Ventana	34.447	03:43:32:22	4.815	V2681-04
 	transect	cydippida	200.45	2681	 	36.69828	-122.05329	2490186	1.7	2005-07-07 17:05:34.0	Ventana	34.197	00:36:42:08	8.358	V2681-01HD
 	transect	Sergestes similis	600.64	2681	 	36.69584	-122.05137	2493675	0.3	2005-07-07 18:19:18.0	Ventana	34.387	01:49:40:23	5.496	V2681-02HD
 	descend	Calycophorae	700.6	2681	 	36.69796	-122.05374	1716126	0.29	2005-07-07 18:35:22.367	Ventana	34.433	02:05:06:14	4.986	V2681-03
 	descend	Sergestes similis	621.96	2683	 	36.70202	-122.04898	1757037	0.32	2005-07-11 17:50:34.0	Ventana	34.373	01:34:41:10	5.631	V2683-02
 	transect	Mediaster	 	2687	 	 	 	1812613	 	2005-07-13 20:47:31.0	Ventana	 	04:12:01:12	 	V2687-05
 	transect	Phyllospadix	203.62	2696	 	36.807507	-122.13116	1813845	1.46	2005-08-01 18:42:27.0	Ventana	34.218	02:09:31:16	8.62	V2696-03
 	transect	Mesomyaria	999.51	2669	 	36.73103	-122.23118	1683563	0.45	2005-05-25 18:24:44.0	Ventana	34.521	00:47:11:04	3.914	V2669-01
 	ascend	Appendicularia	585.86	2682	 	36.698822	-122.06035	1723449	0.4	2005-07-08 20:42:55.0	Ventana	34.371	04:35:03:02	5.671	V2682-05
 	descend	Hormiphora	182.58	2693	 	36.696068	-122.05818	1758269	1.89	2005-07-25 18:12:20.0	Ventana	34.17	00:52:50:19	8.853	V2693-01
 	cruise	Florometra	162.79	2688	 	36.81087	-122.02185	1677975	1.94	2005-07-14 18:37:48.0	Ventana	34.099	02:23:03:23	8.914	V2688-03
 	descend	Poeobius meseres	1036.21	2682	 	36.698326	-122.05917	1722037	0.47	2005-07-08 19:02:16.0	Ventana	34.532	02:55:18:07	3.866	V2682-03
 	transect	Polychaeta	901.07	2681	 	36.696846	-122.05299	2498280	0.39	2005-07-07 19:07:02.0	Ventana	34.505	02:36:43:04	4.164	V2681-03HD
 	transect	Actiniaria sp. 4	999.69	2669	http://search.mbari.org/ARCHIVE/frameGrabs/Ventana/images/2669/00_28_37_20.jpg	36.730534	-122.22894	1650939	0.45	2005-05-25 18:06:10.0	Ventana	34.523	00:28:37:20	3.905	V2669-01
 	transect	Embassichthys bathybius	999.82	2669	 	36.731335	-122.23786	1687554	0.44	2005-05-25 19:13:43.0	Ventana	34.52	01:35:42:09	3.943	V2669-02
 	ascend	Nanomia	258.17	2681	 	36.697838	-122.05522	1719546	 	2005-07-07 21:29:59.0	Ventana	 	05:12:35:15	 	V2681-05
 	transect	Ceriantharia sp. 2	1000.03	2669	 	36.730633	-122.22924	1683360	0.45	2005-05-25 18:08:28.0	Ventana	34.522	00:30:56:00	3.906	V2669-01
 	descend	Copepoda	161.85	2683	 	36.700657	-122.05164	1756285	1.69	2005-07-11 16:27:03.0	Ventana	34.174	00:14:45:15	8.79	V2683-01
 	cruise	Sebastolobus	622.85	2688	 	36.79394	-122.01953	1677283	0.41	2005-07-14 16:27:43.0	Ventana	34.411	00:14:03:13	5.206	V2688-01
 	descend	Appendicularia	441.13	2682	 	36.698315	-122.05968	1720759	0.6	2005-07-08 17:47:32.0	Ventana	34.31	01:41:02:03	6.356	V2682-02
 	descend	Appendicularia	294.92	2682	 	36.699306	-122.06063	1720118	1.2	2005-07-08 16:53:50.0	Ventana	34.243	00:47:51:18	7.416	V2682-01
 	endtransect	physical object	603.27	2680	 	36.789024	-122.23249	1806702	0.35	2005-06-27 20:06:09.0	Ventana	34.38	02:44:47:02	5.59	V2680-03
 	transect	Ophiuroidea	999.97	2669	 	36.731415	-122.23683	1686968	0.44	2005-05-25 19:04:45.0	Ventana	34.521	01:26:44:17	3.943	V2669-02
 	ascend	sinker	1157.27	2682	 	36.69825	-122.05749	1722494	0.63	2005-07-08 19:54:14.0	Ventana	34.56	03:46:49:24	3.487	V2682-04
 	descend	Appendicularia	507.12	2683	 	36.70143	-122.04918	1756857	0.68	2005-07-11 17:39:37.0	Ventana	34.306	01:23:44:22	6.467	V2683-02
 	transect	chuniphyes	500.58	2681	 	36.697285	-122.05297	2493472	0.44	2005-07-07 17:57:56.0	Ventana	34.346	01:28:18:27	6.025	V2681-02HD
 	ascend	Appendicularia	878.7	2681	 	36.69829	-122.055244	1717335	0.35	2005-07-07 19:51:37.967	Ventana	34.504	03:20:40:17	4.287	V2681-04
 	transect	Mediaster	 	2687	 	 	 	1812433	 	2005-07-13 20:38:36.0	Ventana	 	04:03:33:22	 	V2687-04
 	transect	Mediaster	 	2687	 	 	 	1812290	 	2005-07-13 20:30:58.0	Ventana	 	03:55:56:16	 	V2687-04
 	stationary	Appendicularia	501.74	2695	 	36.784595	-122.20046	1824435	0.88	2005-07-28 17:24:04.0	Ventana	34.267	00:30:25:15	6.677	V2695-01
 	transect	Phyllospadix	800.01	2674	 	36.752655	-122.20049	1774124	0.29	2005-06-08 17:31:07.0	Ventana	34.46	00:15:41:16	4.653	V2674-01
 	descend	Nanomia	366.96	2693	 	36.69704	-122.05985	1758592	1.2	2005-07-25 20:00:25.0	Ventana	34.228	02:39:59:27	7.185	V2693-03
 	transect	Phyllospadix	799.71	2674	 	36.752453	-122.204994	1799706	0.35	2005-06-08 17:54:53.0	Ventana	34.487	00:39:25:20	4.357	V2674-01
 	ascend	Appendicularia	673.83	2683	 	36.705513	-122.0495	1757900	0.31	2005-07-11 21:07:38.0	Ventana	34.428	04:40:30:01	5.042	V2683-05
 	transect	Mesomyaria	1000.32	2669	 	36.731285	-122.24143	1689797	0.4	2005-05-25 19:36:22.0	Ventana	34.507	01:58:20:02	4.091	V2669-02
 	transect	Phyllospadix	800.43	2674	http://search.mbari.org/ARCHIVE/frameGrabs/Ventana/images/2674/01_34_48_01.jpg	36.751198	-122.21636	1803416	0.35	2005-06-08 18:50:45.0	Ventana	34.49	01:34:48:01	4.336	V2674-02
 	transect	Ophiuroidea	998.53	2669	 	36.73105	-122.23052	1651308	0.45	2005-05-25 18:18:15.0	Ventana	34.522	00:40:41:28	3.91	V2669-01
 	cruise	Siphonophora	105.22	2688	 	36.814297	-122.017105	1679244	1.97	2005-07-14 19:35:52.0	Ventana	34.091	03:20:39:17	8.905	V2688-04
 	transect	Euphausia	200.39	2681	 	36.698296	-122.053345	2491081	1.69	2005-07-07 17:11:38.0	Ventana	34.198	00:42:46:07	8.335	V2681-01HD
 	transect	chuniphyes	901.0	2681	 	36.69538	-122.05115	2498460	0.39	2005-07-07 19:14:11.0	Ventana	34.505	02:43:51:22	4.171	V2681-03HD
 	transect	Brisaster	1000.2	2669	 	36.731937	-122.247055	1735807	0.41	2005-05-25 20:12:11.0	Ventana	34.509	02:33:41:15	4.065	V2669-03
 	transect	Psolus squamatus	399.88	2687	 	36.788128	-122.121796	1809327	1.13	2005-07-13 17:39:35.0	Ventana	34.241	01:05:57:08	7.267	V2687-02
 	transect	Rathbunaster californicus	204.14	2696	 	36.805374	-122.12841	1813702	1.49	2005-08-01 18:17:06.0	Ventana	34.211	01:44:57:07	8.631	V2696-02
 	transect	Nanomia bijuga	200.43	2681	 	36.69828	-122.05329	2490329	1.7	2005-07-07 17:06:58.0	Ventana	34.198	00:38:06:27	8.347	V2681-01HD
 	descend	Appendicularia	412.21	2683	 	36.701435	-122.04956	1756654	0.92	2005-07-11 17:05:31.0	Ventana	34.264	00:53:11:06	6.886	V2683-01
 	transect	Mediaster	 	2687	 	 	 	1810739	 	2005-07-13 19:30:53.0	Ventana	 	02:56:36:04	 	V2687-03
 	ascend	Poralia	1269.35	2673	 	36.802937	-121.804695	1668409	0.8	2005-06-07 17:51:14.0	Ventana	34.581	00:35:04:01	3.252	V2673-01
 	ascend	Appendicularia	359.3	2683	 	36.70378	-122.050606	1758066	1.1	2005-07-11 21:22:04.0	Ventana	34.241	04:54:54:26	7.095	V2683-05
 	transect	Stomphia	 	2687	 	 	 	1812816	 	2005-07-13 20:59:08.0	Ventana	 	04:23:38:19	 	V2687-05
 	cruise	Actiniaria sp. 3	 	2687	 	 	 	1806905	 	2005-07-13 16:35:59.0	Ventana	 	00:02:54:11	 	V2687-01
 	transect	Psolus squamatus	 	2687	 	 	 	1808778	 	2005-07-13 17:29:21.0	Ventana	 	00:56:13:22	 	V2687-01
 	cruise	Rathbunaster californicus	469.05	2676	 	36.802498	-122.02939	1676281	0.56	2005-06-14 16:34:10.0	Ventana	34.337	00:18:18:24	6.176	V2676-01
 	ascend	Hastigerinella digitata	332.29	2681	 	36.699635	-122.05521	1718134	1.17	2005-07-07 20:55:37.667	Ventana	34.241	04:23:58:12	7.313	V2681-05
 	transect	Rathbunaster californicus	196.46	2696	 	36.80324	-122.123146	1813153	1.55	2005-08-01 17:12:49.0	Ventana	34.198	00:41:07:14	8.617	V2696-01
 	descend	Calycophorae	603.41	2681	 	36.69791	-122.05382	1715923	0.3	2005-07-07 18:28:53.067	Ventana	34.388	01:59:13:07	5.461	V2681-02
 	descend	Apolemia	832.28	2681	 	36.696976	-122.053215	1716463	0.32	2005-07-07 19:03:56.267	Ventana	34.483	02:33:38:17	4.389	V2681-03
 	transect	Psolus squamatus	 	2687	 	 	 	1811538	 	2005-07-13 20:15:20.0	Ventana	 	03:40:19:05	 	V2687-04
 	transect	Phyllospadix	802.93	2674	 	36.752247	-122.20632	1799919	0.36	2005-06-08 18:01:17.0	Ventana	34.488	00:45:49:18	4.339	V2674-01
 	transect	Phyllospadix	801.32	2674	 	36.75096	-122.21898	1803619	0.35	2005-06-08 19:02:27.0	Ventana	34.494	01:46:29:16	4.341	V2674-02
 	transect	Psolus squamatus	 	2687	 	 	 	1808575	 	2005-07-13 17:24:14.0	Ventana	 	00:51:07:07	 	V2687-01
 	ascend	Appendicularia	839.65	2682	 	36.698677	-122.05856	1723246	0.34	2005-07-08 20:20:58.0	Ventana	34.48	04:13:08:15	4.415	V2682-05
 	ascend	Siphonophora	363.42	2693	 	36.69432	-122.06102	1758865	1.24	2005-07-25 21:01:51.0	Ventana	34.237	03:26:24:00	7.37	V2693-04
 	transect	Aegina	1000.98	2681	 	36.696026	-122.05224	2498663	0.47	2005-07-07 19:27:59.0	Ventana	34.531	02:57:38:11	3.866	V2681-03HD
 	cruise	Actiniaria	535.67	2688	 	36.798534	-122.01953	1677449	0.61	2005-07-14 17:02:15.0	Ventana	34.329	00:48:33:24	6.241	V2688-01
 	transect	Ceriantharia sp. 2	999.84	2669	 	36.731754	-122.244156	1734136	0.4	2005-05-25 19:51:03.0	Ventana	34.511	02:12:35:05	4.078	V2669-03
 	transect	Mediaster	 	2687	 	 	 	1810190	 	2005-07-13 19:06:54.0	Ventana	 	02:32:39:04	 	V2687-03
 	descend	Lycodapus	1235.38	2683	 	36.706085	-122.04812	1757517	0.73	2005-07-11 19:46:21.0	Ventana	34.573	03:20:45:06	3.346	V2683-04
 	transect	Poeobius meseres	600.53	2681	 	36.697582	-122.05342	2493841	0.3	2005-07-07 18:27:04.0	Ventana	34.389	01:57:25:18	5.471	V2681-02HD
 	transect	Phyllospadix	800.0	2674	 	36.752525	-122.203384	1799323	0.35	2005-06-08 17:45:42.0	Ventana	34.481	00:30:15:10	4.39	V2674-01
 	transect	Mesomyaria	1000.23	2669	 	36.730972	-122.23325	1683886	0.45	2005-05-25 18:38:04.0	Ventana	34.522	01:00:29:11	3.91	V2669-01
 	transect	Ceriantharia sp. 2	998.35	2669	 	36.732983	-122.25243	1737445	0.4	2005-05-25 20:47:54.0	Ventana	34.508	03:08:44:02	4.076	V2669-04
 	ascend	Appendicularia	1192.41	2683	 	36.70731	-122.04765	1757697	0.71	2005-07-11 20:22:14.0	Ventana	34.572	03:56:37:02	3.365	V2683-04
 	transect	lensia	300.4	2681	 	36.697533	-122.052986	2492226	1.24	2005-07-07 17:23:05.0	Ventana	34.233	00:54:12:02	7.406	V2681-01HD
 	transect	Phyllospadix	999.33	2669	 	36.731396	-122.23641	1684772	0.44	2005-05-25 19:00:39.0	Ventana	34.521	01:22:38:12	3.939	V2669-02
 	cruise	Rathbunaster californicus	126.13	2676	 	36.8085	-122.031235	1676900	1.73	2005-06-14 18:02:54.0	Ventana	34.171	01:42:36:19	8.337	V2676-02
 	transect	Nanomia bijuga	200.49	2681	 	36.69828	-122.05329	2490509	1.71	2005-07-07 17:07:12.0	Ventana	34.197	00:38:20:18	8.341	V2681-01HD
 	descend	Chuniphyes	757.51	2682	 	36.698414	-122.05969	1721654	0.28	2005-07-08 18:31:13.0	Ventana	34.454	02:24:16:03	4.747	V2682-03
 	transect	Microstomus pacificus	801.53	2674	 	36.752205	-122.20779	1800099	0.35	2005-06-08 18:08:30.0	Ventana	34.489	00:53:01:19	4.326	V2674-01
 	transect	Neptunea amianta	599.38	2680	 	36.778954	-122.22413	1804459	0.36	2005-06-27 18:05:09.0	Ventana	34.377	00:45:15:13	5.603	V2680-01
 	cruise	Rathbunaster californicus	252.64	2688	 	36.80936	-122.02038	1677915	1.52	2005-07-14 18:30:09.0	Ventana	34.188	02:15:25:11	8.195	V2688-03
 	transect	Sebastes diploproa	 	2687	 	 	 	1811598	 	2005-07-13 20:17:02.0	Ventana	 	03:42:01:15	 	V2687-04
 	descend	Nanomia	271.02	2682	 	36.699776	-122.060776	1720035	1.34	2005-07-08 16:32:58.0	Ventana	34.228	00:27:02:05	7.708	V2682-01
 	transect	Psolus squamatus	 	2687	 	 	 	1811145	 	2005-07-13 19:56:29.0	Ventana	 	03:21:29:11	 	V2687-04
 	transect	Mesomyaria	999.44	2669	 	36.73133	-122.23592	1684486	0.44	2005-05-25 18:57:06.0	Ventana	34.52	01:19:05:22	3.936	V2669-02
 	transect	Mesomyaria	800.82	2674	 	36.751987	-122.20917	1800874	0.35	2005-06-08 18:15:19.0	Ventana	34.49	00:59:50:09	4.322	V2674-01
 	transect	lensia	300.41	2681	 	36.697556	-122.053	2492203	1.24	2005-07-07 17:23:01.0	Ventana	34.233	00:54:08:15	7.406	V2681-01HD
 	transect	Chionoecetes tanneri	999.78	2669	 	36.73176	-122.244064	1734113	0.4	2005-05-25 19:50:45.0	Ventana	34.51	02:12:15:26	4.072	V2669-03
 	transect	Ceriantharia sp. 2	1000.19	2669	 	36.731766	-122.24478	1734459	0.4	2005-05-25 19:55:13.0	Ventana	34.507	02:16:44:01	4.072	V2669-03
 	transect	Phyllospadix	801.18	2674	 	36.75218	-122.20795	1800122	0.35	2005-06-08 18:09:20.0	Ventana	34.49	00:53:51:15	4.329	V2674-01
 	descend	Appendicularia	800.22	2681	 	36.694912	-122.05056	1716320	0.32	2005-07-07 18:52:01.7	Ventana	34.474	02:21:44:23	4.511	V2681-03
 	transect	Psolus squamatus	 	2687	 	 	 	1808635	 	2005-07-13 17:25:49.0	Ventana	 	00:52:41:20	 	V2687-01
 	descend	Poeobius meseres	1070.52	2683	 	36.70509	-122.04894	1757434	0.51	2005-07-11 19:26:51.0	Ventana	34.533	03:07:12:25	3.816	V2683-03
 	transect	Sebastes aurora	197.71	2696	http://search.mbari.org/ARCHIVE/frameGrabs/Ventana/images/2696/00_20_32_03.jpg	36.80266	-122.12169	1813010	1.53	2005-08-01 16:52:12.0	Ventana	34.204	00:20:32:03	8.567	V2696-01
 	transect	Brisaster	1000.24	2669	 	36.73185	-122.24508	1735341	0.4	2005-05-25 19:57:25.0	Ventana	34.507	02:18:56:06	4.093	V2669-03
 	transect	Hormiphora	200.4	2681	 	36.698387	-122.053474	2491404	1.67	2005-07-07 17:14:03.0	Ventana	34.199	00:45:10:26	8.341	V2681-01HD
 	transect	Mesomyaria	1000.36	2669	 	36.731552	-122.242836	1694550	0.4	2005-05-25 19:43:39.0	Ventana	34.508	02:05:36:13	4.097	V2669-02
 	transect	Euphausia	200.4	2681	 	36.698284	-122.053314	2490998	1.71	2005-07-07 17:10:35.0	Ventana	34.187	00:41:43:25	8.319	V2681-01HD
 	ascend	Solmissus	258.17	2681	 	36.697838	-122.05522	1719283	 	2005-07-07 21:29:59.0	Ventana	 	04:58:49:02	 	V2681-05
 	transect	Mesomyaria	800.25	2674	 	36.752487	-122.20324	1799300	0.34	2005-06-08 17:44:44.0	Ventana	34.48	00:29:17:04	4.421	V2674-01
 	descend	Appendicularia	538.64	2682	 	36.698612	-122.05978	1720879	0.36	2005-07-08 18:03:53.0	Ventana	34.368	01:57:22:06	5.751	V2682-02
 	descend	Copepoda	1197.67	2682	 	36.698467	-122.058525	1722231	0.68	2005-07-08 19:28:06.0	Ventana	34.573	03:20:43:20	3.375	V2682-04
 	ascend	Copepoda	773.29	2681	 	36.69868	-122.05632	1717478	0.29	2005-07-07 20:07:56.5	Ventana	34.453	03:36:58:02	4.757	V2681-04
 	transect	Rathbunaster californicus	203.58	2696	 	36.80645	-122.13001	1813762	1.49	2005-08-01 18:28:01.0	Ventana	34.21	01:55:51:17	8.637	V2696-02
 	transect	Mediaster	 	2687	 	 	 	1812696	 	2005-07-13 20:52:47.0	Ventana	 	04:17:17:18	 	V2687-05
 	transect	Mediaster	 	2687	 	 	 	1810716	 	2005-07-13 19:29:24.0	Ventana	 	02:55:07:19	 	V2687-03
 	transect	Aegina	400.72	2681	 	36.69779	-122.05349	2493209	0.79	2005-07-07 17:49:33.0	Ventana	34.278	01:19:57:11	6.66	V2681-02HD
 	transect	Appendicularia	500.6	2681	 	36.696163	-122.05169	2493615	0.43	2005-07-07 18:02:37.0	Ventana	34.348	01:33:00:10	6.012	V2681-02HD
 	transect	Mesomyaria	1000.47	2669	 	36.730896	-122.232864	1683826	0.45	2005-05-25 18:35:54.0	Ventana	34.522	00:58:19:18	3.91	V2669-01
 	descend	Chaetognatha	363.76	2682	 	36.698547	-122.0602	1720381	0.99	2005-07-08 17:30:21.0	Ventana	34.259	01:23:51:22	7.052	V2682-02
 	descend	Appendicularia	747.49	2683	 	36.70236	-122.04893	1757120	0.28	2005-07-11 17:57:21.0	Ventana	34.449	01:41:25:20	4.784	V2683-02
 	transect	Pennatulacea sp.1	600.88	2680	 	36.77681	-122.2221	1804136	0.36	2005-06-27 17:38:39.0	Ventana	34.377	00:18:46:18	5.58	V2680-01
 	transect	molt	100.52	2681	 	36.69983	-122.05429	2489669	2.13	2005-07-07 16:47:25.0	Ventana	34.068	00:18:34:23	9.148	V2681-01HD
 	descend	Solmissus	234.94	2683	 	36.70097	-122.05066	1756428	1.71	2005-07-11 16:49:34.0	Ventana	34.188	00:37:15:12	8.12	V2683-01
 	transect	Phyllospadix	998.48	2669	 	36.730988	-122.23005	1651225	0.45	2005-05-25 18:14:41.0	Ventana	34.521	00:37:08:11	3.913	V2669-01
 	transect	Mesomyaria	1000.44	2669	 	36.731228	-122.241196	1689391	0.41	2005-05-25 19:34:46.0	Ventana	34.514	01:56:43:14	4.069	V2669-02
 	ascend	Aegina	708.29	2682	 	36.69884	-122.05935	1723329	0.29	2005-07-08 20:31:41.0	Ventana	34.427	04:23:49:15	5.005	V2682-05
 	ascend	Crustacea	603.7	2682	 	36.69863	-122.06161	1723519	0.34	2005-07-08 20:56:59.0	Ventana	34.375	04:49:05:11	5.634	V2682-05
 	transect	Gastropoda sp.2	999.85	2669	 	36.730972	-122.23382	1694633	0.45	2005-05-25 18:40:38.0	Ventana	34.522	01:02:39:02	3.913	V2669-02
 	transect	molt	100.55	2681	 	36.69983	-122.05429	2489586	2.12	2005-07-07 16:45:30.0	Ventana	34.068	00:16:39:24	9.151	V2681-01HD
 	transect	Mesomyaria	997.55	2669	 	36.730614	-122.228134	1649343	0.45	2005-05-25 18:01:22.0	Ventana	34.521	00:23:49:28	3.907	V2669-01
 	transect	Mesomyaria	1000.28	2669	 	36.7316	-122.24324	1733790	0.41	2005-05-25 19:45:57.0	Ventana	34.51	02:07:28:21	4.063	V2669-03
 	ascend	Aegina	792.08	2683	 	36.70653	-122.048584	1757840	0.34	2005-07-11 21:01:36.0	Ventana	34.482	04:34:28:10	4.468	V2683-05
 	cruise	Cunina	381.37	2690	 	36.790104	-121.887276	1670370	0.98	2005-07-18 20:25:23.0	Ventana	34.262	01:40:28:11	7.041	V2690-01
 	ascend	Calycophorae	306.73	2693	 	36.691505	-122.06207	1759068	1.31	2005-07-25 21:19:08.0	Ventana	34.238	03:43:40:05	7.686	V2693-04
 	ascend	Euphausiacea	184.63	2683	 	36.702614	-122.0507	1758126	1.77	2005-07-11 21:29:44.0	Ventana	34.166	05:02:36:04	8.712	V2683-05
 	descend	Teuthoidea	472.12	2688	 	36.79343	-122.0183	1677223	0.87	2005-07-14 16:14:46.0	Ventana	34.276	00:01:07:19	6.809	V2688-01
 	descend	Appendicularia	360.32	2682	 	36.698513	-122.060135	1720441	1.0	2005-07-08 17:32:31.0	Ventana	34.258	01:26:02:24	7.07	V2682-02
 	transect	Psolus squamatus	 	2687	 	 	 	1807099	 	2005-07-13 16:59:46.0	Ventana	 	00:26:40:03	 	V2687-01
 	transect	Psolus squamatus	 	2687	 	 	 	1808981	 	2005-07-13 17:33:01.0	Ventana	 	00:59:53:17	 	V2687-01
 	transect	Mediaster	 	2687	 	 	 	1812756	 	2005-07-13 20:56:14.0	Ventana	 	04:20:43:25	 	V2687-05
 	transect	molt	50.42	2681	 	36.69983	-122.05429	2485623	2.99	2005-07-07 16:36:25.0	Ventana	33.913	00:07:35:25	9.627	V2681-01HD
 	cruise	Bathocyroe	516.94	2688	http://search.mbari.org/ARCHIVE/frameGrabs/Ventana/images/2688/01_01_35_07.jpg	36.80039	-122.01916	1677509	0.67	2005-07-14 17:15:19.0	Ventana	34.309	01:01:35:07	6.398	V2688-01
 	transect	Ophiuroidea	999.77	2669	 	36.731373	-122.23737	1687494	0.44	2005-05-25 19:09:35.0	Ventana	34.519	01:31:34:22	3.945	V2669-02
 	transect	Mediaster	 	2687	 	 	 	1810799	 	2005-07-13 19:35:01.0	Ventana	 	03:00:44:02	 	V2687-03
 	cruise	Parastichopus	306.02	2688	 	36.80868	-122.0203	1677855	1.35	2005-07-14 18:12:56.967	Ventana	34.219	01:58:38:24	7.842	V2688-02
 	transect	Calycophorae	300.43	2681	 	36.696243	-122.05187	2492549	1.24	2005-07-07 17:27:25.0	Ventana	34.237	00:58:31:28	7.412	V2681-01HD
 	transect	Dosidicus gigas	400.78	2681	 	36.695995	-122.05143	2492946	0.79	2005-07-07 17:41:57.0	Ventana	34.277	01:12:21:26	6.661	V2681-02HD
 	transect	Ophiuroidea	999.18	2669	 	36.731377	-122.23607	1684546	0.44	2005-05-25 18:58:04.0	Ventana	34.52	01:20:03:19	3.939	V2669-02
 	ascend	Appendicularia	632.14	2682	 	36.698868	-122.059746	1723389	0.32	2005-07-08 20:36:49.0	Ventana	34.389	04:28:57:03	5.432	V2682-05
 	ascend	Haliscera	335.8	2693	 	36.69278	-122.06169	1758985	1.26	2005-07-25 21:13:29.0	Ventana	34.236	03:38:01:18	7.463	V2693-04
 	transect	Chionoecetes tanneri	800.14	2674	 	36.75245	-122.20536	1799776	0.36	2005-06-08 17:56:38.0	Ventana	34.487	00:41:10:21	4.361	V2674-01
 	transect	Mesomyaria	800.75	2674	 	36.75113	-122.21717	1803476	0.35	2005-06-08 18:54:28.0	Ventana	34.489	01:38:31:17	4.336	V2674-02
 	transect	Mesomyaria	1000.1	2669	 	36.73188	-122.24598	1735604	0.41	2005-05-25 20:03:14.0	Ventana	34.51	02:24:43:16	4.059	V2669-03
 	transect	Euplexaura	 	2687	 	 	 	1810047	 	2005-07-13 18:52:07.0	Ventana	 	02:17:52:20	 	V2687-03
 	transect	Ophiuroidea	997.1	2669	 	36.731144	-122.23094	1683480	0.45	2005-05-25 18:22:02.0	Ventana	34.521	00:44:29:03	3.93	V2669-01
 	descend	Appendicularia	1000.9	2683	 	36.704105	-122.0497	1757374	0.43	2005-07-11 19:16:22.0	Ventana	34.521	02:56:43:16	4.002	V2683-03
 	transect	Phyllospadix	999.85	2669	 	36.731388	-122.2369	1687028	0.44	2005-05-25 19:05:36.0	Ventana	34.52	01:27:36:01	3.939	V2669-02
 	descend	Appendicularia	484.31	2683	 	36.70152	-122.04934	1756774	0.72	2005-07-11 17:23:04.0	Ventana	34.295	01:07:12:05	6.559	V2683-02
 	transect	Appendicularia	600.6	2681	 	36.69607	-122.05165	2493698	0.3	2005-07-07 18:20:26.0	Ventana	34.388	01:50:47:09	5.49	V2681-02HD
 	transect	Lycenchelys camchatica	800.18	2674	 	36.752098	-122.20865	1800791	0.35	2005-06-08 18:12:45.0	Ventana	34.491	00:57:16:27	4.323	V2674-01
 	stationary	Merluccius productus	502.36	2694	 	36.784584	-122.20044	1676757	0.58	2005-07-27 20:45:44.0	Ventana	34.323	03:17:05:18	6.142	V2694-04
 	ascend	sinker	821.57	2681	 	36.698933	-122.056526	1717418	0.31	2005-07-07 19:59:12.867	Ventana	34.483	03:28:15:14	4.449	V2681-04
 	transect	Phyllospadix	198.39	2696	 	36.80365	-122.12458	1813273	1.53	2005-08-01 17:29:04.0	Ventana	34.202	00:57:21:02	8.619	V2696-01
 	transect	Mesomyaria	800.79	2674	 	36.75259	-122.20121	1774184	0.35	2005-06-08 17:34:51.0	Ventana	34.487	00:19:25:10	4.368	V2674-01
 	transect	Neptunea amianta	602.76	2680	 	36.78821	-122.23219	1805950	0.36	2005-06-27 19:57:34.0	Ventana	34.377	02:36:12:14	5.608	V2680-03
 	starttransect	physical object	399.26	2687	 	36.789417	-122.12563	1809733	1.12	2005-07-13 18:38:47.0	Ventana	34.243	02:05:09:29	7.246	V2687-03
 	ascend	Cydippida	258.17	2681	 	36.697838	-122.05522	1719343	 	2005-07-07 21:29:59.0	Ventana	 	05:01:36:16	 	V2681-05
 	transect	Gastropoda sp.2	1000.54	2669	 	36.732395	-122.24973	1736702	0.41	2005-05-25 20:31:22.0	Ventana	34.51	02:52:50:02	4.066	V2669-03
 	descend	Euphotic zone	 	2673	 	 	 	1668289	 	 	Ventana	 	00:00:16:10	 	V2673-01
 	transect	Sebastes diploproa	 	2687	 	 	 	1811062	 	2005-07-13 19:50:23.0	Ventana	 	03:15:24:01	 	V2687-04
 	descend	Chaetognatha	1183.67	2682	 	36.698353	-122.05814	1722291	0.66	2005-07-08 19:38:47.0	Ventana	34.567	03:31:24:17	3.42	V2682-04
 	transect	Caridea sp.1	602.39	2680	 	36.790554	-122.23275	1806785	0.35	2005-06-27 20:20:55.0	Ventana	34.376	02:59:32:02	5.598	V2680-03
 	transect	Psolus squamatus	 	2687	 	 	 	1807708	 	2005-07-13 17:23:49.0	Ventana	 	00:50:41:14	 	V2687-01
 	ascend	Appendicularia	345.42	2693	 	36.693535	-122.06133	1758925	1.25	2005-07-25 21:09:15.0	Ventana	34.236	03:33:47:18	7.385	V2693-04
 	transect	Phyllospadix	802.36	2674	 	36.75232	-122.20575	1799836	0.36	2005-06-08 17:58:45.0	Ventana	34.489	00:43:17:22	4.333	V2674-01
 	transect	Mesomyaria	800.5	2674	 	36.751064	-122.21788	1803536	0.35	2005-06-08 18:57:39.0	Ventana	34.486	01:41:42:08	4.377	V2674-02
 	transect	Mesomyaria	800.38	2674	 	36.75173	-122.21168	1801137	0.35	2005-06-08 18:26:46.0	Ventana	34.491	01:10:50:11	4.336	V2674-02
 	transect	molt	100.5	2681	 	36.69982	-122.05429	2489729	2.13	2005-07-07 16:48:49.0	Ventana	34.067	00:19:57:15	9.152	V2681-01HD
 	transect	Poeobius meseres	400.75	2681	 	36.697422	-122.05309	2493149	0.79	2005-07-07 17:48:03.0	Ventana	34.278	01:18:27:02	6.662	V2681-02HD
 	cruise	slope	420.21	2676	 	36.803688	-122.02921	1676424	0.68	2005-06-14 16:42:40.0	Ventana	34.307	00:26:48:14	6.498	V2676-01
 	descend	Appendicularia	818.98	2682	 	36.698357	-122.05953	1721714	0.31	2005-07-08 18:43:05.0	Ventana	34.473	02:36:08:05	4.496	V2682-03
 	transect	Phyllospadix	 	2687	 	 	 	1810859	 	2005-07-13 19:37:42.0	Ventana	 	03:03:24:19	 	V2687-03
 	transect	Stomphia	1000.34	2669	 	36.731503	-122.24232	1694490	0.41	2005-05-25 19:41:06.0	Ventana	34.509	02:03:02:29	4.063	V2669-02
 	transect	Mediaster	 	2687	 	 	 	1807048	 	2005-07-13 16:56:27.0	Ventana	 	00:23:21:14	 	V2687-01
 	descend	Appendicularia	310.54	2683	 	36.70112	-122.05014	1756511	1.25	2005-07-11 16:54:18.0	Ventana	34.24	00:41:58:01	7.64	V2683-01
 	transect	Phyllospadix	196.35	2696	 	36.802982	-122.12248	1813070	1.55	2005-08-01 17:04:37.0	Ventana	34.199	00:32:55:29	8.608	V2696-01
 	transect	Sebastolobus	 	2687	 	 	 	1810656	 	2005-07-13 19:27:19.0	Ventana	 	02:53:02:10	 	V2687-03
 	transect	Mesomyaria	999.89	2669	 	36.730988	-122.23252	1683766	0.45	2005-05-25 18:33:51.0	Ventana	34.521	00:56:16:20	3.915	V2669-01
 	transect	Halipteris californica	597.8	2680	 	36.781246	-122.22621	1804948	0.36	2005-06-27 18:33:53.0	Ventana	34.376	01:12:59:09	5.601	V2680-02
 	transect	Poeobius meseres	1001.02	2681	 	36.695362	-122.05132	2498603	0.48	2005-07-07 19:24:20.0	Ventana	34.535	02:53:59:25	3.844	V2681-03HD
 	transect	Mesomyaria	799.9	2674	 	36.752518	-122.20374	1799383	0.35	2005-06-08 17:47:38.0	Ventana	34.487	00:32:11:04	4.359	V2674-01
 	transect	Psolus squamatus	 	2687	 	 	 	1810107	 	2005-07-13 18:56:39.0	Ventana	 	02:22:24:29	 	V2687-03
 	transect	Ceriantharia sp. 1	599.94	2680	 	36.77846	-122.223656	1804399	0.35	2005-06-27 17:59:09.0	Ventana	34.379	00:39:15:15	5.583	V2680-01
 	transect	Mediaster	 	2687	 	 	 	1807505	 	2005-07-13 17:12:59.0	Ventana	 	00:39:52:22	 	V2687-01
 	ascend	Aegina	288.48	2681	 	36.69974	-122.05521	1718217	1.36	2005-07-07 21:00:25.033	Ventana	34.229	04:28:44:29	7.728	V2681-05
 	cruise	Coryphaenoides acrolepis	 	2673	 	 	 	1668349	 	 	Ventana	 	00:14:16:04	 	V2673-01
 	transect	Mesomyaria	801.42	2674	 	36.75227	-122.20723	1800039	0.37	2005-06-08 18:05:59.0	Ventana	34.495	00:50:31:02	4.36	V2674-01
 	transect	Sebastolobus	 	2687	 	 	 	1808695	 	2005-07-13 17:27:22.0	Ventana	 	00:54:15:01	 	V2687-01
 	transect	Osmeridae	602.03	2680	 	36.791405	-122.23294	1806845	0.36	2005-06-27 20:27:44.0	Ventana	34.378	03:06:20:07	5.588	V2680-03
 	cruise	Chaetognatha	323.13	2676	 	36.804836	-122.03143	1676221	1.23	2005-06-14 16:21:37.0	Ventana	34.236	00:05:46:16	7.543	V2676-01
 	ascend	Appendicularia	264.7	2681	 	36.698917	-122.05657	1718766	1.41	2005-07-07 21:18:15.377	Ventana	34.231	04:46:34:21	7.923	V2681-05
 	ascend	Lobata	645.7	2681	 	36.698853	-122.05421	1717668	0.28	2005-07-07 20:27:28.1	Ventana	34.4	03:56:28:14	5.351	V2681-04
 	transect	Allocentrotus fragilis	399.85	2687	 	36.788128	-122.121635	1809244	1.13	2005-07-13 17:37:30.0	Ventana	34.243	01:03:52:25	7.255	V2687-02
 	transect	Xeneretmus	201.54	2696	http://search.mbari.org/ARCHIVE/frameGrabs/Ventana/images/2696/01_34_34_25.jpg	36.805256	-122.12819	1813619	1.5	2005-08-01 18:06:42.0	Ventana	34.211	01:34:34:25	8.672	V2696-02
 	transect	Calycophorae	300.45	2681	 	36.697735	-122.05316	2492143	1.23	2005-07-07 17:22:25.0	Ventana	34.234	00:53:31:10	7.4	V2681-01HD
 	descend	Calycophorae	458.39	2683	 	36.701653	-122.04933	1756714	0.78	2005-07-11 17:09:38.0	Ventana	34.283	00:57:18:04	6.672	V2683-01
 	transect	Phyllospadix	801.15	2674	 	36.75213	-122.20824	1800731	0.35	2005-06-08 18:10:51.0	Ventana	34.49	00:55:23:04	4.32	V2674-01
 	cruise	Scyliorhinidae	382.79	2690	 	36.790142	-121.88782	1669964	0.94	2005-07-18 19:49:10.0	Ventana	34.27	01:04:17:26	6.946	V2690-01
 	transect	molt	100.58	2681	 	36.69983	-122.05429	2489526	2.13	2005-07-07 16:43:53.0	Ventana	34.068	00:15:03:28	9.147	V2681-01HD
 	transect	Munneurycope murrayi	800.92	2681	 	36.695713	-122.05164	2498197	0.32	2005-07-07 18:57:05.0	Ventana	34.475	02:26:47:05	4.494	V2681-03HD
 	transect	Euphausia	200.35	2681	 	36.698322	-122.053444	2491344	1.67	2005-07-07 17:13:38.0	Ventana	34.201	00:44:45:27	8.341	V2681-01HD
 	transect	Mesomyaria	999.73	2669	 	36.73055	-122.22895	1651022	0.45	2005-05-25 18:06:18.0	Ventana	34.523	00:28:46:04	3.905	V2669-01
 	transect	Phyllospadix	 	2687	 	 	 	1809793	 	2005-07-13 18:40:29.0	Ventana	 	02:06:15:22	 	V2687-03
 	descend	Nanomia	194.47	2683	 	36.701077	-122.051056	1756368	1.69	2005-07-11 16:45:39.0	Ventana	34.199	00:33:19:00	8.432	V2683-01
 	transect	Parastichopus leukothele	197.59	2696	 	36.803448	-122.123856	1813213	1.55	2005-08-01 17:20:37.0	Ventana	34.198	00:48:54:26	8.627	V2696-01
 	transect	Mesomyaria	803.07	2674	 	36.75082	-122.22016	1803679	0.34	2005-06-08 19:07:19.0	Ventana	34.484	01:51:21:11	4.39	V2674-02
 	transect	Sebastolobus	 	2687	 	 	 	1811002	 	2005-07-13 19:47:33.0	Ventana	 	03:12:34:14	 	V2687-04
 	ascend	Euphotic zone	43.37	2682	 	36.69566	-122.060036	1723782	3.56	2005-07-08 21:38:23.0	Ventana	33.613	05:30:02:15	9.708	V2682-06
 	descend	Hormiphora	215.06	2693	 	36.69607	-122.05821	1758329	1.69	2005-07-25 18:26:52.0	Ventana	34.191	01:06:57:13	8.613	V2693-02
 	ascend	Chaetognatha	264.21	2681	 	36.699524	-122.05449	1718420	1.4	2005-07-07 21:08:34.017	Ventana	34.231	04:36:53:28	7.908	V2681-05
 	transect	Appendicularia	400.78	2681	 	36.69645	-122.051956	2493006	0.79	2005-07-07 17:43:53.0	Ventana	34.277	01:14:17:12	6.641	V2681-02HD
 	transect	Porifera sp. 1	 	2687	 	 	 	1810453	 	2005-07-13 19:18:28.0	Ventana	 	02:44:12:14	 	V2687-03
 	transect	Nanomia bijuga	200.48	2681	 	36.69828	-122.05329	2490592	1.72	2005-07-07 17:07:43.0	Ventana	34.195	00:38:51:01	8.334	V2681-01HD
 	transect	Euphausia	200.45	2681	 	36.69828	-122.05329	2490246	1.7	2005-07-07 17:06:12.0	Ventana	34.199	00:37:21:00	8.36	V2681-01HD
 	transect	Ophiuroidea	998.48	2669	 	36.731125	-122.230736	1683420	0.45	2005-05-25 18:20:25.0	Ventana	34.523	00:42:52:01	3.914	V2669-01
 	ascend	Calycophorae	1144.31	2683	 	36.708187	-122.04917	1757780	0.67	2005-07-11 20:40:18.0	Ventana	34.564	04:14:37:22	3.476	V2683-04
 	transect	Phyllospadix	800.93	2674	 	36.7525	-122.20272	1799240	0.35	2005-06-08 17:42:12.0	Ventana	34.485	00:26:45:18	4.379	V2674-01
 	cruise	Merluccius productus	504.98	2695	 	36.784412	-122.20044	1824518	0.68	2005-07-28 20:31:50.0	Ventana	34.29	05:33:09:17	6.312	V2695-03
 	cruise	physical object	99.38	2688	http://search.mbari.org/ARCHIVE/frameGrabs/Ventana/images/2688/05_13_13_02.jpg	36.813	-122.02062	1679530	1.94	2005-07-14 21:29:02.0	Ventana	34.109	05:13:13:02	8.875	V2688-05
 	transect	Nanomia bijuga	200.34	2681	 	36.69828	-122.05329	2490043	1.69	2005-07-07 17:04:18.0	Ventana	34.194	00:35:26:22	8.359	V2681-01HD
 	ascend	sinker	579.32	2682	 	36.698357	-122.06237	1723579	0.37	2005-07-08 21:06:00.0	Ventana	34.364	04:58:06:18	5.771	V2682-05
 	ascend	Euphausiacea	227.24	2693	 	36.691242	-122.06249	1759128	1.6	2005-07-25 21:23:30.0	Ventana	34.21	03:48:01:25	8.527	V2693-04
 	transect	Psolus squamatus	 	2687	 	 	 	1811205	 	2005-07-13 20:01:49.0	Ventana	 	03:26:49:03	 	V2687-04
 	descend	Appendicularia	849.03	2683	 	36.702885	-122.04838	1757231	0.34	2005-07-11 18:25:29.0	Ventana	34.484	02:09:33:23	4.385	V2683-02
 	transect	Lycenchelys camchatica	799.35	2674	 	36.75165	-122.21302	1801248	0.35	2005-06-08 18:31:50.0	Ventana	34.489	01:15:54:07	4.336	V2674-02
 	transect	Mesomyaria	1000.3	2669	 	36.73126	-122.24091	1689331	0.41	2005-05-25 19:33:20.0	Ventana	34.51	01:55:18:04	4.057	V2669-02
 	transect	Phyllospadix	801.11	2674	 	36.7525	-122.20019	1774041	0.29	2005-06-08 17:27:49.0	Ventana	34.459	00:12:23:20	4.656	V2674-01
 	transect	Rathbunaster californicus	199.65	2696	 	36.80429	-122.12615	1813416	1.52	2005-08-01 17:44:34.0	Ventana	34.209	01:12:27:28	8.664	V2696-02
 	transect	Aegina	500.56	2681	 	36.696957	-122.05255	2493555	0.44	2005-07-07 17:59:22.0	Ventana	34.344	01:29:44:27	6.025	V2681-02HD
 	transect	Phyllospadix	 	2687	 	 	 	1812350	 	2005-07-13 20:33:43.0	Ventana	 	03:58:41:10	 	V2687-04
 	transect	Leuroglossus stilbius	700.65	2681	 	36.697353	-122.05323	2497648	0.29	2005-07-07 18:38:16.0	Ventana	34.433	02:07:59:18	4.96	V2681-03HD
 	descend	Bathocyroe	488.16	2682	 	36.698586	-122.05977	1720819	0.48	2005-07-08 17:58:29.0	Ventana	34.339	01:51:58:13	6.114	V2682-02
 	ascend	Nanomia	258.17	2681	 	36.697838	-122.05522	1719486	 	2005-07-07 21:29:59.0	Ventana	 	05:07:04:27	 	V2681-05
 	transect	Mediaster	 	2687	 	 	 	1811801	 	2005-07-13 20:25:38.0	Ventana	 	03:50:36:25	 	V2687-04
 	descend	Chaetognatha	401.9	2681	 	36.695553	-122.05119	1715111	0.81	2005-07-07 17:33:27.277	Ventana	34.278	01:03:51:11	6.695	V2681-02
 	transect	Actiniaria	399.68	2687	http://search.mbari.org/ARCHIVE/frameGrabs/Ventana/images/2687/01_48_45_21.jpg	36.789276	-122.12465	1809590	1.17	2005-07-13 18:22:26.0	Ventana	34.239	01:48:45:21	7.336	V2687-02
 	transect	Mesomyaria	1000.0	2669	 	36.731686	-122.24355	1733850	0.41	2005-05-25 19:47:40.0	Ventana	34.511	02:09:11:07	4.072	V2669-03
 	descend	Bathocyroe	528.85	2683	 	36.701492	-122.04914	1756917	0.55	2005-07-11 17:42:26.0	Ventana	34.32	01:26:31:28	6.24	V2683-02
 	transect	Sebastolobus altivelis	800.63	2674	http://search.mbari.org/ARCHIVE/frameGrabs/Ventana/images/2674/01_02_19_06.jpg	36.75196	-122.20968	1800934	0.35	2005-06-08 18:18:14.0	Ventana	34.49	01:02:19:06	4.335	V2674-02
 	transect	Phyllospadix	798.85	2674	 	36.75138	-122.215065	1801400	0.35	2005-06-08 18:44:11.0	Ventana	34.489	01:28:14:14	4.338	V2674-02
 	transect	Porifera sp. 1	 	2687	 	 	 	1812807	 	2005-07-13 20:58:48.0	Ventana	 	04:23:18:01	 	V2687-05
 	transect	Gastropoda sp.2	999.89	2669	 	36.731068	-122.23895	1694730	0.43	2005-05-25 19:21:02.0	Ventana	34.518	01:43:00:20	3.96	V2669-02
 	transect	Mediaster	 	2687	 	 	 	1809844	 	2005-07-13 18:45:40.0	Ventana	 	02:11:25:20	 	V2687-03
 	ascend	Appendicularia	531.54	2682	 	36.698338	-122.0629	1723639	0.43	2005-07-08 21:10:47.0	Ventana	34.347	05:02:28:17	6.02	V2682-06
 	transect	Mesomyaria	1000.13	2669	http://search.mbari.org/ARCHIVE/frameGrabs/Ventana/images/2669/01_02_14_13.jpg	36.73094	-122.233734	1683937	0.45	2005-05-25 18:40:13.0	Ventana	34.523	01:02:14:13	3.911	V2669-02
 	descend	Appendicularia	381.17	2682	 	36.698433	-122.05994	1720676	0.93	2005-07-08 17:35:24.0	Ventana	34.261	01:28:56:03	6.963	V2682-02
 	ascend	Aegina	898.07	2682	 	36.698208	-122.05843	1723209	0.35	2005-07-08 20:14:28.0	Ventana	34.497	04:06:38:24	4.271	V2682-05
 	descend	Sergestes similis	525.9	2683	 	36.701473	-122.04913	1756908	0.58	2005-07-11 17:42:04.0	Ventana	34.319	01:26:10:25	6.282	V2683-02
 	transect	Aegina	800.86	2681	 	36.696915	-122.05302	2498271	0.31	2005-07-07 19:02:23.0	Ventana	34.474	02:32:03:28	4.508	V2681-03HD
 	transect	Mesomyaria	999.08	2669	 	36.731087	-122.23066	1651359	0.45	2005-05-25 18:19:20.0	Ventana	34.523	00:41:46:24	3.91	V2669-01
 	transect	Brisaster	598.42	2680	 	36.781746	-122.22686	1805054	0.36	2005-06-27 18:40:37.0	Ventana	34.376	01:19:42:15	5.601	V2680-02
 	transect	Phyllospadix	 	2669	 	 	 	1737671	 	2005-05-25 13:56:06.0	Ventana	 	03:16:53:12	 	V2669-04
 	ascend	Euphausiacea	258.17	2681	 	36.697838	-122.05522	1719555	 	2005-07-07 21:29:59.0	Ventana	 	05:13:27:28	 	V2681-05
 	transect	Brisaster	599.87	2680	 	36.77807	-122.22322	1804348	0.36	2005-06-27 17:53:42.0	Ventana	34.377	00:33:49:10	5.591	V2680-01
 	transect	Aegina citrea	300.42	2681	 	36.69713	-122.052635	2492360	1.23	2005-07-07 17:24:28.0	Ventana	34.233	00:55:34:24	7.393	V2681-01HD
 	ascend	Appendicularia	430.77	2683	 	36.70417	-122.05058	1758029	0.83	2005-07-11 21:19:01.0	Ventana	34.276	04:51:52:06	6.791	V2683-05
 	transect	Mediaster	 	2687	 	 	 	1810642	 	2005-07-13 19:26:19.0	Ventana	 	02:52:02:25	 	V2687-03
 	transect	Rathbunaster californicus	200.96	2696	 	36.805252	-122.12818	1813605	1.5	2005-08-01 18:03:47.0	Ventana	34.211	01:31:39:00	8.667	V2696-02
 	descend	Myctophidae	664.15	2682	 	36.69865	-122.059944	1721382	0.28	2005-07-08 18:11:17.0	Ventana	34.411	02:04:22:02	5.201	V2682-03
 	transect	Calycophorae	500.57	2681	 	36.697254	-122.05294	2493481	0.44	2005-07-07 17:58:04.0	Ventana	34.346	01:28:26:09	6.025	V2681-02HD
 	cruise	Sebastolobus	613.55	2688	 	36.794968	-122.019104	1677320	0.44	2005-07-14 16:32:04.0	Ventana	34.394	00:18:24:20	5.448	V2688-01
 	transect	Mesomyaria	999.14	2669	 	36.731163	-122.23557	1684352	0.45	2005-05-25 18:54:23.0	Ventana	34.523	01:16:23:19	3.919	V2669-02
 	transect	Phyllospadix	800.88	2674	 	36.75258	-122.20199	1799143	0.34	2005-06-08 17:38:45.0	Ventana	34.477	00:23:18:13	4.4	V2674-01
 	transect	Nanomia bijuga	200.36	2681	 	36.69831	-122.0534	2491224	1.67	2005-07-07 17:12:54.0	Ventana	34.201	00:44:02:27	8.34	V2681-01HD
 	descend	Poeobius meseres	1162.83	2682	 	36.69821	-122.05921	1722180	0.62	2005-07-08 19:13:48.0	Ventana	34.562	03:06:25:01	3.491	V2682-04
 	transect	Appendicularia	400.75	2681	 	36.697487	-122.05317	2493158	0.79	2005-07-07 17:48:19.0	Ventana	34.277	01:18:42:09	6.662	V2681-02HD
 	transect	molt	100.48	2681	 	36.69982	-122.05429	2489720	2.13	2005-07-07 16:48:37.0	Ventana	34.067	00:19:46:25	9.151	V2681-01HD
 	descend	Sergestes similis	296.93	2681	 	36.698536	-122.05367	1713644	1.26	2005-07-07 17:18:57.803	Ventana	34.228	00:50:05:11	7.464	V2681-01
 	transect	Porifera	 	2687	 	 	 	1810259	 	2005-07-13 19:13:01.0	Ventana	 	02:38:45:08	 	V2687-03
 	transect	Phyllospadix	802.64	2674	 	36.752277	-122.206116	1799896	0.36	2005-06-08 18:00:28.0	Ventana	34.486	00:45:00:16	4.338	V2674-01
 	transect	Pennatulacea sp.1	600.35	2680	 	36.786213	-122.23092	1805867	0.36	2005-06-27 19:35:39.0	Ventana	34.378	02:14:18:17	5.597	V2680-03
 	transect	Mediaster	 	2687	 	 	 	1812484	 	2005-07-13 20:41:14.0	Ventana	 	04:06:11:06	 	V2687-04
 	transect	Sebastolobus altivelis	800.83	2674	 	36.751022	-122.21809	1803550	0.35	2005-06-08 18:58:44.0	Ventana	34.492	01:42:46:26	4.326	V2674-02
 	descend	Appendicularia	366.6	2683	 	36.70138	-122.049835	1756585	1.12	2005-07-11 16:57:27.0	Ventana	34.236	00:45:06:11	7.099	V2683-01
 	transect	Psolus squamatus	 	2687	 	 	 	1808815	 	2005-07-13 17:30:02.0	Ventana	 	00:56:54:16	 	V2687-01
 	ascend	Poeobius meseres	1010.32	2682	 	36.69773	-122.05819	1722886	0.46	2005-07-08 20:05:17.0	Ventana	34.526	03:57:52:16	3.916	V2682-04
 	transect	Euplexaura	399.84	2687	 	36.788048	-122.121544	1809138	1.13	2005-07-13 17:36:10.0	Ventana	34.242	01:02:32:10	7.271	V2687-02
 	transect	Poeobius meseres	600.53	2681	 	36.697823	-122.053734	2493864	0.3	2005-07-07 18:28:19.0	Ventana	34.387	01:58:40:18	5.478	V2681-02HD
 	ascend	Chaetognatha	976.04	2681	 	36.69697	-122.05339	1716592	0.44	2005-07-07 19:36:27.6	Ventana	34.521	03:06:08:12	3.997	V2681-03
 	ascend	Hastigerinella digitata	378.5	2693	 	36.695847	-122.06062	1758782	1.19	2005-07-25 20:50:46.0	Ventana	34.233	03:15:19:18	7.139	V2693-04
 	transect	Sebastes diploproa	 	2687	 	 	 	1810965	 	2005-07-13 19:44:50.0	Ventana	 	03:09:51:08	 	V2687-04
 	ascend	Pantachogon	1187.86	2683	 	36.70737	-122.04769	1757706	0.71	2005-07-11 20:23:31.0	Ventana	34.572	03:57:52:08	3.369	V2683-04
 	ascend	Poeobius meseres	684.12	2681	 	36.69874	-122.05458	1717621	0.28	2005-07-07 20:22:19.337	Ventana	34.415	03:51:20:16	5.148	V2681-04
 	transect	Chaetognatha	700.62	2681	 	36.69566	-122.05152	2497888	0.28	2005-07-07 18:45:28.0	Ventana	34.436	02:15:10:26	4.943	V2681-03HD
 	descend	Calycophorae	882.4	2682	 	36.698277	-122.05944	1721765	0.33	2005-07-08 18:50:21.0	Ventana	34.49	02:43:24:08	4.34	V2682-03
 	transect	Mediaster	 	2687	 	 	 	1811455	 	2005-07-13 20:13:34.0	Ventana	 	03:38:33:21	 	V2687-04
 	descend	Bolinopsis	226.62	2681	 	36.698524	-122.05351	1713584	1.5	2005-07-07 17:15:21.813	Ventana	34.216	00:46:29:18	8.215	V2681-01
 	transect	Phyllospadix	800.68	2674	 	36.751965	-122.209625	1800925	0.35	2005-06-08 18:17:56.0	Ventana	34.493	01:02:01:01	4.326	V2674-02
 	transect	Nanomia bijuga	400.78	2681	 	36.69714	-122.052765	2493098	0.79	2005-07-07 17:46:52.0	Ventana	34.278	01:17:17:05	6.661	V2681-02HD
 	transect	Ophiuroidea	999.0	2669	 	36.731415	-122.2362	1684675	0.44	2005-05-25 18:59:03.0	Ventana	34.52	01:21:02:22	3.94	V2669-02
 	descend	Nanomia	177.29	2682	 	36.69989	-122.06075	1719938	2.1	2005-07-08 16:19:54.0	Ventana	34.151	00:13:59:17	8.296	V2682-01
 	descend	Appendicularia	1017.18	2682	 	36.698322	-122.05922	1722028	0.46	2005-07-08 19:00:58.0	Ventana	34.528	02:53:59:28	3.923	V2682-03
 	transect	Mesomyaria	1000.58	2669	 	36.732204	-122.2486	1736227	0.41	2005-05-25 20:23:12.0	Ventana	34.51	02:44:40:06	4.061	V2669-03
 	transect	Poeobius meseres	1001.01	2681	 	36.69588	-122.05203	2498654	0.48	2005-07-07 19:27:21.0	Ventana	34.532	02:57:01:24	3.866	V2681-03HD
 	transect	Mesomyaria	999.51	2669	http://search.mbari.org/ARCHIVE/frameGrabs/Ventana/images/2669/00_48_13_12.jpg	36.731018	-122.2313	1683614	0.45	2005-05-25 18:25:47.0	Ventana	34.52	00:48:13:12	3.915	V2669-01
 	ascend	Appendicularia	259.05	2681	 	36.698776	-122.05688	1719080	1.42	2005-07-07 21:22:14.5	Ventana	34.228	04:50:33:17	7.961	V2681-05
 	transect	Mesomyaria	801.13	2674	 	36.75097	-122.21883	1803610	0.35	2005-06-08 19:01:42.0	Ventana	34.488	01:45:44:27	4.352	V2674-02
 	transect	sinker	1001.04	2681	 	36.69528	-122.05122	2498594	0.48	2005-07-07 19:23:58.0	Ventana	34.535	02:53:37:09	3.84	V2681-03HD
 	descend	Appendicularia	504.01	2683	 	36.701443	-122.04917	1756848	0.68	2005-07-11 17:39:23.0	Ventana	34.306	01:23:28:29	6.467	V2683-02
 	stationary	Merluccius productus	502.37	2694	 	36.784645	-122.20046	1676674	0.74	2005-07-27 20:34:11.0	Ventana	34.291	03:06:18:07	6.444	V2694-03
 	transect	Psolus squamatus	 	2687	 	 	 	1807694	 	2005-07-13 17:23:03.0	Ventana	 	00:49:55:22	 	V2687-01
 	transect	chuniphyes	700.58	2681	 	36.695297	-122.05107	2497948	0.28	2005-07-07 18:47:08.0	Ventana	34.431	02:16:50:18	5.0	V2681-03HD
 	transect	Mesomyaria	1000.18	2669	 	36.731663	-122.24378	1733942	0.41	2005-05-25 19:48:48.0	Ventana	34.509	02:10:19:23	4.064	V2669-03
 	transect	Rathbunaster californicus	197.76	2696	 	36.803474	-122.12395	1813222	1.54	2005-08-01 17:21:40.0	Ventana	34.202	00:49:58:03	8.61	V2696-01
 	transect	Ophiuroidea	999.76	2669	 	36.73059	-122.229034	1651036	0.45	2005-05-25 18:07:03.0	Ventana	34.523	00:29:30:25	3.905	V2669-01
 	transect	Porifera	400.04	2687	http://search.mbari.org/ARCHIVE/frameGrabs/Ventana/images/2687/01_37_55_27.jpg	36.78906	-122.12394	1809521	1.17	2005-07-13 18:11:36.0	Ventana	34.239	01:37:55:27	7.355	V2687-02
 	transect	Lycenchelys camchatica	800.97	2674	 	36.752544	-122.20247	1799203	0.34	2005-06-08 17:41:05.0	Ventana	34.476	00:25:38:25	4.411	V2674-01
 	cruise	Pleuronectiformes	601.21	2688	 	36.796192	-122.020226	1677380	0.46	2005-07-14 16:39:24.0	Ventana	34.384	00:25:44:05	5.573	V2688-01
 	cruise	Ophiodon elongatus	92.37	2688	 	36.814705	-122.01879	1679470	1.94	2005-07-14 21:09:05.0	Ventana	34.099	04:53:18:09	8.922	V2688-05
 	transect	Mediaster	 	2687	 	 	 	1811348	 	2005-07-13 20:08:50.0	Ventana	 	03:33:49:26	 	V2687-04
 	ascend	Nanomia	370.91	2693	 	36.696404	-122.060715	1758675	1.2	2005-07-25 20:27:39.0	Ventana	34.232	03:07:11:19	7.164	V2693-03
 	transect	Mesomyaria	798.68	2674	 	36.75156	-122.21417	1801340	0.35	2005-06-08 18:39:23.0	Ventana	34.488	01:23:26:22	4.338	V2674-02
 	transect	Calycophorae	600.58	2681	 	36.697002	-122.052734	2493804	0.3	2005-07-07 18:24:42.0	Ventana	34.387	01:55:03:09	5.475	V2681-02HD
 	descend	Calycophorae	606.97	2681	 	36.69569	-122.05102	1715854	0.3	2005-07-07 18:16:13.033	Ventana	34.389	01:46:34:15	5.477	V2681-02
 	ascend	Melanostigma	538.33	2681	 	36.698975	-122.054245	1717728	0.4	2005-07-07 20:32:49.767	Ventana	34.36	04:01:50:09	5.944	V2681-04
 	transect	Diogenidae	599.8	2680	 	36.777523	-122.222565	1804288	0.36	2005-06-27 17:47:20.0	Ventana	34.378	00:27:27:15	5.589	V2680-01
 	transect	Rathbunaster californicus	203.08	2696	 	36.805256	-122.12819	1813665	1.47	2005-08-01 18:13:13.0	Ventana	34.216	01:41:05:02	8.611	V2696-02
 	transect	Gastropoda sp.2	998.63	2669	 	36.730915	-122.22987	1695053	0.45	2005-05-25 18:13:23.0	Ventana	34.521	00:35:50:15	3.906	V2669-01
 	descend	Appendicularia	966.28	2681	 	36.694653	-122.05038	1716532	0.44	2005-07-07 19:18:59.367	Ventana	34.523	02:48:41:08	3.982	V2681-03
 	transect	Phyllospadix	1000.01	2669	 	36.7318	-122.24457	1734385	0.4	2005-05-25 19:53:54.0	Ventana	34.51	02:15:24:06	4.078	V2669-03
 	transect	Phyllospadix	802.1	2674	 	36.75223	-122.206566	1799956	0.36	2005-06-08 18:02:40.0	Ventana	34.484	00:47:12:17	4.347	V2674-01
 	transect	Mesomyaria	997.49	2669	 	36.73063	-122.22778	1649209	0.45	2005-05-25 17:58:49.0	Ventana	34.521	00:21:17:04	3.907	V2669-01
 	transect	Diogenidae	602.36	2680	 	36.791218	-122.2329	1806836	0.35	2005-06-27 20:26:17.0	Ventana	34.379	03:04:53:01	5.587	V2680-03
 	ascend	Melanostigma pammelas	593.27	2682	 	36.698784	-122.060814	1723472	0.4	2005-07-08 20:48:06.0	Ventana	34.371	04:40:13:03	5.666	V2682-05
 	descend	Poeobius meseres	814.22	2683	 	36.702686	-122.04866	1757171	0.36	2005-07-11 18:03:36.0	Ventana	34.471	01:47:41:26	4.532	V2683-02
 	cruise	Pleuronectiformes	472.83	2688	 	36.80222	-122.01823	1677583	0.81	2005-07-14 17:29:07.0	Ventana	34.283	01:14:51:23	6.724	V2688-02
 	cruise	Mediaster	93.51	2688	 	36.815243	-122.01733	1679410	1.96	2005-07-14 20:29:39.0	Ventana	34.094	04:14:23:13	8.949	V2688-04
 	ascend	Calycophorae	954.67	2681	 	36.69733	-122.05374	1716855	0.42	2005-07-07 19:40:19.267	Ventana	34.517	03:09:23:01	4.048	V2681-04
 	transect	Mesomyaria	999.71	2669	 	36.730705	-122.22948	1651096	0.45	2005-05-25 18:10:09.0	Ventana	34.521	00:32:36:28	3.908	V2669-01
 	transect	Glyptocephalus zachirus	 	2687	 	 	 	1810199	 	2005-07-13 19:08:30.0	Ventana	 	02:34:14:22	 	V2687-03
 	transect	Phyllospadix	196.66	2696	 	36.80329	-122.12328	1813162	1.54	2005-08-01 17:14:12.0	Ventana	34.202	00:42:30:29	8.615	V2696-01
 	transect	Neptunea amianta	999.79	2669	 	36.731094	-122.235214	1684292	0.45	2005-05-25 18:52:17.0	Ventana	34.521	01:14:17:09	3.921	V2669-02
 	transect	Mediaster	 	2687	 	 	 	1811838	 	2005-07-13 20:26:51.0	Ventana	 	03:51:49:08	 	V2687-04
 	cruise	Remote Instrument Node	124.32	2672	http://search.mbari.org/ARCHIVE/frameGrabs/Ventana/images/2672/00_24_04_09.jpg	36.80311	-121.80558	20003840	2.67	2005-06-03 15:04:42.0	Ventana	33.959	00:24:04:09	9.32	V2672-01
 	endtransect	physical object	 	2687	 	 	 	1810905	 	2005-07-13 19:41:53.0	Ventana	 	03:06:54:25	 	V2687-04
 	transect	Mesomyaria	999.34	2669	 	36.731007	-122.231735	1683674	0.45	2005-05-25 18:28:44.0	Ventana	34.521	00:51:10:16	3.913	V2669-01
 	ascend	sinker	1150.49	2683	 	36.708076	-122.04895	1757766	0.69	2005-07-11 20:37:13.0	Ventana	34.569	04:11:33:28	3.435	V2683-04
 	ascend	Appendicularia	261.37	2681	 	36.699448	-122.054565	1718494	1.41	2005-07-07 21:10:21.233	Ventana	34.231	04:38:40:16	7.925	V2681-05
 	transect	Psolus squamatus	399.86	2687	http://search.mbari.org/ARCHIVE/frameGrabs/Ventana/images/2687/01_02_12_24.jpg	36.788044	-122.12152	1809078	1.14	2005-07-13 17:35:50.0	Ventana	34.237	01:02:12:24	7.276	V2687-02
 	cruise	rock outcrop	135.66	2676	http://search.mbari.org/ARCHIVE/frameGrabs/Ventana/images/2676/01_37_33_17.jpg	36.808636	-122.03092	1676877	1.73	2005-06-14 17:57:51.0	Ventana	34.171	01:37:33:17	8.333	V2676-02
 	transect	molt	50.42	2681	 	36.69983	-122.05429	2485576	2.97	2005-07-07 16:35:37.0	Ventana	33.919	00:06:47:21	9.619	V2681-01HD
 	transect	Ceriantharia sp. 2	1000.1	2669	 	36.731136	-122.238594	1688879	0.43	2005-05-25 19:18:51.0	Ventana	34.516	01:40:50:00	3.961	V2669-02
 	ascend	Copepoda	863.21	2681	 	36.69848	-122.055565	1717358	0.34	2005-07-07 19:53:36.033	Ventana	34.498	03:22:39:00	4.316	V2681-04
 	ascend	Appendicularia	427.3	2681	 	36.699085	-122.05423	1717788	0.71	2005-07-07 20:38:05.867	Ventana	34.284	04:07:06:02	6.59	V2681-04
 	descend	Cydippida	297.51	2693	 	36.697723	-122.06101	1758472	1.33	2005-07-25 19:38:50.0	Ventana	34.237	02:18:25:27	7.755	V2693-03
 	ascend	Appendicularia	396.75	2681	 	36.6993	-122.05453	1717991	0.91	2005-07-07 20:48:01.433	Ventana	34.265	04:16:22:19	6.908	V2681-05
 	transect	Mesomyaria	998.94	2669	 	36.731396	-122.23653	1684795	0.44	2005-05-25 19:01:48.0	Ventana	34.52	01:23:47:16	3.939	V2669-02
 	cruise	Lycodapus	997.18	2679	 	36.68986	-122.1656	1824366	0.42	2005-06-16 17:32:51.0	Ventana	34.514	00:04:13:17	4.117	V2679-01
 	descend	Chaetognatha	405.37	2683	 	36.70144	-122.049545	1756645	0.94	2005-07-11 17:04:47.0	Ventana	34.263	00:52:25:27	6.938	V2683-01
 	transect	Mesomyaria	998.39	2669	 	36.731064	-122.230385	1651299	0.45	2005-05-25 18:17:36.0	Ventana	34.521	00:40:02:24	3.908	V2669-01
 	descend	Nanomia	164.52	2681	 	36.69828	-122.05329	1713524	2.03	2005-07-07 17:02:36.3	Ventana	34.139	00:33:44:26	8.649	V2681-01
 	cruise	Chionoecetes tanneri	1222.76	2683	 	36.706165	-122.04771	1757586	0.73	2005-07-11 20:00:48.0	Ventana	34.571	03:35:10:00	3.335	V2683-04
 	transect	Nanomia bijuga	200.37	2681	 	36.69832	-122.05343	2491284	1.66	2005-07-07 17:13:24.0	Ventana	34.2	00:44:31:19	8.34	V2681-01HD
 	transect	Mesomyaria	1000.32	2669	 	36.73125	-122.24128	1689405	0.4	2005-05-25 19:35:31.0	Ventana	34.508	01:57:28:27	4.086	V2669-02
 	transect	Mediaster	 	2687	 	 	 	1812747	 	2005-07-13 20:55:50.0	Ventana	 	04:20:19:24	 	V2687-05
 	descend	Appendicularia	485.21	2681	 	36.698116	-122.053894	1715351	0.48	2005-07-07 17:53:18.203	Ventana	34.338	01:23:41:02	6.089	V2681-02
 	ascend	Appendicularia	471.83	2682	 	36.698334	-122.06315	1723699	0.58	2005-07-08 21:16:55.0	Ventana	34.309	05:08:35:08	6.297	V2682-06
 	transect	Mesomyaria	1000.31	2669	 	36.732513	-122.25015	1736905	0.41	2005-05-25 20:34:00.0	Ventana	34.51	02:55:28:26	4.067	V2669-03
 	cruise	Pleuronectiformes	600.79	2688	 	36.7934	-122.018524	1677260	0.5	2005-07-14 16:23:32.0	Ventana	34.363	00:09:52:24	5.774	V2688-01
 	descend	Appendicularia	420.23	2682	 	36.6982	-122.059784	1720736	0.72	2005-07-08 17:41:02.0	Ventana	34.283	01:34:33:21	6.539	V2682-02
 	transect	Sebastolobus	998.65	2669	 	36.73118	-122.234245	1684089	0.45	2005-05-25 18:43:25.0	Ventana	34.521	01:05:25:21	3.915	V2669-02
 	transect	Psolus squamatus	399.87	2687	 	36.788128	-122.12165	1809258	1.13	2005-07-13 17:37:42.0	Ventana	34.243	01:04:04:02	7.26	V2687-02
 	descend	Nanomia	192.79	2693	 	36.696087	-122.05817	1758292	1.79	2005-07-25 18:15:35.0	Ventana	34.184	00:56:06:02	8.905	V2693-01
 	transect	Rathbunaster californicus	204.21	2696	 	36.80762	-122.131256	1813868	1.46	2005-08-01 18:44:13.0	Ventana	34.221	02:11:18:14	8.649	V2696-03
 	descend	Calycophorae	274.73	2683	 	36.70099	-122.05027	1756465	1.37	2005-07-11 16:52:07.0	Ventana	34.229	00:39:46:24	7.833	V2683-01
 	transect	Asteronyx loveni	600.18	2680	 	36.784344	-122.229706	1805604	0.36	2005-06-27 19:16:51.0	Ventana	34.377	01:55:54:26	5.606	V2680-02
 	transect	Mesomyaria	1000.11	2669	 	36.731007	-122.233116	1683877	0.45	2005-05-25 18:37:35.0	Ventana	34.523	01:00:01:04	3.91	V2669-01
 	transect	Actiniaria sp. 3	 	2687	 	 	 	1810379	 	2005-07-13 19:16:47.0	Ventana	 	02:42:31:09	 	V2687-03
 	ascend	Chaetognatha	189.03	2693	 	36.69061	-122.06289	1759225	1.89	2005-07-25 21:29:11.0	Ventana	34.16	03:53:42:12	8.869	V2693-04
 	transect	Nanomia bijuga	200.41	2681	 	36.698296	-122.05335	2491104	1.69	2005-07-07 17:11:50.0	Ventana	34.198	00:42:57:16	8.335	V2681-01HD
 	ascend	Lensia	336.3	2681	 	36.699444	-122.055275	1718111	1.14	2005-07-07 20:54:20.367	Ventana	34.245	04:22:40:20	7.288	V2681-05
 	ascend	Appendicularia	895.43	2681	 	36.698063	-122.05492	1717178	0.37	2005-07-07 19:49:32.22	Ventana	34.505	03:18:35:13	4.209	V2681-04
 	ascend	Chaetognatha	325.69	2693	 	36.691807	-122.06197	1759045	1.29	2005-07-25 21:17:20.0	Ventana	34.237	03:41:51:25	7.556	V2693-04
 	transect	Porifera	 	2687	 	 	 	1810056	 	2005-07-13 18:52:41.0	Ventana	 	02:18:26:09	 	V2687-03
 	transect	cydippida	100.5	2681	 	36.699696	-122.05421	2489780	2.13	2005-07-07 16:50:21.0	Ventana	34.067	00:21:30:21	9.159	V2681-01HD
 	cruise	Rathbunaster californicus	458.91	2676	 	36.80279	-122.02932	1676304	0.6	2005-06-14 16:35:44.0	Ventana	34.324	00:19:53:09	6.285	V2676-01
 	transect	Mesomyaria	1000.06	2669	 	36.7311	-122.2398	1689202	0.41	2005-05-25 19:26:40.0	Ventana	34.511	01:48:37:26	4.063	V2669-02
 	transect	Sebastolobus altivelis	799.78	2674	 	36.75176	-122.212166	1801188	0.35	2005-06-08 18:28:51.0	Ventana	34.487	01:12:56:00	4.339	V2674-02
 	transect	Phyllospadix	799.18	2674	 	36.752506	-122.20424	1799526	0.35	2005-06-08 17:50:30.0	Ventana	34.484	00:35:03:01	4.371	V2674-01
 	transect	Euplexaura	 	2687	 	 	 	1807634	 	2005-07-13 17:19:20.0	Ventana	 	00:46:13:13	 	V2687-01
 	ascend	Chuniphyes	661.82	2683	 	36.705357	-122.04975	1757909	0.28	2005-07-11 21:08:28.0	Ventana	34.417	04:41:21:15	5.116	V2683-05
 	transect	Phyllospadix	999.24	2669	 	36.731216	-122.23583	1684412	0.44	2005-05-25 18:56:14.0	Ventana	34.52	01:18:14:07	3.933	V2669-02
 	transect	Mediaster	 	2687	 	 	 	1811718	 	2005-07-13 20:22:22.0	Ventana	 	03:47:20:17	 	V2687-04
 	stationary	cable	998.0	2679	http://search.mbari.org/ARCHIVE/frameGrabs/Ventana/images/2679/00_59_10_02.jpg	36.690414	-122.16629	20004403	0.47	2005-06-16 20:20:55.0	Ventana	34.534	00:59:10:02	3.872	V2679-01
 	transect	Neptunea amianta	601.31	2680	 	36.776844	-122.22212	1804145	0.36	2005-06-27 17:39:02.0	Ventana	34.378	00:19:10:01	5.578	V2680-01
 	descend	Leuroglossus stilbius	602.9	2681	 	36.695675	-122.05107	1715914	0.3	2005-07-07 18:17:53.357	Ventana	34.39	01:48:14:06	5.482	V2681-02
 	transect	Psolus squamatus	 	2687	 	 	 	1808935	 	2005-07-13 17:32:22.0	Ventana	 	00:59:14:20	 	V2687-01
 	descend	Appendicularia	494.22	2683	 	36.701466	-122.04938	1756788	0.71	2005-07-11 17:24:53.0	Ventana	34.3	01:09:00:14	6.516	V2683-02
 	transect	Brisaster	 	2687	 	 	 	1812424	 	2005-07-13 20:37:59.0	Ventana	 	04:02:56:27	 	V2687-04
 	descend	Lensia	366.49	2693	 	36.696377	-122.060555	1758615	1.2	2005-07-25 20:14:59.0	Ventana	34.234	02:54:31:27	7.183	V2693-03
 	transect	Zaniolepididae	200.17	2696	 	36.804962	-122.12766	1813545	1.51	2005-08-01 17:58:43.0	Ventana	34.212	01:26:35:13	8.674	V2696-02
 	descend	Copepoda	1008.41	2683	 	36.704056	-122.05016	1757383	0.44	2005-07-11 19:18:29.0	Ventana	34.521	02:58:50:24	3.988	V2683-03
 	transect	Allocentrotus fragilis	 	2687	 	 	 	1811288	 	2005-07-13 20:05:34.0	Ventana	 	03:30:33:21	 	V2687-04
 	transect	Mediaster	 	2687	 	 	 	1812221	 	2005-07-13 20:29:24.0	Ventana	 	03:54:22:16	 	V2687-04
 	transect	molt	100.53	2681	 	36.69983	-122.05429	2489600	2.12	2005-07-07 16:45:48.0	Ventana	34.068	00:16:58:09	9.15	V2681-01HD
 	transect	Porifera	399.49	2687	 	36.78941	-122.12496	1809641	1.16	2005-07-13 18:28:06.0	Ventana	34.237	01:54:24:20	7.328	V2687-02
 	transect	Mesomyaria	999.35	2669	 	36.730503	-122.22864	1650916	0.45	2005-05-25 18:04:32.0	Ventana	34.522	00:27:00:20	3.906	V2669-01
 	transect	Chionoecetes tanneri	802.97	2674	 	36.75182	-122.21012	1800985	0.36	2005-06-08 18:20:24.0	Ventana	34.49	01:04:28:25	4.316	V2674-02
 	transect	Ophiuroidea	997.55	2669	 	36.73059	-122.227005	1649089	0.45	2005-05-25 17:54:19.0	Ventana	34.521	00:16:48:07	3.909	V2669-01
 	transect	Mesomyaria	1000.23	2669	 	36.73163	-122.24326	1733799	0.41	2005-05-25 19:46:08.0	Ventana	34.51	02:07:39:27	4.065	V2669-03
 	transect	Phyllospadix	799.98	2674	 	36.75266	-122.200424	1774115	0.29	2005-06-08 17:30:26.0	Ventana	34.462	00:15:00:02	4.653	V2674-01
 	transect	Phyllospadix	799.31	2674	 	36.75175	-122.21233	1801197	0.35	2005-06-08 18:29:17.0	Ventana	34.488	01:13:21:07	4.335	V2674-02
 	transect	Psolus squamatus	 	2687	http://search.mbari.org/ARCHIVE/frameGrabs/Ventana/images/2687/03_40_03_15.jpg	 	 	1811515	 	2005-07-13 20:15:04.0	Ventana	 	03:40:03:15	 	V2687-04
 	transect	Gastropoda sp.2	997.56	2669	 	36.730618	-122.22808	1694933	0.45	2005-05-25 18:01:08.0	Ventana	34.521	00:23:35:20	3.907	V2669-01
 	descend	Copepoda	699.84	2682	 	36.69861	-122.059975	1721442	0.29	2005-07-08 18:15:36.0	Ventana	34.424	02:08:40:05	5.047	V2682-03
 	descend	Calycophorae	148.34	2683	 	36.70071	-122.051636	1756262	1.71	2005-07-11 16:24:09.0	Ventana	34.167	00:11:49:24	8.871	V2683-01
 	transect	Phyllospadix	199.63	2696	 	36.803967	-122.12551	1813342	1.52	2005-08-01 17:37:42.0	Ventana	34.208	01:05:36:05	8.645	V2696-02
 	descend	Appendicularia	304.95	2682	 	36.699184	-122.060555	1720141	1.17	2005-07-08 16:56:00.0	Ventana	34.236	00:50:03:00	7.317	V2682-01
 	transect	Salpida	300.41	2681	 	36.69614	-122.05178	2492563	1.24	2005-07-07 17:27:53.0	Ventana	34.233	00:58:59:12	7.427	V2681-01HD
 	ascend	Appendicularia	730.07	2681	 	36.6987	-122.05537	1717561	0.26	2005-07-07 20:17:32.427	Ventana	34.444	03:46:33:12	4.88	V2681-04
 	transect	Gastropoda sp.2	1000.7	2669	 	36.732067	-122.247894	1736167	0.4	2005-05-25 20:17:49.0	Ventana	34.505	02:39:19:09	4.083	V2669-03
 	ascend	Chaetognatha	270.72	2683	 	36.703167	-122.05065	1758089	1.39	2005-07-11 21:25:55.0	Ventana	34.231	04:58:45:27	7.983	V2683-05
 	transect	Mediaster	 	2687	 	 	 	1810582	 	2005-07-13 19:22:55.0	Ventana	 	02:48:38:16	 	V2687-03
 	transect	Ophiuroidea	998.03	2669	 	36.731136	-122.231	1683494	0.45	2005-05-25 18:22:33.0	Ventana	34.523	00:44:59:29	3.912	V2669-01
 	descend	Appendicularia	352.42	2682	 	36.698624	-122.060394	1720321	1.02	2005-07-08 17:21:40.0	Ventana	34.254	01:15:11:04	7.097	V2682-02
 	transect	Caridea sp.1	600.92	2680	 	36.785534	-122.23064	1805807	0.36	2005-06-27 19:28:52.0	Ventana	34.378	02:07:54:14	5.602	V2680-02
 	transect	Nanomia bijuga	200.42	2681	 	36.69828	-122.0533	2490901	1.7	2005-07-07 17:09:33.0	Ventana	34.197	00:40:42:03	8.33	V2681-01HD
 	descend	Appendicularia	560.83	2683	 	36.701797	-122.04914	1756968	0.44	2005-07-11 17:45:25.0	Ventana	34.341	01:29:31:11	6.053	V2683-02
 	transect	Psolus squamatus	 	2687	http://search.mbari.org/ARCHIVE/frameGrabs/Ventana/images/2687/00_55_30_08.jpg	 	 	1808755	 	2005-07-13 17:28:38.0	Ventana	 	00:55:30:08	 	V2687-01
 	descend	Phialidium	1169.1	2683	 	36.706745	-122.04801	1757503	0.68	2005-07-11 19:35:10.0	Ventana	34.566	03:15:30:06	3.45	V2683-03
 	transect	Ophiuroidea	998.97	2669	 	36.731377	-122.23608	1684555	0.44	2005-05-25 18:58:08.0	Ventana	34.522	01:20:07:20	3.94	V2669-02
 	descend	Haliscera	284.23	2682	 	36.699665	-122.060814	1720058	1.31	2005-07-08 16:36:31.0	Ventana	34.225	00:30:35:16	7.604	V2682-01
 	transect	Solmissus	400.8	2681	 	36.69576	-122.05115	2492886	0.79	2005-07-07 17:40:40.0	Ventana	34.277	01:11:03:25	6.67	V2681-02HD
 	transect	Neptunea amianta	800.28	2674	 	36.752087	-122.20861	1800782	0.36	2005-06-08 18:12:31.0	Ventana	34.49	00:57:02:13	4.319	V2674-01
 	transect	Mediaster	 	2687	 	 	 	1811575	 	2005-07-13 20:16:19.0	Ventana	 	03:41:17:29	 	V2687-04
 	ascend	Euphausiacea	280.63	2681	 	36.69975	-122.055145	1718254	1.36	2005-07-07 21:01:14.92	Ventana	34.232	04:29:35:08	7.737	V2681-05
 	transect	Mesomyaria	1000.29	2669	 	36.731953	-122.24637	1735664	0.41	2005-05-25 20:07:03.0	Ventana	34.509	02:28:31:14	4.065	V2669-03
 	transect	Dosidicus gigas	400.79	2681	 	36.69606	-122.051506	2492955	0.79	2005-07-07 17:42:15.0	Ventana	34.278	01:12:39:14	6.661	V2681-02HD
 	transect	Psolus squamatus	 	2687	 	 	 	1807514	 	2005-07-13 17:13:58.0	Ventana	 	00:40:51:26	 	V2687-01
 	transect	Mediaster	 	2687	 	 	 	1812281	 	2005-07-13 20:30:44.0	Ventana	 	03:55:42:26	 	V2687-04
 	transect	Euphausia	200.45	2681	 	36.69828	-122.05329	2490721	1.71	2005-07-07 17:08:29.0	Ventana	34.193	00:39:37:28	8.323	V2681-01HD
 	transect	Ophiuroidea	998.43	2669	 	36.731113	-122.23072	1683411	0.45	2005-05-25 18:20:13.0	Ventana	34.522	00:42:39:17	3.913	V2669-01
 	descend	Prayidae	217.45	2683	 	36.700996	-122.050766	1756405	1.7	2005-07-11 16:48:28.0	Ventana	34.194	00:36:09:13	8.261	V2683-01
 	transect	Phyllospadix	999.62	2669	 	36.731396	-122.237495	1687503	0.44	2005-05-25 19:10:53.0	Ventana	34.519	01:32:52:05	3.946	V2669-02
 	transect	Neptunea amianta	599.3	2680	 	36.779697	-122.224846	1804551	0.36	2005-06-27 18:14:20.0	Ventana	34.376	00:54:26:02	5.617	V2680-01
 	transect	Psolus squamatus	399.87	2687	 	36.788128	-122.12177	1809318	1.13	2005-07-13 17:39:23.0	Ventana	34.241	01:05:45:16	7.267	V2687-02
 	transect	Phyllospadix	801.39	2674	 	36.752216	-122.207565	1800076	0.38	2005-06-08 18:07:25.0	Ventana	34.495	00:51:56:27	4.339	V2674-01
 	transect	Henricia sanguinolenta	399.49	2687	http://search.mbari.org/ARCHIVE/frameGrabs/Ventana/images/2687/01_57_43_07.jpg	36.78941	-122.12518	1809664	1.15	2005-07-13 18:31:24.0	Ventana	34.242	01:57:43:07	7.305	V2687-02
 	transect	Mesomyaria	1000.53	2669	 	36.73239	-122.249695	1736693	0.41	2005-05-25 20:31:14.0	Ventana	34.51	02:52:42:28	4.066	V2669-03
 	ascend	Cydippida	339.75	2693	 	36.693	-122.06144	1758962	1.26	2005-07-25 21:11:50.0	Ventana	34.239	03:36:23:19	7.434	V2693-04
 	transect	molt	100.57	2681	 	36.69983	-122.05429	2489577	2.13	2005-07-07 16:45:18.0	Ventana	34.068	00:16:27:21	9.15	V2681-01HD
 	transect	Mesomyaria	1000.39	2669	 	36.731556	-122.24275	1694527	0.4	2005-05-25 19:43:13.0	Ventana	34.506	02:05:10:15	4.087	V2669-02
 	transect	Parmaturus xaniurus	 	2687	http://search.mbari.org/ARCHIVE/frameGrabs/Ventana/images/2687/02_23_58_27.jpg	 	 	1810116	 	2005-07-13 18:58:13.0	Ventana	 	02:23:58:27	 	V2687-03
 	transect	Phyllospadix	800.54	2674	 	36.75122	-122.216225	1803407	0.35	2005-06-08 18:50:20.0	Ventana	34.491	01:34:23:24	4.335	V2674-02
 	descend	Sergestes similis	332.19	2693	 	36.697124	-122.060104	1758555	1.29	2005-07-25 19:56:43.0	Ventana	34.236	02:36:17:26	7.582	V2693-03
 	transect	Psolus squamatus	 	2687	 	 	 	1812627	 	2005-07-13 20:48:44.0	Ventana	 	04:13:14:28	 	V2687-05
 	descend	Appendicularia	602.25	2681	 	36.69565	-122.051125	1715651	0.3	2005-07-07 18:09:11.833	Ventana	34.39	01:39:33:21	5.471	V2681-02
 	transect	Phyllospadix	204.14	2696	 	36.80595	-122.12945	1813725	1.49	2005-08-01 18:20:40.0	Ventana	34.211	01:48:31:06	8.635	V2696-02
 	transect	Mediaster	 	2687	 	 	 	1808958	 	2005-07-13 17:32:37.0	Ventana	 	00:59:29:14	 	V2687-01
 	transect	Mediaster	 	2687	 	 	 	1807039	 	2005-07-13 16:55:42.0	Ventana	 	00:22:36:06	 	V2687-01
 	transect	Phyllospadix	800.6	2674	 	36.752514	-122.20294	1799263	0.35	2005-06-08 17:43:14.0	Ventana	34.486	00:27:47:12	4.377	V2674-01
 	transect	Calycophorae	300.42	2681	 	36.69677	-122.05233	2492480	1.23	2005-07-07 17:25:42.0	Ventana	34.234	00:56:48:15	7.397	V2681-01HD
 	transect	Calycophorae	900.99	2681	 	36.69512	-122.05079	2498474	0.39	2005-07-07 19:15:39.0	Ventana	34.506	02:45:20:18	4.162	V2681-03HD
 	ascend	Crustacea	736.07	2683	 	36.706146	-122.048584	1757849	0.31	2005-07-11 21:04:07.0	Ventana	34.455	04:36:59:12	4.717	V2683-05
 	transect	Mesomyaria	799.39	2674	 	36.752457	-122.2052	1799753	0.35	2005-06-08 17:56:01.0	Ventana	34.49	00:40:33:11	4.357	V2674-01
 	cruise	Sebastolobus	539.81	2688	 	36.798264	-122.01963	1677440	0.62	2005-07-14 17:01:17.0	Ventana	34.323	00:47:35:28	6.257	V2688-01
 	transect	Chionoecetes tanneri	1000.0	2669	 	36.73169	-122.24362	1733859	0.41	2005-05-25 19:47:58.0	Ventana	34.508	02:09:30:29	4.069	V2669-03
 	transect	Mesomyaria	799.23	2674	 	36.75165	-122.213135	1801257	0.35	2005-06-08 18:32:20.0	Ventana	34.489	01:16:24:01	4.344	V2674-02
 	stationary	sinker	501.65	2695	 	36.784584	-122.20045	1824449	0.86	2005-07-28 17:33:00.0	Ventana	34.268	00:39:20:28	6.648	V2695-01
 	transect	Phyllospadix	998.63	2669	 	36.730957	-122.23003	1651216	0.45	2005-05-25 18:14:19.0	Ventana	34.522	00:36:46:06	3.907	V2669-01
 	transect	Physonectae	500.62	2681	 	36.696106	-122.05163	2493624	0.43	2005-07-07 18:02:53.0	Ventana	34.347	01:33:15:19	6.006	V2681-02HD
 	transect	Rathbunaster californicus	196.5	2696	 	36.80265	-122.12169	1813019	1.52	2005-08-01 16:54:41.0	Ventana	34.206	00:23:00:23	8.572	V2696-01
 	transect	Chaetognatha	901.04	2681	 	36.69581	-122.05174	2498391	0.39	2005-07-07 19:12:00.0	Ventana	34.505	02:41:40:14	4.174	V2681-03HD
 	ascend	Chuniphyes	765.53	2681	 	36.69867	-122.05608	1717501	0.29	2005-07-07 20:10:30.54	Ventana	34.451	03:39:32:29	4.787	V2681-04
 	cruise	mud	255.16	2676	 	36.805595	-122.02948	1676734	1.54	2005-06-14 17:36:46.0	Ventana	34.207	01:16:30:06	8.002	V2676-02
 	ascend	Appendicularia	785.23	2681	 	36.6989	-122.056496	1717441	0.28	2005-07-07 20:03:47.2	Ventana	34.457	03:32:49:16	4.699	V2681-04
 	transect	Mesomyaria	1001.14	2669	 	36.7323	-122.24928	1736287	0.4	2005-05-25 20:27:48.0	Ventana	34.508	02:49:16:24	4.072	V2669-03
 	transect	Mesomyaria	999.42	2669	 	36.731335	-122.23594	1684495	0.44	2005-05-25 18:57:09.0	Ventana	34.521	01:19:08:20	3.934	V2669-02
 	endtransect	object	800.49	2674	 	36.7513	-122.215744	1803370	0.35	2005-06-08 18:47:44.0	Ventana	34.494	01:31:47:22	4.343	V2674-02
 	cruise	Sebastes	245.08	2688	http://search.mbari.org/ARCHIVE/frameGrabs/Ventana/images/2688/02_16_27_17.jpg	36.80965	-122.02048	20005201	1.56	2005-07-14 18:31:12.0	Ventana	34.187	02:16:27:17	8.275	V2688-03
 	descend	Chaetognatha	400.25	2681	 	36.695625	-122.051056	1715231	0.79	2005-07-07 17:37:25.367	Ventana	34.278	01:07:48:06	6.674	V2681-02
 	descend	Solmissus	254.95	2682	 	36.699795	-122.06083	1719998	1.38	2005-07-08 16:25:41.0	Ventana	34.231	00:19:46:08	7.883	V2682-01
 	descend	Aegina	732.35	2683	 	36.702282	-122.048935	1757111	0.32	2005-07-11 17:56:30.0	Ventana	34.445	01:40:36:24	4.838	V2683-02
 	transect	Mesomyaria	800.32	2674	 	36.75173	-122.211624	1801128	0.35	2005-06-08 18:26:28.0	Ventana	34.49	01:10:32:16	4.331	V2674-02
 	ascend	Calycophorae	295.9	2681	 	36.699726	-122.05524	1718194	1.33	2005-07-07 20:59:43.733	Ventana	34.226	04:28:04:21	7.66	V2681-05
 	transect	Mesomyaria	800.61	2674	 	36.752018	-122.20909	1800865	0.35	2005-06-08 18:15:01.0	Ventana	34.487	00:59:32:25	4.328	V2674-01
 	transect	Euphausia	200.4	2681	 	36.698288	-122.05332	2491021	1.71	2005-07-07 17:10:52.0	Ventana	34.192	00:42:00:07	8.325	V2681-01HD
 	transect	Neptunea amianta	599.25	2680	 	36.779026	-122.22417	1804468	0.36	2005-06-27 18:05:47.0	Ventana	34.377	00:45:53:05	5.602	V2680-01
 	transect	Mesomyaria	998.25	2669	 	36.73298	-122.252335	1737431	0.4	2005-05-25 20:47:22.0	Ventana	34.508	03:08:11:16	4.076	V2669-04
 	transect	Lumpenus sagitta	200.03	2696	http://search.mbari.org/ARCHIVE/frameGrabs/Ventana/images/2696/01_20_02_12.jpg	36.804623	-122.12692	1813485	1.51	2005-08-01 17:52:09.0	Ventana	34.205	01:20:02:12	8.669	V2696-02
 	descend	Chaetognatha	519.4	2682	 	36.698593	-122.059784	1720856	0.4	2005-07-08 18:01:32.0	Ventana	34.363	01:55:01:04	5.899	V2682-02
 	ascend	Appendicularia	614.47	2682	 	36.698868	-122.05988	1723412	0.38	2005-07-08 20:38:09.0	Ventana	34.38	04:30:18:08	5.511	V2682-05
 	ascend	Hastigerinella digitata	258.17	2681	 	36.697838	-122.05522	1719292	 	2005-07-07 21:29:59.0	Ventana	 	04:59:36:24	 	V2681-05
 	transect	Ceriantharia sp. 2	998.34	2669	 	36.730515	-122.22838	1683351	0.45	2005-05-25 18:03:06.0	Ventana	34.523	00:25:34:18	3.908	V2669-01
 	cruise	Gorgonocephalus	110.02	2676	 	36.804775	-122.0432	1677200	1.95	2005-06-14 19:27:58.0	Ventana	34.165	03:06:42:24	8.403	V2676-03
 	cruise	Eptatretus stoutii	 	2680	 	 	 	1804076	 	2005-06-27 16:58:05.0	Ventana	 	00:14:22:17	 	V2680-01
 	transect	Psolus squamatus	 	2687	 	 	 	1808612	 	2005-07-13 17:25:24.0	Ventana	 	00:52:17:05	 	V2687-01
 	transect	Psolus squamatus	 	2687	 	 	 	1811168	 	2005-07-13 19:59:04.0	Ventana	 	03:24:04:16	 	V2687-04
 	transect	Nanomia bijuga	200.43	2681	 	36.69828	-122.05329	2490315	1.69	2005-07-07 17:06:50.0	Ventana	34.199	00:37:57:24	8.355	V2681-01HD
 	transect	Bothrocara brunneum	800.91	2674	 	36.75257	-122.20028	1774078	0.32	2005-06-08 17:28:57.0	Ventana	34.479	00:13:31:01	4.536	V2674-01
 	transect	Mediaster	 	2687	 	 	 	1812544	 	2005-07-13 20:44:57.0	Ventana	 	04:09:28:09	 	V2687-05
 	transect	doliolidae	200.45	2681	 	36.69828	-122.0533	2490758	1.73	2005-07-07 17:08:39.0	Ventana	34.193	00:39:47:16	8.321	V2681-01HD
 	transect	Phyllospadix	801.45	2674	 	36.75175	-122.210945	1801068	0.35	2005-06-08 18:23:58.0	Ventana	34.491	01:08:02:25	4.329	V2674-02
 	transect	molt	100.54	2681	 	36.69983	-122.05429	2489660	2.13	2005-07-07 16:47:18.0	Ventana	34.069	00:18:28:09	9.147	V2681-01HD
 	transect	cyclothone	800.98	2681	 	36.695	-122.05072	2498031	0.32	2005-07-07 18:53:12.0	Ventana	34.477	02:22:55:04	4.479	V2681-03HD
 	transect	Mediaster	399.7	2687	 	36.789257	-122.12458	1809581	1.16	2005-07-13 18:21:09.0	Ventana	34.241	01:47:28:17	7.332	V2687-02
 	transect	Physonectae	400.73	2681	 	36.69784	-122.05354	2493218	0.79	2005-07-07 17:49:45.0	Ventana	34.278	01:20:08:06	6.66	V2681-02HD
 	descend	Chaetognatha	1186.0	2682	 	36.69849	-122.05832	1722240	0.67	2005-07-08 19:33:32.0	Ventana	34.571	03:26:08:09	3.398	V2682-04
 	transect	Neptunea amianta	1000.14	2669	 	36.73186	-122.24534	1735378	0.4	2005-05-25 19:59:26.0	Ventana	34.508	02:20:56:14	4.07	V2669-03
 	transect	Mesomyaria	998.94	2669	 	36.732838	-122.25149	1737228	0.4	2005-05-25 20:42:23.0	Ventana	34.509	03:03:12:27	4.073	V2669-04
 	ascend	Salpida	348.28	2693	 	36.69384	-122.0611	1758902	1.25	2005-07-25 21:04:38.0	Ventana	34.234	03:29:11:19	7.382	V2693-04
 	transect	Sebastolobus altivelis	598.53	2680	 	36.78078	-122.22578	1804814	0.35	2005-06-27 18:27:25.0	Ventana	34.38	01:06:31:12	5.57	V2680-02
 	transect	Euphausia	200.41	2681	 	36.698284	-122.05331	2490961	1.7	2005-07-07 17:10:13.0	Ventana	34.194	00:41:21:01	8.329	V2681-01HD
 	transect	Mesomyaria	802.3	2674	 	36.75234	-122.205666	1799813	0.36	2005-06-08 17:58:04.0	Ventana	34.487	00:42:36:25	4.341	V2674-01
 	ascend	water	81.76	2685	 	36.79377	-121.881386	1669830	2.2	2005-07-12 21:07:43.567	Ventana	34.066	01:05:15:12	9.019	V2685-01
 	transect	Microstomus pacificus	1000.39	2669	 	36.731472	-122.24213	1694467	0.4	2005-05-25 19:40:19.0	Ventana	34.508	02:02:16:01	4.074	V2669-02
 	transect	Pennatulacea sp.1	600.11	2680	 	36.77728	-122.22246	1804265	0.36	2005-06-27 17:44:29.0	Ventana	34.38	00:24:36:13	5.578	V2680-01
 	ascend	Poeobius meseres	1105.97	2683	 	36.707882	-122.04905	1757789	0.58	2005-07-11 20:43:00.0	Ventana	34.549	04:17:20:27	3.66	V2683-04
 	transect	Porifera	 	2687	 	 	 	1810882	 	2005-07-13 19:39:31.0	Ventana	 	03:05:13:19	 	V2687-03
 	transect	Chionoecetes tanneri	999.68	2669	 	36.731426	-122.237015	1687443	0.44	2005-05-25 19:06:48.0	Ventana	34.52	01:28:47:02	3.942	V2669-02
 	transect	Appendicularia	600.58	2681	 	36.696297	-122.0519	2493721	0.3	2005-07-07 18:21:23.0	Ventana	34.386	01:51:45:13	5.487	V2681-02HD
 	transect	chuniphyes	300.4	2681	 	36.69845	-122.05359	2491917	1.25	2005-07-07 17:19:44.0	Ventana	34.232	00:50:52:11	7.431	V2681-01HD
 	transect	Phyllospadix	802.95	2674	 	36.75084	-122.22006	1803670	0.34	2005-06-08 19:07:01.0	Ventana	34.482	01:51:02:28	4.385	V2674-02
 	transect	Gastropoda sp.2	999.98	2669	 	36.731754	-122.24429	1734265	0.4	2005-05-25 19:51:46.0	Ventana	34.51	02:13:17:17	4.076	V2669-03
 	transect	Ophiuroidea	1000.58	2669	 	36.73232	-122.24944	1736430	0.41	2005-05-25 20:29:07.0	Ventana	34.51	02:50:36:16	4.07	V2669-03
 	descend	Mysidae	859.61	2683	 	36.702995	-122.04838	1757240	0.35	2005-07-11 18:27:03.0	Ventana	34.488	02:11:08:04	4.351	V2683-02
 	transect	Sebastolobus	 	2687	 	 	 	1808875	 	2005-07-13 17:30:57.0	Ventana	 	00:57:49:05	 	V2687-01
 	ascend	Euphausiacea	248.61	2693	 	36.69135	-122.06238	1759105	1.44	2005-07-25 21:22:11.0	Ventana	34.244	03:46:42:22	8.487	V2693-04
 	transect	Sebastolobus altivelis	800.77	2674	 	36.751114	-122.216965	1803467	0.35	2005-06-08 18:53:19.0	Ventana	34.495	01:37:22:12	4.351	V2674-02
 	transect	Chionoecetes tanneri	602.24	2680	 	36.787655	-122.23189	1805927	0.36	2005-06-27 19:51:44.0	Ventana	34.379	02:30:22:05	5.595	V2680-03
 	cruise	rock outcrop	1008.96	2689	 	36.77158	-122.082855	1669627	0.48	2005-07-18 16:45:10.0	Ventana	34.527	00:08:14:27	3.894	V2689-01
 	transect	Gastropoda sp.2	998.77	2669	 	36.73107	-122.23494	1694670	0.45	2005-05-25 18:49:25.0	Ventana	34.522	01:11:25:06	3.919	V2669-02
 	transect	Phyllospadix	798.23	2674	 	36.751614	-122.213875	1801317	0.35	2005-06-08 18:37:27.0	Ventana	34.488	01:21:31:13	4.338	V2674-02
 	cruise	Nanomia	400.26	2676	 	36.803623	-122.03031	1676244	0.83	2005-06-14 16:25:26.0	Ventana	34.286	00:09:35:25	6.812	V2676-01
 	ascend	Appendicularia	600.79	2682	 	36.69856	-122.06207	1723556	0.35	2005-07-08 21:03:03.0	Ventana	34.376	04:55:10:23	5.643	V2682-05
 	descend	Calycophorae	1081.03	2683	 	36.70511	-122.04892	1757443	0.52	2005-07-11 19:27:42.0	Ventana	34.534	03:08:02:12	3.797	V2683-03
 	transect	molt	100.49	2681	 	36.69897	-122.05374	2489863	2.12	2005-07-07 16:52:00.0	Ventana	34.07	00:23:09:08	9.148	V2681-01HD
 	transect	Psolus squamatus	 	2687	 	 	 	1808672	 	2005-07-13 17:26:46.0	Ventana	 	00:53:38:15	 	V2687-01
 	transect	Glyptocephalus zachirus	 	2687	 	 	 	1811228	 	2005-07-13 20:05:05.0	Ventana	 	03:30:05:04	 	V2687-04
 	transect	Ceriantharia sp. 1	602.44	2680	 	36.790462	-122.232735	1806776	0.36	2005-06-27 20:19:47.0	Ventana	34.377	02:58:23:22	5.589	V2680-03
 	ascend	Praya	 	2683	 	 	 	1758149	 	2005-07-11 14:32:05.0	Ventana	 	05:04:56:02	 	V2683-05
 	ascend	Cydippida	258.17	2681	 	36.697838	-122.05522	1719495	 	2005-07-07 21:29:59.0	Ventana	 	05:08:17:00	 	V2681-05
 	transect	Lycodapus	598.72	2680	 	36.78218	-122.22729	1805114	0.35	2005-06-27 18:46:07.0	Ventana	34.38	01:25:11:16	5.58	V2680-02
 	transect	Nanomia bijuga	500.57	2681	 	36.696907	-122.052505	2493564	0.44	2005-07-07 17:59:32.0	Ventana	34.346	01:29:56:03	6.023	V2681-02HD
 	transect	Sebastes crameri	 	2687	 	 	 	1812341	 	2005-07-13 20:32:48.0	Ventana	 	03:57:45:29	 	V2687-04
 	transect	Phyllospadix	799.86	2674	 	36.752533	-122.203896	1799406	0.35	2005-06-08 17:48:18.0	Ventana	34.488	00:32:51:05	4.37	V2674-01
 	transect	Stomphia	598.47	2680	 	36.78135	-122.22634	1804971	0.36	2005-06-27 18:34:58.0	Ventana	34.375	01:14:03:21	5.603	V2680-02
 	transect	Sebastes diploproa	 	2687	 	 	 	1810522	 	2005-07-13 19:21:41.0	Ventana	 	02:47:24:25	 	V2687-03
 	transect	Anthomastus ritteri	 	2687	 	 	 	1807574	 	2005-07-13 17:15:57.0	Ventana	 	00:42:50:11	 	V2687-01
 	transect	Mesomyaria	997.34	2669	 	36.730637	-122.227455	1649149	0.45	2005-05-25 17:56:51.0	Ventana	34.521	00:19:19:29	3.908	V2669-01
 	transect	Phyllospadix	800.48	2674	 	36.752617	-122.20108	1774175	0.34	2005-06-08 17:34:08.0	Ventana	34.482	00:18:42:10	4.417	V2674-01
 	transect	Phyllospadix	198.68	2696	 	36.803715	-122.12473	1813282	1.52	2005-08-01 17:30:35.0	Ventana	34.203	00:58:52:16	8.643	V2696-01
 	transect	molt	100.57	2681	 	36.69983	-122.05429	2489517	2.12	2005-07-07 16:43:29.0	Ventana	34.068	00:14:38:11	9.147	V2681-01HD
 	cruise	Pleuronectiformes	431.01	2688	 	36.805378	-122.019035	1677703	0.92	2005-07-14 17:46:14.0	Ventana	34.267	01:31:57:20	6.931	V2688-02
 	stationary	Merluccius productus	502.04	2694	 	36.784615	-122.20048	1676590	0.79	2005-07-27 19:04:41.0	Ventana	34.275	01:47:21:08	6.573	V2694-02
 	transect	Psolus squamatus	 	2687	 	 	 	1811025	 	2005-07-13 19:48:45.0	Ventana	 	03:13:46:13	 	V2687-04
 	transect	Aegina	700.67	2681	 	36.69774	-122.05359	2497625	0.29	2005-07-07 18:36:37.0	Ventana	34.437	02:06:21:15	4.958	V2681-03HD
 	ascend	Cydippida	222.19	2682	 	36.696632	-122.06088	1723759	1.93	2005-07-08 21:30:19.0	Ventana	34.161	05:21:58:19	7.91	V2682-06
 	transect	Mediaster	 	2687	 	 	 	1810319	 	2005-07-13 19:15:30.0	Ventana	 	02:41:14:23	 	V2687-03
 	descend	Copepoda	641.81	2683	 	36.70203	-122.04895	1757051	0.38	2005-07-11 17:51:37.0	Ventana	34.381	01:35:43:24	5.553	V2683-02
 	cruise	boulder	96.86	2688	http://search.mbari.org/ARCHIVE/frameGrabs/Ventana/images/2688/03_44_08_06.jpg	36.81705	-122.01451	20005261	1.99	2005-07-14 19:59:22.0	Ventana	34.087	03:44:08:06	8.915	V2688-04
 	transect	Psolus squamatus	 	2687	 	 	 	1807168	 	2005-07-13 17:02:23.0	Ventana	 	00:29:17:18	 	V2687-01
 	transect	Nanomia bijuga	200.42	2681	 	36.69828	-122.0533	2490818	1.72	2005-07-07 17:09:03.0	Ventana	34.193	00:40:11:19	8.323	V2681-01HD
 	cruise	Mediaster	325.8	2676	http://search.mbari.org/ARCHIVE/frameGrabs/Ventana/images/2676/01_03_48_09.jpg	36.804867	-122.029015	20003960	1.32	2005-06-14 17:19:42.0	Ventana	34.228	01:03:48:09	7.688	V2676-01
 	transect	Rathbunaster californicus	203.46	2696	 	36.806602	-122.13018	1813785	1.48	2005-08-01 18:30:02.0	Ventana	34.219	01:57:52:17	8.65	V2696-02
 	descend	Appendicularia	305.29	2683	 	36.701096	-122.05015	1756502	1.26	2005-07-11 16:54:00.0	Ventana	34.243	00:41:40:18	7.663	V2683-01
 	descend	Euphausiacea	185.63	2683	 	36.70104	-122.05111	1756345	1.62	2005-07-11 16:42:22.0	Ventana	34.186	00:30:02:03	8.649	V2683-01
 	transect	Ceriantharia sp. 1	599.84	2680	 	36.778587	-122.22378	1804408	0.36	2005-06-27 18:01:02.0	Ventana	34.378	00:41:08:22	5.583	V2680-01
 	transect	Psolus squamatus	 	2687	 	 	 	1809018	 	2005-07-13 17:33:39.0	Ventana	 	01:00:31:18	 	V2687-01
 	transect	Mesomyaria	998.75	2669	 	36.73089	-122.22969	1651156	0.45	2005-05-25 18:12:09.0	Ventana	34.522	00:34:36:21	3.908	V2669-01
 	transect	Mesomyaria	998.27	2669	 	36.73117	-122.23451	1684149	0.45	2005-05-25 18:45:59.0	Ventana	34.522	01:07:59:24	3.916	V2669-02
 	descend	Appendicularia	471.01	2682	 	36.698532	-122.05966	1720796	0.52	2005-07-08 17:56:29.0	Ventana	34.323	01:49:58:11	6.198	V2682-02
 	ascend	Calycophorae	677.31	2682	 	36.69889	-122.059525	1723352	0.28	2005-07-08 20:33:40.0	Ventana	34.411	04:25:47:28	5.175	V2682-05
 	ascend	Salpida	376.4	2693	 	36.696102	-122.06057	1758759	1.2	2005-07-25 20:49:27.0	Ventana	34.231	03:14:02:04	7.156	V2693-04
 	transect	Psolus squamatus	399.86	2687	 	36.788113	-122.12162	1809221	1.13	2005-07-13 17:37:21.0	Ventana	34.243	01:03:43:12	7.255	V2687-02
 	cruise	Pleuronectiformes	90.05	2688	 	36.816795	-122.01584	1679350	2.01	2005-07-14 20:11:04.0	Ventana	34.087	03:55:49:25	8.918	V2688-04
 	descend	Bathocyroe	811.9	2682	 	36.69835	-122.059555	1721705	0.31	2005-07-08 18:41:50.0	Ventana	34.473	02:34:52:15	4.513	V2682-03
 	transect	Mesomyaria	999.89	2669	 	36.73262	-122.25071	1737025	0.4	2005-05-25 20:37:41.0	Ventana	34.507	02:59:09:14	4.073	V2669-03
 	transect	Mesomyaria	800.81	2674	 	36.75247	-122.204544	1799609	0.35	2005-06-08 17:52:28.0	Ventana	34.481	00:37:01:07	4.367	V2674-01
 	transect	Mesomyaria	997.83	2669	 	36.730564	-122.22823	1649352	0.45	2005-05-25 18:02:04.0	Ventana	34.521	00:24:32:18	3.908	V2669-01
 	transect	Psolus squamatus	 	2687	 	 	 	1809927	 	2005-07-13 18:48:14.0	Ventana	 	02:14:00:09	 	V2687-03
 	descend	Calycophorae	448.74	2683	 	36.701576	-122.049385	1756705	0.8	2005-07-11 17:08:56.0	Ventana	34.28	00:56:34:24	6.7	V2683-01
 	transect	Antimora microlepis	801.04	2674	http://search.mbari.org/ARCHIVE/frameGrabs/Ventana/images/2674/00_55_11_13.jpg	36.75213	-122.20821	1800722	0.35	2005-06-08 18:10:40.0	Ventana	34.49	00:55:11:13	4.32	V2674-01
 	ascend	Appendicularia	360.47	2681	 	36.699368	-122.05498	1718051	1.02	2005-07-07 20:51:40.3	Ventana	34.259	04:20:01:08	7.126	V2681-05
 	transect	Ceriantharia sp. 1	598.94	2680	 	36.780174	-122.22522	1804611	0.35	2005-06-27 18:19:47.0	Ventana	34.382	00:59:52:29	5.552	V2680-01
 	transect	Mediaster	 	2687	 	 	 	1806979	 	2005-07-13 16:52:25.0	Ventana	 	00:19:20:01	 	V2687-01
 	ascend	Euphausiacea	265.22	2681	 	36.69893	-122.05649	1718757	1.41	2005-07-07 21:18:03.433	Ventana	34.227	04:46:22:23	7.926	V2681-05
 	transect	Chaetognatha	1001.07	2681	 	36.69471	-122.05049	2498534	0.47	2005-07-07 19:21:01.0	Ventana	34.532	02:50:40:27	3.867	V2681-03HD
 	ascend	back deck	 	2694	 	 	 	1676794	 	2005-07-27 21:28:18.0	Ventana	 	03:59:37:25	 	V2694-04
 	transect	Chionoecetes tanneri	800.87	2674	 	36.75252	-122.201546	1799060	0.34	2005-06-08 17:36:14.0	Ventana	34.485	00:20:47:14	4.422	V2674-01
 	transect	Halipteris californica	599.35	2680	 	36.783115	-122.228485	1805317	0.36	2005-06-27 19:03:57.0	Ventana	34.378	01:43:01:02	5.591	V2680-02
 	transect	Rathbunaster californicus	201.76	2696	 	36.805256	-122.12819	1813628	1.5	2005-08-01 18:07:17.0	Ventana	34.212	01:35:08:22	8.667	V2696-02
 	endtransect	color bars	800.86	2681	 	36.69695	-122.0531	1716389	0.31	2005-07-07 19:02:46.7	Ventana	34.473	02:32:29:18	4.51	V2681-03
 	transect	Mediaster	 	2687	 	 	 	1812687	 	2005-07-13 20:52:11.0	Ventana	 	04:16:42:03	 	V2687-05
 	transect	Brisaster	1000.08	2669	 	36.732555	-122.25024	1736942	0.41	2005-05-25 20:34:46.0	Ventana	34.51	02:56:15:14	4.067	V2669-03
 	cruise	rock outcrop	279.44	2676	 	36.805325	-122.03181	1676207	1.44	2005-06-14 16:18:27.0	Ventana	34.214	00:02:37:03	7.858	V2676-01
 	cruise	Halipteris	620.71	2688	 	36.794296	-122.01953	1677297	0.42	2005-07-14 16:29:19.0	Ventana	34.41	00:15:39:29	5.297	V2688-01
 	transect	Gastropoda sp.2	999.7	2669	 	36.731422	-122.237114	1694707	0.44	2005-05-25 19:07:39.0	Ventana	34.519	01:29:38:11	3.946	V2669-02
 	ascend	Calycophorae	550.74	2682	 	36.698303	-122.06273	1723616	0.39	2005-07-08 21:09:11.0	Ventana	34.354	05:00:52:07	5.897	V2682-06
 	ascend	sinker	989.65	2681	 	36.6968	-122.05317	1716569	0.45	2005-07-07 19:33:48.433	Ventana	34.524	03:03:29:12	3.946	V2681-03
 	transect	Solaster borealis	1000.1	2669	http://search.mbari.org/ARCHIVE/frameGrabs/Ventana/images/2669/02_10_55_14.jpg	36.731693	-122.24385	1733979	0.41	2005-05-25 19:49:24.0	Ventana	34.51	02:10:55:14	4.069	V2669-03
 	endtransect	physical object	 	2687	 	 	 	1812830	 	2005-07-13 21:00:05.0	Ventana	 	04:24:34:26	 	V2687-05
 	descend	Appendicularia	534.42	2683	 	36.70154	-122.04914	1756931	0.54	2005-07-11 17:43:04.0	Ventana	34.324	01:27:11:16	6.217	V2683-02
 	transect	Phyllospadix	1000.23	2669	 	36.73144	-122.24192	1689917	0.4	2005-05-25 19:39:01.0	Ventana	34.509	02:00:58:09	4.077	V2669-02
 	ascend	Crustacea	588.22	2681	 	36.698933	-122.05425	1717705	0.35	2005-07-07 20:30:29.233	Ventana	34.371	03:59:30:13	5.666	V2681-04
 	transect	Ceriantharia sp. 1	598.45	2680	 	36.781982	-122.226974	1805077	0.35	2005-06-27 18:42:58.0	Ventana	34.378	01:22:03:26	5.586	V2680-02
 	ascend	Nanomia	213.98	2693	 	36.69118	-122.062546	1759142	1.7	2005-07-25 21:24:14.0	Ventana	34.191	03:48:45:19	8.618	V2693-04
 	transect	Cunina	901.07	2681	 	36.696674	-122.05281	2498294	0.39	2005-07-07 19:07:57.0	Ventana	34.506	02:37:39:00	4.17	V2681-03HD
 	ascend	Copepoda	667.14	2681	 	36.69876	-122.05434	1717644	0.29	2005-07-07 20:23:53.4	Ventana	34.411	03:52:55:00	5.215	V2681-04
 	transect	Hormiphora	200.48	2681	 	36.69828	-122.05329	2490495	1.71	2005-07-07 17:07:10.0	Ventana	34.197	00:38:17:20	8.341	V2681-01HD
 	descend	Myctophidae	607.53	2681	 	36.69575	-122.05099	1715817	0.3	2005-07-07 18:15:07.733	Ventana	34.385	01:45:28:23	5.47	V2681-02
 	transect	Mesomyaria	1000.47	2669	 	36.732132	-122.24813	1736190	0.41	2005-05-25 20:19:57.0	Ventana	34.509	02:41:25:08	4.061	V2669-03
 	transect	Psolus squamatus	399.84	2687	http://search.mbari.org/ARCHIVE/frameGrabs/Ventana/images/2687/01_02_17_21.jpg	36.788036	-122.12153	1809115	1.13	2005-07-13 17:35:55.0	Ventana	34.244	01:02:17:21	7.27	V2687-02
 	transect	Mediaster	 	2687	 	 	 	1810988	 	2005-07-13 19:46:23.0	Ventana	 	03:11:24:23	 	V2687-04
 	cruise	Stylasterias	110.64	2688	 	36.813824	-122.02323	1678049	1.95	2005-07-14 18:58:36.0	Ventana	34.092	02:43:49:28	8.889	V2688-03
 	transect	Mesomyaria	1000.11	2669	 	36.731045	-122.23962	1689165	0.41	2005-05-25 19:25:03.0	Ventana	34.509	01:47:01:24	4.064	V2669-02
 	transect	molt	50.39	2681	 	36.69983	-122.05429	2485720	3.03	2005-07-07 16:38:52.0	Ventana	33.906	00:10:01:09	9.644	V2681-01HD
 	transect	Phyllospadix	997.27	2669	 	36.730663	-122.22761	1649186	0.45	2005-05-25 17:58:04.0	Ventana	34.52	00:20:32:10	3.909	V2669-01
 	transect	Mesomyaria	999.25	2669	 	36.73107	-122.233955	1684006	0.45	2005-05-25 18:41:31.0	Ventana	34.522	01:03:31:20	3.913	V2669-02
 	transect	Diogenidae	598.76	2680	 	36.780506	-122.22546	1804708	0.35	2005-06-27 18:23:53.0	Ventana	34.377	01:02:59:27	5.561	V2680-02
 	ascend	Nanomia	367.09	2693	 	36.695232	-122.06091	1758819	1.23	2005-07-25 20:57:40.0	Ventana	34.234	03:22:13:04	7.316	V2693-04
 	cruise	boulder	113.1	2688	 	36.813118	-122.019	1678095	1.97	2005-07-14 19:23:45.0	Ventana	34.096	03:08:57:29	8.931	V2688-03
 	descend	Calycophorae	146.83	2682	 	36.69985	-122.060715	1719901	2.12	2005-07-08 16:18:27.0	Ventana	34.105	00:12:32:00	8.62	V2682-01
 	transect	Psolus squamatus	 	2687	 	 	 	1810236	 	2005-07-13 19:11:19.0	Ventana	 	02:37:03:07	 	V2687-03
 	transect	Salpida	400.78	2681	 	36.69734	-122.05299	2493135	0.79	2005-07-07 17:47:41.0	Ventana	34.279	01:18:03:29	6.663	V2681-02HD
 	transect	Caridea sp.1	801.17	2674	 	36.75099	-122.21837	1803573	0.35	2005-06-08 18:59:45.0	Ventana	34.491	01:43:47:09	4.343	V2674-02
 	descend	Appendicularia	919.76	2683	 	36.703663	-122.048615	1757300	0.38	2005-07-11 19:06:19.0	Ventana	34.502	02:46:41:06	4.198	V2683-03
 	transect	Amphipoda	700.59	2681	 	36.69558	-122.051414	2497925	0.28	2005-07-07 18:46:02.0	Ventana	34.435	02:15:45:07	4.948	V2681-03HD
 	transect	Psolus squamatus	 	2687	 	 	 	1807288	 	2005-07-13 17:05:01.0	Ventana	 	00:31:55:03	 	V2687-01
 	transect	Mediaster	 	2687	 	 	 	1812447	 	2005-07-13 20:39:12.0	Ventana	 	04:04:10:07	 	V2687-04
 	transect	Phyllospadix	200.5	2696	 	36.805218	-122.12812	1813582	1.5	2005-08-01 18:01:41.0	Ventana	34.211	01:29:33:11	8.671	V2696-02
 	transect	Nemertea	1001.0	2681	 	36.695496	-122.05151	2498617	0.48	2005-07-07 19:25:06.0	Ventana	34.534	02:54:45:10	3.849	V2681-03HD
 	ascend	Nanomia	258.17	2681	 	36.697838	-122.05522	1719532	 	2005-07-07 21:29:59.0	Ventana	 	05:11:46:04	 	V2681-05
 	descend	Chaetognatha	285.54	2693	 	36.697895	-122.06134	1758435	1.4	2005-07-25 19:36:41.0	Ventana	34.236	02:16:18:00	7.967	V2693-03
 	ascend	Copepoda	887.9	2681	 	36.69815	-122.05509	1717321	0.36	2005-07-07 19:50:30.573	Ventana	34.503	03:19:33:22	4.226	V2681-04
 	transect	Mediaster	399.97	2687	 	36.789124	-122.12416	1809544	1.17	2005-07-13 18:14:38.0	Ventana	34.241	01:40:57:23	7.351	V2687-02
 	transect	Appendicularia	500.56	2681	 	36.697353	-122.05305	2493458	0.44	2005-07-07 17:57:36.0	Ventana	34.346	01:27:58:26	6.02	V2681-02HD
 	transect	Mediaster	 	2687	 	 	 	1811755	 	2005-07-13 20:24:35.0	Ventana	 	03:49:33:17	 	V2687-04
 	cruise	Sebastolobus	415.55	2688	 	36.80603	-122.01922	1677726	0.93	2005-07-14 17:48:57.0	Ventana	34.27	01:34:39:29	6.957	V2688-02
 	ascend	Appendicularia	924.3	2681	 	36.69771	-122.05428	1716998	0.4	2005-07-07 19:44:59.333	Ventana	34.507	03:14:02:10	4.154	V2681-04
 	transect	Appendicularia	400.74	2681	 	36.696953	-122.05257	2493075	0.79	2005-07-07 17:46:06.0	Ventana	34.277	01:16:29:25	6.659	V2681-02HD
 	descend	Chaetognatha	1066.02	2682	 	36.698334	-122.05914	1722051	0.5	2005-07-08 19:04:25.0	Ventana	34.537	02:57:27:01	3.789	V2682-03
 	transect	Nanomia bijuga	200.45	2681	 	36.69828	-122.05329	2490112	1.7	2005-07-07 17:04:50.0	Ventana	34.197	00:35:57:16	8.36	V2681-01HD
 	transect	Umbellula lindahli	599.9	2680	 	36.778336	-122.223495	1804385	0.36	2005-06-27 17:57:06.0	Ventana	34.38	00:37:13:09	5.593	V2680-01
 	transect	Phyllospadix	801.26	2674	 	36.751953	-122.20975	1800948	0.35	2005-06-08 18:18:48.0	Ventana	34.489	01:02:53:06	4.328	V2674-02
 	cruise	lasers	207.35	2686	 	36.79371	-121.88108	1669927	1.7	2005-07-12 22:04:41.0	Ventana	34.131	01:11:51:05	8.406	V2686-01
 	ascend	Euphausiacea	253.96	2681	 	36.69826	-122.05567	1719209	1.46	2005-07-07 21:25:03.433	Ventana	34.227	04:53:22:10	8.0	V2681-05
 	transect	Sergestes similis	300.45	2681	 	36.698387	-122.05356	2491954	1.25	2005-07-07 17:20:06.0	Ventana	34.234	00:51:13:00	7.43	V2681-01HD
 	transect	Sergestes similis	600.53	2681	 	36.697327	-122.05313	2493827	0.3	2005-07-07 18:26:08.0	Ventana	34.388	01:56:29:14	5.47	V2681-02HD
 	transect	Stomphia	999.66	2669	 	36.731808	-122.2445	1734362	0.4	2005-05-25 19:53:07.0	Ventana	34.508	02:14:36:25	4.076	V2669-03
 	transect	Mesomyaria	1000.3	2669	 	36.730946	-122.23339	1683900	0.45	2005-05-25 18:38:34.0	Ventana	34.522	01:00:59:27	3.912	V2669-01
 	transect	Gastropoda sp.2	999.39	2669	 	36.73102	-122.2312	1695076	0.45	2005-05-25 18:24:55.0	Ventana	34.522	00:47:21:17	3.913	V2669-01
 	descend	Appendicularia	902.82	2681	 	36.69482	-122.05049	1716509	0.39	2005-07-07 19:16:58.967	Ventana	34.505	02:46:40:29	4.169	V2681-03
 	descend	Appendicularia	206.14	2681	 	36.69846	-122.05351	1713561	1.66	2005-07-07 17:14:36.017	Ventana	34.203	00:45:43:25	8.344	V2681-01
 	transect	Stomphia	602.05	2680	 	36.791573	-122.232956	1806859	0.36	2005-06-27 20:29:01.0	Ventana	34.379	03:07:37:11	5.587	V2680-03
 	ascend	Appendicularia	343.43	2681	 	36.699337	-122.05519	1718088	1.11	2005-07-07 20:53:12.233	Ventana	34.247	04:21:33:18	7.256	V2681-05
 	transect	molt	100.49	2681	 	36.699806	-122.05428	2489743	2.12	2005-07-07 16:49:23.0	Ventana	34.067	00:20:33:06	9.156	V2681-01HD
 	transect	Hormiphora	200.39	2681	 	36.69832	-122.05343	2491307	1.66	2005-07-07 17:13:26.0	Ventana	34.2	00:44:34:12	8.34	V2681-01HD
 	cruise	Chionoecetes tanneri	1205.39	2683	 	36.70706	-122.04763	1757683	0.72	2005-07-11 20:19:11.0	Ventana	34.573	03:53:33:02	3.352	V2683-04
 	cruise	Pleuronectiformes	439.9	2688	 	36.80447	-122.018524	1677666	0.87	2005-07-14 17:41:31.0	Ventana	34.275	01:27:14:18	6.837	V2688-02
 	transect	Rathbunaster californicus	197.26	2696	 	36.80341	-122.12371	1813199	1.56	2005-08-01 17:19:09.0	Ventana	34.197	00:47:26:14	8.63	V2696-01
 	transect	Pennatulacea sp.1	601.03	2680	 	36.7858	-122.23078	1805844	0.36	2005-06-27 19:31:33.0	Ventana	34.378	02:10:12:13	5.602	V2680-03
 	transect	Psolus squamatus	 	2687	 	 	 	1808792	 	2005-07-13 17:29:35.0	Ventana	 	00:56:27:25	 	V2687-01
 	cruise	Pennatulacea	96.21	2688	 	36.81401	-122.01845	1679493	1.93	2005-07-14 21:16:43.0	Ventana	34.103	05:00:56:10	8.898	V2688-05
 	transect	Mediaster	 	2687	 	 	 	1810619	 	2005-07-13 19:25:17.0	Ventana	 	02:51:00:09	 	V2687-03
 	transect	Mesomyaria	999.85	2669	 	36.730927	-122.231445	1683637	0.45	2005-05-25 18:26:59.0	Ventana	34.521	00:49:25:12	3.919	V2669-01
 	ascend	water	89.17	2675	 	36.750988	-122.22278	1803896	1.81	2005-06-08 22:25:36.0	Ventana	34.1	02:15:53:08	8.462	V2675-01
 	transect	Mediaster	 	2687	 	 	 	1807228	 	2005-07-13 17:04:29.0	Ventana	 	00:31:22:22	 	V2687-01
 	transect	Atolla wyvillei	1000.98	2681	 	36.696236	-122.05247	2498677	0.47	2005-07-07 19:28:49.0	Ventana	34.532	02:58:29:00	3.872	V2681-03HD
 	descend	Bathocyroe	748.32	2681	 	36.6949	-122.05056	1716246	0.29	2005-07-07 18:50:20.9	Ventana	34.45	02:20:04:17	4.77	V2681-03
 	transect	Mediaster	 	2687	 	 	 	1810725	 	2005-07-13 19:29:53.0	Ventana	 	02:55:36:21	 	V2687-03
 	transect	Nanomia bijuga	200.43	2681	 	36.69828	-122.0533	2490864	1.71	2005-07-07 17:09:21.0	Ventana	34.195	00:40:28:07	8.326	V2681-01HD
 	descend	Solmissus	700.81	2681	 	36.697906	-122.05372	1716140	0.29	2005-07-07 18:35:47.133	Ventana	34.431	02:05:31:21	4.982	V2681-03
 	transect	Mesomyaria	1000.32	2669	 	36.731934	-122.24672	1735761	0.41	2005-05-25 20:10:15.0	Ventana	34.509	02:31:44:27	4.07	V2669-03
 	transect	Lycenchelys camchatica	801.67	2674	 	36.750916	-122.21964	1803633	0.34	2005-06-08 19:05:04.0	Ventana	34.479	01:49:05:28	4.367	V2674-02
 	transect	Psolus squamatus	399.88	2687	 	36.788036	-122.1215	1809055	1.14	2005-07-13 17:35:34.0	Ventana	34.24	01:01:56:02	7.282	V2687-02
 	ascend	Copepoda	864.33	2682	 	36.698524	-122.058464	1723232	0.33	2005-07-08 20:18:43.0	Ventana	34.484	04:10:53:26	4.368	V2682-05
 	ascend	Chaetognatha	412.77	2683	 	36.70411	-122.05059	1758052	0.94	2005-07-11 21:19:47.0	Ventana	34.259	04:52:38:08	6.874	V2683-05
 	descend	Poeobius meseres	671.95	2682	 	36.698658	-122.05995	1721405	0.28	2005-07-08 18:11:59.0	Ventana	34.413	02:05:04:11	5.189	V2682-03
 	ascend	Aegina	629.67	2683	 	36.70496	-122.050285	1757946	0.3	2005-07-11 21:10:31.0	Ventana	34.396	04:43:22:17	5.414	V2683-05
 	transect	Phyllospadix	801.46	2674	 	36.752174	-122.20793	1800685	0.35	2005-06-08 18:09:28.0	Ventana	34.49	00:54:00:02	4.329	V2674-01
 	stationary	Merluccius productus	502.35	2694	 	36.784603	-122.20044	1676651	0.85	2005-07-27 20:17:57.0	Ventana	34.272	02:50:05:06	6.692	V2694-03
 	transect	Psolus squamatus	 	2687	 	 	 	1807671	 	2005-07-13 17:22:04.0	Ventana	 	00:48:57:14	 	V2687-01
 	transect	Calycophorae	800.89	2681	 	36.696133	-122.05209	2498234	0.31	2005-07-07 18:59:02.0	Ventana	34.475	02:28:43:18	4.497	V2681-03HD
 	ascend	Prayidae	264.69	2681	 	36.699493	-122.05453	1718457	1.41	2005-07-07 21:09:28.8	Ventana	34.23	04:37:48:20	7.914	V2681-05
 	ascend	Appendicularia	963.17	2681	 	36.69724	-122.05366	1716832	0.43	2005-07-07 19:39:18.7	Ventana	34.519	03:08:22:16	4.022	V2681-04
 	ascend	Mysidae	598.65	2682	 	36.698757	-122.06106	1723495	0.34	2005-07-08 20:50:45.0	Ventana	34.374	04:42:51:28	5.632	V2682-05
 	transect	Calliostoma platinum	 	2687	 	 	 	1810176	 	2005-07-13 19:05:11.0	Ventana	 	02:30:55:21	 	V2687-03
 	descend	Chuniphyes	817.75	2683	 	36.70271	-122.04862	1757194	0.31	2005-07-11 18:15:56.0	Ventana	34.476	02:00:00:25	4.488	V2683-02
 	cruise	Anthomastus ritteri	460.68	2688	 	36.80286	-122.01819	1677606	0.86	2005-07-14 17:32:25.92	Ventana	34.281	01:18:10:07	6.811	V2688-02
 	transect	Mesomyaria	999.87	2669	 	36.731064	-122.2351	1684269	0.45	2005-05-25 18:51:05.0	Ventana	34.523	01:13:05:01	3.923	V2669-02
 	descend	Chaetognatha	365.84	2682	 	36.698536	-122.06037	1720344	1.0	2005-07-08 17:23:29.0	Ventana	34.256	01:17:00:14	7.075	V2682-02
 	descend	Dosidicus gigas	777.59	2682	 	36.698368	-122.05977	1721668	0.3	2005-07-08 18:33:54.0	Ventana	34.455	02:26:57:11	4.69	V2682-03
 	transect	Ophiuroidea	997.54	2669	 	36.73065	-122.22786	1649246	0.45	2005-05-25 17:59:47.0	Ventana	34.522	00:22:15:25	3.907	V2669-01
 	transect	Lycenchelys camchatica	999.0	2669	 	36.73104	-122.231895	1683697	0.45	2005-05-25 18:29:32.95	Ventana	34.522	00:51:59:01	3.915	V2669-01
 	transect	Mesomyaria	1000.15	2669	 	36.731075	-122.23872	1689059	0.43	2005-05-25 19:19:30.0	Ventana	34.514	01:41:28:21	3.969	V2669-02
 	transect	Mediaster	 	2687	 	 	 	1812567	 	2005-07-13 20:45:42.0	Ventana	 	04:10:13:06	 	V2687-05
 	descend	Leuroglossus stilbius	400.22	2681	 	36.695564	-122.05113	1715185	0.79	2005-07-07 17:34:56.767	Ventana	34.278	01:05:20:08	6.678	V2681-02
 	descend	Melanostigma pammelas	580.15	2683	 	36.70189	-122.049095	1756991	0.37	2005-07-11 17:47:36.0	Ventana	34.364	01:31:41:28	5.868	V2683-02
 	transect	Stomphia	999.44	2669	 	36.73133	-122.23592	1684449	0.44	2005-05-25 18:57:06.0	Ventana	34.52	01:19:05:22	3.936	V2669-02
 	ascend	Hastigerinella digitata	323.78	2681	 	36.6997	-122.05525	1718148	1.21	2005-07-07 20:56:50.327	Ventana	34.237	04:25:10:14	7.367	V2681-05
 	transect	Mediaster	 	2687	 	 	 	1811492	 	2005-07-13 20:14:36.0	Ventana	 	03:39:35:06	 	V2687-04
 	transect	Mediaster	 	2687	 	 	 	1812770	 	2005-07-13 20:56:50.0	Ventana	 	04:21:20:06	 	V2687-05
 	descend	Dosidicus gigas	447.08	2681	 	36.698086	-122.05386	1715328	0.58	2005-07-07 17:52:05.6	Ventana	34.31	01:22:28:01	6.259	V2681-02
 	ascend	Appendicularia	505.56	2682	 	36.698353	-122.06321	1723676	0.48	2005-07-08 21:13:32.0	Ventana	34.335	05:05:13:06	6.137	V2682-06
 	cruise	Lycodapus	1228.87	2683	 	36.70584	-122.04785	1757563	0.74	2005-07-11 19:53:42.0	Ventana	34.576	03:28:05:06	3.319	V2683-04
 	transect	Mediaster	 	2687	 	 	 	1811108	 	2005-07-13 19:53:39.0	Ventana	 	03:18:40:04	 	V2687-04
 	ascend	Mysidae	761.54	2682	 	36.698753	-122.05905	1723292	0.29	2005-07-08 20:27:26.0	Ventana	34.446	04:19:34:18	4.826	V2682-05
 	ascend	Lobata	216.86	2683	 	36.702827	-122.05075	1758112	1.7	2005-07-11 21:28:18.0	Ventana	34.206	05:01:09:18	8.328	V2683-05
 	endtransect	object	199.61	2696	 	36.80384	-122.12519	1813319	1.52	2005-08-01 17:34:32.0	Ventana	34.206	01:02:25:10	8.635	V2696-01
 	transect	Euplexaura	399.86	2687	 	36.78813	-122.1217	1809281	1.13	2005-07-13 17:38:14.0	Ventana	34.25	01:04:36:03	7.281	V2687-02
 	cruise	LRJ Complex	581.0	2688	 	36.796867	-122.02002	1677403	0.49	2005-07-14 16:46:59.0	Ventana	34.364	00:33:18:25	5.752	V2688-01
 	ascend	Crustacea	711.27	2681	 	36.698704	-122.05507	1717584	0.29	2005-07-07 20:19:36.6	Ventana	34.43	03:48:37:29	5.018	V2681-04
 	cruise	Sebastes	152.18	2676	 	36.808727	-122.03066	1676854	1.68	2005-06-14 17:54:05.0	Ventana	34.182	01:33:48:16	8.263	V2676-02
 	descend	Lobata	629.63	2681	 	36.697956	-122.05388	1715937	0.31	2005-07-07 18:29:43.46	Ventana	34.397	02:00:04:02	5.357	V2681-02
 	transect	Psolus squamatus	 	2687	 	 	 	1810928	 	2005-07-13 19:43:03.0	Ventana	 	03:08:04:12	 	V2687-04
 	transect	Ophiuroidea	1000.34	2669	 	36.730938	-122.23295	1683840	0.45	2005-05-25 18:36:28.0	Ventana	34.523	00:58:53:14	3.911	V2669-01
 	transect	Mesomyaria	1000.14	2669	 	36.731243	-122.23834	1688856	0.43	2005-05-25 19:17:23.0	Ventana	34.516	01:39:21:14	3.98	V2669-02
 	ascend	Appendicularia	409.88	2681	 	36.699238	-122.054375	1717968	0.82	2005-07-07 20:46:37.933	Ventana	34.279	04:14:59:21	6.764	V2681-05
 	transect	Mesomyaria	 	2669	 	 	 	1737634	 	2005-05-25 13:54:05.0	Ventana	 	03:14:53:00	 	V2669-04
 	transect	Ophiuroidea	999.65	2669	 	36.731422	-122.23667	1684818	0.44	2005-05-25 19:03:23.0	Ventana	34.518	01:25:22:23	3.94	V2669-02
 	descend	Myctophidae	561.27	2682	 	36.698635	-122.0598	1720916	0.34	2005-07-08 18:06:10.0	Ventana	34.373	01:59:38:05	5.622	V2682-02
 	transect	molt	50.5	2681	 	36.69925	-122.05385	2485396	 	2005-07-07 16:31:50.0	Ventana	 	00:03:00:26	 	V2681-01HD
 	descend	Chuniphyes	923.89	2682	 	36.698254	-122.059395	1721788	0.35	2005-07-08 18:52:40.0	Ventana	34.497	02:45:42:27	4.267	V2682-03
 	transect	Mesomyaria	1000.29	2669	 	36.731255	-122.241295	1689751	0.4	2005-05-25 19:35:35.0	Ventana	34.508	01:57:33:03	4.086	V2669-02
 	descend	Euphausia 2	217.48	2682	 	36.69989	-122.06071	1719961	1.77	2005-07-08 16:21:26.76	Ventana	34.197	00:15:31:24	7.986	V2682-01
 	cruise	Rathbunaster californicus	451.1	2676	 	36.802925	-122.02928	1676327	0.62	2005-06-14 16:36:45.0	Ventana	34.321	00:20:54:06	6.337	V2676-01
 	transect	Phyllospadix	1000.05	2669	 	36.731167	-122.240166	1689225	0.41	2005-05-25 19:28:36.0	Ventana	34.51	01:50:34:08	4.058	V2669-02
 	transect	molt	100.5	2681	 	36.699406	-122.05402	2489803	2.13	2005-07-07 16:51:02.0	Ventana	34.068	00:22:10:19	9.146	V2681-01HD
 	ascend	Chuniphyes	691.73	2683	 	36.705708	-122.04917	1757886	0.3	2005-07-11 21:06:27.0	Ventana	34.44	04:39:20:14	4.929	V2683-05
 	transect	Mesomyaria	998.91	2669	 	36.73099	-122.230194	1651262	0.45	2005-05-25 18:15:58.0	Ventana	34.521	00:38:24:22	3.91	V2669-01
 	transect	Psolus squamatus	 	2687	 	 	 	1807611	 	2005-07-13 17:17:40.0	Ventana	 	00:44:32:20	 	V2687-01
 	transect	Parastichopus leukothele	197.81	2696	 	36.802666	-122.12168	1812996	1.52	2005-08-01 16:50:50.0	Ventana	34.209	00:19:10:00	8.554	V2696-01
 	ascend	Appendicularia	997.23	2682	 	36.697727	-122.058266	1722909	0.45	2005-07-08 20:06:00.0	Ventana	34.522	03:58:33:27	3.947	V2682-04
 	descend	Appendicularia	382.8	2683	 	36.701454	-122.04979	1756608	1.05	2005-07-11 16:58:21.0	Ventana	34.244	00:46:00:25	6.991	V2683-01
 	transect	Glyptocephalus zachirus	 	2687	 	 	 	1810559	 	2005-07-13 19:22:27.0	Ventana	 	02:48:10:15	 	V2687-03
 	transect	Chionoecetes tanneri	801.24	2674	http://search.mbari.org/ARCHIVE/frameGrabs/Ventana/images/2674/00_12_08_13.jpg	36.7525	-122.200134	20003877	0.29	2005-06-08 17:27:33.0	Ventana	34.466	00:12:08:13	4.639	V2674-01
 	transect	Nanomia bijuga	200.41	2681	 	36.698284	-122.05331	2490924	1.7	2005-07-07 17:09:49.0	Ventana	34.189	00:40:57:29	8.321	V2681-01HD
 	ascend	Cydippida	200.77	2693	 	36.69062	-122.062836	1759202	1.77	2005-07-25 21:27:57.0	Ventana	34.191	03:52:28:10	8.913	V2693-04
 	descend	Myctophidae	600.91	2682	 	36.69864	-122.05981	1721239	0.35	2005-07-08 18:07:38.0	Ventana	34.389	02:00:44:00	5.441	V2682-03
 	transect	Psolus squamatus	 	2687	 	 	 	1808732	 	2005-07-13 17:27:55.0	Ventana	 	00:54:48:01	 	V2687-01
 	transect	Rathbunaster californicus	 	2687	 	 	 	1811875	 	2005-07-13 20:28:00.0	Ventana	 	03:52:58:26	 	V2687-04
 	transect	Mesomyaria	802.28	2674	 	36.75176	-122.21036	1801008	0.35	2005-06-08 18:21:35.0	Ventana	34.488	01:05:39:22	4.332	V2674-02
 	transect	Halipteris californica	597.85	2680	 	36.781097	-122.22604	1804874	0.36	2005-06-27 18:31:39.0	Ventana	34.379	01:10:45:03	5.6	V2680-02
 	transect	Phyllospadix	997.94	2669	 	36.730648	-122.22694	1649066	0.45	2005-05-25 17:53:04.0	Ventana	34.522	00:15:32:24	3.91	V2669-01
 	descend	Lensia	328.44	2682	 	36.6988	-122.06063	1720164	1.1	2005-07-08 17:10:33.0	Ventana	34.246	01:04:04:26	7.225	V2682-02
 	transect	Sebastolobus	1000.34	2669	 	36.731586	-122.24312	1733776	0.41	2005-05-25 19:45:06.0	Ventana	34.507	02:06:37:13	4.072	V2669-03
 	descend	Copepoda	954.57	2682	 	36.698277	-122.059326	1721991	0.39	2005-07-08 18:55:18.0	Ventana	34.507	02:48:20:03	4.155	V2682-03
 	transect	Gastropoda sp.2	997.53	2669	 	36.73062	-122.227	1694910	0.45	2005-05-25 17:54:02.0	Ventana	34.521	00:16:30:21	3.909	V2669-01
 	descend	sinker	116.35	2683	 	36.700554	-122.05167	1756239	2.23	2005-07-11 16:18:31.0	Ventana	34.042	00:06:12:09	9.204	V2683-01
 	transect	Chionoecetes tanneri	602.75	2680	 	36.78863	-122.23236	1805964	0.35	2005-06-27 20:01:41.0	Ventana	34.376	02:40:18:25	5.61	V2680-03
 	transect	Chionoecetes tanneri	998.59	2669	 	36.730526	-122.22846	1650893	0.45	2005-05-25 18:03:35.0	Ventana	34.523	00:26:03:16	3.906	V2669-01
 	transect	Mesomyaria	998.81	2669	 	36.731148	-122.2341	1684066	0.45	2005-05-25 18:42:34.0	Ventana	34.523	01:04:34:18	3.914	V2669-02
 	ascend	Appendicularia	261.03	2681	 	36.69882	-122.05697	1719043	1.42	2005-07-07 21:21:35.567	Ventana	34.231	04:49:54:20	7.954	V2681-05
 	transect	Mediaster	 	2687	 	 	 	1808912	 	2005-07-13 17:31:47.0	Ventana	 	00:58:38:28	 	V2687-01
 	transect	Mediaster	 	2687	 	 	 	1812244	 	2005-07-13 20:29:50.0	Ventana	 	03:54:48:08	 	V2687-04
 	transect	Calycophorae	500.59	2681	 	36.695786	-122.051216	2493661	0.43	2005-07-07 18:04:30.0	Ventana	34.348	01:34:52:07	6.007	V2681-02HD
 	descend	Nanomia	502.74	2683	 	36.701553	-122.04936	1756811	0.68	2005-07-11 17:27:44.0	Ventana	34.305	01:11:50:03	6.466	V2683-02
 	ascend	Cyclothone	847.24	2681	 	36.698586	-122.055855	1717381	0.32	2005-07-07 19:55:28.66	Ventana	34.489	03:24:31:15	4.371	V2681-04
 	descend	Chaetognatha	402.87	2682	 	36.698273	-122.05986	1720713	0.82	2005-07-08 17:38:03.0	Ventana	34.256	01:31:33:21	6.598	V2682-02
 	cruise	Mysidae	1017.93	2689	 	36.771545	-122.08293	1669867	0.55	2005-07-18 17:19:50.0	Ventana	34.537	00:42:52:12	3.73	V2689-01
 	transect	Phyllospadix	200.46	2696	 	36.804783	-122.12733	1813522	1.51	2005-08-01 17:55:56.0	Ventana	34.212	01:23:49:11	8.672	V2696-02
 	ascend	Appendicularia	468.97	2681	 	36.698997	-122.05421	1717765	0.56	2005-07-07 20:36:03.1	Ventana	34.32	04:05:03:13	6.275	V2681-04
 	transect	Ophiuroidea	999.68	2669	 	36.73191	-122.246086	1735618	0.41	2005-05-25 20:04:05.0	Ventana	34.51	02:25:36:27	4.06	V2669-03
 	transect	Ceriantharia sp. 1	599.71	2680	 	36.77791	-122.22306	1804325	0.36	2005-06-27 17:52:10.0	Ventana	34.379	00:32:16:28	5.585	V2680-01
 	transect	Mesomyaria	800.39	2674	 	36.75257	-122.20217	1799166	0.33	2005-06-08 17:39:29.0	Ventana	34.476	00:24:02:18	4.446	V2674-01
 	transect	molt	100.54	2681	 	36.69983	-122.05429	2489623	2.13	2005-07-07 16:46:32.0	Ventana	34.068	00:17:42:27	9.144	V2681-01HD
 	transect	Mediaster	 	2687	 	 	 	1810033	 	2005-07-13 18:51:50.0	Ventana	 	02:17:36:15	 	V2687-03
 	transect	Mediaster	 	2687	 	 	 	1811311	 	2005-07-13 20:06:32.0	Ventana	 	03:31:32:00	 	V2687-04
 	descend	Appendicularia	982.92	2683	 	36.704098	-122.0489	1757360	0.42	2005-07-11 19:14:44.0	Ventana	34.518	02:55:06:14	4.034	V2683-03
 	ascend	Haliscera	370.88	2693	 	36.696175	-122.060905	1758638	1.19	2005-07-25 20:23:35.0	Ventana	34.231	03:03:08:19	7.152	V2693-03
 	transect	Phyllospadix	798.94	2674	 	36.75143	-122.214745	1801377	0.35	2005-06-08 18:43:07.0	Ventana	34.49	01:27:11:07	4.332	V2674-02
 	transect	Ophiuroidea	999.23	2669	 	36.73139	-122.23607	1684532	0.44	2005-05-25 18:57:55.0	Ventana	34.52	01:19:55:03	3.939	V2669-02
 	descend	Appendicularia	309.12	2682	 	36.699535	-122.06071	1720081	1.16	2005-07-08 16:39:38.0	Ventana	34.239	00:33:40:17	7.307	V2682-01
 	transect	Nanomia bijuga	400.8	2681	 	36.695854	-122.05126	2492909	0.79	2005-07-07 17:41:13.0	Ventana	34.278	01:11:36:23	6.667	V2681-02HD
 	transect	Mesomyaria	1000.26	2669	 	36.73128	-122.240944	1689345	0.41	2005-05-25 19:33:37.0	Ventana	34.51	01:55:34:17	4.056	V2669-02
 	descend	Appendicularia	1119.59	2683	 	36.705116	-122.048904	1757480	0.6	2005-07-11 19:31:01.0	Ventana	34.548	03:11:22:23	3.636	V2683-03
 	transect	Lycenchelys camchatica	800.05	2674	 	36.752117	-122.20873	1800805	0.35	2005-06-08 18:13:15.0	Ventana	34.489	00:57:46:11	4.334	V2674-01
 	transect	Phyllospadix	800.24	2674	 	36.75207	-122.208885	1800828	0.35	2005-06-08 18:13:53.0	Ventana	34.489	00:58:24:12	4.325	V2674-01
 	transect	Psolus squamatus	 	2687	 	 	 	1807491	 	2005-07-13 17:11:40.0	Ventana	 	00:38:33:19	 	V2687-01
 	transect	Phyllospadix	799.93	2674	 	36.752457	-122.204956	1799692	0.35	2005-06-08 17:54:31.0	Ventana	34.486	00:39:03:17	4.357	V2674-01
 	transect	Euplexaura	 	2687	 	 	 	1810439	 	2005-07-13 19:18:16.0	Ventana	 	02:44:00:04	 	V2687-03
 	ascend	Leuroglossus stilbius	301.3	2694	 	36.784946	-122.20066	1676771	1.22	2005-07-27 21:07:51.0	Ventana	34.289	03:39:11:06	8.663	V2694-04
 	descend	Aegina	500.99	2682	 	36.6986	-122.05978	1720833	0.44	2005-07-08 17:59:38.0	Ventana	34.352	01:53:06:13	6.017	V2682-02
 	transect	Psolus squamatus	 	2687	 	 	 	1808589	 	2005-07-13 17:24:36.0	Ventana	 	00:51:28:26	 	V2687-01
 	transect	Mesomyaria	999.71	2669	 	36.73194	-122.24624	1735641	0.41	2005-05-25 20:06:02.0	Ventana	34.51	02:27:31:17	4.063	V2669-03
 	transect	Mediaster	 	2687	 	 	 	1811191	 	2005-07-13 20:00:29.0	Ventana	 	03:25:29:11	 	V2687-04
 	transect	chuniphyes	600.63	2681	 	36.695873	-122.05142	2493684	0.3	2005-07-07 18:19:30.0	Ventana	34.388	01:49:51:11	5.495	V2681-02HD
 	transect	Phyllospadix	799.4	2674	 	36.752457	-122.20517	1799730	0.36	2005-06-08 17:55:49.0	Ventana	34.486	00:40:22:03	4.357	V2674-01
 	transect	Raja rhina	199.46	2696	http://search.mbari.org/ARCHIVE/frameGrabs/Ventana/images/2696/01_11_14_11.jpg	36.80424	-122.126045	1813402	1.52	2005-08-01 17:43:20.0	Ventana	34.208	01:11:14:11	8.661	V2696-02
 	transect	Mesomyaria	800.36	2674	 	36.75176	-122.21184	1801151	0.35	2005-06-08 18:27:26.0	Ventana	34.489	01:11:30:19	4.341	V2674-02
 	cruise	Osteichthyes	92.72	2688	 	36.81628	-122.01627	1679373	2.04	2005-07-14 20:16:12.0	Ventana	34.09	04:00:57:05	8.916	V2688-04
 	descend	Mysidae	770.8	2683	 	36.702473	-122.04888	1757134	0.3	2005-07-11 17:58:45.0	Ventana	34.453	01:42:50:29	4.736	V2683-02
 	transect	Phyllospadix	799.7	2674	 	36.7527	-122.20069	1774138	0.29	2005-06-08 17:32:06.0	Ventana	34.464	00:16:40:04	4.649	V2674-01
 	ascend	Chaetognatha	345.27	2693	 	36.693344	-122.06137	1758939	1.25	2005-07-25 21:10:16.0	Ventana	34.239	03:34:48:20	7.408	V2693-04
 	transect	Solidosagitta zetesios	300.4	2681	 	36.695927	-122.051544	2492586	1.24	2005-07-07 17:28:49.0	Ventana	34.234	00:59:55:13	7.427	V2681-01HD
 	descend	Dosidicus gigas	552.28	2681	 	36.69568	-122.051056	1715614	0.36	2005-07-07 18:06:17.067	Ventana	34.367	01:36:39:04	5.749	V2681-02
 	ascend	Appendicularia	778.18	2681	 	36.698795	-122.05634	1717464	0.29	2005-07-07 20:06:23.333	Ventana	34.453	03:35:25:15	4.743	V2681-04
 	ascend	Appendicularia	591.14	2682	 	36.698837	-122.06009	1723435	0.33	2005-07-08 20:40:22.0	Ventana	34.373	04:32:29:19	5.608	V2682-05
 	descend	Cydippida	349.95	2693	 	36.697086	-122.0599	1758578	1.26	2005-07-25 19:59:08.0	Ventana	34.234	02:38:42:02	7.473	V2693-03
 	transect	Calliostoma platinum	 	2687	 	 	 	1810093	 	2005-07-13 18:55:52.0	Ventana	 	02:21:38:01	 	V2687-03
 	transect	Lycenchelys camchatica	800.23	2674	 	36.751194	-122.21651	1803430	0.35	2005-06-08 18:51:24.0	Ventana	34.487	01:35:26:27	4.367	V2674-02
 	transect	Psolus squamatus	 	2687	 	 	 	1808995	 	2005-07-13 17:33:13.0	Ventana	 	01:00:05:19	 	V2687-01
 	transect	Henricia sanguinolenta	 	2687	 	 	 	1812304	 	2005-07-13 20:31:41.0	Ventana	 	03:56:39:17	 	V2687-04
 	transect	Mesomyaria	999.87	2669	 	36.7314	-122.23727	1687480	0.44	2005-05-25 19:08:46.0	Ventana	34.519	01:30:45:17	3.947	V2669-02
 	descend	Nanomia	465.63	2683	 	36.70167	-122.04935	1756728	0.77	2005-07-11 17:11:17.0	Ventana	34.287	00:58:56:08	6.657	V2683-01
 	transect	Mesomyaria	801.41	2674	 	36.752254	-122.20734	1800053	0.37	2005-06-08 18:06:38.0	Ventana	34.485	00:51:10:02	4.355	V2674-01
 	transect	Ophiuroidea	998.44	2669	 	36.731144	-122.23076	1683434	0.45	2005-05-25 18:20:44.0	Ventana	34.523	00:43:10:22	3.914	V2669-01
 	descend	Copepoda	1183.37	2682	 	36.69825	-122.05786	1722337	0.66	2005-07-08 19:40:48.0	Ventana	34.569	03:33:24:18	3.413	V2682-04
 	transect	Ceriantharia sp. 1	602.54	2680	 	36.78992	-122.23263	1806739	0.35	2005-06-27 20:15:05.0	Ventana	34.38	02:53:42:16	5.589	V2680-03
 	transect	Phyllospadix	1000.16	2669	 	36.731644	-122.24343	1733836	0.41	2005-05-25 19:47:03.0	Ventana	34.511	02:08:34:03	4.068	V2669-03
 	transect	Lycenchelys camchatica	799.3	2674	 	36.751698	-122.21282	1801234	0.35	2005-06-08 18:31:03.0	Ventana	34.489	01:15:07:00	4.334	V2674-02
 	cruise	line	96.29	2688	 	36.816853	-122.01447	1679313	1.99	2005-07-14 19:51:16.0	Ventana	34.087	03:36:02:06	8.915	V2688-04
 	transect	Mysidae 2	800.92	2681	 	36.695446	-122.05129	2498151	0.31	2005-07-07 18:55:47.0	Ventana	34.476	02:25:29:02	4.491	V2681-03HD
 	transect	cydippida	200.34	2681	 	36.698364	-122.05346	2491390	1.67	2005-07-07 17:13:56.0	Ventana	34.199	00:45:04:20	8.341	V2681-01HD
 	ascend	Chaetognatha	259.47	2681	 	36.69929	-122.05432	1718637	1.43	2005-07-07 21:14:21.633	Ventana	34.229	04:42:40:21	7.974	V2681-05
 	transect	Psolus squamatus	 	2687	 	 	 	1807145	 	2005-07-13 17:01:25.0	Ventana	 	00:28:19:07	 	V2687-01
 	transect	Ceriantharia sp. 2	998.48	2669	 	36.731106	-122.23068	1683374	0.45	2005-05-25 18:19:42.0	Ventana	34.521	00:42:08:23	3.911	V2669-01
 	transect	Nanomia bijuga	200.4	2681	 	36.6983	-122.05337	2491127	1.68	2005-07-07 17:12:10.0	Ventana	34.198	00:43:17:04	8.337	V2681-01HD
 	transect	Hormiphora	200.39	2681	 	36.69828	-122.05329	2490292	1.69	2005-07-07 17:06:34.0	Ventana	34.2	00:37:43:15	8.359	V2681-01HD
 	cruise	Pleuronectiformes	527.84	2688	 	36.798893	-122.019356	1677463	0.62	2005-07-14 17:03:55.0	Ventana	34.331	00:50:13:20	6.273	V2688-01
 	ascend	Appendicularia	261.11	2681	 	36.698868	-122.05694	1718923	1.42	2005-07-07 21:19:40.887	Ventana	34.232	04:48:00:18	7.957	V2681-05
 	transect	Gastropoda	203.94	2696	 	36.80631	-122.129875	1813748	1.49	2005-08-01 18:25:28.0	Ventana	34.211	01:53:19:14	8.632	V2696-02
 	transect	Brisaster	1000.36	2669	 	36.73152	-122.24243	1694504	0.41	2005-05-25 19:41:34.0	Ventana	34.511	02:03:31:00	4.062	V2669-02
 	ascend	Appendicularia	311.06	2681	 	36.69966	-122.05526	1718171	1.26	2005-07-07 20:58:15.05	Ventana	34.235	04:26:35:18	7.513	V2681-05
 	descend	Hastigerinella digitata	267.92	2682	 	36.6998	-122.06078	1720021	1.35	2005-07-08 16:27:56.0	Ventana	34.23	00:21:59:21	7.717	V2682-01
 	transect	Mediaster	 	2687	 	 	 	1812650	 	2005-07-13 20:49:43.0	Ventana	 	04:14:13:16	 	V2687-05
 	transect	Hormiphora	200.38	2681	 	36.69829	-122.05333	2491044	1.69	2005-07-07 17:11:08.0	Ventana	34.196	00:42:15:14	8.332	V2681-01HD
 	transect	Mesomyaria	998.95	2669	 	36.73113	-122.2348	1684186	0.45	2005-05-25 18:48:08.0	Ventana	34.521	01:10:09:00	3.918	V2669-02
 	descend	Lobata	172.34	2693	 	36.69614	-122.05802	1758232	1.96	2005-07-25 18:02:49.0	Ventana	34.141	00:43:20:24	8.914	V2693-01
 	descend	Appendicularia	686.08	2681	 	36.69792	-122.05384	1715960	0.27	2005-07-07 18:31:29.667	Ventana	34.415	02:01:49:20	5.107	V2681-02
 	descend	Myctophidae	428.74	2683	 	36.70146	-122.04955	1756668	0.87	2005-07-11 17:06:25.0	Ventana	34.267	00:54:05:14	6.799	V2683-01
 	descend	Chaetognatha	 	2693	 	 	 	1759428	 	2005-07-25 16:44:32.0	Ventana	 	00:23:05:00	 	V2693-01
 	transect	Phyllospadix	799.9	2674	 	36.75132	-122.215454	1803347	0.35	2005-06-08 18:45:57.0	Ventana	34.484	01:30:00:15	4.368	V2674-02
 	cruise	Sebastes	244.52	2688	 	36.80967	-122.020485	1677929	1.56	2005-07-14 18:31:15.0	Ventana	34.187	02:16:30:19	8.275	V2688-03
 	ascend	Chuniphyes	758.36	2681	 	36.6987	-122.05588	1717524	0.28	2005-07-07 20:12:37.967	Ventana	34.448	03:41:39:22	4.815	V2681-04
 	transect	Mesomyaria	999.44	2669	 	36.73133	-122.23592	1684472	0.44	2005-05-25 18:57:06.0	Ventana	34.52	01:19:05:22	3.936	V2669-02
 	transect	Lycenchelys camchatica	800.86	2674	 	36.751755	-122.21118	1801091	0.35	2005-06-08 18:24:48.0	Ventana	34.489	01:08:52:26	4.342	V2674-02
 	transect	molt	100.49	2681	 	36.699825	-122.05429	2489683	2.13	2005-07-07 16:47:51.0	Ventana	34.068	00:19:00:06	9.149	V2681-01HD
 	transect	Mesomyaria	1000.26	2669	 	36.73182	-122.245155	1735355	0.4	2005-05-25 19:58:01.0	Ventana	34.505	02:19:31:16	4.099	V2669-03
 	transect	Appendicularia	400.73	2681	 	36.697685	-122.05339	2493195	0.79	2005-07-07 17:49:09.0	Ventana	34.278	01:19:31:26	6.66	V2681-02HD
 	transect	Ceriantharia sp. 2	999.88	2669	 	36.731075	-122.23886	1689082	0.43	2005-05-25 19:20:44.0	Ventana	34.517	01:42:43:05	3.969	V2669-02
 	transect	Nanomia bijuga	200.46	2681	 	36.69828	-122.05329	2490232	1.7	2005-07-07 17:06:02.0	Ventana	34.198	00:37:10:19	8.363	V2681-01HD
 	transect	Mesomyaria	999.16	2669	 	36.732754	-122.25138	1737205	0.41	2005-05-25 20:41:22.0	Ventana	34.509	03:02:12:17	4.072	V2669-04
 	transect	Porifera sp. 1	399.67	2687	 	36.78929	-122.12472	1809604	1.16	2005-07-13 18:23:31.0	Ventana	34.239	01:49:50:27	7.333	V2687-02
 	transect	Phyllospadix	 	2687	 	 	 	1811815	 	2005-07-13 20:26:19.0	Ventana	 	03:51:17:25	 	V2687-04
 	transect	Phyllospadix	600.61	2680	 	36.777157	-122.22231	1804242	0.36	2005-06-27 17:42:31.0	Ventana	34.377	00:22:38:12	5.581	V2680-01
 	transect	Aegina	600.6	2681	 	36.696465	-122.05209	2493744	0.3	2005-07-07 18:22:13.0	Ventana	34.387	01:52:34:20	5.48	V2681-02HD
 	transect	Mediaster	 	2687	http://search.mbari.org/ARCHIVE/frameGrabs/Ventana/images/2687/02_54_32_28.jpg	 	 	1810702	 	2005-07-13 19:28:49.0	Ventana	 	02:54:32:28	 	V2687-03
 	descend	Hastigerinella digitata	328.49	2693	 	36.697433	-122.060555	1758518	1.29	2005-07-25 19:47:27.0	Ventana	34.236	02:27:02:19	7.575	V2693-03
 	transect	Mediaster	 	2687	 	 	 	1812364	 	2005-07-13 20:34:36.0	Ventana	 	03:59:34:04	 	V2687-04
 	transect	Psolus squamatus	 	2687	 	 	 	1807002	 	2005-07-13 16:54:20.0	Ventana	 	00:21:14:16	 	V2687-01
 	transect	Nanomia bijuga	200.39	2681	 	36.698284	-122.053314	2490984	1.71	2005-07-07 17:10:27.0	Ventana	34.187	00:41:34:26	8.319	V2681-01HD
 	transect	zoarcidae	1001.07	2681	 	36.694874	-122.05071	2498557	0.48	2005-07-07 19:21:57.0	Ventana	34.532	02:51:37:02	3.859	V2681-03HD
 	cruise	Bargmannia	1190.65	2682	 	36.69838	-122.05754	1722420	0.68	2005-07-08 19:51:51.0	Ventana	34.57	03:44:26:07	3.381	V2682-04
 	ascend	Appendicularia	554.81	2683	 	36.70454	-122.050644	1757969	0.38	2005-07-11 21:14:02.0	Ventana	34.359	04:46:54:05	5.907	V2683-05
 	transect	Mediaster	 	2687	 	 	 	1810153	 	2005-07-13 19:01:05.0	Ventana	 	02:26:50:08	 	V2687-03
 	transect	Poeobius meseres	800.9	2681	 	36.695812	-122.05175	2498211	0.32	2005-07-07 18:57:34.0	Ventana	34.475	02:27:16:12	4.494	V2681-03HD
 	transect	Psolus squamatus	 	2687	 	 	 	1807205	 	2005-07-13 17:03:20.0	Ventana	 	00:30:14:22	 	V2687-01
 	descend	Copepoda	1052.19	2683	 	36.704983	-122.049095	1757420	0.48	2005-07-11 19:25:17.0	Ventana	34.53	03:05:38:26	3.862	V2683-03
 	transect	Poeobius meseres	400.79	2681	 	36.696335	-122.0518	2492992	0.79	2005-07-07 17:43:21.0	Ventana	34.276	01:13:45:05	6.65	V2681-02HD
 	transect	Mesomyaria	798.33	2674	 	36.751663	-122.21361	1801294	0.35	2005-06-08 18:35:43.0	Ventana	34.488	01:19:47:13	4.349	V2674-02
 	transect	Euplexaura	 	2687	 	 	 	1809950	 	2005-07-13 18:48:31.0	Ventana	 	02:14:17:09	 	V2687-03
 	transect	Mesomyaria	800.72	2674	 	36.7521	-122.20837	1800745	0.35	2005-06-08 18:11:16.0	Ventana	34.488	00:55:48:04	4.328	V2674-01
 	transect	Allocentrotus fragilis	 	2687	 	 	 	1811251	 	2005-07-13 20:05:30.0	Ventana	 	03:30:29:27	 	V2687-04
 	transect	Parastichopus leukothele	200.12	2696	 	36.804535	-122.126724	1813462	1.51	2005-08-01 17:50:09.0	Ventana	34.213	01:18:02:07	8.668	V2696-02
 	transect	Physonectae	300.41	2681	 	36.69688	-122.05242	2492443	1.23	2005-07-07 17:25:20.0	Ventana	34.234	00:56:27:12	7.393	V2681-01HD
 	ascend	Appendicularia	604.8	2682	 	36.698624	-122.0617	1723533	0.33	2005-07-08 20:57:37.0	Ventana	34.374	04:49:45:00	5.619	V2682-05
 	transect	lobata	500.62	2681	 	36.696415	-122.05197	2493601	0.44	2005-07-07 18:01:29.0	Ventana	34.348	01:31:52:19	6.01	V2681-02HD
 	descend	Chaetognatha	445.32	2682	 	36.6984	-122.059555	1720773	0.57	2005-07-08 17:51:13.0	Ventana	34.315	01:44:43:01	6.326	V2682-02
 	descend	Calycophorae	169.45	2683	 	36.701054	-122.0513	1756322	1.69	2005-07-11 16:40:37.0	Ventana	34.179	00:28:17:25	8.728	V2683-01
 	transect	Mesomyaria	803.45	2674	 	36.750774	-122.2204	1803693	0.34	2005-06-08 19:08:31.0	Ventana	34.478	01:52:33:20	4.395	V2674-02
 	cruise	Chionoecetes tanneri	999.78	2669	http://search.mbari.org/ARCHIVE/frameGrabs/Ventana/images/2669/01_36_01_27.jpg	36.73134	-122.23791	20003794	0.44	2005-05-25 19:14:03.0	Ventana	34.517	01:36:01:27	3.941	V2669-02
 	transect	Mesomyaria	801.24	2674	 	36.751953	-122.209274	1800888	0.36	2005-06-08 18:15:49.0	Ventana	34.49	01:00:20:16	4.318	V2674-01
 	transect	Pennatula phosphorea californica	1000.2	2669	 	36.73136	-122.24167	1689834	0.4	2005-05-25 19:37:40.0	Ventana	34.508	01:59:37:14	4.08	V2669-02
 	ascend	Calycophorae	284.06	2693	 	36.69143	-122.06219	1759082	1.41	2005-07-25 21:20:13.0	Ventana	34.244	03:44:44:16	8.157	V2693-04
 	transect	Ceriantharia sp. 1	601.55	2680	 	36.787045	-122.231514	1805904	0.36	2005-06-27 19:45:16.0	Ventana	34.377	02:23:55:08	5.602	V2680-03
 	transect	Mediaster	 	2687	 	 	 	1808852	 	2005-07-13 17:30:27.0	Ventana	 	00:57:19:16	 	V2687-01
 	descend	Chaetognatha	1087.62	2682	 	36.69827	-122.059166	1722074	0.53	2005-07-08 19:06:30.0	Ventana	34.546	02:59:31:13	3.705	V2682-03
 	transect	Brisaster	1000.51	2669	 	36.732437	-122.249985	1736799	0.41	2005-05-25 20:32:44.0	Ventana	34.51	02:54:12:21	4.065	V2669-03
 	cruise	sinker	1215.93	2683	 	36.70643	-122.04758	1757623	0.72	2005-07-11 20:09:36.0	Ventana	34.574	03:43:59:19	3.344	V2683-04
 	transect	Rathbunaster californicus	198.29	2696	 	36.803608	-122.124435	1813259	1.53	2005-08-01 17:27:34.0	Ventana	34.204	00:55:51:06	8.617	V2696-01
 	transect	Sebastolobus altivelis	801.02	2674	 	36.75254	-122.20137	1774198	0.35	2005-06-08 17:35:27.0	Ventana	34.485	00:20:01:21	4.379	V2674-01
 	ascend	Nanomia	374.03	2682	 	36.69765	-122.06209	1723736	0.95	2005-07-08 21:23:21.0	Ventana	34.265	05:15:01:13	6.989	V2682-06
 	transect	Calliostoma platinum	 	2687	 	 	 	1810296	 	2005-07-13 19:14:57.0	Ventana	 	02:40:40:24	 	V2687-03
 	stationary	Merluccius productus	502.23	2694	 	36.784607	-122.20045	1676613	0.9	2005-07-27 19:45:01.0	Ventana	34.268	02:17:11:10	6.809	V2694-03
 	transect	Mesomyaria	1000.48	2669	 	36.732254	-122.248825	1736250	0.41	2005-05-25 20:25:05.0	Ventana	34.51	02:46:35:21	4.069	V2669-03
 	transect	molt	100.59	2681	 	36.69983	-122.05429	2489540	2.13	2005-07-07 16:44:08.0	Ventana	34.067	00:15:17:23	9.146	V2681-01HD
 	transect	Parastichopus leukothele	203.37	2696	 	36.806725	-122.13032	1813808	1.48	2005-08-01 18:34:50.0	Ventana	34.216	02:02:40:07	8.641	V2696-02
 	ascend	Solmissus	256.02	2681	 	36.698647	-122.05657	1719126	1.44	2005-07-07 21:23:21.933	Ventana	34.231	04:51:41:13	7.974	V2681-05
 	descend	Acanthamunnopsis milleri	238.1	2693	 	36.698578	-122.06172	1758375	1.49	2005-07-25 19:23:13.0	Ventana	34.239	02:03:15:14	8.569	V2693-02
 	transect	Phyllospadix	801.2	2674	 	36.752556	-122.201675	1799083	0.34	2005-06-08 17:36:46.0	Ventana	34.483	00:21:19:14	4.416	V2674-01
 	transect	Actiniaria sp. 3	 	2687	 	 	 	1811048	 	2005-07-13 19:49:25.0	Ventana	 	03:14:26:02	 	V2687-04
 	stationary	sinker	504.12	2695	 	36.784523	-122.20047	1824472	0.67	2005-07-28 18:32:04.0	Ventana	34.296	01:20:20:15	6.288	V2695-02
 	ascend	Leptomedusae	260.97	2681	 	36.69943	-122.05456	1718577	1.42	2005-07-07 21:12:34.067	Ventana	34.228	04:40:53:22	7.944	V2681-05
 	endtransect	object	 	2687	 	 	 	1812710	 	2005-07-13 20:53:53.0	Ventana	 	04:18:23:29	 	V2687-05
 	descend	Nanomia	137.84	2693	 	36.696438	-122.057755	1758172	1.93	2005-07-25 17:55:31.0	Ventana	34.11	00:36:02:12	9.072	V2693-01
 	transect	Sebastolobus altivelis	800.71	2674	 	36.75244	-122.20463	1799632	0.36	2005-06-08 17:52:56.0	Ventana	34.49	00:37:28:27	4.348	V2674-01
 	transect	Psolus squamatus	 	2687	 	 	 	1810499	 	2005-07-13 19:21:01.0	Ventana	 	02:46:45:04	 	V2687-03
 	ascend	Chaetognatha	931.7	2683	 	36.707287	-122.0489	1757826	0.38	2005-07-11 20:55:04.0	Ventana	34.51	04:27:57:03	4.171	V2683-05
 	transect	Brisaster	196.45	2696	http://search.mbari.org/ARCHIVE/frameGrabs/Ventana/images/2696/00_30_32_29.jpg	36.802925	-122.122284	1813056	1.55	2005-08-01 17:02:14.0	Ventana	34.199	00:30:32:29	8.609	V2696-01
 	cruise	benthos	1014.43	2689	 	36.771427	-122.08292	1669604	0.54	2005-07-18 16:37:48.0	Ventana	34.533	00:00:53:10	3.898	V2689-01
 	cruise	Lycodes	429.56	2676	 	36.803486	-122.02923	1676410	0.67	2005-06-14 16:41:44.467	Ventana	34.311	00:25:52:02	6.476	V2676-01
 	transect	molt	100.48	2681	 	36.69885	-122.05366	2489886	2.13	2005-07-07 16:52:20.0	Ventana	34.045	00:23:29:01	9.142	V2681-01HD
 	transect	Ophiuroidea	999.67	2669	 	36.731094	-122.23539	1684329	0.45	2005-05-25 18:53:15.0	Ventana	34.521	01:15:15:06	3.924	V2669-02
 	transect	Gastropoda sp.2	998.84	2669	 	36.73114	-122.234055	1694647	0.45	2005-05-25 18:42:22.0	Ventana	34.523	01:04:23:00	3.914	V2669-02
 	transect	Appendicularia	500.57	2681	 	36.697487	-122.053215	2493398	0.44	2005-07-07 17:56:55.0	Ventana	34.346	01:27:18:24	6.018	V2681-02HD
 	descend	Sergestes similis	289.89	2681	 	36.69857	-122.0537	1713621	1.29	2005-07-07 17:17:27.797	Ventana	34.224	00:48:34:28	7.532	V2681-01
 	descend	Copepoda	1182.49	2682	 	36.698456	-122.05826	1722277	0.67	2005-07-08 19:37:51.0	Ventana	34.57	03:30:28:05	3.41	V2682-04
 	starttransect	Mediaster	 	2687	 	 	 	1812507	 	2005-07-13 20:42:36.0	Ventana	 	04:07:07:04	 	V2687-05
 	ascend	Appendicularia	371.18	2681	 	36.699356	-122.05484	1718028	0.97	2005-07-07 20:50:40.7	Ventana	34.265	04:19:01:07	7.06	V2681-05
 	transect	Mesomyaria	 	2669	 	 	 	1737551	 	2005-05-25 13:51:12.0	Ventana	 	03:12:00:15	 	V2669-04
 	transect	Pennatulacea sp.1	602.11	2680	 	36.790665	-122.2328	1806799	0.35	2005-06-27 20:22:04.0	Ventana	34.376	03:00:40:09	5.593	V2680-03
 	transect	Nanomia bijuga	200.39	2681	 	36.698307	-122.05339	2491187	1.68	2005-07-07 17:12:38.0	Ventana	34.2	00:43:46:03	8.337	V2681-01HD
 	ascend	Solmundella bitentaculata	1037.01	2682	 	36.69779	-122.05782	1722826	0.48	2005-07-08 20:03:19.0	Ventana	34.528	03:55:53:10	3.87	V2682-04
 	descend	Appendicularia	321.02	2683	 	36.701164	-122.05011	1756525	1.22	2005-07-11 16:54:52.0	Ventana	34.24	00:42:32:19	7.552	V2683-01
 	transect	Phyllospadix	999.98	2669	 	36.73097	-122.232574	1683780	0.45	2005-05-25 18:34:14.0	Ventana	34.521	00:56:40:05	3.912	V2669-01
 	transect	Phyllospadix	802.09	2674	 	36.752254	-122.2069	1799993	0.37	2005-06-08 18:04:14.0	Ventana	34.49	00:48:46:16	4.328	V2674-01
 	transect	Mediaster	 	2687	 	 	 	1808649	 	2005-07-13 17:26:08.0	Ventana	 	00:53:00:10	 	V2687-01
 	transect	Mesomyaria	800.95	2674	 	36.751118	-122.217285	1803490	0.35	2005-06-08 18:55:14.0	Ventana	34.489	01:39:16:26	4.353	V2674-02
 	transect	Mesomyaria	999.0	2669	 	36.73091	-122.22985	1651179	0.45	2005-05-25 18:13:15.0	Ventana	34.522	00:35:42:08	3.907	V2669-01
 	ascend	Appendicularia	653.69	2682	 	36.698895	-122.05962	1723375	0.29	2005-07-08 20:35:38.0	Ventana	34.392	04:27:47:01	5.342	V2682-05
 	ascend	Cydippida	370.9	2693	 	36.69686	-122.060326	1758736	1.2	2005-07-25 20:32:30.0	Ventana	34.235	03:12:02:25	7.192	V2693-03
 	transect	molt	100.49	2681	 	36.698944	-122.05372	2489873	2.12	2005-07-07 16:52:04.0	Ventana	34.07	00:23:13:16	9.148	V2681-01HD
 	ascend	Chaetognatha	269.35	2681	 	36.69952	-122.054504	1718373	1.41	2005-07-07 21:06:56.117	Ventana	34.228	04:35:15:19	7.853	V2681-05
 	transect	Chionoecetes tanneri	598.45	2680	 	36.782097	-122.22717	1805100	0.36	2005-06-27 18:44:47.0	Ventana	34.378	01:23:52:22	5.587	V2680-02
 	transect	Psolus squamatus	 	2687	 	 	 	1808585	 	2005-07-13 17:24:25.0	Ventana	 	00:51:18:14	 	V2687-01
 	cruise	Merluccius productus	335.73	2676	 	36.804634	-122.031235	1676230	1.22	2005-06-14 16:22:15.0	Ventana	34.237	00:06:24:28	7.497	V2676-01
 	transect	Phyllospadix	799.18	2674	 	36.752506	-122.20424	1799527	0.35	2005-06-08 17:50:31.0	Ventana	34.484	00:35:04:03	4.371	V2674-01
 	cruise	LRJ Complex	617.65	2688	 	36.793694	-122.01929	1677274	0.43	2005-07-14 16:25:52.0	Ventana	34.398	00:12:12:20	5.313	V2688-01
 	descend	Copepoda	400.36	2681	 	36.695656	-122.05104	1715241	0.79	2005-07-07 17:38:35.133	Ventana	34.277	01:08:58:12	6.675	V2681-02
 	transect	Mesomyaria	998.06	2669	 	36.73307	-122.25293	1737533	0.4	2005-05-25 20:50:20.0	Ventana	34.508	03:11:07:01	4.075	V2669-04
 	transect	Ophiuroidea	999.07	2669	 	36.73139	-122.23609	1684582	0.44	2005-05-25 18:58:18.0	Ventana	34.522	01:20:17:22	3.94	V2669-02
 	ascend	Nanomia	234.55	2693	 	36.691273	-122.06245	1759119	1.54	2005-07-25 21:23:02.0	Ventana	34.231	03:47:33:10	8.485	V2693-04
 	transect	Psolus squamatus	 	2687	 	 	 	1811026	 	2005-07-13 19:48:46.0	Ventana	 	03:13:47:20	 	V2687-04
 	transect	myctophidae	400.78	2681	 	36.696445	-122.05195	2493005	0.79	2005-07-07 17:43:51.0	Ventana	34.276	01:14:15:09	6.644	V2681-02HD
 	descend	Euphausiacea	183.39	2683	 	36.70104	-122.05113	1756340	1.62	2005-07-11 16:42:12.0	Ventana	34.186	00:29:53:04	8.649	V2683-01
 	transect	Ceriantharia sp. 1	601.97	2680	 	36.791447	-122.23295	1806850	0.35	2005-06-27 20:28:06.0	Ventana	34.378	03:06:41:27	5.587	V2680-03
 	transect	Mediaster	 	2687	 	 	 	1811717	 	2005-07-13 20:22:19.0	Ventana	 	03:47:17:15	 	V2687-04
 	transect	Euphausia	200.47	2681	 	36.69828	-122.05329	2490579	1.72	2005-07-07 17:07:39.0	Ventana	34.195	00:38:47:15	8.334	V2681-01HD
 	transect	Mesomyaria	1000.43	2669	 	36.73194	-122.247	1735798	0.41	2005-05-25 20:11:56.0	Ventana	34.51	02:33:26:13	4.063	V2669-03
 	transect	Pennatulacea sp.1	599.93	2680	 	36.77842	-122.223625	1804394	0.36	2005-06-27 17:58:28.0	Ventana	34.378	00:38:34:28	5.583	V2680-01
 	transect	Mesomyaria	999.37	2669	 	36.73102	-122.23118	1683553	0.45	2005-05-25 18:24:35.0	Ventana	34.522	00:47:01:10	3.91	V2669-01
 	transect	Porifera	 	2687	 	 	 	1812423	 	2005-07-13 20:37:59.0	Ventana	 	04:02:56:27	 	V2687-04
 	transect	Mesomyaria	799.89	2674	 	36.7513	-122.21567	1803365	0.35	2005-06-08 18:47:12.0	Ventana	34.488	01:31:15:20	4.356	V2674-02
 	transect	Glyptocephalus zachirus	399.71	2687	 	36.78934	-122.12486	1809614	1.16	2005-07-13 18:25:43.0	Ventana	34.24	01:52:01:29	7.324	V2687-02
 	ascend	Leuroglossus stilbius	335.29	2683	 	36.703606	-122.05061	1758075	1.16	2005-07-11 21:23:06.0	Ventana	34.237	04:55:57:05	7.177	V2683-05
 	descend	Hastigerinella digitata	287.64	2682	 	36.69937	-122.06067	1720108	1.25	2005-07-08 16:52:35.0	Ventana	34.228	00:46:39:02	7.494	V2682-01
 	ascend	Chuniphyes	824.95	2682	 	36.698654	-122.058655	1723255	0.33	2005-07-08 20:21:50.0	Ventana	34.477	04:14:00:08	4.449	V2682-05
 	ascend	Poeobius meseres	564.22	2682	 	36.69828	-122.06253	1723593	0.38	2005-07-08 21:07:20.0	Ventana	34.358	04:59:27:07	5.826	V2682-05
 	transect	Phyllospadix	199.95	2696	 	36.804466	-122.12651	1813452	1.51	2005-08-01 17:48:14.0	Ventana	34.207	01:16:07:18	8.663	V2696-02
 	transect	Mesomyaria	999.58	2669	 	36.731056	-122.23507	1684259	0.45	2005-05-25 18:50:48.0	Ventana	34.521	01:12:48:00	3.922	V2669-02
 	ascend	Solmissus	373.38	2693	 	36.695595	-122.06065	1758796	1.2	2005-07-25 20:52:20.0	Ventana	34.233	03:16:54:21	7.172	V2693-04
 	transect	Neptunea amianta	799.45	2674	 	36.75166	-122.21301	1801247	0.35	2005-06-08 18:31:47.0	Ventana	34.489	01:15:51:27	4.336	V2674-02
 	transect	Euphausia	200.47	2681	 	36.69828	-122.05329	2490196	1.7	2005-07-07 17:05:40.0	Ventana	34.198	00:36:48:24	8.361	V2681-01HD
 	transect	Gastropoda sp.2	998.89	2669	 	36.730927	-122.22984	1695052	0.45	2005-05-25 18:13:17.0	Ventana	34.522	00:35:43:20	3.907	V2669-01
 	transect	Caridea sp.1	598.54	2680	 	36.78058	-122.225586	1804777	0.35	2005-06-27 18:25:06.0	Ventana	34.384	01:04:12:06	5.55	V2680-02
 	transect	Henricia sanguinolenta	 	2687	 	 	 	1807556	 	2005-07-13 17:15:14.0	Ventana	 	00:42:07:06	 	V2687-01
 	ascend	Appendicularia	360.85	2681	 	36.699368	-122.05497	1718050	1.02	2005-07-07 20:51:38.7	Ventana	34.259	04:19:59:20	7.126	V2681-05
 	transect	Chaetognatha	300.43	2681	 	36.69825	-122.053505	2491976	1.24	2005-07-07 17:20:36.0	Ventana	34.231	00:51:43:02	7.426	V2681-01HD
 	descend	Aegina	995.38	2683	 	36.70412	-122.049515	1757369	0.43	2005-07-11 19:15:58.0	Ventana	34.52	02:56:20:26	4.009	V2683-03
 	transect	Sebastolobus altivelis	800.99	2674	 	36.75255	-122.20247	1799204	0.35	2005-06-08 17:41:08.0	Ventana	34.486	00:25:41:27	4.374	V2674-01
 	transect	Phyllospadix	203.48	2696	 	36.807438	-122.131096	1813835	1.46	2005-08-01 18:41:40.0	Ventana	34.22	02:08:44:26	8.62	V2696-03
 	transect	Calycophorae	700.61	2681	 	36.69563	-122.05148	2497902	0.28	2005-07-07 18:45:38.0	Ventana	34.435	02:15:19:29	4.946	V2681-03HD
 	transect	Mediaster	 	2687	 	 	 	1811349	 	2005-07-13 20:08:54.0	Ventana	 	03:33:53:13	 	V2687-04
 	transect	Rathbunaster californicus	399.88	2687	 	36.78813	-122.12171	1809291	1.14	2005-07-13 17:38:28.0	Ventana	34.24	01:04:50:11	7.292	V2687-02
 	transect	Calycophorae	600.6	2681	 	36.696194	-122.05178	2493711	0.3	2005-07-07 18:20:55.0	Ventana	34.387	01:51:17:15	5.491	V2681-02HD
 	descend	Copepoda	250.86	2693	 	36.698444	-122.06166	1758398	1.48	2005-07-25 19:25:00.0	Ventana	34.238	02:05:01:00	8.361	V2693-02
 	transect	Poeobius meseres	800.89	2681	 	36.696026	-122.05197	2498225	0.31	2005-07-07 18:58:32.0	Ventana	34.475	02:28:14:17	4.495	V2681-03HD
 	transect	Sebastolobus	998.99	2669	 	36.730923	-122.22981	1651174	0.45	2005-05-25 18:13:05.0	Ventana	34.521	00:35:32:10	3.909	V2669-01
 	ascend	Euphausiacea	265.2	2681	 	36.69893	-122.05647	1718756	1.41	2005-07-07 21:18:01.667	Ventana	34.227	04:46:21:00	7.926	V2681-05
 	transect	Nanomia bijuga	200.42	2681	 	36.69828	-122.0533	2490902	1.7	2005-07-07 17:09:35.0	Ventana	34.197	00:40:43:23	8.33	V2681-01HD
 	descend	Aegina	648.06	2681	 	36.697952	-122.05387	1715947	0.29	2005-07-07 18:30:17.8	Ventana	34.402	02:00:38:11	5.252	V2681-02
 	transect	Mesomyaria	1000.13	2669	 	36.731014	-122.239494	1689156	0.41	2005-05-25 19:24:04.0	Ventana	34.51	01:46:02:13	4.061	V2669-02
 	transect	Phyllospadix	802.36	2674	 	36.75232	-122.20575	1799835	0.36	2005-06-08 17:58:45.0	Ventana	34.489	00:43:17:22	4.333	V2674-01
 	transect	Copepoda	700.63	2681	 	36.6959	-122.051765	2497842	0.29	2005-07-07 18:44:20.0	Ventana	34.438	02:14:01:23	4.937	V2681-03HD
 	descend	Aegina	1142.73	2682	 	36.6982	-122.05922	1722166	0.6	2005-07-08 19:12:56.0	Ventana	34.558	03:05:32:25	3.536	V2682-04
 	transect	Chionoecetes tanneri	1000.42	2669	 	36.732132	-122.24806	1736181	0.41	2005-05-25 20:19:27.0	Ventana	34.51	02:40:56:20	4.068	V2669-03
 	transect	Porifera	 	2687	 	 	 	1812806	 	2005-07-13 20:58:43.0	Ventana	 	04:23:13:03	 	V2687-05
 	transect	Phyllospadix	799.5	2674	 	36.752693	-122.200836	1774148	0.3	2005-06-08 17:32:43.0	Ventana	34.464	00:17:16:19	4.607	V2674-01
 	transect	Calliostoma platinum	 	2687	 	 	 	1808968	 	2005-07-13 17:32:44.0	Ventana	 	00:59:36:27	 	V2687-01
 	transect	beroe	200.44	2681	 	36.69828	-122.05329	2490256	1.7	2005-07-07 17:06:16.0	Ventana	34.199	00:37:25:10	8.36	V2681-01HD
 	transect	Liponema brevicornis	400.07	2687	 	36.78936	-122.12532	1809674	1.15	2005-07-13 18:33:42.0	Ventana	34.242	02:00:00:14	7.306	V2687-02
 	transect	Parastichopus leukothele	196.38	2696	http://search.mbari.org/ARCHIVE/frameGrabs/Ventana/images/2696/00_32_23_20.jpg	36.802963	-122.12244	1813069	1.55	2005-08-01 17:04:04.0	Ventana	34.199	00:32:23:20	8.606	V2696-01
 	ascend	Crustacea	1192.77	2683	 	36.707268	-122.04766	1757692	0.71	2005-07-11 20:21:38.0	Ventana	34.571	03:56:01:00	3.365	V2683-04
 	cruise	Rathbunaster californicus	92.13	2688	 	36.815834	-122.01712	1679392	1.96	2005-07-14 20:18:58.0	Ventana	34.094	04:03:42:15	8.936	V2688-04
 	transect	Chionoecetes tanneri	1000.27	2669	 	36.731388	-122.24177	1689862	0.4	2005-05-25 19:38:16.0	Ventana	34.508	02:00:13:03	4.076	V2669-02
 	transect	Mediaster	 	2687	 	 	 	1810643	 	2005-07-13 19:26:20.0	Ventana	 	02:52:03:24	 	V2687-03
 	ascend	Leuroglossus stilbius	862.62	2681	 	36.698483	-122.05557	1717359	0.34	2005-07-07 19:53:39.2	Ventana	34.497	03:22:42:05	4.32	V2681-04
 	transect	Allocentrotus fragilis	399.86	2687	 	36.788113	-122.12162	1809231	1.13	2005-07-13 17:37:21.0	Ventana	34.243	01:03:43:12	7.255	V2687-02
 	descend	sinker	574.55	2683	 	36.701878	-122.0491	1756986	0.39	2005-07-11 17:47:05.0	Ventana	34.357	01:31:12:04	5.908	V2683-02
 	transect	Brisaster	 	2687	 	 	 	1812363	 	2005-07-13 20:34:31.0	Ventana	 	03:59:29:14	 	V2687-04
 	descend	Poeobius meseres	1058.54	2683	 	36.705063	-122.04898	1757429	0.49	2005-07-11 19:26:11.0	Ventana	34.534	03:06:33:07	3.834	V2683-03
 	transect	Phyllospadix	800.88	2674	 	36.75258	-122.20199	1799144	0.34	2005-06-08 17:38:46.0	Ventana	34.477	00:23:20:03	4.4	V2674-01
 	transect	molt	100.57	2681	 	36.69983	-122.05429	2489550	2.13	2005-07-07 16:44:40.0	Ventana	34.068	00:15:48:22	9.145	V2681-01HD
 	ascend	Nanomia	397.13	2681	 	36.699295	-122.05452	1717990	0.91	2005-07-07 20:47:59.733	Ventana	34.265	04:16:20:28	6.908	V2681-05
 	ascend	Aegina	944.13	2681	 	36.69747	-122.05392	1716916	0.41	2005-07-07 19:41:56.533	Ventana	34.514	03:10:59:21	4.068	V2681-04
 	transect	molt	100.48	2681	 	36.69934	-122.05398	2489813	2.14	2005-07-07 16:51:10.0	Ventana	34.067	00:22:19:19	9.15	V2681-01HD
 	descend	Dosidicus gigas	403.4	2681	 	36.698017	-122.05375	1715301	0.79	2005-07-07 17:50:41.967	Ventana	34.275	01:21:04:29	6.638	V2681-02
 	transect	Chionoecetes tanneri	799.62	2674	 	36.752502	-122.204445	1799587	0.35	2005-06-08 17:51:46.0	Ventana	34.485	00:36:19:00	4.38	V2674-01
 	transect	Mediaster	 	2687	 	 	 	1807173	 	2005-07-13 17:02:29.0	Ventana	 	00:29:23:09	 	V2687-01
 	ascend	Chaetognatha	258.17	2681	 	36.697838	-122.05522	1719402	 	2005-07-07 21:29:59.0	Ventana	 	05:03:35:19	 	V2681-05
 	descend	Tomopteris	437.16	2682	http://search.mbari.org/ARCHIVE/frameGrabs/Ventana/images/2682/01_40_19_04.jpg	36.698273	-122.0597	1720754	0.64	2005-07-08 17:46:50.0	Ventana	34.304	01:40:19:04	6.427	V2682-02
 	transect	Mesomyaria	800.25	2674	 	36.75119	-122.216446	1803425	0.35	2005-06-08 18:51:10.0	Ventana	34.49	01:35:13:09	4.357	V2674-02
 	transect	Rathbunaster californicus	200.39	2696	 	36.80473	-122.127205	1813512	1.51	2005-08-01 17:55:02.0	Ventana	34.211	01:22:55:02	8.67	V2696-02
 	transect	Rathbunaster californicus	203.53	2696	 	36.806538	-122.13012	1813775	1.48	2005-08-01 18:29:09.0	Ventana	34.215	01:57:00:01	8.646	V2696-02
 	transect	Poeobius meseres	901.08	2681	 	36.69682	-122.052956	2498285	0.39	2005-07-07 19:07:14.0	Ventana	34.506	02:36:55:15	4.16	V2681-03HD
 	transect	Mesomyaria	1000.11	2669	 	36.731007	-122.233116	1683876	0.45	2005-05-25 18:37:35.0	Ventana	34.523	01:00:01:04	3.91	V2669-01
 	ascend	Calycophorae	255.25	2681	 	36.698586	-122.056435	1719139	1.46	2005-07-07 21:23:41.067	Ventana	34.226	04:51:59:17	7.999	V2681-05
 	transect	bathocyroe	500.6	2681	 	36.695892	-122.05135	2493651	0.43	2005-07-07 18:03:58.0	Ventana	34.348	01:34:20:09	6.006	V2681-02HD
 	transect	Microstomus pacificus	 	2687	 	 	 	1810380	 	2005-07-13 19:16:47.0	Ventana	 	02:42:31:09	 	V2687-03
 	descend	Appendicularia	157.13	2683	 	36.700653	-122.051636	1756280	1.69	2005-07-11 16:26:31.0	Ventana	34.175	00:14:12:10	8.806	V2683-01
 	descend	Nanomia	465.22	2683	 	36.701694	-122.0493	1756723	0.78	2005-07-11 17:10:06.0	Ventana	34.284	00:57:46:06	6.665	V2683-01
 	ascend	Appendicularia	683.72	2681	 	36.69874	-122.05457	1717622	0.28	2005-07-07 20:22:20.423	Ventana	34.415	03:51:21:18	5.148	V2681-04
 	cruise	Florometra	153.01	2688	 	36.810978	-122.02199	1677980	1.95	2005-07-14 18:38:24.0	Ventana	34.098	02:23:39:26	8.92	V2688-03
 	endtransect	object	804.13	2674	 	36.750786	-122.220314	1803688	0.34	2005-06-08 19:07:53.0	Ventana	34.485	01:51:55:11	4.383	V2674-02
 	transect	Allocentrotus fragilis	 	2687	 	 	 	1811289	 	2005-07-13 20:05:34.0	Ventana	 	03:30:33:21	 	V2687-04
 	ascend	Nanomia	259.33	2681	 	36.6993	-122.05433	1718636	1.43	2005-07-07 21:14:18.967	Ventana	34.229	04:42:38:00	7.974	V2681-05
 	transect	Psolus squamatus	 	2687	 	 	 	1808848	 	2005-07-13 17:30:24.0	Ventana	 	00:57:16:09	 	V2687-01
 	transect	Phyllospadix	 	2687	 	 	 	1811454	 	2005-07-13 20:13:27.0	Ventana	 	03:38:26:04	 	V2687-04
 	transect	Phyllospadix	799.78	2674	 	36.75176	-122.212166	1801187	0.35	2005-06-08 18:28:51.0	Ventana	34.487	01:12:56:00	4.339	V2674-02
 	transect	Ceriantharia sp. 2	1000.3	2669	 	36.7316	-122.24321	1733785	0.41	2005-05-25 19:45:42.0	Ventana	34.51	02:07:13:17	4.063	V2669-03
 	transect	Mesomyaria	801.87	2674	 	36.75091	-122.21956	1803628	0.35	2005-06-08 19:04:43.0	Ventana	34.49	01:48:45:17	4.362	V2674-02
 	transect	Mediaster	399.67	2687	 	36.78916	-122.124275	1809554	1.18	2005-07-13 18:16:44.0	Ventana	34.238	01:43:03:07	7.364	V2687-02
 	transect	Mesomyaria	999.51	2669	http://search.mbari.org/ARCHIVE/frameGrabs/Ventana/images/2669/00_48_13_12.jpg	36.731018	-122.2313	1683613	0.45	2005-05-25 18:25:47.0	Ventana	34.52	00:48:13:12	3.915	V2669-01
 	transect	myctophidae	500.56	2681	 	36.697365	-122.05306	2493448	0.44	2005-07-07 17:57:32.0	Ventana	34.346	01:27:55:04	6.02	V2681-02HD
 	transect	Psolus squamatus	 	2687	 	 	 	1809028	 	2005-07-13 17:33:59.0	Ventana	 	01:00:50:24	 	V2687-01
 	transect	Mediaster	 	2687	 	 	 	1811657	 	2005-07-13 20:19:38.0	Ventana	 	03:44:36:16	 	V2687-04
 	transect	Gastropoda sp.2	997.48	2669	 	36.73063	-122.22805	1694932	0.45	2005-05-25 18:00:57.0	Ventana	34.522	00:23:24:28	3.907	V2669-01
 	ascend	sinker	276.25	2681	 	36.69972	-122.05497	1718313	1.37	2005-07-07 21:03:34.967	Ventana	34.231	04:31:54:21	7.81	V2681-05
 	ascend	Euphausiacea	258.17	2681	 	36.697838	-122.05522	1719522	 	2005-07-07 21:29:59.0	Ventana	 	05:10:30:15	 	V2681-05
 	transect	Mesomyaria	 	2669	 	 	 	1737593	 	2005-05-25 13:52:37.0	Ventana	 	03:13:25:13	 	V2669-04
 	descend	Gonatus	968.08	2681	 	36.694653	-122.05038	1716533	0.44	2005-07-07 19:19:04.5	Ventana	34.523	02:48:46:11	3.982	V2681-03
 	descend	Chaetognatha	280.42	2682	 	36.699738	-122.060844	1720048	1.32	2005-07-08 16:34:12.0	Ventana	34.226	00:28:15:09	7.649	V2682-01
 	ascend	Appendicularia	724.84	2682	 	36.698803	-122.059265	1723315	0.28	2005-07-08 20:30:15.0	Ventana	34.435	04:22:24:09	4.925	V2682-05
 	ascend	Euphausiacea	 	2683	 	 	 	1758135	 	2005-07-11 14:31:05.0	Ventana	 	05:03:56:11	 	V2683-05
 	cruise	float	503.2	2694	 	36.78448	-122.20046	1676170	0.75	2005-07-27 17:11:19.0	Ventana	34.288	00:04:27:01	6.479	V2694-01
 	stationary	Appendicularia	504.32	2695	 	36.784588	-122.20048	1824508	0.72	2005-07-28 19:39:05.0	Ventana	34.284	04:40:27:13	6.399	V2695-03
 	transect	Umbellula lindahli	599.41	2680	 	36.779423	-122.22451	1804514	0.36	2005-06-27 18:09:48.0	Ventana	34.378	00:49:54:15	5.602	V2680-01
 	ascend	Appendicularia	813.94	2681	 	36.699	-122.056595	1717419	0.32	2005-07-07 19:59:54.467	Ventana	34.474	03:28:57:01	4.52	V2681-04
 	ascend	Leuroglossus stilbius	542.25	2681	 	36.69896	-122.05425	1717727	0.4	2005-07-07 20:32:38.49	Ventana	34.36	04:01:39:01	5.944	V2681-04
 	transect	Mesomyaria	1000.17	2669	 	36.73144	-122.24192	1689922	0.4	2005-05-25 19:39:04.0	Ventana	34.509	02:01:00:28	4.077	V2669-02
 	ascend	Copepoda	729.59	2681	 	36.6987	-122.05536	1717562	0.26	2005-07-07 20:17:36.78	Ventana	34.444	03:46:37:23	4.88	V2681-04
 	transect	Allocentrotus fragilis	 	2687	 	 	 	1810583	 	2005-07-13 19:22:58.0	Ventana	 	02:48:41:27	 	V2687-03
 	transect	Ophiuroidea	998.03	2669	 	36.731136	-122.231	1683493	0.45	2005-05-25 18:22:33.0	Ventana	34.523	00:44:59:18	3.912	V2669-01
 	transect	Mediaster	 	2687	 	 	 	1810763	 	2005-07-13 19:32:57.0	Ventana	 	02:58:40:20	 	V2687-03
 	ascend	Copepoda	928.35	2682	 	36.69796	-122.058495	1723135	0.38	2005-07-08 20:12:15.0	Ventana	34.504	04:04:25:27	4.191	V2682-05
 	transect	Umbellula lindahli	599.84	2680	 	36.777973	-122.223145	1804334	0.36	2005-06-27 17:52:56.0	Ventana	34.379	00:33:03:10	5.589	V2680-01
 	transect	chuniphyes	500.61	2681	 	36.69796	-122.0537	2493268	0.44	2005-07-07 17:54:57.0	Ventana	34.346	01:25:20:09	6.022	V2681-02HD
 	transect	Phyllospadix	802.85	2674	 	36.751823	-122.21009	1800984	0.36	2005-06-08 18:20:20.0	Ventana	34.49	01:04:25:07	4.32	V2674-02
 	cruise	Umbellula lindahli	592.3	2688	 	36.796623	-122.02012	1677394	0.47	2005-07-14 16:41:00.0	Ventana	34.377	00:27:20:01	5.655	V2688-01
 	transect	Dosidicus gigas	400.83	2681	 	36.695747	-122.05113	2492885	0.79	2005-07-07 17:40:36.0	Ventana	34.277	01:11:01:19	6.668	V2681-02HD
 	transect	Mesomyaria	998.73	2669	 	36.73109	-122.23491	1684199	0.45	2005-05-25 18:48:54.0	Ventana	34.522	01:10:54:13	3.919	V2669-02
 	transect	Gastropoda sp.2	999.94	2669	 	36.731056	-122.23884	1694729	0.43	2005-05-25 19:20:33.0	Ventana	34.519	01:42:31:09	3.963	V2669-02
 	descend	Dosidicus gigas	577.26	2681	 	36.6957	-122.05105	1715624	0.35	2005-07-07 18:07:03.5	Ventana	34.372	01:37:25:15	5.611	V2681-02
 	ascend	Aegina	619.76	2683	 	36.70488	-122.050415	1757955	0.3	2005-07-11 21:11:03.0	Ventana	34.392	04:43:55:25	5.5	V2683-05
 	transect	Psolus squamatus	 	2687	 	 	 	1811146	 	2005-07-13 19:56:29.0	Ventana	 	03:21:29:11	 	V2687-04
 	transect	Lycenchelys camchatica	800.05	2674	 	36.752113	-122.20874	1800804	0.35	2005-06-08 18:13:14.0	Ventana	34.489	00:57:45:07	4.334	V2674-01
 	transect	Mesomyaria	999.38	2669	 	36.73141	-122.23625	1684702	0.44	2005-05-25 18:59:28.0	Ventana	34.52	01:21:27:12	3.941	V2669-02
 	transect	Microstomus pacificus	 	2687	 	 	 	1811837	 	2005-07-13 20:26:49.0	Ventana	 	03:51:47:15	 	V2687-04
 	cruise	Glyptocephalus zachirus	251.16	2688	 	36.809464	-122.02041	1677920	1.53	2005-07-14 18:30:33.0	Ventana	34.203	02:15:49:03	8.222	V2688-03
 	descend	Sergestes similis	296.99	2681	 	36.69857	-122.05372	1713626	1.27	2005-07-07 17:17:41.4	Ventana	34.226	00:48:48:16	7.49	V2681-01
 	transect	Euphausia	100.45	2681	 	36.69983	-122.05429	2489490	2.13	2005-07-07 16:42:53.0	Ventana	34.068	00:14:02:25	9.152	V2681-01HD
 	descend	Copepoda	293.69	2693	 	36.697792	-122.06116	1758458	1.34	2005-07-25 19:38:04.0	Ventana	34.238	02:17:39:09	7.803	V2693-03
 	cruise	Apolemia	126.99	2688	 	36.812927	-122.01876	1678100	1.97	2005-07-14 19:25:19.0	Ventana	34.097	03:10:31:29	8.928	V2688-03
 	transect	Mesomyaria	998.86	2669	 	36.732784	-122.25139	1737210	0.41	2005-05-25 20:41:36.0	Ventana	34.51	03:02:26:04	4.076	V2669-04
 	transect	Caecosagitta macrocephala	1001.01	2681	 	36.695396	-122.05137	2498608	0.48	2005-07-07 19:24:32.0	Ventana	34.532	02:54:11:18	3.845	V2681-03HD
 	transect	Salpida	500.6	2681	 	36.696556	-122.05214	2493591	0.44	2005-07-07 18:00:53.0	Ventana	34.348	01:31:16:14	6.011	V2681-02HD
 	transect	Mediaster	 	2687	 	 	 	1807053	 	2005-07-13 16:56:40.0	Ventana	 	00:23:34:04	 	V2687-01
 	cruise	Macrouridae	997.42	2679	 	36.68986	-122.1656	1824365	0.42	2005-06-16 17:32:45.0	Ventana	34.514	00:04:07:16	4.117	V2679-01
 	cruise	Remote Instrument Node	124.36	2672	http://search.mbari.org/ARCHIVE/frameGrabs/Ventana/images/2672/00_19_19_18.jpg	36.803104	-121.80558	20003822	2.7	2005-06-03 14:59:57.0	Ventana	33.952	00:19:19:18	9.338	V2672-01
 	descend	Pleurobrachia	152.66	2682	 	36.699863	-122.06074	1719905	2.12	2005-07-08 16:18:44.44	Ventana	34.124	00:12:49:20	8.597	V2682-01
 	transect	Ophiuroidea	998.34	2669	 	36.732967	-122.252266	1737413	0.4	2005-05-25 20:47:00.0	Ventana	34.508	03:07:48:12	4.076	V2669-04
 	transect	Phyllospadix	798.33	2674	 	36.751614	-122.2138	1801307	0.35	2005-06-08 18:37:01.0	Ventana	34.488	01:21:05:11	4.344	V2674-02
 	ascend	Calycophorae	371.07	2693	 	36.696316	-122.0608	1758661	1.2	2005-07-25 20:26:38.0	Ventana	34.232	03:06:10:08	7.165	V2693-03
 	transect	Sebastes diploproa	399.82	2687	 	36.788074	-122.12156	1809171	1.13	2005-07-13 17:36:30.0	Ventana	34.242	01:02:52:15	7.267	V2687-02
 	transect	Mediaster	 	2687	http://search.mbari.org/ARCHIVE/frameGrabs/Ventana/images/2687/00_25_56_27.jpg	 	 	20005054	 	2005-07-13 16:59:03.0	Ventana	 	00:25:56:27	 	V2687-01
 	ascend	Mysidae	1161.32	2683	 	36.70786	-122.0488	1757752	0.7	2005-07-11 20:33:34.0	Ventana	34.568	04:07:55:12	3.407	V2683-04
 	transect	Mediaster	 	2687	 	 	 	1808645	 	2005-07-13 17:26:01.0	Ventana	 	00:52:54:00	 	V2687-01
 	transect	Ceriantharia sp. 1	598.05	2680	 	36.78117	-122.22613	1804897	0.36	2005-06-27 18:32:45.0	Ventana	34.375	01:11:51:06	5.597	V2680-02
 	transect	molt	100.51	2681	 	36.69983	-122.05429	2489670	2.13	2005-07-07 16:47:27.0	Ventana	34.068	00:18:35:05	9.148	V2681-01HD
 	ascend	Siphonophora	 	2676	 	 	 	1677214	 	2005-06-14 19:33:32.0	Ventana	 	03:12:15:24	 	V2676-03
 	transect	Mesomyaria	999.84	2669	 	36.731808	-122.24454	1734371	0.4	2005-05-25 19:53:30.0	Ventana	34.508	02:15:00:22	4.079	V2669-03
 	transect	Mediaster	 	2687	 	 	 	1812746	 	2005-07-13 20:55:49.0	Ventana	 	04:20:19:13	 	V2687-05
 	descend	Aegina	1196.47	2682	 	36.69844	-122.05857	1722226	0.68	2005-07-08 19:27:26.0	Ventana	34.571	03:20:03:09	3.375	V2682-04
 	transect	Mesomyaria	802.64	2674	 	36.752277	-122.206116	1799895	0.36	2005-06-08 18:00:28.0	Ventana	34.486	00:45:00:16	4.338	V2674-01
 	transect	Psolus squamatus	 	2687	 	 	 	1810260	 	2005-07-13 19:13:06.0	Ventana	 	02:38:50:08	 	V2687-03
 	transect	Mesomyaria	1000.35	2669	 	36.731277	-122.240944	1689359	0.41	2005-05-25 19:33:45.0	Ventana	34.51	01:55:42:18	4.055	V2669-02
 	transect	Mesomyaria	1000.36	2669	 	36.731552	-122.242836	1694549	0.4	2005-05-25 19:43:39.0	Ventana	34.508	02:05:36:05	4.097	V2669-02
 	ascend	sinker	907.64	2681	 	36.697895	-122.0546	1717036	0.37	2005-07-07 19:47:42.133	Ventana	34.503	03:16:44:29	4.2	V2681-04
 	transect	Chionoecetes tanneri	999.9	2669	 	36.731216	-122.23821	1688833	0.43	2005-05-25 19:16:17.0	Ventana	34.518	01:38:16:08	3.954	V2669-02
 	ascend	Appendicularia	521.02	2682	 	36.69829	-122.06298	1723653	0.45	2005-07-08 21:11:33.0	Ventana	34.341	05:03:14:01	6.071	V2682-06
 	transect	Mesomyaria	999.55	2669	 	36.731033	-122.23388	1683996	0.45	2005-05-25 18:41:08.0	Ventana	34.523	01:03:09:03	3.912	V2669-02
 	transect	Chaetognatha	600.59	2681	 	36.696735	-122.05243	2493771	0.3	2005-07-07 18:23:27.0	Ventana	34.388	01:53:49:27	5.477	V2681-02HD
 	transect	Nanomia bijuga	200.37	2681	 	36.69832	-122.05343	2491285	1.66	2005-07-07 17:13:24.0	Ventana	34.2	00:44:31:24	8.34	V2681-01HD
 	starttransect	color bars	700.71	2681	 	36.697887	-122.0537	1716150	0.29	2005-07-07 18:35:54.4	Ventana	34.429	02:05:38:29	4.964	V2681-03
 	transect	Umbellula lindahli	802.08	2674	http://search.mbari.org/ARCHIVE/frameGrabs/Ventana/images/2674/00_10_35_12.jpg	36.752483	-122.19985	1773825	0.29	2005-06-08 17:26:01.0	Ventana	34.461	00:10:35:12	4.642	V2674-01
 	transect	Psolus squamatus	399.88	2687	http://search.mbari.org/ARCHIVE/frameGrabs/Ventana/images/2687/01_06_16_14.jpg	36.788166	-122.121796	1809351	1.13	2005-07-13 17:39:54.0	Ventana	34.252	01:06:16:14	7.29	V2687-02
 	descend	Chaetognatha	1050.6	2682	 	36.698338	-122.059135	1722046	0.48	2005-07-08 19:03:47.0	Ventana	34.532	02:56:48:01	3.856	V2682-03
 	transect	Glyptocephalus zachirus	 	2687	 	 	 	1810966	 	2005-07-13 19:44:54.0	Ventana	 	03:09:55:28	 	V2687-04
 	ascend	Solmissus	336.45	2681	 	36.699432	-122.055275	1718110	1.14	2005-07-07 20:54:15.3	Ventana	34.245	04:22:35:18	7.288	V2681-05
 	transect	Nanomia bijuga	400.75	2681	 	36.69688	-122.05249	2493065	0.79	2005-07-07 17:45:48.0	Ventana	34.277	01:16:10:29	6.659	V2681-02HD
 	transect	sinker	900.98	2681	 	36.695564	-122.05146	2498428	0.39	2005-07-07 19:13:02.0	Ventana	34.504	02:42:42:29	4.172	V2681-03HD
 	transect	Aegina	700.64	2681	 	36.696854	-122.05273	2497699	0.29	2005-07-07 18:40:22.0	Ventana	34.436	02:10:04:13	4.928	V2681-03HD
 	transect	Phyllospadix	197.85	2696	 	36.802658	-122.12169	1812926	1.54	2005-08-01 16:49:18.0	Ventana	34.204	00:17:37:18	8.573	V2696-01
 	cruise	Chionoecetes tanneri	1232.74	2683	 	36.70578	-122.047874	1757549	0.74	2005-07-11 19:52:29.0	Ventana	34.576	03:26:53:14	3.308	V2683-04
 	transect	Acanthamunnopsis milleri	200.39	2681	 	36.698296	-122.053345	2491082	1.69	2005-07-07 17:11:38.0	Ventana	34.198	00:42:46:25	8.335	V2681-01HD
 	transect	Poeobius meseres	700.63	2681	 	36.696655	-122.05255	2497722	0.29	2005-07-07 18:41:07.0	Ventana	34.436	02:10:49:18	4.93	V2681-03HD
 	cruise	mud	338.85	2688	 	36.807808	-122.01991	1677800	1.21	2005-07-14 17:58:25.0	Ventana	34.231	01:44:07:09	7.496	V2688-02
 	transect	Ceriantharia sp. 2	998.3	2669	 	36.730526	-122.22837	1683350	0.45	2005-05-25 18:03:03.0	Ventana	34.523	00:25:31:03	3.908	V2669-01
 	transect	Psolus squamatus	399.84	2687	http://search.mbari.org/ARCHIVE/frameGrabs/Ventana/images/2687/01_02_17_21.jpg	36.788036	-122.12153	1809111	1.13	2005-07-13 17:35:55.0	Ventana	34.244	01:02:17:21	7.27	V2687-02
 	ascend	Chuniphyes	765.4	2681	 	36.69867	-122.05608	1717502	0.29	2005-07-07 20:10:32.253	Ventana	34.451	03:39:34:20	4.787	V2681-04
 	transect	Mediaster	 	2687	 	 	 	1812220	 	2005-07-13 20:29:23.0	Ventana	 	03:54:21:10	 	V2687-04
 	transect	Leuroglossus stilbius	500.58	2681	 	36.69707	-122.05268	2493531	0.44	2005-07-07 17:58:56.0	Ventana	34.345	01:29:19:10	6.03	V2681-02HD
 	transect	Lycenchelys camchatica	999.82	2669	 	36.731342	-122.23784	1687549	0.44	2005-05-25 19:13:27.0	Ventana	34.519	01:35:26:08	3.944	V2669-02
 	ascend	Copepoda	943.29	2682	 	36.69768	-122.05849	1723052	0.42	2005-07-08 20:09:59.0	Ventana	34.514	04:02:08:29	4.057	V2682-05
 	transect	Nanomia bijuga	400.75	2681	 	36.697624	-122.05333	2493185	0.79	2005-07-07 17:48:55.0	Ventana	34.278	01:19:18:12	6.659	V2681-02HD
 	ascend	Crustacea	900.42	2681	 	36.69801	-122.05479	1717156	0.37	2005-07-07 19:48:50.39	Ventana	34.503	03:17:53:19	4.202	V2681-04
 	transect	Umbellula lindahli	598.97	2680	 	36.78013	-122.225136	1804597	0.35	2005-06-27 18:18:51.0	Ventana	34.382	00:58:56:14	5.553	V2680-01
 	descend	Appendicularia	505.02	2683	 	36.701523	-122.04918	1756843	0.68	2005-07-11 17:37:53.0	Ventana	34.305	01:21:59:27	6.462	V2683-02
 	transect	Mesomyaria	800.32	2674	 	36.75173	-122.211624	1801127	0.35	2005-06-08 18:26:27.0	Ventana	34.49	01:10:31:17	4.331	V2674-02
 	transect	Neptunea amianta	602.61	2680	 	36.788036	-122.23212	1805941	0.36	2005-06-27 19:55:53.0	Ventana	34.378	02:34:31:12	5.59	V2680-03
 	cruise	Anoplopoma fimbria	534.22	2688	 	36.798687	-122.019455	1677454	0.62	2005-07-14 17:02:47.0	Ventana	34.325	00:49:05:12	6.242	V2688-01
 	transect	Ophiuroidea	999.44	2669	 	36.731213	-122.23584	1684402	0.44	2005-05-25 18:56:06.0	Ventana	34.521	01:18:05:23	3.935	V2669-02
 	descend	Appendicularia	318.22	2683	 	36.70115	-122.05012	1756520	1.22	2005-07-11 16:54:42.0	Ventana	34.24	00:42:20:26	7.552	V2683-01
 	transect	Mesomyaria	998.45	2669	 	36.731064	-122.23035	1651294	0.45	2005-05-25 18:17:16.0	Ventana	34.522	00:39:43:18	3.91	V2669-01
 	transect	molt	100.52	2681	 	36.699825	-122.05429	2489693	2.13	2005-07-07 16:48:05.0	Ventana	34.067	00:19:14:08	9.15	V2681-01HD
 	ascend	Chaetognatha	296.97	2681	 	36.699722	-122.05524	1718193	1.33	2005-07-07 20:59:37.267	Ventana	34.226	04:27:57:22	7.66	V2681-05
 	transect	Neptunea amianta	1000.05	2669	 	36.73166	-122.24348	1733845	0.41	2005-05-25 19:47:22.0	Ventana	34.511	02:08:53:18	4.069	V2669-03
 	transect	Psolus squamatus	 	2687	http://search.mbari.org/ARCHIVE/frameGrabs/Ventana/images/2687/03_40_03_15.jpg	 	 	1811514	 	2005-07-13 20:15:04.0	Ventana	 	03:40:03:15	 	V2687-04
 	transect	Sebastolobus altivelis	800.99	2674	 	36.75213	-122.20821	1800721	0.35	2005-06-08 18:10:39.0	Ventana	34.49	00:55:11:02	4.32	V2674-01
 	ascend	Calycophorae	589.89	2682	 	36.69879	-122.060684	1723458	0.4	2005-07-08 20:47:04.0	Ventana	34.371	04:39:11:25	5.671	V2682-05
 	transect	Appendicularia	300.44	2681	 	36.69788	-122.05327	2492119	1.23	2005-07-07 17:21:57.0	Ventana	34.233	00:53:05:06	7.4	V2681-01HD
 	descend	Appendicularia	845.24	2683	 	36.702866	-122.04839	1757226	0.33	2005-07-11 18:25:05.0	Ventana	34.482	02:09:09:27	4.408	V2683-02
 	descend	Nanomia	177.11	2693	 	36.696083	-122.05814	1758255	1.93	2005-07-25 18:07:39.0	Ventana	34.148	00:48:08:28	8.885	V2693-01
 	transect	Microstomus pacificus	600.26	2680	 	36.77698	-122.2222	1804191	0.36	2005-06-27 17:40:28.0	Ventana	34.379	00:20:35:27	5.578	V2680-01
 	transect	Mesomyaria	799.99	2674	 	36.752525	-122.20339	1799324	0.35	2005-06-08 17:45:44.0	Ventana	34.481	00:30:17:20	4.39	V2674-01
 	cruise	Parastichopus	240.34	2676	http://search.mbari.org/ARCHIVE/frameGrabs/Ventana/images/2676/01_18_07_11.jpg	36.805817	-122.02945	1676748	1.56	2005-06-14 17:38:24.0	Ventana	34.205	01:18:07:11	8.044	V2676-02
 	ascend	Chaetognatha	254.03	2681	 	36.698353	-122.055885	1719199	1.46	2005-07-07 21:24:43.167	Ventana	34.226	04:53:02:03	7.994	V2681-05
 	transect	Mediaster	 	2687	 	 	 	1812543	 	2005-07-13 20:44:55.0	Ventana	 	04:09:25:28	 	V2687-05
 	transect	Euplexaura	 	2687	 	 	 	1810177	 	2005-07-13 19:05:16.0	Ventana	 	02:31:00:18	 	V2687-03
 	transect	Mesomyaria	801.51	2674	 	36.75221	-122.20775	1800098	0.4	2005-06-08 18:08:22.0	Ventana	34.49	00:52:53:25	4.334	V2674-01
 	descend	Appendicularia	288.43	2683	 	36.701027	-122.05019	1756483	1.29	2005-07-11 16:52:59.0	Ventana	34.241	00:40:40:07	7.765	V2683-01
 	ascend	Poeobius meseres	281.4	2681	 	36.69975	-122.05515	1718253	1.36	2005-07-07 21:01:11.623	Ventana	34.232	04:29:31:25	7.737	V2681-05
 	transect	Ceriantharia sp. 1	800.86	2674	 	36.751125	-122.21725	1803485	0.35	2005-06-08 18:54:54.0	Ventana	34.493	01:38:57:11	4.344	V2674-02
 	transect	Lycodapus	598.49	2680	 	36.782726	-122.22796	1805220	0.35	2005-06-27 18:58:59.0	Ventana	34.382	01:38:03:01	5.563	V2680-02
 	descend	Myctophidae	400.2	2681	 	36.695553	-122.051186	1715121	0.8	2005-07-07 17:33:58.543	Ventana	34.281	01:04:22:18	6.681	V2681-02
 	transect	Calliostoma platinum	 	2687	 	 	 	1806993	 	2005-07-13 16:53:28.0	Ventana	 	00:20:22:16	 	V2687-01
 	transect	Lycenchelys camchatica	800.07	2674	 	36.752434	-122.20483	1799670	0.35	2005-06-08 17:53:42.0	Ventana	34.487	00:38:13:25	4.356	V2674-01
 	descend	Calycophorae	829.49	2682	 	36.698353	-122.05956	1721723	0.33	2005-07-08 18:44:03.0	Ventana	34.481	02:37:06:17	4.454	V2682-03
 	transect	Rathbunaster californicus	200.69	2696	 	36.80525	-122.128174	1813595	1.5	2005-08-01 18:03:06.0	Ventana	34.211	01:30:59:05	8.668	V2696-02
 	transect	Euphausia	200.45	2681	 	36.69828	-122.05329	2490722	1.71	2005-07-07 17:08:31.0	Ventana	34.193	00:39:38:07	8.323	V2681-01HD
 	transect	Ophiuroidea	998.43	2669	 	36.731113	-122.23072	1683410	0.45	2005-05-25 18:20:12.0	Ventana	34.522	00:42:38:19	3.913	V2669-01
 	ascend	Appendicularia	428.98	2681	 	36.699085	-122.05422	1717787	0.71	2005-07-07 20:38:00.033	Ventana	34.284	04:07:00:07	6.59	V2681-04
 	transect	Poeobius meseres	600.53	2681	 	36.697456	-122.053276	2493831	0.3	2005-07-07 18:26:36.0	Ventana	34.388	01:56:57:08	5.47	V2681-02HD
 	transect	Phyllospadix	800.93	2674	 	36.75252	-122.20147	1774208	0.34	2005-06-08 17:35:59.0	Ventana	34.477	00:20:33:03	4.423	V2674-01
 	transect	Psolus squamatus	 	2687	 	 	 	1807699	 	2005-07-13 17:23:16.0	Ventana	 	00:50:08:28	 	V2687-01
 	transect	Rathbunaster californicus	198.07	2696	 	36.8036	-122.12431	1813249	1.53	2005-08-01 17:26:11.0	Ventana	34.203	00:54:28:14	8.612	V2696-01
 	transect	Ophiuroidea	999.91	2669	 	36.731136	-122.24008	1689216	0.41	2005-05-25 19:27:58.0	Ventana	34.51	01:49:56:04	4.061	V2669-02
 	ascend	Crustacea	678.8	2683	 	36.705566	-122.049416	1757895	0.31	2005-07-11 21:07:20.0	Ventana	34.431	04:40:11:17	5.012	V2683-05
 	cruise	Anthomastus ritteri	421.54	2688	 	36.80578	-122.019135	1677717	0.93	2005-07-14 17:47:52.333	Ventana	34.264	01:33:35:06	6.949	V2688-02
 	transect	Sebastolobus altivelis	798.84	2674	 	36.751453	-122.21464	1801367	0.35	2005-06-08 18:42:38.0	Ventana	34.489	01:26:41:15	4.333	V2674-02
 	transect	Florometra serratissima	 	2687	 	 	 	1812626	 	2005-07-13 20:48:34.0	Ventana	 	04:13:04:21	 	V2687-05
 	transect	Neptunea amianta	801.61	2674	 	36.75225	-122.20707	1800015	0.36	2005-06-08 18:05:01.0	Ventana	34.488	00:49:32:27	4.348	V2674-01
 	descend	Poeobius meseres	1099.88	2682	 	36.698227	-122.05915	1722083	0.56	2005-07-08 19:07:48.0	Ventana	34.55	03:00:25:12	3.644	V2682-04
 	transect	Mediaster	 	2687	 	 	 	1808765	 	2005-07-13 17:29:01.0	Ventana	 	00:55:53:13	 	V2687-01
 	transect	Euplexaura	 	2687	 	 	 	1810117	 	2005-07-13 18:58:20.0	Ventana	 	02:24:05:19	 	V2687-03
 	transect	Liponema brevicornis	602.6	2680	 	36.789803	-122.23259	1806730	0.36	2005-06-27 20:13:59.0	Ventana	34.38	02:52:36:16	5.586	V2680-03
 	transect	Ophiuroidea	999.58	2669	 	36.73052	-122.22893	1650934	0.45	2005-05-25 18:06:00.0	Ventana	34.522	00:28:28:04	3.906	V2669-01
 	descend	Chaetognatha	217.22	2693	 	36.696106	-122.058205	1758338	1.69	2005-07-25 18:27:19.0	Ventana	34.193	01:07:24:04	8.611	V2693-02
 	cruise	Parastichopus	193.55	2676	 	36.80678	-122.02949	1676808	1.6	2005-06-14 17:44:21.0	Ventana	34.199	01:24:05:28	8.106	V2676-02
 	transect	Ophiuroidea	999.2	2669	 	36.731388	-122.23639	1684762	0.44	2005-05-25 19:00:26.0	Ventana	34.518	01:22:25:14	3.944	V2669-02
 	ascend	Nanomia	182.48	2682	 	36.696438	-122.060646	1723773	1.96	2005-07-08 21:32:01.0	Ventana	34.175	05:23:42:00	8.401	V2682-06
 	transect	Mediaster	399.85	2687	 	36.78803	-122.121445	1809051	1.15	2005-07-13 17:35:16.0	Ventana	34.24	01:01:38:20	7.293	V2687-02
 	transect	Brisaster	199.59	2696	 	36.80389	-122.12533	1813332	1.52	2005-08-01 17:36:00.0	Ventana	34.207	01:03:53:29	8.636	V2696-02
 	transect	Allocentrotus fragilis	 	2687	 	 	 	1810823	 	2005-07-13 19:35:10.0	Ventana	 	03:00:53:01	 	V2687-03
 	ascend	Aegina	846.03	2683	 	36.70681	-122.04863	1757835	0.37	2005-07-11 20:59:19.0	Ventana	34.498	04:32:12:15	4.266	V2683-05
 	transect	Microstomus pacificus	800.86	2674	http://search.mbari.org/ARCHIVE/frameGrabs/Ventana/images/2674/00_13_04_11.jpg	36.752544	-122.20028	20003882	0.3	2005-06-08 17:28:31.0	Ventana	34.454	00:13:04:11	4.605	V2674-01
 	descend	Copepoda	362.68	2683	 	36.70136	-122.04986	1756580	1.12	2005-07-11 16:57:14.0	Ventana	34.236	00:44:55:05	7.121	V2683-01
 	transect	Ceriantharia sp. 1	600.69	2680	 	36.78648	-122.23109	1805881	0.36	2005-06-27 19:39:03.0	Ventana	34.376	02:17:42:13	5.603	V2680-03
 	transect	Stomphia	999.81	2669	 	36.731773	-122.24442	1734311	0.4	2005-05-25 19:52:27.0	Ventana	34.508	02:13:59:09	4.08	V2669-03
 	transect	Ophiuroidea	999.95	2669	 	36.731808	-122.24497	1735332	0.4	2005-05-25 19:56:26.0	Ventana	34.508	02:17:56:12	4.081	V2669-03
 	transect	Parastichopus leukothele	197.14	2696	 	36.803394	-122.12358	1813189	1.55	2005-08-01 17:17:37.0	Ventana	34.198	00:45:55:06	8.624	V2696-01
 	transect	Stomphia	 	2687	 	 	 	1807639	 	2005-07-13 17:19:54.0	Ventana	 	00:46:46:18	 	V2687-01
 	transect	molt	100.51	2681	 	36.69983	-122.05429	2489610	2.13	2005-07-07 16:46:10.0	Ventana	34.068	00:17:18:23	9.146	V2681-01HD
 	cruise	Rathbunaster californicus	104.25	2688	 	36.81511	-122.01582	1679272	1.97	2005-07-14 19:40:42.0	Ventana	34.088	03:25:29:10	8.9	V2688-04
 	cruise	Rathbunaster californicus	92.01	2688	 	36.814564	-122.01881	1679475	1.95	2005-07-14 21:11:18.0	Ventana	34.098	04:55:31:06	8.925	V2688-05
 	transect	Brisaster	1000.32	2669	 	36.732037	-122.24735	1735881	0.41	2005-05-25 20:14:36.0	Ventana	34.508	02:36:05:16	4.07	V2669-03
 	cruise	Stylasterias	107.89	2688	 	36.815834	-122.02438	1678063	1.96	2005-07-14 19:04:03.56	Ventana	34.09	02:49:17:03	8.889	V2688-03
 	descend	Bathocyroe	761.87	2683	 	36.702423	-122.048904	1757129	0.29	2005-07-11 17:58:15.0	Ventana	34.451	01:42:20:26	4.746	V2683-02
 	transect	Glyptocephalus zachirus	204.06	2696	 	36.805283	-122.12824	1813692	1.48	2005-08-01 18:15:38.0	Ventana	34.213	01:43:29:17	8.633	V2696-02
 	transect	Aegina	1000.94	2681	 	36.69635	-122.052635	2498691	0.47	2005-07-07 19:29:25.0	Ventana	34.53	02:59:05:26	3.878	V2681-03HD
 	descend	Chaetognatha	912.15	2682	 	36.69825	-122.059425	1721783	0.35	2005-07-08 18:51:59.0	Ventana	34.497	02:45:01:07	4.267	V2682-03
 	cruise	Macrouridae	1208.0	2683	http://search.mbari.org/ARCHIVE/frameGrabs/Ventana/images/2683/03_50_10_18.jpg	36.70703	-122.047646	1757632	0.72	2005-07-11 20:15:48.0	Ventana	34.573	03:50:10:18	3.354	V2683-04
 	descend	Phialidium	728.88	2682	 	36.6984	-122.05967	1721580	0.29	2005-07-08 18:27:54.0	Ventana	34.438	02:20:58:01	4.882	V2682-03
 	descend	Aegina	921.32	2683	 	36.703533	-122.0485	1757286	0.38	2005-07-11 18:54:16.0	Ventana	34.504	02:34:38:06	4.198	V2683-03
 	transect	Mesomyaria	800.69	2674	 	36.75247	-122.20456	1799610	0.35	2005-06-08 17:52:30.0	Ventana	34.481	00:37:02:22	4.367	V2674-01
 	transect	Appendicularia	700.64	2681	 	36.697598	-122.05347	2497639	0.29	2005-07-07 18:37:14.0	Ventana	34.432	02:06:57:04	4.981	V2681-03HD
 	transect	Mesomyaria	997.73	2669	 	36.73057	-122.2272	1649116	0.45	2005-05-25 17:55:33.0	Ventana	34.521	00:18:02:03	3.91	V2669-01
 	ascend	Cyclothone	490.84	2683	 	36.70436	-122.050575	1757992	0.67	2005-07-11 21:16:42.0	Ventana	34.305	04:49:33:21	6.478	V2683-05
 	descend	Chaetognatha	492.22	2683	 	36.70149	-122.04937	1756783	0.71	2005-07-11 17:24:03.0	Ventana	34.298	01:08:10:14	6.529	V2683-02
 	transect	Rathbunaster californicus	199.43	2696	 	36.804203	-122.12597	1813392	1.52	2005-08-01 17:42:31.0	Ventana	34.208	01:10:24:20	8.66	V2696-02
 	descend	Appendicularia	438.61	2681	 	36.69808	-122.05385	1715324	0.62	2005-07-07 17:51:50.433	Ventana	34.3	01:22:12:26	6.341	V2681-02
 	transect	Mesomyaria	998.21	2669	 	36.732967	-122.25248	1737450	0.4	2005-05-25 20:48:05.0	Ventana	34.508	03:08:53:10	4.076	V2669-04
 	descend	Phialidium	533.24	2683	 	36.701527	-122.04914	1756926	0.54	2005-07-11 17:42:54.0	Ventana	34.324	01:27:01:00	6.217	V2683-02
 	transect	Parastichopus leukothele	200.33	2696	 	36.804848	-122.12745	1813535	1.51	2005-08-01 17:57:33.0	Ventana	34.213	01:25:26:18	8.672	V2696-02
 	transect	Phyllospadix	998.94	2669	 	36.731186	-122.234344	1684116	0.45	2005-05-25 18:44:17.0	Ventana	34.521	01:06:17:16	3.917	V2669-02
 	descend	Lensia	332.64	2693	 	36.69723	-122.06027	1758541	1.29	2005-07-25 19:53:32.0	Ventana	34.236	02:33:06:24	7.577	V2693-03
 	descend	Euphausiacea	364.88	2682	 	36.698544	-122.06021	1720371	0.98	2005-07-08 17:29:21.0	Ventana	34.26	01:22:51:11	7.055	V2682-02
 	transect	Laminariales	602.02	2680	 	36.790604	-122.23277	1806790	0.35	2005-06-27 20:21:30.0	Ventana	34.379	03:00:06:20	5.586	V2680-03
 	transect	Ophiuroidea	999.83	2669	 	36.731426	-122.2367	1684822	0.44	2005-05-25 19:03:40.0	Ventana	34.52	01:25:39:21	3.938	V2669-02
 	ascend	Aegina	458.18	2682	 	36.698296	-122.062965	1723713	0.62	2005-07-08 21:18:07.0	Ventana	34.302	05:09:48:01	6.365	V2682-06
 	transect	Halipteris californica	599.74	2680	 	36.783287	-122.228676	1805363	0.36	2005-06-27 19:05:40.0	Ventana	34.376	01:44:43:24	5.591	V2680-02
 	transect	Mesomyaria	999.73	2669	 	36.73056	-122.22899	1651031	0.45	2005-05-25 18:06:45.0	Ventana	34.521	00:29:13:02	3.907	V2669-01
 	descend	Copepoda	379.06	2682	 	36.69844	-122.05995	1720671	0.93	2005-07-08 17:35:10.0	Ventana	34.259	01:28:41:23	6.973	V2682-02
 	transect	Phyllospadix	800.87	2674	 	36.75252	-122.201546	1799061	0.34	2005-06-08 17:36:15.0	Ventana	34.485	00:20:49:09	4.422	V2674-01
 	transect	Phyllospadix	 	2687	 	 	 	1812686	 	2005-07-13 20:52:11.0	Ventana	 	04:16:42:03	 	V2687-05
 	transect	Nanomia bijuga	200.43	2681	 	36.69828	-122.05329	2490316	1.69	2005-07-07 17:06:50.0	Ventana	34.199	00:37:59:13	8.355	V2681-01HD
 	transect	Rathbunaster californicus	197.82	2696	 	36.802658	-122.12169	1812986	1.54	2005-08-01 16:49:24.0	Ventana	34.203	00:17:44:04	8.568	V2696-01
 	transect	Psolus squamatus	 	2687	 	 	 	1808705	 	2005-07-13 17:27:29.0	Ventana	 	00:54:22:04	 	V2687-01
 	ascend	Appendicularia	370.94	2693	 	36.696636	-122.06056	1758713	1.2	2005-07-25 20:30:40.0	Ventana	34.233	03:10:13:02	7.177	V2693-03
 	transect	Mediaster	 	2687	 	 	 	1811574	 	2005-07-13 20:16:18.0	Ventana	 	03:41:17:03	 	V2687-04
 	transect	Mediaster	 	2687	 	 	 	1811432	 	2005-07-13 20:12:38.0	Ventana	 	03:37:37:24	 	V2687-04
 	transect	Gastropoda sp.2	 	2669	 	 	 	1737653	 	2005-05-25 13:54:51.0	Ventana	 	03:15:39:10	 	V2669-04
 	transect	Phyllospadix	802.09	2674	 	36.752342	-122.205635	1799812	0.36	2005-06-08 17:57:58.0	Ventana	34.487	00:42:30:04	4.341	V2674-01
 	transect	Phyllospadix	801.45	2674	 	36.75175	-122.210945	1801067	0.35	2005-06-08 18:23:58.0	Ventana	34.491	01:08:02:25	4.329	V2674-02
 	transect	molt	100.47	2681	 	36.6998	-122.054276	2489753	2.12	2005-07-07 16:49:37.0	Ventana	34.067	00:20:47:02	9.156	V2681-01HD
 	ascend	Chuniphyes	975.86	2681	 	36.696976	-122.05339	1716593	0.44	2005-07-07 19:36:28.767	Ventana	34.521	03:06:09:17	3.997	V2681-03
 	transect	Mediaster	 	2687	 	 	 	1807496	 	2005-07-13 17:12:04.0	Ventana	 	00:38:57:07	 	V2687-01
 	transect	Mediaster	 	2687	 	 	 	1812829	 	2005-07-13 20:59:55.0	Ventana	 	04:24:25:04	 	V2687-05
 	descend	Euphausia 2	222.51	2682	 	36.699886	-122.06071	1719965	1.53	2005-07-08 16:21:38.36	Ventana	34.222	00:15:43:12	8.036	V2682-01
 	descend	Praya	31.95	2683	 	36.700893	-122.051544	1756220	4.07	2005-07-11 16:13:31.0	Ventana	33.531	00:01:13:25	9.699	V2683-01
 	endtransect	physical object	 	2687	 	 	 	1810883	 	2005-07-13 19:39:33.0	Ventana	 	03:05:16:02	 	V2687-03
 	cruise	Parastichopus	103.93	2676	 	36.806732	-122.04087	1677154	1.94	2005-06-14 19:14:26.0	Ventana	34.157	02:53:11:12	8.435	V2676-03
 	transect	Brisaster	1000.35	2669	 	36.73147	-122.24211	1694466	0.4	2005-05-25 19:40:10.0	Ventana	34.508	02:02:07:26	4.074	V2669-02
 	ascend	Nanomia	148.25	2693	 	36.69074	-122.06297	1759262	1.92	2005-07-25 21:31:34.0	Ventana	34.114	03:56:06:16	9.069	V2693-04
 	transect	Mesomyaria	999.44	2669	 	36.73133	-122.23592	1684462	0.44	2005-05-25 18:57:06.0	Ventana	34.52	01:19:05:22	3.936	V2669-02
 	transect	Ceriantharia sp. 1	599.37	2680	 	36.778896	-122.22408	1804454	0.36	2005-06-27 18:04:39.0	Ventana	34.376	00:44:45:22	5.604	V2680-01
 	transect	Mediaster	 	2687	 	 	 	1812280	 	2005-07-13 20:30:44.0	Ventana	 	03:55:42:07	 	V2687-04
 	ascend	Appendicularia	1024.63	2682	 	36.697727	-122.057976	1722849	0.47	2005-07-08 20:04:13.0	Ventana	34.529	03:56:48:04	3.883	V2682-04
 	transect	Umbellula lindahli	600.49	2680	http://search.mbari.org/ARCHIVE/frameGrabs/Ventana/images/2680/00_22_56_26.jpg	36.77717	-122.22234	1804251	0.36	2005-06-27 17:42:49.0	Ventana	34.379	00:22:56:26	5.578	V2680-01
 	ascend	Poeobius meseres	916.2	2682	 	36.698112	-122.05846	1723195	0.37	2005-07-08 20:13:28.0	Ventana	34.5	04:05:38:12	4.235	V2682-05
 	ascend	Appendicularia	627.49	2682	 	36.698868	-122.05977	1723398	0.36	2005-07-08 20:37:05.0	Ventana	34.387	04:29:13:21	5.448	V2682-05
 	transect	Sergestes similis	300.32	2681	 	36.698456	-122.05359	2491916	1.25	2005-07-07 17:19:40.0	Ventana	34.232	00:50:48:03	7.431	V2681-01HD
 	cruise	mud	442.43	2688	 	36.804127	-122.01838	1677657	0.88	2005-07-14 17:40:19.0	Ventana	34.273	01:26:03:00	6.846	V2688-02
 	transect	Mesomyaria	800.72	2674	 	36.752026	-122.20907	1800864	0.35	2005-06-08 18:14:59.0	Ventana	34.487	00:59:30:19	4.328	V2674-01
 	transect	Mediaster	 	2687	 	 	 	1811777	 	2005-07-13 20:25:08.0	Ventana	 	03:50:06:22	 	V2687-04
 	cruise	Macrouridae	1008.83	2689	 	36.77158	-122.082855	1669628	0.48	2005-07-18 16:45:14.0	Ventana	34.527	00:08:18:13	3.894	V2689-01
 	transect	Mediaster	 	2687	 	 	 	1811229	 	2005-07-13 20:05:09.0	Ventana	 	03:30:08:21	 	V2687-04
 	transect	Mesomyaria	800.84	2674	 	36.751038	-122.21801	1803545	0.35	2005-06-08 18:58:20.0	Ventana	34.485	01:42:23:06	4.34	V2674-02
 	transect	Halipteris californica	598.78	2680	http://search.mbari.org/ARCHIVE/frameGrabs/Ventana/images/2680/01_28_46_13.jpg	36.782394	-122.227554	1805160	0.35	2005-06-27 18:49:41.0	Ventana	34.379	01:28:46:13	5.586	V2680-02
 	descend	Calycophorae	537.62	2682	 	36.698612	-122.05978	1720874	0.37	2005-07-08 18:03:41.0	Ventana	34.366	01:57:10:17	5.764	V2682-02
 	transect	Ceriantharia sp. 2	1000.49	2669	 	36.73223	-122.24876	1736241	0.41	2005-05-25 20:24:36.0	Ventana	34.512	02:46:05:05	4.07	V2669-03
 	ascend	Chaetognatha	342.68	2693	 	36.693653	-122.06128	1758916	1.25	2005-07-25 21:07:57.0	Ventana	34.234	03:32:30:09	7.414	V2693-04
 	descend	Chaetognatha	1131.99	2683	 	36.705116	-122.048904	1757489	0.62	2005-07-11 19:32:11.0	Ventana	34.55	03:12:31:20	3.61	V2683-03
 	transect	Mesomyaria	798.94	2674	 	36.75173	-122.21271	1801224	0.35	2005-06-08 18:30:31.0	Ventana	34.488	01:14:35:13	4.333	V2674-02
 	transect	Calliostoma platinum	 	2687	 	 	 	1808908	 	2005-07-13 17:31:40.0	Ventana	 	00:58:32:27	 	V2687-01
 	transect	Mediaster	 	2687	 	 	 	1812483	 	2005-07-13 20:41:13.0	Ventana	 	04:06:10:11	 	V2687-04
 	transect	phialidium	800.93	2681	 	36.69539	-122.051216	2498142	0.31	2005-07-07 18:55:29.0	Ventana	34.475	02:25:10:13	4.49	V2681-03HD
 	descend	Calycophorae	330.29	2682	 	36.698795	-122.06062	1720168	1.09	2005-07-08 17:10:49.0	Ventana	34.248	01:04:20:28	7.225	V2682-02
 	transect	Mesomyaria	999.9	2669	 	36.731285	-122.238106	1688367	0.43	2005-05-25 19:15:36.0	Ventana	34.518	01:37:34:19	3.959	V2669-02
 	ascend	Appendicularia	257.44	2681	 	36.698734	-122.056786	1719102	1.44	2005-07-07 21:22:41.767	Ventana	34.226	04:51:00:24	7.957	V2681-05
 	transect	Phyllospadix	800.12	2674	 	36.751263	-122.21605	1803388	0.35	2005-06-08 18:49:29.0	Ventana	34.488	01:33:32:03	4.337	V2674-02
 	transect	Nanomia bijuga	200.45	2681	 	36.69828	-122.05329	2490113	1.7	2005-07-07 17:04:50.0	Ventana	34.197	00:35:57:27	8.36	V2681-01HD
 	transect	Psolus squamatus	 	2687	 	 	 	1810523	 	2005-07-13 19:21:41.0	Ventana	 	02:47:24:25	 	V2687-03
 	transect	Aegina	700.59	2681	 	36.695087	-122.05079	2497985	0.28	2005-07-07 18:48:13.0	Ventana	34.43	02:17:54:14	4.983	V2681-03HD
 	transect	Stomphia	999.88	2669	 	36.732563	-122.25024	1736947	0.41	2005-05-25 20:34:54.0	Ventana	34.509	02:56:22:12	4.067	V2669-03
 	descend	sinker	232.85	2683	 	36.700974	-122.050674	1756423	1.71	2005-07-11 16:49:26.0	Ventana	34.188	00:37:05:24	8.12	V2683-01
 	transect	Phyllospadix	800.58	2674	 	36.752514	-122.20296	1799264	0.35	2005-06-08 17:43:16.0	Ventana	34.486	00:27:49:28	4.377	V2674-01
 	descend	Nanomia	155.16	2693	 	36.696293	-122.05774	1758195	1.97	2005-07-25 17:57:09.0	Ventana	34.117	00:37:41:17	8.964	V2693-01
 	descend	Solmaris	161.47	2683	 	36.700882	-122.051384	1756317	1.68	2005-07-11 16:38:07.0	Ventana	34.176	00:25:47:13	8.802	V2683-01
 	descend	Calycophorae	400.24	2681	 	36.69557	-122.05109	1715218	0.79	2005-07-07 17:36:00.787	Ventana	34.278	01:06:24:20	6.676	V2681-02
 	cruise	mud	470.62	2676	 	36.802425	-122.02932	1676253	0.56	2005-06-14 16:29:43.0	Ventana	34.336	00:13:52:14	6.151	V2676-01
 	ascend	Appendicularia	924.3	2681	 	36.69771	-122.05428	1716999	0.4	2005-07-07 19:45:00.5	Ventana	34.507	03:14:03:15	4.154	V2681-04
 	transect	Psolus squamatus	 	2687	 	 	 	1811049	 	2005-07-13 19:49:30.0	Ventana	 	03:14:31:06	 	V2687-04
 	transect	sinker	800.88	2681	 	36.696346	-122.05235	2498248	0.31	2005-07-07 19:00:02.0	Ventana	34.475	02:29:43:25	4.5	V2681-03HD
 	ascend	Leuroglossus stilbius	260.04	2693	 	36.69138	-122.06232	1759096	1.44	2005-07-25 21:21:27.0	Ventana	34.247	03:45:58:14	8.398	V2693-04
 	transect	Neptunea amianta	602.1	2680	 	36.79172	-122.23298	1806873	0.36	2005-06-27 20:30:09.0	Ventana	34.379	03:08:44:27	5.59	V2680-03
 	transect	Chaetognatha	400.8	2681	 	36.696262	-122.05173	2492982	0.79	2005-07-07 17:43:03.0	Ventana	34.277	01:13:28:01	6.654	V2681-02HD
 	transect	Ophiuroidea	998.97	2669	 	36.731377	-122.23608	1684559	0.44	2005-05-25 18:58:08.0	Ventana	34.522	01:20:07:20	3.94	V2669-02
 	ascend	Solmissus	1135.17	2682	 	36.698208	-122.05748	1722526	0.61	2005-07-08 19:55:47.0	Ventana	34.558	03:48:22:21	3.538	V2682-04
 	transect	Stomphia	801.3	2674	 	36.75195	-122.20974	1800947	0.35	2005-06-08 18:18:44.0	Ventana	34.489	01:02:49:22	4.328	V2674-02
 	transect	Polychaeta	600.58	2681	 	36.6964	-122.052025	2493734	0.3	2005-07-07 18:21:55.0	Ventana	34.388	01:52:16:23	5.48	V2681-02HD
 	transect	Alepocephalus tenebrosus	799.98	2674	http://search.mbari.org/ARCHIVE/frameGrabs/Ventana/images/2674/00_14_52_08.jpg	36.752644	-122.20038	1774111	0.29	2005-06-08 17:30:18.0	Ventana	34.461	00:14:52:08	4.65	V2674-01
 	transect	Sergestes similis	300.45	2681	 	36.69839	-122.05356	2491953	1.25	2005-07-07 17:20:04.0	Ventana	34.234	00:51:11:16	7.43	V2681-01HD
 	transect	Psolus squamatus	399.87	2687	 	36.788128	-122.12177	1809314	1.13	2005-07-13 17:39:23.0	Ventana	34.241	01:05:45:16	7.267	V2687-02
 	cruise	Mesomyaria	998.28	2669	 	36.730488	-122.2268	1649033	0.45	2005-05-25 17:51:13.0	Ventana	34.521	00:13:41:18	3.916	V2669-01
 	transect	Chaetognatha	200.41	2681	 	36.698284	-122.05331	2490925	1.7	2005-07-07 17:09:51.0	Ventana	34.189	00:40:58:20	8.321	V2681-01HD
 	transect	Neptunea amianta	803.82	2674	 	36.750763	-122.22072	1803711	0.34	2005-06-08 19:09:42.0	Ventana	34.485	01:53:44:16	4.402	V2674-02
 	cruise	rock outcrop	360.87	2688	http://search.mbari.org/ARCHIVE/frameGrabs/Ventana/images/2688/01_41_23_27.jpg	36.80752	-122.01975	20005151	1.15	2005-07-14 17:55:41.0	Ventana	34.238	01:41:23:27	7.375	V2688-02
 	transect	Mesomyaria	999.96	2669	 	36.7311	-122.23919	1689119	0.43	2005-05-25 19:22:23.0	Ventana	34.517	01:44:21:22	3.976	V2669-02
 	ascend	Copepoda	1168.93	2683	 	36.70709	-122.04825	1757729	0.7	2005-07-11 20:28:38.0	Ventana	34.569	04:03:00:04	3.404	V2683-04
 	transect	molt	100.49	2681	 	36.69877	-122.05361	2489896	2.14	2005-07-07 16:52:34.0	Ventana	34.068	00:23:42:13	9.136	V2681-01HD
 	stationary	Merluccius productus	501.97	2694	 	36.784634	-122.20049	1676576	0.78	2005-07-27 18:50:45.0	Ventana	34.28	01:33:26:18	6.545	V2694-02
 	cruise	Asteroidea	454.11	2688	 	36.803276	-122.01809	1677620	0.89	2005-07-14 17:34:21.0	Ventana	34.271	01:20:05:04	6.875	V2688-02
 	transect	Gastropoda sp.2	999.44	2669	 	36.731026	-122.23117	1695075	0.45	2005-05-25 18:24:32.0	Ventana	34.522	00:46:58:03	3.91	V2669-01
 	ascend	Copepoda	262.72	2681	 	36.69902	-122.05578	1718719	1.43	2005-07-07 21:16:52.9	Ventana	34.231	04:45:11:24	7.967	V2681-05
 	transect	Gastropoda sp.2	999.17	2669	 	36.73113	-122.23401	1694646	0.45	2005-05-25 18:42:09.0	Ventana	34.523	01:04:10:03	3.913	V2669-02
 	transect	Calycophorae	50.5	2681	 	36.69883	-122.053505	2485382	 	2005-07-07 16:30:56.0	Ventana	 	00:02:05:24	 	V2681-01HD
 	transect	apolemia	200.43	2681	 	36.69828	-122.05329	2490173	1.7	2005-07-07 17:05:26.0	Ventana	34.197	00:36:33:14	8.358	V2681-01HD
 	transect	Mesomyaria	1000.1	2669	 	36.731888	-122.24553	1735392	0.41	2005-05-25 20:00:37.0	Ventana	34.509	02:22:05:27	4.064	V2669-03
 	transect	Stomphia	 	2687	http://search.mbari.org/ARCHIVE/frameGrabs/Ventana/images/2687/00_41_09_03.jpg	 	 	1807533	 	2005-07-13 17:14:15.0	Ventana	 	00:41:09:03	 	V2687-01
 	transect	Stylasterias forreri	 	2687	 	 	 	1808885	 	2005-07-13 17:31:17.0	Ventana	 	00:58:09:17	 	V2687-01
 	cruise	Zoarcidae	1014.81	2689	 	36.771427	-122.0829	1669605	0.53	2005-07-18 16:37:53.0	Ventana	34.526	00:00:57:18	3.909	V2689-01
 	transect	Rathbunaster californicus	204.0	2696	 	36.807583	-122.13122	1813858	1.46	2005-08-01 18:43:37.0	Ventana	34.226	02:10:41:19	8.653	V2696-03
 	ascend	Appendicularia	372.25	2681	 	36.699356	-122.05483	1718027	0.97	2005-07-07 20:50:33.433	Ventana	34.266	04:18:53:29	7.051	V2681-05
 	ascend	Nanomia	258.17	2681	 	36.697838	-122.05522	1719379	 	2005-07-07 21:29:59.0	Ventana	 	05:03:03:03	 	V2681-05
 	transect	Euplexaura	 	2687	 	 	 	1810726	 	2005-07-13 19:29:52.0	Ventana	 	02:55:35:16	 	V2687-03
 	cruise	Stylasterias	89.49	2688	 	36.816586	-122.01598	1679355	2.01	2005-07-14 20:12:14.0	Ventana	34.089	03:56:59:04	8.912	V2688-04
 	transect	Parastichopus leukothele	199.67	2696	 	36.804337	-122.12624	1813429	1.52	2005-08-01 17:45:33.0	Ventana	34.209	01:13:26:20	8.663	V2696-02
 	ascend	Appendicularia	846.95	2681	 	36.69859	-122.055855	1717382	0.32	2005-07-07 19:55:30.4	Ventana	34.489	03:24:33:07	4.371	V2681-04
 	transect	Mesomyaria	999.34	2669	 	36.73271	-122.25124	1737187	0.41	2005-05-25 20:40:27.0	Ventana	34.509	03:01:14:25	4.075	V2669-04
 	descend	Chuniphyes	676.49	2683	 	36.702034	-122.04894	1757069	0.31	2005-07-11 17:53:03.0	Ventana	34.419	01:37:08:27	5.123	V2683-02
 	transect	Aegina	1000.99	2681	 	36.695656	-122.05173	2498631	0.48	2005-07-07 19:26:02.0	Ventana	34.534	02:55:42:18	3.85	V2681-03HD
 	transect	Ceriantharia sp. 1	599.95	2680	 	36.778206	-122.223404	1804371	0.36	2005-06-27 17:55:37.0	Ventana	34.378	00:35:43:23	5.592	V2680-01
 	ascend	Appendicularia	581.42	2682	 	36.698383	-122.0623	1723570	0.37	2005-07-08 21:05:23.0	Ventana	34.364	04:57:30:12	5.769	V2682-05
 	transect	Stomphia	798.38	2674	 	36.75166	-122.2135	1801284	0.35	2005-06-08 18:35:05.0	Ventana	34.487	01:19:09:21	4.353	V2674-02
 	transect	Sebastolobus altivelis	799.11	2674	 	36.75132	-122.21542	1803342	0.35	2005-06-08 18:45:43.0	Ventana	34.494	01:29:47:00	4.361	V2674-02
 	descend	Chuniphyes	750.1	2681	 	36.694897	-122.05056	1716247	0.29	2005-07-07 18:50:24.667	Ventana	34.452	02:20:08:10	4.758	V2681-03
 	transect	Phyllospadix	800.41	2674	 	36.752563	-122.20219	1799167	0.33	2005-06-08 17:39:31.0	Ventana	34.476	00:24:04:19	4.446	V2674-01
 	transect	molt	100.56	2681	 	36.69983	-122.05429	2489573	2.13	2005-07-07 16:45:16.0	Ventana	34.068	00:16:25:09	9.15	V2681-01HD
 	ascend	sinker	783.88	2682	 	36.69866	-122.05894	1723278	0.28	2005-07-08 20:25:58.0	Ventana	34.45	04:18:07:21	4.741	V2682-05
 	ascend	Sergestes similis	251.0	2683	 	36.703033	-122.0507	1758098	1.58	2005-07-11 21:26:48.0	Ventana	34.206	04:59:38:09	8.002	V2683-05
 	descend	Dosidicus gigas	602.15	2681	 	36.695652	-122.05112	1715647	0.3	2005-07-07 18:08:49.067	Ventana	34.388	01:39:10:14	5.476	V2681-02
 	transect	Mesomyaria	1000.6	2669	 	36.73217	-122.24826	1736204	0.41	2005-05-25 20:20:53.0	Ventana	34.51	02:42:22:26	4.062	V2669-03
 	transect	Mediaster	399.66	2687	 	36.78939	-122.12553	1809697	1.13	2005-07-13 18:36:43.0	Ventana	34.242	02:03:02:03	7.259	V2687-02
 	transect	Nanomia bijuga	200.39	2681	 	36.698284	-122.053314	2490985	1.71	2005-07-07 17:10:27.0	Ventana	34.187	00:41:35:27	8.319	V2681-01HD
 	transect	Brisaster	998.98	2669	 	36.73082	-122.22958	1651137	0.45	2005-05-25 18:11:27.0	Ventana	34.522	00:33:54:23	3.906	V2669-01
 	transect	Ceriantharia sp. 1	602.18	2680	 	36.79088	-122.23286	1806813	0.35	2005-06-27 20:23:30.0	Ventana	34.379	03:02:07:06	5.587	V2680-03
 	transect	Phyllospadix	199.92	2696	 	36.80464	-122.12696	1813489	1.51	2005-08-01 17:52:32.0	Ventana	34.213	01:20:25:10	8.672	V2696-02
 	ascend	Appendicularia	591.84	2681	 	36.698936	-122.05425	1717704	0.33	2005-07-07 20:30:18.067	Ventana	34.376	03:59:18:23	5.609	V2681-04
 	transect	Parastichopus leukothele	203.29	2696	 	36.806683	-122.130264	1813798	1.48	2005-08-01 18:31:50.0	Ventana	34.214	01:59:40:14	8.642	V2696-02
 	descend	Appendicularia	277.82	2693	 	36.69802	-122.06136	1758421	1.41	2005-07-25 19:34:47.0	Ventana	34.237	02:14:22:17	8.021	V2693-03
 	transect	tuscaroridae	500.61	2681	 	36.696083	-122.051605	2493628	0.43	2005-07-07 18:02:59.0	Ventana	34.347	01:33:21:21	6.006	V2681-02HD
 	transect	Nanomia bijuga	200.46	2681	 	36.69828	-122.05329	2490233	1.7	2005-07-07 17:06:04.0	Ventana	34.198	00:37:11:08	8.363	V2681-01HD
 	descend	Aegina	717.46	2682	 	36.69847	-122.059906	1721483	0.28	2005-07-08 18:22:39.0	Ventana	34.438	02:15:42:04	4.91	V2682-03
 	transect	Gastropoda sp.2	999.93	2669	 	36.731873	-122.2457	1735452	0.4	2005-05-25 20:01:57.0	Ventana	34.511	02:23:26:24	4.074	V2669-03
 	transect	Poeobius meseres	901.04	2681	 	36.69637	-122.05244	2498308	0.39	2005-07-07 19:09:25.0	Ventana	34.505	02:39:06:16	4.17	V2681-03HD
 	descend	Copepoda	466.87	2683	 	36.7016	-122.049355	1756746	0.77	2005-07-11 17:12:49.0	Ventana	34.287	01:00:27:27	6.65	V2683-01
 	ascend	Chuniphyes	666.36	2681	 	36.69876	-122.05433	1717645	0.29	2005-07-07 20:23:56.667	Ventana	34.411	03:52:58:08	5.215	V2681-04
 	transect	Mediaster	 	2687	 	 	 	1811372	 	2005-07-13 20:09:50.0	Ventana	 	03:34:50:04	 	V2687-04
 	cruise	Pleuronectiformes	610.97	2688	 	36.795815	-122.019745	1677357	0.45	2005-07-14 16:37:06.0	Ventana	34.387	00:23:25:27	5.502	V2688-01
 	transect	Mediaster	 	2687	http://search.mbari.org/ARCHIVE/frameGrabs/Ventana/images/2687/03_43_01_27.jpg	 	 	1811634	 	2005-07-13 20:18:03.0	Ventana	 	03:43:01:27	 	V2687-04
 	transect	Phyllospadix	 	2687	 	 	 	1807150	 	2005-07-13 17:01:39.0	Ventana	 	00:28:33:02	 	V2687-01
 	transect	Psolus squamatus	 	2687	 	 	 	1811109	 	2005-07-13 19:53:41.0	Ventana	 	03:18:42:13	 	V2687-04
 	descend	Chaetognatha	970.63	2683	 	36.704025	-122.048584	1757346	0.42	2005-07-11 19:12:55.0	Ventana	34.519	02:53:18:15	4.035	V2683-03
 	transect	Sebastolobus altivelis	800.99	2674	 	36.752514	-122.20266	1799227	0.35	2005-06-08 17:41:57.0	Ventana	34.487	00:26:30:07	4.377	V2674-01
 	descend	Appendicularia	416.4	2682	 	36.69821	-122.05981	1720731	0.73	2005-07-08 17:39:40.0	Ventana	34.284	01:33:10:27	6.548	V2682-02
 	ascend	Leuroglossus stilbius	694.12	2682	 	36.698883	-122.05941	1723338	0.3	2005-07-08 20:32:34.0	Ventana	34.415	04:24:42:12	5.097	V2682-05
 	ascend	Praya	 	2683	 	 	 	1758158	 	 	Ventana	 	05:07:36:14	 	V2683-05
 	transect	Allocentrotus fragilis	399.86	2687	 	36.7881	-122.12163	1809208	1.13	2005-07-13 17:37:13.0	Ventana	34.243	01:03:35:03	7.262	V2687-02
 	transect	Calycophorae	1001.05	2681	 	36.695057	-122.050964	2498571	0.47	2005-07-07 19:22:49.0	Ventana	34.531	02:52:29:19	3.866	V2681-03HD
 	cruise	Ceriantharia sp. 1	92.27	2688	 	36.815044	-122.0172	1679415	1.96	2005-07-14 20:30:37.0	Ventana	34.094	04:15:20:23	8.947	V2688-04
 	transect	Mediaster	 	2687	 	 	 	1812446	 	2005-07-13 20:39:12.0	Ventana	 	04:04:09:22	 	V2687-04
 	transect	Brisaster	1000.26	2669	 	36.731377	-122.24169	1689839	0.4	2005-05-25 19:37:53.0	Ventana	34.509	01:59:50:01	4.076	V2669-02
 	descend	Munneurycope	594.59	2683	 	36.701927	-122.04907	1757009	0.35	2005-07-11 17:48:52.0	Ventana	34.367	01:32:58:13	5.809	V2683-02
 	transect	Psolus squamatus	 	2687	 	 	 	1808945	 	2005-07-13 17:32:28.0	Ventana	 	00:59:20:13	 	V2687-01
 	ascend	Appendicularia	410.28	2681	 	36.699238	-122.05437	1717967	0.81	2005-07-07 20:46:35.9	Ventana	34.285	04:14:57:21	6.716	V2681-05
 	descend	Appendicularia	298.43	2682	 	36.69921	-122.06058	1720131	1.18	2005-07-08 16:55:24.0	Ventana	34.237	00:49:27:08	7.373	V2682-01
 	ascend	Tiburonia granrojo	966.75	2681	http://search.mbari.org/ARCHIVE/frameGrabs/Ventana/images/2681/03_07_19_12.jpg	36.697155	-122.05356	20004491	0.43	2005-07-07 19:38:16.0	Ventana	34.518	03:07:19:12	4.018	V2681-04
 	transect	Nanomia bijuga	200.37	2681	 	36.698315	-122.05341	2491248	1.67	2005-07-07 17:13:06.0	Ventana	34.201	00:44:15:00	8.34	V2681-01HD
 	cruise	Lycodes	488.09	2688	 	36.801735	-122.018456	1677560	0.78	2005-07-14 17:25:43.933	Ventana	34.29	01:11:28:19	6.637	V2688-02
 	descend	Lobata	50.29	2682	 	36.69991	-122.059975	1719868	3.03	2005-07-08 16:10:05.0	Ventana	33.893	00:04:09:18	9.629	V2682-01
 	ascend	Nanomia	260.1	2681	 	36.699223	-122.05434	1718659	1.43	2005-07-07 21:14:55.0	Ventana	34.23	04:43:14:16	7.972	V2681-05
 	transect	Mediaster	399.7	2687	 	36.78924	-122.12452	1809577	1.17	2005-07-13 18:20:28.0	Ventana	34.239	01:46:47:23	7.346	V2687-02
 	transect	Chionoecetes tanneri	802.15	2674	 	36.75091	-122.21985	1803651	0.35	2005-06-08 19:05:59.0	Ventana	34.487	01:50:01:20	4.37	V2674-02
 	transect	Umbellula lindahli	599.38	2680	 	36.777767	-122.222786	1804311	0.36	2005-06-27 17:50:09.0	Ventana	34.379	00:30:16:00	5.584	V2680-01
 	transect	Psolus squamatus	399.9	2687	 	36.78815	-122.121864	1809374	1.16	2005-07-13 17:40:29.0	Ventana	34.239	01:06:51:20	7.323	V2687-02
 	transect	Chaetognatha	500.62	2681	 	36.697998	-122.05374	2493245	0.44	2005-07-07 17:54:45.0	Ventana	34.347	01:25:07:13	6.021	V2681-02HD
 	transect	Chionoecetes tanneri	1000.28	2669	 	36.73128	-122.24135	1689765	0.4	2005-05-25 19:35:53.0	Ventana	34.507	01:57:50:18	4.091	V2669-02
 	ascend	Copepoda	785.39	2681	 	36.698895	-122.05648	1717442	0.28	2005-07-07 20:03:53.167	Ventana	34.458	03:32:56:00	4.699	V2681-04
 	transect	Psolus squamatus	 	2687	 	 	 	1807593	 	2005-07-13 17:16:30.0	Ventana	 	00:43:23:17	 	V2687-01
 	ascend	Appendicularia	258.17	2681	 	36.697838	-122.05522	1719319	 	2005-07-07 21:29:59.0	Ventana	 	05:00:43:07	 	V2681-05
 	transect	Psolus squamatus	 	2687	 	 	 	1808825	 	2005-07-13 17:30:15.0	Ventana	 	00:57:08:00	 	V2687-01
 	ascend	Haliscera	344.25	2681	 	36.699337	-122.05518	1718087	1.11	2005-07-07 20:53:08.533	Ventana	34.247	04:21:29:27	7.256	V2681-05
 	transect	Phyllospadix	802.24	2674	 	36.751774	-122.21035	1801007	0.35	2005-06-08 18:21:29.0	Ventana	34.488	01:05:34:16	4.332	V2674-02
 	cruise	Appendicularia	107.63	2676	 	36.805183	-122.04356	1677191	1.97	2005-06-14 19:26:16.0	Ventana	34.16	03:05:00:06	8.424	V2676-03
 	ascend	Euphausiacea	258.17	2681	 	36.697838	-122.05522	1719499	 	2005-07-07 21:29:59.0	Ventana	 	05:08:28:05	 	V2681-05
 	transect	Umbellula lindahli	598.11	2680	 	36.78181	-122.22689	1805063	0.36	2005-06-27 18:41:29.0	Ventana	34.377	01:20:34:07	5.597	V2680-02
 	cruise	LRJ Complex	455.92	2676	 	36.802853	-122.0293	1676313	0.59	2005-06-14 16:36:10.0	Ventana	34.336	00:20:19:02	6.261	V2676-01
 	transect	Mesomyaria	999.76	2669	 	36.73099	-122.23385	1683973	0.45	2005-05-25 18:40:45.0	Ventana	34.522	01:02:46:07	3.913	V2669-02
 	descend	Chaetognatha	907.37	2681	 	36.694786	-122.050476	1716510	0.39	2005-07-07 19:17:08.833	Ventana	34.504	02:46:50:25	4.161	V2681-03
 	cruise	Lycodapus	399.64	2688	 	36.806694	-122.01948	1677740	1.03	2005-07-14 17:51:31.2	Ventana	34.25	01:37:13:26	7.146	V2688-02
 	descend	Acanthamunnopsis milleri	300.58	2682	 	36.699608	-122.06076	1720071	1.21	2005-07-08 16:37:37.0	Ventana	34.238	00:31:41:04	7.406	V2682-01
 	transect	Ceriantharia sp. 1	599.3	2680	 	36.77927	-122.22435	1804491	0.36	2005-06-27 18:07:42.0	Ventana	34.377	00:47:48:23	5.601	V2680-01
 	transect	Gastropoda sp.2	997.52	2669	 	36.73061	-122.22698	1694909	0.45	2005-05-25 17:53:58.0	Ventana	34.521	00:16:26:26	3.909	V2669-01
 	transect	Pannychia moseleyi	1000.25	2669	http://search.mbari.org/ARCHIVE/frameGrabs/Ventana/images/2669/02_55_26_18.jpg	36.732517	-122.25014	1736864	0.41	2005-05-25 20:33:59.0	Ventana	34.51	02:55:26:18	4.067	V2669-03
 	transect	molt	100.49	2681	 	36.69916	-122.05386	2489836	2.13	2005-07-07 16:51:34.0	Ventana	34.068	00:22:42:07	9.141	V2681-01HD
 	transect	Rathbunaster californicus	 	2687	 	 	 	1812386	 	2005-07-13 20:36:08.0	Ventana	 	04:01:06:02	 	V2687-04
 	ascend	Appendicularia	471.17	2681	 	36.69899	-122.054214	1717764	0.56	2005-07-07 20:35:57.733	Ventana	34.32	04:04:58:02	6.275	V2681-04
 	transect	Stomphia	 	2687	 	 	 	1809005	 	2005-07-13 17:33:27.0	Ventana	 	01:00:19:24	 	V2687-01
 	transect	Mesomyaria	997.34	2669	 	36.730637	-122.227486	1649153	0.45	2005-05-25 17:57:04.0	Ventana	34.52	00:19:32:25	3.909	V2669-01
 	transect	Phyllospadix	800.43	2674	 	36.751144	-122.216805	1803448	0.35	2005-06-08 18:52:26.0	Ventana	34.487	01:36:29:17	4.363	V2674-02
 	descend	Poeobius meseres	1033.45	2683	 	36.704777	-122.04939	1757406	0.45	2005-07-11 19:24:01.0	Ventana	34.525	03:04:21:26	3.917	V2683-03
 	transect	Psolus squamatus	 	2687	 	 	 	1810034	 	2005-07-13 18:51:50.0	Ventana	 	02:17:36:15	 	V2687-03
 	transect	Mesomyaria	999.85	2669	 	36.730927	-122.231445	1683636	0.45	2005-05-25 18:26:59.0	Ventana	34.521	00:49:25:04	3.919	V2669-01
 	transect	Psolus squamatus	399.84	2687	 	36.788048	-122.121544	1809148	1.13	2005-07-13 17:36:10.0	Ventana	34.242	01:02:32:10	7.271	V2687-02
 	transect	Mediaster	 	2687	 	 	 	1811312	 	2005-07-13 20:06:42.0	Ventana	 	03:31:41:19	 	V2687-04
 	transect	Mesomyaria	998.9	2669	 	36.731133	-122.234764	1684176	0.45	2005-05-25 18:47:48.0	Ventana	34.522	01:09:48:05	3.916	V2669-02
 	transect	Rathbunaster californicus	 	2687	 	 	 	1807210	 	2005-07-13 17:03:33.0	Ventana	 	00:30:27:18	 	V2687-01
 	cruise	Lycodes cortezianus	559.67	2688	http://search.mbari.org/ARCHIVE/frameGrabs/Ventana/images/2688/00_43_27_19.jpg	36.797306	-122.01997	1677417	0.51	2005-07-14 16:57:11.0	Ventana	34.358	00:43:27:19	5.858	V2688-01
 	transect	Ceriantharia sp. 2	1000.21	2669	 	36.731075	-122.23965	1689179	0.41	2005-05-25 19:25:23.0	Ventana	34.51	01:47:21:07	4.062	V2669-02
 	descend	Copepoda	1183.98	2682	 	36.698242	-122.05786	1722406	0.66	2005-07-08 19:41:36.0	Ventana	34.57	03:34:13:01	3.414	V2682-04
 	ascend	Poeobius meseres	639.88	2683	 	36.705086	-122.0501	1757932	0.28	2005-07-11 21:09:52.0	Ventana	34.406	04:42:45:28	5.272	V2683-05
 	transect	Psolus squamatus	 	2687	 	 	 	1811169	 	2005-07-13 19:59:04.0	Ventana	 	03:24:04:16	 	V2687-04
 	ascend	Appendicularia	336.41	2693	 	36.692802	-122.06157	1758976	1.26	2005-07-25 21:13:05.0	Ventana	34.236	03:37:36:26	7.459	V2693-04
 	descend	Bathylagus	787.92	2681	 	36.69491	-122.05056	1716307	0.33	2005-07-07 18:51:37.9	Ventana	34.466	02:21:21:00	4.557	V2681-03
 	transect	Phyllospadix	800.24	2674	 	36.752625	-122.20105	1774171	0.34	2005-06-08 17:33:55.0	Ventana	34.487	00:18:28:29	4.423	V2674-01
 	transect	molt	100.57	2681	 	36.69983	-122.05429	2489513	2.12	2005-07-07 16:43:21.0	Ventana	34.068	00:14:30:12	9.15	V2681-01HD
 	ascend	Calycophorae	710.41	2681	 	36.698704	-122.05505	1717585	0.29	2005-07-07 20:19:41.933	Ventana	34.431	03:48:43:09	5.031	V2681-04
 	transect	Sergestes similis	300.43	2681	 	36.697716	-122.05315	2492156	1.23	2005-07-07 17:22:29.0	Ventana	34.234	00:53:36:10	7.4	V2681-01HD
 	transect	Lycenchelys camchatica	801.33	2674	 	36.75222	-122.20755	1800075	0.38	2005-06-08 18:07:23.0	Ventana	34.495	00:51:54:18	4.339	V2674-01
 	transect	Tomopteridae	400.76	2681	 	36.696747	-122.05232	2493042	0.79	2005-07-07 17:45:14.0	Ventana	34.277	01:15:38:25	6.659	V2681-02HD
 	transect	Mediaster	 	2687	 	 	 	1810989	 	2005-07-13 19:46:40.0	Ventana	 	03:11:41:08	 	V2687-04
 	ascend	Cydippida	208.66	2693	 	36.691086	-122.06259	1759156	1.74	2005-07-25 21:24:50.0	Ventana	34.201	03:49:22:13	8.677	V2693-04
 	transect	Mediaster	 	2687	 	 	 	1812566	 	2005-07-13 20:45:41.0	Ventana	 	04:10:12:11	 	V2687-05
 	transect	Lycenchelys camchatica	1000.35	2669	 	36.731224	-122.241135	1689382	0.41	2005-05-25 19:34:28.0	Ventana	34.512	01:56:25:07	4.058	V2669-02
 	transect	Mediaster	 	2687	 	 	 	1811491	 	2005-07-13 20:14:33.0	Ventana	 	03:39:31:27	 	V2687-04
 	descend	Poeobius meseres	1200.16	2682	 	36.698273	-122.05913	1722203	0.68	2005-07-08 19:16:01.0	Ventana	34.573	03:08:37:13	3.37	V2682-04
 	descend	Calycophorae	438.53	2683	 	36.70151	-122.04944	1756686	0.84	2005-07-11 17:07:58.0	Ventana	34.275	00:55:36:23	6.759	V2683-01
 	transect	Stylasterias forreri	 	2687	 	 	 	1808622	 	2005-07-13 17:25:37.0	Ventana	 	00:52:29:28	 	V2687-01
 	transect	Mesomyaria	1000.42	2669	 	36.731552	-122.24272	1694526	0.4	2005-05-25 19:43:06.0	Ventana	34.507	02:05:03:07	4.093	V2669-02
 	transect	Actiniaria sp. 3	 	2687	 	 	 	1812769	 	2005-07-13 20:56:48.0	Ventana	 	04:21:18:07	 	V2687-05
 	transect	molt	50.36	2681	 	36.69983	-122.05429	2485734	3.05	2005-07-07 16:40:26.0	Ventana	33.9	00:11:35:29	9.65	V2681-01HD
 	transect	Phyllospadix	998.76	2669	 	36.731163	-122.2356	1684356	0.45	2005-05-25 18:54:35.0	Ventana	34.523	01:16:35:03	3.919	V2669-02
 	ascend	Lensia	282.91	2681	 	36.69974	-122.05508	1718290	1.36	2005-07-07 21:02:28.867	Ventana	34.23	04:30:49:05	7.739	V2681-05
 	transect	Mesomyaria	800.36	2674	 	36.75176	-122.21184	1801150	0.35	2005-06-08 18:27:25.0	Ventana	34.489	01:11:29:15	4.341	V2674-02
 	transect	Psolus squamatus	 	2687	 	 	 	1810237	 	2005-07-13 19:11:20.0	Ventana	 	02:37:04:18	 	V2687-03
 	ascend	Appendicularia	595.2	2682	 	36.698765	-122.06089	1723481	0.38	2005-07-08 20:49:09.0	Ventana	34.373	04:41:16:10	5.657	V2682-05
 	ascend	Appendicularia	539.45	2682	 	36.69833	-122.062805	1723630	0.41	2005-07-08 21:10:03.0	Ventana	34.355	05:01:44:19	5.965	V2682-06
 	transect	ink	700.61	2681	 	36.695683	-122.051544	2497879	0.28	2005-07-07 18:45:20.0	Ventana	34.437	02:15:02:00	4.942	V2681-03HD
 	transect	Corallimorphus pilatus	 	2687	 	 	 	1809900	 	2005-07-13 18:47:47.0	Ventana	 	02:13:33:19	 	V2687-03
 	transect	lobata	600.57	2681	 	36.69689	-122.05262	2493794	0.3	2005-07-07 18:24:10.0	Ventana	34.388	01:54:31:07	5.476	V2681-02HD
 	stationary	Merluccius productus	502.39	2694	 	36.784527	-122.20048	1676665	0.72	2005-07-27 20:28:40.0	Ventana	34.291	03:00:48:11	6.429	V2694-03
 	transect	Umbellula lindahli	600.98	2680	 	36.776917	-122.22217	1804168	0.36	2005-06-27 17:39:49.0	Ventana	34.379	00:19:56:26	5.577	V2680-01
 	descend	Calycophorae	303.31	2693	 	36.697662	-122.06091	1758481	1.32	2005-07-25 19:39:28.0	Ventana	34.236	02:19:03:24	7.673	V2693-03
 	transect	Mediaster	 	2687	 	 	 	1810417	 	2005-07-13 19:17:26.0	Ventana	 	02:43:10:21	 	V2687-03
 	transect	Rathbunaster californicus	202.02	2696	 	36.805256	-122.12819	1813632	1.5	2005-08-01 18:08:09.0	Ventana	34.211	01:36:01:11	8.669	V2696-02
 	transect	Ophiuroidea	1000.34	2669	 	36.730938	-122.23295	1683839	0.45	2005-05-25 18:36:27.0	Ventana	34.523	00:58:53:03	3.911	V2669-01
 	transect	Lycenchelys camchatica	999.56	2669	 	36.731426	-122.23631	1684725	0.44	2005-05-25 18:59:59.0	Ventana	34.52	01:21:59:00	3.94	V2669-02
 	descend	Appendicularia	509.0	2683	 	36.70142	-122.04919	1756866	0.68	2005-07-11 17:40:01.0	Ventana	34.305	01:24:08:05	6.461	V2683-02
 	transect	Mesomyaria	997.99	2669	 	36.730568	-122.22827	1649356	0.45	2005-05-25 18:02:21.0	Ventana	34.523	00:24:49:14	3.907	V2669-01
 	transect	Mesomyaria	998.83	2669	 	36.73114	-122.23409	1684033	0.45	2005-05-25 18:42:29.0	Ventana	34.523	01:04:29:17	3.914	V2669-02
 	transect	Hormiphora	200.41	2681	 	36.698296	-122.05335	2491105	1.69	2005-07-07 17:11:50.0	Ventana	34.198	00:42:57:28	8.335	V2681-01HD
 	ascend	Nanomia	258.17	2681	 	36.697838	-122.05522	1719582	 	2005-07-07 21:29:59.0	Ventana	 	05:15:38:01	 	V2681-05
 	transect	Stomphia	1001.0	2669	http://search.mbari.org/ARCHIVE/frameGrabs/Ventana/images/2669/02_49_21_12.jpg	36.732277	-122.24929	1736324	0.4	2005-05-25 20:27:52.0	Ventana	34.508	02:49:21:12	4.072	V2669-03
 	transect	Psolus squamatus	399.86	2687	http://search.mbari.org/ARCHIVE/frameGrabs/Ventana/images/2687/01_02_12_24.jpg	36.788044	-122.12152	1809088	1.14	2005-07-13 17:35:50.0	Ventana	34.237	01:02:12:24	7.276	V2687-02
 	descend	Solmissus	366.43	2693	 	36.69618	-122.06091	1758624	1.2	2005-07-25 20:20:41.0	Ventana	34.234	03:00:13:03	7.195	V2693-03
 	transect	Rathbunaster californicus	202.8	2696	 	36.805256	-122.12819	1813655	1.46	2005-08-01 18:11:47.0	Ventana	34.216	01:39:38:17	8.593	V2696-02
 	transect	Phyllospadix	998.96	2669	 	36.731384	-122.23645	1684785	0.44	2005-05-25 19:01:22.0	Ventana	34.52	01:23:21:13	3.941	V2669-02
 	ascend	Euphausiacea	253.33	2682	 	36.69679	-122.06108	1723750	1.39	2005-07-08 21:29:00.0	Ventana	34.233	05:20:41:16	7.942	V2682-06
 	transect	Nanomia bijuga	200.4	2681	 	36.6983	-122.05337	2491128	1.68	2005-07-07 17:12:10.0	Ventana	34.198	00:43:17:21	8.337	V2681-01HD
 	descend	Appendicularia	518.35	2683	 	36.701458	-122.04915	1756889	0.6	2005-07-11 17:41:12.0	Ventana	34.311	01:25:18:05	6.323	V2683-02
 	transect	Chionoecetes tanneri	798.83	2674	 	36.751373	-122.215126	1801404	0.35	2005-06-08 18:44:31.0	Ventana	34.489	01:28:34:11	4.339	V2674-02
 	stationary	Pleuronectiformes	504.09	2695	 	36.784534	-122.20048	1824471	0.68	2005-07-28 18:27:58.0	Ventana	34.294	01:16:14:26	6.299	V2695-02
 	cruise	shelf	264.12	2676	http://search.mbari.org/ARCHIVE/frameGrabs/Ventana/images/2676/01_15_25_26.jpg	36.805435	-122.029465	1676725	1.53	2005-06-14 17:35:42.0	Ventana	34.207	01:15:25:26	7.983	V2676-02
 	transect	sinker	901.0	2681	 	36.69544	-122.051254	2498451	0.39	2005-07-07 19:13:44.0	Ventana	34.505	02:43:26:02	4.171	V2681-03HD
 	cruise	shell hash	102.54	2688	 	36.81408	-122.01747	1679235	1.98	2005-07-14 19:34:31.197	Ventana	34.094	03:19:18:27	8.915	V2688-04
 	transect	Psolus squamatus	 	2687	 	 	 	1810500	 	2005-07-13 19:21:01.0	Ventana	 	02:46:45:04	 	V2687-03
 	transect	Appendicularia	300.41	2681	 	36.696648	-122.05223	2492502	1.23	2005-07-07 17:26:06.0	Ventana	34.234	00:57:12:15	7.397	V2681-01HD
 	cruise	Asteronyx	521.24	2688	 	36.79967	-122.01901	1677477	0.65	2005-07-14 17:07:38.0	Ventana	34.315	00:53:55:12	6.351	V2688-01
 	transect	Ceriantharia sp. 1	602.39	2680	 	36.787434	-122.23179	1805918	0.36	2005-06-27 19:49:30.0	Ventana	34.378	02:28:08:03	5.593	V2680-03
 	transect	Gastropoda sp.2	1000.19	2669	 	36.73164	-122.24337	1733822	0.41	2005-05-25 19:46:49.0	Ventana	34.511	02:08:19:07	4.069	V2669-03
 	transect	Mesomyaria	999.55	2669	 	36.731197	-122.23576	1684379	0.44	2005-05-25 18:55:34.0	Ventana	34.519	01:17:33:19	3.934	V2669-02
 	ascend	Appendicularia	311.43	2681	 	36.69966	-122.05526	1718170	1.26	2005-07-07 20:58:14.27	Ventana	34.235	04:26:34:25	7.513	V2681-05
 	descend	Nanomia	169.13	2682	 	36.699883	-122.06075	1719928	2.24	2005-07-08 16:19:34.0	Ventana	34.122	00:13:38:28	8.307	V2682-01
 	transect	Ophiuroidea	998.41	2669	 	36.731056	-122.230545	1651317	0.45	2005-05-25 18:18:31.0	Ventana	34.522	00:40:57:27	3.909	V2669-01
 	cruise	Coryphaenoides acrolepis	 	2673	 	 	 	1668396	 	 	Ventana	 	00:23:18:21	 	V2673-01
 	cruise	Macrouridae	1017.1	2689	 	36.771553	-122.08295	1669748	0.55	2005-07-18 17:13:19.0	Ventana	34.537	00:36:21:11	3.688	V2689-01
 	ascend	Chaetognatha	256.92	2681	 	36.697968	-122.05501	1719236	1.46	2005-07-07 21:26:15.733	Ventana	34.224	04:54:35:00	7.989	V2681-05
 	transect	Lycenchelys camchatica	802.17	2674	 	36.752247	-122.2069	1799992	0.37	2005-06-08 18:04:17.0	Ventana	34.49	00:48:49:16	4.328	V2674-01
 	transect	molt	100.5	2681	 	36.699825	-122.05429	2489716	2.13	2005-07-07 16:48:33.0	Ventana	34.067	00:19:43:02	9.151	V2681-01HD
 	transect	Ophiuroidea	999.9	2669	 	36.731422	-122.236755	1686866	0.44	2005-05-25 19:03:57.0	Ventana	34.52	01:25:56:07	3.943	V2669-02
 	descend	Calycophorae	186.34	2693	 	36.696068	-122.058174	1758278	1.83	2005-07-25 18:13:44.0	Ventana	34.179	00:54:14:01	8.878	V2693-01
 	transect	Porifera	 	2687	 	 	 	1812649	 	2005-07-13 20:49:43.0	Ventana	 	04:14:13:16	 	V2687-05
 	transect	Phyllospadix	800.26	2674	 	36.752544	-122.20354	1799347	0.35	2005-06-08 17:46:32.0	Ventana	34.485	00:31:05:26	4.367	V2674-01
 	transect	Porifera sp. 1	 	2687	 	 	 	1808742	 	2005-07-13 17:28:17.0	Ventana	 	00:55:09:18	 	V2687-01
 	transect	Chaetognatha	300.46	2681	 	36.697945	-122.05332	2492096	1.24	2005-07-07 17:21:43.0	Ventana	34.234	00:52:50:02	7.402	V2681-01HD
 	transect	Mesomyaria	999.97	2669	 	36.730976	-122.23257	1683779	0.45	2005-05-25 18:34:09.0	Ventana	34.521	00:56:34:27	3.912	V2669-01
 	transect	Neptunea amianta	600.25	2680	 	36.777134	-122.22228	1804228	0.36	2005-06-27 17:41:56.0	Ventana	34.378	00:22:04:00	5.578	V2680-01
 	ascend	Cyclothone	756.99	2681	 	36.69871	-122.055855	1717525	0.28	2005-07-07 20:12:54.5	Ventana	34.447	03:41:56:08	4.817	V2681-04
 	descend	Dosidicus gigas	772.94	2682	 	36.698387	-122.05976	1721663	0.29	2005-07-08 18:32:25.0	Ventana	34.457	02:25:29:10	4.698	V2682-03
 	transect	Mediaster	 	2687	 	 	 	1812243	 	2005-07-13 20:29:49.0	Ventana	 	03:54:47:22	 	V2687-04
 	descend	Appendicularia	360.61	2682	 	36.69859	-122.06039	1720334	1.0	2005-07-08 17:22:30.0	Ventana	34.255	01:16:03:08	7.079	V2682-02
 	transect	Nanomia bijuga	400.76	2681	 	36.69751	-122.05319	2493162	0.79	2005-07-07 17:48:25.0	Ventana	34.277	01:18:48:13	6.66	V2681-02HD
 	ascend	Poeobius meseres	1068.57	2682	 	36.698048	-122.05754	1722729	0.52	2005-07-08 20:00:58.0	Ventana	34.543	03:53:33:04	3.733	V2682-04
 	transect	Porifera sp. 1	 	2687	 	 	 	1807676	 	2005-07-13 17:22:14.0	Ventana	 	00:49:06:23	 	V2687-01
 	transect	Sebastolobus	 	2687	 	 	 	1809840	 	2005-07-13 18:45:28.0	Ventana	 	02:11:14:00	 	V2687-03
 	transect	Ophiuroidea	1000.32	2669	 	36.731506	-122.24241	1694503	0.41	2005-05-25 19:41:32.0	Ventana	34.511	02:03:29:08	4.062	V2669-02
 	ascend	Poeobius meseres	962.3	2681	 	36.69725	-122.05367	1716833	0.43	2005-07-07 19:39:25.233	Ventana	34.518	03:08:29:02	4.03	V2681-04
 	descend	Myctophidae	557.02	2682	 	36.69863	-122.05979	1720911	0.34	2005-07-08 18:06:00.0	Ventana	34.37	01:59:28:18	5.654	V2682-02
 	descend	Appendicularia	267.31	2683	 	36.700954	-122.050354	1756460	1.37	2005-07-11 16:51:41.0	Ventana	34.229	00:39:22:01	7.876	V2683-01
 	transect	Mesomyaria	799.56	2674	 	36.752525	-122.20402	1799430	0.35	2005-06-08 17:49:08.0	Ventana	34.486	00:33:40:27	4.37	V2674-01
 	descend	Chaetognatha	394.21	2681	 	36.695553	-122.05119	1715098	0.82	2005-07-07 17:33:08.7	Ventana	34.275	01:03:32:24	6.694	V2681-02
 	transect	Mesomyaria	801.05	2674	 	36.751083	-122.217514	1803508	0.35	2005-06-08 18:56:08.0	Ventana	34.491	01:40:10:16	4.345	V2674-02
 	transect	Rathbunaster californicus	 	2687	 	 	 	1811814	 	2005-07-13 20:26:16.0	Ventana	 	03:51:14:23	 	V2687-04
 	descend	sinker	257.3	2681	 	36.698574	-122.05358	1713603	1.46	2005-07-07 17:16:21.17	Ventana	34.214	00:47:29:12	7.88	V2681-01
 	transect	Mesomyaria	800.14	2674	 	36.75207	-122.20888	1800827	0.35	2005-06-08 18:13:50.0	Ventana	34.488	00:58:21:20	4.33	V2674-01
 	transect	Salpida	400.76	2681	 	36.697166	-122.052795	2493102	0.79	2005-07-07 17:46:58.0	Ventana	34.277	01:17:22:14	6.661	V2681-02HD
 	stationary	Merluccius productus	501.79	2694	 	36.78453	-122.2005	1676396	0.74	2005-07-27 18:00:39.0	Ventana	34.284	00:53:44:02	6.476	V2694-01
 	ascend	Nanomia	179.59	2693	 	36.690624	-122.062935	1759239	1.95	2005-07-25 21:29:46.0	Ventana	34.133	03:54:16:26	8.871	V2693-04
 	transect	Phyllospadix	799.82	2674	 	36.75246	-122.20497	1799693	0.35	2005-06-08 17:54:34.0	Ventana	34.486	00:39:06:16	4.357	V2674-01
 	starttransect	physical object	 	2687	 	 	 	1810906	 	2005-07-13 19:42:21.0	Ventana	 	03:07:23:01	 	V2687-04
 	transect	Actiniaria sp. 1	999.33	2669	 	36.731018	-122.23214	1683719	0.45	2005-05-25 18:30:41.0	Ventana	34.521	00:53:06:26	3.916	V2669-01
 	transect	Pennatulacea sp.1	602.3	2680	 	36.79022	-122.23268	1806753	0.35	2005-06-27 20:17:30.0	Ventana	34.379	02:56:07:01	5.589	V2680-03
 	cruise	Actiniaria	499.68	2695	 	36.78381	-122.199585	1824411	0.89	2005-07-28 17:01:28.0	Ventana	34.264	00:07:50:28	6.71	V2695-01
 	transect	Ophiuroidea	999.49	2669	http://search.mbari.org/ARCHIVE/frameGrabs/Ventana/images/2669/00_26_52_10.jpg	36.730495	-122.22861	1650911	0.45	2005-05-25 18:04:24.0	Ventana	34.522	00:26:52:10	3.906	V2669-01
 	ascend	Appendicularia	492.88	2682	 	36.698315	-122.0633	1723690	0.51	2005-07-08 21:14:36.0	Ventana	34.329	05:06:17:26	6.201	V2682-06
 	transect	Mediaster	 	2687	 	 	 	1807016	 	2005-07-13 16:54:34.0	Ventana	 	00:21:29:05	 	V2687-01
 	transect	Phyllospadix	199.18	2696	 	36.8038	-122.12502	1813309	1.53	2005-08-01 17:32:58.0	Ventana	34.213	01:01:15:10	8.638	V2696-01
 	ascend	Medusae	342.34	2693	 	36.693153	-122.06138	1758953	1.25	2005-07-25 21:11:12.0	Ventana	34.237	03:35:45:17	7.419	V2693-04
 	transect	Mediaster	 	2687	 	 	 	1811192	 	2005-07-13 20:00:29.0	Ventana	 	03:25:29:11	 	V2687-04
 	transect	Allocentrotus fragilis	 	2687	 	 	 	1808682	 	2005-07-13 17:27:03.0	Ventana	 	00:53:56:02	 	V2687-01
 	transect	Phyllospadix	799.33	2674	 	36.752457	-122.20517	1799729	0.36	2005-06-08 17:55:45.0	Ventana	34.486	00:40:18:04	4.357	V2674-01
 	transect	Ophiuroidea	1000.25	2669	 	36.73114	-122.240326	1689239	0.41	2005-05-25 19:29:19.0	Ventana	34.51	01:51:16:21	4.06	V2669-02
 	descend	Chaetognatha	333.38	2683	 	36.701225	-122.05004	1756543	1.22	2005-07-11 16:55:34.0	Ventana	34.229	00:43:14:17	7.406	V2683-01
 	cruise	Lycodapus	1221.15	2683	 	36.706272	-122.047516	1757609	0.72	2005-07-11 20:07:46.0	Ventana	34.574	03:42:08:02	3.346	V2683-04
 	transect	Ceriantharia sp. 1	799.18	2674	 	36.75155	-122.21419	1801344	0.35	2005-06-08 18:39:35.0	Ventana	34.488	01:23:39:12	4.338	V2674-02
 	transect	Hastigerinella digitata	300.4	2681	 	36.695934	-122.05155	2492585	1.24	2005-07-07 17:28:47.0	Ventana	34.234	00:59:54:18	7.427	V2681-01HD
 	descend	Siphonophora	979.32	2682	 	36.698326	-122.059235	1722009	0.43	2005-07-08 18:57:27.0	Ventana	34.52	02:50:30:04	4.004	V2682-03
 	descend	Bathocyroe	1074.98	2682	 	36.69832	-122.059166	1722060	0.51	2005-07-08 19:05:21.0	Ventana	34.541	02:58:22:11	3.768	V2682-03
 	transect	Porifera sp. 1	 	2687	 	 	 	1810094	 	2005-07-13 18:55:52.0	Ventana	 	02:21:38:01	 	V2687-03
 	transect	Sebastolobus	999.68	2669	 	36.731358	-122.237724	1687526	0.44	2005-05-25 19:12:23.0	Ventana	34.52	01:34:21:17	3.947	V2669-02
 	ascend	Appendicularia	777.52	2681	 	36.698784	-122.05634	1717465	0.29	2005-07-07 20:06:31.4	Ventana	34.453	03:35:33:17	4.743	V2681-04
 	transect	Euphausia	200.48	2681	 	36.69828	-122.05329	2490699	1.72	2005-07-07 17:08:21.0	Ventana	34.194	00:39:28:22	8.323	V2681-01HD
 	transect	Ophiuroidea	998.44	2669	 	36.731144	-122.23076	1683433	0.45	2005-05-25 18:20:44.0	Ventana	34.523	00:43:10:14	3.914	V2669-01
 	descend	Chaetognatha	863.02	2682	 	36.69832	-122.05944	1721746	0.32	2005-07-08 18:48:46.0	Ventana	34.486	02:41:49:20	4.377	V2682-03
 	transect	Mesomyaria	800.84	2674	 	36.752113	-122.20834	1800744	0.35	2005-06-08 18:11:14.0	Ventana	34.488	00:55:45:18	4.328	V2674-01
 	ascend	Calycophorae	895.43	2681	 	36.698063	-122.05492	1717179	0.37	2005-07-07 19:49:33.933	Ventana	34.505	03:18:37:04	4.209	V2681-04
 	transect	Mesomyaria	1000.11	2669	 	36.731773	-122.24496	1734491	0.4	2005-05-25 19:56:04.0	Ventana	34.509	02:17:35:12	4.075	V2669-03
 	transect	Rathbunaster californicus	197.78	2696	 	36.80352	-122.12404	1813226	1.54	2005-08-01 17:22:42.0	Ventana	34.199	00:50:59:12	8.61	V2696-01
 	transect	Phyllospadix	599.34	2680	 	36.779926	-122.22499	1804574	0.35	2005-06-27 18:16:44.0	Ventana	34.381	00:56:49:16	5.546	V2680-01
 	descend	Poeobius meseres	1184.68	2682	 	36.698566	-122.05835	1722263	0.67	2005-07-08 19:35:36.0	Ventana	34.573	03:28:12:27	3.39	V2682-04
 	ascend	Poeobius meseres	1054.02	2683	 	36.707527	-122.04918	1757812	0.52	2005-07-11 20:47:38.0	Ventana	34.536	04:21:58:29	3.824	V2683-04
 	transect	Mediaster	 	2687	 	 	 	1807067	 	2005-07-13 16:57:09.0	Ventana	 	00:24:03:14	 	V2687-01
 	transect	Neptunea amianta	598.4	2680	 	36.78098	-122.22592	1804837	0.35	2005-06-27 18:29:48.0	Ventana	34.38	01:08:53:27	5.585	V2680-02
 	descend	Appendicularia	380.36	2683	 	36.701447	-122.0498	1756603	1.05	2005-07-11 16:58:13.0	Ventana	34.244	00:45:53:26	6.991	V2683-01
 	transect	Chionoecetes tanneri	802.67	2674	 	36.75223	-122.2064	1799932	0.36	2005-06-08 18:01:43.0	Ventana	34.489	00:46:15:14	4.339	V2674-01
 	transect	Ceriantharia sp. 1	600.93	2680	 	36.786095	-122.23088	1805858	0.36	2005-06-27 19:34:36.0	Ventana	34.378	02:13:15:10	5.599	V2680-03
 	transect	Euplexaura	 	2687	http://search.mbari.org/ARCHIVE/frameGrabs/Ventana/images/2687/00_44_52_29.jpg	 	 	1807616	 	2005-07-13 17:18:00.0	Ventana	 	00:44:52:29	 	V2687-01
 	transect	molt	100.52	2681	 	36.69983	-122.05429	2489633	2.13	2005-07-07 16:46:40.0	Ventana	34.068	00:17:49:25	9.144	V2681-01HD
 	cruise	slope	106.25	2688	 	36.81572	-122.01487	1679295	1.98	2005-07-14 19:45:50.0	Ventana	34.087	03:30:36:14	8.9	V2688-04
 	descend	Copepoda	798.91	2683	 	36.70266	-122.04879	1757152	0.36	2005-07-11 18:00:46.0	Ventana	34.459	01:44:50:06	4.639	V2683-02
 	transect	Euphausia	200.43	2681	 	36.69828	-122.0533	2490842	1.71	2005-07-07 17:09:09.0	Ventana	34.195	00:40:17:17	8.326	V2681-01HD
 	stationary	Actiniaria sp. 3	 	2687	 	 	 	1806956	 	2005-07-13 16:50:10.0	Ventana	 	00:17:04:26	 	V2687-01
 	descend	Appendicularia	228.3	2693	 	36.698635	-122.06163	1758361	1.5	2005-07-25 19:19:20.0	Ventana	34.241	01:59:21:06	8.589	V2693-02
 	transect	Phyllospadix	801.2	2674	 	36.752556	-122.201675	1799084	0.34	2005-06-08 17:36:46.0	Ventana	34.483	00:21:19:28	4.416	V2674-01
 	transect	Euphausia	200.44	2681	 	36.69828	-122.05329	2490639	1.73	2005-07-07 17:07:57.0	Ventana	34.193	00:39:05:04	8.328	V2681-01HD
 	transect	Hippasteria	 	2687	 	 	 	1812709	 	2005-07-13 20:53:51.0	Ventana	 	04:18:22:01	 	V2687-05
 	transect	molt	50.48	2681	 	36.699768	-122.05426	2485465	2.97	2005-07-07 16:33:06.0	Ventana	33.919	00:04:16:00	9.624	V2681-01HD
 	transect	Phyllospadix	800.5	2674	 	36.7525	-122.203094	1799287	0.34	2005-06-08 17:44:05.0	Ventana	34.479	00:28:38:00	4.411	V2674-01
 	transect	Mesomyaria	999.82	2669	 	36.73061	-122.22913	1651054	0.45	2005-05-25 18:07:50.0	Ventana	34.522	00:30:18:04	3.909	V2669-01
 	descend	Copepoda	210.07	2683	 	36.701015	-122.05085	1756400	1.72	2005-07-11 16:48:00.0	Ventana	34.193	00:35:40:22	8.285	V2683-01
 	descend	Hastigerinella digitata	335.92	2693	 	36.69712	-122.05998	1758564	1.29	2005-07-25 19:57:54.0	Ventana	34.235	02:37:29:11	7.582	V2693-03
 	transect	Phyllospadix	800.69	2674	 	36.75244	-122.204636	1799633	0.36	2005-06-08 17:52:57.0	Ventana	34.49	00:37:30:11	4.348	V2674-01
 	transect	Aegina	700.73	2681	 	36.69788	-122.0537	2497616	0.29	2005-07-07 18:35:57.0	Ventana	34.429	02:05:40:27	4.964	V2681-03HD
 	descend	Appendicularia	513.41	2682	 	36.69859	-122.05978	1720851	0.4	2005-07-08 18:00:58.0	Ventana	34.354	01:54:27:25	5.909	V2682-02
 	descend	Euphausiacea	148.38	2683	 	36.7006	-122.05149	1756257	1.7	2005-07-11 16:21:02.0	Ventana	34.169	00:08:43:17	8.875	V2683-01
 	cruise	Sebastolobus	612.0	2688	 	36.795288	-122.01907	1677334	0.45	2005-07-14 16:33:36.0	Ventana	34.39	00:19:55:28	5.505	V2688-01
 	transect	Nanomia bijuga	200.38	2681	 	36.69829	-122.05333	2491045	1.69	2005-07-07 17:11:08.0	Ventana	34.196	00:42:16:07	8.332	V2681-01HD
 	transect	Mesomyaria	998.17	2669	 	36.733013	-122.2527	1737473	0.4	2005-05-25 20:49:03.0	Ventana	34.509	03:09:52:03	4.074	V2669-04
 	descend	Doliolula equus	545.63	2683	 	36.701637	-122.04916	1756949	0.49	2005-07-11 17:44:03.0	Ventana	34.328	01:28:08:18	6.129	V2683-02
 	cruise	Parastichopus	221.76	2676	 	36.806053	-122.02929	1676785	1.59	2005-06-14 17:40:34.0	Ventana	34.203	01:20:17:12	8.069	V2676-02
 	descend	Copepoda	401.12	2682	 	36.698284	-122.05987	1720708	0.84	2005-07-08 17:37:51.0	Ventana	34.249	01:31:22:02	6.657	V2682-02
 	starttransect	Microstomus pacificus	 	2687	 	 	 	1812506	 	2005-07-13 20:42:36.0	Ventana	 	04:07:07:04	 	V2687-05
 	descend	Appendicularia	502.48	2683	 	36.70154	-122.049385	1756806	0.68	2005-07-11 17:27:07.0	Ventana	34.304	01:11:15:10	6.47	V2683-02
 	transect	Raja rhina	200.3	2696	http://search.mbari.org/ARCHIVE/frameGrabs/Ventana/images/2696/01_28_40_10.jpg	36.80517	-122.12804	1813572	1.5	2005-08-01 18:00:47.0	Ventana	34.211	01:28:40:10	8.671	V2696-02
 	transect	Phyllospadix	801.46	2674	 	36.752174	-122.20793	1800684	0.35	2005-06-08 18:09:28.0	Ventana	34.49	00:53:59:16	4.329	V2674-01
 	cruise	Pleuronectiformes	98.24	2688	 	36.81402	-122.01845	1679498	1.93	2005-07-14 21:19:02.0	Ventana	34.103	05:03:15:01	8.897	V2688-05
 	transect	Microstomus pacificus	999.63	2669	 	36.731396	-122.237175	1687466	0.44	2005-05-25 19:08:08.0	Ventana	34.52	01:30:07:08	3.945	V2669-02
 	transect	Microstomus pacificus	204.0	2696	 	36.805737	-122.12907	1813715	1.49	2005-08-01 18:19:23.0	Ventana	34.213	01:47:14:05	8.63	V2696-02
 	descend	Copepoda	901.61	2683	 	36.7033	-122.04833	1757263	0.37	2005-07-11 18:32:29.0	Ventana	34.494	02:12:53:28	4.239	V2683-03
 	transect	Mesomyaria	1000.79	2669	 	36.7323	-122.249016	1736264	0.41	2005-05-25 20:26:17.0	Ventana	34.509	02:47:44:07	4.065	V2669-03
 	transect	Brisaster	1000.85	2669	 	36.732285	-122.24937	1736407	0.41	2005-05-25 20:28:21.0	Ventana	34.509	02:49:50:14	4.075	V2669-03
 	cruise	Chionoecetes tanneri	1208.13	2683	 	36.70703	-122.04763	1757669	0.72	2005-07-11 20:15:16.0	Ventana	34.574	03:49:38:24	3.353	V2683-04
 	transect	Mesomyaria	800.91	2674	 	36.75175	-122.21119	1801090	0.35	2005-06-08 18:24:50.0	Ventana	34.489	01:08:55:13	4.342	V2674-02
 	ascend	Appendicularia	989.0	2681	 	36.696808	-122.05318	1716570	0.45	2005-07-07 19:33:53.653	Ventana	34.524	03:03:35:01	3.947	V2681-03
 	transect	Mesomyaria	1000.18	2669	 	36.731693	-122.24374	1733882	0.41	2005-05-25 19:48:27.0	Ventana	34.507	02:09:57:23	4.068	V2669-03
 	descend	Dosidicus gigas	603.31	2681	 	36.695667	-122.05104	1715910	0.3	2005-07-07 18:17:28.347	Ventana	34.387	01:47:48:24	5.486	V2681-02
 	cruise	Sebastes diploproa	198.04	2696	 	36.80237	-122.12132	1812852	1.61	2005-08-01 16:33:43.0	Ventana	34.185	00:02:03:08	8.664	V2696-01
 	cruise	Rathbunaster californicus	103.05	2676	 	36.807743	-122.03878	1677131	1.94	2005-06-14 19:04:40.0	Ventana	34.156	02:43:26:01	8.444	V2676-03
 	transect	Ceriantharia sp. 2	 	2669	 	 	 	1737676	 	2005-05-25 13:56:34.0	Ventana	 	03:17:22:07	 	V2669-04
 	transect	Phyllospadix	800.23	2674	 	36.752445	-122.20537	1799789	0.36	2005-06-08 17:56:45.0	Ventana	34.487	00:41:17:10	4.361	V2674-01
 	transect	Mesomyaria	1000.34	2669	 	36.731564	-122.24306	1733771	0.41	2005-05-25 19:44:48.0	Ventana	34.512	02:06:20:01	4.075	V2669-03
 	transect	Mediaster	 	2687	http://search.mbari.org/ARCHIVE/frameGrabs/Ventana/images/2687/02_54_32_28.jpg	 	 	1810703	 	2005-07-13 19:28:49.0	Ventana	 	02:54:32:28	 	V2687-03
 	transect	Diogenidae	600.14	2680	 	36.78421	-122.229546	1805529	0.36	2005-06-27 19:15:01.0	Ventana	34.377	01:54:04:24	5.604	V2680-02
 	transect	Allocentrotus fragilis	 	2687	 	 	 	1810154	 	2005-07-13 19:01:11.0	Ventana	 	02:26:56:19	 	V2687-03
 	descend	Nanomia	168.42	2693	 	36.696243	-122.05778	1758218	1.97	2005-07-25 17:58:16.0	Ventana	34.139	00:38:47:06	8.927	V2693-01
 	transect	Mesomyaria	799.17	2674	 	36.75175	-122.212395	1801201	0.35	2005-06-08 18:29:28.0	Ventana	34.491	01:13:32:25	4.33	V2674-02
 	transect	Mesomyaria	801.09	2674	 	36.75099	-122.21834	1803568	0.35	2005-06-08 18:59:38.0	Ventana	34.491	01:43:41:03	4.343	V2674-02
 	transect	Mesomyaria	1000.03	2669	 	36.732536	-122.250206	1736924	0.41	2005-05-25 20:34:28.0	Ventana	34.51	02:55:57:25	4.067	V2669-03
 	descend	Appendicularia	1101.83	2683	 	36.705116	-122.048904	1757466	0.57	2005-07-11 19:29:42.0	Ventana	34.542	03:10:04:06	3.687	V2683-03
 	ascend	Appendicularia	451.15	2683	 	36.704258	-122.05057	1758015	0.76	2005-07-11 21:18:11.0	Ventana	34.287	04:51:02:28	6.648	V2683-05
 	transect	Ophiuroidea	997.48	2669	 	36.73061	-122.227066	1649093	0.45	2005-05-25 17:54:36.0	Ventana	34.521	00:17:05:04	3.911	V2669-01
 	ascend	Nanomia	356.09	2693	 	36.693966	-122.061035	1758893	1.24	2005-07-25 21:03:32.0	Ventana	34.236	03:28:04:15	7.372	V2693-04
 	transect	Ophiuroidea	999.37	2669	 	36.73102	-122.2312	1683576	0.45	2005-05-25 18:24:57.0	Ventana	34.522	00:47:23:15	3.913	V2669-01
 	transect	Allocentrotus fragilis	 	2687	 	 	 	1811252	 	2005-07-13 20:05:30.0	Ventana	 	03:30:29:27	 	V2687-04
 	transect	hastigerinella-digitata	300.41	2681	 	36.696888	-122.05243	2492442	1.23	2005-07-07 17:25:18.0	Ventana	34.234	00:56:25:06	7.393	V2681-01HD
 	transect	Mediaster	 	2687	 	 	 	1812303	 	2005-07-13 20:31:41.0	Ventana	 	03:56:39:17	 	V2687-04
 	ascend	Medusae	893.57	2682	 	36.69836	-122.05842	1723218	0.34	2005-07-08 20:16:31.0	Ventana	34.496	04:08:40:11	4.287	V2682-05
 	transect	Mysidae 2	1000.95	2681	 	36.69654	-122.052925	2498714	0.47	2005-07-07 19:30:35.0	Ventana	34.53	03:00:15:01	3.889	V2681-03HD
 	descend	Nanomia	190.28	2681	 	36.69828	-122.05329	1713543	1.98	2005-07-07 17:03:26.5	Ventana	34.164	00:34:35:16	8.305	V2681-01
 	transect	Neptunea amianta	600.0	2680	 	36.778767	-122.223946	1804431	0.36	2005-06-27 18:03:14.0	Ventana	34.379	00:43:20:10	5.594	V2680-01
 	transect	Glyptocephalus zachirus	199.51	2696	 	36.804066	-122.125725	1813369	1.52	2005-08-01 17:40:07.0	Ventana	34.21	01:08:01:05	8.665	V2696-02
 	transect	Phyllospadix	801.24	2674	 	36.751953	-122.209274	1800887	0.36	2005-06-08 18:15:48.0	Ventana	34.49	01:00:19:00	4.318	V2674-01
 	transect	Calycophorae	100.5	2681	 	36.69971	-122.054214	2489776	2.13	2005-07-07 16:50:17.0	Ventana	34.067	00:21:26:05	9.159	V2681-01HD
 	ascend	Mysidae	887.23	2681	 	36.69816	-122.0551	1717322	0.36	2005-07-07 19:50:34.703	Ventana	34.503	03:19:38:11	4.226	V2681-04
 	transect	Mediaster	 	2687	 	 	 	1807473	 	2005-07-13 17:09:00.0	Ventana	 	00:35:53:10	 	V2687-01
 	transect	Mesomyaria	999.9	2669	 	36.731087	-122.239	1689096	0.43	2005-05-25 19:21:25.0	Ventana	34.517	01:43:23:10	3.972	V2669-02
 	transect	Mediaster	 	2687	 	 	 	1811754	 	2005-07-13 20:24:31.0	Ventana	 	03:49:29:25	 	V2687-04
 	transect	Appendicularia	400.75	2681	 	36.696785	-122.05237	2493051	0.79	2005-07-07 17:45:24.0	Ventana	34.278	01:15:47:26	6.659	V2681-02HD
 	descend	Medusae	490.89	2688	 	36.793423	-122.018295	1677228	0.83	2005-07-14 16:15:22.0	Ventana	34.285	00:01:43:14	6.711	V2688-01
 	descend	Euphausiacea	163.99	2683	 	36.700687	-122.05158	1756294	1.7	2005-07-11 16:28:00.0	Ventana	34.177	00:15:42:01	8.734	V2683-01
 	transect	Lycenchelys camchatica	800.73	2674	 	36.75196	-122.20919	1800878	0.36	2005-06-08 18:15:30.0	Ventana	34.49	01:00:01:09	4.321	V2674-01
 	transect	Mesomyaria	997.61	2669	 	36.7306	-122.22716	1649102	0.45	2005-05-25 17:55:03.0	Ventana	34.522	00:17:31:05	3.909	V2669-01
 	ascend	sinker	913.84	2681	 	36.69781	-122.05451	1717022	0.38	2005-07-07 19:46:40.9	Ventana	34.504	03:15:44:09	4.197	V2681-04
 	transect	molt	50.41	2681	 	36.69983	-122.05429	2485651	2.98	2005-07-07 16:36:55.0	Ventana	33.915	00:08:04:17	9.63	V2681-01HD
 	transect	molt	100.51	2681	 	36.69925	-122.05392	2489827	2.14	2005-07-07 16:51:22.0	Ventana	34.067	00:22:31:04	9.15	V2681-01HD
 	ascend	Nanomia	269.83	2681	 	36.69971	-122.05488	1718327	1.4	2005-07-07 21:04:18.917	Ventana	34.227	04:32:38:18	7.846	V2681-05
 	transect	Umbellula lindahli	602.37	2680	 	36.790718	-122.23282	1806804	0.35	2005-06-27 20:22:29.0	Ventana	34.378	03:01:05:23	5.59	V2680-03
 	transect	Mediaster	 	2687	 	 	 	1812377	 	2005-07-13 20:35:11.0	Ventana	 	04:00:09:03	 	V2687-04
 	transect	Mediaster	 	2687	 	 	 	1811671	 	2005-07-13 20:20:32.0	Ventana	 	03:45:30:25	 	V2687-04
 	ascend	Copepoda	261.35	2681	 	36.69883	-122.05699	1719033	1.42	2005-07-07 21:21:15.95	Ventana	34.232	04:49:35:02	7.954	V2681-05
 	descend	Appendicularia	797.07	2681	 	36.69491	-122.05055	1716316	0.32	2005-07-07 18:51:56.5	Ventana	34.474	02:21:39:17	4.511	V2681-03
 	descend	Appendicularia	586.9	2683	 	36.701916	-122.0491	1757000	0.36	2005-07-11 17:48:14.0	Ventana	34.365	01:32:19:22	5.845	V2683-02
 	transect	Rathbunaster californicus	200.28	2696	 	36.80469	-122.127075	1813498	1.51	2005-08-01 17:53:51.0	Ventana	34.211	01:21:44:14	8.672	V2696-02
 	transect	Actiniaria sp. 3	399.67	2687	 	36.78922	-122.12442	1809568	1.17	2005-07-13 18:18:33.0	Ventana	34.242	01:44:52:23	7.345	V2687-02
 	ascend	Solmissus	201.87	2683	 	36.70272	-122.05072	1758121	1.66	2005-07-11 21:28:58.0	Ventana	34.207	05:01:49:27	8.53	V2683-05
 	descend	Appendicularia	321.27	2682	 	36.69891	-122.06068	1720154	1.13	2005-07-08 17:07:42.0	Ventana	34.241	01:01:14:28	7.258	V2682-02
 	ascend	Appendicularia	755.59	2682	 	36.69878	-122.05914	1723301	0.29	2005-07-08 20:28:32.0	Ventana	34.446	04:20:42:04	4.837	V2682-05
 	ascend	Appendicularia	600.9	2682	 	36.698612	-122.0618	1723547	0.34	2005-07-08 20:58:17.0	Ventana	34.372	04:50:24:05	5.655	V2682-05
 	stationary	Appendicularia	502.08	2694	 	36.78458	-122.20047	1676599	0.79	2005-07-27 19:16:32.0	Ventana	34.277	01:59:11:28	6.58	V2694-02
 	transect	Chionoecetes tanneri	1000.2	2669	 	36.731075	-122.238716	1689050	0.43	2005-05-25 19:19:27.0	Ventana	34.514	01:41:26:01	3.969	V2669-02
 	transect	Mediaster	 	2687	 	 	 	1812700	 	2005-07-13 20:52:58.0	Ventana	 	04:17:28:12	 	V2687-05
 	transect	Mesomyaria	801.71	2674	 	36.750923	-122.219696	1803642	0.35	2005-06-08 19:05:21.0	Ventana	34.493	01:49:23:08	4.365	V2674-02
 	ascend	Appendicularia	1087.97	2683	 	36.707745	-122.04911	1757798	0.58	2005-07-11 20:44:17.0	Ventana	34.545	04:18:37:13	3.691	V2683-04
 	cruise	mud	124.07	2676	 	36.808517	-122.03138	1676905	1.78	2005-06-14 18:03:41.0	Ventana	34.166	01:43:24:05	8.397	V2676-02
 	transect	Phyllospadix	801.11	2674	 	36.7525	-122.20019	1774042	0.29	2005-06-08 17:27:50.0	Ventana	34.459	00:12:24:21	4.656	V2674-01
 	transect	cydippida	500.58	2681	 	36.697548	-122.0533	2493374	0.44	2005-07-07 17:56:37.0	Ventana	34.347	01:26:59:22	6.018	V2681-02HD
 	transect	Calycophorae	1001.05	2681	 	36.694965	-122.05084	2498562	0.47	2005-07-07 19:22:25.0	Ventana	34.531	02:52:06:09	3.87	V2681-03HD
 	transect	Sebastolobus	 	2687	 	 	 	1808862	 	2005-07-13 17:30:38.0	Ventana	 	00:57:30:14	 	V2687-01
 	descend	Nanomia	200.35	2681	 	36.69828	-122.05329	1713552	1.81	2005-07-07 17:03:48.633	Ventana	34.188	00:34:57:19	8.349	V2681-01
 	transect	Rathbunaster californicus	203.45	2696	 	36.807365	-122.13103	1813821	1.47	2005-08-01 18:40:52.0	Ventana	34.216	02:07:57:15	8.625	V2696-03
 	cruise	Pandalus platyceros	237.3	2688	http://search.mbari.org/ARCHIVE/frameGrabs/Ventana/images/2688/02_17_03_14.jpg	36.80984	-122.02055	1677934	1.57	2005-07-14 18:31:49.0	Ventana	34.193	02:17:03:14	8.313	V2688-03
 	descend	Appendicularia	362.9	2682	 	36.69848	-122.060074	1720477	1.0	2005-07-08 17:33:34.0	Ventana	34.255	01:27:04:24	7.084	V2682-02
 	ascend	Solmissus	258.17	2681	 	36.697838	-122.05522	1719448	 	2005-07-07 21:29:59.0	Ventana	 	05:05:20:20	 	V2681-05
 	descend	Myctophidae	437.02	2683	 	36.70148	-122.04951	1756677	0.84	2005-07-11 17:07:03.0	Ventana	34.275	00:54:43:10	6.765	V2683-01
 	transect	Phyllospadix	802.04	2674	 	36.75232	-122.20586	1799849	0.36	2005-06-08 17:59:13.0	Ventana	34.486	00:43:45:27	4.337	V2674-01
 	transect	Hastigerinella digitata	300.39	2681	 	36.696037	-122.05167	2492576	1.24	2005-07-07 17:28:21.0	Ventana	34.233	00:59:28:17	7.427	V2681-01HD
 	transect	Porifera sp. 1	 	2687	 	 	 	1807542	 	2005-07-13 17:14:38.0	Ventana	 	00:41:31:07	 	V2687-01
 	transect	Mesomyaria	999.98	2669	 	36.731087	-122.23912	1689110	0.43	2005-05-25 19:22:08.0	Ventana	34.515	01:44:06:11	3.978	V2669-02
 	transect	Mediaster	 	2687	 	 	 	1812760	 	2005-07-13 20:56:22.0	Ventana	 	04:20:52:11	 	V2687-05
 	transect	Mesomyaria	1000.5	2669	 	36.73124	-122.24102	1689373	0.41	2005-05-25 19:34:11.0	Ventana	34.51	01:56:08:15	4.055	V2669-02
 	descend	Copepoda	1200.48	2682	 	36.698296	-122.058945	1722212	0.68	2005-07-08 19:19:06.0	Ventana	34.572	03:11:43:23	3.371	V2682-04
 	transect	Phyllospadix	1000.03	2669	 	36.730633	-122.22924	1651068	0.45	2005-05-25 18:08:31.0	Ventana	34.522	00:30:59:05	3.906	V2669-01
 	ascend	Arctapodema	1169.69	2683	 	36.70732	-122.04856	1757738	0.7	2005-07-11 20:29:56.0	Ventana	34.568	04:04:17:24	3.404	V2683-04
 	ascend	Chuniphyes	627.0	2681	 	36.698917	-122.05423	1717681	0.31	2005-07-07 20:28:31.467	Ventana	34.39	03:57:31:23	5.423	V2681-04
 	transect	Phyllospadix	399.7	2687	 	36.78935	-122.124916	1809628	1.15	2005-07-13 18:26:45.0	Ventana	34.24	01:53:04:16	7.313	V2687-02
 	transect	Euplexaura	 	2687	http://search.mbari.org/ARCHIVE/frameGrabs/Ventana/images/2687/02_57_03_06.jpg	 	 	1810749	 	2005-07-13 19:31:20.0	Ventana	 	02:57:03:06	 	V2687-03
 	descend	Copepoda	1116.69	2683	 	36.705116	-122.048904	1757475	0.6	2005-07-11 19:30:47.0	Ventana	34.548	03:11:07:16	3.641	V2683-03
 	transect	Psolus squamatus	 	2687	 	 	 	1808922	 	2005-07-13 17:32:06.0	Ventana	 	00:58:58:11	 	V2687-01
 	transect	Glyptocephalus zachirus	 	2687	 	 	 	1810689	 	2005-07-13 19:28:26.0	Ventana	 	02:54:09:09	 	V2687-03
 	ascend	Pleurobrachia	258.17	2681	 	36.697838	-122.05522	1719508	 	2005-07-07 21:29:59.0	Ventana	 	05:09:13:18	 	V2681-05
 	transect	Ophiuroidea	999.79	2669	 	36.731396	-122.2371	1687452	0.44	2005-05-25 19:07:22.0	Ventana	34.518	01:29:21:04	3.947	V2669-02
 	transect	Allocentrotus fragilis	 	2687	 	 	 	1812317	 	2005-07-13 20:32:03.0	Ventana	 	03:57:00:26	 	V2687-04
 	ascend	Lensia	422.32	2681	 	36.699203	-122.054214	1717944	0.78	2005-07-07 20:44:36.633	Ventana	34.277	04:13:13:17	6.638	V2681-05
 	descend	Appendicularia	1184.04	2682	 	36.698483	-122.058334	1722272	0.67	2005-07-08 19:36:51.0	Ventana	34.571	03:29:28:12	3.39	V2682-04
 	transect	Phyllospadix	800.26	2674	 	36.752644	-122.20033	1774102	0.3	2005-06-08 17:29:47.0	Ventana	34.452	00:14:21:03	4.559	V2674-01
 	transect	molt	100.55	2681	 	36.69983	-122.05429	2489504	2.12	2005-07-07 16:43:09.0	Ventana	34.068	00:14:19:15	9.15	V2681-01HD
 	transect	molt	200.36	2681	 	36.698315	-122.05342	2491271	1.66	2005-07-07 17:13:18.0	Ventana	34.2	00:44:26:01	8.341	V2681-01HD
 	cruise	Metridium farcimen	103.69	2676	 	36.80611	-122.04207	1677168	1.92	2005-06-14 19:17:52.0	Ventana	34.16	02:56:36:25	8.426	V2676-03
 	transect	Neptunea amianta	599.35	2680	 	36.7793	-122.22439	1804500	0.36	2005-06-27 18:08:13.0	Ventana	34.377	00:48:19:10	5.6	V2680-01
 	transect	Mesomyaria	798.23	2674	 	36.751663	-122.21356	1801293	0.35	2005-06-08 18:35:26.0	Ventana	34.488	01:19:30:16	4.349	V2674-02
 	descend	Euphausiacea	190.5	2683	 	36.70103	-122.05105	1756354	1.77	2005-07-11 16:43:10.0	Ventana	34.185	00:30:50:19	8.449	V2683-01
 	transect	Phyllospadix	799.43	2674	 	36.752514	-122.204185	1799513	0.35	2005-06-08 17:50:03.0	Ventana	34.482	00:34:35:28	4.383	V2674-01
 	transect	Lycenchelys camchatica	800.02	2674	 	36.75209	-122.20885	1800818	0.35	2005-06-08 18:13:38.0	Ventana	34.489	00:58:09:06	4.334	V2674-01
 	transect	Phyllospadix	196.82	2696	 	36.80335	-122.123405	1813175	1.54	2005-08-01 17:15:29.0	Ventana	34.201	00:43:47:06	8.626	V2696-01
 	transect	Phyllospadix	199.75	2696	 	36.804386	-122.12633	1813438	1.52	2005-08-01 17:46:33.0	Ventana	34.208	01:14:26:07	8.665	V2696-02
 	transect	Psolus squamatus	 	2687	 	 	 	1810043	 	2005-07-13 18:51:59.0	Ventana	 	02:17:44:27	 	V2687-03
 	ascend	Chuniphyes	672.41	2682	 	36.69892	-122.05957	1723361	0.28	2005-07-08 20:34:32.0	Ventana	34.413	04:26:39:25	5.18	V2682-05
 	descend	Euphausiacea	147.8	2693	 	36.696323	-122.05773	1758181	1.94	2005-07-25 17:56:29.0	Ventana	34.112	00:37:00:29	9.003	V2693-01
 	ascend	Poeobius meseres	377.35	2693	 	36.696194	-122.06057	1758750	1.19	2005-07-25 20:48:49.0	Ventana	34.23	03:13:23:25	7.146	V2693-04
 	transect	Phyllospadix	800.82	2674	 	36.752514	-122.20281	1799250	0.34	2005-06-08 17:42:41.0	Ventana	34.482	00:27:14:25	4.383	V2674-01
 	ascend	water	197.55	2696	 	36.807724	-122.131386	1813881	1.47	2005-08-01 18:48:29.0	Ventana	34.224	02:15:32:28	8.642	V2696-03
 	cruise	Asteronyx	284.72	2688	 	36.808994	-122.02034	1677874	1.43	2005-07-14 18:23:50.0	Ventana	34.208	02:09:31:06	7.991	V2688-02
 	transect	Caecosagitta macrocephala	800.9	2681	 	36.69562	-122.05152	2498179	0.32	2005-07-07 18:56:39.0	Ventana	34.475	02:26:22:01	4.494	V2681-03HD
 	descend	Chuniphyes	656.24	2683	 	36.702026	-122.04894	1757060	0.34	2005-07-11 17:52:11.0	Ventana	34.404	01:36:16:07	5.258	V2683-02
 	transect	Calycophorae	300.44	2681	 	36.698437	-122.05358	2491930	1.25	2005-07-07 17:19:48.0	Ventana	34.232	00:50:55:20	7.431	V2681-01HD
 	cruise	Pasiphaea	306.63	2676	 	36.80508	-122.03163	1676216	1.25	2005-06-14 16:20:49.0	Ventana	34.231	00:04:59:07	7.59	V2676-01
 	transect	Lycenchelys camchatica	1000.09	2669	http://search.mbari.org/ARCHIVE/frameGrabs/Ventana/images/2669/02_20_15_29.jpg	36.731853	-122.24525	1735369	0.4	2005-05-25 19:58:45.0	Ventana	34.508	02:20:15:29	4.07	V2669-03
 	transect	Mesomyaria	1000.37	2669	 	36.731956	-122.24707	1735812	0.41	2005-05-25 20:12:25.0	Ventana	34.511	02:33:55:06	4.072	V2669-03
 	descend	Appendicularia	936.53	2682	 	36.69826	-122.05937	1721797	0.36	2005-07-08 18:53:26.0	Ventana	34.5	02:46:28:22	4.24	V2682-03
 	descend	Appendicularia	386.27	2683	 	36.701466	-122.049774	1756617	1.02	2005-07-11 16:58:33.0	Ventana	34.253	00:46:12:25	6.983	V2683-01
 	descend	Hastigerinella digitata	290.32	2693	 	36.69785	-122.061264	1758444	1.37	2005-07-25 19:37:20.0	Ventana	34.239	02:16:55:03	7.886	V2693-03
 	transect	Phyllospadix	999.71	2669	 	36.731007	-122.23385	1683982	0.45	2005-05-25 18:40:53.0	Ventana	34.522	01:02:54:07	3.913	V2669-02
 	transect	Gastropoda sp.2	999.56	2669	 	36.732746	-122.251335	1737196	0.4	2005-05-25 20:41:03.0	Ventana	34.509	03:01:51:29	4.072	V2669-04
 	transect	Aegina	600.61	2681	 	36.696594	-122.05224	2493757	0.3	2005-07-07 18:22:45.0	Ventana	34.387	01:53:06:04	5.479	V2681-02HD
 	descend	Pleurobrachia	135.18	2682	 	36.69983	-122.060646	1719891	2.21	2005-07-08 16:17:55.0	Ventana	34.104	00:11:59:14	8.684	V2682-01
 	transect	Chionoecetes tanneri	801.41	2674	 	36.75097	-122.2185	1803582	0.35	2005-06-08 19:00:21.0	Ventana	34.489	01:44:23:26	4.356	V2674-02
 	transect	Ophiuroidea	999.34	2669	 	36.73119	-122.235664	1684365	0.44	2005-05-25 18:55:00.0	Ventana	34.522	01:17:00:09	3.933	V2669-02
 	transect	Mesomyaria	1000.37	2669	 	36.731556	-122.242905	1694563	0.4	2005-05-25 19:44:02.0	Ventana	34.505	02:05:59:16	4.096	V2669-02
 	transect	Psolus squamatus	 	2687	 	 	 	1810103	 	2005-07-13 18:56:34.0	Ventana	 	02:22:19:21	 	V2687-03
 	ascend	Chaetognatha	259.34	2681	 	36.699417	-122.054535	1718590	1.42	2005-07-07 21:12:58.1	Ventana	34.232	04:41:18:07	7.968	V2681-05
 	transect	Sebastolobus altivelis	803.0	2674	 	36.752247	-122.20626	1799909	0.36	2005-06-08 18:01:03.0	Ventana	34.489	00:45:35:22	4.334	V2674-01
 	transect	Mesomyaria	998.21	2669	 	36.730534	-122.22834	1649365	0.45	2005-05-25 18:02:52.0	Ventana	34.523	00:25:20:24	3.907	V2669-01
 	transect	Mesomyaria	800.35	2674	 	36.751736	-122.21171	1801141	0.35	2005-06-08 18:26:54.0	Ventana	34.488	01:10:58:23	4.339	V2674-02
 	transect	Calliostoma platinum	400.29	2687	http://search.mbari.org/ARCHIVE/frameGrabs/Ventana/images/2687/01_36_29_23.jpg	36.789017	-122.12386	1809508	1.17	2005-07-13 18:10:09.0	Ventana	34.235	01:36:29:23	7.355	V2687-02
 	transect	Lycenchelys camchatica	1000.56	2669	 	36.732353	-122.249535	1736518	0.41	2005-05-25 20:29:53.0	Ventana	34.51	02:51:22:18	4.07	V2669-03
 	transect	Gastropoda sp.2	998.4	2669	 	36.73108	-122.23058	1695066	0.45	2005-05-25 18:18:49.0	Ventana	34.522	00:41:15:29	3.911	V2669-01
 	ascend	Lensia	333.89	2693	 	36.692375	-122.06184	1759013	1.28	2005-07-25 21:15:13.0	Ventana	34.237	03:39:45:12	7.546	V2693-04
 	transect	Mesomyaria	598.42	2680	 	36.780506	-122.22543	1804703	0.35	2005-06-27 18:23:41.0	Ventana	34.381	01:02:47:17	5.567	V2680-02
 	transect	Psolus squamatus	 	2687	 	 	 	1808982	 	2005-07-13 17:33:02.0	Ventana	 	00:59:53:26	 	V2687-01
 	transect	Diogenidae	602.08	2680	 	36.791637	-122.23296	1806864	0.36	2005-06-27 20:29:34.0	Ventana	34.378	03:08:10:10	5.589	V2680-03
 	transect	Prayidae	400.8	2681	 	36.695812	-122.051216	2492899	0.79	2005-07-07 17:41:01.0	Ventana	34.278	01:11:25:18	6.668	V2681-02HD
 	transect	Neptunea amianta	1000.11	2669	 	36.731045	-122.23962	1689170	0.41	2005-05-25 19:25:03.0	Ventana	34.509	01:47:01:24	4.064	V2669-02
 	transect	Mediaster	 	2687	 	 	 	1811335	 	2005-07-13 20:07:52.0	Ventana	 	03:32:51:11	 	V2687-04
 	ascend	Appendicularia	367.23	2693	 	36.695515	-122.06081	1758810	1.23	2005-07-25 20:55:31.0	Ventana	34.234	03:20:04:00	7.31	V2693-04
 	transect	Sebastolobus altivelis	805.93	2674	 	36.750385	-122.221825	1803762	0.34	2005-06-08 19:17:22.0	Ventana	34.486	02:01:23:07	4.405	V2674-02
 	transect	Psolus squamatus	 	2687	 	 	 	1808599	 	2005-07-13 17:24:51.0	Ventana	 	00:51:43:26	 	V2687-01
 	transect	cydippida	400.77	2681	 	36.69722	-122.05286	2493111	0.79	2005-07-07 17:47:10.0	Ventana	34.278	01:17:33:18	6.663	V2681-02HD
 	transect	Porifera sp. 1	 	2687	 	 	 	1811132	 	2005-07-13 19:55:46.0	Ventana	 	03:20:46:12	 	V2687-04
 	transect	Mediaster	399.88	2687	 	36.78811	-122.12174	1809305	1.14	2005-07-13 17:39:04.0	Ventana	34.238	01:05:25:26	7.284	V2687-02
 	stationary	Appendicularia	502.33	2694	 	36.784595	-122.20043	1676642	0.85	2005-07-27 20:13:28.0	Ventana	34.272	02:45:36:07	6.69	V2694-03
 	descend	Mysidae	687.13	2681	 	36.69792	-122.05384	1715961	0.27	2005-07-07 18:31:31.6	Ventana	34.415	02:01:51:18	5.107	V2681-02
 	transect	Porifera sp. 1	399.94	2687	 	36.788074	-122.12156	1809185	1.13	2005-07-13 17:36:47.0	Ventana	34.241	01:03:09:23	7.262	V2687-02
 	transect	Polychaeta	600.58	2681	 	36.697205	-122.052956	2493817	0.3	2005-07-07 18:25:30.0	Ventana	34.388	01:55:51:13	5.469	V2681-02HD
 	transect	Leptomedusae	800.88	2681	 	36.69618	-122.052155	2498239	0.31	2005-07-07 18:59:14.0	Ventana	34.475	02:28:55:08	4.5	V2681-03HD
 	ascend	Euphausiacea	254.07	2681	 	36.69836	-122.0559	1719185	1.46	2005-07-07 21:24:42.3	Ventana	34.226	04:53:01:07	7.994	V2681-05
 	cruise	Merluccius productus	505.17	2694	 	36.78402	-122.2008	1676156	0.75	2005-07-27 17:07:43.0	Ventana	34.288	00:00:51:13	6.475	V2694-01
 	transect	Mediaster	 	2687	 	 	 	1811012	 	2005-07-13 19:48:18.0	Ventana	 	03:13:19:19	 	V2687-04
 	descend	benthos	1283.49	2673	 	36.802937	-121.804695	1668290	0.81	2005-06-07 17:16:38.0	Ventana	34.583	00:00:30:21	3.223	V2673-01
 	cruise	Merluccius productus	382.56	2690	 	36.790047	-121.88748	1670260	0.94	2005-07-18 19:53:09.0	Ventana	34.269	01:08:16:10	6.952	V2690-01
 	ascend	Appendicularia	355.28	2681	 	36.69935	-122.055046	1718064	1.04	2005-07-07 20:52:07.733	Ventana	34.255	04:20:28:20	7.155	V2681-05
 	transect	Rathbunaster californicus	196.38	2696	 	36.803104	-122.12275	1813115	1.57	2005-08-01 17:07:50.0	Ventana	34.196	00:36:08:28	8.631	V2696-01
 	ascend	Gonatus	392.87	2695	 	36.78391	-122.201004	1824522	1.18	2005-07-28 20:40:54.0	Ventana	34.276	05:38:29:09	7.859	V2695-04
 	transect	Phyllospadix	800.33	2674	 	36.75121	-122.21661	1803439	0.35	2005-06-08 18:51:51.0	Ventana	34.487	01:35:54:10	4.359	V2674-02
 	transect	Phyllospadix	800.54	2674	 	36.75209	-122.20849	1800758	0.35	2005-06-08 18:11:47.0	Ventana	34.49	00:56:18:11	4.324	V2674-01
 	transect	Gastropoda sp.2	999.76	2669	 	36.731304	-122.23591	1694683	0.44	2005-05-25 18:56:45.0	Ventana	34.521	01:18:44:13	3.933	V2669-02
 	transect	haliscera	300.41	2681	 	36.697277	-122.05277	2492313	1.23	2005-07-07 17:23:57.0	Ventana	34.234	00:55:05:08	7.393	V2681-01HD
 	transect	Mesomyaria	998.72	2669	 	36.73285	-122.251884	1737256	0.4	2005-05-25 20:44:20.0	Ventana	34.509	03:05:08:05	4.075	V2669-04
 	transect	Phyllospadix	599.29	2680	 	36.779785	-122.224945	1804560	0.36	2005-06-27 18:15:25.0	Ventana	34.378	00:55:30:29	5.59	V2680-01
 	transect	Calycophorae	500.57	2681	 	36.696014	-122.05151	2493637	0.43	2005-07-07 18:03:19.0	Ventana	34.349	01:33:41:27	6.006	V2681-02HD
 	cruise	Metridium farcimen	93.35	2688	 	36.816216	-122.016396	1679378	2.1	2005-07-14 20:16:55.0	Ventana	34.093	04:01:40:07	8.923	V2688-04
 	ascend	Lobata	831.07	2681	 	36.69877	-122.05624	1717405	0.31	2005-07-07 19:57:36.473	Ventana	34.483	03:26:38:21	4.429	V2681-04
 	ascend	Appendicularia	602.73	2682	 	36.698654	-122.06145	1723504	0.34	2005-07-08 20:55:55.0	Ventana	34.375	04:48:02:15	5.641	V2682-05
 	stationary	Merluccius productus	 	2680	 	 	 	1803965	 	2005-06-27 16:58:05.0	Ventana	 	00:00:49:18	 	V2680-01
 	ascend	Nanomia	258.17	2681	 	36.697838	-122.05522	1719568	 	2005-07-07 21:29:59.0	Ventana	 	05:14:40:19	 	V2681-05
 	ascend	Appendicularia	518.89	2681	 	36.698963	-122.05425	1717741	0.46	2005-07-07 20:33:43.067	Ventana	34.34	04:02:43:01	6.085	V2681-04
 	transect	Nanomia bijuga	200.45	2681	 	36.69828	-122.05329	2490242	1.7	2005-07-07 17:06:10.0	Ventana	34.199	00:37:18:19	8.36	V2681-01HD
 	descend	Appendicularia	787.26	2682	 	36.698402	-122.05973	1721677	0.33	2005-07-08 18:35:12.0	Ventana	34.462	02:28:16:13	4.637	V2682-03
 	transect	Neptunea amianta	800.36	2674	 	36.752583	-122.20237	1799190	0.34	2005-06-08 17:40:34.0	Ventana	34.476	00:25:07:15	4.408	V2674-01
 	transect	Psolus squamatus	 	2687	 	 	 	1807007	 	2005-07-13 16:54:27.0	Ventana	 	00:21:21:26	 	V2687-01
 	transect	Mesomyaria	799.79	2674	 	36.75152	-122.21426	1801353	0.35	2005-06-08 18:40:24.0	Ventana	34.489	01:24:27:29	4.334	V2674-02
 	transect	molt	50.39	2681	 	36.69983	-122.05429	2485711	3.0	2005-07-07 16:37:52.0	Ventana	33.913	00:09:01:06	9.634	V2681-01HD
 	transect	Ophiuroidea	999.07	2669	 	36.731388	-122.23609	1684568	0.44	2005-05-25 18:58:13.0	Ventana	34.522	01:20:13:11	3.94	V2669-02
 	transect	Mesomyaria	800.63	2674	http://search.mbari.org/ARCHIVE/frameGrabs/Ventana/images/2674/01_02_19_06.jpg	36.75196	-122.20968	1800938	0.35	2005-06-08 18:18:14.0	Ventana	34.49	01:02:19:06	4.335	V2674-02
 	transect	Psolus squamatus	 	2687	 	 	 	1807602	 	2005-07-13 17:17:03.0	Ventana	 	00:43:56:20	 	V2687-01
 	transect	Phyllospadix	799.5	2674	 	36.75268	-122.200935	1774162	0.33	2005-06-08 17:33:22.0	Ventana	34.481	00:17:55:18	4.45	V2674-01
 	transect	Neptunea amianta	598.61	2680	 	36.782013	-122.22704	1805086	0.35	2005-06-27 18:43:27.0	Ventana	34.377	01:22:32:15	5.579	V2680-02
 	transect	Stomphia	999.99	2669	http://search.mbari.org/ARCHIVE/frameGrabs/Ventana/images/2669/02_11_18_22.jpg	36.731712	-122.243935	1734034	0.41	2005-05-25 19:49:48.0	Ventana	34.513	02:11:18:22	4.081	V2669-03
 	descend	Appendicularia	826.04	2683	 	36.702744	-122.04861	1757203	0.31	2005-07-11 18:17:21.0	Ventana	34.476	02:01:25:03	4.474	V2683-02
 	transect	Sebastolobus altivelis	799.93	2674	 	36.752518	-122.20365	1799370	0.35	2005-06-08 17:47:26.0	Ventana	34.483	00:31:59:18	4.378	V2674-01
 	transect	Lycodes cortezianus	198.87	2696	http://search.mbari.org/ARCHIVE/frameGrabs/Ventana/images/2696/01_00_01_02.jpg	36.803757	-122.12487	1813295	1.53	2005-08-01 17:31:43.0	Ventana	34.202	01:00:01:02	8.627	V2696-01
 	descend	Hastigerinella digitata	301.27	2682	 	36.699398	-122.06077	1720094	1.17	2005-07-08 16:46:11.0	Ventana	34.24	00:40:13:28	7.354	V2682-01
 	transect	Appendicularia	300.42	2681	 	36.6966	-122.05219	2492516	1.23	2005-07-07 17:26:16.0	Ventana	34.233	00:57:22:19	7.398	V2681-01HD
 	ascend	Appendicularia	693.72	2681	 	36.69873	-122.05472	1717608	0.27	2005-07-07 20:21:30.967	Ventana	34.42	03:50:31:21	5.107	V2681-04
 	transect	Ophiuroidea	998.45	2669	 	36.731136	-122.2308	1683447	0.45	2005-05-25 18:21:01.0	Ventana	34.518	00:43:28:03	3.917	V2669-01
 	transect	Allocentrotus fragilis	 	2687	 	 	 	1810809	 	2005-07-13 19:35:17.0	Ventana	 	03:01:00:19	 	V2687-03
 	cruise	mud	411.71	2688	 	36.8062	-122.01927	1677731	0.96	2005-07-14 17:49:34.0	Ventana	34.287	01:35:17:00	7.063	V2688-02
 	transect	beroe	200.4	2681	 	36.698284	-122.05331	2490948	1.71	2005-07-07 17:10:05.0	Ventana	34.195	00:41:14:14	8.323	V2681-01HD
 	descend	Appendicularia	1042.37	2683	 	36.7049	-122.04922	1757415	0.47	2005-07-11 19:24:39.0	Ventana	34.531	03:04:59:20	3.874	V2683-03
 	transect	Psolus squamatus	 	2687	 	 	 	1808802	 	2005-07-13 17:29:44.0	Ventana	 	00:56:36:12	 	V2687-01
 	transect	Neptunea amianta	801.56	2674	 	36.752254	-122.20733	1800052	0.37	2005-06-08 18:06:33.0	Ventana	34.487	00:51:05:14	4.353	V2674-01
 	transect	Stomphia	599.9	2680	 	36.778282	-122.22346	1804380	0.36	2005-06-27 17:56:28.0	Ventana	34.379	00:36:35:10	5.585	V2680-01
 	descend	Appendicularia	444.34	2682	 	36.698364	-122.059586	1720768	0.58	2005-07-08 17:50:29.0	Ventana	34.315	01:43:58:29	6.331	V2682-02
 	transect	Mediaster	400.09	2687	 	36.78939	-122.12547	1809688	1.13	2005-07-13 18:35:33.0	Ventana	34.239	02:01:51:08	7.265	V2687-02
 	cruise	Parastichopus leukothele	196.85	2696	 	36.80267	-122.12168	1812903	1.56	2005-08-01 16:43:55.0	Ventana	34.197	00:12:15:15	8.605	V2696-01
 	cruise	Actiniaria	500.44	2695	 	36.783875	-122.19986	1824402	0.89	2005-07-28 16:58:26.0	Ventana	34.264	00:04:48:12	6.714	V2695-01
 	transect	Solaster borealis	1000.53	2669	 	36.73227	-122.24887	1736255	0.41	2005-05-25 20:25:26.0	Ventana	34.51	02:46:54:07	4.063	V2669-03
 	transect	Mysidae	700.64	2681	 	36.6973	-122.05318	2497653	0.29	2005-07-07 18:38:30.0	Ventana	34.435	02:08:13:17	4.944	V2681-03HD
 	transect	Ophiuroidea	1000.13	2669	 	36.731155	-122.240204	1689230	0.41	2005-05-25 19:28:48.0	Ventana	34.51	01:50:46:10	4.058	V2669-02
 	cruise	Lycodapus	1218.1	2683	 	36.706367	-122.04755	1757618	0.72	2005-07-11 20:09:04.0	Ventana	34.576	03:43:27:10	3.333	V2683-04
 	descend	Appendicularia	500.94	2683	 	36.701492	-122.04939	1756797	0.69	2005-07-11 17:25:33.0	Ventana	34.303	01:09:40:29	6.471	V2683-02
 	transect	Psolus squamatus	399.85	2687	 	36.788044	-122.12152	1809065	1.14	2005-07-13 17:35:41.0	Ventana	34.237	01:02:03:04	7.276	V2687-02
 	cruise	Rathbunaster californicus	368.55	2688	 	36.807404	-122.01974	1677754	1.15	2005-07-14 17:54:50.0	Ventana	34.239	01:40:32:27	7.366	V2688-02
 	transect	Calycophorae	500.53	2681	 	36.69678	-122.05237	2493577	0.44	2005-07-07 18:00:00.0	Ventana	34.346	01:30:22:29	6.019	V2681-02HD
 	descend	Appendicularia	1084.08	2682	 	36.698296	-122.059166	1722069	0.53	2005-07-08 19:05:56.0	Ventana	34.545	02:58:57:15	3.721	V2682-03
 	transect	Sebastes diploproa	 	2687	 	 	 	1811874	 	2005-07-13 20:27:56.0	Ventana	 	03:52:54:04	 	V2687-04
 	ascend	Appendicularia	740.13	2681	 	36.698734	-122.05559	1717548	0.26	2005-07-07 20:15:49.0	Ventana	34.442	03:44:50:17	4.844	V2681-04
 	transect	Mesomyaria	999.58	2669	 	36.731323	-122.23592	1684448	0.44	2005-05-25 18:57:03.0	Ventana	34.52	01:19:02:22	3.936	V2669-02
 	transect	molt	100.55	2681	 	36.69983	-122.05429	2489624	2.13	2005-07-07 16:46:34.0	Ventana	34.068	00:17:43:04	9.144	V2681-01HD
 	ascend	Euphotic zone	299.68	2685	 	36.793457	-121.880615	1669817	1.22	2005-07-12 20:57:51.0	Ventana	34.214	00:55:24:06	7.595	V2685-01
 	transect	Mesomyaria	800.92	2674	 	36.751087	-122.21742	1803499	0.35	2005-06-08 18:55:33.0	Ventana	34.489	01:39:35:26	4.347	V2674-02
 	transect	Porifera sp. 1	 	2687	 	 	 	1810163	 	2005-07-13 19:03:02.0	Ventana	 	02:28:47:05	 	V2687-03
 	ascend	Appendicularia	634.66	2683	 	36.70502	-122.05019	1757941	0.3	2005-07-11 21:10:11.0	Ventana	34.4	04:43:03:12	5.397	V2683-05
 	transect	Poeobius meseres	1000.95	2681	 	36.69647	-122.05283	2498705	0.47	2005-07-07 19:29:49.0	Ventana	34.531	02:59:28:28	3.877	V2681-03HD
 	ascend	Hastigerinella digitata	362.33	2693	 	36.69423	-122.061005	1758870	1.24	2005-07-25 21:02:15.0	Ventana	34.232	03:26:47:28	7.361	V2693-04
 	transect	Mediaster	 	2687	 	 	 	1808719	 	2005-07-13 17:27:48.0	Ventana	 	00:54:40:21	 	V2687-01
 	transect	Mesomyaria	999.51	2669	 	36.731415	-122.23658	1684808	0.44	2005-05-25 19:02:53.0	Ventana	34.521	01:24:52:22	3.938	V2669-02
 	transect	Salpida	400.73	2681	 	36.69792	-122.053635	2493231	0.79	2005-07-07 17:50:07.0	Ventana	34.279	01:20:31:22	6.66	V2681-02HD
 	transect	Mediaster	 	2687	 	 	 	1812580	 	2005-07-13 20:46:04.0	Ventana	 	04:10:34:15	 	V2687-05
 	ascend	Appendicularia	258.17	2681	 	36.697838	-122.05522	1719305	 	2005-07-07 21:29:59.0	Ventana	 	05:00:02:29	 	V2681-05
 	transect	Allocentrotus fragilis	 	2687	 	 	 	1811275	 	2005-07-13 20:05:34.0	Ventana	 	03:30:33:21	 	V2687-04
 	ascend	Appendicularia	423.15	2682	 	36.697865	-122.062584	1723727	0.79	2005-07-08 21:20:44.0	Ventana	34.268	05:12:23:27	6.612	V2682-06
 	transect	Mesomyaria	998.18	2669	 	36.73296	-122.252235	1737399	0.4	2005-05-25 20:46:41.0	Ventana	34.51	03:07:28:21	4.075	V2669-04
 	descend	sinker	886.42	2681	 	36.696938	-122.053154	1716496	0.37	2005-07-07 19:05:38.46	Ventana	34.502	02:35:21:05	4.201	V2681-03
 	transect	Mediaster	 	2687	 	 	 	1807076	 	2005-07-13 16:58:01.0	Ventana	 	00:24:55:08	 	V2687-01
 	transect	Parastichopus leukothele	203.57	2696	 	36.805264	-122.128204	1813678	1.48	2005-08-01 18:14:36.0	Ventana	34.216	01:42:27:09	8.634	V2696-02
 	transect	Psolus squamatus	 	2687	 	 	 	1810569	 	2005-07-13 19:22:32.0	Ventana	 	02:48:15:25	 	V2687-03
 	descend	Aegina	970.49	2682	 	36.698326	-122.059296	1722000	0.42	2005-07-08 18:56:21.0	Ventana	34.514	02:49:22:02	4.053	V2682-03
 	transect	Phyllospadix	 	2687	 	 	 	1810869	 	2005-07-13 19:38:19.0	Ventana	 	03:04:01:26	 	V2687-03
 	transect	Rathbunaster californicus	199.45	2696	 	36.804127	-122.12584	1813378	1.52	2005-08-01 17:41:20.0	Ventana	34.208	01:09:13:15	8.661	V2696-02
 	transect	Appendicularia	300.45	2681	 	36.697803	-122.053215	2492133	1.23	2005-07-07 17:22:11.0	Ventana	34.233	00:53:17:13	7.399	V2681-01HD
 	transect	molt	100.5	2681	 	36.699825	-122.05429	2489707	2.13	2005-07-07 16:48:21.0	Ventana	34.067	00:19:31:07	9.15	V2681-01HD
 	transect	Umbellula lindahli	603.22	2680	 	36.788956	-122.232475	1805978	0.35	2005-06-27 20:05:24.0	Ventana	34.379	02:44:01:08	5.583	V2680-03
 	ascend	Euphausiacea	290.15	2681	 	36.699738	-122.055214	1718207	1.36	2005-07-07 21:00:14.067	Ventana	34.23	04:28:34:00	7.721	V2681-05
 	descend	Dosidicus gigas	543.31	2682	 	36.698616	-122.05976	1720888	0.36	2005-07-08 18:04:27.0	Ventana	34.368	01:57:55:21	5.737	V2682-02
 	ascend	Chuniphyes	530.68	2683	 	36.70449	-122.05066	1757978	0.44	2005-07-11 21:15:04.0	Ventana	34.344	04:47:56:14	6.075	V2683-05
 	transect	Anthoptilum grandiflorum	1000.04	2669	 	36.731194	-122.23847	1688870	0.43	2005-05-25 19:18:05.0	Ventana	34.516	01:40:03:20	3.966	V2669-02
 	transect	Psolus squamatus	 	2687	http://search.mbari.org/ARCHIVE/frameGrabs/Ventana/images/2687/03_40_03_15.jpg	 	 	1811528	 	2005-07-13 20:15:04.0	Ventana	 	03:40:03:15	 	V2687-04
 	transect	Mediaster	 	2687	 	 	 	1812497	 	2005-07-13 20:41:46.0	Ventana	 	04:06:43:28	 	V2687-04
 	transect	Mediaster	 	2687	 	 	 	1810223	 	2005-07-13 19:10:25.0	Ventana	 	02:36:09:06	 	V2687-03
 	transect	Ophiuroidea	997.52	2669	 	36.730648	-122.22784	1649245	0.45	2005-05-25 17:59:43.0	Ventana	34.522	00:22:11:07	3.907	V2669-01
 	transect	Psolus squamatus	 	2687	 	 	 	1810929	 	2005-07-13 19:43:03.0	Ventana	 	03:08:05:00	 	V2687-04
 	transect	Mediaster	 	2687	 	 	 	1811791	 	2005-07-13 20:25:17.0	Ventana	 	03:50:15:29	 	V2687-04
 	transect	Mediaster	 	2687	 	 	 	1812234	 	2005-07-13 20:29:39.0	Ventana	 	03:54:37:18	 	V2687-04
 	cruise	Glyptocephalus zachirus	424.29	2676	 	36.803604	-122.02922	1676419	0.68	2005-06-14 16:42:21.0	Ventana	34.31	00:26:29:23	6.489	V2676-01
 	descend	Nanomia	241.28	2683	 	36.700966	-122.05062	1756437	1.71	2005-07-11 16:50:00.0	Ventana	34.188	00:37:40:26	8.075	V2683-01
 	ascend	Nanomia	192.83	2693	 	36.690605	-122.06287	1759216	1.84	2005-07-25 21:28:55.0	Ventana	34.168	03:53:27:12	8.849	V2693-04
 	transect	Psolus squamatus	399.84	2687	http://search.mbari.org/ARCHIVE/frameGrabs/Ventana/images/2687/01_02_17_21.jpg	36.788036	-122.12153	1809125	1.13	2005-07-13 17:35:55.0	Ventana	34.244	01:02:17:21	7.27	V2687-02
 	ascend	Medusae	585.57	2682	 	36.698826	-122.06029	1723444	0.4	2005-07-08 20:42:18.0	Ventana	34.371	04:34:27:21	5.67	V2682-05
 	descend	Appendicularia	786.03	2683	 	36.70257	-122.04885	1757143	0.35	2005-07-11 17:59:35.0	Ventana	34.454	01:43:41:17	4.703	V2683-02
 	transect	Microstomus pacificus	202.25	2696	 	36.805256	-122.12819	1813641	1.49	2005-08-01 18:09:33.0	Ventana	34.211	01:37:24:25	8.639	V2696-02
 	transect	Glyptocephalus zachirus	399.91	2687	 	36.788143	-122.121826	1809365	1.13	2005-07-13 17:40:05.0	Ventana	34.252	01:06:27:01	7.29	V2687-02
 	cruise	Chionoecetes tanneri	1234.89	2683	 	36.7057	-122.048035	1757535	0.73	2005-07-11 19:49:14.0	Ventana	34.577	03:23:37:21	3.319	V2683-04
 	cruise	Bathocyroe	377.49	2676	 	36.80442	-122.029144	1676479	0.94	2005-06-14 16:45:30.0	Ventana	34.269	00:29:38:26	7.032	V2676-01
 	transect	Neptunea amianta	1000.45	2669	 	36.732418	-122.249855	1736730	0.41	2005-05-25 20:31:55.0	Ventana	34.509	02:53:24:15	4.069	V2669-03
 	transect	Gastropoda sp.2	1000.42	2669	 	36.73147	-122.24225	1694480	0.4	2005-05-25 19:40:51.0	Ventana	34.509	02:02:47:29	4.067	V2669-02
 	transect	Mesomyaria	998.37	2669	 	36.73095	-122.230095	1651248	0.45	2005-05-25 18:15:01.0	Ventana	34.522	00:37:28:21	3.912	V2669-01
 	ascend	Chaetognatha	324.59	2681	 	36.699703	-122.055244	1718147	1.21	2005-07-07 20:56:44.967	Ventana	34.237	04:25:06:04	7.367	V2681-05
 	transect	Haliscera	700.65	2681	 	36.696445	-122.05237	2497736	0.28	2005-07-07 18:41:57.0	Ventana	34.433	02:11:38:27	4.961	V2681-03HD
 	stationary	Appendicularia	501.61	2695	 	36.78457	-122.20045	1824462	0.78	2005-07-28 17:49:31.0	Ventana	34.278	00:55:50:20	6.508	V2695-01
 	transect	Nanomia bijuga	200.44	2681	 	36.69828	-122.05329	2490099	1.7	2005-07-07 17:04:40.0	Ventana	34.197	00:35:47:25	8.36	V2681-01HD
 	transect	Solmissus	300.43	2681	 	36.697083	-122.05259	2492373	1.23	2005-07-07 17:24:38.0	Ventana	34.234	00:55:44:17	7.392	V2681-01HD
 	descend	Nanomia	196.08	2682	 	36.699894	-122.06074	1719951	2.0	2005-07-08 16:20:36.0	Ventana	34.137	00:14:41:03	8.133	V2682-01
 	transect	Chionoecetes tanneri	601.18	2680	 	36.786938	-122.23134	1805895	0.36	2005-06-27 19:43:44.0	Ventana	34.373	02:22:22:12	5.608	V2680-03
 	transect	Chionoecetes tanneri	600.11	2680	 	36.777138	-122.22228	1804237	0.36	2005-06-27 17:42:01.0	Ventana	34.378	00:22:08:24	5.578	V2680-01
 	transect	Chaetognatha	200.36	2681	 	36.69829	-122.05334	2491068	1.7	2005-07-07 17:11:24.0	Ventana	34.196	00:42:32:03	8.332	V2681-01HD
 	transect	Phyllospadix	998.48	2669	 	36.73116	-122.234604	1684162	0.45	2005-05-25 18:46:47.0	Ventana	34.521	01:08:48:02	3.916	V2669-02
 	descend	Crustacea	597.91	2681	 	36.695683	-122.05109	1715638	0.31	2005-07-07 18:07:43.067	Ventana	34.38	01:38:04:16	5.52	V2681-02
 	ascend	Appendicularia	984.53	2681	 	36.69685	-122.053246	1716579	0.45	2005-07-07 19:34:43.61	Ventana	34.525	03:04:24:01	3.954	V2681-03
 	descend	Haliscera	515.64	2683	 	36.701447	-122.049164	1756880	0.64	2005-07-11 17:40:44.0	Ventana	34.307	01:24:50:15	6.391	V2683-02
 	transect	Mesomyaria	999.73	2669	 	36.731956	-122.24619	1735632	0.41	2005-05-25 20:05:35.0	Ventana	34.51	02:27:05:21	4.061	V2669-03
 	descend	Appendicularia	902.4	2683	 	36.703503	-122.04831	1757272	0.38	2005-07-11 18:43:32.0	Ventana	34.5	02:23:55:14	4.219	V2683-03
 	ascend	Euphausiacea	264.11	2681	 	36.698895	-122.05673	1718853	1.41	2005-07-07 21:18:43.247	Ventana	34.231	04:47:02:16	7.931	V2681-05
 	ascend	Appendicularia	510.93	2682	 	36.69836	-122.06316	1723667	0.47	2005-07-08 21:13:02.0	Ventana	34.337	05:04:41:24	6.11	V2682-06
 	descend	Euphausiacea	362.53	2682	 	36.69853	-122.060165	1720417	0.99	2005-07-08 17:31:59.0	Ventana	34.259	01:25:29:22	7.062	V2682-02
 	transect	Ophiuroidea	1000.29	2669	 	36.73119	-122.24062	1689290	0.41	2005-05-25 19:31:37.0	Ventana	34.511	01:53:34:24	4.055	V2669-02
 	transect	Mediaster	 	2687	 	 	 	1811215	 	2005-07-13 20:03:33.0	Ventana	 	03:28:32:10	 	V2687-04
 	ascend	Appendicularia	345.2	2693	 	36.693497	-122.06134	1758930	1.24	2005-07-25 21:09:29.0	Ventana	34.237	03:34:03:09	7.388	V2693-04
 	transect	Calliostoma platinum	 	2687	 	 	 	1808659	 	2005-07-13 17:26:29.0	Ventana	 	00:53:22:02	 	V2687-01
 	transect	Phyllospadix	800.95	2674	 	36.75176	-122.2111	1801081	0.35	2005-06-08 18:24:32.0	Ventana	34.488	01:08:36:19	4.34	V2674-02
 	transect	Gonatus	500.59	2681	 	36.69776	-122.05353	2493314	0.44	2005-07-07 17:55:43.0	Ventana	34.346	01:26:06:29	6.021	V2681-02HD
 	transect	Mesomyaria	798.9	2674	 	36.75174	-122.21248	1801210	0.35	2005-06-08 18:29:45.0	Ventana	34.49	01:13:49:05	4.33	V2674-02
 	starttransect	physical object	600.85	2680	 	36.785618	-122.23067	1805835	0.36	2005-06-27 19:29:36.0	Ventana	34.376	02:08:16:16	5.607	V2680-03
 	transect	Salpida	200.42	2681	 	36.69828	-122.05329	2490159	1.7	2005-07-07 17:05:16.0	Ventana	34.197	00:36:24:27	8.358	V2681-01HD
 	cruise	rock outcrop	102.16	2676	http://search.mbari.org/ARCHIVE/frameGrabs/Ventana/images/2676/02_10_46_08.jpg	36.809387	-122.03437	1676965	1.95	2005-06-14 18:31:08.0	Ventana	34.147	02:10:46:08	8.49	V2676-02
 	ascend	Chuniphyes	699.01	2683	 	36.705776	-122.04906	1757881	0.27	2005-07-11 21:06:03.0	Ventana	34.449	04:38:55:25	4.795	V2683-05
 	transect	Phyllospadix	198.04	2696	 	36.80359	-122.12416	1813235	1.54	2005-08-01 17:24:11.0	Ventana	34.202	00:52:28:17	8.608	V2696-01
 	transect	Phyllospadix	801.06	2674	 	36.751007	-122.21826	1803559	0.35	2005-06-08 18:59:17.0	Ventana	34.489	01:43:19:24	4.347	V2674-02
 	descend	Chaetognatha	327.95	2683	 	36.701202	-122.05007	1756534	1.21	2005-07-11 16:55:16.0	Ventana	34.24	00:42:56:10	7.487	V2683-01
 	descend	Chaetognatha	241.28	2693	 	36.69854	-122.061714	1758384	1.5	2005-07-25 19:23:44.0	Ventana	34.238	02:03:44:23	8.515	V2693-02
 	cruise	Pleuronectiformes	99.46	2688	 	36.816833	-122.01407	1679318	1.98	2005-07-14 19:52:48.0	Ventana	34.087	03:37:34:08	8.914	V2688-04
 	descend	Bathocyroe	851.37	2682	 	36.698322	-122.05944	1721737	0.34	2005-07-08 18:48:00.0	Ventana	34.481	02:41:02:01	4.437	V2682-03
 	stationary	physical object	997.94	2679	http://search.mbari.org/ARCHIVE/frameGrabs/Ventana/images/2679/00_03_53_22.jpg	36.68986	-122.1656	20004431	0.42	2005-06-16 17:32:31.0	Ventana	34.513	00:03:53:22	4.11	V2679-01
 	descend	Chuniphyes	1183.11	2682	 	36.698273	-122.057945	1722332	0.66	2005-07-08 19:40:12.0	Ventana	34.569	03:32:48:20	3.413	V2682-04
 	transect	Nanomia bijuga	200.43	2681	 	36.69828	-122.0533	2490865	1.71	2005-07-07 17:09:21.0	Ventana	34.195	00:40:28:16	8.326	V2681-01HD
 	transect	molt	100.52	2681	 	36.69983	-122.05429	2489564	2.13	2005-07-07 16:45:00.0	Ventana	34.068	00:16:09:05	9.147	V2681-01HD
 	transect	Zaniolepididae	203.99	2696	 	36.806152	-122.12973	1813738	1.5	2005-08-01 18:23:25.0	Ventana	34.207	01:51:15:28	8.649	V2696-02
 	cruise	Siphonophora	99.44	2688	 	36.81338	-122.01983	1679521	1.94	2005-07-14 21:27:32.0	Ventana	34.106	05:11:44:20	8.885	V2688-05
 	descend	Cyclothone	952.2	2683	 	36.703857	-122.04854	1757332	0.42	2005-07-11 19:10:23.0	Ventana	34.514	02:50:44:22	4.049	V2683-03
 	descend	Appendicularia	467.43	2683	 	36.70163	-122.04936	1756737	0.77	2005-07-11 17:12:23.0	Ventana	34.288	01:00:01:12	6.648	V2683-01
 	transect	Actiniaria sp. 1	999.51	2669	 	36.73103	-122.23118	1683567	0.45	2005-05-25 18:24:44.0	Ventana	34.521	00:47:11:04	3.914	V2669-01
 	ascend	Appendicularia	256.48	2681	 	36.69868	-122.05665	1719116	1.44	2005-07-07 21:23:06.837	Ventana	34.229	04:51:26:11	7.958	V2681-05
 	descend	Aegina	701.1	2683	 	36.702084	-122.048935	1757083	0.31	2005-07-11 17:54:20.0	Ventana	34.422	01:38:24:20	5.079	V2683-02
 	cruise	rock outcrop	357.83	2676	http://search.mbari.org/ARCHIVE/frameGrabs/Ventana/images/2676/00_32_50_20.jpg	36.804684	-122.029	20003928	0.98	2005-06-14 16:48:43.0	Ventana	34.266	00:32:50:20	7.121	V2676-01
 	descend	Crustacea	599.04	2682	 	36.69864	-122.05981	1721234	0.38	2005-07-08 18:07:34.0	Ventana	34.388	02:00:38:28	5.486	V2682-03
 	cruise	Poralia rufescens	1206.94	2683	 	36.707096	-122.04768	1757678	0.72	2005-07-11 20:16:55.0	Ventana	34.574	03:51:17:19	3.354	V2683-04
 	descend	Sergestes similis	275.75	2681	 	36.698566	-122.05366	1713612	1.37	2005-07-07 17:16:59.7	Ventana	34.222	00:48:07:26	7.694	V2681-01
 	transect	Appendicularia	400.82	2681	 	36.696156	-122.05162	2492968	0.79	2005-07-07 17:42:39.0	Ventana	34.276	01:13:03:23	6.657	V2681-02HD
 	cruise	Sebastolobus	616.89	2688	 	36.794785	-122.01925	1677311	0.43	2005-07-14 16:31:12.0	Ventana	34.4	00:17:32:19	5.381	V2688-01
 	descend	Leuroglossus stilbius	496.0	2682	 	36.6986	-122.05978	1720828	0.46	2005-07-08 17:59:11.0	Ventana	34.342	01:52:41:09	6.055	V2682-02
 	descend	Appendicularia	387.17	2682	 	36.698406	-122.0599	1720685	0.92	2005-07-08 17:35:59.0	Ventana	34.26	01:29:30:07	6.907	V2682-02
 	ascend	Poeobius meseres	1130.96	2682	 	36.698166	-122.057526	1722535	0.6	2005-07-08 19:56:37.0	Ventana	34.559	03:49:13:06	3.532	V2682-04
 	transect	Mediaster	 	2687	 	 	 	1812437	 	2005-07-13 20:38:51.0	Ventana	 	04:03:48:14	 	V2687-04
 	transect	molt	100.53	2681	 	36.699753	-122.054245	2489767	2.12	2005-07-07 16:50:05.0	Ventana	34.067	00:21:15:06	9.159	V2681-01HD
 	descend	Calycophorae	104.35	2683	 	36.700577	-122.05168	1756234	2.4	2005-07-11 16:17:47.0	Ventana	34.022	00:05:29:18	9.329	V2683-01
 	transect	Mediaster	 	2687	 	 	 	1807482	 	2005-07-13 17:09:58.0	Ventana	 	00:36:51:21	 	V2687-01
 	transect	Mediaster	 	2687	 	 	 	1811588	 	2005-07-13 20:16:31.0	Ventana	 	03:41:29:28	 	V2687-04
 	ascend	Leuroglossus stilbius	448.51	2694	 	36.784866	-122.20069	1676762	0.97	2005-07-27 21:02:08.0	Ventana	34.267	03:33:29:01	6.991	V2694-04
 	transect	Phyllospadix	999.76	2669	 	36.731342	-122.2378	1687535	0.44	2005-05-25 19:13:05.0	Ventana	34.519	01:35:03:19	3.952	V2669-02
 	descend	Aegina	1111.87	2682	 	36.698215	-122.05919	1722129	0.57	2005-07-08 19:11:39.0	Ventana	34.553	03:04:16:20	3.612	V2682-04
 	ascend	Copepoda	770.34	2681	 	36.69864	-122.056206	1717488	0.28	2005-07-07 20:09:23.72	Ventana	34.452	03:38:25:21	4.763	V2681-04
 	cruise	Microstomus pacificus	434.74	2688	 	36.804825	-122.01866	1677671	0.89	2005-07-14 17:42:48.0	Ventana	34.278	01:28:31:11	6.878	V2688-02
 	transect	Phyllospadix	801.6	2674	 	36.752182	-122.20788	1800112	0.35	2005-06-08 18:08:52.0	Ventana	34.49	00:53:24:02	4.328	V2674-01
 	transect	Phyllospadix	799.0	2674	 	36.751347	-122.21525	1801413	0.35	2005-06-08 18:45:04.0	Ventana	34.488	01:29:07:21	4.351	V2674-02
 	descend	Calycophorae	741.82	2681	 	36.69491	-122.05057	1716233	0.29	2005-07-07 18:50:08.2	Ventana	34.45	02:19:51:26	4.77	V2681-03
 	ascend	Appendicularia	636.5	2682	 	36.69887	-122.059715	1723384	0.3	2005-07-08 20:36:35.0	Ventana	34.389	04:28:42:24	5.407	V2682-05
 	transect	Mesomyaria	998.64	2669	 	36.73052	-122.22846	1650888	0.45	2005-05-25 18:03:29.0	Ventana	34.523	00:25:57:00	3.906	V2669-01
 	transect	Nanomia bijuga	200.41	2681	 	36.698288	-122.05332	2491008	1.71	2005-07-07 17:10:43.0	Ventana	34.192	00:41:52:12	8.325	V2681-01HD
 	transect	bathocyroe	500.55	2681	 	36.697105	-122.05273	2493517	0.44	2005-07-07 17:58:48.0	Ventana	34.346	01:29:10:07	6.03	V2681-02HD
 	transect	Mesomyaria	1000.2	2669	 	36.731667	-122.24379	1733951	0.41	2005-05-25 19:48:51.0	Ventana	34.509	02:10:22:08	4.064	V2669-03
 	transect	Mesomyaria	800.0	2674	 	36.7525	-122.20332	1799310	0.35	2005-06-08 17:45:16.0	Ventana	34.485	00:29:49:24	4.378	V2674-01
 	transect	Mediaster	 	2687	 	 	 	1812294	 	2005-07-13 20:31:12.0	Ventana	 	03:56:10:01	 	V2687-04
 	descend	Appendicularia	174.11	2693	 	36.6961	-122.058044	1758241	1.95	2005-07-25 18:04:26.0	Ventana	34.141	00:44:56:29	8.901	V2693-01
 	transect	Medusae	700.59	2681	 	36.69538	-122.05116	2497939	0.28	2005-07-07 18:46:44.0	Ventana	34.433	02:16:26:01	4.984	V2681-03HD
 	descend	Calycophorae	464.05	2681	 	36.698097	-122.05389	1715338	0.51	2005-07-07 17:52:37.367	Ventana	34.326	01:23:00:08	6.135	V2681-02
 	transect	Mesomyaria	999.51	2669	 	36.730583	-122.2291	1651045	0.45	2005-05-25 18:07:37.0	Ventana	34.522	00:30:05:04	3.908	V2669-01
 	descend	Appendicularia	262.81	2682	 	36.699795	-122.06083	1720011	1.36	2005-07-08 16:26:40.0	Ventana	34.227	00:20:44:09	7.8	V2682-01
 	transect	Nanomia bijuga	400.77	2681	 	36.697556	-122.053246	2493171	0.79	2005-07-07 17:48:37.0	Ventana	34.277	01:19:01:13	6.66	V2681-02HD
 	transect	Microstomus pacificus	600.34	2680	 	36.784286	-122.22966	1805552	0.36	2005-06-27 19:16:12.0	Ventana	34.377	01:55:15:02	5.609	V2680-02
 	transect	Stomphia	803.86	2674	 	36.750744	-122.22051	1803702	0.34	2005-06-08 19:09:19.0	Ventana	34.487	01:53:21:17	4.388	V2674-02
 	transect	Neptunea amianta	802.13	2674	 	36.75175	-122.210526	1801021	0.35	2005-06-08 18:22:13.0	Ventana	34.49	01:06:18:13	4.327	V2674-02
 	descend	Appendicularia	539.7	2683	 	36.70159	-122.04915	1756940	0.53	2005-07-11 17:43:36.0	Ventana	34.327	01:27:42:21	6.191	V2683-02
 	transect	Ceriantharia sp. 2	999.4	2669	 	36.73078	-122.22953	1683364	0.45	2005-05-25 18:10:51.0	Ventana	34.523	00:33:18:24	3.906	V2669-01
 	ascend	Chaetognatha	261.01	2681	 	36.69887	-122.0569	1718913	1.42	2005-07-07 21:19:26.7	Ventana	34.232	04:47:45:28	7.955	V2681-05
 	ascend	Poeobius meseres	853.42	2682	 	36.698654	-122.05851	1723241	0.33	2005-07-08 20:20:10.0	Ventana	34.485	04:12:19:11	4.385	V2682-05
 	transect	Ophiuroidea	1000.33	2669	 	36.731937	-122.24644	1735692	0.41	2005-05-25 20:07:57.0	Ventana	34.51	02:29:27:19	4.064	V2669-03
 	transect	Chaetognatha	901.07	2681	 	36.696503	-122.05262	2498299	0.39	2005-07-07 19:08:47.0	Ventana	34.505	02:38:28:26	4.171	V2681-03HD
 	cruise	Glyptocephalus zachirus	345.57	2688	 	36.80785	-122.02008	1677814	1.2	2005-07-14 18:05:54.0	Ventana	34.231	01:51:35:25	7.489	V2688-02
 	transect	Phyllospadix	802.33	2674	 	36.75224	-122.206665	1799969	0.37	2005-06-08 18:03:20.0	Ventana	34.491	00:47:51:25	4.319	V2674-01
 	transect	Ceriantharia sp. 1	599.7	2680	 	36.777645	-122.22265	1804297	0.36	2005-06-27 17:48:20.0	Ventana	34.378	00:28:27:28	5.586	V2680-01
 	ascend	Appendicularia	870.46	2681	 	36.698406	-122.05542	1717345	0.35	2005-07-07 19:52:42.36	Ventana	34.5	03:21:45:11	4.306	V2681-04
 	transect	Mediaster	 	2687	 	 	 	1811731	 	2005-07-13 20:22:45.0	Ventana	 	03:47:44:06	 	V2687-04
 	transect	Mesomyaria	999.27	2669	 	36.731018	-122.23201	1683710	0.45	2005-05-25 18:30:12.0	Ventana	34.523	00:52:38:08	3.913	V2669-01
 	transect	Parastichopus leukothele	196.42	2696	 	36.80266	-122.12168	1813032	1.55	2005-08-01 16:58:15.0	Ventana	34.2	00:26:34:25	8.599	V2696-01
 	ascend	Appendicularia	425.24	2683	 	36.70415	-122.05058	1758038	0.88	2005-07-11 21:19:15.0	Ventana	34.265	04:52:06:23	6.843	V2683-05
 	transect	Mesomyaria	1000.09	2669	 	36.731106	-122.23529	1684305	0.45	2005-05-25 18:52:44.0	Ventana	34.522	01:14:44:12	3.921	V2669-02
 	transect	Phyllospadix	200.48	2696	 	36.805214	-122.12811	1813581	1.5	2005-08-01 18:01:39.0	Ventana	34.211	01:29:31:23	8.671	V2696-02
 	ascend	Lensia	385.83	2681	 	36.699333	-122.0546	1718004	0.93	2005-07-07 20:49:09.813	Ventana	34.267	04:17:30:28	6.96	V2681-05
 	transect	cydippida	200.38	2681	 	36.69831	-122.0534	2491211	1.68	2005-07-07 17:12:48.0	Ventana	34.2	00:43:55:03	8.337	V2681-01HD
 	transect	Mesomyaria	998.36	2669	 	36.732944	-122.25215	1737339	0.4	2005-05-25 20:46:09.0	Ventana	34.51	03:06:58:27	4.074	V2669-04
 	transect	Sebastolobus	1000.23	2669	 	36.731335	-122.241585	1689825	0.4	2005-05-25 19:37:16.0	Ventana	34.508	01:59:13:04	4.089	V2669-02
 	ascend	Haliscera	297.75	2693	 	36.691475	-122.06211	1759073	1.32	2005-07-25 21:19:32.0	Ventana	34.238	03:44:04:16	7.721	V2693-04
 	transect	Phyllospadix	800.59	2674	 	36.752594	-122.20173	1799107	0.34	2005-06-08 17:37:34.0	Ventana	34.479	00:22:07:18	4.42	V2674-01
 	transect	Mesomyaria	998.19	2669	 	36.733017	-122.25279	1737496	0.4	2005-05-25 20:49:35.0	Ventana	34.508	03:10:24:15	4.075	V2669-04
 	transect	Pennatulacea sp.1	602.34	2680	 	36.79009	-122.232666	1806744	0.35	2005-06-27 20:16:23.0	Ventana	34.379	02:55:00:02	5.586	V2680-03
 	transect	Psolus squamatus	 	2687	http://search.mbari.org/ARCHIVE/frameGrabs/Ventana/images/2687/03_16_31_19.jpg	 	 	1811072	 	2005-07-13 19:51:30.0	Ventana	 	03:16:31:19	 	V2687-04
 	transect	Psolus squamatus	 	2687	 	 	 	1807136	 	2005-07-13 17:01:25.0	Ventana	 	00:28:19:07	 	V2687-01
 	transect	Chaetognatha	200.49	2681	 	36.69828	-122.05329	2490505	1.71	2005-07-07 17:07:12.0	Ventana	34.197	00:38:19:28	8.341	V2681-01HD
 	ascend	Copepoda	604.6	2682	 	36.698624	-122.06164	1723524	0.34	2005-07-08 20:57:13.0	Ventana	34.373	04:49:20:15	5.63	V2682-05
 	transect	Phyllospadix	800.38	2674	 	36.752426	-122.204704	1799656	0.36	2005-06-08 17:53:16.0	Ventana	34.488	00:37:48:24	4.355	V2674-01
 	transect	Mediaster	 	2687	 	 	 	1812640	 	2005-07-13 20:49:23.0	Ventana	 	04:13:53:20	 	V2687-05
 	ascend	Appendicularia	906.64	2681	 	36.69791	-122.05463	1717045	0.37	2005-07-07 19:47:52.693	Ventana	34.505	03:16:55:15	4.202	V2681-04
 	descend	Nanomia	429.77	2682	 	36.698166	-122.05978	1720745	0.68	2005-07-08 17:42:14.0	Ventana	34.291	01:35:44:11	6.465	V2682-02
 	transect	Chaetognatha	400.76	2681	 	36.69661	-122.05215	2493028	0.79	2005-07-07 17:44:38.0	Ventana	34.277	01:15:01:04	6.652	V2681-02HD
 	ascend	Nanomia	 	2683	 	 	 	1758144	 	2005-07-11 14:31:48.0	Ventana	 	05:04:39:05	 	V2683-05
 	transect	Mesomyaria	801.52	2674	 	36.75197	-122.20935	1800901	0.36	2005-06-08 18:16:21.0	Ventana	34.491	01:00:52:29	4.321	V2674-01
 	transect	molt	100.49	2681	 	36.699024	-122.05377	2489850	2.13	2005-07-07 16:51:52.0	Ventana	34.069	00:23:00:11	9.146	V2681-01HD
 	ascend	Nanomia	280.18	2681	 	36.699726	-122.05503	1718304	1.36	2005-07-07 21:03:01.433	Ventana	34.234	04:31:22:06	7.751	V2681-05
 	descend	Cydippida	149.25	2683	 	36.700665	-122.05167	1756271	1.69	2005-07-11 16:25:35.0	Ventana	34.173	00:13:16:08	8.846	V2683-01
 	transect	Ceriantharia sp. 1	602.13	2680	 	36.791046	-122.23289	1806827	0.35	2005-06-27 20:24:42.0	Ventana	34.379	03:03:18:09	5.586	V2680-03
 	cruise	Rathbunaster californicus	460.51	2676	 	36.80275	-122.029335	1676299	0.59	2005-06-14 16:35:31.0	Ventana	34.33	00:19:40:06	6.264	V2676-01
 	transect	Ophiuroidea	999.27	2669	 	36.731407	-122.23614	1684605	0.44	2005-05-25 18:58:36.0	Ventana	34.521	01:20:35:24	3.943	V2669-02
 	transect	Mesomyaria	 	2669	 	 	 	1737602	 	2005-05-25 13:53:03.0	Ventana	 	03:13:50:16	 	V2669-04
 	transect	Phyllospadix	800.4	2674	 	36.7525	-122.20449	1799596	0.35	2005-06-08 17:52:04.0	Ventana	34.487	00:36:36:20	4.382	V2674-01
 	cruise	Sebastes	205.16	2688	 	36.81034	-122.02106	1677957	1.73	2005-07-14 18:34:24.0	Ventana	34.161	02:19:39:14	8.683	V2688-03
 	transect	Stomphia	399.86	2687	 	36.788128	-122.12167	1809268	1.13	2005-07-13 17:37:54.0	Ventana	34.243	01:04:16:22	7.254	V2687-02
 	descend	Appendicularia	1010.83	2683	 	36.704338	-122.05002	1757392	0.44	2005-07-11 19:22:22.0	Ventana	34.519	03:02:44:24	3.998	V2683-03
 	transect	Phyllospadix	 	2687	 	 	 	1811095	 	2005-07-13 19:52:42.0	Ventana	 	03:17:43:19	 	V2687-04
 	ascend	Haliscera	324.24	2693	 	36.691734	-122.062	1759050	1.29	2005-07-25 21:17:40.0	Ventana	34.238	03:42:12:22	7.562	V2693-04
 	transect	Euphausia	200.39	2681	 	36.698284	-122.053314	2490971	1.7	2005-07-07 17:10:19.0	Ventana	34.194	00:41:28:01	8.329	V2681-01HD
 	transect	Phyllospadix	802.48	2674	 	36.752308	-122.20574	1799826	0.36	2005-06-08 17:58:33.0	Ventana	34.489	00:43:05:18	4.333	V2674-01
 	descend	Dosidicus gigas	607.02	2681	 	36.69792	-122.05383	1715924	0.3	2005-07-07 18:29:00.323	Ventana	34.388	01:59:20:29	5.461	V2681-02
 	transect	Psolus squamatus	399.86	2687	 	36.788113	-122.12162	1809222	1.13	2005-07-13 17:37:21.0	Ventana	34.243	01:03:43:12	7.255	V2687-02
 	transect	Stomphia	802.73	2674	 	36.750843	-122.22005	1803665	0.34	2005-06-08 19:06:57.0	Ventana	34.482	01:50:59:02	4.385	V2674-02
 	ascend	Hastigerinella digitata	1144.25	2683	 	36.708183	-122.04915	1757775	0.67	2005-07-11 20:39:15.0	Ventana	34.563	04:13:36:00	3.48	V2683-04
 	transect	Chionoecetes tanneri	798.35	2674	 	36.751682	-122.213425	1801270	0.35	2005-06-08 18:34:35.0	Ventana	34.488	01:18:39:05	4.35	V2674-02
 	transect	Mediaster	 	2687	 	 	 	1812723	 	2005-07-13 20:54:51.0	Ventana	 	04:19:21:25	 	V2687-05
 	descend	Melanostigma pammelas	1186.86	2682	 	36.698563	-122.05834	1722249	0.68	2005-07-08 19:34:38.0	Ventana	34.57	03:27:13:28	3.382	V2682-04
 	transect	Psolus squamatus	 	2687	 	 	 	1811418	 	2005-07-13 20:12:01.0	Ventana	 	03:37:00:25	 	V2687-04
 	ascend	Chuniphyes	856.72	2681	 	36.698532	-122.05568	1717368	0.34	2005-07-07 19:54:23.9	Ventana	34.493	03:23:26:09	4.348	V2681-04
 	descend	Myctophidae	404.28	2683	 	36.70148	-122.04953	1756640	0.95	2005-07-11 17:03:06.0	Ventana	34.26	00:50:45:27	6.954	V2683-01
 	ascend	Sergestes similis	370.9	2693	 	36.69679	-122.060455	1758727	1.2	2005-07-25 20:31:44.0	Ventana	34.233	03:11:16:17	7.185	V2693-03
 	transect	Porifera	 	2687	 	 	 	1807196	 	2005-07-13 17:03:20.0	Ventana	 	00:30:14:22	 	V2687-01
 	transect	Phyllospadix	800.56	2674	 	36.752506	-122.20303	1799273	0.35	2005-06-08 17:43:37.0	Ventana	34.489	00:28:10:28	4.386	V2674-01
 	transect	Sebastolobus	999.23	2669	 	36.731083	-122.23111	1683530	0.45	2005-05-25 18:23:17.0	Ventana	34.521	00:45:43:14	3.917	V2669-01
 	transect	Mesomyaria	1000.28	2669	 	36.731277	-122.24138	1689779	0.4	2005-05-25 19:36:05.0	Ventana	34.507	01:58:02:09	4.091	V2669-02
 	ascend	Nanomia	260.11	2681	 	36.6988	-122.05693	1719056	1.42	2005-07-07 21:21:53.543	Ventana	34.23	04:50:12:19	7.96	V2681-05
 	transect	Psolus squamatus	 	2687	 	 	 	1808899	 	2005-07-13 17:31:31.0	Ventana	 	00:58:23:01	 	V2687-01
 	cruise	Pleuronectiformes	94.51	2688	 	36.814724	-122.018265	1679461	1.95	2005-07-14 21:03:47.0	Ventana	34.097	04:48:00:15	8.933	V2688-05
 	transect	Asteronyx	 	2687	 	 	 	1812400	 	2005-07-13 20:36:35.0	Ventana	 	04:01:33:05	 	V2687-04
 	transect	Euphausia	200.48	2681	 	36.69828	-122.05329	2490602	1.72	2005-07-07 17:07:47.0	Ventana	34.195	00:38:54:19	8.334	V2681-01HD
 	transect	Calycophorae	700.62	2681	 	36.695995	-122.051865	2497833	0.29	2005-07-07 18:43:56.0	Ventana	34.436	02:13:39:00	4.934	V2681-03HD
 	descend	Appendicularia	336.42	2682	 	36.69879	-122.06059	1720177	1.05	2005-07-08 17:11:33.0	Ventana	34.249	01:05:05:03	7.161	V2682-02
 	transect	Aegina	1001.09	2681	 	36.694683	-122.05045	2498525	0.47	2005-07-07 19:20:49.0	Ventana	34.531	02:50:29:12	3.868	V2681-03HD
 	transect	Psolus squamatus	399.68	2687	 	36.789272	-122.12466	1809591	1.17	2005-07-13 18:22:34.0	Ventana	34.239	01:48:53:01	7.336	V2687-02
 	transect	Mesomyaria	1000.14	2669	 	36.731056	-122.23928	1689133	0.43	2005-05-25 19:22:59.0	Ventana	34.517	01:44:57:02	3.982	V2669-02
 	transect	Mediaster	 	2687	 	 	 	1812783	 	2005-07-13 20:57:20.0	Ventana	 	04:21:50:15	 	V2687-05
 	transect	Phyllospadix	196.37	2696	 	36.80306	-122.12262	1813092	1.56	2005-08-01 17:06:16.0	Ventana	34.197	00:34:34:26	8.623	V2696-01
 	transect	Gastropoda sp.2	998.75	2669	 	36.731144	-122.23464	1694660	0.45	2005-05-25 18:47:04.0	Ventana	34.52	01:09:03:29	3.916	V2669-02
 	transect	Gastropoda sp.2	1000.66	2669	 	36.732075	-122.24781	1736158	0.4	2005-05-25 20:17:26.0	Ventana	34.508	02:38:55:16	4.086	V2669-03
 	transect	Embassichthys bathybius	1000.39	2669	 	36.731197	-122.24121	1689396	0.4	2005-05-25 19:34:52.0	Ventana	34.508	01:56:50:00	4.078	V2669-02
 	transect	Mesomyaria	999.38	2669	 	36.730694	-122.22943	1651091	0.45	2005-05-25 18:09:50.0	Ventana	34.522	00:32:18:13	3.91	V2669-01
 	transect	Psolus squamatus	399.47	2687	 	36.789394	-122.12507	1809651	1.15	2005-07-13 18:29:56.0	Ventana	34.24	01:56:14:27	7.308	V2687-02
 	cruise	Parastichopus	295.01	2688	http://search.mbari.org/ARCHIVE/frameGrabs/Ventana/images/2688/01_59_47_23.jpg	36.80886	-122.020325	20005165	1.36	2005-07-14 18:14:07.0	Ventana	34.218	01:59:47:23	7.844	V2688-02
 	ascend	Appendicularia	656.63	2681	 	36.69881	-122.0542	1717658	0.29	2005-07-07 20:26:47.933	Ventana	34.408	03:55:48:25	5.25	V2681-04
 	ascend	Medusae	802.09	2682	 	36.69865	-122.05886	1723264	0.31	2005-07-08 20:24:33.0	Ventana	34.465	04:16:42:23	4.591	V2682-05
 	descend	Crustacea	331.61	2693	 	36.6974	-122.06052	1758527	1.29	2005-07-25 19:48:13.0	Ventana	34.236	02:27:48:19	7.568	V2693-03
 	ascend	Nanomia	241.25	2693	 	36.69131	-122.062416	1759110	1.46	2005-07-25 21:22:37.0	Ventana	34.242	03:47:08:26	8.494	V2693-04
 	cruise	Rathbunaster californicus	258.55	2688	 	36.809147	-122.020355	1677897	1.51	2005-07-14 18:27:51.0	Ventana	34.196	02:13:07:15	8.167	V2688-03
 	transect	Poeobius meseres	600.64	2681	 	36.695812	-122.05132	2493674	0.3	2005-07-07 18:19:08.0	Ventana	34.387	01:49:29:24	5.496	V2681-02HD
 	transect	Euphausia	200.48	2681	 	36.69828	-122.05329	2490542	1.71	2005-07-07 17:07:25.0	Ventana	34.195	00:38:32:11	8.336	V2681-01HD
 	cruise	Nanomia	366.79	2676	 	36.80419	-122.03082	1676239	1.02	2005-06-14 16:23:41.0	Ventana	34.26	00:07:50:05	7.145	V2676-01
 	descend	Aegina	699.0	2682	 	36.698627	-122.05999	1721437	0.29	2005-07-08 18:14:48.0	Ventana	34.426	02:07:53:19	5.038	V2682-03
 	transect	Mesomyaria	1000.17	2669	 	36.73185	-122.24511	1735346	0.4	2005-05-25 19:57:39.0	Ventana	34.507	02:19:11:10	4.096	V2669-03
 	transect	Psolus squamatus	 	2687	http://search.mbari.org/ARCHIVE/frameGrabs/Ventana/images/2687/03_14_09_17.jpg	 	 	1811035	 	2005-07-13 19:49:08.0	Ventana	 	03:14:09:17	 	V2687-04
 	transect	Appendicularia	800.84	2681	 	36.696777	-122.052826	2498262	0.31	2005-07-07 19:01:43.0	Ventana	34.475	02:31:25:10	4.506	V2681-03HD
 	transect	Mediaster	 	2687	 	 	 	1810403	 	2005-07-13 19:17:02.0	Ventana	 	02:42:45:26	 	V2687-03
 	ascend	Chuniphyes	956.88	2682	 	36.69772	-122.05843	1723001	0.44	2005-07-08 20:08:14.0	Ventana	34.519	04:00:24:24	4.003	V2682-05
 	descend	Appendicularia	445.93	2683	 	36.70157	-122.04939	1756700	0.82	2005-07-11 17:08:36.0	Ventana	34.276	00:56:16:04	6.735	V2683-01
 	transect	Mesomyaria	997.37	2669	 	36.730633	-122.22729	1649139	0.45	2005-05-25 17:56:22.0	Ventana	34.52	00:18:51:04	3.91	V2669-01
 	transect	Mesomyaria	1000.03	2669	 	36.730953	-122.23379	1683959	0.45	2005-05-25 18:40:29.0	Ventana	34.523	01:02:29:18	3.913	V2669-02
 	transect	Phyllospadix	799.14	2674	 	36.752506	-122.20427	1799536	0.35	2005-06-08 17:50:46.0	Ventana	34.484	00:35:19:11	4.386	V2674-01
 	transect	Gastropoda sp.2	997.37	2669	 	36.730606	-122.22757	1694923	0.45	2005-05-25 17:57:53.0	Ventana	34.52	00:20:21:02	3.909	V2669-01
 	cruise	Actiniaria	105.15	2676	 	36.807404	-122.0396	1677145	1.97	2005-06-14 19:08:36.0	Ventana	34.152	02:47:21:11	8.466	V2676-03
 	transect	Doryteuthis opalescens	100.48	2681	 	36.699535	-122.05411	2489790	2.13	2005-07-07 16:50:46.0	Ventana	34.066	00:21:54:09	9.148	V2681-01HD
 	ascend	Nanomia	266.19	2681	 	36.69952	-122.054474	1718410	1.4	2005-07-07 21:08:11.333	Ventana	34.236	04:36:31:08	7.898	V2681-05
 	transect	Phyllospadix	196.39	2696	 	36.803238	-122.123116	1813152	1.55	2005-08-01 17:12:29.0	Ventana	34.199	00:40:47:17	8.616	V2696-01
 	transect	Hormiphora	200.35	2681	 	36.698334	-122.053444	2491354	1.67	2005-07-07 17:13:42.0	Ventana	34.201	00:44:49:08	8.341	V2681-01HD
 	cruise	tube	136.17	2676	http://search.mbari.org/ARCHIVE/frameGrabs/Ventana/images/2676/01_39_08_15.jpg	36.808613	-122.030945	1676882	1.72	2005-06-14 17:59:26.0	Ventana	34.172	01:39:08:15	8.31	V2676-02
 	transect	Ophiuroidea	999.35	2669	 	36.731422	-122.23627	1684711	0.44	2005-05-25 18:59:34.0	Ventana	34.52	01:21:34:00	3.941	V2669-02
 	descend	Chaetognatha	175.18	2683	 	36.701046	-122.05121	1756331	1.61	2005-07-11 16:41:30.0	Ventana	34.195	00:29:10:12	8.743	V2683-01
 	transect	Ophiuroidea	1000.14	2669	 	36.73253	-122.25018	1736910	0.41	2005-05-25 20:34:13.0	Ventana	34.51	02:55:40:13	4.068	V2669-03
 	transect	Sebastolobus altivelis	800.54	2674	 	36.75123	-122.21617	1803402	0.35	2005-06-08 18:50:05.0	Ventana	34.488	01:34:08:15	4.337	V2674-02
 	transect	Corallimorphus pilatus	 	2687	 	 	 	1808839	 	2005-07-13 17:30:15.0	Ventana	 	00:57:08:00	 	V2687-01
 	descend	Appendicularia	478.86	2682	 	36.69857	-122.05972	1720805	0.52	2005-07-08 17:57:23.0	Ventana	34.329	01:50:51:26	6.186	V2682-02
 	transect	Nanomia bijuga	200.4	2681	 	36.69828	-122.0533	2490911	1.7	2005-07-07 17:09:41.0	Ventana	34.189	00:40:49:29	8.321	V2681-01HD
 	transect	Pennatula phosphorea californica	599.97	2680	http://search.mbari.org/ARCHIVE/frameGrabs/Ventana/images/2680/00_42_13_02.jpg	36.77867	-122.223885	1804417	0.36	2005-06-27 18:02:06.0	Ventana	34.378	00:42:13:02	5.587	V2680-01
 	transect	Ophiuroidea	999.73	2669	http://search.mbari.org/ARCHIVE/frameGrabs/Ventana/images/2669/00_47_43_22.jpg	36.731033	-122.23125	1683590	0.45	2005-05-25 18:25:17.0	Ventana	34.521	00:47:43:22	3.912	V2669-01
 	transect	Chionoecetes tanneri	801.4	2674	 	36.75222	-122.20768	1800089	0.4	2005-06-08 18:08:09.0	Ventana	34.49	00:52:41:04	4.334	V2674-01
 	transect	Sebastes aurora	 	2687	 	 	 	1812340	 	2005-07-13 20:32:46.0	Ventana	 	03:57:43:27	 	V2687-04
 	descend	Poeobius meseres	1088.11	2683	 	36.705112	-122.04891	1757452	0.54	2005-07-11 19:28:24.0	Ventana	34.536	03:08:44:07	3.765	V2683-03
 	transect	Phyllospadix	800.0	2674	 	36.752666	-122.20051	1774125	0.29	2005-06-08 17:31:08.0	Ventana	34.462	00:15:42:16	4.659	V2674-01
 	ascend	Dosidicus gigas	595.17	2680	http://search.mbari.org/ARCHIVE/frameGrabs/Ventana/images/2680/03_12_35_18.jpg	36.791924	-122.23312	1806887	0.36	2005-06-27 20:34:00.0	Ventana	34.371	03:12:35:18	5.637	V2680-03
 	transect	Nanomia bijuga	400.8	2681	 	36.695896	-122.05131	2492922	0.79	2005-07-07 17:41:25.0	Ventana	34.276	01:11:48:26	6.665	V2681-02HD
 	transect	molt	100.57	2681	 	36.69983	-122.05429	2489527	2.13	2005-07-07 16:43:55.0	Ventana	34.068	00:15:04:29	9.147	V2681-01HD
 	transect	Psolus squamatus	 	2687	 	 	 	1810080	 	2005-07-13 18:54:53.0	Ventana	 	02:20:38:25	 	V2687-03
 	transect	Parmaturus xaniurus	999.28	2669	http://search.mbari.org/ARCHIVE/frameGrabs/Ventana/images/2669/01_15_47_04.jpg	36.731133	-122.235466	1684342	0.45	2005-05-25 18:53:47.0	Ventana	34.522	01:15:47:04	3.925	V2669-02
 	transect	Mesomyaria	1000.42	2669	 	36.73153	-122.2428	1694540	0.4	2005-05-25 19:43:27.0	Ventana	34.51	02:05:23:28	4.087	V2669-02
 	ascend	Appendicularia	366.56	2681	 	36.699364	-122.0549	1718041	1.0	2005-07-07 20:51:08.433	Ventana	34.263	04:19:28:28	7.11	V2681-05
 	transect	Mesomyaria	801.2	2674	 	36.75096	-122.21878	1803605	0.35	2005-06-08 19:01:27.0	Ventana	34.487	01:45:29:09	4.352	V2674-02
 	transect	Mesomyaria	800.27	2674	 	36.751762	-122.21195	1801164	0.35	2005-06-08 18:27:56.0	Ventana	34.488	01:12:00:26	4.341	V2674-02
 	cruise	Eptatretus	1015.74	2689	http://search.mbari.org/ARCHIVE/frameGrabs/Ventana/images/2689/00_25_29_25.jpg	36.771557	-122.082985	1669711	0.53	2005-07-18 17:02:28.0	Ventana	34.541	00:25:29:25	3.751	V2689-01
 	descend	Euphausiacea	158.91	2682	 	36.69987	-122.06075	1719914	2.19	2005-07-08 16:19:03.0	Ventana	34.097	00:13:07:06	8.434	V2682-01
 	transect	Mesomyaria	997.54	2669	 	36.730614	-122.22813	1649342	0.45	2005-05-25 18:01:21.0	Ventana	34.521	00:23:49:15	3.907	V2669-01
 	transect	Psolus squamatus	400.07	2687	 	36.789085	-122.124016	1809531	1.17	2005-07-13 18:12:36.0	Ventana	34.238	01:38:56:10	7.359	V2687-02
 	transect	Mesomyaria	1000.12	2669	 	36.73094	-122.23261	1683793	0.45	2005-05-25 18:34:31.0	Ventana	34.521	00:56:56:26	3.911	V2669-01
 	transect	Mesomyaria	802.26	2674	 	36.7523	-122.20603	1799886	0.36	2005-06-08 18:00:06.0	Ventana	34.491	00:44:38:12	4.337	V2674-01
 	transect	Ceriantharia sp. 1	598.02	2680	 	36.78119	-122.22615	1804906	0.35	2005-06-27 18:33:03.0	Ventana	34.377	01:12:08:23	5.596	V2680-02
 	transect	Salpida	300.43	2681	 	36.697678	-122.05311	2492170	1.23	2005-07-07 17:22:37.0	Ventana	34.234	00:53:44:08	7.4	V2681-01HD
 	transect	Polychaeta	600.53	2681	 	36.697575	-122.053406	2493840	0.3	2005-07-07 18:27:02.0	Ventana	34.389	01:57:23:20	5.471	V2681-02HD
 	transect	Mediaster	 	2687	 	 	 	1810606	 	2005-07-13 19:24:02.0	Ventana	 	02:49:46:08	 	V2687-03
 	ascend	marine snow	 	2673	 	 	 	1668410	 	 	Ventana	 	00:35:24:16	 	V2673-01
 	transect	Umbellula lindahli	599.87	2680	 	36.778122	-122.22329	1804357	0.36	2005-06-27 17:54:17.0	Ventana	34.377	00:34:24:16	5.589	V2680-01
 	transect	Psolus squamatus	399.88	2687	 	36.788128	-122.121796	1809328	1.13	2005-07-13 17:39:35.0	Ventana	34.241	01:05:57:16	7.267	V2687-02
 	transect	Appendicularia	300.44	2681	 	36.698322	-122.05353	2491967	1.25	2005-07-07 17:20:20.0	Ventana	34.233	00:51:27:26	7.431	V2681-01HD
 	transect	Mesomyaria	1000.45	2669	 	36.731926	-122.24699	1735789	0.41	2005-05-25 20:11:49.0	Ventana	34.51	02:33:19:17	4.064	V2669-03
 	transect	Umbellula lindahli	601.31	2680	 	36.776894	-122.22215	1804154	0.36	2005-06-27 17:39:32.0	Ventana	34.38	00:19:40:03	5.577	V2680-01
 	transect	Ophiuroidea	999.18	2669	 	36.731377	-122.23607	1684545	0.44	2005-05-25 18:58:04.0	Ventana	34.52	01:20:03:19	3.939	V2669-02
 	transect	Psolus squamatus	 	2687	 	 	 	1808779	 	2005-07-13 17:29:22.0	Ventana	 	00:56:15:00	 	V2687-01
 	descend	Appendicularia	400.24	2681	 	36.695633	-122.05105	1715232	0.79	2005-07-07 17:37:35.433	Ventana	34.278	01:07:58:08	6.674	V2681-02
 	transect	Mesomyaria	1000.22	2669	 	36.73127	-122.24091	1689336	0.41	2005-05-25 19:33:33.0	Ventana	34.51	01:55:30:11	4.056	V2669-02
 	transect	Calliostoma platinum	 	2687	 	 	 	1810283	 	2005-07-13 19:14:05.0	Ventana	 	02:39:49:10	 	V2687-03
 	transect	Appendicularia	400.74	2681	 	36.69705	-122.052666	2493088	0.79	2005-07-07 17:46:30.0	Ventana	34.278	01:16:54:03	6.659	V2681-02HD
 	transect	Chionoecetes tanneri	800.83	2674	 	36.752586	-122.20125	1774185	0.35	2005-06-08 17:34:54.0	Ventana	34.488	00:19:28:06	4.378	V2674-01
 	transect	Psolus squamatus	 	2687	 	 	 	1808576	 	2005-07-13 17:24:14.0	Ventana	 	00:51:07:07	 	V2687-01
 	stationary	Appendicularia	502.3	2694	 	36.78458	-122.20046	1676619	0.83	2005-07-27 19:53:52.0	Ventana	34.272	02:26:02:09	6.641	V2694-03
 	transect	Psolus squamatus	 	2687	 	 	 	1811155	 	2005-07-13 19:57:20.0	Ventana	 	03:22:20:06	 	V2687-04
 	transect	Psolus squamatus	399.87	2687	 	36.788063	-122.12155	1809162	1.13	2005-07-13 17:36:20.0	Ventana	34.242	01:02:42:26	7.271	V2687-02
 	ascend	Chuniphyes	575.85	2682	 	36.698334	-122.06242	1723584	0.37	2005-07-08 21:06:36.0	Ventana	34.363	04:58:42:11	5.779	V2682-05
 	transect	Microstomus pacificus	 	2687	 	 	 	1810832	 	2005-07-13 19:35:43.0	Ventana	 	03:01:25:22	 	V2687-03
 	transect	Radiolaria	300.42	2681	 	36.696484	-122.05207	2492539	1.23	2005-07-07 17:26:44.0	Ventana	34.233	00:57:51:25	7.398	V2681-01HD
 	transect	Porifera sp. 1	 	2687	 	 	 	1810975	 	2005-07-13 19:45:38.0	Ventana	 	03:10:39:12	 	V2687-04
 	ascend	Nanomia	204.31	2693	 	36.69096	-122.062645	1759170	1.8	2005-07-25 21:25:18.0	Ventana	34.2	03:49:49:16	8.788	V2693-04
 	ascend	Salpida	335.41	2693	 	36.692753	-122.06186	1758990	1.26	2005-07-25 21:13:59.0	Ventana	34.238	03:38:31:04	7.464	V2693-04
 	transect	Gastropoda sp.2	999.0	2669	 	36.73104	-122.231895	1695089	0.45	2005-05-25 18:29:34.0	Ventana	34.522	00:52:00:17	3.915	V2669-01
 	transect	Mesomyaria	1000.23	2669	 	36.73163	-122.24329	1733808	0.41	2005-05-25 19:46:14.0	Ventana	34.51	02:07:45:19	4.065	V2669-03
 	transect	Mesomyaria	999.32	2669	 	36.731377	-122.236404	1684771	0.44	2005-05-25 19:00:34.0	Ventana	34.518	01:22:33:25	3.944	V2669-02
 	ascend	water	785.05	2674	 	36.750336	-122.22249	1803785	0.31	2005-06-08 19:21:36.0	Ventana	34.472	02:05:37:14	4.537	V2674-02
 	transect	Mesomyaria	1000.01	2669	 	36.731045	-122.23967	1689193	0.41	2005-05-25 19:25:50.0	Ventana	34.51	01:47:48:15	4.061	V2669-02
 	transect	Mesomyaria	800.75	2674	 	36.751114	-122.2169	1803462	0.35	2005-06-08 18:53:08.0	Ventana	34.495	01:37:10:26	4.351	V2674-02
 	transect	Neptunea amianta	603.01	2680	 	36.78836	-122.23225	1805955	0.35	2005-06-27 19:58:56.0	Ventana	34.38	02:37:34:10	5.59	V2680-03
 	transect	Gastropoda sp.2	1000.59	2669	 	36.732403	-122.249695	1736684	0.41	2005-05-25 20:31:12.0	Ventana	34.51	02:52:39:26	4.066	V2669-03
 	transect	Phyllospadix	800.31	2674	 	36.752094	-122.2086	1800781	0.36	2005-06-08 18:12:27.0	Ventana	34.49	00:56:58:23	4.319	V2674-01
 	transect	Sebastolobus	999.66	2669	 	36.73095	-122.23156	1683650	0.45	2005-05-25 18:27:45.0	Ventana	34.522	00:50:11:06	3.912	V2669-01
 	descend	Dosidicus gigas	356.62	2681	 	36.695583	-122.05122	1715052	1.03	2005-07-07 17:31:46.7	Ventana	34.254	01:02:10:12	7.134	V2681-02
 	descend	Copepoda	801.02	2681	 	36.694958	-122.05065	1716353	0.31	2005-07-07 18:52:44.373	Ventana	34.476	02:22:27:27	4.481	V2681-03
 	starttransect	color bars	300.21	2681	 	36.698463	-122.0536	1713649	1.24	2005-07-07 17:19:36.677	Ventana	34.234	00:50:44:21	7.429	V2681-01
 	transect	Phyllospadix	801.19	2674	 	36.75229	-122.20716	1800029	0.36	2005-06-08 18:05:38.0	Ventana	34.485	00:50:10:11	4.359	V2674-01
 	descend	physical object	650.93	2677	http://search.mbari.org/ARCHIVE/frameGrabs/Ventana/images/2677/00_37_24_25.jpg	36.746284	-122.05235	20008786	0.37	2005-06-15 17:22:10.0	Ventana	34.417	00:37:24:25	5.158	V2677-01
 	stationary	Appendicularia	502.12	2694	 	36.78462	-122.20051	1676179	0.75	2005-07-27 17:22:59.0	Ventana	34.287	00:16:06:22	6.466	V2694-01
 	transect	Mesomyaria	997.46	2669	 	36.73115	-122.23089	1683470	0.45	2005-05-25 18:21:44.0	Ventana	34.519	00:44:10:22	3.927	V2669-01
 	descend	Zoarcidae	700.59	2681	 	36.697945	-122.053734	1716127	0.29	2005-07-07 18:35:30.667	Ventana	34.433	02:05:14:23	4.986	V2681-03
 	cruise	Nanomia	191.79	2676	 	36.807446	-122.029625	1676822	1.6	2005-06-14 17:46:38.0	Ventana	34.198	01:26:21:20	8.093	V2676-02
 	transect	Mesomyaria	998.78	2669	 	36.730873	-122.22965	1651151	0.45	2005-05-25 18:12:04.0	Ventana	34.522	00:34:31:09	3.907	V2669-01
 	transect	Parastichopus leukothele	203.64	2696	 	36.807495	-122.13115	1813844	1.46	2005-08-01 18:42:22.0	Ventana	34.22	02:09:26:20	8.622	V2696-03
 	transect	Phyllospadix	801.43	2674	 	36.75192	-122.20983	1800961	0.35	2005-06-08 18:19:31.0	Ventana	34.489	01:03:36:19	4.337	V2674-02
 	transect	molt	100.54	2681	 	36.69983	-122.05429	2489647	2.13	2005-07-07 16:47:00.0	Ventana	34.069	00:18:10:17	9.144	V2681-01HD
 	ascend	Appendicularia	258.17	2681	 	36.697838	-122.05522	1719545	 	2005-07-07 21:29:59.0	Ventana	 	05:12:33:18	 	V2681-05
 	transect	Umbellula lindahli	598.63	2680	 	36.782154	-122.22725	1805109	0.35	2005-06-27 18:45:36.0	Ventana	34.38	01:24:41:09	5.577	V2680-02
 	transect	Poeobius meseres	1001.04	2681	 	36.695194	-122.051125	2498585	0.48	2005-07-07 19:23:33.0	Ventana	34.533	02:53:13:12	3.836	V2681-03HD
 	transect	Nanomia bijuga	200.45	2681	 	36.69828	-122.0533	2490768	1.73	2005-07-07 17:08:41.0	Ventana	34.193	00:39:49:26	8.321	V2681-01HD
 	cruise	Rathbunaster californicus	479.76	2688	 	36.801983	-122.018295	1677574	0.8	2005-07-14 17:27:28.0	Ventana	34.289	01:13:12:15	6.681	V2688-02
 	descend	Solmissus	294.45	2682	 	36.699314	-122.06063	1720117	1.2	2005-07-08 16:53:42.0	Ventana	34.243	00:47:43:21	7.416	V2682-01
 	transect	Stomphia	599.46	2680	 	36.779568	-122.22465	1804537	0.36	2005-06-27 18:11:24.0	Ventana	34.379	00:51:30:19	5.595	V2680-01
 	transect	Rathbunaster californicus	 	2687	 	 	 	1808959	 	2005-07-13 17:32:39.0	Ventana	 	00:59:31:07	 	V2687-01
 	transect	chuniphyes	500.59	2681	 	36.69618	-122.051704	2493614	0.43	2005-07-07 18:02:33.0	Ventana	34.348	01:32:56:10	6.012	V2681-02HD
 	ascend	Appendicularia	713.53	2682	 	36.698833	-122.059326	1723324	0.28	2005-07-08 20:31:17.0	Ventana	34.429	04:23:25:08	4.983	V2682-05
 	transect	Gastropoda sp.2	998.89	2669	 	36.73284	-122.251564	1737233	0.4	2005-05-25 20:42:41.0	Ventana	34.509	03:03:30:09	4.072	V2669-04
 	descend	Tomopteridae	607.5	2683	 	36.701958	-122.04903	1757023	0.35	2005-07-11 17:49:36.0	Ventana	34.369	01:33:41:22	5.764	V2683-02
 	cruise	Laminariales	90.5	2688	 	36.815845	-122.017715	1679401	1.96	2005-07-14 20:27:35.0	Ventana	34.09	04:12:19:22	8.919	V2688-04
 	transect	Mesomyaria	999.78	2669	 	36.732643	-122.25103	1737053	0.4	2005-05-25 20:39:02.0	Ventana	34.51	03:00:30:28	4.07	V2669-03
 	ascend	Poeobius meseres	377.43	2693	 	36.6958	-122.06062	1758787	1.19	2005-07-25 20:51:02.0	Ventana	34.234	03:15:36:11	7.154	V2693-04
 	cruise	Glyptocephalus zachirus	439.26	2676	 	36.803238	-122.02924	1676359	0.63	2005-06-14 16:39:47.0	Ventana	34.327	00:23:55:11	6.38	V2676-01
 	ascend	Appendicularia	796.4	2681	 	36.69908	-122.056526	1717428	0.33	2005-07-07 20:02:07.6	Ventana	34.465	03:31:10:01	4.608	V2681-04
 	ascend	Chaetognatha	562.46	2681	 	36.69894	-122.05426	1717718	0.38	2005-07-07 20:31:42.067	Ventana	34.364	04:00:42:20	5.85	V2681-04
 	transect	cydippida	200.47	2681	 	36.69828	-122.05329	2490219	1.7	2005-07-07 17:05:58.0	Ventana	34.198	00:37:05:11	8.363	V2681-01HD
 	descend	Dosidicus gigas	529.65	2681	 	36.69568	-122.05106	1715601	0.4	2005-07-07 18:05:35.5	Ventana	34.355	01:35:57:03	5.863	V2681-02
 	transect	Mediaster	 	2687	 	 	 	1807030	 	2005-07-13 16:55:01.0	Ventana	 	00:21:55:16	 	V2687-01
 	cruise	Sebastolobus	1002.91	2679	 	36.68986	-122.1656	1824342	0.42	2005-06-16 17:30:03.0	Ventana	34.513	00:01:25:24	4.112	V2679-01
 	transect	Ceriantharia sp. 1	798.28	2674	 	36.75158	-122.21406	1801330	0.35	2005-06-08 18:38:39.0	Ventana	34.489	01:22:42:25	4.34	V2674-02
 	transect	Mediaster	 	2687	 	 	 	1812197	 	2005-07-13 20:28:56.0	Ventana	 	03:53:54:27	 	V2687-04
 	descend	Solmissus	280.28	2683	 	36.701004	-122.05023	1756474	1.34	2005-07-11 16:52:27.0	Ventana	34.238	00:40:07:11	7.799	V2683-01
 	transect	Phyllospadix	800.93	2674	 	36.752537	-122.20253	1799213	0.35	2005-06-08 17:41:24.0	Ventana	34.486	00:25:58:01	4.382	V2674-01
 	transect	Phyllospadix	1000.82	2669	 	36.73228	-122.24918	1736278	0.41	2005-05-25 20:27:02.0	Ventana	34.51	02:48:31:14	4.069	V2669-03
 	transect	Phyllospadix	 	2687	 	 	 	1809794	 	2005-07-13 18:40:47.0	Ventana	 	02:06:33:16	 	V2687-03
 	cruise	Appendicularia	1220.63	2683	 	36.706196	-122.0477	1757595	0.73	2005-07-11 20:02:14.0	Ventana	34.576	03:36:36:14	3.336	V2683-04
 	ascend	Appendicularia	437.61	2681	 	36.699066	-122.054184	1717778	0.65	2005-07-07 20:37:31.567	Ventana	34.302	04:06:31:10	6.483	V2681-04
 	cruise	Chionoecetes tanneri	1229.71	2683	 	36.705883	-122.04776	1757572	0.74	2005-07-11 19:57:45.0	Ventana	34.58	03:32:08:08	3.322	V2683-04
 	transect	Ceriantharia sp. 2	997.64	2669	 	36.730614	-122.22711	1683327	0.45	2005-05-25 17:54:46.0	Ventana	34.522	00:17:14:23	3.911	V2669-01
 	transect	Mesomyaria	999.99	2669	 	36.73118	-122.240395	1689253	0.41	2005-05-25 19:29:55.0	Ventana	34.51	01:51:52:17	4.06	V2669-02
 	descend	Calycophorae	626.91	2682	 	36.69862	-122.05984	1721271	0.29	2005-07-08 18:08:36.0	Ventana	34.397	02:01:41:15	5.369	V2682-03
 	transect	lobata	700.65	2681	 	36.69767	-122.05353	2497630	0.29	2005-07-07 18:36:55.0	Ventana	34.432	02:06:39:15	4.981	V2681-03HD
 	transect	Psolus squamatus	 	2687	 	 	 	1810892	 	2005-07-13 19:41:15.0	Ventana	 	03:06:16:29	 	V2687-04
 	ascend	Solmaris	469.38	2682	 	36.698345	-122.0631	1723704	0.59	2005-07-08 21:17:13.0	Ventana	34.305	05:08:53:08	6.308	V2682-06
 	transect	Mesomyaria	999.94	2669	 	36.7326	-122.25074	1737030	0.4	2005-05-25 20:37:45.0	Ventana	34.507	02:59:13:14	4.073	V2669-03
 	ascend	Nanomia	370.92	2693	 	36.696377	-122.06074	1758670	1.2	2005-07-25 20:27:21.0	Ventana	34.231	03:06:53:01	7.163	V2693-03
 	transect	Brisaster	204.02	2696	 	36.805367	-122.128395	1813701	1.49	2005-08-01 18:17:02.0	Ventana	34.211	01:44:53:11	8.631	V2696-02
 	transect	Mediaster	 	2687	 	 	 	1810546	 	2005-07-13 19:22:05.0	Ventana	 	02:47:49:14	 	V2687-03
 	transect	haliscera	300.44	2681	 	36.696823	-122.052376	2492456	1.23	2005-07-07 17:25:30.0	Ventana	34.234	00:56:37:01	7.391	V2681-01HD
 	descend	Appendicularia	303.11	2683	 	36.701088	-122.05015	1756497	1.26	2005-07-11 16:53:53.0	Ventana	34.243	00:41:34:09	7.663	V2683-01
 	transect	Hormiphora	200.39	2681	 	36.698303	-122.05338	2491174	1.68	2005-07-07 17:12:30.0	Ventana	34.2	00:43:37:14	8.339	V2681-01HD
 	transect	Mesomyaria	997.29	2669	 	36.730637	-122.228	1649282	0.45	2005-05-25 18:00:35.0	Ventana	34.522	00:23:03:09	3.906	V2669-01
 	descend	Poeobius meseres	1010.98	2682	 	36.69831	-122.059235	1722023	0.45	2005-07-08 18:59:12.0	Ventana	34.524	02:52:14:13	3.953	V2682-03
 	ascend	Euphausiacea	164.03	2693	 	36.690666	-122.06298	1759253	1.95	2005-07-25 21:30:46.0	Ventana	34.119	03:55:17:24	8.93	V2693-04
 	ascend	Tomopteris	650.75	2683	 	36.705235	-122.04992	1757918	0.28	2005-07-11 21:09:08.0	Ventana	34.41	04:41:59:22	5.226	V2683-05
 	ascend	Poeobius meseres	966.59	2681	 	36.69721	-122.05362	1716819	0.43	2005-07-07 19:38:51.933	Ventana	34.519	03:07:55:24	4.012	V2681-04
 	transect	Phyllospadix	800.61	2674	 	36.751747	-122.21137	1801104	0.35	2005-06-08 18:25:31.0	Ventana	34.488	01:09:36:03	4.35	V2674-02
 	transect	Allocentrotus fragilis	 	2687	 	 	 	1810140	 	2005-07-13 18:59:18.0	Ventana	 	02:25:02:27	 	V2687-03
 	transect	Phyllospadix	800.72	2674	 	36.751076	-122.217674	1803522	0.35	2005-06-08 18:56:43.0	Ventana	34.49	01:40:45:16	4.343	V2674-02
 	transect	Allocentrotus fragilis	 	2687	 	 	 	1811298	 	2005-07-13 20:05:39.0	Ventana	 	03:30:38:28	 	V2687-04
 	transect	Phyllospadix	198.4	2696	 	36.803646	-122.12457	1813272	1.53	2005-08-01 17:28:56.0	Ventana	34.202	00:57:13:12	8.619	V2696-01
 	transect	Solaster borealis	801.26	2674	http://search.mbari.org/ARCHIVE/frameGrabs/Ventana/images/2674/00_54_36_10.jpg	36.75217	-122.208084	1800698	0.35	2005-06-08 18:10:05.0	Ventana	34.489	00:54:36:10	4.332	V2674-01
 	transect	Aegina	700.58	2681	 	36.69512	-122.05084	2497976	0.28	2005-07-07 18:48:01.0	Ventana	34.432	02:17:43:04	4.996	V2681-03HD
 	descend	Chuniphyes	892.0	2683	 	36.703247	-122.04833	1757249	0.36	2005-07-11 18:31:31.0	Ventana	34.494	02:11:55:19	4.282	V2683-03
 	ascend	Chaetognatha	367.7	2693	 	36.694706	-122.061005	1758847	1.24	2005-07-25 21:00:00.0	Ventana	34.234	03:24:34:28	7.344	V2693-04
 	transect	Calliostoma platinum	399.85	2687	 	36.788013	-122.12141	1809042	1.15	2005-07-13 17:34:47.0	Ventana	34.239	01:01:09:22	7.299	V2687-02
 	transect	lobata	200.45	2681	 	36.69828	-122.05329	2490745	1.71	2005-07-07 17:08:37.0	Ventana	34.193	00:39:45:25	8.323	V2681-01HD
 	descend	Chaetognatha	808.94	2682	 	36.69834	-122.0596	1721700	0.31	2005-07-08 18:40:04.0	Ventana	34.471	02:33:06:07	4.534	V2682-03
 	transect	Umbellula lindahli	598.85	2680	 	36.780235	-122.225266	1804620	0.35	2005-06-27 18:20:27.0	Ventana	34.379	01:00:33:05	5.572	V2680-01
 	transect	ink	901.05	2681	 	36.695957	-122.051926	2498382	0.39	2005-07-07 19:11:14.0	Ventana	34.505	02:40:55:27	4.173	V2681-03HD
 	ascend	Copepoda	930.8	2682	 	36.69791	-122.0585	1723121	0.38	2005-07-08 20:11:55.0	Ventana	34.505	04:04:06:07	4.188	V2682-05
 	transect	Sebastolobus altivelis	802.02	2674	 	36.75225	-122.206955	1800006	0.37	2005-06-08 18:04:29.0	Ventana	34.49	00:49:00:22	4.341	V2674-01
 	transect	Mesomyaria	999.61	2669	 	36.73049	-122.228775	1650925	0.45	2005-05-25 18:05:12.0	Ventana	34.523	00:27:40:08	3.906	V2669-01
 	transect	Mesomyaria	999.78	2669	 	36.731342	-122.23792	1687572	0.44	2005-05-25 19:14:11.0	Ventana	34.52	01:36:09:20	3.94	V2669-02
 	descend	Salpida	502.41	2683	 	36.70154	-122.049324	1756820	0.68	2005-07-11 17:29:56.0	Ventana	34.306	01:14:03:12	6.464	V2683-02
 	transect	Mediaster	 	2687	 	 	 	1811851	 	2005-07-13 20:27:03.0	Ventana	 	03:52:01:22	 	V2687-04
 	transect	Mesomyaria	998.82	2669	 	36.731163	-122.23421	1684079	0.45	2005-05-25 18:43:12.0	Ventana	34.52	01:05:13:03	3.919	V2669-02
 	ascend	Nanomia	472.05	2683	 	36.704323	-122.05057	1758001	0.73	2005-07-11 21:17:23.0	Ventana	34.294	04:50:14:18	6.578	V2683-05
 	transect	Eptatretus stoutii	999.93	2669	 	36.731422	-122.23678	1686903	0.44	2005-05-25 19:04:07.0	Ventana	34.519	01:26:06:22	3.946	V2669-02
 	transect	Mesomyaria	1000.09	2669	 	36.73123	-122.23829	1688847	0.43	2005-05-25 19:17:09.0	Ventana	34.519	01:39:07:20	3.975	V2669-02
 	cruise	Sebastolobus	611.64	2688	 	36.795647	-122.019455	1677348	0.44	2005-07-14 16:36:07.0	Ventana	34.391	00:22:27:18	5.464	V2688-01
 	descend	Calycophorae	181.18	2693	 	36.69608	-122.058174	1758264	1.88	2005-07-25 18:11:34.0	Ventana	34.165	00:52:03:10	8.873	V2693-01
 	transect	Allocentrotus fragilis	 	2687	 	 	 	1810200	 	2005-07-13 19:08:42.0	Ventana	 	02:34:26:13	 	V2687-03
 	transect	Mesomyaria	998.5	2669	 	36.731083	-122.23061	1651354	0.45	2005-05-25 18:19:03.0	Ventana	34.521	00:41:29:16	3.91	V2669-01
 	descend	Appendicularia	351.36	2682	 	36.698624	-122.060394	1720320	1.02	2005-07-08 17:21:36.0	Ventana	34.254	01:15:08:10	7.102	V2682-02
 	transect	molt	100.5	2681	 	36.69982	-122.05429	2489730	2.13	2005-07-07 16:48:49.0	Ventana	34.067	00:19:57:22	9.152	V2681-01HD
 	transect	Mediaster	 	2687	 	 	 	1806970	 	2005-07-13 16:51:22.0	Ventana	 	00:18:16:16	 	V2687-01
 	transect	Porifera sp. 1	 	2687	 	 	 	1810486	 	2005-07-13 19:20:14.0	Ventana	 	02:45:58:18	 	V2687-03
 	descend	Lensia	224.16	2683	 	36.70099	-122.05072	1756414	1.7	2005-07-11 16:48:52.0	Ventana	34.195	00:36:32:14	8.253	V2683-01
 	transect	Mediaster	 	2687	 	 	 	1811768	 	2005-07-13 20:24:51.0	Ventana	 	03:49:49:21	 	V2687-04
 	transect	Mediaster	 	2687	 	 	 	1812257	 	2005-07-13 20:29:58.0	Ventana	 	03:54:56:24	 	V2687-04
 	transect	Mesomyaria	999.29	2669	 	36.730995	-122.231735	1683673	0.45	2005-05-25 18:28:41.0	Ventana	34.521	00:51:07:28	3.913	V2669-01
 	transect	Mesomyaria	999.91	2669	 	36.731876	-122.246	1735609	0.41	2005-05-25 20:03:33.0	Ventana	34.511	02:25:03:04	4.06	V2669-03
 	ascend	Appendicularia	528.52	2682	 	36.698322	-122.062935	1723644	0.44	2005-07-08 21:11:09.0	Ventana	34.345	05:02:50:15	6.033	V2682-06
 	transect	Mediaster	 	2687	 	 	 	1810952	 	2005-07-13 19:43:44.0	Ventana	 	03:08:45:11	 	V2687-04
 	transect	Diogenidae	602.8	2680	http://search.mbari.org/ARCHIVE/frameGrabs/Ventana/images/2680/02_48_08_01.jpg	36.789326	-122.23252	1806707	0.35	2005-06-27 20:09:30.0	Ventana	34.378	02:48:08:01	5.588	V2680-03
 	transect	Psolus squamatus	 	2687	 	 	 	1808636	 	2005-07-13 17:25:50.0	Ventana	 	00:52:42:28	 	V2687-01
 	transect	Rathbunaster californicus	 	2687	 	 	 	1812520	 	2005-07-13 20:43:20.0	Ventana	 	04:07:50:25	 	V2687-05
 	transect	Poeobius meseres	700.63	2681	 	36.696762	-122.05265	2497713	0.29	2005-07-07 18:40:43.0	Ventana	34.436	02:10:24:28	4.931	V2681-03HD
 	ascend	Cyclothone	345.99	2693	 	36.693794	-122.061134	1758907	1.25	2005-07-25 21:05:18.0	Ventana	34.238	03:29:51:16	7.389	V2693-04
 	transect	Hastigerinella digitata	300.46	2681	 	36.697906	-122.05329	2492110	1.24	2005-07-07 17:21:51.0	Ventana	34.234	00:52:58:01	7.402	V2681-01HD
 	transect	Sebastolobus	 	2687	 	 	 	1811238	 	2005-07-13 20:05:26.0	Ventana	 	03:30:25:20	 	V2687-04
 	transect	Phyllospadix	1000.84	2669	 	36.732296	-122.249306	1736361	0.41	2005-05-25 20:27:56.0	Ventana	34.51	02:49:26:15	4.07	V2669-03
 	transect	Mesomyaria	999.54	2669	 	36.731266	-122.23587	1684425	0.44	2005-05-25 18:56:32.0	Ventana	34.52	01:18:31:26	3.932	V2669-02
 	transect	Ophiuroidea	1000.32	2669	 	36.73144	-122.242096	1694457	0.4	2005-05-25 19:39:58.0	Ventana	34.509	02:01:55:20	4.076	V2669-02
 	descend	Hormiphora	232.31	2682	 	36.699886	-122.060715	1719974	1.44	2005-07-08 16:22:00.0	Ventana	34.224	00:16:05:03	8.007	V2682-01
 	transect	Ophiuroidea	998.83	2669	 	36.730984	-122.23024	1651271	0.45	2005-05-25 18:16:14.0	Ventana	34.523	00:38:41:07	3.908	V2669-01
 	transect	Lycodes diapterus	600.23	2680	 	36.784374	-122.22975	1805609	0.36	2005-06-27 19:17:20.0	Ventana	34.377	01:56:23:01	5.607	V2680-02
 	transect	molt	200.44	2681	 	36.69828	-122.05329	2490076	1.7	2005-07-07 17:04:34.0	Ventana	34.197	00:35:41:29	8.362	V2681-01HD
 	cruise	Pleuronectiformes	544.72	2688	 	36.797894	-122.01982	1677431	0.61	2005-07-14 16:59:55.0	Ventana	34.321	00:46:13:19	6.214	V2688-01
 	transect	Pennatulacea sp.1	599.51	2680	 	36.78628	-122.23096	1805872	0.36	2005-06-27 19:36:28.0	Ventana	34.378	02:15:07:08	5.598	V2680-03
 	stationary	sinker	504.19	2695	 	36.78466	-122.20049	1824485	0.67	2005-07-28 19:01:43.0	Ventana	34.296	04:07:58:00	6.298	V2695-02
 	ascend	Appendicularia	998.02	2681	 	36.69672	-122.0531	1716556	0.46	2005-07-07 19:32:31.833	Ventana	34.53	03:02:12:27	3.93	V2681-03
 	transect	Phyllospadix	1000.06	2669	 	36.731697	-122.24367	1733868	0.41	2005-05-25 19:48:05.0	Ventana	34.508	02:09:36:16	4.069	V2669-03
 	transect	Appendicularia	400.72	2681	 	36.69779	-122.05349	2493208	0.79	2005-07-07 17:49:33.0	Ventana	34.278	01:19:56:08	6.66	V2681-02HD
 	cruise	Glyptocephalus zachirus	433.35	2688	 	36.805164	-122.01892	1677694	0.92	2005-07-14 17:44:52.0	Ventana	34.267	01:30:34:29	6.93	V2688-02
 	transect	Nanomia bijuga	200.39	2681	 	36.698296	-122.05335	2491091	1.69	2005-07-07 17:11:44.0	Ventana	34.198	00:42:51:09	8.335	V2681-01HD
 	descend	Appendicularia	523.43	2683	 	36.701466	-122.04913	1756903	0.58	2005-07-11 17:41:48.0	Ventana	34.32	01:25:55:12	6.285	V2683-02
 	ascend	Appendicularia	335.28	2681	 	36.69953	-122.055244	1718124	1.16	2005-07-07 20:54:57.6	Ventana	34.241	04:23:18:11	7.305	V2681-05
 	transect	Mediaster	 	2687	 	 	 	1812603	 	2005-07-13 20:46:47.0	Ventana	 	04:11:17:11	 	V2687-05
 	transect	Appendicularia	901.01	2681	 	36.695286	-122.05096	2498465	0.39	2005-07-07 19:14:55.0	Ventana	34.504	02:44:36:07	4.166	V2681-03HD
 	transect	Mesomyaria	800.87	2674	 	36.752533	-122.201614	1799070	0.34	2005-06-08 17:36:29.0	Ventana	34.487	00:21:03:13	4.415	V2674-01
 	descend	Chuniphyes	809.26	2683	 	36.70268	-122.04868	1757166	0.36	2005-07-11 18:03:08.0	Ventana	34.471	01:47:13:27	4.534	V2683-02
 	transect	Psolus squamatus	399.84	2687	http://search.mbari.org/ARCHIVE/frameGrabs/Ventana/images/2687/01_02_17_21.jpg	36.788036	-122.12153	1809102	1.13	2005-07-13 17:35:55.0	Ventana	34.244	01:02:17:21	7.27	V2687-02
 	descend	Aegina	654.24	2682	 	36.698643	-122.05994	1721354	0.28	2005-07-08 18:10:29.0	Ventana	34.409	02:03:34:26	5.229	V2682-03
 	ascend	Appendicularia	592.2	2682	 	36.698788	-122.060776	1723467	0.4	2005-07-08 20:47:50.0	Ventana	34.37	04:39:57:00	5.67	V2682-05
 	transect	Mediaster	 	2687	 	 	 	1811505	 	2005-07-13 20:14:55.0	Ventana	 	03:39:53:29	 	V2687-04
 	ascend	Aegina	722.59	2681	 	36.6987	-122.05524	1717571	0.29	2005-07-07 20:18:28.467	Ventana	34.44	03:47:29:12	4.936	V2681-04
 	transect	Radiolaria	50.44	2681	 	36.699814	-122.05428	2485511	2.95	2005-07-07 16:33:52.0	Ventana	33.926	00:05:02:20	9.615	V2681-01HD
 	cruise	rock outcrop	93.47	2676	http://search.mbari.org/ARCHIVE/frameGrabs/Ventana/images/2676/01_58_09_08.jpg	36.810127	-122.033104	1676942	1.89	2005-06-14 18:18:30.0	Ventana	34.145	01:58:09:08	8.491	V2676-02
 	ascend	Calycophorae	726.24	2683	 	36.70606	-122.04866	1757858	0.3	2005-07-11 21:04:35.0	Ventana	34.454	04:37:26:23	4.724	V2683-05
 	transect	Phyllospadix	197.55	2696	 	36.803448	-122.12385	1813212	1.55	2005-08-01 17:20:33.0	Ventana	34.198	00:48:51:00	8.63	V2696-01
 	cruise	Stylasterias	90.7	2688	 	36.817024	-122.0155	1679341	1.99	2005-07-14 20:06:47.0	Ventana	34.086	03:51:32:11	8.91	V2688-04
 	descend	Calycophorae	345.91	2683	 	36.70128	-122.049965	1756557	1.25	2005-07-11 16:56:18.0	Ventana	34.226	00:43:58:17	7.236	V2683-01
 	descend	Solmissus	257.82	2693	 	36.698368	-122.06164	1758407	1.41	2005-07-25 19:25:50.0	Ventana	34.246	02:05:50:16	8.281	V2693-02
 	transect	Psolus squamatus	 	2687	 	 	 	1807662	 	2005-07-13 17:21:30.0	Ventana	 	00:48:22:29	 	V2687-01
 	transect	molt	100.55	2681	 	36.69983	-122.05429	2489587	2.12	2005-07-07 16:45:30.0	Ventana	34.068	00:16:40:06	9.151	V2681-01HD
 	ascend	Appendicularia	618.23	2682	 	36.698868	-122.05985	1723407	0.39	2005-07-08 20:37:55.0	Ventana	34.385	04:30:03:14	5.489	V2682-05
 	transect	Ceriantharia sp. 2	998.52	2669	 	36.732883	-122.25204	1737316	0.4	2005-05-25 20:45:25.0	Ventana	34.509	03:06:14:10	4.074	V2669-04
 	transect	Nanomia bijuga	200.42	2681	 	36.69828	-122.0533	2490888	1.7	2005-07-07 17:09:31.0	Ventana	34.197	00:40:39:14	8.33	V2681-01HD
 	transect	Mesomyaria	800.27	2674	 	36.75254	-122.20343	1799333	0.35	2005-06-08 17:45:59.0	Ventana	34.483	00:30:32:03	4.371	V2674-01
 	transect	Mediaster	 	2687	 	 	 	1812663	 	2005-07-13 20:50:12.0	Ventana	 	04:14:42:14	 	V2687-05
 	transect	Sergestes similis	400.78	2681	 	36.695995	-122.05143	2492945	0.79	2005-07-07 17:41:57.0	Ventana	34.277	01:12:20:10	6.661	V2681-02HD
 	ascend	Appendicularia	1019.57	2682	 	36.697723	-122.058044	1722858	0.47	2005-07-08 20:04:31.0	Ventana	34.529	03:57:06:22	3.888	V2682-04
 	transect	Ceriantharia sp. 2	 	2669	 	 	 	1737662	 	2005-05-25 13:55:20.0	Ventana	 	03:16:07:25	 	V2669-04
 	cruise	Rathbunaster californicus	 	2687	 	 	 	1806910	 	2005-07-13 16:37:06.0	Ventana	 	00:04:01:28	 	V2687-01
 	ascend	Appendicularia	937.54	2681	 	36.697586	-122.05405	1716962	0.41	2005-07-07 19:43:03.567	Ventana	34.514	03:12:07:05	4.074	V2681-04
 	transect	Mesomyaria	999.85	2669	 	36.731747	-122.244125	1734131	0.4	2005-05-25 19:51:00.0	Ventana	34.511	02:12:30:29	4.078	V2669-03
 	transect	Phyllospadix	800.32	2674	 	36.752045	-122.208954	1800841	0.35	2005-06-08 18:14:23.0	Ventana	34.49	00:58:54:07	4.329	V2674-01
 	ascend	Copepoda	763.1	2681	 	36.69868	-122.056015	1717511	0.29	2005-07-07 20:11:14.667	Ventana	34.45	03:40:16:01	4.797	V2681-04
 	transect	Rathbunaster californicus	199.66	2696	 	36.804287	-122.12615	1813415	1.52	2005-08-01 17:44:32.0	Ventana	34.209	01:12:26:04	8.664	V2696-02
 	transect	Chaetognatha	300.45	2681	 	36.69702	-122.052536	2492396	1.23	2005-07-07 17:24:50.0	Ventana	34.234	00:55:56:23	7.392	V2681-01HD
 	transect	Rathbunaster californicus	200.23	2696	 	36.805065	-122.12785	1813558	1.51	2005-08-01 17:59:37.0	Ventana	34.211	01:27:29:17	8.675	V2696-02
 	transect	Mesomyaria	800.19	2674	 	36.751263	-122.215935	1803379	0.35	2005-06-08 18:49:00.0	Ventana	34.489	01:33:03:16	4.36	V2674-02
 	ascend	Stomiidae	376.58	2683	 	36.703915	-122.05059	1758061	1.03	2005-07-11 21:21:20.0	Ventana	34.247	04:54:11:23	6.98	V2683-05
 	transect	Microstomus pacificus	798.92	2674	 	36.751408	-122.21489	1801390	0.35	2005-06-08 18:43:43.0	Ventana	34.49	01:27:46:13	4.336	V2674-02
 	descend	Aegina	723.36	2683	 	36.70223	-122.04894	1757106	0.32	2005-07-11 17:55:58.0	Ventana	34.436	01:40:03:11	4.902	V2683-02
 	transect	Umbellula lindahli	599.12	2680	 	36.77912	-122.22425	1804477	0.36	2005-06-27 18:06:38.0	Ventana	34.378	00:46:44:24	5.601	V2680-01
 	transect	Pasiphaeidae	600.59	2681	 	36.696056	-122.051636	2493697	0.3	2005-07-07 18:20:22.0	Ventana	34.387	01:50:44:09	5.49	V2681-02HD
 	descend	Nanomia	233.05	2681	 	36.698544	-122.05352	1713589	1.48	2005-07-07 17:15:32.033	Ventana	34.218	00:46:39:24	8.167	V2681-01
 	descend	Appendicularia	558.17	2683	 	36.70177	-122.04915	1756963	0.44	2005-07-11 17:45:11.0	Ventana	34.34	01:29:17:16	6.06	V2683-02
 	descend	Copepoda	679.28	2682	 	36.69866	-122.05995	1721414	0.28	2005-07-08 18:12:35.0	Ventana	34.413	02:05:40:26	5.182	V2682-03
 	transect	Calycophorae	1000.99	2681	 	36.696106	-122.05232	2498668	0.47	2005-07-07 19:28:17.0	Ventana	34.532	02:57:57:10	3.867	V2681-03HD
 	transect	Mesomyaria	1000.13	2669	http://search.mbari.org/ARCHIVE/frameGrabs/Ventana/images/2669/01_02_14_13.jpg	36.73094	-122.233734	1683936	0.45	2005-05-25 18:40:13.0	Ventana	34.523	01:02:14:13	3.911	V2669-02
 	descend	Copepoda	1230.9	2683	 	36.70622	-122.048096	1757512	0.73	2005-07-11 19:45:55.0	Ventana	34.574	03:20:20:02	3.345	V2683-04
 	transect	Sebastolobus	 	2687	 	 	 	1811708	 	2005-07-13 20:21:16.0	Ventana	 	03:46:15:06	 	V2687-04
 	descend	Periphylla	524.24	2682	 	36.6986	-122.059784	1720865	0.39	2005-07-08 18:02:10.0	Ventana	34.359	01:55:38:28	5.848	V2682-02
 	cruise	Chionoecetes tanneri	1209.93	2683	 	36.706806	-122.047615	1757655	0.72	2005-07-11 20:13:25.0	Ventana	34.573	03:47:48:18	3.35	V2683-04
 	ascend	Appendicularia	302.5	2681	 	36.69969	-122.05525	1718184	1.31	2005-07-07 20:59:03.8	Ventana	34.229	04:27:24:09	7.631	V2681-05
 	transect	Mesomyaria	801.96	2674	 	36.75178	-122.21075	1801044	0.36	2005-06-08 18:23:12.0	Ventana	34.492	01:07:16:27	4.322	V2674-02
 	descend	Hastigerinella digitata	269.27	2682	 	36.69975	-122.06077	1720034	1.35	2005-07-08 16:31:47.0	Ventana	34.227	00:25:52:06	7.752	V2682-01
 	descend	Lobata	423.41	2681	 	36.69807	-122.05382	1715315	0.7	2005-07-07 17:51:22.2	Ventana	34.292	01:21:44:20	6.511	V2681-02
 	transect	Appendicularia	400.77	2681	 	36.697414	-122.053085	2493148	0.79	2005-07-07 17:48:01.0	Ventana	34.278	01:18:25:21	6.662	V2681-02HD
 	cruise	Allocentrotus fragilis	415.39	2676	 	36.803806	-122.02921	1676442	0.68	2005-06-14 16:43:08.277	Ventana	34.309	00:27:16:09	6.499	V2676-01
 	transect	Mesomyaria	999.44	2669	 	36.73133	-122.23592	1684485	0.44	2005-05-25 18:57:06.0	Ventana	34.52	01:19:05:22	3.936	V2669-02
 	transect	Neptunea amianta	1000.65	2669	 	36.732304	-122.24941	1736421	0.41	2005-05-25 20:28:59.0	Ventana	34.51	02:50:27:08	4.07	V2669-03
 	transect	Ceriantharia sp. 1	804.85	2674	 	36.75068	-122.22125	1803725	0.34	2005-06-08 19:13:30.0	Ventana	34.486	01:57:31:20	4.413	V2674-02
 	transect	Appendicularia	300.47	2681	 	36.698074	-122.05341	2492050	1.24	2005-07-07 17:21:15.0	Ventana	34.233	00:52:23:05	7.404	V2681-01HD
 	transect	Chaetognatha	200.4	2681	 	36.698288	-122.05333	2491031	1.7	2005-07-07 17:11:00.0	Ventana	34.196	00:42:06:13	8.332	V2681-01HD
 	descend	Appendicularia	803.1	2681	 	36.696964	-122.05314	1716413	0.31	2005-07-07 19:02:58.147	Ventana	34.473	02:32:41:01	4.499	V2681-03
 	transect	Calycophorae	300.41	2681	 	36.695797	-122.05141	2492599	1.24	2005-07-07 17:29:23.0	Ventana	34.233	01:00:29:07	7.415	V2681-01HD
 	descend	Appendicularia	374.1	2682	 	36.69845	-122.05998	1720662	0.95	2005-07-08 17:34:44.0	Ventana	34.262	01:28:15:08	6.993	V2682-02
 	cruise	Sebastolobus	621.97	2688	 	36.794094	-122.01955	1677288	0.42	2005-07-14 16:28:25.0	Ventana	34.418	00:14:45:27	5.239	V2688-01
 	ascend	Appendicularia	401.95	2681	 	36.699265	-122.05446	1717981	0.86	2005-07-07 20:47:34.5	Ventana	34.279	04:15:55:07	6.854	V2681-05
 	transect	Mesomyaria	999.72	2669	 	36.731064	-122.23519	1684282	0.45	2005-05-25 18:51:49.0	Ventana	34.521	01:13:49:15	3.921	V2669-02
 	transect	Gastropoda sp.2	1000.49	2669	 	36.73217	-122.24847	1736218	0.41	2005-05-25 20:22:05.0	Ventana	34.51	02:43:33:09	4.061	V2669-03
 	transect	Actiniaria sp. 1	999.82	2669	 	36.73142	-122.23673	1684831	0.44	2005-05-25 19:03:50.0	Ventana	34.52	01:25:49:12	3.938	V2669-02
 	transect	Mediaster	 	2687	 	 	 	1812460	 	2005-07-13 20:39:35.0	Ventana	 	04:04:32:26	 	V2687-04
 	transect	Nanomia bijuga	200.37	2681	 	36.69831	-122.053406	2491234	1.67	2005-07-07 17:13:00.0	Ventana	34.201	00:44:07:10	8.34	V2681-01HD
 	transect	Psolus squamatus	 	2687	 	 	 	1808696	 	2005-07-13 17:27:23.0	Ventana	 	00:54:16:06	 	V2687-01
 	transect	Mesomyaria	999.62	2669	 	36.73136	-122.23762	1687512	0.44	2005-05-25 19:11:32.0	Ventana	34.52	01:33:30:28	3.949	V2669-02
 	descend	Copepoda	467.02	2683	 	36.70155	-122.04935	1756760	0.77	2005-07-11 17:13:49.0	Ventana	34.286	01:01:28:24	6.654	V2683-01
 	ascend	Euphausiacea	258.17	2681	 	36.697838	-122.05522	1719282	 	2005-07-07 21:29:59.0	Ventana	 	04:58:45:08	 	V2681-05
 	transect	Mediaster	 	2687	 	 	 	1807316	 	2005-07-13 17:06:24.0	Ventana	 	00:33:17:17	 	V2687-01
 	transect	bathocyroe	500.6	2681	 	36.697617	-122.05338	2493351	0.44	2005-07-07 17:56:19.0	Ventana	34.347	01:26:43:02	6.017	V2681-02HD
 	transect	Appendicularia	901.05	2681	 	36.696095	-122.052086	2498322	0.39	2005-07-07 19:10:36.0	Ventana	34.505	02:40:17:01	4.173	V2681-03HD
 	transect	Rathbunaster californicus	203.54	2696	 	36.806446	-122.13001	1813761	1.49	2005-08-01 18:27:57.0	Ventana	34.21	01:55:48:12	8.637	V2696-02
 	transect	Neptunea amianta	599.82	2680	 	36.777386	-122.22254	1804274	0.36	2005-06-27 17:45:52.0	Ventana	34.378	00:25:59:13	5.583	V2680-01
 	cruise	Lycenchelys	323.56	2688	 	36.808353	-122.02023	1677837	1.28	2005-07-14 18:10:52.0	Ventana	34.222	01:56:33:14	7.661	V2688-02
 	descend	Aegina	876.83	2682	 	36.69829	-122.05944	1721760	0.33	2005-07-08 18:49:57.0	Ventana	34.492	02:42:59:25	4.346	V2682-03
 	transect	Phyllospadix	802.47	2674	 	36.752235	-122.20645	1799946	0.36	2005-06-08 18:02:00.0	Ventana	34.489	00:46:32:00	4.343	V2674-01
 	descend	Chaetognatha	363.88	2682	 	36.698547	-122.0602	1720380	0.99	2005-07-08 17:30:03.0	Ventana	34.26	01:23:33:02	7.051	V2682-02
 	transect	Allocentrotus fragilis	399.84	2687	 	36.788124	-122.121635	1809245	1.13	2005-07-13 17:37:31.0	Ventana	34.243	01:03:53:15	7.255	V2687-02
 	transect	Ophiuroidea	1000.35	2669	 	36.731983	-122.246445	1735669	0.41	2005-05-25 20:07:23.0	Ventana	34.51	02:28:52:28	4.065	V2669-03
 	descend	Poeobius meseres	931.11	2683	 	36.703697	-122.04861	1757309	0.38	2005-07-11 19:07:32.0	Ventana	34.504	02:47:54:22	4.174	V2683-03
 	descend	Apolemia	587.81	2682	 	36.698647	-122.05982	1721211	0.36	2005-07-08 18:07:08.0	Ventana	34.386	02:00:13:09	5.497	V2682-03
 	transect	Porifera sp. 1	 	2687	 	 	 	1810412	 	2005-07-13 19:17:26.0	Ventana	 	02:43:09:22	 	V2687-03
 	transect	Phyllospadix	800.26	2674	 	36.752068	-122.2089	1800832	0.35	2005-06-08 18:14:00.0	Ventana	34.489	00:58:31:09	4.325	V2674-01
 	transect	Neptunea amianta	602.35	2680	 	36.790314	-122.232704	1806758	0.35	2005-06-27 20:18:18.0	Ventana	34.378	02:56:54:16	5.586	V2680-03
 	transect	Osmeridae	599.2	2680	 	36.779205	-122.22428	1804486	0.36	2005-06-27 18:07:09.0	Ventana	34.377	00:47:16:00	5.601	V2680-01
 	transect	Phyllospadix	 	2687	 	 	 	1812331	 	2005-07-13 20:32:24.0	Ventana	 	03:57:21:28	 	V2687-04
 	transect	Poeobius meseres	500.61	2681	 	36.696136	-122.05166	2493619	0.43	2005-07-07 18:02:45.0	Ventana	34.347	01:33:09:02	6.009	V2681-02HD
 	descend	Appendicularia	266.02	2682	 	36.699795	-122.06082	1720016	1.35	2005-07-08 16:27:02.0	Ventana	34.227	00:21:05:10	7.781	V2682-01
 	transect	Mesomyaria	800.86	2674	 	36.75112	-122.21691	1803457	0.35	2005-06-08 18:52:55.0	Ventana	34.496	01:36:57:25	4.333	V2674-02
 	transect	Microstomus pacificus	399.46	2687	 	36.78941	-122.125626	1809706	1.13	2005-07-13 18:38:17.0	Ventana	34.239	02:04:35:29	7.252	V2687-02
 	ascend	Chuniphyes	684.8	2682	 	36.698895	-122.05947	1723347	0.28	2005-07-08 20:33:12.0	Ventana	34.41	04:25:21:08	5.162	V2682-05
 	transect	Zaniolepididae	199.47	2696	 	36.804028	-122.12566	1813360	1.52	2005-08-01 17:39:26.0	Ventana	34.21	01:07:19:23	8.664	V2696-02
 	transect	Mesomyaria	999.44	2669	 	36.73133	-122.23592	1684490	0.44	2005-05-25 18:57:06.0	Ventana	34.52	01:19:05:22	3.936	V2669-02
 	transect	Ophiuroidea	998.62	2669	 	36.731155	-122.23085	1683461	0.45	2005-05-25 18:21:25.0	Ventana	34.522	00:43:51:27	3.909	V2669-01
 	descend	Aegina	451.89	2681	 	36.698086	-122.05387	1715333	0.56	2005-07-07 17:52:15.357	Ventana	34.316	01:22:37:23	6.226	V2681-02
 	descend	Leuroglossus stilbius	775.1	2683	 	36.702496	-122.04888	1757138	0.33	2005-07-11 17:58:59.0	Ventana	34.454	01:43:04:04	4.726	V2683-02
 	ascend	Appendicularia	417.71	2681	 	36.699223	-122.05431	1717958	0.79	2005-07-07 20:45:58.8	Ventana	34.28	04:14:20:04	6.673	V2681-05
 	transect	Mesomyaria	1000.28	2669	 	36.73175	-122.2448	1734463	0.4	2005-05-25 19:55:21.0	Ventana	34.507	02:16:51:26	4.072	V2669-03
 	transect	Rathbunaster californicus	204.0	2696	 	36.80623	-122.12981	1813743	1.49	2005-08-01 18:24:26.0	Ventana	34.211	01:52:16:26	8.63	V2696-02
 	descend	Chuniphyes	742.02	2682	 	36.698452	-122.059654	1721612	0.29	2005-07-08 18:29:35.0	Ventana	34.445	02:22:38:10	4.848	V2682-03
 	transect	Psolus squamatus	 	2687	 	 	 	1810089	 	2005-07-13 18:55:29.0	Ventana	 	02:21:15:04	 	V2687-03
 	cruise	Pennatulacea	103.74	2688	 	36.816048	-122.01418	1679300	1.98	2005-07-14 19:47:52.0	Ventana	34.087	03:32:38:28	8.905	V2688-04
 	transect	Mesomyaria	998.77	2669	 	36.73113	-122.23472	1684167	0.45	2005-05-25 18:47:29.0	Ventana	34.52	01:09:29:06	3.917	V2669-02
 	transect	Funiculina	997.36	2669	 	36.7306	-122.22817	1649347	0.45	2005-05-25 18:01:41.0	Ventana	34.522	00:24:09:12	3.907	V2669-01
 	descend	Appendicularia	467.05	2683	 	36.70157	-122.04935	1756755	0.77	2005-07-11 17:13:31.0	Ventana	34.286	01:01:09:20	6.652	V2683-01
 	transect	Appendicularia	300.39	2681	 	36.69589	-122.0515	2492590	1.24	2005-07-07 17:28:59.0	Ventana	34.233	01:00:05:09	7.428	V2681-01HD
 	ascend	Appendicularia	331.64	2693	 	36.69211	-122.06187	1759027	1.29	2005-07-25 21:16:03.0	Ventana	34.236	03:40:35:08	7.553	V2693-04
 	transect	Euphausia	200.39	2681	 	36.698284	-122.053314	2490994	1.71	2005-07-07 17:10:31.0	Ventana	34.187	00:41:40:08	8.319	V2681-01HD
 	descend	Copepoda	1094.79	2683	 	36.705112	-122.048904	1757461	0.56	2005-07-11 19:29:04.0	Ventana	34.541	03:09:25:03	3.725	V2683-03
 	transect	Sebastes diploproa	 	2687	 	 	 	1811118	 	2005-07-13 19:53:59.0	Ventana	 	03:18:59:22	 	V2687-04
 	transect	Coryphaenoides acrolepis	998.91	2669	http://search.mbari.org/ARCHIVE/frameGrabs/Ventana/images/2669/00_38_34_26.jpg	36.730984	-122.23023	1651266	0.45	2005-05-25 18:16:08.0	Ventana	34.523	00:38:34:26	3.908	V2669-01
 	transect	Gastropoda sp.2	1000.4	2669	 	36.731213	-122.24116	1689387	0.41	2005-05-25 19:34:37.0	Ventana	34.512	01:56:34:09	4.058	V2669-02
 	descend	Myctophidae	552.96	2682	 	36.69863	-122.059784	1720906	0.35	2005-07-08 18:05:47.0	Ventana	34.374	01:59:16:24	5.665	V2682-02
 	transect	Rathbunaster californicus	196.24	2696	 	36.802666	-122.12169	1813037	1.55	2005-08-01 16:58:48.0	Ventana	34.199	00:27:06:21	8.6	V2696-01
 	transect	Nanomia bijuga	400.79	2681	 	36.69586	-122.05127	2492913	0.79	2005-07-07 17:41:15.0	Ventana	34.278	01:11:38:22	6.667	V2681-02HD
 	cruise	Parastichopus	198.4	2676	 	36.806458	-122.02928	1676799	1.64	2005-06-14 17:42:53.0	Ventana	34.198	01:22:36:29	8.107	V2676-02
 	transect	Mesomyaria	999.82	2669	 	36.7313	-122.238045	1688358	0.44	2005-05-25 19:15:16.0	Ventana	34.518	01:37:14:29	3.958	V2669-02
 	descend	Aegina	310.8	2693	 	36.69759	-122.06081	1758490	1.31	2005-07-25 19:40:18.0	Ventana	34.235	02:19:53:20	7.64	V2693-03
 	transect	Stomphia	597.39	2680	 	36.78109	-122.226036	1804869	0.35	2005-06-27 18:31:32.0	Ventana	34.378	01:10:38:22	5.597	V2680-02
 	transect	Lycenchelys camchatica	1000.1	2669	 	36.73097	-122.23301	1683844	0.45	2005-05-25 18:36:48.0	Ventana	34.522	00:59:14:08	3.911	V2669-01
 	ascend	Appendicularia	258.17	2681	 	36.697838	-122.05522	1719370	 	2005-07-07 21:29:59.0	Ventana	 	05:02:55:06	 	V2681-05
 	descend	Appendicularia	701.13	2681	 	36.697926	-122.05379	1715979	0.28	2005-07-07 18:32:02.033	Ventana	34.425	02:02:22:00	5.028	V2681-02
 	descend	Chaetognatha	363.63	2682	 	36.698566	-122.06039	1720339	1.0	2005-07-08 17:22:49.0	Ventana	34.258	01:16:20:11	7.076	V2682-02
 	transect	Phyllospadix	999.66	2669	 	36.73267	-122.25105	1737058	0.41	2005-05-25 20:39:15.0	Ventana	34.509	03:00:43:29	4.069	V2669-03
 	transect	Gastropoda sp.2	999.67	2669	 	36.731014	-122.23386	1694637	0.45	2005-05-25 18:40:59.0	Ventana	34.522	01:02:59:21	3.913	V2669-02
 	transect	Psolus squamatus	 	2687	 	 	 	1807141	 	2005-07-13 17:01:25.0	Ventana	 	00:28:19:07	 	V2687-01
 	ascend	Leuroglossus stilbius	768.59	2682	 	36.69873	-122.05899	1723287	0.29	2005-07-08 20:26:50.0	Ventana	34.445	04:18:58:09	4.788	V2682-05
 	transect	Mesomyaria	798.78	2674	 	36.751743	-122.21254	1801215	0.35	2005-06-08 18:29:59.0	Ventana	34.49	01:14:03:15	4.337	V2674-02
 	transect	Calycophorae	300.41	2681	 	36.697407	-122.05288	2492267	1.23	2005-07-07 17:23:31.0	Ventana	34.232	00:54:39:07	7.397	V2681-01HD
 	transect	Ophiuroidea	999.18	2669	 	36.731377	-122.23607	1684550	0.44	2005-05-25 18:58:04.0	Ventana	34.52	01:20:03:19	3.939	V2669-02
 	cruise	Sebastes	483.87	2688	 	36.801857	-122.018364	1677565	0.78	2005-07-14 17:26:38.0	Ventana	34.292	01:12:22:09	6.649	V2688-02
 	transect	Brisaster	1000.19	2669	 	36.73163	-122.24332	1733817	0.41	2005-05-25 19:46:35.0	Ventana	34.508	02:08:05:17	4.071	V2669-03
 	transect	sinker	400.71	2681	 	36.69796	-122.05368	2493236	0.79	2005-07-07 17:50:21.0	Ventana	34.278	01:20:44:05	6.661	V2681-02HD
 	cruise	Anoplopoma fimbria	516.36	2688	 	36.80035	-122.01908	1677505	0.67	2005-07-14 17:13:19.837	Ventana	34.312	00:59:37:06	6.391	V2688-01
 	transect	Brisaster	998.94	2669	 	36.73118	-122.23434	1684107	0.45	2005-05-25 18:43:55.0	Ventana	34.521	01:05:55:14	3.916	V2669-02
 	endtransect	physical object	599.45	2680	 	36.779644	-122.2247	1804546	0.36	2005-06-27 18:12:25.0	Ventana	34.376	00:52:31:17	5.609	V2680-01
 	transect	Phyllospadix	999.4	2669	 	36.73136	-122.237465	1687498	0.44	2005-05-25 19:10:28.0	Ventana	34.52	01:32:26:29	3.944	V2669-02
 	descend	Aegina	1182.09	2682	 	36.698303	-122.05805	1722318	0.66	2005-07-08 19:39:32.0	Ventana	34.569	03:32:07:06	3.416	V2682-04
 	transect	Ceriantharia sp. 1	800.37	2674	 	36.751766	-122.2119	1801155	0.35	2005-06-08 18:27:36.0	Ventana	34.489	01:11:40:26	4.341	V2674-02
 	transect	Mediaster	 	2687	 	 	 	1810795	 	2005-07-13 19:35:01.0	Ventana	 	03:00:44:02	 	V2687-03
 	transect	Hormiphora	200.39	2681	 	36.69828	-122.05329	2490288	1.69	2005-07-07 17:06:34.0	Ventana	34.2	00:37:41:23	8.359	V2681-01HD
 	transect	Appendicularia	600.63	2681	 	36.69586	-122.05141	2493679	0.3	2005-07-07 18:19:26.0	Ventana	34.388	01:49:49:05	5.495	V2681-02HD
 	cruise	Parastichopus	145.46	2676	 	36.80876	-122.03076	1676859	1.71	2005-06-14 17:54:57.0	Ventana	34.176	01:34:40:24	8.303	V2676-02
 	ascend	Chaetognatha	222.01	2683	 	36.70286	-122.05074	1758107	1.73	2005-07-11 21:28:04.0	Ventana	34.207	05:00:54:26	8.184	V2683-05
 	transect	Psolus squamatus	 	2687	 	 	 	1812391	 	2005-07-13 20:36:20.0	Ventana	 	04:01:18:08	 	V2687-04
 	ascend	Chuniphyes	840.4	2681	 	36.698643	-122.056	1717391	0.32	2005-07-07 19:56:21.533	Ventana	34.486	03:25:24:10	4.406	V2681-04
 	transect	Nanomia bijuga	200.31	2681	 	36.69828	-122.05329	2490025	1.69	2005-07-07 17:04:16.0	Ventana	34.194	00:35:24:15	8.359	V2681-01HD
 	ascend	Mysidae	769.59	2683	 	36.706398	-122.04858	1757844	0.36	2005-07-11 21:02:34.0	Ventana	34.467	04:35:26:19	4.603	V2683-05
 	transect	Psolus squamatus	 	2687	 	 	 	1808737	 	2005-07-13 17:28:00.0	Ventana	 	00:54:52:18	 	V2687-01
 	transect	Brisaster	599.11	2680	 	36.782898	-122.22819	1805252	0.35	2005-06-27 19:01:03.0	Ventana	34.38	01:40:07:05	5.574	V2680-02
 	transect	Mediaster	 	2687	 	 	 	1812654	 	2005-07-13 20:49:53.0	Ventana	 	04:14:23:14	 	V2687-05
 	transect	cyclothone	800.97	2681	 	36.695164	-122.05093	2498073	0.31	2005-07-07 18:54:19.0	Ventana	34.475	02:24:00:14	4.485	V2681-03HD
 	ascend	Calycophorae	593.36	2682	 	36.698483	-122.06217	1723561	0.38	2005-07-08 21:04:37.0	Ventana	34.369	04:56:43:27	5.698	V2682-05
 	transect	Neptunea amianta	598.55	2680	 	36.780724	-122.22572	1804809	0.35	2005-06-27 18:26:45.0	Ventana	34.379	01:05:51:26	5.575	V2680-02
 	transect	Psolus squamatus	 	2687	 	 	 	1811058	 	2005-07-13 19:49:50.0	Ventana	 	03:14:51:17	 	V2687-04
 	descend	Appendicularia	304.78	2682	 	36.699577	-122.06074	1720076	1.17	2005-07-08 16:38:53.0	Ventana	34.238	00:32:57:08	7.333	V2682-01
 	transect	Appendicularia	400.81	2681	 	36.696175	-122.051636	2492973	0.79	2005-07-07 17:42:43.0	Ventana	34.276	01:13:07:22	6.657	V2681-02HD
 	descend	sinker	1018.28	2683	 	36.70459	-122.04966	1757401	0.44	2005-07-11 19:23:14.0	Ventana	34.519	03:03:36:07	3.979	V2683-03
 	transect	molt	100.54	2681	 	36.69983	-122.05429	2489582	2.12	2005-07-07 16:45:26.0	Ventana	34.068	00:16:35:27	9.151	V2681-01HD
 	transect	Ophiuroidea	999.6	2669	 	36.73142	-122.236626	1684813	0.44	2005-05-25 19:03:12.0	Ventana	34.521	01:25:11:14	3.939	V2669-02
 	cruise	Vertebrata	1016.0	2689	http://search.mbari.org/ARCHIVE/frameGrabs/Ventana/images/2689/00_29_42_21.jpg	36.771523	-122.08295	1669720	0.57	2005-07-18 17:06:41.0	Ventana	34.549	00:29:42:21	3.659	V2689-01
 	transect	Lycenchelys camchatica	800.51	2674	 	36.75259	-122.20116	1774180	0.34	2005-06-08 17:34:30.0	Ventana	34.485	00:19:03:26	4.397	V2674-01
 	transect	Mesomyaria	801.35	2674	 	36.752388	-122.20556	1799803	0.36	2005-06-08 17:57:32.0	Ventana	34.486	00:42:04:27	4.35	V2674-01
 	transect	Stomphia	 	2687	 	 	 	1809000	 	2005-07-13 17:33:22.0	Ventana	 	01:00:14:01	 	V2687-01
 	transect	Gastropoda	203.26	2696	 	36.80671	-122.130295	1813803	1.47	2005-08-01 18:33:30.0	Ventana	34.215	02:01:20:15	8.616	V2696-02
 	transect	Microstomus pacificus	 	2687	 	 	 	1810149	 	2005-07-13 19:00:37.0	Ventana	 	02:26:21:26	 	V2687-03
 	transect	Mesomyaria	800.66	2674	 	36.751747	-122.211205	1801095	0.35	2005-06-08 18:24:53.0	Ventana	34.487	01:08:57:19	4.341	V2674-02
 	transect	Salpida	300.45	2681	 	36.697727	-122.053154	2492147	1.23	2005-07-07 17:22:27.0	Ventana	34.234	00:53:33:22	7.4	V2681-01HD
 	cruise	Stomphia	999.76	2669	http://search.mbari.org/ARCHIVE/frameGrabs/Ventana/images/2669/01_30_43_22.jpg	36.73142	-122.237274	20003790	0.44	2005-05-25 19:08:44.0	Ventana	34.519	01:30:43:22	3.947	V2669-02
 	transect	Lycenchelys camchatica	1000.04	2669	 	36.731792	-122.244644	1734403	0.4	2005-05-25 19:54:15.543	Ventana	34.51	02:15:46:22	4.084	V2669-03
 	transect	Phyllospadix	802.21	2674	 	36.752323	-122.20589	1799863	0.36	2005-06-08 17:59:38.0	Ventana	34.49	00:44:10:03	4.332	V2674-01
 	transect	Mesomyaria	1000.35	2669	 	36.731533	-122.24263	1694517	0.4	2005-05-25 19:42:34.0	Ventana	34.511	02:04:30:27	4.084	V2669-02
 	transect	Gastropoda sp.2	999.67	2669	 	36.73051	-122.22888	1695020	0.45	2005-05-25 18:05:43.0	Ventana	34.521	00:28:10:24	3.908	V2669-01
 	transect	Mesomyaria	1000.19	2669	 	36.731686	-122.24373	1733877	0.41	2005-05-25 19:48:20.0	Ventana	34.509	02:09:52:27	4.067	V2669-03
 	transect	Phyllospadix	801.64	2674	 	36.75223	-122.20749	1800066	0.37	2005-06-08 18:07:06.0	Ventana	34.488	00:51:37:29	4.35	V2674-01
 	transect	Phyllospadix	196.31	2696	 	36.80307	-122.12264	1813097	1.56	2005-08-01 17:06:32.0	Ventana	34.198	00:34:51:03	8.621	V2696-01
 	transect	molt	100.5	2681	 	36.699825	-122.05429	2489702	2.13	2005-07-07 16:48:17.0	Ventana	34.067	00:19:25:17	9.15	V2681-01HD
 	starttransect	object	805.24	2674	 	36.75078	-122.22112	1803720	0.34	2005-06-08 19:12:56.0	Ventana	34.485	01:56:57:02	4.404	V2674-02
 	transect	Euphausia	200.4	2681	 	36.698284	-122.05331	2490934	1.71	2005-07-07 17:09:59.0	Ventana	34.195	00:41:07:21	8.323	V2681-01HD
 	transect	Mediaster	 	2687	 	 	 	1811381	 	2005-07-13 20:10:14.0	Ventana	 	03:35:13:22	 	V2687-04
 	descend	Lobata	1011.51	2689	 	36.77142	-122.08304	1669600	0.57	2005-07-18 16:37:03.0	Ventana	34.531	00:00:08:09	3.872	V2689-01
 	transect	Mesomyaria	999.96	2669	 	36.731056	-122.239235	1689124	0.43	2005-05-25 19:22:35.0	Ventana	34.517	01:44:33:15	3.976	V2669-02
 	transect	Psolus squamatus	 	2687	 	 	 	1807201	 	2005-07-13 17:03:20.0	Ventana	 	00:30:14:22	 	V2687-01
 	descend	Nanomia	445.09	2683	 	36.70154	-122.0494	1756695	0.82	2005-07-11 17:08:30.0	Ventana	34.276	00:56:09:11	6.735	V2683-01
 	transect	Sebastolobus altivelis	800.76	2674	 	36.751072	-122.217636	1803517	0.35	2005-06-08 18:56:30.0	Ventana	34.488	01:40:32:26	4.338	V2674-02
 	descend	Chaetognatha	513.4	2683	 	36.701443	-122.049164	1756875	0.66	2005-07-11 17:40:31.0	Ventana	34.304	01:24:38:09	6.424	V2683-02
 	transect	Phyllospadix	800.42	2674	 	36.752094	-122.20852	1800772	0.35	2005-06-08 18:12:09.0	Ventana	34.488	00:56:40:16	4.326	V2674-01
 	transect	Lycenchelys camchatica	801.45	2674	 	36.751957	-122.209335	1800892	0.36	2005-06-08 18:16:03.0	Ventana	34.49	01:00:34:18	4.317	V2674-01
 	transect	Neptunea amianta	598.54	2680	 	36.782326	-122.22746	1805132	0.35	2005-06-27 18:48:31.0	Ventana	34.379	01:27:35:21	5.582	V2680-02
 	transect	Calycophorae	901.03	2681	 	36.69578	-122.05171	2498396	0.39	2005-07-07 19:12:08.0	Ventana	34.505	02:41:49:19	4.174	V2681-03HD
 	ascend	Aegina	661.38	2681	 	36.698788	-122.0542	1717654	0.29	2005-07-07 20:26:28.933	Ventana	34.406	03:55:29:26	5.241	V2681-04
 	transect	Nanomia bijuga	200.41	2681	 	36.6983	-122.05336	2491114	1.69	2005-07-07 17:12:00.0	Ventana	34.198	00:43:07:06	8.337	V2681-01HD
 	descend	Poeobius meseres	1069.97	2682	 	36.698326	-122.05916	1722055	0.5	2005-07-08 19:05:03.0	Ventana	34.538	02:58:04:15	3.787	V2682-03
 	transect	Appendicularia	400.75	2681	 	36.697582	-122.05328	2493176	0.79	2005-07-07 17:48:45.0	Ventana	34.277	01:19:08:05	6.658	V2681-02HD
 	ascend	Cydippida	204.99	2682	 	36.696545	-122.060776	1723764	1.97	2005-07-08 21:31:03.0	Ventana	34.172	05:22:44:02	8.049	V2682-06
 	transect	molt	100.57	2681	 	36.69983	-122.05429	2489522	2.13	2005-07-07 16:43:41.0	Ventana	34.068	00:14:51:04	9.147	V2681-01HD
 	transect	Ophiuroidea	1000.24	2669	 	36.73134	-122.24164	1689830	0.4	2005-05-25 19:37:29.0	Ventana	34.509	01:59:26:20	4.082	V2669-02
 	transect	Porifera sp. 1	 	2687	 	 	 	1810675	 	2005-07-13 19:27:31.0	Ventana	 	02:53:15:06	 	V2687-03
 	transect	Aegina	1001.04	2681	 	36.69515	-122.05107	2498576	0.48	2005-07-07 19:23:17.0	Ventana	34.53	02:52:56:24	3.858	V2681-03HD
 	ascend	Appendicularia	546.53	2682	 	36.698315	-122.06275	1723621	0.4	2005-07-08 21:09:29.0	Ventana	34.352	05:01:09:27	5.926	V2682-06
 	transect	Ceriantharia sp. 1	599.89	2680	 	36.778706	-122.223915	1804426	0.36	2005-06-27 18:02:33.0	Ventana	34.379	00:42:40:06	5.592	V2680-01
 	transect	Rathbunaster californicus	201.57	2696	 	36.805256	-122.12819	1813623	1.5	2005-08-01 18:06:56.0	Ventana	34.21	01:34:48:10	8.669	V2696-02
 	transect	Psolus squamatus	399.87	2687	 	36.788033	-122.1215	1809060	1.14	2005-07-13 17:35:38.0	Ventana	34.237	01:02:00:06	7.276	V2687-02
 	transect	phialidium	600.57	2681	 	36.696438	-122.05206	2493739	0.3	2005-07-07 18:22:05.0	Ventana	34.388	01:52:25:21	5.48	V2681-02HD
 	stationary	sinker	504.13	2695	 	36.78455	-122.20048	1824476	0.67	2005-07-28 18:33:41.0	Ventana	34.295	01:21:57:24	6.284	V2695-02
 	transect	Phyllospadix	999.6	2669	 	36.73102	-122.23122	1683581	0.45	2005-05-25 18:25:04.0	Ventana	34.522	00:47:30:29	3.913	V2669-01
 	transect	Chionoecetes tanneri	602.25	2680	 	36.787724	-122.23194	1805932	0.36	2005-06-27 19:52:47.0	Ventana	34.377	02:31:25:27	5.595	V2680-03
 	cruise	manipulator	359.54	2676	http://search.mbari.org/ARCHIVE/frameGrabs/Ventana/images/2676/00_36_09_29.jpg	36.80467	-122.02899	20003933	1.11	2005-06-14 16:52:04.0	Ventana	34.251	00:36:09:29	7.286	V2676-01
 	transect	Chaetognatha	800.92	2681	 	36.6957	-122.05162	2498193	0.32	2005-07-07 18:57:01.0	Ventana	34.475	02:26:42:17	4.494	V2681-03HD
 	transect	Gastropoda sp.2	1000.26	2669	 	36.731266	-122.24091	1689327	0.41	2005-05-25 19:33:12.0	Ventana	34.51	01:55:09:24	4.057	V2669-02
 	transect	Porifera sp. 1	 	2687	 	 	 	1810292	 	2005-07-13 19:14:38.0	Ventana	 	02:40:22:19	 	V2687-03
 	transect	Appendicularia	400.74	2681	 	36.696648	-122.0522	2493033	0.79	2005-07-07 17:44:48.0	Ventana	34.277	01:15:12:23	6.652	V2681-02HD
 	descend	Appendicularia	509.84	2682	 	36.698593	-122.05978	1720846	0.41	2005-07-08 18:00:40.0	Ventana	34.354	01:54:09:08	5.923	V2682-02
 	transect	Sebastolobus altivelis	800.88	2674	 	36.752514	-122.20268	1799236	0.35	2005-06-08 17:42:04.0	Ventana	34.487	00:26:37:16	4.377	V2674-01
 	ascend	Nanomia	211.64	2693	 	36.691143	-122.06257	1759147	1.71	2005-07-25 21:24:30.0	Ventana	34.19	03:49:01:24	8.624	V2693-04
 	ascend	sinker	1118.43	2683	 	36.707943	-122.04907	1757784	0.61	2005-07-11 20:42:18.0	Ventana	34.546	04:16:38:08	3.633	V2683-04
 	transect	Sebastes diploproa	 	2687	 	 	 	1810998	 	2005-07-13 19:47:15.0	Ventana	 	03:12:16:08	 	V2687-04
 	descend	Appendicularia	842.29	2682	 	36.698303	-122.05946	1721732	0.33	2005-07-08 18:47:22.0	Ventana	34.479	02:40:24:15	4.444	V2682-03
 	descend	Hastigerinella digitata	339.91	2683	 	36.701252	-122.049995	1756552	1.26	2005-07-11 16:55:58.0	Ventana	34.22	00:43:39:01	7.279	V2683-01
 	transect	Lycenchelys camchatica	800.91	2674	 	36.752533	-122.20026	1774060	0.3	2005-06-08 17:28:25.0	Ventana	34.454	00:12:59:21	4.605	V2674-01
 	transect	Mediaster	 	2687	 	 	 	1808880	 	2005-07-13 17:31:06.0	Ventana	 	00:57:58:13	 	V2687-01
 	ascend	Appendicularia	782.72	2681	 	36.69886	-122.05643	1717451	0.27	2005-07-07 20:04:35.54	Ventana	34.459	03:33:37:10	4.705	V2681-04
 	ascend	Lobata	606.77	2681	 	36.69893	-122.054245	1717695	0.31	2005-07-07 20:29:35.067	Ventana	34.38	03:58:35:24	5.543	V2681-04
 	transect	Porifera	 	2687	 	 	 	1812714	 	2005-07-13 20:54:26.0	Ventana	 	04:18:56:03	 	V2687-05
 	transect	Henricia sanguinolenta	 	2687	 	 	 	1812534	 	2005-07-13 20:44:22.0	Ventana	 	04:08:52:15	 	V2687-05
 	transect	Ceriantharia sp. 2	999.7	2669	 	36.73142	-122.23701	1687438	0.44	2005-05-25 19:06:41.0	Ventana	34.52	01:28:40:02	3.942	V2669-02
 	transect	Sebastolobus	 	2687	 	 	 	1810472	 	2005-07-13 19:19:23.0	Ventana	 	02:45:07:02	 	V2687-03
 	descend	Hastigerinella digitata	283.52	2681	 	36.69857	-122.05369	1713617	1.34	2005-07-07 17:17:15.2	Ventana	34.223	00:48:23:11	7.637	V2681-01
 	transect	Brisaster	602.19	2680	 	36.790905	-122.23286	1806818	0.36	2005-06-27 20:23:40.0	Ventana	34.38	03:02:16:14	5.587	V2680-03
 	transect	Mediaster	 	2687	 	 	 	1807344	 	2005-07-13 17:07:33.0	Ventana	 	00:34:27:06	 	V2687-01
 	ascend	Solmaris	572.66	2683	 	36.70462	-122.050644	1757964	0.35	2005-07-11 21:13:17.0	Ventana	34.37	04:46:09:12	5.803	V2683-05
 	transect	Sebastes diploproa	 	2687	 	 	 	1811178	 	2005-07-13 19:59:42.0	Ventana	 	03:24:41:21	 	V2687-04
 	transect	Euphausia	200.44	2681	 	36.69828	-122.0533	2490791	1.73	2005-07-07 17:08:51.0	Ventana	34.193	00:40:00:00	8.321	V2681-01HD
 	descend	Sergestes similis	239.09	2676	 	36.8051	-122.0318	1676202	1.5	2005-06-14 16:16:48.0	Ventana	34.211	00:00:58:04	7.929	V2676-01
 	transect	Phyllospadix	198.04	2696	 	36.8036	-122.1242	1813240	1.54	2005-08-01 17:24:41.0	Ventana	34.2	00:52:58:18	8.611	V2696-01
 	descend	Chaetognatha	195.37	2683	 	36.70107	-122.05098	1756372	1.68	2005-07-11 16:46:17.0	Ventana	34.198	00:33:58:00	8.427	V2683-01
 	transect	Phyllospadix	798.28	2674	 	36.751682	-122.21346	1801275	0.35	2005-06-08 18:34:44.0	Ventana	34.488	01:18:48:18	4.353	V2674-02
 	transect	Glyptocephalus zachirus	399.69	2687	 	36.78927	-122.124626	1809586	1.17	2005-07-13 18:21:58.0	Ventana	34.239	01:48:17:26	7.342	V2687-02
 	transect	Sergestes similis	300.44	2681	 	36.698418	-122.05357	2491944	1.25	2005-07-07 17:19:56.0	Ventana	34.234	00:51:04:16	7.43	V2681-01HD
 	transect	Phyllospadix	199.6	2696	 	36.804302	-122.12618	1813420	1.52	2005-08-01 17:44:50.0	Ventana	34.208	01:12:43:14	8.661	V2696-02
 	descend	Chuniphyes	898.68	2683	 	36.70328	-122.048325	1757258	0.37	2005-07-11 18:32:07.0	Ventana	34.495	02:12:30:24	4.267	V2683-03
 	transect	Mesomyaria	1000.06	2669	 	36.730953	-122.23259	1683784	0.45	2005-05-25 18:34:21.0	Ventana	34.521	00:56:46:27	3.912	V2669-01
 	ascend	Cydippida	258.17	2681	 	36.697838	-122.05522	1719490	 	2005-07-07 21:29:59.0	Ventana	 	05:07:18:25	 	V2681-05
 	transect	Brisaster	999.95	2669	 	36.732613	-122.250534	1736998	0.41	2005-05-25 20:36:39.0	Ventana	34.508	02:58:08:15	4.073	V2669-03
 	descend	Aegina	675.33	2682	 	36.69866	-122.05995	1721409	0.28	2005-07-08 18:12:15.0	Ventana	34.412	02:05:21:00	5.189	V2682-03
 	descend	Appendicularia	553.4	2683	 	36.701725	-122.04916	1756958	0.45	2005-07-11 17:44:45.0	Ventana	34.339	01:28:51:06	6.065	V2683-02
 	cruise	Pleuronectiformes	999.0	2679	 	36.68986	-122.1656	1824356	0.42	2005-06-16 17:32:06.0	Ventana	34.512	00:03:28:20	4.119	V2679-01
 	transect	Mesomyaria	1000.01	2669	 	36.730957	-122.23381	1683964	0.45	2005-05-25 18:40:32.0	Ventana	34.523	01:02:33:07	3.913	V2669-02
 	transect	Psolus squamatus	399.87	2687	 	36.788094	-122.12162	1809203	1.13	2005-07-13 17:37:08.0	Ventana	34.243	01:03:30:27	7.262	V2687-02
 	transect	Lycodes cortezianus	200.38	2696	 	36.80511	-122.12793	1813563	1.5	2005-08-01 18:00:03.0	Ventana	34.212	01:27:55:13	8.672	V2696-02
 	transect	phialidium	901.06	2681	 	36.69625	-122.05229	2498313	0.39	2005-07-07 19:09:55.0	Ventana	34.505	02:39:37:07	4.172	V2681-03HD
 	transect	Mesomyaria	1000.12	2669	 	36.731045	-122.23967	1689184	0.41	2005-05-25 19:25:42.0	Ventana	34.51	01:47:40:13	4.061	V2669-02
 	transect	Mesomyaria	1000.13	2669	 	36.73253	-122.25019	1736915	0.41	2005-05-25 20:34:18.0	Ventana	34.51	02:55:47:05	4.068	V2669-03
 	ascend	Calycophorae	495.51	2681	 	36.69895	-122.05424	1717755	0.51	2005-07-07 20:34:48.323	Ventana	34.328	04:03:48:22	6.15	V2681-04
 	ascend	Appendicularia	501.47	2682	 	36.698345	-122.06323	1723681	0.49	2005-07-08 21:13:46.0	Ventana	34.334	05:05:27:04	6.15	V2682-06
 	ascend	Appendicularia	991.21	2681	 	36.69678	-122.05315	1716565	0.45	2005-07-07 19:33:32.433	Ventana	34.524	03:03:13:13	3.946	V2681-03
 	descend	Appendicularia	144.72	2683	 	36.700577	-122.051544	1756252	1.71	2005-07-11 16:20:07.0	Ventana	34.158	00:07:49:21	8.956	V2683-01
 	transect	Mesomyaria	1000.04	2669	 	36.7306	-122.229225	1651063	0.45	2005-05-25 18:08:19.0	Ventana	34.523	00:30:46:26	3.906	V2669-01
 	descend	Chaetognatha	398.59	2682	 	36.6983	-122.059875	1720703	0.86	2005-07-08 17:37:35.0	Ventana	34.255	01:31:05:01	6.703	V2682-02
 	transect	Sebastolobus altivelis	800.9	2674	 	36.75256	-122.201706	1799093	0.34	2005-06-08 17:37:01.0	Ventana	34.479	00:21:35:08	4.445	V2674-01
 	ascend	Appendicularia	700.86	2681	 	36.69874	-122.054886	1717594	0.27	2005-07-07 20:20:44.05	Ventana	34.42	03:49:45:05	5.091	V2681-04
 	ascend	Aegina	1173.33	2682	 	36.69828	-122.057495	1722461	0.65	2005-07-08 19:53:22.0	Ventana	34.567	03:45:57:01	3.44	V2682-04
 	cruise	Eptatretus	610.92	2688	 	36.795864	-122.0199	1677362	0.45	2005-07-14 16:37:30.0	Ventana	34.384	00:23:50:16	5.531	V2688-01
 	transect	Halipteris californica	598.29	2680	 	36.781418	-122.226494	1804989	0.36	2005-06-27 18:36:23.0	Ventana	34.376	01:15:28:16	5.598	V2680-02
 	transect	Medusae	500.54	2681	 	36.697395	-122.0531	2493439	0.44	2005-07-07 17:57:22.0	Ventana	34.346	01:27:45:17	6.018	V2681-02HD
 	ascend	Chaetognatha	258.17	2681	 	36.697838	-122.05522	1719513	 	2005-07-07 21:29:59.0	Ventana	 	05:09:26:08	 	V2681-05
 	transect	Phyllospadix	 	2687	 	 	 	1811828	 	2005-07-13 20:26:35.0	Ventana	 	03:51:33:20	 	V2687-04
 	transect	Poeobius meseres	400.73	2681	 	36.69709	-122.05271	2493093	0.79	2005-07-07 17:46:40.0	Ventana	34.278	01:17:04:07	6.661	V2681-02HD
 	ascend	Appendicularia	336.88	2681	 	36.699387	-122.05526	1718101	1.14	2005-07-07 20:53:50.933	Ventana	34.245	04:22:11:08	7.281	V2681-05
 	transect	Calycophorae	200.42	2681	 	36.69828	-122.05329	2490145	1.7	2005-07-07 17:05:10.0	Ventana	34.197	00:36:18:16	8.358	V2681-01HD
 	transect	Umbellula lindahli	599.6	2680	 	36.777496	-122.22256	1804283	0.36	2005-06-27 17:47:04.0	Ventana	34.379	00:27:11:14	5.585	V2680-01
 	transect	Appendicularia	600.58	2681	 	36.69694	-122.05267	2493799	0.3	2005-07-07 18:24:24.0	Ventana	34.388	01:54:45:24	5.477	V2681-02HD
 	descend	Appendicularia	384.02	2683	 	36.701458	-122.04978	1756612	1.02	2005-07-11 16:58:25.0	Ventana	34.253	00:46:04:05	6.983	V2683-01
 	descend	physical object	598.69	2677	http://search.mbari.org/ARCHIVE/frameGrabs/Ventana/images/2677/00_01_10_05.jpg	36.746487	-122.052155	20008777	0.4	2005-06-15 16:45:53.0	Ventana	34.394	00:01:10:05	5.447	V2677-01
 	transect	Mediaster	400.26	2687	 	36.788986	-122.123825	1809503	1.17	2005-07-13 18:09:40.0	Ventana	34.238	01:36:00:16	7.353	V2687-02
 	cruise	Osteichthyes	94.2	2688	 	36.814766	-122.0171	1679443	1.94	2005-07-14 20:52:41.0	Ventana	34.098	04:36:56:01	8.929	V2688-05
 	transect	Rathbunaster californicus	197.71	2696	 	36.80346	-122.12392	1813217	1.54	2005-08-01 17:21:18.0	Ventana	34.201	00:49:35:25	8.611	V2696-01
 	transect	molt	100.5	2681	 	36.69962	-122.05416	2489785	2.13	2005-07-07 16:50:35.0	Ventana	34.067	00:21:44:04	9.16	V2681-01HD
 	transect	Mesomyaria	997.45	2669	 	36.730682	-122.22752	1649167	0.45	2005-05-25 17:57:31.0	Ventana	34.521	00:20:00:08	3.909	V2669-01
 	transect	Mesomyaria	798.51	2674	 	36.751556	-122.21413	1801335	0.35	2005-06-08 18:39:08.0	Ventana	34.488	01:23:12:04	4.339	V2674-02
 	descend	Chaetognatha	940.16	2683	 	36.703762	-122.0486	1757318	0.4	2005-07-11 19:08:38.0	Ventana	34.508	02:49:00:27	4.125	V2683-03
 	transect	Sergestes similis	300.44	2681	 	36.698135	-122.05345	2492027	1.24	2005-07-07 17:21:01.0	Ventana	34.233	00:52:08:10	7.409	V2681-01HD
 	transect	Funiculina	802.03	2674	http://search.mbari.org/ARCHIVE/frameGrabs/Ventana/images/2674/01_06_58_19.jpg	36.751797	-122.21068	1801035	0.35	2005-06-08 18:22:54.0	Ventana	34.489	01:06:58:19	4.322	V2674-02
 	transect	Pennatulacea sp.1	600.87	2680	 	36.785942	-122.230835	1805849	0.36	2005-06-27 19:33:25.0	Ventana	34.377	02:12:04:16	5.598	V2680-03
 	stationary	Merluccius productus	502.38	2694	 	36.784622	-122.20043	1676656	0.77	2005-07-27 20:21:30.0	Ventana	34.298	02:53:38:11	6.464	V2694-03
 	descend	Calycophorae	872.41	2682	 	36.6983	-122.05943	1721755	0.33	2005-07-08 18:49:33.0	Ventana	34.489	02:42:36:07	4.358	V2682-03
 	transect	Allocentrotus fragilis	 	2687	 	 	 	1811261	 	2005-07-13 20:05:30.0	Ventana	 	03:30:29:27	 	V2687-04
 	cruise	Anoplopoma fimbria	432.21	2688	 	36.80508	-122.01883	1677685	0.93	2005-07-14 17:44:17.0	Ventana	34.265	01:30:00:17	6.949	V2688-02
 	transect	Phyllospadix	999.77	2669	http://search.mbari.org/ARCHIVE/frameGrabs/Ventana/images/2669/02_14_12_12.jpg	36.731773	-122.24447	1734343	0.4	2005-05-25 19:52:41.0	Ventana	34.508	02:14:12:12	4.075	V2669-03
 	ascend	Appendicularia	359.55	2693	 	36.694054	-122.06103	1758884	1.24	2005-07-25 21:03:04.0	Ventana	34.237	03:27:37:25	7.346	V2693-04
 	cruise	rockwall	102.51	2676	http://search.mbari.org/ARCHIVE/frameGrabs/Ventana/images/2676/02_27_36_03.jpg	36.808872	-122.03591	1677062	1.95	2005-06-14 18:48:52.0	Ventana	34.149	02:27:36:03	8.483	V2676-03
 	transect	Mesomyaria	999.82	2669	 	36.73129	-122.23814	1688824	0.43	2005-05-25 19:15:51.0	Ventana	34.522	01:37:49:16	3.958	V2669-02
 	transect	Mesomyaria	998.46	2669	 	36.732906	-122.252075	1737321	0.4	2005-05-25 20:45:38.0	Ventana	34.509	03:06:26:01	4.083	V2669-04
 	descend	Appendicularia	192.41	2693	 	36.696083	-122.05817	1758287	1.79	2005-07-25 18:14:39.0	Ventana	34.186	00:55:09:28	8.907	V2693-01
 	transect	Psolus squamatus	 	2687	 	 	 	1808797	 	2005-07-13 17:29:41.0	Ventana	 	00:56:33:19	 	V2687-01
 	transect	Mesomyaria	999.94	2669	 	36.731747	-122.244354	1734283	0.4	2005-05-25 19:52:04.0	Ventana	34.509	02:13:35:01	4.083	V2669-03
 	cruise	Sebastolobus	611.38	2688	 	36.79512	-122.01901	1677325	0.44	2005-07-14 16:32:50.0	Ventana	34.391	00:19:10:18	5.463	V2688-01
 	transect	Chionoecetes tanneri	802.33	2674	 	36.751877	-122.209984	1800975	0.36	2005-06-08 18:19:56.0	Ventana	34.492	01:04:00:27	4.32	V2674-02
 	transect	Lycodapus	599.79	2680	 	36.77804	-122.2232	1804343	0.36	2005-06-27 17:53:30.0	Ventana	34.377	00:33:37:05	5.591	V2680-01
 	transect	Mesomyaria	997.53	2669	 	36.73062	-122.227	1649084	0.45	2005-05-25 17:54:02.0	Ventana	34.521	00:16:31:04	3.909	V2669-01
 	ascend	Appendicularia	597.3	2682	 	36.698742	-122.06098	1723490	0.35	2005-07-08 20:50:01.0	Ventana	34.374	04:42:07:29	5.646	V2682-05
 	transect	Laminariales	802.05	2674	 	36.752254	-122.20683	1799983	0.37	2005-06-08 18:03:59.0	Ventana	34.49	00:48:31:00	4.326	V2674-01
 	transect	Gastropoda sp.2	999.89	2669	 	36.730923	-122.23145	1695080	0.45	2005-05-25 18:27:05.0	Ventana	34.521	00:49:30:23	3.919	V2669-01
 	transect	Mesomyaria	798.94	2674	 	36.751404	-122.21493	1801395	0.35	2005-06-08 18:43:46.0	Ventana	34.49	01:27:49:22	4.336	V2674-02
 	transect	Mesomyaria	999.46	2669	 	36.730965	-122.23163	1683664	0.45	2005-05-25 18:28:15.0	Ventana	34.522	00:50:41:05	3.913	V2669-01
 	transect	Ceriantharia sp. 2	 	2669	 	 	 	1737561	 	2005-05-25 13:51:29.0	Ventana	 	03:12:17:10	 	V2669-04
 	transect	Appendicularia	800.89	2681	 	36.69645	-122.05246	2498253	0.31	2005-07-07 19:00:26.0	Ventana	34.474	02:30:07:11	4.503	V2681-03HD
 	transect	molt	100.49	2681	 	36.699078	-122.05381	2489845	2.13	2005-07-07 16:51:46.0	Ventana	34.069	00:22:55:10	9.146	V2681-01HD
 	descend	Bathocyroe	716.6	2681	 	36.694958	-122.05061	1716219	0.28	2005-07-07 18:49:14.0	Ventana	34.436	02:18:57:22	4.892	V2681-03
 	cruise	Chionoecetes tanneri	1223.49	2683	 	36.706078	-122.04777	1757581	0.73	2005-07-11 19:59:37.0	Ventana	34.575	03:34:01:09	3.334	V2683-04
 	ascend	Aegina	439.76	2683	 	36.704205	-122.05058	1758024	0.8	2005-07-11 21:18:39.0	Ventana	34.281	04:51:30:07	6.719	V2683-05
 	transect	Phyllospadix	1000.47	2669	 	36.730938	-122.23364	1683927	0.45	2005-05-25 18:39:50.0	Ventana	34.522	01:01:51:03	3.914	V2669-02
 	starttransect	physical object	 	2687	 	 	 	1806961	 	2005-07-13 16:51:03.0	Ventana	 	00:17:58:05	 	V2687-01
 	transect	Gastropoda sp.2	1000.09	2669	 	36.731243	-122.238335	1694720	0.43	2005-05-25 19:17:28.0	Ventana	34.516	01:39:25:27	3.98	V2669-02
 	transect	Mediaster	 	2687	 	 	 	1811321	 	2005-07-13 20:07:05.0	Ventana	 	03:32:05:03	 	V2687-04
 	transect	Mesomyaria	1000.61	2669	 	36.73207	-122.247734	1736149	0.4	2005-05-25 20:16:54.0	Ventana	34.508	02:38:23:15	4.086	V2669-03
 	transect	Nanomia bijuga	400.77	2681	 	36.697445	-122.053116	2493153	0.79	2005-07-07 17:48:09.0	Ventana	34.277	01:18:32:14	6.662	V2681-02HD
 	transect	Corallimorphus pilatus	 	2687	 	 	 	1807667	 	2005-07-13 17:21:54.0	Ventana	 	00:48:47:00	 	V2687-01
 	cruise	Lycodapus	1209.21	2683	 	36.70691	-122.04762	1757664	0.72	2005-07-11 20:14:14.0	Ventana	34.575	03:48:35:19	3.349	V2683-04
 	transect	Ophiuroidea	999.42	2669	 	36.731194	-122.23569	1684370	0.44	2005-05-25 18:55:13.0	Ventana	34.52	01:17:13:01	3.935	V2669-02
 	transect	Mesomyaria	1000.25	2669	 	36.732517	-122.25014	1736855	0.41	2005-05-25 20:33:51.0	Ventana	34.509	02:55:18:02	4.067	V2669-03
 	transect	Phyllospadix	800.0	2674	 	36.752483	-122.20358	1799356	0.35	2005-06-08 17:46:55.0	Ventana	34.48	00:31:28:11	4.385	V2674-01
 	descend	Dosidicus gigas	372.48	2681	 	36.69556	-122.05122	1715070	0.97	2005-07-07 17:32:21.9	Ventana	34.261	01:02:45:17	7.011	V2681-02
 	transect	Phyllospadix	598.93	2680	 	36.78032	-122.2253	1804629	0.35	2005-06-27 18:21:14.0	Ventana	34.38	01:01:19:26	5.565	V2680-01
 	transect	Ceriantharia sp. 1	801.66	2674	 	36.750904	-122.21968	1803637	0.35	2005-06-08 19:05:13.0	Ventana	34.493	01:49:15:16	4.365	V2674-02
 	transect	Stomphia	801.25	2674	 	36.752174	-122.20799	1800689	0.35	2005-06-08 18:09:42.0	Ventana	34.489	00:54:13:14	4.332	V2674-01
 	ascend	Calycophorae	376.74	2681	 	36.699356	-122.05476	1718018	0.94	2005-07-07 20:50:02.533	Ventana	34.268	04:18:24:03	7.008	V2681-05
 	cruise	sand	102.59	2676	http://search.mbari.org/ARCHIVE/frameGrabs/Ventana/images/2676/01_48_41_05.jpg	36.809834	-122.032875	1676919	1.85	2005-06-14 18:09:00.0	Ventana	34.148	01:48:41:05	8.476	V2676-02
 	transect	Microstomus pacificus	 	2687	 	 	 	1812594	 	2005-07-13 20:46:34.0	Ventana	 	04:11:04:18	 	V2687-05
 	ascend	Appendicularia	880.19	2681	 	36.698273	-122.05522	1717331	0.36	2005-07-07 19:51:26.333	Ventana	34.507	03:20:28:28	4.266	V2681-04
 	descend	Chuniphyes	782.38	2682	 	36.698376	-122.059746	1721672	0.32	2005-07-08 18:34:28.0	Ventana	34.464	02:27:31:23	4.652	V2682-03
 	transect	Mesomyaria	999.43	2669	 	36.73102	-122.2323	1683724	0.45	2005-05-25 18:31:22.0	Ventana	34.522	00:53:48:22	3.919	V2669-01
 	descend	Calycophorae	281.35	2693	 	36.697933	-122.06137	1758430	1.41	2005-07-25 19:36:07.0	Ventana	34.235	02:15:43:16	8.009	V2693-03
 	transect	Psolus squamatus	 	2687	 	 	 	1808940	 	2005-07-13 17:32:25.0	Ventana	 	00:59:17:12	 	V2687-01
 	ascend	Siphonophora	262.85	2681	 	36.699013	-122.055824	1718724	1.42	2005-07-07 21:16:56.967	Ventana	34.227	04:45:15:26	7.957	V2681-05
 	transect	Phyllospadix	800.29	2674	 	36.752613	-122.20034	1774097	0.29	2005-06-08 17:29:36.0	Ventana	34.462	00:14:10:02	4.649	V2674-01
 	transect	Phyllospadix	198.92	2696	 	36.80376	-122.12489	1813300	1.53	2005-08-01 17:31:53.0	Ventana	34.207	01:00:10:23	8.628	V2696-01
 	ascend	Crustacea	1170.16	2683	 	36.70706	-122.0481	1757724	0.7	2005-07-11 20:27:40.0	Ventana	34.569	04:02:00:28	3.406	V2683-04
 	descend	Appendicularia	1004.19	2683	 	36.704098	-122.04979	1757378	0.44	2005-07-11 19:16:36.0	Ventana	34.521	02:56:57:12	4.0	V2683-03
 	cruise	mud	93.68	2688	 	36.81614	-122.01653	1679383	1.96	2005-07-14 20:17:30.0	Ventana	34.091	04:02:14:20	8.926	V2688-04
 	ascend	Mysidae	642.97	2683	 	36.70514	-122.05003	1757927	0.27	2005-07-11 21:09:36.0	Ventana	34.408	04:42:29:00	5.26	V2683-05
 	cruise	shell hash	99.33	2676	http://search.mbari.org/ARCHIVE/frameGrabs/Ventana/images/2676/02_36_37_29.jpg	36.80836	-122.03762	1677122	1.97	2005-06-14 18:57:53.0	Ventana	34.15	02:36:37:29	8.475	V2676-03
 	descend	Appendicularia	602.53	2683	 	36.701942	-122.04904	1757018	0.35	2005-07-11 17:49:22.0	Ventana	34.369	01:33:28:17	5.773	V2683-02
 	cruise	Appendicularia	498.58	2695	 	36.784096	-122.19985	1824416	0.89	2005-07-28 17:02:50.0	Ventana	34.265	00:09:12:02	6.716	V2695-01
 	transect	Mesomyaria	998.99	2669	 	36.731125	-122.23401	1684024	0.45	2005-05-25 18:42:12.0	Ventana	34.523	01:04:12:25	3.913	V2669-02
 	descend	Tomopteris	170.94	2693	 	36.696182	-122.05794	1758227	1.95	2005-07-25 18:00:55.0	Ventana	34.14	00:41:26:16	8.904	V2693-01
 	ascend	Euphausiacea	258.17	2681	 	36.697838	-122.05522	1719573	 	2005-07-07 21:29:59.0	Ventana	 	05:15:07:17	 	V2681-05
 	transect	Sebastolobus altivelis	800.62	2674	 	36.75257	-122.202095	1799153	0.34	2005-06-08 17:39:09.0	Ventana	34.482	00:23:42:29	4.44	V2674-01
 	transect	Mesomyaria	999.36	2669	 	36.73076	-122.22951	1651123	0.45	2005-05-25 18:10:39.0	Ventana	34.523	00:33:06:04	3.906	V2669-01
 	descend	Aegina	853.29	2681	 	36.696964	-122.0532	1716482	0.33	2005-07-07 19:04:35.4	Ventana	34.491	02:34:17:21	4.34	V2681-03
 	descend	Appendicularia	444.26	2682	 	36.698322	-122.05967	1720763	0.59	2005-07-08 17:47:52.0	Ventana	34.31	01:41:22:15	6.353	V2682-02
 	cruise	Phyllospadix	471.88	2676	 	36.802326	-122.02936	1676262	0.56	2005-06-14 16:32:46.0	Ventana	34.338	00:16:55:05	6.147	V2676-01
 	transect	Ophiuroidea	999.07	2669	 	36.731388	-122.23609	1684573	0.44	2005-05-25 18:58:13.0	Ventana	34.522	01:20:13:11	3.94	V2669-02
 	transect	Mediaster	 	2687	 	 	 	1811745	 	2005-07-13 20:23:56.0	Ventana	 	03:48:55:02	 	V2687-04
 	descend	Haliscera	303.21	2682	 	36.69919	-122.06056	1720136	1.17	2005-07-08 16:55:52.0	Ventana	34.232	00:49:54:07	7.333	V2682-01
 	transect	Phyllospadix	399.49	2687	 	36.789368	-122.125015	1809646	1.16	2005-07-13 18:29:12.0	Ventana	34.239	01:55:31:11	7.325	V2687-02
 	descend	Chaetognatha	370.99	2693	 	36.696182	-122.06091	1758633	1.2	2005-07-25 20:22:25.0	Ventana	34.232	03:01:59:11	7.147	V2693-03
 	transect	Ophiuroidea	1000.01	2669	 	36.731163	-122.240364	1689244	0.41	2005-05-25 19:29:41.0	Ventana	34.51	01:51:38:25	4.063	V2669-02
 	ascend	Tomopteris	882.2	2682	 	36.698425	-122.05843	1723227	0.33	2005-07-08 20:17:31.0	Ventana	34.489	04:09:39:25	4.333	V2682-05
 	transect	Phyllospadix	 	2687	 	 	 	1812451	 	2005-07-13 20:39:16.0	Ventana	 	04:04:13:27	 	V2687-04
 	descend	Appendicularia	503.27	2683	 	36.701557	-122.04935	1756815	0.68	2005-07-11 17:27:58.0	Ventana	34.305	01:12:04:26	6.466	V2683-02
 	cruise	Sebastolobus	1016.69	2689	http://search.mbari.org/ARCHIVE/frameGrabs/Ventana/images/2689/00_15_50_05.jpg	36.77158	-122.08295	1669660	0.5	2005-07-18 16:52:48.0	Ventana	34.532	00:15:50:05	3.844	V2689-01
 	cruise	Rathbunaster californicus	393.66	2676	 	36.804207	-122.02919	1676465	0.83	2005-06-14 16:44:35.0	Ventana	34.291	00:28:43:11	6.853	V2676-01
 	transect	Mesomyaria	801.33	2674	 	36.750988	-122.21838	1803577	0.35	2005-06-08 18:59:52.0	Ventana	34.491	01:43:55:01	4.343	V2674-02
 	transect	Phyllospadix	203.16	2696	 	36.805256	-122.12819	1813660	1.48	2005-08-01 18:12:27.0	Ventana	34.212	01:40:18:21	8.609	V2696-02
 	transect	molt	100.52	2681	 	36.69983	-122.05429	2489642	2.13	2005-07-07 16:46:54.0	Ventana	34.069	00:18:04:08	9.144	V2681-01HD
 	transect	Phyllospadix	800.35	2674	 	36.752495	-122.203156	1799296	0.35	2005-06-08 17:44:24.0	Ventana	34.494	00:28:57:28	4.389	V2674-01
 	transect	Mediaster	 	2687	 	 	 	1807607	 	2005-07-13 17:17:22.0	Ventana	 	00:44:14:19	 	V2687-01
 	descend	Bathocyroe	998.91	2682	 	36.69832	-122.05923	1722018	0.44	2005-07-08 18:58:39.0	Ventana	34.521	02:51:41:29	3.983	V2682-03
 	transect	Melanostigma pammelas	700.59	2681	 	36.695255	-122.05102	2497953	0.28	2005-07-07 18:47:21.0	Ventana	34.431	02:17:02:07	5.0	V2681-03HD
 	cruise	Rathbunaster californicus	102.84	2688	 	36.814167	-122.01734	1679240	1.98	2005-07-14 19:34:56.0	Ventana	34.089	03:19:43:14	8.911	V2688-04
 	transect	Calliostoma platinum	 	2687	 	 	 	1810006	 	2005-07-13 18:50:21.0	Ventana	 	02:16:07:06	 	V2687-03
 	transect	Parastichopus leukothele	200.47	2696	 	36.804707	-122.12715	1813503	1.51	2005-08-01 17:54:29.0	Ventana	34.211	01:22:21:24	8.668	V2696-02
 	transect	Halicreas	901.0	2681	 	36.69542	-122.05122	2498456	0.39	2005-07-07 19:13:52.0	Ventana	34.505	02:43:34:00	4.171	V2681-03HD
 	cruise	Pleuronectiformes	604.65	2688	 	36.793495	-122.01878	1677265	0.49	2005-07-14 16:24:07.0	Ventana	34.365	00:10:27:27	5.717	V2688-01
 	transect	Ceriantharia sp. 2	997.62	2669	 	36.730618	-122.22697	1683318	0.45	2005-05-25 17:53:39.0	Ventana	34.522	00:16:07:17	3.91	V2669-01
 	transect	Mesomyaria	1000.09	2669	 	36.731113	-122.238686	1688884	0.42	2005-05-25 19:19:19.0	Ventana	34.51	01:41:18:02	3.988	V2669-02
 	starttransect	color bars	600.61	2681	 	36.69571	-122.05114	1715919	0.3	2005-07-07 18:18:23.167	Ventana	34.387	01:48:44:00	5.495	V2681-02
 	transect	Psolus squamatus	399.84	2687	 	36.788048	-122.121544	1809143	1.13	2005-07-13 17:36:10.0	Ventana	34.242	01:02:32:10	7.271	V2687-02
 	transect	Appendicularia	1001.0	2681	 	36.695953	-122.05215	2498659	0.47	2005-07-07 19:27:41.0	Ventana	34.532	02:57:21:04	3.869	V2681-03HD
 	transect	Phyllospadix	998.75	2669	 	36.73285	-122.251945	1737261	0.4	2005-05-25 20:44:38.0	Ventana	34.509	03:05:26:17	4.076	V2669-04
 	transect	Euplexaura	 	2687	 	 	 	1810209	 	2005-07-13 19:09:23.0	Ventana	 	02:35:07:12	 	V2687-03
 	transect	Rathbunaster californicus	204.09	2696	 	36.8076	-122.13123	1813863	1.46	2005-08-01 18:43:50.0	Ventana	34.226	02:10:55:07	8.653	V2696-03
 	transect	Stomphia	998.42	2669	 	36.731117	-122.23106	1683521	0.45	2005-05-25 18:22:56.0	Ventana	34.521	00:45:22:20	3.922	V2669-01
 	transect	Psolus squamatus	 	2687	 	 	 	1811542	 	2005-07-13 20:15:20.0	Ventana	 	03:40:19:05	 	V2687-04
 	cruise	Asteroidea	269.38	2676	 	36.80533	-122.02942	1676716	1.52	2005-06-14 17:34:41.0	Ventana	34.208	01:14:25:12	7.966	V2676-02
 	ascend	Aegina	748.2	2681	 	36.698742	-122.055756	1717534	0.27	2005-07-07 20:14:19.567	Ventana	34.447	03:43:20:22	4.815	V2681-04
 	transect	Psolus squamatus	 	2687	 	 	 	1808594	 	2005-07-13 17:24:36.0	Ventana	 	00:51:28:26	 	V2687-01
 	transect	Sebastolobus	 	2687	 	 	 	1809849	 	2005-07-13 18:46:09.0	Ventana	 	02:11:55:00	 	V2687-03
 	cruise	Anthomastus ritteri	452.87	2688	 	36.80338	-122.01809	1677625	0.9	2005-07-14 17:35:21.767	Ventana	34.268	01:21:05:12	6.893	V2688-02
 	descend	Nanomia	172.83	2682	 	36.699886	-122.06075	1719933	2.18	2005-07-08 16:19:44.0	Ventana	34.13	00:13:48:11	8.289	V2682-01
 	transect	Psolus squamatus	 	2687	 	 	 	1810915	 	2005-07-13 19:42:36.0	Ventana	 	03:07:37:29	 	V2687-04
 	transect	Appendicularia	200.36	2681	 	36.69829	-122.05333	2491054	1.69	2005-07-07 17:11:14.0	Ventana	34.196	00:42:21:05	8.332	V2681-01HD
 	ascend	Aegina	602.01	2682	 	36.698853	-122.06004	1723430	0.34	2005-07-08 20:39:46.0	Ventana	34.379	04:31:54:02	5.573	V2682-05
 	transect	Psolus squamatus	399.88	2687	 	36.78811	-122.12173	1809300	1.14	2005-07-13 17:38:52.0	Ventana	34.238	01:05:14:05	7.284	V2687-02
 	ascend	Nanomia	184.4	2693	 	36.690613	-122.06291	1759230	1.93	2005-07-25 21:29:25.0	Ventana	34.138	03:53:57:18	8.863	V2693-04
 	transect	Mediaster	 	2687	 	 	 	1812248	 	2005-07-13 20:29:54.0	Ventana	 	03:54:52:08	 	V2687-04
 	transect	Ophiuroidea	998.27	2669	 	36.73301	-122.2526	1737464	0.4	2005-05-25 20:48:33.0	Ventana	34.509	03:09:21:22	4.074	V2669-04
 	descend	Nanomia	153.22	2693	 	36.696297	-122.05774	1758190	1.94	2005-07-25 17:56:59.0	Ventana	34.114	00:37:30:25	8.979	V2693-01
 	transect	Mesomyaria	800.61	2674	 	36.752033	-122.20904	1800855	0.35	2005-06-08 18:14:44.0	Ventana	34.488	00:59:15:20	4.335	V2674-01
 	transect	Pennatulacea sp.1	602.43	2680	 	36.79048	-122.232735	1806781	0.35	2005-06-27 20:19:59.0	Ventana	34.378	02:58:35:21	5.59	V2680-03
 	transect	Phyllospadix	800.65	2674	 	36.75243	-122.20467	1799642	0.36	2005-06-08 17:53:08.0	Ventana	34.488	00:37:41:04	4.355	V2674-01
 	transect	Sergestes similis	400.79	2681	 	36.695953	-122.05138	2492936	0.79	2005-07-07 17:41:43.0	Ventana	34.277	01:12:07:08	6.662	V2681-02HD
 	cruise	Asteroidea	103.26	2676	 	36.806587	-122.041245	1677159	1.92	2005-06-14 19:15:25.0	Ventana	34.161	02:54:10:12	8.425	V2676-03
 	descend	Nanomia	220.74	2683	 	36.700993	-122.05074	1756409	1.7	2005-07-11 16:48:40.0	Ventana	34.195	00:36:21:14	8.253	V2683-01
 	transect	Porifera sp. 1	 	2687	 	 	 	1812354	 	2005-07-13 20:33:49.0	Ventana	 	03:58:47:05	 	V2687-04
 	transect	Physonectae	500.6	2681	 	36.696526	-122.05211	2493596	0.44	2005-07-07 18:01:01.0	Ventana	34.348	01:31:24:07	6.011	V2681-02HD
 	descend	Chaetognatha	1076.05	2683	 	36.7051	-122.04893	1757438	0.51	2005-07-11 19:27:16.0	Ventana	34.536	03:07:36:18	3.804	V2683-03
 	transect	Psolus squamatus	 	2687	 	 	 	1811141	 	2005-07-13 19:56:29.0	Ventana	 	03:21:29:11	 	V2687-04
 	ascend	Appendicularia	334.6	2693	 	36.692562	-122.06188	1759004	1.27	2005-07-25 21:14:49.0	Ventana	34.238	03:39:22:03	7.474	V2693-04
 	transect	lobata	200.4	2681	 	36.698288	-122.05332	2491017	1.71	2005-07-07 17:10:52.0	Ventana	34.192	00:41:58:13	8.325	V2681-01HD
 	cruise	Porifera	253.48	2688	 	36.80929	-122.02036	1677911	1.53	2005-07-14 18:29:40.0	Ventana	34.193	02:14:55:22	8.207	V2688-03
 	descend	Melanostigma pammelas	540.65	2682	 	36.698612	-122.05977	1720883	0.36	2005-07-08 18:04:07.0	Ventana	34.368	01:57:37:09	5.751	V2682-02
 	starttransect	object	197.48	2696	 	36.802654	-122.12169	1813014	1.52	2005-08-01 16:53:32.0	Ventana	34.205	00:21:51:19	8.564	V2696-01
 	transect	Mesomyaria	999.78	2669	 	36.73176	-122.244064	1734117	0.4	2005-05-25 19:50:45.0	Ventana	34.51	02:12:17:22	4.072	V2669-03
 	transect	Mesomyaria	800.12	2674	 	36.752445	-122.20536	1799780	0.36	2005-06-08 17:56:40.0	Ventana	34.487	00:41:12:25	4.361	V2674-01
 	transect	Mesomyaria	1000.22	2669	 	36.73091	-122.232704	1683807	0.45	2005-05-25 18:35:04.0	Ventana	34.52	00:57:30:16	3.911	V2669-01
 	transect	Phyllospadix	998.21	2669	 	36.732964	-122.25228	1737418	0.4	2005-05-25 20:47:04.0	Ventana	34.508	03:07:53:03	4.076	V2669-04
 	transect	Microstomus pacificus	801.01	2674	 	36.752518	-122.20145	1774203	0.35	2005-06-08 17:35:46.0	Ventana	34.488	00:20:19:14	4.403	V2674-01
 	cruise	Pleuronectiformes	177.05	2676	 	36.807957	-122.030045	1676836	1.65	2005-06-14 17:48:39.0	Ventana	34.193	01:28:22:23	8.155	V2676-02
 	transect	Psolus squamatus	 	2687	 	 	 	1808977	 	2005-07-13 17:32:54.0	Ventana	 	00:59:46:20	 	V2687-01
 	transect	Mesomyaria	601.29	2680	 	36.776848	-122.22212	1804140	0.36	2005-06-27 17:39:04.0	Ventana	34.378	00:19:12:03	5.578	V2680-01
 	transect	Rathbunaster californicus	203.58	2696	 	36.806473	-122.13004	1813766	1.48	2005-08-01 18:28:22.0	Ventana	34.213	01:56:13:05	8.628	V2696-02
 	descend	Nanomia	 	2693	 	 	 	1759433	 	2005-07-25 16:44:42.0	Ventana	 	00:23:16:18	 	V2693-01
 	transect	Phyllospadix	199.63	2696	 	36.803917	-122.1254	1813337	1.51	2005-08-01 17:36:39.0	Ventana	34.206	01:04:33:05	8.645	V2696-02
 	cruise	Asteronyx	514.17	2688	 	36.800858	-122.01881	1677528	0.68	2005-07-14 17:20:56.0	Ventana	34.311	01:06:40:16	6.417	V2688-02
 	transect	Brisaster	998.28	2669	 	36.73118	-122.234505	1684144	0.45	2005-05-25 18:45:49.0	Ventana	34.522	01:07:49:12	3.916	V2669-02
 	transect	Mediaster	 	2687	 	 	 	1810712	 	2005-07-13 19:29:09.0	Ventana	 	02:54:52:04	 	V2687-03
 	transect	Poeobius meseres	1001.08	2681	 	36.69472	-122.050514	2498539	0.47	2005-07-07 19:21:07.0	Ventana	34.532	02:50:48:03	3.867	V2681-03HD
 	transect	Mesomyaria	999.44	2669	 	36.73133	-122.23592	1684467	0.44	2005-05-25 18:57:06.0	Ventana	34.52	01:19:05:22	3.936	V2669-02
 	transect	Mesomyaria	1000.32	2669	 	36.731625	-122.24326	1733794	0.41	2005-05-25 19:46:00.0	Ventana	34.51	02:07:31:09	4.063	V2669-03
 	transect	Mesomyaria	998.84	2669	 	36.73096	-122.230095	1651229	0.45	2005-05-25 18:14:54.0	Ventana	34.522	00:37:21:13	3.912	V2669-01
 	transect	Phyllospadix	800.69	2674	 	36.752506	-122.202896	1799259	0.35	2005-06-08 17:43:00.0	Ventana	34.486	00:27:33:15	4.376	V2674-01
 	transect	molt	100.51	2681	 	36.69983	-122.05429	2489665	2.13	2005-07-07 16:47:23.0	Ventana	34.068	00:18:32:22	9.148	V2681-01HD
 	ascend	Calycophorae	658.24	2682	 	36.698906	-122.0596	1723370	0.29	2005-07-08 20:35:22.0	Ventana	34.403	04:27:30:11	5.28	V2682-05
 	transect	Nanomia bijuga	200.39	2681	 	36.69838	-122.05347	2491400	1.67	2005-07-07 17:14:00.0	Ventana	34.199	00:45:08:28	8.341	V2681-01HD
 	transect	Mesomyaria	799.96	2674	 	36.751766	-122.21213	1801178	0.35	2005-06-08 18:28:37.0	Ventana	34.49	01:12:41:05	4.337	V2674-02
 	transect	Psolus squamatus	 	2687	 	 	 	1808654	 	2005-07-13 17:26:20.0	Ventana	 	00:53:12:19	 	V2687-01
 	transect	Mediaster	 	2687	 	 	 	1810818	 	2005-07-13 19:35:24.0	Ventana	 	03:01:07:11	 	V2687-03
 	transect	Rathbunaster californicus	 	2687	 	 	 	1812737	 	2005-07-13 20:55:26.0	Ventana	 	04:19:56:08	 	V2687-05
 	transect	Sergestes similis	300.41	2681	 	36.697605	-122.05305	2492184	1.23	2005-07-07 17:22:51.0	Ventana	34.234	00:53:57:26	7.403	V2681-01HD
 	transect	Nanomia bijuga	400.73	2681	 	36.697826	-122.05353	2493213	0.79	2005-07-07 17:49:41.0	Ventana	34.278	01:20:04:08	6.66	V2681-02HD
 	ascend	Bathylagus milleri	774.29	2681	 	36.69873	-122.05633	1717474	0.28	2005-07-07 20:07:16.71	Ventana	34.454	03:36:19:10	4.753	V2681-04
 	descend	Chuniphyes	808.02	2683	 	36.702667	-122.04875	1757161	0.36	2005-07-11 18:01:52.0	Ventana	34.466	01:45:57:22	4.552	V2683-02
 	transect	Mesomyaria	1000.33	2669	 	36.73155	-122.242874	1694554	0.4	2005-05-25 19:43:52.0	Ventana	34.508	02:05:49:11	4.097	V2669-02
 	transect	Calycophorae	300.41	2681	 	36.696217	-122.05185	2492553	1.24	2005-07-07 17:27:33.0	Ventana	34.237	00:58:39:27	7.412	V2681-01HD
 	transect	Mesomyaria	999.78	2669	 	36.731056	-122.23894	1689087	0.43	2005-05-25 19:20:56.0	Ventana	34.518	01:42:54:24	3.96	V2669-02
 	ascend	Nanomia	258.17	2681	 	36.697838	-122.05522	1719347	 	2005-07-07 21:29:59.0	Ventana	 	05:01:45:16	 	V2681-05
 	ascend	Copepoda	1153.04	2683	 	36.708035	-122.0489	1757761	0.69	2005-07-11 20:35:40.0	Ventana	34.569	04:10:02:10	3.418	V2683-04
 	transect	Glyptocephalus zachirus	 	2687	 	 	 	1807118	 	2005-07-13 17:00:17.0	Ventana	 	00:27:11:25	 	V2687-01
 	ascend	Aegina	733.78	2682	 	36.698795	-122.059235	1723310	0.28	2005-07-08 20:29:47.0	Ventana	34.437	04:21:54:21	4.902	V2682-05
 	descend	Solmissus	343.72	2693	 	36.697105	-122.05993	1758573	1.29	2005-07-25 19:58:38.0	Ventana	34.227	02:38:13:11	7.561	V2693-03
 	transect	Mesomyaria	999.93	2669	 	36.73259	-122.25079	1737035	0.4	2005-05-25 20:37:55.0	Ventana	34.51	02:59:24:25	4.076	V2669-03
 	descend	Appendicularia	285.16	2682	 	36.699394	-122.06069	1720099	1.22	2005-07-08 16:49:33.0	Ventana	34.218	00:43:35:17	7.515	V2682-01
 	transect	Chorilia longipes	800.15	2674	 	36.751263	-122.215904	1803374	0.35	2005-06-08 18:48:57.0	Ventana	34.489	01:33:00:18	4.36	V2674-02
 	transect	Appendicularia	400.81	2681	 	36.69603	-122.05147	2492950	0.79	2005-07-07 17:42:05.0	Ventana	34.277	01:12:29:00	6.661	V2681-02HD
 	ascend	Appendicularia	604.83	2682	 	36.69862	-122.06173	1723538	0.33	2005-07-08 20:57:49.0	Ventana	34.377	04:49:55:29	5.617	V2682-05
 	transect	Umbellula lindahli	598.57	2680	 	36.780636	-122.225655	1804786	0.35	2005-06-27 18:25:48.0	Ventana	34.378	01:04:55:00	5.567	V2680-02
 	transect	Rathbunaster californicus	 	2687	 	 	 	1811081	 	2005-07-13 19:52:05.0	Ventana	 	03:17:05:26	 	V2687-04
 	ascend	Apolemia	310.55	2693	 	36.69152	-122.062065	1759064	1.31	2005-07-25 21:18:58.0	Ventana	34.237	03:43:30:12	7.632	V2693-04
 	transect	molt	100.54	2681	 	36.69983	-122.05429	2489605	2.13	2005-07-07 16:45:54.0	Ventana	34.067	00:17:02:24	9.149	V2681-01HD
 	cruise	Parastichopus	309.6	2688	 	36.808617	-122.02029	1677851	1.34	2005-07-14 18:12:33.0	Ventana	34.218	01:58:15:13	7.79	V2688-02
 	descend	Cydippida	166.25	2688	 	36.793633	-122.01876	1677219	1.73	2005-07-14 16:03:29.0	Ventana	34.158	00:00:18:28	8.883	V2688-01
 	ascend	Nanomia	201.69	2694	 	36.784595	-122.20039	1676776	1.53	2005-07-27 21:11:15.0	Ventana	34.185	03:42:35:03	8.98	V2694-04
 	transect	Phyllospadix	800.03	2674	 	36.752098	-122.20868	1800795	0.35	2005-06-08 18:12:55.0	Ventana	34.49	00:57:26:29	4.329	V2674-01
 	transect	Rathbunaster californicus	 	2687	 	 	 	1810329	 	2005-07-13 19:15:49.0	Ventana	 	02:41:33:12	 	V2687-03
 	ascend	Chuniphyes	825.45	2681	 	36.69884	-122.05637	1717414	0.31	2005-07-07 19:58:21.2	Ventana	34.481	03:27:23:11	4.44	V2681-04
 	ascend	Euphausiacea	 	2683	 	 	 	1758130	 	2005-07-11 14:30:08.0	Ventana	 	05:02:59:22	 	V2683-05
 	transect	Poeobius meseres	600.6	2681	 	36.696087	-122.05167	2493702	0.3	2005-07-07 18:20:30.0	Ventana	34.388	01:50:53:03	5.49	V2681-02HD
 	ascend	Calycophorae	990.77	2683	 	36.70745	-122.04909	1757821	0.43	2005-07-11 20:51:51.0	Ventana	34.518	04:24:44:22	4.028	V2683-05
 	transect	Calliostoma platinum	 	2687	 	 	 	1808714	 	2005-07-13 17:27:40.0	Ventana	 	00:54:32:24	 	V2687-01
 	ascend	Cydippida	294.42	2681	 	36.69973	-122.05523	1718198	1.33	2005-07-07 20:59:51.41	Ventana	34.226	04:28:12:11	7.66	V2681-05
 	transect	Phyllospadix	800.64	2674	 	36.751144	-122.2172	1803480	0.35	2005-06-08 18:54:40.0	Ventana	34.491	01:38:43:04	4.331	V2674-02
 	transect	Mediaster	 	2687	 	 	 	1812677	 	2005-07-13 20:51:42.0	Ventana	 	04:16:13:00	 	V2687-05
 	descend	Chaetognatha	400.65	2681	 	36.695683	-122.05107	1715250	0.79	2005-07-07 17:39:53.443	Ventana	34.277	01:10:17:04	6.671	V2681-02
 	descend	Crustacea	315.86	2683	 	36.701138	-122.050125	1756515	1.23	2005-07-11 16:54:34.0	Ventana	34.244	00:42:13:16	7.58	V2683-01
 	starttransect	object	805.56	2674	 	36.750423	-122.22169	1803743	0.34	2005-06-08 19:16:31.0	Ventana	34.478	02:00:32:20	4.422	V2674-02
 	transect	Lycodes diapterus	 	2687	 	 	 	1811662	 	2005-07-13 20:20:06.0	Ventana	 	03:45:04:23	 	V2687-04
 	cruise	Megalodicopia hians	348.9	2676	 	36.804714	-122.029015	1676608	1.23	2005-06-14 17:03:42.0	Ventana	34.24	00:47:49:01	7.527	V2676-01
 	transect	Mesomyaria	998.72	2669	http://search.mbari.org/ARCHIVE/frameGrabs/Ventana/images/2669/01_05_24_02.jpg	36.731174	-122.234245	1684084	0.45	2005-05-25 18:43:23.0	Ventana	34.521	01:05:24:02	3.915	V2669-02
 	transect	Ophiuroidea	999.74	2669	 	36.73141	-122.236946	1687032	0.44	2005-05-25 19:05:54.0	Ventana	34.519	01:27:53:26	3.942	V2669-02
 	transect	Ophiuroidea	999.76	2669	 	36.731403	-122.23724	1687475	0.44	2005-05-25 19:08:34.0	Ventana	34.519	01:30:33:08	3.946	V2669-02
 	cruise	Pleuronectiformes	469.26	2688	 	36.802353	-122.01823	1677588	0.83	2005-07-14 17:30:10.0	Ventana	34.279	01:15:54:07	6.742	V2688-02
 	transect	Pennatulacea sp.1	599.41	2680	 	36.77946	-122.22455	1804523	0.36	2005-06-27 18:10:22.0	Ventana	34.377	00:50:28:06	5.605	V2680-01
 	transect	Parastichopus leukothele	198.44	2696	 	36.80368	-122.12464	1813277	1.53	2005-08-01 17:29:44.0	Ventana	34.204	00:58:01:17	8.628	V2696-01
 	transect	Mediaster	 	2687	 	 	 	1807044	 	2005-07-13 16:56:13.0	Ventana	 	00:23:07:04	 	V2687-01
 	descend	Chaetognatha	808.0	2682	 	36.698345	-122.0596	1721695	0.31	2005-07-08 18:39:54.0	Ventana	34.471	02:32:56:24	4.534	V2682-03
 	transect	Psolus squamatus	 	2687	 	 	 	1810126	 	2005-07-13 18:58:42.0	Ventana	 	02:24:27:21	 	V2687-03
 	transect	Sebastes aurora	203.4	2696	http://search.mbari.org/ARCHIVE/frameGrabs/Ventana/images/2696/02_08_06_21.jpg	36.807377	-122.13104	1813826	1.47	2005-08-01 18:41:01.0	Ventana	34.219	02:08:06:21	8.625	V2696-03
 	transect	Neptunea amianta	800.33	2674	 	36.75174	-122.211525	1801118	0.35	2005-06-08 18:26:08.0	Ventana	34.486	01:10:12:09	4.34	V2674-02
 	transect	Appendicularia	300.45	2681	 	36.69784	-122.053246	2492124	1.23	2005-07-07 17:22:03.0	Ventana	34.233	00:53:09:26	7.4	V2681-01HD
 	transect	Chorilia longipes	800.77	2674	http://search.mbari.org/ARCHIVE/frameGrabs/Ventana/images/2674/00_25_25_06.jpg	36.752567	-122.20243	1799199	0.34	2005-06-08 17:40:51.0	Ventana	34.481	00:25:25:06	4.407	V2674-01
 	transect	Gastropoda sp.2	999.97	2669	 	36.731796	-122.24456	1734380	0.4	2005-05-25 19:53:47.0	Ventana	34.506	02:15:16:13	4.08	V2669-03
 	transect	Phyllospadix	802.11	2674	 	36.752308	-122.205765	1799840	0.36	2005-06-08 17:58:49.0	Ventana	34.489	00:43:21:10	4.333	V2674-01
 	transect	Neptunea amianta	799.4	2674	 	36.75165	-122.2131	1801252	0.35	2005-06-08 18:32:08.0	Ventana	34.489	01:16:12:24	4.344	V2674-02
 	transect	Mediaster	 	2687	 	 	 	1807501	 	2005-07-13 17:12:45.0	Ventana	 	00:39:38:22	 	V2687-01
 	transect	Euplexaura	 	2687	 	 	 	1807704	 	2005-07-13 17:23:33.0	Ventana	 	00:50:26:06	 	V2687-01
 	transect	Phyllospadix	799.93	2674	 	36.752518	-122.203735	1799379	0.35	2005-06-08 17:47:35.0	Ventana	34.483	00:32:07:27	4.378	V2674-01
 	transect	Leptomedusae	100.53	2681	 	36.69983	-122.05429	2489545	2.13	2005-07-07 16:44:20.0	Ventana	34.067	00:15:29:07	9.146	V2681-01HD
 	transect	Ceriantharia sp. 1	599.92	2680	 	36.778496	-122.22369	1804403	0.36	2005-06-27 17:59:48.0	Ventana	34.379	00:39:54:18	5.583	V2680-01
 	transect	Mediaster	 	2687	 	 	 	1810652	 	2005-07-13 19:27:02.0	Ventana	 	02:52:45:26	 	V2687-03
 	transect	Gastropoda sp.2	999.25	2669	 	36.731083	-122.23502	1694674	0.45	2005-05-25 18:50:13.0	Ventana	34.522	01:12:13:14	3.92	V2669-02
 	ascend	Cydippida	320.78	2682	 	36.69724	-122.06158	1723741	1.18	2005-07-08 21:25:56.0	Ventana	34.24	05:17:36:16	7.377	V2682-06
 	transect	pseudothecosomata	1001.02	2681	 	36.69531	-122.051254	2498599	0.48	2005-07-07 19:24:06.0	Ventana	34.535	02:53:46:20	3.84	V2681-03HD
 	transect	Ceriantharia sp. 1	800.53	2674	 	36.75197	-122.20951	1800915	0.36	2005-06-08 18:17:25.0	Ventana	34.49	01:01:30:10	4.325	V2674-02
 	transect	Diogenidae	601.98	2680	 	36.791355	-122.232925	1806841	0.36	2005-06-27 20:27:23.0	Ventana	34.379	03:05:59:05	5.587	V2680-03
 	descend	Poeobius meseres	523.0	2683	 	36.70146	-122.04914	1756898	0.59	2005-07-11 17:41:34.0	Ventana	34.324	01:25:40:12	6.308	V2683-02
 	transect	Allocentrotus fragilis	399.86	2687	 	36.78812	-122.12163	1809240	1.13	2005-07-13 17:37:27.0	Ventana	34.243	01:03:49:25	7.255	V2687-02
 	transect	chuniphyes	901.02	2681	 	36.695667	-122.05159	2498419	0.39	2005-07-07 19:12:38.0	Ventana	34.505	02:42:20:12	4.172	V2681-03HD
 	transect	Mesomyaria	800.6	2674	 	36.75105	-122.21794	1803540	0.34	2005-06-08 18:57:58.0	Ventana	34.486	01:42:00:18	4.37	V2674-02
 	transect	Pennatulacea sp.1	598.97	2680	 	36.779957	-122.225006	1804583	0.35	2005-06-27 18:17:03.0	Ventana	34.381	00:57:09:07	5.543	V2680-01
 	transect	Appendicularia	700.63	2681	 	36.695854	-122.05172	2497847	0.28	2005-07-07 18:44:32.0	Ventana	34.435	02:14:13:27	4.945	V2681-03HD
 	ascend	Chaetognatha	370.94	2693	 	36.696896	-122.06031	1758741	1.2	2005-07-25 20:32:54.0	Ventana	34.232	03:12:26:03	7.205	V2693-03
 	transect	Phyllospadix	801.55	2674	 	36.752266	-122.20724	1800043	0.37	2005-06-08 18:06:04.0	Ventana	34.495	00:50:35:21	4.36	V2674-01
 	transect	Sebastolobus	 	2687	 	 	 	1811404	 	2005-07-13 20:11:34.0	Ventana	 	03:36:33:03	 	V2687-04
 	transect	Psolus squamatus	 	2687	 	 	 	1807178	 	2005-07-13 17:02:53.0	Ventana	 	00:29:47:14	 	V2687-01
 	ascend	Poeobius meseres	640.58	2681	 	36.698864	-122.054214	1717672	0.28	2005-07-07 20:27:46.897	Ventana	34.396	03:56:47:07	5.364	V2681-04
 	ascend	Calycophorae	260.76	2681	 	36.69886	-122.05698	1718950	1.42	2005-07-07 21:20:02.5	Ventana	34.23	04:48:22:06	7.957	V2681-05
 	transect	Mesomyaria	800.94	2674	 	36.752125	-122.20828	1800735	0.35	2005-06-08 18:10:59.0	Ventana	34.49	00:55:31:07	4.322	V2674-01
 	transect	Mediaster	 	2687	 	 	 	1810269	 	2005-07-13 19:13:41.0	Ventana	 	02:39:25:11	 	V2687-03
 	stationary	Appendicularia	504.22	2695	 	36.78464	-122.20051	1824499	0.68	2005-07-28 19:12:28.0	Ventana	34.294	04:18:42:26	6.31	V2695-02
 	transect	Nanomia bijuga	200.45	2681	 	36.69828	-122.05329	2490062	1.7	2005-07-07 17:04:28.0	Ventana	34.197	00:35:35:25	8.362	V2681-01HD
 	transect	Calycophorae	600.59	2681	 	36.696648	-122.0523	2493762	0.3	2005-07-07 18:23:01.0	Ventana	34.387	01:53:23:20	5.477	V2681-02HD
 	transect	Umbellula lindahli	601.95	2680	 	36.78718	-122.231636	1805909	0.36	2005-06-27 19:46:44.0	Ventana	34.377	02:25:22:16	5.598	V2680-03
 	transect	Neptunea amianta	1000.26	2669	 	36.73128	-122.240944	1689350	0.41	2005-05-25 19:33:37.0	Ventana	34.51	01:55:34:17	4.056	V2669-02
 	descend	Mysidae	1194.7	2682	 	36.698395	-122.0584	1722235	0.68	2005-07-08 19:31:37.0	Ventana	34.572	03:24:14:17	3.376	V2682-04
 	descend	sinker	716.02	2683	 	36.702183	-122.048935	1757101	0.3	2005-07-11 17:55:28.0	Ventana	34.428	01:39:33:01	4.974	V2683-02
 	transect	Psolus squamatus	399.84	2687	 	36.78801	-122.1214	1809037	1.15	2005-07-13 17:34:46.0	Ventana	34.239	01:01:04:29	7.299	V2687-01
 	transect	Calycophorae	800.88	2681	 	36.69593	-122.051865	2498216	0.31	2005-07-07 18:58:06.0	Ventana	34.476	02:27:47:18	4.495	V2681-03HD
 	transect	Mesomyaria	998.43	2669	 	36.731136	-122.23073	1683424	0.45	2005-05-25 18:20:28.0	Ventana	34.523	00:42:55:06	3.914	V2669-01
 	transect	Mesomyaria	1000.27	2669	 	36.73183	-122.24517	1735360	0.4	2005-05-25 19:58:05.0	Ventana	34.505	02:19:36:02	4.099	V2669-03
 	transect	Porifera sp. 1	399.68	2687	 	36.789284	-122.124756	1809609	1.16	2005-07-13 18:23:46.0	Ventana	34.239	01:50:05:03	7.337	V2687-02
 	transect	Zaniolepididae	199.41	2696	 	36.80422	-122.12599	1813397	1.53	2005-08-01 17:42:47.0	Ventana	34.205	01:10:40:12	8.659	V2696-02
 	transect	Chaetognatha	200.48	2681	 	36.69828	-122.05329	2490588	1.72	2005-07-07 17:07:41.0	Ventana	34.195	00:38:49:06	8.334	V2681-01HD
 	transect	Melanostigma pammelas	700.63	2681	 	36.697155	-122.05301	2497667	0.29	2005-07-07 18:39:12.0	Ventana	34.436	02:08:56:12	4.931	V2681-03HD
 	cruise	object	97.98	2675	 	36.750988	-122.22278	1803863	1.81	2005-06-08 22:17:07.0	Ventana	34.104	02:07:24:25	8.453	V2675-01
 	descend	Appendicularia	327.97	2693	 	36.69744	-122.06057	1758513	1.29	2005-07-25 19:47:17.0	Ventana	34.236	02:26:52:05	7.576	V2693-03
 	transect	Appendicularia	500.56	2681	 	36.697044	-122.05265	2493536	0.44	2005-07-07 17:59:02.0	Ventana	34.345	01:29:24:13	6.03	V2681-02HD
 	ascend	Appendicularia	559.07	2682	 	36.698265	-122.06258	1723598	0.38	2005-07-08 21:07:46.0	Ventana	34.359	04:59:53:07	5.841	V2682-05
 	descend	Euphausiacea	187.28	2683	 	36.701035	-122.051094	1756349	1.69	2005-07-11 16:42:30.0	Ventana	34.168	00:30:10:29	8.531	V2683-01
 	descend	Gonatus	853.89	2683	 	36.702896	-122.04837	1757235	0.34	2005-07-11 18:25:43.0	Ventana	34.487	02:09:46:11	4.363	V2683-02
 	transect	Phyllospadix	799.46	2674	 	36.75252	-122.20442	1799582	0.35	2005-06-08 17:51:35.0	Ventana	34.486	00:36:07:26	4.385	V2674-01
 	transect	Appendicularia	300.42	2681	 	36.69669	-122.05227	2492493	1.23	2005-07-07 17:25:58.0	Ventana	34.234	00:57:05:27	7.397	V2681-01HD
 	ascend	Copepoda	357.79	2681	 	36.69936	-122.05501	1718055	1.03	2005-07-07 20:51:53.213	Ventana	34.258	04:20:14:05	7.139	V2681-05
 	transect	Psolus squamatus	 	2687	 	 	 	1808857	 	2005-07-13 17:30:32.0	Ventana	 	00:57:24:10	 	V2687-01
 	cruise	mud	97.45	2688	 	36.817043	-122.01441	1679323	1.99	2005-07-14 19:58:50.0	Ventana	34.087	03:43:35:24	8.917	V2688-04
 	ascend	sinker	497.11	2683	 	36.704384	-122.05058	1757987	0.6	2005-07-11 21:16:26.0	Ventana	34.317	04:49:18:23	6.403	V2683-05
 	transect	Mediaster	 	2687	 	 	 	1811201	 	2005-07-13 20:01:32.0	Ventana	 	03:26:32:06	 	V2687-04
 	transect	molt	100.5	2681	 	36.69982	-122.05429	2489725	2.13	2005-07-07 16:48:47.0	Ventana	34.067	00:19:55:10	9.152	V2681-01HD
 	descend	Chaetognatha	271.08	2682	 	36.699776	-122.060776	1720039	1.34	2005-07-08 16:33:20.0	Ventana	34.229	00:27:24:11	7.707	V2682-01
 	ascend	Hastigerinella digitata	345.04	2693	 	36.69328	-122.06137	1758944	1.25	2005-07-25 21:10:36.0	Ventana	34.236	03:35:08:14	7.407	V2693-04
 	transect	Mediaster	 	2687	 	 	 	1811805	 	2005-07-13 20:25:43.0	Ventana	 	03:50:41:17	 	V2687-04
 	descend	ink	988.69	2681	 	36.69464	-122.050385	1716542	0.46	2005-07-07 19:19:50.067	Ventana	34.524	02:49:31:27	3.926	V2681-03
 	transect	Gastropoda sp.2	1000.1	2669	 	36.73168	-122.24359	1733854	0.41	2005-05-25 19:47:53.0	Ventana	34.508	02:09:24:03	4.069	V2669-03
 	transect	Nanomia bijuga	400.78	2681	 	36.696465	-122.05197	2493010	0.79	2005-07-07 17:43:57.0	Ventana	34.277	01:14:21:10	6.641	V2681-02HD
 	transect	Psolus squamatus	 	2687	 	 	 	1811021	 	2005-07-13 19:48:32.0	Ventana	 	03:13:33:18	 	V2687-04
 	transect	Euphausia	200.37	2681	 	36.698322	-122.05344	2491340	1.66	2005-07-07 17:13:36.0	Ventana	34.2	00:44:44:09	8.34	V2681-01HD
 	descend	Nanomia	401.6	2681	 	36.695553	-122.05119	1715107	0.81	2005-07-07 17:33:24.067	Ventana	34.278	01:03:48:05	6.695	V2681-02
 	descend	Bathocyroe	492.51	2682	 	36.698593	-122.05977	1720823	0.46	2005-07-08 17:58:53.0	Ventana	34.34	01:52:22:10	6.088	V2682-02
 	ascend	Nanomia	230.14	2693	 	36.691254	-122.06248	1759124	1.56	2005-07-25 21:23:20.0	Ventana	34.223	03:47:51:18	8.521	V2693-04
 	transect	Mesomyaria	999.56	2669	 	36.730556	-122.228966	1651026	0.45	2005-05-25 18:06:24.0	Ventana	34.523	00:28:52:07	3.906	V2669-01
 	transect	Stomphia	1000.03	2669	 	36.731056	-122.23938	1689147	0.42	2005-05-25 19:23:32.2	Ventana	34.522	01:45:30:18	3.997	V2669-02
 	transect	Mesomyaria	1000.26	2669	 	36.73141	-122.24179	1689867	0.4	2005-05-25 19:38:25.0	Ventana	34.509	02:00:22:08	4.076	V2669-02
 	descend	Appendicularia	571.8	2683	 	36.70187	-122.04912	1756981	0.4	2005-07-11 17:46:45.0	Ventana	34.355	01:30:51:19	5.943	V2683-02
 	stationary	Chionoecetes tanneri	998.11	2679	 	36.690063	-122.16583	1824379	0.47	2005-06-16 18:18:42.0	Ventana	34.529	00:50:02:06	3.877	V2679-01
 	stationary	Myxinidae	502.26	2694	 	36.784595	-122.200424	1676633	0.84	2005-07-27 20:02:07.0	Ventana	34.273	02:34:16:15	6.668	V2694-03
 	transect	Mesomyaria	1000.57	2669	 	36.73224	-122.24866	1736232	0.41	2005-05-25 20:23:48.0	Ventana	34.509	02:45:16:11	4.063	V2669-03
 	transect	Psolus squamatus	399.87	2687	 	36.78806	-122.12152	1809180	1.13	2005-07-13 17:36:43.0	Ventana	34.241	01:03:05:27	7.262	V2687-02
 	transect	Calycophorae	300.44	2681	 	36.696995	-122.05251	2492410	1.23	2005-07-07 17:24:56.0	Ventana	34.234	00:56:02:13	7.395	V2681-01HD
 	transect	Stomphia	1000.06	2669	 	36.731087	-122.239876	1689207	0.41	2005-05-25 19:27:00.0	Ventana	34.51	01:48:57:25	4.062	V2669-02
 	transect	Phyllospadix	200.26	2696	 	36.804886	-122.12752	1813540	1.51	2005-08-01 17:58:03.0	Ventana	34.211	01:25:55:18	8.671	V2696-02
 	cruise	Chionoecetes tanneri	1211.56	2683	 	36.706707	-122.047646	1757641	0.73	2005-07-11 20:12:37.0	Ventana	34.576	03:47:00:04	3.33	V2683-04
 	ascend	Poeobius meseres	528.86	2681	 	36.69897	-122.05425	1717732	0.43	2005-07-07 20:33:16.59	Ventana	34.348	04:02:17:18	6.033	V2681-04
 	ascend	Crustacea	918.45	2682	 	36.698093	-122.058464	1723190	0.37	2005-07-08 20:13:18.0	Ventana	34.501	04:05:27:11	4.23	V2682-05
 	ascend	Aegina	518.12	2682	 	36.698288	-122.06301	1723658	0.46	2005-07-08 21:11:45.0	Ventana	34.34	05:03:27:13	6.1	V2682-06
 	cruise	mud	429.81	2688	 	36.80544	-122.01905	1677708	0.92	2005-07-14 17:46:30.0	Ventana	34.271	01:32:13:19	6.931	V2688-02
 	transect	molt	100.51	2681	 	36.69939	-122.05401	2489808	2.13	2005-07-07 16:51:04.0	Ventana	34.068	00:22:13:16	9.146	V2681-01HD
 	transect	Mesomyaria	997.44	2669	 	36.73055	-122.22734	1649144	0.45	2005-05-25 17:56:29.0	Ventana	34.52	00:18:57:28	3.909	V2669-01
 	descend	Calycophorae	931.8	2681	 	36.694675	-122.05041	1716519	0.42	2005-07-07 19:17:56.633	Ventana	34.515	02:47:38:02	4.042	V2681-03
 	transect	Porifera	 	2687	http://search.mbari.org/ARCHIVE/frameGrabs/Ventana/images/2687/03_08_25_05.jpg	 	 	1810938	 	2005-07-13 19:43:23.0	Ventana	 	03:08:25:05	 	V2687-04
 	ascend	Cydippida	198.18	2693	 	36.690617	-122.06284	1759207	1.8	2005-07-25 21:28:25.0	Ventana	34.182	03:52:56:14	8.884	V2693-04
 	transect	Ophiuroidea	999.27	2669	http://search.mbari.org/ARCHIVE/frameGrabs/Ventana/images/2669/01_21_20_16.jpg	36.73142	-122.236244	1684693	0.44	2005-05-25 18:59:21.0	Ventana	34.52	01:21:20:16	3.941	V2669-02
 	descend	Appendicularia	692.95	2682	 	36.698647	-122.05998	1721432	0.29	2005-07-08 18:13:50.0	Ventana	34.422	02:06:54:19	5.103	V2682-03
 	transect	Ceriantharia sp. 1	801.57	2674	 	36.751766	-122.21091	1801058	0.35	2005-06-08 18:23:43.0	Ventana	34.49	01:07:47:29	4.328	V2674-02
 	ascend	Nanomia	255.06	2681	 	36.69857	-122.05639	1719144	1.46	2005-07-07 21:23:48.427	Ventana	34.226	04:52:06:27	7.999	V2681-05
 	ascend	Euphotic zone	11.79	2696	 	36.807743	-122.13132	1813886	6.15	2005-08-01 18:56:38.0	Ventana	33.67	02:23:42:03	13.389	V2696-03
 	ascend	Chaetognatha	348.83	2681	 	36.699333	-122.05513	1718078	1.08	2005-07-07 20:52:43.667	Ventana	34.254	04:21:04:17	7.207	V2681-05
 	transect	cyclothone	1000.93	2681	 	36.69631	-122.052574	2498682	0.47	2005-07-07 19:29:13.0	Ventana	34.531	02:58:52:25	3.874	V2681-03HD
 	transect	Psolus squamatus	 	2687	 	 	 	1808834	 	2005-07-13 17:30:15.0	Ventana	 	00:57:08:00	 	V2687-01
 	transect	Ceriantharia sp. 2	1000.42	2669	 	36.732037	-122.247406	1735886	0.4	2005-05-25 20:14:57.0	Ventana	34.509	02:36:27:01	4.073	V2669-03
 	transect	Sebastolobus	998.93	2669	 	36.73284	-122.251656	1737238	0.41	2005-05-25 20:43:01.0	Ventana	34.51	03:03:49:29	4.072	V2669-04
 	transect	Glyptocephalus zachirus	400.11	2687	 	36.789066	-122.12397	1809526	1.17	2005-07-13 18:11:59.0	Ventana	34.238	01:38:19:20	7.357	V2687-02
 	transect	Phyllospadix	197.18	2696	 	36.803402	-122.123665	1813194	1.55	2005-08-01 17:18:37.0	Ventana	34.199	00:46:54:15	8.622	V2696-01
 	transect	Gastropoda sp.2	1000.23	2669	 	36.730953	-122.233376	1695103	0.45	2005-05-25 18:38:22.0	Ventana	34.522	01:00:47:01	3.91	V2669-01
 	transect	Caridea sp.1	802.96	2674	 	36.752277	-122.206116	1799900	0.36	2005-06-08 18:00:33.0	Ventana	34.486	00:45:05:19	4.338	V2674-01
 	transect	phialidium	700.58	2681	 	36.69507	-122.05076	2497990	0.28	2005-07-07 18:48:21.0	Ventana	34.43	02:18:02:16	4.983	V2681-03HD
 	ascend	Appendicularia	603.23	2682	 	36.69864	-122.06154	1723513	0.34	2005-07-08 20:56:31.0	Ventana	34.374	04:48:38:00	5.635	V2682-05
 	transect	Mediaster	 	2687	 	 	 	1809932	 	2005-07-13 18:48:27.0	Ventana	 	02:14:12:16	 	V2687-03
 	descend	Poeobius meseres	1108.07	2682	 	36.698227	-122.05916	1722092	0.57	2005-07-08 19:09:00.0	Ventana	34.554	03:01:39:16	3.618	V2682-04
 	cruise	LRJ Complex	596.29	2688	 	36.79644	-122.02019	1677385	0.47	2005-07-14 16:40:13.0	Ventana	34.379	00:26:32:22	5.626	V2688-01
 	transect	Brisaster	999.14	2669	 	36.731056	-122.23185	1683687	0.45	2005-05-25 18:29:22.0	Ventana	34.521	00:51:47:26	3.915	V2669-01
 	ascend	Aegina	686.96	2681	 	36.698734	-122.05462	1717617	0.28	2005-07-07 20:22:04.457	Ventana	34.417	03:51:05:20	5.143	V2681-04
 	descend	Appendicularia	358.97	2683	 	36.70134	-122.04987	1756575	1.14	2005-07-11 16:57:02.0	Ventana	34.237	00:44:42:15	7.148	V2683-01
 	transect	Phyllospadix	800.62	2674	 	36.75263	-122.20187	1799116	0.34	2005-06-08 17:37:56.0	Ventana	34.479	00:22:30:02	4.403	V2674-01
 	transect	Physonectae	400.75	2681	 	36.696926	-122.052536	2493070	0.79	2005-07-07 17:46:00.0	Ventana	34.277	01:16:23:15	6.659	V2681-02HD
 	transect	Psolus squamatus	 	2687	 	 	 	1806984	 	2005-07-13 16:52:42.0	Ventana	 	00:19:37:05	 	V2687-01
 	transect	Psolus squamatus	 	2687	 	 	 	1811459	 	2005-07-13 20:13:46.0	Ventana	 	03:38:45:25	 	V2687-04
 	transect	Mesomyaria	998.77	2669	 	36.73287	-122.25199	1737298	0.4	2005-05-25 20:44:53.0	Ventana	34.509	03:05:43:00	4.073	V2669-04
 	transect	Mesomyaria	801.17	2674	 	36.752136	-122.208145	1800712	0.35	2005-06-08 18:10:20.0	Ventana	34.491	00:54:51:15	4.331	V2674-01
 	transect	Porifera sp. 1	 	2687	 	 	 	1810246	 	2005-07-13 19:11:59.0	Ventana	 	02:37:43:05	 	V2687-03
 	descend	Nanomia	205.62	2693	 	36.696045	-122.05838	1758310	1.81	2005-07-25 18:25:48.0	Ventana	34.186	01:05:52:08	8.701	V2693-02
 	transect	Sebastolobus	 	2669	 	 	 	1737584	 	2005-05-25 13:52:20.0	Ventana	 	03:13:08:03	 	V2669-04
 	transect	Actiniaria sp. 3	 	2687	 	 	 	1810532	 	2005-07-13 19:21:53.0	Ventana	 	02:47:37:08	 	V2687-03
 	transect	Allocentrotus fragilis	 	2687	 	 	 	1812474	 	2005-07-13 20:40:51.0	Ventana	 	04:05:48:10	 	V2687-04
 	cruise	Sebastolobus	619.12	2688	 	36.794422	-122.019485	1677302	0.42	2005-07-14 16:29:48.0	Ventana	34.411	00:16:09:02	5.317	V2688-01
 	transect	Neptunea amianta	599.26	2680	 	36.777836	-122.22292	1804320	0.36	2005-06-27 17:51:16.0	Ventana	34.379	00:31:23:16	5.586	V2680-01
 	transect	Mediaster	 	2687	 	 	 	1812211	 	2005-07-13 20:29:08.0	Ventana	 	03:54:06:26	 	V2687-04
 	transect	Phyllospadix	802.78	2674	 	36.751785	-122.21024	1800998	0.36	2005-06-08 18:20:55.0	Ventana	34.49	01:05:00:08	4.324	V2674-02
 	ascend	Lobata	373.33	2693	 	36.695614	-122.06065	1758801	1.2	2005-07-25 20:53:04.0	Ventana	34.233	03:17:38:03	7.176	V2693-04
 	transect	Psolus squamatus	 	2687	 	 	 	1807644	 	2005-07-13 17:20:10.0	Ventana	 	00:47:03:05	 	V2687-01
 	transect	Phyllospadix	802.77	2674	 	36.750854	-122.219986	1803660	0.34	2005-06-08 19:06:39.0	Ventana	34.488	01:50:41:19	4.38	V2674-02
 	transect	Umbellula lindahli	598.91	2680	 	36.78015	-122.225174	1804606	0.35	2005-06-27 18:19:18.0	Ventana	34.381	00:59:23:06	5.555	V2680-01
 	descend	Chaetognatha	326.5	2682	 	36.698883	-122.06068	1720159	1.11	2005-07-08 17:08:14.0	Ventana	34.244	01:01:46:02	7.24	V2682-02
 	transect	Mesomyaria	999.3	2669	 	36.731167	-122.235565	1684347	0.44	2005-05-25 18:54:21.0	Ventana	34.52	01:16:21:08	3.928	V2669-02
 	descend	Chaetognatha	900.54	2682	 	36.698254	-122.05944	1721778	0.34	2005-07-08 18:51:19.0	Ventana	34.496	02:44:20:28	4.285	V2682-03
 	transect	Mesomyaria	1000.11	2669	 	36.7312	-122.24048	1689267	0.41	2005-05-25 19:30:44.0	Ventana	34.511	01:52:42:05	4.057	V2669-02
 	transect	Gastropoda sp.2	1000.2	2669	 	36.731674	-122.243835	1733974	0.41	2005-05-25 19:49:14.0	Ventana	34.509	02:10:45:18	4.069	V2669-03
 	transect	Psolus squamatus	399.88	2687	 	36.788124	-122.12167	1809263	1.13	2005-07-13 17:37:51.0	Ventana	34.243	01:04:13:16	7.254	V2687-02
 	ascend	Aegina	953.03	2681	 	36.697372	-122.05376	1716865	0.42	2005-07-07 19:40:33.92	Ventana	34.516	03:09:38:05	4.051	V2681-04
 	ascend	Poeobius meseres	370.79	2693	 	36.696278	-122.06082	1758656	1.2	2005-07-25 20:26:14.0	Ventana	34.232	03:05:47:04	7.167	V2693-03
 	transect	Mediaster	 	2687	 	 	 	1810592	 	2005-07-13 19:23:18.0	Ventana	 	02:49:02:06	 	V2687-03
 	ascend	Nanomia	136.31	2693	 	36.69077	-122.06296	1759267	2.0	2005-07-25 21:32:08.0	Ventana	34.079	03:56:39:03	9.165	V2693-04
 	transect	Phyllospadix	 	2687	 	 	 	1810878	 	2005-07-13 19:38:43.0	Ventana	 	03:04:25:27	 	V2687-03
 	transect	Mesomyaria	999.22	2669	 	36.731052	-122.235085	1684264	0.45	2005-05-25 18:50:54.0	Ventana	34.523	01:12:54:23	3.923	V2669-02
 	transect	Teuthoidea	400.77	2681	 	36.697315	-122.05297	2493130	0.79	2005-07-07 17:47:35.0	Ventana	34.278	01:17:57:26	6.663	V2681-02HD
 	descend	Mertensiidae	383.57	2682	 	36.69842	-122.05992	1720680	0.93	2005-07-08 17:35:38.0	Ventana	34.265	01:29:10:01	6.945	V2682-02
 	transect	Phyllospadix	802.11	2674	 	36.752243	-122.20659	1799960	0.37	2005-06-08 18:02:55.0	Ventana	34.489	00:47:27:23	4.322	V2674-01
 	transect	molt	100.52	2681	 	36.698956	-122.053734	2489868	2.12	2005-07-07 16:52:02.0	Ventana	34.07	00:23:12:01	9.148	V2681-01HD
 	cruise	Parastichopus	115.66	2688	 	36.813126	-122.01888	1679203	1.97	2005-07-14 19:28:54.0	Ventana	34.096	03:13:42:14	8.931	V2688-04
 	transect	Ceriantharia sp. 1	598.53	2680	 	36.781937	-122.22695	1805072	0.36	2005-06-27 18:42:27.0	Ventana	34.377	01:21:32:10	5.594	V2680-02
 	ascend	Appendicularia	450.12	2682	 	36.698215	-122.06286	1723718	0.69	2005-07-08 21:18:45.0	Ventana	34.281	05:10:26:15	6.478	V2682-06
 	transect	chuniphyes	500.56	2681	 	36.697456	-122.05317	2493416	0.44	2005-07-07 17:57:05.0	Ventana	34.346	01:27:29:06	6.018	V2681-02HD
 	transect	Calycophorae	1000.97	2681	 	36.69554	-122.05158	2498622	0.48	2005-07-07 19:25:24.0	Ventana	34.532	02:55:05:00	3.847	V2681-03HD
 	transect	Ceriantharia sp. 2	999.82	2669	 	36.73133	-122.23795	1688310	0.44	2005-05-25 19:14:27.0	Ventana	34.521	01:36:25:23	3.951	V2669-02
 	cruise	Lycodapus	1230.45	2683	 	36.70582	-122.04785	1757558	0.74	2005-07-11 19:53:17.0	Ventana	34.578	03:27:40:04	3.303	V2683-04
 	descend	Cydippida	245.9	2693	 	36.69849	-122.06168	1758393	1.47	2005-07-25 19:24:26.0	Ventana	34.229	02:04:26:26	8.471	V2693-02
 	ascend	sinker	864.62	2681	 	36.698467	-122.05554	1717354	0.34	2005-07-07 19:53:25.433	Ventana	34.498	03:22:28:12	4.316	V2681-04
 	transect	Porifera sp. 1	 	2687	 	 	 	1812617	 	2005-07-13 20:47:50.0	Ventana	 	04:12:20:09	 	V2687-05
 	transect	molt	50.42	2681	 	36.699825	-122.05429	2485557	2.94	2005-07-07 16:35:05.0	Ventana	33.926	00:06:15:10	9.618	V2681-01HD
 	cruise	Pennatulacea	131.02	2676	 	36.808475	-122.031136	1676896	1.72	2005-06-14 18:01:54.0	Ventana	34.175	01:41:36:20	8.311	V2676-02
 	descend	Nanomia	304.21	2681	 	36.69568	-122.05131	1713654	1.23	2005-07-07 17:29:59.467	Ventana	34.229	01:01:06:25	7.376	V2681-01
 	transect	Psolus squamatus	 	2687	 	 	 	1808917	 	2005-07-13 17:31:59.0	Ventana	 	00:58:51:25	 	V2687-01
 	ascend	Cyclothone	393.0	2681	 	36.69931	-122.054565	1717995	0.93	2005-07-07 20:48:21.533	Ventana	34.266	04:16:42:21	6.914	V2681-05
 	transect	Mesomyaria	999.68	2669	 	36.731	-122.23246	1683747	0.45	2005-05-25 18:33:08.0	Ventana	34.522	00:55:34:00	3.911	V2669-01
 	descend	Nanomia	292.57	2693	 	36.697807	-122.061195	1758453	1.34	2005-07-25 19:37:50.0	Ventana	34.236	02:17:25:27	7.821	V2693-03
 	transect	Phyllospadix	800.31	2674	 	36.752556	-122.202255	1799176	0.34	2005-06-08 17:39:54.0	Ventana	34.479	00:24:27:19	4.433	V2674-01
 	descend	Nanomia	205.93	2682	 	36.699894	-122.060715	1719956	1.87	2005-07-08 16:21:00.0	Ventana	34.17	00:15:05:03	7.985	V2682-01
 	transect	Chionoecetes tanneri	999.39	2669	 	36.731216	-122.23583	1684407	0.44	2005-05-25 18:56:09.1	Ventana	34.52	01:18:09:17	3.933	V2669-02
 	ascend	Calycophorae	587.59	2682	 	36.69882	-122.06052	1723453	0.4	2005-07-08 20:45:17.0	Ventana	34.371	04:37:25:21	5.673	V2682-05
 	transect	Phyllospadix	399.5	2687	 	36.789425	-122.12522	1809669	1.14	2005-07-13 18:32:14.0	Ventana	34.246	01:58:32:25	7.296	V2687-02
 	transect	Brisaster	603.21	2680	 	36.78877	-122.23243	1805969	0.35	2005-06-27 20:03:18.0	Ventana	34.377	02:41:55:23	5.587	V2680-03
 	transect	Mesomyaria	998.8	2669	 	36.73107	-122.23495	1684204	0.45	2005-05-25 18:49:19.0	Ventana	34.521	01:11:19:00	3.918	V2669-02
 	descend	Appendicularia	349.83	2682	 	36.698624	-122.06041	1720302	1.02	2005-07-08 17:17:17.0	Ventana	34.254	01:10:48:17	7.103	V2682-02
 	ascend	Poeobius meseres	426.05	2681	 	36.699085	-122.05423	1717792	0.74	2005-07-07 20:38:10.5	Ventana	34.281	04:07:10:21	6.613	V2681-04
 	descend	Calycophorae	628.6	2683	 	36.702034	-122.048965	1757041	0.36	2005-07-11 17:51:01.0	Ventana	34.379	01:35:07:13	5.58	V2683-02
 	stationary	Appendicularia	501.7	2695	 	36.784573	-122.200455	1824439	0.87	2005-07-28 17:25:10.0	Ventana	34.266	00:31:30:21	6.676	V2695-01
 	transect	Ceriantharia sp. 2	1000.57	2669	 	36.732098	-122.24798	1736172	0.4	2005-05-25 20:18:33.0	Ventana	34.507	02:40:04:02	4.08	V2669-03
 	ascend	Chaetognatha	901.15	2681	 	36.697998	-122.05476	1717151	0.37	2005-07-07 19:48:42.333	Ventana	34.503	03:17:45:03	4.202	V2681-04
 	transect	Mediaster	 	2687	 	 	 	1812414	 	2005-07-13 20:37:35.0	Ventana	 	04:02:32:27	 	V2687-04
 	ascend	Bolinopsis	258.17	2681	 	36.697838	-122.05522	1719550	 	2005-07-07 21:29:59.0	Ventana	 	05:12:48:10	 	V2681-05
 	transect	Pennatulacea sp.1	602.6	2680	 	36.789623	-122.23257	1806721	0.35	2005-06-27 20:12:27.0	Ventana	34.379	02:51:04:04	5.589	V2680-03
 	ascend	Appendicularia	258.17	2681	 	36.697838	-122.05522	1719407	 	2005-07-07 21:29:59.0	Ventana	 	05:03:59:10	 	V2681-05
 	transect	Eptatretus stoutii	799.99	2674	 	36.75265	-122.20047	1774120	0.29	2005-06-08 17:30:52.0	Ventana	34.459	00:15:26:14	4.657	V2674-01
 	cruise	Sebastes	440.93	2688	 	36.80382	-122.01814	1677648	0.9	2005-07-14 17:39:04.0	Ventana	34.269	01:24:48:01	6.893	V2688-02
 	transect	Sebastes diploproa	 	2687	 	 	 	1811865	 	2005-07-13 20:27:38.0	Ventana	 	03:52:36:22	 	V2687-04
 	cruise	rock outcrop	348.34	2688	 	36.807697	-122.01977	1677791	1.2	2005-07-14 17:57:06.0	Ventana	34.232	01:42:48:26	7.475	V2688-02
 	descend	Mysidae	977.33	2683	 	36.704067	-122.048676	1757355	0.42	2005-07-11 19:14:02.0	Ventana	34.519	02:54:23:03	4.032	V2683-03
 	descend	Chaetognatha	1159.87	2683	 	36.705116	-122.048904	1757498	0.67	2005-07-11 19:34:16.0	Ventana	34.557	03:14:36:20	3.484	V2683-03
 	transect	Mesomyaria	800.26	2674	 	36.751247	-122.21611	1803397	0.35	2005-06-08 18:49:49.0	Ventana	34.489	01:33:52:22	4.34	V2674-02
 	transect	Phyllospadix	799.1	2674	 	36.75145	-122.21468	1801372	0.35	2005-06-08 18:42:50.0	Ventana	34.489	01:26:53:11	4.333	V2674-02
 	transect	molt	901.05	2681	 	36.69688	-122.05304	2498276	0.39	2005-07-07 19:06:46.0	Ventana	34.505	02:36:28:01	4.167	V2681-03HD
 	transect	Ophiuroidea	999.07	2669	 	36.73105	-122.23117	1683544	0.45	2005-05-25 18:23:59.0	Ventana	34.521	00:46:25:08	3.914	V2669-01
 	descend	Aegina	1039.99	2682	 	36.698334	-122.05914	1722041	0.47	2005-07-08 19:03:19.0	Ventana	34.532	02:56:20:20	3.863	V2682-03
 	transect	Mesomyaria	999.63	2669	 	36.73195	-122.24614	1735623	0.41	2005-05-25 20:04:36.0	Ventana	34.51	02:26:05:15	4.064	V2669-03
 	transect	Rathbunaster californicus	200.2	2696	 	36.80459	-122.126854	1813480	1.51	2005-08-01 17:51:33.0	Ventana	34.211	01:19:25:25	8.667	V2696-02
 	ascend	Appendicularia	670.72	2683	 	36.705467	-122.049576	1757904	0.3	2005-07-11 21:07:54.0	Ventana	34.427	04:40:47:02	5.058	V2683-05
 	ascend	Chuniphyes	416.44	2683	 	36.704124	-122.05059	1758047	0.92	2005-07-11 21:19:37.0	Ventana	34.258	04:52:28:04	6.866	V2683-05
 	transect	field of view 39	997.89	2669	 	36.730637	-122.22692	1649061	0.45	2005-05-25 17:53:00.0	Ventana	34.522	00:15:28:01	3.91	V2669-01
 	descend	Zoarcidae	577.84	2688	 	36.793396	-122.018295	1677242	0.55	2005-07-14 16:18:37.0	Ventana	34.342	00:04:58:02	5.973	V2688-01
 	cruise	Pleuronectiformes	92.6	2688	 	36.815426	-122.01747	1679406	1.96	2005-07-14 20:29:01.0	Ventana	34.093	04:13:45:11	8.945	V2688-04
 	transect	Stomphia	1000.21	2669	 	36.73096	-122.233284	1683890	0.45	2005-05-25 18:38:09.0	Ventana	34.522	01:00:34:16	3.91	V2669-01
 	descend	Nanomia	504.55	2683	 	36.70149	-122.04917	1756838	0.68	2005-07-11 17:37:35.0	Ventana	34.305	01:21:41:09	6.464	V2683-02
 	transect	Psolus squamatus	 	2687	 	 	 	1808774	 	2005-07-13 17:29:08.0	Ventana	 	00:56:00:11	 	V2687-01
 	transect	Mesomyaria	1000.19	2669	 	36.731087	-122.238754	1689064	0.43	2005-05-25 19:19:46.0	Ventana	34.518	01:41:44:21	3.968	V2669-02
 	transect	Calycophorae	500.58	2681	 	36.69727	-122.052956	2493476	0.44	2005-07-07 17:58:00.0	Ventana	34.346	01:28:23:09	6.025	V2681-02HD
 	transect	Phyllospadix	799.23	2674	 	36.752514	-122.20422	1799522	0.35	2005-06-08 17:50:21.0	Ventana	34.483	00:34:54:08	4.379	V2674-01
 	transect	Sebastes diploproa	203.74	2696	 	36.805264	-122.128204	1813683	1.48	2005-08-01 18:14:53.0	Ventana	34.213	01:42:45:08	8.63	V2696-02
 	transect	Hormiphora	200.43	2681	 	36.69828	-122.05329	2490325	1.7	2005-07-07 17:06:56.0	Ventana	34.198	00:38:04:13	8.347	V2681-01HD
 	transect	Phyllospadix	801.12	2674	 	36.75249	-122.19941	1773774	0.29	2005-06-08 17:23:16.0	Ventana	34.46	00:07:50:24	4.661	V2674-01
 	transect	Calycophorae	700.64	2681	 	36.696564	-122.052475	2497727	0.29	2005-07-07 18:41:29.0	Ventana	34.439	02:11:12:14	4.946	V2681-03HD
 	transect	Mediaster	 	2687	 	 	 	1811722	 	2005-07-13 20:22:22.0	Ventana	 	03:47:20:17	 	V2687-04
 	transect	Radiolaria	200.38	2681	 	36.69829	-122.053345	2491077	1.7	2005-07-07 17:11:34.0	Ventana	34.196	00:42:41:24	8.332	V2681-01HD
 	transect	Mesomyaria	998.44	2669	 	36.73104	-122.23032	1651289	0.45	2005-05-25 18:17:05.0	Ventana	34.522	00:39:32:09	3.911	V2669-01
 	cruise	Rathbunaster californicus	466.2	2676	 	36.802593	-122.02938	1676285	0.57	2005-06-14 16:34:43.0	Ventana	34.336	00:18:52:06	6.183	V2676-01
 	descend	Copepoda	424.33	2682	 	36.698185	-122.059784	1720740	0.69	2005-07-08 17:41:34.0	Ventana	34.286	01:35:05:00	6.477	V2682-02
 	transect	Allocentrotus fragilis	 	2687	 	 	 	1811284	 	2005-07-13 20:05:34.0	Ventana	 	03:30:33:21	 	V2687-04
 	cruise	Parastichopus	368.85	2676	 	36.804497	-122.02909	1676488	0.95	2005-06-14 16:45:58.813	Ventana	34.27	00:30:06:20	7.042	V2676-01
 	ascend	sinker	833.62	2682	 	36.69867	-122.05861	1723250	0.34	2005-07-08 20:21:20.0	Ventana	34.479	04:13:30:05	4.43	V2682-05
 	cruise	Remote Instrument Node	124.35	2672	http://search.mbari.org/ARCHIVE/frameGrabs/Ventana/images/2672/00_22_01_27.jpg	36.803112	-121.80558	20003827	2.68	2005-06-03 15:02:40.0	Ventana	33.951	00:22:01:27	9.33	V2672-01
 	transect	Psolus squamatus	399.85	2687	 	36.788128	-122.12179	1809323	1.13	2005-07-13 17:39:30.0	Ventana	34.241	01:05:51:25	7.267	V2687-02
 	ascend	Caecosagitta macrocephala	919.52	2681	 	36.697735	-122.05438	1717008	0.39	2005-07-07 19:45:41.66	Ventana	34.507	03:14:45:03	4.182	V2681-04
 	ascend	Nanomia	331.51	2681	 	36.69966	-122.05521	1718138	1.18	2005-07-07 20:55:54.733	Ventana	34.238	04:24:15:13	7.32	V2681-05
 	transect	Mediaster	 	2687	 	 	 	1812271	 	2005-07-13 20:30:17.0	Ventana	 	03:55:15:08	 	V2687-04
 	transect	Mesomyaria	1000.25	2669	 	36.731445	-122.241936	1689927	0.4	2005-05-25 19:39:08.0	Ventana	34.509	02:01:05:07	4.077	V2669-02
 	descend	Nanomia	177.96	2693	 	36.69609	-122.05815	1758250	1.93	2005-07-25 18:06:58.0	Ventana	34.148	00:47:29:18	8.888	V2693-01
 	transect	Poeobius meseres	600.54	2681	 	36.69727	-122.053055	2493822	0.3	2005-07-07 18:25:52.0	Ventana	34.388	01:56:13:05	5.469	V2681-02HD
 	descend	Appendicularia	813.42	2683	 	36.70276	-122.0486	1757184	0.36	2005-07-11 18:11:17.0	Ventana	34.473	01:55:21:22	4.521	V2683-02
 	transect	Psolus squamatus	399.84	2687	http://search.mbari.org/ARCHIVE/frameGrabs/Ventana/images/2687/01_02_17_21.jpg	36.788036	-122.12153	1809120	1.13	2005-07-13 17:35:55.0	Ventana	34.244	01:02:17:21	7.27	V2687-02
 	transect	rock outcrop	 	2687	http://search.mbari.org/ARCHIVE/frameGrabs/Ventana/images/2687/04_24_00_10.jpg	 	 	1812820	 	2005-07-13 20:59:30.0	Ventana	 	04:24:00:10	 	V2687-05
 	descend	Dosidicus gigas	637.6	2681	 	36.697956	-122.05388	1715942	0.29	2005-07-07 18:29:57.667	Ventana	34.395	02:00:18:08	5.31	V2681-02
 	transect	Porifera	 	2687	 	 	 	1810186	 	2005-07-13 19:06:11.0	Ventana	 	02:31:56:09	 	V2687-03
 	descend	Chaetognatha	400.54	2683	 	36.701492	-122.04957	1756635	0.96	2005-07-11 17:02:16.0	Ventana	34.259	00:49:55:26	6.987	V2683-01
 	transect	Sebastolobus	 	2687	 	 	 	1810735	 	2005-07-13 19:30:47.0	Ventana	 	02:56:30:11	 	V2687-03
 	transect	Dosidicus gigas	500.61	2681	 	36.69792	-122.053665	2493273	0.44	2005-07-07 17:55:07.0	Ventana	34.346	01:25:29:16	6.022	V2681-02HD
 	cruise	Pennatulacea	125.86	2688	 	36.81126	-122.02246	1677994	1.94	2005-07-14 18:40:30.0	Ventana	34.097	02:25:45:18	8.907	V2688-03
 	transect	Psolus squamatus	 	2687	http://search.mbari.org/ARCHIVE/frameGrabs/Ventana/images/2687/03_40_03_15.jpg	 	 	1811519	 	2005-07-13 20:15:04.0	Ventana	 	03:40:03:15	 	V2687-04
 	transect	Phyllospadix	1000.17	2669	 	36.731228	-122.238365	1688861	0.43	2005-05-25 19:17:37.0	Ventana	34.516	01:39:35:28	3.976	V2669-02
 	transect	Sebastolobus altivelis	799.83	2674	 	36.752518	-122.20337	1799319	0.35	2005-06-08 17:45:32.0	Ventana	34.484	00:30:05:13	4.372	V2674-01
 	transect	Coryphaenoides acrolepis	801.47	2674	 	36.750954	-122.2187	1803600	0.34	2005-06-08 19:01:07.0	Ventana	34.485	01:45:09:09	4.379	V2674-02
 	transect	Parastichopus leukothele	196.5	2696	 	36.803165	-122.1229	1813134	1.56	2005-08-01 17:09:29.0	Ventana	34.196	00:37:47:05	8.626	V2696-01
 	transect	Phyllospadix	801.57	2674	 	36.752167	-122.20782	1800103	0.35	2005-06-08 18:08:36.0	Ventana	34.489	00:53:08:10	4.326	V2674-01
 	cruise	Pleuronectiformes	538.58	2688	 	36.798367	-122.01959	1677445	0.62	2005-07-14 17:01:40.0	Ventana	34.325	00:47:59:03	6.251	V2688-01
 	transect	Mysidae	900.99	2681	 	36.694965	-122.050606	2498479	0.39	2005-07-07 19:16:17.0	Ventana	34.505	02:45:58:11	4.167	V2681-03HD
 	ascend	Mysidae	1188.77	2683	 	36.70735	-122.047646	1757701	0.71	2005-07-11 20:22:52.0	Ventana	34.572	03:57:15:01	3.366	V2683-04
 	transect	Ceriantharia sp. 2	997.55	2669	 	36.73066	-122.22778	1683341	0.45	2005-05-25 17:59:00.0	Ventana	34.522	00:21:29:05	3.907	V2669-01
 	transect	Mesomyaria	998.31	2669	 	36.733	-122.252396	1737441	0.4	2005-05-25 20:47:44.0	Ventana	34.509	03:08:33:12	4.076	V2669-04
 	transect	Ceriantharia sp. 1	602.81	2680	 	36.78946	-122.232544	1806712	0.36	2005-06-27 20:10:48.0	Ventana	34.377	02:49:25:18	5.589	V2680-03
 	transect	Mediaster	 	2687	 	 	 	1812285	 	2005-07-13 20:30:51.0	Ventana	 	03:55:49:01	 	V2687-04
 	transect	Mesomyaria	998.1	2669	 	36.733006	-122.25276	1737487	0.4	2005-05-25 20:49:23.0	Ventana	34.508	03:10:11:02	4.075	V2669-04
 	descend	Nanomia	165.83	2693	 	36.696255	-122.05776	1758213	1.99	2005-07-25 17:58:00.0	Ventana	34.131	00:38:31:20	8.928	V2693-01
 	transect	Brisaster	599.44	2680	 	36.77948	-122.22457	1804532	0.36	2005-06-27 18:10:38.0	Ventana	34.378	00:50:44:15	5.604	V2680-01
 	transect	beroe	400.8	2681	 	36.69609	-122.051544	2492959	0.79	2005-07-07 17:42:23.0	Ventana	34.277	01:12:47:06	6.661	V2681-02HD
 	transect	Melanostigma pammelas	600.64	2681	 	36.695747	-122.051216	2493665	0.3	2005-07-07 18:18:44.0	Ventana	34.387	01:49:05:07	5.496	V2681-02HD
 	cruise	Actiniaria	104.75	2676	 	36.80765	-122.039085	1677136	1.94	2005-06-14 19:06:42.0	Ventana	34.155	02:45:27:20	8.446	V2676-03
 	descend	Copepoda	800.83	2681	 	36.696957	-122.053116	1716408	0.31	2005-07-07 19:02:50.7	Ventana	34.473	02:32:33:18	4.51	V2681-03
 	descend	Nanomia	201.51	2683	 	36.701035	-122.05095	1756386	1.71	2005-07-11 16:47:13.0	Ventana	34.191	00:34:53:19	8.38	V2683-01
 	transect	Sebastolobus altivelis	800.17	2674	 	36.752426	-122.20479	1799665	0.35	2005-06-08 17:53:34.0	Ventana	34.487	00:38:06:19	4.356	V2674-01
 	transect	Ophiuroidea	999.21	2669	 	36.731388	-122.23606	1684536	0.44	2005-05-25 18:57:59.0	Ventana	34.52	01:19:58:28	3.939	V2669-02
 	transect	Brisaster	199.78	2696	 	36.80425	-122.12606	1813406	1.52	2005-08-01 17:43:29.0	Ventana	34.21	01:11:22:23	8.662	V2696-02
 	transect	Gastropoda sp.2	997.6	2669	 	36.7306	-122.22716	1694914	0.45	2005-05-25 17:55:04.0	Ventana	34.522	00:17:32:11	3.909	V2669-01
 	transect	Mesomyaria	800.58	2674	 	36.75121	-122.21628	1803411	0.35	2005-06-08 18:50:30.0	Ventana	34.489	01:34:33:10	4.336	V2674-02
 	transect	Mediaster	399.5	2687	 	36.789413	-122.12517	1809660	1.14	2005-07-13 18:31:12.0	Ventana	34.242	01:57:30:15	7.303	V2687-02
 	descend	Appendicularia	292.46	2682	 	36.699646	-122.06079	1720062	1.27	2005-07-08 16:36:57.0	Ventana	34.23	00:30:59:28	7.497	V2682-01
 	ascend	Appendicularia	630.32	2682	 	36.698868	-122.05975	1723393	0.36	2005-07-08 20:36:55.0	Ventana	34.387	04:29:04:04	5.448	V2682-05
 	transect	Mesomyaria	801.42	2674	 	36.752224	-122.20761	1800080	0.38	2005-06-08 18:07:46.0	Ventana	34.486	00:52:18:14	4.35	V2674-01
 	descend	Chaetognatha	708.93	2683	 	36.70213	-122.048935	1757092	0.3	2005-07-11 17:54:54.0	Ventana	34.421	01:38:59:25	5.028	V2683-02
 	transect	Ophiuroidea	998.45	2669	 	36.731113	-122.230736	1683415	0.45	2005-05-25 18:20:22.0	Ventana	34.522	00:42:48:21	3.913	V2669-01
 	transect	Psolus squamatus	 	2687	 	 	 	1808631	 	2005-07-13 17:25:46.0	Ventana	 	00:52:38:21	 	V2687-01
 	transect	Leuroglossus stilbius	900.96	2681	 	36.695183	-122.05086	2498470	0.39	2005-07-07 19:15:23.0	Ventana	34.507	02:45:03:27	4.16	V2681-03HD
 	cruise	Nanomia	192.64	2676	 	36.807037	-122.02956	1676813	1.59	2005-06-14 17:45:20.0	Ventana	34.2	01:25:04:17	8.094	V2676-02
 	ascend	Appendicularia	787.68	2681	 	36.698936	-122.05656	1717437	0.29	2005-07-07 20:03:12.933	Ventana	34.458	03:32:15:09	4.693	V2681-04
 	transect	Mediaster	 	2687	 	 	 	1807127	 	2005-07-13 17:01:09.0	Ventana	 	00:28:03:07	 	V2687-01
 	transect	Solaster borealis	999.56	2669	 	36.730984	-122.23237	1683738	0.45	2005-05-25 18:32:17.0	Ventana	34.524	00:54:42:27	3.914	V2669-01
 	transect	Psolus squamatus	 	2687	 	 	 	1808954	 	2005-07-13 17:32:35.0	Ventana	 	00:59:27:13	 	V2687-01
 	descend	Dosidicus gigas	548.22	2681	 	36.695675	-122.05106	1715610	0.36	2005-07-07 18:06:09.533	Ventana	34.367	01:36:31:18	5.749	V2681-02
 	transect	Mediaster	 	2687	 	 	 	1812608	 	2005-07-13 20:47:16.0	Ventana	 	04:11:46:12	 	V2687-05
 	transect	Chionoecetes tanneri	597.65	2680	 	36.781063	-122.22602	1804855	0.35	2005-06-27 18:31:09.0	Ventana	34.379	01:10:15:24	5.592	V2680-02
 	transect	Chionoecetes tanneri	1000.16	2669	 	36.73186	-122.24505	1735337	0.4	2005-05-25 19:57:11.0	Ventana	34.508	02:18:42:15	4.09	V2669-03
 	transect	Mesomyaria	1000.59	2669	 	36.732403	-122.249695	1736689	0.41	2005-05-25 20:31:12.0	Ventana	34.51	02:52:41:08	4.066	V2669-03
 	ascend	Poeobius meseres	682.76	2683	 	36.70562	-122.04933	1757890	0.31	2005-07-11 21:07:02.0	Ventana	34.434	04:39:53:29	4.981	V2683-05
 	transect	Mesomyaria	999.89	2669	 	36.731384	-122.237305	1687484	0.44	2005-05-25 19:09:01.0	Ventana	34.52	01:31:00:23	3.944	V2669-02
 	descend	Aegina	1184.5	2682	 	36.698322	-122.05809	1722304	0.66	2005-07-08 19:39:12.0	Ventana	34.57	03:31:47:01	3.416	V2682-04
 	transect	Phyllospadix	799.73	2674	 	36.75269	-122.20068	1774134	0.29	2005-06-08 17:31:59.0	Ventana	34.464	00:16:33:03	4.649	V2674-01
 	transect	molt	100.57	2681	 	36.69983	-122.05429	2489536	2.13	2005-07-07 16:44:04.0	Ventana	34.068	00:15:12:24	9.147	V2681-01HD
 	transect	Sebastes diploproa	 	2687	 	 	 	1810075	 	2005-07-13 18:54:24.0	Ventana	 	02:20:10:07	 	V2687-03
 	transect	Phyllospadix	800.3	2674	 	36.75209	-122.20861	1800786	0.36	2005-06-08 18:12:34.0	Ventana	34.49	00:57:05:07	4.319	V2674-01
 	transect	Mediaster	 	2687	 	 	 	1807035	 	2005-07-13 16:55:30.0	Ventana	 	00:22:24:25	 	V2687-01
 	stationary	Appendicularia	504.19	2695	 	36.78466	-122.20051	1824490	0.67	2005-07-28 19:04:10.0	Ventana	34.296	04:10:25:05	6.3	V2695-02
 	transect	Psolus squamatus	 	2687	 	 	 	1809983	 	2005-07-13 18:49:26.0	Ventana	 	02:15:12:00	 	V2687-03
 	descend	Chaetognatha	480.88	2683	 	36.70152	-122.04932	1756769	0.74	2005-07-11 17:22:16.0	Ventana	34.289	01:06:23:22	6.591	V2683-02
 	cruise	Florometra	233.1	2676	 	36.805885	-122.029396	1676753	1.58	2005-06-14 17:39:36.0	Ventana	34.202	01:19:18:29	8.063	V2676-02
 	transect	Copepoda	901.03	2681	 	36.69575	-122.05168	2498410	0.39	2005-07-07 19:12:16.0	Ventana	34.505	02:41:57:13	4.174	V2681-03HD
 	ascend	Aegina	700.66	2682	 	36.698856	-122.05938	1723333	0.29	2005-07-08 20:32:09.0	Ventana	34.419	04:24:17:28	5.07	V2682-05
 	descend	Calycophorae	615.5	2683	 	36.701992	-122.049	1757032	0.34	2005-07-11 17:50:06.0	Ventana	34.371	01:34:12:26	5.722	V2683-02
 	transect	Antimora microlepis	799.24	2674	 	36.75165	-122.21322	1801261	0.35	2005-06-08 18:32:38.0	Ventana	34.489	01:16:42:05	4.346	V2674-02
 	descend	Calycophorae	624.27	2681	 	36.697952	-122.05387	1715933	0.31	2005-07-07 18:29:32.5	Ventana	34.392	01:59:53:04	5.391	V2681-02
 	transect	Mesomyaria	1000.24	2669	 	36.73092	-122.23268	1683798	0.45	2005-05-25 18:34:54.0	Ventana	34.52	00:57:19:28	3.911	V2669-01
 	descend	Copepoda	363.38	2682	 	36.698547	-122.0602	1720385	0.99	2005-07-08 17:30:41.0	Ventana	34.26	01:24:13:10	7.059	V2682-02
 	transect	Mesomyaria	1000.06	2669	 	36.731697	-122.24367	1733863	0.41	2005-05-25 19:48:05.0	Ventana	34.508	02:09:36:16	4.069	V2669-03
 	transect	Solmundella bitentaculata	500.61	2681	 	36.697826	-122.05359	2493282	0.44	2005-07-07 17:55:29.0	Ventana	34.347	01:25:51:13	6.02	V2681-02HD
 	cruise	Bathocyroe	529.75	2688	 	36.798862	-122.01936	1677459	0.61	2005-07-14 17:03:35.0	Ventana	34.322	00:49:53:04	6.238	V2688-01
 	transect	Sebastolobus	999.84	2669	 	36.731754	-122.24408	1734126	0.4	2005-05-25 19:50:53.0	Ventana	34.511	02:12:25:18	4.078	V2669-03
 	transect	Mediaster	 	2687	 	 	 	1811639	 	2005-07-13 20:18:13.0	Ventana	 	03:43:12:11	 	V2687-04
 	transect	Phyllospadix	800.49	2674	 	36.751747	-122.21142	1801109	0.35	2005-06-08 18:25:47.0	Ventana	34.488	01:09:51:20	4.349	V2674-02
 	transect	Aegina	500.62	2681	 	36.697655	-122.05342	2493342	0.44	2005-07-07 17:56:09.0	Ventana	34.347	01:26:32:06	6.017	V2681-02HD
 	transect	Mesomyaria	1000.45	2669	 	36.731304	-122.24151	1689816	0.4	2005-05-25 19:36:48.0	Ventana	34.508	01:58:45:27	4.091	V2669-02
 	descend	Appendicularia	400.24	2681	 	36.6956	-122.05108	1715227	0.79	2005-07-07 17:36:34.423	Ventana	34.277	01:06:58:09	6.676	V2681-02
 	transect	Mesomyaria	1000.42	2669	 	36.73154	-122.24277	1694531	0.4	2005-05-25 19:43:17.0	Ventana	34.506	02:05:14:06	4.087	V2669-02
 	descend	Euphausiacea	359.51	2682	 	36.69851	-122.06013	1720445	1.0	2005-07-08 17:32:40.0	Ventana	34.258	01:26:10:29	7.077	V2682-02
 	transect	Phyllospadix	999.91	2669	 	36.73188	-122.245926	1735600	0.41	2005-05-25 20:02:53.0	Ventana	34.51	02:24:24:09	4.059	V2669-03
 	ascend	Phialidium	766.75	2681	 	36.69866	-122.05612	1717497	0.29	2005-07-07 20:10:12.5	Ventana	34.452	03:39:14:13	4.783	V2681-04
 	transect	Calycophorae	300.42	2681	 	36.697697	-122.05312	2492161	1.23	2005-07-07 17:22:33.0	Ventana	34.234	00:53:39:17	7.4	V2681-01HD
 	cruise	Pennatulacea	257.4	2688	 	36.809204	-122.02036	1677902	1.52	2005-07-14 18:28:45.0	Ventana	34.198	02:14:01:03	8.185	V2688-03
 	descend	Poeobius meseres	800.86	2681	 	36.694946	-122.05062	1716348	0.32	2005-07-07 18:52:35.533	Ventana	34.473	02:22:19:02	4.496	V2681-03
 	transect	Ceriantharia sp. 2	999.45	2669	 	36.730484	-122.22873	1683355	0.45	2005-05-25 18:05:04.0	Ventana	34.522	00:27:32:04	3.906	V2669-01
 	ascend	Leuroglossus stilbius	309.05	2681	 	36.699665	-122.05526	1718175	1.27	2005-07-07 20:58:27.423	Ventana	34.231	04:26:47:29	7.551	V2681-05
 	transect	Phyllospadix	999.19	2669	 	36.731087	-122.23497	1684213	0.45	2005-05-25 18:49:48.0	Ventana	34.52	01:11:48:24	3.92	V2669-02
 	transect	Mesomyaria	998.34	2669	 	36.732983	-122.25232	1737427	0.4	2005-05-25 20:47:15.0	Ventana	34.508	03:08:04:01	4.076	V2669-04
 	transect	Calliostoma platinum	399.68	2687	 	36.789288	-122.12471	1809600	1.16	2005-07-13 18:23:25.0	Ventana	34.239	01:49:44:11	7.333	V2687-02
 	transect	Psolus squamatus	399.85	2687	 	36.788136	-122.1218	1809337	1.13	2005-07-13 17:39:43.0	Ventana	34.238	01:06:05:10	7.275	V2687-02
 	transect	Mesomyaria	998.72	2669	 	36.730946	-122.23007	1651220	0.45	2005-05-25 18:14:33.0	Ventana	34.521	00:37:00:11	3.913	V2669-01
 	descend	Copepoda	521.13	2682	 	36.698593	-122.059784	1720860	0.39	2005-07-08 18:01:46.0	Ventana	34.358	01:55:16:03	5.866	V2682-02
 	transect	Mesomyaria	799.93	2674	 	36.751316	-122.21549	1803351	0.35	2005-06-08 18:46:07.0	Ventana	34.486	01:30:10:19	4.356	V2674-02
 	cruise	mud	109.27	2676	 	36.804928	-122.043365	1677196	1.94	2005-06-14 19:27:28.0	Ventana	34.163	03:06:12:28	8.398	V2676-03
 	transect	Mesomyaria	999.44	2669	 	36.73133	-122.23592	1684476	0.44	2005-05-25 18:57:06.0	Ventana	34.52	01:19:05:22	3.936	V2669-02
 	ascend	Euphausiacea	258.17	2681	 	36.697838	-122.05522	1719296	 	2005-07-07 21:29:59.0	Ventana	 	04:59:52:17	 	V2681-05
 	ascend	Solmissus	336.16	2693	 	36.692795	-122.0616	1758981	1.26	2005-07-25 21:13:11.0	Ventana	34.238	03:37:43:19	7.461	V2693-04
 	transect	Mesomyaria	1000.26	2669	 	36.73128	-122.240944	1689341	0.41	2005-05-25 19:33:37.0	Ventana	34.51	01:55:34:17	4.056	V2669-02
 	descend	Poeobius meseres	1172.67	2683	 	36.706745	-122.04801	1757507	0.68	2005-07-11 19:35:48.0	Ventana	34.566	03:16:09:14	3.442	V2683-03
 	endtransect	physical object	 	2687	 	 	 	1811164	 	2005-07-13 19:58:41.0	Ventana	 	03:23:41:01	 	V2687-04
 	descend	Nanomia	 	2693	 	 	 	1759424	 	2005-07-25 16:44:18.0	Ventana	 	00:22:50:18	 	V2693-01
 	transect	Pennatulacea sp.1	599.83	2680	 	36.777348	-122.22252	1804269	0.36	2005-06-27 17:45:23.0	Ventana	34.379	00:25:30:10	5.582	V2680-01
 	transect	Aegina	1001.08	2681	 	36.694706	-122.05048	2498530	0.47	2005-07-07 19:20:59.0	Ventana	34.532	02:50:39:20	3.867	V2681-03HD
 	descend	Copepoda	889.51	2683	 	36.703224	-122.04833	1757244	0.36	2005-07-11 18:31:09.0	Ventana	34.493	02:11:33:04	4.284	V2683-03
 	transect	Ceriantharia sp. 1	600.12	2680	 	36.784035	-122.22945	1805501	0.36	2005-06-27 19:13:16.0	Ventana	34.378	01:52:19:17	5.608	V2680-02
 	transect	Hastigerinella digitata	300.45	2681	 	36.697937	-122.053314	2492101	1.24	2005-07-07 17:21:45.0	Ventana	34.234	00:52:53:02	7.402	V2681-01HD
 	transect	Mediaster	 	2687	 	 	 	1812548	 	2005-07-13 20:45:07.0	Ventana	 	04:09:37:25	 	V2687-05
 	transect	Mesomyaria	802.85	2674	 	36.75082	-122.2201	1803674	0.34	2005-06-08 19:07:08.0	Ventana	34.484	01:51:09:28	4.39	V2674-02
 	transect	Pennatula phosphorea californica	1000.4	2669	 	36.731457	-122.24217	1694471	0.4	2005-05-25 19:40:29.0	Ventana	34.509	02:02:26:16	4.069	V2669-02
 	transect	Phyllospadix	800.99	2674	 	36.75252	-122.2026	1799222	0.35	2005-06-08 17:41:44.0	Ventana	34.487	00:26:17:26	4.375	V2674-01
 	transect	Mediaster	 	2687	 	 	 	1806975	 	2005-07-13 16:52:14.0	Ventana	 	00:19:08:20	 	V2687-01
 	ascend	Appendicularia	345.96	2693	 	36.69358	-122.061325	1758921	1.25	2005-07-25 21:08:57.0	Ventana	34.236	03:33:30:17	7.385	V2693-04
 	transect	Chionoecetes tanneri	802.72	2674	 	36.75231	-122.205666	1799817	0.36	2005-06-08 17:58:13.0	Ventana	34.488	00:42:45:22	4.332	V2674-01
 	transect	Asteronyx loveni	999.99	2669	 	36.731422	-122.23677	1686898	0.44	2005-05-25 19:04:05.0	Ventana	34.52	01:26:05:00	3.943	V2669-02
 	transect	Lycenchelys camchatica	801.8	2674	 	36.751774	-122.21081	1801049	0.36	2005-06-08 18:23:20.0	Ventana	34.492	01:07:24:23	4.322	V2674-02
 	transect	Mediaster	 	2687	 	 	 	1811427	 	2005-07-13 20:12:16.0	Ventana	 	03:37:15:13	 	V2687-04
 	transect	Mesomyaria	999.86	2669	 	36.731064	-122.238846	1689078	0.43	2005-05-25 19:20:35.0	Ventana	34.519	01:42:33:18	3.963	V2669-02
 	ascend	Cyclothone	1184.49	2682	 	36.698322	-122.05751	1722424	0.66	2005-07-08 19:52:42.0	Ventana	34.566	03:45:17:10	3.419	V2682-04
 	transect	Stomphia	801.86	2674	 	36.752262	-122.20709	1800020	0.36	2005-06-08 18:05:11.0	Ventana	34.492	00:49:43:05	4.356	V2674-01
 	ascend	Copepoda	370.92	2693	 	36.69668	-122.06055	1758718	1.2	2005-07-25 20:30:58.0	Ventana	34.233	03:10:31:07	7.177	V2693-03
 	transect	molt	100.51	2681	 	36.69983	-122.05429	2489656	2.13	2005-07-07 16:47:14.0	Ventana	34.069	00:18:24:16	9.147	V2681-01HD
 	transect	Mesomyaria	998.92	2669	 	36.732838	-122.25149	1737224	0.41	2005-05-25 20:42:19.0	Ventana	34.509	03:03:07:12	4.072	V2669-04
 	transect	Calycophorae	300.41	2681	 	36.69579	-122.0514	2492604	1.24	2005-07-07 17:29:25.0	Ventana	34.233	01:00:32:14	7.415	V2681-01HD
 	transect	Chionoecetes tanneri	1000.02	2669	 	36.731937	-122.245605	1735397	0.41	2005-05-25 20:00:59.0	Ventana	34.51	02:22:29:12	4.066	V2669-03
 	transect	Mesomyaria	800.97	2674	 	36.7512	-122.21706	1803471	0.35	2005-06-08 18:53:55.0	Ventana	34.492	01:37:57:22	4.338	V2674-02
 	transect	Euphausia	200.39	2681	 	36.698284	-122.053314	2490980	1.71	2005-07-07 17:10:23.0	Ventana	34.187	00:41:32:05	8.319	V2681-01HD
 	transect	Mesomyaria	1000.11	2669	 	36.73094	-122.233734	1683950	0.45	2005-05-25 18:40:15.0	Ventana	34.523	01:02:16:19	3.911	V2669-02
 	ascend	Cydippida	 	2683	 	 	 	1758153	 	2005-07-11 14:32:41.0	Ventana	 	05:05:32:12	 	V2683-05
 	transect	Poeobius meseres	600.57	2681	 	36.696323	-122.05193	2493725	0.3	2005-07-07 18:21:31.0	Ventana	34.386	01:51:53:04	5.487	V2681-02HD
 	transect	Ceriantharia sp. 2	1000.48	2669	 	36.73226	-122.248795	1736246	0.41	2005-05-25 20:24:54.0	Ventana	34.51	02:46:23:08	4.069	V2669-03
 	descend	Appendicularia	1082.5	2683	 	36.70511	-122.04891	1757447	0.52	2005-07-11 19:27:52.0	Ventana	34.534	03:08:13:23	3.797	V2683-03
 	transect	Mesomyaria	1000.38	2669	 	36.73206	-122.24754	1736103	0.4	2005-05-25 20:16:06.0	Ventana	34.508	02:37:36:18	4.079	V2669-03
 	transect	Psolus squamatus	 	2687	http://search.mbari.org/ARCHIVE/frameGrabs/Ventana/images/2687/00_54_09_20.jpg	 	 	1808691	 	2005-07-13 17:27:17.0	Ventana	 	00:54:09:20	 	V2687-01
 	transect	molt	100.5	2681	 	36.698982	-122.05375	2489859	2.12	2005-07-07 16:51:58.0	Ventana	34.07	00:23:07:21	9.148	V2681-01HD
 	transect	Mesomyaria	1000.18	2669	 	36.731205	-122.2406	1689281	0.41	2005-05-25 19:31:25.0	Ventana	34.511	01:53:22:17	4.055	V2669-02
 	transect	Mediaster	 	2687	 	 	 	1811224	 	2005-07-13 20:04:38.0	Ventana	 	03:29:37:17	 	V2687-04
 	transect	Neptunea amianta	999.82	2669	 	36.732613	-122.25095	1737044	0.4	2005-05-25 20:38:38.0	Ventana	34.508	03:00:05:17	4.074	V2669-03
 	transect	Halipteris californica	598.44	2680	 	36.7822	-122.22732	1805118	0.35	2005-06-27 18:46:38.0	Ventana	34.381	01:25:42:22	5.582	V2680-02
 	transect	Gastropoda	200.11	2696	 	36.804543	-122.12675	1813466	1.51	2005-08-01 17:50:22.0	Ventana	34.212	01:18:15:00	8.668	V2696-02
 	transect	Porifera sp. 1	 	2687	 	 	 	1807570	 	2005-07-13 17:15:49.0	Ventana	 	00:42:42:25	 	V2687-01
 	transect	Phyllospadix	798.48	2674	 	36.75159	-122.21396	1801321	0.35	2005-06-08 18:37:58.0	Ventana	34.488	01:22:02:10	4.342	V2674-02
 	cruise	rock outcrop	94.66	2688	http://search.mbari.org/ARCHIVE/frameGrabs/Ventana/images/2688/04_17_05_05.jpg	36.81468	-122.01714	20005280	1.95	2005-07-14 20:32:22.0	Ventana	34.094	04:17:05:05	8.942	V2688-04
 	transect	Aegina	500.61	2681	 	36.696346	-122.051895	2493605	0.44	2005-07-07 18:01:47.0	Ventana	34.347	01:32:09:09	6.011	V2681-02HD
 	transect	Euphausia	200.45	2681	 	36.69828	-122.05329	2490657	1.73	2005-07-07 17:08:05.0	Ventana	34.193	00:39:12:12	8.328	V2681-01HD
 	descend	Appendicularia	725.67	2682	 	36.698517	-122.05969	1721506	0.28	2005-07-08 18:25:03.0	Ventana	34.441	02:18:06:22	4.882	V2682-03
 	descend	Chaetognatha	171.44	2683	 	36.70105	-122.05127	1756326	1.63	2005-07-11 16:40:56.0	Ventana	34.191	00:28:37:17	8.745	V2683-01
 	transect	Sergestes similis	400.74	2681	 	36.696533	-122.052055	2493019	0.79	2005-07-07 17:44:18.0	Ventana	34.276	01:14:42:06	6.645	V2681-02HD
 	descend	Chaetognatha	215.76	2693	 	36.696087	-122.05821	1758333	1.69	2005-07-25 18:27:02.0	Ventana	34.192	01:07:06:20	8.613	V2693-02
 	transect	Phyllospadix	599.75	2680	 	36.77862	-122.22383	1804412	0.36	2005-06-27 18:01:29.0	Ventana	34.379	00:41:36:00	5.589	V2680-01
 	descend	Chaetognatha	307.84	2683	 	36.701103	-122.05015	1756506	1.25	2005-07-11 16:54:08.0	Ventana	34.24	00:41:47:00	7.64	V2683-01
 	transect	molt	50.48	2681	 	36.699635	-122.05416	2485437	 	2005-07-07 16:32:34.0	Ventana	 	00:03:44:07	 	V2681-01HD
 	transect	Psolus squamatus	 	2687	 	 	 	1807187	 	2005-07-13 17:02:56.0	Ventana	 	00:29:50:13	 	V2687-01
 	transect	Phyllospadix	801.1	2674	 	36.752544	-122.201645	1799079	0.34	2005-06-08 17:36:42.0	Ventana	34.483	00:21:15:16	4.416	V2674-01
 	transect	Neptunea amianta	600.74	2680	 	36.786625	-122.23118	1805886	0.36	2005-06-27 19:40:30.0	Ventana	34.377	02:19:08:25	5.602	V2680-03
 	transect	Neptunea amianta	801.1	2674	 	36.752552	-122.20135	1774194	0.34	2005-06-08 17:35:18.0	Ventana	34.482	00:19:51:25	4.38	V2674-01
 	transect	Psolus squamatus	 	2687	 	 	 	1809014	 	2005-07-13 17:33:34.0	Ventana	 	01:00:26:14	 	V2687-01
 	transect	Microstomus pacificus	997.49	2669	 	36.73062	-122.228065	1649333	0.45	2005-05-25 18:01:04.0	Ventana	34.522	00:23:32:13	3.907	V2669-01
 	cruise	Neptunea	1215.36	2683	 	36.706482	-122.04762	1757627	0.73	2005-07-11 20:10:10.0	Ventana	34.575	03:44:33:09	3.333	V2683-04
 	ascend	Calycophorae	884.34	2683	 	36.707058	-122.04871	1757830	0.38	2005-07-11 20:57:27.0	Ventana	34.504	04:30:19:20	4.203	V2683-05
 	stationary	Merluccius productus	501.96	2694	 	36.784576	-122.200485	1676571	0.78	2005-07-27 18:43:32.0	Ventana	34.28	01:26:14:02	6.542	V2694-02
 	descend	Lampocteis	476.03	2682	 	36.698563	-122.05971	1720800	0.52	2005-07-08 17:57:01.0	Ventana	34.325	01:50:30:28	6.192	V2682-02
 	descend	Bathocyroe	794.95	2682	 	36.698383	-122.05969	1721686	0.31	2005-07-08 18:36:29.0	Ventana	34.463	02:29:32:19	4.597	V2682-03
 	ascend	Appendicularia	253.26	2693	 	36.69137	-122.06235	1759101	1.43	2005-07-25 21:21:53.0	Ventana	34.246	03:46:25:27	8.47	V2693-04
 	transect	Psolus squamatus	399.86	2687	 	36.788113	-122.12162	1809217	1.13	2005-07-13 17:37:21.0	Ventana	34.243	01:03:43:12	7.255	V2687-02
 	transect	Neptunea amianta	800.75	2674	 	36.751957	-122.2094	1800906	0.36	2005-06-08 18:16:45.0	Ventana	34.491	01:01:16:14	4.319	V2674-01
 	transect	Psolus squamatus	 	2687	 	 	 	1811044	 	2005-07-13 19:49:18.0	Ventana	 	03:14:19:13	 	V2687-04
 	transect	Mediaster	 	2687	 	 	 	1812668	 	2005-07-13 20:50:31.0	Ventana	 	04:15:01:15	 	V2687-05
 	cruise	Stomphia	997.88	2669	http://search.mbari.org/ARCHIVE/frameGrabs/Ventana/images/2669/00_17_55_25.jpg	36.730583	-122.22721	20003776	0.45	2005-05-25 17:55:27.0	Ventana	34.521	00:17:55:25	3.91	V2669-01
 	transect	Mesomyaria	998.13	2669	 	36.733124	-122.25303	1737547	0.4	2005-05-25 20:51:00.0	Ventana	34.509	03:11:53:18	4.076	V2669-04
 	descend	Cydippida	451.22	2683	 	36.70159	-122.04938	1756709	0.8	2005-07-11 17:09:08.0	Ventana	34.28	00:56:48:02	6.696	V2683-01
 	ascend	Appendicularia	369.18	2681	 	36.69936	-122.05486	1718032	0.97	2005-07-07 20:50:51.287	Ventana	34.265	04:19:11:24	7.06	V2681-05
 	transect	Pennatulacea sp.1	598.91	2680	 	36.780045	-122.22506	1804592	0.35	2005-06-27 18:17:55.0	Ventana	34.384	00:58:00:24	5.545	V2680-01
 	transect	Gastropoda	203.25	2696	 	36.806625	-122.130196	1813789	1.49	2005-08-01 18:30:25.0	Ventana	34.215	01:58:16:02	8.649	V2696-02
 	transect	Mesomyaria	999.73	2669	 	36.731102	-122.23539	1684333	0.45	2005-05-25 18:53:18.0	Ventana	34.521	01:15:18:06	3.924	V2669-02
 	cruise	mud	200.75	2696	 	36.802242	-122.12113	1812871	1.6	2005-08-01 16:36:10.0	Ventana	34.19	00:04:30:29	8.651	V2696-01
 	transect	Phyllospadix	800.99	2674	 	36.752132	-122.20822	1800726	0.35	2005-06-08 18:10:46.0	Ventana	34.49	00:55:17:23	4.32	V2674-01
 	transect	Laminariales	 	2687	 	 	 	1809923	 	2005-07-13 18:48:14.0	Ventana	 	02:14:00:09	 	V2687-03
 	transect	Nanomia bijuga	200.39	2681	 	36.698303	-122.053375	2491160	1.68	2005-07-07 17:12:22.0	Ventana	34.198	00:43:30:10	8.337	V2681-01HD
 	transect	Brisaster	1000.24	2669	 	36.731426	-122.24182	1689876	0.4	2005-05-25 19:38:39.0	Ventana	34.51	02:00:36:22	4.076	V2669-02
 	ascend	Appendicularia	580.85	2682	 	36.698364	-122.062355	1723575	0.37	2005-07-08 21:05:48.0	Ventana	34.363	04:57:54:23	5.768	V2682-05
 	transect	Porifera sp. 1	 	2687	 	 	 	1810135	 	2005-07-13 18:58:57.0	Ventana	 	02:24:42:02	 	V2687-03
 	transect	Aegina	700.64	2681	 	36.697517	-122.05338	2497644	0.29	2005-07-07 18:37:34.0	Ventana	34.432	02:07:16:21	4.981	V2681-03HD
 	transect	Mesomyaria	800.72	2674	 	36.752464	-122.20453	1799605	0.35	2005-06-08 17:52:24.0	Ventana	34.481	00:36:57:00	4.367	V2674-01
 	transect	Gastropoda sp.2	998.58	2669	 	36.73118	-122.234276	1694651	0.45	2005-05-25 18:43:37.0	Ventana	34.521	01:05:37:11	3.915	V2669-02
 	transect	Gastropoda sp.2	999.92	2669	 	36.731747	-122.244194	1734246	0.4	2005-05-25 19:51:24.0	Ventana	34.503	02:12:54:26	4.083	V2669-03
 	transect	Phyllospadix	1000.17	2669	 	36.731953	-122.246544	1735720	0.41	2005-05-25 20:08:48.0	Ventana	34.511	02:30:18:05	4.063	V2669-03
 	transect	Calycophorae	300.4	2681	 	36.697323	-122.05281	2492281	1.23	2005-07-07 17:23:47.0	Ventana	34.233	00:54:54:01	7.396	V2681-01HD
 	transect	Hormiphora	200.48	2681	 	36.69828	-122.05329	2490537	1.71	2005-07-07 17:07:20.0	Ventana	34.197	00:38:29:06	8.341	V2681-01HD
 	transect	Mesomyaria	999.2	2669	 	36.731068	-122.233955	1684010	0.45	2005-05-25 18:41:32.0	Ventana	34.522	01:03:33:10	3.913	V2669-02
 	ascend	Salpida	577.9	2681	 	36.698936	-122.05427	1717709	0.36	2005-07-07 20:30:57.867	Ventana	34.365	03:59:58:01	5.794	V2681-04
 	ascend	Chaetognatha	258.17	2681	 	36.697838	-122.05522	1719559	 	2005-07-07 21:29:59.0	Ventana	 	05:13:55:13	 	V2681-05
 	ascend	Apolemia	669.29	2681	 	36.69876	-122.05437	1717640	0.28	2005-07-07 20:23:40.6	Ventana	34.41	03:52:41:21	5.204	V2681-04
 	descend	sinker	659.54	2682	 	36.698647	-122.05994	1721363	0.28	2005-07-08 18:10:51.0	Ventana	34.409	02:03:56:01	5.225	V2682-03
 	descend	Appendicularia	526.79	2683	 	36.701477	-122.04913	1756912	0.56	2005-07-11 17:42:10.0	Ventana	34.319	01:26:17:15	6.262	V2683-02
 	ascend	Vitreosalpa gemini	536.39	2682	 	36.698334	-122.06283	1723635	0.43	2005-07-08 21:10:15.0	Ventana	34.347	05:01:57:05	6.004	V2682-06
 	transect	Mesomyaria	1000.13	2669	http://search.mbari.org/ARCHIVE/frameGrabs/Ventana/images/2669/01_02_14_13.jpg	36.73094	-122.233734	1683941	0.45	2005-05-25 18:40:13.0	Ventana	34.523	01:02:14:13	3.911	V2669-02
 	transect	Psolus squamatus	399.86	2687	 	36.78805	-122.12155	1809157	1.13	2005-07-13 17:36:17.0	Ventana	34.242	01:02:39:20	7.271	V2687-02
 	transect	doliolenetta	800.86	2681	 	36.69687	-122.05291	2498267	0.31	2005-07-07 19:02:01.0	Ventana	34.474	02:31:43:12	4.507	V2681-03HD
 	ascend	Appendicularia	892.46	2682	 	36.698235	-122.05842	1723213	0.35	2005-07-08 20:14:48.0	Ventana	34.495	04:06:57:20	4.276	V2682-05
 	transect	Rathbunaster californicus	201.04	2696	 	36.805256	-122.12819	1813609	1.5	2005-08-01 18:04:14.0	Ventana	34.21	01:32:06:00	8.668	V2696-02
 	transect	Solmissus	300.43	2681	 	36.697178	-122.05267	2492341	1.23	2005-07-07 17:24:18.0	Ventana	34.234	00:55:24:16	7.397	V2681-01HD
 	descend	Mysidae	1132.25	2682	 	36.698204	-122.059204	1722161	0.58	2005-07-08 19:12:28.0	Ventana	34.556	03:05:05:26	3.581	V2682-04
 	transect	Mesomyaria	1000.02	2669	 	36.731705	-122.24386	1733983	0.41	2005-05-25 19:49:27.0	Ventana	34.51	02:10:58:16	4.069	V2669-03
 	transect	Salpida	400.77	2681	 	36.69737	-122.05303	2493139	0.79	2005-07-07 17:47:49.0	Ventana	34.279	01:18:13:07	6.663	V2681-02HD
 	transect	Gastropoda sp.2	999.99	2669	 	36.731056	-122.23925	1694734	0.43	2005-05-25 19:22:43.0	Ventana	34.516	01:44:40:26	3.981	V2669-02
 	transect	Mediaster	 	2687	 	 	 	1807307	 	2005-07-13 17:05:30.0	Ventana	 	00:32:23:23	 	V2687-01
 	transect	Mediaster	 	2687	 	 	 	1812465	 	2005-07-13 20:40:34.0	Ventana	 	04:05:32:00	 	V2687-04
 	transect	Ophiuroidea	1000.12	2669	 	36.73142	-122.236824	1686958	0.44	2005-05-25 19:04:30.0	Ventana	34.519	01:26:29:05	3.945	V2669-02
 	transect	Mesomyaria	800.97	2674	 	36.752613	-122.2019	1799139	0.34	2005-06-08 17:38:35.0	Ventana	34.491	00:23:08:21	4.389	V2674-01
 	transect	Psolus squamatus	 	2687	 	 	 	1810255	 	2005-07-13 19:12:48.0	Ventana	 	02:38:32:15	 	V2687-03
 	transect	Porifera sp. 1	 	2687	 	 	 	1812811	 	2005-07-13 20:58:58.0	Ventana	 	04:23:28:02	 	V2687-05
 	descend	Hastigerinella digitata	257.76	2693	 	36.69825	-122.06174	1758416	1.42	2005-07-25 19:27:23.0	Ventana	34.249	02:07:00:03	8.302	V2693-03
 	transect	Allocentrotus fragilis	 	2687	 	 	 	1808811	 	2005-07-13 17:29:57.0	Ventana	 	00:56:49:21	 	V2687-01
 	transect	Porifera sp. 1	 	2687	 	 	 	1810661	 	2005-07-13 19:27:22.0	Ventana	 	02:53:05:25	 	V2687-03
 	ascend	Poeobius meseres	890.87	2681	 	36.698116	-122.05502	1717317	0.36	2005-07-07 19:50:09.557	Ventana	34.504	03:19:12:22	4.221	V2681-04
 	transect	Mesomyaria	 	2669	 	 	 	1737667	 	2005-05-25 13:55:45.0	Ventana	 	03:16:32:20	 	V2669-04
 	transect	Chaetognatha	300.45	2681	 	36.69811	-122.05344	2492041	1.24	2005-07-07 17:21:07.0	Ventana	34.233	00:52:14:17	7.409	V2681-01HD
 	transect	Phyllospadix	999.68	2669	 	36.73101	-122.23132	1683618	0.45	2005-05-25 18:25:55.0	Ventana	34.523	00:48:21:05	3.913	V2669-01
 	ascend	Calycophorae	254.47	2681	 	36.69816	-122.05543	1719213	1.46	2005-07-07 21:25:26.567	Ventana	34.222	04:53:45:14	8.004	V2681-05
 	descend	Aegina	926.07	2683	 	36.70367	-122.04861	1757304	0.38	2005-07-11 19:06:59.0	Ventana	34.509	02:47:21:20	4.183	V2683-03
 	ascend	Haliscera	263.41	2681	 	36.69898	-122.05608	1718738	1.42	2005-07-07 21:17:20.433	Ventana	34.231	04:45:39:09	7.95	V2681-05
 	transect	Mesomyaria	998.71	2669	 	36.73286	-122.25204	1737307	0.4	2005-05-25 20:45:11.0	Ventana	34.509	03:06:00:08	4.074	V2669-04
 	ascend	Aegina	458.66	2683	 	36.704285	-122.05056	1758010	0.75	2005-07-11 21:17:53.0	Ventana	34.289	04:50:44:17	6.63	V2683-05
 	transect	Mesomyaria	1000.03	2669	 	36.731236	-122.23825	1688838	0.43	2005-05-25 19:16:40.0	Ventana	34.517	01:38:39:01	3.957	V2669-02
 	transect	Phyllospadix	802.66	2674	 	36.752228	-122.20644	1799937	0.36	2005-06-08 18:01:54.0	Ventana	34.489	00:46:26:20	4.343	V2674-01
 	descend	Haliscera	368.18	2682	 	36.698463	-122.06003	1720657	0.97	2005-07-08 17:34:08.0	Ventana	34.261	01:27:38:25	7.03	V2682-02
 	transect	Chaetognatha	1000.97	2681	 	36.69547	-122.051476	2498613	0.48	2005-07-07 19:24:56.0	Ventana	34.534	02:54:37:00	3.849	V2681-03HD
 	transect	Chionoecetes tanneri	999.26	2669	 	36.731422	-122.236275	1684716	0.44	2005-05-25 18:59:39.0	Ventana	34.517	01:21:39:05	3.943	V2669-02
 	ascend	Leuroglossus stilbius	264.91	2681	 	36.699524	-122.05448	1718415	1.4	2005-07-07 21:08:20.367	Ventana	34.236	04:36:40:09	7.898	V2681-05
 	ascend	sinker	378.28	2693	 	36.695908	-122.06061	1758778	1.19	2005-07-25 20:50:26.0	Ventana	34.232	03:15:00:08	7.138	V2693-04
 	transect	Psolus squamatus	 	2687	 	 	 	1807713	 	2005-07-13 17:24:04.0	Ventana	 	00:50:56:28	 	V2687-01
 	transect	Henricia sanguinolenta	 	2687	 	 	 	1811759	 	2005-07-13 20:24:42.0	Ventana	 	03:49:40:20	 	V2687-04
 	transect	Microstomus pacificus	198.79	2696	 	36.803738	-122.12481	1813286	1.53	2005-08-01 17:31:14.0	Ventana	34.206	00:59:30:27	8.642	V2696-01
 	ascend	Copepoda	1185.4	2683	 	36.707367	-122.04785	1757710	0.71	2005-07-11 20:24:23.0	Ventana	34.572	03:58:44:21	3.367	V2683-04
 	transect	Sebastes diploproa	 	2687	 	 	 	1810961	 	2005-07-13 19:44:26.0	Ventana	 	03:09:27:14	 	V2687-04
 	ascend	Nanomia	200.7	2693	 	36.69084	-122.0627	1759184	1.7	2005-07-25 21:25:42.0	Ventana	34.191	03:50:14:21	8.939	V2693-04
 	transect	Lycenchelys camchatica	801.58	2674	 	36.750954	-122.218575	1803591	0.35	2005-06-08 19:00:42.0	Ventana	34.486	01:44:45:00	4.373	V2674-02
 	ascend	Copepoda	335.95	2681	 	36.699463	-122.055275	1718115	1.15	2005-07-07 20:54:28.833	Ventana	34.245	04:22:49:04	7.297	V2681-05
 	transect	Asteronyx loveni	998.78	2669	 	36.73109	-122.23112	1683535	0.45	2005-05-25 18:23:24.0	Ventana	34.521	00:45:51:02	3.915	V2669-01
 	transect	Poeobius meseres	600.59	2681	 	36.69681	-122.05253	2493785	0.3	2005-07-07 18:23:49.0	Ventana	34.388	01:54:11:04	5.477	V2681-02HD
 	transect	Neptunea amianta	602.05	2680	 	36.791515	-122.232956	1806855	0.36	2005-06-27 20:28:36.0	Ventana	34.377	03:07:11:24	5.588	V2680-03
 	descend	Bolinopsis	224.12	2681	 	36.69851	-122.05351	1713580	1.5	2005-07-07 17:15:15.577	Ventana	34.216	00:46:23:11	8.215	V2681-01
 	ascend	Appendicularia	933.41	2681	 	36.69766	-122.054115	1716971	0.41	2005-07-07 19:43:40.527	Ventana	34.513	03:12:44:03	4.084	V2681-04
 	transect	Mesomyaria	800.7	2674	 	36.75107	-122.21777	1803531	0.35	2005-06-08 18:57:18.0	Ventana	34.49	01:41:21:08	4.361	V2674-02
 	transect	Chionoecetes tanneri	600.41	2680	 	36.786182	-122.2309	1805863	0.36	2005-06-27 19:35:19.0	Ventana	34.378	02:13:59:00	5.599	V2680-03
 	transect	Chaetognatha	400.74	2681	 	36.696976	-122.05259	2493079	0.79	2005-07-07 17:46:12.0	Ventana	34.277	01:16:36:18	6.658	V2681-02HD
 	transect	Appendicularia	500.56	2681	 	36.697002	-122.052605	2493545	0.44	2005-07-07 17:59:12.0	Ventana	34.344	01:29:35:06	6.025	V2681-02HD
 	transect	Ophiuroidea	999.04	2669	 	36.731422	-122.23621	1684679	0.44	2005-05-25 18:59:06.0	Ventana	34.52	01:21:05:24	3.94	V2669-02
 	descend	Appendicularia	952.54	2681	 	36.69466	-122.050385	1716528	0.43	2005-07-07 19:18:34.137	Ventana	34.518	02:48:15:17	4.01	V2681-03
 	descend	Nanomia	161.35	2682	 	36.699875	-122.06075	1719919	2.24	2005-07-08 16:19:09.0	Ventana	34.118	00:13:14:04	8.347	V2682-01
 	transect	Caridea sp.1	599.91	2680	 	36.778347	-122.22351	1804389	0.36	2005-06-27 17:57:14.0	Ventana	34.377	00:37:21:03	5.595	V2680-01
 	cruise	Sebastes	417.87	2688	 	36.80594	-122.01919	1677722	0.92	2005-07-14 17:48:32.0	Ventana	34.265	01:34:15:14	6.943	V2688-02
 	transect	Gastropoda sp.2	999.58	2669	 	36.730583	-122.229126	1695034	0.45	2005-05-25 18:07:40.0	Ventana	34.522	00:30:07:18	3.909	V2669-01
 	ascend	Appendicularia	258.67	2681	 	36.69877	-122.056854	1719084	1.42	2005-07-07 21:22:21.0	Ventana	34.228	04:50:40:02	7.961	V2681-05
 	descend	Chuniphyes	1022.95	2682	 	36.698322	-122.0592	1722032	0.46	2005-07-08 19:01:36.0	Ventana	34.527	02:54:38:05	3.895	V2682-03
 	transect	Ophiuroidea	997.44	2669	 	36.730595	-122.22724	1649130	0.45	2005-05-25 17:55:52.0	Ventana	34.521	00:18:21:01	3.909	V2669-01
 	descend	Chaetognatha	887.48	2682	 	36.69827	-122.05944	1721769	0.33	2005-07-08 18:50:37.0	Ventana	34.492	02:43:39:12	4.331	V2682-03
 	descend	Appendicularia	318.28	2681	 	36.695637	-122.05127	1713663	1.17	2005-07-07 17:30:29.633	Ventana	34.237	01:01:36:29	7.29	V2681-01
 	transect	Calycophorae	300.44	2681	 	36.697002	-122.05252	2492401	1.23	2005-07-07 17:24:54.0	Ventana	34.234	00:56:00:04	7.395	V2681-01HD
 	transect	Mesomyaria	1000.48	2669	 	36.731293	-122.24151	1689807	0.4	2005-05-25 19:36:39.0	Ventana	34.508	01:58:36:08	4.091	V2669-02
 	transect	Rathbunaster californicus	197.28	2696	 	36.80342	-122.12374	1813203	1.56	2005-08-01 17:19:27.0	Ventana	34.196	00:47:45:09	8.631	V2696-01
 	ascend	Appendicularia	258.17	2681	 	36.697838	-122.05522	1719476	 	2005-07-07 21:29:59.0	Ventana	 	05:06:29:02	 	V2681-05
 	transect	Mesomyaria	1000.24	2669	 	36.732014	-122.24726	1735863	0.41	2005-05-25 20:13:42.0	Ventana	34.51	02:35:11:10	4.063	V2669-03
 	ascend	Chaetognatha	370.93	2693	 	36.69642	-122.0607	1758679	1.2	2005-07-25 20:27:47.0	Ventana	34.232	03:07:20:16	7.164	V2693-03
 	descend	Appendicularia	353.73	2683	 	36.701313	-122.049904	1756566	1.18	2005-07-11 16:56:44.0	Ventana	34.23	00:44:24:11	7.179	V2683-01
 	transect	Psolus squamatus	 	2687	 	 	 	1810901	 	2005-07-13 19:41:52.0	Ventana	 	03:06:54:02	 	V2687-04
 	cruise	Ophiodon elongatus	97.16	2688	 	36.813923	-122.01844	1679489	1.93	2005-07-14 21:15:11.0	Ventana	34.101	04:59:24:16	8.901	V2688-05
 	ascend	Cydippida	176.6	2693	 	36.69063	-122.06295	1759244	1.95	2005-07-25 21:29:58.0	Ventana	34.128	03:54:28:29	8.878	V2693-04
 	transect	molt	100.5	2681	 	36.699814	-122.05428	2489739	2.13	2005-07-07 16:49:15.0	Ventana	34.067	00:20:24:18	9.155	V2681-01HD
 	descend	Copepoda	502.91	2683	 	36.70146	-122.049126	1756829	0.68	2005-07-11 17:36:32.0	Ventana	34.306	01:20:39:20	6.464	V2683-02
 	transect	Mediaster	 	2687	 	 	 	1811842	 	2005-07-13 20:26:53.0	Ventana	 	03:51:51:21	 	V2687-04
 	transect	Nanomia bijuga	200.48	2681	 	36.69828	-122.05329	2490597	1.72	2005-07-07 17:07:45.0	Ventana	34.195	00:38:52:16	8.334	V2681-01HD
 	descend	Cyclothone	342.34	2682	 	36.698772	-122.06056	1720182	1.05	2005-07-08 17:12:19.0	Ventana	34.253	01:05:52:09	7.141	V2682-02
 	cruise	Merluccius productus	503.4	2694	 	36.78423	-122.20061	1676165	0.76	2005-07-27 17:09:01.0	Ventana	34.288	00:02:09:26	6.49	V2694-01
 	transect	Psolus squamatus	 	2687	 	 	 	1809992	 	2005-07-13 18:49:56.0	Ventana	 	02:15:41:24	 	V2687-03
 	transect	Calycophorae	300.45	2681	 	36.69823	-122.0535	2491981	1.24	2005-07-07 17:20:40.0	Ventana	34.232	00:51:46:27	7.415	V2681-01HD
 	cruise	Rathbunaster californicus	446.9	2688	 	36.803574	-122.01808	1677639	0.9	2005-07-14 17:37:44.0	Ventana	34.268	01:23:28:03	6.898	V2688-02
 	transect	Ceriantharia sp. 2	998.77	2669	 	36.732845	-122.25185	1737247	0.4	2005-05-25 20:44:08.0	Ventana	34.509	03:04:56:07	4.075	V2669-04
 	transect	Physonectae	1000.96	2681	 	36.696175	-122.05239	2498673	0.47	2005-07-07 19:28:33.0	Ventana	34.531	02:58:12:01	3.871	V2681-03HD
 	transect	Psolus squamatus	 	2687	 	 	 	1808894	 	2005-07-13 17:31:27.0	Ventana	 	00:58:19:17	 	V2687-01
 	cruise	Remote Instrument Node	124.3	2672	http://search.mbari.org/ARCHIVE/frameGrabs/Ventana/images/2672/00_23_37_25.jpg	36.803104	-121.80558	20003836	2.66	2005-06-03 15:04:17.0	Ventana	33.957	00:23:37:25	9.312	V2672-01
 	transect	Actiniaria sp. 1	999.33	2669	 	36.731018	-122.23179	1683678	0.45	2005-05-25 18:28:52.0	Ventana	34.523	00:51:18:01	3.912	V2669-01
 	ascend	Copepoda	851.07	2681	 	36.698563	-122.055786	1717377	0.33	2005-07-07 19:55:03.133	Ventana	34.492	03:24:05:15	4.35	V2681-04
 	descend	Nanomia	391.71	2683	 	36.701477	-122.049736	1756626	0.99	2005-07-11 16:58:55.0	Ventana	34.258	00:46:35:20	6.991	V2683-01
 	ascend	Nanomia	408.63	2681	 	36.699238	-122.05438	1717972	0.82	2005-07-07 20:46:46.6	Ventana	34.279	04:15:07:15	6.764	V2681-05
 	transect	Rathbunaster californicus	203.69	2696	 	36.807518	-122.131165	1813849	1.46	2005-08-01 18:42:38.0	Ventana	34.221	02:09:43:08	8.621	V2696-03
 	transect	Glyptocephalus zachirus	 	2687	 	 	 	1810195	 	2005-07-13 19:07:52.0	Ventana	 	02:33:36:11	 	V2687-03
 	cruise	line	488.33	2688	http://search.mbari.org/ARCHIVE/frameGrabs/Ventana/images/2688/01_11_29_21.jpg	36.80173	-122.01846	20005137	0.78	2005-07-14 17:25:41.0	Ventana	34.29	01:11:29:21	6.637	V2688-02
 	descend	Appendicularia	813.44	2683	 	36.70276	-122.04865	1757175	0.36	2005-07-11 18:07:40.0	Ventana	34.472	01:51:44:11	4.527	V2683-02
 	transect	Phyllospadix	196.46	2696	http://search.mbari.org/ARCHIVE/frameGrabs/Ventana/images/2696/00_38_12_12.jpg	36.803185	-122.12293	1813143	1.56	2005-08-01 17:09:54.0	Ventana	34.196	00:38:12:12	8.625	V2696-01
 	cruise	Lycodapus	605.1	2688	 	36.796066	-122.02022	1677376	0.45	2005-07-14 16:38:55.533	Ventana	34.381	00:25:14:15	5.545	V2688-01
 	cruise	Ophiodon elongatus	105.25	2688	 	36.81374	-122.01809	1679226	1.97	2005-07-14 19:32:45.933	Ventana	34.091	03:17:33:23	8.924	V2688-04
 	ascend	Mysidae	1146.64	2683	 	36.708126	-122.04897	1757770	0.67	2005-07-11 20:37:55.0	Ventana	34.565	04:12:15:02	3.472	V2683-04
 	descend	Nanomia	159.25	2681	 	36.69828	-122.05329	1713520	2.03	2005-07-07 17:02:26.66	Ventana	34.139	00:33:35:07	8.649	V2681-01
 	ascend	Leuroglossus stilbius	478.9	2682	 	36.698322	-122.06324	1723695	0.55	2005-07-08 21:16:13.0	Ventana	34.315	05:07:52:23	6.286	V2682-06
 	stationary	Merluccius productus	502.36	2694	 	36.784622	-122.20045	1676670	0.73	2005-07-27 20:32:49.0	Ventana	34.288	03:04:56:10	6.473	V2694-03
 	transect	Phyllospadix	 	2687	 	 	 	1812202	 	2005-07-13 20:28:56.0	Ventana	 	03:53:54:27	 	V2687-04
 	ascend	Appendicularia	714.13	2681	 	36.698704	-122.05512	1717580	0.29	2005-07-07 20:19:17.083	Ventana	34.431	03:48:18:14	5.008	V2681-04
 	ascend	Appendicularia	896.02	2681	 	36.698055	-122.05489	1717174	0.37	2005-07-07 19:49:26.017	Ventana	34.505	03:18:29:07	4.209	V2681-04
 	transect	Phyllospadix	 	2687	 	 	 	1809803	 	2005-07-13 18:42:39.0	Ventana	 	02:08:25:03	 	V2687-03
 	transect	Sebastolobus	997.19	2669	 	36.73115	-122.23091	1683475	0.45	2005-05-25 18:21:52.0	Ventana	34.519	00:44:18:26	3.927	V2669-01
 	transect	Mesomyaria	1000.27	2669	 	36.731236	-122.24127	1689401	0.4	2005-05-25 19:35:23.0	Ventana	34.509	01:57:20:15	4.085	V2669-02
 	cruise	Lycodapus	1231.41	2683	 	36.70585	-122.04776	1757567	0.74	2005-07-11 19:57:15.0	Ventana	34.575	03:31:39:03	3.299	V2683-04
 	transect	Calliostoma platinum	 	2687	 	 	 	1812751	 	2005-07-13 20:55:59.0	Ventana	 	04:20:29:19	 	V2687-05
 	descend	Chaetognatha	294.7	2682	 	36.699284	-122.06062	1720122	1.21	2005-07-08 16:54:10.0	Ventana	34.241	00:48:12:05	7.435	V2682-01
 	cruise	Rathbunaster californicus	476.87	2688	 	36.802086	-122.01827	1677579	0.8	2005-07-14 17:28:10.0	Ventana	34.289	01:13:54:08	6.678	V2688-02
 	transect	Psolus squamatus	399.87	2687	 	36.788136	-122.121635	1809254	1.13	2005-07-13 17:37:40.0	Ventana	34.243	01:04:02:17	7.26	V2687-02
 	transect	Mesomyaria	998.36	2669	 	36.731018	-122.2303	1651280	0.45	2005-05-25 18:16:51.0	Ventana	34.522	00:39:17:18	3.912	V2669-01
 	descend	Appendicularia	564.04	2682	 	36.698635	-122.0598	1720920	0.34	2005-07-08 18:06:16.0	Ventana	34.373	01:59:45:08	5.622	V2682-02
 	descend	Appendicularia	278.08	2683	 	36.701	-122.05025	1756469	1.36	2005-07-11 16:52:19.0	Ventana	34.232	00:39:58:25	7.809	V2683-01
 	transect	Mesomyaria	999.46	2669	 	36.731083	-122.2351	1684273	0.45	2005-05-25 18:51:19.0	Ventana	34.521	01:13:19:07	3.921	V2669-02
 	ascend	Appendicularia	594.19	2682	 	36.69878	-122.060844	1723476	0.38	2005-07-08 20:48:24.0	Ventana	34.373	04:40:32:23	5.656	V2682-05
 	transect	Phyllospadix	1000.2	2669	 	36.730984	-122.23316	1683881	0.45	2005-05-25 18:37:43.0	Ventana	34.523	01:00:09:00	3.909	V2669-01
 	transect	Stomphia	399.84	2687	http://search.mbari.org/ARCHIVE/frameGrabs/Ventana/images/2687/01_02_17_21.jpg	36.788036	-122.12153	1809097	1.13	2005-07-13 17:35:55.0	Ventana	34.244	01:02:17:21	7.27	V2687-02
 	ascend	Copepoda	910.11	2681	 	36.697865	-122.05457	1717031	0.37	2005-07-07 19:47:21.067	Ventana	34.503	03:16:23:28	4.199	V2681-04
 	ascend	Aegina	939.16	2682	 	36.69778	-122.05851	1723070	0.42	2005-07-08 20:11:07.0	Ventana	34.516	04:03:17:17	4.057	V2682-05
 	transect	Allocentrotus fragilis	 	2687	 	 	 	1810601	 	2005-07-13 19:23:41.0	Ventana	 	02:49:24:26	 	V2687-03
 	descend	Myctophidae	623.49	2682	 	36.698624	-122.05982	1721266	0.29	2005-07-08 18:08:26.0	Ventana	34.397	02:01:31:19	5.369	V2682-03
 	transect	Phyllospadix	999.38	2669	 	36.731262	-122.235855	1684416	0.44	2005-05-25 18:56:28.0	Ventana	34.52	01:18:28:02	3.932	V2669-02
 	descend	Atolla wyvillei	911.01	2683	http://search.mbari.org/ARCHIVE/frameGrabs/Ventana/images/2683/02_30_50_12.jpg	36.703472	-122.04846	20004948	0.38	2005-07-11 18:50:27.5	Ventana	34.502	02:30:50:12	4.199	V2683-03
 	transect	Gastropoda	197.79	2696	 	36.80266	-122.12168	1813000	1.52	2005-08-01 16:51:09.0	Ventana	34.205	00:19:28:24	8.56	V2696-01
 	transect	Zaniolepididae	204.15	2696	 	36.80541	-122.12846	1813706	1.49	2005-08-01 18:17:24.0	Ventana	34.212	01:45:15:24	8.635	V2696-02
 	endtransect	physical object	 	2687	 	 	 	1812405	 	2005-07-13 20:37:03.0	Ventana	 	04:02:01:07	 	V2687-04
 	transect	Stomphia	999.82	2669	 	36.731773	-122.24447	1734329	0.4	2005-05-25 19:52:40.0	Ventana	34.508	02:14:11:03	4.075	V2669-03
 	descend	Nanomia	148.13	2683	 	36.700703	-122.05165	1756266	1.69	2005-07-11 16:24:41.0	Ventana	34.172	00:12:23:04	8.852	V2683-01
 	transect	Psolus squamatus	 	2687	http://search.mbari.org/ARCHIVE/frameGrabs/Ventana/images/2687/03_18_12_18.jpg	 	 	1811104	 	2005-07-13 19:53:11.0	Ventana	 	03:18:12:18	 	V2687-04
 	transect	Mesomyaria	799.25	2674	 	36.75175	-122.212296	1801192	0.35	2005-06-08 18:29:08.0	Ventana	34.488	01:13:12:20	4.335	V2674-02
 	transect	Porifera sp. 1	 	2687	 	 	 	1807653	 	2005-07-13 17:20:28.0	Ventana	 	00:47:20:27	 	V2687-01
 	transect	molt	100.52	2681	 	36.69983	-122.05429	2489596	2.12	2005-07-07 16:45:46.0	Ventana	34.068	00:16:55:04	9.15	V2681-01HD
 	transect	Mesomyaria	800.21	2674	 	36.752537	-122.20351	1799342	0.35	2005-06-08 17:46:20.0	Ventana	34.486	00:30:53:02	4.368	V2674-01
 	transect	molt	100.49	2681	 	36.699436	-122.05404	2489799	2.13	2005-07-07 16:50:58.0	Ventana	34.068	00:22:06:10	9.146	V2681-01HD
 	transect	Psolus squamatus	 	2687	 	 	 	1810398	 	2005-07-13 19:16:59.0	Ventana	 	02:42:43:05	 	V2687-03
 	descend	Crustacea	838.52	2681	 	36.696976	-122.053215	1716468	0.32	2005-07-07 19:04:08.9	Ventana	34.487	02:33:51:06	4.358	V2681-03
 	ascend	Poeobius meseres	351.99	2683	 	36.70373	-122.050606	1758070	1.11	2005-07-11 21:22:22.0	Ventana	34.24	04:55:13:24	7.117	V2683-05
 	transect	Rathbunaster californicus	200.16	2696	 	36.80499	-122.127716	1813549	1.51	2005-08-01 17:58:57.0	Ventana	34.212	01:26:49:05	8.677	V2696-02
 	ascend	Appendicularia	463.63	2681	 	36.699005	-122.0542	1717769	0.57	2005-07-07 20:36:19.543	Ventana	34.318	04:05:19:26	6.325	V2681-04
 	transect	Pennatulacea sp.1	599.94	2680	 	36.777927	-122.2231	1804329	0.36	2005-06-27 17:52:23.0	Ventana	34.379	00:32:30:25	5.588	V2680-01
 	transect	Phyllospadix	998.66	2669	 	36.731148	-122.23411	1684070	0.45	2005-05-25 18:42:42.0	Ventana	34.522	01:04:43:05	3.916	V2669-02
 	descend	Copepoda	183.46	2693	 	36.696064	-122.05819	1758273	1.85	2005-07-25 18:12:46.0	Ventana	34.171	00:53:17:07	8.87	V2693-01
 	transect	Poeobius meseres	600.53	2681	 	36.69761	-122.05345	2493845	0.3	2005-07-07 18:27:10.0	Ventana	34.389	01:57:31:16	5.476	V2681-02HD
 	cruise	Laminariales	103.42	2676	 	36.808773	-122.03643	1677076	1.95	2005-06-14 18:52:08.0	Ventana	34.151	02:30:54:09	8.466	V2676-03
 	transect	Ophiuroidea	999.92	2669	 	36.731888	-122.24577	1735457	0.4	2005-05-25 20:02:15.0	Ventana	34.509	02:23:46:03	4.081	V2669-03
 	transect	Calycophorae	300.42	2681	 	36.69627	-122.051895	2492544	1.23	2005-07-07 17:27:16.0	Ventana	34.234	00:58:22:25	7.399	V2681-01HD
 	ascend	Leuroglossus stilbius	273.3	2681	 	36.69972	-122.05493	1718318	1.4	2005-07-07 21:03:54.967	Ventana	34.229	04:32:14:20	7.82	V2681-05
 	descend	Appendicularia	687.06	2682	 	36.698654	-122.05997	1721423	0.28	2005-07-08 18:13:16.0	Ventana	34.413	02:06:19:27	5.167	V2682-03
 	transect	Mesomyaria	999.26	2669	 	36.73049	-122.2287	1650920	0.45	2005-05-25 18:04:51.0	Ventana	34.522	00:27:19:01	3.906	V2669-01
 	ascend	Aegina	656.88	2683	 	36.70531	-122.04983	1757913	0.28	2005-07-11 21:08:44.0	Ventana	34.422	04:41:36:20	5.161	V2683-05
 	transect	Mesomyaria	1000.13	2669	 	36.731083	-122.239784	1689198	0.41	2005-05-25 19:26:12.0	Ventana	34.51	01:48:10:15	4.062	V2669-02
 	transect	Gastropoda sp.2	998.32	2669	 	36.730553	-122.22829	1694937	0.45	2005-05-25 18:02:30.0	Ventana	34.521	00:24:58:10	3.909	V2669-01
 	transect	Mediaster	 	2687	 	 	 	1811307	 	2005-07-13 20:06:21.0	Ventana	 	03:31:20:22	 	V2687-04
 	ascend	Chaetognatha	368.72	2693	 	36.694916	-122.06097	1758838	1.24	2005-07-25 20:59:02.0	Ventana	34.235	03:23:35:07	7.336	V2693-04
 	transect	Phyllospadix	799.0	2674	 	36.751427	-122.21481	1801381	0.35	2005-06-08 18:43:24.0	Ventana	34.489	01:27:27:18	4.336	V2674-02
 	transect	Phyllospadix	802.86	2674	 	36.751816	-122.21013	1800989	0.36	2005-06-08 18:20:27.0	Ventana	34.49	01:04:32:06	4.316	V2674-02
 	transect	Mediaster	 	2687	 	 	 	1811699	 	2005-07-13 20:20:56.0	Ventana	 	03:45:54:29	 	V2687-04
 	transect	Caridea sp.1	999.33	2669	 	36.731018	-122.23214	1695094	0.45	2005-05-25 18:30:42.0	Ventana	34.521	00:53:08:02	3.916	V2669-01
 	transect	Ceriantharia sp. 2	1000.63	2669	 	36.73208	-122.247826	1736163	0.4	2005-05-25 20:17:31.0	Ventana	34.508	02:39:01:29	4.086	V2669-03
 	descend	Appendicularia	991.11	2683	 	36.704124	-122.04923	1757364	0.43	2005-07-11 19:15:26.0	Ventana	34.516	02:55:49:03	4.02	V2683-03
 	ascend	Appendicularia	795.3	2682	 	36.698654	-122.05891	1723273	0.33	2005-07-08 20:25:19.0	Ventana	34.467	04:17:29:20	4.651	V2682-05
 	descend	Appendicularia	405.0	2682	 	36.698257	-122.059845	1720717	0.81	2005-07-08 17:38:21.0	Ventana	34.262	01:31:52:04	6.579	V2682-02
 	transect	Nanomia bijuga	200.44	2681	 	36.69842	-122.0535	2491446	1.68	2005-07-07 17:14:17.0	Ventana	34.2	00:45:23:08	8.341	V2681-01HD
 	cruise	Pleuronectiformes	457.42	2676	 	36.802822	-122.02931	1676308	0.59	2005-06-14 16:35:56.0	Ventana	34.326	00:20:05:08	6.241	V2676-01
 	descend	Appendicularia	356.67	2682	 	36.698616	-122.06039	1720325	1.01	2005-07-08 17:22:00.0	Ventana	34.253	01:15:31:02	7.089	V2682-02
 	transect	Pennatulacea sp.1	601.01	2680	 	36.785492	-122.23062	1805803	0.36	2005-06-27 19:28:27.0	Ventana	34.376	02:07:29:19	5.602	V2680-02
 	transect	Ceriantharia sp. 1	602.55	2680	 	36.78988	-122.23261	1806735	0.35	2005-06-27 20:14:42.0	Ventana	34.379	02:53:19:11	5.587	V2680-03
 	transect	Lycenchelys camchatica	998.1	2669	 	36.733044	-122.25287	1737510	0.4	2005-05-25 20:49:54.0	Ventana	34.509	03:10:42:04	4.074	V2669-04
 	cruise	Actiniaria	293.95	2688	 	36.808876	-122.02033	1677865	1.37	2005-07-14 18:14:14.0	Ventana	34.216	01:59:55:18	7.878	V2688-02
 	descend	Nanomia	173.9	2693	 	36.696117	-122.058044	1758236	1.95	2005-07-25 18:03:56.0	Ventana	34.142	00:44:25:13	8.899	V2693-01
 	transect	Phyllospadix	599.44	2680	 	36.77941	-122.22449	1804509	0.36	2005-06-27 18:09:34.0	Ventana	34.378	00:49:40:25	5.598	V2680-01
 	transect	bolinopsis	500.62	2681	 	36.695965	-122.051445	2493642	0.43	2005-07-07 18:03:35.0	Ventana	34.348	01:33:58:12	6.009	V2681-02HD
 	transect	Mediaster	 	2687	 	 	 	1812308	 	2005-07-13 20:31:50.0	Ventana	 	03:56:48:17	 	V2687-04
 	transect	Euphausia	200.36	2681	 	36.69829	-122.05334	2491063	1.69	2005-07-07 17:11:20.0	Ventana	34.196	00:42:27:14	8.332	V2681-01HD
 	transect	Chionoecetes tanneri	603.3	2680	 	36.78902	-122.23249	1805983	0.36	2005-06-27 20:06:06.0	Ventana	34.38	02:44:43:26	5.588	V2680-03
 	transect	Mesomyaria	1000.28	2669	 	36.73123	-122.241	1689364	0.41	2005-05-25 19:34:02.0	Ventana	34.511	01:55:59:08	4.054	V2669-02
 	transect	Sebastolobus altivelis	799.38	2674	 	36.752678	-122.200905	1774157	0.31	2005-06-08 17:33:06.0	Ventana	34.46	00:17:39:17	4.508	V2674-01
 	transect	Phyllospadix	799.49	2674	 	36.752457	-122.2052	1799734	0.35	2005-06-08 17:55:57.0	Ventana	34.49	00:40:29:28	4.357	V2674-01
 	transect	Chionoecetes tanneri	799.92	2674	 	36.752457	-122.20494	1799688	0.35	2005-06-08 17:54:19.0	Ventana	34.488	00:38:52:06	4.354	V2674-01
 	transect	Poeobius meseres	600.6	2681	 	36.695896	-122.05146	2493688	0.3	2005-07-07 18:19:38.0	Ventana	34.387	01:50:00:28	5.496	V2681-02HD
 	descend	Dosidicus gigas	502.96	2682	 	36.6986	-122.05978	1720837	0.44	2005-07-08 17:59:52.0	Ventana	34.352	01:53:21:29	6.017	V2682-02
 	transect	Phyllospadix	805.9	2674	 	36.750385	-122.221756	1803757	0.34	2005-06-08 19:17:11.0	Ventana	34.486	02:01:12:23	4.405	V2674-02
 	transect	Neptunea amianta	800.11	2674	 	36.752098	-122.20877	1800809	0.35	2005-06-08 18:13:23.0	Ventana	34.489	00:57:54:19	4.334	V2674-01
 	transect	Rathbunaster californicus	196.51	2696	 	36.802944	-122.12235	1813060	1.55	2005-08-01 17:03:01.0	Ventana	34.2	00:31:19:21	8.608	V2696-01
 	descend	Cyclothone	1126.19	2683	 	36.705116	-122.048904	1757484	0.61	2005-07-11 19:31:33.0	Ventana	34.548	03:11:54:15	3.624	V2683-03
 	transect	Psolus squamatus	 	2687	 	 	 	1811187	 	2005-07-13 20:00:14.0	Ventana	 	03:25:14:12	 	V2687-04
 	transect	Caecosagitta macrocephala	800.94	2681	 	36.69529	-122.051094	2498110	0.32	2005-07-07 18:55:01.0	Ventana	34.475	02:24:42:23	4.495	V2681-03HD
 	ascend	Hormiphora	340.66	2693	 	36.693077	-122.06141	1758958	1.25	2005-07-25 21:11:32.0	Ventana	34.237	03:36:04:03	7.42	V2693-04
 	transect	Mesomyaria	999.86	2669	 	36.731014	-122.23251	1683761	0.45	2005-05-25 18:33:48.0	Ventana	34.521	00:56:14:01	3.915	V2669-01
 	ascend	Aegina	781.03	2681	 	36.698837	-122.05637	1717460	0.28	2005-07-07 20:05:20.4	Ventana	34.456	03:34:22:07	4.719	V2681-04
 	descend	Chaetognatha	332.15	2693	 	36.69712	-122.06006	1758559	1.29	2005-07-25 19:57:06.0	Ventana	34.238	02:36:41:04	7.584	V2693-03
 	ascend	Cydippida 2	949.0	2682	 	36.697693	-122.05848	1723033	0.43	2005-07-08 20:09:07.0	Ventana	34.517	04:01:16:09	4.032	V2682-05
 	transect	Mediaster	 	2687	http://search.mbari.org/ARCHIVE/frameGrabs/Ventana/images/2687/03_00_48_18.jpg	 	 	1810804	 	2005-07-13 19:35:05.0	Ventana	 	03:00:48:18	 	V2687-03
 	descend	Crustacea	593.48	2681	 	36.695686	-122.05108	1715633	0.32	2005-07-07 18:07:34.567	Ventana	34.379	01:37:56:01	5.551	V2681-02
 	transect	Mesomyaria	1000.13	2669	 	36.73175	-122.24495	1734486	0.4	2005-05-25 19:55:59.0	Ventana	34.509	02:17:30:05	4.075	V2669-03
 	transect	Chionoecetes tanneri	801.67	2674	 	36.752254	-122.20735	1800057	0.37	2005-06-08 18:06:44.0	Ventana	34.485	00:51:16:10	4.355	V2674-01
 	ascend	Calycophorae	717.39	2683	 	36.705948	-122.04881	1757867	0.28	2005-07-11 21:05:11.0	Ventana	34.453	04:38:03:18	4.75	V2683-05
 	transect	Allocentrotus fragilis	399.87	2687	 	36.78815	-122.12181	1809360	1.13	2005-07-13 17:40:02.0	Ventana	34.252	01:06:23:26	7.29	V2687-02
 	transect	Psolus squamatus	 	2687	 	 	 	1812631	 	2005-07-13 20:48:51.0	Ventana	 	04:13:21:20	 	V2687-05
 	transect	Euphausia	200.47	2681	 	36.69828	-122.05329	2490694	1.72	2005-07-07 17:08:19.0	Ventana	34.194	00:39:26:29	8.323	V2681-01HD
 	cruise	Rathbunaster californicus	91.22	2688	 	36.81631	-122.01622	1679369	2.03	2005-07-14 20:15:43.0	Ventana	34.091	04:00:27:27	8.923	V2688-04
 	descend	Appendicularia	466.62	2683	 	36.701653	-122.04936	1756732	0.77	2005-07-11 17:11:49.0	Ventana	34.287	00:59:27:12	6.654	V2683-01
 	transect	Caridea sp.1	598.41	2680	 	36.780975	-122.225914	1804832	0.35	2005-06-27 18:29:42.0	Ventana	34.38	01:08:48:09	5.585	V2680-02
 	cruise	LRJ Complex	501.44	2688	 	36.801163	-122.018616	1677542	0.71	2005-07-14 17:23:05.0	Ventana	34.316	01:08:50:02	6.512	V2688-02
 	transect	Aegina	700.66	2681	 	36.69635	-122.05227	2497741	0.28	2005-07-07 18:42:21.0	Ventana	34.435	02:12:04:22	4.954	V2681-03HD
 	transect	Nanomia bijuga	200.35	2681	 	36.69836	-122.05346	2491386	1.67	2005-07-07 17:13:54.0	Ventana	34.199	00:45:02:07	8.341	V2681-01HD
 	descend	Solmissus	307.87	2682	 	36.69946	-122.0607	1720085	1.15	2005-07-08 16:42:44.0	Ventana	34.239	00:36:47:16	7.3	V2682-01
 	transect	Phyllospadix	799.93	2674	 	36.7525	-122.20363	1799365	0.35	2005-06-08 17:47:13.0	Ventana	34.488	00:31:46:15	4.379	V2674-01
 	descend	Appendicularia	1183.51	2682	 	36.698246	-122.05785	1722341	0.66	2005-07-08 19:40:56.0	Ventana	34.569	03:33:31:19	3.414	V2682-04
 	transect	Sebastolobus	999.67	2669	 	36.731377	-122.23768	1687521	0.44	2005-05-25 19:11:55.0	Ventana	34.519	01:33:53:19	3.948	V2669-02
 	cruise	Sebastolobus altivelis	 	2680	 	 	 	1804080	 	2005-06-27 16:58:05.0	Ventana	 	00:14:28:29	 	V2680-01
 	cruise	Appendicularia	259.44	2676	 	36.805515	-122.02948	1676730	1.54	2005-06-14 17:36:17.0	Ventana	34.206	01:16:01:15	7.994	V2676-02
 	ascend	sinker	760.44	2681	 	36.69868	-122.05594	1717520	0.29	2005-07-07 20:11:59.933	Ventana	34.45	03:41:01:07	4.809	V2681-04
 	ascend	Calycophorae	258.17	2681	 	36.697838	-122.05522	1719393	 	2005-07-07 21:29:59.0	Ventana	 	05:03:21:18	 	V2681-05
 	descend	Calycophorae	589.32	2682	 	36.698647	-122.05982	1721220	0.36	2005-07-08 18:07:12.0	Ventana	34.386	02:00:16:13	5.497	V2682-03
 	transect	Appendicularia	300.43	2681	 	36.69664	-122.05222	2492507	1.23	2005-07-07 17:26:08.0	Ventana	34.233	00:57:14:21	7.398	V2681-01HD
 	transect	Cydippida 2	901.01	2681	 	36.695522	-122.0514	2498433	0.39	2005-07-07 19:13:14.0	Ventana	34.505	02:42:55:29	4.172	V2681-03HD
 	transect	Mesomyaria	801.62	2674	 	36.752193	-122.207886	1800117	0.35	2005-06-08 18:09:02.0	Ventana	34.49	00:53:34:09	4.328	V2674-01
 	transect	Phyllospadix	799.4	2674	 	36.75168	-122.2129	1801238	0.35	2005-06-08 18:31:18.0	Ventana	34.489	01:15:22:28	4.335	V2674-02
 	transect	Ceriantharia sp. 2	1000.21	2669	 	36.73168	-122.24345	1733840	0.41	2005-05-25 19:47:12.0	Ventana	34.511	02:08:43:25	4.069	V2669-03
 	transect	Mesomyaria	1000.36	2669	 	36.730907	-122.232834	1683821	0.45	2005-05-25 18:35:32.0	Ventana	34.521	00:57:57:23	3.911	V2669-01
 	transect	molt	100.57	2681	 	36.69983	-122.05429	2489559	2.13	2005-07-07 16:44:50.0	Ventana	34.068	00:16:00:13	9.145	V2681-01HD
 	transect	Rathbunaster californicus	203.54	2696	 	36.806377	-122.12993	1813752	1.48	2005-08-01 18:26:49.0	Ventana	34.213	01:54:40:06	8.634	V2696-02
 	descend	Nanomia	169.18	2683	 	36.7008	-122.051384	1756303	1.69	2005-07-11 16:32:13.0	Ventana	34.18	00:19:54:28	8.731	V2683-01
 	transect	Nanomia bijuga	200.39	2681	 	36.6983	-122.05337	2491123	1.69	2005-07-07 17:12:06.0	Ventana	34.198	00:43:13:27	8.337	V2681-01HD
 	transect	Poeobius meseres	400.79	2681	 	36.696358	-122.051834	2492996	0.79	2005-07-07 17:43:27.0	Ventana	34.275	01:13:50:27	6.648	V2681-02HD
 	descend	Nanomia bijuga	167.99	2685	 	36.79367	-121.88333	1669743	1.96	2005-07-12 20:12:10.0	Ventana	34.103	00:09:46:08	8.812	V2685-01
 	transect	Psolus squamatus	 	2687	 	 	 	1812368	 	2005-07-13 20:34:43.0	Ventana	 	03:59:40:26	 	V2687-04
 	transect	chuniphyes	300.46	2681	 	36.697773	-122.05319	2492138	1.23	2005-07-07 17:22:17.0	Ventana	34.233	00:53:23:18	7.399	V2681-01HD
 	transect	Phyllospadix	601.04	2680	 	36.77695	-122.22218	1804186	0.36	2005-06-27 17:40:10.0	Ventana	34.38	00:20:18:03	5.577	V2680-01
 	ascend	Appendicularia	612.65	2682	 	36.69887	-122.0599	1723416	0.38	2005-07-08 20:38:15.0	Ventana	34.38	04:30:23:20	5.511	V2682-05
 	transect	Phyllospadix	800.44	2674	 	36.752007	-122.20913	1800869	0.35	2005-06-08 18:15:06.0	Ventana	34.487	00:59:37:16	4.328	V2674-01
 	transect	Stomphia	998.29	2669	 	36.730526	-122.22837	1649370	0.45	2005-05-25 18:03:02.0	Ventana	34.523	00:25:30:14	3.908	V2669-01
 	transect	Ophiuroidea	998.54	2669	 	36.731106	-122.23068	1683378	0.45	2005-05-25 18:19:39.0	Ventana	34.521	00:42:06:07	3.911	V2669-01
 	transect	Phyllospadix	999.07	2669	 	36.731117	-122.234825	1684190	0.45	2005-05-25 18:48:16.0	Ventana	34.521	01:10:16:12	3.918	V2669-02
 	transect	Lycenchelys crotalinus	998.22	2669	http://search.mbari.org/ARCHIVE/frameGrabs/Ventana/images/2669/03_07_33_15.jpg	36.732964	-122.25225	1737404	0.4	2005-05-25 20:46:45.0	Ventana	34.51	03:07:33:15	4.075	V2669-04
 	cruise	Glyptocephalus zachirus	411.98	2676	 	36.803886	-122.029205	1676451	0.69	2005-06-14 16:43:26.0	Ventana	34.308	00:27:34:18	6.547	V2676-01
 	ascend	Nanomia	370.95	2693	 	36.69652	-122.06062	1758695	1.2	2005-07-25 20:28:59.0	Ventana	34.233	03:08:31:19	7.172	V2693-03
 	transect	Henricia sanguinolenta	 	2687	 	 	 	1811450	 	2005-07-13 20:13:17.0	Ventana	 	03:38:16:03	 	V2687-04
 	transect	Phyllospadix	199.39	2696	 	36.804153	-122.12589	1813383	1.53	2005-08-01 17:41:46.0	Ventana	34.206	01:09:39:17	8.663	V2696-02
 	cruise	LRJ Complex	519.16	2688	 	36.79985	-122.01899	1677482	0.66	2005-07-14 17:08:51.0	Ventana	34.315	00:55:08:06	6.362	V2688-01
 	transect	Mesomyaria	999.85	2669	 	36.731743	-122.244064	1734103	0.4	2005-05-25 19:50:39.0	Ventana	34.51	02:12:11:00	4.072	V2669-03
 	transect	Mesomyaria	800.11	2674	 	36.752495	-122.20326	1799305	0.34	2005-06-08 17:45:08.0	Ventana	34.48	00:29:41:01	4.389	V2674-01
 	descend	Chaetognatha	737.38	2683	 	36.70231	-122.04894	1757115	0.31	2005-07-11 17:56:46.0	Ventana	34.445	01:40:52:18	4.824	V2683-02
 	transect	Lycenchelys crotalinus	1000.42	2669	 	36.731503	-122.24245	1694508	0.41	2005-05-25 19:41:43.0	Ventana	34.509	02:03:40:18	4.065	V2669-02
 	transect	Psolus squamatus	 	2687	 	 	 	1808608	 	2005-07-13 17:25:20.0	Ventana	 	00:52:13:05	 	V2687-01
 	descend	Calycophorae	433.58	2683	 	36.701473	-122.04954	1756672	0.87	2005-07-11 17:06:43.0	Ventana	34.27	00:54:22:17	6.784	V2683-01
 	transect	Phyllospadix	801.91	2674	 	36.752453	-122.19956	1773788	0.29	2005-06-08 17:24:24.0	Ventana	34.463	00:08:58:10	4.654	V2674-01
 	transect	Phyllospadix	800.3	2674	 	36.75173	-122.21165	1801132	0.35	2005-06-08 18:26:36.0	Ventana	34.49	01:10:40:17	4.331	V2674-02
 	descend	Myctophidae	 	2693	 	 	 	1759447	 	2005-07-25 16:45:24.0	Ventana	 	00:23:57:08	 	V2693-01
 	transect	Chaetognatha	200.43	2681	 	36.69828	-122.0533	2490800	1.72	2005-07-07 17:08:55.0	Ventana	34.193	00:40:03:11	8.323	V2681-01HD
 	transect	Mesomyaria	999.09	2669	 	36.732754	-122.25135	1737201	0.41	2005-05-25 20:41:11.0	Ventana	34.509	03:02:00:18	4.072	V2669-04
 	transect	Psolus squamatus	 	2687	 	 	 	1808871	 	2005-07-13 17:30:49.0	Ventana	 	00:57:41:23	 	V2687-01
 	transect	Mesomyaria	1000.36	2669	 	36.73147	-122.24201	1694448	0.4	2005-05-25 19:39:29.0	Ventana	34.509	02:01:26:09	4.077	V2669-02
 	transect	Phyllospadix	800.85	2674	 	36.752506	-122.20279	1799245	0.35	2005-06-08 17:42:26.0	Ventana	34.486	00:26:59:08	4.384	V2674-01
 	transect	Mesomyaria	1000.18	2669	 	36.731796	-122.244675	1734426	0.4	2005-05-25 19:54:30.0	Ventana	34.508	02:16:01:19	4.09	V2669-03
 	transect	Neptunea amianta	801.26	2674	 	36.75176	-122.21101	1801072	0.35	2005-06-08 18:24:08.0	Ventana	34.49	01:08:12:20	4.338	V2674-02
 	transect	Stomphia	803.43	2674	 	36.75078	-122.220436	1803697	0.34	2005-06-08 19:08:51.0	Ventana	34.487	01:52:52:26	4.375	V2674-02
 	ascend	Hastigerinella digitata	352.14	2693	 	36.693886	-122.061066	1758898	1.24	2005-07-25 21:04:04.0	Ventana	34.235	03:28:36:03	7.379	V2693-04
 	transect	Euphausia	200.37	2681	 	36.69832	-122.05344	2491326	1.66	2005-07-07 17:13:30.0	Ventana	34.2	00:44:38:01	8.34	V2681-01HD
 	transect	cyclothone	400.74	2681	 	36.69771	-122.05341	2493199	0.79	2005-07-07 17:49:15.0	Ventana	34.278	01:19:39:10	6.66	V2681-02HD
 	transect	Pennatulacea sp.1	602.34	2680	 	36.787613	-122.231865	1805923	0.36	2005-06-27 19:51:05.0	Ventana	34.378	02:29:43:04	5.595	V2680-03
 	transect	Allocentrotus fragilis	 	2687	 	 	 	1811247	 	2005-07-13 20:05:30.0	Ventana	 	03:30:29:27	 	V2687-04
 	transect	molt	100.57	2681	 	36.69983	-122.05429	2489499	2.13	2005-07-07 16:43:05.0	Ventana	34.068	00:14:15:27	9.152	V2681-01HD
 	transect	Ceriantharia sp. 1	798.38	2674	 	36.75164	-122.213684	1801298	0.35	2005-06-08 18:36:18.0	Ventana	34.486	01:20:22:16	4.344	V2674-02
 	transect	Phyllospadix	800.95	2674	 	36.752533	-122.20022	1774051	0.3	2005-06-08 17:28:12.0	Ventana	34.469	00:12:45:25	4.601	V2674-01
 	transect	Rathbunaster californicus	202.34	2696	 	36.805256	-122.12819	1813646	1.48	2005-08-01 18:10:06.0	Ventana	34.211	01:37:58:15	8.623	V2696-02
 	transect	Nanomia bijuga	200.39	2681	 	36.69828	-122.05329	2490048	1.69	2005-07-07 17:04:22.0	Ventana	34.194	00:35:29:04	8.359	V2681-01HD
 	ascend	Nanomia	549.99	2683	 	36.70452	-122.05065	1757973	0.39	2005-07-11 21:14:14.0	Ventana	34.356	04:47:05:08	5.924	V2683-05
 	transect	Mediaster	 	2687	 	 	 	1810698	 	2005-07-13 19:28:43.0	Ventana	 	02:54:27:01	 	V2687-03
 	transect	Gastropoda sp.2	1000.3	2669	 	36.730927	-122.233574	1694628	0.45	2005-05-25 18:39:34.0	Ventana	34.521	01:01:34:28	3.913	V2669-02
 	descend	Dosidicus gigas	644.78	2682	 	36.698643	-122.05991	1721326	0.28	2005-07-08 18:09:51.0	Ventana	34.401	02:02:55:07	5.31	V2682-03
 	transect	Psolus squamatus	 	2687	 	 	 	1810495	 	2005-07-13 19:20:38.0	Ventana	 	02:46:22:17	 	V2687-03
 	transect	Calycophorae	300.41	2681	 	36.69686	-122.05241	2492447	1.23	2005-07-07 17:25:22.0	Ventana	34.234	00:56:29:28	7.393	V2681-01HD
 	transect	Poeobius meseres	600.57	2681	 	36.6965	-122.052124	2493748	0.3	2005-07-07 18:22:21.0	Ventana	34.387	01:52:42:03	5.48	V2681-02HD
 	descend	Appendicularia	446.14	2682	 	36.69847	-122.05952	1720777	0.57	2005-07-08 17:53:44.0	Ventana	34.317	01:47:14:02	6.316	V2682-02
 	descend	Aegina	1055.73	2683	 	36.70501	-122.04906	1757424	0.49	2005-07-11 19:25:33.0	Ventana	34.532	03:05:55:04	3.846	V2683-03
 	transect	Sebastolobus altivelis	800.64	2674	 	36.752094	-122.2084	1800749	0.35	2005-06-08 18:11:25.0	Ventana	34.487	00:55:56:17	4.328	V2674-01
 	transect	Psolus squamatus	 	2687	 	 	 	1808668	 	2005-07-13 17:26:40.0	Ventana	 	00:53:32:14	 	V2687-01
 	cruise	Chaetognatha	1221.86	2683	 	36.706284	-122.04759	1757604	0.72	2005-07-11 20:05:07.0	Ventana	34.572	03:39:29:16	3.339	V2683-04
 	transect	Phyllospadix	800.81	2674	 	36.752426	-122.20544	1799794	0.36	2005-06-08 17:56:56.0	Ventana	34.487	00:41:28:26	4.356	V2674-01
 	transect	Mediaster	 	2687	 	 	 	1811616	 	2005-07-13 20:17:20.0	Ventana	 	03:42:18:20	 	V2687-04
 	transect	molt	100.47	2681	 	36.699825	-122.05429	2489679	2.13	2005-07-07 16:47:43.0	Ventana	34.068	00:18:52:14	9.149	V2681-01HD
 	transect	Phyllospadix	999.82	2669	 	36.73109	-122.23906	1689101	0.43	2005-05-25 19:21:45.0	Ventana	34.516	01:43:43:03	3.967	V2669-02
 	transect	Brisaster	1000.14	2669	 	36.73186	-122.24534	1735374	0.4	2005-05-25 19:59:21.0	Ventana	34.506	02:20:53:15	4.095	V2669-03
 	transect	Mesomyaria	800.6	2674	 	36.751957	-122.20966	1800929	0.35	2005-06-08 18:18:06.0	Ventana	34.493	01:02:10:29	4.326	V2674-02
 	transect	Phyllospadix	 	2687	 	 	 	1811067	 	2005-07-13 19:51:12.0	Ventana	 	03:16:12:29	 	V2687-04
 	cruise	Appendicularia	990.39	2689	 	36.771484	-122.08277	1669623	0.47	2005-07-18 16:40:49.0	Ventana	34.523	00:03:53:28	3.956	V2689-01
 	ascend	Leuroglossus stilbius	290.61	2693	 	36.691452	-122.06215	1759078	1.37	2005-07-25 21:19:53.0	Ventana	34.237	03:44:25:15	8.106	V2693-04
 	ascend	Euphotic zone	31.27	2693	 	36.690777	-122.06288	1759281	3.59	2005-07-25 21:38:22.0	Ventana	33.766	04:02:53:11	10.16	V2693-04
 	ascend	Appendicularia	1034.76	2682	 	36.697777	-122.05784	1722830	0.47	2005-07-08 20:03:27.0	Ventana	34.528	03:56:01:05	3.879	V2682-04
 	transect	Allocentrotus fragilis	 	2687	 	 	 	1807164	 	2005-07-13 17:02:16.0	Ventana	 	00:29:09:28	 	V2687-01
 	ascend	Poeobius meseres	673.81	2682	 	36.698895	-122.059555	1723356	0.28	2005-07-08 20:34:04.0	Ventana	34.411	04:26:13:16	5.178	V2682-05
 	descend	Copepoda	323.98	2683	 	36.70118	-122.050095	1756529	1.22	2005-07-11 16:55:02.0	Ventana	34.241	00:42:43:01	7.516	V2683-01
 	ascend	Acanthamunnopsis milleri	255.7	2681	 	36.698624	-122.05652	1719130	1.46	2005-07-07 21:23:28.8	Ventana	34.228	04:51:47:21	7.986	V2681-05
 	descend	Melanostigma pammelas	647.69	2683	 	36.70203	-122.04895	1757055	0.38	2005-07-11 17:51:51.0	Ventana	34.385	01:35:57:10	5.502	V2683-02
 	transect	Psolus squamatus	 	2687	http://search.mbari.org/ARCHIVE/frameGrabs/Ventana/images/2687/00_59_58_03.jpg	 	 	1808991	 	2005-07-13 17:33:06.0	Ventana	 	00:59:58:03	 	V2687-01
 	ascend	Nanomia	235.05	2682	 	36.69669	-122.06097	1723755	1.88	2005-07-08 21:29:47.0	Ventana	34.164	05:21:27:14	7.873	V2682-06
 	descend	Copepoda	1182.68	2682	 	36.698425	-122.05821	1722281	0.66	2005-07-08 19:38:11.0	Ventana	34.57	03:30:47:23	3.415	V2682-04
 	descend	Chaetognatha	217.14	2693	 	36.69614	-122.05819	1758356	1.69	2005-07-25 18:28:13.0	Ventana	34.195	01:08:18:01	8.607	V2693-02
 	ascend	Euphausiacea	260.3	2681	 	36.69943	-122.05456	1718581	1.42	2005-07-07 21:12:42.033	Ventana	34.225	04:41:01:21	7.96	V2681-05
 	transect	Phyllospadix	598.49	2680	 	36.782364	-122.22751	1805141	0.35	2005-06-27 18:49:05.0	Ventana	34.378	01:28:09:22	5.583	V2680-02
 	transect	Mediaster	 	2687	 	 	 	1811390	 	2005-07-13 20:10:55.0	Ventana	 	03:35:54:08	 	V2687-04
 	descend	Medusae	363.37	2682	 	36.698547	-122.060196	1720408	0.99	2005-07-08 17:31:39.0	Ventana	34.257	01:25:10:16	7.057	V2682-02
 	transect	Rathbunaster californicus	198.3	2696	 	36.80361	-122.124466	1813263	1.53	2005-08-01 17:27:53.0	Ventana	34.204	00:56:10:24	8.618	V2696-01
 	transect	Phyllospadix	199.99	2696	 	36.80441	-122.12639	1813443	1.51	2005-08-01 17:47:03.0	Ventana	34.211	01:14:56:00	8.666	V2696-02
 	transect	Poralia rufescens	700.67	2681	 	36.697823	-122.05366	2497621	0.29	2005-07-07 18:36:15.0	Ventana	34.435	02:05:59:09	4.953	V2681-03HD
 	ascend	Lensia	376.24	2693	 	36.696133	-122.06057	1758755	1.2	2005-07-25 20:49:17.0	Ventana	34.232	03:13:51:03	7.158	V2693-04
 	transect	Psolus squamatus	 	2687	 	 	 	1810112	 	2005-07-13 18:57:53.0	Ventana	 	02:23:38:10	 	V2687-03
 	transect	Calycophorae	500.56	2681	 	36.69668	-122.05227	2493582	0.44	2005-07-07 18:00:24.0	Ventana	34.348	01:30:48:06	6.013	V2681-02HD
 	ascend	Appendicularia	600.57	2682	 	36.698578	-122.06187	1723552	0.35	2005-07-08 21:00:34.0	Ventana	34.372	04:52:40:22	5.656	V2682-05
 	descend	Appendicularia	911.6	2683	 	36.703526	-122.04848	1757281	0.38	2005-07-11 18:53:21.0	Ventana	34.499	02:33:43:22	4.206	V2683-03
 	descend	Euphausiacea	145.93	2693	 	36.696346	-122.05773	1758176	1.95	2005-07-25 17:56:17.0	Ventana	34.108	00:36:49:12	9.019	V2693-01
 	transect	Euphausia	200.44	2681	 	36.69828	-122.05329	2490634	1.73	2005-07-07 17:07:57.0	Ventana	34.193	00:39:04:13	8.328	V2681-01HD
 	transect	Mesomyaria	999.79	2669	 	36.731415	-122.23717	1687461	0.44	2005-05-25 19:07:59.0	Ventana	34.52	01:29:58:03	3.942	V2669-02
 	transect	Ceriantharia sp. 1	602.15	2680	 	36.790623	-122.23278	1806795	0.35	2005-06-27 20:21:42.0	Ventana	34.379	03:00:18:17	5.589	V2680-03
 	cruise	rubble	215.53	2676	 	36.80614	-122.02925	1676790	1.59	2005-06-14 17:41:08.0	Ventana	34.203	01:20:52:02	8.075	V2676-02
 	ascend	Nanomia	258.17	2681	 	36.697838	-122.05522	1719333	 	2005-07-07 21:29:59.0	Ventana	 	05:01:14:06	 	V2681-05
 	transect	Mediaster	 	2687	 	 	 	1812511	 	2005-07-13 20:42:58.0	Ventana	 	04:07:29:14	 	V2687-05
 	transect	Rathbunaster californicus	203.43	2696	 	36.806736	-122.130325	1813812	1.48	2005-08-01 18:35:23.0	Ventana	34.214	02:03:13:20	8.636	V2696-02
 	transect	molt	100.48	2681	 	36.698883	-122.05368	2489882	2.13	2005-07-07 16:52:14.0	Ventana	34.045	00:23:23:05	9.142	V2681-01HD
 	transect	Ophiuroidea	998.83	2669	 	36.731087	-122.23067	1651363	0.45	2005-05-25 18:19:25.25	Ventana	34.522	00:41:52:11	3.912	V2669-01
 	transect	Mesomyaria	1000.75	2669	 	36.732292	-122.24906	1736269	0.41	2005-05-25 20:26:22.0	Ventana	34.509	02:47:51:13	4.065	V2669-03
 	stationary	Merluccius productus	502.08	2694	 	36.784565	-122.20048	1676594	0.8	2005-07-27 19:14:50.0	Ventana	34.277	01:57:30:02	6.581	V2694-02
 	ascend	sinker	1065.98	2683	 	36.70758	-122.04915	1757807	0.56	2005-07-11 20:46:15.0	Ventana	34.533	04:20:35:19	3.759	V2683-04
 	transect	Ophiuroidea	998.63	2669	 	36.730915	-122.22987	1651183	0.45	2005-05-25 18:13:23.0	Ventana	34.521	00:35:50:06	3.906	V2669-01
 	descend	Leuroglossus stilbius	813.76	2682	 	36.698357	-122.05953	1721709	0.31	2005-07-08 18:42:25.0	Ventana	34.476	02:35:28:05	4.504	V2682-03
 	transect	Porifera sp. 1	 	2687	 	 	 	1812691	 	2005-07-13 20:52:28.0	Ventana	 	04:16:58:26	 	V2687-05
 	transect	Nanomia bijuga	200.4	2681	 	36.698284	-122.053314	2491003	1.71	2005-07-07 17:10:39.0	Ventana	34.192	00:41:48:09	8.325	V2681-01HD
 	transect	Mesomyaria	801.99	2674	 	36.75225	-122.20688	1799997	0.37	2005-06-08 18:04:12.0	Ventana	34.49	00:48:43:28	4.328	V2674-01
 	transect	Psolus squamatus	399.88	2687	 	36.788094	-122.121605	1809194	1.13	2005-07-13 17:37:01.0	Ventana	34.241	01:03:23:12	7.262	V2687-02
 	transect	Eptatretus stoutii	801.01	2674	 	36.751083	-122.217354	1803494	0.35	2005-06-08 18:55:21.0	Ventana	34.489	01:39:23:21	4.353	V2674-02
 	ascend	Chuniphyes	617.33	2681	 	36.69893	-122.05424	1717686	0.3	2005-07-07 20:29:00.667	Ventana	34.384	03:58:01:13	5.478	V2681-04
 	ascend	Euphausiacea	258.17	2681	 	36.697838	-122.05522	1719536	 	2005-07-07 21:29:59.0	Ventana	 	05:12:04:25	 	V2681-05
 	ascend	Melanostigma pammelas	857.49	2682	 	36.6986	-122.05848	1723236	0.33	2005-07-08 20:19:28.0	Ventana	34.487	04:11:36:17	4.372	V2682-05
 	transect	Gastropoda sp.2	1000.14	2669	 	36.731426	-122.241905	1689913	0.4	2005-05-25 19:38:56.0	Ventana	34.509	02:00:52:29	4.077	V2669-02
 	ascend	Nanomia	207.1	2693	 	36.691048	-122.06261	1759161	1.78	2005-07-25 21:25:00.0	Ventana	34.2	03:49:31:14	8.745	V2693-04
 	transect	Psolus squamatus	399.88	2687	 	36.788048	-122.12153	1809134	1.13	2005-07-13 17:36:01.0	Ventana	34.244	01:02:23:25	7.27	V2687-02
 	transect	Mediaster	 	2687	 	 	 	1810984	 	2005-07-13 19:46:14.0	Ventana	 	03:11:16:01	 	V2687-04
 	ascend	Poeobius meseres	553.89	2682	 	36.698296	-122.062706	1723612	0.39	2005-07-08 21:08:56.0	Ventana	34.357	05:00:38:09	5.864	V2682-06
 	transect	Caecosagitta macrocephala	901.06	2681	 	36.69676	-122.05289	2498290	0.39	2005-07-07 19:07:35.0	Ventana	34.506	02:37:16:09	4.159	V2681-03HD
 	transect	Microstomus pacificus	200.51	2696	 	36.805218	-122.12812	1813586	1.5	2005-08-01 18:01:43.0	Ventana	34.211	01:29:35:22	8.671	V2696-02
 	cruise	Chionoecetes tanneri	1205.8	2683	 	36.70711	-122.04764	1757687	0.72	2005-07-11 20:19:35.0	Ventana	34.574	03:53:56:14	3.354	V2683-04
 	transect	Phyllospadix	798.77	2674	 	36.751495	-122.21447	1801358	0.35	2005-06-08 18:41:53.0	Ventana	34.49	01:25:56:23	4.333	V2674-02
 	transect	Mediaster	 	2687	 	 	 	1811736	 	2005-07-13 20:23:11.0	Ventana	 	03:48:09:17	 	V2687-04
 	transect	Nanomia bijuga	200.37	2681	 	36.698315	-122.05342	2491266	1.66	2005-07-07 17:13:16.0	Ventana	34.2	00:44:23:13	8.341	V2681-01HD
 	transect	Lycenchelys camchatica	802.17	2674	 	36.75174	-122.210396	1801012	0.35	2005-06-08 18:21:48.0	Ventana	34.49	01:05:52:18	4.329	V2674-02
 	stationary	Merluccius productus	501.77	2694	 	36.78455	-122.20048	1676188	0.74	2005-07-27 17:49:53.0	Ventana	34.284	00:42:58:27	6.465	V2694-01
 	cruise	LRJ Complex	441.06	2688	 	36.804256	-122.018456	1677662	0.87	2005-07-14 17:40:48.0	Ventana	34.275	01:26:31:27	6.826	V2688-02
 	transect	Mesomyaria	1000.43	2669	 	36.732143	-122.248085	1736186	0.41	2005-05-25 20:19:35.0	Ventana	34.51	02:41:04:16	4.068	V2669-03
 	transect	Diogenidae	599.68	2680	 	36.777744	-122.22275	1804306	0.36	2005-06-27 17:49:48.0	Ventana	34.378	00:29:55:05	5.586	V2680-01
 	descend	Hormiphora	369.09	2683	 	36.701393	-122.04983	1756589	1.12	2005-07-11 16:57:35.0	Ventana	34.236	00:45:14:17	7.099	V2683-01
 	transect	Mediaster	 	2687	 	 	 	1812488	 	2005-07-13 20:41:20.0	Ventana	 	04:06:17:06	 	V2687-04
 	ascend	Appendicularia	428.2	2683	 	36.704163	-122.05058	1758033	0.83	2005-07-11 21:19:07.0	Ventana	34.276	04:51:59:17	6.791	V2683-05
 	cruise	Ophiodon elongatus	106.11	2688	 	36.81307	-122.0195	1678091	1.97	2005-07-14 19:21:43.1	Ventana	34.097	03:06:56:03	8.922	V2688-03
 	transect	Phyllospadix	400.08	2687	 	36.78911	-122.12411	1809540	1.18	2005-07-13 18:13:54.0	Ventana	34.238	01:40:13:29	7.359	V2687-02
 	cruise	Rathbunaster californicus	102.91	2688	 	36.814068	-122.01849	1679512	1.91	2005-07-14 21:23:26.0	Ventana	34.108	05:07:39:02	8.878	V2688-05
 	ascend	Cydippida	381.51	2681	 	36.69935	-122.054665	1718009	0.94	2005-07-07 20:49:32.467	Ventana	34.27	04:17:53:17	6.98	V2681-05
 	transect	Microstomus pacificus	 	2687	 	 	 	1807284	 	2005-07-13 17:04:56.0	Ventana	 	00:31:50:15	 	V2687-01
 	descend	physical object	208.12	2686	http://search.mbari.org/ARCHIVE/frameGrabs/Ventana/images/2686/01_08_48_24.jpg	36.79371	-121.88108	20005031	1.67	2005-07-12 22:01:39.0	Ventana	34.136	01:08:48:24	8.365	V2686-02
 	descend	Calycophorae	291.64	2681	 	36.69855	-122.053696	1713640	1.26	2005-07-07 17:18:45.567	Ventana	34.231	00:49:53:04	7.491	V2681-01
 	transect	Porifera	 	2687	 	 	 	1810232	 	2005-07-13 19:10:54.0	Ventana	 	02:36:38:21	 	V2687-03
 	transect	Appendicularia	500.58	2681	 	36.697342	-122.05303	2493462	0.44	2005-07-07 17:57:40.0	Ventana	34.346	01:28:03:29	6.022	V2681-02HD
 	ascend	Chuniphyes	978.25	2681	 	36.69692	-122.05337	1716588	0.44	2005-07-07 19:35:58.5	Ventana	34.52	03:05:39:10	3.992	V2681-03
 	transect	Glyptocephalus zachirus	196.85	2696	 	36.803356	-122.123436	1813180	1.55	2005-08-01 17:15:49.0	Ventana	34.201	00:44:07:03	8.63	V2696-01
 	transect	Poeobius meseres	1000.96	2681	 	36.696365	-122.05266	2498696	0.47	2005-07-07 19:29:31.0	Ventana	34.53	02:59:11:15	3.878	V2681-03HD
 	transect	Stomphia	800.85	2674	 	36.751945	-122.20981	1800952	0.35	2005-06-08 18:19:16.0	Ventana	34.483	01:03:20:28	4.35	V2674-02
 	descend	Nanomia	182.69	2682	 	36.699894	-122.060745	1719942	2.1	2005-07-08 16:20:06.0	Ventana	34.151	00:14:09:27	8.296	V2682-01
 	transect	Nanomia bijuga	200.45	2681	 	36.69828	-122.05329	2490108	1.7	2005-07-07 17:04:46.0	Ventana	34.197	00:35:54:29	8.36	V2681-01HD
 	transect	Umbellula lindahli	599.83	2680	 	36.77815	-122.22334	1804366	0.36	2005-06-27 17:54:49.0	Ventana	34.378	00:34:56:13	5.589	V2680-01
 	transect	Appendicularia	400.77	2681	 	36.696827	-122.05242	2493056	0.79	2005-07-07 17:45:34.0	Ventana	34.278	01:15:58:10	6.659	V2681-02HD
 	transect	Ceriantharia sp. 2	1000.63	2669	 	36.73239	-122.2496	1736592	0.41	2005-05-25 20:30:28.0	Ventana	34.509	02:51:55:17	4.069	V2669-03
 	transect	Phyllospadix	800.76	2674	 	36.75256	-122.201706	1799102	0.33	2005-06-08 17:37:19.0	Ventana	34.478	00:21:53:00	4.443	V2674-01
 	transect	Mesomyaria	800.79	2674	 	36.75102	-122.21815	1803554	0.35	2005-06-08 18:58:56.0	Ventana	34.495	01:42:58:11	4.338	V2674-02
 	transect	Brisaster	998.98	2669	 	36.731403	-122.23617	1684656	0.44	2005-05-25 18:58:43.0	Ventana	34.521	01:20:43:00	3.944	V2669-02
 	ascend	Cyclothone	926.03	2681	 	36.6977	-122.05425	1716994	0.4	2005-07-07 19:44:45.54	Ventana	34.511	03:13:48:17	4.134	V2681-04
 	transect	Mesomyaria	999.89	2669	 	36.731777	-122.244415	1734306	0.4	2005-05-25 19:52:26.0	Ventana	34.508	02:13:55:24	4.08	V2669-03
 	descend	Melanostigma	900.58	2681	 	36.696896	-122.05306	1716505	0.39	2005-07-07 19:06:35.803	Ventana	34.507	02:36:18:14	4.166	V2681-03
 	descend	Myctophidae	400.21	2681	 	36.695557	-122.05116	1715144	0.8	2005-07-07 17:34:27.067	Ventana	34.279	01:04:50:18	6.678	V2681-02
 	transect	Psolus squamatus	 	2687	 	 	 	1807690	 	2005-07-13 17:22:56.0	Ventana	 	00:49:48:23	 	V2687-01
 	ascend	Appendicularia	342.35	2681	 	36.69934	-122.05521	1718092	1.11	2005-07-07 20:53:17.867	Ventana	34.247	04:21:39:07	7.256	V2681-05
 	transect	Ceriantharia sp. 2	999.7	2669	 	36.73182	-122.24452	1734366	0.4	2005-05-25 19:53:22.0	Ventana	34.51	02:14:52:26	4.076	V2669-03
 	transect	Sergestes similis	300.44	2681	 	36.69837	-122.05355	2491958	1.25	2005-07-07 17:20:10.0	Ventana	34.233	00:51:18:24	7.431	V2681-01HD
 	transect	Phyllospadix	800.98	2674	 	36.75097	-122.21887	1803614	0.35	2005-06-08 19:01:57.0	Ventana	34.488	01:45:59:25	4.34	V2674-02
 	cruise	Corallimorphus pilatus	325.8	2676	 	36.804867	-122.029015	1676647	1.32	2005-06-14 17:19:42.0	Ventana	34.228	01:03:48:06	7.688	V2676-01
 	transect	Psolus squamatus	 	2687	 	 	 	1808788	 	2005-07-13 17:29:30.0	Ventana	 	00:56:22:20	 	V2687-01
 	transect	Ceriantharia sp. 2	1000.27	2669	 	36.73198	-122.24716	1735840	0.41	2005-05-25 20:13:00.0	Ventana	34.507	02:34:29:24	4.068	V2669-03
 	endtransect	physical object	 	2669	 	 	 	1737690	 	2005-05-25 13:57:35.0	Ventana	 	03:18:22:15	 	V2669-04
 	descend	Appendicularia	505.08	2683	 	36.70144	-122.04917	1756852	0.68	2005-07-11 17:39:29.0	Ventana	34.306	01:23:35:07	6.467	V2683-02
 	transect	Ceriantharia sp. 2	999.78	2669	 	36.73092	-122.231514	1683641	0.45	2005-05-25 18:27:20.0	Ventana	34.522	00:49:46:08	3.913	V2669-01
 	transect	Sergestes similis	300.42	2681	 	36.696964	-122.05249	2492424	1.23	2005-07-07 17:25:02.0	Ventana	34.234	00:56:09:20	7.395	V2681-01HD
 	descend	Appendicularia	635.0	2682	 	36.698624	-122.059875	1721303	0.28	2005-07-08 18:09:12.0	Ventana	34.399	02:02:17:07	5.347	V2682-03
 	transect	Phyllospadix	 	2687	 	 	 	1807224	 	2005-07-13 17:03:43.0	Ventana	 	00:30:36:17	 	V2687-01
 	transect	Mediaster	 	2687	 	 	 	1811819	 	2005-07-13 20:26:19.0	Ventana	 	03:51:17:25	 	V2687-04
 	ascend	Copepoda	875.71	2681	 	36.698334	-122.0553	1717340	0.35	2005-07-07 19:51:59.1	Ventana	34.503	03:21:01:20	4.29	V2681-04
 	transect	cydippida	100.5	2681	 	36.699768	-122.05425	2489762	2.12	2005-07-07 16:49:57.0	Ventana	34.067	00:21:07:17	9.159	V2681-01HD
 	transect	Euphausia	200.47	2681	 	36.69828	-122.05329	2490574	1.71	2005-07-07 17:07:37.0	Ventana	34.195	00:38:44:11	8.336	V2681-01HD
 	cruise	Ophiurida	471.0	2676	 	36.802372	-122.029366	1676271	0.56	2005-06-14 16:33:17.0	Ventana	34.337	00:17:26:12	6.154	V2676-01
 	ascend	Mitrocoma	258.17	2681	 	36.697838	-122.05522	1719453	 	2005-07-07 21:29:59.0	Ventana	 	05:05:44:08	 	V2681-05
 	transect	Mesomyaria	999.73	2669	 	36.730602	-122.22909	1651040	0.45	2005-05-25 18:07:28.0	Ventana	34.522	00:29:56:03	3.908	V2669-01
 	transect	Mesomyaria	798.86	2674	 	36.751335	-122.21533	1801418	0.35	2005-06-08 18:45:18.0	Ventana	34.488	01:29:21:28	4.349	V2674-02
 	transect	Poeobius meseres	700.6	2681	 	36.69534	-122.05112	2497944	0.28	2005-07-07 18:46:56.0	Ventana	34.432	02:16:39:15	4.999	V2681-03HD
 	descend	Chuniphyes	747.24	2681	 	36.6949	-122.05056	1716242	0.29	2005-07-07 18:50:18.1	Ventana	34.45	02:20:01:23	4.77	V2681-03
 	transect	Gonatus	800.87	2681	 	36.6961	-122.052055	2498230	0.31	2005-07-07 18:58:52.0	Ventana	34.475	02:28:33:21	4.497	V2681-03HD
 	ascend	water	 	2687	 	 	 	1812834	 	2005-07-13 21:13:22.0	Ventana	 	04:37:51:18	 	V2687-05
 	transect	Gastropoda	203.2	2696	 	36.805256	-122.12819	1813669	1.48	2005-08-01 18:13:47.0	Ventana	34.214	01:41:39:03	8.623	V2696-02
 	transect	Calycophorae	600.57	2681	 	36.697037	-122.05277	2493808	0.3	2005-07-07 18:24:50.0	Ventana	34.387	01:55:10:23	5.475	V2681-02HD
 	transect	Mesomyaria	802.15	2674	 	36.75232	-122.20587	1799854	0.36	2005-06-08 17:59:24.0	Ventana	34.488	00:43:56:10	4.336	V2674-01
 	ascend	Appendicularia	627.84	2683	 	36.704937	-122.050316	1757950	0.3	2005-07-11 21:10:39.0	Ventana	34.398	04:43:32:02	5.462	V2683-05
 	transect	Psolus squamatus	 	2687	 	 	 	1809886	 	2005-07-13 18:47:26.0	Ventana	 	02:13:12:20	 	V2687-03
 	transect	Ceriantharia sp. 2	999.22	2669	 	36.73103	-122.231964	1683701	0.45	2005-05-25 18:29:57.0	Ventana	34.52	00:52:23:17	3.913	V2669-01
 	descend	Appendicularia	407.49	2683	 	36.70143	-122.04955	1756649	0.93	2005-07-11 17:05:11.0	Ventana	34.262	00:52:49:29	6.919	V2683-01
 	transect	Mediaster	 	2687	 	 	 	1812571	 	2005-07-13 20:45:50.0	Ventana	 	04:10:20:14	 	V2687-05
 	descend	Calycophorae	818.97	2683	 	36.70272	-122.04862	1757198	0.31	2005-07-11 18:16:08.0	Ventana	34.476	02:00:12:17	4.482	V2683-02
 	ascend	Salpida	421.66	2681	 	36.699203	-122.05425	1717949	0.78	2005-07-07 20:45:06.567	Ventana	34.278	04:13:43:14	6.638	V2681-05
 	transect	Psolus squamatus	 	2687	 	 	 	1810172	 	2005-07-13 19:04:24.0	Ventana	 	02:30:08:27	 	V2687-03
 	transect	Rathbunaster californicus	196.39	2696	 	36.803135	-122.12282	1813120	1.55	2005-08-01 17:08:30.0	Ventana	34.199	00:36:48:25	8.615	V2696-01
 	transect	Ophiuroidea	998.95	2669	 	36.731403	-122.23653	1684799	0.44	2005-05-25 19:01:53.0	Ventana	34.52	01:23:52:17	3.938	V2669-02
 	descend	Appendicularia	365.62	2682	 	36.698547	-122.06032	1720348	0.99	2005-07-08 17:26:46.0	Ventana	34.26	01:20:17:27	7.068	V2682-02
 	transect	Calliostoma platinum	399.68	2687	 	36.789352	-122.12489	1809623	1.15	2005-07-13 18:26:24.0	Ventana	34.239	01:52:43:00	7.315	V2687-02
 	transect	Ophiuroidea	999.36	2669	 	36.730717	-122.229485	1651100	0.45	2005-05-25 18:10:17.0	Ventana	34.521	00:32:44:21	3.908	V2669-01
 	cruise	Pleuronectiformes	461.63	2688	 	36.80272	-122.01822	1677602	0.85	2005-07-14 17:31:50.0	Ventana	34.279	01:17:34:19	6.791	V2688-02
 	transect	Neptunea amianta	999.44	2669	 	36.73133	-122.23592	1684453	0.44	2005-05-25 18:57:06.0	Ventana	34.52	01:19:05:22	3.936	V2669-02
 	descend	Hastigerinella digitata	257.02	2682	 	36.699795	-122.06083	1720002	1.38	2005-07-08 16:25:59.0	Ventana	34.23	00:20:03:23	7.87	V2682-01
 	transect	Mesomyaria	999.48	2669	 	36.731056	-122.23505	1684250	0.45	2005-05-25 18:50:37.0	Ventana	34.521	01:12:36:28	3.922	V2669-02
 	transect	Mesomyaria	1000.16	2669	 	36.731125	-122.23857	1688875	0.43	2005-05-25 19:18:38.0	Ventana	34.516	01:40:36:18	3.961	V2669-02
 	ascend	Poeobius meseres	602.18	2682	 	36.698666	-122.06141	1723499	0.34	2005-07-08 20:55:32.0	Ventana	34.373	04:47:40:05	5.646	V2682-05
 	transect	Ophiuroidea	998.61	2669	 	36.731064	-122.23046	1651303	0.45	2005-05-25 18:18:02.0	Ventana	34.522	00:40:28:29	3.91	V2669-01
 	descend	Apolemia	250.66	2683	 	36.700912	-122.05056	1756446	1.64	2005-07-11 16:50:39.0	Ventana	34.198	00:38:19:06	8.007	V2683-01
 	ascend	Appendicularia	834.36	2681	 	36.698727	-122.05614	1717400	0.31	2005-07-07 19:57:09.533	Ventana	34.482	03:26:12:19	4.426	V2681-04
 	transect	Psolus squamatus	399.86	2687	http://search.mbari.org/ARCHIVE/frameGrabs/Ventana/images/2687/01_02_12_24.jpg	36.788044	-122.12152	1809074	1.14	2005-07-13 17:35:50.0	Ventana	34.237	01:02:12:24	7.276	V2687-02
 	ascend	Aegina	695.61	2681	 	36.69873	-122.05476	1717603	0.27	2005-07-07 20:21:18.2	Ventana	34.421	03:50:18:29	5.098	V2681-04
 	ascend	Aegina	512.47	2681	 	36.698956	-122.05425	1717746	0.47	2005-07-07 20:34:00.733	Ventana	34.338	04:03:00:21	6.095	V2681-04
 	transect	Mediaster	 	2687	 	 	 	1812225	 	2005-07-13 20:29:33.0	Ventana	 	03:54:31:07	 	V2687-04
 	ascend	Leuroglossus stilbius	754.44	2682	 	36.698757	-122.05909	1723296	0.29	2005-07-08 20:27:52.0	Ventana	34.444	04:20:00:11	4.833	V2682-05
 	ascend	Nanomia	190.78	2693	 	36.690605	-122.06288	1759221	1.84	2005-07-25 21:29:05.0	Ventana	34.168	03:53:36:01	8.849	V2693-04
 	transect	Mediaster	 	2687	 	 	 	1810924	 	2005-07-13 19:42:53.0	Ventana	 	03:07:55:02	 	V2687-04
 	transect	Mediaster	 	2687	 	 	 	1812774	 	2005-07-13 20:56:58.0	Ventana	 	04:21:28:06	 	V2687-05
 	ascend	Appendicularia	321.86	2681	 	36.69969	-122.05526	1718152	1.21	2005-07-07 20:57:06.133	Ventana	34.235	04:25:26:08	7.373	V2681-05
 	transect	Microstomus pacificus	199.6	2696	 	36.803844	-122.125206	1813323	1.52	2005-08-01 17:34:43.0	Ventana	34.207	01:02:37:15	8.636	V2696-02
 	cruise	Appendicularia	583.84	2688	 	36.7969	-122.02001	1677399	0.48	2005-07-14 16:43:10.0	Ventana	34.369	00:29:29:13	5.724	V2688-01
 	cruise	Rathbunaster californicus	105.95	2688	 	36.814377	-122.01691	1679249	1.98	2005-07-14 19:36:36.0	Ventana	34.092	03:21:24:02	8.913	V2688-04
 	descend	Bathocyroe	1184.45	2682	 	36.698257	-122.05915	1722198	0.66	2005-07-08 19:15:16.0	Ventana	34.568	03:07:54:21	3.409	V2682-04
 	ascend	sinker	1167.78	2683	 	36.707733	-122.04883	1757747	0.7	2005-07-11 20:32:11.0	Ventana	34.57	04:06:33:03	3.4	V2683-04
 	descend	Mysidae	749.61	2682	 	36.69844	-122.059654	1721649	0.29	2005-07-08 18:30:23.0	Ventana	34.449	02:23:26:10	4.771	V2682-03
 	endtransect	object	204.58	2696	 	36.807644	-122.13128	1813872	1.46	2005-08-01 18:44:47.0	Ventana	34.223	02:11:52:05	8.648	V2696-03
 	transect	Actiniaria sp. 3	 	2687	 	 	 	1810375	 	2005-07-13 19:16:42.0	Ventana	 	02:42:26:22	 	V2687-03
 	cruise	Sebastes	152.47	2676	 	36.80868	-122.03062	1676850	1.68	2005-06-14 17:53:12.0	Ventana	34.18	01:32:55:07	8.259	V2676-02
 	ascend	Solmissus	261.88	2681	 	36.6991	-122.05515	1718701	1.43	2005-07-07 21:16:05.8	Ventana	34.231	04:44:25:07	7.965	V2681-05
 	ascend	Appendicularia	505.86	2682	 	36.698357	-122.06319	1723672	0.48	2005-07-08 21:13:18.0	Ventana	34.333	05:04:58:09	6.129	V2682-06
 	transect	molt	100.5	2681	 	36.69928	-122.05394	2489822	2.14	2005-07-07 16:51:18.0	Ventana	34.067	00:22:26:13	9.15	V2681-01HD
 	transect	Psolus squamatus	 	2687	 	 	 	1808728	 	2005-07-13 17:27:55.0	Ventana	 	00:54:48:01	 	V2687-01
 	transect	Sebastes diploproa	 	2687	 	 	 	1810578	 	2005-07-13 19:22:43.0	Ventana	 	02:48:27:01	 	V2687-03
 	descend	Appendicularia	495.61	2683	 	36.701473	-122.049385	1756792	0.7	2005-07-11 17:25:13.0	Ventana	34.3	01:09:21:13	6.502	V2683-02
 	ascend	Euphausiacea	370.94	2693	 	36.696167	-122.060875	1758642	1.2	2005-07-25 20:24:26.0	Ventana	34.232	03:03:59:22	7.162	V2693-03
 	transect	Diogenidae	602.11	2680	 	36.791763	-122.23299	1806878	0.36	2005-06-27 20:30:32.0	Ventana	34.378	03:09:07:24	5.591	V2680-03
 	cruise	mud	 	2673	 	 	 	1668382	 	 	Ventana	 	00:17:36:16	 	V2673-01
 	descend	Myctophidae	605.45	2682	 	36.698635	-122.0598	1721243	0.35	2005-07-08 18:07:48.0	Ventana	34.389	02:00:54:00	5.441	V2682-03
 	transect	Mesomyaria	 	2669	 	 	 	1737630	 	2005-05-25 13:53:54.0	Ventana	 	03:14:42:00	 	V2669-04
 	transect	Mediaster	 	2687	 	 	 	1812428	 	2005-07-13 20:38:24.0	Ventana	 	04:03:22:03	 	V2687-04
 	transect	Nanomia bijuga	200.4	2681	 	36.698284	-122.05331	2490920	1.7	2005-07-07 17:09:47.0	Ventana	34.189	00:40:55:20	8.321	V2681-01HD
 	transect	Mesomyaria	1000.28	2669	 	36.73128	-122.24135	1689770	0.4	2005-05-25 19:35:53.0	Ventana	34.507	01:57:50:18	4.091	V2669-02
 	ascend	Appendicularia	333.12	2693	 	36.69225	-122.06183	1759018	1.28	2005-07-25 21:15:35.0	Ventana	34.237	03:40:08:07	7.548	V2693-04
 	transect	Rathbunaster californicus	204.16	2696	 	36.805965	-122.1295	1813729	1.49	2005-08-01 18:21:06.0	Ventana	34.209	01:48:58:00	8.634	V2696-02
 	descend	Appendicularia	928.51	2682	 	36.698257	-122.05939	1721792	0.35	2005-07-08 18:52:56.0	Ventana	34.497	02:45:57:28	4.268	V2682-03
 	cruise	Sebastolobus	598.4	2688	 	36.79339	-122.01841	1677256	0.5	2005-07-14 16:23:10.0	Ventana	34.363	00:09:30:26	5.792	V2688-01
 	transect	Ophiuroidea	1000.29	2669	 	36.73156	-122.24294	1694568	0.4	2005-05-25 19:44:11.0	Ventana	34.507	02:06:08:01	4.071	V2669-02
 	transect	Brisaster	 	2687	 	 	 	1811127	 	2005-07-13 19:55:19.0	Ventana	 	03:20:19:29	 	V2687-04
 	transect	Lycenchelys camchatica	998.57	2669	 	36.730534	-122.22851	1650897	0.45	2005-05-25 18:03:47.0	Ventana	34.523	00:26:15:10	3.907	V2669-01
 	transect	Brisaster	999.98	2669	 	36.731136	-122.240135	1689221	0.41	2005-05-25 19:28:14.0	Ventana	34.51	01:50:11:18	4.058	V2669-02
 	descend	Appendicularia	308.27	2682	 	36.699177	-122.060555	1720145	1.16	2005-07-08 16:56:09.0	Ventana	34.24	00:50:11:01	7.303	V2682-01
 	ascend	Chaetognatha	366.62	2693	 	36.695286	-122.060905	1758815	1.23	2005-07-25 20:57:26.0	Ventana	34.234	03:21:59:13	7.317	V2693-04
 	descend	Caecosagitta macrocephala	961.85	2683	 	36.703938	-122.04855	1757341	0.42	2005-07-11 19:11:47.0	Ventana	34.514	02:52:09:05	4.046	V2683-03
 	transect	Allocentrotus fragilis	399.88	2687	 	36.78811	-122.121704	1809277	1.13	2005-07-13 17:38:05.0	Ventana	34.243	01:04:27:23	7.254	V2687-02
 	transect	Mediaster	 	2687	 	 	 	1811330	 	2005-07-13 20:07:32.0	Ventana	 	03:32:31:07	 	V2687-04
 	cruise	Pannychia moseleyi	448.6	2676	 	36.803036	-122.02924	1676331	0.61	2005-06-14 16:37:51.067	Ventana	34.322	00:21:59:28	6.328	V2676-01
 	transect	Ophiuroidea	999.09	2669	 	36.7314	-122.2361	1684596	0.44	2005-05-25 18:58:23.0	Ventana	34.521	01:20:23:16	3.943	V2669-02
 	descend	Appendicularia	393.56	2682	 	36.698338	-122.05988	1720694	0.9	2005-07-08 17:37:05.0	Ventana	34.26	01:30:35:29	6.759	V2682-02
 	transect	Poeobius meseres	1001.0	2681	 	36.695698	-122.05177	2498636	0.48	2005-07-07 19:26:16.0	Ventana	34.532	02:55:55:28	3.848	V2681-03HD
 	descend	Appendicularia	584.48	2683	 	36.701912	-122.04911	1756995	0.36	2005-07-11 17:48:02.0	Ventana	34.366	01:32:08:22	5.859	V2683-02
 	transect	Psolus squamatus	 	2687	 	 	 	1808931	 	2005-07-13 17:32:17.0	Ventana	 	00:59:09:14	 	V2687-01
 	transect	haliscera	300.46	2681	 	36.69815	-122.05347	2492018	1.24	2005-07-07 17:20:57.0	Ventana	34.233	00:52:03:28	7.409	V2681-01HD
 	transect	Appendicularia	300.42	2681	 	36.696114	-122.05175	2492567	1.24	2005-07-07 17:28:01.0	Ventana	34.233	00:59:07:20	7.427	V2681-01HD
 	descend	Aegina	701.75	2682	 	36.698605	-122.059975	1721446	0.29	2005-07-08 18:15:54.0	Ventana	34.428	02:08:59:20	5.023	V2682-03
 	cruise	Chionoecetes tanneri	1233.29	2683	 	36.705788	-122.04791	1757544	0.72	2005-07-11 19:51:51.0	Ventana	34.574	03:26:14:16	3.343	V2683-04
 	transect	Appendicularia	400.77	2681	 	36.69725	-122.052895	2493116	0.79	2005-07-07 17:47:18.0	Ventana	34.278	01:17:41:24	6.663	V2681-02HD
 	transect	Mesomyaria	997.39	2669	 	36.7306	-122.227905	1649250	0.45	2005-05-25 18:00:08.0	Ventana	34.521	00:22:36:27	3.907	V2669-01
 	ascend	Euphausiacea	261.24	2681	 	36.699444	-122.05457	1718498	1.41	2005-07-07 21:10:36.133	Ventana	34.232	04:38:55:13	7.936	V2681-05
 	transect	Phyllospadix	598.37	2680	 	36.78178	-122.22688	1805058	0.36	2005-06-27 18:41:09.0	Ventana	34.377	01:20:14:19	5.597	V2680-02
 	cruise	Parastichopus	95.36	2688	 	36.814896	-122.01738	1679452	1.94	2005-07-14 21:01:55.0	Ventana	34.099	04:46:09:02	8.927	V2688-05
 	descend	Chaetognatha	962.52	2682	 	36.698315	-122.05934	1721995	0.41	2005-07-08 18:55:43.0	Ventana	34.515	02:48:44:23	4.064	V2682-03
 	transect	Psolus squamatus	 	2687	 	 	 	1807630	 	2005-07-13 17:18:47.0	Ventana	 	00:45:40:00	 	V2687-01
 	transect	molt	100.52	2681	 	36.69983	-122.05429	2489619	2.13	2005-07-07 16:46:22.0	Ventana	34.068	00:17:32:27	9.146	V2681-01HD
 	ascend	Leuroglossus stilbius	260.77	2683	 	36.703094	-122.05067	1758093	1.46	2005-07-11 21:26:21.0	Ventana	34.217	04:59:12:04	7.992	V2683-05
 	transect	Phyllospadix	800.52	2674	 	36.75257	-122.20213	1799162	0.33	2005-06-08 17:39:24.0	Ventana	34.476	00:23:58:04	4.446	V2674-01
 	transect	Stomphia	 	2687	 	 	 	1810029	 	2005-07-13 18:51:42.0	Ventana	 	02:17:27:25	 	V2687-03
 	transect	Hormiphora	200.42	2681	 	36.69828	-122.05329	2490168	1.7	2005-07-07 17:05:20.0	Ventana	34.197	00:36:28:24	8.358	V2681-01HD
 	transect	Mediaster	 	2687	 	 	 	1807081	 	2005-07-13 16:58:20.0	Ventana	 	00:25:14:07	 	V2687-01
 	transect	Rathbunaster californicus	200.44	2696	 	36.804787	-122.127335	1813526	1.51	2005-08-01 17:56:09.0	Ventana	34.211	01:24:02:00	8.673	V2696-02
 	cruise	Merluccius productus	499.86	2695	 	36.784534	-122.20028	1824393	0.89	2005-07-28 16:56:43.0	Ventana	34.266	00:03:05:21	6.707	V2695-01
 	ascend	Appendicularia	260.62	2681	 	36.69881	-122.05695	1719047	1.42	2005-07-07 21:21:42.333	Ventana	34.232	04:50:01:13	7.957	V2681-05
 	transect	Gastropoda sp.2	999.79	2669	 	36.7319	-122.246056	1735614	0.41	2005-05-25 20:03:47.0	Ventana	34.51	02:25:18:01	4.06	V2669-03
 	transect	Umbellula lindahli	598.96	2680	 	36.77994	-122.225	1804578	0.35	2005-06-27 18:16:53.0	Ventana	34.381	00:56:58:14	5.543	V2680-01
 	transect	Psolus squamatus	399.84	2687	http://search.mbari.org/ARCHIVE/frameGrabs/Ventana/images/2687/01_02_17_21.jpg	36.788036	-122.12153	1809107	1.13	2005-07-13 17:35:55.0	Ventana	34.244	01:02:17:21	7.27	V2687-02
 	transect	Rathbunaster californicus	198.69	2696	 	36.80372	-122.12474	1813283	1.52	2005-08-01 17:30:39.0	Ventana	34.204	00:58:56:15	8.637	V2696-01
 	transect	Solaster	998.81	2669	 	36.731148	-122.23409	1684060	0.45	2005-05-25 18:42:31.0	Ventana	34.523	01:04:32:03	3.914	V2669-02
 	descend	Hormiphora	178.91	2693	 	36.69609	-122.05816	1758259	1.91	2005-07-25 18:10:19.0	Ventana	34.161	00:50:50:10	8.854	V2693-01
 	transect	Phyllospadix	799.73	2674	 	36.752464	-122.20499	1799696	0.35	2005-06-08 17:54:37.0	Ventana	34.486	00:39:09:12	4.357	V2674-01
 	transect	Mediaster	 	2687	 	 	 	1811548	 	2005-07-13 20:15:20.0	Ventana	 	03:40:19:05	 	V2687-04
 	stationary	Appendicularia	501.76	2695	 	36.784588	-122.20046	1824429	0.87	2005-07-28 17:19:29.0	Ventana	34.266	00:25:50:02	6.679	V2695-01
 	transect	Ceriantharia sp. 1	599.35	2680	 	36.782974	-122.22828	1805284	0.36	2005-06-27 19:02:07.0	Ventana	34.379	01:41:11:19	5.6	V2680-02
 	transect	molt	100.5	2681	 	36.699825	-122.05429	2489689	2.13	2005-07-07 16:47:57.0	Ventana	34.067	00:19:05:21	9.15	V2681-01HD
 	transect	Calycophorae	901.02	2681	 	36.69579	-122.05172	2498394	0.39	2005-07-07 19:12:06.0	Ventana	34.505	02:41:47:14	4.174	V2681-03HD
 	descend	Cyclothone	839.64	2681	 	36.696976	-122.053215	1716469	0.32	2005-07-07 19:04:10.233	Ventana	34.487	02:33:52:16	4.358	V2681-03
 	descend	Appendicularia	784.71	2682	 	36.69839	-122.05974	1721674	0.32	2005-07-08 18:34:50.0	Ventana	34.464	02:27:53:05	4.65	V2682-03
 	descend	Appendicularia	503.99	2683	 	36.70147	-122.049164	1756847	0.68	2005-07-11 17:38:51.0	Ventana	34.305	01:22:58:09	6.467	V2683-02
 	starttransect	physical object	 	2687	 	 	 	1810842	 	2005-07-13 19:37:34.0	Ventana	 	03:03:17:18	 	V2687-03
 	transect	Mesomyaria	800.54	2674	 	36.75176	-122.2114	1801108	0.35	2005-06-08 18:25:42.0	Ventana	34.488	01:09:47:00	4.349	V2674-02
 	transect	Psolus squamatus	 	2687	 	 	 	1807695	 	2005-07-13 17:23:05.0	Ventana	 	00:49:57:24	 	V2687-01
 	ascend	Phialidium	766.32	2681	 	36.69866	-122.05611	1717498	0.29	2005-07-07 20:10:18.323	Ventana	34.452	03:39:20:07	4.783	V2681-04
 	descend	Physonectae	358.36	2693	 	36.69706	-122.05987	1758582	1.25	2005-07-25 19:59:46.0	Ventana	34.232	02:39:20:04	7.394	V2693-03
 	transect	Mesomyaria	999.89	2669	 	36.73262	-122.25071	1737026	0.4	2005-05-25 20:37:41.0	Ventana	34.507	02:59:09:14	4.073	V2669-03
 	transect	apolemia	700.63	2681	 	36.696953	-122.05281	2497688	0.29	2005-07-07 18:40:00.0	Ventana	34.436	02:09:44:07	4.928	V2681-03HD
 	descend	Copepoda	652.7	2682	 	36.698643	-122.05993	1721351	0.28	2005-07-08 18:10:23.0	Ventana	34.409	02:03:27:22	5.229	V2682-03
 	descend	Appendicularia	849.03	2683	 	36.702885	-122.04838	1757230	0.34	2005-07-11 18:25:29.0	Ventana	34.484	02:09:33:00	4.385	V2683-02
 	transect	Mediaster	 	2687	 	 	 	1811871	 	2005-07-13 20:27:51.0	Ventana	 	03:52:49:00	 	V2687-04
 	transect	Nanomia bijuga	200.45	2681	 	36.69828	-122.05329	2490718	1.71	2005-07-07 17:08:29.0	Ventana	34.193	00:39:36:15	8.323	V2681-01HD
 	ascend	Appendicularia	617.05	2682	 	36.698868	-122.05986	1723409	0.39	2005-07-08 20:37:59.0	Ventana	34.385	04:30:07:10	5.489	V2682-05
 	descend	Poeobius meseres	1071.36	2682	 	36.698326	-122.05916	1722057	0.5	2005-07-08 19:05:07.0	Ventana	34.538	02:58:09:23	3.787	V2682-03
 	transect	Appendicularia	300.41	2681	 	36.69662	-122.05221	2492513	1.23	2005-07-07 17:26:12.0	Ventana	34.233	00:57:18:17	7.398	V2681-01HD
 	transect	Ceriantharia sp. 2	999.44	2669	 	36.730484	-122.22873	1683354	0.45	2005-05-25 18:05:02.0	Ventana	34.522	00:27:29:23	3.906	V2669-01
 	transect	Careproctus melanurus	799.95	2674	http://search.mbari.org/ARCHIVE/frameGrabs/Ventana/images/2674/00_32_02_04.jpg	36.75253	-122.20367	1799373	0.35	2005-06-08 17:47:29.0	Ventana	34.483	00:32:02:04	4.378	V2674-01
 	transect	Mesomyaria	800.96	2674	 	36.75213	-122.20823	1800725	0.35	2005-06-08 18:10:44.0	Ventana	34.49	00:55:15:27	4.32	V2674-01
 	starttransect	Glyptocephalus zachirus	 	2687	 	 	 	1811165	 	2005-07-13 19:58:58.0	Ventana	 	03:23:58:09	 	V2687-04
 	transect	Brisaster	999.61	2669	 	36.731194	-122.23581	1684383	0.44	2005-05-25 18:55:54.0	Ventana	34.521	01:17:54:13	3.935	V2669-02
 	ascend	Euphausiacea	206.66	2682	 	36.696552	-122.06078	1723762	1.97	2005-07-08 21:30:59.0	Ventana	34.172	05:22:38:09	8.049	V2682-06
 	transect	Rathbunaster californicus	203.17	2696	 	36.805256	-122.12819	1813666	1.48	2005-08-01 18:13:24.0	Ventana	34.215	01:41:15:28	8.618	V2696-02
 	cruise	Glyptocephalus zachirus	333.05	2688	 	36.808155	-122.02018	1677826	1.22	2005-07-14 18:09:06.833	Ventana	34.228	01:54:48:27	7.53	V2688-02
 	descend	sinker	365.26	2681	 	36.695568	-122.05123	1715057	0.97	2005-07-07 17:32:07.267	Ventana	34.261	01:02:30:28	7.011	V2681-02
 	ascend	Appendicularia	933.58	2682	 	36.697845	-122.05851	1723086	0.4	2005-07-08 20:11:31.0	Ventana	34.51	04:03:41:12	4.141	V2682-05
 	transect	Glyptocephalus zachirus	 	2687	 	 	 	1810136	 	2005-07-13 18:59:01.0	Ventana	 	02:24:46:06	 	V2687-03
 	descend	Appendicularia	352.99	2682	 	36.698624	-122.060394	1720322	1.02	2005-07-08 17:21:42.0	Ventana	34.254	01:15:13:21	7.097	V2682-02
 	cruise	Chionoecetes tanneri	1231.82	2683	 	36.705788	-122.04786	1757553	0.75	2005-07-11 19:52:47.0	Ventana	34.577	03:27:10:00	3.289	V2683-04
 	transect	molt	400.71	2681	 	36.697857	-122.05356	2493219	0.79	2005-07-07 17:49:49.0	Ventana	34.278	01:20:12:28	6.66	V2681-02HD
 	transect	Mesomyaria	997.49	2669	 	36.73063	-122.22778	1649210	0.45	2005-05-25 17:58:50.0	Ventana	34.521	00:21:18:22	3.907	V2669-01
 	transect	Ceriantharia sp. 2	1000.0	2669	 	36.731686	-122.24355	1733849	0.41	2005-05-25 19:47:39.0	Ventana	34.511	02:09:09:08	4.072	V2669-03
 	descend	Appendicularia	320.49	2683	 	36.70116	-122.05011	1756524	1.22	2005-07-11 16:54:50.0	Ventana	34.24	00:42:30:17	7.552	V2683-01
 	ascend	Euphausiacea	259.59	2681	 	36.699425	-122.05454	1718587	1.42	2005-07-07 21:12:49.593	Ventana	34.225	04:41:09:07	7.96	V2681-05
 	transect	Phyllospadix	799.99	2674	 	36.752502	-122.20335	1799313	0.35	2005-06-08 17:45:19.0	Ventana	34.485	00:29:52:05	4.378	V2674-01
 	transect	Ophiuroidea	999.31	2669	 	36.73102	-122.23176	1683677	0.45	2005-05-25 18:28:48.0	Ventana	34.521	00:51:14:09	3.913	V2669-01
 	descend	Copepoda	812.54	2683	 	36.702682	-122.04867	1757170	0.36	2005-07-11 18:03:24.0	Ventana	34.471	01:47:30:09	4.532	V2683-02
 	cruise	Coryphaenoides acrolepis	 	2673	 	 	 	1668355	 	 	Ventana	 	00:17:12:16	 	V2673-01
 	descend	Appendicularia	525.03	2683	 	36.70147	-122.04913	1756907	0.58	2005-07-11 17:42:00.0	Ventana	34.319	01:26:05:25	6.282	V2683-02
 	transect	Mediaster	 	2687	 	 	 	1810196	 	2005-07-13 19:08:13.0	Ventana	 	02:33:58:01	 	V2687-03
 	descend	Appendicularia	274.13	2683	 	36.70099	-122.05028	1756464	1.37	2005-07-11 16:52:05.0	Ventana	34.229	00:39:44:24	7.833	V2683-01
 	cruise	Allocentrotus fragilis	414.84	2676	 	36.803825	-122.02921	1676444	0.68	2005-06-14 16:43:12.933	Ventana	34.309	00:27:20:28	6.499	V2676-01
 	ascend	Chaetognatha	326.05	2681	 	36.699703	-122.05524	1718144	1.2	2005-07-07 20:56:35.933	Ventana	34.237	04:24:57:03	7.35	V2681-05
 	transect	Psolus squamatus	 	2687	 	 	 	1810902	 	2005-07-13 19:41:52.0	Ventana	 	03:06:54:02	 	V2687-04
 	transect	Glyptocephalus zachirus	200.98	2696	 	36.805256	-122.12819	1813606	1.5	2005-08-01 18:03:57.0	Ventana	34.211	01:31:49:11	8.668	V2696-02
 	descend	Appendicularia	846.5	2682	 	36.698315	-122.05945	1721734	0.34	2005-07-08 18:47:40.0	Ventana	34.48	02:40:43:05	4.444	V2682-03
 	transect	Phyllospadix	801.77	2674	 	36.75226	-122.207085	1800019	0.36	2005-06-08 18:05:09.0	Ventana	34.492	00:49:41:03	4.356	V2674-01
 	transect	Psolus squamatus	 	2687	 	 	 	1808784	 	2005-07-13 17:29:28.0	Ventana	 	00:56:20:24	 	V2687-01
 	transect	Appendicularia	200.43	2681	 	36.69828	-122.0533	2490778	1.73	2005-07-07 17:08:47.0	Ventana	34.193	00:39:55:11	8.321	V2681-01HD
 	transect	Leuroglossus stilbius	500.57	2681	 	36.697254	-122.05294	2493482	0.44	2005-07-07 17:58:04.0	Ventana	34.346	01:28:27:08	6.025	V2681-02HD
 	transect	doliolenetta	901.0	2681	 	36.69543	-122.05124	2498454	0.39	2005-07-07 19:13:48.0	Ventana	34.505	02:43:30:03	4.171	V2681-03HD
 	ascend	Poeobius meseres	705.12	2683	 	36.70583	-122.04898	1757876	0.27	2005-07-11 21:05:47.0	Ventana	34.45	04:38:40:02	4.774	V2683-05
 	transect	Hormiphora	200.44	2681	 	36.69828	-122.05329	2490335	1.7	2005-07-07 17:07:02.0	Ventana	34.198	00:38:10:10	8.347	V2681-01HD
 	descend	Dosidicus gigas	607.68	2681	 	36.695744	-122.05099	1715823	0.3	2005-07-07 18:15:12.66	Ventana	34.389	01:45:33:20	5.445	V2681-02
 	ascend	Atolla	895.76	2681	 	36.698055	-122.0549	1717175	0.37	2005-07-07 19:49:28.18	Ventana	34.505	03:18:31:12	4.209	V2681-04
 	transect	Psolus squamatus	399.83	2687	 	36.78802	-122.12142	1809047	1.15	2005-07-13 17:35:08.0	Ventana	34.24	01:01:30:09	7.293	V2687-02
 	cruise	Lycodapus	1220.08	2683	 	36.706306	-122.04752	1757613	0.73	2005-07-11 20:08:26.0	Ventana	34.577	03:42:48:18	3.333	V2683-04
 	transect	Ophiuroidea	999.63	2669	 	36.73137	-122.23774	1687530	0.44	2005-05-25 19:12:33.0	Ventana	34.52	01:34:32:07	3.947	V2669-02
 	ascend	Ptychogena	787.45	2681	 	36.698936	-122.05656	1717438	0.29	2005-07-07 20:03:15.967	Ventana	34.458	03:32:18:10	4.693	V2681-04
 	transect	Chionoecetes tanneri	602.65	2680	 	36.789764	-122.23258	1806726	0.36	2005-06-27 20:13:39.0	Ventana	34.378	02:52:16:09	5.586	V2680-03
 	ascend	Chaetognatha	256.8	2681	 	36.697975	-122.055016	1719233	1.46	2005-07-07 21:26:12.633	Ventana	34.224	04:54:31:14	7.989	V2681-05
 	transect	Mediaster	 	2687	 	 	 	1812254	 	2005-07-13 20:29:58.0	Ventana	 	03:54:56:22	 	V2687-04
 	transect	molt	100.53	2681	 	36.69983	-122.05429	2489629	2.13	2005-07-07 16:46:38.0	Ventana	34.068	00:17:47:12	9.144	V2681-01HD
 	transect	Embassichthys bathybius	1000.35	2669	http://search.mbari.org/ARCHIVE/frameGrabs/Ventana/images/2669/02_03_26_01.jpg	36.73152	-122.24239	1694500	0.41	2005-05-25 19:41:29.0	Ventana	34.511	02:03:26:01	4.062	V2669-02
 	descend	Dosidicus gigas	400.22	2681	 	36.695553	-122.05119	1715117	0.81	2005-07-07 17:33:50.967	Ventana	34.279	01:04:15:01	6.693	V2681-02
 	transect	Sebastes diploproa	 	2687	 	 	 	1806989	 	2005-07-13 16:53:16.0	Ventana	 	00:20:10:19	 	V2687-01
 	transect	Neptunea amianta	798.82	2674	 	36.75145	-122.21467	1801371	0.35	2005-06-08 18:42:47.0	Ventana	34.489	01:26:50:24	4.333	V2674-02
 	transect	Ophiuroidea	999.28	2669	 	36.73138	-122.23639	1684766	0.44	2005-05-25 19:00:31.0	Ventana	34.518	01:22:30:28	3.944	V2669-02
 	stationary	Appendicularia	504.2	2695	 	36.78466	-122.20051	1824489	0.67	2005-07-28 19:04:06.0	Ventana	34.295	04:10:20:24	6.299	V2695-02
 	transect	Calycophorae	300.45	2681	 	36.697823	-122.05323	2492130	1.23	2005-07-07 17:22:07.0	Ventana	34.233	00:53:13:10	7.4	V2681-01HD
 	descend	Copepoda	965.7	2682	 	36.698322	-122.059326	1721997	0.42	2005-07-08 18:56:01.0	Ventana	34.519	02:49:02:13	4.046	V2682-03
 	transect	chuniphyes	700.65	2681	 	36.697716	-122.05357	2497628	0.29	2005-07-07 18:36:43.0	Ventana	34.435	02:06:26:13	4.975	V2681-03HD
 	transect	Gastropoda sp.2	999.32	2669	 	36.730507	-122.22863	1694943	0.45	2005-05-25 18:04:33.0	Ventana	34.522	00:27:01:10	3.906	V2669-01
 	descend	Poeobius meseres	924.44	2683	 	36.703545	-122.048515	1757290	0.38	2005-07-11 18:54:38.0	Ventana	34.501	02:35:00:07	4.2	V2683-03
 	transect	Mediaster	 	2687	 	 	 	1811811	 	2005-07-13 20:26:01.0	Ventana	 	03:50:59:21	 	V2687-04
 	descend	Chuniphyes	700.03	2681	 	36.697952	-122.053734	1716026	0.29	2005-07-07 18:32:43.8	Ventana	34.429	02:03:04:07	4.983	V2681-02
 	descend	Appendicularia	554.86	2682	 	36.69863	-122.05979	1720908	0.34	2005-07-08 18:05:55.0	Ventana	34.37	01:59:24:04	5.654	V2682-02
 	transect	Mesomyaria	1000.3	2669	 	36.73202	-122.24734	1735877	0.41	2005-05-25 20:14:25.0	Ventana	34.508	02:35:54:17	4.07	V2669-03
 	ascend	Copepoda	361.31	2693	 	36.694157	-122.061	1758875	1.24	2005-07-25 21:02:35.0	Ventana	34.232	03:27:07:17	7.352	V2693-04
 	ascend	Aegina	1002.37	2683	 	36.70744	-122.04911	1757816	0.43	2005-07-11 20:51:13.0	Ventana	34.52	04:24:06:02	4.01	V2683-05
 	transect	Mesomyaria	999.89	2669	 	36.73061	-122.22924	1651065	0.45	2005-05-25 18:08:24.0	Ventana	34.522	00:30:52:17	3.906	V2669-01
 	transect	Psolus squamatus	 	2687	 	 	 	1807635	 	2005-07-13 17:19:37.0	Ventana	 	00:46:30:05	 	V2687-01
 	transect	Phyllospadix	196.88	2696	 	36.80265	-122.12169	1813020	1.52	2005-08-01 16:55:07.0	Ventana	34.204	00:23:26:26	8.573	V2696-01
 	ascend	Appendicularia	470.65	2682	 	36.698338	-122.06313	1723702	0.58	2005-07-08 21:17:03.0	Ventana	34.309	05:08:43:19	6.297	V2682-06
 	descend	Appendicularia	493.91	2683	 	36.70146	-122.04938	1756787	0.71	2005-07-11 17:24:43.0	Ventana	34.3	01:08:50:26	6.519	V2683-02
 	transect	Allocentrotus fragilis	 	2687	 	 	 	1812314	 	2005-07-13 20:32:01.0	Ventana	 	03:56:59:05	 	V2687-04
 	transect	Phyllospadix	800.69	2674	 	36.75244	-122.204636	1799636	0.36	2005-06-08 17:52:59.0	Ventana	34.49	00:37:31:23	4.348	V2674-01
 	cruise	Sebastes	429.81	2688	 	36.80544	-122.01905	1677706	0.92	2005-07-14 17:46:30.0	Ventana	34.271	01:32:13:17	6.931	V2688-02
 	transect	Diogenidae	598.41	2680	 	36.781006	-122.22595	1804841	0.35	2005-06-27 18:30:10.0	Ventana	34.378	01:09:16:22	5.588	V2680-02
 	transect	Rathbunaster californicus	200.19	2696	 	36.804974	-122.127686	1813546	1.51	2005-08-01 17:58:49.0	Ventana	34.212	01:26:41:12	8.674	V2696-02
 	ascend	Aegina	681.83	2682	 	36.69889	-122.0595	1723349	0.28	2005-07-08 20:33:26.0	Ventana	34.41	04:25:34:28	5.168	V2682-05
 	transect	Mesomyaria	799.52	2674	 	36.75253	-122.20405	1799433	0.35	2005-06-08 17:49:16.0	Ventana	34.486	00:33:49:09	4.37	V2674-01
 	transect	Mesomyaria	1000.25	2669	 	36.731815	-122.245155	1735351	0.4	2005-05-25 19:57:54.0	Ventana	34.505	02:19:24:10	4.099	V2669-03
 	transect	Microstomus pacificus	 	2687	 	 	 	1812517	 	2005-07-13 20:43:11.0	Ventana	 	04:07:41:17	 	V2687-05
 	transect	Mesomyaria	1000.38	2669	 	36.731983	-122.246445	1735674	0.41	2005-05-25 20:07:36.0	Ventana	34.51	02:29:06:27	4.065	V2669-03
 	transect	Chionoecetes tanneri	800.86	2674	 	36.752502	-122.202835	1799253	0.34	2005-06-08 17:42:47.0	Ventana	34.482	00:27:20:21	4.383	V2674-01
 	transect	Anthoptilum grandiflorum	598.93	2680	http://search.mbari.org/ARCHIVE/frameGrabs/Ventana/images/2680/01_01_36_00.jpg	36.78036	-122.22533	1804638	0.35	2005-06-27 18:21:30.0	Ventana	34.38	01:01:36:00	5.565	V2680-01
 	descend	Copepoda	255.87	2682	 	36.699795	-122.06083	1719999	1.38	2005-07-08 16:25:49.0	Ventana	34.231	00:19:54:15	7.883	V2682-01
 	transect	Mesomyaria	800.6	2674	 	36.7526	-122.201775	1799110	0.34	2005-06-08 17:37:43.0	Ventana	34.484	00:22:16:15	4.416	V2674-01
 	transect	Rathbunaster californicus	197.75	2696	 	36.803486	-122.12398	1813223	1.54	2005-08-01 17:21:59.0	Ventana	34.2	00:50:17:15	8.611	V2696-01
 	transect	Poeobius meseres	700.57	2681	 	36.69527	-122.05103	2497951	0.28	2005-07-07 18:47:17.0	Ventana	34.431	02:16:59:29	5.0	V2681-03HD
 	cruise	Pleuronectiformes	516.76	2688	 	36.800343	-122.01901	1677503	0.67	2005-07-14 17:12:50.0	Ventana	34.311	00:59:06:24	6.385	V2688-01
 	transect	Mesomyaria	999.05	2669	 	36.731194	-122.23437	1684120	0.45	2005-05-25 18:44:28.0	Ventana	34.521	01:06:28:26	3.916	V2669-02
 	descend	Chaetognatha	148.21	2683	 	36.700703	-122.05163	1756261	1.7	2005-07-11 16:23:50.0	Ventana	34.17	00:11:31:29	8.879	V2683-01
 	transect	Phyllospadix	800.57	2674	 	36.75204	-122.208984	1800845	0.35	2005-06-08 18:14:28.0	Ventana	34.49	00:58:59:24	4.341	V2674-01
 	transect	Microstomus pacificus	199.61	2696	 	36.80397	-122.12552	1813343	1.52	2005-08-01 17:37:47.0	Ventana	34.208	01:05:41:16	8.645	V2696-02
 	transect	Ophiuroidea	999.9	2669	 	36.73141	-122.23671	1684826	0.44	2005-05-25 19:03:47.0	Ventana	34.52	01:25:46:18	3.938	V2669-02
 	descend	Appendicularia	742.77	2682	 	36.698456	-122.05965	1721614	0.29	2005-07-08 18:29:41.0	Ventana	34.443	02:22:44:16	4.84	V2682-03
 	transect	Ceriantharia sp. 1	601.11	2680	 	36.787003	-122.23143	1805900	0.36	2005-06-27 19:44:36.0	Ventana	34.377	02:23:14:24	5.598	V2680-03
 	transect	molt	200.38	2681	 	36.69829	-122.05333	2491041	1.69	2005-07-07 17:11:08.0	Ventana	34.196	00:42:14:15	8.332	V2681-01HD
 	descend	Phialidium	433.08	2681	 	36.69808	-122.05383	1715320	0.62	2005-07-07 17:51:39.933	Ventana	34.3	01:22:02:11	6.341	V2681-02
 	descend	Gonatus	929.89	2682	 	36.698257	-122.05939	1721794	0.35	2005-07-08 18:53:00.0	Ventana	34.497	02:46:01:19	4.268	V2682-03
 	transect	Mesomyaria	802.11	2674	 	36.75224	-122.20659	1799959	0.37	2005-06-08 18:02:53.0	Ventana	34.489	00:47:25:09	4.322	V2674-01
 	ascend	Appendicularia	480.5	2683	 	36.704334	-122.05057	1757996	0.69	2005-07-11 21:17:05.0	Ventana	34.303	04:49:57:20	6.52	V2683-05
 	transect	Ophiuroidea	998.83	2669	 	36.730984	-122.23024	1651268	0.45	2005-05-25 18:16:14.0	Ventana	34.523	00:38:41:07	3.908	V2669-01
 	transect	Brisaster	999.75	2669	 	36.731415	-122.2372	1687470	0.44	2005-05-25 19:08:23.0	Ventana	34.52	01:30:22:22	3.945	V2669-02
 	descend	Chuniphyes	560.44	2683	 	36.701794	-122.04914	1756967	0.44	2005-07-11 17:45:23.0	Ventana	34.341	01:29:28:17	6.053	V2683-02
 	transect	Pennatulacea sp.1	602.4	2680	 	36.790554	-122.23275	1806786	0.35	2005-06-27 20:20:57.0	Ventana	34.376	02:59:33:18	5.598	V2680-03
 	descend	Acanthamunnopsis milleri	228.78	2681	 	36.698532	-122.05351	1713585	1.48	2005-07-07 17:15:25.133	Ventana	34.218	00:46:32:27	8.167	V2681-01
 	descend	Copepoda	729.87	2683	 	36.70227	-122.048935	1757110	0.33	2005-07-11 17:56:22.0	Ventana	34.439	01:40:28:27	4.859	V2683-02
 	transect	Mediaster	 	2687	 	 	 	1812637	 	2005-07-13 20:49:07.0	Ventana	 	04:13:37:21	 	V2687-05
 	ascend	Appendicularia	258.17	2681	 	36.697838	-122.05522	1719293	 	2005-07-07 21:29:59.0	Ventana	 	04:59:46:21	 	V2681-05
 	transect	Ceriantharia sp. 2	1000.64	2669	 	36.73229	-122.24897	1736260	0.41	2005-05-25 20:25:59.0	Ventana	34.51	02:47:28:28	4.067	V2669-03
 	transect	Phyllospadix	999.94	2669	 	36.732594	-122.25031	1736966	0.41	2005-05-25 20:35:29.0	Ventana	34.51	02:56:57:15	4.068	V2669-03
 	ascend	Nanomia	157.13	2693	 	36.69071	-122.06299	1759258	1.91	2005-07-25 21:31:08.0	Ventana	34.116	03:55:39:19	9.023	V2693-04
 	transect	Nanomia bijuga	400.8	2681	 	36.696068	-122.05151	2492956	0.79	2005-07-07 17:42:17.0	Ventana	34.278	01:12:41:15	6.661	V2681-02HD
 	transect	Mesomyaria	1000.13	2669	http://search.mbari.org/ARCHIVE/frameGrabs/Ventana/images/2669/01_02_14_13.jpg	36.73094	-122.233734	1683940	0.45	2005-05-25 18:40:13.0	Ventana	34.523	01:02:14:13	3.911	V2669-02
 	transect	Pennatulacea sp.1	599.79	2680	 	36.778942	-122.22412	1804458	0.36	2005-06-27 18:05:01.0	Ventana	34.377	00:45:07:26	5.602	V2680-01
 	cruise	Pleuronectiformes	611.85	2688	 	36.795097	-122.01901	1677323	0.44	2005-07-14 16:32:44.0	Ventana	34.391	00:19:04:07	5.463	V2688-01
 	transect	Mediaster	 	2687	 	 	 	1807492	 	2005-07-13 17:11:30.0	Ventana	 	00:38:24:07	 	V2687-01
 	transect	Mesomyaria	801.86	2674	 	36.75178	-122.210785	1801048	0.36	2005-06-08 18:23:18.0	Ventana	34.492	01:07:22:19	4.322	V2674-02
 	descend	Apolemia	239.66	2693	 	36.698563	-122.06172	1758379	1.5	2005-07-25 19:23:25.0	Ventana	34.233	02:03:27:16	8.541	V2693-02
 	transect	Chionoecetes tanneri	805.85	2674	 	36.75041	-122.22175	1803752	0.34	2005-06-08 19:16:53.0	Ventana	34.481	02:00:54:14	4.404	V2674-02
 	transect	Mesomyaria	802.59	2674	 	36.752327	-122.20566	1799816	0.36	2005-06-08 17:58:10.0	Ventana	34.488	00:42:42:16	4.332	V2674-01
 	transect	Mesomyaria	999.58	2669	 	36.731323	-122.23592	1684443	0.44	2005-05-25 18:57:03.0	Ventana	34.52	01:19:02:22	3.936	V2669-02
 	transect	molt	100.47	2681	 	36.699802	-122.054276	2489749	2.12	2005-07-07 16:49:33.0	Ventana	34.067	00:20:41:09	9.156	V2681-01HD
 	transect	Mediaster	 	2687	 	 	 	1807312	 	2005-07-13 17:06:04.0	Ventana	 	00:32:58:10	 	V2687-01
 	descend	Chaetognatha	400.23	2681	 	36.695564	-122.05114	1715177	0.79	2005-07-07 17:34:52.667	Ventana	34.278	01:05:16:05	6.678	V2681-02
 	ascend	Chaetognatha	902.67	2682	 	36.698193	-122.05843	1723206	0.36	2005-07-08 20:14:14.0	Ventana	34.494	04:06:23:18	4.267	V2682-05
 	transect	Phyllospadix	998.17	2669	 	36.73301	-122.25266	1737469	0.4	2005-05-25 20:48:52.0	Ventana	34.509	03:09:41:20	4.074	V2669-04
 	transect	Solmissus	300.41	2681	 	36.697445	-122.05291	2492250	1.23	2005-07-07 17:23:23.0	Ventana	34.232	00:54:29:20	7.397	V2681-01HD
 	descend	Copepoda	800.83	2681	 	36.696957	-122.053116	1716409	0.31	2005-07-07 19:02:51.167	Ventana	34.473	02:32:34:02	4.51	V2681-03
 	cruise	Lycodapus	1207.74	2683	 	36.707047	-122.04767	1757673	0.72	2005-07-11 20:16:22.0	Ventana	34.574	03:50:45:02	3.355	V2683-04
 	transect	Porifera sp. 1	 	2687	 	 	 	1808724	 	2005-07-13 17:27:55.0	Ventana	 	00:54:48:01	 	V2687-01
 	transect	Diogenidae	600.41	2680	 	36.777176	-122.22235	1804255	0.36	2005-06-27 17:42:57.0	Ventana	34.379	00:23:04:19	5.577	V2680-01
 	descend	Nanomia	215.9	2683	 	36.701	-122.05078	1756404	1.69	2005-07-11 16:48:22.0	Ventana	34.195	00:36:01:22	8.283	V2683-01
 	transect	Ophiuroidea	999.52	2669	 	36.73099	-122.232346	1683737	0.45	2005-05-25 18:32:05.0	Ventana	34.521	00:54:30:29	3.914	V2669-01
 	transect	Appendicularia	400.75	2681	 	36.697495	-122.05318	2493159	0.79	2005-07-07 17:48:21.0	Ventana	34.277	01:18:44:17	6.662	V2681-02HD
 	transect	Sebastolobus	 	2687	 	 	 	1810519	 	2005-07-13 19:21:41.0	Ventana	 	02:47:24:25	 	V2687-03
 	ascend	Euphausiacea	261.43	2681	 	36.698875	-122.05688	1718910	1.42	2005-07-07 21:19:20.967	Ventana	34.232	04:47:40:06	7.95	V2681-05
 	transect	Sebastolobus altivelis	800.95	2674	 	36.751022	-122.218094	1803549	0.35	2005-06-08 18:58:41.0	Ventana	34.492	01:42:44:06	4.326	V2674-02
 	descend	Appendicularia	399.6	2682	 	36.69829	-122.059875	1720705	0.84	2005-07-08 17:37:41.0	Ventana	34.249	01:31:11:21	6.657	V2682-02
 	descend	Chaetognatha	1142.39	2683	 	36.705116	-122.048904	1757493	0.64	2005-07-11 19:33:09.0	Ventana	34.555	03:13:30:27	3.545	V2683-03
 	transect	beroe	600.53	2681	 	36.697823	-122.053734	2493865	0.3	2005-07-07 18:28:19.0	Ventana	34.387	01:58:41:02	5.478	V2681-02HD
 	ascend	Appendicularia	596.31	2682	 	36.6985	-122.06214	1723559	0.38	2005-07-08 21:04:25.0	Ventana	34.369	04:56:30:28	5.698	V2682-05
 	transect	Mediaster	 	2687	 	 	 	1811225	 	2005-07-13 20:04:51.0	Ventana	 	03:29:51:09	 	V2687-04
 	transect	Rathbunaster californicus	204.11	2696	 	36.805954	-122.12946	1813726	1.49	2005-08-01 18:20:46.0	Ventana	34.211	01:48:37:20	8.635	V2696-02
 	ascend	Chuniphyes	978.25	2681	 	36.69692	-122.05337	1716589	0.44	2005-07-07 19:35:59.533	Ventana	34.52	03:05:40:11	3.992	V2681-03
 	descend	Hastigerinella digitata	365.36	2683	 	36.701374	-122.04984	1756584	1.12	2005-07-11 16:57:23.0	Ventana	34.236	00:45:02:26	7.099	V2683-01
 	transect	Phyllospadix	799.13	2674	 	36.751717	-122.212776	1801228	0.35	2005-06-08 18:30:50.0	Ventana	34.49	01:14:54:01	4.332	V2674-02
 	transect	Phyllospadix	999.78	2669	 	36.731056	-122.23894	1689092	0.43	2005-05-25 19:20:56.0	Ventana	34.518	01:42:54:24	3.96	V2669-02
 	descend	Appendicularia	676.42	2682	 	36.69866	-122.05995	1721411	0.28	2005-07-08 18:12:21.0	Ventana	34.412	02:05:25:28	5.189	V2682-03
 	descend	Nanomia	157.32	2693	 	36.69628	-122.05774	1758199	1.97	2005-07-25 17:57:20.0	Ventana	34.117	00:37:50:18	8.964	V2693-01
 	transect	Psolus squamatus	 	2687	 	 	 	1808904	 	2005-07-13 17:31:36.0	Ventana	 	00:58:28:14	 	V2687-01
 	cruise	Rathbunaster californicus	106.77	2688	 	36.812447	-122.024536	1678029	1.95	2005-07-14 18:51:26.0	Ventana	34.095	02:36:40:12	8.899	V2688-03
 	transect	Halipteris californica	598.59	2680	 	36.78241	-122.22758	1805164	0.35	2005-06-27 18:50:01.0	Ventana	34.378	01:29:06:02	5.584	V2680-02
 	ascend	Nanomia	215.56	2693	 	36.691196	-122.06254	1759138	1.66	2005-07-25 21:24:06.0	Ventana	34.197	03:48:37:14	8.61	V2693-04
 	transect	Phyllospadix	800.6	2674	 	36.751957	-122.20964	1800928	0.35	2005-06-08 18:18:04.0	Ventana	34.493	01:02:09:12	4.326	V2674-02
 	transect	Phyllospadix	800.35	2674	 	36.75257	-122.20222	1799170	0.33	2005-06-08 17:39:37.0	Ventana	34.478	00:24:10:08	4.435	V2674-01
 	descend	Nanomia	184.31	2683	 	36.70104	-122.051125	1756344	1.62	2005-07-11 16:42:16.0	Ventana	34.186	00:29:57:25	8.649	V2683-01
 	descend	Appendicularia	640.92	2683	 	36.70203	-122.04896	1757050	0.38	2005-07-11 17:51:35.0	Ventana	34.381	01:35:41:25	5.553	V2683-02
 	transect	Mediaster	 	2687	 	 	 	1812780	 	2005-07-13 20:57:10.0	Ventana	 	04:21:39:27	 	V2687-05
 	ascend	Appendicularia	933.41	2681	 	36.69766	-122.054115	1716972	0.41	2005-07-07 19:43:41.233	Ventana	34.513	03:12:44:24	4.084	V2681-04
 	transect	Calliostoma platinum	 	2687	 	 	 	1810316	 	2005-07-13 19:15:20.0	Ventana	 	02:41:04:02	 	V2687-03
 	transect	Ceriantharia sp. 1	598.48	2680	 	36.781998	-122.227	1805081	0.35	2005-06-27 18:43:11.0	Ventana	34.379	01:22:16:29	5.587	V2680-02
 	transect	Rathbunaster californicus	203.37	2696	 	36.806618	-122.13019	1813786	1.48	2005-08-01 18:30:14.0	Ventana	34.214	01:58:04:28	8.647	V2696-02
 	transect	molt	100.48	2681	 	36.698803	-122.05363	2489892	2.14	2005-07-07 16:52:28.0	Ventana	34.068	00:23:37:18	9.136	V2681-01HD
 	transect	Calliostoma platinum	399.68	2687	 	36.78929	-122.124756	1809610	1.16	2005-07-13 18:24:03.0	Ventana	34.239	01:50:21:27	7.332	V2687-02
 	transect	Radiolaria	1001.03	2681	 	36.6953	-122.05125	2498597	0.48	2005-07-07 19:24:04.0	Ventana	34.535	02:53:44:17	3.84	V2681-03HD
 	transect	Porifera sp. 1	 	2687	 	 	 	1808581	 	2005-07-13 17:24:25.0	Ventana	 	00:51:18:14	 	V2687-01
 	transect	lobata	200.45	2681	 	36.69828	-122.05329	2490192	1.7	2005-07-07 17:05:36.0	Ventana	34.197	00:36:45:05	8.358	V2681-01HD
 	transect	Mesomyaria	800.37	2674	 	36.751293	-122.21574	1803369	0.35	2005-06-08 18:47:34.0	Ventana	34.485	01:31:37:24	4.343	V2674-02
 	transect	Psolus squamatus	 	2687	 	 	 	1808927	 	2005-07-13 17:32:10.0	Ventana	 	00:59:02:02	 	V2687-01
 	endtransect	color bars	50.36	2681	http://search.mbari.org/ARCHIVE/frameGrabs/Ventana/images/2681/00_11_25_14.jpg	36.69983	-122.05429	20004464	3.05	2005-07-07 16:40:34.767	Ventana	33.9	00:11:45:06	9.65	V2681-01
 	transect	Mediaster	 	2687	 	 	 	1811728	 	2005-07-13 20:22:39.0	Ventana	 	03:47:37:25	 	V2687-04
 	transect	Phyllospadix	800.03	2674	 	36.75265	-122.20041	1774114	0.29	2005-06-08 17:30:25.0	Ventana	34.462	00:14:59:07	4.653	V2674-01
 	transect	Mediaster	399.9	2687	 	36.78813	-122.1217	1809287	1.13	2005-07-13 17:38:21.0	Ventana	34.25	01:04:43:06	7.281	V2687-02
 	transect	Gastropoda	199.96	2696	 	36.80463	-122.12694	1813486	1.51	2005-08-01 17:52:16.0	Ventana	34.205	01:20:09:21	8.669	V2696-02
 	transect	Euphausia	200.48	2681	 	36.69828	-122.05329	2490598	1.72	2005-07-07 17:07:45.0	Ventana	34.195	00:38:53:02	8.334	V2681-01HD
 	transect	Ophiuroidea	999.04	2669	 	36.731106	-122.23502	1684240	0.45	2005-05-25 18:50:19.0	Ventana	34.522	01:12:19:08	3.92	V2669-02
 	ascend	Nanomia	388.55	2681	 	36.69933	-122.05459	1718001	0.92	2005-07-07 20:48:56.033	Ventana	34.268	04:17:17:05	6.959	V2681-05
 	transect	Phyllospadix	598.5	2680	 	36.7806	-122.22562	1804781	0.35	2005-06-27 18:25:24.0	Ventana	34.378	01:04:30:27	5.571	V2680-02
 	descend	Bathochordaeus	148.31	2683	http://search.mbari.org/ARCHIVE/frameGrabs/Ventana/images/2683/00_08_54_25.jpg	36.700607	-122.0515	20004870	1.7	2005-07-11 16:21:13.0	Ventana	34.172	00:08:54:25	8.872	V2683-01
 	ascend	Calycophorae	880.03	2682	 	36.698456	-122.05845	1723229	0.33	2005-07-08 20:17:53.0	Ventana	34.491	04:10:02:25	4.328	V2682-05
 	transect	Ceriantharia sp. 1	798.43	2674	 	36.751663	-122.21353	1801288	0.35	2005-06-08 18:35:14.0	Ventana	34.487	01:19:17:24	4.35	V2674-02
 	ascend	Aegina	628.09	2681	 	36.698914	-122.05423	1717678	0.31	2005-07-07 20:28:26.017	Ventana	34.39	03:57:26:10	5.423	V2681-04
 	transect	Euphausia	200.42	2681	 	36.69828	-122.0533	2490898	1.7	2005-07-07 17:09:33.0	Ventana	34.197	00:40:41:21	8.33	V2681-01HD
 	transect	Euphausia	200.39	2681	 	36.69832	-122.05343	2491304	1.66	2005-07-07 17:13:26.0	Ventana	34.2	00:44:35:07	8.34	V2681-01HD
 	transect	Phyllospadix	1000.25	2669	 	36.731777	-122.2447	1734435	0.4	2005-05-25 19:54:38.0	Ventana	34.505	02:16:09:01	4.085	V2669-03
 	ascend	Chaetognatha	375.18	2693	 	36.695747	-122.06063	1758792	1.2	2005-07-25 20:51:22.0	Ventana	34.233	03:15:56:16	7.166	V2693-04
 	transect	Psolus squamatus	 	2687	 	 	 	1811022	 	2005-07-13 19:48:34.0	Ventana	 	03:13:35:03	 	V2687-04
 	transect	cydippida	500.59	2681	 	36.69757	-122.05332	2493362	0.44	2005-07-07 17:56:31.0	Ventana	34.347	01:26:55:09	6.018	V2681-02HD
 	transect	Funiculina	998.78	2669	 	36.73109	-122.23112	1683534	0.45	2005-05-25 18:23:24.0	Ventana	34.521	00:45:51:02	3.915	V2669-01
 	descend	Bargmannia	444.94	2682	 	36.698326	-122.05966	1720765	0.58	2005-07-08 17:48:00.0	Ventana	34.317	01:41:30:11	6.336	V2682-02
 	transect	Ceriantharia sp. 1	599.87	2680	 	36.778248	-122.22344	1804375	0.36	2005-06-27 17:56:05.0	Ventana	34.381	00:36:11:28	5.586	V2680-01
 	transect	Ophiuroidea	999.36	2669	 	36.730762	-122.229515	1651125	0.45	2005-05-25 18:10:42.0	Ventana	34.523	00:33:09:17	3.906	V2669-01
 	ascend	Appendicularia	548.31	2682	 	36.69831	-122.062744	1723619	0.39	2005-07-08 21:09:21.0	Ventana	34.354	05:01:02:20	5.897	V2682-06
 	descend	Chaetognatha	1037.26	2683	 	36.70484	-122.0493	1757410	0.46	2005-07-11 19:24:19.0	Ventana	34.528	03:04:40:17	3.89	V2683-03
 	transect	Psolus squamatus	399.87	2687	 	36.78813	-122.121635	1809250	1.13	2005-07-13 17:37:39.0	Ventana	34.243	01:04:01:00	7.26	V2687-02
 	ascend	Copepoda	849.55	2681	 	36.69857	-122.05581	1717378	0.33	2005-07-07 19:55:12.2	Ventana	34.49	03:24:14:17	4.36	V2681-04
 	descend	Nebalia	1192.37	2682	 	36.698437	-122.05836	1722237	0.68	2005-07-08 19:32:21.0	Ventana	34.572	03:24:58:22	3.377	V2682-04
 	transect	Phyllospadix	799.19	2674	 	36.752518	-122.204384	1799576	0.35	2005-06-08 17:51:20.0	Ventana	34.488	00:35:52:18	4.374	V2674-01
 	ascend	Appendicularia	1192.91	2683	 	36.7073	-122.04765	1757696	0.72	2005-07-11 20:22:04.0	Ventana	34.573	03:56:26:26	3.365	V2683-04
 	transect	Ophiuroidea	998.53	2669	 	36.73091	-122.22987	1651185	0.45	2005-05-25 18:13:24.0	Ventana	34.521	00:35:50:24	3.906	V2669-01
 	transect	Psolus squamatus	 	2687	 	 	 	1807515	 	2005-07-13 17:13:58.0	Ventana	 	00:40:51:26	 	V2687-01
 	descend	Calycophorae	405.35	2683	 	36.70144	-122.049545	1756644	0.94	2005-07-11 17:04:45.0	Ventana	34.263	00:52:24:12	6.938	V2683-01
 	transect	Poeobius meseres	600.57	2681	 	36.69632	-122.051926	2493722	0.3	2005-07-07 18:21:29.0	Ventana	34.386	01:51:49:29	5.487	V2681-02HD
 	transect	Mesomyaria	1000.26	2669	 	36.73213	-122.24803	1736177	0.41	2005-05-25 20:19:10.4	Ventana	34.51	02:40:40:16	4.064	V2669-03
 	descend	Calycophorae	448.08	2683	 	36.701576	-122.049385	1756704	0.81	2005-07-11 17:08:52.0	Ventana	34.278	00:56:32:04	6.718	V2683-01
 	transect	Psolus squamatus	 	2687	 	 	 	1809956	 	2005-07-13 18:48:47.0	Ventana	 	02:14:33:05	 	V2687-03
 	ascend	Appendicularia	346.68	2681	 	36.699333	-122.05516	1718084	1.1	2005-07-07 20:52:56.867	Ventana	34.247	04:21:17:23	7.233	V2681-05
 	transect	Phyllospadix	802.87	2674	 	36.750835	-122.22006	1803669	0.34	2005-06-08 19:07:00.0	Ventana	34.482	01:51:02:12	4.385	V2674-02
 	transect	Calycophorae	100.54	2681	 	36.69983	-122.05429	2489546	2.13	2005-07-07 16:44:26.0	Ventana	34.067	00:15:35:05	9.144	V2681-01HD
 	transect	Sebastes diploproa	 	2687	 	 	 	1812720	 	2005-07-13 20:54:44.0	Ventana	 	04:19:14:04	 	V2687-05
 	ascend	Appendicularia	668.59	2681	 	36.69876	-122.05436	1717641	0.28	2005-07-07 20:23:44.633	Ventana	34.41	03:52:45:22	5.204	V2681-04
 	transect	Neptunea amianta	602.13	2680	 	36.790787	-122.232834	1806809	0.35	2005-06-27 20:22:57.0	Ventana	34.379	03:01:33:28	5.586	V2680-03
 	transect	Rathbunaster californicus	203.63	2696	 	36.807507	-122.13116	1813846	1.46	2005-08-01 18:42:30.0	Ventana	34.218	02:09:35:04	8.62	V2696-03
 	cruise	Sebastolobus	603.24	2688	 	36.793423	-122.01863	1677263	0.49	2005-07-14 16:23:54.0	Ventana	34.365	00:10:15:01	5.717	V2688-01
 	descend	Mysidae	972.95	2683	 	36.704056	-122.04862	1757350	0.42	2005-07-11 19:13:33.0	Ventana	34.516	02:53:55:22	4.036	V2683-03
 	transect	Nanomia bijuga	400.75	2681	 	36.696518	-122.05204	2493016	0.79	2005-07-07 17:44:14.0	Ventana	34.276	01:14:37:20	6.645	V2681-02HD
 	descend	Chaetognatha	160.86	2683	 	36.700657	-122.051636	1756284	1.69	2005-07-11 16:26:57.0	Ventana	34.174	00:14:40:12	8.79	V2683-01
 	descend	Calycophorae	494.96	2682	 	36.698597	-122.05977	1720825	0.46	2005-07-08 17:59:05.0	Ventana	34.34	01:52:35:05	6.088	V2682-02
 	transect	Appendicularia	500.6	2681	 	36.69787	-122.05363	2493279	0.44	2005-07-07 17:55:19.0	Ventana	34.346	01:25:42:26	6.021	V2681-02HD
 	transect	Chaetognatha	1001.01	2681	 	36.69592	-122.05209	2498657	0.47	2005-07-07 19:27:33.0	Ventana	34.53	02:57:13:26	3.868	V2681-03HD
 	descend	Appendicularia	294.92	2682	 	36.699306	-122.06063	1720119	1.2	2005-07-08 16:53:50.0	Ventana	34.243	00:47:53:11	7.416	V2682-01
 	transect	Sergestes similis	300.45	2681	 	36.6984	-122.053566	2491950	1.25	2005-07-07 17:20:02.0	Ventana	34.234	00:51:10:05	7.43	V2681-01HD
 	transect	Mesomyaria	800.44	2674	 	36.75123	-122.2162	1803406	0.35	2005-06-08 18:50:19.0	Ventana	34.491	01:34:22:07	4.335	V2674-02
 	cruise	Pleuronectiformes	452.97	2688	 	36.803333	-122.01809	1677623	0.89	2005-07-14 17:34:49.0	Ventana	34.27	01:20:32:28	6.881	V2688-02
 	cruise	Laminariales	97.74	2688	 	36.81696	-122.01421	1679321	1.99	2005-07-14 19:53:57.0	Ventana	34.087	03:38:43:23	8.916	V2688-04
 	transect	Euphausia	200.41	2681	 	36.698284	-122.05331	2490958	1.7	2005-07-07 17:10:13.0	Ventana	34.194	00:41:20:15	8.329	V2681-01HD
 	transect	Mesomyaria	1000.15	2669	 	36.731075	-122.23872	1689055	0.43	2005-05-25 19:19:30.0	Ventana	34.514	01:41:28:21	3.969	V2669-02
 	transect	Rathbunaster californicus	 	2687	 	 	 	1812434	 	2005-07-13 20:38:41.0	Ventana	 	04:03:38:20	 	V2687-04
 	transect	molt	50.39	2681	 	36.69983	-122.05429	2485693	3.0	2005-07-07 16:37:44.0	Ventana	33.913	00:08:52:15	9.634	V2681-01HD
 	ascend	sinker	404.16	2683	 	36.704075	-122.0506	1758056	0.97	2005-07-11 21:20:12.0	Ventana	34.256	04:53:03:17	6.91	V2683-05
 	transect	Stomphia	598.45	2680	 	36.78156	-122.226685	1805021	0.36	2005-06-27 18:38:14.0	Ventana	34.376	01:17:19:25	5.601	V2680-02
 	ascend	Appendicularia	258.17	2681	 	36.697838	-122.05522	1719496	 	2005-07-07 21:29:59.0	Ventana	 	05:08:18:17	 	V2681-05
 	cruise	Gorgonocephalus	102.84	2676	 	36.808903	-122.035675	1677000	1.92	2005-06-14 18:33:15.0	Ventana	34.15	02:12:02:15	8.475	V2676-03
 	transect	Calycophorae	300.41	2681	 	36.696068	-122.051704	2492573	1.24	2005-07-07 17:28:13.0	Ventana	34.233	00:59:19:05	7.427	V2681-01HD
 	transect	Caridea sp.1	999.67	2669	 	36.731094	-122.23539	1684323	0.45	2005-05-25 18:53:15.0	Ventana	34.521	01:15:15:06	3.924	V2669-02
 	ascend	Appendicularia	1012.13	2682	 	36.697727	-122.058174	1722883	0.46	2005-07-08 20:05:09.0	Ventana	34.526	03:57:44:23	3.916	V2682-04
 	transect	Phyllospadix	199.62	2696	 	36.80433	-122.12623	1813426	1.52	2005-08-01 17:45:23.0	Ventana	34.209	01:13:17:06	8.663	V2696-02
 	transect	Allocentrotus fragilis	 	2687	 	 	 	1810602	 	2005-07-13 19:23:45.0	Ventana	 	02:49:28:19	 	V2687-03
 	transect	Nanomia bijuga	400.74	2681	 	36.696953	-122.05257	2493076	0.79	2005-07-07 17:46:06.0	Ventana	34.277	01:16:30:05	6.659	V2681-02HD
 	transect	Phyllospadix	800.48	2674	 	36.752617	-122.20108	1774174	0.34	2005-06-08 17:34:08.0	Ventana	34.482	00:18:41:19	4.417	V2674-01
 	ascend	Haliscera	367.4	2693	 	36.694633	-122.06102	1758852	1.24	2005-07-25 21:00:19.0	Ventana	34.233	03:24:51:03	7.344	V2693-04
 	cruise	Lycodes	452.01	2676	 	36.802914	-122.02928	1676324	0.62	2005-06-14 16:36:38.0	Ventana	34.321	00:20:47:12	6.337	V2676-01
 	transect	Psolus squamatus	 	2687	 	 	 	1808844	 	2005-07-13 17:30:22.0	Ventana	 	00:57:14:24	 	V2687-01
 	transect	Phyllospadix	799.65	2674	 	36.751747	-122.21225	1801191	0.35	2005-06-08 18:29:03.0	Ventana	34.49	01:13:07:08	4.336	V2674-02
 	transect	Mesomyaria	1000.32	2669	 	36.73092	-122.23285	1683820	0.45	2005-05-25 18:35:31.0	Ventana	34.521	00:57:57:11	3.911	V2669-01
 	ascend	Euphausiacea	263.79	2681	 	36.699512	-122.05451	1718444	1.41	2005-07-07 21:09:12.467	Ventana	34.231	04:37:32:10	7.912	V2681-05
 	transect	Umbellula lindahli	599.38	2680	 	36.777782	-122.22282	1804315	0.36	2005-06-27 17:50:24.0	Ventana	34.379	00:30:30:26	5.584	V2680-01
 	ascend	Poeobius meseres	926.25	2682	 	36.697994	-122.05849	1723146	0.38	2005-07-08 20:12:30.0	Ventana	34.504	04:04:39:10	4.192	V2682-05
 	cruise	Sebastes	253.76	2688	 	36.809277	-122.02036	1677909	1.53	2005-07-14 18:29:35.0	Ventana	34.196	02:14:50:23	8.208	V2688-03
 	transect	Mesomyaria	799.36	2674	 	36.75154	-122.2142	1801348	0.35	2005-06-08 18:39:47.0	Ventana	34.489	01:23:50:26	4.335	V2674-02
 	transect	phialidium	500.62	2681	 	36.696106	-122.05163	2493625	0.43	2005-07-07 18:02:53.0	Ventana	34.347	01:33:17:01	6.006	V2681-02HD
 	ascend	Appendicularia	520.38	2681	 	36.698963	-122.05425	1717738	0.46	2005-07-07 20:33:38.737	Ventana	34.34	04:02:38:22	6.085	V2681-04
 	transect	Sebastolobus altivelis	801.2	2674	 	36.750957	-122.21881	1803609	0.35	2005-06-08 19:01:39.0	Ventana	34.488	01:45:41:12	4.352	V2674-02
 	transect	sinker	600.6	2681	 	36.69678	-122.05249	2493782	0.3	2005-07-07 18:23:41.0	Ventana	34.388	01:54:02:14	5.477	V2681-02HD
 	ascend	Calycophorae	423.53	2681	 	36.699203	-122.05421	1717941	0.78	2005-07-07 20:44:26.9	Ventana	34.277	04:13:03:10	6.638	V2681-05
 	descend	Appendicularia	208.88	2693	 	36.69605	-122.05831	1758319	1.78	2005-07-25 18:26:16.0	Ventana	34.17	01:06:21:20	8.659	V2693-02
 	transect	Stomphia	 	2687	 	 	 	1810399	 	2005-07-13 19:17:01.0	Ventana	 	02:42:45:16	 	V2687-03
 	cruise	Sebastolobus	610.88	2688	 	36.79585	-122.019844	1677360	0.45	2005-07-14 16:37:23.0	Ventana	34.384	00:23:42:18	5.531	V2688-01
 	ascend	Nanomia	197.13	2693	 	36.690746	-122.062744	1759198	1.8	2005-07-25 21:26:08.0	Ventana	34.184	03:50:39:26	8.893	V2693-04
 	transect	Psolus squamatus	 	2687	 	 	 	1811465	 	2005-07-13 20:13:50.0	Ventana	 	03:38:49:22	 	V2687-04
 	transect	Ophiuroidea	999.38	2669	 	36.73142	-122.23622	1684683	0.44	2005-05-25 18:59:13.0	Ventana	34.52	01:21:12:17	3.941	V2669-02
 	transect	Mesomyaria	998.25	2669	 	36.73298	-122.252335	1737432	0.4	2005-05-25 20:47:22.0	Ventana	34.508	03:08:12:00	4.076	V2669-04
 	transect	Mediaster	399.67	2687	 	36.789158	-122.124245	1809550	1.18	2005-07-13 18:16:11.0	Ventana	34.238	01:42:30:23	7.363	V2687-02
 	transect	Mesomyaria	999.83	2669	 	36.731323	-122.23799	1688319	0.43	2005-05-25 19:14:44.0	Ventana	34.518	01:36:42:27	3.959	V2669-02
 	transect	Psolus squamatus	 	2687	 	 	 	1810759	 	2005-07-13 19:32:32.0	Ventana	 	02:58:15:21	 	V2687-03
 	transect	Ophiuroidea	999.17	2669	 	36.73139	-122.23605	1684526	0.44	2005-05-25 18:57:53.0	Ventana	34.52	01:19:52:26	3.939	V2669-02
 	ascend	Euphausiacea	254.72	2681	 	36.698536	-122.05631	1719150	1.46	2005-07-07 21:23:58.167	Ventana	34.225	04:52:16:19	8.0	V2681-05
 	transect	molt	100.49	2681	 	36.69919	-122.05388	2489832	2.13	2005-07-07 16:51:30.0	Ventana	34.068	00:22:38:09	9.141	V2681-01HD
 	descend	Appendicularia	953.64	2681	 	36.694656	-122.050385	1716529	0.43	2005-07-07 19:18:35.727	Ventana	34.518	02:48:17:04	4.01	V2681-03
 	transect	Mediaster	 	2687	 	 	 	1811308	 	2005-07-13 20:06:21.0	Ventana	 	03:31:20:22	 	V2687-04
 	transect	Mesomyaria	1000.21	2669	 	36.73105	-122.23945	1689152	0.41	2005-05-25 19:23:52.0	Ventana	34.517	01:45:50:19	4.046	V2669-02
 	transect	Glyptocephalus zachirus	399.94	2687	 	36.78939	-122.125496	1809693	1.13	2005-07-13 18:35:57.0	Ventana	34.243	02:02:16:00	7.266	V2687-02
 	transect	Mesomyaria	1000.33	2669	 	36.731556	-122.242905	1694560	0.4	2005-05-25 19:43:58.0	Ventana	34.505	02:05:55:14	4.096	V2669-02
 	transect	Mesomyaria	802.89	2674	 	36.75181	-122.21014	1800988	0.36	2005-06-08 18:20:26.0	Ventana	34.49	01:04:31:03	4.316	V2674-02
 	transect	Brisaster	997.88	2669	http://search.mbari.org/ARCHIVE/frameGrabs/Ventana/images/2669/00_24_43_29.jpg	36.730556	-122.22826	1649353	0.45	2005-05-25 18:02:15.0	Ventana	34.523	00:24:43:29	3.907	V2669-01
 	transect	Mesomyaria	1000.07	2669	 	36.731243	-122.23833	1688852	0.43	2005-05-25 19:17:21.0	Ventana	34.519	01:39:19:17	3.975	V2669-02
 	stationary	Merluccius productus	502.36	2694	 	36.784622	-122.20044	1676654	0.77	2005-07-27 20:21:02.0	Ventana	34.285	02:53:10:01	6.503	V2694-03
 	transect	Appendicularia	400.8	2681	 	36.69589	-122.0513	2492919	0.79	2005-07-07 17:41:23.0	Ventana	34.276	01:11:46:10	6.665	V2681-02HD
 	transect	Phyllospadix	 	2687	 	 	 	1807229	 	2005-07-13 17:04:35.0	Ventana	 	00:31:29:10	 	V2687-01
 	ascend	Poeobius meseres	370.98	2693	 	36.696346	-122.06076	1758665	1.2	2005-07-25 20:27:01.0	Ventana	34.232	03:06:33:06	7.163	V2693-03
 	transect	Gastropoda sp.2	998.5	2669	 	36.73102	-122.230255	1695063	0.45	2005-05-25 18:16:32.0	Ventana	34.523	00:38:58:21	3.91	V2669-01
 	descend	Copepoda	285.03	2682	 	36.699665	-122.060814	1720059	1.31	2005-07-08 16:36:35.0	Ventana	34.225	00:30:38:14	7.604	V2682-01
 	ascend	Nanomia	258.17	2681	 	36.697838	-122.05522	1719556	 	2005-07-07 21:29:59.0	Ventana	 	05:13:35:25	 	V2681-05
 	descend	Lobata	561.1	2681	 	36.69569	-122.051056	1715620	0.35	2005-07-07 18:06:33.2	Ventana	34.366	01:36:55:07	5.705	V2681-02
 	transect	Brisaster	998.92	2669	 	36.73284	-122.25152	1737229	0.4	2005-05-25 20:42:29.0	Ventana	34.509	03:03:17:23	4.073	V2669-04
 	transect	Porifera sp. 1	 	2687	http://search.mbari.org/ARCHIVE/frameGrabs/Ventana/images/2687/00_59_58_03.jpg	 	 	1808987	 	2005-07-13 17:33:06.0	Ventana	 	00:59:58:03	 	V2687-01
 	ascend	Chaetognatha	335.15	2693	 	36.69273	-122.06189	1758995	1.26	2005-07-25 21:14:11.0	Ventana	34.237	03:38:43:01	7.468	V2693-04
 	transect	Mediaster	 	2687	 	 	 	1811668	 	2005-07-13 20:20:24.0	Ventana	 	03:45:23:04	 	V2687-04
 	transect	Stomphia	999.76	2669	 	36.7318	-122.24456	1734375	0.4	2005-05-25 19:53:39.0	Ventana	34.506	02:15:09:05	4.08	V2669-03
 	transect	Mediaster	 	2687	 	 	 	1812374	 	2005-07-13 20:35:00.0	Ventana	 	03:59:58:12	 	V2687-04
 	transect	Appendicularia	800.86	2681	 	36.69643	-122.052444	2498251	0.31	2005-07-07 19:00:22.0	Ventana	34.475	02:30:03:09	4.502	V2681-03HD
 	transect	Lycenchelys camchatica	801.38	2674	 	36.75222	-122.2076	1800079	0.38	2005-06-08 18:07:41.0	Ventana	34.486	00:52:13:12	4.35	V2674-01
 	ascend	Appendicularia	597.69	2682	 	36.698746	-122.06099	1723492	0.35	2005-07-08 20:50:09.0	Ventana	34.374	04:42:16:06	5.642	V2682-05
 	ascend	Crustacea	208.66	2683	 	36.70277	-122.05074	1758116	1.68	2005-07-11 21:28:40.0	Ventana	34.204	05:01:32:05	8.424	V2683-05
 	cruise	Remote Instrument Node	124.34	2672	http://search.mbari.org/ARCHIVE/frameGrabs/Ventana/images/2672/00_18_46_03.jpg	36.8031	-121.80559	20003818	2.68	2005-06-03 14:59:24.0	Ventana	33.953	00:18:46:03	9.337	V2672-01
 	cruise	Osteichthyes	485.38	2688	 	36.801815	-122.0184	1677563	0.78	2005-07-14 17:26:20.0	Ventana	34.291	01:12:04:24	6.641	V2688-02
 	transect	Mesomyaria	800.74	2674	 	36.751114	-122.21694	1803466	0.35	2005-06-08 18:53:15.0	Ventana	34.495	01:37:18:16	4.351	V2674-02
 	transect	Psolus squamatus	 	2687	 	 	 	1810256	 	2005-07-13 19:12:50.0	Ventana	 	02:38:34:12	 	V2687-03
 	transect	Mesomyaria	1000.2	2669	 	36.73163	-122.243385	1733826	0.41	2005-05-25 19:46:54.0	Ventana	34.511	02:08:25:12	4.068	V2669-03
 	descend	Aegina	696.12	2681	 	36.697926	-122.0538	1715966	0.27	2005-07-07 18:31:50.983	Ventana	34.418	02:02:10:29	5.068	V2681-02
 	cruise	Gastropoda	1017.69	2689	 	36.771618	-122.08297	1669910	0.51	2005-07-18 17:36:42.0	Ventana	34.533	00:59:43:04	3.826	V2689-01
 	descend	Lobata	294.43	2693	 	36.69778	-122.06113	1758462	1.33	2005-07-25 19:38:14.0	Ventana	34.235	02:17:50:17	7.78	V2693-03
 	ascend	Chaetognatha	259.8	2681	 	36.699245	-122.05431	1718647	1.43	2005-07-07 21:14:40.567	Ventana	34.23	04:43:00:03	7.97	V2681-05
 	transect	Psolus squamatus	399.87	2687	 	36.788082	-122.12158	1809190	1.13	2005-07-13 17:36:56.0	Ventana	34.241	01:03:18:10	7.262	V2687-02
 	transect	Mesomyaria	602.1	2680	 	36.7917	-122.23298	1806869	0.36	2005-06-27 20:29:59.0	Ventana	34.379	03:08:35:13	5.59	V2680-03
 	transect	Colobonema sericeum	500.56	2681	 	36.697426	-122.05314	2493422	0.44	2005-07-07 17:57:12.0	Ventana	34.346	01:27:34:11	6.018	V2681-02HD
 	transect	Mesomyaria	1000.29	2669	 	36.73128	-122.240944	1689355	0.41	2005-05-25 19:33:41.0	Ventana	34.51	01:55:38:25	4.055	V2669-02
 	descend	Solmissus	297.89	2681	 	36.698532	-122.053665	1713645	1.26	2005-07-07 17:18:59.467	Ventana	34.228	00:50:07:01	7.464	V2681-01
 	ascend	Appendicularia	713.4	2681	 	36.698704	-122.055115	1717581	0.29	2005-07-07 20:19:22.847	Ventana	34.431	03:48:24:07	5.008	V2681-04
 	transect	Mediaster	 	2687	 	 	 	1808641	 	2005-07-13 17:25:53.0	Ventana	 	00:52:46:03	 	V2687-01
 	ascend	Nanomia	258.17	2681	 	36.697838	-122.05522	1719353	 	2005-07-07 21:29:59.0	Ventana	 	05:02:04:24	 	V2681-05
 	transect	Mediaster	 	2687	 	 	 	1812577	 	2005-07-13 20:46:02.0	Ventana	 	04:10:32:27	 	V2687-05
 	ascend	Doliolenetta	762.64	2682	 	36.698746	-122.05903	1723289	0.3	2005-07-08 20:27:14.0	Ventana	34.445	04:19:23:09	4.819	V2682-05
 	transect	Stomphia	1001.0	2669	http://search.mbari.org/ARCHIVE/frameGrabs/Ventana/images/2669/02_49_21_12.jpg	36.732277	-122.24929	1736320	0.4	2005-05-25 20:27:52.0	Ventana	34.508	02:49:21:12	4.072	V2669-03
 	transect	Psolus squamatus	 	2687	 	 	 	1809896	 	2005-07-13 18:47:34.0	Ventana	 	02:13:20:12	 	V2687-03
 	transect	Umbellula lindahli	602.83	2680	 	36.7886	-122.232346	1805960	0.36	2005-06-27 20:01:23.0	Ventana	34.379	02:40:01:10	5.604	V2680-03
 	transect	Calliostoma platinum	 	2687	 	 	 	1810962	 	2005-07-13 19:44:26.0	Ventana	 	03:09:27:14	 	V2687-04
 	stationary	manipulator	1284.24	2673	 	36.802937	-121.804695	1668295	0.81	2005-06-07 17:16:56.0	Ventana	34.579	00:00:48:05	3.219	V2673-01
 	transect	Stomphia	999.1	2669	 	36.731125	-122.234795	1684180	0.45	2005-05-25 18:48:00.0	Ventana	34.521	01:10:00:07	3.916	V2669-02
 	ascend	Appendicularia	1156.67	2683	 	36.70796	-122.048836	1757756	0.7	2005-07-11 20:34:42.0	Ventana	34.57	04:09:03:11	3.409	V2683-04
 	ascend	Appendicularia	909.9	2681	 	36.697865	-122.05458	1717032	0.37	2005-07-07 19:47:23.367	Ventana	34.504	03:16:26:06	4.199	V2681-04
 	transect	Lycenchelys camchatica	800.28	2674	 	36.752087	-122.20861	1800785	0.36	2005-06-08 18:12:32.0	Ventana	34.49	00:57:03:09	4.319	V2674-01
 	transect	Nanomia bijuga	200.41	2681	 	36.698296	-122.05335	2491101	1.69	2005-07-07 17:11:48.0	Ventana	34.198	00:42:56:04	8.335	V2681-01HD
 	descend	Hormiphora	219.26	2682	 	36.69989	-122.06071	1719962	1.77	2005-07-08 16:21:30.0	Ventana	34.197	00:15:34:29	7.986	V2682-01
 	transect	Psolus squamatus	399.86	2687	http://search.mbari.org/ARCHIVE/frameGrabs/Ventana/images/2687/01_02_12_24.jpg	36.788044	-122.12152	1809084	1.14	2005-07-13 17:35:50.0	Ventana	34.237	01:02:12:24	7.276	V2687-02
 	stationary	Merluccius productus	501.64	2695	 	36.784576	-122.20044	1824452	0.86	2005-07-28 17:34:02.0	Ventana	34.268	00:40:22:19	6.646	V2695-01
 	transect	Psolus squamatus	 	2687	http://search.mbari.org/ARCHIVE/frameGrabs/Ventana/images/2687/03_40_03_15.jpg	 	 	1811525	 	2005-07-13 20:15:04.0	Ventana	 	03:40:03:15	 	V2687-04
 	transect	Brisaster	599.31	2680	 	36.779728	-122.224915	1804555	0.36	2005-06-27 18:14:52.0	Ventana	34.375	00:54:58:00	5.619	V2680-01
 	transect	Phyllospadix	198.32	2696	 	36.803608	-122.124435	1813260	1.53	2005-08-01 17:27:36.0	Ventana	34.204	00:55:53:29	8.617	V2696-01
 	transect	molt	100.51	2681	 	36.699825	-122.05429	2489712	2.13	2005-07-07 16:48:29.0	Ventana	34.067	00:19:37:29	9.151	V2681-01HD
 	descend	Chaetognatha	189.39	2693	 	36.69607	-122.05817	1758282	1.82	2005-07-25 18:14:15.0	Ventana	34.182	00:54:45:17	8.885	V2693-01
 	ascend	Aegina	335.34	2682	 	36.697342	-122.0617	1723739	1.09	2005-07-08 21:25:15.0	Ventana	34.248	05:16:55:18	7.24	V2682-06
 	transect	Salpida	200.39	2681	 	36.6983	-122.05337	2491124	1.68	2005-07-07 17:12:08.0	Ventana	34.198	00:43:15:02	8.337	V2681-01HD
 	ascend	Leptomedusae	254.01	2681	 	36.698254	-122.05565	1719210	1.46	2005-07-07 21:25:05.7	Ventana	34.227	04:53:24:18	8.0	V2681-05
 	transect	Mesomyaria	798.87	2674	 	36.751366	-122.21513	1801408	0.35	2005-06-08 18:44:38.0	Ventana	34.49	01:28:41:06	4.338	V2674-02
 	transect	Mediaster	 	2687	 	 	 	1812277	 	2005-07-13 20:30:30.0	Ventana	 	03:55:27:25	 	V2687-04
 	ascend	Hastigerinella digitata	304.62	2681	 	36.69968	-122.05525	1718181	1.29	2005-07-07 20:58:52.983	Ventana	34.232	04:27:13:15	7.589	V2681-05
 	cruise	Chionoecetes tanneri	1237.28	2683	 	36.70567	-122.04806	1757530	0.72	2005-07-11 19:48:38.0	Ventana	34.575	03:23:03:03	3.345	V2683-04
 	transect	Ophiuroidea	998.94	2669	 	36.731403	-122.23647	1684789	0.44	2005-05-25 19:01:31.0	Ventana	34.52	01:23:30:21	3.941	V2669-02
 	transect	Phyllospadix	1000.38	2669	 	36.73147	-122.24223	1694477	0.4	2005-05-25 19:40:42.0	Ventana	34.509	02:02:39:09	4.067	V2669-02
 	ascend	Chaetognatha	343.11	2693	 	36.69369	-122.06121	1758912	1.25	2005-07-25 21:07:21.0	Ventana	34.237	03:31:52:28	7.399	V2693-04
 	transect	Hastigerinella digitata	300.45	2681	 	36.697918	-122.0533	2492107	1.24	2005-07-07 17:21:49.0	Ventana	34.234	00:52:55:09	7.402	V2681-01HD
 	cruise	LRJ Complex	527.1	2688	 	36.799065	-122.01929	1677466	0.62	2005-07-14 17:04:05.0	Ventana	34.331	00:50:23:16	6.273	V2688-01
 	descend	Appendicularia	336.74	2683	 	36.701237	-122.05002	1756547	1.24	2005-07-11 16:55:46.0	Ventana	34.221	00:43:26:20	7.329	V2683-01
 	transect	Lycenchelys camchatica	799.82	2674	 	36.752537	-122.20385	1799396	0.35	2005-06-08 17:48:08.0	Ventana	34.488	00:32:41:06	4.37	V2674-01
 	transect	Brisaster	999.95	2669	 	36.732605	-122.25056	1737003	0.41	2005-05-25 20:36:46.0	Ventana	34.508	02:58:14:10	4.073	V2669-03
 	descend	Solmissus	290.89	2681	 	36.69857	-122.0537	1713622	1.29	2005-07-07 17:17:30.8	Ventana	34.224	00:48:37:28	7.532	V2681-01
 	transect	lobata	800.94	2681	 	36.69521	-122.05099	2498094	0.31	2005-07-07 18:54:37.0	Ventana	34.477	02:24:19:05	4.486	V2681-03HD
 	transect	Ophiuroidea	998.54	2669	 	36.731106	-122.23068	1683377	0.45	2005-05-25 18:19:39.0	Ventana	34.521	00:42:06:07	3.911	V2669-01
 	transect	Microstomus pacificus	999.62	2669	 	36.731396	-122.23755	1687507	0.44	2005-05-25 19:11:14.0	Ventana	34.52	01:33:13:08	3.942	V2669-02
 	transect	Neptunea amianta	602.49	2680	 	36.787865	-122.232025	1805937	0.36	2005-06-27 19:54:11.0	Ventana	34.378	02:32:49:06	5.59	V2680-03
 	ascend	Appendicularia	731.32	2683	 	36.7061	-122.04862	1757853	0.31	2005-07-11 21:04:21.0	Ventana	34.455	04:37:13:10	4.722	V2683-05
 	transect	Mysidae 2	901.01	2681	 	36.695683	-122.051605	2498417	0.39	2005-07-07 19:12:34.0	Ventana	34.505	02:42:15:01	4.172	V2681-03HD
 	ascend	Prayidae	607.3	2683	 	36.704815	-122.05054	1757959	0.3	2005-07-11 21:11:39.0	Ventana	34.384	04:44:32:00	5.587	V2683-05
 	transect	Phyllospadix	801.99	2674	 	36.75225	-122.20688	1799996	0.37	2005-06-08 18:04:12.0	Ventana	34.49	00:48:43:28	4.328	V2674-01
 	transect	Stomphia	 	2687	 	 	 	1808701	 	2005-07-13 17:27:31.0	Ventana	 	00:54:23:22	 	V2687-01
 	transect	Mediaster	 	2687	 	 	 	1810865	 	2005-07-13 19:38:03.0	Ventana	 	03:03:45:28	 	V2687-03
 	transect	molt	200.44	2681	 	36.69842	-122.0535	2491447	1.68	2005-07-07 17:14:17.0	Ventana	34.2	00:45:23:15	8.341	V2681-01HD
 	cruise	Coryphaenoides acrolepis	 	2673	 	 	 	1668392	 	 	Ventana	 	00:21:38:16	 	V2673-01
 	ascend	Appendicularia	760.34	2681	 	36.69868	-122.05594	1717521	0.29	2005-07-07 20:12:02.267	Ventana	34.45	03:41:03:19	4.809	V2681-04
 	transect	Euplexaura	 	2687	 	 	 	1809836	 	2005-07-13 18:45:12.0	Ventana	 	02:10:58:06	 	V2687-03
 	transect	Sebastolobus altivelis	800.28	2674	 	36.75173	-122.21162	1801131	0.35	2005-06-08 18:26:34.0	Ventana	34.49	01:10:39:07	4.331	V2674-02
 	transect	Psolus squamatus	 	2687	 	 	 	1807672	 	2005-07-13 17:22:04.0	Ventana	 	00:48:57:14	 	V2687-01
 	descend	Dosidicus gigas	625.05	2682	 	36.698624	-122.05983	1721268	0.29	2005-07-08 18:08:30.0	Ventana	34.397	02:01:34:24	5.369	V2682-03
 	transect	Ceriantharia sp. 1	800.82	2674	 	36.75108	-122.217575	1803512	0.35	2005-06-08 18:56:14.0	Ventana	34.491	01:40:17:12	4.345	V2674-02
 	transect	Euplexaura	 	2687	 	 	 	1810173	 	2005-07-13 19:04:38.0	Ventana	 	02:30:22:24	 	V2687-03
 	descend	Appendicularia	816.4	2683	 	36.702705	-122.04862	1757193	0.33	2005-07-11 18:15:48.0	Ventana	34.474	01:59:51:21	4.493	V2683-02
 	ascend	Cydippida	182.63	2693	 	36.690617	-122.06292	1759235	1.93	2005-07-25 21:29:33.0	Ventana	34.138	03:54:05:27	8.863	V2693-04
 	transect	Phyllospadix	800.87	2674	 	36.752533	-122.201614	1799073	0.34	2005-06-08 17:36:29.0	Ventana	34.487	00:21:03:13	4.415	V2674-01
 	transect	Phyllospadix	999.1	2669	 	36.731026	-122.23195	1683700	0.45	2005-05-25 18:29:50.0	Ventana	34.521	00:52:16:04	3.914	V2669-01
 	transect	Aegina	700.64	2681	 	36.69657	-122.05248	2497725	0.29	2005-07-07 18:41:27.0	Ventana	34.439	02:11:10:05	4.946	V2681-03HD
 	descend	Appendicularia	534.42	2683	 	36.70154	-122.04914	1756930	0.54	2005-07-11 17:43:04.0	Ventana	34.324	01:27:10:11	6.217	V2683-02
 	transect	Nanomia bijuga	200.36	2681	 	36.69829	-122.05334	2491064	1.69	2005-07-07 17:11:22.0	Ventana	34.196	00:42:29:05	8.332	V2681-01HD
 	descend	benthos	 	2680	 	 	 	1803955	 	2005-06-27 16:58:05.0	Ventana	 	00:00:06:05	 	V2680-01
 	transect	Mesomyaria	1000.09	2669	 	36.73118	-122.24041	1689258	0.41	2005-05-25 19:30:03.0	Ventana	34.51	01:52:01:15	4.06	V2669-02
 	descend	Chuniphyes	1004.02	2682	 	36.698315	-122.059235	1722020	0.44	2005-07-08 18:58:53.0	Ventana	34.523	02:51:55:11	3.969	V2682-03
 	descend	Appendicularia	246.5	2683	 	36.700947	-122.05059	1756441	1.7	2005-07-11 16:50:22.0	Ventana	34.189	00:38:03:01	8.054	V2683-01
 	transect	Mesomyaria	998.54	2669	 	36.731064	-122.23035	1651291	0.45	2005-05-25 18:17:14.0	Ventana	34.522	00:39:41:13	3.91	V2669-01
 	transect	Rathbunaster californicus	204.0	2696	 	36.80527	-122.12822	1813689	1.49	2005-08-01 18:15:16.0	Ventana	34.212	01:43:07:09	8.632	V2696-02
 	cruise	Gorgonocephalus	98.65	2688	 	36.81324	-122.02008	1679524	1.94	2005-07-14 21:27:59.433	Ventana	34.106	05:12:11:28	8.884	V2688-05
 	descend	Dosidicus gigas	391.54	2681	 	36.695557	-122.05119	1715094	0.86	2005-07-07 17:33:01.333	Ventana	34.259	01:03:25:13	6.794	V2681-02
 	transect	Pseudosagitta maxima	400.73	2681	 	36.6977	-122.053406	2493196	0.79	2005-07-07 17:49:13.0	Ventana	34.278	01:19:35:21	6.66	V2681-02HD
 	transect	Microstomus pacificus	1000.92	2669	 	36.732277	-122.249214	1736283	0.41	2005-05-25 20:27:19.0	Ventana	34.51	02:48:47:03	4.073	V2669-03
 	transect	Appendicularia	700.63	2681	 	36.697155	-122.05301	2497665	0.29	2005-07-07 18:39:12.0	Ventana	34.436	02:08:55:24	4.931	V2681-03HD
 	transect	Phyllospadix	800.36	2674	 	36.752533	-122.20343	1799336	0.35	2005-06-08 17:46:03.0	Ventana	34.483	00:30:36:11	4.371	V2674-01
 	transect	Psolus squamatus	 	2687	 	 	 	1809024	 	2005-07-13 17:33:52.0	Ventana	 	01:00:44:08	 	V2687-01
 	transect	Psolus squamatus	 	2687	 	 	 	1811188	 	2005-07-13 20:00:14.0	Ventana	 	03:25:14:12	 	V2687-04
 	transect	Lycenchelys camchatica	800.64	2674	 	36.752098	-122.208405	1800748	0.35	2005-06-08 18:11:23.0	Ventana	34.487	00:55:54:21	4.328	V2674-01
 	descend	Dosidicus gigas	662.05	2682	 	36.698647	-122.059944	1721374	0.28	2005-07-08 18:11:05.0	Ventana	34.411	02:04:09:17	5.22	V2682-03
 	descend	Lensia	370.52	2693	 	36.696465	-122.06042	1758605	1.2	2005-07-25 20:12:28.0	Ventana	34.231	02:52:02:21	7.164	V2693-03
 	descend	Solmaris	607.02	2681	 	36.69572	-122.050995	1715846	0.3	2005-07-07 18:15:39.853	Ventana	34.385	01:46:01:02	5.488	V2681-02
 	transect	Phyllospadix	999.99	2669	 	36.73197	-122.24625	1735651	0.41	2005-05-25 20:06:23.0	Ventana	34.51	02:27:51:23	4.062	V2669-03
 	ascend	Aegina	284.75	2681	 	36.69975	-122.05518	1718241	1.36	2005-07-07 21:00:46.9	Ventana	34.232	04:29:06:24	7.731	V2681-05
 	transect	Mediaster	 	2687	 	 	 	1808761	 	2005-07-13 17:28:55.0	Ventana	 	00:55:48:01	 	V2687-01
 	transect	Stomphia	 	2687	 	 	 	1810113	 	2005-07-13 18:57:58.0	Ventana	 	02:23:43:08	 	V2687-03
 	ascend	Chaetognatha	781.12	2681	 	36.698833	-122.056366	1717461	0.28	2005-07-07 20:05:25.933	Ventana	34.456	03:34:28:05	4.719	V2681-04
 	transect	Mesomyaria	999.31	2669	 	36.73049	-122.22873	1650922	0.45	2005-05-25 18:04:58.0	Ventana	34.522	00:27:26:14	3.906	V2669-01
 	transect	Allocentrotus fragilis	 	2687	 	 	 	1812540	 	2005-07-13 20:44:41.0	Ventana	 	04:09:11:23	 	V2687-05
 	ascend	Appendicularia	504.07	2682	 	36.69835	-122.06322	1723679	0.49	2005-07-08 21:13:38.0	Ventana	34.334	05:05:18:10	6.15	V2682-06
 	transect	Rathbunaster californicus	200.5	2696	 	36.80521	-122.12811	1813583	1.5	2005-08-01 18:01:37.0	Ventana	34.211	01:29:29:14	8.67	V2696-02
 	ascend	Appendicularia	599.9	2682	 	36.69885	-122.06006	1723432	0.34	2005-07-08 20:39:54.0	Ventana	34.376	04:32:01:26	5.588	V2682-05
 	transect	Psolus squamatus	 	2687	 	 	 	1810925	 	2005-07-13 19:42:56.0	Ventana	 	03:07:58:07	 	V2687-04
 	descend	Appendicularia	217.38	2693	 	36.69613	-122.0582	1758342	1.69	2005-07-25 18:27:55.0	Ventana	34.195	01:07:58:17	8.607	V2693-02
 	transect	Ophiuroidea	999.64	2669	 	36.730576	-122.22899	1651028	0.45	2005-05-25 18:06:36.0	Ventana	34.523	00:29:03:28	3.906	V2669-01
 	transect	Chaetognatha	900.99	2681	 	36.69503	-122.05069	2498477	0.39	2005-07-07 19:15:59.0	Ventana	34.506	02:45:39:26	4.162	V2681-03HD
 	transect	Gastropoda	197.8	2696	 	36.80266	-122.12168	1812997	1.53	2005-08-01 16:50:56.0	Ventana	34.204	00:19:15:11	8.566	V2696-01
 	transect	Nanomia bijuga	200.45	2681	 	36.69828	-122.05329	2490109	1.7	2005-07-07 17:04:46.0	Ventana	34.197	00:35:55:07	8.36	V2681-01HD
 	descend	Vitreosalpa gemini	542.07	2682	 	36.698616	-122.05977	1720885	0.36	2005-07-08 18:04:19.0	Ventana	34.366	01:57:48:18	5.742	V2682-02
 	descend	Chaetognatha	903.51	2683	 	36.703312	-122.04833	1757267	0.37	2005-07-11 18:32:43.0	Ventana	34.499	02:13:07:00	4.235	V2683-03
 	transect	Leptomedusae	200.35	2681	 	36.69836	-122.05346	2491387	1.67	2005-07-07 17:13:54.0	Ventana	34.199	00:45:02:10	8.341	V2681-01HD
 	transect	Allocentrotus fragilis	 	2687	 	 	 	1807612	 	2005-07-13 17:17:45.0	Ventana	 	00:44:38:17	 	V2687-01
 	ascend	Appendicularia	448.31	2683	 	36.70424	-122.050575	1758019	0.76	2005-07-11 21:18:19.0	Ventana	34.287	04:51:11:16	6.648	V2683-05
 	transect	Acanthamunnopsis milleri	200.38	2681	 	36.698307	-122.05338	2491184	1.68	2005-07-07 17:12:36.0	Ventana	34.2	00:43:44:14	8.339	V2681-01HD
 	descend	Appendicularia	382.8	2683	 	36.701454	-122.04979	1756607	1.05	2005-07-11 16:58:21.0	Ventana	34.244	00:46:00:07	6.991	V2683-01
 	transect	Sebastolobus altivelis	802.73	2674	 	36.752228	-122.20643	1799936	0.36	2005-06-08 18:01:51.0	Ventana	34.489	00:46:23:15	4.339	V2674-01
 	transect	Phyllospadix	203.89	2696	 	36.80633	-122.1299	1813749	1.48	2005-08-01 18:25:48.0	Ventana	34.211	01:53:39:01	8.629	V2696-02
 	transect	Hastigerinella digitata	300.42	2681	 	36.69583	-122.051445	2492596	1.24	2005-07-07 17:29:13.0	Ventana	34.232	01:00:20:02	7.431	V2681-01HD
 	transect	Mesomyaria	801.62	2674	 	36.752193	-122.207886	1800116	0.35	2005-06-08 18:09:02.0	Ventana	34.49	00:53:33:29	4.328	V2674-01
 	descend	Copepoda	768.87	2683	 	36.70246	-122.04889	1757133	0.3	2005-07-11 17:58:39.0	Ventana	34.453	01:42:45:11	4.736	V2683-02
 	transect	Neptunea amianta	999.92	2669	 	36.731106	-122.235275	1684300	0.45	2005-05-25 18:52:37.0	Ventana	34.523	01:14:37:13	3.921	V2669-02
 	transect	Brisaster	999.61	2669	 	36.731403	-122.23706	1687447	0.44	2005-05-25 19:07:03.0	Ventana	34.52	01:29:01:29	3.943	V2669-02
 	transect	Brisaster	600.49	2680	 	36.78641	-122.23104	1805877	0.36	2005-06-27 19:38:19.0	Ventana	34.377	02:16:58:15	5.6	V2680-03
 	transect	Acanthamunnopsis milleri	200.43	2681	 	36.69828	-122.05329	2490312	1.69	2005-07-07 17:06:48.0	Ventana	34.199	00:37:55:29	8.355	V2681-01HD
 	descend	Chaetognatha	267.39	2682	 	36.6998	-122.060776	1720022	1.35	2005-07-08 16:28:06.0	Ventana	34.23	00:22:09:20	7.717	V2682-01
 	transect	Phyllospadix	800.41	2674	 	36.75201	-122.2091	1800868	0.35	2005-06-08 18:15:05.0	Ventana	34.487	00:59:36:21	4.328	V2674-01
 	transect	Ceriantharia sp. 1	602.42	2680	 	36.790176	-122.23268	1806749	0.35	2005-06-27 20:17:09.0	Ventana	34.38	02:55:45:16	5.586	V2680-03
 	transect	Poeobius meseres	1001.08	2681	 	36.69472	-122.050514	2498537	0.47	2005-07-07 19:21:07.0	Ventana	34.532	02:50:47:01	3.867	V2681-03HD
 	transect	Mesomyaria	1000.48	2669	 	36.73242	-122.249886	1736740	0.41	2005-05-25 20:32:12.0	Ventana	34.509	02:53:39:11	4.066	V2669-03
 	transect	Psolus squamatus	 	2687	 	 	 	1807086	 	2005-07-13 16:58:57.0	Ventana	 	00:25:51:14	 	V2687-01
 	transect	Mesomyaria	999.59	2669	 	36.730694	-122.2294	1651088	0.45	2005-05-25 18:09:46.0	Ventana	34.522	00:32:13:20	3.91	V2669-01
 	cruise	Ceriantharia sp. 1	103.31	2688	 	36.814724	-122.01646	1679261	1.97	2005-07-14 19:38:27.0	Ventana	34.086	03:23:14:27	8.893	V2688-04
 	descend	Medusae	502.79	2683	 	36.701553	-122.04937	1756810	0.68	2005-07-11 17:27:40.0	Ventana	34.305	01:11:47:29	6.466	V2683-02
 	ascend	Crustacea	656.48	2682	 	36.698902	-122.05961	1723372	0.29	2005-07-08 20:35:28.0	Ventana	34.398	04:27:36:22	5.31	V2682-05
 	transect	Psolus squamatus	 	2687	 	 	 	1812337	 	2005-07-13 20:32:33.0	Ventana	 	03:57:31:15	 	V2687-04
 	descend	Calycophorae	873.06	2682	 	36.6983	-122.05943	1721757	0.33	2005-07-08 18:49:39.0	Ventana	34.489	02:42:41:05	4.355	V2682-03
 	descend	Appendicularia	199.63	2683	 	36.701046	-122.050964	1756381	1.71	2005-07-11 16:46:55.0	Ventana	34.192	00:34:37:03	8.397	V2683-01
 	transect	Porifera	 	2687	 	 	 	1811451	 	2005-07-13 20:13:22.0	Ventana	 	03:38:20:25	 	V2687-04
 	transect	Umbellula lindahli	599.74	2680	 	36.783287	-122.228676	1805367	0.36	2005-06-27 19:05:40.0	Ventana	34.376	01:44:44:17	5.591	V2680-02
 	transect	Euphausia	200.44	2681	 	36.69828	-122.0533	2490861	1.71	2005-07-07 17:09:19.0	Ventana	34.195	00:40:26:04	8.326	V2681-01HD
 	transect	sinker	1000.98	2681	 	36.696285	-122.052536	2498680	0.47	2005-07-07 19:29:05.0	Ventana	34.529	02:58:46:02	3.873	V2681-03HD
 	transect	Lycenchelys camchatica	800.32	2674	 	36.752434	-122.204704	1799659	0.36	2005-06-08 17:53:17.0	Ventana	34.488	00:37:50:08	4.355	V2674-01
 	transect	Phyllospadix	199.37	2696	 	36.80413	-122.125854	1813380	1.52	2005-08-01 17:41:26.0	Ventana	34.208	01:09:20:02	8.666	V2696-02
 	cruise	Appendicularia	381.37	2690	 	36.78997	-121.88752	1670556	0.98	2005-07-18 20:33:11.0	Ventana	34.262	01:48:16:06	7.055	V2690-01
 	transect	Phyllospadix	200.45	2696	 	36.804783	-122.12733	1813523	1.51	2005-08-01 17:55:59.0	Ventana	34.212	01:23:51:28	8.672	V2696-02
 	transect	Calycophorae	700.59	2681	 	36.69508	-122.05077	2497988	0.28	2005-07-07 18:48:17.0	Ventana	34.43	02:17:59:13	4.983	V2681-03HD
 	transect	Sebastolobus altivelis	801.3	2674	 	36.75217	-122.20796	1800688	0.35	2005-06-08 18:09:38.0	Ventana	34.489	00:54:09:29	4.332	V2674-01
 	transect	Neptunea amianta	599.97	2680	 	36.778805	-122.223976	1804435	0.36	2005-06-27 18:03:39.0	Ventana	34.377	00:43:45:24	5.593	V2680-01
 	cruise	Alepocephalus tenebrosus	619.93	2688	 	36.794388	-122.0195	1677300	0.42	2005-07-14 16:29:40.133	Ventana	34.411	00:16:00:05	5.317	V2688-01
 	transect	Mesomyaria	598.29	2680	 	36.78139	-122.226456	1804984	0.36	2005-06-27 18:36:02.0	Ventana	34.378	01:15:07:15	5.598	V2680-02
 	transect	molt	100.54	2681	 	36.69983	-122.05429	2489592	2.12	2005-07-07 16:45:38.0	Ventana	34.068	00:16:47:21	9.15	V2681-01HD
 	transect	Ophiuroidea	997.52	2669	 	36.730656	-122.22785	1649247	0.45	2005-05-25 17:59:49.0	Ventana	34.522	00:22:17:07	3.907	V2669-01
 	transect	Brisaster	1000.22	2669	 	36.731686	-122.243744	1733886	0.41	2005-05-25 19:48:29.0	Ventana	34.507	02:10:00:18	4.068	V2669-03
 	transect	Sebastolobus altivelis	801.23	2674	 	36.75176	-122.21098	1801071	0.35	2005-06-08 18:24:05.0	Ventana	34.491	01:08:10:12	4.329	V2674-02
 	ascend	sinker	904.26	2681	 	36.697956	-122.05469	1717138	0.37	2005-07-07 19:48:15.067	Ventana	34.505	03:17:17:26	4.203	V2681-04
 	descend	Sergestes similis	253.9	2693	 	36.698414	-122.061646	1758402	1.46	2005-07-25 19:25:20.0	Ventana	34.235	02:05:20:20	8.328	V2693-02
 	transect	Calliostoma platinum	 	2687	 	 	 	1812480	 	2005-07-13 20:41:06.0	Ventana	 	04:06:03:23	 	V2687-04
 	transect	Allocentrotus fragilis	 	2687	 	 	 	1811248	 	2005-07-13 20:05:30.0	Ventana	 	03:30:29:27	 	V2687-04
 	ascend	Poeobius meseres	991.05	2681	 	36.696785	-122.053154	1716566	0.45	2005-07-07 19:33:34.633	Ventana	34.524	03:03:15:19	3.946	V2681-03
 	transect	Poeobius meseres	600.63	2681	 	36.69588	-122.05144	2493685	0.3	2005-07-07 18:19:32.0	Ventana	34.388	01:49:53:21	5.495	V2681-02HD
 	cruise	Xeneretmus	310.27	2688	 	36.808605	-122.02029	1677849	1.34	2005-07-14 18:12:29.6	Ventana	34.218	01:58:11:14	7.79	V2688-02
 	transect	Psolus squamatus	 	2687	 	 	 	1812660	 	2005-07-13 20:50:02.0	Ventana	 	04:14:32:27	 	V2687-05
 	transect	Mesomyaria	998.97	2669	 	36.73118	-122.23434	1684097	0.45	2005-05-25 18:43:53.0	Ventana	34.521	01:05:53:18	3.916	V2669-02
 	ascend	Nanomia	233.1	2694	 	36.784725	-122.200455	1676774	1.41	2005-07-27 21:10:13.0	Ventana	34.215	03:41:33:04	8.904	V2694-04
 	descend	Bolinopsis	364.89	2682	 	36.69856	-122.06033	1720345	1.0	2005-07-08 17:25:17.0	Ventana	34.257	01:18:49:22	7.073	V2682-02
 	transect	Glyptocephalus zachirus	 	2687	 	 	 	1810699	 	2005-07-13 19:28:46.0	Ventana	 	02:54:29:06	 	V2687-03
 	ascend	Poeobius meseres	370.93	2693	 	36.696598	-122.06059	1758709	1.2	2005-07-25 20:30:20.0	Ventana	34.234	03:09:52:08	7.177	V2693-03
 	transect	Stomphia	999.93	2669	 	36.730988	-122.23252	1683760	0.45	2005-05-25 18:33:45.0	Ventana	34.521	00:56:10:15	3.915	V2669-01
 	descend	Appendicularia	170.6	2693	 	36.69621	-122.05785	1758222	1.96	2005-07-25 17:59:54.0	Ventana	34.136	00:40:25:18	8.913	V2693-01
 	transect	Phyllospadix	798.98	2674	 	36.75174	-122.21246	1801205	0.35	2005-06-08 18:29:41.0	Ventana	34.49	01:13:45:27	4.33	V2674-02
 	ascend	Chaetognatha	889.97	2681	 	36.698124	-122.055046	1717318	0.36	2005-07-07 19:50:15.733	Ventana	34.504	03:19:18:27	4.221	V2681-04
 	transect	Brisaster	 	2687	 	 	 	1811585	 	2005-07-13 20:16:23.0	Ventana	 	03:41:22:02	 	V2687-04
 	descend	Poeobius meseres	1185.76	2682	 	36.69833	-122.058105	1722297	0.66	2005-07-08 19:39:03.0	Ventana	34.569	03:31:39:07	3.413	V2682-04
 	transect	Phyllospadix	 	2687	 	 	 	1810496	 	2005-07-13 19:20:46.0	Ventana	 	02:46:30:00	 	V2687-03
 	transect	Mesomyaria	801.15	2674	 	36.750996	-122.218346	1803572	0.35	2005-06-08 18:59:42.0	Ventana	34.491	01:43:45:00	4.343	V2674-02
 	transect	Poeobius meseres	400.79	2681	 	36.697346	-122.053	2493136	0.79	2005-07-07 17:47:43.0	Ventana	34.279	01:18:05:26	6.663	V2681-02HD
 	ascend	Copepoda	604.85	2682	 	36.698624	-122.061714	1723536	0.33	2005-07-08 20:57:41.0	Ventana	34.377	04:49:48:18	5.617	V2682-05
 	transect	Phyllospadix	800.52	2674	 	36.752514	-122.20306	1799276	0.34	2005-06-08 17:43:41.0	Ventana	34.485	00:28:14:00	4.416	V2674-01
 	transect	Psolus squamatus	 	2687	 	 	 	1807289	 	2005-07-13 17:05:01.0	Ventana	 	00:31:55:03	 	V2687-01
 	descend	Copepoda	1109.43	2683	 	36.705116	-122.048904	1757470	0.59	2005-07-11 19:30:16.0	Ventana	34.546	03:10:37:03	3.654	V2683-03
 	transect	Sebastolobus altivelis	800.62	2674	 	36.752426	-122.205414	1799793	0.36	2005-06-08 17:56:53.0	Ventana	34.487	00:41:25:15	4.356	V2674-01
 	transect	Sergestes similis	300.43	2681	 	36.69737	-122.05285	2492273	1.23	2005-07-07 17:23:39.0	Ventana	34.233	00:54:47:10	7.396	V2681-01HD
 	transect	Mesomyaria	999.83	2669	 	36.73174	-122.24399	1734089	0.4	2005-05-25 19:50:18.2	Ventana	34.509	02:11:49:06	4.069	V2669-03
 	cruise	Pleuronectiformes	1210.56	2683	 	36.706757	-122.047615	1757650	0.72	2005-07-11 20:13:01.0	Ventana	34.575	03:47:24:16	3.343	V2683-04
 	transect	Porifera sp. 1	399.71	2687	http://search.mbari.org/ARCHIVE/frameGrabs/Ventana/images/2687/01_53_27_01.jpg	36.789352	-122.12492	1809633	1.15	2005-07-13 18:27:08.0	Ventana	34.24	01:53:27:01	7.314	V2687-02
 	transect	Dosidicus gigas	500.59	2681	 	36.697754	-122.05352	2493316	0.44	2005-07-07 17:55:45.0	Ventana	34.346	01:26:08:22	6.021	V2681-02HD
 	transect	Ophiuroidea	998.14	2669	 	36.733013	-122.25278	1737492	0.4	2005-05-25 20:49:27.0	Ventana	34.508	03:10:16:05	4.075	V2669-04
 	transect	molt	100.47	2681	 	36.699722	-122.05423	2489772	2.13	2005-07-07 16:50:13.0	Ventana	34.067	00:21:23:15	9.159	V2681-01HD
 	transect	Calliostoma platinum	 	2687	 	 	 	1810293	 	2005-07-13 19:14:44.0	Ventana	 	02:40:28:20	 	V2687-03
 	transect	Phyllospadix	800.47	2674	 	36.75258	-122.202385	1799193	0.34	2005-06-08 17:40:37.0	Ventana	34.476	00:25:11:01	4.408	V2674-01
 	starttransect	object	801.01	2674	 	36.751953	-122.2098	1800951	0.35	2005-06-08 18:19:11.0	Ventana	34.483	01:03:16:10	4.35	V2674-02
 	stationary	Merluccius productus	502.21	2694	 	36.784557	-122.20048	1676610	0.82	2005-07-27 19:40:29.0	Ventana	34.275	02:12:40:05	6.62	V2694-03
 	transect	Ophiuroidea	999.52	2669	 	36.73102	-122.23122	1683580	0.45	2005-05-25 18:25:02.0	Ventana	34.522	00:47:28:20	3.913	V2669-01
 	ascend	Poeobius meseres	925.5	2681	 	36.6977	-122.05426	1716995	0.4	2005-07-07 19:44:49.533	Ventana	34.511	03:13:52:16	4.134	V2681-04
 	transect	Psolus squamatus	399.48	2687	http://search.mbari.org/ARCHIVE/frameGrabs/Ventana/images/2687/01_56_40_29.jpg	36.789394	-122.125114	1809656	1.15	2005-07-13 18:30:22.0	Ventana	34.239	01:56:40:29	7.305	V2687-02
 	transect	Mediaster	 	2687	 	 	 	1812803	 	2005-07-13 20:58:29.0	Ventana	 	04:22:58:27	 	V2687-05
 	transect	Umbellula lindahli	598.72	2680	 	36.78213	-122.22722	1805104	0.35	2005-06-27 18:45:17.0	Ventana	34.377	01:24:21:26	5.582	V2680-02
 	cruise	Pleuronectiformes	127.8	2688	 	36.81125	-122.02244	1677992	1.94	2005-07-14 18:40:17.0	Ventana	34.095	02:25:32:24	8.906	V2688-03
 	transect	Ceriantharia sp. 2	999.95	2669	 	36.7311	-122.23917	1689115	0.43	2005-05-25 19:22:20.0	Ventana	34.515	01:44:18:10	3.978	V2669-02
 	descend	Appendicularia	400.27	2681	 	36.69564	-122.05105	1715237	0.79	2005-07-07 17:37:55.1	Ventana	34.278	01:08:18:12	6.674	V2681-02
 	transect	Psolus squamatus	 	2687	 	 	 	1811045	 	2005-07-13 19:49:19.0	Ventana	 	03:14:20:12	 	V2687-04
 	transect	Mesomyaria	998.65	2669	 	36.73086	-122.229645	1651148	0.45	2005-05-25 18:11:58.0	Ventana	34.522	00:34:25:25	3.907	V2669-01
 	ascend	Calycophorae	658.62	2681	 	36.6988	-122.0542	1717655	0.29	2005-07-07 20:26:38.78	Ventana	34.408	03:55:39:21	5.25	V2681-04
 	transect	Psolus squamatus	 	2687	 	 	 	1807146	 	2005-07-13 17:01:25.0	Ventana	 	00:28:19:07	 	V2687-01
 	ascend	Copepoda	1168.98	2683	 	36.707157	-122.048355	1757733	0.7	2005-07-11 20:29:10.0	Ventana	34.568	04:03:32:18	3.406	V2683-04
 	transect	Chaetognatha	200.4	2681	 	36.698284	-122.05331	2490921	1.7	2005-07-07 17:09:47.0	Ventana	34.189	00:40:56:03	8.321	V2681-01HD
 	ascend	Leuroglossus stilbius	307.68	2683	 	36.703373	-122.05064	1758079	1.28	2005-07-11 21:24:17.0	Ventana	34.233	04:57:08:20	7.418	V2683-05
 	transect	Neptunea amianta	999.5	2669	 	36.73102	-122.23117	1683557	0.45	2005-05-25 18:24:37.0	Ventana	34.521	00:47:03:16	3.914	V2669-01
 	ascend	Bargmannia	1001.55	2682	 	36.69773	-122.05825	1722906	0.45	2005-07-08 20:05:46.0	Ventana	34.523	03:58:19:25	3.939	V2682-04
 	transect	Gastropoda sp.2	999.9	2669	 	36.731102	-122.23532	1694680	0.45	2005-05-25 18:53:01.0	Ventana	34.522	01:15:01:02	3.922	V2669-02
 	transect	Appendicularia	400.79	2681	 	36.696335	-122.0518	2492993	0.79	2005-07-07 17:43:21.0	Ventana	34.276	01:13:46:03	6.65	V2681-02HD
 	transect	Allocentrotus fragilis	 	2687	 	 	 	1808881	 	2005-07-13 17:31:07.0	Ventana	 	00:57:59:16	 	V2687-01
 	transect	Nanomia bijuga	200.42	2681	 	36.69828	-122.05329	2490169	1.7	2005-07-07 17:05:22.0	Ventana	34.197	00:36:29:17	8.358	V2681-01HD
 	descend	Myctophidae	554.8	2688	 	36.79343	-122.018265	1677240	0.62	2005-07-14 16:17:44.0	Ventana	34.325	00:04:04:28	6.214	V2688-01
 	transect	Mesomyaria	1000.28	2669	 	36.730946	-122.23339	1683903	0.45	2005-05-25 18:38:35.0	Ventana	34.522	01:01:01:07	3.912	V2669-01
 	ascend	Chaetognatha	875.71	2681	 	36.698334	-122.0553	1717341	0.35	2005-07-07 19:52:00.7	Ventana	34.503	03:21:03:08	4.29	V2681-04
 	descend	Aegina	1010.45	2689	 	36.771423	-122.083	1669601	0.07	2005-07-18 16:37:20.0	Ventana	34.54	00:00:24:17	3.877	V2689-01
 	cruise	benthos	 	2687	 	 	 	1806892	 	2005-07-13 16:33:21.0	Ventana	 	00:00:16:22	 	V2687-01
 	descend	Appendicularia	477.1	2682	 	36.698566	-122.059715	1720802	0.52	2005-07-08 17:57:15.0	Ventana	34.327	01:50:45:20	6.186	V2682-02
 	ascend	Appendicularia	405.51	2681	 	36.699245	-122.05441	1717978	0.83	2005-07-07 20:47:17.467	Ventana	34.278	04:15:38:06	6.794	V2681-05
 	descend	Appendicularia	305.7	2682	 	36.69918	-122.060555	1720142	1.17	2005-07-08 16:56:02.0	Ventana	34.236	00:50:05:21	7.317	V2682-01
 	transect	Brisaster	1000.07	2669	 	36.731895	-122.2455	1735388	0.41	2005-05-25 20:00:27.0	Ventana	34.509	02:21:56:25	4.064	V2669-03
 	transect	Mesomyaria	 	2669	 	 	 	1737552	 	2005-05-25 13:51:13.0	Ventana	 	03:12:00:28	 	V2669-04
 	transect	sinker	800.85	2681	 	36.69694	-122.05308	2498274	0.31	2005-07-07 19:02:39.0	Ventana	34.473	02:32:22:00	4.51	V2681-03HD
 	descend	Cydippida	428.18	2683	 	36.70146	-122.04955	1756667	0.87	2005-07-11 17:06:23.0	Ventana	34.267	00:54:02:14	6.799	V2683-01
 	transect	Rathbunaster californicus	203.41	2696	 	36.80673	-122.13032	1813809	1.48	2005-08-01 18:35:05.0	Ventana	34.217	02:02:55:05	8.645	V2696-02
 	transect	Dosidicus gigas	600.67	2681	 	36.695713	-122.05115	2493662	0.3	2005-07-07 18:18:26.0	Ventana	34.387	01:48:48:25	5.495	V2681-02HD
 	cruise	Laminariales	91.63	2688	 	36.815613	-122.01758	1679404	1.96	2005-07-14 20:28:28.0	Ventana	34.093	04:13:12:16	8.94	V2688-04
 	transect	Calycophorae	300.41	2681	 	36.69721	-122.052704	2492333	1.23	2005-07-07 17:24:12.0	Ventana	34.234	00:55:17:21	7.397	V2681-01HD
 	transect	Ophiuroidea	998.97	2669	 	36.731377	-122.23608	1684563	0.44	2005-05-25 18:58:08.0	Ventana	34.522	01:20:07:20	3.94	V2669-02
 	transect	molt	100.53	2681	 	36.69983	-122.05429	2489569	2.13	2005-07-07 16:45:06.0	Ventana	34.068	00:16:16:13	9.147	V2681-01HD
 	transect	Mesomyaria	799.9	2674	 	36.75132	-122.21546	1803346	0.35	2005-06-08 18:45:56.0	Ventana	34.484	01:29:59:09	4.368	V2674-02
 	transect	Umbellula lindahli	599.84	2680	 	36.784145	-122.22951	1805510	0.36	2005-06-27 19:14:11.0	Ventana	34.375	01:53:14:03	5.608	V2680-02
 	transect	Microstomus pacificus	 	2687	 	 	 	1810722	 	2005-07-13 19:29:46.0	Ventana	 	02:55:29:27	 	V2687-03
 	descend	Chuniphyes	747.24	2681	 	36.6949	-122.05056	1716243	0.29	2005-07-07 18:50:18.9	Ventana	34.45	02:20:02:17	4.77	V2681-03
 	ascend	Euphausiacea	267.07	2681	 	36.699516	-122.05447	1718407	1.4	2005-07-07 21:08:00.533	Ventana	34.228	04:36:20:15	7.89	V2681-05
 	transect	Chionoecetes tanneri	802.09	2674	 	36.75232	-122.20588	1799853	0.36	2005-06-08 17:59:21.0	Ventana	34.486	00:43:53:16	4.337	V2674-01
 	transect	Nanomia bijuga	200.5	2681	 	36.69828	-122.05329	2490515	1.71	2005-07-07 17:07:14.0	Ventana	34.197	00:38:22:20	8.341	V2681-01HD
 	descend	Appendicularia	617.35	2681	 	36.697945	-122.05386	1715929	0.3	2005-07-07 18:29:20.233	Ventana	34.389	01:59:40:26	5.43	V2681-02
 	transect	Sebastolobus altivelis	800.22	2674	 	36.75248	-122.2045	1799599	0.35	2005-06-08 17:52:11.0	Ventana	34.485	00:36:43:22	4.38	V2674-01
 	transect	Ceriantharia sp. 1	602.11	2680	 	36.791096	-122.232895	1806832	0.35	2005-06-27 20:25:07.0	Ventana	34.378	03:03:43:19	5.588	V2680-03
 	transect	Allocentrotus fragilis	399.86	2687	 	36.788113	-122.12162	1809227	1.13	2005-07-13 17:37:21.0	Ventana	34.243	01:03:43:12	7.255	V2687-02
 	descend	Dosidicus gigas	602.44	2681	 	36.695667	-122.05111	1715643	0.3	2005-07-07 18:08:21.933	Ventana	34.386	01:38:43:11	5.473	V2681-02
 	ascend	Cydippida	270.21	2681	 	36.699715	-122.05489	1718324	1.4	2005-07-07 21:04:12.267	Ventana	34.227	04:32:31:29	7.846	V2681-05
 	transect	Phyllospadix	196.37	2696	 	36.80312	-122.12278	1813117	1.56	2005-08-01 17:08:08.0	Ventana	34.196	00:36:27:05	8.619	V2696-01
 	transect	Psolus squamatus	 	2687	 	 	 	1808964	 	2005-07-13 17:32:42.0	Ventana	 	00:59:34:03	 	V2687-01
 	cruise	Engraulidae	 	2672	 	 	 	1824332	 	 	Ventana	 	00:12:40:25	 	V2672-01
 	cruise	Parastichopus	89.57	2688	 	36.816994	-122.015686	1679344	2.0	2005-07-14 20:09:27.0	Ventana	34.087	03:54:12:07	8.91	V2688-04
 	transect	Mediaster	 	2687	 	 	 	1812457	 	2005-07-13 20:39:27.0	Ventana	 	04:04:24:27	 	V2687-04
 	transect	Euphausia	200.39	2681	 	36.698284	-122.053314	2490981	1.71	2005-07-07 17:10:25.0	Ventana	34.187	00:41:32:19	8.319	V2681-01HD
 	transect	Gonatus	1001.05	2681	 	36.694923	-122.05078	2498560	0.48	2005-07-07 19:22:13.0	Ventana	34.533	02:51:53:22	3.867	V2681-03HD
 	transect	Phyllospadix	998.5	2669	 	36.730965	-122.230034	1651208	0.45	2005-05-25 18:14:27.0	Ventana	34.521	00:36:53:25	3.913	V2669-01
 	transect	Nanomia bijuga	200.37	2681	 	36.69832	-122.05344	2491327	1.66	2005-07-07 17:13:30.0	Ventana	34.2	00:44:38:06	8.34	V2681-01HD
 	transect	Nanomia bijuga	200.37	2681	 	36.698315	-122.05342	2491267	1.66	2005-07-07 17:13:16.0	Ventana	34.2	00:44:23:29	8.341	V2681-01HD
 	transect	Aegina	800.9	2681	 	36.695908	-122.05185	2498214	0.31	2005-07-07 18:58:00.0	Ventana	34.476	02:27:42:24	4.495	V2681-03HD
 	transect	Sebastes saxicola	199.57	2696	http://search.mbari.org/ARCHIVE/frameGrabs/Ventana/images/2696/01_11_16_27.jpg	36.804245	-122.126045	1813403	1.52	2005-08-01 17:43:23.0	Ventana	34.21	01:11:16:27	8.662	V2696-02
 	ascend	Copepoda	944.53	2681	 	36.697468	-122.05391	1716912	0.41	2005-07-07 19:41:53.833	Ventana	34.514	03:10:57:00	4.068	V2681-04
 	ascend	Hastigerinella digitata	259.35	2681	 	36.698784	-122.05689	1719076	1.42	2005-07-07 21:22:09.767	Ventana	34.228	04:50:28:25	7.961	V2681-05
 	descend	Aegina	426.46	2682	 	36.698177	-122.059784	1720742	0.69	2005-07-08 17:41:48.0	Ventana	34.287	01:35:19:17	6.474	V2682-02
 	transect	Lycenchelys camchatica	802.14	2674	 	36.751743	-122.21037	1801011	0.35	2005-06-08 18:21:47.0	Ventana	34.49	01:05:51:16	4.329	V2674-02
 	cruise	Pleuronectiformes	465.49	2676	 	36.802612	-122.02938	1676287	0.57	2005-06-14 16:34:51.0	Ventana	34.336	00:19:00:02	6.183	V2676-01
 	transect	Lycenchelys camchatica	800.94	2674	 	36.752533	-122.20025	1774054	0.3	2005-06-08 17:28:20.0	Ventana	34.469	00:12:54:22	4.601	V2674-01
 	ascend	Leuroglossus stilbius	829.33	2682	 	36.69866	-122.05863	1723252	0.34	2005-07-08 20:21:36.0	Ventana	34.479	04:13:46:20	4.436	V2682-05
 	transect	Phyllospadix	196.46	2696	 	36.802937	-122.12232	1813057	1.55	2005-08-01 17:02:37.0	Ventana	34.2	00:30:55:24	8.607	V2696-01
 	transect	Psolus squamatus	399.9	2687	 	36.78812	-122.121765	1809310	1.13	2005-07-13 17:39:14.0	Ventana	34.24	01:05:36:20	7.261	V2687-02
 	cruise	Mesomyaria	997.6	2669	 	36.73066	-122.22688	1649044	0.45	2005-05-25 17:52:29.65	Ventana	34.522	00:14:58:09	3.91	V2669-01
 	descend	Calycophorae	948.45	2683	 	36.703815	-122.04856	1757327	0.41	2005-07-11 19:09:36.0	Ventana	34.512	02:49:57:25	4.096	V2683-03
 	transect	Lycenchelys camchatica	799.65	2674	 	36.75269	-122.20068	1774137	0.29	2005-06-08 17:32:03.0	Ventana	34.464	00:16:37:09	4.649	V2674-01
 	transect	Phyllospadix	801.11	2674	 	36.7526	-122.20189	1799133	0.34	2005-06-08 17:38:22.0	Ventana	34.482	00:22:55:20	4.405	V2674-01
 	ascend	Salpida	377.53	2693	 	36.696003	-122.060585	1758769	1.19	2005-07-25 20:49:57.0	Ventana	34.231	03:14:30:14	7.143	V2693-04
 	transect	Allocentrotus fragilis	 	2687	 	 	 	1810639	 	2005-07-13 19:26:06.0	Ventana	 	02:51:49:25	 	V2687-03
 	transect	Poeobius meseres	700.59	2681	 	36.695568	-122.0514	2497928	0.28	2005-07-07 18:46:16.0	Ventana	34.436	02:15:59:24	4.957	V2681-03HD
 	transect	Mesomyaria	800.4	2674	 	36.751194	-122.216484	1803429	0.35	2005-06-08 18:51:20.0	Ventana	34.49	01:35:23:21	4.357	V2674-02
 	transect	Brisaster	1000.61	2669	 	36.732155	-122.24824	1736200	0.41	2005-05-25 20:20:43.0	Ventana	34.511	02:42:11:26	4.062	V2669-03
 	transect	Neptunea amianta	802.72	2674	 	36.752243	-122.206276	1799913	0.36	2005-06-08 18:01:10.0	Ventana	34.488	00:45:42:10	4.339	V2674-01
 	transect	Mesomyaria	798.18	2674	 	36.75168	-122.213356	1801265	0.35	2005-06-08 18:34:08.0	Ventana	34.489	01:18:11:27	4.348	V2674-02
 	descend	Appendicularia	402.16	2681	 	36.69801	-122.05374	1715297	0.79	2005-07-07 17:50:36.377	Ventana	34.277	01:20:59:12	6.661	V2681-02
 	descend	Myctophidae	466.17	2683	 	36.701706	-122.0493	1756727	0.78	2005-07-11 17:10:28.0	Ventana	34.287	00:58:07:02	6.658	V2683-01
 	transect	Poeobius meseres	600.59	2681	 	36.696472	-122.0521	2493745	0.3	2005-07-07 18:22:15.0	Ventana	34.387	01:52:36:00	5.48	V2681-02HD
 	transect	Neptunea amianta	999.19	2669	 	36.731087	-122.23497	1684217	0.45	2005-05-25 18:49:48.0	Ventana	34.52	01:11:48:24	3.92	V2669-02
 	ascend	Appendicularia	1097.83	2683	 	36.707813	-122.04907	1757793	0.58	2005-07-11 20:43:33.0	Ventana	34.547	04:17:53:18	3.676	V2683-04
 	descend	Pasiphaea	252.26	2676	 	36.80512	-122.0318	1676204	1.52	2005-06-14 16:17:17.0	Ventana	34.208	00:01:27:04	7.964	V2676-01
 	cruise	Rathbunaster californicus	414.7	2688	 	36.806072	-122.01923	1677729	0.93	2005-07-14 17:49:07.0	Ventana	34.27	01:34:50:07	6.957	V2688-02
 	ascend	Nanomia	258.17	2681	 	36.697838	-122.05522	1719390	 	2005-07-07 21:29:59.0	Ventana	 	05:03:13:23	 	V2681-05
 	transect	Ceriantharia sp. 1	803.45	2674	 	36.750774	-122.2204	1803692	0.34	2005-06-08 19:08:30.0	Ventana	34.478	01:52:32:06	4.395	V2674-02
 	ascend	Phialidium	356.08	2681	 	36.699352	-122.05504	1718061	1.03	2005-07-07 20:52:03.763	Ventana	34.258	04:20:24:21	7.139	V2681-05
 	descend	Calycophorae	596.97	2683	 	36.701927	-122.049065	1757013	0.35	2005-07-11 17:49:02.0	Ventana	34.368	01:33:08:24	5.784	V2683-02
 	ascend	Appendicularia	329.4	2693	 	36.692013	-122.061905	1759032	1.29	2005-07-25 21:16:26.0	Ventana	34.237	03:40:57:24	7.555	V2693-04
 	transect	Porifera	 	2687	 	 	 	1811705	 	2005-07-13 20:21:01.0	Ventana	 	03:46:00:02	 	V2687-04
 	transect	Rathbunaster californicus	204.23	2696	 	36.807632	-122.13126	1813869	1.46	2005-08-01 18:44:24.0	Ventana	34.225	02:11:28:27	8.64	V2696-03
 	cruise	Rathbunaster californicus	107.46	2676	 	36.805794	-122.042656	1677180	1.93	2005-06-14 19:20:42.0	Ventana	34.16	02:59:26:16	8.417	V2676-03
 	transect	Stomphia	801.03	2674	 	36.752533	-122.20139	1774197	0.35	2005-06-08 17:35:32.0	Ventana	34.485	00:20:05:27	4.379	V2674-01
 	transect	Allocentrotus fragilis	 	2687	 	 	 	1808821	 	2005-07-13 17:30:10.0	Ventana	 	00:57:02:25	 	V2687-01
 	ascend	Hastigerinella digitata	261.17	2681	 	36.69884	-122.057	1719016	1.42	2005-07-07 21:20:56.967	Ventana	34.23	04:49:15:18	7.953	V2681-05
 	ascend	Calycophorae	368.0	2693	 	36.695045	-122.06093	1758829	1.24	2005-07-25 20:58:28.0	Ventana	34.235	03:23:00:25	7.336	V2693-04
 	cruise	Rathbunaster californicus	442.59	2676	 	36.803165	-122.02924	1676347	0.64	2005-06-14 16:39:11.0	Ventana	34.318	00:23:19:15	6.4	V2676-01
 	transect	Mesomyaria	801.84	2674	 	36.750916	-122.21963	1803632	0.34	2005-06-08 19:04:57.0	Ventana	34.479	01:48:59:06	4.367	V2674-02
 	transect	Vitreosalpa gemini	400.78	2681	 	36.69682	-122.052414	2493053	0.79	2005-07-07 17:45:32.0	Ventana	34.278	01:15:56:06	6.659	V2681-02HD
 	transect	Phyllospadix	1000.33	2669	 	36.730953	-122.23303	1683843	0.45	2005-05-25 18:36:40.0	Ventana	34.522	00:59:05:20	3.911	V2669-01
 	transect	Rathbunaster californicus	 	2687	 	 	 	1811128	 	2005-07-13 19:55:26.0	Ventana	 	03:20:26:22	 	V2687-04
 	descend	sinker	900.74	2681	 	36.696888	-122.053055	1716506	0.39	2005-07-07 19:06:40.8	Ventana	34.505	02:36:23:13	4.167	V2681-03
 	ascend	Appendicularia	519.22	2682	 	36.698288	-122.063	1723656	0.46	2005-07-08 21:11:41.0	Ventana	34.34	05:03:22:28	6.1	V2682-06
 	transect	Mediaster	 	2687	 	 	 	1811331	 	2005-07-13 20:07:34.0	Ventana	 	03:32:33:18	 	V2687-04
 	transect	Mesomyaria	999.86	2669	 	36.731297	-122.23819	1688829	0.43	2005-05-25 19:16:10.0	Ventana	34.518	01:38:08:13	3.954	V2669-02
 	transect	Mesomyaria	999.72	2669	 	36.73134	-122.235954	1684503	0.44	2005-05-25 18:57:14.0	Ventana	34.521	01:19:13:27	3.934	V2669-02
 	transect	Microstomus pacificus	997.37	2669	 	36.73063	-122.228004	1649330	0.45	2005-05-25 18:00:45.0	Ventana	34.522	00:23:13:16	3.908	V2669-01
 	transect	Mesomyaria	1000.22	2669	 	36.73094	-122.23376	1683954	0.45	2005-05-25 18:40:19.0	Ventana	34.523	01:02:19:23	3.911	V2669-02
 	transect	Nanomia bijuga	400.81	2681	 	36.695984	-122.051414	2492942	0.79	2005-07-07 17:41:53.0	Ventana	34.277	01:12:16:05	6.661	V2681-02HD
 	stationary	Merluccius productus	502.34	2694	 	36.784634	-122.20046	1676631	0.85	2005-07-27 19:59:45.0	Ventana	34.272	02:31:54:04	6.678	V2694-03
 	transect	Ceriantharia sp. 1	598.55	2680	 	36.781696	-122.22682	1805044	0.36	2005-06-27 18:39:54.0	Ventana	34.379	01:19:00:00	5.596	V2680-02
 	transect	molt	100.51	2681	 	36.69983	-122.05429	2489652	2.13	2005-07-07 16:47:12.0	Ventana	34.069	00:18:21:26	9.147	V2681-01HD
 	transect	Psolus squamatus	399.92	2687	 	36.788155	-122.12185	1809370	1.15	2005-07-13 17:40:17.0	Ventana	34.238	01:06:39:13	7.314	V2687-02
 	cruise	equipment	499.72	2695	 	36.784557	-122.200386	1824392	0.89	2005-07-28 16:55:03.0	Ventana	34.264	00:01:26:06	6.709	V2695-01
 	cruise	Poeobius meseres	1190.25	2682	 	36.69843	-122.057594	1722417	0.68	2005-07-08 19:51:11.0	Ventana	34.572	03:43:46:24	3.379	V2682-04
 	transect	Anthoptilum grandiflorum	599.32	2680	 	36.779285	-122.22437	1804495	0.36	2005-06-27 18:07:58.0	Ventana	34.377	00:48:04:03	5.602	V2680-01
 	cruise	Pleuronectiformes	597.08	2688	 	36.796375	-122.0202	1677383	0.46	2005-07-14 16:40:00.0	Ventana	34.383	00:26:19:23	5.616	V2688-01
 	cruise	Amphipoda	1222.34	2683	 	36.706177	-122.04771	1757590	0.73	2005-07-11 20:01:14.0	Ventana	34.578	03:35:36:19	3.334	V2683-04
 	descend	physical object	652.88	2677	http://search.mbari.org/ARCHIVE/frameGrabs/Ventana/images/2677/00_30_10_08.jpg	36.746265	-122.052376	20008783	0.37	2005-06-15 17:14:54.0	Ventana	34.42	00:30:10:08	5.154	V2677-01
 	transect	Mesomyaria	999.86	2669	http://search.mbari.org/ARCHIVE/frameGrabs/Ventana/images/2669/01_36_59_23.jpg	36.731308	-122.23802	1688342	0.43	2005-05-25 19:15:01.0	Ventana	34.519	01:36:59:23	3.954	V2669-02
 	ascend	Copepoda	335.19	2681	 	36.699505	-122.05526	1718121	1.16	2005-07-07 20:54:47.567	Ventana	34.242	04:23:08:10	7.303	V2681-05
 	transect	Gastropoda sp.2	1000.2	2669	 	36.731033	-122.23965	1694740	0.41	2005-05-25 19:25:38.0	Ventana	34.51	01:47:35:27	4.062	V2669-02
 	ascend	Solmissus	258.17	2681	 	36.697838	-122.05522	1719330	 	2005-07-07 21:29:59.0	Ventana	 	05:01:12:12	 	V2681-05
 	transect	Mediaster	 	2687	 	 	 	1812743	 	2005-07-13 20:55:45.0	Ventana	 	04:20:14:24	 	V2687-05
 	ascend	Aegina	603.2	2682	 	36.698635	-122.061554	1723515	0.34	2005-07-08 20:56:39.0	Ventana	34.374	04:48:45:29	5.635	V2682-05
 	ascend	Nanomia	 	2683	 	 	 	1758139	 	2005-07-11 14:31:24.0	Ventana	 	05:04:14:26	 	V2683-05
 	transect	Lycenchelys camchatica	801.9	2674	 	36.752464	-122.19958	1773791	0.29	2005-06-08 17:24:33.0	Ventana	34.463	00:09:07:15	4.654	V2674-01
 	transect	Brisaster	999.79	2669	 	36.730915	-122.23148	1683640	0.45	2005-05-25 18:27:14.0	Ventana	34.522	00:49:40:05	3.913	V2669-01
 	descend	Appendicularia	360.82	2682	 	36.698517	-122.060135	1720428	1.0	2005-07-08 17:32:25.0	Ventana	34.258	01:25:56:13	7.07	V2682-02
 	transect	Mediaster	 	2687	 	 	 	1812194	 	2005-07-13 20:28:45.0	Ventana	 	03:53:43:27	 	V2687-04
 	transect	Mesomyaria	798.03	2674	 	36.751583	-122.214005	1801325	0.35	2005-06-08 18:38:17.0	Ventana	34.489	01:22:21:05	4.34	V2674-02
 	transect	Microstomus pacificus	800.95	2674	http://search.mbari.org/ARCHIVE/frameGrabs/Ventana/images/2674/01_39_12_22.jpg	36.75112	-122.21726	1803489	0.35	2005-06-08 18:55:10.0	Ventana	34.489	01:39:12:22	4.353	V2674-02
 	transect	Sebastolobus	 	2687	 	 	 	1810030	 	2005-07-13 18:51:46.0	Ventana	 	02:17:32:01	 	V2687-03
 	ascend	Crustacea	370.95	2693	 	36.69648	-122.06065	1758688	1.2	2005-07-25 20:28:27.0	Ventana	34.233	03:08:01:01	7.17	V2693-03
 	transect	bolinopsis	600.58	2681	 	36.69701	-122.05274	2493805	0.3	2005-07-07 18:24:44.0	Ventana	34.387	01:55:04:22	5.475	V2681-02HD
 	ascend	Chuniphyes	833.41	2681	 	36.69874	-122.05617	1717401	0.31	2005-07-07 19:57:16.733	Ventana	34.482	03:26:19:29	4.426	V2681-04
 	transect	Gastropoda sp.2	999.28	2669	 	36.731014	-122.23178	1695086	0.45	2005-05-25 18:28:54.0	Ventana	34.523	00:51:19:13	3.912	V2669-01
 	transect	Lycenchelys camchatica	799.91	2674	 	36.7521	-122.208755	1800808	0.35	2005-06-08 18:13:20.0	Ventana	34.489	00:57:51:26	4.334	V2674-01
 	descend	Appendicularia	1200.7	2682	 	36.69828	-122.05888	1722214	0.68	2005-07-08 19:19:52.0	Ventana	34.574	03:12:28:05	3.372	V2682-04
 	ascend	Euphausiacea	258.17	2681	 	36.697838	-122.05522	1719533	 	2005-07-07 21:29:59.0	Ventana	 	05:11:47:23	 	V2681-05
 	transect	Brisaster	1000.44	2669	 	36.731537	-122.242775	1694537	0.4	2005-05-25 19:43:24.0	Ventana	34.51	02:05:21:06	4.087	V2669-02
 	transect	Mesomyaria	999.16	2669	 	36.732754	-122.25138	1737206	0.41	2005-05-25 20:41:22.0	Ventana	34.509	03:02:12:17	4.072	V2669-04
 	ascend	Cydippida	337.25	2693	 	36.692825	-122.06152	1758972	1.26	2005-07-25 21:12:50.0	Ventana	34.237	03:37:23:18	7.456	V2693-04
 	transect	Brisaster	999.09	2669	 	36.73118	-122.23565	1684360	0.45	2005-05-25 18:54:46.0	Ventana	34.522	01:16:46:08	3.927	V2669-02
 	ascend	Leuroglossus stilbius	733.13	2682	 	36.698795	-122.059235	1723312	0.28	2005-07-08 20:29:49.0	Ventana	34.437	04:21:57:17	4.902	V2682-05
 	ascend	Appendicularia	638.03	2683	 	36.70506	-122.05014	1757936	0.31	2005-07-11 21:10:00.0	Ventana	34.408	04:42:53:20	5.322	V2683-05
 	transect	molt	100.5	2681	 	36.698982	-122.05375	2489855	2.12	2005-07-07 16:51:58.0	Ventana	34.07	00:23:06:29	9.148	V2681-01HD
 	transect	Neptunea amianta	998.11	2669	 	36.732975	-122.252266	1737409	0.4	2005-05-25 20:46:57.0	Ventana	34.508	03:07:44:17	4.076	V2669-04
 	transect	Phyllospadix	 	2687	 	 	 	1810985	 	2005-07-13 19:46:10.0	Ventana	 	03:11:11:18	 	V2687-04
 	cruise	rock outcrop	171.0	2688	http://search.mbari.org/ARCHIVE/frameGrabs/Ventana/images/2688/02_22_13_21.jpg	36.810738	-122.02167	20005207	1.93	2005-07-14 18:36:58.0	Ventana	34.1	02:22:13:21	8.901	V2688-03
 	transect	Mesomyaria	1000.09	2669	 	36.73104	-122.239624	1689175	0.41	2005-05-25 19:25:05.55	Ventana	34.509	01:47:04:17	4.064	V2669-02
 	transect	Mesomyaria	997.21	2669	 	36.730667	-122.227615	1649187	0.45	2005-05-25 17:58:09.0	Ventana	34.522	00:20:37:27	3.909	V2669-01
 	descend	Copepoda	1010.79	2683	 	36.70417	-122.050224	1757387	0.44	2005-07-11 19:20:30.0	Ventana	34.522	03:00:50:09	3.983	V2683-03
 	starttransect	physical object	598.51	2680	 	36.780502	-122.22542	1804698	0.35	2005-06-27 18:23:27.0	Ventana	34.382	01:02:33:21	5.557	V2680-02
 	transect	Psolus squamatus	 	2687	 	 	 	1807206	 	2005-07-13 17:03:20.0	Ventana	 	00:30:14:22	 	V2687-01
 	ascend	Chaetognatha	202.51	2693	 	36.690895	-122.062675	1759175	1.76	2005-07-25 21:25:30.0	Ventana	34.225	03:50:01:08	8.907	V2693-04
 	transect	Phyllospadix	399.87	2687	 	36.788067	-122.12155	1809167	1.13	2005-07-13 17:36:24.0	Ventana	34.242	01:02:46:05	7.267	V2687-02
 	cruise	Mysidae	1016.67	2689	 	36.771557	-122.08296	1669887	0.51	2005-07-18 17:31:08.0	Ventana	34.535	00:54:09:06	3.83	V2689-01
 	transect	Actiniaria	 	2687	http://search.mbari.org/ARCHIVE/frameGrabs/Ventana/images/2687/02_36_37_13.jpg	 	 	1810233	 	2005-07-13 19:10:53.0	Ventana	 	02:36:37:13	 	V2687-03
 	ascend	Apolemia	695.61	2681	 	36.69873	-122.05476	1717604	0.27	2005-07-07 20:21:19.307	Ventana	34.421	03:50:20:02	5.098	V2681-04
 	transect	Mediaster	 	2687	 	 	 	1811848	 	2005-07-13 20:27:02.0	Ventana	 	03:52:00:09	 	V2687-04
 	descend	Crustacea	306.44	2693	 	36.697636	-122.06087	1758485	1.32	2005-07-25 19:39:46.0	Ventana	34.236	02:19:22:18	7.661	V2693-03
 	transect	Psolus squamatus	 	2687	 	 	 	1808618	 	2005-07-13 17:25:37.0	Ventana	 	00:52:29:28	 	V2687-01
 	transect	Calycophorae	100.56	2681	 	36.69983	-122.05429	2489509	2.12	2005-07-07 16:43:13.0	Ventana	34.068	00:14:24:03	9.15	V2681-01HD
 	transect	Mesomyaria	1000.35	2669	 	36.731216	-122.24112	1689378	0.41	2005-05-25 19:34:22.0	Ventana	34.512	01:56:19:18	4.058	V2669-02
 	transect	Phyllospadix	200.18	2696	 	36.80454	-122.12673	1813463	1.51	2005-08-01 17:50:14.0	Ventana	34.213	01:18:07:22	8.668	V2696-02
 	transect	molt	50.4	2681	 	36.69983	-122.05429	2485730	3.03	2005-07-07 16:40:12.0	Ventana	33.907	00:11:23:00	9.638	V2681-01HD
 	transect	Hastigerinella digitata	300.41	2681	 	36.696507	-122.0521	2492536	1.23	2005-07-07 17:26:38.0	Ventana	34.233	00:57:45:13	7.398	V2681-01HD
 	descend	Chaetognatha	509.57	2683	 	36.701424	-122.04918	1756870	0.68	2005-07-11 17:40:07.0	Ventana	34.305	01:24:14:04	6.461	V2683-02
 	transect	Phyllospadix	 	2687	 	 	 	1812397	 	2005-07-13 20:36:31.0	Ventana	 	04:01:28:21	 	V2687-04
 	transect	Gonatus	1001.0	2681	 	36.695534	-122.05157	2498620	0.48	2005-07-07 19:25:20.0	Ventana	34.533	02:55:00:29	3.859	V2681-03HD
 	transect	phialidium	500.63	2681	 	36.69637	-122.05192	2493602	0.44	2005-07-07 18:01:41.0	Ventana	34.347	01:32:03:02	6.011	V2681-02HD
 	descend	Appendicularia	809.42	2682	 	36.698338	-122.0596	1721697	0.31	2005-07-08 18:40:06.0	Ventana	34.471	02:33:09:12	4.534	V2682-03
 	descend	Chaetognatha	168.62	2683	 	36.70105	-122.051315	1756321	1.69	2005-07-11 16:40:29.0	Ventana	34.179	00:28:09:22	8.728	V2683-01
 	transect	Phyllospadix	801.67	2674	 	36.752254	-122.20735	1800056	0.37	2005-06-08 18:06:44.0	Ventana	34.485	00:51:16:09	4.355	V2674-01
 	transect	Ceriantharia sp. 2	1000.29	2669	 	36.731636	-122.24328	1733803	0.41	2005-05-25 19:46:13.0	Ventana	34.51	02:07:44:02	4.065	V2669-03
 	transect	Hastigerinella digitata	300.45	2681	 	36.69823	-122.0535	2491987	1.24	2005-07-07 17:20:40.0	Ventana	34.232	00:51:48:20	7.415	V2681-01HD
 	transect	molt	50.43	2681	 	36.69983	-122.05429	2485589	2.96	2005-07-07 16:35:49.0	Ventana	33.92	00:06:59:02	9.619	V2681-01HD
 	descend	Solmissus	309.12	2682	 	36.699535	-122.06071	1720082	1.16	2005-07-08 16:39:38.0	Ventana	34.239	00:33:41:29	7.307	V2682-01
 	transect	Phyllospadix	199.64	2696	 	36.80387	-122.12528	1813329	1.53	2005-08-01 17:35:32.0	Ventana	34.202	01:03:25:29	8.637	V2696-02
 	ascend	Calycophorae	743.43	2681	 	36.698742	-122.05566	1717544	0.27	2005-07-07 20:15:16.6	Ventana	34.449	03:44:17:21	4.819	V2681-04
 	descend	Haliscera	251.04	2682	 	36.699875	-122.0608	1719985	1.4	2005-07-08 16:23:07.0	Ventana	34.23	00:17:12:03	7.911	V2682-01
 	transect	Mesomyaria	998.36	2669	 	36.731018	-122.2303	1651282	0.45	2005-05-25 18:16:52.0	Ventana	34.522	00:39:19:05	3.912	V2669-01
 	transect	Rathbunaster californicus	 	2687	 	 	 	1811502	 	2005-07-13 20:14:50.0	Ventana	 	03:39:48:29	 	V2687-04
 	transect	Mesomyaria	1000.17	2669	 	36.731163	-122.24037	1689249	0.41	2005-05-25 19:29:45.0	Ventana	34.51	01:51:43:11	4.063	V2669-02
 	cruise	Poralia rufescens	1220.45	2683	 	36.70628	-122.04766	1757599	0.72	2005-07-11 20:03:55.0	Ventana	34.573	03:38:17:22	3.348	V2683-04
 	cruise	LRJ Complex	587.63	2688	 	36.79674	-122.02008	1677397	0.48	2005-07-14 16:41:30.0	Ventana	34.369	00:27:49:13	5.701	V2688-01
 	cruise	Actiniaria	998.05	2679	 	36.69042	-122.16628	1824383	0.47	2005-06-16 20:20:46.0	Ventana	34.532	00:59:00:16	3.872	V2679-01
 	cruise	rock outcrop	106.82	2688	 	36.813637	-122.018265	1679224	1.97	2005-07-14 19:32:04.0	Ventana	34.093	03:16:52:05	8.917	V2688-04
 	transect	Mesomyaria	1000.79	2669	 	36.73229	-122.24912	1736274	0.41	2005-05-25 20:26:48.0	Ventana	34.51	02:48:18:03	4.065	V2669-03
 	descend	Euphausiacea	205.75	2693	 	36.696037	-122.058395	1758305	1.81	2005-07-25 18:25:26.0	Ventana	34.186	01:05:31:14	8.702	V2693-02
 	transect	Psolus squamatus	399.87	2687	 	36.78804	-122.12149	1809061	1.14	2005-07-13 17:35:38.0	Ventana	34.237	01:02:00:29	7.276	V2687-02
 	transect	Sebastolobus altivelis	801.52	2674	 	36.75175	-122.21094	1801062	0.35	2005-06-08 18:23:48.0	Ventana	34.49	01:07:53:03	4.328	V2674-02
 	ascend	Solmaris	588.91	2682	 	36.698803	-122.060616	1723455	0.4	2005-07-08 20:46:24.0	Ventana	34.372	04:38:32:11	5.671	V2682-05
 	transect	molt	100.52	2681	 	36.69983	-122.05429	2489643	2.13	2005-07-07 16:46:54.0	Ventana	34.069	00:18:04:22	9.144	V2681-01HD
 	descend	Cyclothone	919.88	2681	 	36.69471	-122.05043	1716515	0.4	2005-07-07 19:17:34.133	Ventana	34.505	02:47:15:18	4.111	V2681-03
 	transect	cydippida	500.57	2681	 	36.696617	-122.05221	2493588	0.44	2005-07-07 18:00:37.0	Ventana	34.348	01:30:59:13	6.013	V2681-02HD
 	ascend	Hastigerinella digitata	1059.26	2682	 	36.69803	-122.05756	1722749	0.51	2005-07-08 20:01:34.0	Ventana	34.536	03:54:08:20	3.767	V2682-04
 	transect	Appendicularia	400.73	2681	 	36.697754	-122.05345	2493205	0.79	2005-07-07 17:49:25.0	Ventana	34.278	01:19:49:23	6.66	V2681-02HD
 	transect	Psolus squamatus	 	2687	 	 	 	1808738	 	2005-07-13 17:28:01.0	Ventana	 	00:54:53:07	 	V2687-01
 	transect	Mesomyaria	999.12	2669	 	36.731045	-122.231865	1683691	0.45	2005-05-25 18:29:29.0	Ventana	34.522	00:51:55:04	3.915	V2669-01
 	descend	Bargmannia elongata	565.97	2682	 	36.69864	-122.05981	1720922	0.34	2005-07-08 18:06:20.0	Ventana	34.373	01:59:49:00	5.622	V2682-02
 	ascend	Cydippida	126.05	2693	 	36.6908	-122.062935	1759272	2.06	2005-07-25 21:32:40.0	Ventana	34.073	03:57:12:06	9.144	V2693-04
 	cruise	Porifera	288.57	2676	 	36.805183	-122.0292	1676691	1.47	2005-06-14 17:28:09.0	Ventana	34.217	01:07:54:12	7.912	V2676-02
 	transect	Mediaster	 	2687	 	 	 	1812531	 	2005-07-13 20:44:16.0	Ventana	 	04:08:46:19	 	V2687-05
 	transect	Mesomyaria	999.97	2669	 	36.731754	-122.244354	1734278	0.4	2005-05-25 19:52:00.0	Ventana	34.509	02:13:30:08	4.083	V2669-03
 	transect	Phyllospadix	801.2	2674	 	36.752266	-122.20721	1800033	0.36	2005-06-08 18:05:50.0	Ventana	34.485	00:50:21:23	4.359	V2674-01
 	transect	Neptunea amianta	801.08	2674	 	36.751072	-122.21752	1803503	0.35	2005-06-08 18:55:50.0	Ventana	34.487	01:39:52:12	4.35	V2674-02
 	transect	Caridea sp.1	602.02	2680	 	36.787308	-122.23171	1805914	0.36	2005-06-27 19:48:00.0	Ventana	34.378	02:26:38:16	5.594	V2680-03
 	transect	Mediaster	 	2687	 	 	 	1812208	 	2005-07-13 20:29:05.0	Ventana	 	03:54:03:03	 	V2687-04
 	transect	Appendicularia	800.98	2681	 	36.694992	-122.05071	2498025	0.32	2005-07-07 18:53:08.0	Ventana	34.477	02:22:50:25	4.479	V2681-03HD
 	transect	Allocentrotus fragilis	 	2687	 	 	 	1811271	 	2005-07-13 20:05:34.0	Ventana	 	03:30:33:21	 	V2687-04
 	ascend	Euphotic zone	21.61	2688	 	36.81299	-122.0216	1679547	3.79	2005-07-14 21:37:54.0	Ventana	33.853	05:22:05:15	10.545	V2688-05
 	transect	Ophiuroidea	999.6	2669	 	36.73142	-122.236626	1684812	0.44	2005-05-25 19:03:11.0	Ventana	34.521	01:25:10:19	3.939	V2669-02
 	transect	Solaster borealis	1000.28	2669	 	36.731457	-122.242065	1694454	0.4	2005-05-25 19:39:46.0	Ventana	34.509	02:01:43:25	4.076	V2669-02
 	transect	Phyllospadix	800.84	2674	 	36.752113	-122.20833	1800739	0.35	2005-06-08 18:11:06.0	Ventana	34.49	00:55:37:20	4.322	V2674-01
 	cruise	rock outcrop	97.56	2688	http://search.mbari.org/ARCHIVE/frameGrabs/Ventana/images/2688/05_14_57_25.jpg	36.813	-122.02124	20005327	1.92	2005-07-14 21:30:46.0	Ventana	34.11	05:14:57:25	8.874	V2688-05
 	ascend	Chaetognatha	316.02	2681	 	36.69967	-122.05527	1718158	1.25	2005-07-07 20:57:43.367	Ventana	34.232	04:26:03:14	7.457	V2681-05
 	transect	Mesomyaria	998.21	2669	 	36.732944	-122.25222	1737395	0.41	2005-05-25 20:46:35.0	Ventana	34.508	03:07:23:11	4.075	V2669-04
 	transect	Sebastolobus altivelis	799.93	2674	 	36.75249	-122.20359	1799359	0.35	2005-06-08 17:47:04.0	Ventana	34.48	00:31:37:09	4.385	V2674-01
 	ascend	Nanomia	194.61	2693	 	36.69061	-122.06285	1759212	1.82	2005-07-25 21:28:45.0	Ventana	34.177	03:53:17:23	8.866	V2693-04
 	descend	Appendicularia	507.64	2683	 	36.701427	-122.04918	1756861	0.68	2005-07-11 17:39:43.0	Ventana	34.306	01:23:49:18	6.462	V2683-02
 	cruise	Parastichopus leukothele	195.07	2696	 	36.802376	-122.121216	1812854	1.61	2005-08-01 16:34:23.0	Ventana	34.188	00:02:43:13	8.666	V2696-01
 	transect	Physophora	200.43	2681	 	36.69828	-122.0533	2490824	1.71	2005-07-07 17:09:09.0	Ventana	34.195	00:40:16:27	8.326	V2681-01HD
 	cruise	Nanomia	367.58	2676	 	36.80451	-122.02908	1676490	0.95	2005-06-14 16:46:01.0	Ventana	34.27	00:30:09:23	7.042	V2676-01
 	descend	Dosidicus gigas	607.24	2682	 	36.698635	-122.0598	1721245	0.35	2005-07-08 18:07:52.0	Ventana	34.389	02:00:57:28	5.441	V2682-03
 	transect	Sebastes saxicola	204.11	2696	 	36.80557	-122.12876	1813712	1.49	2005-08-01 18:18:31.0	Ventana	34.21	01:46:22:00	8.624	V2696-02
 	transect	Acanthamunnopsis milleri	200.4	2681	 	36.698296	-122.053345	2491087	1.69	2005-07-07 17:11:42.0	Ventana	34.198	00:42:50:14	8.335	V2681-01HD
 	transect	Parmaturus xaniurus	 	2687	 	 	 	1807095	 	2005-07-13 16:59:17.0	Ventana	 	00:26:11:24	 	V2687-01
 	transect	Brisaster	 	2687	 	 	 	1810242	 	2005-07-13 19:11:23.0	Ventana	 	02:37:08:08	 	V2687-03
 	transect	Mesomyaria	1000.12	2669	 	36.731216	-122.23842	1688866	0.43	2005-05-25 19:17:51.0	Ventana	34.516	01:39:49:20	3.976	V2669-02
 	descend	Aegina	794.85	2682	 	36.69837	-122.05969	1721688	0.31	2005-07-08 18:36:39.0	Ventana	34.463	02:29:42:01	4.593	V2682-03
 	ascend	Aegina	521.1	2683	 	36.704464	-122.050644	1757982	0.5	2005-07-11 21:15:28.0	Ventana	34.333	04:48:19:20	6.171	V2683-05
 	transect	molt	100.5	2681	 	36.699825	-122.05429	2489703	2.13	2005-07-07 16:48:17.0	Ventana	34.067	00:19:25:22	9.15	V2681-01HD
 	transect	Mesomyaria	802.35	2674	 	36.75177	-122.210304	1801002	0.35	2005-06-08 18:21:08.0	Ventana	34.491	01:05:12:27	4.336	V2674-02
 	transect	Umbellula lindahli	603.17	2680	 	36.78887	-122.23246	1805974	0.35	2005-06-27 20:04:27.0	Ventana	34.379	02:43:05:00	5.587	V2680-03
 	transect	Psolus squamatus	 	2687	 	 	 	1810948	 	2005-07-13 19:43:37.0	Ventana	 	03:08:38:11	 	V2687-04
 	ascend	Appendicularia	645.83	2683	 	36.70518	-122.04999	1757922	0.27	2005-07-11 21:09:24.0	Ventana	34.408	04:42:17:19	5.26	V2683-05
 	transect	Actiniaria sp. 3	 	2687	http://search.mbari.org/ARCHIVE/frameGrabs/Ventana/images/2687/00_53_45_27.jpg	 	 	1808678	 	2005-07-13 17:26:53.0	Ventana	 	00:53:45:27	 	V2687-01
 	transect	Phyllospadix	197.83	2696	http://search.mbari.org/ARCHIVE/frameGrabs/Ventana/images/2696/00_20_11_00.jpg	36.80266	-122.12168	1813006	1.53	2005-08-01 16:51:51.0	Ventana	34.204	00:20:11:00	8.569	V2696-01
 	transect	Psolus squamatus	399.84	2687	http://search.mbari.org/ARCHIVE/frameGrabs/Ventana/images/2687/01_02_17_21.jpg	36.788036	-122.12153	1809121	1.13	2005-07-13 17:35:55.0	Ventana	34.244	01:02:17:21	7.27	V2687-02
 	ascend	Poeobius meseres	1041.36	2682	 	36.69781	-122.057785	1722809	0.48	2005-07-08 20:03:03.0	Ventana	34.533	03:55:37:10	3.855	V2682-04
 	transect	Mesomyaria	997.46	2669	 	36.730618	-122.227974	1649256	0.45	2005-05-25 18:00:26.0	Ventana	34.522	00:22:54:12	3.906	V2669-01
 	descend	Hastigerinella digitata	277.98	2682	 	36.699745	-122.06084	1720045	1.33	2005-07-08 16:34:04.0	Ventana	34.228	00:28:07:15	7.676	V2682-01
 	transect	Phyllospadix	799.76	2674	 	36.752525	-122.203926	1799419	0.35	2005-06-08 17:48:41.0	Ventana	34.483	00:33:14:14	4.374	V2674-01
 	transect	Parastichopus leukothele	198.43	2696	 	36.803623	-122.12452	1813269	1.53	2005-08-01 17:28:26.0	Ventana	34.202	00:56:43:01	8.619	V2696-01
 	transect	Mesomyaria	999.69	2669	 	36.731964	-122.24617	1735628	0.41	2005-05-25 20:05:06.0	Ventana	34.509	02:26:35:22	4.062	V2669-03
 	transect	Actiniaria sp. 1	800.91	2674	 	36.75252	-122.201485	1774211	0.34	2005-06-08 17:36:03.0	Ventana	34.477	00:20:36:16	4.423	V2674-01
 	descend	physical object	206.82	2686	http://search.mbari.org/ARCHIVE/frameGrabs/Ventana/images/2686/01_19_28_04.jpg	36.79371	-121.88108	20005036	1.59	2005-07-12 22:12:20.0	Ventana	34.154	01:19:28:04	8.255	V2686-02
 	transect	Mesomyaria	998.22	2669	 	36.732994	-122.25252	1737455	0.4	2005-05-25 20:48:15.0	Ventana	34.509	03:09:02:27	4.074	V2669-04
 	descend	Appendicularia	501.62	2683	 	36.7015	-122.04939	1756801	0.68	2005-07-11 17:25:43.0	Ventana	34.306	01:09:50:20	6.469	V2683-02
 	descend	Chaetognatha	901.98	2683	 	36.703518	-122.04832	1757276	0.38	2005-07-11 18:45:39.0	Ventana	34.501	02:26:03:18	4.217	V2683-03
 	transect	Phyllospadix	 	2687	 	 	 	1809827	 	2005-07-13 18:44:39.0	Ventana	 	02:10:24:26	 	V2687-03
 	transect	Mesomyaria	998.77	2669	 	36.73113	-122.23472	1684166	0.45	2005-05-25 18:47:28.0	Ventana	34.52	01:09:28:16	3.917	V2669-02
 	transect	doliolidae	300.44	2681	 	36.698135	-122.05345	2492024	1.24	2005-07-07 17:21:01.0	Ventana	34.233	00:52:07:05	7.409	V2681-01HD
 	transect	doliolenetta	800.99	2681	 	36.695198	-122.05097	2498085	0.31	2005-07-07 18:54:33.0	Ventana	34.477	02:24:14:07	4.486	V2681-03HD
 	transect	Microstomus pacificus	 	2687	 	 	 	1811211	 	2005-07-13 20:02:27.0	Ventana	 	03:27:27:12	 	V2687-04
 	transect	Poeobius meseres	600.51	2681	 	36.697693	-122.05357	2493851	0.3	2005-07-07 18:27:31.0	Ventana	34.388	01:57:53:08	5.48	V2681-02HD
 	transect	Actiniaria sp. 1	999.77	2669	http://search.mbari.org/ARCHIVE/frameGrabs/Ventana/images/2669/02_14_12_12.jpg	36.731773	-122.24447	1734338	0.4	2005-05-25 19:52:41.0	Ventana	34.508	02:14:12:12	4.075	V2669-03
 	transect	Mesomyaria	999.46	2669	 	36.731274	-122.23588	1684429	0.44	2005-05-25 18:56:36.0	Ventana	34.52	01:18:36:13	3.932	V2669-02
 	ascend	Appendicularia	443.98	2681	 	36.699047	-122.05418	1717775	0.61	2005-07-07 20:37:14.3	Ventana	34.309	04:06:14:02	6.436	V2681-04
 	cruise	boulder	611.93	2688	 	36.795345	-122.01911	1677337	0.45	2005-07-14 16:33:52.0	Ventana	34.386	00:20:12:03	5.538	V2688-01
 	transect	Gastropoda sp.2	1000.19	2669	 	36.73098	-122.233215	1695100	0.45	2005-05-25 18:37:57.0	Ventana	34.522	01:00:23:02	3.91	V2669-01
 	transect	Neptunea amianta	1000.46	2669	 	36.73243	-122.24991	1736749	0.41	2005-05-25 20:32:17.0	Ventana	34.509	02:53:46:07	4.066	V2669-03
 	transect	Psolus squamatus	 	2687	 	 	 	1812591	 	2005-07-13 20:46:25.0	Ventana	 	04:10:55:22	 	V2687-05
 	transect	Aegina	700.63	2681	 	36.697567	-122.05344	2497642	0.29	2005-07-07 18:37:22.0	Ventana	34.432	02:07:04:29	4.981	V2681-03HD
 	transect	molt	400.79	2681	 	36.6974	-122.05306	2493145	0.79	2005-07-07 17:47:57.0	Ventana	34.278	01:18:20:02	6.662	V2681-02HD
 	descend	Dosidicus gigas	522.02	2682	 	36.698597	-122.059784	1720862	0.39	2005-07-08 18:01:54.0	Ventana	34.358	01:55:23:28	5.861	V2682-02
 	transect	Brisaster	200.56	2696	 	36.80524	-122.12816	1813592	1.5	2005-08-01 18:02:34.0	Ventana	34.212	01:30:26:16	8.671	V2696-02
 	transect	Mesomyaria	1000.34	2669	 	36.731968	-122.24715	1735831	0.41	2005-05-25 20:12:52.0	Ventana	34.511	02:34:22:14	4.069	V2669-03
 	ascend	Mysidae	722.73	2683	 	36.706013	-122.04872	1757862	0.29	2005-07-11 21:04:49.0	Ventana	34.454	04:37:42:20	4.726	V2683-05
 	transect	Phyllospadix	798.78	2674	 	36.751743	-122.21254	1801214	0.35	2005-06-08 18:29:58.0	Ventana	34.49	01:14:02:04	4.337	V2674-02
 	transect	Porifera sp. 1	 	2687	 	 	 	1807681	 	2005-07-13 17:22:23.0	Ventana	 	00:49:15:09	 	V2687-01
 	transect	Nanomia bijuga	200.41	2681	 	36.69839	-122.053474	2491410	1.67	2005-07-07 17:14:05.0	Ventana	34.199	00:45:12:03	8.341	V2681-01HD
 	ascend	Appendicularia	918.09	2682	 	36.698097	-122.058464	1723192	0.37	2005-07-08 20:13:20.0	Ventana	34.501	04:05:29:20	4.23	V2682-05
 	transect	Sebastolobus	 	2687	 	 	 	1811765	 	2005-07-13 20:24:42.0	Ventana	 	03:49:40:26	 	V2687-04
 	ascend	sinker	985.65	2681	 	36.696842	-122.05323	1716575	0.45	2005-07-07 19:34:31.1	Ventana	34.524	03:04:11:16	3.95	V2681-03
 	ascend	Appendicularia	629.1	2682	 	36.698868	-122.05976	1723395	0.36	2005-07-08 20:36:59.0	Ventana	34.387	04:29:06:18	5.448	V2682-05
 	descend	Appendicularia	331.01	2683	 	36.701214	-122.05006	1756538	1.22	2005-07-11 16:55:26.0	Ventana	34.229	00:43:05:25	7.406	V2683-01
 	transect	Mesomyaria	801.11	2674	 	36.750996	-122.21831	1803563	0.35	2005-06-08 18:59:30.0	Ventana	34.491	01:43:32:19	4.336	V2674-02
 	transect	Sebastes diploproa	 	2687	 	 	 	1812268	 	2005-07-13 20:30:17.0	Ventana	 	03:55:15:08	 	V2687-04
 	descend	Copepoda	1135.6	2682	 	36.6982	-122.05921	1722163	0.59	2005-07-08 19:12:40.0	Ventana	34.557	03:05:17:07	3.558	V2682-04
 	transect	Brisaster	 	2669	 	 	 	1737658	 	2005-05-25 13:55:08.0	Ventana	 	03:15:56:02	 	V2669-04
 	transect	Melanostigma pammelas	700.63	2681	 	36.69617	-122.05208	2497762	0.28	2005-07-07 18:43:09.0	Ventana	34.436	02:12:52:00	4.946	V2681-03HD
 	descend	Appendicularia	467.31	2683	 	36.701626	-122.049355	1756741	0.77	2005-07-11 17:12:29.0	Ventana	34.288	01:00:08:22	6.648	V2683-01
 	transect	Mediaster	 	2687	 	 	 	1812471	 	2005-07-13 20:40:43.0	Ventana	 	04:05:40:29	 	V2687-04
 	descend	Appendicularia	957.4	2683	 	36.703888	-122.04853	1757336	0.42	2005-07-11 19:10:57.0	Ventana	34.516	02:51:19:05	4.047	V2683-03
 	transect	Mesomyaria	799.98	2674	 	36.752457	-122.20492	1799682	0.35	2005-06-08 17:54:04.0	Ventana	34.487	00:38:36:29	4.356	V2674-01
 	cruise	Pleuronectiformes	441.63	2688	 	36.8042	-122.018425	1677660	0.87	2005-07-14 17:40:36.0	Ventana	34.274	01:26:19:24	6.834	V2688-02
 	ascend	Phialidium	771.66	2681	 	36.69865	-122.05629	1717484	0.29	2005-07-07 20:08:39.46	Ventana	34.452	03:37:41:03	4.759	V2681-04
 	cruise	Poralia rufescens	1232.52	2683	 	36.70574	-122.048004	1757539	0.73	2005-07-11 19:49:34.0	Ventana	34.575	03:23:58:15	3.33	V2683-04
 	transect	Mediaster	 	2687	 	 	 	1812794	 	2005-07-13 20:57:44.0	Ventana	 	04:22:14:13	 	V2687-05
 	descend	Lobata	370.2	2682	 	36.69846	-122.060005	1720659	0.97	2005-07-08 17:34:20.0	Ventana	34.261	01:27:51:25	7.03	V2682-02
 	transect	Mesomyaria	800.17	2674	 	36.75126	-122.21599	1803383	0.35	2005-06-08 18:49:11.0	Ventana	34.486	01:33:14:16	4.36	V2674-02
 	cruise	Ceriantharia sp. 1	602.21	2680	 	36.776577	-122.22201	1804089	0.36	2005-06-27 17:35:07.0	Ventana	34.381	00:15:15:17	5.566	V2680-01
 	transect	cydippida	100.49	2681	 	36.699764	-122.05425	2489763	2.12	2005-07-07 16:49:59.0	Ventana	34.067	00:21:08:13	9.159	V2681-01HD
 	transect	Appendicularia	900.99	2681	 	36.69523	-122.0509	2498468	0.39	2005-07-07 19:15:11.0	Ventana	34.506	02:44:51:12	4.156	V2681-03HD
 	transect	Sebastes diploproa	 	2687	 	 	 	1812651	 	2005-07-13 20:49:50.0	Ventana	 	04:14:20:08	 	V2687-05
 	descend	Appendicularia	227.22	2683	 	36.70098	-122.050705	1756418	1.69	2005-07-11 16:49:04.0	Ventana	34.189	00:36:45:02	8.215	V2683-01
 	transect	molt	100.54	2681	 	36.69983	-122.05429	2489583	2.12	2005-07-07 16:45:26.0	Ventana	34.068	00:16:36:08	9.151	V2681-01HD
 	transect	Sebastolobus altivelis	798.97	2674	 	36.751335	-122.21534	1801417	0.35	2005-06-08 18:45:16.0	Ventana	34.488	01:29:19:19	4.349	V2674-02
 	transect	Mediaster	 	2687	 	 	 	1807478	 	2005-07-13 17:09:40.0	Ventana	 	00:36:33:24	 	V2687-01
 	cruise	Eptatretus	322.33	2688	 	36.808388	-122.02024	1677840	1.28	2005-07-14 18:11:07.0	Ventana	34.228	01:56:49:10	7.688	V2688-02
 	transect	Rathbunaster californicus	203.55	2696	 	36.806522	-122.130104	1813772	1.48	2005-08-01 18:29:00.0	Ventana	34.216	01:56:50:14	8.642	V2696-02
 	descend	Hormiphora	176.03	2693	 	36.69609	-122.05812	1758245	1.94	2005-07-25 18:05:56.0	Ventana	34.143	00:46:26:16	8.9	V2693-01
 	stationary	Appendicularia	501.66	2695	 	36.784565	-122.200455	1824443	0.87	2005-07-28 17:29:50.0	Ventana	34.268	00:36:11:00	6.663	V2695-01
 	descend	Mysidae	750.42	2683	 	36.70237	-122.04892	1757124	0.27	2005-07-11 17:57:31.0	Ventana	34.45	01:41:36:05	4.77	V2683-02
 	transect	Phyllospadix	197.56	2696	 	36.80344	-122.12382	1813209	1.56	2005-08-01 17:20:14.0	Ventana	34.195	00:48:32:08	8.631	V2696-01
 	transect	Chaetognatha	1000.99	2681	 	36.69614	-122.05236	2498671	0.47	2005-07-07 19:28:25.0	Ventana	34.531	02:58:04:11	3.871	V2681-03HD
 	transect	Appendicularia	400.77	2681	 	36.696392	-122.05188	2493002	0.79	2005-07-07 17:43:37.0	Ventana	34.275	01:14:01:21	6.648	V2681-02HD
 	transect	Mesomyaria	1000.15	2669	 	36.731667	-122.2438	1733955	0.41	2005-05-25 19:48:52.0	Ventana	34.509	02:10:23:04	4.064	V2669-03
 	transect	Mesomyaria	1000.36	2669	 	36.731934	-122.24643	1735688	0.41	2005-05-25 20:07:53.0	Ventana	34.51	02:29:22:06	4.064	V2669-03
 	transect	Appendicularia	200.43	2681	 	36.69828	-122.05329	2490321	1.7	2005-07-07 17:06:54.0	Ventana	34.198	00:38:01:25	8.347	V2681-01HD
 	transect	Pannychia moseleyi	1000.18	2669	 	36.73096	-122.23332	1683894	0.45	2005-05-25 18:38:11.0	Ventana	34.522	01:00:37:03	3.91	V2669-01
 	transect	Ceriantharia sp. 1	803.83	2674	 	36.75073	-122.2206	1803706	0.34	2005-06-08 19:09:28.0	Ventana	34.483	01:53:30:18	4.396	V2674-02
 	transect	Sebastolobus altivelis	799.7	2674	 	36.752453	-122.20531	1799770	0.35	2005-06-08 17:56:28.0	Ventana	34.486	00:41:00:08	4.355	V2674-01
 	transect	Appendicularia	700.58	2681	 	36.695164	-122.0509	2497965	0.28	2005-07-07 18:47:47.0	Ventana	34.432	02:17:29:07	4.989	V2681-03HD
 	transect	Mesomyaria	999.44	2669	 	36.73133	-122.23592	1684489	0.44	2005-05-25 18:57:06.0	Ventana	34.52	01:19:05:22	3.936	V2669-02
 	cruise	Lycodapus	532.33	2688	 	36.798782	-122.0194	1677457	0.61	2005-07-14 17:03:10.167	Ventana	34.326	00:49:28:04	6.222	V2688-01
 	transect	Calycophorae	300.44	2681	 	36.697002	-122.05252	2492407	1.23	2005-07-07 17:24:54.0	Ventana	34.234	00:56:01:20	7.395	V2681-01HD
 	transect	Ceriantharia sp. 2	998.82	2669	 	36.73097	-122.23014	1683368	0.45	2005-05-25 18:15:32.0	Ventana	34.521	00:37:59:16	3.913	V2669-01
 	transect	Neptunea amianta	802.33	2674	 	36.752224	-122.2067	1799973	0.37	2005-06-08 18:03:29.0	Ventana	34.491	00:48:00:27	4.323	V2674-01
 	transect	Osmeridae	599.61	2680	 	36.777706	-122.2227	1804301	0.36	2005-06-27 17:49:12.0	Ventana	34.378	00:29:19:26	5.587	V2680-01
 	transect	Mesomyaria	997.38	2669	 	36.73064	-122.227295	1649136	0.45	2005-05-25 17:56:19.0	Ventana	34.52	00:18:47:29	3.91	V2669-01
 	ascend	Appendicularia	938.37	2681	 	36.69757	-122.05404	1716958	0.41	2005-07-07 19:42:55.0	Ventana	34.514	03:11:58:19	4.074	V2681-04
 	descend	Calycophorae	451.89	2681	 	36.698086	-122.05387	1715334	0.56	2005-07-07 17:52:16.96	Ventana	34.316	01:22:39:18	6.226	V2681-02
 	transect	Euphausia	200.4	2681	 	36.698288	-122.05332	2491027	1.7	2005-07-07 17:10:56.0	Ventana	34.196	00:42:03:29	8.332	V2681-01HD
 	transect	Neptunea amianta	598.42	2680	 	36.780933	-122.225876	1804827	0.35	2005-06-27 18:29:06.0	Ventana	34.38	01:08:12:15	5.573	V2680-02
 	descend	Crustacea	347.43	2682	 	36.698753	-122.06053	1720188	1.03	2005-07-08 17:12:54.0	Ventana	34.252	01:06:25:27	7.119	V2682-02
 	transect	Mesomyaria	998.25	2669	 	36.732933	-122.25212	1737335	0.4	2005-05-25 20:46:01.0	Ventana	34.508	03:06:51:27	4.077	V2669-04
 	descend	Appendicularia	530.35	2683	 	36.701504	-122.04914	1756921	0.55	2005-07-11 17:42:36.0	Ventana	34.32	01:26:41:26	6.24	V2683-02
 	ascend	Hastigerinella digitata	358.46	2693	 	36.69402	-122.06103	1758889	1.24	2005-07-25 21:03:14.0	Ventana	34.237	03:27:46:05	7.355	V2693-04
 	transect	Psolus squamatus	 	2687	 	 	 	1809970	 	2005-07-13 18:49:01.0	Ventana	 	02:14:47:19	 	V2687-03
 	transect	cydippida	300.4	2681	 	36.695927	-122.051544	2492587	1.24	2005-07-07 17:28:49.0	Ventana	34.234	00:59:55:03	7.427	V2681-01HD
 	descend	Myctophidae	729.28	2682	 	36.698418	-122.05966	1721568	0.29	2005-07-08 18:26:46.0	Ventana	34.443	02:19:49:22	4.867	V2682-03
 	transect	Phyllospadix	800.21	2674	 	36.7525	-122.20319	1799299	0.34	2005-06-08 17:44:40.0	Ventana	34.48	00:29:13:16	4.421	V2674-01
 	transect	Microstomus pacificus	199.41	2696	 	36.80419	-122.125946	1813389	1.52	2005-08-01 17:42:19.0	Ventana	34.206	01:10:12:28	8.657	V2696-02
 	ascend	Solmissus	258.17	2681	 	36.697838	-122.05522	1719482	 	2005-07-07 21:29:59.0	Ventana	 	05:06:54:03	 	V2681-05
 	ascend	Appendicularia	455.08	2682	 	36.69826	-122.06291	1723716	0.65	2005-07-08 21:18:25.0	Ventana	34.291	05:10:06:13	6.427	V2682-06
 	transect	Ceriantharia sp. 2	1000.57	2669	 	36.732166	-122.24841	1736214	0.41	2005-05-25 20:21:42.0	Ventana	34.51	02:43:11:19	4.062	V2669-03
 	descend	Appendicularia	865.75	2682	 	36.698315	-122.05943	1721748	0.32	2005-07-08 18:49:00.0	Ventana	34.488	02:42:03:13	4.368	V2682-03
 	transect	Mesomyaria	999.56	2669	 	36.73136	-122.237625	1687516	0.44	2005-05-25 19:11:33.0	Ventana	34.52	01:33:32:16	3.949	V2669-02
 	ascend	Aegina	422.04	2683	 	36.70414	-122.05058	1758042	0.92	2005-07-11 21:19:23.0	Ventana	34.258	04:52:14:03	6.866	V2683-05
 	transect	Ophiuroidea	998.68	2669	 	36.730957	-122.23006	1651222	0.45	2005-05-25 18:14:37.0	Ventana	34.521	00:37:03:28	3.913	V2669-01
 	transect	sinker	600.59	2681	 	36.69618	-122.05176	2493708	0.3	2005-07-07 18:20:51.0	Ventana	34.387	01:51:12:16	5.497	V2681-02HD
 	transect	Ceriantharia sp. 1	601.09	2680	 	36.786003	-122.23086	1805854	0.36	2005-06-27 19:33:54.0	Ventana	34.377	02:12:33:20	5.6	V2680-03
 	transect	Caridea sp.1	602.67	2680	 	36.79	-122.23264	1806740	0.35	2005-06-27 20:15:45.0	Ventana	34.379	02:54:22:12	5.586	V2680-03
 	transect	Psolus squamatus	 	2687	 	 	 	1810182	 	2005-07-13 19:05:53.0	Ventana	 	02:31:37:29	 	V2687-03
 	cruise	rock outcrop	237.4	2676	http://search.mbari.org/ARCHIVE/frameGrabs/Ventana/images/2676/01_18_25_02.jpg	36.805847	-122.029434	1676751	1.58	2005-06-14 17:38:43.0	Ventana	34.202	01:18:25:02	8.061	V2676-02
 	transect	Brisaster	1000.21	2669	 	36.73138	-122.24168	1689844	0.4	2005-05-25 19:37:52.0	Ventana	34.508	01:59:49:29	4.08	V2669-02
 	ascend	Appendicularia	263.08	2693	 	36.691383	-122.0623	1759092	1.45	2005-07-25 21:21:15.0	Ventana	34.246	03:45:46:27	8.37	V2693-04
 	transect	Gastropoda sp.2	998.3	2669	 	36.73118	-122.23448	1694657	0.45	2005-05-25 18:45:46.0	Ventana	34.522	01:07:46:14	3.916	V2669-02
 	descend	Aegina	791.1	2681	 	36.69491	-122.05056	1716312	0.33	2005-07-07 18:51:44.367	Ventana	34.466	02:21:27:13	4.557	V2681-03
 	transect	Mediaster	 	2687	 	 	 	1812734	 	2005-07-13 20:55:18.0	Ventana	 	04:19:48:20	 	V2687-05
 	transect	Nanomia bijuga	200.41	2681	 	36.698284	-122.05331	2490944	1.71	2005-07-07 17:10:03.0	Ventana	34.195	00:41:12:02	8.323	V2681-01HD
 	descend	Appendicularia	591.68	2683	 	36.701923	-122.04909	1757004	0.35	2005-07-11 17:48:38.0	Ventana	34.367	01:32:43:14	5.809	V2683-02
 	transect	Diogenidae	598.51	2680	 	36.782295	-122.22744	1805127	0.35	2005-06-27 18:48:13.0	Ventana	34.379	01:27:18:03	5.586	V2680-02
 	transect	Phyllospadix	203.45	2696	 	36.80742	-122.13108	1813832	1.46	2005-08-01 18:41:26.0	Ventana	34.22	02:08:30:26	8.616	V2696-03
 	transect	Liponema brevicornis	399.7	2687	http://search.mbari.org/ARCHIVE/frameGrabs/Ventana/images/2687/01_44_07_17.jpg	36.789204	-122.12434	1809564	1.17	2005-07-13 18:17:48.0	Ventana	34.237	01:44:07:17	7.348	V2687-02
 	transect	Porifera sp. 1	 	2687	 	 	 	1807215	 	2005-07-13 17:03:33.0	Ventana	 	00:30:27:18	 	V2687-01
 	descend	Copepoda	1198.63	2682	 	36.698296	-122.058815	1722223	0.68	2005-07-08 19:22:04.0	Ventana	34.573	03:14:42:16	3.371	V2682-04
 	transect	Nanomia bijuga	200.46	2681	 	36.69828	-122.05329	2490238	1.7	2005-07-07 17:06:06.0	Ventana	34.198	00:37:14:21	8.363	V2681-01HD
 	transect	Mesomyaria	1000.11	2669	 	36.73108	-122.238754	1689069	0.43	2005-05-25 19:19:54.0	Ventana	34.518	01:41:52:27	3.963	V2669-02
 	transect	Mesomyaria	802.21	2674	 	36.752316	-122.20575	1799830	0.36	2005-06-08 17:58:40.0	Ventana	34.489	00:43:12:22	4.333	V2674-01
 	transect	Psolus squamatus	 	2687	 	 	 	1811091	 	2005-07-13 19:52:28.0	Ventana	 	03:17:28:26	 	V2687-04
 	transect	molt	100.49	2681	 	36.699078	-122.05381	2489846	2.13	2005-07-07 16:51:46.0	Ventana	34.069	00:22:55:20	9.146	V2681-01HD
 	transect	Chionoecetes tanneri	998.89	2669	 	36.732796	-122.25145	1737215	0.41	2005-05-25 20:42:05.0	Ventana	34.509	03:02:53:23	4.072	V2669-04
 	transect	Mediaster	 	2687	 	 	 	1810708	 	2005-07-13 19:28:59.0	Ventana	 	02:54:42:05	 	V2687-03
 	descend	Nanomia	194.48	2681	 	36.69828	-122.05329	1713548	1.98	2005-07-07 17:03:35.333	Ventana	34.164	00:34:44:10	8.305	V2681-01
 	endtransect	color bars	600.54	2681	 	36.697853	-122.053764	1715920	0.3	2005-07-07 18:28:28.4	Ventana	34.389	01:58:48:18	5.477	V2681-02
 	transect	Psolus squamatus	 	2687	 	 	 	1808858	 	2005-07-13 17:30:34.0	Ventana	 	00:57:26:19	 	V2687-01
 	transect	Atolla vanhoeffeni	400.76	2681	 	36.696873	-122.05248	2493062	0.79	2005-07-07 17:45:46.0	Ventana	34.277	01:16:09:24	6.659	V2681-02HD
 	descend	Crustacea	327.39	2693	 	36.69745	-122.06057	1758508	1.29	2005-07-25 19:47:05.0	Ventana	34.236	02:26:39:08	7.579	V2693-03
 	descend	Myctophidae	 	2693	 	 	 	1759415	 	2005-07-25 16:43:41.0	Ventana	 	00:22:15:11	 	V2693-01
 	transect	Stomphia	 	2669	 	 	 	1737575	 	2005-05-25 13:51:57.0	Ventana	 	03:12:44:21	 	V2669-04
 	transect	Pennatulacea sp.1	602.12	2680	 	36.790985	-122.23287	1806823	0.36	2005-06-27 20:24:15.0	Ventana	34.378	03:02:51:02	5.587	V2680-03
 	ascend	Chuniphyes	860.74	2681	 	36.698494	-122.0556	1717364	0.34	2005-07-07 19:53:53.733	Ventana	34.498	03:22:57:05	4.323	V2681-04
 	descend	Haliscera	328.59	2682	 	36.6988	-122.06063	1720165	1.1	2005-07-08 17:10:35.0	Ventana	34.246	01:04:06:24	7.225	V2682-02
 	descend	Physonectae	447.92	2682	 	36.69849	-122.059525	1720779	0.57	2005-07-08 17:54:38.0	Ventana	34.317	01:48:08:21	6.301	V2682-02
 	descend	Appendicularia	1013.82	2683	 	36.704483	-122.04981	1757396	0.44	2005-07-11 19:22:50.0	Ventana	34.521	03:03:11:17	3.987	V2683-03
 	ascend	Appendicularia	244.03	2683	 	36.70299	-122.05071	1758102	1.64	2005-07-11 21:27:06.0	Ventana	34.196	04:59:57:19	8.024	V2683-05
 	ascend	sinker	700.27	2682	 	36.698856	-122.05939	1723335	0.29	2005-07-08 20:32:11.0	Ventana	34.419	04:24:20:14	5.07	V2682-05
 	transect	Sebastolobus altivelis	798.36	2674	 	36.751682	-122.21345	1801274	0.35	2005-06-08 18:34:43.0	Ventana	34.488	01:18:46:26	4.353	V2674-02
 	transect	Ceriantharia sp. 1	803.05	2674	 	36.75084	-122.2202	1803683	0.34	2005-06-08 19:07:33.0	Ventana	34.49	01:51:35:13	4.397	V2674-02
 	transect	Mediaster	 	2687	 	 	 	1812388	 	2005-07-13 20:36:11.0	Ventana	 	04:01:08:25	 	V2687-04
 	transect	cyclothone	700.62	2681	 	36.695877	-122.05174	2497845	0.28	2005-07-07 18:44:26.0	Ventana	34.435	02:14:08:07	4.945	V2681-03HD
 	ascend	Mysidae	972.67	2682	 	36.697712	-122.05836	1722929	0.44	2005-07-08 20:07:14.0	Ventana	34.52	03:59:49:13	3.983	V2682-04
 	transect	Phyllospadix	800.96	2674	 	36.752537	-122.20256	1799216	0.35	2005-06-08 17:41:29.0	Ventana	34.486	00:26:03:04	4.382	V2674-01
 	transect	Mesomyaria	801.06	2674	 	36.751965	-122.20924	1800882	0.36	2005-06-08 18:15:41.0	Ventana	34.49	01:00:12:22	4.318	V2674-01
 	transect	Psolus squamatus	 	2687	 	 	 	1807621	 	2005-07-13 17:18:16.0	Ventana	 	00:45:09:04	 	V2687-01
 	descend	Chaetognatha	1090.6	2683	 	36.705112	-122.048904	1757456	0.55	2005-07-11 19:28:38.0	Ventana	34.539	03:08:58:16	3.744	V2683-03
 	transect	Mediaster	 	2687	 	 	 	1811622	 	2005-07-13 20:17:50.0	Ventana	 	03:42:49:00	 	V2687-04
 	transect	Mesomyaria	1000.5	2669	 	36.73124	-122.24102	1689369	0.41	2005-05-25 19:34:10.0	Ventana	34.51	01:56:07:13	4.055	V2669-02
 	transect	Phyllospadix	800.75	2674	 	36.752457	-122.2046	1799622	0.35	2005-06-08 17:52:45.0	Ventana	34.488	00:37:17:29	4.346	V2674-01
 	transect	Psolus squamatus	 	2687	 	 	 	1808941	 	2005-07-13 17:32:26.0	Ventana	 	00:59:18:06	 	V2687-01
 	ascend	Euphausiacea	281.59	2681	 	36.69973	-122.055046	1718301	1.36	2005-07-07 21:02:52.967	Ventana	34.234	04:31:13:07	7.751	V2681-05
 	transect	Psolus squamatus	399.87	2687	 	36.788094	-122.12162	1809204	1.13	2005-07-13 17:37:08.0	Ventana	34.243	01:03:30:27	7.262	V2687-02
 	transect	Gastropoda	197.0	2696	 	36.80338	-122.12352	1813186	1.56	2005-08-01 17:16:59.0	Ventana	34.199	00:45:17:11	8.627	V2696-01
 	transect	Mesomyaria	999.88	2669	 	36.731106	-122.2391	1689106	0.43	2005-05-25 19:22:04.0	Ventana	34.518	01:44:02:18	3.97	V2669-02
 	descend	Copepoda	1182.68	2682	 	36.6984	-122.05819	1722283	0.66	2005-07-08 19:38:25.0	Ventana	34.57	03:31:01:26	3.419	V2682-04
 	transect	Sebastes diploproa	 	2687	 	 	 	1811008	 	2005-07-13 19:48:06.0	Ventana	 	03:13:07:18	 	V2687-04
 	ascend	Pantachogon	1170.11	2683	http://search.mbari.org/ARCHIVE/frameGrabs/Ventana/images/2683/04_05_13_22.jpg	36.70759	-122.04885	1757742	0.71	2005-07-11 20:30:53.0	Ventana	34.57	04:05:13:22	3.396	V2683-04
 	transect	Mediaster	 	2687	 	 	 	1807561	 	2005-07-13 17:15:28.0	Ventana	 	00:42:21:14	 	V2687-01
 	transect	Poeobius meseres	400.79	2681	 	36.695942	-122.05136	2492933	0.79	2005-07-07 17:41:39.0	Ventana	34.277	01:12:02:11	6.662	V2681-02HD
 	transect	bathocyroe	600.61	2681	 	36.696728	-122.052414	2493768	0.3	2005-07-07 18:23:25.0	Ventana	34.388	01:53:47:08	5.477	V2681-02HD
 	transect	lobata	100.57	2681	 	36.69983	-122.05429	2489500	2.13	2005-07-07 16:43:07.0	Ventana	34.068	00:14:17:24	9.152	V2681-01HD
 	ascend	Nanomia	 	2683	 	 	 	1758162	 	2005-07-11 14:37:21.0	Ventana	 	05:10:11:24	 	V2683-05
 	descend	Melanostigma pammelas	689.89	2682	 	36.69865	-122.059975	1721425	0.28	2005-07-08 18:13:32.0	Ventana	34.418	02:06:35:17	5.131	V2682-03
 	transect	Mediaster	 	2687	 	 	 	1812328	 	2005-07-13 20:32:24.0	Ventana	 	03:57:22:10	 	V2687-04
 	cruise	Sebastolobus	516.29	2688	 	36.80046	-122.01913	1677517	0.67	2005-07-14 17:17:45.0	Ventana	34.313	01:04:02:12	6.395	V2688-01
 	transect	Mesomyaria	999.75	2669	 	36.731426	-122.23714	1687456	0.44	2005-05-25 19:07:50.0	Ventana	34.519	01:29:49:13	3.946	V2669-02
 	descend	Euphausiacea	189.85	2683	 	36.70102	-122.05108	1756358	1.75	2005-07-11 16:43:56.0	Ventana	34.187	00:31:38:09	8.458	V2683-01
 	stationary	mud	802.09	2674	 	36.752514	-122.199394	1773768	0.29	2005-06-08 17:19:18.0	Ventana	34.46	00:03:52:10	4.646	V2674-01
 	transect	Gastropoda sp.2	999.55	2669	 	36.73048	-122.228745	1695017	0.45	2005-05-25 18:05:07.0	Ventana	34.523	00:27:34:28	3.906	V2669-01
 	transect	Neptunea amianta	599.41	2680	 	36.779343	-122.22441	1804504	0.36	2005-06-27 18:08:44.0	Ventana	34.377	00:48:49:25	5.603	V2680-01
 	transect	Psolus squamatus	 	2687	 	 	 	1810302	 	2005-07-13 19:15:03.0	Ventana	 	02:40:47:29	 	V2687-03
 	descend	Nanomia	 	2693	 	 	 	1759452	 	2005-07-25 16:45:38.0	Ventana	 	00:24:12:01	 	V2693-01
 	descend	Appendicularia	376.71	2683	 	36.701427	-122.049805	1756598	1.06	2005-07-11 16:58:01.0	Ventana	34.243	00:45:40:21	7.008	V2683-01
 	transect	Porifera	 	2687	http://search.mbari.org/ARCHIVE/frameGrabs/Ventana/images/2687/02_57_03_06.jpg	 	 	1810745	 	2005-07-13 19:31:20.0	Ventana	 	02:57:03:06	 	V2687-03
 	ascend	Leuroglossus stilbius	368.04	2681	 	36.699364	-122.054886	1718038	0.98	2005-07-07 20:51:00.3	Ventana	34.265	04:19:20:24	7.069	V2681-05
 	transect	Psolus squamatus	 	2687	 	 	 	1809910	 	2005-07-13 18:47:57.0	Ventana	 	02:13:43:10	 	V2687-03
 	transect	Brisaster	1000.3	2669	http://search.mbari.org/ARCHIVE/frameGrabs/Ventana/images/2669/02_19_45_18.jpg	36.731842	-122.245224	1735365	0.4	2005-05-25 19:58:15.0	Ventana	34.506	02:19:45:18	4.099	V2669-03
 	transect	Chionoecetes tanneri	1000.06	2669	 	36.732536	-122.25021	1736929	0.41	2005-05-25 20:34:32.0	Ventana	34.51	02:56:00:18	4.067	V2669-03
 	transect	Rathbunaster californicus	200.33	2696	 	36.804844	-122.12744	1813532	1.51	2005-08-01 17:57:29.0	Ventana	34.213	01:25:22:04	8.672	V2696-02
 	transect	Phyllospadix	800.55	2674	 	36.75257	-122.20212	1799156	0.34	2005-06-08 17:39:13.0	Ventana	34.482	00:23:46:15	4.44	V2674-01
 	ascend	Chaetognatha	418.56	2681	 	36.699223	-122.0543	1717955	0.79	2005-07-07 20:45:45.4	Ventana	34.281	04:14:06:22	6.659	V2681-05
 	ascend	Appendicularia	378.15	2693	 	36.696224	-122.06057	1758746	1.19	2005-07-25 20:48:31.0	Ventana	34.23	03:13:04:21	7.148	V2693-04
 	transect	molt	100.5	2681	 	36.69962	-122.05416	2489786	2.13	2005-07-07 16:50:35.0	Ventana	34.067	00:21:44:19	9.16	V2681-01HD
 	transect	Sebastolobus altivelis	799.92	2674	 	36.7521	-122.20868	1800799	0.35	2005-06-08 18:12:58.0	Ventana	34.49	00:57:30:02	4.329	V2674-01
 	transect	Euplexaura	399.49	2687	 	36.78938	-122.12503	1809647	1.15	2005-07-13 18:29:24.0	Ventana	34.239	01:55:43:08	7.32	V2687-02
 	transect	Euphausia	200.35	2681	 	36.698326	-122.053444	2491350	1.67	2005-07-07 17:13:40.0	Ventana	34.201	00:44:48:00	8.341	V2681-01HD
 	cruise	mud	1011.44	2689	 	36.771427	-122.082825	1669610	0.53	2005-07-18 16:38:18.0	Ventana	34.528	00:01:23:05	3.905	V2689-01
 	transect	Mesomyaria	 	2669	 	 	 	1737635	 	2005-05-25 13:54:05.0	Ventana	 	03:14:53:13	 	V2669-04
 	stationary	Pennatulacea sp.1	602.51	2680	 	36.791885	-122.233	1806883	0.36	2005-06-27 20:32:03.0	Ventana	34.378	03:10:39:07	5.604	V2680-03
 	descend	Crustacea	291.62	2693	 	36.697823	-122.06122	1758448	1.34	2005-07-25 19:37:38.0	Ventana	34.236	02:17:13:28	7.821	V2693-03
 	transect	Psolus squamatus	 	2687	 	 	 	1810039	 	2005-07-13 18:51:50.0	Ventana	 	02:17:36:15	 	V2687-03
 	transect	Mesomyaria	999.84	2669	 	36.73064	-122.22934	1651079	0.45	2005-05-25 18:08:59.0	Ventana	34.522	00:31:26:28	3.905	V2669-01
 	transect	Phyllospadix	801.51	2674	 	36.752216	-122.207695	1800093	0.4	2005-06-08 18:08:15.0	Ventana	34.49	00:52:46:23	4.334	V2674-01
 	cruise	Glyptocephalus zachirus	456.68	2676	http://search.mbari.org/ARCHIVE/frameGrabs/Ventana/images/2676/00_20_09_24.jpg	36.802837	-122.029305	1676310	0.59	2005-06-14 16:36:02.0	Ventana	34.326	00:20:09:24	6.241	V2676-01
 	ascend	Chuniphyes	791.65	2682	 	36.69865	-122.058914	1723275	0.32	2005-07-08 20:25:33.0	Ventana	34.452	04:17:42:17	4.701	V2682-05
 	transect	Ophiuroidea	998.07	2669	 	36.731133	-122.23099	1683488	0.45	2005-05-25 18:22:24.0	Ventana	34.523	00:44:51:01	3.912	V2669-01
 	descend	Chaetognatha	406.92	2682	 	36.69825	-122.05984	1720719	0.8	2005-07-08 17:38:33.0	Ventana	34.27	01:32:03:02	6.566	V2682-02
 	descend	Copepoda	667.67	2683	 	36.70203	-122.04894	1757064	0.32	2005-07-11 17:52:41.0	Ventana	34.416	01:36:46:07	5.139	V2683-02
 	transect	Ophiuroidea	1000.22	2669	 	36.73162	-122.2433	1733812	0.41	2005-05-25 19:46:18.0	Ventana	34.51	02:07:50:18	4.065	V2669-03
 	transect	bathocyroe	400.78	2681	 	36.697285	-122.05293	2493122	0.79	2005-07-07 17:47:27.0	Ventana	34.278	01:17:50:07	6.663	V2681-02HD
 	transect	Phyllospadix	799.92	2674	 	36.75267	-122.20055	1774128	0.29	2005-06-08 17:31:23.0	Ventana	34.458	00:15:57:00	4.661	V2674-01
 	cruise	mud	382.78	2690	 	36.79004	-121.887535	1670256	0.94	2005-07-18 19:51:45.0	Ventana	34.269	01:06:52:12	6.949	V2690-01
 	transect	trash	999.93	2669	http://search.mbari.org/ARCHIVE/frameGrabs/Ventana/images/2669/00_56_24_06.jpg	36.73098	-122.23254	1683774	0.45	2005-05-25 18:33:58.0	Ventana	34.522	00:56:24:06	3.91	V2669-01
 	transect	Gastropoda sp.2	997.3	2669	 	36.730648	-122.2274	1694920	0.45	2005-05-25 17:56:50.0	Ventana	34.521	00:19:19:01	3.908	V2669-01
 	ascend	Chaetognatha	370.8	2693	 	36.695595	-122.060684	1758806	1.2	2005-07-25 20:54:01.0	Ventana	34.238	03:18:33:13	7.21	V2693-04
 	transect	Umbellula lindahli	597.45	2680	 	36.781075	-122.22603	1804864	0.35	2005-06-27 18:31:22.0	Ventana	34.379	01:10:28:07	5.592	V2680-02
 	descend	Sergestes similis	298.13	2681	 	36.69857	-122.053734	1713631	1.26	2005-07-07 17:18:04.467	Ventana	34.233	00:49:12:02	7.459	V2681-01
 	transect	Psolus squamatus	 	2687	 	 	 	1808798	 	2005-07-13 17:29:41.0	Ventana	 	00:56:33:29	 	V2687-01
 	transect	Melanostigma pammelas	600.65	2681	 	36.695763	-122.05124	2493671	0.3	2005-07-07 18:18:50.0	Ventana	34.387	01:49:12:22	5.496	V2681-02HD
 	transect	Ceriantharia sp. 1	599.84	2680	 	36.778133	-122.22331	1804361	0.36	2005-06-27 17:54:29.0	Ventana	34.378	00:34:36:07	5.588	V2680-01
 	descend	Pleurobrachia pileus	192.13	2685	 	36.79367	-121.883255	1669753	1.92	2005-07-12 20:13:20.0	Ventana	34.108	00:10:55:12	8.756	V2685-01
 	transect	Mediaster	 	2687	 	 	 	1811151	 	2005-07-13 19:56:57.0	Ventana	 	03:21:57:20	 	V2687-04
 	transect	Mesomyaria	996.98	2669	 	36.73065	-122.22762	1649196	0.45	2005-05-25 17:58:19.0	Ventana	34.522	00:20:48:00	3.909	V2669-01
 	ascend	Calycophorae	537.89	2682	 	36.698334	-122.06282	1723633	0.43	2005-07-08 21:10:09.0	Ventana	34.347	05:01:50:00	6.004	V2682-06
 	transect	Sebastolobus altivelis	800.37	2674	 	36.75173	-122.211784	1801145	0.35	2005-06-08 18:27:04.0	Ventana	34.488	01:11:08:29	4.339	V2674-02
 	transect	bolinopsis	600.54	2681	 	36.697372	-122.05319	2493828	0.3	2005-07-07 18:26:20.0	Ventana	34.388	01:56:41:16	5.47	V2681-02HD
 	ascend	Appendicularia	611.02	2681	 	36.69893	-122.05424	1717692	0.31	2005-07-07 20:29:20.017	Ventana	34.385	03:58:20:23	5.508	V2681-04
 	endtransect	object	806.32	2674	 	36.750427	-122.22191	1803766	0.33	2005-06-08 19:17:37.0	Ventana	34.487	02:01:38:25	4.427	V2674-02
 	transect	Porifera sp. 1	 	2687	 	 	 	1810099	 	2005-07-13 18:56:37.0	Ventana	 	02:22:22:27	 	V2687-03
 	transect	Gastropoda sp.2	999.64	2669	 	36.73103	-122.231224	1695077	0.45	2005-05-25 18:25:08.0	Ventana	34.521	00:47:34:10	3.912	V2669-01
 	descend	Appendicularia	358.73	2682	 	36.6985	-122.06011	1720451	1.0	2005-07-08 17:32:54.0	Ventana	34.258	01:26:24:12	7.075	V2682-02
 	transect	Calliostoma platinum	 	2687	 	 	 	1810648	 	2005-07-13 19:26:40.0	Ventana	 	02:52:23:19	 	V2687-03
 	ascend	Chaetognatha	334.17	2693	 	36.69243	-122.061844	1759009	1.27	2005-07-25 21:15:05.0	Ventana	34.252	03:39:37:17	7.523	V2693-04
 	transect	Stomphia	 	2687	 	 	 	1809001	 	2005-07-13 17:33:22.0	Ventana	 	01:00:14:01	 	V2687-01
 	transect	Gastropoda sp.2	1000.04	2669	 	36.73123	-122.238266	1694717	0.43	2005-05-25 19:16:52.0	Ventana	34.517	01:38:50:26	3.957	V2669-02
 	transect	Psolus squamatus	399.84	2687	 	36.788048	-122.121544	1809144	1.13	2005-07-13 17:36:10.0	Ventana	34.242	01:02:32:10	7.271	V2687-02
 	transect	Phyllospadix	1000.43	2669	 	36.731186	-122.24081	1689309	0.41	2005-05-25 19:32:25.0	Ventana	34.51	01:54:22:16	4.056	V2669-02
 	ascend	Appendicularia	679.42	2681	 	36.69875	-122.05451	1717627	0.27	2005-07-07 20:22:43.767	Ventana	34.413	03:51:44:28	5.162	V2681-04
 	transect	Aegina	500.58	2681	 	36.6973	-122.052986	2493468	0.44	2005-07-07 17:57:52.0	Ventana	34.346	01:28:15:02	6.022	V2681-02HD
 	cruise	Parastichopus	192.91	2676	 	36.80698	-122.02955	1676811	1.59	2005-06-14 17:45:08.0	Ventana	34.2	01:24:51:17	8.094	V2676-02
 	transect	Ophiuroidea	998.5	2669	 	36.73115	-122.230736	1683428	0.45	2005-05-25 18:20:33.0	Ventana	34.523	00:43:00:07	3.914	V2669-01
 	transect	Poeobius meseres	1000.98	2681	 	36.69544	-122.05143	2498611	0.49	2005-07-07 19:24:46.0	Ventana	34.536	02:54:25:12	3.827	V2681-03HD
 	transect	Neptunea amianta	802.66	2674	 	36.75229	-122.206085	1799890	0.36	2005-06-08 18:00:21.0	Ventana	34.49	00:44:53:01	4.342	V2674-01
 	transect	Psolus squamatus	 	2687	 	 	 	1808595	 	2005-07-13 17:24:36.0	Ventana	 	00:51:28:26	 	V2687-01
 	descend	Dosidicus gigas	372.48	2681	 	36.69556	-122.05122	1715071	0.97	2005-07-07 17:32:22.8	Ventana	34.261	01:02:46:14	7.011	V2681-02
 	ascend	Cydippida	258.17	2681	 	36.697838	-122.05522	1719399	 	2005-07-07 21:29:59.0	Ventana	 	05:03:29:26	 	V2681-05
 	cruise	Pleuronectiformes	90.47	2688	 	36.816395	-122.01612	1679367	2.02	2005-07-14 20:14:03.0	Ventana	34.089	03:58:48:07	8.922	V2688-04
 	ascend	Nanomia	258.17	2681	 	36.697838	-122.05522	1719542	 	2005-07-07 21:29:59.0	Ventana	 	05:12:18:27	 	V2681-05
 	ascend	Nanomia	169.89	2682	 	36.69635	-122.06058	1723776	1.67	2005-07-08 21:32:34.0	Ventana	34.217	05:24:13:21	8.721	V2682-06
 	transect	Stomphia	399.88	2687	 	36.78811	-122.12173	1809301	1.14	2005-07-13 17:38:53.0	Ventana	34.238	01:05:15:17	7.284	V2687-02
 	transect	Ophiuroidea	999.42	2669	 	36.731194	-122.23569	1684369	0.44	2005-05-25 18:55:12.0	Ventana	34.52	01:17:12:18	3.935	V2669-02
 	ascend	Leptomedusae	259.41	2681	 	36.69941	-122.05452	1718601	1.43	2005-07-07 21:13:09.133	Ventana	34.232	04:41:29:08	7.97	V2681-05
 	transect	Mesomyaria	999.8	2669	 	36.730927	-122.23144	1683631	0.45	2005-05-25 18:26:44.0	Ventana	34.522	00:49:10:03	3.917	V2669-01
 	transect	Sebastes saxicola	200.2	2696	 	36.804558	-122.12679	1813472	1.51	2005-08-01 17:50:51.0	Ventana	34.21	01:18:44:29	8.667	V2696-02
 	transect	Mesomyaria	1000.34	2669	 	36.73153	-122.24259	1694514	0.4	2005-05-25 19:42:24.0	Ventana	34.511	02:04:21:03	4.084	V2669-02
 	ascend	Zalophus californianus	2.62	2695	 	36.783722	-122.19895	1824526	 	2005-07-28 21:01:51.0	Ventana	 	05:59:25:26	 	V2695-04
 	transect	Mesomyaria	801.26	2674	 	36.75095	-122.219086	1803623	0.35	2005-06-08 19:02:45.0	Ventana	34.49	01:46:47:03	4.376	V2674-02
 	descend	Copepoda	717.94	2682	 	36.698475	-122.059906	1721485	0.28	2005-07-08 18:22:43.0	Ventana	34.438	02:15:46:10	4.91	V2682-03
 	transect	Calycophorae	300.43	2681	 	36.69769	-122.053116	2492167	1.23	2005-07-07 17:22:35.0	Ventana	34.234	00:53:42:12	7.4	V2681-01HD
 	transect	Calycophorae	300.44	2681	 	36.698322	-122.05353	2491964	1.25	2005-07-07 17:20:20.0	Ventana	34.233	00:51:27:02	7.431	V2681-01HD
 	transect	Mesomyaria	1000.11	2669	 	36.731045	-122.23962	1689166	0.41	2005-05-25 19:25:03.0	Ventana	34.509	01:47:01:24	4.064	V2669-02
 	descend	Aegina	700.61	2681	 	36.698006	-122.053734	1716123	0.29	2005-07-07 18:34:27.46	Ventana	34.432	02:04:11:18	4.982	V2681-03
 	transect	Mediaster	 	2687	 	 	 	1811825	 	2005-07-13 20:26:29.0	Ventana	 	03:51:27:19	 	V2687-04
 	ascend	Siphonophora	 	2676	 	 	 	1677217	 	2005-06-14 19:35:54.0	Ventana	 	03:14:37:19	 	V2676-03
 	transect	Mesomyaria	800.62	2674	http://search.mbari.org/ARCHIVE/frameGrabs/Ventana/images/2674/01_34_53_07.jpg	36.7512	-122.2164	1803420	0.35	2005-06-08 18:50:50.0	Ventana	34.49	01:34:53:07	4.336	V2674-02
 	descend	Euphausiacea	286.52	2682	 	36.699375	-122.06068	1720105	1.26	2005-07-08 16:52:17.0	Ventana	34.231	00:46:20:09	7.52	V2682-01
 	transect	Nanomia bijuga	200.48	2681	 	36.69828	-122.05329	2490584	1.72	2005-07-07 17:07:41.0	Ventana	34.195	00:38:48:24	8.334	V2681-01HD
 	transect	Nanomia bijuga	400.81	2681	 	36.695736	-122.051125	2492873	0.79	2005-07-07 17:40:30.0	Ventana	34.277	01:10:55:05	6.668	V2681-02HD
 	ascend	Nanomia	209.17	2693	 	36.691097	-122.062584	1759152	1.74	2005-07-25 21:24:46.0	Ventana	34.201	03:49:18:07	8.677	V2693-04
 	transect	Mediaster	196.45	2696	http://search.mbari.org/ARCHIVE/frameGrabs/Ventana/images/2696/00_37_03_19.jpg	36.803146	-122.12284	1813126	1.55	2005-08-01 17:08:45.0	Ventana	34.2	00:37:03:19	8.616	V2696-01
 	transect	Mesomyaria	998.99	2669	 	36.731125	-122.23401	1684023	0.45	2005-05-25 18:42:12.0	Ventana	34.523	01:04:12:15	3.913	V2669-02
 	transect	Psolus squamatus	 	2687	 	 	 	1810445	 	2005-07-13 19:18:24.0	Ventana	 	02:44:08:05	 	V2687-03
 	ascend	Chaetognatha	338.15	2681	 	36.699368	-122.055244	1718098	1.14	2005-07-07 20:53:40.9	Ventana	34.245	04:22:01:07	7.281	V2681-05
 	transect	Corallimorphus pilatus	 	2687	 	 	 	1810805	 	2005-07-13 19:35:11.0	Ventana	 	03:00:54:02	 	V2687-03
 	transect	Ophiuroidea	998.85	2669	 	36.731403	-122.23636	1684729	0.44	2005-05-25 19:00:08.0	Ventana	34.52	01:22:07:22	3.946	V2669-02
 	descend	Chuniphyes	1027.73	2682	 	36.698322	-122.05919	1722034	0.47	2005-07-08 19:01:50.0	Ventana	34.531	02:54:51:21	3.875	V2682-03
 	descend	Appendicularia	416.05	2683	 	36.70144	-122.04957	1756658	0.89	2005-07-11 17:05:43.0	Ventana	34.266	00:53:22:27	6.852	V2683-01
 	transect	Calliostoma platinum	400.29	2687	 	36.788998	-122.123825	1809504	1.17	2005-07-13 18:09:43.0	Ventana	34.238	01:36:03:16	7.353	V2687-02
 	cruise	Sebastes	249.72	2688	 	36.80952	-122.02043	1677923	1.55	2005-07-14 18:30:45.0	Ventana	34.189	02:16:01:12	8.254	V2688-03
 	transect	Phyllospadix	801.08	2674	 	36.75195	-122.209694	1800942	0.35	2005-06-08 18:18:27.0	Ventana	34.49	01:02:32:09	4.331	V2674-02
 	transect	Mediaster	 	2687	 	 	 	1811354	 	2005-07-13 20:09:01.0	Ventana	 	03:34:00:26	 	V2687-04
 	cruise	Liponema brevicornis	503.52	2694	 	36.784374	-122.20051	1676167	0.76	2005-07-27 17:10:02.0	Ventana	34.288	00:03:10:24	6.483	V2694-01
 	transect	Mesomyaria	798.47	2674	 	36.75156	-122.21412	1801334	0.35	2005-06-08 18:39:06.0	Ventana	34.488	01:23:09:29	4.339	V2674-02
 	transect	Psolus squamatus	 	2687	 	 	 	1807026	 	2005-07-13 16:54:49.0	Ventana	 	00:21:43:29	 	V2687-01
 	ascend	sinker	928.62	2682	 	36.697956	-122.058495	1723132	0.38	2005-07-08 20:12:13.0	Ventana	34.504	04:04:23:08	4.191	V2682-05
 	transect	Ophiuroidea	999.07	2669	 	36.731388	-122.23609	1684572	0.44	2005-05-25 18:58:13.0	Ventana	34.522	01:20:13:11	3.94	V2669-02
 	ascend	Appendicularia	799.67	2681	 	36.69912	-122.056625	1717424	0.33	2005-07-07 20:00:53.867	Ventana	34.466	03:29:55:26	4.603	V2681-04
 	ascend	Poeobius meseres	725.61	2681	 	36.698696	-122.055275	1717567	0.28	2005-07-07 20:18:09.4	Ventana	34.44	03:47:10:11	4.913	V2681-04
 	transect	Mediaster	 	2687	 	 	 	1811479	 	2005-07-13 20:14:14.0	Ventana	 	03:39:13:20	 	V2687-04
 	transect	Ceriantharia sp. 1	598.92	2680	 	36.78014	-122.22515	1804601	0.35	2005-06-27 18:19:01.0	Ventana	34.381	00:59:06:26	5.556	V2680-01
 	transect	Rathbunaster californicus	199.02	2696	 	36.80377	-122.12493	1813306	1.53	2005-08-01 17:32:13.0	Ventana	34.203	01:00:30:03	8.633	V2696-01
 	cruise	Chionoecetes tanneri	1225.79	2683	 	36.70598	-122.04776	1757576	0.72	2005-07-11 19:58:43.0	Ventana	34.571	03:33:07:09	3.332	V2683-04
 	transect	Calliostoma platinum	 	2687	http://search.mbari.org/ARCHIVE/frameGrabs/Ventana/images/2687/03_07_30_20.jpg	 	 	1810911	 	2005-07-13 19:42:29.0	Ventana	 	03:07:30:20	 	V2687-04
 	transect	Ophiuroidea	998.69	2669	 	36.731056	-122.23048	1651305	0.45	2005-05-25 18:18:07.0	Ventana	34.522	00:40:34:14	3.91	V2669-01
 	descend	Chuniphyes	605.13	2681	 	36.695713	-122.051056	1715740	0.3	2005-07-07 18:13:16.6	Ventana	34.389	01:43:38:07	5.449	V2681-02
 	descend	Copepoda	1183.9	2682	 	36.698242	-122.05786	1722403	0.66	2005-07-08 19:41:30.0	Ventana	34.57	03:34:05:14	3.414	V2682-04
 	descend	Appendicularia	305.29	2683	 	36.701096	-122.05015	1756501	1.26	2005-07-11 16:54:00.0	Ventana	34.243	00:41:39:21	7.663	V2683-01
 	transect	Mediaster	 	2687	 	 	 	1812231	 	2005-07-13 20:29:37.0	Ventana	 	03:54:35:19	 	V2687-04
 	descend	Sergestes similis	262.34	2683	 	36.700912	-122.05044	1756455	1.39	2005-07-11 16:51:23.0	Ventana	34.227	00:39:03:12	7.931	V2683-01
 	ascend	Nanomia	166.65	2693	 	36.690655	-122.06297	1759249	1.94	2005-07-25 21:30:36.0	Ventana	34.119	03:55:07:01	8.905	V2693-04
 	descend	Appendicularia	628.84	2682	 	36.698616	-122.059845	1721282	0.29	2005-07-08 18:08:44.0	Ventana	34.398	02:01:49:04	5.367	V2682-03
 	transect	Mediaster	 	2687	 	 	 	1810159	 	2005-07-13 19:01:56.0	Ventana	 	02:27:41:19	 	V2687-03
 	ascend	Appendicularia	331.62	2681	 	36.69964	-122.05521	1718135	1.17	2005-07-07 20:55:40.897	Ventana	34.239	04:24:01:18	7.318	V2681-05
 	descend	Copepoda	260.26	2682	 	36.699795	-122.06083	1720008	1.37	2005-07-08 16:26:24.0	Ventana	34.23	00:20:28:15	7.821	V2682-01
 	ascend	Atolla	491.23	2682	 	36.698296	-122.06332	1723693	0.53	2005-07-08 21:15:08.0	Ventana	34.328	05:06:49:28	6.22	V2682-06
 	transect	Ceriantharia sp. 2	999.2	2669	 	36.731033	-122.23207	1683714	0.45	2005-05-25 18:30:25.0	Ventana	34.52	00:52:51:15	3.916	V2669-01
 	transect	Actiniaria sp. 3	 	2687	 	 	 	1808715	 	2005-07-13 17:27:42.0	Ventana	 	00:54:34:19	 	V2687-01
 	transect	Appendicularia	400.75	2681	 	36.697613	-122.053314	2493182	0.79	2005-07-07 17:48:51.0	Ventana	34.277	01:19:15:01	6.658	V2681-02HD
 	descend	Appendicularia	895.7	2683	 	36.703266	-122.04833	1757253	0.37	2005-07-11 18:31:51.0	Ventana	34.495	02:12:15:10	4.275	V2683-03
 	ascend	Hastigerinella digitata	363.22	2693	 	36.694305	-122.06101	1758866	1.24	2005-07-25 21:01:55.0	Ventana	34.235	03:26:29:04	7.371	V2693-04
 	transect	Mesomyaria	801.98	2674	 	36.752247	-122.20699	1800010	0.37	2005-06-08 18:04:38.0	Ventana	34.49	00:49:10:06	4.341	V2674-01
 	stationary	Merluccius productus	502.38	2694	 	36.784542	-122.20048	1676668	0.72	2005-07-27 20:30:02.0	Ventana	34.29	03:02:09:26	6.413	V2694-03
 	transect	Mesomyaria	800.67	2674	 	36.751083	-122.21775	1803526	0.35	2005-06-08 18:57:06.0	Ventana	34.492	01:41:08:28	4.344	V2674-02
 	transect	Ceriantharia sp. 1	801.22	2674	 	36.752163	-122.208084	1800702	0.35	2005-06-08 18:10:07.0	Ventana	34.489	00:54:38:15	4.332	V2674-01
 	transect	myctophidae	300.42	2681	 	36.696697	-122.05228	2492490	1.23	2005-07-07 17:25:56.0	Ventana	34.234	00:57:03:26	7.397	V2681-01HD
 	ascend	Appendicularia	594.32	2682	 	36.698776	-122.06086	1723478	0.38	2005-07-08 20:48:38.0	Ventana	34.373	04:40:46:02	5.656	V2682-05
 	descend	Appendicularia	751.96	2682	 	36.69843	-122.05967	1721651	0.28	2005-07-08 18:30:41.0	Ventana	34.454	02:23:45:25	4.763	V2682-03
 	descend	Appendicularia	503.17	2683	 	36.701458	-122.04914	1756824	0.68	2005-07-11 17:35:54.0	Ventana	34.305	01:20:01:13	6.466	V2683-02
 	transect	Phyllospadix	800.81	2674	 	36.752514	-122.20152	1799059	0.34	2005-06-08 17:36:12.0	Ventana	34.485	00:20:45:19	4.422	V2674-01
 	transect	Rathbunaster californicus	201.85	2696	 	36.805256	-122.12819	1813629	1.5	2005-08-01 18:07:34.0	Ventana	34.211	01:35:25:22	8.67	V2696-02
 	transect	Mediaster	 	2687	 	 	 	1811802	 	2005-07-13 20:25:40.0	Ventana	 	03:50:38:10	 	V2687-04
 	descend	Chuniphyes	878.8	2681	 	36.696945	-122.05317	1716492	0.36	2005-07-07 19:05:23.133	Ventana	34.498	02:35:05:11	4.221	V2681-03
 	ascend	Chaetognatha	1033.63	2682	 	36.697773	-122.05785	1722832	0.47	2005-07-08 20:03:31.0	Ventana	34.528	03:56:06:14	3.879	V2682-04
 	ascend	Cyclothone	345.42	2693	 	36.693535	-122.06133	1758926	1.25	2005-07-25 21:09:15.0	Ventana	34.236	03:33:47:13	7.385	V2693-04
 	transect	Mesomyaria	999.97	2669	 	36.7326	-122.25044	1736989	0.41	2005-05-25 20:36:18.0	Ventana	34.509	02:57:45:29	4.07	V2669-03
 	descend	Aegina	793.11	2683	 	36.702614	-122.04883	1757147	0.36	2005-07-11 17:59:57.0	Ventana	34.458	01:44:02:07	4.665	V2683-02
 	transect	Liponema brevicornis	 	2687	 	 	 	1810482	 	2005-07-13 19:19:53.0	Ventana	 	02:45:37:13	 	V2687-03
 	descend	Appendicularia	517.58	2683	 	36.701458	-122.04916	1756884	0.62	2005-07-11 17:41:04.0	Ventana	34.312	01:25:10:18	6.358	V2683-02
 	transect	Psolus squamatus	 	2687	 	 	 	1810219	 	2005-07-13 19:09:50.0	Ventana	 	02:35:34:26	 	V2687-03
 	transect	Rathbunaster californicus	204.03	2696	 	36.80612	-122.129684	1813735	1.5	2005-08-01 18:22:56.0	Ventana	34.209	01:50:46:29	8.65	V2696-02
 	transect	Nanomia bijuga	200.41	2681	 	36.698296	-122.05335	2491110	1.69	2005-07-07 17:11:56.0	Ventana	34.198	00:43:03:06	8.337	V2681-01HD
 	ascend	Euphausiacea	258.17	2681	 	36.697838	-122.05522	1719579	 	2005-07-07 21:29:59.0	Ventana	 	05:15:31:23	 	V2681-05
 	transect	Mediaster	 	2687	 	 	 	1811862	 	2005-07-13 20:27:23.0	Ventana	 	03:52:21:05	 	V2687-04
 	transect	Calliostoma platinum	 	2687	 	 	 	1807072	 	2005-07-13 16:57:42.0	Ventana	 	00:24:36:17	 	V2687-01
 	cruise	Merluccius productus	347.25	2688	 	36.80772	-122.02	1677803	1.2	2005-07-14 17:59:25.0	Ventana	34.231	01:45:07:24	7.481	V2688-02
 	ascend	Calycophorae	258.17	2681	 	36.697838	-122.05522	1719316	 	2005-07-07 21:29:59.0	Ventana	 	05:00:32:14	 	V2681-05
 	descend	Appendicularia	182.45	2693	 	36.696068	-122.05818	1758268	1.89	2005-07-25 18:12:16.0	Ventana	34.17	00:52:45:28	8.853	V2693-01
 	ascend	sinker	500.4	2681	 	36.69895	-122.054245	1717752	0.5	2005-07-07 20:34:34.367	Ventana	34.331	04:03:34:09	6.137	V2681-04
 	descend	Aegina	1096.99	2682	 	36.698227	-122.05916	1722080	0.56	2005-07-08 19:07:26.0	Ventana	34.55	03:00:03:17	3.649	V2682-04
 	transect	Merluccius productus	 	2687	 	 	 	1811234	 	2005-07-13 20:05:26.0	Ventana	 	03:30:25:20	 	V2687-04
 	transect	Mesomyaria	1000.03	2669	 	36.7311	-122.24001	1689212	0.41	2005-05-25 19:27:41.0	Ventana	34.51	01:49:38:29	4.063	V2669-02
 	transect	Allocentrotus fragilis	 	2687	 	 	 	1806966	 	2005-07-13 16:51:13.0	Ventana	 	00:18:08:08	 	V2687-01
 	transect	Allocentrotus fragilis	 	2687	 	 	 	1811294	 	2005-07-13 20:05:34.0	Ventana	 	03:30:33:21	 	V2687-04
 	transect	Mesomyaria	1000.54	2669	 	36.732407	-122.24981	1736726	0.41	2005-05-25 20:31:45.0	Ventana	34.51	02:53:15:03	4.07	V2669-03
 	transect	Mediaster	 	2687	 	 	 	1812614	 	2005-07-13 20:47:32.0	Ventana	 	04:12:02:17	 	V2687-05
 	transect	Mysidae	700.68	2681	 	36.697857	-122.05369	2497619	0.29	2005-07-07 18:36:05.0	Ventana	34.429	02:05:47:28	4.964	V2681-03HD
 	transect	Nanomia bijuga	200.43	2681	 	36.69828	-122.05329	2490095	1.7	2005-07-07 17:04:38.0	Ventana	34.197	00:35:46:24	8.36	V2681-01HD
 	descend	Appendicularia	548.84	2682	 	36.698627	-122.05977	1720899	0.36	2005-07-08 18:05:13.0	Ventana	34.366	01:58:41:27	5.707	V2682-02
 	transect	Rathbunaster californicus	198.0	2696	 	36.8036	-122.12429	1813246	1.53	2005-08-01 17:25:54.0	Ventana	34.204	00:54:11:26	8.609	V2696-01
 	ascend	Calycophorae	1068.72	2682	 	36.698048	-122.05754	1722726	0.52	2005-07-08 20:00:56.0	Ventana	34.543	03:53:30:13	3.733	V2682-04
 	transect	Ophiuroidea	1000.09	2669	 	36.731693	-122.24371	1733872	0.41	2005-05-25 19:48:15.0	Ventana	34.509	02:09:46:08	4.067	V2669-03
 	transect	Stomphia	598.47	2680	 	36.78135	-122.22634	1804970	0.36	2005-06-27 18:34:58.0	Ventana	34.375	01:14:03:21	5.603	V2680-02
 	transect	Phyllospadix	799.44	2674	 	36.752525	-122.2041	1799442	0.35	2005-06-08 17:49:36.0	Ventana	34.485	00:34:08:24	4.379	V2674-01
 	transect	Ophiuroidea	998.17	2669	 	36.731106	-122.23065	1651365	0.45	2005-05-25 18:19:30.0	Ventana	34.522	00:41:57:05	3.912	V2669-01
 	descend	Appendicularia	359.97	2682	 	36.698593	-122.06039	1720331	1.0	2005-07-08 17:22:26.0	Ventana	34.255	01:15:58:16	7.079	V2682-02
 	cruise	Chionoecetes tanneri	1212.86	2683	 	36.706665	-122.04767	1757636	0.72	2005-07-11 20:12:15.0	Ventana	34.57	03:46:38:11	3.336	V2683-04
 	starttransect	physical object	602.77	2680	 	36.789272	-122.23251	1806703	0.35	2005-06-27 20:09:00.0	Ventana	34.379	02:47:37:29	5.588	V2680-03
 	cruise	rock outcrop	104.53	2688	http://search.mbari.org/ARCHIVE/frameGrabs/Ventana/images/2688/03_20_23_05.jpg	36.814262	-122.01718	20005244	1.97	2005-07-14 19:35:35.0	Ventana	34.09	03:20:23:05	8.904	V2688-04
 	transect	Ceriantharia sp. 2	997.86	2669	 	36.7306	-122.22718	1683331	0.45	2005-05-25 17:55:22.0	Ventana	34.521	00:17:50:19	3.91	V2669-01
 	transect	Neptunea amianta	999.83	2669	 	36.73133	-122.237854	1687553	0.44	2005-05-25 19:13:39.0	Ventana	34.52	01:35:38:13	3.943	V2669-02
 	transect	Brisaster	600.95	2680	 	36.786842	-122.23129	1805891	0.36	2005-06-27 19:42:32.0	Ventana	34.378	02:21:11:02	5.6	V2680-03
 	transect	Ophiuroidea	998.26	2669	 	36.73118	-122.23448	1684143	0.45	2005-05-25 18:45:47.0	Ventana	34.522	01:07:47:09	3.916	V2669-02
 	transect	Sebastolobus	998.1	2669	 	36.733006	-122.25276	1737478	0.4	2005-05-25 20:49:23.0	Ventana	34.508	03:10:11:02	4.075	V2669-04
 	descend	Aegina	815.8	2682	 	36.698357	-122.05953	1721711	0.31	2005-07-08 18:42:41.0	Ventana	34.473	02:35:43:10	4.5	V2682-03
 	transect	Phyllospadix	800.94	2674	 	36.751755	-122.21113	1801085	0.35	2005-06-08 18:24:40.0	Ventana	34.489	01:08:44:22	4.342	V2674-02
 	transect	Mesomyaria	801.29	2674	 	36.750965	-122.21853	1803586	0.35	2005-06-08 19:00:29.0	Ventana	34.487	01:44:31:09	4.359	V2674-02
 	transect	Mesomyaria	999.99	2669	 	36.73122	-122.238266	1688843	0.43	2005-05-25 19:16:57.0	Ventana	34.517	01:38:55:16	3.967	V2669-02
 	ascend	Chaetognatha	465.89	2683	 	36.704308	-122.05056	1758005	0.73	2005-07-11 21:17:37.0	Ventana	34.294	04:50:29:14	6.578	V2683-05
 	transect	Calycophorae	500.56	2681	 	36.6969	-122.05249	2493565	0.44	2005-07-07 17:59:34.0	Ventana	34.346	01:29:57:12	6.023	V2681-02HD
 	ascend	Nanomia	260.76	2681	 	36.69886	-122.05698	1718947	1.42	2005-07-07 21:20:02.6	Ventana	34.23	04:48:22:09	7.957	V2681-05
 	ascend	Appendicularia	674.29	2683	 	36.70552	-122.049484	1757899	0.3	2005-07-11 21:07:36.0	Ventana	34.428	04:40:29:02	5.034	V2683-05
 	transect	Psolus squamatus	 	2687	 	 	 	1808655	 	2005-07-13 17:26:21.0	Ventana	 	00:53:13:28	 	V2687-01
 	ascend	Poeobius meseres	1083.25	2682	 	36.698055	-122.05753	1722666	0.56	2005-07-08 19:59:48.0	Ventana	34.55	03:52:21:28	3.641	V2682-04
 	descend	Appendicularia	505.28	2682	 	36.698597	-122.05978	1720839	0.43	2005-07-08 18:00:08.0	Ventana	34.35	01:53:37:20	5.986	V2682-02
 	descend	Chaetognatha	933.12	2683	 	36.703716	-122.0486	1757313	0.38	2005-07-11 19:07:48.0	Ventana	34.507	02:48:10:14	4.164	V2683-03
 	transect	Rathbunaster californicus	196.16	2696	 	36.80268	-122.12172	1813043	1.55	2005-08-01 16:59:35.0	Ventana	34.2	00:27:54:16	8.601	V2696-01
 	descend	Calycophorae	269.36	2681	 	36.69857	-122.05363	1713608	1.4	2005-07-07 17:16:45.267	Ventana	34.222	00:47:53:14	7.77	V2681-01
 	transect	Allocentrotus fragilis	 	2687	 	 	 	1807658	 	2005-07-13 17:21:16.0	Ventana	 	00:48:09:04	 	V2687-01
 	transect	Nanomia bijuga	200.43	2681	 	36.69828	-122.05329	2490155	1.7	2005-07-07 17:05:12.0	Ventana	34.197	00:36:21:01	8.358	V2681-01HD
 	transect	Mesomyaria	1000.26	2669	 	36.731934	-122.247055	1735808	0.41	2005-05-25 20:12:14.0	Ventana	34.509	02:33:42:28	4.065	V2669-03
 	transect	Mesomyaria	999.7	2669	 	36.730595	-122.229095	1651042	0.45	2005-05-25 18:07:30.0	Ventana	34.522	00:29:57:07	3.908	V2669-01
 	transect	physical object	1000.36	2669	 	36.73158	-122.24304	1733766	0.41	2005-05-25 19:44:42.0	Ventana	34.512	02:06:13:28	4.075	V2669-03
 	ascend	Gonatus	891.36	2682	 	36.69831	-122.05841	1723215	0.34	2005-07-08 20:15:53.0	Ventana	34.495	04:08:01:14	4.288	V2682-05
 	ascend	Appendicularia	808.97	2683	 	36.70662	-122.048615	1757839	0.34	2005-07-11 21:00:54.0	Ventana	34.486	04:33:46:15	4.411	V2683-05
 	transect	Mediaster	 	2687	 	 	 	1811742	 	2005-07-13 20:23:33.0	Ventana	 	03:48:31:15	 	V2687-04
 	transect	Sebastolobus altivelis	798.92	2674	 	36.751408	-122.21489	1801394	0.35	2005-06-08 18:43:43.0	Ventana	34.49	01:27:46:13	4.336	V2674-02
 	transect	haliscera	800.93	2681	 	36.695255	-122.05105	2498108	0.31	2005-07-07 18:54:51.0	Ventana	34.476	02:24:33:04	4.491	V2681-03HD
 	ascend	Appendicularia	368.2	2683	 	36.703842	-122.050606	1758065	1.06	2005-07-11 21:21:42.0	Ventana	34.249	04:54:34:06	7.058	V2683-05
 	cruise	Porifera sp. 1	 	2687	 	 	 	1806906	 	2005-07-13 16:36:07.0	Ventana	 	00:03:02:26	 	V2687-01
 	transect	Caecosagitta macrocephala	901.06	2681	 	36.696266	-122.05231	2498311	0.39	2005-07-07 19:09:51.0	Ventana	34.505	02:39:32:10	4.172	V2681-03HD
 	transect	Leptomedusae	100.55	2681	 	36.69983	-122.05429	2489606	2.13	2005-07-07 16:45:56.0	Ventana	34.067	00:17:05:09	9.149	V2681-01HD
 	transect	Euphausia	200.37	2681	 	36.69831	-122.053406	2491230	1.67	2005-07-07 17:12:58.0	Ventana	34.201	00:44:05:18	8.34	V2681-01HD
 	cruise	Microstomus pacificus	616.31	2688	 	36.794827	-122.01921	1677314	0.43	2005-07-14 16:31:25.0	Ventana	34.398	00:17:45:06	5.395	V2688-01
 	transect	Ophiuroidea	999.77	2669	 	36.731373	-122.23737	1687493	0.44	2005-05-25 19:09:35.0	Ventana	34.519	01:31:34:22	3.945	V2669-02
 	descend	Beroe	704.46	2683	 	36.702103	-122.048935	1757087	0.31	2005-07-11 17:54:34.0	Ventana	34.422	01:38:39:24	5.071	V2683-02
 	transect	Hormiphora	200.46	2681	 	36.69828	-122.05329	2490681	1.72	2005-07-07 17:08:13.0	Ventana	34.194	00:39:21:07	8.323	V2681-01HD
 	transect	Rathbunaster californicus	203.23	2696	 	36.806675	-122.13025	1813795	1.48	2005-08-01 18:31:37.0	Ventana	34.215	01:59:27:16	8.649	V2696-02
 	ascend	Aegina	763.74	2681	 	36.69868	-122.05603	1717507	0.29	2005-07-07 20:11:04.633	Ventana	34.451	03:40:06:00	4.792	V2681-04
 	ascend	Chaetognatha	295.53	2681	 	36.699726	-122.05524	1718195	1.33	2005-07-07 20:59:46.333	Ventana	34.226	04:28:07:09	7.66	V2681-05
 	descend	sinker	1234.93	2683	 	36.706097	-122.04812	1757516	0.73	2005-07-11 19:46:19.0	Ventana	34.573	03:20:42:26	3.346	V2683-04
 	transect	Mediaster	 	2687	 	 	 	1812817	 	2005-07-13 20:59:13.0	Ventana	 	04:23:42:22	 	V2687-05
 	transect	Psolus squamatus	 	2687	 	 	 	1811539	 	2005-07-13 20:15:20.0	Ventana	 	03:40:19:05	 	V2687-04
 	transect	Phyllospadix	800.0	2674	 	36.752525	-122.203384	1799322	0.35	2005-06-08 17:45:41.0	Ventana	34.481	00:30:14:07	4.39	V2674-01
 	transect	Halipteris californica	799.94	2674	 	36.751297	-122.21561	1803360	0.35	2005-06-08 18:46:47.0	Ventana	34.489	01:30:50:20	4.354	V2674-02
 	transect	Mediaster	 	2687	 	 	 	1812674	 	2005-07-13 20:51:11.0	Ventana	 	04:15:41:27	 	V2687-05
 	transect	Rathbunaster californicus	199.5	2696	 	36.80406	-122.12571	1813366	1.52	2005-08-01 17:39:59.0	Ventana	34.21	01:07:53:10	8.665	V2696-02
 	descend	Hormiphora	162.41	2693	 	36.696266	-122.05775	1758208	2.0	2005-07-25 17:57:44.0	Ventana	34.124	00:38:15:29	8.957	V2693-01
 	cruise	Rathbunaster californicus	103.88	2688	 	36.814056	-122.01849	1679510	1.91	2005-07-14 21:22:52.0	Ventana	34.107	05:07:04:06	8.882	V2688-05
 	descend	Crustacea	350.77	2683	 	36.701298	-122.04993	1756561	1.21	2005-07-11 16:56:34.0	Ventana	34.229	00:44:15:15	7.198	V2683-01
 	transect	molt	100.5	2681	 	36.69982	-122.05429	2489726	2.13	2005-07-07 16:48:47.0	Ventana	34.067	00:19:55:26	9.152	V2681-01HD
 	descend	Crustacea	242.54	2693	 	36.698524	-122.06171	1758388	1.5	2005-07-25 19:23:58.0	Ventana	34.239	02:03:59:04	8.498	V2693-02
 	transect	Phyllospadix	802.14	2674	 	36.751762	-122.21051	1801025	0.35	2005-06-08 18:22:25.0	Ventana	34.49	01:06:29:21	4.33	V2674-02
 	cruise	physical object	997.54	2679	http://search.mbari.org/ARCHIVE/frameGrabs/Ventana/images/2679/00_04_05_12.jpg	36.68986	-122.1656	20004247	0.42	2005-06-16 17:32:43.0	Ventana	34.514	00:04:05:12	4.117	V2679-01
 	transect	Neptunea amianta	 	2669	http://search.mbari.org/ARCHIVE/frameGrabs/Ventana/images/2669/03_17_38_09.jpg	 	 	1737681	 	2005-05-25 13:56:50.0	Ventana	 	03:17:38:09	 	V2669-04
 	transect	Mesomyaria	998.41	2669	 	36.731106	-122.23068	1683391	0.45	2005-05-25 18:19:54.0	Ventana	34.521	00:42:20:17	3.912	V2669-01
 	ascend	Appendicularia	377.54	2681	 	36.699352	-122.05475	1718015	0.94	2005-07-07 20:49:57.2	Ventana	34.268	04:18:18:23	7.008	V2681-05
 	transect	Phyllospadix	998.03	2669	 	36.733097	-122.25295	1737538	0.4	2005-05-25 20:50:35.0	Ventana	34.509	03:11:23:24	4.075	V2669-04
 	cruise	Scyliorhinidae	432.35	2688	http://search.mbari.org/ARCHIVE/frameGrabs/Ventana/images/2688/01_29_50_02.jpg	36.805058	-122.018814	1677683	0.93	2005-07-14 17:44:08.0	Ventana	34.265	01:29:50:02	6.949	V2688-02
 	transect	Mediaster	 	2687	 	 	 	1812494	 	2005-07-13 20:41:37.0	Ventana	 	04:06:34:17	 	V2687-04
 	transect	Calycophorae	700.65	2681	 	36.696373	-122.05229	2497739	0.28	2005-07-07 18:42:15.0	Ventana	34.435	02:11:58:03	4.954	V2681-03HD
 	transect	Ophiuroidea	999.01	2669	 	36.731415	-122.23619	1684669	0.44	2005-05-25 18:58:58.0	Ventana	34.52	01:20:57:19	3.94	V2669-02
 	transect	Appendicularia	400.79	2681	 	36.696243	-122.051704	2492979	0.79	2005-07-07 17:42:59.0	Ventana	34.277	01:13:23:06	6.654	V2681-02HD
 	transect	Euphausia	200.42	2681	 	36.69828	-122.0533	2490847	1.71	2005-07-07 17:09:11.0	Ventana	34.195	00:40:19:12	8.326	V2681-01HD
 	transect	tuscaroridae	1000.96	2681	 	36.69636	-122.05265	2498694	0.47	2005-07-07 19:29:29.0	Ventana	34.53	02:59:08:18	3.878	V2681-03HD
 	transect	Chionoecetes tanneri	599.3	2680	 	36.77914	-122.224266	1804481	0.36	2005-06-27 18:06:49.0	Ventana	34.378	00:46:53:20	5.601	V2680-01
 	descend	Calycophorae	589.32	2682	 	36.698647	-122.05982	1721222	0.36	2005-07-08 18:07:12.0	Ventana	34.386	02:00:17:18	5.497	V2682-03
 	transect	Chaetognatha	200.42	2681	 	36.69828	-122.05329	2490298	1.69	2005-07-07 17:06:38.0	Ventana	34.199	00:37:46:03	8.355	V2681-01HD
 	transect	Mesomyaria	1000.43	2669	 	36.732243	-122.24872	1736237	0.41	2005-05-25 20:24:25.0	Ventana	34.512	02:45:55:19	4.07	V2669-03
 	transect	Chionoecetes tanneri	799.32	2674	 	36.751656	-122.21309	1801251	0.35	2005-06-08 18:32:03.0	Ventana	34.49	01:16:06:27	4.341	V2674-02
 	descend	Appendicularia	890.82	2682	 	36.698265	-122.05945	1721771	0.33	2005-07-08 18:50:49.0	Ventana	34.492	02:43:50:21	4.329	V2682-03
 	descend	Prayidae	207.75	2683	 	36.701023	-122.05088	1756395	1.71	2005-07-11 16:47:48.0	Ventana	34.188	00:35:28:06	8.298	V2683-01
 	cruise	Pleuronectiformes	262.63	2676	 	36.805473	-122.02947	1676728	1.53	2005-06-14 17:35:58.0	Ventana	34.208	01:15:43:04	7.989	V2676-02
 	cruise	Porifera	110.31	2688	 	36.811314	-122.02257	1678006	1.95	2005-07-14 18:42:46.0	Ventana	34.095	02:28:00:28	8.896	V2688-03
 	descend	Appendicularia	602.7	2681	 	36.695625	-122.05113	1715680	0.3	2005-07-07 18:10:17.367	Ventana	34.388	01:40:39:06	5.472	V2681-02
 	transect	Pennatulacea sp.1	602.37	2680	 	36.79036	-122.23272	1806763	0.35	2005-06-27 20:18:44.0	Ventana	34.379	02:57:20:25	5.587	V2680-03
 	transect	Calycophorae	600.58	2681	 	36.696377	-122.051994	2493731	0.3	2005-07-07 18:21:47.0	Ventana	34.388	01:52:08:17	5.482	V2681-02HD
 	transect	Mesomyaria	800.86	2674	 	36.752544	-122.20028	1774068	0.3	2005-06-08 17:28:31.0	Ventana	34.454	00:13:05:16	4.605	V2674-01
 	transect	Mesomyaria	997.79	2669	 	36.73058	-122.22721	1649113	0.45	2005-05-25 17:55:31.0	Ventana	34.521	00:17:59:20	3.91	V2669-01
 	transect	Mesomyaria	999.64	2669	 	36.731087	-122.235176	1684286	0.45	2005-05-25 18:52:01.0	Ventana	34.521	01:14:01:07	3.922	V2669-02
 	transect	Mediaster	 	2687	 	 	 	1812291	 	2005-07-13 20:30:59.0	Ventana	 	03:55:57:04	 	V2687-04
 	transect	Leuroglossus stilbius	700.61	2681	 	36.69537	-122.05115	2497942	0.28	2005-07-07 18:46:48.0	Ventana	34.433	02:16:30:27	4.984	V2681-03HD
 	transect	Phyllospadix	805.65	2674	 	36.75065	-122.22132	1803729	0.34	2005-06-08 19:13:54.0	Ventana	34.483	01:57:55:28	4.404	V2674-02
 	descend	Solmaris	464.41	2683	 	36.701504	-122.04938	1756764	0.77	2005-07-11 17:17:00.0	Ventana	34.287	01:04:40:04	6.654	V2683-01
 	transect	Phyllospadix	800.74	2674	 	36.75261	-122.20188	1799119	0.34	2005-06-08 17:38:01.0	Ventana	34.479	00:22:34:26	4.403	V2674-01
 	transect	Mesomyaria	999.44	2669	 	36.73133	-122.23592	1684466	0.44	2005-05-25 18:57:06.0	Ventana	34.52	01:19:05:22	3.936	V2669-02
 	ascend	Appendicularia	258.13	2681	 	36.698757	-122.05683	1719090	1.43	2005-07-07 21:22:28.8	Ventana	34.226	04:50:47:26	7.958	V2681-05
 	ascend	Mysidae	610.36	2682	 	36.69887	-122.059906	1723418	0.36	2005-07-08 20:38:23.0	Ventana	34.383	04:30:31:17	5.524	V2682-05
 	transect	Allocentrotus fragilis	399.86	2687	 	36.78812	-122.12163	1809241	1.13	2005-07-13 17:37:27.0	Ventana	34.243	01:03:49:25	7.255	V2687-02
 	transect	Phyllospadix	200.33	2696	 	36.80515	-122.128	1813569	1.5	2005-08-01 18:00:31.0	Ventana	34.212	01:28:23:18	8.67	V2696-02
 	transect	Euphausia	200.36	2681	 	36.69829	-122.05333	2491050	1.69	2005-07-07 17:11:12.0	Ventana	34.196	00:42:19:29	8.332	V2681-01HD
 	descend	Copepoda	412.61	2681	 	36.698055	-122.05379	1715311	0.75	2005-07-07 17:51:01.76	Ventana	34.285	01:21:24:06	6.574	V2681-02
 	transect	Mesomyaria	1000.29	2669	 	36.731953	-122.24637	1735665	0.41	2005-05-25 20:07:03.0	Ventana	34.509	02:28:32:04	4.065	V2669-03
 	cruise	Pennatulacea	411.98	2676	 	36.803886	-122.029205	1676453	0.69	2005-06-14 16:43:27.0	Ventana	34.308	00:27:35:19	6.547	V2676-01
 	transect	Microstomus pacificus	 	2687	 	 	 	1807132	 	2005-07-13 17:01:20.0	Ventana	 	00:28:14:11	 	V2687-01
 	ascend	Chuniphyes	932.96	2681	 	36.69766	-122.05412	1716981	0.41	2005-07-07 19:43:45.967	Ventana	34.513	03:12:49:16	4.084	V2681-04
 	transect	Mesomyaria	802.4	2674	 	36.75223	-122.206505	1799950	0.36	2005-06-08 18:02:19.0	Ventana	34.488	00:46:51:19	4.345	V2674-01
 	cruise	Appendicularia	152.17	2676	 	36.808624	-122.030594	1676848	1.68	2005-06-14 17:52:01.0	Ventana	34.181	01:31:44:23	8.26	V2676-02
 	transect	Gastropoda sp.2	999.69	2669	 	36.731003	-122.23385	1694634	0.45	2005-05-25 18:40:49.0	Ventana	34.522	01:02:49:16	3.913	V2669-02
 	transect	Mediaster	 	2687	 	 	 	1812757	 	2005-07-13 20:56:14.0	Ventana	 	04:20:44:25	 	V2687-05
 	transect	Hormiphora	200.4	2681	 	36.698284	-122.05331	2490967	1.7	2005-07-07 17:10:17.0	Ventana	34.194	00:41:24:14	8.329	V2681-01HD
 	transect	Euplexaura	 	2687	 	 	 	1810339	 	2005-07-13 19:16:07.0	Ventana	 	02:41:51:09	 	V2687-03
 	transect	Rathbunaster californicus	203.9	2696	 	36.807568	-122.1312	1813855	1.46	2005-08-01 18:43:24.0	Ventana	34.227	02:10:29:03	8.645	V2696-03
 	transect	Psolus squamatus	 	2687	 	 	 	1807192	 	2005-07-13 17:03:15.0	Ventana	 	00:30:09:03	 	V2687-01
 	descend	Appendicularia	612.97	2683	 	36.70198	-122.04901	1757027	0.34	2005-07-11 17:49:54.0	Ventana	34.371	01:33:59:24	5.722	V2683-02
 	ascend	Appendicularia	305.97	2693	 	36.691505	-122.06208	1759069	1.31	2005-07-25 21:19:10.0	Ventana	34.238	03:43:42:07	7.686	V2693-04
 	cruise	Pleurobranchaea californica	224.84	2688	 	36.810074	-122.02067	1677946	1.73	2005-07-14 18:32:42.133	Ventana	34.154	02:17:58:03	8.654	V2688-03
 	ascend	Solmissus	188.29	2683	 	36.702633	-122.0507	1758125	1.78	2005-07-11 21:29:34.0	Ventana	34.19	05:02:25:12	8.661	V2683-05
 	transect	physical object	 	2687	http://search.mbari.org/ARCHIVE/frameGrabs/Ventana/images/2687/03_37_41_08.jpg	 	 	1811437	 	2005-07-13 20:12:42.0	Ventana	 	03:37:41:08	 	V2687-04
 	descend	Chuniphyes	400.22	2681	 	36.695568	-122.05113	1715191	0.79	2005-07-07 17:34:59.473	Ventana	34.278	01:05:22:29	6.678	V2681-02
 	ascend	Poeobius meseres	1145.67	2683	 	36.70821	-122.04918	1757779	0.67	2005-07-11 20:40:04.0	Ventana	34.564	04:14:23:26	3.473	V2683-04
 	transect	Phyllospadix	800.93	2674	 	36.752506	-122.20271	1799239	0.35	2005-06-08 17:42:10.0	Ventana	34.485	00:26:43:08	4.379	V2674-01
 	transect	Mesomyaria	801.01	2674	 	36.75197	-122.2094	1800905	0.36	2005-06-08 18:16:43.0	Ventana	34.491	01:01:14:11	4.319	V2674-01
 	transect	Lycodes diapterus	599.94	2680	 	36.77846	-122.223656	1804398	0.35	2005-06-27 17:59:09.0	Ventana	34.379	00:39:15:15	5.583	V2680-01
 	transect	Aegina	500.59	2681	 	36.69752	-122.05326	2493385	0.44	2005-07-07 17:56:45.0	Ventana	34.347	01:27:09:09	6.017	V2681-02HD
 	transect	Mesomyaria	999.43	2669	 	36.730705	-122.2295	1651102	0.45	2005-05-25 18:10:24.0	Ventana	34.522	00:32:51:07	3.907	V2669-01
 	descend	Appendicularia	998.41	2683	 	36.704113	-122.04962	1757373	0.43	2005-07-11 19:16:12.0	Ventana	34.521	02:56:33:29	4.002	V2683-03
 	transect	lobata	400.74	2681	 	36.696697	-122.05226	2493039	0.79	2005-07-07 17:45:00.0	Ventana	34.278	01:15:24:19	6.655	V2681-02HD
 	transect	Caridea sp.1	598.54	2680	 	36.78071	-122.225716	1804804	0.35	2005-06-27 18:26:34.0	Ventana	34.378	01:05:40:07	5.576	V2680-02
 	descend	Aegina	639.88	2681	 	36.697956	-122.05388	1715943	0.29	2005-07-07 18:30:01.767	Ventana	34.395	02:00:22:11	5.31	V2681-02
 	transect	Psolus squamatus	399.88	2687	 	36.788124	-122.12167	1809264	1.13	2005-07-13 17:37:52.0	Ventana	34.243	01:04:13:29	7.254	V2687-02
 	transect	Phyllospadix	200.34	2696	 	36.804718	-122.12719	1813509	1.51	2005-08-01 17:54:50.0	Ventana	34.211	01:22:42:17	8.671	V2696-02
 	transect	Ophiuroidea	999.6	2669	 	36.73141	-122.237	1687433	0.44	2005-05-25 19:06:33.0	Ventana	34.521	01:28:32:02	3.939	V2669-02
 	descend	Chaetognatha	333.07	2693	 	36.697357	-122.06056	1758531	1.29	2005-07-25 19:49:19.0	Ventana	34.237	02:28:53:18	7.566	V2693-03
 	descend	Appendicularia	437.49	2683	 	36.70149	-122.04948	1756681	0.83	2005-07-11 17:07:28.0	Ventana	34.276	00:55:07:12	6.761	V2683-01
 	ascend	Hastigerinella digitata	370.93	2693	 	36.696728	-122.06053	1758723	1.2	2005-07-25 20:31:18.0	Ventana	34.233	03:10:51:03	7.178	V2693-03
 	transect	Mesomyaria	999.22	2669	 	36.731052	-122.235085	1684263	0.45	2005-05-25 18:50:54.0	Ventana	34.523	01:12:54:06	3.923	V2669-02
 	transect	Psolus squamatus	 	2687	 	 	 	1810685	 	2005-07-13 19:28:16.0	Ventana	 	02:53:59:23	 	V2687-03
 	transect	Actiniaria	399.69	2687	 	36.789265	-122.12466	1809587	1.17	2005-07-13 18:22:10.0	Ventana	34.24	01:48:30:02	7.344	V2687-02
 	transect	Phyllospadix	999.83	2669	 	36.731388	-122.2369	1687027	0.44	2005-05-25 19:05:34.0	Ventana	34.52	01:27:33:20	3.939	V2669-02
 	descend	Calycophorae	151.26	2683	 	36.700657	-122.05166	1756275	1.69	2005-07-11 16:25:59.0	Ventana	34.175	00:13:41:05	8.823	V2683-01
 	transect	lobata	300.44	2681	 	36.698418	-122.05357	2491941	1.25	2005-07-07 17:19:56.0	Ventana	34.234	00:51:03:20	7.43	V2681-01HD
 	cruise	Remote Instrument Node	124.33	2672	http://search.mbari.org/ARCHIVE/frameGrabs/Ventana/images/2672/00_24_12_09.jpg	36.80311	-121.80558	20003841	2.67	2005-06-03 15:04:50.0	Ventana	33.959	00:24:12:09	9.32	V2672-01
 	transect	Phyllospadix	 	2687	 	 	 	1812351	 	2005-07-13 20:33:44.0	Ventana	 	03:58:41:24	 	V2687-04
 	descend	Calycophorae	1192.65	2682	 	36.698265	-122.05914	1722200	0.67	2005-07-08 19:15:34.0	Ventana	34.572	03:08:12:16	3.381	V2682-04
 	transect	Mesomyaria	1000.04	2669	 	36.731808	-122.24461	1734398	0.4	2005-05-25 19:54:11.0	Ventana	34.51	02:15:42:12	4.084	V2669-03
 	transect	Lycenchelys camchatica	801.81	2674	 	36.75091	-122.21979	1803646	0.34	2005-06-08 19:05:38.0	Ventana	34.484	01:49:40:13	4.37	V2674-02
 	transect	Psolus squamatus	 	2687	 	 	 	1811114	 	2005-07-13 19:53:47.0	Ventana	 	03:18:48:16	 	V2687-04
 	transect	Poeobius meseres	1001.04	2681	 	36.69515	-122.05107	2498574	0.48	2005-07-07 19:23:17.0	Ventana	34.53	02:52:57:09	3.858	V2681-03HD
 	transect	Mediaster	 	2687	 	 	 	1811659	 	2005-07-13 20:19:53.0	Ventana	 	03:44:51:25	 	V2687-04
 	transect	molt	100.49	2681	 	36.698944	-122.05372	2489869	2.12	2005-07-07 16:52:04.0	Ventana	34.07	00:23:12:12	9.148	V2681-01HD
 	descend	Lensia	296.17	2682	 	36.699223	-122.060585	1720128	1.2	2005-07-08 16:55:12.0	Ventana	34.235	00:49:14:26	7.404	V2682-01
 	transect	Psolus squamatus	 	2687	 	 	 	1808918	 	2005-07-13 17:32:00.0	Ventana	 	00:58:52:17	 	V2687-01
 	transect	Rathbunaster californicus	196.72	2696	 	36.803314	-122.12332	1813163	1.55	2005-08-01 17:14:36.0	Ventana	34.203	00:42:54:20	8.624	V2696-01
 	transect	Psolus squamatus	 	2687	 	 	 	1810768	 	2005-07-13 19:33:18.0	Ventana	 	02:59:00:28	 	V2687-03
 	transect	Glyptocephalus zachirus	 	2687	 	 	 	1811599	 	2005-07-13 20:17:02.0	Ventana	 	03:42:01:15	 	V2687-04
 	cruise	Lycodapus	596.99	2688	 	36.793385	-122.01835	1677254	0.5	2005-07-14 16:22:57.307	Ventana	34.363	00:09:17:08	5.786	V2688-01
 	descend	Copepoda	1184.61	2682	 	36.69857	-122.05835	1722260	0.67	2005-07-08 19:35:28.0	Ventana	34.573	03:28:05:26	3.39	V2682-04
 	transect	Actiniaria	 	2687	http://search.mbari.org/ARCHIVE/frameGrabs/Ventana/images/2687/03_14_09_17.jpg	 	 	1811031	 	2005-07-13 19:49:08.0	Ventana	 	03:14:09:17	 	V2687-04
 	transect	Ophiuroidea	1000.14	2669	 	36.73107	-122.23927	1689129	0.43	2005-05-25 19:22:52.0	Ventana	34.516	01:44:50:18	3.981	V2669-02
 	ascend	Appendicularia	1174.47	2683	 	36.70711	-122.04804	1757719	0.7	2005-07-11 20:26:54.0	Ventana	34.57	04:01:16:11	3.395	V2683-04
 	transect	Psolus squamatus	399.87	2687	 	36.78806	-122.12152	1809181	1.13	2005-07-13 17:36:44.0	Ventana	34.241	01:03:06:08	7.262	V2687-02
 	ascend	Leuroglossus stilbius	600.57	2682	 	36.6986	-122.06183	1723550	0.34	2005-07-08 20:58:41.0	Ventana	34.374	04:50:47:23	5.655	V2682-05
 	transect	Sergestes similis	300.41	2681	 	36.697556	-122.053	2492204	1.24	2005-07-07 17:23:01.0	Ventana	34.233	00:54:09:11	7.406	V2681-01HD
 	transect	Psolus squamatus	 	2687	 	 	 	1812411	 	2005-07-13 20:37:30.0	Ventana	 	04:02:27:21	 	V2687-04
 	ascend	Poeobius meseres	673.95	2682	 	36.698906	-122.05956	1723358	0.28	2005-07-08 20:34:20.0	Ventana	34.411	04:26:28:13	5.177	V2682-05
 	transect	Ceriantharia sp. 2	1000.57	2669	 	36.73233	-122.24946	1736440	0.41	2005-05-25 20:29:18.0	Ventana	34.51	02:50:48:00	4.072	V2669-03
 	descend	Calycophorae	297.31	2693	 	36.697723	-122.06102	1758471	1.33	2005-07-25 19:38:48.0	Ventana	34.237	02:18:23:08	7.755	V2693-03
 	transect	Phyllospadix	399.49	2687	 	36.78942	-122.12523	1809670	1.14	2005-07-13 18:32:16.0	Ventana	34.246	01:58:35:12	7.296	V2687-02
 	cruise	mud	999.79	2669	http://search.mbari.org/ARCHIVE/frameGrabs/Ventana/images/2669/00_56_07_15.jpg	36.730995	-122.232506	20003781	0.45	2005-05-25 18:33:42.0	Ventana	34.521	00:56:07:15	3.915	V2669-01
 	descend	Copepoda	396.01	2682	 	36.69832	-122.05988	1720696	0.88	2005-07-08 17:37:19.0	Ventana	34.26	01:30:49:08	6.732	V2682-02
 	transect	Rathbunaster californicus	199.83	2696	 	36.80443	-122.126434	1813449	1.51	2005-08-01 17:47:30.0	Ventana	34.21	01:15:23:09	8.667	V2696-02
 	cruise	Appendicularia	446.61	2676	 	36.803078	-122.02924	1676333	0.61	2005-06-14 16:38:21.0	Ventana	34.322	00:22:29:21	6.33	V2676-01
 	descend	Poeobius meseres	1068.42	2683	 	36.705086	-122.04895	1757433	0.51	2005-07-11 19:26:43.0	Ventana	34.533	03:07:05:08	3.816	V2683-03
 	transect	Psolus squamatus	 	2687	 	 	 	1808835	 	2005-07-13 17:30:15.0	Ventana	 	00:57:08:00	 	V2687-01
 	transect	Phyllospadix	1000.36	2669	 	36.731552	-122.24286	1694551	0.4	2005-05-25 19:43:48.0	Ventana	34.508	02:05:44:24	4.097	V2669-02
 	transect	Brisaster	1000.18	2669	 	36.73185	-122.245094	1735342	0.4	2005-05-25 19:57:28.0	Ventana	34.507	02:18:57:21	4.093	V2669-03
 	transect	Brisaster	999.53	2669	 	36.732723	-122.2513	1737192	0.4	2005-05-25 20:40:45.0	Ventana	34.509	03:01:33:23	4.079	V2669-04
 	cruise	Rathbunaster californicus	355.75	2676	 	36.804676	-122.02899	1676596	1.21	2005-06-14 17:01:32.0	Ventana	34.237	00:45:39:16	7.486	V2676-01
 	transect	Sebastolobus altivelis	800.25	2674	 	36.752083	-122.20886	1800822	0.35	2005-06-08 18:13:44.0	Ventana	34.488	00:58:16:02	4.33	V2674-01
 	transect	Lycodes cortezianus	 	2687	 	 	 	1812697	 	2005-07-13 20:52:51.0	Ventana	 	04:17:21:07	 	V2687-05
 	descend	Aegina	702.74	2682	 	36.698605	-122.059975	1721448	0.29	2005-07-08 18:16:01.0	Ventana	34.428	02:09:04:18	5.023	V2682-03
 	transect	Chaetognatha	1001.02	2681	 	36.695686	-122.05176	2498634	0.48	2005-07-07 19:26:12.0	Ventana	34.532	02:55:53:00	3.848	V2681-03HD
 	cruise	Scyliorhinidae	462.07	2688	 	36.80265	-122.01823	1677600	0.85	2005-07-14 17:31:34.0	Ventana	34.278	01:17:18:16	6.787	V2688-02
 	transect	Nanomia bijuga	200.46	2681	 	36.69828	-122.05329	2490621	1.73	2005-07-07 17:07:53.0	Ventana	34.193	00:39:00:18	8.328	V2681-01HD
 	ascend	Appendicularia	842.58	2681	 	36.69862	-122.05595	1717387	0.32	2005-07-07 19:56:02.017	Ventana	34.486	03:25:04:25	4.396	V2681-04
 	transect	molt	100.5	2681	 	36.69937	-122.054	2489809	2.13	2005-07-07 16:51:06.0	Ventana	34.068	00:22:14:08	9.146	V2681-01HD
 	descend	Euphausiacea	149.64	2693	 	36.696312	-122.05773	1758185	1.94	2005-07-25 17:56:39.0	Ventana	34.114	00:37:11:06	8.99	V2693-01
 	cruise	Megalodicopia hians	272.02	2688	 	36.80905	-122.020355	1677886	1.49	2005-07-14 18:25:54.0	Ventana	34.202	02:11:10:09	8.1	V2688-03
 	transect	Brisaster	999.15	2669	 	36.7314	-122.236145	1684609	0.44	2005-05-25 18:58:42.0	Ventana	34.521	01:20:41:20	3.944	V2669-02
 	descend	Euphausiacea	180.33	2683	 	36.701042	-122.05116	1756335	1.6	2005-07-11 16:41:56.0	Ventana	34.194	00:29:36:27	8.684	V2683-01
 	transect	molt	100.55	2681	 	36.69983	-122.05429	2489523	2.13	2005-07-07 16:43:45.0	Ventana	34.068	00:14:55:22	9.147	V2681-01HD
 	cruise	shell hash	92.79	2688	 	36.814995	-122.01718	1679450	1.94	2005-07-14 21:00:53.0	Ventana	34.098	04:45:07:09	8.93	V2688-05
 	transect	Phyllospadix	801.74	2674	 	36.75236	-122.20559	1799807	0.36	2005-06-08 17:57:43.0	Ventana	34.487	00:42:15:14	4.345	V2674-01
 	transect	Pennatulacea sp.1	600.92	2680	 	36.776806	-122.2221	1804135	0.36	2005-06-27 17:38:37.0	Ventana	34.377	00:18:44:25	5.58	V2680-01
 	transect	Euphausia	200.42	2681	 	36.69828	-122.0533	2490907	1.7	2005-07-07 17:09:39.0	Ventana	34.189	00:40:46:18	8.321	V2681-01HD
 	transect	Brisaster	1000.41	2669	 	36.731224	-122.241196	1689392	0.41	2005-05-25 19:34:48.0	Ventana	34.514	01:56:45:07	4.069	V2669-02
 	ascend	Appendicularia	645.11	2681	 	36.698853	-122.05421	1717669	0.28	2005-07-07 20:27:30.833	Ventana	34.4	03:56:31:06	5.351	V2681-04
 	transect	Mediaster	 	2687	 	 	 	1810625	 	2005-07-13 19:25:25.0	Ventana	 	02:51:09:01	 	V2687-03
 	transect	Mesomyaria	1000.19	2669	 	36.730927	-122.23268	1683797	0.45	2005-05-25 18:34:52.0	Ventana	34.52	00:57:17:16	3.911	V2669-01
 	ascend	Lobata	264.21	2681	 	36.699524	-122.05449	1718421	1.4	2005-07-07 21:08:35.847	Ventana	34.231	04:36:55:23	7.908	V2681-05
 	transect	Phyllospadix	799.59	2674	 	36.752693	-122.20084	1774151	0.3	2005-06-08 17:32:49.0	Ventana	34.464	00:17:23:02	4.607	V2674-01
 	ascend	Poeobius meseres	378.45	2693	 	36.69584	-122.06062	1758783	1.19	2005-07-25 20:50:48.0	Ventana	34.233	03:15:21:27	7.139	V2693-04
 	transect	Sebastes diploproa	 	2687	http://search.mbari.org/ARCHIVE/frameGrabs/Ventana/images/2687/00_56_06_08.jpg	 	 	1808775	 	2005-07-13 17:29:14.0	Ventana	 	00:56:06:08	 	V2687-01
 	transect	Appendicularia	400.77	2681	 	36.697147	-122.05277	2493099	0.79	2005-07-07 17:46:54.0	Ventana	34.277	01:17:18:00	6.661	V2681-02HD
 	transect	Phyllospadix	599.81	2680	 	36.778023	-122.22318	1804338	0.36	2005-06-27 17:53:21.0	Ventana	34.379	00:33:28:10	5.591	V2680-01
 	cruise	Poeobius meseres	1000.23	2681	 	36.696705	-122.05308	1716552	0.47	2005-07-07 19:32:04.847	Ventana	34.531	03:01:45:13	3.9	V2681-03
 	ascend	Appendicularia	554.56	2682	 	36.698296	-122.0627	1723610	0.39	2005-07-08 21:08:52.0	Ventana	34.358	05:00:34:10	5.856	V2682-06
 	descend	Euphotic zone	146.94	2685	 	36.793503	-121.88327	1669730	2.01	2005-07-12 20:11:26.0	Ventana	34.102	00:04:34:05	8.898	V2685-01
 	transect	Mesomyaria	1000.26	2669	 	36.7316	-122.24324	1733789	0.41	2005-05-25 19:45:56.0	Ventana	34.51	02:07:28:02	4.063	V2669-03
 	transect	Chionoecetes tanneri	800.22	2674	 	36.75176	-122.211975	1801168	0.35	2005-06-08 18:28:07.0	Ventana	34.488	01:12:11:13	4.341	V2674-02
 	transect	Ophiuroidea	999.18	2669	 	36.731377	-122.23607	1684549	0.44	2005-05-25 18:58:04.0	Ventana	34.52	01:20:03:19	3.939	V2669-02
 	ascend	Appendicularia	254.4	2681	 	36.69845	-122.05611	1719173	1.46	2005-07-07 21:24:21.323	Ventana	34.222	04:52:39:23	7.999	V2681-05
 	transect	Glyptocephalus zachirus	 	2687	 	 	 	1811377	 	2005-07-13 20:10:04.0	Ventana	 	03:35:03:19	 	V2687-04
 	ascend	Bolinopsis	258.17	2681	 	36.697838	-122.05522	1719519	 	2005-07-07 21:29:59.0	Ventana	 	05:10:06:09	 	V2681-05
 	transect	Porifera	399.85	2687	 	36.788128	-122.12179	1809324	1.13	2005-07-13 17:39:31.0	Ventana	34.241	01:05:53:14	7.267	V2687-02
 	transect	Phyllospadix	999.42	2669	 	36.731163	-122.235565	1684346	0.44	2005-05-25 18:54:11.0	Ventana	34.52	01:16:11:08	3.928	V2669-02
 	transect	Phyllospadix	801.7	2674	 	36.752224	-122.20753	1800070	0.38	2005-06-08 18:07:15.0	Ventana	34.49	00:51:46:17	4.327	V2674-01
 	transect	Ceriantharia sp. 1	600.04	2680	 	36.78361	-122.229065	1805436	0.35	2005-06-27 19:09:11.0	Ventana	34.379	01:48:15:04	5.587	V2680-02
 	transect	Appendicularia	400.8	2681	 	36.695793	-122.05119	2492896	0.79	2005-07-07 17:40:55.0	Ventana	34.278	01:11:18:10	6.668	V2681-02HD
 	ascend	Appendicularia	663.42	2681	 	36.698784	-122.05419	1717650	0.29	2005-07-07 20:26:20.033	Ventana	34.408	03:55:20:29	5.224	V2681-04
 	transect	Porifera sp. 1	 	2687	 	 	 	1810828	 	2005-07-13 19:35:10.0	Ventana	 	03:00:53:01	 	V2687-03
 	cruise	rubble	107.1	2688	http://search.mbari.org/ARCHIVE/frameGrabs/Ventana/images/2688/02_38_08_22.jpg	36.81293	-122.02445	20005221	1.95	2005-07-14 18:52:54.0	Ventana	34.092	02:38:08:22	8.897	V2688-03
 	transect	Phyllospadix	800.36	2674	 	36.752556	-122.20228	1799179	0.34	2005-06-08 17:40:01.0	Ventana	34.479	00:24:34:27	4.433	V2674-01
 	transect	Phyllospadix	802.32	2674	 	36.75231	-122.20591	1799867	0.36	2005-06-08 17:59:42.0	Ventana	34.49	00:44:14:26	4.332	V2674-01
 	transect	Mesomyaria	1000.3	2669	 	36.73126	-122.24091	1689332	0.41	2005-05-25 19:33:21.0	Ventana	34.51	01:55:18:16	4.057	V2669-02
 	descend	Nanomia	400.8	2681	 	36.695717	-122.0511	1715251	0.79	2005-07-07 17:40:19.5	Ventana	34.277	01:10:43:05	6.67	V2681-02
 	transect	Mesomyaria	1000.06	2669	 	36.731888	-122.24598	1735605	0.41	2005-05-25 20:03:15.0	Ventana	34.51	02:24:44:22	4.059	V2669-03
 	transect	Psolus squamatus	 	2687	 	 	 	1808572	 	2005-07-13 17:24:14.0	Ventana	 	00:51:07:07	 	V2687-01
 	transect	Mesomyaria	1000.6	2669	 	36.732067	-122.24774	1736154	0.4	2005-05-25 20:16:58.0	Ventana	34.508	02:38:26:22	4.086	V2669-03
 	transect	Brisaster	1000.14	2669	 	36.73105	-122.23967	1689189	0.41	2005-05-25 19:25:45.0	Ventana	34.51	01:47:43:24	4.061	V2669-02
 	cruise	Zoarcidae	503.23	2688	 	36.801113	-122.01864	1677540	0.69	2005-07-14 17:22:50.0	Ventana	34.314	01:08:34:16	6.461	V2688-02
 	transect	Porifera sp. 1	 	2687	 	 	 	1810971	 	2005-07-13 19:45:29.0	Ventana	 	03:10:30:19	 	V2687-04
 	transect	Aegina	901.02	2681	 	36.695538	-122.051414	2498431	0.39	2005-07-07 19:13:10.0	Ventana	34.505	02:42:51:15	4.172	V2681-03HD
 	ascend	Sergestes similis	225.91	2693	 	36.69124	-122.0625	1759129	1.6	2005-07-25 21:23:34.0	Ventana	34.21	03:48:04:22	8.527	V2693-04
 	transect	Pennatula phosphorea californica	603.16	2680	 	36.788246	-122.23221	1805951	0.36	2005-06-27 19:57:51.0	Ventana	34.377	02:36:29:14	5.6	V2680-03
 	transect	Porifera sp. 1	 	2687	 	 	 	1810279	 	2005-07-13 19:13:56.0	Ventana	 	02:39:40:25	 	V2687-03
 	descend	Chuniphyes	524.48	2681	 	36.695683	-122.05107	1715597	0.4	2005-07-07 18:05:25.08	Ventana	34.355	01:35:46:21	5.863	V2681-02
 	transect	Phyllospadix	998.75	2669	 	36.73284	-122.251884	1737252	0.4	2005-05-25 20:44:16.0	Ventana	34.509	03:05:03:20	4.075	V2669-04
 	ascend	Bathocyroe	533.86	2681	 	36.698975	-122.05425	1717729	0.42	2005-07-07 20:33:01.2	Ventana	34.35	04:02:01:22	6.003	V2681-04
 	transect	Mesomyaria	1000.34	2669	 	36.731503	-122.24232	1694491	0.41	2005-05-25 19:41:07.0	Ventana	34.509	02:03:04:21	4.063	V2669-02
 	transect	Poeobius meseres	700.64	2681	 	36.69703	-122.05289	2497679	0.29	2005-07-07 18:39:42.0	Ventana	34.437	02:09:25:07	4.928	V2681-03HD
 	transect	Mesomyaria	798.24	2674	 	36.751614	-122.21384	1801311	0.35	2005-06-08 18:37:18.0	Ventana	34.487	01:21:21:28	4.341	V2674-02
 	transect	Phyllospadix	 	2687	 	 	 	1807049	 	2005-07-13 16:56:31.0	Ventana	 	00:23:25:06	 	V2687-01
 	transect	Phyllospadix	801.81	2674	 	36.751896	-122.2099	1800965	0.35	2005-06-08 18:19:41.0	Ventana	34.489	01:03:46:03	4.328	V2674-02
 	transect	Phyllospadix	799.93	2674	 	36.752518	-122.203735	1799382	0.35	2005-06-08 17:47:36.0	Ventana	34.483	00:32:09:12	4.378	V2674-01
 	ascend	Euphausiacea	783.72	2681	 	36.69887	-122.05644	1717447	0.27	2005-07-07 20:04:19.6	Ventana	34.458	03:33:21:12	4.701	V2681-04
 	transect	Appendicularia	500.57	2681	 	36.69802	-122.05377	2493242	0.44	2005-07-07 17:54:37.0	Ventana	34.345	01:24:59:13	6.025	V2681-02HD
 	transect	Phyllospadix	800.55	2674	 	36.7521	-122.20851	1800762	0.35	2005-06-08 18:11:55.0	Ventana	34.491	00:56:26:11	4.326	V2674-01
 	transect	Sebastes aurora	 	2687	 	 	 	1807598	 	2005-07-13 17:16:44.0	Ventana	 	00:43:37:09	 	V2687-01
 	transect	Gastropoda sp.2	999.58	2669	 	36.73142	-122.23658	1694694	0.44	2005-05-25 19:03:00.0	Ventana	34.521	01:24:59:11	3.938	V2669-02
 	transect	Phyllospadix	999.9	2669	 	36.732635	-122.25102	1737049	0.4	2005-05-25 20:38:56.0	Ventana	34.51	03:00:23:20	4.07	V2669-03
 	transect	Phyllospadix	799.49	2674	 	36.752506	-122.20443	1799585	0.35	2005-06-08 17:51:38.0	Ventana	34.485	00:36:11:14	4.38	V2674-01
 	transect	Euplexaura	 	2687	 	 	 	1808978	 	2005-07-13 17:32:56.0	Ventana	 	00:59:48:10	 	V2687-01
 	transect	Nanomia bijuga	200.45	2681	 	36.69828	-122.0533	2490764	1.73	2005-07-07 17:08:41.0	Ventana	34.193	00:39:49:14	8.321	V2681-01HD
 	transect	Phyllospadix	999.45	2669	 	36.73104	-122.23389	1684000	0.45	2005-05-25 18:41:16.0	Ventana	34.523	01:03:16:18	3.912	V2669-02
 	transect	Umbellula lindahli	599.51	2680	 	36.779606	-122.22468	1804541	0.36	2005-06-27 18:11:50.0	Ventana	34.377	00:51:56:01	5.602	V2680-01
 	descend	Lensia	328.77	2681	 	36.695633	-122.05125	1713668	1.13	2005-07-07 17:30:49.167	Ventana	34.243	01:01:55:15	7.254	V2681-01
 	transect	Ceriantharia sp. 1	602.09	2680	 	36.791393	-122.23293	1806846	0.36	2005-06-27 20:27:40.0	Ventana	34.378	03:06:16:03	5.588	V2680-03
 	transect	Mediaster	400.11	2687	 	36.789066	-122.12397	1809527	1.17	2005-07-13 18:12:01.0	Ventana	34.238	01:38:21:02	7.357	V2687-02
 	transect	Porifera sp. 1	 	2687	 	 	 	1812554	 	2005-07-13 20:45:25.0	Ventana	 	04:09:55:15	 	V2687-05
 	transect	Ophiuroidea	998.36	2669	 	36.73116	-122.23081	1683451	0.45	2005-05-25 18:21:10.0	Ventana	34.521	00:43:37:05	3.913	V2669-01
 	ascend	Appendicularia	349.95	2681	 	36.699333	-122.055115	1718075	1.08	2005-07-07 20:52:38.433	Ventana	34.254	04:20:59:10	7.207	V2681-05
 	descend	Vitreosalpa gemini	438.17	2682	 	36.69829	-122.059685	1720756	0.62	2005-07-08 17:47:08.0	Ventana	34.302	01:40:38:14	6.38	V2682-02
 	descend	Leptomedusae	283.57	2683	 	36.701015	-122.05021	1756478	1.32	2005-07-11 16:52:41.0	Ventana	34.237	00:40:21:15	7.789	V2683-01
 	transect	molt	100.52	2681	 	36.69983	-122.05429	2489666	2.13	2005-07-07 16:47:25.0	Ventana	34.068	00:18:33:00	9.148	V2681-01HD
 	cruise	Allocentrotus fragilis	394.92	2688	 	36.80683	-122.01953	1677743	1.02	2005-07-14 17:52:05.117	Ventana	34.254	01:37:48:07	7.136	V2688-02
 	stationary	Pennatulacea	 	2680	 	 	 	1803992	 	2005-06-27 16:58:05.0	Ventana	 	00:02:33:28	 	V2680-01
 	transect	Phyllospadix	1000.64	2669	 	36.73235	-122.24953	1736500	0.41	2005-05-25 20:29:45.0	Ventana	34.507	02:51:13:27	4.075	V2669-03
 	transect	Psolus squamatus	 	2687	 	 	 	1810076	 	2005-07-13 18:54:28.0	Ventana	 	02:20:13:05	 	V2687-03
 	descend	Myctophidae	637.58	2682	 	36.69863	-122.05988	1721305	0.28	2005-07-08 18:09:23.0	Ventana	34.401	02:02:28:21	5.326	V2682-03
 	cruise	Macrouridae	1002.06	2679	 	36.68986	-122.1656	1824346	0.42	2005-06-16 17:30:52.0	Ventana	34.513	00:02:14:15	4.108	V2679-01
 	cruise	Parastichopus	109.28	2676	 	36.80497	-122.04342	1677194	1.95	2005-06-14 19:27:19.0	Ventana	34.162	03:06:03:19	8.403	V2676-03
 	transect	Phyllospadix	800.38	2674	 	36.751183	-122.21676	1803443	0.35	2005-06-08 18:52:11.0	Ventana	34.486	01:36:13:21	4.366	V2674-02
 	transect	Appendicularia	200.47	2681	 	36.69828	-122.05329	2490215	1.7	2005-07-07 17:05:54.0	Ventana	34.198	00:37:02:08	8.363	V2681-01HD
 	transect	Ophiuroidea	999.0	2669	 	36.731415	-122.2362	1684674	0.44	2005-05-25 18:59:03.0	Ventana	34.52	01:21:02:22	3.94	V2669-02
 	transect	Psolus squamatus	 	2687	 	 	 	1811456	 	2005-07-13 20:13:43.0	Ventana	 	03:38:42:07	 	V2687-04
 	transect	Psolus squamatus	 	2687	 	 	 	1810934	 	2005-07-13 19:43:08.0	Ventana	 	03:08:10:01	 	V2687-04
 	cruise	Porifera	106.9	2688	 	36.814426	-122.02393	1678057	1.95	2005-07-14 19:01:53.0	Ventana	34.092	02:47:07:11	8.884	V2688-03
 	transect	Mesomyaria	1000.06	2669	 	36.7311	-122.2398	1689203	0.41	2005-05-25 19:26:40.0	Ventana	34.511	01:48:37:26	4.063	V2669-02
 	cruise	Chionoecetes tanneri	1210.99	2683	 	36.706734	-122.04762	1757645	0.73	2005-07-11 20:12:49.0	Ventana	34.578	03:47:12:20	3.341	V2683-04
 	ascend	Copepoda	705.81	2681	 	36.698723	-122.05497	1717590	0.29	2005-07-07 20:20:14.61	Ventana	34.426	03:49:15:28	5.064	V2681-04
 	transect	Mesomyaria	1000.49	2669	 	36.732212	-122.24862	1736228	0.41	2005-05-25 20:23:21.0	Ventana	34.51	02:44:49:26	4.061	V2669-03
 	transect	molt	100.49	2681	 	36.699684	-122.0542	2489781	2.13	2005-07-07 16:50:23.0	Ventana	34.067	00:21:33:04	9.16	V2681-01HD
 	transect	phialidium	500.56	2681	 	36.697353	-122.05305	2493450	0.44	2005-07-07 17:57:36.0	Ventana	34.346	01:27:58:22	6.02	V2681-02HD
 	descend	Appendicularia	883.08	2682	 	36.698277	-122.05944	1721766	0.33	2005-07-08 18:50:23.0	Ventana	34.492	02:43:26:11	4.331	V2682-03
 	transect	Rathbunaster californicus	197.15	2696	 	36.8034	-122.12363	1813191	1.55	2005-08-01 17:18:09.0	Ventana	34.2	00:46:27:04	8.621	V2696-01
 	transect	Mesomyaria	999.71	2669	 	36.730976	-122.23383	1683968	0.45	2005-05-25 18:40:43.0	Ventana	34.522	01:02:44:07	3.913	V2669-02
 	descend	Haliscera	400.25	2681	 	36.69556	-122.05115	1715149	0.8	2005-07-07 17:34:41.767	Ventana	34.278	01:05:05:08	6.678	V2681-02
 	transect	Phyllospadix	801.27	2674	 	36.752544	-122.201645	1799082	0.34	2005-06-08 17:36:45.0	Ventana	34.483	00:21:18:27	4.416	V2674-01
 	ascend	Appendicularia	602.54	2682	 	36.698658	-122.06143	1723501	0.34	2005-07-08 20:55:47.0	Ventana	34.374	04:47:53:25	5.643	V2682-05
 	descend	Appendicularia	539.22	2683	 	36.701588	-122.04915	1756939	0.53	2005-07-11 17:43:34.0	Ventana	34.327	01:27:41:26	6.191	V2683-02
 	transect	Mesomyaria	802.21	2674	 	36.751755	-122.21044	1801016	0.35	2005-06-08 18:22:00.0	Ventana	34.491	01:06:04:27	4.328	V2674-02
 	descend	Poeobius meseres	420.71	2682	 	36.698196	-122.059784	1720737	0.72	2005-07-08 17:41:06.0	Ventana	34.283	01:34:37:03	6.539	V2682-02
 	transect	Nanomia bijuga	200.47	2681	 	36.69828	-122.05329	2490487	1.71	2005-07-07 17:07:08.0	Ventana	34.197	00:38:15:21	8.341	V2681-01HD
 	transect	pseudothecosomata	901.07	2681	 	36.696453	-122.05255	2498302	0.39	2005-07-07 19:09:03.0	Ventana	34.505	02:38:45:18	4.17	V2681-03HD
 	ascend	Aegina	993.31	2681	 	36.69675	-122.05312	1716561	0.45	2005-07-07 19:33:07.433	Ventana	34.524	03:02:48:14	3.945	V2681-03
 	cruise	shell hash	93.84	2688	 	36.814724	-122.01874	1679469	1.94	2005-07-14 21:08:30.627	Ventana	34.099	04:52:44:10	8.924	V2688-05
 	ascend	Haliscera	258.17	2681	 	36.697838	-122.05522	1719524	 	2005-07-07 21:29:59.0	Ventana	 	05:11:01:04	 	V2681-05
 	endtransect	color bars	700.56	2681	 	36.69505	-122.050735	1716178	0.28	2005-07-07 18:48:28.08	Ventana	34.435	02:18:11:11	4.984	V2681-03
 	descend	Appendicularia	386.27	2683	 	36.701466	-122.049774	1756616	1.02	2005-07-11 16:58:33.0	Ventana	34.253	00:46:12:08	6.983	V2683-01
 	transect	Sebastolobus	400.04	2687	http://search.mbari.org/ARCHIVE/frameGrabs/Ventana/images/2687/01_37_55_27.jpg	36.78906	-122.12394	1809522	1.17	2005-07-13 18:11:36.0	Ventana	34.239	01:37:55:27	7.355	V2687-02
 	ascend	Poeobius meseres	370.9	2693	 	36.696392	-122.06072	1758674	1.2	2005-07-25 20:27:31.0	Ventana	34.233	03:07:04:14	7.163	V2693-03
 	descend	Copepoda	700.36	2682	 	36.69861	-122.059975	1721443	0.29	2005-07-08 18:15:40.0	Ventana	34.427	02:08:46:04	5.034	V2682-03
 	transect	Mesomyaria	798.67	2674	 	36.751556	-122.214165	1801339	0.35	2005-06-08 18:39:22.0	Ventana	34.488	01:23:25:18	4.338	V2674-02
 	descend	Appendicularia	942.86	2683	 	36.703777	-122.04859	1757322	0.4	2005-07-11 19:08:58.0	Ventana	34.511	02:49:20:19	4.112	V2683-03
 	transect	Nanomia bijuga	200.44	2681	 	36.69828	-122.05329	2490104	1.7	2005-07-07 17:04:44.0	Ventana	34.197	00:35:52:02	8.36	V2681-01HD
 	descend	Appendicularia	214.86	2693	 	36.696068	-122.05821	1758351	1.69	2005-07-25 18:26:50.0	Ventana	34.191	01:06:54:18	8.613	V2693-02
 	transect	Ceriantharia sp. 1	599.8	2680	 	36.777523	-122.222565	1804287	0.36	2005-06-27 17:47:20.0	Ventana	34.378	00:27:27:15	5.589	V2680-01
 	transect	Mediaster	 	2687	 	 	 	1810228	 	2005-07-13 19:10:32.0	Ventana	 	02:36:17:00	 	V2687-03
 	transect	Mesomyaria	997.69	2669	 	36.730587	-122.227234	1649118	0.45	2005-05-25 17:55:35.0	Ventana	34.521	00:18:03:19	3.91	V2669-01
 	descend	Myctophidae	606.99	2681	 	36.69569	-122.05102	1715855	0.3	2005-07-07 18:16:17.1	Ventana	34.389	01:46:38:16	5.477	V2681-02
 	cruise	Pleuronectiformes	124.25	2672	 	36.803093	-121.80561	1824337	2.65	2005-06-03 15:06:53.0	Ventana	33.957	00:26:14:15	9.334	V2672-01
 	transect	Allocentrotus fragilis	 	2687	 	 	 	1811257	 	2005-07-13 20:05:30.0	Ventana	 	03:30:29:27	 	V2687-04
 	transect	Chionoecetes tanneri	 	2669	 	 	 	1737640	 	2005-05-25 13:54:09.0	Ventana	 	03:14:57:14	 	V2669-04
 	cruise	Lycodes	406.54	2688	 	36.806423	-122.019356	1677734	1.04	2005-07-14 17:50:22.0	Ventana	34.252	01:36:05:12	7.168	V2688-02
 	ascend	Appendicularia	507.87	2682	 	36.69836	-122.06318	1723670	0.48	2005-07-08 21:13:12.0	Ventana	34.333	05:04:53:02	6.129	V2682-06
 	ascend	Prayidae	258.17	2681	 	36.697838	-122.05522	1719464	 	2005-07-07 21:29:59.0	Ventana	 	05:06:13:18	 	V2681-05
 	cruise	Asteroidea	277.03	2676	 	36.80525	-122.02932	1676705	1.5	2005-06-14 17:32:20.0	Ventana	34.21	01:12:04:14	7.953	V2676-02
 	transect	Phyllospadix	798.83	2674	 	36.751385	-122.21504	1801399	0.35	2005-06-08 18:44:09.0	Ventana	34.489	01:28:12:06	4.338	V2674-02
 	transect	Gastropoda sp.2	999.85	2669	 	36.73109	-122.239044	1694731	0.43	2005-05-25 19:21:37.0	Ventana	34.517	01:43:34:27	3.972	V2669-02
 	transect	Mesomyaria	999.98	2669	 	36.731754	-122.24429	1734264	0.4	2005-05-25 19:51:46.0	Ventana	34.51	02:13:16:09	4.076	V2669-03
 	ascend	Euphausiacea	253.98	2681	 	36.698334	-122.05584	1719201	1.46	2005-07-07 21:24:48.9	Ventana	34.226	04:53:07:25	7.994	V2681-05
 	ascend	Haliscera	348.03	2693	 	36.693836	-122.0611	1758903	1.25	2005-07-25 21:04:42.0	Ventana	34.234	03:29:15:06	7.382	V2693-04
 	ascend	Nanomia	417.84	2682	 	36.697838	-122.06254	1723730	0.81	2005-07-08 21:21:00.0	Ventana	34.269	05:12:41:03	6.643	V2682-06
 	ascend	Appendicularia	205.48	2693	 	36.691	-122.06263	1759166	1.8	2005-07-25 21:25:10.0	Ventana	34.2	03:49:42:20	8.788	V2693-04
 	transect	Ophiuroidea	999.79	2669	 	36.731094	-122.235214	1684291	0.45	2005-05-25 18:52:17.0	Ventana	34.521	01:14:17:09	3.921	V2669-02
 	transect	Psolus squamatus	 	2687	 	 	 	1807663	 	2005-07-13 17:21:34.0	Ventana	 	00:48:27:05	 	V2687-01
 	transect	lobata	300.45	2681	 	36.697937	-122.053314	2492098	1.24	2005-07-07 17:21:45.0	Ventana	34.234	00:52:51:13	7.402	V2681-01HD
 	cruise	Pasiphaea	433.29	2688	 	36.80493	-122.01872	1677674	0.92	2005-07-14 17:43:22.0	Ventana	34.268	01:29:05:28	6.943	V2688-02
 	descend	Appendicularia	900.73	2681	 	36.69692	-122.053116	1716501	0.38	2005-07-07 19:06:06.917	Ventana	34.502	02:35:49:18	4.189	V2681-03
 	transect	Mediaster	 	2687	 	 	 	1811839	 	2005-07-13 20:26:51.0	Ventana	 	03:51:49:21	 	V2687-04
 	transect	Mesomyaria	1000.38	2669	 	36.73147	-122.24214	1694468	0.4	2005-05-25 19:40:21.0	Ventana	34.508	02:02:18:10	4.074	V2669-02
 	transect	molt	50.42	2681	 	36.699825	-122.05429	2485575	2.97	2005-07-07 16:35:35.0	Ventana	33.919	00:06:46:00	9.619	V2681-01HD
 	cruise	Anoplopoma fimbria	569.02	2688	 	36.797108	-122.01998	1677411	0.51	2005-07-14 16:55:43.333	Ventana	34.357	00:42:01:08	5.849	V2688-01
 	transect	Sebastolobus altivelis	801.21	2674	 	36.751923	-122.20983	1800956	0.35	2005-06-08 18:19:25.0	Ventana	34.489	01:03:30:01	4.337	V2674-02
 	descend	Amphipoda	1188.62	2682	 	36.698326	-122.05785	1722412	0.66	2005-07-08 19:45:07.0	Ventana	34.569	03:37:44:00	3.415	V2682-04
 	transect	Mesomyaria	999.14	2669	 	36.731163	-122.23557	1684351	0.45	2005-05-25 18:54:23.0	Ventana	34.523	01:16:23:04	3.919	V2669-02
 	ascend	Appendicularia	433.3	2683	 	36.704178	-122.05058	1758028	0.83	2005-07-11 21:18:55.0	Ventana	34.276	04:51:47:09	6.791	V2683-05
 	transect	molt	100.5	2681	 	36.69912	-122.05383	2489841	2.13	2005-07-07 16:51:40.0	Ventana	34.069	00:22:48:20	9.146	V2681-01HD
 	transect	Ceriantharia sp. 2	998.52	2669	 	36.732883	-122.25204	1737317	0.4	2005-05-25 20:45:25.0	Ventana	34.509	03:06:15:03	4.074	V2669-04
 	descend	Nanomia	154.01	2682	 	36.699863	-122.060745	1719907	2.12	2005-07-08 16:18:49.0	Ventana	34.124	00:12:53:11	8.597	V2682-01
 	transect	Psolus squamatus	 	2687	 	 	 	1810874	 	2005-07-13 19:38:35.0	Ventana	 	03:04:18:09	 	V2687-03
 	transect	Ophiuroidea	1000.12	2669	 	36.73118	-122.24046	1689263	0.41	2005-05-25 19:30:27.0	Ventana	34.51	01:52:25:11	4.059	V2669-02
 	transect	Mesomyaria	801.79	2674	 	36.75092	-122.21969	1803641	0.35	2005-06-08 19:05:15.0	Ventana	34.493	01:49:17:10	4.365	V2674-02
 	transect	Umbellula lindahli	598.29	2680	 	36.781433	-122.22652	1804993	0.36	2005-06-27 18:36:35.0	Ventana	34.376	01:15:40:16	5.598	V2680-02
 	cruise	Lycodapus	1222.87	2683	 	36.70616	-122.04771	1757585	0.73	2005-07-11 20:00:42.0	Ventana	34.571	03:35:05:20	3.335	V2683-04
 	transect	Rathbunaster californicus	 	2687	 	 	 	1812485	 	2005-07-13 20:41:16.0	Ventana	 	04:06:13:08	 	V2687-04
 	transect	Mesomyaria	999.69	2669	 	36.730923	-122.23152	1683645	0.45	2005-05-25 18:27:27.0	Ventana	34.52	00:49:53:07	3.92	V2669-01
 	transect	Pennatulacea sp.1	600.35	2680	 	36.786213	-122.23092	1805868	0.36	2005-06-27 19:35:40.0	Ventana	34.378	02:14:19:09	5.597	V2680-03
 	transect	Psolus squamatus	 	2687	 	 	 	1807220	 	2005-07-13 17:03:33.0	Ventana	 	00:30:27:18	 	V2687-01
 	transect	Calycophorae	1000.94	2681	 	36.696327	-122.0526	2498685	0.47	2005-07-07 19:29:17.0	Ventana	34.531	02:58:57:03	3.874	V2681-03HD
 	transect	Mediaster	 	2687	 	 	 	1810168	 	2005-07-13 19:04:23.0	Ventana	 	02:30:07:17	 	V2687-03
 	transect	Mediaster	 	2687	 	 	 	1810611	 	2005-07-13 19:24:24.0	Ventana	 	02:50:07:29	 	V2687-03
 	transect	Phyllospadix	802.08	2674	 	36.752254	-122.206856	1799987	0.37	2005-06-08 18:04:09.0	Ventana	34.49	00:48:40:24	4.328	V2674-01
 	transect	Psolus squamatus	 	2687	 	 	 	1808816	 	2005-07-13 17:30:03.0	Ventana	 	00:56:55:11	 	V2687-01
 	transect	Psolus squamatus	399.87	2687	 	36.788128	-122.12165	1809259	1.13	2005-07-13 17:37:42.0	Ventana	34.243	01:04:04:15	7.26	V2687-02
 	descend	Appendicularia	331.45	2682	 	36.698795	-122.060616	1720170	1.08	2005-07-08 17:10:59.0	Ventana	34.248	01:04:31:11	7.204	V2682-02
 	transect	Antimora microlepis	800.37	2674	 	36.752598	-122.200294	1774086	0.29	2005-06-08 17:29:28.0	Ventana	34.462	00:14:02:16	4.649	V2674-01
 	cruise	Liponema brevicornis	505.72	2694	 	36.783985	-122.200836	1676153	0.75	2005-07-27 17:07:25.0	Ventana	34.288	00:00:33:22	6.475	V2694-01
 	transect	Phyllospadix	801.18	2674	 	36.75217	-122.208015	1800693	0.35	2005-06-08 18:09:47.0	Ventana	34.489	00:54:18:17	4.332	V2674-01
 	transect	Mediaster	 	2687	 	 	 	1811317	 	2005-07-13 20:06:57.0	Ventana	 	03:31:56:19	 	V2687-04
 	descend	Myctophidae	437.02	2683	 	36.70148	-122.04951	1756676	0.84	2005-07-11 17:07:03.0	Ventana	34.275	00:54:42:22	6.765	V2683-01
 	ascend	Solmissus	336.22	2681	 	36.69945	-122.055275	1718112	1.15	2005-07-07 20:54:23.233	Ventana	34.245	04:22:43:16	7.297	V2681-05
 	transect	Nanomia bijuga	400.75	2681	 	36.696896	-122.052505	2493067	0.79	2005-07-07 17:45:52.0	Ventana	34.277	01:16:15:20	6.659	V2681-02HD
 	ascend	Nanomia	258.17	2681	 	36.697838	-122.05522	1719584	 	2005-07-07 21:29:59.0	Ventana	 	05:15:46:13	 	V2681-05
 	ascend	Aegina	663.35	2683	 	36.705376	-122.04972	1757908	0.28	2005-07-11 21:08:22.0	Ventana	34.422	04:41:14:16	5.089	V2683-05
 	transect	Phyllospadix	799.18	2674	 	36.752506	-122.20424	1799525	0.35	2005-06-08 17:50:30.0	Ventana	34.484	00:35:02:19	4.371	V2674-01
 	transect	Porifera sp. 1	 	2687	 	 	 	1812425	 	2005-07-13 20:37:59.0	Ventana	 	04:02:56:27	 	V2687-04
 	ascend	Phialidium	857.37	2682	 	36.698612	-122.05849	1723238	0.33	2005-07-08 20:19:36.0	Ventana	34.487	04:11:44:08	4.372	V2682-05
 	transect	Mediaster	 	2687	 	 	 	1811719	 	2005-07-13 20:22:22.0	Ventana	 	03:47:20:17	 	V2687-04
 	ascend	Solmissus	258.92	2681	 	36.698772	-122.05687	1719081	1.42	2005-07-07 21:22:17.733	Ventana	34.228	04:50:36:24	7.961	V2681-05
 	transect	Mesomyaria	997.5	2669	 	36.73063	-122.227806	1649238	0.45	2005-05-25 17:59:17.0	Ventana	34.522	00:21:45:16	3.907	V2669-01
 	descend	Appendicularia	1200.66	2682	 	36.698315	-122.059	1722209	0.68	2005-07-08 19:18:35.0	Ventana	34.573	03:11:12:21	3.368	V2682-04
 	cruise	Rathbunaster californicus	458.79	2688	 	36.803032	-122.018135	1677614	0.88	2005-07-14 17:33:07.0	Ventana	34.271	01:18:51:24	6.847	V2688-02
 	transect	Psolus squamatus	 	2687	 	 	 	1808936	 	2005-07-13 17:32:23.0	Ventana	 	00:59:15:08	 	V2687-01
 	ascend	Appendicularia	585.74	2682	 	36.69883	-122.06025	1723441	0.4	2005-07-08 20:41:56.0	Ventana	34.371	04:34:03:26	5.67	V2682-05
 	descend	Appendicularia	289.94	2682	 	36.699364	-122.06066	1720110	1.23	2005-07-08 16:53:00.0	Ventana	34.237	00:47:02:17	7.454	V2682-01
 	descend	Melanostigma pammelas	1018.15	2682	 	36.698322	-122.05922	1722029	0.46	2005-07-08 19:01:04.0	Ventana	34.528	02:54:05:06	3.923	V2682-03
 	transect	Mesomyaria	999.2	2669	 	36.731007	-122.232	1683705	0.45	2005-05-25 18:30:04.0	Ventana	34.52	00:52:30:08	3.913	V2669-01
 	descend	Appendicularia	1008.6	2683	 	36.70405	-122.050156	1757382	0.44	2005-07-11 19:18:19.0	Ventana	34.522	02:58:40:16	3.989	V2683-03
 	endtransect	physical object	1000.32	2669	 	36.730927	-122.233475	1683908	0.45	2005-05-25 18:38:55.0	Ventana	34.521	01:01:20:27	3.913	V2669-01
 	cruise	Porifera	211.62	2688	http://search.mbari.org/ARCHIVE/frameGrabs/Ventana/images/2688/02_19_06_12.jpg	36.810276	-122.0209	20005202	1.72	2005-07-14 18:33:51.0	Ventana	34.161	02:19:06:12	8.689	V2688-03
 	descend	Chuniphyes	366.69	2693	 	36.696373	-122.06054	1758614	1.2	2005-07-25 20:14:39.0	Ventana	34.233	02:54:13:09	7.187	V2693-03
 	transect	Phyllospadix	 	2687	 	 	 	1812222	 	2005-07-13 20:29:27.0	Ventana	 	03:54:25:07	 	V2687-04
 	transect	Mysidae	700.64	2681	 	36.696747	-122.052635	2497716	0.29	2005-07-07 18:40:47.0	Ventana	34.436	02:10:30:17	4.931	V2681-03HD
 	ascend	Chaetognatha	310.71	2681	 	36.69966	-122.05526	1718172	1.26	2005-07-07 20:58:17.607	Ventana	34.235	04:26:38:05	7.513	V2681-05
 	ascend	Appendicularia	989.15	2682	 	36.69772	-122.058304	1722915	0.45	2005-07-08 20:06:26.0	Ventana	34.523	03:59:00:18	3.956	V2682-04
 	transect	Mesomyaria	999.23	2669	 	36.731396	-122.23638	1684734	0.44	2005-05-25 19:00:18.0	Ventana	34.52	01:22:17:21	3.946	V2669-02
 	ascend	Aegina	943.64	2682	 	36.69772	-122.05851	1723058	0.42	2005-07-08 20:10:37.0	Ventana	34.516	04:02:46:13	4.054	V2682-05
 	cruise	mound	116.55	2688	 	36.81133	-122.022545	1677997	1.95	2005-07-14 18:41:50.0	Ventana	34.096	02:27:05:02	8.903	V2688-03
 	transect	Psolus squamatus	 	2687	http://search.mbari.org/ARCHIVE/frameGrabs/Ventana/images/2687/03_40_03_15.jpg	 	 	1811516	 	2005-07-13 20:15:04.0	Ventana	 	03:40:03:15	 	V2687-04
 	transect	Microstomus pacificus	203.47	2696	 	36.80745	-122.13111	1813837	1.46	2005-08-01 18:41:47.0	Ventana	34.22	02:08:51:28	8.62	V2696-03
 	transect	Ophiuroidea	998.98	2669	http://search.mbari.org/ARCHIVE/frameGrabs/Ventana/images/2669/01_20_43_19.jpg	36.731403	-122.23617	1684614	0.44	2005-05-25 18:58:44.0	Ventana	34.521	01:20:43:19	3.944	V2669-02
 	ascend	Nanomia	272.27	2683	 	36.70318	-122.05065	1758088	1.37	2005-07-11 21:25:51.0	Ventana	34.238	04:58:42:02	7.952	V2683-05
 	transect	Mesomyaria	800.3	2674	 	36.752537	-122.20354	1799345	0.35	2005-06-08 17:46:29.0	Ventana	34.485	00:31:02:18	4.367	V2674-01
 	descend	Chaetognatha	171.5	2693	 	36.696163	-122.05801	1758231	1.95	2005-07-25 18:01:57.0	Ventana	34.14	00:42:27:13	8.903	V2693-01
 	transect	Euphausia	200.48	2681	 	36.69828	-122.05329	2490547	1.71	2005-07-07 17:07:25.0	Ventana	34.195	00:38:33:10	8.336	V2681-01HD
 	transect	Mesomyaria	998.84	2669	 	36.73114	-122.234055	1684028	0.45	2005-05-25 18:42:23.0	Ventana	34.523	01:04:24:09	3.914	V2669-02
 	descend	Poeobius meseres	825.7	2683	 	36.702744	-122.048615	1757202	0.31	2005-07-11 18:17:15.0	Ventana	34.476	02:01:18:26	4.474	V2683-02
 	transect	Gastropoda sp.2	1000.68	2669	 	36.732067	-122.24792	1736168	0.4	2005-05-25 20:17:52.0	Ventana	34.505	02:39:21:15	4.083	V2669-03
 	transect	Psolus squamatus	 	2687	 	 	 	1808613	 	2005-07-13 17:25:26.0	Ventana	 	00:52:18:07	 	V2687-01
 	ascend	Doliolenetta	883.28	2681	 	36.698227	-122.055176	1717327	0.36	2005-07-07 19:51:04.533	Ventana	34.504	03:20:07:05	4.241	V2681-04
 	endtransect	physical object	600.94	2680	 	36.785538	-122.23064	1805808	0.36	2005-06-27 19:28:53.0	Ventana	34.378	02:07:55:14	5.603	V2680-02
 	cruise	boulder	113.48	2688	 	36.81314	-122.01889	1679206	1.97	2005-07-14 19:29:02.0	Ventana	34.096	03:13:50:11	8.931	V2688-04
 	transect	Xeneretmus	 	2687	 	 	 	1808756	 	2005-07-13 17:28:45.0	Ventana	 	00:55:37:26	 	V2687-01
 	transect	Mediaster	 	2687	 	 	 	1812808	 	2005-07-13 20:58:51.0	Ventana	 	04:23:21:12	 	V2687-05
 	transect	Salpida	200.43	2681	 	36.69828	-122.0533	2490870	1.71	2005-07-07 17:09:21.0	Ventana	34.195	00:40:28:26	8.326	V2681-01HD
 	transect	Medusae	600.53	2681	 	36.697487	-122.05331	2493833	0.3	2005-07-07 18:26:42.0	Ventana	34.388	01:57:03:05	5.471	V2681-02HD
 	cruise	Pleuronectiformes	93.09	2688	 	36.815273	-122.01736	1679409	1.96	2005-07-14 20:29:30.0	Ventana	34.093	04:14:14:16	8.948	V2688-04
 	descend	Nanomia	164.13	2683	 	36.700684	-122.05159	1756293	1.7	2005-07-11 16:27:44.0	Ventana	34.172	00:15:25:20	8.739	V2683-01
 	transect	Sebastolobus altivelis	801.22	2674	 	36.750977	-122.218475	1803581	0.35	2005-06-08 19:00:18.0	Ventana	34.489	01:44:20:25	4.356	V2674-02
 	transect	Ceriantharia sp. 2	997.64	2669	 	36.730595	-122.22696	1683322	0.45	2005-05-25 17:53:49.0	Ventana	34.522	00:16:18:04	3.91	V2669-01
 	cruise	Chaetognatha	1239.29	2683	 	36.70566	-122.048096	1757525	0.73	2005-07-11 19:48:10.0	Ventana	34.568	03:22:33:24	3.327	V2683-04
 	transect	Mediaster	 	2687	 	 	 	1809845	 	2005-07-13 18:45:44.0	Ventana	 	02:11:30:16	 	V2687-03
 	transect	Calycophorae	800.92	2681	 	36.69523	-122.05101	2498099	0.31	2005-07-07 18:54:43.0	Ventana	34.476	02:24:25:26	4.491	V2681-03HD
 	transect	Gastropoda	200.35	2696	 	36.804737	-122.12723	1813514	1.51	2005-08-01 17:55:19.0	Ventana	34.211	01:23:12:00	8.673	V2696-02
 	transect	Leuroglossus stilbius	400.76	2681	 	36.697308	-122.05296	2493127	0.79	2005-07-07 17:47:33.0	Ventana	34.278	01:17:56:09	6.663	V2681-02HD
 	cruise	Actiniaria sp. 3	 	2687	 	 	 	1806897	 	2005-07-13 16:33:44.0	Ventana	 	00:00:40:09	 	V2687-01
 	transect	Xeneretmus	199.18	2696	http://search.mbari.org/ARCHIVE/frameGrabs/Ventana/images/2696/01_01_12_10.jpg	36.803795	-122.125015	1813311	1.53	2005-08-01 17:32:55.0	Ventana	34.213	01:01:12:10	8.638	V2696-01
 	cruise	Anoplopoma fimbria	470.45	2676	http://search.mbari.org/ARCHIVE/frameGrabs/Ventana/images/2676/00_17_41_19.jpg	36.802406	-122.02937	1676273	0.56	2005-06-14 16:33:34.0	Ventana	34.337	00:17:41:19	6.157	V2676-01
 	ascend	Poeobius meseres	921.69	2681	 	36.69772	-122.054344	1717004	0.39	2005-07-07 19:45:22.267	Ventana	34.507	03:14:25:09	4.161	V2681-04
 	descend	Appendicularia	586.48	2683	 	36.701916	-122.0491	1756999	0.36	2005-07-11 17:48:12.0	Ventana	34.365	01:32:18:27	5.845	V2683-02
 	transect	Mesomyaria	799.45	2674	 	36.752705	-122.20081	1774146	0.3	2005-06-08 17:32:39.0	Ventana	34.464	00:17:13:12	4.607	V2674-01
 	transect	Neptunea amianta	800.92	2674	 	36.75258	-122.20199	1799142	0.34	2005-06-08 17:38:44.0	Ventana	34.477	00:23:17:15	4.4	V2674-01
 	transect	Mesomyaria	999.71	2669	 	36.730705	-122.22948	1651097	0.45	2005-05-25 18:10:10.0	Ventana	34.521	00:32:37:24	3.908	V2669-01
 	transect	Mesomyaria	1000.09	2669	 	36.73112	-122.238594	1688880	0.43	2005-05-25 19:18:54.0	Ventana	34.525	01:40:52:08	3.98	V2669-02
 	transect	sinker	700.58	2681	 	36.695602	-122.051445	2497919	0.28	2005-07-07 18:45:50.0	Ventana	34.435	02:15:34:02	4.946	V2681-03HD
 	transect	Phyllospadix	802.78	2674	 	36.75224	-122.20636	1799927	0.36	2005-06-08 18:01:31.0	Ventana	34.489	00:46:03:23	4.339	V2674-01
 	transect	Psolus squamatus	 	2687	 	 	 	1810551	 	2005-07-13 19:22:05.0	Ventana	 	02:47:49:14	 	V2687-03
 	transect	Nanomia bijuga	200.38	2681	 	36.69829	-122.053345	2491073	1.7	2005-07-07 17:11:30.0	Ventana	34.196	00:42:38:04	8.332	V2681-01HD
 	ascend	Appendicularia	427.3	2681	 	36.699085	-122.05423	1717789	0.71	2005-07-07 20:38:06.633	Ventana	34.284	04:07:06:25	6.59	V2681-04
 	ascend	Appendicularia	395.65	2681	 	36.699303	-122.05454	1717992	0.91	2005-07-07 20:48:07.393	Ventana	34.265	04:16:28:17	6.908	V2681-05
 	transect	Mesomyaria	999.71	2669	 	36.73194	-122.24624	1735642	0.41	2005-05-25 20:06:02.0	Ventana	34.51	02:27:31:24	4.063	V2669-03
 	transect	Brisaster	998.69	2669	 	36.73106	-122.23044	1651300	0.45	2005-05-25 18:17:56.0	Ventana	34.522	00:40:22:25	3.91	V2669-01
 	transect	Neptunea amianta	805.92	2674	 	36.75039	-122.221794	1803761	0.34	2005-06-08 19:17:19.0	Ventana	34.486	02:01:20:22	4.405	V2674-02
 	transect	Actiniaria sp. 3	399.87	2687	 	36.788128	-122.12177	1809319	1.13	2005-07-13 17:39:23.0	Ventana	34.241	01:05:45:16	7.267	V2687-02
 	ascend	Copepoda	1187.58	2683	 	36.707363	-122.04767	1757705	0.71	2005-07-11 20:23:16.0	Ventana	34.568	03:57:38:17	3.376	V2683-04
 	transect	Mediaster	 	2687	 	 	 	1812605	 	2005-07-13 20:46:52.0	Ventana	 	04:11:23:09	 	V2687-05
 	transect	Phyllospadix	801.63	2674	 	36.752167	-122.20784	1800107	0.35	2005-06-08 18:08:43.0	Ventana	34.489	00:53:14:14	4.327	V2674-01
 	transect	Mediaster	 	2687	 	 	 	1810731	 	2005-07-13 19:30:09.0	Ventana	 	02:55:52:01	 	V2687-03
 	transect	Mesomyaria	1000.3	2669	 	36.731255	-122.241295	1689406	0.4	2005-05-25 19:35:32.0	Ventana	34.508	01:57:29:09	4.086	V2669-02
 	ascend	Appendicularia	753.87	2681	 	36.69873	-122.05579	1717530	0.27	2005-07-07 20:13:38.307	Ventana	34.445	03:42:40:01	4.816	V2681-04
 	descend	Cyclothone	602.7	2681	 	36.695675	-122.05107	1715915	0.3	2005-07-07 18:17:55.673	Ventana	34.39	01:48:16:16	5.482	V2681-02
 	transect	Psolus squamatus	399.84	2687	 	36.788048	-122.121544	1809139	1.13	2005-07-13 17:36:10.0	Ventana	34.242	01:02:32:10	7.271	V2687-02
 	ascend	Agalma	258.17	2681	 	36.697838	-122.05522	1719404	 	2005-07-07 21:29:59.0	Ventana	 	05:03:50:01	 	V2681-05
 	transect	Mesomyaria	998.72	2669	 	36.73285	-122.251884	1737257	0.4	2005-05-25 20:44:20.0	Ventana	34.509	03:05:08:15	4.075	V2669-04
 	transect	beroe	200.42	2681	 	36.69828	-122.05329	2490164	1.7	2005-07-07 17:05:20.0	Ventana	34.197	00:36:28:13	8.358	V2681-01HD
 	transect	Mesomyaria	999.31	2669	 	36.731056	-122.23496	1684231	0.45	2005-05-25 18:50:04.0	Ventana	34.521	01:12:04:05	3.92	V2669-02
 	transect	Psolus squamatus	 	2687	 	 	 	1810025	 	2005-07-13 18:51:23.0	Ventana	 	02:17:08:14	 	V2687-03
 	transect	Mediaster	 	2687	 	 	 	1807077	 	2005-07-13 16:58:05.0	Ventana	 	00:24:59:10	 	V2687-01
 	transect	beroe	500.58	2681	 	36.695877	-122.05133	2493653	0.43	2005-07-07 18:04:04.0	Ventana	34.348	01:34:26:03	6.006	V2681-02HD
 	ascend	Nanomia	187.04	2693	 	36.69061	-122.062904	1759226	1.89	2005-07-25 21:29:17.0	Ventana	34.16	03:53:49:14	8.869	V2693-04
 	descend	Appendicularia	400.23	2681	 	36.695568	-122.051094	1715209	0.79	2005-07-07 17:35:36.0	Ventana	34.278	01:05:59:13	6.677	V2681-02
 	descend	Appendicularia	502.75	2683	 	36.70155	-122.04933	1756819	0.68	2005-07-11 17:29:48.0	Ventana	34.306	01:13:55:26	6.465	V2683-02
 	transect	Ophiuroidea	1000.3	2669	 	36.73156	-122.24295	1694611	0.4	2005-05-25 19:44:14.0	Ventana	34.507	02:06:11:02	4.071	V2669-02
 	descend	Nanomia	240.27	2683	 	36.700966	-122.05063	1756436	1.71	2005-07-11 16:49:56.0	Ventana	34.188	00:37:37:29	8.075	V2683-01
 	transect	Mediaster	 	2687	 	 	 	1812688	 	2005-07-13 20:52:11.0	Ventana	 	04:16:42:03	 	V2687-05
 	ascend	Nanomia	258.17	2681	 	36.697838	-122.05522	1719321	 	2005-07-07 21:29:59.0	Ventana	 	05:00:56:12	 	V2681-05
 	transect	Neptunea amianta	800.36	2674	 	36.751205	-122.21661	1803438	0.35	2005-06-08 18:51:50.0	Ventana	34.487	01:35:53:04	4.359	V2674-02
 	cruise	rubble	96.69	2688	http://search.mbari.org/ARCHIVE/frameGrabs/Ventana/images/2688/03_44_13_06.jpg	36.817055	-122.01453	20005262	1.99	2005-07-14 19:59:26.0	Ventana	34.088	03:44:13:06	8.915	V2688-04
 	ascend	Chaetognatha	332.4	2693	 	36.69217	-122.061844	1759023	1.29	2005-07-25 21:15:51.0	Ventana	34.237	03:40:22:22	7.551	V2693-04
 	transect	Halipteris californica	598.71	2680	 	36.78245	-122.22762	1805173	0.35	2005-06-27 18:50:43.0	Ventana	34.377	01:29:48:18	5.59	V2680-02
 	ascend	Euphausiacea	259.72	2681	 	36.699383	-122.05445	1718615	1.43	2005-07-07 21:13:35.933	Ventana	34.23	04:41:55:01	7.967	V2681-05
 	transect	Chaetognatha	200.39	2681	 	36.698284	-122.053314	2490990	1.71	2005-07-07 17:10:31.0	Ventana	34.187	00:41:38:15	8.319	V2681-01HD
 	transect	chuniphyes	500.6	2681	 	36.697994	-122.053734	2493247	0.44	2005-07-07 17:54:47.0	Ventana	34.347	01:25:11:06	6.021	V2681-02HD
 	descend	sinker	785.37	2683	 	36.702568	-122.04886	1757142	0.35	2005-07-11 17:59:33.0	Ventana	34.454	01:43:38:14	4.703	V2683-02
 	transect	Sebastolobus altivelis	800.2	2674	 	36.752087	-122.20881	1800813	0.35	2005-06-08 18:13:31.0	Ventana	34.489	00:58:02:09	4.334	V2674-01
 	transect	Rathbunaster californicus	199.43	2696	 	36.804203	-122.12597	1813394	1.52	2005-08-01 17:42:31.0	Ventana	34.208	01:10:24:20	8.66	V2696-02
 	transect	Psolus squamatus	 	2687	 	 	 	1808673	 	2005-07-13 17:26:47.0	Ventana	 	00:53:39:08	 	V2687-01
 	transect	Nanomia bijuga	200.4	2681	 	36.69828	-122.05329	2490284	1.69	2005-07-07 17:06:24.0	Ventana	34.2	00:37:33:15	8.359	V2681-01HD
 	transect	Porifera sp. 1	 	2687	 	 	 	1809019	 	2005-07-13 17:33:41.0	Ventana	 	01:00:33:06	 	V2687-01
 	transect	Microstomus pacificus	 	2687	 	 	 	1811636	 	2005-07-13 20:18:06.0	Ventana	 	03:43:05:06	 	V2687-04
 	transect	Rathbunaster californicus	204.1	2696	 	36.805286	-122.12825	1813694	1.48	2005-08-01 18:15:45.0	Ventana	34.213	01:43:36:20	8.633	V2696-02
 	transect	haliscera	300.42	2681	 	36.696316	-122.051926	2492541	1.23	2005-07-07 17:26:58.0	Ventana	34.233	00:58:05:20	7.4	V2681-01HD
 	transect	Mesomyaria	1000.48	2669	 	36.731228	-122.24115	1689383	0.41	2005-05-25 19:34:31.0	Ventana	34.512	01:56:28:26	4.058	V2669-02
 	transect	Nanomia bijuga	200.46	2681	 	36.69828	-122.05329	2490690	1.72	2005-07-07 17:08:17.0	Ventana	34.194	00:39:24:24	8.323	V2681-01HD
 	ascend	Solmissus	274.36	2681	 	36.69972	-122.05494	1718315	1.38	2005-07-07 21:03:47.153	Ventana	34.229	04:32:06:26	7.81	V2681-05
 	descend	Appendicularia	467.48	2683	 	36.701633	-122.04936	1756736	0.77	2005-07-11 17:12:19.0	Ventana	34.286	00:59:57:09	6.652	V2683-01
 	transect	Phyllospadix	799.31	2674	 	36.75175	-122.21233	1801196	0.35	2005-06-08 18:29:16.0	Ventana	34.488	01:13:20:16	4.335	V2674-02
 	transect	Mesomyaria	999.32	2669	 	36.730507	-122.22863	1650917	0.45	2005-05-25 18:04:33.0	Ventana	34.522	00:27:01:16	3.906	V2669-01
 	transect	Umbellula lindahli	601.31	2680	 	36.776844	-122.22212	1804144	0.36	2005-06-27 17:39:02.0	Ventana	34.378	00:19:10:01	5.578	V2680-01
 	cruise	Bathocyroe	439.54	2676	 	36.80322	-122.02924	1676356	0.63	2005-06-14 16:39:37.0	Ventana	34.327	00:23:45:12	6.38	V2676-01
 	descend	Appendicularia	519.56	2682	 	36.698593	-122.059784	1720857	0.4	2005-07-08 18:01:34.0	Ventana	34.363	01:55:03:04	5.899	V2682-02
 	descend	Calycophorae	312.41	2693	 	36.697575	-122.06079	1758494	1.31	2005-07-25 19:40:29.0	Ventana	34.233	02:20:03:17	7.619	V2693-03
 	transect	Laminariales	 	2687	 	 	 	1810085	 	2005-07-13 18:55:17.0	Ventana	 	02:21:03:02	 	V2687-03
 	ascend	Copepoda	604.81	2682	 	36.698624	-122.06167	1723527	0.33	2005-07-08 20:57:23.0	Ventana	34.374	04:49:29:17	5.619	V2682-05
 	transect	Chionoecetes tanneri	599.3	2680	 	36.779015	-122.22416	1804467	0.36	2005-06-27 18:05:42.0	Ventana	34.377	00:45:48:15	5.602	V2680-01
 	transect	Phyllospadix	999.73	2669	 	36.732643	-122.25103	1737054	0.4	2005-05-25 20:39:03.0	Ventana	34.51	03:00:32:19	4.07	V2669-03
 	cruise	Rathbunaster californicus	280.83	2688	 	36.809002	-122.02035	1677877	1.43	2005-07-14 18:24:25.0	Ventana	34.213	02:09:41:22	8.005	V2688-03
 	ascend	Appendicularia	716.33	2682	 	36.698826	-122.05931	1723321	0.28	2005-07-08 20:30:59.0	Ventana	34.433	04:23:07:04	4.97	V2682-05
 	transect	Phyllospadix	197.81	2696	 	36.80266	-122.12169	1812988	1.54	2005-08-01 16:49:33.0	Ventana	34.203	00:17:53:03	8.568	V2696-01
 	transect	Mesomyaria	1000.23	2669	 	36.73163	-122.24326	1733798	0.41	2005-05-25 19:46:08.0	Ventana	34.51	02:07:39:22	4.065	V2669-03
 	cruise	Pleuronectiformes	235.75	2688	 	36.80987	-122.02056	1677937	1.61	2005-07-14 18:31:55.0	Ventana	34.178	02:17:10:26	8.389	V2688-03
 	transect	Psolus squamatus	 	2687	 	 	 	1807137	 	2005-07-13 17:01:25.0	Ventana	 	00:28:19:07	 	V2687-01
 	descend	Apolemia	529.27	2688	http://search.mbari.org/ARCHIVE/frameGrabs/Ventana/images/2688/00_03_13_03.jpg	36.79344	-122.01826	1677231	0.68	2005-07-14 16:16:54.0	Ventana	34.311	00:03:13:03	6.38	V2688-01
 	transect	Mediaster	 	2687	 	 	 	1812282	 	2005-07-13 20:30:45.0	Ventana	 	03:55:43:18	 	V2687-04
 	transect	Mesomyaria	999.98	2669	 	36.73097	-122.233025	1683848	0.45	2005-05-25 18:36:56.0	Ventana	34.522	00:59:21:12	3.911	V2669-01
 	transect	Nanomia bijuga	400.8	2681	 	36.69576	-122.05115	2492887	0.79	2005-07-07 17:40:40.0	Ventana	34.277	01:11:04:20	6.67	V2681-02HD
 	transect	Appendicularia	500.61	2681	 	36.69654	-122.052124	2493593	0.44	2005-07-07 18:00:57.0	Ventana	34.348	01:31:19:07	6.011	V2681-02HD
 	descend	Nanomia	225.16	2682	 	36.699886	-122.06071	1719967	1.53	2005-07-08 16:21:44.0	Ventana	34.222	00:15:49:09	8.036	V2682-01
 	transect	molt	100.52	2681	 	36.69983	-122.05429	2489661	2.13	2005-07-07 16:47:20.0	Ventana	34.069	00:18:29:10	9.147	V2681-01HD
 	transect	Psolus squamatus	 	2687	 	 	 	1811054	 	2005-07-13 19:49:33.0	Ventana	 	03:14:34:24	 	V2687-04
 	cruise	Appendicularia	522.7	2688	 	36.79945	-122.0191	1677471	0.65	2005-07-14 17:05:36.0	Ventana	34.316	00:51:53:23	6.341	V2688-01
 	transect	Ophiuroidea	999.49	2669	http://search.mbari.org/ARCHIVE/frameGrabs/Ventana/images/2669/01_32_48_07.jpg	36.73139	-122.23747	1687502	0.44	2005-05-25 19:10:49.0	Ventana	34.519	01:32:48:07	3.946	V2669-02
 	cruise	Diogenidae	1016.09	2689	 	36.771557	-122.08297	1669739	0.57	2005-07-18 17:10:51.0	Ventana	34.543	00:33:53:27	3.662	V2689-01
 	transect	Psolus squamatus	399.86	2687	http://search.mbari.org/ARCHIVE/frameGrabs/Ventana/images/2687/01_02_12_24.jpg	36.788044	-122.12152	1809079	1.14	2005-07-13 17:35:50.0	Ventana	34.237	01:02:12:24	7.276	V2687-02
 	transect	Sebastolobus altivelis	800.13	2674	 	36.751766	-122.2119	1801159	0.35	2005-06-08 18:27:41.0	Ventana	34.488	01:11:46:04	4.343	V2674-02
 	ascend	Appendicularia	261.16	2681	 	36.69884	-122.057	1719021	1.42	2005-07-07 21:20:59.7	Ventana	34.23	04:49:18:10	7.953	V2681-05
 	transect	Umbellula lindahli	599.26	2680	 	36.779686	-122.224815	1804550	0.36	2005-06-27 18:14:10.0	Ventana	34.376	00:54:15:27	5.617	V2680-01
 	transect	Ceriantharia sp. 1	601.66	2680	 	36.776653	-122.22199	1804107	0.36	2005-06-27 17:36:40.0	Ventana	34.379	00:16:48:21	5.576	V2680-01
 	transect	Mediaster	 	2687	 	 	 	1812748	 	2005-07-13 20:55:51.0	Ventana	 	04:20:20:27	 	V2687-05
 	ascend	Nanomia	433.48	2694	 	36.784946	-122.200775	1676765	1.12	2005-07-27 21:02:53.0	Ventana	34.258	03:34:14:03	7.3	V2694-04
 	transect	Mesomyaria	1000.39	2669	 	36.731556	-122.24275	1694528	0.4	2005-05-25 19:43:14.0	Ventana	34.506	02:05:10:26	4.087	V2669-02
 	transect	Mediaster	 	2687	 	 	 	1807483	 	2005-07-13 17:10:10.0	Ventana	 	00:37:04:03	 	V2687-01
 	descend	Aegina	485.21	2681	 	36.698116	-122.053894	1715352	0.48	2005-07-07 17:53:18.677	Ventana	34.338	01:23:41:16	6.089	V2681-02
 	transect	Halipteris californica	599.35	2680	 	36.7829	-122.228195	1805256	0.35	2005-06-27 19:01:09.0	Ventana	34.38	01:40:13:08	5.58	V2680-02
 	ascend	Chuniphyes	828.41	2681	 	36.6988	-122.056305	1717410	0.31	2005-07-07 19:57:57.267	Ventana	34.482	03:26:59:14	4.437	V2681-04
 	transect	Mesomyaria	998.72	2669	http://search.mbari.org/ARCHIVE/frameGrabs/Ventana/images/2669/01_05_24_02.jpg	36.731174	-122.234245	1684088	0.45	2005-05-25 18:43:23.0	Ventana	34.521	01:05:24:02	3.915	V2669-02
 	transect	Ceriantharia sp. 1	602.42	2680	 	36.79047	-122.232735	1806777	0.36	2005-06-27 20:19:51.0	Ventana	34.377	02:58:27:20	5.589	V2680-03
 	transect	Mesomyaria	998.18	2669	 	36.73296	-122.252235	1737400	0.4	2005-05-25 20:46:41.0	Ventana	34.51	03:07:28:21	4.075	V2669-04
 	transect	Mediaster	 	2687	 	 	 	1807040	 	2005-07-13 16:55:42.0	Ventana	 	00:22:37:03	 	V2687-01
 	ascend	Appendicularia	641.11	2682	 	36.698875	-122.059685	1723381	0.3	2005-07-08 20:36:19.0	Ventana	34.392	04:28:26:18	5.384	V2682-05
 	cruise	rock outcrop	95.28	2688	http://search.mbari.org/ARCHIVE/frameGrabs/Ventana/images/2688/04_59_38_09.jpg	36.81395	-122.01845	20005322	1.93	2005-07-14 21:15:25.0	Ventana	34.102	04:59:38:09	8.901	V2688-05
 	transect	molt	100.57	2681	 	36.69983	-122.05429	2489578	2.13	2005-07-07 16:45:20.0	Ventana	34.068	00:16:29:18	9.15	V2681-01HD
 	transect	Calycophorae	300.42	2681	 	36.697647	-122.053085	2492181	1.23	2005-07-07 17:22:43.0	Ventana	34.234	00:53:49:27	7.403	V2681-01HD
 	transect	Lycenchelys camchatica	800.58	2674	 	36.752506	-122.202934	1799262	0.35	2005-06-08 17:43:09.0	Ventana	34.486	00:27:42:14	4.377	V2674-01
 	ascend	Haliscera	376.62	2693	 	36.696083	-122.06057	1758760	1.2	2005-07-25 20:49:33.0	Ventana	34.231	03:14:07:19	7.156	V2693-04
 	transect	molt	100.57	2681	 	36.69983	-122.05429	2489518	2.12	2005-07-07 16:43:29.0	Ventana	34.068	00:14:39:18	9.147	V2681-01HD
 	transect	Solmissus	300.42	2681	 	36.69677	-122.05233	2492481	1.23	2005-07-07 17:25:42.0	Ventana	34.234	00:56:49:04	7.397	V2681-01HD
 	transect	Ceriantharia sp. 2	1000.0	2669	 	36.73169	-122.24362	1733858	0.41	2005-05-25 19:47:58.0	Ventana	34.508	02:09:29:06	4.069	V2669-03
 	transect	Poeobius meseres	600.63	2681	 	36.69591	-122.05148	2493690	0.3	2005-07-07 18:19:42.0	Ventana	34.387	01:50:04:29	5.496	V2681-02HD
 	transect	Porifera sp. 1	 	2687	 	 	 	1807543	 	2005-07-13 17:14:40.0	Ventana	 	00:41:33:21	 	V2687-01
 	ascend	Appendicularia	573.93	2682	 	36.698307	-122.062485	1723587	0.37	2005-07-08 21:06:46.0	Ventana	34.359	04:58:52:27	5.799	V2682-05
 	transect	Chaetognatha	400.79	2681	 	36.696278	-122.05174	2492984	0.79	2005-07-07 17:43:07.0	Ventana	34.277	01:13:32:14	6.654	V2681-02HD
 	transect	Chionoecetes tanneri	803.72	2674	 	36.750748	-122.2205	1803701	0.34	2005-06-08 19:09:12.0	Ventana	34.487	01:53:14:10	4.388	V2674-02
 	transect	Calycophorae	800.9	2681	 	36.69596	-122.0519	2498219	0.31	2005-07-07 18:58:14.0	Ventana	34.476	02:27:56:21	4.496	V2681-03HD
 	transect	Salpida	400.74	2681	 	36.697636	-122.053345	2493187	0.79	2005-07-07 17:48:57.0	Ventana	34.278	01:19:21:02	6.659	V2681-02HD
 	transect	Gastropoda sp.2	999.53	2669	 	36.730595	-122.229034	1695031	0.45	2005-05-25 18:06:59.0	Ventana	34.523	00:29:26:29	3.905	V2669-01
 	transect	Lycenchelys camchatica	800.67	2674	 	36.7521	-122.208435	1800753	0.35	2005-06-08 18:11:35.0	Ventana	34.487	00:56:07:02	4.328	V2674-01
 	transect	Phyllospadix	199.81	2696	 	36.804485	-122.12654	1813454	1.52	2005-08-01 17:48:32.0	Ventana	34.212	01:16:25:24	8.664	V2696-02
 	transect	Sebastolobus altivelis	801.07	2674	 	36.751747	-122.21123	1801099	0.35	2005-06-08 18:25:06.0	Ventana	34.487	01:09:11:01	4.341	V2674-02
 	transect	Pennatulacea sp.1	599.89	2680	 	36.77858	-122.22377	1804407	0.36	2005-06-27 18:00:56.0	Ventana	34.378	00:41:03:10	5.583	V2680-01
 	transect	Phyllospadix	998.72	2669	 	36.730885	-122.22969	1651157	0.45	2005-05-25 18:12:12.0	Ventana	34.522	00:34:39:16	3.908	V2669-01
 	descend	Appendicularia	472.08	2682	 	36.69854	-122.05968	1720797	0.52	2005-07-08 17:56:37.0	Ventana	34.323	01:50:06:07	6.198	V2682-02
 	transect	Ceriantharia sp. 2	1000.41	2669	 	36.73192	-122.246994	1735785	0.41	2005-05-25 20:11:31.0	Ventana	34.51	02:33:01:18	4.063	V2669-03
 	transect	Mesomyaria	1001.14	2669	 	36.7323	-122.24928	1736288	0.4	2005-05-25 20:27:48.0	Ventana	34.508	02:49:17:14	4.072	V2669-03
 	transect	Sebastolobus	 	2687	 	 	 	1810694	 	2005-07-13 19:28:36.0	Ventana	 	02:54:20:00	 	V2687-03
 	transect	Phyllospadix	799.32	2674	 	36.751656	-122.21312	1801256	0.35	2005-06-08 18:32:15.0	Ventana	34.489	01:16:19:24	4.344	V2674-02
 	descend	Calycophorae	811.93	2682	 	36.698353	-122.05955	1721706	0.31	2005-07-08 18:41:56.0	Ventana	34.473	02:35:00:06	4.512	V2682-03
 	cruise	Rathbunaster californicus	89.97	2688	 	36.816822	-122.01582	1679349	2.01	2005-07-14 20:10:58.0	Ventana	34.087	03:55:43:16	8.918	V2688-04
 	transect	Psolus squamatus	 	2687	 	 	 	1810851	 	2005-07-13 19:37:35.0	Ventana	 	03:03:18:14	 	V2687-03
 	transect	Porifera sp. 1	 	2687	 	 	 	1810491	 	2005-07-13 19:20:28.0	Ventana	 	02:46:12:09	 	V2687-03
 	transect	Mediaster	 	2687	 	 	 	1811400	 	2005-07-13 20:11:28.0	Ventana	 	03:36:28:02	 	V2687-04
 	ascend	Sergestes similis	359.69	2681	 	36.699364	-122.054985	1718052	1.02	2005-07-07 20:51:43.1	Ventana	34.259	04:20:04:02	7.126	V2681-05
 	descend	Appendicularia	515.35	2683	 	36.701447	-122.049164	1756879	0.64	2005-07-11 17:40:42.0	Ventana	34.307	01:24:48:11	6.391	V2683-02
 	transect	Phyllospadix	800.94	2674	 	36.75256	-122.20246	1799202	0.34	2005-06-08 17:41:04.0	Ventana	34.476	00:25:37:15	4.411	V2674-01
 	transect	Umbellula lindahli	598.96	2680	 	36.780163	-122.2252	1804610	0.35	2005-06-27 18:19:35.0	Ventana	34.383	00:59:40:15	5.549	V2680-01
 	transect	Sergestes similis	300.43	2681	 	36.69825	-122.053505	2491978	1.24	2005-07-07 17:20:36.0	Ventana	34.231	00:51:44:24	7.426	V2681-01HD
 	transect	Stomphia	999.38	2669	 	36.732754	-122.25134	1737197	0.41	2005-05-25 20:41:08.0	Ventana	34.509	03:01:58:05	4.072	V2669-04
 	transect	Mesomyaria	801.51	2674	 	36.751965	-122.209335	1800896	0.36	2005-06-08 18:16:14.0	Ventana	34.491	01:00:46:00	4.321	V2674-01
 	transect	Pennatulacea sp.1	602.4	2680	 	36.791225	-122.2329	1806837	0.35	2005-06-27 20:26:20.0	Ventana	34.379	03:04:56:09	5.587	V2680-03
 	cruise	Appendicularia	295.6	2676	 	36.805256	-122.03171	1676213	1.38	2005-06-14 16:20:17.0	Ventana	34.223	00:04:26:28	7.76	V2676-01
 	ascend	Appendicularia	265.1	2681	 	36.698925	-122.05652	1718758	1.41	2005-07-07 21:18:07.573	Ventana	34.231	04:46:26:27	7.923	V2681-05
 	transect	Halipteris californica	599.22	2680	 	36.783108	-122.22848	1805316	0.36	2005-06-27 19:03:54.0	Ventana	34.378	01:42:58:16	5.591	V2680-02
 	ascend	Lobata	776.06	2681	 	36.69876	-122.056335	1717470	0.29	2005-07-07 20:06:52.867	Ventana	34.453	03:35:55:00	4.745	V2681-04
 	transect	Mesomyaria	801.36	2674	 	36.752274	-122.20725	1800047	0.37	2005-06-08 18:06:09.0	Ventana	34.48	00:50:40:26	4.378	V2674-01
 	ascend	Euphausiacea	280.63	2681	 	36.69975	-122.055145	1718255	1.36	2005-07-07 21:01:15.233	Ventana	34.232	04:29:35:18	7.737	V2681-05
 	ascend	Poeobius meseres	1105.97	2683	 	36.707882	-122.04905	1757788	0.58	2005-07-11 20:43:00.0	Ventana	34.549	04:17:20:07	3.66	V2683-04
 	transect	Mediaster	399.69	2687	 	36.789253	-122.12459	1809582	1.16	2005-07-13 18:21:31.0	Ventana	34.239	01:47:50:09	7.335	V2687-02
 	transect	Porifera sp. 1	 	2687	 	 	 	1812545	 	2005-07-13 20:45:01.0	Ventana	 	04:09:31:25	 	V2687-05
 	transect	Gastropoda	203.46	2696	 	36.806385	-122.12994	1813754	1.48	2005-08-01 18:27:03.0	Ventana	34.212	01:54:54:07	8.628	V2696-02
 	descend	Appendicularia	326.73	2683	 	36.7012	-122.05007	1756533	1.21	2005-07-11 16:55:12.0	Ventana	34.24	00:42:52:22	7.487	V2683-01
 	transect	Microstomus pacificus	196.39	2696	http://search.mbari.org/ARCHIVE/frameGrabs/Ventana/images/2696/00_29_04_18.jpg	36.80283	-122.12205	1813048	1.55	2005-08-01 17:00:45.0	Ventana	34.2	00:29:04:18	8.601	V2696-01
 	transect	Aegina	700.65	2681	 	36.697266	-122.05314	2497656	0.29	2005-07-07 18:38:40.0	Ventana	34.436	02:08:22:03	4.936	V2681-03HD
 	transect	Calycophorae	300.45	2681	 	36.69787	-122.05327	2492121	1.23	2005-07-07 17:21:59.0	Ventana	34.233	00:53:06:19	7.4	V2681-01HD
 	ascend	Chuniphyes	587.5	2681	 	36.69893	-122.05425	1717706	0.35	2005-07-07 20:30:31.88	Ventana	34.371	03:59:33:02	5.666	V2681-04
 	transect	Phyllospadix	1000.36	2669	 	36.732063	-122.24753	1735928	0.4	2005-05-25 20:15:55.0	Ventana	34.508	02:37:24:22	4.079	V2669-03
 	descend	Copepoda	699.88	2683	 	36.702072	-122.048935	1757082	0.31	2005-07-11 17:54:14.0	Ventana	34.422	01:38:19:05	5.079	V2683-02
 	transect	Glyptocephalus zachirus	 	2687	 	 	 	1808876	 	2005-07-13 17:30:59.0	Ventana	 	00:57:52:00	 	V2687-01
 	transect	Rathbunaster californicus	198.04	2696	 	36.803608	-122.12436	1813251	1.53	2005-08-01 17:26:40.0	Ventana	34.204	00:54:57:10	8.617	V2696-01
 	transect	Mesomyaria	999.68	2669	 	36.731426	-122.237015	1687442	0.44	2005-05-25 19:06:48.0	Ventana	34.52	01:28:47:02	3.942	V2669-02
 	descend	Copepoda	1080.87	2682	 	36.698303	-122.059166	1722066	0.52	2005-07-08 19:05:46.0	Ventana	34.541	02:58:47:22	3.734	V2682-03
 	descend	Salpida	856.63	2683	 	36.702976	-122.04838	1757239	0.35	2005-07-11 18:26:41.0	Ventana	34.488	02:10:45:17	4.351	V2683-02
 	transect	cydippida	200.46	2681	 	36.69828	-122.05329	2490630	1.73	2005-07-07 17:07:55.0	Ventana	34.193	00:39:03:08	8.328	V2681-01HD
 	transect	Mesomyaria	800.94	2674	 	36.75252	-122.20148	1774206	0.34	2005-06-08 17:35:54.0	Ventana	34.477	00:20:27:11	4.423	V2674-01
 	transect	Umbellula lindahli	602.24	2680	 	36.787655	-122.23189	1805928	0.36	2005-06-27 19:51:46.0	Ventana	34.379	02:30:24:21	5.595	V2680-03
 	transect	Glyptocephalus zachirus	 	2687	http://search.mbari.org/ARCHIVE/frameGrabs/Ventana/images/2687/03_11_59_05.jpg	 	 	1810994	 	2005-07-13 19:46:58.0	Ventana	 	03:11:59:05	 	V2687-04
 	transect	Stomphia	999.96	2669	 	36.7311	-122.23919	1689120	0.43	2005-05-25 19:22:23.0	Ventana	34.517	01:44:21:22	3.976	V2669-02
 	descend	Euphausiacea	276.77	2681	 	36.69857	-122.053665	1713613	1.37	2005-07-07 17:17:01.467	Ventana	34.222	00:48:09:19	7.694	V2681-01
 	transect	Mysidae	1001.05	2681	 	36.69501	-122.0509	2498565	0.47	2005-07-07 19:22:37.0	Ventana	34.531	02:52:18:18	3.87	V2681-03HD
 	transect	cydippida	200.43	2681	 	36.69828	-122.0533	2490787	1.73	2005-07-07 17:08:49.0	Ventana	34.193	00:39:57:16	8.321	V2681-01HD
 	stationary	Merluccius productus	502.32	2694	 	36.784588	-122.20046	1676622	0.83	2005-07-27 19:55:17.0	Ventana	34.272	02:27:26:28	6.642	V2694-03
 	transect	Gastropoda sp.2	998.86	2669	 	36.731087	-122.23494	1694671	0.45	2005-05-25 18:49:29.0	Ventana	34.522	01:11:29:26	3.919	V2669-02
 	transect	Phyllospadix	800.95	2674	 	36.75109	-122.21742	1803498	0.35	2005-06-08 18:55:31.0	Ventana	34.489	01:39:34:06	4.347	V2674-02
 	transect	Mesomyaria	802.02	2674	 	36.75231	-122.20583	1799844	0.36	2005-06-08 17:59:00.0	Ventana	34.49	00:43:32:05	4.333	V2674-01
 	descend	Aegina	1080.71	2683	 	36.70511	-122.04892	1757442	0.52	2005-07-11 19:27:40.0	Ventana	34.534	03:08:01:14	3.797	V2683-03
 	descend	Aegina	602.13	2681	 	36.695644	-122.051125	1715652	0.3	2005-07-07 18:09:15.2	Ventana	34.39	01:39:37:02	5.471	V2681-02
 	descend	Euphausiacea	267.64	2682	 	36.699787	-122.06072	1720027	1.35	2005-07-08 16:30:03.0	Ventana	34.231	00:24:06:21	7.744	V2682-01
 	transect	Chionoecetes tanneri	999.96	2669	 	36.73258	-122.25047	1736994	0.41	2005-05-25 20:36:28.0	Ventana	34.51	02:57:55:09	4.073	V2669-03
 	cruise	LRJ Complex	511.31	2688	 	36.800938	-122.01874	1677531	0.68	2005-07-14 17:21:42.0	Ventana	34.31	01:07:26:16	6.424	V2688-02
 	transect	Phyllospadix	1000.06	2669	 	36.730946	-122.232635	1683788	0.45	2005-05-25 18:34:28.0	Ventana	34.521	00:56:53:20	3.911	V2669-01
 	ascend	Euphausiacea	265.6	2681	 	36.699524	-122.05448	1718412	1.4	2005-07-07 21:08:14.1	Ventana	34.236	04:36:34:01	7.898	V2681-05
 	transect	molt	100.47	2681	 	36.69982	-122.05429	2489721	2.13	2005-07-07 16:48:39.0	Ventana	34.067	00:19:47:25	9.152	V2681-01HD
 	transect	Ceriantharia sp. 2	1000.1	2669	 	36.731853	-122.24536	1735379	0.4	2005-05-25 19:59:35.0	Ventana	34.508	02:21:04:25	4.07	V2669-03
 	transect	Ceriantharia sp. 1	799.05	2674	 	36.751328	-122.215385	1803341	0.35	2005-06-08 18:45:35.0	Ventana	34.489	01:29:38:26	4.339	V2674-02
 	ascend	Nanomia	 	2683	 	 	 	1758148	 	2005-07-11 14:32:02.0	Ventana	 	05:04:53:17	 	V2683-05
 	transect	Halipteris californica	598.66	2680	 	36.782173	-122.22727	1805113	0.35	2005-06-27 18:45:55.0	Ventana	34.38	01:25:00:10	5.58	V2680-02
 	descend	Nanomia	197.67	2683	 	36.701057	-122.050964	1756376	1.69	2005-07-11 16:46:39.0	Ventana	34.192	00:34:18:27	8.407	V2683-01
 	ascend	Appendicularia	343.43	2681	 	36.699337	-122.05519	1718089	1.11	2005-07-07 20:53:12.6	Ventana	34.247	04:21:33:29	7.256	V2681-05
 	cruise	Lycodapus	1216.47	2683	 	36.70641	-122.04756	1757622	0.72	2005-07-11 20:09:26.0	Ventana	34.574	03:43:49:26	3.344	V2683-04
 	transect	Mediaster	 	2687	 	 	 	1810957	 	2005-07-13 19:44:04.0	Ventana	 	03:09:05:24	 	V2687-04
 	transect	Brisaster	999.27	2669	http://search.mbari.org/ARCHIVE/frameGrabs/Ventana/images/2669/01_21_20_16.jpg	36.73142	-122.236244	1684697	0.44	2005-05-25 18:59:21.0	Ventana	34.52	01:21:20:16	3.941	V2669-02
 	ascend	Phialidium	689.86	2681	 	36.69873	-122.054665	1717613	0.27	2005-07-07 20:21:50.627	Ventana	34.42	03:50:51:10	5.124	V2681-04
 	transect	molt	100.5	2681	 	36.699406	-122.05402	2489804	2.13	2005-07-07 16:51:02.0	Ventana	34.068	00:22:10:23	9.146	V2681-01HD
 	cruise	Pleuronectiformes	607.65	2688	 	36.79598	-122.02018	1677374	0.45	2005-07-14 16:38:29.0	Ventana	34.388	00:24:48:22	5.494	V2688-01
 	transect	Phyllospadix	1000.46	2669	 	36.73227	-122.24884	1736251	0.41	2005-05-25 20:25:18.0	Ventana	34.509	02:46:45:23	4.076	V2669-03
 	cruise	Pennatulacea	998.2	2679	 	36.68986	-122.1656	1824360	0.42	2005-06-16 17:32:24.0	Ventana	34.513	00:03:46:26	4.11	V2679-01
 	cruise	Sebastolobus	611.59	2688	 	36.795162	-122.019005	1677328	0.45	2005-07-14 16:33:02.0	Ventana	34.389	00:19:22:21	5.475	V2688-01
 	descend	Poeobius meseres	924.83	2682	 	36.698254	-122.059395	1721789	0.35	2005-07-08 18:52:44.0	Ventana	34.497	02:45:46:19	4.267	V2682-03
 	ascend	Chuniphyes	526.35	2682	 	36.69831	-122.06296	1723647	0.44	2005-07-08 21:11:17.0	Ventana	34.345	05:02:59:07	6.033	V2682-06
 	transect	Corallimorphus pilatus	399.92	2687	 	36.788067	-122.12157	1809176	1.13	2005-07-13 17:36:34.0	Ventana	34.242	01:02:56:24	7.267	V2687-02
 	transect	Sebastolobus	 	2687	 	 	 	1810205	 	2005-07-13 19:09:12.0	Ventana	 	02:34:56:23	 	V2687-03
 	transect	Umbellula lindahli	600.9	2680	 	36.78581	-122.23078	1805845	0.36	2005-06-27 19:31:41.0	Ventana	34.377	02:10:20:05	5.603	V2680-03
 	transect	Mesomyaria	999.8	2669	 	36.73061	-122.22919	1651060	0.45	2005-05-25 18:08:11.0	Ventana	34.523	00:30:38:07	3.906	V2669-01
 	transect	Porifera sp. 1	 	2687	 	 	 	1807580	 	2005-07-13 17:16:05.0	Ventana	 	00:42:58:12	 	V2687-01
 	transect	Phyllospadix	 	2687	 	 	 	1809928	 	2005-07-13 18:48:14.0	Ventana	 	02:14:00:09	 	V2687-03
 	transect	Nanomia bijuga	200.38	2681	 	36.69831	-122.0534	2491216	1.68	2005-07-07 17:12:48.0	Ventana	34.2	00:43:56:04	8.337	V2681-01HD
 	cruise	Liponema brevicornis	500.76	2694	 	36.784546	-122.20046	1676176	0.75	2005-07-27 17:15:04.0	Ventana	34.288	00:08:12:11	6.474	V2694-01
 	transect	Mediaster	 	2687	 	 	 	1812508	 	2005-07-13 20:42:43.0	Ventana	 	04:07:13:27	 	V2687-05
 	ascend	Nanomia	258.17	2681	 	36.697838	-122.05522	1719501	 	2005-07-07 21:29:59.0	Ventana	 	05:08:32:13	 	V2681-05
 	transect	Mesomyaria	1000.09	2669	 	36.732533	-122.25018	1736911	0.41	2005-05-25 20:34:14.0	Ventana	34.51	02:55:43:18	4.068	V2669-03
 	transect	Ceriantharia sp. 2	998.9	2669	 	36.73284	-122.25159	1737234	0.4	2005-05-25 20:42:42.0	Ventana	34.509	03:03:31:26	4.072	V2669-04
 	transect	Phyllospadix	997.35	2669	 	36.730637	-122.22748	1649155	0.45	2005-05-25 17:57:08.0	Ventana	34.52	00:19:36:10	3.909	V2669-01
 	transect	Psolus squamatus	 	2687	 	 	 	1808793	 	2005-07-13 17:29:36.0	Ventana	 	00:56:28:11	 	V2687-01
 	transect	Phyllospadix	 	2687	 	 	 	1806980	 	2005-07-13 16:52:29.0	Ventana	 	00:19:23:08	 	V2687-01
 	transect	Aegina	700.64	2681	 	36.69763	-122.0535	2497633	0.29	2005-07-07 18:37:05.0	Ventana	34.432	02:06:49:17	4.981	V2681-03HD
 	descend	Copepoda	403.35	2682	 	36.698273	-122.05985	1720714	0.82	2005-07-08 17:38:07.0	Ventana	34.256	01:31:38:06	6.598	V2682-02
 	transect	Ceriantharia sp. 1	599.76	2680	 	36.777905	-122.22306	1804324	0.36	2005-06-27 17:52:07.0	Ventana	34.379	00:32:14:02	5.585	V2680-01
 	transect	Sebastolobus altivelis	801.97	2674	 	36.751793	-122.21071	1801039	0.35	2005-06-08 18:23:02.0	Ventana	34.489	01:07:07:15	4.322	V2674-02
 	transect	Calycophorae	300.43	2681	 	36.69706	-122.052574	2492384	1.23	2005-07-07 17:24:42.0	Ventana	34.234	00:55:49:02	7.392	V2681-01HD
 	transect	sinker	901.05	2681	 	36.69606	-122.05204	2498325	0.39	2005-07-07 19:10:46.0	Ventana	34.506	02:40:27:00	4.171	V2681-03HD
 	ascend	Appendicularia	468.97	2681	 	36.698997	-122.05421	1717766	0.56	2005-07-07 20:36:03.8	Ventana	34.32	04:05:04:04	6.275	V2681-04
 	descend	Dosidicus gigas	672.38	2682	 	36.698658	-122.05995	1721406	0.28	2005-07-08 18:12:01.0	Ventana	34.413	02:05:06:09	5.189	V2682-03
 	ascend	Crustacea	630.95	2683	 	36.70498	-122.050255	1757945	0.3	2005-07-11 21:10:25.0	Ventana	34.396	04:43:17:02	5.414	V2683-05
 	ascend	Chaetognatha	413.21	2683	 	36.704113	-122.05059	1758051	0.94	2005-07-11 21:19:45.0	Ventana	34.259	04:52:36:08	6.874	V2683-05
 	transect	Mesomyaria	802.79	2674	 	36.752262	-122.20622	1799904	0.36	2005-06-08 18:00:54.0	Ventana	34.489	00:45:26:18	4.334	V2674-01
 	transect	Mediaster	 	2687	 	 	 	1810528	 	2005-07-13 19:21:41.0	Ventana	 	02:47:24:25	 	V2687-03
 	transect	Ceriantharia sp. 1	598.36	2680	 	36.781525	-122.226654	1805016	0.36	2005-06-27 18:37:48.0	Ventana	34.376	01:16:54:04	5.6	V2680-02
 	transect	Umbellula lindahli	598.64	2680	 	36.78198	-122.226974	1805076	0.35	2005-06-27 18:42:53.0	Ventana	34.378	01:21:58:19	5.586	V2680-02
 	ascend	water	 	2687	 	 	 	1812831	 	2005-07-13 21:06:14.0	Ventana	 	04:30:43:23	 	V2687-05
 	cruise	Osteichthyes	293.85	2676	 	36.805115	-122.02918	1676682	1.45	2005-06-14 17:26:59.0	Ventana	34.214	01:06:44:10	7.881	V2676-02
 	transect	Ceriantharia sp. 2	1000.21	2669	 	36.731472	-122.242004	1694445	0.4	2005-05-25 19:39:26.0	Ventana	34.509	02:01:23:04	4.077	V2669-02
 	transect	Phyllospadix	798.94	2674	 	36.75143	-122.214745	1801376	0.35	2005-06-08 18:43:06.0	Ventana	34.49	01:27:10:04	4.332	V2674-02
 	ascend	Lensia	359.91	2693	 	36.694065	-122.06102	1758880	1.24	2005-07-25 21:03:00.0	Ventana	34.237	03:27:32:20	7.346	V2693-04
 	descend	rock outcrop	443.41	2676	http://search.mbari.org/ARCHIVE/frameGrabs/Ventana/images/2676/00_23_14_08.jpg	36.80315	-122.02924	20003906	0.63	2005-06-14 16:39:04.0	Ventana	34.334	00:23:14:08	6.371	V2676-01
 	transect	molt	50.37	2681	 	36.69983	-122.05429	2485721	3.02	2005-07-07 16:39:12.0	Ventana	33.906	00:10:21:17	9.638	V2681-01HD
 	transect	Mesomyaria	999.51	2669	 	36.731056	-122.235085	1684268	0.45	2005-05-25 18:51:04.0	Ventana	34.523	01:13:04:18	3.923	V2669-02
 	transect	Mesomyaria	 	2669	 	 	 	1737603	 	2005-05-25 13:53:03.0	Ventana	 	03:13:50:29	 	V2669-04
 	transect	Psolus squamatus	 	2687	 	 	 	1807640	 	2005-07-13 17:19:58.0	Ventana	 	00:46:50:16	 	V2687-01
 	descend	Poeobius meseres	843.71	2681	 	36.69697	-122.053215	1716478	0.32	2005-07-07 19:04:18.433	Ventana	34.487	02:34:00:22	4.358	V2681-03
 	cruise	Glyptocephalus zachirus	434.63	2688	 	36.80523	-122.01899	1677697	0.92	2005-07-14 17:45:24.327	Ventana	34.27	01:31:07:10	6.923	V2688-02
 	ascend	Appendicularia	465.24	2682	 	36.69834	-122.06306	1723707	0.59	2005-07-08 21:17:33.0	Ventana	34.306	05:09:13:00	6.323	V2682-06
 	transect	Mesomyaria	997.61	2669	 	36.730606	-122.227104	1649095	0.45	2005-05-25 17:54:42.0	Ventana	34.522	00:17:10:11	3.911	V2669-01
 	transect	Ophiuroidea	1000.37	2669	 	36.732037	-122.247375	1735882	0.41	2005-05-25 20:14:44.0	Ventana	34.511	02:36:13:20	4.07	V2669-03
 	transect	Umbellula lindahli	600.42	2680	 	36.777264	-122.22244	1804264	0.36	2005-06-27 17:44:18.0	Ventana	34.379	00:24:25:17	5.581	V2680-01
 	descend	Calycophorae	206.2	2693	 	36.69605	-122.05836	1758314	1.81	2005-07-25 18:26:00.0	Ventana	34.185	01:06:05:27	8.701	V2693-02
 	transect	Ceriantharia sp. 2	 	2669	 	 	 	1737663	 	2005-05-25 13:55:26.0	Ventana	 	03:16:13:24	 	V2669-04
 	transect	Rathbunaster californicus	200.26	2696	 	36.805004	-122.12775	1813551	1.51	2005-08-01 17:59:05.0	Ventana	34.212	01:26:58:03	8.677	V2696-02
 	transect	Mesomyaria	801.05	2674	 	36.752132	-122.20816	1800716	0.35	2005-06-08 18:10:24.0	Ventana	34.489	00:54:55:15	4.328	V2674-01
 	transect	Mediaster	 	2687	 	 	 	1811340	 	2005-07-13 20:08:13.0	Ventana	 	03:33:12:23	 	V2687-04
 	cruise	Sebastolobus	361.67	2688	 	36.807514	-122.01975	1677757	1.15	2005-07-14 17:55:36.0	Ventana	34.238	01:41:18:21	7.37	V2688-02
 	transect	Mediaster	 	2687	 	 	 	1812568	 	2005-07-13 20:45:43.0	Ventana	 	04:10:14:10	 	V2687-05
 	transect	zoarcidae	400.75	2681	 	36.696762	-122.052345	2493044	0.79	2005-07-07 17:45:18.0	Ventana	34.277	01:15:41:21	6.659	V2681-02HD
 	transect	Sebastolobus	999.3	2669	 	36.73106	-122.233925	1684005	0.45	2005-05-25 18:41:28.0	Ventana	34.522	01:03:28:16	3.913	V2669-02
 	transect	Sebastolobus altivelis	802.76	2674	 	36.75084	-122.22005	1803664	0.34	2005-06-08 19:06:55.0	Ventana	34.482	01:50:56:26	4.385	V2674-02
 	transect	Poeobius meseres	1000.95	2681	 	36.696487	-122.052864	2498708	0.47	2005-07-07 19:30:07.0	Ventana	34.532	02:59:47:27	3.877	V2681-03HD
 	transect	Phyllospadix	 	2687	 	 	 	1810897	 	2005-07-13 19:41:43.0	Ventana	 	03:06:44:29	 	V2687-04
 	transect	Mesomyaria	999.42	2669	 	36.73097	-122.23169	1683668	0.45	2005-05-25 18:28:27.0	Ventana	34.523	00:50:53:26	3.912	V2669-01
 	transect	Porifera sp. 1	 	2687	 	 	 	1807197	 	2005-07-13 17:03:20.0	Ventana	 	00:30:14:22	 	V2687-01
 	transect	Mediaster	399.84	2687	 	36.78913	-122.12416	1809545	1.17	2005-07-13 18:14:42.0	Ventana	34.241	01:41:02:05	7.351	V2687-02
 	transect	molt	100.49	2681	 	36.69897	-122.05374	2489864	2.12	2005-07-07 16:52:00.0	Ventana	34.07	00:23:09:24	9.148	V2681-01HD
 	transect	Chionoecetes tanneri	1000.29	2669	 	36.73119	-122.24062	1689286	0.41	2005-05-25 19:31:34.0	Ventana	34.511	01:53:32:11	4.055	V2669-02
 	descend	Appendicularia	918.27	2683	 	36.703663	-122.048615	1757299	0.38	2005-07-11 19:06:09.0	Ventana	34.502	02:46:31:29	4.198	V2683-03
 	transect	Psolus squamatus	399.87	2687	 	36.788136	-122.1217	1809282	1.13	2005-07-13 17:38:17.0	Ventana	34.25	01:04:39:06	7.281	V2687-02
 	transect	Mediaster	 	2687	 	 	 	1811493	 	2005-07-13 20:14:39.0	Ventana	 	03:39:38:02	 	V2687-04
 	transect	Sergestes similis	300.41	2681	 	36.696888	-122.05243	2492444	1.23	2005-07-07 17:25:18.0	Ventana	34.234	00:56:25:27	7.393	V2681-01HD
 	transect	Calycophorae	600.57	2681	 	36.696915	-122.05264	2493796	0.3	2005-07-07 18:24:16.0	Ventana	34.388	01:54:36:18	5.476	V2681-02HD
 	transect	Mediaster	 	2687	 	 	 	1810588	 	2005-07-13 19:23:06.0	Ventana	 	02:48:49:22	 	V2687-03
 	ascend	Mysidae	934.9	2681	 	36.697636	-122.05409	1716967	0.41	2005-07-07 19:43:27.333	Ventana	34.513	03:12:30:27	4.079	V2681-04
 	transect	Mesomyaria	802.12	2674	 	36.75224	-122.206604	1799964	0.37	2005-06-08 18:03:04.0	Ventana	34.489	00:47:36:16	4.322	V2674-01
 	transect	Phyllospadix	598.88	2680	 	36.780506	-122.22545	1804707	0.35	2005-06-27 18:23:49.0	Ventana	34.381	01:02:55:29	5.567	V2680-02
 	transect	Phyllospadix	798.23	2674	 	36.751614	-122.213875	1801316	0.35	2005-06-08 18:37:26.0	Ventana	34.488	01:21:30:05	4.338	V2674-02
 	transect	Neptunea amianta	802.68	2674	 	36.75183	-122.21005	1800979	0.36	2005-06-08 18:20:13.0	Ventana	34.49	01:04:18:05	4.32	V2674-02
 	transect	Phyllospadix	800.63	2674	 	36.75259	-122.20174	1799105	0.34	2005-06-08 17:37:29.0	Ventana	34.479	00:22:03:04	4.42	V2674-01
 	ascend	Appendicularia	257.36	2681	 	36.69873	-122.05677	1719104	1.44	2005-07-07 21:22:42.9	Ventana	34.226	04:51:01:28	7.957	V2681-05
 	descend	Copepoda	557.79	2683	 	36.701767	-122.04915	1756962	0.44	2005-07-11 17:45:09.0	Ventana	34.34	01:29:15:04	6.06	V2683-02
 	transect	Mediaster	 	2687	 	 	 	1811756	 	2005-07-13 20:24:37.0	Ventana	 	03:49:35:11	 	V2687-04
 	transect	Mesomyaria	1000.32	2669	 	36.730934	-122.23369	1683931	0.45	2005-05-25 18:40:01.0	Ventana	34.522	01:02:02:05	3.912	V2669-02
 	transect	Mesomyaria	999.52	2669	 	36.731003	-122.23233	1683728	0.45	2005-05-25 18:31:36.0	Ventana	34.519	00:54:02:05	3.923	V2669-01
 	transect	Rathbunaster californicus	202.82	2696	 	36.805256	-122.12819	1813657	1.47	2005-08-01 18:11:53.0	Ventana	34.215	01:39:44:16	8.598	V2696-02
 	transect	ink	800.87	2681	 	36.696815	-122.052864	2498265	0.31	2005-07-07 19:01:51.0	Ventana	34.475	02:31:33:03	4.506	V2681-03HD
 	cruise	Microstomus pacificus	342.66	2688	 	36.807896	-122.0201	1677817	1.21	2005-07-14 18:06:16.0	Ventana	34.23	01:51:58:03	7.493	V2688-02
 	ascend	sinker	816.01	2682	 	36.698654	-122.05881	1723261	0.32	2005-07-08 20:23:37.0	Ventana	34.469	04:15:46:29	4.538	V2682-05
 	ascend	Appendicularia	692.87	2683	 	36.705723	-122.04915	1757885	0.3	2005-07-11 21:06:23.0	Ventana	34.44	04:39:14:27	4.929	V2683-05
 	transect	Psolus squamatus	 	2687	 	 	 	1808913	 	2005-07-13 17:31:48.0	Ventana	 	00:58:40:29	 	V2687-01
 	endtransect	color bars	300.38	2681	 	36.695724	-122.05134	1713650	1.24	2005-07-07 17:29:42.533	Ventana	34.233	01:00:49:27	7.414	V2681-01
 	descend	Cyclothone	349.97	2682	 	36.6986	-122.06041	1720313	1.02	2005-07-08 17:18:37.0	Ventana	34.254	01:12:09:11	7.103	V2682-02
 	descend	Poeobius meseres	844.31	2683	 	36.702866	-122.0484	1757225	0.33	2005-07-11 18:25:01.0	Ventana	34.482	02:09:05:28	4.408	V2683-02
 	transect	Mediaster	 	2687	 	 	 	1811876	 	2005-07-13 20:28:05.0	Ventana	 	03:53:03:14	 	V2687-04
 	transect	Phyllospadix	800.08	2674	 	36.752632	-122.20039	1774109	0.29	2005-06-08 17:30:10.0	Ventana	34.461	00:14:44:08	4.65	V2674-01
 	transect	Psolus squamatus	 	2687	 	 	 	1808733	 	2005-07-13 17:27:55.0	Ventana	 	00:54:48:01	 	V2687-01
 	ascend	Appendicularia	967.81	2681	 	36.697117	-122.05352	1716801	0.43	2005-07-07 19:37:53.967	Ventana	34.519	03:06:57:12	4.017	V2681-04
 	transect	Appendicularia	500.59	2681	 	36.697224	-122.0529	2493487	0.44	2005-07-07 17:58:12.0	Ventana	34.346	01:28:35:07	6.026	V2681-02HD
 	ascend	Calycophorae	258.17	2681	 	36.697838	-122.05522	1719561	 	2005-07-07 21:29:59.0	Ventana	 	05:14:00:12	 	V2681-05
 	cruise	lasers	997.85	2669	 	36.73053	-122.22683	1649035	0.45	2005-05-25 17:51:37.0	Ventana	34.522	00:14:05:15	3.909	V2669-01
 	cruise	Pleuronectiformes	611.68	2688	 	36.793633	-122.01907	1677268	0.48	2005-07-14 16:25:10.0	Ventana	34.371	00:11:31:05	5.667	V2688-01
 	transect	Phyllospadix	196.28	2696	 	36.803085	-122.12268	1813108	1.56	2005-08-01 17:07:01.0	Ventana	34.198	00:35:19:14	8.622	V2696-01
 	ascend	Copepoda	866.99	2681	 	36.698444	-122.0555	1717350	0.34	2005-07-07 19:53:07.233	Ventana	34.499	03:22:10:07	4.311	V2681-04
 	ascend	Nanomia	258.17	2681	 	36.697838	-122.05522	1719381	 	2005-07-07 21:29:59.0	Ventana	 	05:03:06:03	 	V2681-05
 	transect	Ceriantharia sp. 1	603.06	2680	 	36.7887	-122.2324	1805965	0.35	2005-06-27 20:02:36.0	Ventana	34.378	02:41:13:24	5.588	V2680-03
 	cruise	Rathbunaster californicus	248.3	2676	 	36.805714	-122.02947	1676742	1.56	2005-06-14 17:37:32.0	Ventana	34.206	01:17:16:22	8.045	V2676-02
 	cruise	Poralia rufescens	1205.26	2683	 	36.707073	-122.04762	1757682	0.72	2005-07-11 20:18:53.0	Ventana	34.573	03:53:14:28	3.357	V2683-04
 	transect	Euphausia	200.41	2681	 	36.698296	-122.05335	2491096	1.69	2005-07-07 17:11:46.0	Ventana	34.198	00:42:54:08	8.335	V2681-01HD
 	transect	Polychaeta	901.01	2681	 	36.695465	-122.0513	2498445	0.39	2005-07-07 19:13:34.0	Ventana	34.505	02:43:14:19	4.171	V2681-03HD
 	ascend	Nanomia	256.96	2681	 	36.697968	-122.055	1719238	1.46	2005-07-07 21:26:18.107	Ventana	34.224	04:54:36:29	7.989	V2681-05
 	transect	Ceriantharia sp. 2	999.91	2669	 	36.731388	-122.23688	1687013	0.44	2005-05-25 19:05:18.0	Ventana	34.521	01:27:17:06	3.939	V2669-02
 	transect	Sebastolobus altivelis	800.54	2674	 	36.75123	-122.21617	1803401	0.35	2005-06-08 18:50:04.0	Ventana	34.488	01:34:07:13	4.337	V2674-02
 	cruise	Sebastes	107.42	2688	 	36.81134	-122.0226	1678020	1.94	2005-07-14 18:47:34.0	Ventana	34.093	02:32:49:16	8.892	V2688-03
 	descend	Bathocyroe	633.99	2682	 	36.698624	-122.05987	1721300	0.28	2005-07-08 18:09:08.0	Ventana	34.399	02:02:13:21	5.347	V2682-03
 	ascend	Polychaeta	591.04	2682	 	36.698788	-122.06075	1723464	0.4	2005-07-08 20:47:38.0	Ventana	34.37	04:39:45:27	5.67	V2682-05
 	transect	Nanomia bijuga	200.48	2681	 	36.69828	-122.05329	2490524	1.71	2005-07-07 17:07:18.0	Ventana	34.197	00:38:25:27	8.341	V2681-01HD
 	transect	Mesomyaria	800.38	2674	 	36.75257	-122.20215	1799165	0.33	2005-06-08 17:39:28.0	Ventana	34.476	00:24:01:25	4.446	V2674-01
 	transect	Microstomus pacificus	198.88	2696	 	36.80375	-122.12485	1813288	1.53	2005-08-01 17:31:33.0	Ventana	34.203	00:59:50:21	8.636	V2696-01
 	cruise	LRJ Complex	541.77	2688	 	36.79809	-122.01971	1677434	0.62	2005-07-14 17:00:37.0	Ventana	34.322	00:46:55:09	6.264	V2688-01
 	descend	Aegina	605.78	2683	 	36.70195	-122.049034	1757022	0.35	2005-07-11 17:49:32.0	Ventana	34.369	01:33:39:16	5.764	V2683-02
 	transect	Dosidicus gigas	500.59	2681	 	36.69776	-122.05353	2493307	0.44	2005-07-07 17:55:43.0	Ventana	34.346	01:26:05:08	6.021	V2681-02HD
 	descend	Aegina	700.74	2681	 	36.697903	-122.05372	1716141	0.29	2005-07-07 18:35:49.633	Ventana	34.431	02:05:34:06	4.982	V2681-03
 	transect	Mediaster	 	2687	 	 	 	1812245	 	2005-07-13 20:29:51.0	Ventana	 	03:54:49:00	 	V2687-04
 	transect	Poeobius meseres	600.52	2681	 	36.69776	-122.053665	2493856	0.3	2005-07-07 18:27:59.0	Ventana	34.387	01:58:21:00	5.48	V2681-02HD
 	transect	Brisaster	999.7	2669	 	36.73192	-122.246086	1735619	0.41	2005-05-25 20:04:09.0	Ventana	34.51	02:25:39:25	4.062	V2669-03
 	descend	Appendicularia	279.19	2683	 	36.701	-122.05024	1756473	1.34	2005-07-11 16:52:23.0	Ventana	34.238	00:40:03:00	7.799	V2683-01
 	ascend	Chaetognatha	370.87	2693	 	36.69618	-122.060905	1758637	1.2	2005-07-25 20:23:21.0	Ventana	34.232	03:02:53:17	7.148	V2693-03
 	descend	Mysidae	981.46	2683	 	36.70409	-122.048836	1757359	0.42	2005-07-11 19:14:34.0	Ventana	34.519	02:54:56:24	4.03	V2683-03
 	descend	Chaetognatha	148.69	2683	 	36.700676	-122.05166	1756270	1.69	2005-07-11 16:25:17.0	Ventana	34.17	00:12:58:23	8.855	V2683-01
 	transect	Appendicularia	1001.01	2681	 	36.695816	-122.05193	2498648	0.48	2005-07-07 19:26:58.0	Ventana	34.536	02:56:37:26	3.854	V2681-03HD
 	descend	Appendicularia	778.0	2682	 	36.698368	-122.05977	1721669	0.3	2005-07-08 18:33:58.0	Ventana	34.455	02:27:01:25	4.69	V2682-03
 	descend	Copepoda	1166.21	2683	 	36.706745	-122.04801	1757502	0.68	2005-07-11 19:34:46.0	Ventana	34.562	03:15:05:26	3.458	V2683-03
 	transect	Ceriantharia sp. 2	997.31	2669	 	36.7306	-122.22794	1683345	0.45	2005-05-25 18:00:19.0	Ventana	34.521	00:22:47:25	3.907	V2669-01
 	ascend	Appendicularia	409.49	2681	 	36.699238	-122.054375	1717969	0.82	2005-07-07 20:46:40.7	Ventana	34.279	04:15:02:14	6.764	V2681-05
 	ascend	Chuniphyes	1014.42	2682	 	36.697723	-122.05811	1722878	0.47	2005-07-08 20:04:49.0	Ventana	34.528	03:57:23:18	3.89	V2682-04
 	transect	Phyllospadix	199.93	2696	 	36.80464	-122.126976	1813491	1.51	2005-08-01 17:52:38.0	Ventana	34.211	01:20:30:27	8.67	V2696-02
 	transect	Lycenchelys camchatica	801.33	2674	 	36.750957	-122.21876	1803604	0.35	2005-06-08 19:01:25.0	Ventana	34.487	01:45:28:02	4.352	V2674-02
 	transect	Mesomyaria	1000.15	2669	 	36.731075	-122.23872	1689060	0.43	2005-05-25 19:19:30.0	Ventana	34.514	01:41:28:21	3.969	V2669-02
 	descend	Mysidae	1182.62	2682	 	36.698284	-122.05798	1722329	0.66	2005-07-08 19:39:58.0	Ventana	34.569	03:32:34:05	3.414	V2682-04
 	transect	Mesomyaria	799.87	2674	 	36.752457	-122.20495	1799691	0.35	2005-06-08 17:54:27.0	Ventana	34.486	00:39:00:08	4.357	V2674-01
 	transect	Appendicularia	400.77	2681	 	36.697174	-122.0528	2493104	0.79	2005-07-07 17:47:00.0	Ventana	34.277	01:17:23:12	6.661	V2681-02HD
 	transect	Caridea sp.1	602.78	2680	 	36.78955	-122.23257	1806717	0.35	2005-06-27 20:11:42.0	Ventana	34.38	02:50:19:09	5.59	V2680-03
 	transect	Ceriantharia sp. 2	1000.5	2669	 	36.73214	-122.24813	1736191	0.41	2005-05-25 20:19:59.0	Ventana	34.509	02:41:27:24	4.061	V2669-03
 	transect	Psolus squamatus	 	2687	 	 	 	1808590	 	2005-07-13 17:24:36.0	Ventana	 	00:51:28:26	 	V2687-01
 	cruise	rockwall	102.97	2688	 	36.81382	-122.01794	1679229	1.97	2005-07-14 19:33:27.0	Ventana	34.09	03:18:14:10	8.909	V2688-04
 	descend	Solmaris	505.02	2683	 	36.701523	-122.04918	1756842	0.68	2005-07-11 17:37:53.0	Ventana	34.305	01:21:58:20	6.462	V2683-02
 	transect	lobata	500.6	2681	 	36.696056	-122.05157	2493630	0.43	2005-07-07 18:03:07.0	Ventana	34.347	01:33:29:25	6.006	V2681-02HD
 	cruise	Actiniaria	498.62	2695	 	36.784405	-122.20021	1824420	0.89	2005-07-28 17:04:30.0	Ventana	34.266	00:10:52:08	6.719	V2695-01
 	transect	Acanthamunnopsis milleri	200.46	2681	 	36.698402	-122.05348	2491419	1.68	2005-07-07 17:14:09.0	Ventana	34.2	00:45:16:03	8.341	V2681-01HD
 	descend	Appendicularia	403.8	2683	 	36.701485	-122.04953	1756639	0.95	2005-07-11 17:02:56.0	Ventana	34.26	00:50:36:06	6.954	V2683-01
 	transect	Mediaster	 	2687	 	 	 	1810754	 	2005-07-13 19:31:42.0	Ventana	 	02:57:25:08	 	V2687-03
 	ascend	sinker	735.53	2681	 	36.698727	-122.05547	1717553	0.26	2005-07-07 20:16:36.0	Ventana	34.442	03:45:37:16	4.858	V2681-04
 	transect	Allocentrotus fragilis	 	2687	 	 	 	1811280	 	2005-07-13 20:05:34.0	Ventana	 	03:30:33:21	 	V2687-04
 	transect	Mesomyaria	1000.14	2669	 	36.731243	-122.23834	1688857	0.43	2005-05-25 19:17:23.0	Ventana	34.516	01:39:21:29	3.98	V2669-02
 	transect	Mesomyaria	999.81	2669	 	36.731773	-122.24441	1734301	0.4	2005-05-25 19:52:22.0	Ventana	34.507	02:13:52:11	4.082	V2669-03
 	transect	Psolus squamatus	399.84	2687	http://search.mbari.org/ARCHIVE/frameGrabs/Ventana/images/2687/01_02_17_21.jpg	36.788036	-122.12153	1809116	1.13	2005-07-13 17:35:55.0	Ventana	34.244	01:02:17:21	7.27	V2687-02
 	descend	Hormiphora	177.08	2693	 	36.696083	-122.05814	1758254	1.93	2005-07-25 18:07:33.0	Ventana	34.15	00:48:03:11	8.884	V2693-01
 	descend	Poeobius meseres	631.91	2681	 	36.697956	-122.05388	1715938	0.31	2005-07-07 18:29:47.933	Ventana	34.397	02:00:08:16	5.357	V2681-02
 	cruise	Pleuronectiformes	461.97	2676	 	36.802696	-122.02935	1676296	0.58	2005-06-14 16:35:17.0	Ventana	34.34	00:19:26:02	6.231	V2676-01
 	ascend	Hastigerinella digitata	323.25	2681	 	36.6997	-122.05525	1718149	1.21	2005-07-07 20:56:54.033	Ventana	34.235	04:25:14:05	7.373	V2681-05
 	transect	Porifera sp. 1	 	2687	 	 	 	1812628	 	2005-07-13 20:48:48.0	Ventana	 	04:13:18:07	 	V2687-05
 	cruise	Zoarcidae	447.55	2688	 	36.803555	-122.01808	1677637	0.9	2005-07-14 17:37:37.0	Ventana	34.269	01:23:21:02	6.893	V2688-02
 	descend	Myctophidae	561.27	2682	 	36.698635	-122.0598	1720917	0.34	2005-07-08 18:06:10.0	Ventana	34.373	01:59:38:21	5.622	V2682-02
 	descend	Calycophorae	284.46	2693	 	36.697906	-122.06135	1758434	1.4	2005-07-25 19:36:33.0	Ventana	34.236	02:16:09:10	7.979	V2693-03
 	transect	Ophiuroidea	997.53	2669	 	36.73064	-122.227776	1649215	0.45	2005-05-25 17:58:54.0	Ventana	34.522	00:21:22:28	3.907	V2669-01
 	transect	Mediaster	 	2687	 	 	 	1812448	 	2005-07-13 20:39:13.0	Ventana	 	04:04:10:23	 	V2687-04
 	transect	Mesomyaria	800.35	2674	 	36.75205	-122.20895	1800836	0.35	2005-06-08 18:14:11.0	Ventana	34.49	00:58:42:10	4.329	V2674-01
 	transect	Ophiuroidea	998.25	2669	 	36.731155	-122.23086	1683465	0.45	2005-05-25 18:21:34.0	Ventana	34.522	00:44:00:14	3.909	V2669-01
 	starttransect	object	 	2687	 	 	 	1812711	 	2005-07-13 20:54:25.0	Ventana	 	04:18:55:13	 	V2687-05
 	transect	Neptunea amianta	800.82	2674	 	36.751114	-122.21691	1803461	0.35	2005-06-08 18:53:04.0	Ventana	34.496	01:37:07:02	4.333	V2674-02
 	transect	Mesomyaria	1000.29	2669	 	36.731255	-122.241295	1689752	0.4	2005-05-25 19:35:35.0	Ventana	34.508	01:57:33:03	4.086	V2669-02
 	ascend	Lensia	334.93	2693	 	36.69266	-122.061905	1759000	1.26	2005-07-25 21:14:33.0	Ventana	34.235	03:39:06:00	7.471	V2693-04
 	transect	Phyllospadix	799.57	2674	 	36.752457	-122.20522	1799761	0.35	2005-06-08 17:56:07.0	Ventana	34.49	00:40:39:08	4.357	V2674-01
 	transect	Nanomia bijuga	200.41	2681	 	36.698288	-122.05332	2491013	1.71	2005-07-07 17:10:48.0	Ventana	34.192	00:41:55:25	8.325	V2681-01HD
 	cruise	Sebastes	112.11	2688	http://search.mbari.org/ARCHIVE/frameGrabs/Ventana/images/2688/03_05_06_03.jpg	36.812775	-122.01997	20005239	1.97	2005-07-14 19:19:52.0	Ventana	34.094	03:05:06:03	8.919	V2688-03
 	cruise	Sergestes similis	491.19	2688	 	36.801537	-122.018524	1677554	0.77	2005-07-14 17:24:38.0	Ventana	34.291	01:10:22:22	6.628	V2688-02
 	descend	Hormiphora	281.68	2682	 	36.69973	-122.060844	1720050	1.32	2005-07-08 16:34:20.0	Ventana	34.226	00:28:24:14	7.649	V2682-01
 	transect	Ceriantharia sp. 2	1000.26	2669	 	36.73193	-122.246475	1735702	0.41	2005-05-25 20:08:17.0	Ventana	34.51	02:29:46:23	4.065	V2669-03
 	transect	Porifera sp. 1	 	2687	 	 	 	1810408	 	2005-07-13 19:17:16.0	Ventana	 	02:43:00:15	 	V2687-03
 	cruise	Pandalus platyceros	258.0	2688	 	36.80918	-122.020355	1677900	1.52	2005-07-14 18:28:25.0	Ventana	34.197	02:13:41:16	8.173	V2688-03
 	transect	Mesomyaria	998.26	2669	 	36.732998	-122.25253	1737460	0.4	2005-05-25 20:48:20.0	Ventana	34.509	03:09:09:17	4.074	V2669-04
 	transect	Pennatulacea sp.1	599.6	2680	 	36.77887	-122.22405	1804444	0.36	2005-06-27 18:04:25.0	Ventana	34.381	00:44:31:07	5.596	V2680-01
 	descend	Dosidicus gigas	448.21	2681	 	36.698086	-122.05386	1715329	0.56	2005-07-07 17:52:09.253	Ventana	34.316	01:22:31:20	6.226	V2681-02
 	descend	Myctophidae	601.83	2682	 	36.69864	-122.05981	1721240	0.35	2005-07-08 18:07:40.0	Ventana	34.389	02:00:45:23	5.441	V2682-03
 	ascend	Appendicularia	973.18	2683	 	36.707428	-122.04907	1757825	0.42	2005-07-11 20:52:49.0	Ventana	34.518	04:25:43:16	4.043	V2683-05
 	transect	Phyllospadix	800.42	2674	 	36.75202	-122.20907	1800859	0.35	2005-06-08 18:14:50.0	Ventana	34.488	00:59:21:05	4.335	V2674-01
 	descend	Hormiphora	137.16	2693	 	36.696445	-122.057755	1758171	1.93	2005-07-25 17:55:27.0	Ventana	34.11	00:35:58:20	9.072	V2693-01
 	transect	Phyllospadix	801.6	2674	 	36.752216	-122.20762	1800084	0.39	2005-06-08 18:08:00.0	Ventana	34.493	00:52:32:03	4.336	V2674-01
 	descend	Copepoda	731.24	2682	 	36.698402	-122.05967	1721586	0.29	2005-07-08 18:28:12.0	Ventana	34.44	02:21:16:06	4.868	V2682-03
 	descend	Chuniphyes	955.2	2682	 	36.69828	-122.05933	1721992	0.39	2005-07-08 18:55:20.0	Ventana	34.507	02:48:23:00	4.155	V2682-03
 	descend	Appendicularia	466.92	2683	 	36.70155	-122.049355	1756759	0.77	2005-07-11 17:13:45.0	Ventana	34.286	01:01:24:08	6.654	V2683-01
 	ascend	ink	789.48	2681	 	36.698963	-122.056564	1717433	0.3	2005-07-07 20:02:56.083	Ventana	34.459	03:31:58:14	4.688	V2681-04
 	transect	Mesomyaria	998.49	2669	 	36.73053	-122.22848	1650894	0.45	2005-05-25 18:03:38.0	Ventana	34.523	00:26:06:23	3.907	V2669-01
 	transect	Pennatulacea sp.1	602.11	2680	 	36.790672	-122.2328	1806800	0.35	2005-06-27 20:22:07.0	Ventana	34.379	03:00:43:09	5.592	V2680-03
 	transect	cydippida	200.36	2681	 	36.698338	-122.05345	2491359	1.67	2005-07-07 17:13:44.0	Ventana	34.201	00:44:51:28	8.341	V2681-01HD
 	descend	Appendicularia	809.87	2683	 	36.702667	-122.04871	1757165	0.36	2005-07-11 18:02:38.0	Ventana	34.472	01:46:44:21	4.544	V2683-02
 	transect	Phyllospadix	799.91	2674	 	36.752647	-122.201	1774169	0.33	2005-06-08 17:33:40.0	Ventana	34.474	00:18:13:21	4.439	V2674-01
 	ascend	Euphausiacea	260.93	2681	 	36.698814	-122.05696	1719044	1.42	2005-07-07 21:21:37.2	Ventana	34.231	04:49:56:09	7.954	V2681-05
 	descend	Nanomia	 	2693	 	 	 	1759429	 	2005-07-25 16:44:34.0	Ventana	 	00:23:07:20	 	V2693-01
 	transect	Phyllospadix	196.93	2696	 	36.80265	-122.12169	1813025	1.53	2005-08-01 16:56:01.0	Ventana	34.204	00:24:20:19	8.578	V2696-01
 	transect	Calliostoma platinum	 	2687	 	 	 	1808650	 	2005-07-13 17:26:14.0	Ventana	 	00:53:07:09	 	V2687-01
 	transect	Phyllospadix	203.99	2696	 	36.805782	-122.12914	1813717	1.49	2005-08-01 18:19:34.0	Ventana	34.213	01:47:25:16	8.63	V2696-02
 	cruise	Parastichopus	104.06	2676	 	36.807156	-122.04021	1677148	1.9	2005-06-14 19:11:04.0	Ventana	34.16	02:49:49:13	8.424	V2676-03
 	ascend	Poeobius meseres	1110.87	2682	 	36.698063	-122.05752	1722592	0.58	2005-07-08 19:57:55.0	Ventana	34.554	03:50:31:06	3.586	V2682-04
 	transect	Mesomyaria	1000.69	2669	 	36.73235	-122.2495	1736454	0.41	2005-05-25 20:29:38.0	Ventana	34.507	02:51:06:04	4.075	V2669-03
 	transect	Mesomyaria	999.44	2669	 	36.73133	-122.23592	1684471	0.44	2005-05-25 18:57:06.0	Ventana	34.52	01:19:05:22	3.936	V2669-02
 	transect	Ophiuroidea	999.8	2669	 	36.731743	-122.24405	1734098	0.41	2005-05-25 19:50:31.0	Ventana	34.51	02:12:03:03	4.074	V2669-03
 	transect	Phyllospadix	799.86	2674	 	36.75176	-122.21216	1801182	0.35	2005-06-08 18:28:45.0	Ventana	34.487	01:12:50:03	4.339	V2674-02
 	transect	Ophiuroidea	999.23	2669	 	36.73139	-122.23607	1684531	0.44	2005-05-25 18:57:55.0	Ventana	34.52	01:19:55:03	3.939	V2669-02
 	descend	Bolinopsis	1119.59	2683	 	36.705116	-122.048904	1757479	0.6	2005-07-11 19:31:01.0	Ventana	34.548	03:11:21:17	3.636	V2683-03
 	transect	molt	100.49	2681	 	36.699825	-122.05429	2489684	2.13	2005-07-07 16:47:51.0	Ventana	34.068	00:19:00:23	9.149	V2681-01HD
 	transect	Calliostoma platinum	 	2687	 	 	 	1807114	 	2005-07-13 17:00:09.0	Ventana	 	00:27:03:13	 	V2687-01
 	cruise	Porifera	155.31	2676	 	36.803722	-122.04268	1677208	1.72	2005-06-14 19:32:00.0	Ventana	34.161	03:10:46:28	8.4	V2676-03
 	transect	Allocentrotus fragilis	 	2687	 	 	 	1812305	 	2005-07-13 20:31:22.0	Ventana	 	03:56:20:05	 	V2687-04
 	transect	Psolus squamatus	 	2687	 	 	 	1811077	 	2005-07-13 19:51:50.0	Ventana	 	03:16:51:09	 	V2687-04
 	transect	Dosidicus gigas	400.8	2681	 	36.695854	-122.05126	2492910	0.79	2005-07-07 17:41:13.0	Ventana	34.278	01:11:37:08	6.667	V2681-02HD
 	transect	Ophiuroidea	999.86	2669	 	36.73107	-122.23891	1689083	0.43	2005-05-25 19:20:53.0	Ventana	34.518	01:42:51:17	3.96	V2669-02
 	ascend	Pantachogon	1150.64	2683	 	36.708057	-122.04894	1757765	0.69	2005-07-11 20:36:51.0	Ventana	34.566	04:11:11:17	3.427	V2683-04
 	cruise	Mysidae	1011.55	2689	 	36.771564	-122.08289	1669633	0.49	2005-07-18 16:47:15.0	Ventana	34.53	00:10:18:29	3.879	V2689-01
 	transect	Mesomyaria	999.94	2669	 	36.7326	-122.25074	1737031	0.4	2005-05-25 20:37:45.0	Ventana	34.507	02:59:13:14	4.073	V2669-03
 	ascend	Copepoda	768.11	2681	 	36.69865	-122.05616	1717493	0.28	2005-07-07 20:09:51.95	Ventana	34.452	03:38:53:27	4.767	V2681-04
 	ascend	Aegina	621.15	2682	 	36.698868	-122.05984	1723404	0.39	2005-07-08 20:37:45.0	Ventana	34.386	04:29:52:24	5.477	V2682-05
 	transect	molt	100.54	2681	 	36.69983	-122.05429	2489601	2.12	2005-07-07 16:45:50.0	Ventana	34.068	00:16:58:25	9.15	V2681-01HD
 	transect	Mediaster	 	2687	 	 	 	1812771	 	2005-07-13 20:56:51.0	Ventana	 	04:21:21:19	 	V2687-05
 	descend	Copepoda	301.16	2683	 	36.70108	-122.05015	1756496	1.25	2005-07-11 16:53:47.0	Ventana	34.243	00:41:27:27	7.701	V2683-01
 	ascend	Salpida	283.54	2681	 	36.699738	-122.05507	1718292	1.36	2005-07-07 21:02:35.82	Ventana	34.23	04:30:56:03	7.739	V2681-05
 	transect	Porifera sp. 1	 	2687	 	 	 	1811160	 	2005-07-13 19:57:56.0	Ventana	 	03:22:56:11	 	V2687-04
 	ascend	sinker	217.2	2683	 	36.70283	-122.05075	1758111	1.7	2005-07-11 21:28:16.0	Ventana	34.206	05:01:08:07	8.328	V2683-05
 	cruise	mud	91.97	2688	 	36.816284	-122.016266	1679372	2.04	2005-07-14 20:16:09.0	Ventana	34.09	04:00:53:26	8.916	V2688-04
 	ascend	Appendicularia	1089.69	2682	 	36.698055	-122.05753	1722652	0.57	2005-07-08 19:59:24.0	Ventana	34.551	03:51:58:05	3.622	V2682-04
 	transect	Mesomyaria	800.12	2674	 	36.751263	-122.21593	1803378	0.35	2005-06-08 18:48:59.0	Ventana	34.489	01:33:02:16	4.36	V2674-02
 	descend	Dosidicus gigas	552.28	2681	 	36.69568	-122.051056	1715615	0.36	2005-07-07 18:06:17.9	Ventana	34.367	01:36:39:29	5.749	V2681-02
 	transect	Porifera sp. 1	 	2687	 	 	 	1811423	 	2005-07-13 20:12:08.0	Ventana	 	03:37:07:21	 	V2687-04
 	transect	Psolus squamatus	 	2687	 	 	 	1808710	 	2005-07-13 17:27:36.0	Ventana	 	00:54:28:17	 	V2687-01
 	transect	lobata	700.63	2681	 	36.69692	-122.05278	2497693	0.29	2005-07-07 18:40:08.0	Ventana	34.436	02:09:51:07	4.928	V2681-03HD
 	transect	Dosidicus gigas	400.74	2681	 	36.697887	-122.0536	2493224	0.79	2005-07-07 17:49:57.0	Ventana	34.279	01:20:21:12	6.66	V2681-02HD
 	transect	Mesomyaria	799.93	2674	 	36.752518	-122.20365	1799368	0.35	2005-06-08 17:47:25.0	Ventana	34.483	00:31:57:24	4.378	V2674-01
 	transect	Psolus squamatus	 	2687	 	 	 	1808996	 	2005-07-13 17:33:14.0	Ventana	 	01:00:06:18	 	V2687-01
 	transect	Aegina	400.83	2681	 	36.696114	-122.051575	2492961	0.79	2005-07-07 17:42:29.0	Ventana	34.277	01:12:53:25	6.661	V2681-02HD
 	cruise	Anoplopoma fimbria	517.88	2688	 	36.80007	-122.01897	1677494	0.66	2005-07-14 17:10:00.83	Ventana	34.314	00:56:18:11	6.366	V2688-01
 	transect	Mesomyaria	999.87	2669	 	36.7314	-122.23727	1687479	0.44	2005-05-25 19:08:46.0	Ventana	34.519	01:30:45:04	3.947	V2669-02
 	transect	Rathbunaster californicus	199.44	2696	 	36.804077	-122.12574	1813371	1.52	2005-08-01 17:40:20.0	Ventana	34.213	01:08:13:09	8.663	V2696-02
 	ascend	Chaetognatha	281.1	2693	 	36.69142	-122.0622	1759083	1.41	2005-07-25 21:20:21.0	Ventana	34.244	03:44:51:29	8.157	V2693-04
 	transect	Pennatula phosphorea californica	599.37	2680	 	36.779465	-122.224556	1804527	0.36	2005-06-27 18:10:27.0	Ventana	34.377	00:50:33:03	5.604	V2680-01
 	transect	Allocentrotus fragilis	 	2687	 	 	 	1810325	 	2005-07-13 19:15:40.0	Ventana	 	02:41:24:11	 	V2687-03
 	transect	Phyllospadix	998.09	2669	 	36.730556	-122.22829	1649358	0.45	2005-05-25 18:02:26.0	Ventana	34.521	00:24:54:24	3.909	V2669-01
 	transect	Brisaster	999.7	2669	 	36.731422	-122.23666	1684817	0.44	2005-05-25 19:03:19.0	Ventana	34.521	01:25:18:26	3.939	V2669-02
 	transect	Chionoecetes tanneri	805.0	2674	 	36.75069	-122.221245	1803724	0.34	2005-06-08 19:13:28.0	Ventana	34.486	01:57:29:26	4.413	V2674-02
 	transect	molt	100.59	2681	 	36.69983	-122.05429	2489541	2.13	2005-07-07 16:44:08.0	Ventana	34.067	00:15:17:29	9.146	V2681-01HD
 	transect	Lycenchelys camchatica	1000.15	2669	 	36.73164	-122.243416	1733835	0.41	2005-05-25 19:46:59.0	Ventana	34.511	02:08:30:12	4.068	V2669-03
 	transect	Phyllospadix	799.14	2674	 	36.751713	-122.21279	1801233	0.35	2005-06-08 18:30:54.0	Ventana	34.489	01:14:58:28	4.334	V2674-02
 	transect	Psolus squamatus	 	2687	 	 	 	1811220	 	2005-07-13 20:03:57.0	Ventana	 	03:28:57:02	 	V2687-04
 	transect	phialidium	600.59	2681	 	36.69623	-122.05182	2493713	0.3	2005-07-07 18:21:05.0	Ventana	34.387	01:51:26:06	5.491	V2681-02HD
 	ascend	Appendicularia	588.73	2682	 	36.69844	-122.06222	1723564	0.39	2005-07-08 21:04:55.0	Ventana	34.366	04:57:01:14	5.729	V2682-05
 	transect	Rathbunaster californicus	201.85	2696	 	36.805256	-122.12819	1813634	1.5	2005-08-01 18:08:39.0	Ventana	34.211	01:36:30:19	8.665	V2696-02
 	transect	Appendicularia	800.87	2681	 	36.696213	-122.05219	2498242	0.31	2005-07-07 18:59:24.0	Ventana	34.475	02:29:05:16	4.501	V2681-03HD
 	transect	Chaetognatha	200.46	2681	 	36.69828	-122.05329	2490201	1.7	2005-07-07 17:05:42.0	Ventana	34.198	00:36:50:08	8.361	V2681-01HD
 	transect	Pennatulacea sp.1	599.96	2680	 	36.78399	-122.229416	1805482	0.36	2005-06-27 19:12:55.0	Ventana	34.378	01:51:58:14	5.604	V2680-02
 	descend	Nanomia	445.93	2683	 	36.70157	-122.04939	1756699	0.82	2005-07-11 17:08:36.0	Ventana	34.276	00:56:14:16	6.735	V2683-01
 	cruise	Nanomia	349.0	2676	 	36.804455	-122.03107	1676236	1.14	2005-06-14 16:22:50.0	Ventana	34.241	00:07:00:08	7.34	V2676-01
 	transect	Chaetognatha	300.41	2681	 	36.696648	-122.05223	2492504	1.23	2005-07-07 17:26:06.0	Ventana	34.234	00:57:13:01	7.397	V2681-01HD
 	transect	Lycenchelys camchatica	801.78	2674	 	36.752266	-122.2071	1800024	0.36	2005-06-08 18:05:18.0	Ventana	34.492	00:49:50:02	4.356	V2674-01
 	transect	Diogenidae	602.04	2680	 	36.791588	-122.232956	1806860	0.36	2005-06-27 20:29:10.0	Ventana	34.378	03:07:45:19	5.589	V2680-03
 	transect	Ceriantharia sp. 2	998.5	2669	 	36.73111	-122.230705	1683405	0.45	2005-05-25 18:20:04.0	Ventana	34.521	00:42:31:10	3.912	V2669-01
 	ascend	Appendicularia	370.93	2681	 	36.699356	-122.05485	1718029	0.97	2005-07-07 20:50:41.933	Ventana	34.265	04:19:02:14	7.06	V2681-05
 	transect	Gastropoda sp.2	998.89	2669	 	36.73114	-122.23408	1694648	0.45	2005-05-25 18:42:26.0	Ventana	34.523	01:04:26:25	3.914	V2669-02
 	transect	molt	100.49	2681	 	36.699806	-122.05428	2489744	2.12	2005-07-07 16:49:25.0	Ventana	34.067	00:20:33:12	9.156	V2681-01HD
 	transect	Microstomus pacificus	 	2687	 	 	 	1807174	 	2005-07-13 17:02:40.0	Ventana	 	00:29:34:03	 	V2687-01
 	transect	Diogenidae	598.97	2680	 	36.779984	-122.22502	1804587	0.35	2005-06-27 18:17:21.0	Ventana	34.384	00:57:26:18	5.531	V2680-01
 	transect	molt	100.48	2681	 	36.698826	-122.05364	2489887	2.14	2005-07-07 16:52:24.0	Ventana	34.068	00:23:33:14	9.136	V2681-01HD
 	transect	Mesomyaria	1000.61	2669	 	36.73243	-122.249954	1736768	0.41	2005-05-25 20:32:34.0	Ventana	34.509	02:54:02:20	4.065	V2669-03
 	transect	Mesomyaria	998.36	2669	http://search.mbari.org/ARCHIVE/frameGrabs/Ventana/images/2669/03_06_58_25.jpg	36.732944	-122.25215	1737377	0.4	2005-05-25 20:46:09.0	Ventana	34.51	03:06:58:25	4.074	V2669-04
 	descend	Appendicularia	523.38	2683	 	36.70146	-122.04913	1756902	0.58	2005-07-11 17:41:46.0	Ventana	34.32	01:25:52:05	6.285	V2683-02
 	transect	Mesomyaria	800.21	2674	 	36.75209	-122.20857	1800776	0.35	2005-06-08 18:12:21.0	Ventana	34.488	00:56:53:06	4.326	V2674-01
 	transect	Poeobius meseres	1001.03	2681	 	36.695213	-122.05115	2498588	0.49	2005-07-07 19:23:39.0	Ventana	34.535	02:53:20:10	3.835	V2681-03HD
 	transect	Chaetognatha	400.76	2681	 	36.697533	-122.05322	2493164	0.79	2005-07-07 17:48:31.0	Ventana	34.277	01:18:55:08	6.66	V2681-02HD
 	transect	Porifera sp. 1	 	2687	 	 	 	1810122	 	2005-07-13 18:58:43.0	Ventana	 	02:24:28:03	 	V2687-03
 	transect	Rathbunaster californicus	199.65	2696	 	36.804337	-122.12624	1813431	1.52	2005-08-01 17:45:36.0	Ventana	34.209	01:13:30:10	8.663	V2696-02
 	transect	Mesomyaria	1000.38	2669	 	36.73193	-122.24672	1735762	0.41	2005-05-25 20:10:18.0	Ventana	34.509	02:31:46:06	4.07	V2669-03
 	transect	Psolus squamatus	399.88	2687	 	36.788036	-122.1215	1809056	1.14	2005-07-13 17:35:34.0	Ventana	34.24	01:01:56:23	7.282	V2687-02
 	transect	Phyllospadix	998.88	2669	 	36.730923	-122.22986	1651180	0.45	2005-05-25 18:13:19.0	Ventana	34.522	00:35:46:18	3.907	V2669-01
 	transect	Gastropoda sp.2	1000.31	2669	 	36.7315	-122.24243	1694505	0.41	2005-05-25 19:41:39.0	Ventana	34.509	02:03:35:29	4.065	V2669-02
 	transect	Nanomia bijuga	200.41	2681	 	36.698284	-122.05331	2490953	1.7	2005-07-07 17:10:09.0	Ventana	34.194	00:41:17:24	8.329	V2681-01HD
 	transect	Mesomyaria	1000.26	2669	 	36.73128	-122.240944	1689346	0.41	2005-05-25 19:33:37.0	Ventana	34.51	01:55:34:17	4.056	V2669-02
 	transect	Ceriantharia sp. 1	601.54	2680	 	36.787056	-122.23153	1805905	0.36	2005-06-27 19:45:25.0	Ventana	34.375	02:24:03:23	5.601	V2680-03
 	transect	Porifera sp. 1	399.68	2687	 	36.789295	-122.124725	1809605	1.16	2005-07-13 18:23:29.0	Ventana	34.239	01:49:48:23	7.333	V2687-02
 	descend	Appendicularia	345.25	2683	 	36.701275	-122.049965	1756556	1.25	2005-07-11 16:56:16.0	Ventana	34.226	00:43:55:22	7.236	V2683-01
 	transect	Allocentrotus fragilis	 	2687	 	 	 	1810814	 	2005-07-13 19:35:21.0	Ventana	 	03:01:04:00	 	V2687-03
 	transect	Microstomus pacificus	203.51	2696	 	36.806553	-122.130135	1813777	1.48	2005-08-01 18:29:22.0	Ventana	34.215	01:57:13:02	8.646	V2696-02
 	ascend	Poeobius meseres	623.66	2681	 	36.69892	-122.05424	1717683	0.31	2005-07-07 20:28:40.36	Ventana	34.389	03:57:41:00	5.45	V2681-04
 	transect	Aegina	500.56	2681	 	36.696842	-122.05244	2493570	0.44	2005-07-07 17:59:46.0	Ventana	34.346	01:30:09:29	6.021	V2681-02HD
 	transect	Psolus squamatus	 	2687	 	 	 	1810265	 	2005-07-13 19:13:09.0	Ventana	 	02:38:53:05	 	V2687-03
 	stationary	Appendicularia	504.24	2695	 	36.78465	-122.2005	1824503	0.69	2005-07-28 19:20:14.0	Ventana	34.291	04:26:28:06	6.327	V2695-02
 	ascend	Chaetognatha	213.54	2693	 	36.69117	-122.06255	1759143	1.7	2005-07-25 21:24:18.0	Ventana	34.191	03:48:50:01	8.618	V2693-04
 	transect	Mediaster	 	2687	 	 	 	1811816	 	2005-07-13 20:26:19.0	Ventana	 	03:51:17:25	 	V2687-04
 	transect	Calliostoma platinum	 	2687	 	 	 	1807003	 	2005-07-13 16:54:23.0	Ventana	 	00:21:17:12	 	V2687-01
 	ascend	Nanomia	261.17	2681	 	36.698853	-122.057	1718984	1.42	2005-07-07 21:20:28.933	Ventana	34.231	04:48:47:18	7.955	V2681-05
 	descend	Nanomia	500.99	2682	 	36.6986	-122.05978	1720834	0.44	2005-07-08 17:59:38.0	Ventana	34.352	01:53:07:08	6.017	V2682-02
 	descend	Salpida	328.29	2693	 	36.697437	-122.06056	1758517	1.29	2005-07-25 19:47:23.0	Ventana	34.236	02:26:57:28	7.575	V2693-03
 	cruise	Asteroidea	359.07	2676	 	36.804684	-122.029	1676582	0.98	2005-06-14 16:49:30.0	Ventana	34.268	00:33:37:22	7.107	V2676-01
 	transect	Neptunea amianta	800.32	2674	 	36.751965	-122.20954	1800919	0.35	2005-06-08 18:17:38.0	Ventana	34.49	01:01:43:07	4.325	V2674-02
 	transect	Neptunea amianta	799.57	2674	 	36.752537	-122.20401	1799428	0.35	2005-06-08 17:49:00.0	Ventana	34.487	00:33:33:08	4.369	V2674-01
 	transect	Mesomyaria	1000.26	2669	 	36.73182	-122.245155	1735356	0.4	2005-05-25 19:58:01.0	Ventana	34.505	02:19:32:00	4.099	V2669-03
 	transect	rock outcrop	 	2687	 	 	 	1812365	 	2005-07-13 20:34:42.0	Ventana	 	03:59:39:02	 	V2687-04
 	transect	Mesomyaria	1000.2	2669	 	36.730904	-122.232765	1683811	0.45	2005-05-25 18:35:15.0	Ventana	34.522	00:57:40:17	3.918	V2669-01
 	transect	Phyllospadix	800.74	2674	 	36.75108	-122.21767	1803521	0.35	2005-06-08 18:56:41.0	Ventana	34.49	01:40:44:08	4.343	V2674-02
 	transect	Phyllospadix	802.48	2674	 	36.752308	-122.205734	1799821	0.36	2005-06-08 17:58:25.0	Ventana	34.489	00:42:57:16	4.333	V2674-01
 	ascend	Aegina	690.78	2682	 	36.698895	-122.059425	1723344	0.29	2005-07-08 20:32:48.0	Ventana	34.412	04:24:56:08	5.117	V2682-05
 	ascend	sinker	560.4	2683	 	36.704563	-122.050644	1757968	0.37	2005-07-11 21:13:48.0	Ventana	34.362	04:46:40:05	5.878	V2683-05
 	transect	Mediaster	 	2687	 	 	 	1810468	 	2005-07-13 19:18:59.0	Ventana	 	02:44:43:02	 	V2687-03
 	descend	Prayidae	500.51	2681	 	36.698063	-122.053825	1715472	0.44	2005-07-07 17:54:18.4	Ventana	34.346	01:24:40:21	6.027	V2681-02
 	ascend	Appendicularia	1046.66	2682	 	36.69792	-122.05766	1722795	0.49	2005-07-08 20:02:22.0	Ventana	34.536	03:54:57:20	3.824	V2682-04
 	descend	Aegina	1051.74	2683	 	36.70498	-122.0491	1757419	0.48	2005-07-11 19:25:15.0	Ventana	34.53	03:05:35:10	3.862	V2683-03
 	transect	Phyllospadix	800.9	2674	 	36.752518	-122.20262	1799225	0.35	2005-06-08 17:41:49.0	Ventana	34.487	00:26:23:02	4.375	V2674-01
 	transect	Rathbunaster californicus	197.86	2696	 	36.803543	-122.124084	1813228	1.54	2005-08-01 17:23:13.0	Ventana	34.201	00:51:30:11	8.608	V2696-01
 	transect	Chaetognatha	700.63	2681	 	36.69597	-122.051834	2497836	0.29	2005-07-07 18:44:04.0	Ventana	34.436	02:13:46:25	4.934	V2681-03HD
 	descend	Poeobius meseres	721.72	2683	 	36.70222	-122.04894	1757105	0.31	2005-07-11 17:55:52.0	Ventana	34.434	01:39:57:11	4.937	V2683-02
 	transect	Phyllospadix	800.33	2674	 	36.751736	-122.21158	1801122	0.35	2005-06-08 18:26:20.0	Ventana	34.486	01:10:25:00	4.34	V2674-02
 	transect	Nanomia bijuga	200.43	2681	 	36.69828	-122.05329	2490058	1.7	2005-07-07 17:04:26.0	Ventana	34.197	00:35:34:22	8.362	V2681-01HD
 	transect	Stomphia	1000.43	2669	 	36.73207	-122.24757	1736108	0.4	2005-05-25 20:16:09.0	Ventana	34.508	02:37:39:17	4.077	V2669-03
 	transect	Umbellula lindahli	599.9	2680	 	36.778336	-122.223495	1804384	0.36	2005-06-27 17:57:05.0	Ventana	34.38	00:37:11:23	5.593	V2680-01
 	transect	Mediaster	 	2687	 	 	 	1811613	 	2005-07-13 20:17:10.0	Ventana	 	03:42:09:19	 	V2687-04
 	descend	Amphipoda	1187.49	2682	 	36.698532	-122.05833	1722246	0.68	2005-07-08 19:34:14.0	Ventana	34.573	03:26:50:23	3.377	V2682-04
 	ascend	Nanomia	200.3	2682	 	36.696526	-122.060745	1723767	1.97	2005-07-08 21:31:15.0	Ventana	34.191	05:22:55:21	8.266	V2682-06
 	descend	Chuniphyes	977.69	2681	 	36.694645	-122.050385	1716538	0.45	2005-07-07 19:19:28.1	Ventana	34.525	02:49:09:29	3.94	V2681-03
 	transect	Mediaster	 	2687	 	 	 	1808853	 	2005-07-13 17:30:27.0	Ventana	 	00:57:19:27	 	V2687-01
 	transect	Psolus squamatus	 	2687	 	 	 	1811017	 	2005-07-13 19:48:29.0	Ventana	 	03:13:30:24	 	V2687-04
 	ascend	Appendicularia	354.53	2681	 	36.699345	-122.05505	1718066	1.04	2005-07-07 20:52:12.933	Ventana	34.255	04:20:33:26	7.155	V2681-05
 	transect	Brisaster	1000.41	2669	 	36.732132	-122.24807	1736182	0.41	2005-05-25 20:19:30.0	Ventana	34.51	02:40:58:23	4.068	V2669-03
 	transect	Psolus squamatus	399.84	2687	 	36.788048	-122.121544	1809153	1.13	2005-07-13 17:36:10.0	Ventana	34.242	01:02:32:10	7.271	V2687-02
 	cruise	Rathbunaster californicus	110.36	2688	 	36.811314	-122.02257	1678011	1.94	2005-07-14 18:43:51.0	Ventana	34.094	02:29:06:13	8.894	V2688-03
 	descend	Appendicularia	826.89	2682	 	36.698357	-122.059555	1721720	0.32	2005-07-08 18:43:49.0	Ventana	34.479	02:36:51:19	4.462	V2682-03
 	transect	Mesomyaria	802.04	2674	 	36.751884	-122.20993	1800970	0.35	2005-06-08 18:19:47.0	Ventana	34.489	01:03:52:12	4.328	V2674-02
 	transect	Phyllospadix	197.98	2696	 	36.803593	-122.12417	1813237	1.54	2005-08-01 17:24:21.0	Ventana	34.202	00:52:38:06	8.608	V2696-01
 	transect	Mesomyaria	999.15	2669	 	36.731087	-122.23398	1684014	0.45	2005-05-25 18:41:51.0	Ventana	34.522	01:03:52:07	3.913	V2669-02
 	descend	Myctophidae	398.28	2681	 	36.695553	-122.05119	1715103	0.82	2005-07-07 17:33:15.067	Ventana	34.275	01:03:39:05	6.694	V2681-02
 	ascend	Copepoda	672.08	2681	 	36.69876	-122.0544	1717636	0.28	2005-07-07 20:23:24.367	Ventana	34.411	03:52:25:15	5.197	V2681-04
 	transect	Chionoecetes tanneri	800.95	2674	 	36.752617	-122.201904	1799128	0.34	2005-06-08 17:38:16.0	Ventana	34.482	00:22:50:02	4.405	V2674-01
 	transect	molt	100.49	2681	 	36.699818	-122.05429	2489735	2.13	2005-07-07 16:48:59.0	Ventana	34.067	00:20:07:14	9.155	V2681-01HD
 	transect	Ceriantharia sp. 2	1000.13	2669	 	36.731014	-122.239494	1689157	0.41	2005-05-25 19:24:04.0	Ventana	34.51	01:46:02:13	4.061	V2669-02
 	ascend	Copepoda	1192.71	2683	 	36.707264	-122.04766	1757691	0.71	2005-07-11 20:21:34.0	Ventana	34.572	03:55:56:25	3.367	V2683-04
 	transect	Mediaster	 	2687	 	 	 	1810980	 	2005-07-13 19:45:54.0	Ventana	 	03:10:55:00	 	V2687-04
 	cruise	Pleuronectiformes	618.45	2688	 	36.794613	-122.01938	1677305	0.43	2005-07-14 16:30:30.0	Ventana	34.398	00:16:50:06	5.35	V2688-01
 	transect	Solmaris	500.57	2681	 	36.697186	-122.05285	2493496	0.44	2005-07-07 17:58:24.0	Ventana	34.345	01:28:47:23	6.029	V2681-02HD
 	transect	Gastropoda sp.2	998.45	2669	 	36.731113	-122.230736	1695068	0.45	2005-05-25 18:20:22.0	Ventana	34.522	00:42:48:13	3.913	V2669-01
 	descend	Appendicularia	389.89	2682	 	36.69836	-122.05988	1720691	0.93	2005-07-08 17:36:43.0	Ventana	34.252	01:30:13:26	6.84	V2682-02
 	ascend	Appendicularia	1143.27	2682	 	36.698215	-122.05747	1722518	0.62	2005-07-08 19:55:18.0	Ventana	34.561	03:47:53:21	3.51	V2682-04
 	cruise	Glyptocephalus zachirus	427.51	2676	http://search.mbari.org/ARCHIVE/frameGrabs/Ventana/images/2676/00_26_09_03.jpg	36.80353	-122.02923	20003915	0.67	2005-06-14 16:42:01.0	Ventana	34.311	00:26:09:03	6.482	V2676-01
 	descend	Appendicularia	722.43	2681	 	36.694942	-122.05059	1716224	0.29	2005-07-07 18:49:26.933	Ventana	34.446	02:19:10:20	4.85	V2681-03
 	transect	Halipteris californica	598.29	2680	 	36.781624	-122.226746	1805039	0.36	2005-06-27 18:39:03.0	Ventana	34.376	01:18:08:29	5.602	V2680-02
 	cruise	Rathbunaster californicus	124.41	2688	 	36.81295	-122.01877	1678103	1.97	2005-07-14 19:27:09.0	Ventana	34.097	03:12:22:01	8.93	V2688-03
 	transect	Ptychogena	800.86	2681	 	36.696583	-122.05261	2498256	0.31	2005-07-07 19:00:59.0	Ventana	34.475	02:30:40:19	4.504	V2681-03HD
 	transect	Mediaster	 	2687	 	 	 	1812439	 	2005-07-13 20:38:52.0	Ventana	 	04:03:49:27	 	V2687-04
 	ascend	sinker	452.85	2683	 	36.704266	-122.05057	1758014	0.75	2005-07-11 21:18:07.0	Ventana	34.289	04:50:58:29	6.63	V2683-05
 	transect	Actiniaria sp. 1	801.55	2674	 	36.75095	-122.21865	1803595	0.34	2005-06-08 19:00:55.0	Ventana	34.485	01:44:57:05	4.379	V2674-02
 	transect	Funiculina	1000.14	2669	 	36.731403	-122.23683	1686962	0.44	2005-05-25 19:04:36.0	Ventana	34.519	01:26:35:04	3.945	V2669-02
 	transect	Poeobius meseres	1001.01	2681	 	36.69574	-122.05183	2498639	0.48	2005-07-07 19:26:30.0	Ventana	34.535	02:56:10:03	3.849	V2681-03HD
 	descend	Mysidae	1116.4	2682	 	36.69821	-122.05919	1722135	0.57	2005-07-08 19:11:51.0	Ventana	34.553	03:04:30:17	3.612	V2682-04
 	transect	Poeobius meseres	600.56	2681	 	36.697227	-122.05299	2493819	0.3	2005-07-07 18:25:38.0	Ventana	34.388	01:55:59:00	5.469	V2681-02HD
 	transect	Nanomia bijuga	200.37	2681	 	36.69831	-122.053406	2491239	1.67	2005-07-07 17:13:02.0	Ventana	34.201	00:44:09:15	8.34	V2681-01HD
 	ascend	Calycophorae	893.12	2681	 	36.698086	-122.05497	1717313	0.37	2005-07-07 19:49:51.133	Ventana	34.505	03:18:54:10	4.214	V2681-04
 	descend	Aegina	1042.32	2682	 	36.698334	-122.059135	1722043	0.48	2005-07-08 19:03:27.0	Ventana	34.532	02:56:29:07	3.862	V2682-03
 	descend	Appendicularia	931.11	2683	 	36.703697	-122.04861	1757308	0.38	2005-07-11 19:07:32.0	Ventana	34.504	02:47:53:19	4.174	V2683-03
 	transect	Phyllospadix	1000.3	2669	 	36.730927	-122.233574	1683922	0.45	2005-05-25 18:39:34.0	Ventana	34.521	01:01:35:17	3.913	V2669-02
 	transect	Lycenchelys camchatica	799.41	2674	 	36.752525	-122.204124	1799451	0.35	2005-06-08 17:49:48.0	Ventana	34.483	00:34:21:15	4.38	V2674-01
 	transect	Nanomia bijuga	200.48	2681	 	36.69828	-122.05329	2490210	1.7	2005-07-07 17:05:50.0	Ventana	34.198	00:36:57:24	8.361	V2681-01HD
 	descend	Copepoda	835.17	2683	 	36.70281	-122.04848	1757216	0.33	2005-07-11 18:23:36.0	Ventana	34.478	02:07:41:13	4.444	V2683-02
 	transect	Appendicularia	400.77	2681	 	36.697235	-122.05287	2493113	0.79	2005-07-07 17:47:14.0	Ventana	34.278	01:17:38:08	6.663	V2681-02HD
 	ascend	Cydippida	201.33	2693	 	36.690857	-122.06269	1759180	1.7	2005-07-25 21:25:38.0	Ventana	34.191	03:50:10:22	8.939	V2693-04
 	transect	Sebastolobus	999.39	2669	 	36.731426	-122.23628	1684720	0.44	2005-05-25 18:59:49.0	Ventana	34.517	01:21:49:00	3.943	V2669-02
 	ascend	Solmissus	257.73	2681	 	36.698746	-122.05681	1719095	1.43	2005-07-07 21:22:35.1	Ventana	34.226	04:50:54:04	7.958	V2681-05
 	transect	Mesomyaria	1000.61	2669	 	36.732346	-122.24952	1736505	0.41	2005-05-25 20:29:48.0	Ventana	34.507	02:51:16:23	4.075	V2669-03
 	descend	Cyclothone	998.79	2681	 	36.69464	-122.0504	1716547	0.47	2005-07-07 19:20:11.6	Ventana	34.53	02:49:53:12	3.888	V2681-03
 	transect	Leuroglossus stilbius	901.06	2681	 	36.696205	-122.05223	2498316	0.39	2005-07-07 19:10:07.0	Ventana	34.505	02:39:48:09	4.172	V2681-03HD
 	transect	Phyllospadix	802.46	2674	 	36.7523	-122.20601	1799881	0.36	2005-06-08 18:00:00.0	Ventana	34.491	00:44:32:11	4.337	V2674-01
 	cruise	rock outcrop	318.96	2676	http://search.mbari.org/ARCHIVE/frameGrabs/Ventana/images/2676/01_05_15_25.jpg	36.80498	-122.02897	1676659	1.33	2005-06-14 17:21:12.0	Ventana	34.229	01:05:15:25	7.709	V2676-01
 	transect	Mesomyaria	800.63	2674	 	36.75106	-122.21788	1803535	0.35	2005-06-08 18:57:36.0	Ventana	34.49	01:41:39:06	4.359	V2674-02
 	transect	Nanomia bijuga	400.75	2681	 	36.697567	-122.05327	2493173	0.79	2005-07-07 17:48:41.0	Ventana	34.277	01:19:05:14	6.658	V2681-02HD
 	cruise	Halipteris	451.71	2688	 	36.80342	-122.01808	1677628	0.9	2005-07-14 17:36:07.0	Ventana	34.269	01:21:51:08	6.889	V2688-02
 	transect	Gastropoda sp.2	999.04	2669	 	36.731422	-122.23621	1694685	0.44	2005-05-25 18:59:05.0	Ventana	34.52	01:21:04:19	3.94	V2669-02
 	transect	Physonectae	300.47	2681	 	36.698055	-122.0534	2492052	1.24	2005-07-07 17:21:19.0	Ventana	34.233	00:52:25:17	7.404	V2681-01HD
 	transect	Ceriantharia sp. 2	1000.58	2669	 	36.732372	-122.24959	1736565	0.41	2005-05-25 20:30:15.0	Ventana	34.509	02:51:43:20	4.07	V2669-03
 	transect	Ceriantharia sp. 1	601.96	2680	 	36.791466	-122.23295	1806851	0.36	2005-06-27 20:28:16.0	Ventana	34.38	03:06:52:04	5.587	V2680-03
 	transect	Rathbunaster californicus	200.21	2696	 	36.80508	-122.12788	1813560	1.5	2005-08-01 17:59:45.0	Ventana	34.211	01:27:38:04	8.674	V2696-02
 	descend	Appendicularia	316.18	2681	 	36.695637	-122.05127	1713659	1.17	2005-07-07 17:30:24.233	Ventana	34.237	01:01:31:17	7.29	V2681-01
 	transect	Caridea sp.1	599.91	2680	 	36.778416	-122.223625	1804393	0.36	2005-06-27 17:58:26.0	Ventana	34.378	00:38:32:24	5.583	V2680-01
 	transect	Mediaster	 	2687	 	 	 	1811733	 	2005-07-13 20:22:58.0	Ventana	 	03:47:56:25	 	V2687-04
 	transect	Phyllospadix	198.87	2696	http://search.mbari.org/ARCHIVE/frameGrabs/Ventana/images/2696/01_00_01_02.jpg	36.803757	-122.12487	1813297	1.53	2005-08-01 17:31:43.0	Ventana	34.202	01:00:01:02	8.627	V2696-01
 	cruise	Merluccius productus	 	2687	 	 	 	1806911	 	2005-07-13 16:37:32.0	Ventana	 	00:04:27:14	 	V2687-01
 	transect	Mesomyaria	999.84	2669	 	36.730587	-122.229126	1651051	0.45	2005-05-25 18:07:45.0	Ventana	34.522	00:30:12:22	3.909	V2669-01
 	cruise	Pleuronectiformes	610.93	2688	 	36.79587	-122.01992	1677365	0.45	2005-07-14 16:37:35.0	Ventana	34.384	00:23:55:12	5.531	V2688-01
 	ascend	Appendicularia	517.4	2681	 	36.69896	-122.05425	1717743	0.46	2005-07-07 20:33:47.0	Ventana	34.34	04:02:47:00	6.085	V2681-04
 	transect	Lycenchelys camchatica	800.28	2674	 	36.752583	-122.202354	1799188	0.34	2005-06-08 17:40:28.0	Ventana	34.476	00:25:02:07	4.408	V2674-01
 	ascend	Cydippida	383.89	2681	 	36.69934	-122.05463	1718006	0.93	2005-07-07 20:49:19.49	Ventana	34.267	04:17:40:18	6.96	V2681-05
 	ascend	Bathocyroe	883.54	2682	 	36.6984	-122.058426	1723224	0.33	2005-07-08 20:17:09.0	Ventana	34.491	04:09:17:28	4.334	V2682-05
 	transect	Mesomyaria	1000.01	2669	 	36.732594	-122.25042	1736980	0.41	2005-05-25 20:36:09.0	Ventana	34.509	02:57:37:25	4.07	V2669-03
 	transect	Mesomyaria	999.85	2669	 	36.73132	-122.23799	1688314	0.43	2005-05-25 19:14:41.0	Ventana	34.518	01:36:40:04	3.959	V2669-02
 	ascend	Nanomia	258.17	2681	 	36.697838	-122.05522	1719570	 	2005-07-07 21:29:59.0	Ventana	 	05:14:49:07	 	V2681-05
 	descend	Copepoda	769.19	2682	 	36.698395	-122.059746	1721660	0.28	2005-07-08 18:32:05.0	Ventana	34.455	02:25:09:03	4.717	V2682-03
 	transect	Henricia aspera	 	2687	http://search.mbari.org/ARCHIVE/frameGrabs/Ventana/images/2687/04_24_00_10.jpg	 	 	1812822	 	2005-07-13 20:59:30.0	Ventana	 	04:24:00:10	 	V2687-05
 	ascend	Calycophorae	596.7	2682	 	36.698742	-122.06096	1723487	0.36	2005-07-08 20:49:49.0	Ventana	34.371	04:41:56:10	5.651	V2682-05
 	transect	Embassichthys bathybius	999.98	2669	 	36.73191	-122.24568	1735416	0.41	2005-05-25 20:01:32.0	Ventana	34.508	02:23:03:13	4.065	V2669-03
 	transect	Mediaster	 	2687	 	 	 	1811470	 	2005-07-13 20:13:56.0	Ventana	 	03:38:55:19	 	V2687-04
 	transect	Lycenchelys camchatica	1000.47	2669	 	36.73208	-122.24761	1736122	0.4	2005-05-25 20:16:19.0	Ventana	34.508	02:37:49:20	4.077	V2669-03
 	ascend	Hastigerinella digitata	373.29	2693	 	36.69557	-122.06065	1758797	1.2	2005-07-25 20:52:38.0	Ventana	34.232	03:17:11:12	7.177	V2693-04
 	transect	Appendicularia	700.62	2681	 	36.695724	-122.05159	2497873	0.28	2005-07-07 18:45:08.0	Ventana	34.437	02:14:51:03	4.942	V2681-03HD
 	transect	Phyllospadix	801.73	2674	 	36.752502	-122.19993	1773980	0.29	2005-06-08 17:26:29.0	Ventana	34.462	00:11:03:10	4.648	V2674-01
 	transect	Mesomyaria	1000.2	2669	 	36.732018	-122.24722	1735859	0.41	2005-05-25 20:13:35.0	Ventana	34.509	02:35:04:15	4.065	V2669-03
 	transect	Actiniaria sp. 3	 	2687	 	 	 	1810274	 	2005-07-13 19:13:50.0	Ventana	 	02:39:34:15	 	V2687-03
 	transect	Poeobius meseres	1001.05	2681	 	36.695168	-122.051094	2498579	0.48	2005-07-07 19:23:23.0	Ventana	34.533	02:53:03:04	3.836	V2681-03HD
 	ascend	Appendicularia	544.7	2682	 	36.69832	-122.06277	1723624	0.41	2005-07-08 21:09:39.0	Ventana	34.352	05:01:21:01	5.938	V2682-06
 	descend	Appendicularia	354.94	2683	 	36.70132	-122.0499	1756570	1.18	2005-07-11 16:56:48.0	Ventana	34.23	00:44:29:12	7.179	V2683-01
 	transect	Phyllospadix	802.15	2674	 	36.751846	-122.210686	1801030	0.35	2005-06-08 18:22:36.0	Ventana	34.49	01:06:40:27	4.33	V2674-02
 	transect	Phyllospadix	998.86	2669	 	36.73285	-122.2518	1737243	0.4	2005-05-25 20:43:45.0	Ventana	34.51	03:04:33:15	4.076	V2669-04
 	transect	Phyllospadix	 	2669	 	 	 	1737686	 	2005-05-25 13:57:03.0	Ventana	 	03:17:51:07	 	V2669-04
 	ascend	Appendicularia	620.52	2683	 	36.704884	-122.05041	1757954	0.3	2005-07-11 21:11:01.0	Ventana	34.392	04:43:53:01	5.5	V2683-05
 	transect	Mediaster	 	2687	 	 	 	1812379	 	2005-07-13 20:35:26.0	Ventana	 	04:00:23:22	 	V2687-04
 	ascend	Crustacea	774.1	2682	 	36.698723	-122.05896	1723284	0.28	2005-07-08 20:26:32.0	Ventana	34.446	04:18:40:23	4.775	V2682-05
 	transect	Mesomyaria	997.6	2669	 	36.7306	-122.22716	1649104	0.45	2005-05-25 17:55:04.0	Ventana	34.522	00:17:32:25	3.909	V2669-01
 	transect	Mesomyaria	999.44	2669	 	36.73133	-122.23592	1684457	0.44	2005-05-25 18:57:06.0	Ventana	34.52	01:19:05:22	3.936	V2669-02
 	cruise	Lycodes	383.89	2688	 	36.807095	-122.01963	1677748	1.05	2005-07-14 17:53:14.0	Ventana	34.249	01:38:56:23	7.181	V2688-02
 	ascend	Calycophorae	261.43	2681	 	36.69883	-122.056984	1719035	1.42	2005-07-07 21:21:19.95	Ventana	34.232	04:49:39:02	7.954	V2681-05
 	ascend	Nanomia	179.11	2693	 	36.690624	-122.062935	1759240	1.95	2005-07-25 21:29:48.0	Ventana	34.133	03:54:20:01	8.871	V2693-04
 	transect	Psolus squamatus	 	2687	 	 	 	1808890	 	2005-07-13 17:31:21.0	Ventana	 	00:58:13:19	 	V2687-01
 	transect	Mesomyaria	999.93	2669	 	36.73099	-122.23311	1683862	0.45	2005-05-25 18:37:21.0	Ventana	34.522	00:59:46:13	3.912	V2669-01
 	descend	Appendicularia	436.12	2682	 	36.69826	-122.059715	1720751	0.64	2005-07-08 17:46:38.0	Ventana	34.304	01:40:08:21	6.427	V2682-02
 	descend	Chaetognatha	502.27	2683	 	36.701466	-122.04913	1756833	0.68	2005-07-11 17:37:08.0	Ventana	34.305	01:21:15:07	6.463	V2683-02
 	transect	Mesomyaria	999.5	2669	 	36.73073	-122.229515	1651111	0.45	2005-05-25 18:10:33.0	Ventana	34.522	00:33:00:00	3.907	V2669-01
 	descend	Crustacea	293.53	2693	 	36.697796	-122.06116	1758457	1.34	2005-07-25 19:38:02.0	Ventana	34.238	02:17:37:12	7.803	V2693-03
 	ascend	Nanomia	371.09	2693	 	36.69631	-122.0608	1758660	1.2	2005-07-25 20:26:34.0	Ventana	34.231	03:06:06:14	7.166	V2693-03
 	cruise	Phyllospadix	481.91	2688	 	36.801926	-122.01832	1677568	0.79	2005-07-14 17:27:04.0	Ventana	34.29	01:12:48:13	6.672	V2688-02
 	transect	cydippida	50.44	2681	 	36.699825	-122.05429	2485561	2.95	2005-07-07 16:35:19.0	Ventana	33.923	00:06:29:16	9.619	V2681-01HD
 	ascend	Chaetognatha	270.91	2681	 	36.699684	-122.05477	1718329	1.41	2005-07-07 21:05:14.577	Ventana	34.227	04:33:34:21	7.846	V2681-05
 	descend	Copepoda	323.71	2682	 	36.6989	-122.06068	1720156	1.12	2005-07-08 17:07:56.0	Ventana	34.242	01:01:28:29	7.249	V2682-02
 	transect	Glyptocephalus zachirus	 	2687	 	 	 	1810011	 	2005-07-13 18:50:43.0	Ventana	 	02:16:28:21	 	V2687-03
 	transect	Lycenchelys camchatica	999.62	2669	 	36.730965	-122.23161	1683659	0.45	2005-05-25 18:28:10.0	Ventana	34.522	00:50:36:04	3.913	V2669-01
 	transect	Rathbunaster californicus	200.24	2696	 	36.804695	-122.12709	1813500	1.51	2005-08-01 17:54:00.0	Ventana	34.211	01:21:52:16	8.672	V2696-02
 	transect	Ceriantharia sp. 2	1000.59	2669	 	36.732395	-122.24979	1736717	0.41	2005-05-25 20:31:33.0	Ventana	34.51	02:53:01:27	4.068	V2669-03
 	transect	Ceriantharia sp. 2	997.5	2669	 	36.730637	-122.227264	1683336	0.45	2005-05-25 17:56:10.0	Ventana	34.52	00:18:39:06	3.91	V2669-01
 	transect	Sebastolobus	399.84	2687	http://search.mbari.org/ARCHIVE/frameGrabs/Ventana/images/2687/01_02_17_21.jpg	36.788036	-122.12153	1809093	1.13	2005-07-13 17:35:55.0	Ventana	34.244	01:02:17:21	7.27	V2687-02
 	transect	Mediaster	 	2687	 	 	 	1812559	 	2005-07-13 20:45:30.0	Ventana	 	04:10:01:05	 	V2687-05
 	ascend	Chuniphyes	928.88	2681	 	36.69768	-122.054184	1716990	0.41	2005-07-07 19:44:19.153	Ventana	34.513	03:13:22:06	4.112	V2681-04
 	transect	Mediaster	 	2687	 	 	 	1810214	 	2005-07-13 19:09:39.0	Ventana	 	02:35:23:14	 	V2687-03
 	transect	Mesomyaria	999.72	2669	 	36.731056	-122.235176	1684277	0.45	2005-05-25 18:51:29.0	Ventana	34.521	01:13:29:25	3.922	V2669-02
 	descend	Appendicularia	361.38	2682	 	36.69858	-122.06039	1720336	1.0	2005-07-08 17:22:35.0	Ventana	34.255	01:16:06:13	7.079	V2682-02
 	descend	Solmissus	394.05	2683	 	36.701473	-122.04965	1756630	0.98	2005-07-11 17:00:29.0	Ventana	34.256	00:48:09:08	7.009	V2683-01
 	transect	Rathbunaster californicus	203.71	2696	 	36.805264	-122.128204	1813680	1.48	2005-08-01 18:14:46.0	Ventana	34.213	01:42:37:22	8.63	V2696-02
 	cruise	Rathbunaster californicus	400.88	2676	 	36.80409	-122.0292	1676462	0.82	2005-06-14 16:44:10.0	Ventana	34.288	00:28:18:01	6.806	V2676-01
 	descend	Solmissus	363.49	2682	 	36.69848	-122.06007	1720479	0.99	2005-07-08 17:33:38.0	Ventana	34.256	01:27:08:26	7.056	V2682-02
 	ascend	Copepoda	719.75	2681	 	36.6987	-122.0552	1717576	0.29	2005-07-07 20:18:46.95	Ventana	34.435	03:47:48:11	4.968	V2681-04
 	ascend	Chaetognatha	1163.96	2683	 	36.707817	-122.048805	1757751	0.7	2005-07-11 20:33:05.0	Ventana	34.569	04:07:25:23	3.407	V2683-04
 	transect	Mediaster	 	2687	 	 	 	1810920	 	2005-07-13 19:42:46.0	Ventana	 	03:07:48:07	 	V2687-04
 	transect	Mesomyaria	999.73	2669	 	36.730515	-122.2289	1650931	0.45	2005-05-25 18:05:53.0	Ventana	34.522	00:28:21:18	3.906	V2669-01
 	descend	Mysidae	716.22	2682	 	36.698605	-122.05995	1721457	0.28	2005-07-08 18:17:37.0	Ventana	34.439	02:10:41:05	4.917	V2682-03
 	transect	Mediaster	 	2687	 	 	 	1811853	 	2005-07-13 20:27:05.0	Ventana	 	03:52:03:17	 	V2687-04
 	transect	Allocentrotus fragilis	399.9	2687	 	36.788124	-122.12168	1809273	1.13	2005-07-13 17:38:01.0	Ventana	34.243	01:04:23:06	7.254	V2687-02
 	transect	Rathbunaster californicus	 	2687	 	 	 	1811100	 	2005-07-13 19:53:07.0	Ventana	 	03:18:08:10	 	V2687-04
 	ascend	Chaetognatha	1003.67	2682	 	36.69773	-122.058235	1722901	0.45	2005-07-08 20:05:39.0	Ventana	34.523	03:58:13:24	3.939	V2682-04
 	descend	Prayidae	132.43	2683	 	36.70057	-122.05161	1756247	1.98	2005-07-11 16:19:21.0	Ventana	34.106	00:07:02:27	8.954	V2683-01
 	cruise	Lycodapus	1229.75	2683	 	36.70588	-122.04776	1757571	0.74	2005-07-11 19:57:43.0	Ventana	34.58	03:32:06:15	3.322	V2683-04
 	transect	cydippida	100.52	2681	 	36.69983	-122.05429	2489615	2.13	2005-07-07 16:46:16.0	Ventana	34.068	00:17:24:14	9.146	V2681-01HD
 	ascend	Atolla	496.78	2682	 	36.698338	-122.06326	1723684	0.49	2005-07-08 21:14:06.0	Ventana	34.334	05:05:46:12	6.159	V2682-06
 	transect	Mediaster	 	2687	 	 	 	1812236	 	2005-07-13 20:29:41.0	Ventana	 	03:54:38:26	 	V2687-04
 	transect	Phyllospadix	 	2669	 	 	 	1737626	 	2005-05-25 13:53:42.0	Ventana	 	03:14:29:22	 	V2669-04
 	descend	Prayidae	547.36	2683	 	36.70166	-122.04916	1756953	0.47	2005-07-11 17:44:13.0	Ventana	34.33	01:28:18:03	6.098	V2683-02
 	transect	Euphausia	200.4	2681	 	36.698284	-122.05331	2490916	1.7	2005-07-07 17:09:45.0	Ventana	34.189	00:40:53:11	8.321	V2681-01HD
 	transect	Ophiuroidea	998.61	2669	 	36.730965	-122.23013	1651254	0.45	2005-05-25 18:15:16.0	Ventana	34.521	00:37:43:07	3.91	V2669-01
 	descend	Appendicularia	546.59	2682	 	36.698624	-122.05976	1720894	0.37	2005-07-08 18:04:51.0	Ventana	34.368	01:58:21:05	5.725	V2682-02
 	transect	Ophiuroidea	1000.36	2669	 	36.7316	-122.2432	1733784	0.41	2005-05-25 19:45:38.0	Ventana	34.51	02:07:09:25	4.063	V2669-03
 	transect	Mesomyaria	1000.43	2669	 	36.731945	-122.24701	1735799	0.41	2005-05-25 20:11:57.0	Ventana	34.51	02:33:27:14	4.063	V2669-03
 	transect	Phyllospadix	800.23	2674	 	36.75263	-122.200325	1774100	0.3	2005-06-08 17:29:45.0	Ventana	34.452	00:14:18:29	4.559	V2674-01
 	transect	Mesomyaria	998.97	2669	 	36.731403	-122.23612	1684600	0.44	2005-05-25 18:58:27.0	Ventana	34.521	01:20:26:13	3.943	V2669-02
 	transect	Porifera sp. 1	 	2687	 	 	 	1811530	 	2005-07-13 20:15:12.0	Ventana	 	03:40:11:13	 	V2687-04
 	descend	Euphausia 2	198.18	2682	 	36.699894	-122.06073	1719953	1.91	2005-07-08 16:20:42.0	Ventana	34.166	00:14:46:03	8.016	V2682-01
 	descend	Crustacea	905.38	2682	 	36.69825	-122.05943	1721780	0.34	2005-07-08 18:51:35.0	Ventana	34.496	02:44:38:18	4.273	V2682-03
 	ascend	Chaetognatha	367.04	2693	 	36.69454	-122.061035	1758857	1.24	2005-07-25 21:00:51.0	Ventana	34.234	03:25:24:19	7.341	V2693-04
 	ascend	Solmissus	339.68	2683	 	36.703636	-122.05061	1758074	1.16	2005-07-11 21:22:54.0	Ventana	34.237	04:55:46:09	7.177	V2683-05
 	transect	molt	100.46	2681	 	36.699486	-122.05407	2489795	2.13	2005-07-07 16:50:52.0	Ventana	34.066	00:22:01:09	9.148	V2681-01HD
 	transect	Neptunea amianta	999.87	2669	 	36.73134	-122.23783	1687548	0.44	2005-05-25 19:13:24.0	Ventana	34.519	01:35:22:27	3.944	V2669-02
 	transect	Mesomyaria	999.89	2669	 	36.731144	-122.24009	1689217	0.41	2005-05-25 19:28:01.0	Ventana	34.51	01:49:58:27	4.061	V2669-02
 	transect	Gastropoda sp.2	1000.42	2669	 	36.731575	-122.24311	1733775	0.41	2005-05-25 19:45:02.0	Ventana	34.507	02:06:32:29	4.072	V2669-03
 	descend	Solmissus	256.81	2683	 	36.700893	-122.05051	1756450	1.59	2005-07-11 16:51:03.0	Ventana	34.206	00:38:42:11	7.987	V2683-01
 	transect	Glyptocephalus zachirus	 	2687	 	 	 	1812762	 	2005-07-13 20:56:32.0	Ventana	 	04:21:02:06	 	V2687-05
 	cruise	Rathbunaster californicus	214.06	2688	 	36.810223	-122.02079	1677951	1.72	2005-07-14 18:33:25.0	Ventana	34.162	02:18:41:00	8.689	V2688-03
 	transect	Mediaster	 	2687	 	 	 	1807649	 	2005-07-13 17:20:10.0	Ventana	 	00:47:03:05	 	V2687-01
 	descend	Appendicularia	870.45	2681	 	36.696953	-122.053185	1716487	0.35	2005-07-07 19:05:08.0	Ventana	34.498	02:34:50:07	4.247	V2681-03
 	transect	Mesomyaria	800.05	2674	 	36.751755	-122.21203	1801173	0.35	2005-06-08 18:28:17.0	Ventana	34.487	01:12:21:12	4.337	V2674-02
 	transect	Mesomyaria	799.07	2674	 	36.75142	-122.21483	1801385	0.35	2005-06-08 18:43:29.0	Ventana	34.489	01:27:33:03	4.336	V2674-02
 	ascend	Nanomia bijuga	164.71	2696	 	36.80767	-122.13151	1813883	1.52	2005-08-01 18:50:59.0	Ventana	34.205	02:18:02:22	8.821	V2696-03
 	transect	Mesomyaria	999.9	2669	 	36.731716	-122.243866	1733987	0.41	2005-05-25 19:49:30.0	Ventana	34.51	02:10:59:16	4.069	V2669-03
 	descend	Appendicularia	186.04	2693	 	36.696068	-122.05818	1758277	1.83	2005-07-25 18:13:40.0	Ventana	34.179	00:54:11:11	8.878	V2693-01
 	transect	Allocentrotus fragilis	 	2687	 	 	 	1811303	 	2005-07-13 20:05:39.0	Ventana	 	03:30:38:28	 	V2687-04
 	ascend	Chaetognatha	335.22	2681	 	36.699547	-122.05524	1718126	1.16	2005-07-07 20:55:03.033	Ventana	34.241	04:23:23:24	7.305	V2681-05
 	transect	Caridea sp.1	599.41	2680	 	36.779423	-122.22451	1804513	0.36	2005-06-27 18:09:48.0	Ventana	34.378	00:49:54:15	5.602	V2680-01
 	transect	physical object	601.36	2680	http://search.mbari.org/ARCHIVE/frameGrabs/Ventana/images/2680/00_18_00_08.jpg	36.776733	-122.22205	1804121	0.36	2005-06-27 17:37:52.0	Ventana	34.379	00:18:00:08	5.578	V2680-01
 	descend	Lycodapus	586.94	2688	 	36.79338	-122.018295	1677245	0.53	2005-07-14 16:18:57.0	Ventana	34.356	00:05:18:18	5.903	V2688-01
 	descend	Copepoda	994.4	2683	 	36.704124	-122.049446	1757368	0.43	2005-07-11 19:15:52.0	Ventana	34.517	02:56:13:24	4.014	V2683-03
 	transect	Mesomyaria	998.77	2669	 	36.731155	-122.234146	1684074	0.45	2005-05-25 18:42:56.0	Ventana	34.523	01:04:57:09	3.915	V2669-02
 	transect	Umbellula lindahli	599.84	2680	 	36.777946	-122.22312	1804333	0.36	2005-06-27 17:52:37.0	Ventana	34.379	00:32:44:13	5.588	V2680-01
 	descend	Sergestes similis	806.54	2683	 	36.702667	-122.048775	1757156	0.36	2005-07-11 18:01:14.0	Ventana	34.466	01:45:20:02	4.572	V2683-02
 	ascend	Siphonophora	255.75	2681	 	36.697956	-122.054985	1719247	1.46	2005-07-07 21:26:40.133	Ventana	34.223	04:54:59:14	7.988	V2681-05
 	transect	Phyllospadix	799.34	2674	 	36.752514	-122.20416	1799511	0.35	2005-06-08 17:50:01.0	Ventana	34.482	00:34:33:26	4.383	V2674-01
 	ascend	sinker	853.02	2681	 	36.698555	-122.05575	1717373	0.33	2005-07-07 19:54:48.4	Ventana	34.492	03:23:50:24	4.348	V2681-04
 	descend	Nanomia	184.28	2681	 	36.69828	-122.05329	1713539	1.92	2005-07-07 17:03:14.9	Ventana	34.142	00:34:23:28	8.464	V2681-01
 	descend	Poeobius meseres	1181.92	2682	 	36.698246	-122.059166	1722195	0.66	2005-07-08 19:14:50.0	Ventana	34.57	03:07:27:03	3.413	V2682-04
 	transect	Mesomyaria	800.27	2674	 	36.75125	-122.21609	1803392	0.35	2005-06-08 18:49:42.0	Ventana	34.489	01:33:45:18	4.34	V2674-02
 	transect	Caridea sp.1	599.26	2680	 	36.782887	-122.22817	1805242	0.35	2005-06-27 19:00:51.0	Ventana	34.378	01:39:55:09	5.576	V2680-02
 	transect	Mediaster	 	2687	 	 	 	1812642	 	2005-07-13 20:49:26.0	Ventana	 	04:13:56:28	 	V2687-05
 	transect	Nanomia bijuga	200.4	2681	 	36.698288	-122.05333	2491036	1.7	2005-07-07 17:11:06.0	Ventana	34.196	00:42:13:02	8.332	V2681-01HD
 	transect	Ophiuroidea	998.46	2669	 	36.731113	-122.230705	1683396	0.45	2005-05-25 18:19:59.0	Ventana	34.521	00:42:26:04	3.912	V2669-01
 	transect	Halipteris californica	598.95	2680	 	36.78272	-122.22795	1805219	0.35	2005-06-27 18:58:53.0	Ventana	34.382	01:37:57:29	5.563	V2680-02
 	transect	Chaetognatha	901.0	2681	 	36.695393	-122.05117	2498459	0.39	2005-07-07 19:14:05.0	Ventana	34.505	02:43:46:13	4.17	V2681-03HD
 	transect	Mesomyaria	998.17	2669	 	36.73053	-122.22835	1649367	0.45	2005-05-25 18:02:54.0	Ventana	34.523	00:25:22:04	3.908	V2669-01
 	descend	Nanomia	202.42	2683	 	36.70103	-122.05094	1756390	1.71	2005-07-11 16:47:21.0	Ventana	34.191	00:35:02:27	8.38	V2683-01
 	cruise	rubble	107.46	2688	http://search.mbari.org/ARCHIVE/frameGrabs/Ventana/images/2688/02_32_46_17.jpg	36.81134	-122.0226	20005216	1.94	2005-07-14 18:47:33.0	Ventana	34.093	02:32:46:17	8.892	V2688-03
 	transect	Ophiuroidea	1000.42	2669	 	36.731533	-122.24281	1694542	0.4	2005-05-25 19:43:30.0	Ventana	34.51	02:05:27:13	4.087	V2669-02
 	transect	Microstomus pacificus	998.94	2669	 	36.731117	-122.23483	1684194	0.45	2005-05-25 18:48:30.0	Ventana	34.522	01:10:30:26	3.918	V2669-02
 	transect	Psolus squamatus	 	2687	 	 	 	1808627	 	2005-07-13 17:25:37.0	Ventana	 	00:52:29:28	 	V2687-01
 	transect	Hormiphora	200.43	2681	 	36.69828	-122.05329	2490330	1.7	2005-07-07 17:07:00.0	Ventana	34.198	00:38:08:00	8.347	V2681-01HD
 	transect	Sebastes diploproa	 	2687	 	 	 	1811590	 	2005-07-13 20:16:46.0	Ventana	 	03:41:44:19	 	V2687-04
 	transect	cydippida	500.59	2681	 	36.697792	-122.05356	2493293	0.44	2005-07-07 17:55:35.0	Ventana	34.347	01:25:57:13	6.02	V2681-02HD
 	ascend	Copepoda	781.3	2681	 	36.69885	-122.0564	1717456	0.28	2005-07-07 20:04:57.733	Ventana	34.457	03:33:59:15	4.716	V2681-04
 	descend	Copepoda	712.56	2683	 	36.70216	-122.048935	1757096	0.29	2005-07-11 17:55:12.0	Ventana	34.426	01:39:18:07	4.998	V2683-02
 	transect	Phyllospadix	800.61	2674	 	36.752087	-122.20851	1800767	0.35	2005-06-08 18:11:59.0	Ventana	34.491	00:56:30:08	4.326	V2674-01
 	transect	Calycophorae	400.78	2681	 	36.69584	-122.05125	2492901	0.79	2005-07-07 17:41:09.0	Ventana	34.278	01:11:32:12	6.667	V2681-02HD
 	transect	Mesomyaria	999.18	2669	 	36.731377	-122.23607	1684540	0.44	2005-05-25 18:58:04.0	Ventana	34.52	01:20:03:19	3.939	V2669-02
 	descend	Bathocyroe	1131.59	2683	 	36.705116	-122.048904	1757488	0.62	2005-07-11 19:32:07.0	Ventana	34.55	03:12:29:05	3.612	V2683-03
 	transect	Glyptocephalus zachirus	204.05	2696	 	36.806164	-122.129745	1813740	1.5	2005-08-01 18:23:34.0	Ventana	34.207	01:51:25:06	8.649	V2696-02
 	cruise	mud	89.82	2688	 	36.817017	-122.01532	1679335	1.99	2005-07-14 20:03:18.0	Ventana	34.086	03:48:03:18	8.909	V2688-04
 	transect	Mediaster	 	2687	 	 	 	1807054	 	2005-07-13 16:56:42.0	Ventana	 	00:23:36:01	 	V2687-01
 	transect	Psolus squamatus	 	2687	 	 	 	1808973	 	2005-07-13 17:32:53.0	Ventana	 	00:59:45:03	 	V2687-01
 	ascend	Nanomia	258.17	2681	 	36.697838	-122.05522	1719367	 	2005-07-07 21:29:59.0	Ventana	 	05:02:48:10	 	V2681-05
 	transect	Rathbunaster californicus	 	2687	http://search.mbari.org/ARCHIVE/frameGrabs/Ventana/images/2687/00_41_09_03.jpg	 	 	1807529	 	2005-07-13 17:14:15.0	Ventana	 	00:41:09:03	 	V2687-01
 	ascend	Appendicularia	679.86	2683	 	36.705578	-122.04939	1757894	0.31	2005-07-11 21:07:16.0	Ventana	34.431	04:40:08:20	5.012	V2683-05
 	transect	Calliostoma platinum	 	2687	 	 	 	1810777	 	2005-07-13 19:33:57.0	Ventana	 	02:59:39:25	 	V2687-03
 	transect	Calliostoma platinum	 	2687	 	 	 	1811183	 	2005-07-13 20:00:07.0	Ventana	 	03:25:07:02	 	V2687-04
 	descend	Euphotic zone	 	2685	 	 	 	1669725	 	2005-07-12 18:01:15.0	Ventana	 	00:00:03:00	 	V2685-01
 	transect	Stomphia	 	2687	 	 	 	1810071	 	2005-07-13 18:53:38.0	Ventana	 	02:19:23:14	 	V2687-03
 	transect	Nanomia bijuga	200.35	2681	 	36.69835	-122.05345	2491382	1.67	2005-07-07 17:13:50.0	Ventana	34.201	00:44:59:00	8.341	V2681-01HD
 	cruise	Lycodes	444.63	2676	 	36.80312	-122.029236	1676342	0.62	2005-06-14 16:38:48.0	Ventana	34.32	00:22:57:02	6.33	V2676-01
 	transect	Mesomyaria	999.81	2669	 	36.731354	-122.23733	1687488	0.44	2005-05-25 19:09:09.0	Ventana	34.519	01:31:08:17	3.945	V2669-02
 	transect	Lycenchelys camchatica	801.85	2674	 	36.75224	-122.20739	1800061	0.37	2005-06-08 18:06:50.0	Ventana	34.485	00:51:21:22	4.355	V2674-01
 	transect	Pennatula phosphorea californica	599.47	2680	 	36.779537	-122.224625	1804536	0.36	2005-06-27 18:11:11.0	Ventana	34.378	00:51:17:11	5.6	V2680-01
 	transect	Glyptocephalus zachirus	 	2687	 	 	 	1810477	 	2005-07-13 19:19:34.0	Ventana	 	02:45:18:04	 	V2687-03
 	transect	Mesomyaria	800.11	2674	 	36.75249	-122.20329	1799308	0.35	2005-06-08 17:45:11.0	Ventana	34.485	00:29:44:26	4.378	V2674-01
 	transect	Mediaster	 	2687	 	 	 	1807123	 	2005-07-13 17:00:52.0	Ventana	 	00:27:46:13	 	V2687-01
 	cruise	shell hash	104.97	2676	 	36.805607	-122.04303	1677185	1.94	2005-06-14 19:23:20.0	Ventana	34.159	03:02:04:25	8.435	V2676-03
 	transect	Mesomyaria	999.39	2669	 	36.730995	-122.23243	1683742	0.45	2005-05-25 18:32:37.0	Ventana	34.522	00:55:03:06	3.915	V2669-01
 	descend	Calycophorae	534.99	2682	 	36.69861	-122.05978	1720871	0.37	2005-07-08 18:03:19.0	Ventana	34.366	01:56:47:09	5.774	V2682-02
 	descend	Solmissus	303.45	2682	 	36.69958	-122.060745	1720073	1.19	2005-07-08 16:38:29.0	Ventana	34.237	00:32:33:06	7.374	V2682-01
 	transect	Umbellula lindahli	602.6	2680	 	36.789818	-122.23259	1806731	0.36	2005-06-27 20:14:05.0	Ventana	34.38	02:52:42:11	5.586	V2680-03
 	transect	molt	100.61	2681	 	36.69983	-122.05429	2489532	2.13	2005-07-07 16:43:59.0	Ventana	34.068	00:15:08:24	9.147	V2681-01HD
 	cruise	LRJ Complex	518.85	2688	 	36.799915	-122.01898	1677485	0.66	2005-07-14 17:09:13.0	Ventana	34.313	00:55:30:23	6.368	V2688-01
 	ascend	Phialidium	606.74	2682	 	36.698868	-122.05999	1723427	0.34	2005-07-08 20:39:14.0	Ventana	34.382	04:31:21:15	5.545	V2682-05
 	descend	Dosidicus gigas	541.53	2681	 	36.695675	-122.05106	1715606	0.38	2005-07-07 18:05:57.627	Ventana	34.36	01:36:19:21	5.774	V2681-02
 	stationary	sinker	504.21	2695	 	36.78459	-122.2005	1824494	0.68	2005-07-28 19:09:18.0	Ventana	34.295	04:15:32:15	6.309	V2695-02
 	transect	Mediaster	 	2687	 	 	 	1812296	 	2005-07-13 20:31:18.0	Ventana	 	03:56:16:24	 	V2687-04
 	transect	Phyllospadix	801.33	2674	 	36.752174	-122.20795	1800144	0.35	2005-06-08 18:09:23.0	Ventana	34.49	00:53:53:14	4.329	V2674-01
 	transect	Phyllospadix	800.48	2674	 	36.751747	-122.21147	1801113	0.35	2005-06-08 18:25:55.0	Ventana	34.483	01:10:00:04	4.358	V2674-02
 	descend	Appendicularia	400.49	2681	 	36.69567	-122.051056	1715246	0.79	2005-07-07 17:39:25.573	Ventana	34.276	01:09:49:09	6.674	V2681-02
 	descend	Appendicularia	263.42	2682	 	36.699795	-122.06083	1720013	1.36	2005-07-08 16:26:44.0	Ventana	34.227	00:20:48:20	7.8	V2682-01
 	transect	Ophiuroidea	999.92	2669	 	36.73185	-122.245026	1735333	0.4	2005-05-25 19:56:48.0	Ventana	34.508	02:18:17:04	4.083	V2669-03
 	transect	Sebastolobus altivelis	800.38	2674	 	36.752037	-122.209	1800850	0.35	2005-06-08 18:14:37.0	Ventana	34.49	00:59:08:17	4.341	V2674-01
 	descend	sinker	621.49	2683	 	36.702015	-122.04898	1757036	0.32	2005-07-11 17:50:32.0	Ventana	34.373	01:34:38:05	5.631	V2683-02
 	transect	Mesomyaria	1000.16	2669	 	36.730923	-122.23268	1683802	0.45	2005-05-25 18:34:56.0	Ventana	34.52	00:57:22:12	3.911	V2669-01
 	transect	Leuroglossus stilbius	500.58	2681	 	36.69598	-122.05147	2493639	0.43	2005-07-07 18:03:29.0	Ventana	34.348	01:33:51:25	6.009	V2681-02HD
 	transect	Phyllospadix	799.47	2674	 	36.752678	-122.20094	1774160	0.33	2005-06-08 17:33:18.0	Ventana	34.481	00:17:52:04	4.45	V2674-01
 	transect	Phyllospadix	804.17	2674	 	36.750732	-122.22076	1803715	0.34	2005-06-08 19:09:56.0	Ventana	34.483	01:53:58:14	4.409	V2674-02
 	transect	Mesomyaria	1000.26	2669	 	36.731308	-122.24151	1689812	0.4	2005-05-25 19:36:44.0	Ventana	34.508	01:58:41:06	4.091	V2669-02
 	ascend	Chaetognatha	317.67	2693	 	36.691563	-122.06204	1759060	1.29	2005-07-25 21:18:36.0	Ventana	34.236	03:43:08:01	7.58	V2693-04
 	ascend	Euphausiacea	259.67	2681	 	36.69933	-122.05436	1718629	1.43	2005-07-07 21:14:07.2	Ventana	34.23	04:42:26:08	7.967	V2681-05
 	transect	Gastropoda sp.2	999.99	2669	 	36.7319	-122.245865	1735596	0.4	2005-05-25 20:02:33.0	Ventana	34.507	02:24:04:04	4.07	V2669-03
 	transect	Calliostoma platinum	399.87	2687	 	36.78813	-122.121796	1809333	1.13	2005-07-13 17:39:40.0	Ventana	34.238	01:06:02:13	7.275	V2687-02
 	transect	Umbellula lindahli	602.72	2680	 	36.78804	-122.232124	1805942	0.36	2005-06-27 19:55:57.0	Ventana	34.378	02:34:34:27	5.59	V2680-03
 	transect	Calliostoma platinum	399.67	2687	 	36.789276	-122.1247	1809596	1.16	2005-07-13 18:23:12.0	Ventana	34.238	01:49:30:28	7.333	V2687-02
 	transect	Nanomia bijuga	200.42	2681	 	36.6983	-122.05336	2491119	1.69	2005-07-07 17:12:02.0	Ventana	34.198	00:43:09:25	8.337	V2681-01HD
 	cruise	Rathbunaster californicus	172.54	2676	 	36.808064	-122.03017	1676839	1.64	2005-06-14 17:49:02.0	Ventana	34.19	01:28:45:20	8.163	V2676-02
 	cruise	Pleuronectiformes	88.09	2688	 	36.815475	-122.01778	1679395	1.96	2005-07-14 20:20:22.0	Ventana	34.092	04:05:07:04	8.935	V2688-04
 	transect	Stomphia	999.85	2669	 	36.731743	-122.244064	1734107	0.4	2005-05-25 19:50:39.0	Ventana	34.51	02:12:11:00	4.072	V2669-03
 	transect	Phyllospadix	799.96	2674	 	36.751312	-122.21553	1803355	0.35	2005-06-08 18:46:20.0	Ventana	34.486	01:30:23:07	4.356	V2674-02
 	ascend	Praya	 	2683	 	 	 	1758134	 	2005-07-11 14:30:58.0	Ventana	 	05:03:49:05	 	V2683-05
 	transect	Mesomyaria	799.39	2674	 	36.751667	-122.21296	1801242	0.35	2005-06-08 18:31:32.0	Ventana	34.489	01:15:36:13	4.336	V2674-02
 	transect	Sebastolobus	1000.48	2669	http://search.mbari.org/ARCHIVE/frameGrabs/Ventana/images/2669/02_29_09_29.jpg	36.731964	-122.246445	1735679	0.41	2005-05-25 20:07:41.0	Ventana	34.509	02:29:09:29	4.064	V2669-03
 	stationary	Merluccius productus	501.74	2695	 	36.784622	-122.20046	1824434	0.88	2005-07-28 17:22:58.0	Ventana	34.265	00:29:19:12	6.681	V2695-01
 	transect	Mesomyaria	999.44	2669	 	36.73133	-122.23592	1684480	0.44	2005-05-25 18:57:06.0	Ventana	34.52	01:19:05:22	3.936	V2669-02
 	transect	Mediaster	 	2687	 	 	 	1811650	 	2005-07-13 20:19:01.0	Ventana	 	03:44:00:16	 	V2687-04
 	ascend	Copepoda	761.31	2681	 	36.69868	-122.05597	1717516	0.29	2005-07-07 20:11:42.933	Ventana	34.45	03:40:44:08	4.802	V2681-04
 	transect	Brisaster	1000.05	2669	 	36.73166	-122.24348	1733844	0.41	2005-05-25 19:47:22.0	Ventana	34.511	02:08:53:18	4.069	V2669-03
 	ascend	Chaetognatha	336.32	2693	 	36.6928	-122.06158	1758977	1.26	2005-07-25 21:13:07.0	Ventana	34.236	03:37:38:10	7.459	V2693-04
 	transect	Phyllospadix	1000.21	2669	 	36.73128	-122.240944	1689337	0.41	2005-05-25 19:33:35.0	Ventana	34.51	01:55:33:06	4.056	V2669-02
 	descend	Appendicularia	1067.27	2682	 	36.698338	-122.05914	1722052	0.5	2005-07-08 19:04:31.0	Ventana	34.537	02:57:32:16	3.789	V2682-03
 	transect	Mesomyaria	800.38	2674	 	36.752426	-122.204704	1799654	0.36	2005-06-08 17:53:16.0	Ventana	34.488	00:37:48:24	4.355	V2674-01
 	descend	Dosidicus gigas	657.16	2681	 	36.697945	-122.05386	1715952	0.29	2005-07-07 18:30:33.55	Ventana	34.405	02:00:53:08	5.222	V2681-02
 	cruise	Asteroidea	327.56	2688	 	36.808258	-122.02021	1677831	1.23	2005-07-14 18:10:03.0	Ventana	34.223	01:55:45:11	7.561	V2688-02
 	transect	Rathbunaster californicus	196.34	2696	 	36.802666	-122.12169	1813034	1.55	2005-08-01 16:58:34.0	Ventana	34.2	00:26:53:02	8.601	V2696-01
 	transect	Mesomyaria	801.99	2674	 	36.752247	-122.20693	1800001	0.37	2005-06-08 18:04:23.0	Ventana	34.49	00:48:55:03	4.341	V2674-01
 	transect	Mediaster	 	2687	 	 	 	1812356	 	2005-07-13 20:34:05.0	Ventana	 	03:59:02:27	 	V2687-04
 	transect	Mesomyaria	999.97	2669	 	36.731422	-122.236755	1686879	0.44	2005-05-25 19:04:01.0	Ventana	34.52	01:26:00:26	3.943	V2669-02
 	transect	Allocentrotus fragilis	 	2687	 	 	 	1811243	 	2005-07-13 20:05:30.0	Ventana	 	03:30:29:27	 	V2687-04
 	ascend	Crustacea	604.12	2682	 	36.69862	-122.06175	1723541	0.33	2005-07-08 20:57:57.0	Ventana	34.378	04:50:03:13	5.632	V2682-05
 	transect	Sergestes similis	300.41	2681	 	36.696915	-122.05245	2492435	1.23	2005-07-07 17:25:12.0	Ventana	34.234	00:56:19:17	7.393	V2681-01HD
 	transect	Mesomyaria	999.91	2669	 	36.73259	-122.25089	1737040	0.4	2005-05-25 20:38:16.0	Ventana	34.508	02:59:44:13	4.082	V2669-03
 	transect	Appendicularia	400.74	2681	 	36.696632	-122.05218	2493030	0.79	2005-07-07 17:44:44.0	Ventana	34.277	01:15:07:06	6.652	V2681-02HD
 	transect	Mesomyaria	802.29	2674	 	36.75089	-122.21987	1803655	0.35	2005-06-08 19:06:08.0	Ventana	34.487	01:50:09:29	4.37	V2674-02
 	ascend	Euphausiacea	144.64	2693	 	36.69075	-122.062965	1759263	1.93	2005-07-25 21:31:44.0	Ventana	34.113	03:56:15:28	9.114	V2693-04
 	transect	Brisaster	598.29	2680	 	36.781292	-122.22627	1804956	0.36	2005-06-27 18:34:26.0	Ventana	34.378	01:13:32:24	5.597	V2680-02
 	transect	Ceriantharia sp. 2	1000.24	2669	 	36.731762	-122.24477	1734453	0.4	2005-05-25 19:55:00.0	Ventana	34.508	02:16:31:17	4.075	V2669-03
 	transect	Lycenchelys camchatica	799.93	2674	 	36.75249	-122.20449	1799594	0.35	2005-06-08 17:52:00.0	Ventana	34.487	00:36:33:10	4.382	V2674-01
 	transect	Ceriantharia sp. 1	599.46	2680	 	36.778893	-122.224075	1804453	0.36	2005-06-27 18:04:38.0	Ventana	34.376	00:44:44:15	5.604	V2680-01
 	transect	phialidium	500.56	2681	 	36.696712	-122.0523	2493579	0.44	2005-07-07 18:00:16.0	Ventana	34.346	01:30:38:24	6.016	V2681-02HD
 	transect	Aegina	700.62	2681	 	36.697132	-122.052986	2497670	0.29	2005-07-07 18:39:18.0	Ventana	34.436	02:09:00:25	4.931	V2681-03HD
 	descend	Poeobius meseres	1058.54	2683	 	36.705063	-122.04898	1757428	0.49	2005-07-11 19:26:11.0	Ventana	34.534	03:06:31:22	3.834	V2683-03
 	transect	Osmeridae	600.49	2680	http://search.mbari.org/ARCHIVE/frameGrabs/Ventana/images/2680/00_22_56_26.jpg	36.77717	-122.22234	1804250	0.36	2005-06-27 17:42:49.0	Ventana	34.379	00:22:56:26	5.578	V2680-01
 	transect	Calliostoma platinum	 	2687	 	 	 	1808687	 	2005-07-13 17:27:10.0	Ventana	 	00:54:02:11	 	V2687-01
 	transect	Poeobius meseres	400.72	2681	 	36.69794	-122.05365	2493233	0.79	2005-07-07 17:50:13.0	Ventana	34.278	01:20:37:21	6.661	V2681-02HD
 	transect	Caecosagitta macrocephala	800.99	2681	 	36.694965	-122.05067	2498016	0.31	2005-07-07 18:52:50.0	Ventana	34.476	02:22:33:14	4.481	V2681-03HD
 	transect	Mesomyaria	1000.1	2669	 	36.731888	-122.24553	1735393	0.41	2005-05-25 20:00:37.0	Ventana	34.509	02:22:06:10	4.064	V2669-03
 	transect	Phyllospadix	800.09	2674	 	36.752537	-122.20377	1799391	0.35	2005-06-08 17:47:58.0	Ventana	34.485	00:32:31:22	4.368	V2674-01
 	transect	Neptunea amianta	801.21	2674	 	36.75215	-122.20812	1800707	0.35	2005-06-08 18:10:15.0	Ventana	34.491	00:54:46:09	4.331	V2674-01
 	transect	Poeobius meseres	600.57	2681	 	36.696407	-122.05203	2493736	0.3	2005-07-07 18:21:57.0	Ventana	34.388	01:52:18:20	5.48	V2681-02HD
 	cruise	Chionoecetes tanneri	1015.7	2689	 	36.771564	-122.08297	1669642	0.5	2005-07-18 16:51:19.0	Ventana	34.531	00:14:22:25	3.83	V2689-01
 	transect	Mesomyaria	801.73	2674	 	36.751766	-122.21084	1801053	0.36	2005-06-08 18:23:30.0	Ventana	34.488	01:07:34:16	4.33	V2674-02
 	transect	Mesomyaria	798.44	2674	 	36.75163	-122.21376	1801302	0.35	2005-06-08 18:36:47.0	Ventana	34.489	01:20:50:20	4.342	V2674-02
 	transect	Mesomyaria	1000.37	2669	 	36.731483	-122.24226	1694482	0.41	2005-05-25 19:40:53.0	Ventana	34.509	02:02:50:05	4.063	V2669-02
 	ascend	Chaetognatha	370.94	2693	 	36.696644	-122.06056	1758714	1.2	2005-07-25 20:30:44.0	Ventana	34.233	03:10:17:05	7.177	V2693-03
 	transect	Hormiphora	200.37	2681	 	36.69832	-122.05344	2491322	1.66	2005-07-07 17:13:30.0	Ventana	34.2	00:44:37:08	8.34	V2681-01HD
 	transect	Psolus squamatus	 	2687	http://search.mbari.org/ARCHIVE/frameGrabs/Ventana/images/2687/03_14_09_17.jpg	 	 	1811040	 	2005-07-13 19:49:08.0	Ventana	 	03:14:09:17	 	V2687-04
 	descend	Chaetognatha	172.85	2683	 	36.70105	-122.05124	1756330	1.63	2005-07-11 16:41:14.0	Ventana	34.193	00:28:55:12	8.748	V2683-01
 	transect	Careproctus melanurus	800.53	2674	http://search.mbari.org/ARCHIVE/frameGrabs/Ventana/images/2674/01_36_43_16.jpg	36.751137	-122.21691	1803452	0.35	2005-06-08 18:52:40.0	Ventana	34.485	01:36:43:16	4.353	V2674-02
 	transect	Phyllospadix	800.62	2674	 	36.752403	-122.2055	1799798	0.36	2005-06-08 17:57:10.0	Ventana	34.486	00:41:42:26	4.362	V2674-01
 	transect	Calycophorae	1001.04	2681	 	36.694668	-122.05044	2498519	0.47	2005-07-07 19:20:41.0	Ventana	34.531	02:50:21:11	3.868	V2681-03HD
 	transect	Ceriantharia sp. 2	1000.43	2669	 	36.73224	-122.24876	1736242	0.4	2005-05-25 20:24:38.0	Ventana	34.507	02:46:06:03	4.078	V2669-03
 	ascend	Lobata	344.2	2693	 	36.69365	-122.06129	1758917	1.25	2005-07-25 21:08:13.0	Ventana	34.236	03:32:45:20	7.399	V2693-04
 	transect	Nanomia bijuga	500.58	2681	 	36.697548	-122.0533	2493376	0.44	2005-07-07 17:56:37.0	Ventana	34.347	01:27:00:04	6.018	V2681-02HD
 	descend	Aegina	1187.47	2682	 	36.698574	-122.05835	1722255	0.68	2005-07-08 19:35:08.0	Ventana	34.572	03:27:44:05	3.382	V2682-04
 	transect	Psolus squamatus	399.9	2687	 	36.78812	-122.12164	1809236	1.13	2005-07-13 17:37:27.0	Ventana	34.243	01:03:49:02	7.255	V2687-02
 	transect	Rathbunaster californicus	 	2687	 	 	 	1812702	 	2005-07-13 20:53:15.0	Ventana	 	04:17:45:26	 	V2687-05
 	cruise	Lycodes	348.65	2676	 	36.804695	-122.029	1676605	1.22	2005-06-14 17:02:47.0	Ventana	34.238	00:46:54:03	7.51	V2676-01
 	transect	Mesomyaria	999.9	2669	 	36.731285	-122.238106	1688368	0.43	2005-05-25 19:15:36.0	Ventana	34.518	01:37:35:04	3.959	V2669-02
 	transect	Psolus squamatus	 	2687	 	 	 	1809942	 	2005-07-13 18:48:28.0	Ventana	 	02:14:13:25	 	V2687-03
 	transect	Mesomyaria	998.44	2669	 	36.73118	-122.23443	1684134	0.45	2005-05-25 18:45:03.0	Ventana	34.521	01:07:04:05	3.916	V2669-02
 	descend	Chaetognatha	216.33	2693	 	36.696095	-122.058205	1758337	1.69	2005-07-25 18:27:10.0	Ventana	34.193	01:07:15:25	8.611	V2693-02
 	transect	molt	100.51	2681	 	36.699825	-122.05429	2489675	2.13	2005-07-07 16:47:37.0	Ventana	34.068	00:18:45:20	9.148	V2681-01HD
 	transect	Poeobius meseres	300.45	2681	 	36.697803	-122.053215	2492135	1.23	2005-07-07 17:22:11.0	Ventana	34.233	00:53:18:05	7.399	V2681-01HD
 	cruise	Chionoecetes tanneri	1282.56	2673	 	36.802937	-121.804695	1668341	0.8	2005-06-07 17:25:20.0	Ventana	34.581	00:09:11:06	3.231	V2673-01
 	transect	Nanomia bijuga	200.44	2681	 	36.69828	-122.05329	2490067	1.7	2005-07-07 17:04:30.0	Ventana	34.197	00:35:38:14	8.362	V2681-01HD
 	transect	Pennatulacea sp.1	600.7	2680	 	36.78651	-122.2311	1805882	0.36	2005-06-27 19:39:21.0	Ventana	34.377	02:17:59:28	5.6	V2680-03
 	transect	Mediaster	 	2687	 	 	 	1812499	 	2005-07-13 20:41:48.0	Ventana	 	04:06:45:13	 	V2687-04
 	endtransect	physical object	 	2687	 	 	 	1810837	 	2005-07-13 19:36:12.0	Ventana	 	03:01:54:29	 	V2687-03
 	transect	Nanomia bijuga	200.39	2681	 	36.698303	-122.05338	2491179	1.68	2005-07-07 17:12:30.0	Ventana	34.2	00:43:38:16	8.339	V2681-01HD
 	ascend	Nanomia	258.17	2681	 	36.697838	-122.05522	1719510	 	2005-07-07 21:29:59.0	Ventana	 	05:09:15:08	 	V2681-05
 	ascend	Chuniphyes	862.15	2683	 	36.7069	-122.048645	1757834	0.38	2005-07-11 20:58:35.0	Ventana	34.502	04:31:28:18	4.221	V2683-05
 	transect	Mediaster	400.1	2687	 	36.789074	-122.12405	1809536	1.17	2005-07-13 18:13:01.0	Ventana	34.239	01:39:21:14	7.356	V2687-02
 	transect	Psolus squamatus	 	2687	 	 	 	1809033	 	2005-07-13 17:34:07.0	Ventana	 	01:00:59:20	 	V2687-01
 	ascend	Poeobius meseres	656.19	2681	 	36.69881	-122.05421	1717660	0.29	2005-07-07 20:26:49.377	Ventana	34.408	03:55:50:09	5.25	V2681-04
 	transect	Phyllospadix	1000.23	2669	 	36.73142	-122.2418	1689872	0.4	2005-05-25 19:38:32.0	Ventana	34.509	02:00:29:08	4.076	V2669-02
 	transect	Ophiuroidea	999.51	2669	 	36.731117	-122.235466	1684337	0.45	2005-05-25 18:53:35.0	Ventana	34.52	01:15:35:12	3.924	V2669-02
 	transect	Brisaster	999.45	2669	 	36.7327	-122.25122	1737183	0.41	2005-05-25 20:40:17.0	Ventana	34.509	03:01:05:26	4.072	V2669-04
 	transect	Mesomyaria	800.92	2674	 	36.752514	-122.202805	1799248	0.34	2005-06-08 17:42:39.0	Ventana	34.482	00:27:12:09	4.383	V2674-01
 	transect	Phyllospadix	202.28	2696	 	36.805256	-122.12819	1813643	1.48	2005-08-01 18:09:46.0	Ventana	34.207	01:37:37:24	8.65	V2696-02
 	transect	Chionoecetes tanneri	598.97	2680	 	36.78011	-122.22511	1804596	0.35	2005-06-27 18:18:33.0	Ventana	34.382	00:58:38:26	5.554	V2680-01
 	cruise	Mesomyaria	997.53	2669	http://search.mbari.org/ARCHIVE/frameGrabs/Ventana/images/2669/00_15_03_00.jpg	36.730663	-122.22688	20003772	0.45	2005-05-25 17:52:33.0	Ventana	34.522	00:15:03:00	3.91	V2669-01
 	descend	benthos	411.13	2685	 	36.793186	-121.879456	1669785	1.0	2005-07-12 20:27:17.0	Ventana	34.256	00:24:52:02	7.083	V2685-01
 	cruise	Chionoecetes tanneri	1214.71	2683	 	36.706505	-122.04765	1757631	0.73	2005-07-11 20:10:29.0	Ventana	34.575	03:44:51:17	3.333	V2683-04
 	transect	Phyllospadix	203.22	2696	 	36.806694	-122.13028	1813800	1.47	2005-08-01 18:32:20.0	Ventana	34.215	02:00:10:25	8.62	V2696-02
 	transect	Psolus squamatus	 	2687	 	 	 	1808830	 	2005-07-13 17:30:15.0	Ventana	 	00:57:08:00	 	V2687-01
 	transect	Microstomus pacificus	801.76	2674	 	36.75246	-122.199875	1773860	0.29	2005-06-08 17:26:07.0	Ventana	34.467	00:10:41:24	4.64	V2674-01
 	transect	Mesomyaria	800.69	2674	 	36.75197	-122.2095	1800910	0.36	2005-06-08 18:17:21.0	Ventana	34.492	01:01:26:12	4.32	V2674-02
 	transect	Mediaster	 	2687	 	 	 	1811386	 	2005-07-13 20:10:48.0	Ventana	 	03:35:47:16	 	V2687-04
 	cruise	mud	382.9	2690	 	36.79006	-121.88764	1669988	0.94	2005-07-18 19:50:54.0	Ventana	34.269	01:06:01:07	6.952	V2690-01
 	ascend	Sergestes similis	289.04	2682	 	36.697033	-122.06133	1723744	1.27	2005-07-08 21:27:24.0	Ventana	34.235	05:19:05:06	7.555	V2682-06
 	descend	Cyclothone	920.98	2683	 	36.703533	-122.0485	1757285	0.38	2005-07-11 18:54:14.0	Ventana	34.504	02:34:36:11	4.198	V2683-03
 	transect	Nanomia bijuga	200.39	2681	 	36.698284	-122.053314	2490976	1.71	2005-07-07 17:10:23.0	Ventana	34.187	00:41:30:23	8.319	V2681-01HD
 	ascend	Appendicularia	666.34	2682	 	36.698925	-122.05958	1723367	0.28	2005-07-08 20:34:56.0	Ventana	34.403	04:27:04:03	5.237	V2682-05
 	ascend	Chaetognatha	492.25	2683	 	36.704365	-122.050575	1757991	0.67	2005-07-11 21:16:38.0	Ventana	34.305	04:49:31:19	6.478	V2683-05
 	transect	Mesomyaria	999.99	2669	 	36.73176	-122.24423	1734250	0.4	2005-05-25 19:51:28.0	Ventana	34.503	02:12:59:01	4.083	V2669-03
 	cruise	Gorgonocephalus	95.78	2688	 	36.813007	-122.02126	1679538	1.92	2005-07-14 21:30:52.933	Ventana	34.11	05:15:05:08	8.874	V2688-05
 	transect	Parastichopus leukothele	199.75	2696	 	36.804394	-122.12634	1813440	1.52	2005-08-01 17:46:42.0	Ventana	34.209	01:14:35:27	8.665	V2696-02
 	transect	Sebastolobus	998.71	2669	 	36.730904	-122.229774	1651171	0.45	2005-05-25 18:12:46.0	Ventana	34.521	00:35:13:04	3.908	V2669-01
 	descend	Euphausiacea	362.37	2682	 	36.69853	-122.06016	1720419	0.99	2005-07-08 17:32:01.0	Ventana	34.259	01:25:31:28	7.062	V2682-02
 	transect	Mediaster	 	2687	 	 	 	1811793	 	2005-07-13 20:25:17.0	Ventana	 	03:50:15:29	 	V2687-04
 	transect	molt	100.46	2681	 	36.698895	-122.05369	2489878	2.13	2005-07-07 16:52:12.0	Ventana	34.045	00:23:20:26	9.142	V2681-01HD
 	transect	Liponema brevicornis	602.02	2680	 	36.790604	-122.23277	1806791	0.35	2005-06-27 20:21:30.0	Ventana	34.379	03:00:06:20	5.586	V2680-03
 	transect	Glyptocephalus zachirus	 	2687	 	 	 	1810680	 	2005-07-13 19:27:46.0	Ventana	 	02:53:29:29	 	V2687-03
 	descend	Copepoda	482.32	2682	 	36.698578	-122.059746	1720811	0.51	2005-07-08 17:57:49.0	Ventana	34.329	01:51:18:00	6.17	V2682-02
 	transect	Ophiuroidea	998.23	2669	 	36.732956	-122.25219	1737386	0.41	2005-05-25 20:46:27.0	Ventana	34.508	03:07:15:00	4.075	V2669-04
 	cruise	Rathbunaster californicus	432.09	2688	 	36.805103	-122.01885	1677688	0.92	2005-07-14 17:44:26.0	Ventana	34.267	01:30:10:02	6.932	V2688-02
 	transect	Ceriantharia sp. 2	998.1	2669	 	36.733116	-122.25301	1737543	0.4	2005-05-25 20:50:52.0	Ventana	34.509	03:11:41:02	4.075	V2669-04
 	transect	Psolus squamatus	 	2687	 	 	 	1807183	 	2005-07-13 17:02:56.0	Ventana	 	00:29:50:13	 	V2687-01
 	transect	Sebastolobus	 	2687	 	 	 	1810131	 	2005-07-13 18:58:48.0	Ventana	 	02:24:33:08	 	V2687-03
 	transect	Stomphia	999.84	2669	 	36.731068	-122.23965	1689180	0.41	2005-05-25 19:25:27.0	Ventana	34.51	01:47:24:26	4.062	V2669-02
 	ascend	Cydippida	365.44	2681	 	36.699368	-122.05492	1718043	1.0	2005-07-07 20:51:13.04	Ventana	34.263	04:19:33:24	7.11	V2681-05
 	transect	Mesomyaria	1000.6	2669	 	36.73217	-122.24826	1736205	0.41	2005-05-25 20:20:53.0	Ventana	34.51	02:42:22:26	4.062	V2669-03
 	transect	Psolus squamatus	399.87	2687	 	36.788048	-122.12153	1809130	1.13	2005-07-13 17:35:59.0	Ventana	34.244	01:02:21:11	7.27	V2687-02
 	descend	Solmissus	383.56	2681	 	36.695557	-122.0512	1715080	0.93	2005-07-07 17:32:45.567	Ventana	34.261	01:03:09:21	6.893	V2681-02
 	transect	molt	100.5	2681	 	36.69978	-122.05426	2489758	2.12	2005-07-07 16:49:51.0	Ventana	34.067	00:21:00:01	9.159	V2681-01HD
 	descend	Copepoda	859.22	2682	 	36.698326	-122.05944	1721743	0.33	2005-07-08 18:48:30.0	Ventana	34.483	02:41:33:21	4.39	V2682-03
 	transect	Mesomyaria	802.94	2674	 	36.751793	-122.21017	1800993	0.36	2005-06-08 18:20:37.0	Ventana	34.491	01:04:42:10	4.317	V2674-02
 	transect	Gastropoda	197.63	2696	 	36.803448	-122.12386	1813214	1.55	2005-08-01 17:20:44.0	Ventana	34.198	00:49:02:01	8.627	V2696-01
 	cruise	Chionoecetes tanneri	1208.13	2683	 	36.70703	-122.04763	1757668	0.72	2005-07-11 20:15:16.0	Ventana	34.574	03:49:37:27	3.353	V2683-04
 	transect	Calliostoma platinum	 	2687	 	 	 	1811003	 	2005-07-13 19:47:42.0	Ventana	 	03:12:43:02	 	V2687-04
 	transect	Mesomyaria	800.64	2674	 	36.75257	-122.202065	1799151	0.35	2005-06-08 17:39:05.0	Ventana	34.497	00:23:38:26	4.392	V2674-01
 	cruise	Eptatretus	1017.93	2689	 	36.771557	-122.08294	1669882	0.51	2005-07-18 17:28:46.0	Ventana	34.532	00:51:47:27	3.831	V2689-01
 	transect	Mesomyaria	1000.13	2669	http://search.mbari.org/ARCHIVE/frameGrabs/Ventana/images/2669/01_02_14_13.jpg	36.73094	-122.233734	1683945	0.45	2005-05-25 18:40:13.0	Ventana	34.523	01:02:14:13	3.911	V2669-02
 	ascend	Nanomia	208.37	2693	 	36.69108	-122.0626	1759157	1.74	2005-07-25 21:24:52.0	Ventana	34.201	03:49:24:02	8.677	V2693-04
 	transect	Mediaster	 	2687	 	 	 	1810251	 	2005-07-13 19:12:29.0	Ventana	 	02:38:13:26	 	V2687-03
 	transect	Gastropoda sp.2	1000.09	2669	 	36.73122	-122.238434	1694722	0.43	2005-05-25 19:17:56.0	Ventana	34.516	01:39:55:04	3.966	V2669-02
 	ascend	Solmissus	254.5	2681	 	36.698494	-122.05621	1719164	1.46	2005-07-07 21:24:10.4	Ventana	34.222	04:52:28:26	7.999	V2681-05
 	descend	Appendicularia	372.51	2683	 	36.70141	-122.04982	1756593	1.08	2005-07-11 16:57:47.0	Ventana	34.245	00:45:26:15	7.027	V2683-01
 	ascend	Cydippida	939.13	2681	 	36.697556	-122.05402	1716953	0.41	2005-07-07 19:42:46.703	Ventana	34.515	03:11:50:10	4.072	V2681-04
 	ascend	Appendicularia	256.41	2681	 	36.698673	-122.05664	1719118	1.44	2005-07-07 21:23:08.933	Ventana	34.231	04:51:28:14	7.974	V2681-05
 	ascend	Doliolenetta	945.3	2681	 	36.697456	-122.053894	1716907	0.41	2005-07-07 19:41:45.233	Ventana	34.516	03:10:48:12	4.065	V2681-04
 	transect	Sebastolobus	 	2687	 	 	 	1807303	 	2005-07-13 17:05:17.0	Ventana	 	00:32:10:27	 	V2687-01
 	transect	Chaetognatha	200.42	2681	 	36.69828	-122.0533	2490879	1.7	2005-07-07 17:09:25.0	Ventana	34.197	00:40:33:15	8.33	V2681-01HD
 	transect	Glyptocephalus zachirus	400.54	2687	 	36.78898	-122.12379	1809499	1.16	2005-07-13 18:09:05.0	Ventana	34.24	01:35:25:17	7.341	V2687-02
 	transect	Praya	50.35	2681	 	36.69983	-122.05429	2485735	3.05	2005-07-07 16:40:30.0	Ventana	33.9	00:11:41:05	9.65	V2681-01HD
 	ascend	Appendicularia	838.49	2682	 	36.698677	-122.05857	1723247	0.34	2005-07-08 20:21:02.0	Ventana	34.48	04:13:12:01	4.415	V2682-05
 	ascend	Appendicularia	425.24	2683	 	36.70415	-122.05058	1758037	0.88	2005-07-11 21:19:15.0	Ventana	34.265	04:52:06:07	6.843	V2683-05
 	transect	Phyllospadix	802.93	2674	 	36.752247	-122.20632	1799918	0.36	2005-06-08 18:01:16.0	Ventana	34.488	00:45:48:08	4.339	V2674-01
 	ascend	Appendicularia	979.7	2681	 	36.69689	-122.05334	1716584	0.44	2005-07-07 19:35:39.833	Ventana	34.522	03:05:20:21	3.99	V2681-03
 	transect	Phyllospadix	801.32	2674	 	36.75096	-122.21898	1803618	0.35	2005-06-08 19:02:26.0	Ventana	34.494	01:46:28:18	4.341	V2674-02
 	ascend	Appendicularia	558.96	2682	 	36.69827	-122.06259	1723601	0.38	2005-07-08 21:07:54.0	Ventana	34.357	05:00:00:03	5.845	V2682-05
 	transect	Ophiuroidea	999.62	2669	 	36.731	-122.23135	1683622	0.45	2005-05-25 18:26:07.0	Ventana	34.523	00:48:33:15	3.913	V2669-01
 	transect	Phyllospadix	798.88	2674	 	36.75148	-122.21456	1801362	0.35	2005-06-08 18:42:09.0	Ventana	34.489	01:26:12:19	4.334	V2674-02
 	descend	Chaetognatha	969.35	2683	 	36.704014	-122.04858	1757345	0.42	2005-07-11 19:12:47.0	Ventana	34.518	02:53:10:06	4.037	V2683-03
 	transect	Ceriantharia sp. 1	599.84	2680	 	36.783695	-122.22915	1805445	0.35	2005-06-27 19:10:05.0	Ventana	34.379	01:49:08:19	5.593	V2680-02
 	transect	Allocentrotus fragilis	 	2687	 	 	 	1811326	 	2005-07-13 20:07:29.0	Ventana	 	03:32:28:11	 	V2687-04
 	transect	Appendicularia	1000.99	2681	 	36.696007	-122.052216	2498662	0.47	2005-07-07 19:27:55.0	Ventana	34.531	02:57:35:27	3.866	V2681-03HD
 	descend	Aegina	683.15	2682	 	36.698658	-122.05996	1721420	0.28	2005-07-08 18:12:56.0	Ventana	34.413	02:06:00:13	5.174	V2682-03
 	ascend	Salpida	378.16	2693	 	36.695942	-122.0606	1758774	1.19	2005-07-25 20:50:17.0	Ventana	34.23	03:14:51:08	7.141	V2693-04
 	transect	Poeobius meseres	600.53	2681	 	36.697582	-122.05342	2493842	0.3	2005-07-07 18:27:04.0	Ventana	34.389	01:57:25:24	5.471	V2681-02HD
 	transect	Mediaster	 	2687	 	 	 	1811710	 	2005-07-13 20:21:35.0	Ventana	 	03:46:33:08	 	V2687-04
 	transect	Gastropoda sp.2	999.22	2669	 	36.73103	-122.231964	1695091	0.45	2005-05-25 18:29:57.0	Ventana	34.52	00:52:22:28	3.913	V2669-01
 	descend	Solmissus	291.13	2681	 	36.698566	-122.05372	1713636	1.26	2005-07-07 17:18:29.64	Ventana	34.231	00:49:37:07	7.499	V2681-01
 	descend	physical object	208.31	2686	http://search.mbari.org/ARCHIVE/frameGrabs/Ventana/images/2686/01_06_25_14.jpg	36.79371	-121.88108	20005027	1.68	2005-07-12 21:59:16.0	Ventana	34.134	01:06:25:14	8.38	V2686-02
 	transect	Mesomyaria	999.79	2669	 	36.730618	-122.22935	1651074	0.45	2005-05-25 18:08:52.0	Ventana	34.522	00:31:19:25	3.905	V2669-01
 	transect	Stomphia	1000.47	2669	 	36.731876	-122.246994	1735776	0.41	2005-05-25 20:11:16.0	Ventana	34.51	02:32:45:22	4.066	V2669-03
 	transect	Calliostoma platinum	 	2687	 	 	 	1808807	 	2005-07-13 17:29:50.0	Ventana	 	00:56:42:08	 	V2687-01
 	transect	Hastigerinella digitata	200.49	2681	 	36.69828	-122.05329	2490510	1.71	2005-07-07 17:07:12.0	Ventana	34.197	00:38:21:04	8.341	V2681-01HD
 	transect	Phyllospadix	800.93	2674	 	36.751003	-122.21821	1803558	0.35	2005-06-08 18:59:08.0	Ventana	34.489	01:43:10:29	4.347	V2674-02
 	stationary	Appendicularia	502.31	2694	 	36.784637	-122.20047	1676636	0.85	2005-07-27 20:07:21.0	Ventana	34.272	02:39:30:00	6.694	V2694-03
 	transect	Phyllospadix	799.1	2674	 	36.751335	-122.21535	1801422	0.35	2005-06-08 18:45:24.0	Ventana	34.489	01:29:27:19	4.339	V2674-02
 	transect	Brisaster	999.94	2669	 	36.73176	-122.24437	1734287	0.4	2005-05-25 19:52:08.0	Ventana	34.507	02:13:38:08	4.082	V2669-03
 	transect	Sebastolobus altivelis	802.21	2674	 	36.75232	-122.20589	1799858	0.36	2005-06-08 17:59:29.0	Ventana	34.488	00:44:01:06	4.336	V2674-01
 	transect	Pennatulacea sp.1	600.93	2680	 	36.7861	-122.23088	1805859	0.36	2005-06-27 19:34:38.0	Ventana	34.379	02:13:17:08	5.597	V2680-03
 	transect	Appendicularia	400.76	2681	 	36.69743	-122.0531	2493150	0.79	2005-07-07 17:48:05.0	Ventana	34.278	01:18:28:09	6.662	V2681-02HD
 	transect	Rathbunaster californicus	 	2687	 	 	 	1807686	 	2005-07-13 17:22:46.0	Ventana	 	00:49:38:27	 	V2687-01
 	transect	Euphausia	200.4	2681	 	36.698284	-122.05331	2490939	1.71	2005-07-07 17:10:01.0	Ventana	34.195	00:41:09:22	8.323	V2681-01HD
 	descend	Appendicularia	292.93	2683	 	36.701046	-122.05016	1756487	1.26	2005-07-11 16:53:17.0	Ventana	34.243	00:40:56:27	7.744	V2683-01
 	cruise	Gorgonocephalus	92.47	2688	 	36.814476	-122.01875	1679478	1.94	2005-07-14 21:11:47.607	Ventana	34.1	04:56:01:04	8.915	V2688-05
 	transect	Atolla vanhoeffeni	400.74	2681	 	36.697067	-122.05269	2493090	0.79	2005-07-07 17:46:34.0	Ventana	34.278	01:16:58:01	6.659	V2681-02HD
 	ascend	Appendicularia	698.0	2681	 	36.698734	-122.05482	1717599	0.27	2005-07-07 20:21:03.567	Ventana	34.42	03:50:04:10	5.095	V2681-04
 	transect	Mesomyaria	1000.0	2669	 	36.731716	-122.24393	1734024	0.41	2005-05-25 19:49:40.0	Ventana	34.513	02:11:10:11	4.081	V2669-03
 	transect	Caecosagitta macrocephala	1001.01	2681	 	36.695354	-122.051315	2498602	0.48	2005-07-07 19:24:18.0	Ventana	34.535	02:53:58:28	3.844	V2681-03HD
 	transect	Mesomyaria	999.51	2669	 	36.73103	-122.23118	1683562	0.45	2005-05-25 18:24:44.0	Ventana	34.521	00:47:11:04	3.914	V2669-01
 	ascend	Euphausiacea	258.17	2681	 	36.697838	-122.05522	1719547	 	2005-07-07 21:29:59.0	Ventana	 	05:12:37:06	 	V2681-05
 	ascend	Appendicularia	401.2	2681	 	36.69927	-122.05447	1717983	0.89	2005-07-07 20:47:39.767	Ventana	34.269	04:16:00:15	6.892	V2681-05
 	transect	Mediaster	 	2687	 	 	 	1812462	 	2005-07-13 20:39:56.0	Ventana	 	04:04:53:08	 	V2687-04
 	transect	Phyllospadix	999.97	2669	 	36.732582	-122.25026	1736957	0.41	2005-05-25 20:35:08.0	Ventana	34.509	02:56:36:14	4.067	V2669-03
 	transect	Nanomia bijuga	200.49	2681	 	36.69828	-122.05329	2490570	1.71	2005-07-07 17:07:35.0	Ventana	34.195	00:38:42:26	8.336	V2681-01HD
 	transect	Appendicularia	300.44	2681	 	36.698315	-122.05353	2491969	1.25	2005-07-07 17:20:22.0	Ventana	34.233	00:51:30:00	7.431	V2681-01HD
 	descend	Hormiphora	221.99	2681	 	36.6985	-122.053505	1713576	1.5	2005-07-07 17:15:10.05	Ventana	34.216	00:46:17:25	8.215	V2681-01
 	ascend	Bathocyroe	603.11	2682	 	36.698643	-122.06151	1723510	0.34	2005-07-08 20:56:21.0	Ventana	34.375	04:48:27:11	5.638	V2682-05
 	descend	Nanomia	507.12	2683	 	36.70143	-122.04918	1756856	0.68	2005-07-11 17:39:37.0	Ventana	34.306	01:23:43:10	6.467	V2683-02
 	ascend	Chaetognatha	370.94	2693	 	36.69644	-122.060684	1758683	1.2	2005-07-25 20:28:01.0	Ventana	34.233	03:07:32:23	7.165	V2693-03
 	transect	Ceriantharia sp. 1	599.92	2680	 	36.778202	-122.223404	1804370	0.36	2005-06-27 17:55:35.0	Ventana	34.378	00:35:41:17	5.592	V2680-01
 	ascend	sinker	878.43	2681	 	36.698296	-122.055244	1717336	0.35	2005-07-07 19:51:39.333	Ventana	34.504	03:20:41:28	4.287	V2681-04
 	descend	Appendicularia	377.59	2682	 	36.698444	-122.05996	1720668	0.94	2005-07-08 17:35:02.0	Ventana	34.261	01:28:33:20	6.981	V2682-02
 	descend	Solmissus	 	2693	 	 	 	1759420	 	2005-07-25 16:44:12.0	Ventana	 	00:22:44:19	 	V2693-01
 	transect	Mesomyaria	997.25	2669	 	36.73062	-122.22766	1649201	0.45	2005-05-25 17:58:30.0	Ventana	34.521	00:20:57:26	3.908	V2669-01
 	cruise	rock outcrop	109.74	2688	 	36.813244	-122.01886	1679215	1.97	2005-07-14 19:29:45.0	Ventana	34.096	03:14:32:23	8.93	V2688-04
 	ascend	Poeobius meseres	1151.65	2682	 	36.69824	-122.05748	1722495	0.62	2005-07-08 19:54:34.0	Ventana	34.556	03:47:08:19	3.503	V2682-04
 	transect	Mediaster	 	2687	 	 	 	1809988	 	2005-07-13 18:49:34.0	Ventana	 	02:15:19:29	 	V2687-03
 	transect	Mediaster	 	2687	 	 	 	1812199	 	2005-07-13 20:28:56.0	Ventana	 	03:53:54:27	 	V2687-04
 	ascend	Appendicularia	556.83	2681	 	36.69894	-122.05426	1717720	0.38	2005-07-07 20:31:57.267	Ventana	34.362	04:00:57:26	5.868	V2681-04
 	transect	Phyllospadix	800.93	2674	 	36.752537	-122.20253	1799211	0.35	2005-06-08 17:41:23.0	Ventana	34.486	00:25:56:16	4.382	V2674-01
 	transect	Mesomyaria	999.71	2669	 	36.7312	-122.23575	1684374	0.44	2005-05-25 18:55:33.0	Ventana	34.519	01:17:33:06	3.934	V2669-02
 	descend	Aegina	716.25	2682	 	36.698467	-122.05991	1721480	0.28	2005-07-08 18:22:18.0	Ventana	34.438	02:15:23:21	4.914	V2682-03
 	transect	Stomphia	1000.07	2669	 	36.731136	-122.238525	1688871	0.43	2005-05-25 19:18:15.0	Ventana	34.517	01:40:13:19	3.962	V2669-02
 	ascend	Aegina	745.79	2682	 	36.69879	-122.05918	1723307	0.29	2005-07-08 20:29:07.0	Ventana	34.445	04:21:16:02	4.844	V2682-05
 	ascend	Appendicularia	639.88	2683	 	36.705086	-122.0501	1757931	0.28	2005-07-11 21:09:52.0	Ventana	34.406	04:42:44:04	5.272	V2683-05
 	transect	Stomphia	999.71	2669	 	36.73131	-122.23591	1684434	0.44	2005-05-25 18:56:48.0	Ventana	34.521	01:18:47:27	3.933	V2669-02
 	ascend	Hastigerinella digitata	259.85	2681	 	36.698795	-122.056915	1719058	1.42	2005-07-07 21:21:59.373	Ventana	34.23	04:50:18:14	7.96	V2681-05
 	descend	Haliscera	302.97	2693	 	36.697666	-122.06091	1758480	1.32	2005-07-25 19:39:26.0	Ventana	34.236	02:19:01:09	7.673	V2693-03
 	ascend	sinker	436.15	2681	 	36.69907	-122.054184	1717780	0.65	2005-07-07 20:37:36.9	Ventana	34.302	04:06:36:19	6.483	V2681-04
 	descend	Sergestes similis	466.0	2688	 	36.793434	-122.0183	1677222	0.89	2005-07-14 16:14:34.0	Ventana	34.272	00:00:54:28	6.843	V2688-01
 	transect	Ophiuroidea	999.41	2669	 	36.731056	-122.235054	1684254	0.45	2005-05-25 18:50:40.0	Ventana	34.521	01:12:39:28	3.922	V2669-02
 	descend	Appendicularia	473.55	2681	 	36.698105	-122.05389	1715343	0.49	2005-07-07 17:52:55.767	Ventana	34.334	01:23:18:19	6.107	V2681-02
 	descend	Appendicularia	412.21	2683	 	36.701435	-122.04956	1756653	0.92	2005-07-11 17:05:31.0	Ventana	34.264	00:53:09:19	6.886	V2683-01
 	transect	Rathbunaster californicus	204.12	2696	 	36.80538	-122.12842	1813703	1.49	2005-08-01 18:17:10.0	Ventana	34.212	01:45:01:18	8.627	V2696-02
 	transect	Phyllospadix	997.62	2669	 	36.730606	-122.22697	1649081	0.45	2005-05-25 17:53:51.0	Ventana	34.522	00:16:20:09	3.91	V2669-01
 	cruise	Sebastes	468.4	2676	 	36.802525	-122.02939	1676282	0.56	2005-06-14 16:34:20.0	Ventana	34.337	00:18:29:04	6.176	V2676-01
 	transect	Rathbunaster californicus	196.5	2696	 	36.803257	-122.123184	1813154	1.54	2005-08-01 17:13:12.0	Ventana	34.202	00:41:30:20	8.614	V2696-01
 	transect	Ophiuroidea	999.36	2669	 	36.73051	-122.22858	1650908	0.45	2005-05-25 18:04:17.0	Ventana	34.522	00:26:44:28	3.908	V2669-01
 	transect	Mediaster	 	2687	 	 	 	1811830	 	2005-07-13 20:26:38.0	Ventana	 	03:51:36:13	 	V2687-04
 	ascend	Appendicularia	1168.92	2683	 	36.707085	-122.04823	1757728	0.7	2005-07-11 20:28:34.0	Ventana	34.568	04:02:55:02	3.405	V2683-04
 	transect	Lycodes cortezianus	 	2687	 	 	 	1812582	 	2005-07-13 20:46:06.0	Ventana	 	04:10:37:12	 	V2687-05
 	transect	Mesomyaria	1000.19	2669	 	36.731136	-122.240326	1689240	0.41	2005-05-25 19:29:22.0	Ventana	34.51	01:51:20:07	4.06	V2669-02
 	transect	Psolus squamatus	399.87	2687	 	36.788044	-122.12152	1809070	1.14	2005-07-13 17:35:44.0	Ventana	34.237	01:02:07:00	7.276	V2687-02
 	descend	Appendicularia	205.63	2693	 	36.696022	-122.05841	1758300	1.82	2005-07-25 18:25:02.0	Ventana	34.185	01:05:06:15	8.704	V2693-02
 	cruise	shell hash	93.12	2688	 	36.814888	-122.01715	1679418	1.96	2005-07-14 20:31:20.0	Ventana	34.093	04:16:04:01	8.948	V2688-04
 	cruise	shell hash	103.46	2688	 	36.815205	-122.01568	1679275	1.99	2005-07-14 19:41:17.0	Ventana	34.089	03:26:04:14	8.918	V2688-04
 	ascend	sinker	336.59	2681	 	36.69939	-122.05526	1718103	1.14	2005-07-07 20:53:55.233	Ventana	34.245	04:22:15:17	7.285	V2681-05
 	transect	Glyptocephalus zachirus	 	2687	 	 	 	1810191	 	2005-07-13 19:07:00.0	Ventana	 	02:32:44:21	 	V2687-03
 	transect	Phyllospadix	998.22	2669	 	36.732983	-122.25247	1737446	0.4	2005-05-25 20:47:57.0	Ventana	34.508	03:08:45:15	4.076	V2669-04
 	ascend	Nanomia	192.2	2693	 	36.690605	-122.06287	1759217	1.84	2005-07-25 21:28:59.0	Ventana	34.168	03:53:30:10	8.849	V2693-04
 	cruise	Actiniaria	536.88	2688	 	36.798443	-122.01956	1677448	0.62	2005-07-14 17:01:57.0	Ventana	34.327	00:48:16:04	6.24	V2688-01
 	transect	Mesomyaria	1000.23	2669	 	36.730972	-122.23325	1683885	0.45	2005-05-25 18:38:03.0	Ventana	34.522	01:00:29:00	3.91	V2669-01
 	descend	Copepoda	413.99	2682	 	36.698215	-122.059814	1720728	0.75	2005-07-08 17:39:22.0	Ventana	34.273	01:32:53:01	6.567	V2682-02
 	cruise	Rathbunaster californicus	468.27	2688	 	36.80239	-122.01823	1677591	0.82	2005-07-14 17:30:24.0	Ventana	34.279	01:16:08:23	6.739	V2688-02
 	descend	sinker	974.98	2682	 	36.698322	-122.05924	1722006	0.43	2005-07-08 18:57:13.0	Ventana	34.52	02:50:14:27	4.009	V2682-03
 	ascend	Haliscera	327.8	2693	 	36.691936	-122.061935	1759037	1.29	2005-07-25 21:16:46.0	Ventana	34.236	03:41:17:08	7.556	V2693-04
 	descend	Appendicularia	338.91	2682	 	36.698788	-122.06058	1720179	1.05	2005-07-08 17:11:51.0	Ventana	34.254	01:05:24:05	7.155	V2682-02
 	transect	molt	100.49	2681	 	36.699295	-122.05395	2489818	2.14	2005-07-07 16:51:16.0	Ventana	34.067	00:22:24:12	9.15	V2681-01HD
 	cruise	Merluccius productus	503.93	2694	 	36.78418	-122.200645	1676162	0.76	2005-07-27 17:08:43.0	Ventana	34.289	00:01:51:26	6.486	V2694-01
 	transect	Psolus squamatus	 	2687	 	 	 	1811123	 	2005-07-13 19:54:31.0	Ventana	 	03:19:32:07	 	V2687-04
 	ascend	Appendicularia	515.64	2682	 	36.69829	-122.06303	1723661	0.47	2005-07-08 21:11:53.0	Ventana	34.339	05:03:35:03	6.109	V2682-06
 	descend	Praya	65.21	2683	 	36.70063	-122.05161	1756224	2.92	2005-07-11 16:16:08.0	Ventana	33.919	00:03:49:26	9.578	V2683-01
 	descend	Apolemia	746.57	2682	 	36.698452	-122.05965	1721623	0.29	2005-07-08 18:30:01.0	Ventana	34.446	02:23:03:28	4.819	V2682-03
 	ascend	Chaetognatha	978.31	2682	 	36.697712	-122.05834	1722924	0.44	2005-07-08 20:06:58.0	Ventana	34.519	03:59:33:03	3.983	V2682-04
 	cruise	Macrouridae	1232.93	2683	 	36.70578	-122.047874	1757548	0.74	2005-07-11 19:52:27.0	Ventana	34.576	03:26:50:12	3.308	V2683-04
 	transect	Euplexaura	 	2687	 	 	 	1809822	 	2005-07-13 18:44:36.0	Ventana	 	02:10:22:09	 	V2687-03
 	transect	Brisaster	 	2669	 	 	 	1737649	 	2005-05-25 13:54:43.0	Ventana	 	03:15:31:12	 	V2669-04
 	transect	Pennatulacea sp.1	602.09	2680	 	36.791737	-122.23298	1806874	0.36	2005-06-27 20:30:18.0	Ventana	34.379	03:08:53:23	5.59	V2680-03
 	transect	Mediaster	 	2687	 	 	 	1812259	 	2005-07-13 20:29:58.0	Ventana	 	03:54:56:24	 	V2687-04
 	transect	Rathbunaster californicus	200.39	2696	 	36.804874	-122.1275	1813537	1.51	2005-08-01 17:57:56.0	Ventana	34.211	01:25:48:15	8.671	V2696-02
 	transect	molt	100.5	2681	 	36.69983	-122.05429	2489638	2.13	2005-07-07 16:46:52.0	Ventana	34.068	00:18:02:02	9.144	V2681-01HD
 	stationary	Chionoecetes tanneri	998.34	2679	http://search.mbari.org/ARCHIVE/frameGrabs/Ventana/images/2679/00_19_00_00.jpg	36.68986	-122.1656	1824374	0.39	2005-06-16 17:47:39.0	Ventana	34.512	00:19:00:00	4.113	V2679-01
 	descend	Calycophorae	362.91	2693	 	36.696186	-122.060905	1758623	1.22	2005-07-25 20:20:19.0	Ventana	34.236	02:59:51:06	7.286	V2693-03
 	transect	Pennatulacea sp.1	599.42	2680	 	36.777763	-122.22278	1804310	0.36	2005-06-27 17:50:05.0	Ventana	34.378	00:30:11:28	5.585	V2680-01
 	transect	cydippida	600.64	2681	 	36.695847	-122.05138	2493676	0.3	2005-07-07 18:19:20.0	Ventana	34.387	01:49:42:04	5.496	V2681-02HD
 	descend	Galiteuthis	1087.2	2682	http://search.mbari.org/ARCHIVE/frameGrabs/Ventana/images/2682/02_59_16_06.jpg	36.69828	-122.059166	20004764	0.53	2005-07-08 19:06:16.0	Ventana	34.545	02:59:16:06	3.704	V2682-03
 	ascend	Copepoda	585.81	2682	 	36.698822	-122.060356	1723450	0.4	2005-07-08 20:42:59.0	Ventana	34.371	04:35:06:04	5.671	V2682-05
 	descend	Copepoda	500.12	2683	 	36.701485	-122.049385	1756796	0.69	2005-07-11 17:25:27.0	Ventana	34.303	01:09:35:09	6.471	V2683-02
 	transect	Phyllospadix	799.29	2674	 	36.752514	-122.20427	1799534	0.35	2005-06-08 17:50:43.0	Ventana	34.484	00:35:16:08	4.386	V2674-01
 	transect	Sebastolobus	 	2687	http://search.mbari.org/ARCHIVE/frameGrabs/Ventana/images/2687/03_08_34_04.jpg	 	 	1810943	 	2005-07-13 19:43:32.0	Ventana	 	03:08:34:04	 	V2687-04
 	descend	Myctophidae	835.61	2681	 	36.696976	-122.053215	1716464	0.32	2005-07-07 19:04:02.633	Ventana	34.483	02:33:44:28	4.389	V2681-03
 	transect	Mesomyaria	1000.52	2669	 	36.732372	-122.249535	1736528	0.41	2005-05-25 20:30:00.0	Ventana	34.51	02:51:27:22	4.07	V2669-03
 	transect	Psolus squamatus	 	2687	 	 	 	1807626	 	2005-07-13 17:18:35.0	Ventana	 	00:45:28:18	 	V2687-01
 	descend	Nanomia	235.65	2682	 	36.699883	-122.06072	1719976	1.43	2005-07-08 16:22:08.0	Ventana	34.221	00:16:12:20	7.984	V2682-01
 	transect	Euphausia	200.37	2681	 	36.698315	-122.05342	2491262	1.66	2005-07-07 17:13:14.0	Ventana	34.2	00:44:22:06	8.341	V2681-01HD
 	transect	Mesomyaria	998.63	2669	 	36.731415	-122.236565	1684803	0.44	2005-05-25 19:02:16.0	Ventana	34.52	01:24:15:14	3.937	V2669-02
 	ascend	Euphausiacea	258.17	2681	 	36.697838	-122.05522	1719427	 	2005-07-07 21:29:59.0	Ventana	 	05:04:27:15	 	V2681-05
 	transect	molt	50.52	2681	 	36.698803	-122.05348	2485381	 	2005-07-07 16:30:52.0	Ventana	 	00:02:01:12	 	V2681-01HD
 	transect	Mesomyaria	998.39	2669	 	36.73102	-122.23029	1651277	0.45	2005-05-25 18:16:48.0	Ventana	34.522	00:39:14:24	3.912	V2669-01
 	ascend	Appendicularia	263.32	2681	 	36.69889	-122.05676	1718855	1.41	2005-07-07 21:18:50.033	Ventana	34.231	04:47:09:09	7.931	V2681-05
 	transect	Phyllospadix	800.01	2674	 	36.752655	-122.20049	1774123	0.29	2005-06-08 17:31:07.0	Ventana	34.46	00:15:41:01	4.653	V2674-01
 	transect	Psolus squamatus	 	2687	 	 	 	1808747	 	2005-07-13 17:28:28.0	Ventana	 	00:55:20:05	 	V2687-01
 	transect	Mesomyaria	800.05	2674	 	36.752483	-122.203575	1799354	0.35	2005-06-08 17:46:53.0	Ventana	34.48	00:31:25:28	4.385	V2674-01
 	transect	Parastichopus leukothele	199.6	2696	 	36.8039	-122.12536	1813334	1.51	2005-08-01 17:36:19.0	Ventana	34.21	01:04:12:20	8.639	V2696-02
 	transect	Teuthoidea	400.8	2681	 	36.695908	-122.05132	2492924	0.79	2005-07-07 17:41:29.0	Ventana	34.276	01:11:53:07	6.665	V2681-02HD
 	descend	Aegina	943.47	2682	 	36.698254	-122.05934	1721803	0.36	2005-07-08 18:54:02.0	Ventana	34.501	02:47:04:00	4.224	V2682-03
 	descend	Appendicularia	234.42	2683	 	36.700974	-122.05067	1756427	1.71	2005-07-11 16:49:32.0	Ventana	34.188	00:37:13:17	8.12	V2683-01
 	ascend	Hastigerinella digitata	368.39	2693	 	36.694965	-122.06095	1758834	1.24	2005-07-25 20:58:48.0	Ventana	34.234	03:23:21:21	7.336	V2693-04
 	ascend	Calycophorae	279.73	2681	 	36.699722	-122.05501	1718306	1.36	2005-07-07 21:03:14.733	Ventana	34.231	04:31:35:14	7.771	V2681-05
 	transect	Brisaster	598.19	2680	 	36.7818	-122.22689	1805062	0.36	2005-06-27 18:41:23.0	Ventana	34.377	01:20:28:04	5.597	V2680-02
 	transect	Mediaster	 	2687	 	 	 	1812785	 	2005-07-13 20:57:23.0	Ventana	 	04:21:53:10	 	V2687-05
 	transect	apolemia	901.09	2681	 	36.696865	-122.05302	2498279	0.39	2005-07-07 19:06:54.0	Ventana	34.505	02:36:35:07	4.164	V2681-03HD
 	ascend	sinker	252.87	2683	 	36.703045	-122.05069	1758097	1.58	2005-07-11 21:26:43.0	Ventana	34.206	04:59:35:14	8.002	V2683-05
 	transect	Sebastes aurora	399.87	2687	http://search.mbari.org/ARCHIVE/frameGrabs/Ventana/images/2687/01_05_07_21.jpg	36.78811	-122.12174	1809296	1.14	2005-07-13 17:38:45.0	Ventana	34.242	01:05:07:21	7.287	V2687-02
 	transect	Mediaster	 	2687	 	 	 	1812665	 	2005-07-13 20:50:17.0	Ventana	 	04:14:47:19	 	V2687-05
 	transect	molt	200.36	2681	 	36.69829	-122.05333	2491059	1.69	2005-07-07 17:11:16.0	Ventana	34.196	00:42:23:27	8.332	V2681-01HD
 	transect	Mysidae	901.0	2681	 	36.694885	-122.05054	2498482	0.39	2005-07-07 19:16:41.0	Ventana	34.505	02:46:23:05	4.169	V2681-03HD
 	transect	Mesomyaria	800.43	2674	http://search.mbari.org/ARCHIVE/frameGrabs/Ventana/images/2674/01_34_48_01.jpg	36.751198	-122.21636	1803415	0.35	2005-06-08 18:50:45.0	Ventana	34.49	01:34:48:01	4.336	V2674-02
 	transect	Ophiuroidea	998.48	2669	 	36.731125	-122.230736	1683419	0.45	2005-05-25 18:20:24.0	Ventana	34.523	00:42:51:11	3.914	V2669-01
 	transect	Phyllospadix	1000.32	2669	 	36.731533	-122.24267	1694519	0.4	2005-05-25 19:42:40.0	Ventana	34.507	02:04:37:18	4.094	V2669-02
 	descend	Euphausiacea	194.34	2683	 	36.701077	-122.05106	1756367	1.71	2005-07-11 16:45:37.0	Ventana	34.193	00:33:17:20	8.458	V2683-01
 	ascend	Aegina	946.74	2682	 	36.697685	-122.05848	1723044	0.42	2005-07-08 20:09:29.0	Ventana	34.514	04:01:39:09	4.048	V2682-05
 	transect	Glyptocephalus zachirus	399.46	2687	 	36.78942	-122.125595	1809702	1.13	2005-07-13 18:37:53.0	Ventana	34.239	02:04:11:26	7.269	V2687-02
 	transect	Sergestes similis	300.44	2681	 	36.69767	-122.0531	2492172	1.23	2005-07-07 17:22:39.0	Ventana	34.234	00:53:45:09	7.403	V2681-01HD
 	transect	Mesomyaria	997.65	2669	 	36.730606	-122.22816	1649344	0.45	2005-05-25 18:01:32.0	Ventana	34.521	00:24:00:15	3.907	V2669-01
 	ascend	Appendicularia	64.65	2682	 	36.695805	-122.06012	1723781	2.84	2005-07-08 21:37:21.0	Ventana	33.932	05:29:00:22	9.576	V2682-06
 	transect	Ceriantharia sp. 1	602.31	2680	 	36.790226	-122.23269	1806754	0.35	2005-06-27 20:17:34.0	Ventana	34.379	02:56:10:27	5.589	V2680-03
 	transect	Sebastes diploproa	 	2687	 	 	 	1810454	 	2005-07-13 19:18:30.0	Ventana	 	02:44:14:20	 	V2687-03
 	cruise	rock outcrop	269.74	2688	http://search.mbari.org/ARCHIVE/frameGrabs/Ventana/images/2688/02_11_30_26.jpg	36.809063	-122.020355	20005193	1.48	2005-07-14 18:26:14.0	Ventana	34.197	02:11:30:26	8.123	V2688-03
 	cruise	Anthomastus ritteri	517.01	2688	http://search.mbari.org/ARCHIVE/frameGrabs/Ventana/images/2688/01_01_39_06.jpg	36.80039	-122.01916	1677508	0.67	2005-07-14 17:15:23.0	Ventana	34.311	01:01:39:06	6.397	V2688-01
 	transect	Ophiuroidea	998.82	2669	 	36.73095	-122.229996	1651194	0.45	2005-05-25 18:13:58.0	Ventana	34.521	00:36:25:20	3.909	V2669-01
 	descend	Euphausiacea	360.13	2682	 	36.698513	-122.06013	1720442	1.0	2005-07-08 17:32:33.0	Ventana	34.258	01:26:05:04	7.07	V2682-02
 	transect	Corallimorphus pilatus	 	2687	 	 	 	1810800	 	2005-07-13 19:35:01.0	Ventana	 	03:00:44:02	 	V2687-03
 	transect	Appendicularia	400.77	2681	 	36.696003	-122.05144	2492947	0.79	2005-07-07 17:41:59.0	Ventana	34.277	01:12:23:06	6.661	V2681-02HD
 	cruise	Glyptocephalus zachirus	306.99	2688	 	36.808662	-122.020294	1677854	1.34	2005-07-14 18:12:50.633	Ventana	34.222	01:58:32:14	7.795	V2688-02
 	descend	Cydippida	167.93	2693	 	36.696247	-122.05777	1758217	1.97	2005-07-25 17:58:12.0	Ventana	34.139	00:38:42:15	8.927	V2693-01
 	descend	Appendicularia	587.96	2681	 	36.69569	-122.05107	1715629	0.32	2005-07-07 18:07:25.917	Ventana	34.379	01:37:46:27	5.551	V2681-02
 	cruise	Dosidicus gigas	504.96	2695	 	36.784412	-122.20044	1824517	0.68	2005-07-28 20:31:47.0	Ventana	34.29	05:33:06:21	6.312	V2695-03
 	transect	Mediaster	 	2687	 	 	 	1811206	 	2005-07-13 20:01:56.0	Ventana	 	03:26:56:09	 	V2687-04
 	ascend	Leuroglossus stilbius	632.14	2682	 	36.698868	-122.059746	1723390	0.32	2005-07-08 20:36:49.0	Ventana	34.389	04:28:57:10	5.432	V2682-05
 	transect	Gastropoda sp.2	1000.32	2669	 	36.73128	-122.24095	1689360	0.41	2005-05-25 19:33:46.0	Ventana	34.51	01:55:43:27	4.055	V2669-02
 	descend	Mysidae	1101.35	2683	 	36.705116	-122.048904	1757465	0.57	2005-07-11 19:29:40.0	Ventana	34.542	03:10:01:23	3.687	V2683-03
 	transect	Mesomyaria	798.58	2674	 	36.75174	-122.21261	1801219	0.35	2005-06-08 18:30:08.0	Ventana	34.487	01:14:12:05	4.334	V2674-02
 	transect	Phyllospadix	600.98	2680	 	36.776917	-122.22217	1804167	0.36	2005-06-27 17:39:49.0	Ventana	34.379	00:19:56:26	5.577	V2680-01
 	transect	Psolus squamatus	399.88	2687	http://search.mbari.org/ARCHIVE/frameGrabs/Ventana/images/2687/01_06_16_14.jpg	36.788166	-122.121796	1809356	1.13	2005-07-13 17:39:54.0	Ventana	34.252	01:06:16:14	7.29	V2687-02
 	descend	sinker	1184.02	2682	 	36.69835	-122.058136	1722292	0.66	2005-07-08 19:38:49.0	Ventana	34.567	03:31:26:19	3.42	V2682-04
 	transect	Lycenchelys camchatica	800.3	2674	 	36.752106	-122.208626	1800790	0.35	2005-06-08 18:12:44.0	Ventana	34.491	00:57:15:11	4.323	V2674-01
 	transect	Sebastes diploproa	 	2687	 	 	 	1811567	 	2005-07-13 20:15:54.0	Ventana	 	03:40:53:06	 	V2687-04
 	transect	Phyllospadix	199.63	2696	 	36.80429	-122.12616	1813417	1.52	2005-08-01 17:44:37.0	Ventana	34.209	01:12:30:28	8.664	V2696-02
 	transect	Mesomyaria	999.67	2669	 	36.73136	-122.2377	1687525	0.44	2005-05-25 19:12:18.0	Ventana	34.518	01:34:17:06	3.947	V2669-02
 	descend	Appendicularia	482.57	2683	 	36.70152	-122.04933	1756773	0.73	2005-07-11 17:22:44.0	Ventana	34.295	01:06:51:26	6.565	V2683-02
 	transect	Phyllospadix	801.1	2674	 	36.75249	-122.19941	1773777	0.29	2005-06-08 17:23:19.0	Ventana	34.46	00:07:54:04	4.661	V2674-01
 	transect	Poeobius meseres	600.6	2681	 	36.69608	-122.05166	2493699	0.3	2005-07-07 18:20:28.0	Ventana	34.388	01:50:49:22	5.49	V2681-02HD
 	transect	Mesomyaria	998.92	2669	 	36.73113	-122.23475	1684171	0.45	2005-05-25 18:47:38.0	Ventana	34.522	01:09:38:19	3.916	V2669-02
 	transect	zoarcidae	500.61	2681	 	36.69796	-122.0537	2493270	0.44	2005-07-07 17:54:57.0	Ventana	34.346	01:25:20:03	6.022	V2681-02HD
 	stationary	Merluccius productus	502.36	2694	 	36.784584	-122.20044	1676756	0.58	2005-07-27 20:45:44.0	Ventana	34.323	03:17:05:18	6.142	V2694-04
 	transect	Psolus squamatus	 	2687	 	 	 	1808950	 	2005-07-13 17:32:34.0	Ventana	 	00:59:25:29	 	V2687-01
 	ascend	sinker	258.17	2681	 	36.697838	-122.05522	1719344	 	2005-07-07 21:29:59.0	Ventana	 	05:01:38:17	 	V2681-05
 	transect	Mesomyaria	1000.11	2669	 	36.731773	-122.24496	1734490	0.4	2005-05-25 19:56:04.0	Ventana	34.509	02:17:35:05	4.075	V2669-03
 	transect	Stomphia	1001.0	2669	http://search.mbari.org/ARCHIVE/frameGrabs/Ventana/images/2669/02_49_21_12.jpg	36.732277	-122.24929	1736325	0.4	2005-05-25 20:27:52.0	Ventana	34.508	02:49:21:12	4.072	V2669-03
 	cruise	Parastichopus	253.08	2688	 	36.809338	-122.02037	1677914	1.52	2005-07-14 18:30:00.0	Ventana	34.193	02:15:15:22	8.19	V2688-03
 	transect	Ophiuroidea	999.07	2669	 	36.73139	-122.23609	1684577	0.44	2005-05-25 18:58:18.0	Ventana	34.522	01:20:17:22	3.94	V2669-02
 	descend	Copepoda	270.99	2682	 	36.699776	-122.060776	1720036	1.34	2005-07-08 16:33:02.0	Ventana	34.228	00:27:05:29	7.708	V2682-01
 	descend	Medusae	400.22	2681	 	36.69558	-122.05109	1715223	0.79	2005-07-07 17:36:12.357	Ventana	34.278	01:06:36:08	6.675	V2681-02
 	transect	Phyllospadix	800.75	2674	 	36.751984	-122.20917	1800873	0.35	2005-06-08 18:15:17.0	Ventana	34.49	00:59:48:23	4.322	V2674-01
 	transect	Ophiuroidea	998.78	2669	 	36.73118	-122.234344	1684111	0.45	2005-05-25 18:44:01.0	Ventana	34.521	01:06:01:28	3.916	V2669-02
 	ascend	Aegina	746.54	2681	 	36.69875	-122.055725	1717539	0.27	2005-07-07 20:14:36.067	Ventana	34.447	03:43:37:07	4.815	V2681-04
 	descend	Appendicularia	511.5	2682	 	36.698593	-122.05978	1720848	0.41	2005-07-08 18:00:48.0	Ventana	34.354	01:54:18:05	5.923	V2682-02
 	transect	Brisaster	998.41	2669	 	36.73297	-122.252304	1737423	0.4	2005-05-25 20:47:11.0	Ventana	34.508	03:07:58:01	4.076	V2669-04
 	descend	Appendicularia	699.18	2681	 	36.697926	-122.053795	1715975	0.28	2005-07-07 18:31:55.837	Ventana	34.425	02:02:15:25	5.028	V2681-02
 	transect	Ceriantharia sp. 2	1000.18	2669	 	36.731632	-122.243355	1733821	0.41	2005-05-25 19:46:45.0	Ventana	34.511	02:08:16:14	4.069	V2669-03
 	transect	Rathbunaster californicus	197.71	2696	http://search.mbari.org/ARCHIVE/frameGrabs/Ventana/images/2696/00_20_32_03.jpg	36.80266	-122.12169	1813011	1.53	2005-08-01 16:52:12.0	Ventana	34.204	00:20:32:03	8.567	V2696-01
 	transect	molt	100.57	2681	 	36.69983	-122.05429	2489555	2.13	2005-07-07 16:44:44.0	Ventana	34.068	00:15:54:03	9.145	V2681-01HD
 	transect	Sebastolobus altivelis	801.27	2674	 	36.752186	-122.20795	1800121	0.35	2005-06-08 18:09:18.0	Ventana	34.49	00:53:50:04	4.329	V2674-01
 	ascend	Hastigerinella digitata	301.24	2681	 	36.6997	-122.055244	1718186	1.33	2005-07-07 20:59:12.767	Ventana	34.226	04:27:33:08	7.648	V2681-05
 	transect	Hastigerinella digitata	300.41	2681	 	36.695805	-122.051414	2492601	1.24	2005-07-07 17:29:21.0	Ventana	34.232	01:00:28:18	7.431	V2681-01HD
 	transect	Hastigerinella digitata	300.42	2681	 	36.6966	-122.05219	2492518	1.23	2005-07-07 17:26:16.0	Ventana	34.233	00:57:23:29	7.398	V2681-01HD
 	transect	Neptunea amianta	602.3	2680	 	36.78744	-122.2318	1805919	0.36	2005-06-27 19:49:40.0	Ventana	34.379	02:28:18:04	5.593	V2680-03
 	transect	Laminariales	399.71	2687	 	36.789356	-122.12488	1809619	1.15	2005-07-13 18:26:11.0	Ventana	34.238	01:52:30:00	7.318	V2687-02
 	transect	Allocentrotus fragilis	 	2687	 	 	 	1807506	 	2005-07-13 17:13:09.0	Ventana	 	00:40:02:13	 	V2687-01
 	ascend	Siphonophora	258.17	2681	 	36.697838	-122.05522	1719284	 	2005-07-07 21:29:59.0	Ventana	 	04:58:54:19	 	V2681-05
 	transect	Phyllospadix	801.27	2674	 	36.752277	-122.20723	1800038	0.37	2005-06-08 18:05:58.0	Ventana	34.495	00:50:29:18	4.36	V2674-01
 	descend	Appendicularia	1198.3	2682	 	36.69847	-122.05851	1722232	0.68	2005-07-08 19:28:28.0	Ventana	34.571	03:21:05:27	3.379	V2682-04
 	transect	Rathbunaster californicus	200.19	2696	 	36.80458	-122.12684	1813477	1.51	2005-08-01 17:51:23.0	Ventana	34.211	01:19:16:20	8.667	V2696-02
 	transect	Psolus squamatus	 	2687	 	 	 	1808604	 	2005-07-13 17:25:06.0	Ventana	 	00:51:59:04	 	V2687-01
 	transect	Appendicularia	500.6	2681	 	36.6976	-122.05336	2493353	0.44	2005-07-07 17:56:23.0	Ventana	34.347	01:26:45:22	6.018	V2681-02HD
 	transect	bolinopsis	500.61	2681	 	36.696156	-122.05168	2493616	0.43	2005-07-07 18:02:39.0	Ventana	34.347	01:33:01:11	6.009	V2681-02HD
 	transect	Mesomyaria	999.26	2669	 	36.730797	-122.22956	1651134	0.45	2005-05-25 18:11:07.0	Ventana	34.523	00:33:33:28	3.907	V2669-01
 	transect	Mesomyaria	1000.39	2669	 	36.7309	-122.232864	1683825	0.45	2005-05-25 18:35:53.0	Ventana	34.522	00:58:19:01	3.91	V2669-01
 	transect	Parastichopus leukothele	203.51	2696	 	36.806458	-122.13003	1813763	1.48	2005-08-01 18:28:07.0	Ventana	34.213	01:55:57:13	8.628	V2696-02
 	descend	Poeobius meseres	746.32	2683	 	36.702354	-122.04893	1757119	0.28	2005-07-11 17:57:17.0	Ventana	34.449	01:41:22:06	4.784	V2683-02
 	transect	Calycophorae	200.45	2681	 	36.69828	-122.05329	2490307	1.69	2005-07-07 17:06:42.0	Ventana	34.199	00:37:51:04	8.355	V2681-01HD
 	transect	Neptunea amianta	800.32	2674	 	36.75173	-122.21166	1801136	0.35	2005-06-08 18:26:41.0	Ventana	34.491	01:10:45:24	4.336	V2674-02
 	transect	Mediaster	 	2687	 	 	 	1810717	 	2005-07-13 19:29:30.0	Ventana	 	02:55:13:22	 	V2687-03
 	cruise	Pennatulacea sp.1	601.71	2680	 	36.77657	-122.22201	1804084	1.53	2005-06-27 17:34:45.0	Ventana	34.382	00:14:48:10	5.566	V2680-01
 	transect	Gastropoda sp.2	1000.78	2669	 	36.73229	-122.249374	1736408	0.4	2005-05-25 20:28:24.0	Ventana	34.508	02:49:53:20	4.075	V2669-03
 	transect	Stomphia	1000.49	2669	 	36.732357	-122.24951	1736468	0.41	2005-05-25 20:29:42.0	Ventana	34.507	02:51:09:19	4.075	V2669-03
 	transect	Mediaster	 	2687	 	 	 	1807566	 	2005-07-13 17:15:49.0	Ventana	 	00:42:42:25	 	V2687-01
 	transect	Mesomyaria	802.14	2674	 	36.752247	-122.206795	1799978	0.37	2005-06-08 18:03:46.0	Ventana	34.49	00:48:18:02	4.323	V2674-01
 	transect	Allocentrotus fragilis	 	2687	 	 	 	1811266	 	2005-07-13 20:05:30.0	Ventana	 	03:30:29:27	 	V2687-04
 	ascend	Atolla wyvillei	603.73	2682	 	36.698635	-122.06158	1723518	0.34	2005-07-08 20:56:49.0	Ventana	34.374	04:48:56:28	5.635	V2682-05
 	transect	molt	100.58	2681	 	36.69983	-122.05429	2489495	2.13	2005-07-07 16:43:03.0	Ventana	34.068	00:14:12:10	9.152	V2681-01HD
 	transect	Psolus squamatus	 	2687	 	 	 	1808867	 	2005-07-13 17:30:42.0	Ventana	 	00:57:34:15	 	V2687-01
 	transect	cyclothone	400.78	2681	 	36.696457	-122.05196	2493007	0.79	2005-07-07 17:43:55.0	Ventana	34.277	01:14:19:08	6.641	V2681-02HD
 	transect	Euphausia	200.44	2681	 	36.69828	-122.0533	2490796	1.72	2005-07-07 17:08:53.0	Ventana	34.193	00:40:01:13	8.323	V2681-01HD
 	transect	Mesomyaria	1000.26	2669	 	36.731785	-122.24468	1734430	0.4	2005-05-25 19:54:33.0	Ventana	34.508	02:16:03:11	4.09	V2669-03
 	transect	Phyllospadix	803.04	2674	 	36.750816	-122.220146	1803678	0.34	2005-06-08 19:07:18.0	Ventana	34.484	01:51:20:03	4.39	V2674-02
 	transect	Nanomia bijuga	200.45	2681	 	36.69828	-122.05329	2490247	1.7	2005-07-07 17:06:12.0	Ventana	34.199	00:37:21:11	8.36	V2681-01HD
 	transect	Ceriantharia sp. 1	602.18	2680	 	36.79088	-122.23286	1806814	0.35	2005-06-27 20:23:30.0	Ventana	34.379	03:02:07:06	5.587	V2680-03
 	descend	Nanomia	 	2693	 	 	 	1759443	 	2005-07-25 16:45:08.0	Ventana	 	00:23:42:25	 	V2693-01
 	transect	Chionoecetes tanneri	 	2669	 	 	 	1737566	 	2005-05-25 13:51:38.0	Ventana	 	03:12:25:26	 	V2669-04
 	transect	molt	100.49	2681	 	36.699825	-122.05429	2489698	2.13	2005-07-07 16:48:09.0	Ventana	34.067	00:19:17:22	9.15	V2681-01HD
 	transect	Phyllospadix	999.82	2669	 	36.731094	-122.23903	1689097	0.43	2005-05-25 19:21:29.0	Ventana	34.517	01:43:27:06	3.972	V2669-02
 	ascend	Apolemia	447.5	2682	 	36.69817	-122.06282	1723721	0.71	2005-07-08 21:19:01.0	Ventana	34.282	05:10:42:07	6.485	V2682-06
 	transect	Sebastolobus altivelis	800.75	2674	 	36.751144	-122.21715	1803475	0.35	2005-06-08 18:54:21.0	Ventana	34.489	01:38:24:04	4.342	V2674-02
 	transect	Sebastolobus altivelis	800.14	2674	 	36.75245	-122.20536	1799775	0.36	2005-06-08 17:56:39.0	Ventana	34.487	00:41:11:29	4.361	V2674-01
 	transect	Sebastes diploproa	399.87	2687	 	36.788116	-122.12162	1809213	1.13	2005-07-13 17:37:20.0	Ventana	34.243	01:03:41:29	7.262	V2687-02
 	ascend	Praya	 	2683	 	 	 	1758157	 	 	Ventana	 	05:07:12:26	 	V2683-05
 	transect	Mediaster	 	2687	 	 	 	1810514	 	2005-07-13 19:21:24.0	Ventana	 	02:47:07:22	 	V2687-03
 	transect	Mediaster	 	2687	 	 	 	1812725	 	2005-07-13 20:55:01.0	Ventana	 	04:19:31:09	 	V2687-05
 	descend	Chuniphyes	653.71	2683	 	36.702026	-122.04895	1757059	0.36	2005-07-11 17:52:05.0	Ventana	34.389	01:36:11:27	5.429	V2683-02
 	transect	Phyllospadix	800.56	2674	 	36.752506	-122.20303	1799271	0.35	2005-06-08 17:43:36.0	Ventana	34.489	00:28:09:14	4.386	V2674-01
 	transect	Caridea sp.1	599.94	2680	 	36.77875	-122.223946	1804430	0.35	2005-06-27 18:03:06.0	Ventana	34.38	00:43:12:18	5.586	V2680-01
 	transect	Brisaster	1000.05	2669	 	36.731853	-122.24526	1735370	0.4	2005-05-25 19:58:48.0	Ventana	34.508	02:20:17:21	4.07	V2669-03
 	transect	Psolus squamatus	 	2687	 	 	 	1808664	 	2005-07-13 17:26:38.0	Ventana	 	00:53:30:10	 	V2687-01
 	transect	Sebastolobus altivelis	801.01	2674	 	36.751755	-122.21106	1801076	0.35	2005-06-08 18:24:18.0	Ventana	34.49	01:08:22:22	4.338	V2674-02
 	transect	zoarcidae	700.65	2681	 	36.69737	-122.053246	2497647	0.29	2005-07-07 18:38:12.0	Ventana	34.433	02:07:55:21	4.96	V2681-03HD
 	cruise	Lycodapus	1221.14	2683	 	36.70627	-122.04752	1757608	0.72	2005-07-11 20:07:44.0	Ventana	34.574	03:42:07:07	3.346	V2683-04
 	transect	Rathbunaster californicus	203.38	2696	 	36.807373	-122.13104	1813823	1.47	2005-08-01 18:41:00.0	Ventana	34.219	02:08:05:10	8.625	V2696-03
 	transect	Stomphia	800.63	2674	http://search.mbari.org/ARCHIVE/frameGrabs/Ventana/images/2674/01_02_19_06.jpg	36.75196	-122.20968	1800933	0.35	2005-06-08 18:18:14.0	Ventana	34.49	01:02:19:06	4.335	V2674-02
 	cruise	Mysidae	1001.12	2689	 	36.771416	-122.08274	1669619	0.54	2005-07-18 16:39:17.0	Ventana	34.527	00:02:22:04	3.928	V2689-01
 	transect	Mediaster	 	2687	 	 	 	1812522	 	2005-07-13 20:43:41.0	Ventana	 	04:08:11:20	 	V2687-05
 	ascend	Pleurobrachia	258.17	2681	 	36.697838	-122.05522	1719487	 	2005-07-07 21:29:59.0	Ventana	 	05:07:05:23	 	V2681-05
 	ascend	Poeobius meseres	1054.68	2683	 	36.707527	-122.04919	1757811	0.52	2005-07-11 20:47:14.0	Ventana	34.535	04:21:35:02	3.819	V2683-04
 	descend	Appendicularia	309.93	2683	 	36.701115	-122.05014	1756510	1.25	2005-07-11 16:54:16.0	Ventana	34.24	00:41:55:16	7.64	V2683-01
 	descend	Appendicularia	228.12	2693	 	36.69863	-122.061615	1758360	1.5	2005-07-25 19:19:10.0	Ventana	34.241	01:59:12:26	8.589	V2693-02
 	transect	Lumpenus sagitta	196.38	2696	 	36.80299	-122.122505	1813071	1.55	2005-08-01 17:04:52.0	Ventana	34.199	00:33:11:00	8.608	V2696-01
 	transect	Gastropoda sp.2	998.74	2669	 	36.731133	-122.23469	1694662	0.45	2005-05-25 18:47:17.0	Ventana	34.522	01:09:17:15	3.916	V2669-02
 	transect	Stomphia	 	2687	 	 	 	1809010	 	2005-07-13 17:33:27.0	Ventana	 	01:00:19:24	 	V2687-01
 	transect	Mediaster	 	2687	 	 	 	1810860	 	2005-07-13 19:37:45.0	Ventana	 	03:03:28:12	 	V2687-03
 	transect	Mesomyaria	999.89	2669	 	36.7311	-122.23533	1684314	0.45	2005-05-25 18:52:59.0	Ventana	34.522	01:14:59:20	3.922	V2669-02
 	transect	Psolus squamatus	 	2687	 	 	 	1807709	 	2005-07-13 17:23:51.0	Ventana	 	00:50:43:11	 	V2687-01
 	transect	Lycenchelys camchatica	1000.2	2669	 	36.731377	-122.24173	1689849	0.4	2005-05-25 19:38:05.0	Ventana	34.509	02:00:02:08	4.076	V2669-02
 	transect	Mediaster	 	2687	 	 	 	1811770	 	2005-07-13 20:24:56.0	Ventana	 	03:49:54:03	 	V2687-04
 	descend	Appendicularia	464.77	2682	 	36.6985	-122.0596	1720788	0.52	2005-07-08 17:55:54.0	Ventana	34.328	01:49:24:20	6.209	V2682-02
 	cruise	Hippasteria	 	2687	http://search.mbari.org/ARCHIVE/frameGrabs/Ventana/images/2687/00_17_42_27.jpg	 	 	20005050	 	2005-07-13 16:50:49.0	Ventana	 	00:17:42:27	 	V2687-01
 	transect	Mesomyaria	999.89	2669	 	36.730988	-122.23252	1683765	0.45	2005-05-25 18:33:50.0	Ventana	34.521	00:56:16:05	3.915	V2669-01
 	transect	molt	100.48	2681	 	36.69872	-122.05357	2489901	2.14	2005-07-07 16:52:44.0	Ventana	34.067	00:23:53:13	9.142	V2681-01HD
 	transect	Mesomyaria	997.52	2669	 	36.730556	-122.22735	1649141	0.45	2005-05-25 17:56:27.0	Ventana	34.52	00:18:55:12	3.909	V2669-01
 	cruise	Pleuronectiformes	419.46	2676	 	36.803707	-122.02921	1676425	0.68	2005-06-14 16:42:44.0	Ventana	34.307	00:26:52:07	6.498	V2676-01
 	cruise	Parastichopus	103.56	2676	 	36.80636	-122.041695	1677162	1.93	2005-06-14 19:16:47.0	Ventana	34.16	02:55:32:08	8.431	V2676-03
 	cruise	Sebastolobus	427.71	2688	 	36.805534	-122.01907	1677711	0.92	2005-07-14 17:46:51.0	Ventana	34.266	01:32:34:19	6.943	V2688-02
 	descend	Copepoda	333.82	2693	 	36.69712	-122.06	1758563	1.29	2005-07-25 19:57:40.0	Ventana	34.236	02:37:15:07	7.583	V2693-03
 	transect	Psolus squamatus	 	2687	 	 	 	1810108	 	2005-07-13 18:56:46.0	Ventana	 	02:22:31:07	 	V2687-03
 	transect	Anoplopoma fimbria	 	2687	 	 	 	1812319	 	2005-07-13 20:32:07.0	Ventana	 	03:57:05:08	 	V2687-04
 	transect	Nanomia bijuga	200.4	2681	 	36.698284	-122.053314	2490999	1.71	2005-07-07 17:10:35.0	Ventana	34.187	00:41:44:03	8.319	V2681-01HD
 	transect	Mesomyaria	1000.79	2669	 	36.7323	-122.249016	1736265	0.41	2005-05-25 20:26:17.0	Ventana	34.509	02:47:44:19	4.065	V2669-03
 	cruise	Cydippida	323.9	2676	 	36.804825	-122.031425	1676222	1.23	2005-06-14 16:21:39.0	Ventana	34.236	00:05:48:29	7.522	V2676-01
 	transect	Lycenchelys camchatica	802.07	2674	 	36.75248	-122.19986	1773837	0.29	2005-06-08 17:26:03.0	Ventana	34.461	00:10:37:08	4.642	V2674-01
 	transect	Mesomyaria	800.99	2674	 	36.752132	-122.20822	1800730	0.35	2005-06-08 18:10:47.0	Ventana	34.49	00:55:19:05	4.32	V2674-01
 	transect	Ceriantharia sp. 1	600.41	2680	 	36.77713	-122.222275	1804227	0.36	2005-06-27 17:41:52.0	Ventana	34.378	00:22:00:09	5.578	V2680-01
 	transect	phialidium	400.72	2681	 	36.69779	-122.05349	2493210	0.79	2005-07-07 17:49:33.0	Ventana	34.278	01:19:57:23	6.66	V2681-02HD
 	transect	Mesomyaria	999.64	2669	 	36.73139	-122.23719	1687465	0.44	2005-05-25 19:08:07.0	Ventana	34.52	01:30:06:21	3.942	V2669-02
 	descend	Appendicularia	1105.44	2682	 	36.69823	-122.05915	1722089	0.56	2005-07-08 19:08:02.0	Ventana	34.552	03:00:40:12	3.627	V2682-04
 	descend	Appendicularia	457.34	2683	 	36.701645	-122.04934	1756713	0.79	2005-07-11 17:09:34.0	Ventana	34.28	00:57:13:00	6.682	V2683-01
 	ascend	Copepoda	773.37	2681	 	36.69868	-122.05632	1717479	0.29	2005-07-07 20:07:59.733	Ventana	34.453	03:37:01:09	4.757	V2681-04
 	transect	Mesomyaria	999.24	2669	 	36.731377	-122.23601	1684517	0.44	2005-05-25 18:57:43.0	Ventana	34.52	01:19:43:02	3.938	V2669-02
 	transect	Antimora microlepis	1000.32	2669	 	36.73144	-122.242096	1694459	0.4	2005-05-25 19:39:58.0	Ventana	34.509	02:01:55:06	4.076	V2669-02
 	transect	Mesomyaria	800.87	2674	 	36.752533	-122.201614	1799068	0.34	2005-06-08 17:36:29.0	Ventana	34.487	00:21:03:13	4.415	V2674-01
 	transect	Calycophorae	600.6	2681	 	36.696598	-122.052246	2493759	0.3	2005-07-07 18:22:47.0	Ventana	34.387	01:53:09:23	5.479	V2681-02HD
 	descend	Copepoda	901.31	2683	 	36.7033	-122.04833	1757262	0.37	2005-07-11 18:32:27.0	Ventana	34.494	02:12:51:15	4.239	V2683-03
 	transect	Glyptocephalus zachirus	 	2687	 	 	 	1811409	 	2005-07-13 20:11:40.0	Ventana	 	03:36:39:06	 	V2687-04
 	transect	Mesomyaria	798.39	2674	 	36.751682	-122.21346	1801279	0.35	2005-06-08 18:34:47.0	Ventana	34.488	01:18:51:16	4.353	V2674-02
 	transect	Brisaster	1000.55	2669	 	36.732056	-122.24767	1736136	0.4	2005-05-25 20:16:30.0	Ventana	34.51	02:37:58:06	4.081	V2669-03
 	transect	Porifera	399.71	2687	 	36.789364	-122.124916	1809629	1.15	2005-07-13 18:26:53.0	Ventana	34.24	01:53:11:24	7.314	V2687-02
 	transect	Nanomia bijuga	200.4	2681	 	36.698284	-122.05331	2490917	1.7	2005-07-07 17:09:45.0	Ventana	34.189	00:40:53:26	8.321	V2681-01HD
 	transect	Psolus squamatus	 	2687	 	 	 	1807188	 	2005-07-13 17:03:06.0	Ventana	 	00:30:00:14	 	V2687-01
 	transect	Gastropoda sp.2	999.1	2669	 	36.731377	-122.23608	1694684	0.44	2005-05-25 18:58:05.0	Ventana	34.52	01:20:04:28	3.939	V2669-02
 	descend	Appendicularia	615.08	2683	 	36.701992	-122.049	1757031	0.34	2005-07-11 17:50:04.0	Ventana	34.371	01:34:11:09	5.722	V2683-02
 	ascend	Appendicularia	1169.52	2683	 	36.707302	-122.04854	1757737	0.7	2005-07-11 20:29:52.0	Ventana	34.568	04:04:14:04	3.406	V2683-04
 	transect	Rathbunaster californicus	200.18	2696	 	36.804546	-122.12676	1813467	1.51	2005-08-01 17:50:32.0	Ventana	34.212	01:18:25:13	8.668	V2696-02
 	cruise	Pleuronectiformes	180.2	2688	 	36.81066	-122.02155	1677965	1.87	2005-07-14 18:36:24.0	Ventana	34.114	02:21:39:14	8.859	V2688-03
 	transect	Mesomyaria	999.98	2669	 	36.731087	-122.23912	1689111	0.43	2005-05-25 19:22:08.0	Ventana	34.515	01:44:06:20	3.978	V2669-02
 	transect	Mesomyaria	1000.36	2669	 	36.731304	-122.24153	1689817	0.4	2005-05-25 19:36:53.0	Ventana	34.507	01:58:50:11	4.091	V2669-02
 	stationary	Merluccius productus	501.95	2694	 	36.784542	-122.20049	1676568	0.77	2005-07-27 18:40:22.0	Ventana	34.281	01:23:04:06	6.537	V2694-02
 	ascend	Cyclothone	625.68	2681	 	36.698917	-122.05424	1717682	0.31	2005-07-07 20:28:35.907	Ventana	34.39	03:57:36:13	5.423	V2681-04
 	cruise	rock outcrop	281.29	2688	http://search.mbari.org/ARCHIVE/frameGrabs/Ventana/images/2688/02_09_39_14.jpg	36.809	-122.02035	20005189	1.43	2005-07-14 18:24:24.0	Ventana	34.213	02:09:39:14	8.005	V2688-03
 	transect	Psolus squamatus	 	2687	 	 	 	1808923	 	2005-07-13 17:32:06.0	Ventana	 	00:58:58:23	 	V2687-01
 	cruise	Pleuronectiformes	600.69	2688	 	36.793396	-122.01851	1677259	0.5	2005-07-14 16:23:30.0	Ventana	34.363	00:09:50:25	5.774	V2688-01
 	transect	Poeobius meseres	1001.04	2681	 	36.695267	-122.05121	2498593	0.48	2005-07-07 19:23:55.0	Ventana	34.535	02:53:36:05	3.84	V2681-03HD
 	descend	Appendicularia	359.16	2682	 	36.698505	-122.06012	1720446	1.0	2005-07-08 17:32:44.0	Ventana	34.258	01:26:14:10	7.077	V2682-02
 	transect	Lycenchelys camchatica	802.3	2674	 	36.752304	-122.205986	1799880	0.36	2005-06-08 17:59:58.0	Ventana	34.491	00:44:30:11	4.337	V2674-01
 	transect	Neptunea amianta	800.69	2674	 	36.75197	-122.2095	1800909	0.36	2005-06-08 18:17:20.0	Ventana	34.492	01:01:25:01	4.32	V2674-02
 	transect	Phyllospadix	 	2687	 	 	 	1811732	 	2005-07-13 20:22:54.0	Ventana	 	03:47:52:22	 	V2687-04
 	transect	Microstomus pacificus	 	2687	 	 	 	1812761	 	2005-07-13 20:56:28.0	Ventana	 	04:20:58:00	 	V2687-05
 	transect	Phyllospadix	800.36	2674	 	36.752586	-122.20236	1799189	0.34	2005-06-08 17:40:30.0	Ventana	34.476	00:25:04:05	4.408	V2674-01
 	transect	Corallimorphus pilatus	 	2687	 	 	 	1811041	 	2005-07-13 19:49:13.0	Ventana	 	03:14:14:16	 	V2687-04
 	transect	Mesomyaria	999.2	2669	 	36.730774	-122.22953	1651129	0.45	2005-05-25 18:10:53.0	Ventana	34.523	00:33:20:16	3.907	V2669-01
 	transect	Mesomyaria	998.13	2669	 	36.733124	-122.25303	1737548	0.4	2005-05-25 20:51:00.0	Ventana	34.509	03:11:54:01	4.076	V2669-04
 	transect	molt	50.39	2681	 	36.69983	-122.05429	2485712	3.01	2005-07-07 16:37:54.0	Ventana	33.909	00:09:03:05	9.639	V2681-01HD
 	transect	Rathbunaster californicus	203.18	2696	 	36.806633	-122.130196	1813790	1.49	2005-08-01 18:30:31.0	Ventana	34.215	01:58:22:06	8.649	V2696-02
 	cruise	Sebastes	444.43	2688	 	36.80365	-122.01808	1677642	0.89	2005-07-14 17:38:14.0	Ventana	34.272	01:23:58:03	6.873	V2688-02
 	ascend	Chuniphyes	795.67	2682	 	36.698654	-122.0589	1723270	0.33	2005-07-08 20:25:15.0	Ventana	34.467	04:17:24:26	4.651	V2682-05
 	ascend	Appendicularia	579.58	2682	 	36.698357	-122.06237	1723578	0.37	2005-07-08 21:05:58.0	Ventana	34.364	04:58:05:02	5.771	V2682-05
 	ascend	Chaetognatha	376.92	2693	 	36.696182	-122.06057	1758751	1.19	2005-07-25 20:48:55.0	Ventana	34.234	03:13:29:27	7.156	V2693-04
 	transect	Anthomastus ritteri	 	2687	 	 	 	1807511	 	2005-07-13 17:14:04.0	Ventana	 	00:40:57:02	 	V2687-01
 	cruise	rock outcrop	96.23	2676	http://search.mbari.org/ARCHIVE/frameGrabs/Ventana/images/2676/01_56_59_01.jpg	36.810078	-122.03299	1676936	1.87	2005-06-14 18:17:20.0	Ventana	34.147	01:56:59:01	8.484	V2676-02
 	transect	Ceriantharia sp. 1	798.22	2674	 	36.751663	-122.21356	1801292	0.35	2005-06-08 18:35:24.0	Ventana	34.488	01:19:27:29	4.349	V2674-02
 	descend	Appendicularia	450.76	2683	 	36.701588	-122.04938	1756708	0.8	2005-07-11 17:09:06.0	Ventana	34.28	00:56:44:23	6.7	V2683-01
 	descend	Copepoda	1041.85	2683	 	36.70489	-122.049225	1757414	0.47	2005-07-11 19:24:37.0	Ventana	34.532	03:04:58:16	3.872	V2683-03
 	transect	Neptunea amianta	799.82	2674	 	36.751312	-122.215485	1803350	0.35	2005-06-08 18:46:05.0	Ventana	34.484	01:30:08:08	4.368	V2674-02
 	transect	Chionoecetes tanneri	599.85	2680	 	36.77829	-122.223465	1804379	0.36	2005-06-27 17:56:32.0	Ventana	34.379	00:36:38:20	5.585	V2680-01
 	transect	Mesomyaria	1000.36	2669	 	36.731956	-122.24707	1735813	0.41	2005-05-25 20:12:28.0	Ventana	34.511	02:33:57:16	4.072	V2669-03
 	descend	Calycophorae	289.99	2693	 	36.697853	-122.06127	1758443	1.37	2005-07-25 19:37:16.0	Ventana	34.239	02:16:52:14	7.886	V2693-03
 	transect	Phyllospadix	799.43	2674	 	36.752514	-122.204185	1799512	0.35	2005-06-08 17:50:02.0	Ventana	34.482	00:34:34:26	4.383	V2674-01
 	descend	Appendicularia	1185.69	2682	 	36.69849	-122.05832	1722241	0.67	2005-07-08 19:33:36.0	Ventana	34.571	03:26:12:01	3.398	V2682-04
 	transect	Lyopsetta exilis	196.35	2696	http://search.mbari.org/ARCHIVE/frameGrabs/Ventana/images/2696/00_33_28_09.jpg	36.803005	-122.12253	1813084	1.55	2005-08-01 17:05:09.0	Ventana	34.201	00:33:28:09	8.611	V2696-01
 	transect	Ophiuroidea	998.63	2669	 	36.73108	-122.23112	1683538	0.45	2005-05-25 18:23:28.0	Ventana	34.521	00:45:54:12	3.915	V2669-01
 	transect	Psolus squamatus	399.84	2687	 	36.788124	-122.121635	1809246	1.13	2005-07-13 17:37:32.0	Ventana	34.243	01:03:54:22	7.255	V2687-02
 	ascend	Calycophorae	354.92	2681	 	36.69935	-122.055046	1718065	1.04	2005-07-07 20:52:10.033	Ventana	34.255	04:20:30:29	7.155	V2681-05
 	descend	Dosidicus gigas	400.23	2681	 	36.69557	-122.05111	1715196	0.8	2005-07-07 17:35:20.6	Ventana	34.278	01:05:44:02	6.677	V2681-02
 	ascend	Leuroglossus stilbius	672.08	2681	 	36.69876	-122.0544	1717637	0.28	2005-07-07 20:23:25.633	Ventana	34.411	03:52:26:23	5.197	V2681-04
 	transect	Lycodapus	600.83	2680	 	36.78562	-122.230675	1805836	0.36	2005-06-27 19:29:38.0	Ventana	34.377	02:08:17:05	5.604	V2680-03
 	transect	chuniphyes	600.64	2681	 	36.695747	-122.051216	2493666	0.3	2005-07-07 18:18:44.0	Ventana	34.387	01:49:06:08	5.496	V2681-02HD
 	transect	molt	100.51	2681	 	36.69925	-122.05392	2489828	2.14	2005-07-07 16:51:22.0	Ventana	34.067	00:22:32:02	9.15	V2681-01HD
 	ascend	Leuroglossus stilbius	270.03	2681	 	36.69971	-122.05487	1718328	1.4	2005-07-07 21:04:21.797	Ventana	34.227	04:32:41:14	7.846	V2681-05
 	transect	Chionoecetes tanneri	602.18	2680	 	36.790726	-122.23283	1806805	0.35	2005-06-27 20:22:33.0	Ventana	34.378	03:01:09:23	5.59	V2680-03
 	transect	Lycodes cortezianus	203.69	2696	 	36.807518	-122.131165	1813850	1.46	2005-08-01 18:42:38.0	Ventana	34.221	02:09:43:08	8.621	V2696-03
 	transect	Mesomyaria	799.08	2674	 	36.752514	-122.20436	1799572	0.35	2005-06-08 17:51:11.0	Ventana	34.488	00:35:42:20	4.374	V2674-01
 	transect	Ceriantharia sp. 1	802.9	2674	 	36.75083	-122.22008	1803673	0.34	2005-06-08 19:07:06.0	Ventana	34.482	01:51:07:27	4.385	V2674-02
 	cruise	mud	98.19	2688	 	36.816833	-122.01415	1679317	1.99	2005-07-14 19:52:24.0	Ventana	34.088	03:37:10:03	8.914	V2688-04
 	transect	Chionoecetes tanneri	1000.34	2669	 	36.73195	-122.24669	1735753	0.41	2005-05-25 20:10:04.0	Ventana	34.51	02:31:34:01	4.064	V2669-03
 	descend	Nanomia	201.17	2683	 	36.70104	-122.05095	1756385	1.71	2005-07-11 16:47:09.0	Ventana	34.191	00:34:50:14	8.38	V2683-01
 	transect	Polychaeta	800.85	2681	 	36.696896	-122.05296	2498270	0.31	2005-07-07 19:02:11.0	Ventana	34.474	02:31:53:05	4.509	V2681-03HD
 	transect	Ophiuroidea	998.96	2669	 	36.730927	-122.22991	1651189	0.45	2005-05-25 18:13:36.0	Ventana	34.521	00:36:03:13	3.906	V2669-01
 	transect	Rathbunaster californicus	196.46	2696	 	36.803192	-122.122955	1813144	1.56	2005-08-01 17:10:10.0	Ventana	34.197	00:38:28:28	8.623	V2696-01
 	cruise	Remote Instrument Node	124.29	2672	http://search.mbari.org/ARCHIVE/frameGrabs/Ventana/images/2672/00_23_45_25.jpg	36.803104	-121.80558	20003837	2.65	2005-06-03 15:04:24.0	Ventana	33.956	00:23:45:25	9.311	V2672-01
 	transect	Mesomyaria	800.95	2674	 	36.752617	-122.201904	1799129	0.34	2005-06-08 17:38:16.0	Ventana	34.482	00:22:50:02	4.405	V2674-01
 	transect	Phyllospadix	800.59	2674	 	36.751205	-122.216286	1803410	0.35	2005-06-08 18:50:29.0	Ventana	34.489	01:34:32:05	4.336	V2674-02
 	transect	Mesomyaria	1000.03	2669	 	36.73099	-122.23309	1683861	0.45	2005-05-25 18:37:18.0	Ventana	34.522	00:59:44:03	3.912	V2669-01
 	transect	Sebastes saxicola	199.68	2696	 	36.80426	-122.12608	1813407	1.52	2005-08-01 17:43:47.0	Ventana	34.208	01:11:41:09	8.663	V2696-02
 	ascend	Euphausiacea	265.85	2681	 	36.698914	-122.05661	1718771	1.41	2005-07-07 21:18:21.4	Ventana	34.231	04:46:40:21	7.923	V2681-05
 	descend	Appendicularia	707.66	2683	 	36.70212	-122.048935	1757091	0.32	2005-07-11 17:54:48.0	Ventana	34.422	01:38:53:13	5.051	V2683-02
 	transect	Hormiphora	200.48	2681	 	36.69828	-122.05329	2490534	1.71	2005-07-07 17:07:20.0	Ventana	34.197	00:38:28:12	8.341	V2681-01HD
 	transect	Mediaster	 	2687	 	 	 	1810012	 	2005-07-13 18:50:47.0	Ventana	 	02:16:32:18	 	V2687-03
 	transect	Ceriantharia sp. 2	1000.35	2669	 	36.731274	-122.24132	1689757	0.4	2005-05-25 19:35:43.0	Ventana	34.508	01:57:41:00	4.09	V2669-02
 	descend	Cyclothone	407.14	2683	 	36.70143	-122.04955	1756648	0.93	2005-07-11 17:05:09.0	Ventana	34.262	00:52:48:23	6.919	V2683-01
 	stationary	Polychaeta	501.79	2694	 	36.784542	-122.200485	1676185	0.73	2005-07-27 17:39:54.0	Ventana	34.285	00:33:00:18	6.464	V2694-01
 	transect	Nanomia bijuga	200.39	2681	 	36.698284	-122.053314	2490977	1.71	2005-07-07 17:10:23.0	Ventana	34.187	00:41:31:03	8.319	V2681-01HD
 	cruise	Ophiurida	999.08	2669	http://search.mbari.org/ARCHIVE/frameGrabs/Ventana/images/2669/00_41_46_26.jpg	36.731087	-122.23066	20003777	0.45	2005-05-25 18:19:19.0	Ventana	34.523	00:41:46:26	3.91	V2669-01
 	transect	Ceriantharia sp. 2	1000.49	2669	 	36.73216	-122.2482	1736196	0.41	2005-05-25 20:20:26.0	Ventana	34.51	02:41:54:29	4.06	V2669-03
 	transect	Stomphia	1000.15	2669	 	36.731075	-122.23872	1689051	0.43	2005-05-25 19:19:30.0	Ventana	34.514	01:41:28:21	3.969	V2669-02
 	transect	Mediaster	 	2687	 	 	 	1812438	 	2005-07-13 20:38:51.0	Ventana	 	04:03:49:02	 	V2687-04
 	transect	Psolus squamatus	 	2687	 	 	 	1808600	 	2005-07-13 17:24:52.0	Ventana	 	00:51:44:21	 	V2687-01
 	transect	Poeobius meseres	600.58	2681	 	36.69634	-122.05195	2493726	0.3	2005-07-07 18:21:35.0	Ventana	34.386	01:51:56:27	5.487	V2681-02HD
 	transect	molt	100.48	2681	 	36.698826	-122.05364	2489888	2.14	2005-07-07 16:52:24.0	Ventana	34.068	00:23:33:19	9.136	V2681-01HD
 	transect	Ophiuroidea	1000.0	2669	 	36.73102	-122.23129	1683598	0.45	2005-05-25 18:25:39.0	Ventana	34.52	00:48:06:02	3.915	V2669-01
 	transect	Sebastes diploproa	399.85	2687	 	36.788116	-122.121765	1809306	1.13	2005-07-13 17:39:08.0	Ventana	34.24	01:05:30:22	7.261	V2687-02
 	transect	Psolus squamatus	 	2687	 	 	 	1808863	 	2005-07-13 17:30:39.0	Ventana	 	00:57:31:22	 	V2687-01
 	descend	Appendicularia	496.45	2682	 	36.6986	-122.05978	1720829	0.46	2005-07-08 17:59:13.0	Ventana	34.342	01:52:43:10	6.055	V2682-02
 	ascend	Siphonophora	380.5	2683	 	36.70394	-122.05058	1758060	1.03	2005-07-11 21:21:10.0	Ventana	34.247	04:54:01:13	6.98	V2683-05
 	transect	Microstomus pacificus	 	2687	 	 	 	1812701	 	2005-07-13 20:53:13.0	Ventana	 	04:17:43:25	 	V2687-05
 	ascend	Sergestes similis	217.25	2693	 	36.691204	-122.06253	1759134	1.66	2005-07-25 21:24:00.0	Ventana	34.197	03:48:30:22	8.61	V2693-04
 	ascend	Appendicularia	928.66	2681	 	36.697685	-122.0542	1716991	0.41	2005-07-07 19:44:23.867	Ventana	34.51	03:13:26:27	4.12	V2681-04
 	descend	Lensia	294.2	2682	 	36.699276	-122.060616	1720123	1.21	2005-07-08 16:54:18.0	Ventana	34.241	00:48:21:02	7.435	V2682-01
 	ascend	sinker	1089.55	2683	 	36.707752	-122.0491	1757797	0.58	2005-07-11 20:44:11.0	Ventana	34.545	04:18:31:03	3.691	V2683-04
 	transect	Mediaster	 	2687	 	 	 	1811364	 	2005-07-13 20:09:31.0	Ventana	 	03:34:30:19	 	V2687-04
 	transect	Nanomia bijuga	400.75	2681	 	36.69654	-122.05206	2493020	0.79	2005-07-07 17:44:20.0	Ventana	34.276	01:14:42:26	6.645	V2681-02HD
 	transect	Mesomyaria	1000.09	2669	 	36.73123	-122.23829	1688848	0.43	2005-05-25 19:17:09.0	Ventana	34.519	01:39:08:02	3.975	V2669-02
 	ascend	Chuniphyes	706.37	2682	 	36.698845	-122.05936	1723330	0.29	2005-07-08 20:31:49.0	Ventana	34.427	04:23:58:15	5.005	V2682-05
 	transect	Calycophorae	300.4	2681	 	36.69603	-122.05166	2492577	1.24	2005-07-07 17:28:23.0	Ventana	34.233	00:59:30:16	7.427	V2681-01HD
 	starttransect	color bars	1001.37	2681	 	36.694656	-122.05042	1716548	0.47	2005-07-07 19:20:31.033	Ventana	34.529	02:50:12:25	3.872	V2681-03
 	ascend	Calycophorae	422.3	2681	 	36.699203	-122.054214	1717945	0.78	2005-07-07 20:44:40.333	Ventana	34.278	04:13:17:08	6.637	V2681-05
 	transect	Mesomyaria	 	2669	 	 	 	1737608	 	2005-05-25 13:53:15.0	Ventana	 	03:14:02:26	 	V2669-04
 	transect	Corallimorphus pilatus	 	2687	 	 	 	1809892	 	2005-07-13 18:47:34.0	Ventana	 	02:13:20:12	 	V2687-03
 	transect	molt	50.41	2681	 	36.69983	-122.05429	2485607	2.96	2005-07-07 16:36:07.0	Ventana	33.919	00:07:16:07	9.62	V2681-01HD
 	transect	Psolus squamatus	 	2687	 	 	 	1811101	 	2005-07-13 19:53:04.0	Ventana	 	03:18:05:22	 	V2687-04
 	transect	Chaetognatha	400.73	2681	 	36.69699	-122.052605	2493080	0.79	2005-07-07 17:46:16.0	Ventana	34.277	01:16:40:27	6.658	V2681-02HD
 	transect	Phyllospadix	801.1	2674	 	36.752556	-122.20134	1774193	0.34	2005-06-08 17:35:16.0	Ventana	34.482	00:19:49:14	4.38	V2674-01
 	transect	Mesomyaria	1000.16	2669	 	36.730923	-122.23268	1683801	0.45	2005-05-25 18:34:56.0	Ventana	34.52	00:57:22:00	3.911	V2669-01
 	stationary	Merluccius productus	502.37	2694	 	36.78464	-122.200455	1676673	0.73	2005-07-27 20:33:56.0	Ventana	34.294	03:06:03:18	6.452	V2694-03
 	ascend	Appendicularia	518.13	2681	 	36.698963	-122.05425	1717742	0.46	2005-07-07 20:33:44.7	Ventana	34.34	04:02:44:20	6.085	V2681-04
 	transect	Glyptocephalus zachirus	399.91	2687	 	36.788143	-122.121826	1809366	1.13	2005-07-13 17:40:05.0	Ventana	34.252	01:06:27:01	7.29	V2687-02
 	transect	Umbellula lindahli	599.38	2680	 	36.77929	-122.22438	1804499	0.36	2005-06-27 18:08:02.0	Ventana	34.377	00:48:08:26	5.602	V2680-01
 	transect	Mesomyaria	997.56	2669	 	36.730618	-122.22808	1649334	0.45	2005-05-25 18:01:09.0	Ventana	34.521	00:23:37:01	3.907	V2669-01
 	cruise	Allocentrotus fragilis	256.69	2688	 	36.809216	-122.02036	1677905	1.52	2005-07-14 18:28:54.8	Ventana	34.194	02:14:11:00	8.189	V2688-03
 	transect	Mesomyaria	801.15	2674	 	36.75096	-122.218864	1803613	0.35	2005-06-08 19:01:53.0	Ventana	34.488	01:45:55:11	4.34	V2674-02
 	transect	Mesomyaria	799.84	2674	 	36.751514	-122.21424	1801352	0.35	2005-06-08 18:40:19.0	Ventana	34.489	01:24:23:15	4.335	V2674-02
 	transect	Allocentrotus fragilis	 	2687	 	 	 	1810598	 	2005-07-13 19:23:32.0	Ventana	 	02:49:15:25	 	V2687-03
 	transect	Raja rhina	399.7	2687	http://search.mbari.org/ARCHIVE/frameGrabs/Ventana/images/2687/01_45_07_07.jpg	36.78921	-122.12441	1809569	1.17	2005-07-13 18:18:47.0	Ventana	34.238	01:45:07:07	7.354	V2687-02
 	transect	Physonectae	50.51	2681	 	36.69942	-122.053986	2485404	 	2005-07-07 16:32:10.0	Ventana	 	00:03:20:27	 	V2681-01HD
 	descend	Nanomia	211.88	2693	 	36.69605	-122.05824	1758323	1.71	2005-07-25 18:26:32.0	Ventana	34.189	01:06:36:25	8.612	V2693-02
 	transect	Mesomyaria	999.42	2669	 	36.731415	-122.23622	1684687	0.44	2005-05-25 18:59:16.0	Ventana	34.52	01:21:15:27	3.941	V2669-02
 	cruise	Pleuronectiformes	603.7	2688	 	36.79611	-122.020226	1677379	0.45	2005-07-14 16:39:06.0	Ventana	34.381	00:25:25:26	5.545	V2688-01
 	transect	Sebastolobus altivelis	800.18	2674	 	36.75176	-122.21201	1801172	0.35	2005-06-08 18:28:14.0	Ventana	34.487	01:12:18:12	4.337	V2674-02
 	transect	Allocentrotus fragilis	 	2687	 	 	 	1811304	 	2005-07-13 20:05:39.0	Ventana	 	03:30:38:28	 	V2687-04
 	transect	Mediaster	 	2687	 	 	 	1811469	 	2005-07-13 20:13:56.0	Ventana	 	03:38:55:19	 	V2687-04
 	descend	Dosidicus gigas	599.77	2681	 	36.695683	-122.05109	1715639	0.31	2005-07-07 18:07:46.967	Ventana	34.38	01:38:08:13	5.52	V2681-02
 	ascend	Appendicularia	335.29	2681	 	36.69954	-122.055244	1718125	1.16	2005-07-07 20:54:58.733	Ventana	34.241	04:23:19:15	7.305	V2681-05
 	cruise	Pleuronectiformes	109.16	2676	 	36.804844	-122.04327	1677199	1.94	2005-06-14 19:27:46.0	Ventana	34.164	03:06:30:14	8.399	V2676-03
 	cruise	Ophiodon elongatus	110.67	2688	 	36.812412	-122.02073	1678085	1.97	2005-07-14 19:17:10.0	Ventana	34.093	03:02:22:27	8.919	V2688-03
 	transect	Ophiuroidea	1000.17	2669	 	36.73142	-122.24185	1689877	0.4	2005-05-25 19:38:44.0	Ventana	34.51	02:00:41:23	4.076	V2669-02
 	transect	Porifera sp. 1	 	2687	 	 	 	1808660	 	2005-07-13 17:26:32.0	Ventana	 	00:53:25:05	 	V2687-01
 	transect	Lycodes diapterus	400.09	2687	http://search.mbari.org/ARCHIVE/frameGrabs/Ventana/images/2687/02_01_57_07.jpg	36.789413	-122.12547	1809689	1.13	2005-07-13 18:35:38.0	Ventana	34.243	02:01:57:07	7.262	V2687-02
 	transect	Microstomus pacificus	999.75	2669	 	36.731003	-122.23385	1683981	0.45	2005-05-25 18:40:50.0	Ventana	34.522	01:02:51:04	3.913	V2669-02
 	ascend	Calycophorae	852.43	2681	 	36.69856	-122.055756	1717374	0.33	2005-07-07 19:54:52.433	Ventana	34.492	03:23:54:24	4.35	V2681-04
 	descend	Copepoda	444.48	2682	 	36.698368	-122.059586	1720769	0.58	2005-07-08 17:50:33.0	Ventana	34.315	01:44:02:15	6.331	V2682-02
 	ascend	Appendicularia	531.79	2682	 	36.698338	-122.06288	1723638	0.43	2005-07-08 21:10:39.0	Ventana	34.347	05:02:20:11	6.02	V2682-06
 	ascend	Solmissus	201.87	2683	 	36.70272	-122.05072	1758120	1.66	2005-07-11 21:28:58.0	Ventana	34.207	05:01:49:07	8.53	V2683-05
 	transect	Porifera	 	2687	 	 	 	1810981	 	2005-07-13 19:46:01.0	Ventana	 	03:11:02:00	 	V2687-04
 	transect	Mesomyaria	1000.33	2669	 	36.731556	-122.242905	1694564	0.4	2005-05-25 19:44:03.0	Ventana	34.505	02:05:59:25	4.096	V2669-02
 	cruise	Rathbunaster californicus	473.99	2688	 	36.80218	-122.018234	1677582	0.81	2005-07-14 17:28:51.0	Ventana	34.284	01:14:35:22	6.717	V2688-02
 	transect	Gastropoda sp.2	998.92	2669	 	36.732838	-122.25149	1737225	0.41	2005-05-25 20:42:20.0	Ventana	34.509	03:03:08:22	4.072	V2669-04
 	transect	Mesomyaria	999.3	2669	 	36.73118	-122.23566	1684364	0.45	2005-05-25 18:54:53.0	Ventana	34.522	01:16:53:12	3.927	V2669-02
 	transect	Mediaster	 	2687	 	 	 	1812378	 	2005-07-13 20:35:19.0	Ventana	 	04:00:17:14	 	V2687-04
 	transect	Neptunea amianta	802.04	2674	 	36.751892	-122.20991	1800969	0.35	2005-06-08 18:19:44.0	Ventana	34.489	01:03:49:17	4.328	V2674-02
 	transect	Osmeridae	597.58	2680	 	36.781136	-122.226074	1804882	0.35	2005-06-27 18:32:12.0	Ventana	34.377	01:11:18:14	5.598	V2680-02
 	transect	Gastropoda sp.2	998.52	2669	 	36.731102	-122.23068	1695067	0.45	2005-05-25 18:19:47.0	Ventana	34.521	00:42:14:00	3.911	V2669-01
 	descend	Haliscera	294.28	2682	 	36.699642	-122.06079	1720063	1.27	2005-07-08 16:37:03.0	Ventana	34.23	00:31:06:25	7.497	V2682-01
 	transect	Psolus squamatus	 	2687	 	 	 	1808983	 	2005-07-13 17:33:02.0	Ventana	 	00:59:54:04	 	V2687-01
 	transect	Sebastolobus altivelis	800.9	2674	 	36.751133	-122.21704	1803470	0.35	2005-06-08 18:53:43.0	Ventana	34.489	01:37:46:04	4.34	V2674-02
 	ascend	Appendicularia	333.84	2693	 	36.692364	-122.06183	1759014	1.28	2005-07-25 21:15:15.0	Ventana	34.237	03:39:48:01	7.546	V2693-04
 	transect	Mesomyaria	997.29	2669	 	36.73065	-122.227615	1649191	0.45	2005-05-25 17:58:11.0	Ventana	34.522	00:20:39:16	3.909	V2669-01
 	transect	Dosidicus gigas	400.79	2681	 	36.695827	-122.05123	2492900	0.79	2005-07-07 17:41:05.0	Ventana	34.278	01:11:29:17	6.668	V2681-02HD
 	cruise	Pennatulacea	135.86	2676	 	36.808643	-122.030914	1676876	1.73	2005-06-14 17:57:42.0	Ventana	34.171	01:37:25:10	8.333	V2676-02
 	transect	Mesomyaria	999.63	2669	 	36.73095	-122.23161	1683658	0.45	2005-05-25 18:28:07.0	Ventana	34.522	00:50:33:26	3.916	V2669-01
 	cruise	Praya	50.45	2681	 	36.698654	-122.05336	1713461	 	2005-07-07 16:30:26.733	Ventana	 	00:01:37:24	 	V2681-01
 	ascend	Chaetognatha	365.87	2693	 	36.695496	-122.06085	1758811	1.23	2005-07-25 20:55:53.0	Ventana	34.234	03:20:27:24	7.309	V2693-04
 	transect	Phyllospadix	802.24	2674	 	36.75247	-122.19976	1773810	0.31	2005-06-08 17:25:29.0	Ventana	34.474	00:10:03:03	4.592	V2674-01
 	transect	molt	100.55	2681	 	36.69983	-122.05429	2489505	2.12	2005-07-07 16:43:09.0	Ventana	34.068	00:14:19:23	9.15	V2681-01HD
 	ascend	Nanomia	258.17	2681	 	36.697838	-122.05522	1719357	 	2005-07-07 21:29:59.0	Ventana	 	05:02:13:20	 	V2681-05
 	transect	Phyllospadix	801.53	2674	 	36.752213	-122.20763	1800083	0.39	2005-06-08 18:07:59.0	Ventana	34.493	00:52:30:23	4.336	V2674-01
 	transect	Pennatulacea sp.1	601.07	2680	 	36.785217	-122.23049	1805776	0.36	2005-06-27 19:26:09.0	Ventana	34.377	02:05:11:29	5.599	V2680-02
 	transect	Microstomus pacificus	 	2687	 	 	 	1810778	 	2005-07-13 19:34:04.0	Ventana	 	02:59:47:24	 	V2687-03
 	transect	Phyllospadix	1001.0	2669	http://search.mbari.org/ARCHIVE/frameGrabs/Ventana/images/2669/02_49_21_12.jpg	36.732277	-122.24929	1736339	0.4	2005-05-25 20:27:52.0	Ventana	34.508	02:49:21:12	4.072	V2669-03
 	transect	Diogenidae	602.07	2680	 	36.791653	-122.23296	1806865	0.36	2005-06-27 20:29:39.0	Ventana	34.379	03:08:14:24	5.589	V2680-03
 	ascend	Appendicularia	716.62	2681	 	36.698704	-122.05515	1717577	0.29	2005-07-07 20:19:03.933	Ventana	34.434	03:48:05:10	4.984	V2681-04
 	ascend	Poeobius meseres	635.27	2683	 	36.70503	-122.05018	1757940	0.3	2005-07-11 21:10:09.0	Ventana	34.4	04:43:01:06	5.397	V2683-05
 	transect	Stomphia	 	2687	 	 	 	1810072	 	2005-07-13 18:53:50.0	Ventana	 	02:19:35:08	 	V2687-03
 	transect	Ophiuroidea	997.04	2669	 	36.73115	-122.23093	1683478	0.45	2005-05-25 18:22:00.0	Ventana	34.521	00:44:26:16	3.93	V2669-01
 	transect	Mesomyaria	800.06	2674	 	36.752094	-122.20862	1800789	0.35	2005-06-08 18:12:40.0	Ventana	34.491	00:57:11:16	4.323	V2674-01
 	cruise	Pennatulacea	1000.25	2679	 	36.68986	-122.1656	1824350	0.42	2005-06-16 17:31:07.0	Ventana	34.513	00:02:30:05	4.112	V2679-01
 	transect	Nanomia bijuga	200.48	2681	 	36.69828	-122.05329	2490211	1.7	2005-07-07 17:05:50.0	Ventana	34.198	00:36:57:27	8.361	V2681-01HD
 	ascend	Lensia	371.04	2693	 	36.696182	-122.06085	1758646	1.2	2005-07-25 20:24:54.0	Ventana	34.232	03:04:27:21	7.165	V2693-03
 	transect	Appendicularia	300.46	2681	 	36.69822	-122.0535	2491991	1.24	2005-07-07 17:20:42.0	Ventana	34.232	00:51:50:22	7.415	V2681-01HD
 	transect	Allocentrotus fragilis	999.01	2669	http://search.mbari.org/ARCHIVE/frameGrabs/Ventana/images/2669/01_10_05_12.jpg	36.731125	-122.2348	1684184	0.45	2005-05-25 18:48:05.0	Ventana	34.521	01:10:05:12	3.916	V2669-02
 	transect	Neptunea amianta	602.83	2680	 	36.788403	-122.23226	1805956	0.35	2005-06-27 19:59:24.0	Ventana	34.379	02:38:02:02	5.59	V2680-03
 	transect	Phyllospadix	999.88	2669	 	36.73263	-122.25098	1737045	0.4	2005-05-25 20:38:39.0	Ventana	34.508	03:00:07:23	4.074	V2669-03
 	transect	Radiolaria	500.61	2681	 	36.696316	-122.05186	2493606	0.44	2005-07-07 18:01:55.0	Ventana	34.347	01:32:18:14	6.013	V2681-02HD
 	ascend	Nanomia	258.17	2681	 	36.697838	-122.05522	1719537	 	2005-07-07 21:29:59.0	Ventana	 	05:12:06:12	 	V2681-05
 	descend	Chaetognatha	170.32	2683	 	36.70105	-122.051285	1756325	1.65	2005-07-11 16:40:45.0	Ventana	34.188	00:28:26:18	8.735	V2683-01
 	ascend	Appendicularia	593.6	2682	 	36.69878	-122.06082	1723473	0.4	2005-07-08 20:48:12.0	Ventana	34.371	04:40:19:08	5.662	V2682-05
 	transect	Mediaster	 	2687	 	 	 	1811852	 	2005-07-13 20:27:04.0	Ventana	 	03:52:02:15	 	V2687-04
 	transect	Ptychogena	700.62	2681	 	36.695663	-122.05153	2497887	0.28	2005-07-07 18:45:26.0	Ventana	34.436	02:15:08:17	4.943	V2681-03HD
 	descend	Dosidicus gigas	358.82	2681	 	36.69558	-122.05122	1715053	1.03	2005-07-07 17:31:51.49	Ventana	34.254	01:02:15:05	7.134	V2681-02
 	ascend	Lensia	289.9	2681	 	36.699738	-122.055214	1718208	1.36	2005-07-07 21:00:17.167	Ventana	34.23	04:28:37:03	7.721	V2681-05
 	transect	molt	100.5	2681	 	36.699825	-122.05429	2489708	2.13	2005-07-07 16:48:23.0	Ventana	34.067	00:19:32:24	9.151	V2681-01HD
 	descend	Nanomia	173.91	2693	 	36.69611	-122.058044	1758240	1.95	2005-07-25 18:04:06.0	Ventana	34.142	00:44:36:04	8.899	V2693-01
 	descend	Appendicularia	307.22	2683	 	36.701103	-122.05015	1756505	1.26	2005-07-11 16:54:06.0	Ventana	34.243	00:41:46:14	7.663	V2683-01
 	transect	Aegina	901.03	2681	 	36.695854	-122.051796	2498390	0.39	2005-07-07 19:11:46.0	Ventana	34.505	02:41:27:16	4.174	V2681-03HD
 	transect	Ceriantharia sp. 2	999.85	2669	 	36.731754	-122.24418	1734236	0.4	2005-05-25 19:51:14.0	Ventana	34.511	02:12:44:07	4.09	V2669-03
 	transect	Mediaster	 	2687	 	 	 	1812235	 	2005-07-13 20:29:40.0	Ventana	 	03:54:38:08	 	V2687-04
 	transect	Appendicularia	500.56	2681	 	36.696995	-122.05259	2493546	0.44	2005-07-07 17:59:14.0	Ventana	34.344	01:29:36:25	6.025	V2681-02HD
 	ascend	Chaetognatha	231.07	2682	 	36.69667	-122.06094	1723758	1.91	2005-07-08 21:29:57.0	Ventana	34.162	05:21:38:04	7.893	V2682-06
 	transect	Chorilia longipes	799.51	2674	 	36.752476	-122.205086	1799715	0.36	2005-06-08 17:55:14.0	Ventana	34.487	00:39:46:22	4.355	V2674-01
 	transect	Mesomyaria	800.6	2674	 	36.751076	-122.21777	1803530	0.35	2005-06-08 18:57:17.0	Ventana	34.49	01:41:20:07	4.361	V2674-02
 	transect	Mesomyaria	999.73	2669	 	36.731956	-122.24619	1735633	0.41	2005-05-25 20:05:35.0	Ventana	34.51	02:27:06:12	4.061	V2669-03
 	cruise	Parastichopus	118.64	2688	 	36.813038	-122.018875	1679197	1.97	2005-07-14 19:28:14.0	Ventana	34.097	03:13:02:12	8.929	V2688-04
 	ascend	Chuniphyes	939.16	2682	 	36.69778	-122.05851	1723067	0.42	2005-07-08 20:11:07.0	Ventana	34.516	04:03:16:24	4.057	V2682-05
 	cruise	Chionoecetes tanneri	1235.4	2683	 	36.705692	-122.048035	1757534	0.73	2005-07-11 19:49:08.0	Ventana	34.577	03:23:31:19	3.319	V2683-04
 	transect	Mediaster	399.84	2687	http://search.mbari.org/ARCHIVE/frameGrabs/Ventana/images/2687/01_02_17_21.jpg	36.788036	-122.12153	1809126	1.13	2005-07-13 17:35:55.0	Ventana	34.244	01:02:17:21	7.27	V2687-02
 	transect	Rathbunaster californicus	198.42	2696	 	36.803616	-122.12448	1813264	1.53	2005-08-01 17:27:59.0	Ventana	34.204	00:56:16:05	8.618	V2696-01
 	cruise	boulder	256.25	2676	 	36.805573	-122.02948	1676733	1.54	2005-06-14 17:36:38.0	Ventana	34.207	01:16:22:17	8.002	V2676-02
 	transect	Mesomyaria	800.41	2674	 	36.751747	-122.21147	1801112	0.35	2005-06-08 18:25:54.0	Ventana	34.483	01:09:58:09	4.358	V2674-02
 	descend	Appendicularia	319.33	2681	 	36.695633	-122.05127	1713664	1.17	2005-07-07 17:30:30.533	Ventana	34.237	01:01:37:26	7.29	V2681-01
 	transect	Caridea sp.1	603.25	2680	 	36.788994	-122.23248	1805979	0.36	2005-06-27 20:05:48.0	Ventana	34.379	02:44:25:28	5.585	V2680-03
 	descend	Copepoda	836.32	2681	 	36.696976	-122.053215	1716465	0.32	2005-07-07 19:04:04.767	Ventana	34.483	02:33:47:02	4.389	V2681-03
 	transect	Psolus squamatus	 	2687	 	 	 	1807008	 	2005-07-13 16:54:27.0	Ventana	 	00:21:21:26	 	V2687-01
 	ascend	Appendicularia	613.87	2682	 	36.69887	-122.05989	1723413	0.38	2005-07-08 20:38:11.0	Ventana	34.38	04:30:19:17	5.511	V2682-05
 	descend	Copepoda	502.89	2683	 	36.70146	-122.049126	1756828	0.68	2005-07-11 17:36:30.0	Ventana	34.306	01:20:37:27	6.464	V2683-02
 	transect	Aegina	600.52	2681	 	36.69763	-122.05349	2493846	0.3	2005-07-07 18:27:15.0	Ventana	34.389	01:57:35:00	5.476	V2681-02HD
 	transect	cydippida	200.39	2681	 	36.6983	-122.05336	2491120	1.69	2005-07-07 17:12:04.0	Ventana	34.198	00:43:10:27	8.337	V2681-01HD
 	transect	Henricia sanguinolenta	600.33	2680	http://search.mbari.org/ARCHIVE/frameGrabs/Ventana/images/2680/00_22_03_08.jpg	36.777134	-122.222275	1804236	0.36	2005-06-27 17:41:55.0	Ventana	34.378	00:22:03:08	5.578	V2680-01
 	transect	Nanomia bijuga	200.45	2681	 	36.69828	-122.05329	2490737	1.71	2005-07-07 17:08:33.0	Ventana	34.193	00:39:41:16	8.323	V2681-01HD
 	cruise	Stylasterias	98.86	2688	 	36.813454	-122.01969	1679520	1.94	2005-07-14 21:27:19.0	Ventana	34.106	05:11:31:04	8.883	V2688-05
 	stationary	Appendicularia	501.74	2695	 	36.784588	-122.20046	1824433	0.87	2005-07-28 17:21:15.0	Ventana	34.265	00:27:35:23	6.676	V2695-01
 	transect	Lycenchelys camchatica	1000.28	2669	http://search.mbari.org/ARCHIVE/frameGrabs/Ventana/images/2669/02_10_05_12.jpg	36.731667	-122.24375	1733890	0.41	2005-05-25 19:48:34.0	Ventana	34.507	02:10:05:12	4.068	V2669-03
 	ascend	Copepoda	761.13	2681	 	36.69868	-122.05597	1717517	0.29	2005-07-07 20:11:46.467	Ventana	34.45	03:40:47:24	4.802	V2681-04
 	descend	Melanostigma pammelas	758.11	2682	 	36.698414	-122.0597	1721655	0.28	2005-07-08 18:31:15.0	Ventana	34.454	02:24:19:18	4.747	V2682-03
 	descend	Chaetognatha	360.66	2693	 	36.697056	-122.05986	1758586	1.23	2005-07-25 19:59:56.0	Ventana	34.223	02:39:29:24	7.333	V2693-03
 	ascend	Solmissus	344.95	2693	 	36.693443	-122.06134	1758931	1.25	2005-07-25 21:09:46.0	Ventana	34.236	03:34:19:02	7.39	V2693-04
 	transect	Chaetognatha	200.44	2681	 	36.698418	-122.05349	2491443	1.68	2005-07-07 17:14:15.0	Ventana	34.2	00:45:22:14	8.341	V2681-01HD
 	descend	Appendicularia	357.29	2682	 	36.698612	-122.06039	1720326	1.01	2005-07-08 17:22:06.0	Ventana	34.253	01:15:36:29	7.089	V2682-02
 	transect	Mesomyaria	801.99	2674	 	36.752247	-122.20693	1800000	0.37	2005-06-08 18:04:23.0	Ventana	34.49	00:48:55:03	4.341	V2674-01
 	transect	Psolus squamatus	 	2687	 	 	 	1810132	 	2005-07-13 18:58:48.0	Ventana	 	02:24:33:08	 	V2687-03
 	transect	Mediaster	 	2687	 	 	 	1812641	 	2005-07-13 20:49:26.0	Ventana	 	04:13:56:12	 	V2687-05
 	descend	Leuroglossus stilbius	971.32	2682	 	36.698322	-122.059296	1722001	0.42	2005-07-08 18:56:25.0	Ventana	34.519	02:49:27:03	4.034	V2682-03
 	transect	Gastropoda sp.2	1000.53	2669	 	36.73227	-122.24888	1736256	0.41	2005-05-25 20:25:30.0	Ventana	34.51	02:46:59:08	4.063	V2669-03
 	descend	sinker	526.5	2683	 	36.701477	-122.04913	1756911	0.56	2005-07-11 17:42:08.0	Ventana	34.319	01:26:15:07	6.262	V2683-02
 	transect	Rathbunaster californicus	201.09	2696	 	36.805256	-122.12819	1813610	1.5	2005-08-01 18:04:16.0	Ventana	34.21	01:32:08:20	8.668	V2696-02
 	cruise	Glyptocephalus zachirus	413.42	2676	 	36.80386	-122.02921	1676448	0.68	2005-06-14 16:43:20.0	Ventana	34.309	00:27:28:23	6.499	V2676-01
 	descend	Copepoda	855.46	2682	 	36.698326	-122.05944	1721738	0.34	2005-07-08 18:48:14.0	Ventana	34.481	02:41:15:29	4.417	V2682-03
 	descend	Leuroglossus stilbius	812.85	2683	 	36.70276	-122.04865	1757174	0.36	2005-07-11 18:07:34.0	Ventana	34.472	01:51:38:04	4.528	V2683-02
 	transect	Nanomia bijuga	200.4	2681	 	36.698288	-122.05333	2491037	1.7	2005-07-07 17:11:06.0	Ventana	34.196	00:42:13:05	8.332	V2681-01HD
 	transect	Lycenchelys camchatica	1000.13	2669	 	36.731155	-122.240204	1689231	0.41	2005-05-25 19:28:49.0	Ventana	34.51	01:50:47:11	4.058	V2669-02
 	cruise	Chionoecetes tanneri	1218.15	2683	 	36.706364	-122.04754	1757617	0.72	2005-07-11 20:09:02.0	Ventana	34.576	03:43:25:01	3.333	V2683-04
 	transect	Psolus squamatus	399.85	2687	 	36.788044	-122.12152	1809066	1.14	2005-07-13 17:35:41.0	Ventana	34.237	01:02:03:22	7.276	V2687-02
 	transect	Calycophorae	400.74	2681	 	36.697716	-122.05342	2493200	0.79	2005-07-07 17:49:17.0	Ventana	34.278	01:19:40:27	6.66	V2681-02HD
 	transect	Hormiphora	200.43	2681	 	36.69828	-122.05329	2490331	1.7	2005-07-07 17:07:00.0	Ventana	34.198	00:38:08:06	8.347	V2681-01HD
 	transect	Phyllospadix	800.09	2674	 	36.752537	-122.20377	1799392	0.35	2005-06-08 17:47:59.0	Ventana	34.485	00:32:32:07	4.368	V2674-01
 	ascend	Mysidae	700.37	2683	 	36.70579	-122.04904	1757880	0.27	2005-07-11 21:05:59.0	Ventana	34.449	04:38:51:06	4.795	V2683-05
 	transect	Melanostigma pammelas	700.63	2681	 	36.696148	-122.05205	2497767	0.28	2005-07-07 18:43:15.0	Ventana	34.436	02:12:57:26	4.946	V2681-03HD
 	transect	Actiniaria sp. 3	 	2687	 	 	 	1808780	 	2005-07-13 17:29:24.0	Ventana	 	00:56:16:20	 	V2687-01
 	transect	Mesomyaria	1000.37	2669	 	36.731483	-122.24226	1694481	0.41	2005-05-25 19:40:53.0	Ventana	34.509	02:02:49:27	4.063	V2669-02
 	transect	Halipteris californica	597.71	2680	 	36.781227	-122.22619	1804942	0.36	2005-06-27 18:33:32.0	Ventana	34.376	01:12:37:26	5.595	V2680-02
 	ascend	Aegina	472.2	2682	 	36.698334	-122.063156	1723698	0.58	2005-07-08 21:16:53.0	Ventana	34.309	05:08:34:15	6.297	V2682-06
 	transect	Actiniaria sp. 3	 	2687	 	 	 	1811184	 	2005-07-13 20:00:11.0	Ventana	 	03:25:10:23	 	V2687-04
 	transect	Stomphia	997.54	2669	 	36.73058	-122.227234	1683335	0.45	2005-05-25 17:55:41.983	Ventana	34.521	00:18:11:09	3.908	V2669-01
 	ascend	Appendicularia	781.16	2681	 	36.69885	-122.05639	1717457	0.28	2005-07-07 20:05:00.82	Ventana	34.457	03:34:02:17	4.716	V2681-04
 	transect	Phyllospadix	999.72	2669	 	36.731346	-122.2378	1687534	0.44	2005-05-25 19:13:03.0	Ventana	34.519	01:35:02:04	3.952	V2669-02
 	ascend	Nanomia	362.08	2693	 	36.694214	-122.061005	1758871	1.24	2005-07-25 21:02:19.0	Ventana	34.232	03:26:51:16	7.361	V2693-04
 	transect	Psolus squamatus	 	2687	 	 	 	1807714	 	2005-07-13 17:24:04.0	Ventana	 	00:50:56:28	 	V2687-01
 	transect	Mediaster	 	2687	 	 	 	1810192	 	2005-07-13 19:07:39.0	Ventana	 	02:33:24:02	 	V2687-03
 	transect	Euplexaura	 	2687	 	 	 	1810478	 	2005-07-13 19:19:37.0	Ventana	 	02:45:20:22	 	V2687-03
 	ascend	Poeobius meseres	896.79	2681	 	36.698048	-122.05488	1717171	0.37	2005-07-07 19:49:20.667	Ventana	34.505	03:18:23:27	4.207	V2681-04
 	descend	Haliscera	277.51	2683	 	36.700996	-122.05025	1756468	1.36	2005-07-11 16:52:17.0	Ventana	34.232	00:39:56:20	7.809	V2683-01
 	transect	phialidium	900.99	2681	 	36.69513	-122.0508	2498473	0.39	2005-07-07 19:15:37.0	Ventana	34.507	02:45:18:02	4.16	V2681-03HD
 	transect	Neptunea amianta	800.0	2674	 	36.7525	-122.20332	1799309	0.35	2005-06-08 17:45:15.0	Ventana	34.485	00:29:47:29	4.378	V2674-01
 	transect	molt	100.55	2681	 	36.69983	-122.05429	2489625	2.13	2005-07-07 16:46:36.0	Ventana	34.068	00:17:45:28	9.144	V2681-01HD
 	cruise	Bathocyroe	540.38	2688	 	36.798218	-122.01965	1677439	0.62	2005-07-14 17:01:06.0	Ventana	34.326	00:47:24:06	6.259	V2688-01
 	transect	Chionoecetes tanneri	801.37	2674	 	36.75096	-122.218575	1803590	0.35	2005-06-08 19:00:39.0	Ventana	34.486	01:44:41:15	4.373	V2674-02
 	stationary	Appendicularia	504.2	2695	 	36.7846	-122.2005	1824493	0.68	2005-07-28 19:07:38.0	Ventana	34.295	04:13:52:02	6.305	V2695-02
 	transect	Mesomyaria	999.51	2669	 	36.730583	-122.2291	1651046	0.45	2005-05-25 18:07:37.0	Ventana	34.522	00:30:05:04	3.908	V2669-01
 	cruise	Asteronyx	431.44	2688	 	36.805363	-122.019035	1677702	0.92	2005-07-14 17:46:09.0	Ventana	34.267	01:31:53:01	6.931	V2688-02
 	descend	Appendicularia	480.8	2683	 	36.70152	-122.04932	1756768	0.74	2005-07-11 17:22:14.0	Ventana	34.289	01:06:21:18	6.591	V2683-02
 	ascend	Calycophorae	676.15	2682	 	36.69889	-122.05953	1723353	0.28	2005-07-08 20:33:44.0	Ventana	34.411	04:25:53:12	5.175	V2682-05
 	ascend	Appendicularia	534.04	2683	 	36.704494	-122.05067	1757977	0.44	2005-07-11 21:14:56.0	Ventana	34.344	04:47:48:07	6.075	V2683-05
 	descend	Appendicularia	464.05	2681	 	36.698097	-122.05389	1715339	0.51	2005-07-07 17:52:37.767	Ventana	34.326	01:23:00:20	6.135	V2681-02
 	transect	Nanomia bijuga	200.46	2681	 	36.69828	-122.05329	2490677	1.72	2005-07-07 17:08:11.0	Ventana	34.194	00:39:20:02	8.323	V2681-01HD
 	transect	cydippida	200.38	2681	 	36.698303	-122.05338	2491180	1.68	2005-07-07 17:12:32.0	Ventana	34.2	00:43:40:00	8.339	V2681-01HD
 	descend	Atolla wyvillei	909.7	2683	http://search.mbari.org/ARCHIVE/frameGrabs/Ventana/images/2683/02_31_21_11.jpg	36.703484	-122.04847	20004949	0.38	2005-07-11 18:50:58.0	Ventana	34.503	02:31:21:11	4.199	V2683-03
 	transect	Phyllospadix	999.98	2669	 	36.73143	-122.23678	1686925	0.44	2005-05-25 19:04:15.0	Ventana	34.519	01:26:14:23	3.946	V2669-02
 	descend	Nanomia	224.48	2681	 	36.698517	-122.05351	1713581	1.5	2005-07-07 17:15:16.797	Ventana	34.216	00:46:24:17	8.215	V2681-01
 	transect	Mediaster	 	2687	 	 	 	1812498	 	2005-07-13 20:41:47.0	Ventana	 	04:06:44:16	 	V2687-04
 	transect	Brisaster	599.63	2680	 	36.77764	-122.22265	1804296	0.36	2005-06-27 17:48:18.0	Ventana	34.378	00:28:25:00	5.586	V2680-01
 	descend	Chaetognatha	363.35	2682	 	36.698544	-122.0602	1720386	0.99	2005-07-08 17:31:03.0	Ventana	34.258	01:24:34:24	7.045	V2682-02
 	descend	Haliscera	331.31	2693	 	36.697403	-122.06052	1758526	1.29	2005-07-25 19:48:11.0	Ventana	34.236	02:27:45:28	7.568	V2693-03
 	transect	Phyllospadix	799.37	2674	 	36.752518	-122.20414	1799452	0.35	2005-06-08 17:49:54.0	Ventana	34.482	00:34:27:09	4.383	V2674-01
 	transect	Mediaster	 	2687	 	 	 	1811792	 	2005-07-13 20:25:17.0	Ventana	 	03:50:15:29	 	V2687-04
 	transect	Parastichopus leukothele	204.18	2696	 	36.80544	-122.128525	1813707	1.49	2005-08-01 18:17:41.0	Ventana	34.212	01:45:32:07	8.627	V2696-02
 	descend	Chaetognatha	148.35	2683	 	36.700706	-122.05165	1756265	1.7	2005-07-11 16:24:35.0	Ventana	34.172	00:12:17:10	8.854	V2683-01
 	transect	Phyllospadix	800.46	2674	 	36.752037	-122.209	1800849	0.35	2005-06-08 18:14:35.0	Ventana	34.49	00:59:06:12	4.341	V2674-01
 	descend	Crustacea	1115.6	2683	 	36.705116	-122.048904	1757474	0.6	2005-07-11 19:30:43.0	Ventana	34.548	03:11:04:15	3.641	V2683-03
 	transect	Phyllospadix	197.37	2696	 	36.803425	-122.12376	1813204	1.56	2005-08-01 17:19:34.0	Ventana	34.196	00:47:51:17	8.631	V2696-01
 	transect	Mesomyaria	1000.21	2669	 	36.73184	-122.24514	1735347	0.4	2005-05-25 19:57:46.0	Ventana	34.507	02:19:17:10	4.096	V2669-03
 	ascend	Poeobius meseres	1041.71	2682	 	36.697815	-122.05778	1722804	0.48	2005-07-08 20:03:01.0	Ventana	34.533	03:55:35:25	3.855	V2682-04
 	transect	Phyllospadix	197.83	2696	 	36.80266	-122.12168	1813001	1.53	2005-08-01 16:51:37.0	Ventana	34.205	00:19:56:17	8.566	V2696-01
 	transect	chuniphyes	700.65	2681	 	36.69777	-122.05362	2497624	0.29	2005-07-07 18:36:29.0	Ventana	34.437	02:06:11:29	4.958	V2681-03HD
 	ascend	Poeobius meseres	993.97	2683	 	36.70745	-122.049095	1757820	0.43	2005-07-11 20:51:41.0	Ventana	34.518	04:24:35:19	4.028	V2683-05
 	transect	Porifera sp. 1	 	2687	 	 	 	1807654	 	2005-07-13 17:20:30.0	Ventana	 	00:47:22:26	 	V2687-01
 	transect	Mesomyaria	999.99	2669	 	36.73111	-122.23529	1684304	0.45	2005-05-25 18:52:41.0	Ventana	34.522	01:14:41:03	3.921	V2669-02
 	transect	Phyllospadix	1000.53	2669	 	36.73202	-122.24744	1735896	0.4	2005-05-25 20:15:16.0	Ventana	34.509	02:36:45:26	4.076	V2669-03
 	transect	Mesomyaria	998.36	2669	 	36.730957	-122.2301	1651249	0.45	2005-05-25 18:15:02.0	Ventana	34.522	00:37:29:08	3.912	V2669-01
 	descend	Appendicularia	543.55	2682	 	36.698616	-122.05976	1720889	0.36	2005-07-08 18:04:29.0	Ventana	34.368	01:57:58:22	5.737	V2682-02
 	transect	Ceriantharia sp. 1	598.21	2680	 	36.781044	-122.226	1804845	0.35	2005-06-27 18:30:50.0	Ventana	34.379	01:09:56:22	5.589	V2680-02
 	transect	Rathbunaster californicus	200.18	2696	 	36.804993	-122.12772	1813550	1.51	2005-08-01 17:58:59.0	Ventana	34.212	01:26:51:25	8.677	V2696-02
 	transect	Psolus squamatus	 	2687	 	 	 	1810898	 	2005-07-13 19:41:49.0	Ventana	 	03:06:50:13	 	V2687-04
 	descend	Euphausiacea	146.98	2693	 	36.696335	-122.05773	1758180	1.94	2005-07-25 17:56:23.0	Ventana	34.112	00:36:55:03	9.003	V2693-01
 	descend	Copepoda	700.52	2681	 	36.695023	-122.050705	1716202	0.28	2005-07-07 18:48:39.9	Ventana	34.43	02:18:23:05	4.975	V2681-03
 	descend	Nanomia	353.14	2683	 	36.70131	-122.04991	1756565	1.18	2005-07-11 16:56:42.0	Ventana	34.23	00:44:22:25	7.179	V2683-01
 	descend	Siphonophora	562.66	2683	 	36.701813	-122.04913	1756971	0.44	2005-07-11 17:45:35.0	Ventana	34.341	01:29:41:08	6.053	V2683-02
 	transect	Caridea sp.1	601.35	2680	 	36.786945	-122.23134	1805896	0.36	2005-06-27 19:43:48.0	Ventana	34.373	02:22:26:25	5.608	V2680-03
 	transect	Pennatulacea sp.1	602.33	2680	 	36.790092	-122.232666	1806745	0.35	2005-06-27 20:16:26.0	Ventana	34.379	02:55:03:00	5.586	V2680-03
 	transect	Aegina	700.63	2681	 	36.696053	-122.05193	2497827	0.29	2005-07-07 18:43:41.0	Ventana	34.435	02:13:23:23	4.945	V2681-03HD
 	cruise	Sebastolobus	517.35	2688	 	36.800262	-122.01892	1677499	0.66	2005-07-14 17:11:23.0	Ventana	34.314	00:57:40:05	6.37	V2688-01
 	transect	Phyllospadix	800.82	2674	 	36.752514	-122.20281	1799249	0.34	2005-06-08 17:42:40.0	Ventana	34.482	00:27:14:01	4.383	V2674-01
 	transect	Lycodes diapterus	 	2687	 	 	 	1811447	 	2005-07-13 20:12:52.0	Ventana	 	03:37:51:04	 	V2687-04
 	descend	Appendicularia	902.84	2683	 	36.703495	-122.04832	1757271	0.38	2005-07-11 18:43:06.0	Ventana	34.502	02:23:30:06	4.218	V2683-03
 	transect	Phyllospadix	800.71	2674	 	36.75259	-122.20173	1799106	0.34	2005-06-08 17:37:33.0	Ventana	34.479	00:22:06:26	4.42	V2674-01
 	descend	Chaetognatha	344.36	2682	 	36.698765	-122.06055	1720183	1.04	2005-07-08 17:12:33.0	Ventana	34.252	01:06:05:02	7.134	V2682-02
 	descend	Chuniphyes	937.0	2682	 	36.69826	-122.059364	1721798	0.36	2005-07-08 18:53:28.0	Ventana	34.5	02:46:29:21	4.24	V2682-03
 	transect	cyclothone	1000.98	2681	 	36.696228	-122.05246	2498676	0.47	2005-07-07 19:28:47.0	Ventana	34.532	02:58:27:12	3.872	V2681-03HD
 	transect	Mesomyaria	999.77	2669	 	36.731422	-122.23723	1687474	0.44	2005-05-25 19:08:26.0	Ventana	34.519	01:30:25:20	3.946	V2669-02
 	descend	Copepoda	1108.79	2682	 	36.698215	-122.05919	1722098	0.57	2005-07-08 19:10:37.0	Ventana	34.554	03:03:14:06	3.628	V2682-04
 	descend	Chaetognatha	736.78	2683	 	36.702305	-122.04894	1757114	0.31	2005-07-11 17:56:44.0	Ventana	34.445	01:40:49:18	4.824	V2683-02
 	transect	molt	100.52	2681	 	36.69983	-122.05429	2489565	2.13	2005-07-07 16:45:00.0	Ventana	34.068	00:16:09:29	9.147	V2681-01HD
 	ascend	Appendicularia	896.05	2682	 	36.69822	-122.058426	1723210	0.35	2005-07-08 20:14:36.0	Ventana	34.497	04:06:46:20	4.271	V2682-05
 	transect	Neptunea amianta	798.9	2674	 	36.75174	-122.21248	1801209	0.35	2005-06-08 18:29:45.0	Ventana	34.49	01:13:49:05	4.33	V2674-02
 	transect	Allocentrotus fragilis	 	2687	 	 	 	1811244	 	2005-07-13 20:05:30.0	Ventana	 	03:30:29:27	 	V2687-04
 	transect	molt	50.45	2681	 	36.699802	-122.054276	2485487	2.96	2005-07-07 16:33:30.0	Ventana	33.922	00:04:40:01	9.617	V2681-01HD
 	descend	Prayidae	241.11	2693	 	36.69854	-122.061714	1758383	1.5	2005-07-25 19:23:42.0	Ventana	34.238	02:03:43:26	8.515	V2693-02
 	cruise	rock outcrop	94.51	2688	http://search.mbari.org/ARCHIVE/frameGrabs/Ventana/images/2688/04_37_47_19.jpg	36.814686	-122.017044	20005309	1.94	2005-07-14 20:53:33.0	Ventana	34.099	04:37:47:19	8.926	V2688-05
 	transect	Mesomyaria	1000.13	2669	http://search.mbari.org/ARCHIVE/frameGrabs/Ventana/images/2669/01_02_14_13.jpg	36.73094	-122.233734	1683944	0.45	2005-05-25 18:40:13.0	Ventana	34.523	01:02:14:13	3.911	V2669-02
 	transect	Caridea sp.1	999.97	2669	 	36.732586	-122.25029	1736962	0.41	2005-05-25 20:35:22.0	Ventana	34.509	02:56:51:20	4.067	V2669-03
 	transect	Mesomyaria	801.21	2674	 	36.752155	-122.20811	1800706	0.35	2005-06-08 18:10:12.0	Ventana	34.491	00:54:43:19	4.331	V2674-01
 	transect	Appendicularia	400.77	2681	 	36.69737	-122.05303	2493140	0.79	2005-07-07 17:47:49.0	Ventana	34.279	01:18:13:17	6.663	V2681-02HD
 	descend	Nanomia	220.74	2683	 	36.700993	-122.05074	1756408	1.7	2005-07-11 16:48:40.0	Ventana	34.195	00:36:19:29	8.253	V2683-01
 	transect	Neptunea amianta	801.78	2674	 	36.751774	-122.21082	1801052	0.36	2005-06-08 18:23:26.0	Ventana	34.488	01:07:31:09	4.33	V2674-02
 	transect	Mediaster	 	2687	 	 	 	1811589	 	2005-07-13 20:16:36.0	Ventana	 	03:41:35:09	 	V2687-04
 	transect	Mediaster	 	2687	 	 	 	1807308	 	2005-07-13 17:05:32.0	Ventana	 	00:32:25:21	 	V2687-01
 	cruise	Lycenchelys	1016.45	2689	 	36.771564	-122.08297	1669643	0.51	2005-07-18 16:51:35.0	Ventana	34.533	00:14:38:21	3.827	V2689-01
 	cruise	Chionoecetes tanneri	1207.15	2683	 	36.707092	-122.04768	1757677	0.72	2005-07-11 20:16:53.0	Ventana	34.574	03:51:14:18	3.354	V2683-04
 	transect	Mesomyaria	999.58	2669	 	36.731323	-122.23592	1684447	0.44	2005-05-25 18:57:03.0	Ventana	34.52	01:19:02:22	3.936	V2669-02
 	transect	Phyllospadix	998.2	2669	 	36.733013	-122.25262	1737465	0.4	2005-05-25 20:48:34.0	Ventana	34.509	03:09:23:08	4.074	V2669-04
 	ascend	Mysidae	600.87	2682	 	36.69854	-122.062	1723555	0.36	2005-07-08 21:02:16.0	Ventana	34.372	04:54:23:20	5.661	V2682-05
 	transect	Lycenchelys camchatica	798.92	2674	 	36.751347	-122.21525	1801412	0.35	2005-06-08 18:45:01.0	Ventana	34.488	01:29:04:07	4.351	V2674-02
 	descend	Appendicularia	388.68	2682	 	36.6984	-122.05989	1720686	0.92	2005-07-08 17:36:07.0	Ventana	34.26	01:29:37:19	6.907	V2682-02
 	transect	molt	100.49	2681	 	36.699745	-122.05424	2489768	2.12	2005-07-07 16:50:07.0	Ventana	34.067	00:21:16:10	9.159	V2681-01HD
 	transect	Stomphia	 	2669	 	 	 	1737668	 	2005-05-25 13:55:48.0	Ventana	 	03:16:36:05	 	V2669-04
 	transect	Phyllospadix	800.55	2674	 	36.752403	-122.20549	1799797	0.36	2005-06-08 17:57:09.0	Ventana	34.486	00:41:41:24	4.362	V2674-01
 	transect	Lycenchelys camchatica	998.64	2669	 	36.73052	-122.22846	1650889	0.45	2005-05-25 18:03:29.0	Ventana	34.523	00:25:56:20	3.906	V2669-01
 	transect	Psolus squamatus	 	2687	 	 	 	1808720	 	2005-07-13 17:27:50.0	Ventana	 	00:54:42:11	 	V2687-01
 	transect	Mesomyaria	999.48	2669	 	36.73142	-122.23658	1684807	0.44	2005-05-25 19:02:51.0	Ventana	34.52	01:24:50:28	3.937	V2669-02
 	transect	Mesomyaria	998.71	2669	 	36.73286	-122.25204	1737308	0.4	2005-05-25 20:45:11.0	Ventana	34.509	03:06:00:19	4.074	V2669-04
 	ascend	Beroe	370.89	2693	 	36.696796	-122.06044	1758728	1.2	2005-07-25 20:31:48.0	Ventana	34.233	03:11:21:12	7.185	V2693-03
 	ascend	sinker	892.6	2681	 	36.698093	-122.05498	1717314	0.37	2005-07-07 19:49:55.267	Ventana	34.505	03:18:58:14	4.22	V2681-04
 	cruise	Metridium farcimen	104.56	2676	 	36.807564	-122.0393	1677139	1.97	2005-06-14 19:07:32.0	Ventana	34.153	02:46:18:00	8.462	V2676-03
 	descend	Chaetognatha	247.15	2682	 	36.699875	-122.06078	1719980	1.42	2005-07-08 16:22:42.0	Ventana	34.227	00:16:46:25	7.915	V2682-01
 	transect	Euplexaura	 	2687	 	 	 	1810335	 	2005-07-13 19:15:58.0	Ventana	 	02:41:41:22	 	V2687-03
 	transect	Mesomyaria	999.39	2669	 	36.730995	-122.23243	1683741	0.45	2005-05-25 18:32:37.0	Ventana	34.522	00:55:02:19	3.915	V2669-01
 	cruise	Asteroidea	94.66	2688	 	36.81474	-122.01813	1679460	1.95	2005-07-14 21:03:29.0	Ventana	34.098	04:47:42:17	8.929	V2688-05
 	ascend	Cydippida	117.19	2693	 	36.690857	-122.06293	1759277	2.17	2005-07-25 21:33:57.0	Ventana	34.051	03:58:27:19	9.141	V2693-04
 	transect	Mediaster	 	2687	 	 	 	1812295	 	2005-07-13 20:31:16.0	Ventana	 	03:56:14:21	 	V2687-04
 	ascend	Nanomia	258.17	2681	 	36.697838	-122.05522	1719394	 	2005-07-07 21:29:59.0	Ventana	 	05:03:23:11	 	V2681-05
 	transect	Mesomyaria	1000.63	2669	 	36.732075	-122.24781	1736159	0.4	2005-05-25 20:17:27.0	Ventana	34.508	02:38:57:00	4.086	V2669-03
 	transect	Rathbunaster californicus	 	2687	 	 	 	1812784	 	2005-07-13 20:57:23.0	Ventana	 	04:21:53:10	 	V2687-05
 	transect	chuniphyes	300.41	2681	 	36.697197	-122.0527	2492337	1.23	2005-07-07 17:24:14.0	Ventana	34.234	00:55:20:09	7.397	V2681-01HD
 	ascend	Appendicularia	656.63	2681	 	36.69881	-122.0542	1717659	0.29	2005-07-07 20:26:48.327	Ventana	34.408	03:55:49:07	5.25	V2681-04
 	ascend	Appendicularia	1178.21	2683	 	36.70725	-122.04799	1757714	0.71	2005-07-11 20:25:53.0	Ventana	34.569	04:00:15:10	3.398	V2683-04
 	transect	Rathbunaster californicus	199.94	2696	 	36.804413	-122.1264	1813444	1.51	2005-08-01 17:47:09.0	Ventana	34.21	01:15:03:04	8.667	V2696-02
 	transect	Ceriantharia sp. 2	1000.02	2669	 	36.73105	-122.2393	1689134	0.42	2005-05-25 19:23:12.0	Ventana	34.516	01:45:10:28	3.995	V2669-02
 	descend	Eumedusa	646.81	2683	 	36.70203	-122.04895	1757054	0.38	2005-07-11 17:51:49.0	Ventana	34.385	01:35:55:24	5.502	V2683-02
 	stationary	Appendicularia	502.05	2694	 	36.78459	-122.20046	1676591	0.79	2005-07-27 19:08:52.0	Ventana	34.28	01:51:31:27	6.571	V2694-02
 	transect	Sebastolobus	399.51	2687	 	36.789387	-122.125084	1809652	1.15	2005-07-13 18:30:07.0	Ventana	34.24	01:56:25:23	7.308	V2687-02
 	transect	Nanomia bijuga	200.4	2681	 	36.698284	-122.05331	2490940	1.71	2005-07-07 17:10:01.0	Ventana	34.195	00:41:10:02	8.323	V2681-01HD
 	descend	Copepoda	310.75	2682	 	36.699036	-122.06059	1720146	1.14	2005-07-08 17:01:08.0	Ventana	34.242	00:55:10:08	7.282	V2682-01
 	transect	beroe	200.45	2681	 	36.69828	-122.05329	2490188	1.7	2005-07-07 17:05:34.0	Ventana	34.197	00:36:42:04	8.358	V2681-01HD
 	transect	Dosidicus gigas	400.79	2681	 	36.696358	-122.051834	2492997	0.79	2005-07-07 17:43:27.0	Ventana	34.275	01:13:51:18	6.648	V2681-02HD
 	ascend	Poeobius meseres	992.42	2682	 	36.697723	-122.05829	1722910	0.45	2005-07-08 20:06:16.0	Ventana	34.524	03:58:50:18	3.951	V2682-04
 	transect	Calliostoma platinum	 	2687	 	 	 	1810312	 	2005-07-13 19:15:10.0	Ventana	 	02:40:55:01	 	V2687-03
 	ascend	Aegina	916.41	2681	 	36.697784	-122.05446	1717014	0.39	2005-07-07 19:46:13.033	Ventana	34.504	03:15:16:14	4.188	V2681-04
 	transect	Antimora microlepis	1000.53	2669	 	36.732418	-122.250046	1736819	0.41	2005-05-25 20:33:02.0	Ventana	34.51	02:54:31:08	4.066	V2669-03
 	ascend	Appendicularia	263.35	2681	 	36.698982	-122.05607	1718734	1.42	2005-07-07 21:17:17.7	Ventana	34.231	04:45:36:17	7.95	V2681-05
 	ascend	Haliscera	239.42	2693	 	36.6913	-122.06242	1759111	1.5	2005-07-25 21:22:43.0	Ventana	34.235	03:47:15:25	8.487	V2693-04
 	transect	Actiniaria sp. 3	 	2687	 	 	 	1808577	 	2005-07-13 17:24:14.0	Ventana	 	00:51:07:07	 	V2687-01
 	transect	Mediaster	 	2687	 	 	 	1811387	 	2005-07-13 20:10:49.0	Ventana	 	03:35:48:27	 	V2687-04
 	descend	Appendicularia	400.24	2681	 	36.695633	-122.05105	1715233	0.79	2005-07-07 17:37:36.6	Ventana	34.278	01:07:59:13	6.674	V2681-02
 	transect	Mesomyaria	799.26	2674	 	36.752514	-122.20427	1799535	0.35	2005-06-08 17:50:45.0	Ventana	34.484	00:35:18:07	4.386	V2674-01
 	transect	Ophiuroidea	999.51	2669	 	36.73103	-122.23118	1683561	0.45	2005-05-25 18:24:44.0	Ventana	34.521	00:47:11:04	3.914	V2669-01
 	transect	Mesomyaria	998.78	2669	 	36.730873	-122.22965	1651152	0.45	2005-05-25 18:12:04.0	Ventana	34.522	00:34:31:23	3.907	V2669-01
 	descend	Medusae	167.71	2683	 	36.7008	-122.051384	1756302	1.7	2005-07-11 16:31:27.0	Ventana	34.176	00:19:07:17	8.732	V2683-01
 	descend	Solmaris	295.62	2693	 	36.69776	-122.06109	1758466	1.33	2005-07-25 19:38:28.0	Ventana	34.239	02:18:04:09	7.763	V2693-03
 	transect	pseudothecosomata	800.89	2681	 	36.69612	-122.05208	2498233	0.31	2005-07-07 18:58:58.0	Ventana	34.475	02:28:39:10	4.497	V2681-03HD
 	transect	Ophiuroidea	999.18	2669	 	36.731377	-122.23607	1684544	0.44	2005-05-25 18:58:04.0	Ventana	34.52	01:20:03:19	3.939	V2669-02
 	ascend	Appendicularia	401.95	2681	 	36.699265	-122.05446	1717982	0.86	2005-07-07 20:47:35.407	Ventana	34.279	04:15:56:04	6.854	V2681-05
 	transect	Brisaster	 	2669	 	 	 	1737571	 	2005-05-25 13:51:47.0	Ventana	 	03:12:35:12	 	V2669-04
 	cruise	Pannychia moseleyi	440.13	2688	 	36.80442	-122.01851	1677665	0.87	2005-07-14 17:41:20.0	Ventana	34.271	01:27:04:03	6.831	V2688-02
 	transect	Phyllospadix	203.36	2696	 	36.80674	-122.13033	1813813	1.48	2005-08-01 18:35:38.0	Ventana	34.21	02:03:28:12	8.631	V2696-02
 	cruise	Asteroidea	90.66	2688	 	36.815907	-122.01777	1679400	1.96	2005-07-14 20:27:00.0	Ventana	34.092	04:11:44:25	8.918	V2688-04
 	transect	Mediaster	 	2687	 	 	 	1812461	 	2005-07-13 20:39:51.0	Ventana	 	04:04:48:25	 	V2687-04
 	transect	Mesomyaria	998.3	2669	 	36.730526	-122.22837	1649371	0.45	2005-05-25 18:03:04.0	Ventana	34.523	00:25:32:12	3.908	V2669-01
 	transect	Porifera sp. 1	 	2687	 	 	 	1809975	 	2005-07-13 18:49:13.0	Ventana	 	02:14:58:20	 	V2687-03
 	ascend	sinker	877.04	2681	 	36.698315	-122.05527	1717337	0.35	2005-07-07 19:51:50.867	Ventana	34.504	03:20:53:13	4.287	V2681-04
 	descend	Copepoda	478.86	2682	 	36.69857	-122.05972	1720806	0.52	2005-07-08 17:57:23.0	Ventana	34.329	01:50:52:28	6.186	V2682-02
 	transect	Rathbunaster californicus	 	2687	 	 	 	1807488	 	2005-07-13 17:11:27.0	Ventana	 	00:38:20:11	 	V2687-01
 	transect	Rathbunaster californicus	196.42	2696	 	36.803135	-122.12282	1813121	1.55	2005-08-01 17:08:32.0	Ventana	34.199	00:36:50:04	8.615	V2696-01
 	transect	Corallimorphus pilatus	 	2687	 	 	 	1809989	 	2005-07-13 18:49:40.0	Ventana	 	02:15:25:22	 	V2687-03
 	descend	ink	533.16	2688	http://search.mbari.org/ARCHIVE/frameGrabs/Ventana/images/2688/00_03_22_00.jpg	36.79344	-122.018265	1677236	0.68	2005-07-14 16:17:03.0	Ventana	34.311	00:03:22:00	6.38	V2688-01
 	transect	Ceriantharia sp. 1	598.64	2680	 	36.78215	-122.22724	1805108	0.35	2005-06-27 18:45:32.0	Ventana	34.38	01:24:37:13	5.577	V2680-02
 	ascend	Euphausiacea	265.9	2681	 	36.69952	-122.054474	1718411	1.4	2005-07-07 21:08:12.7	Ventana	34.236	04:36:32:19	7.898	V2681-05
 	ascend	Cydippida	377.05	2693	 	36.69579	-122.06063	1758788	1.19	2005-07-25 20:51:06.0	Ventana	34.234	03:15:39:20	7.154	V2693-04
 	transect	Sebastes diploproa	400.5	2687	http://search.mbari.org/ARCHIVE/frameGrabs/Ventana/images/2687/01_34_27_26.jpg	36.788986	-122.12378	1806888	1.16	2005-07-13 18:08:08.0	Ventana	34.239	01:34:27:26	7.332	V2687-02
 	transect	molt	100.6	2681	 	36.69983	-122.05429	2489528	2.13	2005-07-07 16:43:57.0	Ventana	34.068	00:15:07:08	9.147	V2681-01HD
 	cruise	Porifera	278.92	2676	 	36.805332	-122.03181	1676208	1.44	2005-06-14 16:18:30.0	Ventana	34.214	00:02:40:12	7.858	V2676-01
 	transect	cyclothone	500.6	2681	 	36.695953	-122.05143	2493643	0.43	2005-07-07 18:03:39.0	Ventana	34.347	01:34:01:28	6.006	V2681-02HD
 	ascend	Appendicularia	366.18	2681	 	36.699368	-122.05491	1718042	1.0	2005-07-07 20:51:09.833	Ventana	34.263	04:19:30:10	7.11	V2681-05
 	descend	Appendicularia	429.65	2682	 	36.69817	-122.05976	1720746	0.68	2005-07-08 17:43:47.0	Ventana	34.293	01:37:17:13	6.459	V2682-02
 	ascend	Cydippida	 	2683	 	 	 	1758143	 	2005-07-11 14:31:44.0	Ventana	 	05:04:35:21	 	V2683-05
 	cruise	Parastichopus	90.64	2688	 	36.817024	-122.01549	1679340	1.99	2005-07-14 20:06:40.0	Ventana	34.086	03:51:26:06	8.91	V2688-04
 	cruise	mud	204.78	2696	 	36.807644	-122.13128	1813873	1.46	2005-08-01 18:44:49.0	Ventana	34.223	02:11:54:12	8.648	V2696-03
 	transect	Pennatulacea sp.1	602.16	2680	 	36.791054	-122.23289	1806828	0.35	2005-06-27 20:24:46.0	Ventana	34.379	03:03:22:05	5.586	V2680-03
 	descend	Nanomia	190.42	2683	 	36.70103	-122.05112	1756362	1.7	2005-07-11 16:44:39.0	Ventana	34.195	00:32:20:02	8.463	V2683-01
 	transect	Phyllospadix	800.11	2674	 	36.752495	-122.20449	1799595	0.35	2005-06-08 17:52:02.0	Ventana	34.487	00:36:35:03	4.382	V2674-01
 	ascend	Haliscera	260.02	2681	 	36.6988	-122.05693	1719057	1.42	2005-07-07 21:21:55.7	Ventana	34.23	04:50:14:23	7.96	V2681-05
 	transect	Neptunea amianta	800.64	2674	 	36.752563	-122.20208	1799152	0.35	2005-06-08 17:39:07.0	Ventana	34.497	00:23:40:15	4.392	V2674-01
 	transect	Psolus squamatus	 	2687	 	 	 	1811004	 	2005-07-13 19:47:42.0	Ventana	 	03:12:43:04	 	V2687-04
 	transect	Caecosagitta macrocephala	901.08	2681	 	36.69667	-122.0528	2498293	0.39	2005-07-07 19:07:59.0	Ventana	34.506	02:37:39:11	4.17	V2681-03HD
 	descend	Lobata	609.86	2681	 	36.69793	-122.05385	1715925	0.3	2005-07-07 18:29:07.3	Ventana	34.388	01:59:27:28	5.461	V2681-02
 	ascend	Copepoda	324.11	2693	 	36.691727	-122.062	1759051	1.29	2005-07-25 21:17:42.0	Ventana	34.238	03:42:15:09	7.562	V2693-04
 	descend	Copepoda	951.58	2683	 	36.70385	-122.04854	1757331	0.42	2005-07-11 19:10:18.0	Ventana	34.515	02:50:41:04	4.05	V2683-03
 	transect	Phyllospadix	196.49	2696	 	36.802944	-122.12235	1813061	1.55	2005-08-01 17:03:04.0	Ventana	34.2	00:31:22:20	8.608	V2696-01
 	transect	Gastropoda sp.2	999.53	2669	 	36.730583	-122.22903	1695030	0.45	2005-05-25 18:06:57.0	Ventana	34.523	00:29:25:08	3.905	V2669-01
 	transect	Poeobius meseres	1001.06	2681	 	36.69486	-122.05069	2498556	0.48	2005-07-07 19:21:53.0	Ventana	34.532	02:51:34:05	3.859	V2681-03HD
 	transect	Psolus squamatus	399.86	2687	 	36.788113	-122.12162	1809223	1.13	2005-07-13 17:37:21.0	Ventana	34.243	01:03:43:12	7.255	V2687-02
 	transect	Mediaster	 	2687	 	 	 	1810741	 	2005-07-13 19:31:04.0	Ventana	 	02:56:47:07	 	V2687-03
 	transect	Hormiphora	200.37	2681	 	36.69832	-122.05344	2491323	1.66	2005-07-07 17:13:30.0	Ventana	34.2	00:44:37:12	8.34	V2681-01HD
 	transect	Antimora microlepis	799.51	2674	http://search.mbari.org/ARCHIVE/frameGrabs/Ventana/images/2674/00_17_30_26.jpg	36.752686	-122.20085	1774156	0.31	2005-06-08 17:32:57.0	Ventana	34.46	00:17:30:26	4.508	V2674-01
 	transect	Euphausia	200.42	2681	 	36.69828	-122.0533	2490880	1.7	2005-07-07 17:09:27.0	Ventana	34.197	00:40:34:07	8.33	V2681-01HD
 	ascend	Chuniphyes	945.01	2681	 	36.697456	-122.053894	1716908	0.41	2005-07-07 19:41:47.983	Ventana	34.516	03:10:51:05	4.065	V2681-04
 	transect	Funiculina	1000.01	2669	http://search.mbari.org/ARCHIVE/frameGrabs/Ventana/images/2669/02_15_35_06.jpg	36.731796	-122.2446	1734393	0.4	2005-05-25 19:54:05.0	Ventana	34.51	02:15:35:06	4.078	V2669-03
 	transect	Stomphia	 	2687	 	 	 	1812724	 	2005-07-13 20:54:56.0	Ventana	 	04:19:26:15	 	V2687-05
 	transect	Phyllospadix	802.9	2674	 	36.75224	-122.20631	1799917	0.36	2005-06-08 18:01:15.0	Ventana	34.488	00:45:47:15	4.339	V2674-01
 	transect	Chionoecetes tanneri	798.27	2674	 	36.751686	-122.2134	1801269	0.35	2005-06-08 18:34:28.0	Ventana	34.488	01:18:31:22	4.35	V2674-02
 	transect	chuniphyes	600.57	2681	 	36.69651	-122.05214	2493749	0.3	2005-07-07 18:22:23.0	Ventana	34.388	01:52:44:03	5.48	V2681-02HD
 	transect	Mesomyaria	999.62	2669	 	36.730995	-122.23133	1683621	0.45	2005-05-25 18:26:00.0	Ventana	34.523	00:48:26:08	3.913	V2669-01
 	transect	Mediaster	399.92	2687	 	36.788136	-122.1218	1809329	1.13	2005-07-13 17:39:36.0	Ventana	34.241	01:05:58:17	7.267	V2687-02
 	descend	Nanomia	466.64	2683	 	36.701656	-122.04936	1756731	0.77	2005-07-11 17:11:43.0	Ventana	34.287	00:59:22:19	6.654	V2683-01
 	ascend	Chuniphyes	298.43	2683	 	36.70334	-122.050644	1758083	1.33	2005-07-11 21:24:39.0	Ventana	34.248	04:57:30:05	7.678	V2683-05
 	transect	Mediaster	 	2687	 	 	 	1810635	 	2005-07-13 19:25:50.0	Ventana	 	02:51:33:24	 	V2687-03
 	transect	Calycophorae	700.59	2681	 	36.695583	-122.05142	2497924	0.28	2005-07-07 18:46:00.0	Ventana	34.435	02:15:42:25	4.948	V2681-03HD
 	transect	Mesomyaria	800.6	2674	 	36.75196	-122.20968	1800932	0.35	2005-06-08 18:18:11.0	Ventana	34.49	01:02:16:16	4.335	V2674-02
 	transect	Mesomyaria	800.25	2674	 	36.75119	-122.216545	1803433	0.35	2005-06-08 18:51:36.0	Ventana	34.487	01:35:39:21	4.367	V2674-02
 	transect	Funiculina	803.32	2674	 	36.750767	-122.22042	1803696	0.34	2005-06-08 19:08:47.0	Ventana	34.487	01:52:49:10	4.375	V2674-02
 	transect	Microstomus pacificus	 	2687	 	 	 	1811709	 	2005-07-13 20:21:25.0	Ventana	 	03:46:24:04	 	V2687-04
 	transect	Ophiuroidea	999.67	2669	 	36.7314	-122.236984	1687428	0.44	2005-05-25 19:06:11.0	Ventana	34.52	01:28:10:19	3.941	V2669-02
 	transect	Mesomyaria	1000.15	2669	 	36.730976	-122.23318	1683884	0.45	2005-05-25 18:37:47.0	Ventana	34.523	01:00:13:08	3.909	V2669-01
 	transect	Mesomyaria	1000.2	2669	 	36.731667	-122.24379	1733950	0.41	2005-05-25 19:48:51.0	Ventana	34.509	02:10:22:02	4.064	V2669-03
 	transect	Porifera sp. 1	399.7	2687	 	36.789272	-122.12467	1809592	1.16	2005-07-13 18:22:37.0	Ventana	34.234	01:48:56:20	7.337	V2687-02
 	transect	Mesomyaria	798.26	2674	 	36.75158	-122.21406	1801329	0.35	2005-06-08 18:38:37.0	Ventana	34.489	01:22:41:10	4.34	V2674-02
 	cruise	Rathbunaster californicus	416.61	2688	 	36.806	-122.0192	1677725	0.93	2005-07-14 17:48:49.0	Ventana	34.267	01:34:31:22	6.954	V2688-02
 	transect	Psolus squamatus	 	2687	 	 	 	1811124	 	2005-07-13 19:54:48.0	Ventana	 	03:19:48:20	 	V2687-04
 	transect	bolinopsis	600.57	2681	 	36.697044	-122.05278	2493809	0.3	2005-07-07 18:24:52.0	Ventana	34.387	01:55:12:18	5.475	V2681-02HD
 	cruise	Pleuronectiformes	450.78	2676	 	36.802933	-122.02928	1676328	0.62	2005-06-14 16:36:48.0	Ventana	34.321	00:20:56:28	6.337	V2676-01
 	transect	Psolus squamatus	 	2687	 	 	 	1809915	 	2005-07-13 18:48:02.0	Ventana	 	02:13:48:18	 	V2687-03
 	transect	Mesomyaria	1000.39	2669	 	36.7309	-122.232864	1683824	0.45	2005-05-25 18:35:53.0	Ventana	34.522	00:58:18:22	3.91	V2669-01
 	descend	Appendicularia	948.14	2681	 	36.69466	-122.050385	1716525	0.43	2005-07-07 19:18:26.5	Ventana	34.518	02:48:07:28	4.01	V2681-03
 	descend	physical object	652.16	2677	http://search.mbari.org/ARCHIVE/frameGrabs/Ventana/images/2677/00_48_11_05.jpg	36.74626	-122.05237	20008787	0.37	2005-06-15 17:32:57.0	Ventana	34.423	00:48:11:05	5.196	V2677-01
 	transect	Mediaster	 	2687	 	 	 	1810049	 	2005-07-13 18:52:16.0	Ventana	 	02:18:01:26	 	V2687-03
 	transect	Mediaster	 	2687	 	 	 	1808637	 	2005-07-13 17:25:53.0	Ventana	 	00:52:46:03	 	V2687-01
 	ascend	Appendicularia	697.66	2681	 	36.698734	-122.05482	1717600	0.27	2005-07-07 20:21:04.667	Ventana	34.42	03:50:05:13	5.095	V2681-04
 	ascend	sinker	1144.88	2683	 	36.708157	-122.04905	1757774	0.67	2005-07-11 20:38:23.0	Ventana	34.563	04:12:44:27	3.478	V2683-04
 	transect	Rathbunaster californicus	 	2687	http://search.mbari.org/ARCHIVE/frameGrabs/Ventana/images/2687/03_08_34_04.jpg	 	 	1810944	 	2005-07-13 19:43:32.0	Ventana	 	03:08:34:04	 	V2687-04
 	transect	phialidium	500.56	2681	 	36.69667	-122.05226	2493583	0.44	2005-07-07 18:00:26.0	Ventana	34.348	01:30:49:05	6.013	V2681-02HD
 	transect	Ophiuroidea	999.35	2669	 	36.731422	-122.23627	1684710	0.44	2005-05-25 18:59:34.0	Ventana	34.52	01:21:34:00	3.941	V2669-02
 	ascend	Lobata	258.17	2681	 	36.697838	-122.05522	1719334	 	2005-07-07 21:29:59.0	Ventana	 	05:01:22:08	 	V2681-05
 	transect	molt	100.54	2681	 	36.69983	-122.05429	2489648	2.13	2005-07-07 16:47:00.0	Ventana	34.069	00:18:10:24	9.144	V2681-01HD
 	cruise	Merluccius productus	246.34	2688	 	36.80962	-122.02047	1677928	1.56	2005-07-14 18:31:05.0	Ventana	34.188	02:16:21:15	8.264	V2688-03
 	transect	Mesomyaria	998.46	2669	 	36.73116	-122.234604	1684161	0.45	2005-05-25 18:46:44.0	Ventana	34.521	01:08:44:06	3.916	V2669-02
 	transect	Porifera	 	2687	 	 	 	1808840	 	2005-07-13 17:30:20.0	Ventana	 	00:57:12:02	 	V2687-01
 	transect	Sebastolobus altivelis	801.01	2674	 	36.751083	-122.217354	1803493	0.35	2005-06-08 18:55:21.0	Ventana	34.489	01:39:23:21	4.353	V2674-02
 	transect	Mesomyaria	801.83	2674	 	36.75091	-122.21966	1803636	0.34	2005-06-08 19:05:06.0	Ventana	34.479	01:49:08:25	4.367	V2674-02
 	transect	Actiniaria sp. 3	 	2687	 	 	 	1808960	 	2005-07-13 17:32:39.0	Ventana	 	00:59:31:07	 	V2687-01
 	transect	Phyllospadix	802.89	2674	 	36.751793	-122.210144	1800992	0.36	2005-06-08 18:20:34.0	Ventana	34.49	01:04:38:23	4.316	V2674-02
 	transect	Mediaster	 	2687	 	 	 	1811649	 	2005-07-13 20:19:01.0	Ventana	 	03:44:00:16	 	V2687-04
 	transect	Mediaster	 	2687	 	 	 	1807225	 	2005-07-13 17:03:57.0	Ventana	 	00:30:51:01	 	V2687-01
 	transect	Lycodes cortezianus	 	2687	 	 	 	1810575	 	2005-07-13 19:22:43.0	Ventana	 	02:48:27:01	 	V2687-03
 	transect	Mesomyaria	999.25	2669	 	36.73102	-122.23182	1683681	0.45	2005-05-25 18:28:57.0	Ventana	34.523	00:51:23:12	3.912	V2669-01
 	ascend	Chaetognatha	279.95	2681	 	36.699726	-122.05502	1718305	1.36	2005-07-07 21:03:06.593	Ventana	34.234	04:31:27:10	7.751	V2681-05
 	transect	Phyllospadix	801.76	2674	 	36.75246	-122.199554	1773787	0.29	2005-06-08 17:24:15.0	Ventana	34.462	00:08:49:16	4.648	V2674-01
 	stationary	Merluccius productus	502.35	2694	 	36.784588	-122.20044	1676650	0.85	2005-07-27 20:17:22.0	Ventana	34.273	02:49:30:21	6.689	V2694-03
 	transect	Poeobius meseres	400.79	2681	 	36.695904	-122.051315	2492923	0.79	2005-07-07 17:41:27.0	Ventana	34.276	01:11:51:25	6.665	V2681-02HD
 	transect	Mediaster	 	2687	 	 	 	1812198	 	2005-07-13 20:28:56.0	Ventana	 	03:53:54:27	 	V2687-04
 	ascend	Calycophorae	558.3	2681	 	36.69894	-122.05426	1717719	0.38	2005-07-07 20:31:53.933	Ventana	34.362	04:00:54:16	5.868	V2681-04
 	ascend	Copepoda	261.3	2681	 	36.69885	-122.05701	1718997	1.42	2005-07-07 21:20:40.267	Ventana	34.23	04:48:58:28	7.955	V2681-05
 	ascend	Calycophorae	598.7	2682	 	36.698757	-122.061066	1723496	0.34	2005-07-08 20:50:47.0	Ventana	34.374	04:42:55:15	5.632	V2682-05
 	transect	Mesomyaria	999.05	2669	 	36.732754	-122.25136	1737202	0.41	2005-05-25 20:41:12.0	Ventana	34.509	03:02:01:06	4.072	V2669-04
 	transect	molt	100.5	2681	 	36.69901	-122.053764	2489851	2.12	2005-07-07 16:51:54.0	Ventana	34.07	00:23:03:13	9.148	V2681-01HD
 	cruise	Anthomastus ritteri	460.85	2688	 	36.802845	-122.01819	1677605	0.85	2005-07-14 17:32:21.033	Ventana	34.275	01:18:04:26	6.804	V2688-02
 	ascend	Appendicularia	552.13	2682	 	36.6983	-122.06272	1723615	0.39	2005-07-08 21:09:05.0	Ventana	34.357	05:00:45:23	5.864	V2682-06
 	transect	Rathbunaster californicus	 	2687	 	 	 	1812401	 	2005-07-13 20:36:43.0	Ventana	 	04:01:40:14	 	V2687-04
 	transect	Phyllospadix	400.08	2687	 	36.78909	-122.12402	1809532	1.17	2005-07-13 18:12:40.0	Ventana	34.238	01:38:59:18	7.355	V2687-02
 	transect	Ophiuroidea	1000.42	2669	 	36.731533	-122.24281	1694541	0.4	2005-05-25 19:43:29.0	Ventana	34.51	02:05:26:04	4.087	V2669-02
 	transect	Psolus squamatus	 	2687	 	 	 	1811829	 	2005-07-13 20:26:36.0	Ventana	 	03:51:35:03	 	V2687-04
 	descend	Cydippida 2	1010.51	2683	 	36.704327	-122.05003	1757391	0.44	2005-07-11 19:22:20.0	Ventana	34.519	03:02:42:04	3.998	V2683-03
 	transect	Mediaster	 	2687	 	 	 	1807548	 	2005-07-13 17:14:56.0	Ventana	 	00:41:49:21	 	V2687-01
 	transect	Mediaster	 	2687	 	 	 	1810252	 	2005-07-13 19:12:32.0	Ventana	 	02:38:16:01	 	V2687-03
 	transect	Sergestes similis	300.44	2681	 	36.698322	-122.05353	2491968	1.25	2005-07-07 17:20:20.0	Ventana	34.233	00:51:28:14	7.431	V2681-01HD
 	transect	Gastropoda sp.2	1000.12	2669	 	36.731228	-122.23839	1694721	0.43	2005-05-25 19:17:43.0	Ventana	34.516	01:39:41:21	3.976	V2669-02
 	ascend	Appendicularia	370.97	2693	 	36.696373	-122.060745	1758669	1.2	2005-07-25 20:27:19.0	Ventana	34.231	03:06:51:22	7.163	V2693-03
 	transect	Mesomyaria	999.89	2669	 	36.73262	-122.25071	1737022	0.4	2005-05-25 20:37:41.0	Ventana	34.507	02:59:09:14	4.073	V2669-03
 	transect	Umbellula lindahli	599.87	2680	 	36.778122	-122.22329	1804356	0.36	2005-06-27 17:54:16.0	Ventana	34.377	00:34:23:10	5.589	V2680-01
 	ascend	sinker	836.51	2681	 	36.6987	-122.05609	1717397	0.31	2005-07-07 19:56:53.267	Ventana	34.483	03:25:56:01	4.423	V2681-04
 	transect	Phyllospadix	1000.46	2669	 	36.731934	-122.24699	1735790	0.41	2005-05-25 20:11:52.0	Ventana	34.51	02:33:21:09	4.064	V2669-03
 	transect	Umbellula lindahli	601.35	2680	 	36.776886	-122.22215	1804153	0.36	2005-06-27 17:39:29.0	Ventana	34.38	00:19:37:01	5.577	V2680-01
 	transect	Microstomus pacificus	202.38	2696	 	36.805256	-122.12819	1813647	1.48	2005-08-01 18:10:19.0	Ventana	34.21	01:38:10:19	8.625	V2696-02
 	ascend	Cydippida	258.17	2681	 	36.697838	-122.05522	1719514	 	2005-07-07 21:29:59.0	Ventana	 	05:09:31:11	 	V2681-05
 	transect	Phyllospadix	800.05	2674	 	36.752087	-122.20881	1800812	0.35	2005-06-08 18:13:29.0	Ventana	34.489	00:58:00:28	4.334	V2674-01
 	transect	Phyllospadix	801.8	2674	 	36.752247	-122.207375	1800060	0.37	2005-06-08 18:06:46.0	Ventana	34.485	00:51:18:05	4.355	V2674-01
 	endtransect	physical object	399.48	2687	 	36.789406	-122.125626	1809712	1.12	2005-07-13 18:38:31.0	Ventana	34.244	02:04:46:02	7.244	V2687-02
 	transect	doliolenetta	800.97	2681	 	36.695126	-122.05087	2498067	0.31	2005-07-07 18:54:05.0	Ventana	34.477	02:23:46:23	4.486	V2681-03HD
 	transect	Psolus squamatus	 	2687	 	 	 	1812581	 	2005-07-13 20:46:06.0	Ventana	 	04:10:37:12	 	V2687-05
 	ascend	Crustacea	761.54	2682	 	36.698753	-122.05905	1723293	0.29	2005-07-08 20:27:26.0	Ventana	34.446	04:19:35:10	4.826	V2682-05
 	ascend	Aegina	653.04	2683	 	36.705257	-122.04989	1757917	0.31	2005-07-11 21:09:00.0	Ventana	34.412	04:41:51:24	5.207	V2683-05
 	transect	Glyptocephalus zachirus	 	2687	http://search.mbari.org/ARCHIVE/frameGrabs/Ventana/images/2687/03_00_48_18.jpg	 	 	1810801	 	2005-07-13 19:35:05.0	Ventana	 	03:00:48:18	 	V2687-03
 	transect	Psolus squamatus	399.87	2687	 	36.788063	-122.12155	1809163	1.13	2005-07-13 17:36:21.0	Ventana	34.242	01:02:43:05	7.271	V2687-02
 	transect	Glyptocephalus zachirus	 	2687	 	 	 	1811327	 	2005-07-13 20:07:29.0	Ventana	 	03:32:28:11	 	V2687-04
 	transect	Aegina	1001.0	2681	 	36.695488	-122.051506	2498616	0.48	2005-07-07 19:25:04.0	Ventana	34.534	02:54:44:15	3.849	V2681-03HD
 	ascend	Appendicularia	956.58	2681	 	36.697296	-122.05372	1716848	0.42	2005-07-07 19:40:04.95	Ventana	34.517	03:09:08:22	4.043	V2681-04
 	ascend	Solmissus	336.7	2681	 	36.699387	-122.05526	1718102	1.14	2005-07-07 20:53:52.7	Ventana	34.245	04:22:13:01	7.285	V2681-05
 	transect	Solmissus	300.43	2681	 	36.696327	-122.05193	2492540	1.23	2005-07-07 17:26:50.0	Ventana	34.233	00:57:57:24	7.398	V2681-01HD
 	descend	Appendicularia	702.39	2681	 	36.69793	-122.05378	1715985	0.29	2005-07-07 18:32:09.0	Ventana	34.424	02:02:28:29	4.993	V2681-02
 	transect	Appendicularia	400.77	2681	 	36.696835	-122.05244	2493057	0.79	2005-07-07 17:45:36.0	Ventana	34.278	01:15:59:19	6.659	V2681-02HD
 	ascend	Solmissus	335.31	2693	 	36.692745	-122.061874	1758991	1.26	2005-07-25 21:14:03.0	Ventana	34.238	03:38:34:09	7.464	V2693-04
 	transect	Phyllospadix	801.48	2674	 	36.752476	-122.200066	1773990	0.3	2005-06-08 17:27:05.0	Ventana	34.451	00:11:39:07	4.597	V2674-01
 	transect	Mesomyaria	997.42	2669	 	36.73067	-122.22753	1649168	0.45	2005-05-25 17:57:35.0	Ventana	34.521	00:20:04:06	3.909	V2669-01
 	cruise	Merluccius productus	151.96	2676	 	36.808723	-122.030655	1676853	1.68	2005-06-14 17:54:00.0	Ventana	34.182	01:33:43:07	8.263	V2676-02
 	ascend	Cydippida	204.01	2693	 	36.690952	-122.06265	1759171	1.8	2005-07-25 21:25:20.0	Ventana	34.2	03:49:51:29	8.788	V2693-04
 	transect	Gastropoda sp.2	998.98	2669	 	36.731045	-122.23189	1695090	0.45	2005-05-25 18:29:36.0	Ventana	34.522	00:52:02:00	3.915	V2669-01
 	descend	Chaetognatha	307.83	2682	 	36.699448	-122.0607	1720086	1.15	2005-07-08 16:43:13.0	Ventana	34.24	00:37:16:27	7.297	V2682-01
 	transect	Mesomyaria	1000.23	2669	 	36.73163	-122.24329	1733807	0.41	2005-05-25 19:46:14.0	Ventana	34.51	02:07:45:15	4.065	V2669-03
 	transect	Mesomyaria	1000.07	2669	 	36.731045	-122.23968	1689194	0.41	2005-05-25 19:25:51.0	Ventana	34.51	01:47:48:27	4.061	V2669-02
 	cruise	shell hash	108.87	2688	 	36.813526	-122.01844	1679220	1.97	2005-07-14 19:31:26.0	Ventana	34.097	03:16:13:23	8.912	V2688-04
 	transect	molt	100.49	2681	 	36.69982	-122.05429	2489731	2.13	2005-07-07 16:48:53.0	Ventana	34.067	00:20:01:19	9.155	V2681-01HD
 	transect	Mesomyaria	999.32	2669	 	36.731377	-122.236404	1684770	0.44	2005-05-25 19:00:34.0	Ventana	34.518	01:22:33:25	3.944	V2669-02
 	transect	Sebastes diploproa	 	2687	 	 	 	1810861	 	2005-07-13 19:37:48.0	Ventana	 	03:03:31:13	 	V2687-03
 	transect	Mesomyaria	998.5	2669	 	36.731083	-122.23061	1651355	0.45	2005-05-25 18:19:03.0	Ventana	34.521	00:41:30:02	3.91	V2669-01
 	descend	Euphausiacea	180.23	2693	 	36.696087	-122.05818	1758263	1.89	2005-07-25 18:11:10.0	Ventana	34.163	00:51:39:14	8.867	V2693-01
 	ascend	Poeobius meseres	378.21	2682	 	36.697674	-122.06213	1723735	0.95	2005-07-08 21:23:09.0	Ventana	34.265	05:14:49:18	6.989	V2682-06
 	transect	Appendicularia	901.02	2681	 	36.69573	-122.05166	2498413	0.39	2005-07-07 19:12:22.0	Ventana	34.505	02:42:04:13	4.174	V2681-03HD
 	descend	Nanomia	182.69	2682	 	36.699894	-122.060745	1719943	2.1	2005-07-08 16:20:06.0	Ventana	34.151	00:14:11:15	8.296	V2682-01
 	transect	Mesomyaria	999.91	2669	 	36.731876	-122.246	1735610	0.41	2005-05-25 20:03:33.0	Ventana	34.511	02:25:04:04	4.06	V2669-03
 	stationary	Merluccius productus	501.64	2695	 	36.784565	-122.20045	1824456	0.85	2005-07-28 17:38:05.0	Ventana	34.269	00:44:25:01	6.638	V2695-01
 	transect	Appendicularia	500.58	2681	 	36.697086	-122.052704	2493523	0.44	2005-07-07 17:58:52.0	Ventana	34.346	01:29:14:27	6.03	V2681-02HD
 	ascend	Solmissus	260.69	2681	 	36.698864	-122.05697	1718937	1.42	2005-07-07 21:19:56.633	Ventana	34.23	04:48:16:10	7.957	V2681-05
 	transect	Mesomyaria	801.0	2674	 	36.751015	-122.21814	1803553	0.35	2005-06-08 18:58:52.0	Ventana	34.492	01:42:54:19	4.326	V2674-02
 	transect	Mediaster	 	2687	 	 	 	1812258	 	2005-07-13 20:29:58.0	Ventana	 	03:54:56:24	 	V2687-04
 	transect	Corallimorphus pilatus	 	2687	 	 	 	1810109	 	2005-07-13 18:56:55.0	Ventana	 	02:22:40:08	 	V2687-03
 	transect	Phyllospadix	599.29	2680	 	36.779785	-122.224945	1804559	0.36	2005-06-27 18:15:24.0	Ventana	34.378	00:55:30:03	5.59	V2680-01
 	transect	Caridea sp.1	602.8	2680	http://search.mbari.org/ARCHIVE/frameGrabs/Ventana/images/2680/02_48_08_01.jpg	36.789326	-122.23252	1806708	0.35	2005-06-27 20:09:30.0	Ventana	34.378	02:48:08:01	5.588	V2680-03
 	transect	Rathbunaster californicus	197.92	2696	 	36.802654	-122.1217	1812918	1.53	2005-08-01 16:48:01.0	Ventana	34.205	00:16:21:16	8.557	V2696-01
 	ascend	Copepoda	745.78	2681	 	36.69875	-122.05571	1717540	0.27	2005-07-07 20:14:47.3	Ventana	34.447	03:43:48:13	4.815	V2681-04
 	transect	Pennatulacea sp.1	602.27	2680	 	36.787758	-122.231964	1805933	0.36	2005-06-27 19:53:10.0	Ventana	34.378	02:31:48:00	5.591	V2680-03
 	transect	Psolus squamatus	 	2687	 	 	 	1807691	 	2005-07-13 17:22:57.0	Ventana	 	00:49:49:29	 	V2687-01
 	cruise	Sebastolobus	527.84	2688	 	36.798893	-122.019356	1677462	0.62	2005-07-14 17:03:54.0	Ventana	34.331	00:50:12:08	6.273	V2688-01
 	transect	Mesomyaria	999.86	2669	 	36.731014	-122.23251	1683764	0.45	2005-05-25 18:33:49.0	Ventana	34.521	00:56:15:09	3.915	V2669-01
 	transect	Appendicularia	300.46	2681	 	36.6979	-122.05328	2492111	1.23	2005-07-07 17:21:53.0	Ventana	34.233	00:52:59:20	7.4	V2681-01HD
 	cruise	Poralia	1016.42	2689	http://search.mbari.org/ARCHIVE/frameGrabs/Ventana/images/2689/00_18_02_26.jpg	36.77158	-122.08293	20005346	0.51	2005-07-18 16:54:59.0	Ventana	34.533	00:18:02:26	3.839	V2689-01
 	ascend	Calycophorae	301.86	2681	 	36.699696	-122.05525	1718185	1.33	2005-07-07 20:59:08.933	Ventana	34.226	04:27:29:13	7.648	V2681-05
 	cruise	Pasiphaea	352.2	2688	 	36.807686	-122.01998	1677808	1.16	2005-07-14 18:03:30.0	Ventana	34.238	01:49:12:18	7.387	V2688-02
 	descend	Copepoda	787.84	2682	 	36.698402	-122.05972	1721678	0.33	2005-07-08 18:35:20.0	Ventana	34.462	02:28:23:24	4.637	V2682-03
 	transect	Ceriantharia sp. 2	999.51	2669	 	36.730583	-122.2291	1683358	0.45	2005-05-25 18:07:36.0	Ventana	34.522	00:30:04:09	3.908	V2669-01
 	descend	Appendicularia	504.65	2683	 	36.701443	-122.04917	1756851	0.68	2005-07-11 17:39:27.0	Ventana	34.306	01:23:33:25	6.467	V2683-02
 	transect	Sergestes similis	300.42	2681	 	36.6966	-122.05219	2492517	1.23	2005-07-07 17:26:16.0	Ventana	34.233	00:57:23:11	7.398	V2681-01HD
 	stationary	mud	 	2669	 	 	 	1737691	 	2005-05-25 13:57:52.0	Ventana	 	03:18:39:17	 	V2669-04
 	transect	Nanomia bijuga	200.44	2681	 	36.69828	-122.05329	2490714	1.71	2005-07-07 17:08:27.0	Ventana	34.193	00:39:34:10	8.323	V2681-01HD
 	descend	Sergestes similis	285.54	2681	 	36.69857	-122.053696	1713618	1.34	2005-07-07 17:17:18.533	Ventana	34.223	00:48:26:21	7.637	V2681-01
 	transect	Euphausia	200.41	2681	 	36.698303	-122.05337	2491143	1.68	2005-07-07 17:12:16.0	Ventana	34.198	00:43:23:20	8.337	V2681-01HD
 	transect	Mesomyaria	999.62	2669	 	36.73136	-122.23762	1687511	0.44	2005-05-25 19:11:31.0	Ventana	34.52	01:33:30:15	3.949	V2669-02
 	descend	Myctophidae	572.47	2682	 	36.698643	-122.059814	1720926	0.33	2005-07-08 18:06:34.0	Ventana	34.376	02:00:03:22	5.591	V2682-02
 	stationary	mud	 	2673	 	 	 	1668351	 	 	Ventana	 	00:15:46:12	 	V2673-01
 	transect	Mediaster	 	2687	 	 	 	1812604	 	2005-07-13 20:46:48.0	Ventana	 	04:11:18:19	 	V2687-05
 	transect	Rathbunaster californicus	198.22	2696	 	36.8036	-122.1242	1813241	1.54	2005-08-01 17:24:45.0	Ventana	34.2	00:53:02:03	8.611	V2696-01
 	transect	Mesomyaria	999.16	2669	 	36.7311	-122.23399	1684018	0.45	2005-05-25 18:41:57.0	Ventana	34.523	01:03:58:08	3.912	V2669-02
 	transect	Phyllospadix	801.27	2674	 	36.752277	-122.20723	1800037	0.37	2005-06-08 18:05:57.0	Ventana	34.495	00:50:29:04	4.36	V2674-01
 	transect	Neptunea amianta	801.15	2674	 	36.75213	-122.20824	1800729	0.35	2005-06-08 18:10:49.0	Ventana	34.49	00:55:20:10	4.32	V2674-01
 	transect	Psolus squamatus	399.84	2687	http://search.mbari.org/ARCHIVE/frameGrabs/Ventana/images/2687/01_02_17_21.jpg	36.788036	-122.12153	1809103	1.13	2005-07-13 17:35:55.0	Ventana	34.244	01:02:17:21	7.27	V2687-02
 	transect	Mesomyaria	997.39	2669	 	36.7306	-122.227905	1649251	0.45	2005-05-25 18:00:09.0	Ventana	34.521	00:22:37:23	3.907	V2669-01
 	transect	Phyllospadix	800.24	2674	 	36.751728	-122.21167	1801135	0.35	2005-06-08 18:26:39.0	Ventana	34.491	01:10:43:09	4.336	V2674-02
 	transect	Psolus squamatus	 	2687	 	 	 	1808697	 	2005-07-13 17:27:24.0	Ventana	 	00:54:16:17	 	V2687-01
 	descend	Appendicularia	322.77	2683	 	36.701176	-122.050095	1756528	1.22	2005-07-11 16:54:58.0	Ventana	34.241	00:42:39:06	7.516	V2683-01
 	transect	physical object	 	2687	http://search.mbari.org/ARCHIVE/frameGrabs/Ventana/images/2687/03_40_03_15.jpg	 	 	1811506	 	2005-07-13 20:15:04.0	Ventana	 	03:40:03:15	 	V2687-04
 	transect	Rathbunaster californicus	203.25	2696	 	36.805256	-122.1282	1813670	1.48	2005-08-01 18:13:51.0	Ventana	34.214	01:41:42:09	8.623	V2696-02
 	transect	Mesomyaria	999.54	2669	 	36.731266	-122.23587	1684424	0.44	2005-05-25 18:56:32.0	Ventana	34.52	01:18:31:26	3.932	V2669-02
 	transect	Ophiuroidea	1000.33	2669	 	36.731453	-122.2421	1694458	0.4	2005-05-25 19:40:00.0	Ventana	34.509	02:01:57:00	4.076	V2669-02
 	transect	Porifera sp. 1	 	2687	 	 	 	1807031	 	2005-07-13 16:55:13.0	Ventana	 	00:22:07:25	 	V2687-01
 	transect	Appendicularia	400.77	2681	 	36.69725	-122.052895	2493117	0.79	2005-07-07 17:47:18.0	Ventana	34.278	01:17:42:07	6.663	V2681-02HD
 	descend	Chuniphyes	535.68	2683	 	36.701557	-122.04914	1756934	0.54	2005-07-11 17:43:14.0	Ventana	34.326	01:27:21:18	6.207	V2683-02
 	transect	Glyptocephalus zachirus	 	2687	 	 	 	1809795	 	2005-07-13 18:40:57.0	Ventana	 	02:06:43:03	 	V2687-03
 	transect	Ophiuroidea	998.48	2669	 	36.731125	-122.230736	1683418	0.45	2005-05-25 18:20:24.0	Ventana	34.523	00:42:51:01	3.914	V2669-01
 	transect	Ophiuroidea	999.63	2669	 	36.7305	-122.228806	1650926	0.45	2005-05-25 18:05:23.0	Ventana	34.522	00:27:50:23	3.906	V2669-01
 	transect	Mediaster	400.29	2687	http://search.mbari.org/ARCHIVE/frameGrabs/Ventana/images/2687/01_36_29_23.jpg	36.789017	-122.12386	1809509	1.17	2005-07-13 18:10:09.0	Ventana	34.235	01:36:29:23	7.355	V2687-02
 	transect	Euphausia	200.44	2681	 	36.69828	-122.0533	2490797	1.72	2005-07-07 17:08:53.0	Ventana	34.193	00:40:02:01	8.323	V2681-01HD
 	transect	Mesomyaria	999.2	2669	 	36.731007	-122.232	1683704	0.45	2005-05-25 18:30:04.0	Ventana	34.52	00:52:29:26	3.913	V2669-01
 	transect	Mesomyaria	1000.88	2669	 	36.732292	-122.24918	1736279	0.41	2005-05-25 20:27:05.0	Ventana	34.51	02:48:32:09	4.069	V2669-03
 	transect	Phyllospadix	999.99	2669	 	36.73118	-122.240395	1689254	0.41	2005-05-25 19:29:56.0	Ventana	34.51	01:51:53:24	4.06	V2669-02
 	cruise	Parastichopus	378.87	2676	http://search.mbari.org/ARCHIVE/frameGrabs/Ventana/images/2676/00_29_30_18.jpg	36.8044	-122.02916	1676471	0.94	2005-06-14 16:45:24.0	Ventana	34.269	00:29:30:18	7.032	V2676-01
 	descend	Copepoda	877.9	2682	 	36.698284	-122.05944	1721761	0.33	2005-07-08 18:50:05.0	Ventana	34.492	02:43:07:23	4.346	V2682-03
 	descend	Chuniphyes	818.97	2683	 	36.70272	-122.04862	1757197	0.31	2005-07-11 18:16:08.0	Ventana	34.476	02:00:12:19	4.482	V2683-02
 	ascend	Nanomia	436.88	2681	 	36.699066	-122.054184	1717779	0.65	2005-07-07 20:37:33.22	Ventana	34.302	04:06:32:29	6.483	V2681-04
 	ascend	Nanomia	259.32	2681	 	36.699417	-122.054535	1718591	1.42	2005-07-07 21:13:00.3	Ventana	34.232	04:41:20:13	7.968	V2681-05
 	cruise	Chionoecetes tanneri	1221.83	2683	 	36.706184	-122.04769	1757594	0.72	2005-07-11 20:01:48.0	Ventana	34.575	03:36:11:21	3.344	V2683-04
 	transect	Rathbunaster californicus	200.53	2696	 	36.80522	-122.12813	1813587	1.5	2005-08-01 18:01:49.0	Ventana	34.211	01:29:41:05	8.671	V2696-02
 	transect	Nanomia bijuga	200.37	2681	 	36.69828	-122.05329	2490045	1.69	2005-07-07 17:04:20.0	Ventana	34.194	00:35:27:11	8.359	V2681-01HD
 	ascend	marine snow	 	2673	 	 	 	1668411	 	 	Ventana	 	00:35:38:28	 	V2673-01
 	transect	Sebastes diploproa	 	2687	 	 	 	1810455	 	2005-07-13 19:18:30.0	Ventana	 	02:44:14:20	 	V2687-03
 	cruise	Appendicularia	1188.27	2682	 	36.698338	-122.057526	1722421	0.67	2005-07-08 19:52:28.0	Ventana	34.573	03:45:03:02	3.401	V2682-04
 	transect	Mesomyaria	1000.06	2669	 	36.731697	-122.24367	1733867	0.41	2005-05-25 19:48:05.0	Ventana	34.508	02:09:36:16	4.069	V2669-03
 	transect	Neptunea amianta	800.36	2674	 	36.752537	-122.20343	1799332	0.35	2005-06-08 17:45:57.0	Ventana	34.483	00:30:29:27	4.371	V2674-01
 	descend	Hormiphora	249.45	2683	 	36.700924	-122.05057	1756445	1.67	2005-07-11 16:50:34.0	Ventana	34.193	00:38:14:04	8.037	V2683-01
 	descend	Euphausiacea	369.27	2693	 	36.696445	-122.06046	1758609	1.2	2005-07-25 20:13:10.0	Ventana	34.233	02:52:44:11	7.169	V2693-03
 	transect	Mesomyaria	800.05	2674	 	36.752445	-122.2049	1799678	0.35	2005-06-08 17:53:59.0	Ventana	34.487	00:38:31:28	4.356	V2674-01
 	descend	Appendicularia	1011.6	2682	 	36.698303	-122.059235	1722024	0.45	2005-07-08 18:59:28.0	Ventana	34.525	02:52:28:24	3.951	V2682-03
 	descend	Appendicularia	217.14	2693	 	36.696136	-122.05819	1758346	1.69	2005-07-25 18:28:09.0	Ventana	34.195	01:08:13:17	8.607	V2693-02
 	transect	Sebastes diploproa	 	2687	 	 	 	1810921	 	2005-07-13 19:42:48.0	Ventana	 	03:07:49:26	 	V2687-04
 	ascend	Appendicularia	506.01	2682	 	36.698353	-122.0632	1723675	0.48	2005-07-08 21:13:28.0	Ventana	34.335	05:05:09:14	6.137	V2682-06
 	transect	Mediaster	 	2687	 	 	 	1809855	 	2005-07-13 18:46:41.0	Ventana	 	02:12:27:03	 	V2687-03
 	transect	Mediaster	 	2687	 	 	 	1811207	 	2005-07-13 20:01:59.0	Ventana	 	03:26:58:29	 	V2687-04
 	ascend	Chaetognatha	367.64	2693	 	36.694695	-122.06101	1758848	1.24	2005-07-25 21:00:03.0	Ventana	34.234	03:24:35:18	7.344	V2693-04
 	transect	Salpida	400.75	2681	 	36.69759	-122.05329	2493177	0.79	2005-07-07 17:48:47.0	Ventana	34.277	01:19:10:20	6.658	V2681-02HD
 	descend	Lobata	246.7	2685	 	36.793465	-121.882774	1669763	1.57	2005-07-12 20:15:45.0	Ventana	34.16	00:13:20:02	8.175	V2685-01
 	transect	Allocentrotus fragilis	 	2687	 	 	 	1808757	 	2005-07-13 17:28:47.0	Ventana	 	00:55:39:28	 	V2687-01
 	descend	Copepoda	1183.37	2682	 	36.69825	-122.05786	1722338	0.66	2005-07-08 19:40:48.0	Ventana	34.569	03:33:25:07	3.413	V2682-04
 	transect	Stomphia	799.82	2674	 	36.752514	-122.20392	1799415	0.35	2005-06-08 17:48:36.0	Ventana	34.487	00:33:08:26	4.388	V2674-01
 	transect	Rathbunaster californicus	199.61	2696	 	36.803852	-122.12523	1813324	1.52	2005-08-01 17:34:57.0	Ventana	34.207	01:02:51:13	8.635	V2696-02
 	transect	Sebastes diploproa	399.84	2687	 	36.78803	-122.12142	1809043	1.15	2005-07-13 17:34:52.0	Ventana	34.239	01:01:14:15	7.299	V2687-02
 	transect	Haliscera	700.65	2681	 	36.69628	-122.0522	2497744	0.28	2005-07-07 18:42:39.0	Ventana	34.434	02:12:22:01	4.955	V2681-03HD
 	descend	physical object	207.36	2686	http://search.mbari.org/ARCHIVE/frameGrabs/Ventana/images/2686/01_14_28_29.jpg	36.79371	-121.88108	20005032	1.61	2005-07-12 22:07:20.0	Ventana	34.147	01:14:28:29	8.263	V2686-02
 	transect	Stomphia	599.14	2680	 	36.779118	-122.22425	1804476	0.36	2005-06-27 18:06:36.0	Ventana	34.378	00:46:42:10	5.599	V2680-01
 	transect	Mesomyaria	1000.15	2669	 	36.731762	-122.2449	1734476	0.4	2005-05-25 19:55:45.0	Ventana	34.508	02:17:15:29	4.072	V2669-03
 	transect	Mesomyaria	1000.12	2669	 	36.730637	-122.229256	1651069	0.45	2005-05-25 18:08:36.0	Ventana	34.522	00:31:03:23	3.906	V2669-01
 	descend	Appendicularia	495.61	2683	 	36.701473	-122.049385	1756791	0.7	2005-07-11 17:25:13.0	Ventana	34.3	01:09:20:14	6.502	V2683-02
 	transect	Neptunea amianta	801.4	2674	 	36.752193	-122.20791	1800120	0.35	2005-06-08 18:09:11.0	Ventana	34.49	00:53:42:13	4.329	V2674-01
 	descend	Nanomia	201.4	2681	 	36.69844	-122.053505	1713558	1.66	2005-07-07 17:14:25.0	Ventana	34.203	00:45:32:10	8.344	V2681-01
 	transect	Mediaster	 	2687	 	 	 	1812521	 	2005-07-13 20:43:35.0	Ventana	 	04:08:05:27	 	V2687-05
 	transect	Phyllospadix	204.08	2696	 	36.806046	-122.12959	1813730	1.49	2005-08-01 18:21:40.0	Ventana	34.211	01:49:31:22	8.629	V2696-02
 	descend	Myctophidae	424.51	2681	 	36.698074	-122.05382	1715316	0.67	2005-07-07 17:51:24.1	Ventana	34.297	01:21:46:17	6.458	V2681-02
 	transect	Mesomyaria	 	2669	 	 	 	1737631	 	2005-05-25 13:53:56.0	Ventana	 	03:14:43:17	 	V2669-04
 	descend	main-camera	332.12	2693	 	36.69714	-122.060196	1758549	1.29	2005-07-25 19:55:45.0	Ventana	34.236	02:35:19:12	7.58	V2693-03
 	transect	Neptunea amianta	598.27	2680	 	36.781597	-122.22672	1805025	0.36	2005-06-27 18:38:45.0	Ventana	34.378	01:17:51:04	5.604	V2680-02
 	transect	Mesomyaria	1000.63	2669	 	36.73231	-122.249435	1736422	0.41	2005-05-25 20:29:00.0	Ventana	34.51	02:50:28:23	4.07	V2669-03
 	transect	cydippida	200.45	2681	 	36.69828	-122.05329	2490105	1.7	2005-07-07 17:04:46.0	Ventana	34.197	00:35:53:23	8.36	V2681-01HD
 	transect	Mesomyaria	999.44	2669	 	36.73133	-122.23592	1684484	0.44	2005-05-25 18:57:06.0	Ventana	34.52	01:19:05:22	3.936	V2669-02
 	descend	Appendicularia	891.0	2683	 	36.70324	-122.04833	1757248	0.36	2005-07-11 18:31:23.0	Ventana	34.494	02:11:47:04	4.282	V2683-03
 	transect	Mediaster	 	2687	 	 	 	1806971	 	2005-07-13 16:51:31.0	Ventana	 	00:18:26:13	 	V2687-01
 	transect	Phyllospadix	800.74	2674	 	36.75199	-122.20917	1800872	0.35	2005-06-08 18:15:15.0	Ventana	34.49	00:59:46:04	4.322	V2674-01
 	transect	Mediaster	 	2687	 	 	 	1811769	 	2005-07-13 20:24:55.0	Ventana	 	03:49:53:03	 	V2687-04
 	transect	Phyllospadix	602.35	2680	 	36.790382	-122.23272	1806768	0.35	2005-06-27 20:19:00.0	Ventana	34.379	02:57:37:06	5.588	V2680-03
 	endtransect	physical object	599.28	2680	 	36.786285	-122.23096	1805873	0.36	2005-06-27 19:36:31.0	Ventana	34.378	02:15:10:23	5.598	V2680-03
 	transect	Sebastolobus	 	2687	 	 	 	1812318	 	2005-07-13 20:32:07.0	Ventana	 	03:57:05:08	 	V2687-04
 	cruise	Gorgonocephalus	93.79	2688	 	36.81429	-122.01865	1679483	1.93	2005-07-14 21:12:25.187	Ventana	34.101	04:56:38:20	8.906	V2688-05
 	transect	Ophiuroidea	999.68	2669	 	36.731396	-122.23709	1687451	0.44	2005-05-25 19:07:20.0	Ventana	34.521	01:29:19:22	3.946	V2669-02
 	descend	Poeobius meseres	1090.55	2682	 	36.698257	-122.059166	1722075	0.54	2005-07-08 19:06:44.0	Ventana	34.545	02:59:45:27	3.68	V2682-03
 	transect	Solidosagitta zetesios	300.41	2681	 	36.695805	-122.051414	2492600	1.24	2005-07-07 17:29:21.0	Ventana	34.232	01:00:28:07	7.431	V2681-01HD
 	transect	phialidium	1000.93	2681	 	36.696465	-122.052826	2498699	0.47	2005-07-07 19:29:39.0	Ventana	34.531	02:59:18:20	3.877	V2681-03HD
 	transect	Phyllospadix	1000.56	2669	 	36.73218	-122.24847	1736219	0.41	2005-05-25 20:22:14.0	Ventana	34.51	02:43:43:09	4.06	V2669-03
 	transect	Nanomia bijuga	200.4	2681	 	36.698284	-122.053314	2491000	1.71	2005-07-07 17:10:35.0	Ventana	34.187	00:41:44:07	8.319	V2681-01HD
 	transect	Chionoecetes tanneri	998.48	2669	 	36.73097	-122.23027	1651272	0.45	2005-05-25 18:16:20.0	Ventana	34.523	00:38:47:05	3.908	V2669-01
 	descend	Appendicularia	583.37	2683	 	36.70191	-122.04911	1756994	0.36	2005-07-11 17:47:56.0	Ventana	34.366	01:32:01:23	5.859	V2683-02
 	transect	Nanomia bijuga	200.44	2681	 	36.69828	-122.0533	2490857	1.71	2005-07-07 17:09:15.0	Ventana	34.195	00:40:23:27	8.326	V2681-01HD
 	transect	Stomphia	999.66	2669	 	36.731064	-122.23519	1684281	0.45	2005-05-25 18:51:47.0	Ventana	34.521	01:13:47:15	3.921	V2669-02
 	descend	Hastigerinella digitata	375.25	2682	 	36.69845	-122.059975	1720663	0.95	2005-07-08 17:34:50.0	Ventana	34.262	01:28:20:10	6.993	V2682-02
 	transect	Doryteuthis opalescens	100.47	2681	 	36.699516	-122.05409	2489791	2.13	2005-07-07 16:50:48.0	Ventana	34.066	00:21:56:09	9.148	V2681-01HD
 	cruise	Laminariales	516.02	2688	 	36.80063	-122.01901	1677522	0.68	2005-07-14 17:18:46.0	Ventana	34.311	01:05:03:15	6.412	V2688-01
 	descend	Appendicularia	1182.66	2682	 	36.698444	-122.058235	1722278	0.66	2005-07-08 19:38:01.0	Ventana	34.569	03:30:37:18	3.412	V2682-04
 	transect	Halipteris californica	599.8	2680	 	36.78334	-122.22876	1805371	0.35	2005-06-27 19:06:13.0	Ventana	34.379	01:45:17:03	5.587	V2680-02
 	transect	Calycophorae	700.6	2681	 	36.695305	-122.05108	2497947	0.28	2005-07-07 18:47:06.0	Ventana	34.432	02:16:48:25	4.999	V2681-03HD
 	transect	Psolus squamatus	 	2687	 	 	 	1807631	 	2005-07-13 17:18:55.0	Ventana	 	00:45:48:04	 	V2687-01
 	transect	Allocentrotus fragilis	 	2687	 	 	 	1810169	 	2005-07-13 19:04:24.0	Ventana	 	02:30:08:27	 	V2687-03
 	transect	Ceriantharia sp. 2	997.86	2669	 	36.7306	-122.22718	1649108	0.45	2005-05-25 17:55:25.0	Ventana	34.521	00:17:54:01	3.91	V2669-01
 	transect	Mesomyaria	800.87	2674	 	36.752533	-122.201614	1799069	0.34	2005-06-08 17:36:29.0	Ventana	34.487	00:21:03:13	4.415	V2674-01
 	transect	Rathbunaster californicus	199.4	2696	 	36.80416	-122.1259	1813384	1.53	2005-08-01 17:41:51.0	Ventana	34.206	01:09:44:20	8.663	V2696-02
 	transect	Acanthamunnopsis milleri	200.46	2681	 	36.69828	-122.05329	2490308	1.69	2005-07-07 17:06:44.0	Ventana	34.199	00:37:52:15	8.355	V2681-01HD
 	ascend	Aegina	772.09	2681	 	36.69866	-122.05631	1717480	0.29	2005-07-07 20:08:21.7	Ventana	34.452	03:37:23:07	4.757	V2681-04
 	descend	Caecosagitta macrocephala	1087.04	2683	 	36.705112	-122.04891	1757451	0.53	2005-07-11 19:28:18.0	Ventana	34.536	03:08:38:10	3.779	V2683-03
 	transect	Phyllospadix	599.74	2680	 	36.777363	-122.22253	1804273	0.36	2005-06-27 17:45:35.0	Ventana	34.379	00:25:42:14	5.582	V2680-01
 	transect	Phyllospadix	199.82	2696	 	36.804802	-122.12736	1813527	1.51	2005-08-01 17:56:39.0	Ventana	34.211	01:24:32:08	8.677	V2696-02
 	transect	Mediaster	 	2687	 	 	 	1810718	 	2005-07-13 19:29:31.0	Ventana	 	02:55:14:19	 	V2687-03
 	ascend	Copepoda	650.39	2682	 	36.69889	-122.05963	1723376	0.29	2005-07-08 20:35:49.0	Ventana	34.392	04:27:56:15	5.342	V2682-05
 	ascend	Chuniphyes	473.01	2683	 	36.704323	-122.05057	1758000	0.72	2005-07-11 21:17:21.0	Ventana	34.296	04:50:13:12	6.569	V2683-05
 	transect	Halipteris californica	598.44	2680	 	36.78087	-122.22584	1804822	0.35	2005-06-27 18:28:19.0	Ventana	34.38	01:07:25:20	5.572	V2680-02
 	transect	Calliostoma platinum	 	2687	 	 	 	1807082	 	2005-07-13 16:58:24.0	Ventana	 	00:25:18:05	 	V2687-01
 	cruise	Actiniaria	286.23	2688	http://search.mbari.org/ARCHIVE/frameGrabs/Ventana/images/2688/02_01_01_29.jpg	36.808945	-122.02033	1677868	1.4	2005-07-14 18:15:20.0	Ventana	34.211	02:01:01:29	7.935	V2688-02
 	transect	Mesomyaria	998.1	2669	 	36.733006	-122.25276	1737488	0.4	2005-05-25 20:49:23.0	Ventana	34.508	03:10:11:02	4.075	V2669-04
 	transect	Phyllospadix	802.27	2674	 	36.752243	-122.20679	1799977	0.37	2005-06-08 18:03:44.0	Ventana	34.49	00:48:16:15	4.323	V2674-01
 	transect	Allocentrotus fragilis	 	2687	 	 	 	1811267	 	2005-07-13 20:05:30.0	Ventana	 	03:30:29:27	 	V2687-04
 	transect	myctophidae	300.44	2681	 	36.696823	-122.052376	2492457	1.23	2005-07-07 17:25:30.0	Ventana	34.234	00:56:37:29	7.391	V2681-01HD
 	ascend	Appendicularia	858.11	2682	 	36.698563	-122.058464	1723233	0.32	2005-07-08 20:19:06.0	Ventana	34.486	04:11:15:15	4.371	V2682-05
 	ascend	Appendicularia	727.38	2683	 	36.70607	-122.04865	1757857	0.3	2005-07-11 21:04:31.0	Ventana	34.454	04:37:22:18	4.724	V2683-05
 	descend	Prayidae	257.78	2693	 	36.698376	-122.06164	1758406	1.41	2005-07-25 19:25:46.0	Ventana	34.246	02:05:47:09	8.281	V2693-02
 	transect	Phyllospadix	599.95	2680	 	36.778675	-122.223885	1804416	0.36	2005-06-27 18:02:08.0	Ventana	34.379	00:42:14:21	5.583	V2680-01
 	transect	molt	100.55	2681	 	36.69983	-122.05429	2489588	2.12	2005-07-07 16:45:34.0	Ventana	34.068	00:16:44:05	9.151	V2681-01HD
 	descend	Copepoda	257.88	2682	 	36.699795	-122.06083	1720003	1.38	2005-07-08 16:26:07.0	Ventana	34.23	00:20:12:05	7.87	V2682-01
 	ascend	Leuroglossus stilbius	311.44	2694	 	36.784973	-122.20067	1676770	1.26	2005-07-27 21:07:23.0	Ventana	34.284	03:38:43:19	8.619	V2694-04
 	ascend	Crustacea	370.97	2693	 	36.69657	-122.06061	1758705	1.2	2005-07-25 20:29:57.0	Ventana	34.233	03:09:29:27	7.177	V2693-03
 	transect	Sebastolobus altivelis	805.89	2674	 	36.750393	-122.221756	1803756	0.34	2005-06-08 19:17:09.0	Ventana	34.486	02:01:10:12	4.405	V2674-02
 	descend	Appendicularia	365.99	2682	 	36.69854	-122.06031	1720349	0.99	2005-07-08 17:26:58.0	Ventana	34.257	01:20:29:27	7.07	V2682-02
 	descend	Copepoda	773.81	2683	 	36.702488	-122.04888	1757137	0.33	2005-07-11 17:58:55.0	Ventana	34.454	01:43:00:16	4.726	V2683-02
 	ascend	Appendicularia	163.44	2693	 	36.69067	-122.06298	1759254	1.95	2005-07-25 21:30:48.0	Ventana	34.119	03:55:20:03	8.93	V2693-04
 	transect	Mediaster	 	2687	 	 	 	1812664	 	2005-07-13 20:50:14.0	Ventana	 	04:14:44:12	 	V2687-05
 	descend	Hormiphora	158.14	2693	 	36.69628	-122.05774	1758203	1.99	2005-07-25 17:57:24.0	Ventana	34.118	00:37:55:18	8.961	V2693-01
 	transect	Psolus squamatus	 	2687	 	 	 	1811064	 	2005-07-13 19:50:45.0	Ventana	 	03:15:46:13	 	V2687-04
 	ascend	Copepoda	604.78	2682	 	36.698624	-122.0617	1723532	0.33	2005-07-08 20:57:35.0	Ventana	34.374	04:49:42:05	5.619	V2682-05
 	transect	Mesomyaria	800.06	2674	 	36.752445	-122.205345	1799774	0.35	2005-06-08 17:56:37.0	Ventana	34.486	00:41:09:12	4.355	V2674-01
 	descend	Calycophorae	505.98	2681	 	36.695732	-122.05115	1715519	0.43	2005-07-07 18:04:50.677	Ventana	34.347	01:35:12:10	6.007	V2681-02
 	descend	Haliscera	 	2693	 	 	 	1759457	 	2005-07-25 16:46:00.0	Ventana	 	00:24:33:24	 	V2693-01
 	descend	Appendicularia	368.46	2683	 	36.70139	-122.04983	1756588	1.12	2005-07-11 16:57:33.0	Ventana	34.236	00:45:12:20	7.099	V2683-01
 	transect	Psolus squamatus	 	2687	 	 	 	1810515	 	2005-07-13 19:21:26.0	Ventana	 	02:47:10:06	 	V2687-03
 	transect	Lycenchelys camchatica	798.93	2674	 	36.75141	-122.214874	1801389	0.35	2005-06-08 18:43:38.0	Ventana	34.49	01:27:41:29	4.336	V2674-02
 	transect	Psolus squamatus	 	2687	 	 	 	1808900	 	2005-07-13 17:31:31.0	Ventana	 	00:58:23:22	 	V2687-01
 	ascend	Appendicularia	904.63	2681	 	36.69795	-122.05467	1717134	0.37	2005-07-07 19:48:10.533	Ventana	34.505	03:17:13:10	4.203	V2681-04
 	descend	Copepoda	679.68	2682	 	36.69866	-122.05995	1721415	0.28	2005-07-08 18:12:38.0	Ventana	34.414	02:05:42:04	5.175	V2682-03
 	transect	Pannychia moseleyi	598.85	2680	 	36.780235	-122.225266	1804619	0.35	2005-06-27 18:20:27.0	Ventana	34.379	01:00:32:08	5.572	V2680-01
 	transect	Phyllospadix	800.56	2674	 	36.752506	-122.20303	1799272	0.35	2005-06-08 17:43:37.0	Ventana	34.489	00:28:10:02	4.386	V2674-01
 	transect	Phyllospadix	801.22	2674	 	36.75175	-122.211044	1801075	0.35	2005-06-08 18:24:17.0	Ventana	34.49	01:08:21:14	4.338	V2674-02
 	transect	Calliostoma platinum	 	2687	 	 	 	1807285	 	2005-07-13 17:05:01.0	Ventana	 	00:31:55:03	 	V2687-01
 	transect	phialidium	500.58	2681	 	36.697735	-122.053505	2493320	0.44	2005-07-07 17:55:49.0	Ventana	34.346	01:26:12:22	6.021	V2681-02HD
 	transect	Ceriantharia sp. 2	998.8	2669	 	36.73116	-122.23419	1684078	0.45	2005-05-25 18:43:07.0	Ventana	34.52	01:05:07:20	3.919	V2669-02
 	transect	Brisaster	999.83	2669	 	36.73129	-122.23808	1688359	0.43	2005-05-25 19:15:22.0	Ventana	34.518	01:37:20:24	3.959	V2669-02
 	transect	Mesomyaria	598.44	2680	 	36.78243	-122.2276	1805168	0.35	2005-06-27 18:50:21.0	Ventana	34.378	01:29:25:26	5.583	V2680-02
 	ascend	Calycophorae	979.24	2681	 	36.6969	-122.053345	1716585	0.44	2005-07-07 19:35:45.72	Ventana	34.522	03:05:26:17	3.99	V2681-03
 	transect	Phyllospadix	196.85	2696	 	36.803364	-122.12346	1813181	1.54	2005-08-01 17:16:14.0	Ventana	34.2	00:44:31:20	8.624	V2696-01
 	cruise	Osteichthyes	998.3	2689	 	36.771416	-122.08274	1669620	0.54	2005-07-18 16:39:22.0	Ventana	34.526	00:02:26:29	3.938	V2689-01
 	descend	Dosidicus gigas	526.15	2682	 	36.6986	-122.059784	1720866	0.39	2005-07-08 18:02:20.0	Ventana	34.359	01:55:48:19	5.848	V2682-02
 	cruise	Pleuronectiformes	1209.99	2683	 	36.706795	-122.04761	1757654	0.72	2005-07-11 20:13:21.0	Ventana	34.574	03:47:44:19	3.351	V2683-04
 	transect	Calycophorae	700.62	2681	 	36.695923	-122.05179	2497841	0.29	2005-07-07 18:44:14.0	Ventana	34.438	02:13:56:09	4.937	V2681-03HD
 	transect	Glyptocephalus zachirus	399.69	2687	 	36.789253	-122.12459	1809583	1.16	2005-07-13 18:21:35.0	Ventana	34.239	01:47:54:26	7.335	V2687-02
 	transect	Lycenchelys camchatica	802.36	2674	 	36.75232	-122.20575	1799834	0.36	2005-06-08 17:58:45.0	Ventana	34.489	00:43:17:22	4.333	V2674-01
 	transect	Gastropoda sp.2	999.53	2669	 	36.731026	-122.23387	1694638	0.45	2005-05-25 18:41:05.0	Ventana	34.522	01:03:06:06	3.913	V2669-02
 	transect	Brisaster	999.67	2669	 	36.731064	-122.23521	1684290	0.45	2005-05-25 18:52:14.0	Ventana	34.521	01:14:14:21	3.921	V2669-02
 	transect	Nanomia bijuga	200.41	2681	 	36.698284	-122.05331	2490963	1.7	2005-07-07 17:10:13.0	Ventana	34.194	00:41:22:03	8.329	V2681-01HD
 	transect	Rathbunaster californicus	200.39	2696	 	36.804733	-122.12721	1813513	1.51	2005-08-01 17:55:05.0	Ventana	34.211	01:22:58:05	8.67	V2696-02
 	transect	Pseudosagitta maxima	1001.07	2681	 	36.69476	-122.05056	2498547	0.47	2005-07-07 19:21:21.0	Ventana	34.532	02:51:00:26	3.869	V2681-03HD
 	ascend	Copepoda	862.35	2681	 	36.698483	-122.05557	1717360	0.34	2005-07-07 19:53:41.633	Ventana	34.497	03:22:44:18	4.32	V2681-04
 	transect	Stomphia	800.88	2674	 	36.752514	-122.20268	1799235	0.35	2005-06-08 17:42:04.0	Ventana	34.487	00:26:37:16	4.377	V2674-01
 	transect	Umbellula lindahli	598.54	2680	 	36.78232	-122.227455	1805131	0.35	2005-06-27 18:48:27.0	Ventana	34.379	01:27:32:14	5.582	V2680-02
 	transect	Mediaster	 	2687	http://search.mbari.org/ARCHIVE/frameGrabs/Ventana/images/2687/02_54_32_28.jpg	 	 	1810704	 	2005-07-13 19:28:49.0	Ventana	 	02:54:32:28	 	V2687-03
 	transect	molt	100.5	2681	 	36.69912	-122.05383	2489842	2.13	2005-07-07 16:51:40.0	Ventana	34.069	00:22:49:19	9.146	V2681-01HD
 	transect	Phyllospadix	1000.06	2669	 	36.73108	-122.238754	1689065	0.43	2005-05-25 19:19:48.0	Ventana	34.518	01:41:46:16	3.968	V2669-02
 	transect	Mesomyaria	1000.24	2669	 	36.73139	-122.24177	1689863	0.4	2005-05-25 19:38:18.0	Ventana	34.508	02:00:15:03	4.076	V2669-02
 	descend	Appendicularia	574.32	2683	 	36.701878	-122.0491	1756985	0.39	2005-07-11 17:47:03.0	Ventana	34.357	01:31:08:29	5.908	V2683-02
 	transect	Psolus squamatus	 	2687	 	 	 	1812715	 	2005-07-13 20:54:32.0	Ventana	 	04:19:02:02	 	V2687-05
 	cruise	Actiniaria	381.56	2690	 	36.790127	-121.887184	1670335	0.95	2005-07-18 20:06:47.0	Ventana	34.265	01:21:53:10	6.997	V2690-01
 	transect	Phyllospadix	800.72	2674	 	36.752026	-122.20907	1800863	0.35	2005-06-08 18:14:58.0	Ventana	34.487	00:59:29:09	4.328	V2674-01
 	ascend	Nanomia	258.17	2681	 	36.697838	-122.05522	1719463	 	2005-07-07 21:29:59.0	Ventana	 	05:06:12:28	 	V2681-05
 	cruise	Remote Instrument Node	124.37	2672	http://search.mbari.org/ARCHIVE/frameGrabs/Ventana/images/2672/00_19_28_02.jpg	36.803104	-121.80558	20003823	2.7	2005-06-03 15:00:06.0	Ventana	33.952	00:19:28:02	9.338	V2672-01
 	transect	Mediaster	 	2687	 	 	 	1808877	 	2005-07-13 17:31:01.0	Ventana	 	00:57:53:23	 	V2687-01
 	transect	Pennatula phosphorea californica	602.05	2680	 	36.790928	-122.232864	1806819	0.36	2005-06-27 20:23:49.0	Ventana	34.38	03:02:25:28	5.587	V2680-03
 	transect	Phyllospadix	 	2687	 	 	 	1812392	 	2005-07-13 20:36:25.0	Ventana	 	04:01:23:08	 	V2687-04
 	cruise	Lycodes	464.87	2676	http://search.mbari.org/ARCHIVE/frameGrabs/Ventana/images/2676/00_19_03_03.jpg	36.802628	-122.02937	1676291	0.57	2005-06-14 16:34:55.0	Ventana	34.332	00:19:03:03	6.197	V2676-01
 	transect	Mesomyaria	999.58	2669	 	36.73142	-122.23701	1687437	0.44	2005-05-25 19:06:37.0	Ventana	34.521	01:28:35:29	3.939	V2669-02
 	descend	Poeobius meseres	1197.2	2682	 	36.698452	-122.05855	1722227	0.68	2005-07-08 19:27:46.0	Ventana	34.573	03:20:22:11	3.375	V2682-04
 	transect	Psolus squamatus	 	2687	 	 	 	1811087	 	2005-07-13 19:52:24.0	Ventana	 	03:17:24:28	 	V2687-04
 	transect	Lycodes diapterus	599.86	2680	 	36.78415	-122.22951	1805514	0.36	2005-06-27 19:14:13.0	Ventana	34.375	01:53:17:01	5.608	V2680-02
 	transect	Mysidae 2	800.91	2681	 	36.69553	-122.0514	2498164	0.32	2005-07-07 18:56:11.0	Ventana	34.476	02:25:52:22	4.491	V2681-03HD
 	descend	sinker	601.83	2681	 	36.695683	-122.05109	1715916	0.3	2005-07-07 18:18:01.1	Ventana	34.39	01:48:21:28	5.482	V2681-02
 	descend	Appendicularia	1017.85	2683	 	36.704582	-122.04967	1757400	0.44	2005-07-11 19:23:12.0	Ventana	34.519	03:03:33:05	3.979	V2683-03
 	ascend	Chaetognatha	223.62	2683	 	36.70287	-122.05074	1758106	1.73	2005-07-11 21:28:00.0	Ventana	34.207	05:00:51:26	8.184	V2683-05
 	transect	Hastigerinella digitata	300.44	2681	 	36.69841	-122.053566	2491945	1.25	2005-07-07 17:19:58.0	Ventana	34.234	00:51:06:07	7.43	V2681-01HD
 	descend	Physonectae	457.06	2682	 	36.698498	-122.05954	1720783	0.56	2005-07-08 17:55:04.0	Ventana	34.321	01:48:33:09	6.275	V2682-02
 	transect	Mesomyaria	998.68	2669	 	36.732784	-122.25139	1737211	0.4	2005-05-25 20:41:39.0	Ventana	34.507	03:02:27:09	4.076	V2669-04
 	transect	Mediaster	399.86	2687	 	36.788128	-122.12165	1809260	1.13	2005-07-13 17:37:43.0	Ventana	34.243	01:04:05:15	7.26	V2687-02
 	transect	Appendicularia	200.37	2681	 	36.69832	-122.05343	2491286	1.66	2005-07-07 17:13:24.0	Ventana	34.2	00:44:31:29	8.34	V2681-01HD
 	transect	Umbellula lindahli	598.54	2680	 	36.78072	-122.22572	1804808	0.35	2005-06-27 18:26:42.0	Ventana	34.379	01:05:48:18	5.575	V2680-02
 	descend	Lobata	330.65	2682	 	36.698795	-122.06062	1720169	1.08	2005-07-08 17:10:53.0	Ventana	34.248	01:04:25:10	7.204	V2682-02
 	transect	Phyllospadix	1000.03	2669	 	36.73189	-122.24542	1735384	0.41	2005-05-25 19:59:53.0	Ventana	34.508	02:21:23:11	4.062	V2669-03
 	transect	Sebastes diploproa	 	2687	 	 	 	1810381	 	2005-07-13 19:16:50.0	Ventana	 	02:42:34:16	 	V2687-03
 	transect	Mesomyaria	1000.11	2669	 	36.731007	-122.233116	1683875	0.45	2005-05-25 18:37:35.0	Ventana	34.523	01:00:01:04	3.91	V2669-01
 	transect	Mesomyaria	1000.7	2669	 	36.7323	-122.2494	1736413	0.41	2005-05-25 20:28:50.0	Ventana	34.51	02:50:19:21	4.069	V2669-03
 	transect	Lycenchelys camchatica	800.37	2674	 	36.752598	-122.200294	1774087	0.29	2005-06-08 17:29:28.0	Ventana	34.462	00:14:02:16	4.649	V2674-01
 	transect	Corallimorphus pilatus	 	2687	http://search.mbari.org/ARCHIVE/frameGrabs/Ventana/images/2687/00_44_52_29.jpg	 	 	1807617	 	2005-07-13 17:18:00.0	Ventana	 	00:44:52:29	 	V2687-01
 	descend	Appendicularia	156.88	2683	 	36.700653	-122.05164	1756279	1.69	2005-07-11 16:26:29.0	Ventana	34.175	00:14:10:12	8.806	V2683-01
 	transect	Appendicularia	400.75	2681	 	36.696888	-122.0525	2493066	0.79	2005-07-07 17:45:50.0	Ventana	34.277	01:16:13:14	6.659	V2681-02HD
 	transect	Ceriantharia sp. 1	803.56	2674	 	36.750782	-122.22029	1803687	0.34	2005-06-08 19:07:46.0	Ventana	34.484	01:51:48:11	4.387	V2674-02
 	transect	Mesomyaria	798.39	2674	 	36.751682	-122.21346	1801278	0.35	2005-06-08 18:34:47.0	Ventana	34.488	01:18:51:00	4.353	V2674-02
 	transect	Mediaster	 	2687	 	 	 	1811410	 	2005-07-13 20:11:43.0	Ventana	 	03:36:42:15	 	V2687-04
 	descend	Appendicularia	380.36	2683	 	36.701447	-122.0498	1756602	1.05	2005-07-11 16:58:13.0	Ventana	34.244	00:45:52:26	6.991	V2683-01
 	transect	molt	100.57	2681	 	36.69983	-122.05429	2489519	2.12	2005-07-07 16:43:33.0	Ventana	34.068	00:14:42:21	9.147	V2681-01HD
 	descend	Appendicularia	409.75	2682	 	36.698235	-122.05983	1720723	0.77	2005-07-08 17:38:51.0	Ventana	34.276	01:32:21:14	6.575	V2682-02
 	ascend	Poeobius meseres	564.22	2682	 	36.69828	-122.06253	1723592	0.38	2005-07-08 21:07:20.0	Ventana	34.358	04:59:26:01	5.826	V2682-05
 	descend	equipment	 	2693	 	 	 	1758166	 	2005-07-25 16:22:03.0	Ventana	 	00:00:39:04	 	V2693-01
 	transect	Phyllospadix	799.78	2674	 	36.75176	-122.212166	1801186	0.35	2005-06-08 18:28:51.0	Ventana	34.487	01:12:56:00	4.339	V2674-02
 	ascend	Poeobius meseres	1125.51	2682	 	36.69811	-122.05752	1722550	0.6	2005-07-08 19:57:03.0	Ventana	34.558	03:49:38:14	3.541	V2682-04
 	transect	Phyllospadix	197.09	2696	 	36.803394	-122.1236	1813190	1.55	2005-08-01 17:17:49.0	Ventana	34.198	00:46:06:16	8.623	V2696-01
 	transect	molt	100.49	2681	 	36.699677	-122.05419	2489782	2.13	2005-07-07 16:50:25.0	Ventana	34.067	00:21:34:29	9.16	V2681-01HD
 	transect	Psolus squamatus	 	2687	 	 	 	1811027	 	2005-07-13 19:48:47.0	Ventana	 	03:13:48:20	 	V2687-04
 	transect	Mesomyaria	999.72	2669	 	36.73098	-122.23383	1683967	0.45	2005-05-25 18:40:41.0	Ventana	34.522	01:02:42:15	3.913	V2669-02
 	transect	Sebastolobus altivelis	800.34	2674	 	36.752563	-122.20224	1799175	0.33	2005-06-08 17:39:48.0	Ventana	34.478	00:24:21:14	4.435	V2674-01
 	transect	Psolus squamatus	 	2687	 	 	 	1808937	 	2005-07-13 17:32:23.0	Ventana	 	00:59:15:18	 	V2687-01
 	transect	Mesomyaria	800.69	2674	 	36.75246	-122.2046	1799618	0.35	2005-06-08 17:52:43.0	Ventana	34.488	00:37:15:20	4.346	V2674-01
 	transect	Mediaster	 	2687	 	 	 	1812332	 	2005-07-13 20:32:29.0	Ventana	 	03:57:26:28	 	V2687-04
 	descend	Solmissus	183.09	2683	 	36.70104	-122.05113	1756339	1.62	2005-07-11 16:42:10.0	Ventana	34.186	00:29:50:27	8.649	V2683-01
 	descend	Appendicularia	281.24	2693	 	36.697937	-122.06137	1758429	1.41	2005-07-25 19:36:05.0	Ventana	34.235	02:15:40:09	8.009	V2693-03
 	ascend	Lycodapus	1170.69	2683	 	36.707066	-122.048096	1757723	0.7	2005-07-11 20:27:32.0	Ventana	34.569	04:01:52:14	3.404	V2683-04
 	transect	Microstomus pacificus	199.88	2696	 	36.804474	-122.12652	1813453	1.51	2005-08-01 17:48:20.0	Ventana	34.207	01:16:13:08	8.663	V2696-02
 	transect	Mediaster	 	2687	 	 	 	1811626	 	2005-07-13 20:18:02.0	Ventana	 	03:43:00:25	 	V2687-04
 	transect	Mesomyaria	999.96	2669	 	36.731056	-122.239235	1689125	0.43	2005-05-25 19:22:35.0	Ventana	34.517	01:44:33:25	3.976	V2669-02
 	descend	Appendicularia	634.26	2683	 	36.702034	-122.04896	1757045	0.37	2005-07-11 17:51:19.0	Ventana	34.381	01:35:26:02	5.566	V2683-02
 	ascend	Nanomia	377.11	2693	 	36.696037	-122.06058	1758765	1.19	2005-07-25 20:49:47.0	Ventana	34.23	03:14:21:02	7.151	V2693-04
 	transect	Nanomia bijuga	200.44	2681	 	36.69828	-122.05329	2490640	1.73	2005-07-07 17:07:57.0	Ventana	34.193	00:39:05:10	8.328	V2681-01HD
 	ascend	Chuniphyes	819.93	2682	 	36.69865	-122.05871	1723256	0.32	2005-07-08 20:22:29.0	Ventana	34.468	04:14:36:29	4.503	V2682-05
 	descend	Chaetognatha	691.62	2682	 	36.698647	-122.05998	1721429	0.29	2005-07-08 18:13:42.0	Ventana	34.422	02:06:47:09	5.103	V2682-03
 	transect	Eptatretus stoutii	1000.41	2669	 	36.73245	-122.25009	1736828	0.41	2005-05-25 20:33:12.0	Ventana	34.511	02:54:40:28	4.069	V2669-03
 	transect	Gastropoda sp.2	999.61	2669	 	36.730515	-122.2289	1695021	0.45	2005-05-25 18:05:47.0	Ventana	34.521	00:28:13:26	3.908	V2669-01
 	transect	Ptychogena	700.59	2681	 	36.695637	-122.05149	2497901	0.28	2005-07-07 18:45:36.0	Ventana	34.436	02:15:18:27	4.943	V2681-03HD
 	ascend	Nanomia	258.17	2681	 	36.697838	-122.05522	1719523	 	2005-07-07 21:29:59.0	Ventana	 	05:10:54:04	 	V2681-05
 	transect	Stomphia	999.72	2669	 	36.730637	-122.22937	1651083	0.45	2005-05-25 18:09:09.0	Ventana	34.522	00:31:37:16	3.906	V2669-01
 	cruise	Gorgonocephalus	94.13	2688	 	36.814747	-122.017136	1679423	1.96	2005-07-14 20:31:58.267	Ventana	34.095	04:16:42:13	8.943	V2688-04
 	transect	Ophiuroidea	998.98	2669	http://search.mbari.org/ARCHIVE/frameGrabs/Ventana/images/2669/01_20_43_19.jpg	36.731403	-122.23617	1684613	0.44	2005-05-25 18:58:44.0	Ventana	34.521	01:20:43:19	3.944	V2669-02
 	ascend	Appendicularia	416.18	2681	 	36.699226	-122.05433	1717959	0.79	2005-07-07 20:46:05.357	Ventana	34.28	04:14:26:20	6.673	V2681-05
 	transect	molt	50.47	2681	 	36.699715	-122.05422	2485450	 	2005-07-07 16:32:48.0	Ventana	 	00:03:58:07	 	V2681-01HD
 	transect	Mediaster	 	2687	 	 	 	1812775	 	2005-07-13 20:56:59.0	Ventana	 	04:21:29:15	 	V2687-05
 	transect	Ophiuroidea	1000.32	2669	 	36.731213	-122.24118	1689388	0.41	2005-05-25 19:34:43.0	Ventana	34.514	01:56:40:29	4.069	V2669-02
 	ascend	Lensia	331.1	2693	 	36.69208	-122.06188	1759028	1.29	2005-07-25 21:16:09.0	Ventana	34.236	03:40:41:09	7.553	V2693-04
 	transect	Mediaster	 	2687	 	 	 	1810764	 	2005-07-13 19:33:01.0	Ventana	 	02:58:44:21	 	V2687-03
 	transect	Chaetognatha	400.78	2681	 	36.695866	-122.05128	2492914	0.79	2005-07-07 17:41:17.0	Ventana	34.278	01:11:40:07	6.667	V2681-02HD
 	transect	Ophiuroidea	998.03	2669	 	36.731136	-122.231	1683492	0.45	2005-05-25 18:22:32.0	Ventana	34.523	00:44:58:25	3.912	V2669-01
 	transect	Mediaster	399.87	2687	 	36.788094	-122.12162	1809200	1.13	2005-07-13 17:37:08.0	Ventana	34.243	01:03:30:27	7.262	V2687-02
 	transect	Euplexaura	399.49	2687	 	36.789364	-122.125	1809643	1.16	2005-07-13 18:28:57.0	Ventana	34.239	01:55:15:29	7.327	V2687-02
 	descend	Appendicularia	1094.16	2683	 	36.705112	-122.048904	1757460	0.56	2005-07-11 19:29:00.0	Ventana	34.541	03:09:21:04	3.725	V2683-03
 	transect	Lycodapus	599.88	2680	 	36.778683	-122.22389	1804425	0.36	2005-06-27 18:02:12.0	Ventana	34.379	00:42:18:13	5.583	V2680-01
 	transect	cydippida	200.42	2681	 	36.69828	-122.0533	2490903	1.7	2005-07-07 17:09:35.0	Ventana	34.197	00:40:44:07	8.33	V2681-01HD
 	transect	Psolus squamatus	 	2687	 	 	 	1811147	 	2005-07-13 19:56:29.0	Ventana	 	03:21:29:11	 	V2687-04
 	cruise	Scyliorhinidae	441.38	2676	http://search.mbari.org/ARCHIVE/frameGrabs/Ventana/images/2676/00_23_30_03.jpg	36.803185	-122.02924	1676351	0.64	2005-06-14 16:39:22.0	Ventana	34.318	00:23:30:03	6.4	V2676-01
 	starttransect	color bars	400.81	2681	 	36.695717	-122.0511	1715270	0.79	2005-07-07 17:40:22.507	Ventana	34.277	01:10:46:05	6.67	V2681-02
 	transect	cydippida	50.38	2681	 	36.69983	-122.05429	2485726	3.0	2005-07-07 16:39:56.0	Ventana	33.91	00:11:07:10	9.627	V2681-01HD
 	descend	Kiyohimea	296.99	2681	 	36.69857	-122.05372	1713627	1.27	2005-07-07 17:17:41.7	Ventana	34.226	00:48:48:25	7.49	V2681-01
 	transect	cyclothone	400.76	2681	 	36.697308	-122.05296	2493126	0.79	2005-07-07 17:47:33.0	Ventana	34.278	01:17:55:09	6.663	V2681-02HD
 	transect	Gastropoda sp.2	999.75	2669	 	36.73092	-122.23151	1695081	0.45	2005-05-25 18:27:19.0	Ventana	34.522	00:49:45:15	3.913	V2669-01
 	transect	Gastropoda sp.2	1000.16	2669	 	36.731636	-122.24331	1733816	0.41	2005-05-25 19:46:32.0	Ventana	34.508	02:08:03:01	4.071	V2669-03
 	transect	Ceriantharia sp. 1	599.83	2680	 	36.778145	-122.223335	1804365	0.36	2005-06-27 17:54:46.0	Ventana	34.378	00:34:52:29	5.589	V2680-01
 	transect	Mesomyaria	1000.24	2669	 	36.731266	-122.240906	1689328	0.41	2005-05-25 19:33:14.0	Ventana	34.51	01:55:12:01	4.057	V2669-02
 	transect	Psolus squamatus	 	2687	 	 	 	1808817	 	2005-07-13 17:30:04.0	Ventana	 	00:56:56:02	 	V2687-01
 	transect	Psolus squamatus	 	2687	 	 	 	1810441	 	2005-07-13 19:18:16.0	Ventana	 	02:44:00:04	 	V2687-03
 	transect	Gastropoda sp.2	1000.01	2669	 	36.73172	-122.24391	1734019	0.41	2005-05-25 19:49:36.0	Ventana	34.51	02:11:06:21	4.069	V2669-03
 	transect	Corallimorphus pilatus	 	2687	 	 	 	1810644	 	2005-07-13 19:26:23.0	Ventana	 	02:52:07:01	 	V2687-03
 	transect	Phyllospadix	799.46	2674	 	36.752712	-122.20082	1774147	0.3	2005-06-08 17:32:42.0	Ventana	34.464	00:17:16:05	4.607	V2674-01
 	transect	Phyllospadix	799.8	2674	 	36.752117	-122.208725	1800803	0.35	2005-06-08 18:13:10.0	Ventana	34.489	00:57:41:08	4.334	V2674-01
 	ascend	Nanomia	211.33	2693	 	36.691135	-122.06257	1759148	1.71	2005-07-25 21:24:32.0	Ventana	34.19	03:49:03:13	8.624	V2693-04
 	transect	Appendicularia	1001.02	2681	 	36.695385	-122.05135	2498607	0.48	2005-07-07 19:24:28.0	Ventana	34.532	02:54:08:14	3.845	V2681-03HD
 	ascend	Leuroglossus stilbius	604.74	2681	 	36.698933	-122.054245	1717696	0.32	2005-07-07 20:29:41.233	Ventana	34.38	03:58:41:29	5.568	V2681-04
 	transect	chuniphyes	600.54	2681	 	36.697468	-122.05329	2493832	0.3	2005-07-07 18:26:38.0	Ventana	34.388	01:56:59:22	5.471	V2681-02HD
 	cruise	Cydippida	348.19	2676	 	36.804653	-122.02897	1676627	1.26	2005-06-14 17:14:03.0	Ventana	34.235	00:58:09:27	7.592	V2676-01
 	transect	Mesomyaria	999.14	2669	 	36.731163	-122.23557	1684350	0.45	2005-05-25 18:54:23.0	Ventana	34.523	01:16:22:20	3.919	V2669-02
 	transect	Sebastes diploproa	399.87	2687	 	36.788128	-122.12177	1809320	1.13	2005-07-13 17:39:23.0	Ventana	34.241	01:05:45:16	7.267	V2687-02
 	transect	Mesomyaria	802.64	2674	 	36.752277	-122.206116	1799894	0.36	2005-06-08 18:00:28.0	Ventana	34.486	00:45:00:16	4.338	V2674-01
 	ascend	Aegina	522.43	2682	 	36.698296	-122.06297	1723652	0.45	2005-07-08 21:11:29.0	Ventana	34.341	05:03:11:11	6.071	V2682-06
 	transect	Psolus squamatus	399.84	2687	 	36.788048	-122.121544	1809140	1.13	2005-07-13 17:36:10.0	Ventana	34.242	01:02:32:10	7.271	V2687-02
 	transect	Psolus squamatus	 	2687	 	 	 	1810118	 	2005-07-13 18:58:27.0	Ventana	 	02:24:12:09	 	V2687-03
 	ascend	sinker	943.79	2681	 	36.697475	-122.053925	1716917	0.41	2005-07-07 19:41:58.6	Ventana	34.514	03:11:01:23	4.068	V2681-04
 	transect	Mesomyaria	1000.62	2669	 	36.732075	-122.247734	1736150	0.4	2005-05-25 20:16:55.0	Ventana	34.508	02:38:23:25	4.086	V2669-03
 	transect	Phyllospadix	999.29	2669	 	36.731056	-122.23496	1684230	0.45	2005-05-25 18:50:02.0	Ventana	34.521	01:12:02:05	3.92	V2669-02
 	transect	Mesomyaria	1000.12	2669	 	36.731045	-122.23967	1689185	0.41	2005-05-25 19:25:42.0	Ventana	34.51	01:47:40:13	4.061	V2669-02
 	ascend	Chaetognatha	367.87	2693	 	36.6951	-122.06093	1758825	1.23	2005-07-25 20:58:14.0	Ventana	34.239	03:22:47:04	7.324	V2693-04
 	descend	Euphausiacea	360.65	2682	 	36.698517	-122.060135	1720432	1.0	2005-07-08 17:32:27.0	Ventana	34.258	01:25:59:11	7.07	V2682-02
 	transect	bathocyroe	500.59	2681	 	36.69589	-122.05134	2493652	0.43	2005-07-07 18:04:00.0	Ventana	34.348	01:34:21:22	6.006	V2681-02HD
 	transect	Allocentrotus fragilis	 	2687	 	 	 	1810824	 	2005-07-13 19:35:10.0	Ventana	 	03:00:53:01	 	V2687-03
 	ascend	Apolemia	682.16	2681	 	36.698742	-122.05455	1717623	0.27	2005-07-07 20:22:29.72	Ventana	34.415	03:51:30:27	5.154	V2681-04
 	transect	Psolus squamatus	 	2687	 	 	 	1808997	 	2005-07-13 17:33:15.0	Ventana	 	01:00:07:01	 	V2687-01
 	transect	Porifera sp. 1	 	2687	 	 	 	1810967	 	2005-07-13 19:45:07.0	Ventana	 	03:10:08:02	 	V2687-04
 	transect	Mesomyaria	800.47	2674	 	36.751953	-122.2096	1800923	0.35	2005-06-08 18:17:52.0	Ventana	34.49	01:01:57:09	4.325	V2674-02
 	transect	sinker	800.91	2681	 	36.696003	-122.05195	2498224	0.31	2005-07-07 18:58:26.0	Ventana	34.475	02:28:08:07	4.495	V2681-03HD
 	transect	Calycophorae	300.45	2681	 	36.697735	-122.05316	2492148	1.23	2005-07-07 17:22:25.0	Ventana	34.234	00:53:32:20	7.4	V2681-01HD
 	transect	Gastropoda sp.2	1000.32	2669	 	36.731525	-122.242645	1694518	0.4	2005-05-25 19:42:39.0	Ventana	34.507	02:04:36:13	4.094	V2669-02
 	starttransect	object	801.67	2674	 	36.750916	-122.21948	1803627	0.35	2005-06-08 19:04:27.0	Ventana	34.483	01:48:30:08	4.355	V2674-02
 	ascend	Copepoda	339.24	2693	 	36.692894	-122.061485	1758968	1.26	2005-07-25 21:12:20.0	Ventana	34.236	03:36:52:12	7.444	V2693-04
 	descend	Kiyohimea	289.34	2682	 	36.69937	-122.06067	1720109	1.25	2005-07-08 16:52:46.0	Ventana	34.233	00:46:48:10	7.466	V2682-01
 	transect	Euplexaura	 	2687	 	 	 	1810261	 	2005-07-13 19:13:06.0	Ventana	 	02:38:50:08	 	V2687-03
 	cruise	Sebastes	183.71	2676	 	36.80777	-122.029816	1676830	1.62	2005-06-14 17:47:48.0	Ventana	34.195	01:27:31:18	8.125	V2676-02
 	transect	Phyllospadix	800.38	2674	 	36.751186	-122.216446	1803424	0.35	2005-06-08 18:51:08.0	Ventana	34.491	01:35:11:11	4.344	V2674-02
 	transect	Brisaster	999.51	2669	http://search.mbari.org/ARCHIVE/frameGrabs/Ventana/images/2669/00_48_13_12.jpg	36.731018	-122.2313	1683612	0.45	2005-05-25 18:25:47.0	Ventana	34.52	00:48:13:12	3.915	V2669-01
 	transect	Mesomyaria	999.23	2669	 	36.731396	-122.23638	1684733	0.44	2005-05-25 19:00:18.0	Ventana	34.52	01:22:17:21	3.946	V2669-02
 	descend	Leuroglossus stilbius	418.96	2683	 	36.701443	-122.04957	1756662	0.89	2005-07-11 17:05:51.0	Ventana	34.266	00:53:30:00	6.852	V2683-01
 	descend	Calycophorae	969.76	2681	 	36.694653	-122.05038	1716534	0.45	2005-07-07 19:19:08.5	Ventana	34.523	02:48:50:11	3.951	V2681-03
 	descend	Aegina	995.5	2682	 	36.698322	-122.05923	1722015	0.43	2005-07-08 18:58:29.0	Ventana	34.52	02:51:32:06	3.997	V2682-03
 	transect	Sebastolobus altivelis	800.28	2674	 	36.75173	-122.21162	1801126	0.35	2005-06-08 18:26:25.0	Ventana	34.49	01:10:29:29	4.331	V2674-02
 	transect	Gastropoda sp.2	 	2669	 	 	 	1737594	 	2005-05-25 13:52:41.0	Ventana	 	03:13:28:27	 	V2669-04
 	transect	Psolus squamatus	400.04	2687	http://search.mbari.org/ARCHIVE/frameGrabs/Ventana/images/2687/01_37_55_27.jpg	36.78906	-122.12394	1809523	1.17	2005-07-13 18:11:36.0	Ventana	34.239	01:37:55:27	7.355	V2687-02
 	descend	physical object	598.96	2677	http://search.mbari.org/ARCHIVE/frameGrabs/Ventana/images/2677/00_03_18_00.jpg	36.746216	-122.05184	20008778	0.4	2005-06-15 16:48:02.0	Ventana	34.396	00:03:18:00	5.419	V2677-01
 	descend	Appendicularia	720.78	2682	 	36.69849	-122.05989	1721489	0.28	2005-07-08 18:23:05.0	Ventana	34.439	02:16:08:24	4.907	V2682-03
 	transect	Mesomyaria	798.67	2674	 	36.751556	-122.214165	1801338	0.35	2005-06-08 18:39:21.0	Ventana	34.488	01:23:24:18	4.338	V2674-02
 	transect	beroe	200.41	2681	 	36.69828	-122.05329	2490054	1.7	2005-07-07 17:04:24.0	Ventana	34.197	00:35:32:18	8.362	V2681-01HD
 	stationary	Appendicularia	504.32	2695	 	36.78459	-122.20048	1824507	0.72	2005-07-28 19:38:25.0	Ventana	34.287	04:39:47:27	6.391	V2695-03
 	ascend	Appendicularia	348.83	2681	 	36.699333	-122.05513	1718079	1.08	2005-07-07 20:52:44.4	Ventana	34.254	04:21:05:09	7.207	V2681-05
 	ascend	Aegina	722.39	2682	 	36.698807	-122.05928	1723316	0.28	2005-07-08 20:30:23.0	Ventana	34.434	04:22:32:15	4.943	V2682-05
 	transect	Phyllospadix	203.48	2696	 	36.80744	-122.1311	1813836	1.46	2005-08-01 18:41:42.0	Ventana	34.22	02:08:46:29	8.62	V2696-03
 	transect	Mediaster	 	2687	 	 	 	1811350	 	2005-07-13 20:08:55.0	Ventana	 	03:33:54:07	 	V2687-04
 	transect	Dosidicus gigas	500.61	2681	 	36.69796	-122.0537	2493269	0.44	2005-07-07 17:54:57.0	Ventana	34.346	01:25:21:00	6.022	V2681-02HD
 	transect	Mesomyaria	1000.17	2669	 	36.73144	-122.24192	1689923	0.4	2005-05-25 19:39:04.0	Ventana	34.509	02:01:01:09	4.077	V2669-02
 	ascend	Appendicularia	813.11	2681	 	36.69901	-122.0566	1717420	0.32	2005-07-07 19:59:57.733	Ventana	34.474	03:29:00:09	4.52	V2681-04
 	transect	Euplexaura	 	2687	http://search.mbari.org/ARCHIVE/frameGrabs/Ventana/images/2687/00_52_20_17.jpg	 	 	1808614	 	2005-07-13 17:25:28.0	Ventana	 	00:52:20:17	 	V2687-01
 	transect	Ophiuroidea	998.95	2669	 	36.731396	-122.2365	1684793	0.44	2005-05-25 19:01:41.0	Ventana	34.52	01:23:40:12	3.939	V2669-02
 	descend	Nanomia	191.38	2693	 	36.69608	-122.05817	1758286	1.81	2005-07-25 18:14:29.0	Ventana	34.184	00:54:59:14	8.892	V2693-01
 	cruise	Pleuronectiformes	592.3	2688	 	36.796623	-122.02012	1677393	0.47	2005-07-14 16:40:59.0	Ventana	34.377	00:27:18:27	5.655	V2688-01
 	descend	Appendicularia	288.43	2683	 	36.701027	-122.05019	1756482	1.29	2005-07-11 16:52:59.0	Ventana	34.241	00:40:39:10	7.765	V2683-01
 	transect	Brisaster	 	2687	 	 	 	1812189	 	2005-07-13 20:28:41.0	Ventana	 	03:53:39:20	 	V2687-04
 	ascend	Calycophorae	460.83	2682	 	36.69832	-122.06301	1723712	0.62	2005-07-08 21:17:53.0	Ventana	34.302	05:09:33:05	6.365	V2682-06
 	transect	Mesomyaria	800.73	2674	 	36.75113	-122.21723	1803484	0.35	2005-06-08 18:54:50.0	Ventana	34.491	01:38:53:13	4.331	V2674-02
 	transect	molt	100.52	2681	 	36.69983	-122.05429	2489639	2.13	2005-07-07 16:46:54.0	Ventana	34.069	00:18:03:13	9.144	V2681-01HD
 	transect	Mesomyaria	801.45	2674	 	36.75175	-122.210945	1801066	0.35	2005-06-08 18:23:58.0	Ventana	34.491	01:08:02:25	4.329	V2674-02
 	starttransect	physical object	 	2687	 	 	 	1810884	 	2005-07-13 19:40:52.0	Ventana	 	03:05:54:13	 	V2687-04
 	ascend	Aegina	728.92	2681	 	36.698696	-122.05534	1717563	0.28	2005-07-07 20:17:42.88	Ventana	34.441	03:46:43:26	4.899	V2681-04
 	descend	Nanomia	225.16	2682	 	36.699886	-122.06071	1719966	1.53	2005-07-08 16:21:44.0	Ventana	34.222	00:15:48:15	8.036	V2682-01
 	descend	Copepoda	1184.11	2682	 	36.69824	-122.05788	1722407	0.66	2005-07-08 19:41:56.0	Ventana	34.569	03:34:33:01	3.414	V2682-04
 	cruise	rock outcrop	291.62	2676	http://search.mbari.org/ARCHIVE/frameGrabs/Ventana/images/2676/01_07_09_27.jpg	36.805145	-122.0292	1676687	1.46	2005-06-14 17:27:26.0	Ventana	34.212	01:07:09:27	7.888	V2676-02
 	transect	molt	100.52	2681	 	36.69983	-122.05429	2489662	2.13	2005-07-07 16:47:20.0	Ventana	34.069	00:18:29:21	9.147	V2681-01HD
 	transect	Pseudosagitta maxima	500.61	2681	 	36.69655	-122.05213	2493592	0.44	2005-07-07 18:00:55.0	Ventana	34.348	01:31:17:18	6.011	V2681-02HD
 	transect	Psolus squamatus	399.86	2687	http://search.mbari.org/ARCHIVE/frameGrabs/Ventana/images/2687/01_02_12_24.jpg	36.788044	-122.12152	1809080	1.14	2005-07-13 17:35:50.0	Ventana	34.237	01:02:12:24	7.276	V2687-02
 	transect	Mesomyaria	998.27	2669	 	36.732967	-122.25228	1737414	0.4	2005-05-25 20:47:03.0	Ventana	34.508	03:07:50:28	4.076	V2669-04
 	transect	Mesomyaria	800.91	2674	 	36.75252	-122.20148	1774207	0.34	2005-06-08 17:35:56.0	Ventana	34.477	00:20:29:28	4.423	V2674-01
 	transect	Rathbunaster californicus	 	2687	http://search.mbari.org/ARCHIVE/frameGrabs/Ventana/images/2687/00_45_54_20.jpg	 	 	20005055	 	2005-07-13 17:19:03.0	Ventana	 	00:45:54:20	 	V2687-01
 	transect	Mediaster	 	2687	 	 	 	1811230	 	2005-07-13 20:05:11.0	Ventana	 	03:30:11:02	 	V2687-04
 	transect	Mediaster	 	2687	 	 	 	1806962	 	2005-07-13 16:51:06.0	Ventana	 	00:18:01:04	 	V2687-01
 	transect	Mediaster	 	2687	 	 	 	1812512	 	2005-07-13 20:43:01.0	Ventana	 	04:07:32:08	 	V2687-05
 	ascend	Solmissus	255.62	2681	 	36.69798	-122.05503	1719260	1.46	2005-07-07 21:27:03.967	Ventana	34.225	04:55:22:08	7.984	V2681-05
 	ascend	Appendicularia	582.86	2683	 	36.704678	-122.05065	1757963	0.33	2005-07-11 21:12:51.0	Ventana	34.376	04:45:42:17	5.721	V2683-05
 	transect	Mesomyaria	1000.75	2669	 	36.732292	-122.24906	1736270	0.41	2005-05-25 20:26:22.0	Ventana	34.509	02:47:52:01	4.065	V2669-03
 	transect	Phyllospadix	801.79	2674	 	36.75225	-122.20706	1800014	0.36	2005-06-08 18:04:57.0	Ventana	34.488	00:49:29:10	4.348	V2674-01
 	descend	Poeobius meseres	1099.88	2682	 	36.698227	-122.05915	1722084	0.56	2005-07-08 19:07:48.0	Ventana	34.55	03:00:26:17	3.644	V2682-04
 	transect	Porifera sp. 1	 	2687	 	 	 	1810524	 	2005-07-13 19:21:41.0	Ventana	 	02:47:24:25	 	V2687-03
 	cruise	drawer	1285.44	2673	 	36.802937	-121.804695	1668388	0.81	2005-06-07 17:35:46.0	Ventana	34.58	00:19:37:01	3.227	V2673-01
 	transect	Mesomyaria	998.72	2669	http://search.mbari.org/ARCHIVE/frameGrabs/Ventana/images/2669/01_05_24_02.jpg	36.731174	-122.234245	1684087	0.45	2005-05-25 18:43:23.0	Ventana	34.521	01:05:24:02	3.915	V2669-02
 	ascend	Poeobius meseres	1047.32	2682	 	36.697937	-122.05765	1722790	0.49	2005-07-08 20:02:18.0	Ventana	34.536	03:54:53:15	3.824	V2682-04
 	transect	Lycenchelys camchatica	999.12	2669	 	36.731045	-122.231865	1683695	0.45	2005-05-25 18:29:29.0	Ventana	34.522	00:51:55:04	3.915	V2669-01
 	transect	Phyllospadix	 	2687	 	 	 	1811806	 	2005-07-13 20:25:46.0	Ventana	 	03:50:44:27	 	V2687-04
 	transect	Pennatulacea sp.1	601.9	2680	 	36.787193	-122.23164	1805910	0.36	2005-06-27 19:46:50.0	Ventana	34.377	02:25:29:02	5.598	V2680-03
 	transect	Microstomus pacificus	199.59	2696	 	36.8039	-122.12535	1813333	1.51	2005-08-01 17:36:15.0	Ventana	34.21	01:04:09:08	8.639	V2696-02
 	transect	Phyllospadix	800.05	2674	 	36.752483	-122.203575	1799355	0.35	2005-06-08 17:46:54.0	Ventana	34.48	00:31:27:07	4.385	V2674-01
 	descend	Appendicularia	488.47	2681	 	36.698116	-122.053894	1715353	0.47	2005-07-07 17:53:23.133	Ventana	34.34	01:23:45:29	6.061	V2681-02
 	descend	Mysidae	898.32	2683	 	36.70328	-122.048325	1757257	0.37	2005-07-11 18:32:05.0	Ventana	34.495	02:12:28:20	4.267	V2683-03
 	transect	Calycophorae	300.46	2681	 	36.697956	-122.05333	2492088	1.24	2005-07-07 17:21:41.0	Ventana	34.234	00:52:47:17	7.402	V2681-01HD
 	descend	Appendicularia	508.85	2683	 	36.70142	-122.04919	1756865	0.68	2005-07-11 17:39:59.0	Ventana	34.305	01:24:06:10	6.461	V2683-02
 	ascend	Solmissus	183.55	2693	 	36.690613	-122.06292	1759231	1.93	2005-07-25 21:29:29.0	Ventana	34.138	03:54:00:25	8.863	V2693-04
 	ascend	Siphonophora	313.55	2681	 	36.69966	-122.05527	1718162	1.25	2005-07-07 20:57:59.5	Ventana	34.236	04:26:20:02	7.475	V2681-05
 	transect	Umbellula lindahli	600.82	2680	 	36.77711	-122.22226	1804222	0.36	2005-06-27 17:41:38.0	Ventana	34.379	00:21:46:13	5.576	V2680-01
 	transect	Nanomia bijuga	200.4	2681	 	36.698296	-122.053345	2491083	1.69	2005-07-07 17:11:40.0	Ventana	34.198	00:42:47:13	8.335	V2681-01HD
 	transect	Ophiuroidea	998.95	2669	 	36.73052	-122.228546	1650903	0.45	2005-05-25 18:04:02.0	Ventana	34.522	00:26:30:06	3.907	V2669-01
 	transect	Allocentrotus fragilis	 	2687	 	 	 	1811290	 	2005-07-13 20:05:34.0	Ventana	 	03:30:33:21	 	V2687-04
 	transect	Mediaster	 	2687	 	 	 	1812595	 	2005-07-13 20:46:37.0	Ventana	 	04:11:07:24	 	V2687-05
 	transect	Aegina	700.63	2681	 	36.696663	-122.05256	2497721	0.29	2005-07-07 18:41:05.0	Ventana	34.436	02:10:47:01	4.93	V2681-03HD
 	descend	Dosidicus gigas	798.23	2682	 	36.698353	-122.05968	1721692	0.31	2005-07-08 18:37:13.0	Ventana	34.469	02:30:15:23	4.571	V2682-03
 	ascend	Bathocyroe	494.77	2681	 	36.69895	-122.05424	1717756	0.51	2005-07-07 20:34:51.657	Ventana	34.328	04:03:52:02	6.15	V2681-04
 	ascend	Chaetognatha	344.93	2693	 	36.69327	-122.06137	1758945	1.25	2005-07-25 21:10:38.0	Ventana	34.237	03:35:10:24	7.406	V2693-04
 	transect	Psolus squamatus	 	2687	 	 	 	1808734	 	2005-07-13 17:27:55.0	Ventana	 	00:54:48:01	 	V2687-01
 	transect	Eptatretus stoutii	799.44	2674	 	36.75253	-122.20407	1799438	0.35	2005-06-08 17:49:30.0	Ventana	34.485	00:34:02:21	4.379	V2674-01
 	transect	Psolus squamatus	 	2687	 	 	 	1809020	 	2005-07-13 17:33:43.0	Ventana	 	01:00:35:00	 	V2687-01
 	cruise	Stylasterias	108.25	2688	 	36.8157	-122.02433	1678062	1.95	2005-07-14 19:03:52.0	Ventana	34.089	02:49:06:09	8.891	V2688-03
 	transect	Neptunea amianta	1000.03	2669	 	36.731426	-122.236786	1686911	0.44	2005-05-25 19:04:11.0	Ventana	34.519	01:26:10:12	3.946	V2669-02
 	transect	Neptunea amianta	800.97	2674	 	36.752132	-122.20821	1800720	0.35	2005-06-08 18:10:37.0	Ventana	34.489	00:55:09:00	4.328	V2674-01
 	transect	Mesomyaria	998.27	2669	 	36.73117	-122.23451	1684147	0.45	2005-05-25 18:45:59.0	Ventana	34.522	01:07:59:05	3.916	V2669-02
 	transect	Psolus squamatus	 	2687	 	 	 	1808674	 	2005-07-13 17:26:47.0	Ventana	 	00:53:39:28	 	V2687-01
 	transect	Phyllospadix	802.25	2674	 	36.751766	-122.21034	1801006	0.35	2005-06-08 18:21:16.0	Ventana	34.491	01:05:21:15	4.336	V2674-02
 	transect	Microstomus pacificus	204.06	2696	 	36.805283	-122.12824	1813693	1.48	2005-08-01 18:15:38.0	Ventana	34.213	01:43:29:17	8.633	V2696-02
 	ascend	Siphonophora	258.17	2681	 	36.697838	-122.05522	1719320	 	2005-07-07 21:29:59.0	Ventana	 	05:00:46:08	 	V2681-05
 	cruise	mud	1017.69	2689	 	36.771603	-122.08303	1669892	0.51	2005-07-18 17:34:37.0	Ventana	34.534	00:57:38:16	3.83	V2689-01
 	transect	Mesomyaria	1000.19	2669	 	36.731686	-122.24373	1733876	0.41	2005-05-25 19:48:20.0	Ventana	34.509	02:09:52:22	4.067	V2669-03
 	ascend	Appendicularia	643.37	2683	 	36.705147	-122.050026	1757926	0.27	2005-07-11 21:09:34.0	Ventana	34.408	04:42:27:09	5.26	V2683-05
 	descend	Appendicularia	316.97	2683	 	36.70114	-122.050125	1756519	1.22	2005-07-11 16:54:38.0	Ventana	34.24	00:42:18:20	7.552	V2683-01
 	descend	Colobonema	370.94	2693	 	36.696182	-122.06091	1758632	1.2	2005-07-25 20:22:21.0	Ventana	34.229	03:01:55:14	7.147	V2693-03
 	ascend	Cydippida	286.78	2681	 	36.699745	-122.05519	1718222	1.36	2005-07-07 21:00:34.1	Ventana	34.229	04:28:54:00	7.728	V2681-05
 	transect	Lycenchelys camchatica	799.42	2674	 	36.75176	-122.21232	1801195	0.35	2005-06-08 18:29:15.0	Ventana	34.488	01:13:19:16	4.335	V2674-02
 	ascend	Calycophorae	589.9	2682	 	36.69879	-122.06069	1723459	0.4	2005-07-08 20:47:06.0	Ventana	34.371	04:39:13:07	5.671	V2682-05
 	descend	Appendicularia	550.73	2682	 	36.69863	-122.05978	1720903	0.35	2005-07-08 18:05:29.0	Ventana	34.37	01:58:58:29	5.68	V2682-02
 	descend	Copepoda	651.67	2682	 	36.698643	-122.05993	1721346	0.28	2005-07-08 18:10:19.0	Ventana	34.408	02:03:23:12	5.244	V2682-03
 	descend	Appendicularia	492.22	2683	 	36.70149	-122.04937	1756782	0.71	2005-07-11 17:24:03.0	Ventana	34.298	01:08:09:21	6.529	V2683-02
 	transect	Rathbunaster californicus	197.84	2696	 	36.80266	-122.12169	1812987	1.54	2005-08-01 16:49:27.0	Ventana	34.203	00:17:46:19	8.568	V2696-01
 	transect	Aegina	700.64	2681	 	36.697598	-122.05347	2497638	0.29	2005-07-07 18:37:14.0	Ventana	34.432	02:06:55:23	4.981	V2681-03HD
 	transect	Ophiuroidea	997.37	2669	http://search.mbari.org/ARCHIVE/frameGrabs/Ventana/images/2669/00_23_00_07.jpg	36.730637	-122.22799	1649260	0.45	2005-05-25 18:00:32.0	Ventana	34.522	00:23:00:07	3.906	V2669-01
 	transect	Mesomyaria	801.51	2674	 	36.75221	-122.20775	1800097	0.4	2005-06-08 18:08:22.0	Ventana	34.49	00:52:53:16	4.334	V2674-01
 	transect	Mesomyaria	999.64	2669	http://search.mbari.org/ARCHIVE/frameGrabs/Ventana/images/2669/01_33_37_16.jpg	36.73137	-122.23764	1687520	0.44	2005-05-25 19:11:38.0	Ventana	34.519	01:33:37:16	3.949	V2669-02
 	cruise	water	 	2687	 	 	 	1806902	 	2005-07-13 16:34:59.0	Ventana	 	00:01:54:25	 	V2687-01
 	transect	Phyllospadix	805.84	2674	 	36.750412	-122.221695	1803747	0.34	2005-06-08 19:16:41.0	Ventana	34.482	02:00:42:08	4.411	V2674-02
 	transect	Rathbunaster californicus	 	2687	 	 	 	1812452	 	2005-07-13 20:39:16.0	Ventana	 	04:04:13:27	 	V2687-04
 	cruise	Sebastes	442.61	2688	 	36.80412	-122.01837	1677656	0.88	2005-07-14 17:40:17.0	Ventana	34.273	01:26:00:16	6.846	V2688-02
 	ascend	Chuniphyes	974.0	2681	 	36.697006	-122.053406	1716594	0.43	2005-07-07 19:36:48.4	Ventana	34.521	03:06:29:06	3.999	V2681-03
 	transect	Gastropoda	203.49	2696	 	36.806385	-122.12994	1813753	1.48	2005-08-01 18:27:01.0	Ventana	34.212	01:54:52:01	8.628	V2696-02
 	transect	Raja rhina	196.39	2696	http://search.mbari.org/ARCHIVE/frameGrabs/Ventana/images/2696/00_29_04_18.jpg	36.80283	-122.12205	1813047	1.55	2005-08-01 17:00:45.0	Ventana	34.2	00:29:04:18	8.601	V2696-01
 	cruise	Parastichopus	103.38	2676	 	36.80687	-122.04062	1677153	1.94	2005-06-14 19:13:34.0	Ventana	34.159	02:52:19:01	8.438	V2676-03
 	transect	Mesomyaria	1000.11	2669	 	36.73142	-122.23683	1686971	0.44	2005-05-25 19:04:48.0	Ventana	34.521	01:26:47:13	3.943	V2669-02
 	transect	Euphausia	200.45	2681	 	36.69828	-122.05329	2490723	1.71	2005-07-07 17:08:31.0	Ventana	34.193	00:39:38:12	8.323	V2681-01HD
 	transect	Phyllospadix	800.32	2674	 	36.75249	-122.20315	1799295	0.35	2005-06-08 17:44:22.0	Ventana	34.481	00:28:55:09	4.373	V2674-01
 	ascend	Chuniphyes	717.9	2683	 	36.70595	-122.048805	1757866	0.28	2005-07-11 21:05:09.0	Ventana	34.453	04:38:01:07	4.75	V2683-05
 	transect	Poeobius meseres	500.6	2681	 	36.697697	-122.05347	2493329	0.44	2005-07-07 17:55:59.0	Ventana	34.347	01:26:22:21	6.018	V2681-02HD
 	transect	Zaniolepididae	198.1	2696	 	36.803604	-122.124344	1813250	1.53	2005-08-01 17:26:31.0	Ventana	34.203	00:54:48:17	8.618	V2696-01
 	ascend	Chuniphyes	915.73	2682	 	36.698116	-122.05846	1723196	0.37	2005-07-08 20:13:30.0	Ventana	34.5	04:05:40:05	4.235	V2682-05
 	descend	Phialidium	508.4	2682	 	36.698593	-122.05978	1720843	0.43	2005-07-08 18:00:32.0	Ventana	34.353	01:54:00:07	5.966	V2682-02
 	transect	Ophiuroidea	998.65	2669	 	36.730953	-122.23004	1651203	0.45	2005-05-25 18:14:17.0	Ventana	34.522	00:36:44:22	3.907	V2669-01
 	ascend	Euphausiacea	261.01	2681	 	36.698864	-122.05695	1718928	1.42	2005-07-07 21:19:47.533	Ventana	34.232	04:48:07:07	7.957	V2681-05
 	transect	Neptunea amianta	798.77	2674	 	36.751385	-122.21504	1801398	0.35	2005-06-08 18:44:07.0	Ventana	34.489	01:28:10:10	4.338	V2674-02
 	transect	Rathbunaster californicus	 	2687	 	 	 	1807497	 	2005-07-13 17:12:22.0	Ventana	 	00:39:16:00	 	V2687-01
 	transect	Psolus squamatus	 	2687	 	 	 	1807700	 	2005-07-13 17:23:17.0	Ventana	 	00:50:09:26	 	V2687-01
 	ascend	Cyclothone	625.92	2682	 	36.69887	-122.059784	1723399	0.38	2005-07-08 20:37:11.0	Ventana	34.387	04:29:18:18	5.463	V2682-05
 	ascend	Bargmannia	441.42	2683	 	36.704212	-122.05058	1758023	0.78	2005-07-11 21:18:35.0	Ventana	34.284	04:51:26:13	6.677	V2683-05
 	transect	Phyllospadix	799.39	2674	 	36.752457	-122.2052	1799751	0.35	2005-06-08 17:56:01.0	Ventana	34.49	00:40:33:11	4.357	V2674-01
 	transect	Sebastes diploproa	 	2687	 	 	 	1807294	 	2005-07-13 17:05:08.0	Ventana	 	00:32:02:18	 	V2687-01
 	transect	Mediaster	 	2687	 	 	 	1812249	 	2005-07-13 20:29:55.0	Ventana	 	03:54:52:27	 	V2687-04
 	transect	Mediaster	 	2687	 	 	 	1812798	 	2005-07-13 20:58:09.0	Ventana	 	04:22:38:24	 	V2687-05
 	transect	Mediaster	 	2687	 	 	 	1812655	 	2005-07-13 20:49:54.0	Ventana	 	04:14:24:09	 	V2687-05
 	transect	Phyllospadix	999.35	2669	 	36.731033	-122.23117	1683552	0.45	2005-05-25 18:24:27.0	Ventana	34.522	00:46:53:22	3.91	V2669-01
 	cruise	sediment	1239.42	2683	 	36.7059	-122.04815	1757520	0.73	2005-07-11 19:46:57.0	Ventana	34.573	03:21:20:29	3.337	V2683-04
 	transect	Phyllospadix	1000.1	2669	 	36.732574	-122.250244	1736948	0.41	2005-05-25 20:34:57.0	Ventana	34.509	02:56:24:13	4.067	V2669-03
 	cruise	Gorgonocephalus	98.4	2676	 	36.809956	-122.0335	1676950	1.87	2005-06-14 18:22:48.0	Ventana	34.149	02:02:30:06	8.477	V2676-02
 	cruise	Chionoecetes tanneri	1209.26	2683	 	36.706905	-122.04762	1757663	0.72	2005-07-11 20:14:12.0	Ventana	34.575	03:48:34:02	3.349	V2683-04
 	transect	Nanomia bijuga	200.5	2681	 	36.69828	-122.05329	2490520	1.71	2005-07-07 17:07:16.0	Ventana	34.197	00:38:24:24	8.341	V2681-01HD
 	descend	Appendicularia	267.45	2682	 	36.69979	-122.06072	1720026	1.35	2005-07-08 16:29:51.0	Ventana	34.228	00:23:54:14	7.75	V2682-01
 	transect	Phyllospadix	800.12	2674	 	36.751263	-122.21605	1803387	0.35	2005-06-08 18:49:28.0	Ventana	34.488	01:33:31:08	4.337	V2674-02
 	transect	Calycophorae	100.47	2681	 	36.69982	-122.05429	2489722	2.13	2005-07-07 16:48:39.0	Ventana	34.067	00:19:48:15	9.152	V2681-01HD
 	transect	pseudothecosomata	901.08	2681	 	36.696823	-122.05296	2498284	0.39	2005-07-07 19:07:12.0	Ventana	34.506	02:36:53:25	4.16	V2681-03HD
 	transect	Sebastolobus altivelis	800.84	2674	 	36.751038	-122.21801	1803544	0.35	2005-06-08 18:58:19.0	Ventana	34.485	01:42:21:29	4.34	V2674-02
 	transect	molt	100.57	2681	 	36.69983	-122.05429	2489579	2.13	2005-07-07 16:45:20.0	Ventana	34.068	00:16:30:04	9.15	V2681-01HD
 	cruise	Siphonophora	102.99	2688	 	36.81402	-122.018456	1679506	1.93	2005-07-14 21:21:09.0	Ventana	34.103	05:05:21:25	8.897	V2688-05
 	descend	Appendicularia	465.17	2683	 	36.701694	-122.0493	1756722	0.78	2005-07-11 17:10:04.0	Ventana	34.284	00:57:43:06	6.665	V2683-01
 	transect	Sebastolobus	1000.5	2669	 	36.732376	-122.249565	1736556	0.41	2005-05-25 20:30:10.0	Ventana	34.509	02:51:37:02	4.07	V2669-03
 	transect	Mesomyaria	802.13	2674	 	36.752235	-122.20651	1799954	0.36	2005-06-08 18:02:23.0	Ventana	34.488	00:46:55:24	4.345	V2674-01
 	transect	Ceriantharia sp. 1	602.37	2680	 	36.790318	-122.23271	1806759	0.35	2005-06-27 20:18:21.0	Ventana	34.378	02:56:58:10	5.586	V2680-03
 	ascend	Appendicularia	376.44	2681	 	36.699356	-122.05477	1718019	0.94	2005-07-07 20:50:05.75	Ventana	34.268	04:18:27:02	7.008	V2681-05
 	descend	Nanomia	361.45	2683	 	36.701355	-122.04986	1756579	1.12	2005-07-11 16:57:10.0	Ventana	34.236	00:44:50:29	7.121	V2683-01
 	transect	Poeobius meseres	600.6	2681	 	36.695904	-122.051476	2493689	0.3	2005-07-07 18:19:40.0	Ventana	34.387	01:50:02:18	5.496	V2681-02HD
 	transect	Ceriantharia sp. 2	997.99	2669	 	36.730568	-122.22827	1683349	0.45	2005-05-25 18:02:20.0	Ventana	34.523	00:24:48:05	3.907	V2669-01
 	transect	Appendicularia	400.8	2681	 	36.69627	-122.051735	2492983	0.79	2005-07-07 17:43:05.0	Ventana	34.277	01:13:29:25	6.654	V2681-02HD
 	descend	Appendicularia	755.83	2683	 	36.702396	-122.04891	1757128	0.28	2005-07-11 17:57:53.0	Ventana	34.451	01:41:58:05	4.749	V2683-02
 	transect	Mesomyaria	1000.26	2669	 	36.731667	-122.24377	1733936	0.41	2005-05-25 19:48:38.0	Ventana	34.509	02:10:09:09	4.064	V2669-03
 	transect	Calycophorae	1000.94	2681	 	36.69635	-122.052635	2498690	0.47	2005-07-07 19:29:25.0	Ventana	34.53	02:59:05:00	3.878	V2681-03HD
 	transect	Psolus squamatus	 	2687	 	 	 	1811543	 	2005-07-13 20:15:20.0	Ventana	 	03:40:19:05	 	V2687-04
 	transect	Rathbunaster californicus	199.43	2696	 	36.804203	-122.12597	1813393	1.52	2005-08-01 17:42:31.0	Ventana	34.208	01:10:24:20	8.66	V2696-02
 	ascend	Copepoda	765.4	2681	 	36.69867	-122.05608	1717503	0.29	2005-07-07 20:10:33.333	Ventana	34.451	03:39:35:22	4.787	V2681-04
 	transect	Neptunea amianta	598.29	2680	 	36.781418	-122.226494	1804988	0.36	2005-06-27 18:36:23.0	Ventana	34.376	01:15:28:16	5.598	V2680-02
 	transect	Sebastolobus altivelis	799.25	2674	 	36.751656	-122.21311	1801255	0.35	2005-06-08 18:32:12.0	Ventana	34.489	01:16:16:23	4.344	V2674-02
 	cruise	Parastichopus	115.08	2688	 	36.811337	-122.022545	1678002	1.95	2005-07-14 18:42:02.0	Ventana	34.093	02:27:17:07	8.9	V2688-03
 	transect	Mesomyaria	999.44	2669	 	36.73133	-122.23592	1684493	0.44	2005-05-25 18:57:06.0	Ventana	34.52	01:19:05:22	3.936	V2669-02
 	descend	Nanomia	211.65	2681	 	36.698467	-122.05351	1713567	1.59	2005-07-07 17:14:48.357	Ventana	34.206	00:45:56:05	8.31	V2681-01
 	transect	Phyllospadix	800.92	2674	 	36.752563	-122.201706	1799092	0.34	2005-06-08 17:36:59.0	Ventana	34.479	00:21:32:25	4.445	V2674-01
 	cruise	LRJ Complex	534.22	2688	 	36.798687	-122.019455	1677453	0.62	2005-07-14 17:02:46.0	Ventana	34.325	00:49:04:08	6.242	V2688-01
 	transect	Ceriantharia sp. 1	599.61	2680	 	36.77749	-122.22256	1804282	0.36	2005-06-27 17:46:57.0	Ventana	34.379	00:27:04:20	5.585	V2680-01
 	transect	beroe	200.41	2681	 	36.698288	-122.05332	2491023	1.7	2005-07-07 17:10:54.0	Ventana	34.196	00:42:01:02	8.332	V2681-01HD
 	descend	Nanomia	170.95	2693	 	36.696182	-122.05793	1758226	1.95	2005-07-25 18:00:53.0	Ventana	34.14	00:41:24:12	8.904	V2693-01
 	descend	Appendicularia	533.07	2683	 	36.701523	-122.04914	1756925	0.55	2005-07-11 17:42:52.0	Ventana	34.323	01:26:58:21	6.225	V2683-02
 	transect	Solmissus	300.39	2681	 	36.69588	-122.05149	2492591	1.24	2005-07-07 17:29:01.0	Ventana	34.233	01:00:07:10	7.428	V2681-01HD
 	transect	Umbellula lindahli	598.43	2680	 	36.78097	-122.22591	1804831	0.35	2005-06-27 18:29:40.0	Ventana	34.38	01:08:46:03	5.585	V2680-02
 	transect	Mesomyaria	1000.05	2669	 	36.73116	-122.240364	1689245	0.41	2005-05-25 19:29:43.0	Ventana	34.51	01:51:40:24	4.063	V2669-02
 	ascend	Chaetognatha	359.37	2693	 	36.694046	-122.06103	1758885	1.24	2005-07-25 21:03:06.0	Ventana	34.237	03:27:39:19	7.346	V2693-04
 	transect	Phyllospadix	 	2687	 	 	 	1811746	 	2005-07-13 20:24:07.0	Ventana	 	03:49:05:17	 	V2687-04
 	descend	Haliscera	364.78	2682	 	36.698544	-122.06021	1720372	0.99	2005-07-08 17:29:23.0	Ventana	34.258	01:22:53:16	7.056	V2682-02
 	transect	Nanomia bijuga	200.43	2681	 	36.69828	-122.05329	2490317	1.69	2005-07-07 17:06:52.0	Ventana	34.199	00:38:00:07	8.355	V2681-01HD
 	transect	Mesomyaria	997.69	2669	 	36.730587	-122.227234	1649117	0.45	2005-05-25 17:55:34.0	Ventana	34.521	00:18:03:00	3.91	V2669-01
 	descend	sinker	939.82	2683	 	36.70376	-122.0486	1757317	0.39	2005-07-11 19:08:34.0	Ventana	34.51	02:48:55:18	4.135	V2683-03
 	cruise	Lycenchelys	620.61	2688	 	36.79428	-122.01954	1677296	0.42	2005-07-14 16:29:15.0	Ventana	34.41	00:15:35:14	5.297	V2688-01
 	descend	Bathocyroe	752.26	2681	 	36.694897	-122.05056	1716248	0.29	2005-07-07 18:50:29.367	Ventana	34.452	02:20:13:01	4.758	V2681-03
 	transect	Mesomyaria	1000.61	2669	 	36.73216	-122.24835	1736210	0.41	2005-05-25 20:21:19.0	Ventana	34.51	02:42:47:12	4.062	V2669-03
 	transect	Pennatulacea sp.1	600.75	2680	 	36.785954	-122.23084	1805850	0.36	2005-06-27 19:33:31.0	Ventana	34.377	02:12:10:16	5.598	V2680-03
 	transect	Euplexaura	 	2687	 	 	 	1810178	 	2005-07-13 19:05:34.0	Ventana	 	02:31:18:29	 	V2687-03
 	descend	Appendicularia	870.65	2682	 	36.698303	-122.05943	1721752	0.33	2005-07-08 18:49:21.0	Ventana	34.49	02:42:23:19	4.359	V2682-03
 	transect	Mesomyaria	802.02	2674	 	36.752354	-122.20561	1799811	0.36	2005-06-08 17:57:50.0	Ventana	34.487	00:42:22:24	4.345	V2674-01
 	transect	Psolus squamatus	399.7	2687	 	36.789288	-122.12472	1809606	1.16	2005-07-13 18:23:28.0	Ventana	34.239	01:49:47:00	7.333	V2687-02
 	cruise	Pleurobranchaea californica	232.15	2688	 	36.80995	-122.0206	1677942	1.64	2005-07-14 18:32:12.0	Ventana	34.18	02:17:28:02	8.5	V2688-03
 	transect	Mesomyaria	999.78	2669	 	36.731056	-122.23894	1689088	0.43	2005-05-25 19:20:56.0	Ventana	34.518	01:42:54:24	3.96	V2669-02
 	descend	Solmaris	593.81	2683	 	36.701927	-122.04908	1757008	0.35	2005-07-11 17:48:48.0	Ventana	34.367	01:32:54:19	5.809	V2683-02
 	transect	Lycenchelys camchatica	999.31	2669	 	36.73105	-122.23511	1684267	0.45	2005-05-25 18:51:02.0	Ventana	34.523	01:13:02:11	3.923	V2669-02
 	ascend	Chaetognatha	309.04	2693	 	36.691517	-122.06207	1759065	1.31	2005-07-25 21:19:02.0	Ventana	34.237	03:43:33:19	7.632	V2693-04
 	transect	Euphausia	200.39	2681	 	36.698284	-122.053314	2490986	1.71	2005-07-07 17:10:29.0	Ventana	34.187	00:41:36:15	8.319	V2681-01HD
 	transect	Phyllospadix	199.93	2696	 	36.80464	-122.12697	1813490	1.51	2005-08-01 17:52:34.0	Ventana	34.213	01:20:26:25	8.672	V2696-02
 	ascend	Medusae	261.73	2681	 	36.699142	-122.05483	1718688	1.43	2005-07-07 21:15:45.7	Ventana	34.231	04:44:05:05	7.968	V2681-05
 	transect	Mesomyaria	997.58	2669	 	36.730614	-122.227104	1649094	0.45	2005-05-25 17:54:41.0	Ventana	34.522	00:17:09:20	3.911	V2669-01
 	transect	Nanomia bijuga	200.46	2681	 	36.69828	-122.05329	2490234	1.7	2005-07-07 17:06:04.0	Ventana	34.198	00:37:11:13	8.363	V2681-01HD
 	descend	Euphausiacea	148.37	2683	 	36.700584	-122.051506	1756256	1.7	2005-07-11 16:20:37.0	Ventana	34.164	00:08:19:29	8.913	V2683-01
 	transect	Phyllospadix	799.38	2674	 	36.752525	-122.204414	1799581	0.35	2005-06-08 17:51:32.0	Ventana	34.486	00:36:04:16	4.385	V2674-01
 	transect	Poeobius meseres	400.76	2681	 	36.696754	-122.05234	2493043	0.79	2005-07-07 17:45:16.0	Ventana	34.277	01:15:40:01	6.659	V2681-02HD
 	descend	Copepoda	438.2	2683	 	36.70151	-122.04944	1756685	0.84	2005-07-11 17:07:56.0	Ventana	34.275	00:55:34:17	6.759	V2683-01
 	descend	Mysidae	1200.54	2682	 	36.698277	-122.05912	1722204	0.68	2005-07-08 19:16:17.0	Ventana	34.574	03:08:55:03	3.371	V2682-04
 	descend	Chaetognatha	327.86	2693	 	36.69744	-122.06057	1758512	1.29	2005-07-25 19:47:15.0	Ventana	34.236	02:26:50:05	7.576	V2693-03
 	transect	Psolus squamatus	 	2687	 	 	 	1811110	 	2005-07-13 19:53:42.0	Ventana	 	03:18:43:15	 	V2687-04
 	ascend	Chuniphyes	693.18	2682	 	36.698887	-122.05942	1723339	0.29	2005-07-08 20:32:38.0	Ventana	34.412	04:24:46:00	5.117	V2682-05
 	ascend	Nanomia	179.1	2683	 	36.702583	-122.05071	1758129	1.79	2005-07-11 21:30:00.0	Ventana	34.159	05:02:54:00	8.791	V2683-05
 	transect	Poeobius meseres	600.57	2681	 	36.6969	-122.05263	2493795	0.3	2005-07-07 18:24:12.0	Ventana	34.388	01:54:32:26	5.476	V2681-02HD
 	descend	Dosidicus gigas	634.19	2681	 	36.697956	-122.05388	1715939	0.31	2005-07-07 18:29:50.2	Ventana	34.397	02:00:10:24	5.357	V2681-02
 	transect	Glyptocephalus zachirus	 	2687	 	 	 	1810681	 	2005-07-13 19:27:46.0	Ventana	 	02:53:29:29	 	V2687-03
 	transect	Phyllospadix	798.34	2674	 	36.751614	-122.21385	1801315	0.35	2005-06-08 18:37:25.0	Ventana	34.488	01:21:29:00	4.338	V2674-02
 	transect	Psolus squamatus	399.87	2687	 	36.788136	-122.1217	1809283	1.13	2005-07-13 17:38:17.0	Ventana	34.25	01:04:39:16	7.281	V2687-02
 	transect	Mesomyaria	1000.22	2669	 	36.730938	-122.23295	1683838	0.45	2005-05-25 18:36:23.0	Ventana	34.523	00:58:49:10	3.911	V2669-01
 	transect	Gastropoda sp.2	998.21	2669	 	36.73053	-122.22834	1694938	0.45	2005-05-25 18:02:49.0	Ventana	34.523	00:25:16:07	3.907	V2669-01
 	ascend	Appendicularia	272.15	2681	 	36.69972	-122.05492	1718319	1.4	2005-07-07 21:03:59.433	Ventana	34.229	04:32:19:04	7.82	V2681-05
 	descend	Euphausia 2	192.39	2681	 	36.69828	-122.05329	1713544	1.98	2005-07-07 17:03:30.507	Ventana	34.164	00:34:39:16	8.305	V2681-01
 	transect	molt	100.52	2681	 	36.698956	-122.053734	2489865	2.12	2005-07-07 16:52:02.0	Ventana	34.07	00:23:10:15	9.148	V2681-01HD
 	transect	Poeobius meseres	1001.05	2681	 	36.69505	-122.05096	2498570	0.47	2005-07-07 19:22:47.0	Ventana	34.531	02:52:27:24	3.866	V2681-03HD
 	transect	Mesomyaria	999.74	2669	 	36.73141	-122.236946	1687031	0.44	2005-05-25 19:05:52.0	Ventana	34.521	01:27:51:04	3.939	V2669-02
 	transect	Phyllospadix	801.22	2674	 	36.75195	-122.20928	1800886	0.36	2005-06-08 18:15:46.0	Ventana	34.49	01:00:17:18	4.318	V2674-01
 	transect	Mediaster	 	2687	 	 	 	1808854	 	2005-07-13 17:30:28.0	Ventana	 	00:57:20:18	 	V2687-01
 	descend	Apolemia	292.41	2693	 	36.69781	-122.061195	1758452	1.34	2005-07-25 19:37:48.0	Ventana	34.236	02:17:24:04	7.821	V2693-03
 	descend	Chaetognatha	391.75	2683	 	36.701477	-122.04974	1756625	0.99	2005-07-11 16:58:51.0	Ventana	34.256	00:46:32:00	6.992	V2683-01
 	transect	molt	100.57	2681	 	36.69983	-122.05429	2489542	2.13	2005-07-07 16:44:12.0	Ventana	34.067	00:15:20:18	9.146	V2681-01HD
 	transect	Stomphia	399.92	2687	 	36.78807	-122.12157	1809177	1.13	2005-07-13 17:36:36.0	Ventana	34.242	01:02:58:15	7.267	V2687-02
 	descend	Appendicularia	1184.84	2682	 	36.69856	-122.05835	1722264	0.67	2005-07-08 19:35:46.0	Ventana	34.57	03:28:23:15	3.392	V2682-04
 	transect	Brisaster	602.41	2680	 	36.790512	-122.23274	1806782	0.36	2005-06-27 20:20:19.0	Ventana	34.377	02:58:55:19	5.59	V2680-03
 	descend	Appendicularia	397.09	2682	 	36.69831	-122.05988	1720700	0.86	2005-07-08 17:37:25.0	Ventana	34.255	01:30:56:20	6.703	V2682-02
 	transect	Sebastolobus	 	2669	 	 	 	1737557	 	2005-05-25 13:51:26.0	Ventana	 	03:12:14:18	 	V2669-04
 	descend	Hormiphora	152.21	2693	 	36.6963	-122.05774	1758189	1.94	2005-07-25 17:56:53.0	Ventana	34.114	00:37:25:21	8.979	V2693-01
 	transect	molt	100.5	2681	 	36.699406	-122.05402	2489805	2.13	2005-07-07 16:51:02.0	Ventana	34.068	00:22:11:04	9.146	V2681-01HD
 	transect	Psolus squamatus	 	2687	 	 	 	1811050	 	2005-07-13 19:49:31.0	Ventana	 	03:14:31:24	 	V2687-04
 	transect	Phyllospadix	 	2687	 	 	 	1812355	 	2005-07-13 20:33:52.0	Ventana	 	03:58:50:01	 	V2687-04
 	transect	Lumpenus sagitta	196.66	2696	http://search.mbari.org/ARCHIVE/frameGrabs/Ventana/images/2696/00_43_02_10.jpg	36.80332	-122.123344	1813167	1.55	2005-08-01 17:14:44.0	Ventana	34.197	00:43:02:10	8.625	V2696-01
 	transect	Ophiuroidea	998.72	2669	 	36.7309	-122.22973	1651166	0.45	2005-05-25 18:12:22.0	Ventana	34.522	00:34:49:22	3.908	V2669-01
 	descend	Chaetognatha	161.57	2683	 	36.70084	-122.051384	1756316	1.69	2005-07-11 16:37:45.0	Ventana	34.178	00:25:26:22	8.792	V2683-01
 	ascend	Bathocyroe	1135.55	2682	 	36.698208	-122.05748	1722527	0.61	2005-07-08 19:55:51.0	Ventana	34.558	03:48:26:08	3.538	V2682-04
 	transect	Corallimorphus pilatus	 	2687	 	 	 	1808914	 	2005-07-13 17:31:51.0	Ventana	 	00:58:42:28	 	V2687-01
 	transect	Mesomyaria	1000.29	2669	 	36.731255	-122.241295	1689411	0.4	2005-05-25 19:35:35.0	Ventana	34.508	01:57:33:03	4.086	V2669-02
 	transect	Phyllospadix	800.1	2674	 	36.752632	-122.20039	1774110	0.29	2005-06-08 17:30:12.0	Ventana	34.461	00:14:46:05	4.65	V2674-01
 	cruise	Vertebrata	381.58	2690	http://search.mbari.org/ARCHIVE/frameGrabs/Ventana/images/2690/01_19_06_04.jpg	36.790134	-121.8872	20005443	0.94	2005-07-18 20:04:00.0	Ventana	34.267	01:19:06:04	6.967	V2690-01
 	descend	Poeobius meseres	1073.4	2683	 	36.705097	-122.048935	1757437	0.51	2005-07-11 19:27:04.0	Ventana	34.533	03:07:23:27	3.811	V2683-03
 	descend	Poeobius meseres	1003.7	2683	 	36.704098	-122.049774	1757377	0.44	2005-07-11 19:16:34.0	Ventana	34.521	02:56:55:16	4.0	V2683-03
 	transect	Mediaster	 	2687	 	 	 	1810787	 	2005-07-13 19:34:33.0	Ventana	 	03:00:15:25	 	V2687-03
 	transect	Chaetognatha	400.8	2681	 	36.695957	-122.051384	2492937	0.79	2005-07-07 17:41:45.0	Ventana	34.277	01:12:09:11	6.662	V2681-02HD
 	transect	Glyptocephalus zachirus	 	2687	 	 	 	1810298	 	2005-07-13 19:14:58.0	Ventana	 	02:40:42:26	 	V2687-03
 	transect	Euphausia	200.41	2681	 	36.698284	-122.05331	2490926	1.71	2005-07-07 17:09:53.0	Ventana	34.195	00:41:02:02	8.323	V2681-01HD
 	transect	Ophiuroidea	999.27	2669	http://search.mbari.org/ARCHIVE/frameGrabs/Ventana/images/2669/01_21_20_16.jpg	36.73142	-122.236244	1684696	0.44	2005-05-25 18:59:21.0	Ventana	34.52	01:21:20:16	3.941	V2669-02
 	ascend	Appendicularia	334.56	2693	 	36.692547	-122.06188	1759005	1.27	2005-07-25 21:14:51.0	Ventana	34.238	03:39:23:20	7.474	V2693-04
 	transect	Stomphia	399.5	2687	 	36.7894	-122.1252	1809666	1.15	2005-07-13 18:31:45.0	Ventana	34.24	01:58:03:29	7.303	V2687-02
 	transect	Ceriantharia sp. 1	599.94	2680	 	36.778492	-122.22368	1804402	0.36	2005-06-27 17:59:45.0	Ventana	34.379	00:39:52:03	5.583	V2680-01
 	cruise	Anthomastus ritteri	455.36	2688	 	36.803215	-122.0181	1677619	0.89	2005-07-14 17:34:00.887	Ventana	34.272	01:19:45:03	6.868	V2688-02
 	ascend	Acanthamunnopsis milleri	258.17	2681	 	36.697838	-122.05522	1719500	 	2005-07-07 21:29:59.0	Ventana	 	05:08:30:03	 	V2681-05
 	transect	Calycophorae	300.41	2681	 	36.697605	-122.05305	2492185	1.23	2005-07-07 17:22:51.0	Ventana	34.234	00:53:58:17	7.403	V2681-01HD
 	ascend	Leuroglossus stilbius	638.93	2681	 	36.698875	-122.054214	1717673	0.29	2005-07-07 20:27:52.83	Ventana	34.392	03:56:53:05	5.387	V2681-04
 	transect	Rathbunaster californicus	 	2687	 	 	 	1812415	 	2005-07-13 20:37:38.0	Ventana	 	04:02:35:25	 	V2687-04
 	transect	Calycophorae	800.89	2681	 	36.695663	-122.051575	2498187	0.32	2005-07-07 18:56:51.0	Ventana	34.475	02:26:34:06	4.494	V2681-03HD
 	cruise	LRJ Complex	455.7	2676	 	36.80286	-122.0293	1676314	0.59	2005-06-14 16:36:12.0	Ventana	34.336	00:20:20:22	6.261	V2676-01
 	cruise	Macrouridae	1014.3	2689	 	36.77143	-122.082886	1669606	0.53	2005-07-18 16:37:58.0	Ventana	34.526	00:01:02:27	3.909	V2689-01
 	transect	Mesomyaria	999.34	2669	 	36.73271	-122.25124	1737188	0.41	2005-05-25 20:40:27.0	Ventana	34.509	03:01:15:02	4.075	V2669-04
 	transect	Psolus squamatus	 	2687	http://search.mbari.org/ARCHIVE/frameGrabs/Ventana/images/2687/00_41_09_03.jpg	 	 	1807534	 	2005-07-13 17:14:15.0	Ventana	 	00:41:09:03	 	V2687-01
 	transect	Caridea sp.1	1000.24	2669	 	36.731842	-122.24518	1735361	0.4	2005-05-25 19:58:09.0	Ventana	34.506	02:19:40:06	4.099	V2669-03
 	transect	Ceriantharia sp. 2	1000.46	2669	 	36.732094	-122.24798	1736173	0.4	2005-05-25 20:18:36.0	Ventana	34.507	02:40:06:03	4.08	V2669-03
 	ascend	Appendicularia	846.95	2681	 	36.69859	-122.055855	1717383	0.32	2005-07-07 19:55:31.297	Ventana	34.489	03:24:34:04	4.371	V2681-04
 	transect	Mysidae 2	1000.99	2681	 	36.695644	-122.05171	2498630	0.48	2005-07-07 19:25:58.0	Ventana	34.534	02:55:38:16	3.85	V2681-03HD
 	transect	Microstomus pacificus	199.69	2696	 	36.804333	-122.126236	1813430	1.52	2005-08-01 17:45:30.0	Ventana	34.209	01:13:24:05	8.663	V2696-02
 	transect	Nanomia bijuga	200.43	2681	 	36.69828	-122.05329	2490174	1.7	2005-07-07 17:05:28.0	Ventana	34.197	00:36:35:28	8.358	V2681-01HD
 	descend	Aegina	708.76	2682	 	36.698597	-122.05995	1721452	0.28	2005-07-08 18:16:59.0	Ventana	34.435	02:10:03:11	4.958	V2682-03
 	transect	Mesomyaria	1000.32	2669	 	36.731625	-122.24326	1733793	0.41	2005-05-25 19:46:00.0	Ventana	34.51	02:07:31:02	4.063	V2669-03
 	transect	Phyllospadix	800.69	2674	 	36.752506	-122.202896	1799258	0.35	2005-06-08 17:43:00.0	Ventana	34.486	00:27:33:02	4.376	V2674-01
 	transect	Mesomyaria	997.36	2669	 	36.730637	-122.22748	1649154	0.45	2005-05-25 17:57:05.0	Ventana	34.52	00:19:33:20	3.909	V2669-01
 	ascend	Cydippida	370.94	2693	 	36.696896	-122.06031	1758742	1.2	2005-07-25 20:32:54.0	Ventana	34.232	03:12:26:13	7.205	V2693-03
 	transect	Phyllospadix	 	2687	 	 	 	1809929	 	2005-07-13 18:48:14.0	Ventana	 	02:14:00:09	 	V2687-03
 	transect	Psolus squamatus	 	2687	 	 	 	1810035	 	2005-07-13 18:51:50.0	Ventana	 	02:17:36:15	 	V2687-03
 	ascend	sinker	782.65	2682	 	36.698666	-122.05894	1723279	0.28	2005-07-08 20:26:02.0	Ventana	34.45	04:18:10:02	4.741	V2682-05
 	ascend	Leuroglossus stilbius	582.45	2682	 	36.69839	-122.06229	1723569	0.37	2005-07-08 21:05:19.0	Ventana	34.365	04:57:25:10	5.756	V2682-05
 	descend	Chaetognatha	674.79	2683	 	36.702034	-122.04894	1757068	0.31	2005-07-11 17:52:59.0	Ventana	34.419	01:37:06:05	5.123	V2683-02
 	cruise	Ophiurida	277.45	2688	 	36.809017	-122.02035	1677882	1.45	2005-07-14 18:24:57.0	Ventana	34.204	02:10:13:02	8.045	V2688-03
 	transect	Mesomyaria	1000.41	2669	 	36.731556	-122.24288	1694555	0.4	2005-05-25 19:43:54.0	Ventana	34.505	02:05:51:09	4.096	V2669-02
 	transect	Hastigerinella digitata	300.42	2681	 	36.69621	-122.05184	2492554	1.24	2005-07-07 17:27:35.0	Ventana	34.237	00:58:41:15	7.412	V2681-01HD
 	transect	Porifera sp. 1	 	2687	 	 	 	1811170	 	2005-07-13 19:59:04.0	Ventana	 	03:24:04:16	 	V2687-04
 	transect	Psolus squamatus	 	2687	http://search.mbari.org/ARCHIVE/frameGrabs/Ventana/images/2687/02_13_09_08.jpg	 	 	1809869	 	2005-07-13 18:47:23.0	Ventana	 	02:13:09:08	 	V2687-03
 	transect	Ophiuroidea	999.23	2669	 	36.73139	-122.23607	1684530	0.44	2005-05-25 18:57:55.0	Ventana	34.52	01:19:55:03	3.939	V2669-02
 	transect	Pennatulacea sp.1	599.79	2680	 	36.778053	-122.223206	1804342	0.36	2005-06-27 17:53:34.0	Ventana	34.377	00:33:41:10	5.591	V2680-01
 	transect	Nanomia bijuga	400.76	2681	 	36.697166	-122.052795	2493103	0.79	2005-07-07 17:46:58.0	Ventana	34.277	01:17:23:00	6.661	V2681-02HD
 	descend	Nanomia	400.53	2681	 	36.69567	-122.051056	1715247	0.79	2005-07-07 17:39:31.733	Ventana	34.276	01:09:55:13	6.674	V2681-02
 	transect	Mesomyaria	999.44	2669	 	36.731068	-122.23394	1684004	0.45	2005-05-25 18:41:26.0	Ventana	34.522	01:03:27:05	3.913	V2669-02
 	ascend	Lobata	371.68	2693	 	36.695614	-122.060646	1758802	1.2	2005-07-25 20:53:30.0	Ventana	34.237	03:18:03:17	7.206	V2693-04
 	transect	Caridea sp.1	598.78	2680	 	36.78207	-122.227135	1805094	0.36	2005-06-27 18:44:24.0	Ventana	34.377	01:23:29:18	5.593	V2680-02
 	transect	Psolus squamatus	 	2687	 	 	 	1808591	 	2005-07-13 17:24:36.0	Ventana	 	00:51:28:26	 	V2687-01
 	transect	Mediaster	 	2687	 	 	 	1810990	 	2005-07-13 19:46:42.0	Ventana	 	03:11:43:22	 	V2687-04
 	transect	chuniphyes	500.6	2681	 	36.69607	-122.05158	2493629	0.43	2005-07-07 18:03:03.0	Ventana	34.347	01:33:26:18	6.006	V2681-02HD
 	stationary	Merluccius productus	501.99	2694	 	36.784576	-122.20049	1676577	0.78	2005-07-27 18:52:55.0	Ventana	34.282	01:35:36:01	6.544	V2694-02
 	ascend	Bathocyroe	666.31	2681	 	36.69876	-122.05417	1717646	0.29	2005-07-07 20:25:42.88	Ventana	34.41	03:54:43:26	5.213	V2681-04
 	transect	Mesomyaria	801.38	2674	 	36.75222	-122.20755	1800074	0.38	2005-06-08 18:07:21.0	Ventana	34.49	00:51:53:02	4.327	V2674-01
 	transect	Stomphia	399.66	2687	 	36.789143	-122.12417	1809546	1.17	2005-07-13 18:15:01.0	Ventana	34.24	01:41:21:01	7.359	V2687-02
 	transect	Ceriantharia sp. 1	802.2	2674	http://search.mbari.org/ARCHIVE/frameGrabs/Ventana/images/2674/00_44_20_20.jpg	36.752308	-122.20595	1799871	0.36	2005-06-08 17:59:48.0	Ventana	34.49	00:44:20:20	4.332	V2674-01
 	transect	Neptunea amianta	800.41	2674	 	36.751766	-122.21184	1801149	0.35	2005-06-08 18:27:23.0	Ventana	34.489	01:11:27:15	4.341	V2674-02
 	transect	Psolus squamatus	399.84	2687	http://search.mbari.org/ARCHIVE/frameGrabs/Ventana/images/2687/01_02_17_21.jpg	36.788036	-122.12153	1809117	1.13	2005-07-13 17:35:55.0	Ventana	34.244	01:02:17:21	7.27	V2687-02
 	ascend	Crustacea	947.63	2681	 	36.69743	-122.05384	1716894	0.41	2005-07-07 19:41:25.633	Ventana	34.515	03:10:28:25	4.061	V2681-04
 	ascend	Hastigerinella digitata	357.79	2681	 	36.69936	-122.05501	1718056	1.03	2005-07-07 20:51:53.377	Ventana	34.258	04:20:14:10	7.139	V2681-05
 	ascend	sinker	541.5	2682	 	36.698326	-122.06279	1723629	0.41	2005-07-08 21:09:55.0	Ventana	34.355	05:01:35:18	5.965	V2682-06
 	cruise	Sebastolobus	611.29	2688	 	36.79579	-122.01969	1677356	0.45	2005-07-14 16:36:57.0	Ventana	34.387	00:23:17:15	5.502	V2688-01
 	descend	Appendicularia	554.49	2681	 	36.695683	-122.051056	1715616	0.36	2005-07-07 18:06:22.36	Ventana	34.367	01:36:44:12	5.749	V2681-02
 	transect	Psolus squamatus	 	2687	 	 	 	1810095	 	2005-07-13 18:55:44.0	Ventana	 	02:21:29:14	 	V2687-03
 	transect	Mediaster	 	2687	 	 	 	1811373	 	2005-07-13 20:09:56.0	Ventana	 	03:34:55:06	 	V2687-04
 	transect	Mesomyaria	1000.54	2669	 	36.732395	-122.24973	1736699	0.41	2005-05-25 20:31:22.0	Ventana	34.51	02:52:49:14	4.066	V2669-03
 	transect	Psolus squamatus	 	2687	 	 	 	1810238	 	2005-07-13 19:11:22.0	Ventana	 	02:37:06:18	 	V2687-03
 	transect	Mesomyaria	998.8	2669	 	36.73285	-122.25187	1737248	0.4	2005-05-25 20:44:12.0	Ventana	34.509	03:05:00:03	4.075	V2669-04
 	transect	Pennatulacea sp.1	599.38	2680	 	36.779453	-122.22455	1804522	0.36	2005-06-27 18:10:17.0	Ventana	34.377	00:50:23:03	5.605	V2680-01
 	transect	Ophiuroidea	1000.09	2669	 	36.731052	-122.23937	1689148	0.41	2005-05-25 19:23:38.0	Ventana	34.517	01:45:37:00	4.046	V2669-02
 	descend	Haliscera	298.83	2682	 	36.69921	-122.06058	1720132	1.18	2005-07-08 16:55:26.0	Ventana	34.237	00:49:28:18	7.373	V2682-01
 	ascend	Cydippida	185.65	2682	 	36.696453	-122.06066	1723772	1.96	2005-07-08 21:31:53.0	Ventana	34.175	05:23:34:14	8.401	V2682-06
 	transect	Mesomyaria	998.01	2669	 	36.730556	-122.22828	1649357	0.45	2005-05-25 18:02:22.0	Ventana	34.523	00:24:50:09	3.907	V2669-01
 	cruise	Pennatulacea	93.55	2688	 	36.816063	-122.016685	1679386	1.95	2005-07-14 20:17:55.0	Ventana	34.093	04:02:40:00	8.93	V2688-04
 	ascend	Appendicularia	527.36	2681	 	36.698967	-122.05425	1717733	0.43	2005-07-07 20:33:19.66	Ventana	34.348	04:02:20:20	6.033	V2681-04
 	transect	Poeobius meseres	700.64	2681	 	36.696865	-122.052734	2497698	0.29	2005-07-07 18:40:20.0	Ventana	34.436	02:10:03:27	4.928	V2681-03HD
 	transect	Umbellula lindahli	600.2	2680	 	36.783962	-122.22939	1805477	0.35	2005-06-27 19:12:41.0	Ventana	34.379	01:51:44:14	5.594	V2680-02
 	transect	Lycenchelys crotalinus	1000.25	2669	http://search.mbari.org/ARCHIVE/frameGrabs/Ventana/images/2669/02_03_06_13.jpg	36.731503	-122.24232	1694495	0.41	2005-05-25 19:41:09.0	Ventana	34.509	02:03:06:13	4.06	V2669-02
 	ascend	Nanomia	261.18	2681	 	36.69884	-122.05701	1719011	1.42	2005-07-07 21:20:51.427	Ventana	34.23	04:49:10:02	7.955	V2681-05
 	transect	Mesomyaria	801.7	2674	 	36.7509	-122.219864	1803650	0.35	2005-06-08 19:05:53.0	Ventana	34.487	01:49:55:00	4.37	V2674-02
 	transect	Stomphia	800.77	2674	http://search.mbari.org/ARCHIVE/frameGrabs/Ventana/images/2674/00_25_25_06.jpg	36.752567	-122.20243	1799198	0.34	2005-06-08 17:40:51.0	Ventana	34.481	00:25:25:06	4.407	V2674-01
 	transect	Copepoda	800.87	2681	 	36.69633	-122.05234	2498247	0.31	2005-07-07 18:59:58.0	Ventana	34.475	02:29:41:01	4.5	V2681-03HD
 	transect	Ceriantharia sp. 2	999.8	2669	 	36.731792	-122.24456	1734379	0.4	2005-05-25 19:53:44.0	Ventana	34.506	02:15:14:28	4.08	V2669-03
 	transect	Stomphia	801.3	2674	 	36.75195	-122.20974	1800946	0.35	2005-06-08 18:18:44.0	Ventana	34.489	01:02:48:27	4.328	V2674-02
 	transect	Microstomus pacificus	 	2687	 	 	 	1807045	 	2005-07-13 16:56:18.0	Ventana	 	00:23:12:26	 	V2687-01
 	transect	Phyllospadix	800.58	2674	 	36.7521	-122.20851	1800766	0.35	2005-06-08 18:11:57.0	Ventana	34.491	00:56:29:06	4.326	V2674-01
 	transect	Psolus squamatus	 	2687	 	 	 	1807594	 	2005-07-13 17:16:30.0	Ventana	 	00:43:23:17	 	V2687-01
 	transect	Phyllospadix	202.82	2696	 	36.805256	-122.12819	1813656	1.46	2005-08-01 18:11:49.0	Ventana	34.216	01:39:41:14	8.593	V2696-02
 	ascend	Appendicularia	785.18	2681	 	36.698887	-122.05647	1717443	0.28	2005-07-07 20:03:58.31	Ventana	34.458	03:33:01:04	4.699	V2681-04
 	transect	phialidium	500.6	2681	 	36.697994	-122.053734	2493246	0.44	2005-07-07 17:54:47.0	Ventana	34.347	01:25:09:12	6.021	V2681-02HD
 	transect	Psolus squamatus	 	2687	 	 	 	1808974	 	2005-07-13 17:32:53.0	Ventana	 	00:59:45:14	 	V2687-01
 	cruise	Microstomus pacificus	998.47	2669	 	36.730507	-122.22683	1649034	0.45	2005-05-25 17:51:23.5	Ventana	34.521	00:13:52:08	3.909	V2669-01
 	transect	Ceriantharia sp. 2	1000.33	2669	 	36.731922	-122.24664	1735744	0.41	2005-05-25 20:09:50.0	Ventana	34.509	02:31:18:27	4.065	V2669-03
 	transect	molt	50.43	2681	 	36.69983	-122.05429	2485616	2.98	2005-07-07 16:36:13.0	Ventana	33.915	00:07:22:07	9.622	V2681-01HD
 	descend	sinker	1036.97	2682	 	36.698322	-122.05915	1722038	0.47	2005-07-08 19:02:43.0	Ventana	34.533	02:55:44:15	3.865	V2682-03
 	transect	Neptunea amianta	 	2669	 	 	 	1737617	 	2005-05-25 13:53:23.0	Ventana	 	03:14:10:27	 	V2669-04
 	transect	Ceriantharia sp. 1	602.01	2680	 	36.79136	-122.23293	1806842	0.36	2005-06-27 20:27:25.0	Ventana	34.379	03:06:01:09	5.587	V2680-03
 	descend	Copepoda	443.64	2682	 	36.698322	-122.05967	1720760	0.59	2005-07-08 17:47:48.0	Ventana	34.31	01:41:17:21	6.353	V2682-02
 	transect	Microstomus pacificus	204.01	2696	 	36.807587	-122.13122	1813859	1.46	2005-08-01 18:43:40.0	Ventana	34.226	02:10:45:07	8.653	V2696-03
 	transect	Glyptocephalus zachirus	198.84	2696	 	36.80374	-122.12482	1813287	1.53	2005-08-01 17:31:21.0	Ventana	34.206	00:59:38:14	8.642	V2696-01
 	transect	Neptunea amianta	1000.26	2669	 	36.73128	-122.240944	1689351	0.41	2005-05-25 19:33:37.0	Ventana	34.51	01:55:34:17	4.056	V2669-02
 	transect	Sebastolobus altivelis	800.09	2674	 	36.752625	-122.201035	1774170	0.33	2005-06-08 17:33:50.0	Ventana	34.474	00:18:24:08	4.439	V2674-01
 	transect	Sebastolobus	 	2687	 	 	 	1808794	 	2005-07-13 17:29:37.0	Ventana	 	00:56:29:29	 	V2687-01
 	ascend	Lycodapus	1154.22	2683	 	36.708035	-122.048874	1757760	0.69	2005-07-11 20:35:20.0	Ventana	34.568	04:09:42:06	3.418	V2683-04
 	transect	Sebastolobus altivelis	800.55	2674	 	36.75117	-122.216774	1803447	0.35	2005-06-08 18:52:17.0	Ventana	34.486	01:36:20:16	4.366	V2674-02
 	descend	Chaetognatha	103.58	2681	 	36.698288	-122.0533	1713484	2.21	2005-07-07 16:56:16.867	Ventana	34.06	00:27:26:10	9.024	V2681-01
 	cruise	Rathbunaster californicus	104.95	2676	 	36.805237	-122.04353	1677190	1.97	2005-06-14 19:25:59.0	Ventana	34.159	03:04:43:09	8.428	V2676-03
 	descend	Nanomia	169.87	2682	 	36.699883	-122.06075	1719929	2.24	2005-07-08 16:19:36.0	Ventana	34.122	00:13:39:23	8.307	V2682-01
 	transect	Phyllospadix	999.93	2669	 	36.730923	-122.231445	1683635	0.45	2005-05-25 18:26:52.0	Ventana	34.521	00:49:18:15	3.919	V2669-01
 	descend	Appendicularia	833.86	2683	 	36.702797	-122.048485	1757211	0.33	2005-07-11 18:23:10.0	Ventana	34.479	02:07:13:19	4.451	V2683-02
 	transect	Actiniaria sp. 3	 	2687	 	 	 	1810621	 	2005-07-13 19:25:19.0	Ventana	 	02:51:02:23	 	V2687-03
 	transect	Psolus squamatus	 	2687	 	 	 	1811460	 	2005-07-13 20:13:45.0	Ventana	 	03:38:45:03	 	V2687-04
 	transect	Mediaster	 	2687	 	 	 	1812738	 	2005-07-13 20:55:31.0	Ventana	 	04:20:00:28	 	V2687-05
 	descend	Solmissus	266.75	2683	 	36.70095	-122.05036	1756459	1.37	2005-07-11 16:51:39.0	Ventana	34.229	00:39:20:09	7.876	V2683-01
 	descend	Hormiphora	205.6	2693	 	36.696045	-122.05838	1758309	1.81	2005-07-25 18:25:44.0	Ventana	34.186	01:05:49:12	8.701	V2693-02
 	transect	Psolus squamatus	399.88	2687	 	36.788033	-122.12149	1809057	1.14	2005-07-13 17:35:35.0	Ventana	34.24	01:01:57:11	7.282	V2687-02
 	transect	Psolus squamatus	 	2687	 	 	 	1810907	 	2005-07-13 19:42:28.0	Ventana	 	03:07:29:12	 	V2687-04
 	transect	Mesomyaria	998.29	2669	 	36.731026	-122.23031	1651286	0.45	2005-05-25 18:16:55.0	Ventana	34.522	00:39:21:18	3.911	V2669-01
 	descend	Lensia	252.89	2682	 	36.699867	-122.060814	1719989	1.39	2005-07-08 16:23:23.0	Ventana	34.232	00:17:28:06	7.899	V2682-01
 	transect	Mesomyaria	800.76	2674	 	36.75176	-122.21118	1801089	0.35	2005-06-08 18:24:46.0	Ventana	34.489	01:08:50:22	4.342	V2674-02
 	transect	Phyllospadix	800.83	2674	 	36.751083	-122.217514	1803507	0.35	2005-06-08 18:56:02.0	Ventana	34.49	01:40:04:18	4.333	V2674-02
 	transect	Mediaster	 	2687	 	 	 	1812212	 	2005-07-13 20:29:11.0	Ventana	 	03:54:09:24	 	V2687-04
 	ascend	Copepoda	709.7	2681	 	36.698708	-122.05504	1717586	0.29	2005-07-07 20:19:47.867	Ventana	34.431	03:48:49:06	5.031	V2681-04
 	transect	molt	100.49	2681	 	36.699825	-122.05429	2489685	2.13	2005-07-07 16:47:53.0	Ventana	34.067	00:19:01:11	9.15	V2681-01HD
 	stationary	Merluccius productus	502.38	2694	 	36.784527	-122.20048	1676664	0.72	2005-07-27 20:28:18.0	Ventana	34.292	03:00:26:00	6.424	V2694-03
 	transect	Asteronyx loveni	998.81	2669	 	36.731148	-122.23409	1684064	0.45	2005-05-25 18:42:31.0	Ventana	34.523	01:04:32:03	3.914	V2669-02
 	ascend	Medusae	364.88	2693	 	36.69442	-122.061035	1758862	1.24	2005-07-25 21:01:25.0	Ventana	34.239	03:25:58:25	7.357	V2693-04
 	transect	Pennatulacea sp.1	600.72	2680	 	36.786663	-122.23119	1805887	0.36	2005-06-27 19:40:53.0	Ventana	34.377	02:19:32:11	5.602	V2680-03
 	transect	Ophiuroidea	999.25	2669	 	36.731018	-122.23213	1683718	0.45	2005-05-25 18:30:39.0	Ventana	34.521	00:53:05:02	3.916	V2669-01
 	transect	Parastichopus leukothele	199.13	2696	 	36.80379	-122.125	1813310	1.53	2005-08-01 17:32:46.0	Ventana	34.204	01:01:03:24	8.632	V2696-01
 	ascend	Chaetognatha	924.23	2682	 	36.698017	-122.05849	1723159	0.37	2005-07-08 20:12:42.0	Ventana	34.504	04:04:51:19	4.206	V2682-05
 	transect	Neptunea amianta	598.93	2680	 	36.780148	-122.22517	1804605	0.35	2005-06-27 18:19:15.0	Ventana	34.381	00:59:20:19	5.555	V2680-01
 	ascend	Appendicularia	329.76	2681	 	36.699684	-122.055214	1718139	1.18	2005-07-07 20:56:15.633	Ventana	34.239	04:24:36:09	7.335	V2681-05
 	descend	Appendicularia	850.69	2683	 	36.70289	-122.04837	1757234	0.34	2005-07-11 18:25:35.0	Ventana	34.484	02:09:39:18	4.385	V2683-02
 	transect	Porifera sp. 1	 	2687	 	 	 	1810155	 	2005-07-13 19:01:30.0	Ventana	 	02:27:15:03	 	V2687-03
 	transect	Mesomyaria	1000.12	2669	 	36.7312	-122.240486	1689268	0.41	2005-05-25 19:30:45.0	Ventana	34.511	01:52:42:15	4.057	V2669-02
 	ascend	Appendicularia	425.42	2681	 	36.699085	-122.05424	1717793	0.74	2005-07-07 20:38:11.3	Ventana	34.281	04:07:11:15	6.613	V2681-04
 	descend	Appendicularia	871.55	2681	 	36.696953	-122.05318	1716488	0.35	2005-07-07 19:05:09.9	Ventana	34.498	02:34:52:05	4.247	V2681-03
 	descend	Poeobius meseres	1075.56	2682	 	36.698315	-122.059166	1722061	0.51	2005-07-08 19:05:23.0	Ventana	34.541	02:58:24:20	3.754	V2682-03
 	transect	Allocentrotus fragilis	 	2687	 	 	 	1811253	 	2005-07-13 20:05:30.0	Ventana	 	03:30:29:27	 	V2687-04
 	ascend	Cydippida	370.77	2693	 	36.696266	-122.06083	1758655	1.2	2005-07-25 20:26:04.0	Ventana	34.232	03:05:37:12	7.167	V2693-03
 	transect	Umbellula lindahli	600.63	2680	http://search.mbari.org/ARCHIVE/frameGrabs/Ventana/images/2680/00_23_46_28.jpg	36.77722	-122.2224	1804259	0.36	2005-06-27 17:43:39.0	Ventana	34.379	00:23:46:28	5.579	V2680-01
 	transect	Mediaster	 	2687	 	 	 	1812535	 	2005-07-13 20:44:23.0	Ventana	 	04:08:54:12	 	V2687-05
 	ascend	Appendicularia	595.54	2682	 	36.69876	-122.0609	1723482	0.38	2005-07-08 20:49:17.0	Ventana	34.373	04:41:23:18	5.657	V2682-05
 	ascend	Nanomia	135.85	2693	 	36.690773	-122.06295	1759268	2.0	2005-07-25 21:32:10.0	Ventana	34.079	03:56:41:03	9.165	V2693-04
 	transect	Phyllospadix	1000.07	2669	 	36.731224	-122.23838	1688862	0.43	2005-05-25 19:17:42.0	Ventana	34.516	01:39:41:05	3.976	V2669-02
 	ascend	Bathylagidae	498.6	2683	 	36.70439	-122.05058	1757986	0.57	2005-07-11 21:16:22.0	Ventana	34.317	04:49:13:28	6.313	V2683-05
 	transect	Porifera sp. 1	 	2687	 	 	 	1810561	 	2005-07-13 19:22:30.0	Ventana	 	02:48:14:12	 	V2687-03
 	cruise	sediment	1230.86	2683	 	36.70581	-122.04785	1757557	0.74	2005-07-11 19:53:11.0	Ventana	34.578	03:27:34:06	3.303	V2683-04
 	transect	Teuthoidea	400.74	2681	 	36.697887	-122.0536	2493223	0.79	2005-07-07 17:49:57.0	Ventana	34.279	01:20:20:08	6.66	V2681-02HD
 	transect	Poeobius meseres	1000.95	2681	 	36.696526	-122.05291	2498713	0.47	2005-07-07 19:30:27.0	Ventana	34.53	03:00:07:24	3.889	V2681-03HD
 	transect	Ceriantharia sp. 2	1000.03	2669	 	36.73169	-122.24359	1733853	0.41	2005-05-25 19:47:48.0	Ventana	34.511	02:09:20:14	4.072	V2669-03
 	transect	Phyllospadix	800.86	2674	 	36.75211	-122.20834	1800743	0.35	2005-06-08 18:11:10.0	Ventana	34.488	00:55:41:12	4.328	V2674-01
 	transect	Mesomyaria	999.98	2669	 	36.731422	-122.23677	1686888	0.44	2005-05-25 19:04:03.0	Ventana	34.52	01:26:02:12	3.943	V2669-02
 	transect	Psolus squamatus	 	2687	 	 	 	1808711	 	2005-07-13 17:27:37.0	Ventana	 	00:54:29:14	 	V2687-01
 	transect	Diogenidae	599.49	2680	 	36.78325	-122.22864	1805357	0.36	2005-06-27 19:05:21.0	Ventana	34.377	01:44:25:12	5.602	V2680-02
 	transect	Ophiuroidea	999.6	2669	 	36.731426	-122.23664	1684816	0.44	2005-05-25 19:03:16.0	Ventana	34.521	01:25:15:14	3.939	V2669-02
 	transect	Neptunea amianta	998.21	2669	 	36.732944	-122.25222	1737391	0.41	2005-05-25 20:46:35.0	Ventana	34.508	03:07:22:18	4.075	V2669-04
 	ascend	Bathochordaeus	258.17	2681	 	36.697838	-122.05522	1719583	 	2005-07-07 21:29:59.0	Ventana	 	05:15:44:02	 	V2681-05
 	transect	Mediaster	 	2687	 	 	 	1807068	 	2005-07-13 16:57:16.0	Ventana	 	00:24:10:20	 	V2687-01
 	transect	Mediaster	 	2687	 	 	 	1811313	 	2005-07-13 20:06:45.0	Ventana	 	03:31:45:01	 	V2687-04
 	transect	Glyptocephalus zachirus	 	2687	 	 	 	1812618	 	2005-07-13 20:47:56.0	Ventana	 	04:12:27:04	 	V2687-05
 	descend	Appendicularia	518.35	2683	 	36.701458	-122.04915	1756888	0.6	2005-07-11 17:41:12.0	Ventana	34.311	01:25:17:15	6.323	V2683-02
 	transect	Solaster borealis	1000.4	2669	 	36.731464	-122.242195	1694472	0.4	2005-05-25 19:40:33.0	Ventana	34.509	02:02:30:17	4.069	V2669-02
 	transect	Rathbunaster californicus	202.08	2696	 	36.805256	-122.12819	1813633	1.5	2005-08-01 18:08:16.0	Ventana	34.211	01:36:08:04	8.669	V2696-02
 	transect	Stomphia	1000.06	2669	 	36.731087	-122.239876	1689208	0.41	2005-05-25 19:27:00.0	Ventana	34.51	01:48:57:25	4.062	V2669-02
 	transect	Phyllospadix	999.94	2669	 	36.732594	-122.25042	1736985	0.41	2005-05-25 20:36:11.0	Ventana	34.509	02:57:39:15	4.07	V2669-03
 	ascend	Chaetognatha	345.68	2693	 	36.69356	-122.06133	1758922	1.25	2005-07-25 21:09:05.0	Ventana	34.236	03:33:38:08	7.385	V2693-04
 	descend	Copepoda	819.9	2682	 	36.698357	-122.05953	1721715	0.31	2005-07-08 18:43:13.0	Ventana	34.476	02:36:15:22	4.482	V2682-03
 	descend	Aegina	797.84	2683	 	36.70266	-122.04879	1757151	0.36	2005-07-11 18:00:42.0	Ventana	34.459	01:44:47:15	4.639	V2683-02
 	cruise	Chionoecetes tanneri	1211.65	2683	 	36.706703	-122.047646	1757640	0.73	2005-07-11 20:12:35.0	Ventana	34.576	03:46:57:27	3.33	V2683-04
 	transect	Porifera sp. 1	 	2687	 	 	 	1810501	 	2005-07-13 19:21:01.0	Ventana	 	02:46:45:04	 	V2687-03
 	transect	Mediaster	 	2687	 	 	 	1810215	 	2005-07-13 19:09:40.0	Ventana	 	02:35:24:20	 	V2687-03
 	ascend	Nanomia	254.15	2682	 	36.696793	-122.06108	1723749	1.39	2005-07-08 21:28:58.0	Ventana	34.233	05:20:38:02	7.942	V2682-06
 	descend	Salpida	280.42	2682	 	36.699738	-122.060844	1720049	1.32	2005-07-08 16:34:12.0	Ventana	34.226	00:28:15:11	7.649	V2682-01
 	transect	Phyllospadix	799.41	2674	 	36.752457	-122.20517	1799724	0.36	2005-06-08 17:55:40.0	Ventana	34.486	00:40:12:10	4.357	V2674-01
 	transect	Ceriantharia sp. 1	603.19	2680	 	36.78878	-122.23243	1805970	0.35	2005-06-27 20:03:25.0	Ventana	34.38	02:42:02:13	5.587	V2680-03
 	ascend	Appendicularia	1171.88	2682	 	36.698273	-122.057495	1722467	0.65	2005-07-08 19:53:28.0	Ventana	34.564	03:46:04:06	3.449	V2682-04
 	ascend	Nanomia	196.8	2693	 	36.690613	-122.06284	1759208	1.8	2005-07-25 21:28:35.0	Ventana	34.182	03:53:06:17	8.884	V2693-04
 	transect	Calycophorae	901.01	2681	 	36.695442	-122.05126	2498450	0.39	2005-07-07 19:13:42.0	Ventana	34.505	02:43:23:19	4.171	V2681-03HD
 	transect	Leptomedusae	200.43	2681	 	36.69828	-122.05329	2490091	1.7	2005-07-07 17:04:38.0	Ventana	34.197	00:35:46:02	8.36	V2681-01HD
 	transect	Ceriantharia sp. 2	1000.49	2669	 	36.732025	-122.24741	1735887	0.4	2005-05-25 20:15:01.0	Ventana	34.509	02:36:29:29	4.073	V2669-03
 	transect	Phyllospadix	 	2687	 	 	 	1806985	 	2005-07-13 16:52:54.0	Ventana	 	00:19:49:05	 	V2687-01
 	transect	Nanomia bijuga	200.39	2681	 	36.698307	-122.05339	2491189	1.68	2005-07-07 17:12:38.0	Ventana	34.2	00:43:46:23	8.337	V2681-01HD
 	cruise	Alepocephalus tenebrosus	612.3	2688	 	36.79528	-122.01907	1677333	0.45	2005-07-14 16:33:33.133	Ventana	34.39	00:19:52:27	5.505	V2688-01
 	ascend	Chaetognatha	256.92	2681	 	36.697968	-122.05501	1719237	1.46	2005-07-07 21:26:16.4	Ventana	34.224	04:54:35:19	7.989	V2681-05
 	transect	Ceriantharia sp. 2	998.17	2669	 	36.733017	-122.2527	1737474	0.4	2005-05-25 20:49:05.0	Ventana	34.509	03:09:54:07	4.074	V2669-04
 	transect	Lycenchelys camchatica	801.99	2674	 	36.75225	-122.20688	1799991	0.37	2005-06-08 18:04:12.0	Ventana	34.49	00:48:44:14	4.328	V2674-01
 	transect	Pennatulacea sp.1	602.59	2680	 	36.789658	-122.232574	1806722	0.35	2005-06-27 20:12:44.0	Ventana	34.379	02:51:20:20	5.587	V2680-03
 	transect	Mediaster	 	2687	 	 	 	1811866	 	2005-07-13 20:27:38.0	Ventana	 	03:52:36:22	 	V2687-04
 	transect	Ophiuroidea	999.78	2669	 	36.73134	-122.23788	1687557	0.44	2005-05-25 19:13:50.0	Ventana	34.52	01:35:48:29	3.943	V2669-02
 	descend	Calycophorae	539.44	2682	 	36.698612	-122.05977	1720880	0.36	2005-07-08 18:03:59.0	Ventana	34.368	01:57:29:01	5.751	V2682-02
 	descend	Appendicularia	502.28	2683	 	36.701538	-122.049385	1756805	0.68	2005-07-11 17:27:03.0	Ventana	34.304	01:11:10:25	6.47	V2683-02
 	transect	Mediaster	 	2687	 	 	 	1808651	 	2005-07-13 17:26:16.0	Ventana	 	00:53:09:08	 	V2687-01
 	transect	Gastropoda sp.2	1000.24	2669	 	36.730957	-122.233376	1695104	0.45	2005-05-25 18:38:32.0	Ventana	34.522	01:00:57:08	3.912	V2669-01
 	descend	Appendicularia	360.94	2682	 	36.698586	-122.06039	1720335	1.0	2005-07-08 17:22:32.0	Ventana	34.255	01:16:04:01	7.079	V2682-02
 	transect	Mesomyaria	999.97	2669	 	36.730976	-122.23257	1683778	0.45	2005-05-25 18:34:08.0	Ventana	34.521	00:56:34:16	3.912	V2669-01
 	transect	Rathbunaster californicus	204.04	2696	 	36.805767	-122.12911	1813716	1.49	2005-08-01 18:19:30.0	Ventana	34.213	01:47:21:19	8.63	V2696-02
 	transect	Sebastolobus	999.58	2669	 	36.73195	-122.24613	1735624	0.41	2005-05-25 20:04:40.0	Ventana	34.508	02:26:10:11	4.063	V2669-03
 	ascend	Aegina	673.03	2683	 	36.7055	-122.049515	1757903	0.31	2005-07-11 21:07:42.0	Ventana	34.428	04:40:34:14	5.042	V2683-05
 	transect	Sebastolobus altivelis	798.95	2674	 	36.75144	-122.21473	1801375	0.35	2005-06-08 18:43:05.0	Ventana	34.49	01:27:08:19	4.332	V2674-02
 	ascend	Cydippida 2	961.94	2681	 	36.69725	-122.05367	1716834	0.43	2005-07-07 19:39:27.3	Ventana	34.518	03:08:31:04	4.03	V2681-04
 	transect	chuniphyes	600.53	2681	 	36.697735	-122.05363	2493855	0.3	2005-07-07 18:27:49.0	Ventana	34.388	01:58:10:03	5.482	V2681-02HD
 	ascend	Poeobius meseres	987.85	2681	 	36.69682	-122.05319	1716571	0.45	2005-07-07 19:34:06.067	Ventana	34.524	03:03:46:16	3.947	V2681-03
 	transect	Mediaster	 	2687	 	 	 	1812475	 	2005-07-13 20:40:54.0	Ventana	 	04:05:51:17	 	V2687-04
 	transect	molt	200.37	2681	 	36.698315	-122.05341	2491249	1.66	2005-07-07 17:13:08.0	Ventana	34.2	00:44:15:19	8.341	V2681-01HD
 	transect	Mesomyaria	 	2669	 	 	 	1737677	 	2005-05-25 13:56:40.0	Ventana	 	03:17:27:14	 	V2669-04
 	transect	Mesomyaria	999.73	2669	 	36.73055	-122.22895	1651023	0.45	2005-05-25 18:06:18.0	Ventana	34.523	00:28:46:04	3.905	V2669-01
 	cruise	LRJ Complex	433.03	2688	 	36.805	-122.01877	1677679	0.93	2005-07-14 17:43:44.0	Ventana	34.266	01:29:27:20	6.946	V2688-02
 	descend	Solmissus	370.35	2693	 	36.69703	-122.05986	1758595	1.2	2005-07-25 20:00:41.0	Ventana	34.24	02:40:14:27	7.182	V2693-03
 	descend	sinker	257.3	2681	 	36.698574	-122.05358	1713604	1.46	2005-07-07 17:16:21.473	Ventana	34.214	00:47:29:21	7.88	V2681-01
 	transect	Rathbunaster californicus	196.95	2696	 	36.80265	-122.12169	1813024	1.53	2005-08-01 16:55:48.0	Ventana	34.203	00:24:07:21	8.577	V2696-01
 	transect	Mesomyaria	800.14	2674	 	36.75207	-122.20888	1800826	0.35	2005-06-08 18:13:49.0	Ventana	34.488	00:58:21:02	4.33	V2674-01
 	transect	Hormiphora	200.43	2681	 	36.69828	-122.05329	2490151	1.7	2005-07-07 17:05:12.0	Ventana	34.197	00:36:19:18	8.358	V2681-01HD
 	transect	Pseudosagitta maxima	1000.99	2681	 	36.695866	-122.05201	2498653	0.48	2005-07-07 19:27:16.0	Ventana	34.532	02:56:57:07	3.866	V2681-03HD
 	descend	Chuniphyes	500.57	2681	 	36.698055	-122.05382	1715473	0.44	2005-07-07 17:54:22.767	Ventana	34.345	01:24:45:01	6.025	V2681-02
 	transect	Mesomyaria	1000.34	2669	 	36.731564	-122.24306	1733770	0.41	2005-05-25 19:44:48.0	Ventana	34.512	02:06:20:01	4.075	V2669-03
 	transect	Mediaster	 	2687	 	 	 	1811723	 	2005-07-13 20:22:27.0	Ventana	 	03:47:25:11	 	V2687-04
 	transect	Ceriantharia sp. 1	801.16	2674	 	36.750996	-122.21833	1803567	0.35	2005-06-08 18:59:36.0	Ventana	34.491	01:43:39:05	4.336	V2674-02
 	transect	halicreas	901.05	2681	 	36.696384	-122.05246	2498307	0.39	2005-07-07 19:09:21.0	Ventana	34.504	02:39:02:01	4.168	V2681-03HD
 	transect	Mediaster	 	2687	 	 	 	1812272	 	2005-07-13 20:30:17.0	Ventana	 	03:55:15:08	 	V2687-04
 	transect	molt	100.54	2681	 	36.69983	-122.05429	2489602	2.12	2005-07-07 16:45:50.0	Ventana	34.068	00:16:59:00	9.15	V2681-01HD
 	descend	Appendicularia	466.87	2683	 	36.701607	-122.049355	1756745	0.77	2005-07-11 17:12:45.0	Ventana	34.287	01:00:25:01	6.65	V2683-01
 	cruise	Parastichopus	99.41	2688	 	36.81301	-122.02058	1679529	1.94	2005-07-14 21:28:57.0	Ventana	34.109	05:13:09:07	8.875	V2688-05
 	transect	Mesomyaria	1000.03	2669	 	36.732536	-122.250206	1736925	0.41	2005-05-25 20:34:28.0	Ventana	34.51	02:55:57:25	4.067	V2669-03
 	transect	Mesomyaria	799.33	2674	 	36.752457	-122.20517	1799728	0.36	2005-06-08 17:55:44.0	Ventana	34.486	00:40:16:22	4.357	V2674-01
 	descend	Appendicularia	177.92	2693	 	36.69609	-122.05815	1758249	1.93	2005-07-25 18:06:56.0	Ventana	34.148	00:47:27:12	8.888	V2693-01
 	cruise	Actiniaria	97.16	2688	 	36.817047	-122.01447	1679326	1.99	2005-07-14 19:59:10.0	Ventana	34.087	03:43:56:12	8.915	V2688-04
 	descend	Appendicularia	726.6	2681	 	36.694935	-122.05058	1716225	0.29	2005-07-07 18:49:37.133	Ventana	34.446	02:19:20:25	4.85	V2681-03
 	descend	Chaetognatha	332.2	2683	 	36.701218	-122.05004	1756542	1.22	2005-07-11 16:55:30.0	Ventana	34.229	00:43:10:18	7.406	V2683-01
 	transect	Sebastolobus	 	2687	http://search.mbari.org/ARCHIVE/frameGrabs/Ventana/images/2687/04_24_00_10.jpg	 	 	1812821	 	2005-07-13 20:59:30.0	Ventana	 	04:24:00:10	 	V2687-05
 	transect	Mediaster	 	2687	 	 	 	1812678	 	2005-07-13 20:51:44.0	Ventana	 	04:16:14:19	 	V2687-05
 	transect	Psolus squamatus	 	2687	http://search.mbari.org/ARCHIVE/frameGrabs/Ventana/images/2687/03_40_03_15.jpg	 	 	1811520	 	2005-07-13 20:15:04.0	Ventana	 	03:40:03:15	 	V2687-04
 	transect	Parastichopus leukothele	197.86	2696	 	36.803528	-122.124054	1813227	1.54	2005-08-01 17:22:53.0	Ventana	34.201	00:51:10:11	8.606	V2696-01
 	ascend	Copepoda	885.41	2681	 	36.69818	-122.05513	1717323	0.36	2005-07-07 19:50:47.233	Ventana	34.503	03:19:49:26	4.228	V2681-04
 	ascend	Copepoda	264.27	2681	 	36.69896	-122.05626	1718748	1.42	2005-07-07 21:17:38.27	Ventana	34.228	04:45:57:04	7.94	V2681-05
 	ascend	Appendicularia	1188.77	2683	 	36.70735	-122.047646	1757700	0.71	2005-07-11 20:22:52.0	Ventana	34.572	03:57:13:11	3.366	V2683-04
 	ascend	Chuniphyes	893.25	2682	 	36.69836	-122.05842	1723219	0.34	2005-07-08 20:16:33.0	Ventana	34.496	04:08:42:10	4.287	V2682-05
 	ascend	Solmaris	775.54	2683	 	36.70642	-122.04857	1757843	0.37	2005-07-11 21:02:18.0	Ventana	34.473	04:35:11:28	4.576	V2683-05
 	transect	Phyllospadix	799.96	2674	 	36.752514	-122.20338	1799318	0.35	2005-06-08 17:45:30.0	Ventana	34.484	00:30:03:03	4.372	V2674-01
 	transect	Mediaster	 	2687	 	 	 	1807474	 	2005-07-13 17:09:05.0	Ventana	 	00:35:58:28	 	V2687-01
 	transect	Rathbunaster californicus	203.56	2696	 	36.806545	-122.13013	1813776	1.48	2005-08-01 18:29:15.0	Ventana	34.215	01:57:06:00	8.646	V2696-02
 	descend	Appendicularia	490.08	2682	 	36.69859	-122.05977	1720820	0.47	2005-07-08 17:58:41.0	Ventana	34.339	01:52:11:03	6.105	V2682-02
 	transect	Sebastolobus altivelis	802.11	2674	 	36.751846	-122.21069	1801029	0.35	2005-06-08 18:22:34.0	Ventana	34.49	01:06:38:28	4.33	V2674-02
 	transect	Halipteris californica	599.14	2680	 	36.782696	-122.22793	1805214	0.35	2005-06-27 18:58:40.0	Ventana	34.381	01:37:44:19	5.562	V2680-02
 	transect	Aegina	500.55	2681	 	36.697132	-122.05277	2493509	0.44	2005-07-07 17:58:40.0	Ventana	34.346	01:29:02:05	6.03	V2681-02HD
 	descend	Chaetognatha	244.84	2693	 	36.698498	-122.06169	1758392	1.49	2005-07-25 19:24:20.0	Ventana	34.241	02:04:21:17	8.498	V2693-02
 	transect	Nanomia bijuga	200.36	2681	 	36.69837	-122.05347	2491392	1.67	2005-07-07 17:13:58.0	Ventana	34.199	00:45:06:01	8.341	V2681-01HD
 	cruise	Bathocyroe	471.51	2676	 	36.802345	-122.0293	1676254	0.56	2005-06-14 16:30:17.0	Ventana	34.337	00:14:26:06	6.158	V2676-01
 	transect	Ophiuroidea	999.0	2669	 	36.731415	-122.2362	1684673	0.44	2005-05-25 18:59:03.0	Ventana	34.52	01:21:02:22	3.94	V2669-02
 	transect	Mesomyaria	802.67	2674	 	36.75223	-122.2064	1799931	0.36	2005-06-08 18:01:43.0	Ventana	34.489	00:46:15:14	4.339	V2674-01
 	transect	Ceriantharia sp. 2	998.55	2669	 	36.731106	-122.23065	1683372	0.45	2005-05-25 18:19:13.0	Ventana	34.523	00:41:39:11	3.91	V2669-01
 	descend	Appendicularia	381.5	2682	 	36.698433	-122.05994	1720677	0.93	2005-07-08 17:35:26.0	Ventana	34.261	01:28:57:07	6.963	V2682-02
 	transect	Pennatulacea sp.1	599.25	2680	 	36.778976	-122.22414	1804462	0.36	2005-06-27 18:05:22.0	Ventana	34.377	00:45:28:16	5.603	V2680-01
 	transect	Poeobius meseres	400.82	2681	 	36.696106	-122.05156	2492960	0.79	2005-07-07 17:42:27.0	Ventana	34.277	01:12:51:07	6.661	V2681-02HD
 	cruise	Asteroidea	337.16	2688	 	36.80805	-122.02015	1677822	1.22	2005-07-14 18:07:31.0	Ventana	34.227	01:53:13:15	7.53	V2688-02
 	cruise	mud	263.71	2676	 	36.805447	-122.02947	1676724	1.53	2005-06-14 17:35:46.0	Ventana	34.207	01:15:31:07	7.983	V2676-02
 	transect	Appendicularia	200.41	2681	 	36.69828	-122.05329	2490294	1.69	2005-07-07 17:06:36.0	Ventana	34.2	00:37:44:28	8.359	V2681-01HD
 	transect	Lycenchelys camchatica	799.91	2674	 	36.751293	-122.215675	1803364	0.35	2005-06-08 18:47:10.0	Ventana	34.488	01:31:13:06	4.356	V2674-02
 	transect	cydippida	100.48	2681	 	36.699806	-122.054276	2489745	2.12	2005-07-07 16:49:27.0	Ventana	34.067	00:20:35:19	9.156	V2681-01HD
 	descend	Appendicularia	450.04	2681	 	36.698086	-122.05386	1715330	0.56	2005-07-07 17:52:11.867	Ventana	34.316	01:22:34:09	6.226	V2681-02
 	transect	Lycenchelys camchatica	1000.57	2669	 	36.73224	-122.24867	1736233	0.41	2005-05-25 20:23:57.0	Ventana	34.509	02:45:27:02	4.063	V2669-03
 	transect	Ceriantharia sp. 1	803.84	2674	 	36.750767	-122.22072	1803710	0.34	2005-06-08 19:09:41.0	Ventana	34.485	01:53:43:12	4.402	V2674-02
 	descend	Appendicularia	895.12	2682	 	36.698257	-122.05944	1721775	0.34	2005-07-08 18:51:03.0	Ventana	34.493	02:44:06:08	4.309	V2682-03
 	descend	Nanomia	209.61	2683	 	36.70102	-122.05086	1756399	1.72	2005-07-11 16:47:58.0	Ventana	34.193	00:35:38:14	8.285	V2683-01
 	transect	Calycophorae	700.59	2681	 	36.695183	-122.05093	2497961	0.28	2005-07-07 18:47:41.0	Ventana	34.432	02:17:22:15	4.989	V2681-03HD
 	transect	Mediaster	 	2687	 	 	 	1807128	 	2005-07-13 17:01:09.0	Ventana	 	00:28:03:07	 	V2687-01
 	transect	cydippida	200.37	2681	 	36.69829	-122.05333	2491046	1.69	2005-07-07 17:11:10.0	Ventana	34.196	00:42:16:29	8.332	V2681-01HD
 	descend	Prayidae	545.24	2683	 	36.701633	-122.04916	1756948	0.49	2005-07-11 17:44:01.0	Ventana	34.328	01:28:08:00	6.129	V2683-02
 	transect	Aegina	700.63	2681	 	36.696194	-122.0521	2497758	0.28	2005-07-07 18:43:03.0	Ventana	34.435	02:12:46:08	4.951	V2681-03HD
 	transect	Chionoecetes tanneri	998.38	2669	 	36.73293	-122.252106	1737331	0.4	2005-05-25 20:45:56.0	Ventana	34.508	03:06:45:01	4.077	V2669-04
 	ascend	Calycophorae	1015.36	2682	 	36.697723	-122.0581	1722873	0.47	2005-07-08 20:04:45.0	Ventana	34.528	03:57:19:05	3.89	V2682-04
 	ascend	surface water	 	2686	 	 	 	1670012	 	2005-07-12 22:27:10.71	Ventana	 	01:34:19:13	 	V2686-01
 	starttransect	physical object	1000.31	2669	 	36.73093	-122.233574	1683921	0.45	2005-05-25 18:39:33.0	Ventana	34.521	01:01:33:01	3.913	V2669-02
 	ascend	Calycophorae	261.6	2681	 	36.699436	-122.05457	1718545	1.42	2005-07-07 21:12:01.9	Ventana	34.232	04:40:21:18	7.938	V2681-05
 	ascend	Crustacea	755.83	2681	 	36.698734	-122.05579	1717526	0.28	2005-07-07 20:13:01.247	Ventana	34.447	03:42:03:00	4.817	V2681-04
 	descend	Copepoda	1156.41	2683	 	36.705116	-122.048904	1757497	0.66	2005-07-11 19:34:02.0	Ventana	34.557	03:14:22:27	3.507	V2683-03
 	transect	Appendicularia	400.76	2681	 	36.697525	-122.053215	2493163	0.79	2005-07-07 17:48:29.0	Ventana	34.277	01:18:53:21	6.66	V2681-02HD
 	transect	Phyllospadix	800.28	2674	 	36.752426	-122.204735	1799664	0.35	2005-06-08 17:53:25.0	Ventana	34.487	00:37:57:15	4.356	V2674-01
 	transect	Psolus squamatus	 	2687	 	 	 	1807677	 	2005-07-13 17:22:16.0	Ventana	 	00:49:08:24	 	V2687-01
 	transect	Mesomyaria	801.37	2674	 	36.752174	-122.20795	1800683	0.35	2005-06-08 18:09:25.0	Ventana	34.49	00:53:57:06	4.329	V2674-01
 	transect	Poeobius meseres	600.6	2681	 	36.696217	-122.0518	2493712	0.3	2005-07-07 18:21:01.0	Ventana	34.387	01:51:22:15	5.491	V2681-02HD
 	cruise	lasers	107.24	2688	http://search.mbari.org/ARCHIVE/frameGrabs/Ventana/images/2688/02_34_29_14.jpg	36.811672	-122.02305	1678025	1.94	2005-07-14 18:49:15.0	Ventana	34.092	02:34:29:14	8.89	V2688-03
 	transect	Mesomyaria	999.44	2669	 	36.73133	-122.23592	1684470	0.44	2005-05-25 18:57:06.0	Ventana	34.52	01:19:05:22	3.936	V2669-02
 	ascend	Leuroglossus stilbius	608.59	2682	 	36.698875	-122.05995	1723422	0.36	2005-07-08 20:38:51.0	Ventana	34.382	04:30:59:15	5.529	V2682-05
 	ascend	Chaetognatha	417.15	2683	 	36.704124	-122.05059	1758046	0.92	2005-07-11 21:19:35.0	Ventana	34.258	04:52:26:15	6.866	V2683-05
 	transect	Mesomyaria	799.17	2674	 	36.751717	-122.212776	1801232	0.35	2005-06-08 18:30:53.0	Ventana	34.49	01:14:57:25	4.332	V2674-02
 	transect	Lycenchelys camchatica	998.43	2669	 	36.73095	-122.23008	1651226	0.45	2005-05-25 18:14:44.0	Ventana	34.521	00:37:10:24	3.913	V2669-01
 	transect	Lycenchelys camchatica	800.74	2674	 	36.752636	-122.20185	1799115	0.34	2005-06-08 17:37:52.0	Ventana	34.479	00:22:26:06	4.403	V2674-01
 	transect	Rathbunaster californicus	199.39	2696	 	36.804092	-122.12578	1813375	1.52	2005-08-01 17:40:41.0	Ventana	34.208	01:08:35:08	8.662	V2696-02
 	descend	Myctophidae	606.34	2682	 	36.698635	-122.0598	1721244	0.35	2005-07-08 18:07:50.0	Ventana	34.389	02:00:54:21	5.441	V2682-03
 	descend	sinker	748.7	2683	 	36.702362	-122.04893	1757123	0.27	2005-07-11 17:57:25.0	Ventana	34.45	01:41:29:08	4.77	V2683-02
 	transect	Neptunea amianta	800.19	2674	http://search.mbari.org/ARCHIVE/frameGrabs/Ventana/images/2674/00_41_15_18.jpg	36.752445	-122.20537	1799788	0.36	2005-06-08 17:56:43.0	Ventana	34.487	00:41:15:18	4.361	V2674-01
 	ascend	Gonatus	405.22	2695	 	36.783924	-122.20102	1824521	1.2	2005-07-28 20:40:24.0	Ventana	34.265	05:37:58:26	7.71	V2695-04
 	transect	Antimora microlepis	802.07	2674	 	36.75248	-122.19986	1773842	0.29	2005-06-08 17:26:03.0	Ventana	34.461	00:10:37:08	4.642	V2674-01
 	ascend	Medusae	326.57	2693	 	36.691856	-122.06196	1759042	1.29	2005-07-25 21:17:06.0	Ventana	34.236	03:41:37:17	7.555	V2693-04
 	transect	Nanomia bijuga	200.41	2681	 	36.698288	-122.05332	2491009	1.71	2005-07-07 17:10:46.0	Ventana	34.192	00:41:52:20	8.325	V2681-01HD
 	transect	Psolus squamatus	 	2687	 	 	 	1809015	 	2005-07-13 17:33:36.0	Ventana	 	01:00:28:00	 	V2687-01
 	transect	Euplexaura	 	2687	http://search.mbari.org/ARCHIVE/frameGrabs/Ventana/images/2687/02_57_03_06.jpg	 	 	1810750	 	2005-07-13 19:31:20.0	Ventana	 	02:57:03:06	 	V2687-03
 	transect	Mesomyaria	998.57	2669	 	36.730534	-122.22851	1650898	0.45	2005-05-25 18:03:48.0	Ventana	34.523	00:26:16:20	3.907	V2669-01
 	cruise	Sebastomus complex	99.83	2688	http://search.mbari.org/ARCHIVE/frameGrabs/Ventana/images/2688/03_28_26_26.jpg	36.81565	-122.01508	1679285	1.97	2005-07-14 19:43:42.0	Ventana	34.085	03:28:26:26	8.903	V2688-04
 	ascend	Paralepididae	283.43	2681	 	36.699738	-122.05506	1718296	1.36	2005-07-07 21:02:39.78	Ventana	34.232	04:31:00:02	7.735	V2681-05
 	ascend	Leuroglossus stilbius	887.22	2683	 	36.707077	-122.04872	1757829	0.38	2005-07-11 20:57:19.0	Ventana	34.504	04:30:11:13	4.2	V2683-05
 	transect	Mediaster	 	2687	 	 	 	1812669	 	2005-07-13 20:50:35.0	Ventana	 	04:15:05:04	 	V2687-05
 	ascend	Chuniphyes	830.88	2681	 	36.69877	-122.05624	1717406	0.31	2005-07-07 19:57:38.367	Ventana	34.483	03:26:40:17	4.432	V2681-04
 	transect	Deiopea	50.41	2681	 	36.69983	-122.05429	2485620	2.99	2005-07-07 16:36:23.0	Ventana	33.913	00:07:33:11	9.627	V2681-01HD
 	transect	molt	100.52	2681	 	36.69983	-122.05429	2489597	2.12	2005-07-07 16:45:46.0	Ventana	34.068	00:16:55:26	9.15	V2681-01HD
 	cruise	Porifera	104.18	2676	 	36.806168	-122.04198	1677167	1.92	2005-06-14 19:17:38.0	Ventana	34.16	02:56:22:26	8.426	V2676-03
 	transect	Poeobius meseres	500.58	2681	 	36.69602	-122.05152	2493634	0.43	2005-07-07 18:03:17.0	Ventana	34.349	01:33:39:13	6.006	V2681-02HD
 	descend	biological structure	331.91	2693	 	36.697357	-122.06057	1758535	1.29	2005-07-25 19:50:20.0	Ventana	34.238	02:29:55:00	7.569	V2693-03
 	transect	Ceriantharia sp. 1	599.24	2680	 	36.779057	-122.22419	1804471	0.36	2005-06-27 18:06:02.0	Ventana	34.377	00:46:08:29	5.602	V2680-01
 	transect	Porifera sp. 1	 	2687	 	 	 	1810044	 	2005-07-13 18:52:03.0	Ventana	 	02:17:48:27	 	V2687-03
 	transect	Phyllospadix	799.19	2674	 	36.751743	-122.21237	1801200	0.35	2005-06-08 18:29:27.0	Ventana	34.491	01:13:31:12	4.33	V2674-02
 	transect	Mesomyaria	800.09	2674	 	36.752083	-122.20883	1800817	0.35	2005-06-08 18:13:35.0	Ventana	34.489	00:58:06:23	4.334	V2674-01
 	transect	Mesomyaria	998.22	2669	 	36.732994	-122.25252	1737456	0.4	2005-05-25 20:48:15.0	Ventana	34.509	03:09:02:27	4.074	V2669-04
 	transect	Lycenchelys camchatica	799.86	2674	 	36.752647	-122.20098	1774165	0.34	2005-06-08 17:33:34.0	Ventana	34.481	00:18:07:15	4.436	V2674-01
 	ascend	Calycophorae	670.61	2682	 	36.69893	-122.05957	1723362	0.28	2005-07-08 20:34:40.0	Ventana	34.405	04:26:48:01	5.21	V2682-05
 	endtransect	physical object	599.13	2680	 	36.782467	-122.227646	1805177	0.35	2005-06-27 18:51:05.0	Ventana	34.375	01:30:09:28	5.586	V2680-02
 	cruise	Pasiphaea	284.82	2688	 	36.809017	-122.02033	1677873	1.42	2005-07-14 18:21:46.0	Ventana	34.211	02:07:27:06	7.975	V2688-02
 	cruise	mud	163.61	2676	 	36.808266	-122.030365	1676844	1.65	2005-06-14 17:49:49.0	Ventana	34.188	01:29:32:22	8.22	V2676-02
 	transect	Glyptocephalus zachirus	197.79	2696	 	36.802666	-122.12169	1812992	1.52	2005-08-01 16:50:18.0	Ventana	34.206	00:18:38:11	8.565	V2696-01
 	transect	Mesomyaria	998.71	2669	 	36.730957	-122.23006	1651221	0.45	2005-05-25 18:14:34.0	Ventana	34.521	00:37:01:00	3.913	V2669-01
 	descend	Mysidae	1172.57	2683	 	36.706745	-122.04801	1757506	0.68	2005-07-11 19:35:42.0	Ventana	34.566	03:16:02:09	3.442	V2683-03
 	transect	Mesomyaria	999.44	2669	 	36.73133	-122.23592	1684475	0.44	2005-05-25 18:57:06.0	Ventana	34.52	01:19:05:22	3.936	V2669-02
 	transect	Mesomyaria	1000.26	2669	 	36.73128	-122.240944	1689342	0.41	2005-05-25 19:33:37.0	Ventana	34.51	01:55:34:17	4.056	V2669-02
 	transect	Mesomyaria	1000.32	2669	 	36.731644	-122.243286	1733802	0.41	2005-05-25 19:46:10.0	Ventana	34.51	02:07:41:06	4.065	V2669-03
 	descend	Nanomia	 	2693	 	 	 	1759425	 	2005-07-25 16:44:18.0	Ventana	 	00:22:51:10	 	V2693-01
 	transect	Neptunea amianta	800.44	2674	 	36.751194	-122.21669	1803442	0.35	2005-06-08 18:52:01.0	Ventana	34.488	01:36:04:18	4.352	V2674-02
 	transect	Phyllospadix	800.35	2674	 	36.751736	-122.21171	1801140	0.35	2005-06-08 18:26:53.0	Ventana	34.488	01:10:57:22	4.339	V2674-02
 	transect	Mediaster	 	2687	 	 	 	1812286	 	2005-07-13 20:30:52.0	Ventana	 	03:55:50:17	 	V2687-04
 	transect	Phyllospadix	999.9	2669	 	36.731297	-122.23813	1688373	0.43	2005-05-25 19:15:49.0	Ventana	34.522	01:37:48:00	3.958	V2669-02
 	descend	Hastigerinella digitata	299.66	2693	 	36.697697	-122.06097	1758475	1.33	2005-07-25 19:39:06.0	Ventana	34.236	02:18:42:21	7.726	V2693-03
 	cruise	Chionoecetes tanneri	1015.67	2689	 	36.77155	-122.08298	1669735	0.54	2005-07-18 17:09:49.0	Ventana	34.537	00:32:52:06	3.728	V2689-01
 	ascend	Appendicularia	912.89	2681	 	36.697823	-122.05453	1717023	0.38	2005-07-07 19:46:49.633	Ventana	34.504	03:15:53:01	4.197	V2681-04
 	transect	Sebastolobus altivelis	800.76	2674	 	36.751976	-122.20919	1800877	0.36	2005-06-08 18:15:28.0	Ventana	34.49	00:59:59:20	4.321	V2674-01
 	transect	Mesomyaria	998.18	2669	 	36.730526	-122.22835	1649362	0.45	2005-05-25 18:02:48.0	Ventana	34.523	00:25:16:04	3.907	V2669-01
 	descend	Dosidicus gigas	521.59	2682	 	36.698597	-122.059784	1720861	0.39	2005-07-08 18:01:50.0	Ventana	34.358	01:55:18:22	5.866	V2682-02
 	transect	Brisaster	599.37	2680	 	36.779465	-122.224556	1804531	0.36	2005-06-27 18:10:27.0	Ventana	34.377	00:50:33:03	5.604	V2680-01
 	transect	molt	100.5	2681	 	36.69983	-122.05429	2489657	2.13	2005-07-07 16:47:16.0	Ventana	34.069	00:18:24:27	9.147	V2681-01HD
 	descend	Nanomia	165.83	2693	 	36.696255	-122.05776	1758212	1.99	2005-07-25 17:58:00.0	Ventana	34.131	00:38:31:02	8.928	V2693-01
 	transect	Ceriantharia sp. 1	600.15	2680	 	36.78403	-122.22945	1805500	0.36	2005-06-27 19:13:14.0	Ventana	34.378	01:52:17:13	5.608	V2680-02
 	transect	Psolus squamatus	 	2687	http://search.mbari.org/ARCHIVE/frameGrabs/Ventana/images/2687/03_16_31_19.jpg	 	 	1811073	 	2005-07-13 19:51:30.0	Ventana	 	03:16:31:19	 	V2687-04
 	ascend	surface water	 	2686	 	 	 	1669998	 	2005-07-12 22:25:12.0	Ventana	 	01:32:19:19	 	V2686-01
 	transect	Ophiuroidea	999.85	2669	 	36.731064	-122.23884	1689079	0.43	2005-05-25 19:20:36.0	Ventana	34.519	01:42:34:29	3.963	V2669-02
 	cruise	Allocentrotus fragilis	222.81	2676	 	36.80604	-122.0293	1676784	1.59	2005-06-14 17:40:26.0	Ventana	34.203	01:20:11:02	8.069	V2676-02
 	ascend	sinker	1147.93	2683	 	36.70811	-122.04896	1757769	0.68	2005-07-11 20:37:41.0	Ventana	34.565	04:12:01:12	3.462	V2683-04
 	transect	Gastropoda sp.2	997.86	2669	 	36.730576	-122.227196	1694915	0.45	2005-05-25 17:55:28.0	Ventana	34.521	00:17:56:12	3.91	V2669-01
 	transect	Hastigerinella digitata	300.42	2681	 	36.69578	-122.05139	2492605	1.24	2005-07-07 17:29:27.0	Ventana	34.233	01:00:33:29	7.415	V2681-01HD
 	transect	Ophiuroidea	998.95	2669	 	36.731403	-122.23653	1684798	0.44	2005-05-25 19:01:52.0	Ventana	34.52	01:23:52:01	3.938	V2669-02
 	transect	Mesomyaria	1000.58	2669	 	36.732307	-122.24943	1736427	0.41	2005-05-25 20:29:04.0	Ventana	34.51	02:50:34:10	4.07	V2669-03
 	ascend	Appendicularia	601.29	2682	 	36.698612	-122.06179	1723546	0.34	2005-07-08 20:58:13.0	Ventana	34.372	04:50:21:18	5.655	V2682-05
 	transect	Ceriantharia sp. 1	598.58	2680	 	36.780693	-122.2257	1804794	0.35	2005-06-27 18:26:24.0	Ventana	34.378	01:05:30:09	5.576	V2680-02
 	transect	Psolus squamatus	399.86	2687	http://search.mbari.org/ARCHIVE/frameGrabs/Ventana/images/2687/01_02_12_24.jpg	36.788044	-122.12152	1809075	1.14	2005-07-13 17:35:50.0	Ventana	34.237	01:02:12:24	7.276	V2687-02
 	ascend	ink	755.33	2682	 	36.698784	-122.05915	1723302	0.29	2005-07-08 20:28:34.0	Ventana	34.446	04:20:44:17	4.837	V2682-05
 	transect	Ceriantharia sp. 1	599.15	2680	 	36.78286	-122.22813	1805237	0.35	2005-06-27 19:00:29.0	Ventana	34.377	01:39:32:26	5.584	V2680-02
 	transect	Psolus squamatus	 	2687	 	 	 	1808632	 	2005-07-13 17:25:47.0	Ventana	 	00:52:39:15	 	V2687-01
 	descend	Dosidicus gigas	548.22	2681	 	36.695675	-122.05106	1715611	0.36	2005-07-07 18:06:10.5	Ventana	34.367	01:36:32:17	5.749	V2681-02
 	transect	Psolus squamatus	 	2687	 	 	 	1811133	 	2005-07-13 19:55:51.0	Ventana	 	03:20:52:10	 	V2687-04
 	transect	Chionoecetes tanneri	800.22	2674	 	36.75126	-122.21594	1803382	0.35	2005-06-08 18:49:05.0	Ventana	34.489	01:33:08:10	4.36	V2674-02
 	transect	Pennatulacea sp.1	602.46	2680	http://search.mbari.org/ARCHIVE/frameGrabs/Ventana/images/2680/02_58_10_00.jpg	36.79044	-122.232735	1806773	0.36	2005-06-27 20:19:33.0	Ventana	34.38	02:58:10:00	5.587	V2680-03
 	transect	Ophiuroidea	998.58	2669	 	36.73118	-122.234276	1684092	0.45	2005-05-25 18:43:38.0	Ventana	34.521	01:05:39:03	3.915	V2669-02
 	transect	Mesomyaria	999.89	2669	 	36.731384	-122.237305	1687483	0.44	2005-05-25 19:09:01.0	Ventana	34.52	01:31:00:23	3.944	V2669-02
 	transect	Mesomyaria	1000.15	2669	 	36.731857	-122.24507	1735338	0.4	2005-05-25 19:57:20.0	Ventana	34.508	02:18:51:06	4.09	V2669-03
 	cruise	glass	237.86	2688	http://search.mbari.org/ARCHIVE/frameGrabs/Ventana/images/2688/02_17_02_00.jpg	36.809834	-122.020546	1677933	1.57	2005-07-14 18:31:48.0	Ventana	34.193	02:17:02:00	8.313	V2688-03
 	transect	Phyllospadix	1000.23	2669	 	36.731762	-122.24474	1734448	0.4	2005-05-25 19:54:55.0	Ventana	34.508	02:16:26:03	4.075	V2669-03
 	descend	Agalma	225.61	2683	 	36.700985	-122.05071	1756417	1.69	2005-07-11 16:48:58.0	Ventana	34.189	00:36:39:04	8.215	V2683-01
 	transect	Ophiuroidea	998.49	2669	 	36.7311	-122.23068	1683386	0.45	2005-05-25 18:19:50.0	Ventana	34.521	00:42:16:18	3.911	V2669-01
 	descend	Medusae	700.7	2681	 	36.697968	-122.05373	1716054	0.29	2005-07-07 18:33:06.0	Ventana	34.433	02:03:28:14	4.982	V2681-02
 	transect	Actiniaria sp. 1	1000.43	2669	 	36.730904	-122.232925	1683829	0.45	2005-05-25 18:36:05.0	Ventana	34.522	00:58:30:17	3.91	V2669-01
 	transect	Brisaster	998.21	2669	 	36.732944	-122.25222	1737396	0.41	2005-05-25 20:46:35.0	Ventana	34.508	03:07:23:11	4.075	V2669-04
 	transect	Mediaster	 	2687	 	 	 	1807036	 	2005-07-13 16:55:31.0	Ventana	 	00:22:25:23	 	V2687-01
 	transect	Mediaster	 	2687	 	 	 	1807479	 	2005-07-13 17:09:49.0	Ventana	 	00:36:43:07	 	V2687-01
 	cruise	bedding	1006.99	2689	http://search.mbari.org/ARCHIVE/frameGrabs/Ventana/images/2689/00_01_49_04.jpg	36.77142	-122.08276	1669615	0.54	2005-07-18 16:38:46.0	Ventana	34.527	00:01:49:04	3.916	V2689-01
 	transect	Caridea sp.1	599.95	2680	 	36.778618	-122.22382	1804411	0.36	2005-06-27 18:01:25.0	Ventana	34.379	00:41:31:13	5.589	V2680-01
 	transect	Phyllospadix	202.0	2696	 	36.805256	-122.12819	1813638	1.5	2005-08-01 18:08:58.0	Ventana	34.212	01:36:49:19	8.665	V2696-02
 	transect	Actiniaria sp. 3	 	2687	 	 	 	1811193	 	2005-07-13 20:00:29.0	Ventana	 	03:25:29:11	 	V2687-04
 	transect	Lycenchelys camchatica	799.23	2674	 	36.75165	-122.21317	1801260	0.35	2005-06-08 18:32:28.0	Ventana	34.489	01:16:32:00	4.347	V2674-02
 	transect	Phyllospadix	 	2687	 	 	 	1807539	 	2005-07-13 17:14:26.0	Ventana	 	00:41:19:19	 	V2687-01
 	transect	Appendicularia	300.42	2681	 	36.69674	-122.05231	2492485	1.23	2005-07-07 17:25:48.0	Ventana	34.234	00:56:55:26	7.397	V2681-01HD
 	transect	Gastropoda sp.2	999.8	2669	 	36.7306	-122.22913	1695035	0.45	2005-05-25 18:07:49.0	Ventana	34.522	00:30:16:26	3.909	V2669-01
 	transect	Mesomyaria	1000.06	2669	 	36.731697	-122.24367	1733862	0.41	2005-05-25 19:48:05.0	Ventana	34.508	02:09:36:16	4.069	V2669-03
 	descend	Appendicularia	507.58	2683	 	36.701427	-122.04918	1756860	0.68	2005-07-11 17:39:41.0	Ventana	34.306	01:23:48:19	6.462	V2683-02
 	transect	Porifera sp. 1	 	2687	 	 	 	1810487	 	2005-07-13 19:20:15.0	Ventana	 	02:45:59:15	 	V2687-03
 	transect	molt	100.57	2681	 	36.69983	-122.05429	2489537	2.13	2005-07-07 16:44:04.0	Ventana	34.068	00:15:13:17	9.147	V2681-01HD
 	transect	Nanomia bijuga	200.45	2681	 	36.69828	-122.0533	2490746	1.73	2005-07-07 17:08:39.0	Ventana	34.193	00:39:46:07	8.321	V2681-01HD
 	transect	Phyllospadix	1000.4	2669	 	36.73189	-122.246994	1735781	0.41	2005-05-25 20:11:24.0	Ventana	34.51	02:32:54:09	4.063	V2669-03
 	transect	tuscaroridae	600.59	2681	 	36.69601	-122.0516	2493694	0.3	2005-07-07 18:20:10.0	Ventana	34.387	01:50:31:28	5.49	V2681-02HD
 	transect	Mediaster	 	2687	 	 	 	1810690	 	2005-07-13 19:28:36.0	Ventana	 	02:54:20:00	 	V2687-03
 	descend	Appendicularia	794.62	2682	 	36.698376	-122.05969	1721687	0.31	2005-07-08 18:36:37.0	Ventana	34.463	02:29:39:11	4.597	V2682-03
 	transect	Phyllospadix	803.93	2674	 	36.750748	-122.22059	1803705	0.34	2005-06-08 19:09:26.0	Ventana	34.483	01:53:28:16	4.396	V2674-02
 	transect	Appendicularia	400.8	2681	 	36.696304	-122.05177	2492988	0.79	2005-07-07 17:43:13.0	Ventana	34.276	01:13:37:28	6.65	V2681-02HD
 	ascend	Appendicularia	368.86	2681	 	36.69936	-122.05487	1718033	0.98	2005-07-07 20:50:53.8	Ventana	34.265	04:19:14:09	7.069	V2681-05
 	descend	Euphausiacea	190.28	2683	 	36.701023	-122.05106	1756357	1.76	2005-07-11 16:43:42.0	Ventana	34.187	00:31:23:02	8.453	V2683-01
 	transect	Pennatula phosphorea californica	600.1	2680	 	36.783653	-122.22911	1805440	0.35	2005-06-27 19:09:39.0	Ventana	34.378	01:48:43:02	5.594	V2680-02
 	transect	Mesomyaria	800.69	2674	 	36.7521	-122.208466	1800757	0.35	2005-06-08 18:11:44.0	Ventana	34.49	00:56:15:27	4.324	V2674-01
 	ascend	Appendicularia	252.76	2693	 	36.691364	-122.062355	1759102	1.43	2005-07-25 21:21:55.0	Ventana	34.246	03:46:27:17	8.47	V2693-04
 	transect	Chaetognatha	200.45	2681	 	36.69828	-122.05329	2490243	1.7	2005-07-07 17:06:10.0	Ventana	34.199	00:37:19:06	8.36	V2681-01HD
 	transect	Mesomyaria	1000.42	2669	 	36.73154	-122.24277	1694532	0.4	2005-05-25 19:43:17.0	Ventana	34.506	02:05:14:18	4.087	V2669-02
 	transect	Nanomia bijuga	400.75	2681	 	36.69765	-122.05336	2493191	0.79	2005-07-07 17:49:01.0	Ventana	34.278	01:19:25:16	6.659	V2681-02HD
 	transect	Mesomyaria	801.27	2674	 	36.751747	-122.2111	1801080	0.35	2005-06-08 18:24:28.0	Ventana	34.488	01:08:32:25	4.34	V2674-02
 	transect	Mediaster	 	2687	 	 	 	1811396	 	2005-07-13 20:11:19.0	Ventana	 	03:36:18:08	 	V2687-04
 	transect	Mesomyaria	800.63	2674	http://search.mbari.org/ARCHIVE/frameGrabs/Ventana/images/2674/01_02_19_06.jpg	36.75196	-122.20968	1800937	0.35	2005-06-08 18:18:14.0	Ventana	34.49	01:02:19:06	4.335	V2674-02
 	transect	Phyllospadix	199.68	2696	 	36.80436	-122.12628	1813435	1.52	2005-08-01 17:46:03.0	Ventana	34.211	01:13:56:29	8.666	V2696-02
 	transect	Ceriantharia sp. 2	999.98	2669	 	36.73188	-122.245926	1735601	0.41	2005-05-25 20:02:57.0	Ventana	34.51	02:24:27:10	4.059	V2669-03
 	transect	Ceriantharia sp. 1	598.93	2680	 	36.78004	-122.22506	1804591	0.35	2005-06-27 18:17:52.0	Ventana	34.384	00:57:57:13	5.552	V2680-01
 	transect	Mesomyaria	998.36	2669	 	36.732933	-122.25213	1737336	0.4	2005-05-25 20:46:04.0	Ventana	34.508	03:06:53:08	4.077	V2669-04
 	stationary	sinker	501.61	2695	 	36.78456	-122.20045	1824461	0.79	2005-07-28 17:49:07.0	Ventana	34.277	00:55:26:20	6.52	V2695-01
 	cruise	Cydippida	308.16	2676	 	36.80506	-122.03162	1676217	1.25	2005-06-14 16:20:53.0	Ventana	34.234	00:05:03:07	7.582	V2676-01
 	descend	physical object	 	2686	http://search.mbari.org/ARCHIVE/frameGrabs/Ventana/images/2686/00_00_00_00.jpg	 	 	20005037	 	2005-07-12 22:13:13.0	Ventana	 	00:00:00:00	 	V2686-02
 	transect	Ceriantharia sp. 1	602.72	2680	 	36.788162	-122.23218	1805947	0.35	2005-06-27 19:57:08.0	Ventana	34.381	02:35:45:21	5.598	V2680-03
 	transect	Gastropoda sp.2	998.65	2669	 	36.73118	-122.234344	1694652	0.45	2005-05-25 18:44:06.0	Ventana	34.521	01:06:06:16	3.916	V2669-02
 	ascend	Aegina	777.36	2681	 	36.698784	-122.05634	1717466	0.29	2005-07-07 20:06:34.72	Ventana	34.453	03:35:36:26	4.743	V2681-04
 	transect	Phyllospadix	999.92	2669	 	36.731747	-122.244194	1734245	0.4	2005-05-25 19:51:21.0	Ventana	34.511	02:12:53:21	4.09	V2669-03
 	transect	Allocentrotus fragilis	 	2687	 	 	 	1810810	 	2005-07-13 19:35:18.0	Ventana	 	03:01:01:08	 	V2687-03
 	transect	Raja rhina	 	2687	http://search.mbari.org/ARCHIVE/frameGrabs/Ventana/images/2687/04_19_34_28.jpg	 	 	1812729	 	2005-07-13 20:55:05.0	Ventana	 	04:19:34:28	 	V2687-05
 	transect	Phyllospadix	597.81	2680	 	36.78121	-122.22617	1804914	0.36	2005-06-27 18:33:20.0	Ventana	34.377	01:12:26:02	5.595	V2680-02
 	transect	Phyllospadix	801.28	2674	 	36.75226	-122.20731	1800051	0.37	2005-06-08 18:06:27.0	Ventana	34.487	00:50:58:26	4.353	V2674-01
 	transect	Euphausia	200.41	2681	 	36.698284	-122.05331	2490949	1.71	2005-07-07 17:10:07.0	Ventana	34.195	00:41:15:16	8.323	V2681-01HD
 	transect	Pennatulacea sp.1	602.33	2680	 	36.791187	-122.2329	1806833	0.36	2005-06-27 20:25:58.0	Ventana	34.379	03:04:34:21	5.586	V2680-03
 	transect	Neptunea amianta	999.59	2669	 	36.732727	-122.251305	1737193	0.4	2005-05-25 20:40:50.0	Ventana	34.509	03:01:40:01	4.079	V2669-04
 	descend	Sergestes similis	663.38	2683	 	36.702026	-122.04894	1757063	0.33	2005-07-11 17:52:29.0	Ventana	34.413	01:36:34:03	5.176	V2683-02
 	ascend	Chaetognatha	335.98	2693	 	36.69279	-122.06163	1758982	1.26	2005-07-25 21:13:17.0	Ventana	34.238	03:37:48:13	7.461	V2693-04
 	ascend	Salpida	577.9	2681	 	36.698936	-122.05427	1717710	0.36	2005-07-07 20:30:58.9	Ventana	34.365	03:59:59:02	5.794	V2681-04
 	transect	Porifera sp. 1	 	2687	 	 	 	1810104	 	2005-07-13 18:56:34.0	Ventana	 	02:22:19:21	 	V2687-03
 	transect	Poeobius meseres	700.62	2681	 	36.697075	-122.052925	2497675	0.29	2005-07-07 18:39:32.0	Ventana	34.437	02:09:15:11	4.929	V2681-03HD
 	transect	Solmissus	200.41	2681	 	36.6983	-122.05337	2491129	1.68	2005-07-07 17:12:14.0	Ventana	34.198	00:43:20:25	8.337	V2681-01HD
 	descend	Copepoda	659.97	2682	 	36.698647	-122.05994	1721364	0.28	2005-07-08 18:10:53.0	Ventana	34.411	02:03:59:02	5.22	V2682-03
 	descend	Copepoda	889.19	2683	 	36.70322	-122.04833	1757243	0.36	2005-07-11 18:31:05.0	Ventana	34.493	02:11:29:21	4.283	V2683-03
 	transect	Phyllospadix	801.02	2674	 	36.752533	-122.20258	1799221	0.35	2005-06-08 17:41:42.0	Ventana	34.487	00:26:15:26	4.375	V2674-01
 	transect	Phyllospadix	 	2687	 	 	 	1806976	 	2005-07-13 16:52:14.0	Ventana	 	00:19:08:20	 	V2687-01
 	transect	Euplexaura	 	2687	 	 	 	1812549	 	2005-07-13 20:45:16.0	Ventana	 	04:09:46:18	 	V2687-05
 	transect	Mesomyaria	999.87	2669	 	36.730988	-122.23252	1683769	0.45	2005-05-25 18:33:52.0	Ventana	34.521	00:56:18:00	3.915	V2669-01
 	transect	Lycenchelys camchatica	999.73	2669	 	36.73055	-122.22895	1651018	0.45	2005-05-25 18:06:18.0	Ventana	34.523	00:28:46:04	3.905	V2669-01
 	transect	Psolus squamatus	399.71	2687	 	36.789288	-122.124695	1809601	1.16	2005-07-13 18:23:18.0	Ventana	34.238	01:49:38:02	7.333	V2687-02
 	transect	phialidium	500.55	2681	 	36.696796	-122.05239	2493574	0.44	2005-07-07 17:59:56.0	Ventana	34.346	01:30:19:18	6.019	V2681-02HD
 	transect	Rathbunaster californicus	203.45	2696	 	36.80643	-122.12999	1813758	1.48	2005-08-01 18:27:41.0	Ventana	34.214	01:55:31:23	8.632	V2696-02
 	descend	Cyclothone	330.41	2683	 	36.701214	-122.05006	1756537	1.22	2005-07-11 16:55:24.0	Ventana	34.229	00:43:04:08	7.406	V2683-01
 	transect	beroe	200.46	2681	 	36.69828	-122.05329	2490626	1.73	2005-07-07 17:07:53.0	Ventana	34.193	00:39:01:16	8.328	V2681-01HD
 	transect	Funiculina	999.99	2669	 	36.731422	-122.23677	1686897	0.44	2005-05-25 19:04:05.0	Ventana	34.52	01:26:04:07	3.943	V2669-02
 	descend	Copepoda	467.31	2683	 	36.701626	-122.049355	1756740	0.77	2005-07-11 17:12:29.0	Ventana	34.288	01:00:07:25	6.648	V2683-01
 	transect	Rathbunaster californicus	196.46	2696	 	36.802914	-122.122246	1813052	1.54	2005-08-01 17:01:46.0	Ventana	34.202	00:30:05:08	8.606	V2696-01
 	descend	Appendicularia	1085.78	2682	 	36.69829	-122.059166	1722070	0.53	2005-07-08 19:06:04.0	Ventana	34.545	02:59:05:11	3.721	V2682-03
 	transect	Mesomyaria	1000.02	2669	 	36.731937	-122.245605	1735398	0.41	2005-05-25 20:00:59.0	Ventana	34.51	02:22:29:12	4.066	V2669-03
 	transect	Porifera sp. 1	 	2687	 	 	 	1810307	 	2005-07-13 19:15:03.0	Ventana	 	02:40:47:29	 	V2687-03
 	transect	Glyptocephalus zachirus	 	2687	 	 	 	1807156	 	2005-07-13 17:02:11.0	Ventana	 	00:29:05:25	 	V2687-01
 	transect	Phyllospadix	198.22	2696	 	36.803608	-122.1244	1813255	1.53	2005-08-01 17:27:11.0	Ventana	34.202	00:55:28:00	8.62	V2696-01
 	transect	Psolus squamatus	 	2687	http://search.mbari.org/ARCHIVE/frameGrabs/Ventana/images/2687/00_54_09_20.jpg	 	 	1808692	 	2005-07-13 17:27:17.0	Ventana	 	00:54:09:20	 	V2687-01
 	descend	Copepoda	1182.9	2682	 	36.698467	-122.05833	1722273	0.67	2005-07-08 19:37:21.0	Ventana	34.572	03:29:56:20	3.4	V2682-04
 	transect	Phyllospadix	802.11	2674	 	36.75232	-122.20585	1799848	0.36	2005-06-08 17:59:12.0	Ventana	34.486	00:43:44:21	4.337	V2674-01
 	transect	Mesomyaria	1000.11	2669	 	36.73094	-122.233734	1683949	0.45	2005-05-25 18:40:15.0	Ventana	34.523	01:02:16:19	3.911	V2669-02
 	transect	molt	100.49	2681	 	36.699825	-122.05429	2489717	2.13	2005-07-07 16:48:35.0	Ventana	34.067	00:19:43:11	9.151	V2681-01HD
 	transect	Mesomyaria	801.11	2674	 	36.751087	-122.217514	1803502	0.35	2005-06-08 18:55:48.0	Ventana	34.487	01:39:50:28	4.35	V2674-02
 	ascend	Poeobius meseres	555.52	2682	 	36.698273	-122.06262	1723606	0.38	2005-07-08 21:08:10.0	Ventana	34.358	05:00:16:28	5.857	V2682-05
 	transect	Gonatus	1001.06	2681	 	36.69494	-122.050804	2498561	0.48	2005-07-07 19:22:17.0	Ventana	34.533	02:51:56:23	3.867	V2681-03HD
 	descend	Hastigerinella digitata	369.86	2682	 	36.69846	-122.06001	1720658	0.97	2005-07-08 17:34:18.0	Ventana	34.261	01:27:49:21	7.03	V2682-02
 	descend	Copepoda	1082.25	2683	 	36.70511	-122.04891	1757446	0.52	2005-07-11 19:27:50.0	Ventana	34.534	03:08:11:23	3.797	V2683-03
 	transect	Lycenchelys camchatica	801.05	2674	 	36.752495	-122.200195	1774045	0.29	2005-06-08 17:27:57.0	Ventana	34.455	00:12:31:02	4.643	V2674-01
 	transect	Phyllospadix	598.43	2680	 	36.782196	-122.22731	1805117	0.35	2005-06-27 18:46:33.0	Ventana	34.381	01:25:38:19	5.577	V2680-02
 	transect	cydippida	901.04	2681	 	36.695984	-122.051956	2498381	0.39	2005-07-07 19:11:06.0	Ventana	34.504	02:40:47:25	4.175	V2681-03HD
 	transect	Mesomyaria	799.82	2674	 	36.752537	-122.20388	1799401	0.35	2005-06-08 17:48:17.0	Ventana	34.488	00:32:49:21	4.37	V2674-01
 	ascend	Appendicularia	264.6	2681	 	36.699524	-122.05448	1718416	1.4	2005-07-07 21:08:24.527	Ventana	34.231	04:36:44:13	7.908	V2681-05
 	ascend	Cydippida	 	2683	 	 	 	1758152	 	2005-07-11 14:32:38.0	Ventana	 	05:05:29:16	 	V2683-05
 	ascend	Calycophorae	378.39	2693	 	36.69589	-122.06061	1758779	1.19	2005-07-25 20:50:32.0	Ventana	34.232	03:15:06:09	7.138	V2693-04
 	transect	Henricia sanguinolenta	 	2687	 	 	 	1811013	 	2005-07-13 19:48:17.0	Ventana	 	03:13:18:13	 	V2687-04
 	transect	Anthomastus ritteri	 	2687	 	 	 	1812346	 	2005-07-13 20:33:02.0	Ventana	 	03:58:00:20	 	V2687-04
 	descend	Nanomia	267.74	2682	 	36.69974	-122.06075	1720031	1.35	2005-07-08 16:31:19.0	Ventana	34.232	00:25:22:26	7.761	V2682-01
 	ascend	Appendicularia	946.0	2681	 	36.69745	-122.05388	1716903	0.41	2005-07-07 19:41:39.983	Ventana	34.516	03:10:43:05	4.065	V2681-04
 	transect	Liponema brevicornis	 	2687	 	 	 	1810224	 	2005-07-13 19:10:28.0	Ventana	 	02:36:12:26	 	V2687-03
 	transect	Mesomyaria	999.0	2669	 	36.731415	-122.2362	1684678	0.44	2005-05-25 18:59:03.0	Ventana	34.52	01:21:02:22	3.94	V2669-02
 	stationary	mud	204.88	2696	 	36.807686	-122.13131	1813878	1.46	2005-08-01 18:46:35.0	Ventana	34.226	02:13:39:19	8.634	V2696-03
 	transect	Mesomyaria	800.91	2674	 	36.75254	-122.20165	1799078	0.34	2005-06-08 17:36:40.0	Ventana	34.483	00:21:14:02	4.416	V2674-01
 	transect	Mesomyaria	802.18	2674	 	36.75176	-122.21048	1801020	0.35	2005-06-08 18:22:09.0	Ventana	34.49	01:06:13:22	4.327	V2674-02
 	transect	Psolus squamatus	 	2687	 	 	 	1810930	 	2005-07-13 19:43:04.0	Ventana	 	03:08:05:10	 	V2687-04
 	cruise	Eptatretus	1017.93	2689	http://search.mbari.org/ARCHIVE/frameGrabs/Ventana/images/2689/00_48_26_22.jpg	36.771553	-122.08294	1669878	0.53	2005-07-18 17:25:25.0	Ventana	34.534	00:48:26:22	3.799	V2689-01
 	transect	Mesomyaria	999.66	2669	 	36.73095	-122.231544	1683649	0.45	2005-05-25 18:27:42.0	Ventana	34.522	00:50:08:16	3.912	V2669-01
 	ascend	Phialidium	690.93	2681	 	36.69873	-122.05468	1717609	0.27	2005-07-07 20:21:44.0	Ventana	34.42	03:50:44:22	5.124	V2681-04
 	cruise	Parastichopus leukothele	200.04	2696	 	36.80223	-122.12116	1812872	1.6	2005-08-01 16:36:20.0	Ventana	34.19	00:04:40:22	8.651	V2696-01
 	transect	Bathylagus	901.08	2681	 	36.69656	-122.0527	2498298	0.39	2005-07-07 19:08:29.0	Ventana	34.506	02:38:10:01	4.17	V2681-03HD
 	transect	Ceriantharia sp. 1	801.3	2674	 	36.75095	-122.21908	1803622	0.35	2005-06-08 19:02:42.0	Ventana	34.49	01:46:45:01	4.376	V2674-02
 	descend	Chaetognatha	887.98	2682	 	36.69827	-122.05945	1721770	0.33	2005-07-08 18:50:39.0	Ventana	34.492	02:43:41:16	4.329	V2682-03
 	transect	Psolus squamatus	399.86	2687	 	36.788113	-122.12162	1809218	1.13	2005-07-13 17:37:21.0	Ventana	34.243	01:03:43:12	7.255	V2687-02
 	transect	molt	100.49	2681	 	36.699436	-122.05404	2489800	2.13	2005-07-07 16:50:58.0	Ventana	34.068	00:22:06:23	9.146	V2681-01HD
 	transect	Phyllospadix	400.29	2687	 	36.789036	-122.123924	1809518	1.17	2005-07-13 18:11:19.0	Ventana	34.24	01:37:39:03	7.351	V2687-02
 	cruise	Parastichopus	376.29	2676	http://search.mbari.org/ARCHIVE/frameGrabs/Ventana/images/2676/00_29_41_09.jpg	36.804432	-122.02913	1676480	0.94	2005-06-14 16:45:34.0	Ventana	34.269	00:29:41:09	7.032	V2676-01
 	descend	Sergestes similis	376.09	2683	 	36.701424	-122.049805	1756597	1.06	2005-07-11 16:57:59.0	Ventana	34.243	00:45:37:22	7.008	V2683-01
 	transect	Parastichopus leukothele	200.44	2696	 	36.805195	-122.12808	1813578	1.5	2005-08-01 18:01:16.0	Ventana	34.212	01:29:08:17	8.67	V2696-02
 	ascend	Nanomia	370.92	2693	 	36.69641	-122.06071	1758678	1.2	2005-07-25 20:27:43.0	Ventana	34.232	03:07:16:06	7.164	V2693-03
 	ascend	Nanomia	175.56	2693	 	36.69063	-122.06295	1759245	1.95	2005-07-25 21:30:02.0	Ventana	34.128	03:54:33:04	8.878	V2693-04
 	transect	Nanomia bijuga	200.44	2681	 	36.69828	-122.05329	2490100	1.7	2005-07-07 17:04:42.0	Ventana	34.197	00:35:49:11	8.36	V2681-01HD
 	transect	Ophiuroidea	998.79	2669	 	36.73118	-122.23558	1684355	0.45	2005-05-25 18:54:32.0	Ventana	34.523	01:16:32:14	3.919	V2669-02
 	ascend	sinker	984.09	2681	 	36.696854	-122.05325	1716580	0.45	2005-07-07 19:34:46.5	Ventana	34.525	03:04:26:27	3.954	V2681-03
 	descend	Aegina	689.16	2682	 	36.69865	-122.059975	1721424	0.28	2005-07-08 18:13:28.0	Ventana	34.418	02:06:32:25	5.131	V2682-03
 	ascend	Aegina	602.76	2682	 	36.698654	-122.061455	1723505	0.34	2005-07-08 20:55:57.0	Ventana	34.375	04:48:03:16	5.641	V2682-05
 	transect	Mediaster	 	2687	 	 	 	1811843	 	2005-07-13 20:26:54.0	Ventana	 	03:51:53:00	 	V2687-04
 	transect	Microstomus pacificus	196.7	2696	 	36.803345	-122.12339	1813172	1.55	2005-08-01 17:15:15.0	Ventana	34.201	00:43:33:02	8.623	V2696-01
 	ascend	Chaetognatha	258.17	2681	 	36.697838	-122.05522	1719528	 	2005-07-07 21:29:59.0	Ventana	 	05:11:22:04	 	V2681-05
 	transect	Mesomyaria	1000.13	2669	 	36.731083	-122.239784	1689199	0.41	2005-05-25 19:26:13.0	Ventana	34.51	01:48:10:23	4.062	V2669-02
 	ascend	Nanomia	511.98	2682	 	36.69836	-122.06316	1723666	0.47	2005-07-08 21:12:58.0	Ventana	34.337	05:04:39:07	6.11	V2682-06
 	cruise	Lycodapus	1210.72	2683	 	36.706745	-122.047615	1757649	0.72	2005-07-11 20:12:55.0	Ventana	34.575	03:47:17:19	3.343	V2683-04
 	descend	Euphausiacea	405.96	2682	 	36.698254	-122.05984	1720718	0.8	2005-07-08 17:38:27.0	Ventana	34.27	01:31:58:11	6.566	V2682-02
 	transect	Poeobius meseres	600.58	2681	 	36.69655	-122.052185	2493754	0.3	2005-07-07 18:22:33.0	Ventana	34.388	01:52:54:19	5.48	V2681-02HD
 	transect	Pannychia moseleyi	799.0	2674	 	36.751427	-122.21481	1801380	0.35	2005-06-08 18:43:24.0	Ventana	34.489	01:27:27:18	4.336	V2674-02
 	cruise	Chionoecetes tanneri	1003.74	2679	 	36.68986	-122.1656	1824341	0.42	2005-06-16 17:29:56.0	Ventana	34.513	00:01:19:11	4.112	V2679-01
 	ascend	Appendicularia	460.71	2681	 	36.699013	-122.05419	1717770	0.59	2005-07-07 20:36:26.147	Ventana	34.315	04:05:26:23	6.335	V2681-04
 	transect	Mesomyaria	999.84	2669	 	36.73064	-122.22934	1651078	0.45	2005-05-25 18:08:58.0	Ventana	34.522	00:31:26:08	3.905	V2669-01
 	transect	Caridea sp.1	999.52	2669	 	36.731003	-122.23233	1695095	0.45	2005-05-25 18:31:36.0	Ventana	34.519	00:54:02:03	3.923	V2669-01
 	transect	Hormiphora	200.42	2681	 	36.69828	-122.0533	2490806	1.72	2005-07-07 17:08:59.0	Ventana	34.193	00:40:07:02	8.323	V2681-01HD
 	transect	Mesomyaria	999.53	2669	 	36.731075	-122.2351	1684272	0.45	2005-05-25 18:51:18.0	Ventana	34.521	01:13:18:23	3.921	V2669-02
 	descend	Lobata	315.9	2682	 	36.698917	-122.06067	1720151	1.14	2005-07-08 17:07:30.0	Ventana	34.24	01:01:02:08	7.276	V2682-02
 	transect	Mesomyaria	999.2	2669	 	36.731068	-122.233955	1684009	0.45	2005-05-25 18:41:32.0	Ventana	34.522	01:03:32:24	3.913	V2669-02
 	descend	Nanomia	296.93	2681	 	36.69857	-122.053734	1713632	1.26	2005-07-07 17:18:09.7	Ventana	34.232	00:49:17:09	7.478	V2681-01
 	ascend	Nanomia	200.37	2693	 	36.69083	-122.062706	1759185	1.7	2005-07-25 21:25:44.0	Ventana	34.191	03:50:15:00	8.939	V2693-04
 	transect	Mesomyaria	803.01	2674	 	36.752247	-122.206245	1799908	0.36	2005-06-08 18:01:02.0	Ventana	34.489	00:45:34:12	4.334	V2674-01
 	transect	Psolus squamatus	 	2687	 	 	 	1808895	 	2005-07-13 17:31:28.0	Ventana	 	00:58:20:01	 	V2687-01
 	descend	Chuniphyes	890.76	2681	 	36.696934	-122.05315	1716497	0.37	2005-07-07 19:05:45.133	Ventana	34.502	02:35:27:25	4.201	V2681-03
 	ascend	Appendicularia	352.14	2693	 	36.693886	-122.061066	1758899	1.24	2005-07-25 21:04:04.0	Ventana	34.235	03:28:37:20	7.379	V2693-04
 	transect	Phyllospadix	 	2687	 	 	 	1807682	 	2005-07-13 17:22:26.0	Ventana	 	00:49:19:05	 	V2687-01
 	cruise	line	483.63	2688	http://search.mbari.org/ARCHIVE/frameGrabs/Ventana/images/2688/01_12_21_04.jpg	36.80186	-122.01836	20005138	0.78	2005-07-14 17:26:40.0	Ventana	34.292	01:12:21:04	6.649	V2688-02
 	transect	Pennatulacea sp.1	599.86	2680	 	36.777348	-122.22251	1804268	0.36	2005-06-27 17:45:21.0	Ventana	34.38	00:25:28:17	5.579	V2680-01
 	transect	Mesomyaria	997.67	2669	 	36.7306	-122.22714	1649099	0.45	2005-05-25 17:54:59.0	Ventana	34.522	00:17:27:15	3.909	V2669-01
 	ascend	Appendicularia	254.07	2681	 	36.69836	-122.0559	1719182	1.46	2005-07-07 21:24:42.3	Ventana	34.226	04:53:01:07	7.994	V2681-05
 	transect	Gastropoda sp.2	1000.12	2669	 	36.731052	-122.239296	1694735	0.43	2005-05-25 19:23:02.0	Ventana	34.517	01:45:00:18	3.982	V2669-02
 	transect	Porifera sp. 1	 	2687	 	 	 	1807216	 	2005-07-13 17:03:33.0	Ventana	 	00:30:27:18	 	V2687-01
 	transect	Brisaster	1000.1	2669	 	36.731693	-122.24385	1733982	0.41	2005-05-25 19:49:24.0	Ventana	34.51	02:10:57:07	4.069	V2669-03
 	transect	Rathbunaster californicus	 	2687	 	 	 	1812466	 	2005-07-13 20:40:37.0	Ventana	 	04:05:35:02	 	V2687-04
 	transect	Appendicularia	400.75	2681	 	36.696777	-122.05236	2493048	0.79	2005-07-07 17:45:22.0	Ventana	34.277	01:15:45:21	6.659	V2681-02HD
 	transect	Poeobius meseres	1000.95	2681	 	36.69647	-122.05283	2498704	0.47	2005-07-07 19:29:49.0	Ventana	34.531	02:59:28:21	3.877	V2681-03HD
 	transect	Phyllospadix	997.37	2669	 	36.730606	-122.22757	1649182	0.45	2005-05-25 17:57:54.0	Ventana	34.52	00:20:22:26	3.909	V2669-01
 	descend	Chaetognatha	183.33	2693	 	36.696064	-122.05818	1758272	1.85	2005-07-25 18:12:38.0	Ventana	34.171	00:53:08:14	8.87	V2693-01
 	transect	Mesomyaria	801.21	2674	 	36.75099	-122.21829	1803562	0.35	2005-06-08 18:59:28.0	Ventana	34.491	01:43:31:06	4.336	V2674-02
 	transect	Phyllospadix	801.43	2674	 	36.75192	-122.20983	1800960	0.35	2005-06-08 18:19:31.0	Ventana	34.489	01:03:36:10	4.337	V2674-02
 	transect	Mediaster	 	2687	 	 	 	1811336	 	2005-07-13 20:07:53.0	Ventana	 	03:32:53:03	 	V2687-04
 	transect	Sebastolobus	998.88	2669	 	36.73282	-122.251465	1737216	0.41	2005-05-25 20:42:06.0	Ventana	34.509	03:02:55:10	4.072	V2669-04
 	transect	Calliostoma platinum	 	2687	 	 	 	1808812	 	2005-07-13 17:29:59.0	Ventana	 	00:56:51:02	 	V2687-01
 	transect	Calycophorae	500.53	2681	 	36.69712	-122.05275	2493514	0.44	2005-07-07 17:58:44.0	Ventana	34.346	01:29:06:15	6.03	V2681-02HD
 	descend	Appendicularia	924.6	2683	 	36.703667	-122.048615	1757303	0.38	2005-07-11 19:06:51.0	Ventana	34.507	02:47:14:12	4.192	V2683-03
 	transect	Psolus squamatus	 	2687	 	 	 	1810164	 	2005-07-13 19:03:19.0	Ventana	 	02:29:03:27	 	V2687-03
 	cruise	Anoplopoma fimbria	617.58	2688	http://search.mbari.org/ARCHIVE/frameGrabs/Ventana/images/2688/00_17_17_07.jpg	36.794727	-122.019295	1677310	0.43	2005-07-14 16:30:59.0	Ventana	34.4	00:17:17:07	5.37	V2688-01
 	transect	Porifera sp. 1	 	2687	 	 	 	1812203	 	2005-07-13 20:29:00.0	Ventana	 	03:53:58:04	 	V2687-04
 	transect	Phyllospadix	1000.01	2669	 	36.731236	-122.23825	1688839	0.43	2005-05-25 19:16:42.0	Ventana	34.517	01:38:41:01	3.957	V2669-02
 	transect	Lycenchelys camchatica	802.38	2674	 	36.752243	-122.206665	1799968	0.37	2005-06-08 18:03:18.0	Ventana	34.491	00:47:50:02	4.319	V2674-01
 	transect	Phyllospadix	798.48	2674	 	36.75159	-122.21396	1801320	0.35	2005-06-08 18:37:57.0	Ventana	34.488	01:22:01:08	4.342	V2674-02
 	cruise	Lycodapus	1231.42	2683	 	36.705845	-122.04776	1757566	0.74	2005-07-11 19:57:09.0	Ventana	34.575	03:31:32:02	3.299	V2683-04
 	cruise	Glyptocephalus zachirus	435.11	2688	 	36.804813	-122.018654	1677670	0.89	2005-07-14 17:42:44.767	Ventana	34.278	01:28:28:13	6.878	V2688-02
 	descend	Prayidae	446.72	2682	 	36.69849	-122.059525	1720778	0.57	2005-07-08 17:54:34.0	Ventana	34.316	01:48:04:10	6.316	V2682-02
 	descend	Nanomia	195.87	2681	 	36.69828	-122.05329	1713549	1.81	2005-07-07 17:03:38.567	Ventana	34.188	00:34:47:17	8.349	V2681-01
 	ascend	Chaetognatha	460.44	2683	 	36.704292	-122.05056	1758009	0.74	2005-07-11 21:17:49.0	Ventana	34.293	04:50:40:15	6.602	V2683-05
 	transect	molt	100.5	2681	 	36.698982	-122.05375	2489860	2.12	2005-07-07 16:51:58.0	Ventana	34.07	00:23:07:28	9.148	V2681-01HD
 	transect	Brisaster	1000.6	2669	 	36.732204	-122.24856	1736224	0.41	2005-05-25 20:23:02.0	Ventana	34.511	02:44:30:13	4.06	V2669-03
 	transect	Ceriantharia sp. 2	 	2669	 	 	 	1737576	 	2005-05-25 13:52:01.0	Ventana	 	03:12:49:17	 	V2669-04
 	transect	Diogenidae	600.41	2680	 	36.786182	-122.2309	1805864	0.36	2005-06-27 19:35:19.0	Ventana	34.378	02:13:59:00	5.599	V2680-03
 	transect	Liponema brevicornis	 	2687	 	 	 	1811497	 	2005-07-13 20:14:46.0	Ventana	 	03:39:45:07	 	V2687-04
 	transect	Psolus squamatus	399.87	2687	 	36.788136	-122.121635	1809255	1.13	2005-07-13 17:37:40.0	Ventana	34.243	01:04:02:24	7.26	V2687-02
 	transect	Gastropoda sp.2	1000.39	2669	 	36.73147	-122.24201	1694449	0.4	2005-05-25 19:39:35.0	Ventana	34.509	02:01:32:19	4.077	V2669-02
 	transect	Nanomia bijuga	200.48	2681	 	36.69828	-122.05329	2490566	1.71	2005-07-07 17:07:33.0	Ventana	34.195	00:38:41:17	8.336	V2681-01HD
 	transect	Rhopalonematidae	800.88	2681	 	36.696167	-122.05214	2498238	0.31	2005-07-07 18:59:12.0	Ventana	34.475	02:28:54:02	4.5	V2681-03HD
 	ascend	Aegina	425.17	2682	 	36.697872	-122.0626	1723726	0.79	2005-07-08 21:20:38.0	Ventana	34.268	05:12:19:17	6.612	V2682-06
 	transect	Halipteris californica	598.26	2680	 	36.78137	-122.22638	1804974	0.36	2005-06-27 18:35:25.0	Ventana	34.376	01:14:30:20	5.604	V2680-02
 	transect	Sebastolobus	 	2687	 	 	 	1811760	 	2005-07-13 20:24:38.0	Ventana	 	03:49:37:03	 	V2687-04
 	cruise	Appendicularia	105.36	2676	 	36.809147	-122.0357	1677047	1.94	2005-06-14 18:43:51.0	Ventana	34.152	02:22:38:05	8.46	V2676-03
 	transect	Phyllospadix	203.43	2696	 	36.80735	-122.13102	1813818	1.47	2005-08-01 18:40:31.0	Ventana	34.219	02:07:35:24	8.626	V2696-03
 	ascend	Calycophorae	335.78	2681	 	36.699474	-122.05527	1718116	1.15	2005-07-07 20:54:32.217	Ventana	34.245	04:22:52:24	7.297	V2681-05
 	transect	Chionoecetes tanneri	800.48	2674	 	36.75257	-122.20028	1774082	0.3	2005-06-08 17:29:15.0	Ventana	34.466	00:13:49:06	4.639	V2674-01
 	transect	Phyllospadix	 	2687	 	 	 	1810870	 	2005-07-13 19:38:19.0	Ventana	 	03:04:02:15	 	V2687-03
 	stationary	mud	 	2673	 	 	 	1668406	 	 	Ventana	 	00:33:45:20	 	V2673-01
 	transect	Mesomyaria	1000.45	2669	 	36.731937	-122.24703	1735804	0.41	2005-05-25 20:12:02.0	Ventana	34.51	02:33:32:15	4.063	V2669-03
 	descend	Crustacea	1175.1	2682	 	36.698223	-122.05919	1722190	0.64	2005-07-08 19:14:18.0	Ventana	34.566	03:06:55:21	3.444	V2682-04
 	transect	Microstomus pacificus	997.47	2669	 	36.73064	-122.22781	1649242	0.45	2005-05-25 17:59:33.0	Ventana	34.523	00:22:01:18	3.907	V2669-01
 	transect	Actiniaria sp. 1	999.38	2669	 	36.731266	-122.235855	1684415	0.44	2005-05-25 18:56:25.0	Ventana	34.52	01:18:24:26	3.932	V2669-02
 	transect	Mesomyaria	999.78	2669	 	36.73134	-122.237915	1687566	0.44	2005-05-25 19:14:09.0	Ventana	34.52	01:36:07:29	3.94	V2669-02
 	descend	Appendicularia	626.57	2681	 	36.697952	-122.05387	1715934	0.31	2005-07-07 18:29:36.633	Ventana	34.392	01:59:57:08	5.391	V2681-02
 	ascend	Copepoda	902.96	2681	 	36.697975	-122.054726	1717143	0.37	2005-07-07 19:48:27.657	Ventana	34.503	03:17:30:13	4.203	V2681-04
 	ascend	Mysidae	658.17	2683	 	36.705322	-122.049805	1757912	0.28	2005-07-11 21:08:40.0	Ventana	34.422	04:41:32:05	5.161	V2683-05
 	starttransect	physical object	 	2687	 	 	 	1812406	 	2005-07-13 20:37:19.0	Ventana	 	04:02:16:27	 	V2687-04
 	transect	Ceriantharia sp. 2	999.53	2669	 	36.73078	-122.229515	1683363	0.45	2005-05-25 18:10:47.0	Ventana	34.523	00:33:14:25	3.906	V2669-01
 	ascend	Modeeria rotunda	852.8	2682	 	36.698658	-122.05851	1723242	0.33	2005-07-08 20:20:12.0	Ventana	34.485	04:12:21:08	4.385	V2682-05
 	cruise	Mysidae	345.89	2688	 	36.807842	-122.02008	1677813	1.2	2005-07-14 18:05:49.0	Ventana	34.232	01:51:31:10	7.483	V2688-02
 	transect	Mesomyaria	1000.09	2669	 	36.73118	-122.24041	1689259	0.41	2005-05-25 19:30:03.0	Ventana	34.51	01:52:01:15	4.06	V2669-02
 	ascend	Copepoda	868.62	2681	 	36.698425	-122.05546	1717346	0.35	2005-07-07 19:52:56.3	Ventana	34.5	03:21:59:09	4.309	V2681-04
 	transect	Mediaster	 	2687	 	 	 	1812609	 	2005-07-13 20:47:17.0	Ventana	 	04:11:47:13	 	V2687-05
 	cruise	Pleuronectiformes	459.96	2688	 	36.80296	-122.01815	1677610	0.87	2005-07-14 17:32:49.0	Ventana	34.276	01:18:33:13	6.839	V2688-02
 	transect	Rathbunaster californicus	196.34	2696	 	36.8031	-122.12274	1813112	1.57	2005-08-01 17:07:44.0	Ventana	34.196	00:36:02:23	8.631	V2696-01
 	descend	Aegina	717.46	2682	 	36.69847	-122.059906	1721484	0.28	2005-07-08 18:22:39.0	Ventana	34.438	02:15:43:05	4.91	V2682-03
 	ascend	Appendicularia	585.34	2682	 	36.698826	-122.0603	1723445	0.4	2005-07-08 20:42:25.0	Ventana	34.371	04:34:32:23	5.672	V2682-05
 	ascend	Nanomia	352.85	2683	 	36.703735	-122.050606	1758069	1.11	2005-07-11 21:22:20.0	Ventana	34.24	04:55:11:09	7.117	V2683-05
 	transect	Brisaster	999.26	2669	 	36.73101	-122.23201	1683709	0.45	2005-05-25 18:30:10.0	Ventana	34.523	00:52:36:10	3.913	V2669-01
 	transect	Mesomyaria	1000.48	2669	 	36.731293	-122.24151	1689808	0.4	2005-05-25 19:36:39.0	Ventana	34.508	01:58:36:08	4.091	V2669-02
 	transect	Chaetognatha	200.36	2681	 	36.698315	-122.05342	2491272	1.66	2005-07-07 17:13:18.0	Ventana	34.2	00:44:26:10	8.341	V2681-01HD
 	transect	Lycenchelys camchatica	998.74	2669	 	36.731155	-122.2341	1684069	0.45	2005-05-25 18:42:40.0	Ventana	34.522	01:04:41:00	3.916	V2669-02
 	ascend	Appendicularia	957.82	2681	 	36.69728	-122.05371	1716843	0.42	2005-07-07 19:39:54.033	Ventana	34.517	03:08:57:25	4.043	V2681-04
 	descend	Aegina	833.31	2683	 	36.702747	-122.0486	1757206	0.33	2005-07-11 18:17:59.0	Ventana	34.481	02:02:02:26	4.456	V2683-02
 	transect	Hormiphora	200.37	2681	 	36.69829	-122.05334	2491069	1.7	2005-07-07 17:11:26.0	Ventana	34.196	00:42:33:28	8.332	V2681-01HD
 	descend	Haliscera	400.25	2681	 	36.695602	-122.05108	1715228	0.79	2005-07-07 17:36:41.4	Ventana	34.278	01:07:05:08	6.676	V2681-02
 	descend	Hormiphora	195.18	2682	 	36.699894	-122.06074	1719948	2.0	2005-07-08 16:20:34.0	Ventana	34.137	00:14:37:22	8.133	V2682-01
 	descend	Cydippida	415.57	2683	 	36.70144	-122.04957	1756657	0.89	2005-07-11 17:05:41.0	Ventana	34.266	00:53:19:25	6.852	V2683-01
 	transect	Rathbunaster californicus	199.4	2696	 	36.80382	-122.12511	1813315	1.52	2005-08-01 17:33:46.0	Ventana	34.206	01:02:03:13	8.636	V2696-01
 	ascend	Hastigerinella digitata	308.66	2681	 	36.699665	-122.05526	1718176	1.27	2005-07-07 20:58:30.4	Ventana	34.231	04:26:50:28	7.551	V2681-05
 	descend	Chaetognatha	306.22	2682	 	36.69943	-122.060715	1720091	1.15	2005-07-08 16:44:11.0	Ventana	34.241	00:38:14:06	7.312	V2682-01
 	descend	Mysidae	1026.1	2682	 	36.698322	-122.05919	1722033	0.47	2005-07-08 19:01:46.0	Ventana	34.531	02:54:47:13	3.875	V2682-03
 	transect	Poeobius meseres	901.02	2681	 	36.695473	-122.051315	2498441	0.39	2005-07-07 19:13:30.0	Ventana	34.505	02:43:11:08	4.171	V2681-03HD
 	transect	Ophiuroidea	999.07	2669	 	36.73139	-122.23644	1684775	0.44	2005-05-25 19:00:59.0	Ventana	34.52	01:22:59:06	3.941	V2669-02
 	transect	Mediaster	 	2687	 	 	 	1811700	 	2005-07-13 20:20:56.0	Ventana	 	03:45:54:29	 	V2687-04
 	ascend	Nanomia	258.17	2681	 	36.697838	-122.05522	1719385	 	2005-07-07 21:29:59.0	Ventana	 	05:03:08:27	 	V2681-05
 	ascend	Chaetognatha	257.15	2681	 	36.697956	-122.054985	1719242	1.46	2005-07-07 21:26:32.567	Ventana	34.223	04:54:51:27	7.984	V2681-05
 	descend	Chaetognatha	987.26	2683	 	36.704113	-122.049065	1757363	0.42	2005-07-11 19:15:06.0	Ventana	34.517	02:55:27:29	4.031	V2683-03
 	transect	Brisaster	1000.65	2669	 	36.732075	-122.24786	1736164	0.4	2005-05-25 20:17:44.0	Ventana	34.505	02:39:13:16	4.083	V2669-03
 	cruise	Sebastes	279.93	2676	 	36.805233	-122.0293	1676701	1.5	2005-06-14 17:32:00.0	Ventana	34.209	01:11:44:19	7.955	V2676-02
 	transect	Psolus squamatus	 	2687	 	 	 	1808609	 	2005-07-13 17:25:22.0	Ventana	 	00:52:14:15	 	V2687-01
 	transect	Euphausia	200.43	2681	 	36.6984	-122.05348	2491415	1.67	2005-07-07 17:14:07.0	Ventana	34.199	00:45:13:26	8.341	V2681-01HD
 	descend	Appendicularia	1183.16	2682	 	36.698257	-122.057884	1722333	0.66	2005-07-08 19:40:34.0	Ventana	34.57	03:33:10:28	3.413	V2682-04
 	transect	Mediaster	 	2687	 	 	 	1812263	 	2005-07-13 20:30:09.0	Ventana	 	03:55:07:08	 	V2687-04
 	transect	Phyllospadix	200.44	2696	 	36.80475	-122.12726	1813518	1.51	2005-08-01 17:55:40.0	Ventana	34.213	01:23:32:19	8.671	V2696-02
 	transect	Mesomyaria	998.36	2669	 	36.731018	-122.2303	1651281	0.45	2005-05-25 18:16:51.0	Ventana	34.522	00:39:18:14	3.912	V2669-01
 	cruise	Pleuronectiformes	469.54	2676	http://search.mbari.org/ARCHIVE/frameGrabs/Ventana/images/2676/00_17_53_17.jpg	36.802444	-122.02938	1676277	0.56	2005-06-14 16:33:46.0	Ventana	34.336	00:17:53:17	6.159	V2676-01
 	ascend	Appendicularia	923.55	2681	 	36.697712	-122.0543	1717000	0.4	2005-07-07 19:45:06.0	Ventana	34.507	03:14:09:00	4.154	V2681-04
 	cruise	Actiniaria	500.44	2695	 	36.783905	-122.199875	1824401	0.89	2005-07-28 16:58:21.0	Ventana	34.266	00:04:43:14	6.719	V2695-01
 	ascend	sinker	408.81	2681	 	36.69924	-122.05439	1717973	0.82	2005-07-07 20:46:51.367	Ventana	34.279	04:15:12:04	6.764	V2681-05
 	transect	Psolus squamatus	399.85	2687	 	36.788048	-122.121544	1809158	1.13	2005-07-13 17:36:18.0	Ventana	34.242	01:02:40:26	7.271	V2687-02
 	transect	Mediaster	 	2687	 	 	 	1810367	 	2005-07-13 19:16:48.0	Ventana	 	02:42:32:11	 	V2687-03
 	transect	Vitreosalpa gemini	600.57	2681	 	36.697117	-122.05286	2493814	0.3	2005-07-07 18:25:08.0	Ventana	34.388	01:55:29:00	5.469	V2681-02HD
 	descend	Chaetognatha	590.02	2683	 	36.701923	-122.049095	1757003	0.36	2005-07-11 17:48:30.0	Ventana	34.366	01:32:36:05	5.829	V2683-02
 	ascend	Copepoda	739.1	2681	 	36.698734	-122.055565	1717549	0.26	2005-07-07 20:15:59.633	Ventana	34.444	03:45:01:06	4.85	V2681-04
 	transect	Neptunea amianta	598.27	2680	http://search.mbari.org/ARCHIVE/frameGrabs/Ventana/images/2680/01_17_59_22.jpg	36.781612	-122.22673	1805034	0.36	2005-06-27 18:38:54.0	Ventana	34.376	01:17:59:22	5.602	V2680-02
 	transect	Psolus squamatus	399.87	2687	 	36.788128	-122.12177	1809315	1.13	2005-07-13 17:39:23.0	Ventana	34.241	01:05:45:16	7.267	V2687-02
 	transect	Neptunea amianta	799.96	2674	 	36.752453	-122.20493	1799687	0.35	2005-06-08 17:54:10.0	Ventana	34.488	00:38:42:28	4.354	V2674-01
 	transect	Aegina	1001.02	2681	 	36.695763	-122.05186	2498644	0.48	2005-07-07 19:26:38.0	Ventana	34.531	02:56:19:06	3.857	V2681-03HD
 	descend	Cydippida	163.42	2683	 	36.70075	-122.05152	1756297	1.7	2005-07-11 16:29:22.0	Ventana	34.175	00:17:04:10	8.774	V2683-01
 	transect	Phyllospadix	800.95	2674	 	36.752613	-122.2019	1799138	0.34	2005-06-08 17:38:33.0	Ventana	34.491	00:23:07:06	4.389	V2674-01
 	transect	Phyllospadix	399.5	2687	 	36.78941	-122.12519	1809661	1.14	2005-07-13 18:31:15.0	Ventana	34.242	01:57:33:29	7.303	V2687-02
 	cruise	Porifera	260.87	2688	http://search.mbari.org/ARCHIVE/frameGrabs/Ventana/images/2688/02_12_50_24.jpg	36.80913	-122.020355	20005198	1.51	2005-07-14 18:27:35.0	Ventana	34.203	02:12:50:24	8.148	V2688-03
 	transect	Ceriantharia sp. 1	602.83	2680	 	36.789467	-122.232544	1806713	0.36	2005-06-27 20:10:51.0	Ventana	34.377	02:49:28:15	5.589	V2680-03
 	transect	Mediaster	 	2687	 	 	 	1812812	 	2005-07-13 20:59:01.0	Ventana	 	04:23:30:29	 	V2687-05
 	transect	Psolus squamatus	 	2687	 	 	 	1808955	 	2005-07-13 17:32:35.0	Ventana	 	00:59:27:24	 	V2687-01
 	transect	Sergestes similis	300.43	2681	 	36.698093	-122.05342	2492042	1.24	2005-07-07 17:21:11.0	Ventana	34.233	00:52:17:21	7.404	V2681-01HD
 	ascend	Euphausiacea	263.11	2681	 	36.69889	-122.056786	1718882	1.42	2005-07-07 21:18:55.2	Ventana	34.232	04:47:14:14	7.941	V2681-05
 	descend	Bathocyroe	565.01	2682	 	36.698635	-122.05981	1720921	0.34	2005-07-08 18:06:18.0	Ventana	34.373	01:59:46:11	5.622	V2682-02
 	transect	Phyllospadix	801.66	2674	 	36.752464	-122.19948	1773782	0.29	2005-06-08 17:23:52.0	Ventana	34.46	00:08:26:12	4.649	V2674-01
 	cruise	Rathbunaster californicus	 	2687	 	 	 	1806916	 	2005-07-13 16:38:33.0	Ventana	 	00:05:28:11	 	V2687-01
 	transect	Appendicularia	400.78	2681	 	36.697216	-122.05285	2493108	0.79	2005-07-07 17:47:08.0	Ventana	34.278	01:17:32:11	6.663	V2681-02HD
 	transect	Allocentrotus fragilis	 	2687	 	 	 	1811276	 	2005-07-13 20:05:34.0	Ventana	 	03:30:33:21	 	V2687-04
 	transect	Phyllospadix	801.6	2674	 	36.752182	-122.20788	1800111	0.35	2005-06-08 18:08:52.0	Ventana	34.49	00:53:23:24	4.328	V2674-01
 	transect	Corallimorphus pilatus	 	2687	 	 	 	1810021	 	2005-07-13 18:51:08.0	Ventana	 	02:16:54:12	 	V2687-03
 	transect	Leptomedusae	200.46	2681	 	36.69828	-122.05329	2490709	1.71	2005-07-07 17:08:25.0	Ventana	34.193	00:39:32:17	8.323	V2681-01HD
 	transect	Mediaster	 	2687	 	 	 	1807073	 	2005-07-13 16:57:51.0	Ventana	 	00:24:45:01	 	V2687-01
 	ascend	sinker	1185.99	2683	 	36.70737	-122.04783	1757709	0.71	2005-07-11 20:24:15.0	Ventana	34.572	03:58:37:13	3.365	V2683-04
 	transect	Mediaster	 	2687	 	 	 	1810727	 	2005-07-13 19:29:52.0	Ventana	 	02:55:35:16	 	V2687-03
 	transect	Psolus squamatus	 	2687	 	 	 	1807622	 	2005-07-13 17:18:22.0	Ventana	 	00:45:14:27	 	V2687-01
 	transect	Rathbunaster californicus	203.43	2696	 	36.80526	-122.1282	1813675	1.48	2005-08-01 18:14:21.0	Ventana	34.217	01:42:12:29	8.631	V2696-02
 	transect	lobata	500.59	2681	 	36.695847	-122.05129	2493657	0.43	2005-07-07 18:04:12.0	Ventana	34.349	01:34:34:29	6.006	V2681-02HD
 	transect	phialidium	700.59	2681	 	36.695396	-122.05118	2497938	0.28	2005-07-07 18:46:40.0	Ventana	34.433	02:16:23:07	4.984	V2681-03HD
 	transect	Sergestes similis	300.44	2681	 	36.697483	-122.05294	2492245	1.24	2005-07-07 17:23:15.0	Ventana	34.233	00:54:22:24	7.402	V2681-01HD
 	descend	Appendicularia	603.82	2681	 	36.695656	-122.051125	1715694	0.3	2005-07-07 18:11:29.213	Ventana	34.389	01:41:50:14	5.471	V2681-02
 	descend	Poeobius meseres	791.1	2683	 	36.702602	-122.048836	1757146	0.36	2005-07-11 17:59:51.0	Ventana	34.457	01:43:57:11	4.69	V2683-02
 	transect	apolemia	700.64	2681	 	36.69614	-122.05204	2497772	0.28	2005-07-07 18:43:17.0	Ventana	34.436	02:13:00:19	4.946	V2681-03HD
 	transect	Psolus squamatus	 	2687	http://search.mbari.org/ARCHIVE/frameGrabs/Ventana/images/2687/00_59_58_03.jpg	 	 	1808992	 	2005-07-13 17:33:06.0	Ventana	 	00:59:58:03	 	V2687-01
 	ascend	Nanomia	258.17	2681	 	36.697838	-122.05522	1719302	 	2005-07-07 21:29:59.0	Ventana	 	04:59:59:19	 	V2681-05
 	cruise	boulder	245.08	2688	http://search.mbari.org/ARCHIVE/frameGrabs/Ventana/images/2688/02_16_27_17.jpg	36.80965	-122.02048	1677896	1.56	2005-07-14 18:31:12.0	Ventana	34.187	02:16:27:17	8.275	V2688-03
 	transect	Mesomyaria	1000.29	2669	 	36.731255	-122.241295	1689748	0.4	2005-05-25 19:35:35.0	Ventana	34.508	01:57:33:03	4.086	V2669-02
 	transect	Mesomyaria	799.77	2674	 	36.75247	-122.20527	1799765	0.35	2005-06-08 17:56:18.0	Ventana	34.487	00:40:50:22	4.365	V2674-01
 	transect	Mediaster	 	2687	 	 	 	1811617	 	2005-07-13 20:17:24.0	Ventana	 	03:42:22:21	 	V2687-04
 	ascend	Appendicularia	332.98	2693	 	36.692226	-122.06183	1759019	1.29	2005-07-25 21:15:39.0	Ventana	34.237	03:40:12:04	7.551	V2693-04
 	transect	Ophiuroidea	997.75	2669	 	36.731155	-122.23087	1683469	0.45	2005-05-25 18:21:41.0	Ventana	34.519	00:44:07:25	3.927	V2669-01
 	ascend	Chuniphyes	956.51	2682	 	36.69772	-122.05844	1723002	0.44	2005-07-08 20:08:18.0	Ventana	34.519	04:00:29:04	4.003	V2682-05
 	descend	Euphausiacea	145.93	2693	 	36.696346	-122.05773	1758175	1.95	2005-07-25 17:56:17.0	Ventana	34.108	00:36:48:21	9.019	V2693-01
 	descend	Chaetognatha	207.0	2683	 	36.701023	-122.050896	1756394	1.71	2005-07-11 16:47:44.0	Ventana	34.188	00:35:23:09	8.298	V2683-01
 	descend	Chaetognatha	282.22	2682	 	36.699684	-122.060844	1720054	1.31	2005-07-08 16:35:58.0	Ventana	34.229	00:30:01:23	7.618	V2682-01
 	transect	Mesomyaria	1000.4	2669	 	36.73158	-122.24316	1733779	0.41	2005-05-25 19:45:21.0	Ventana	34.511	02:06:53:22	4.062	V2669-03
 	cruise	Ophiodon elongatus	192.07	2676	http://search.mbari.org/ARCHIVE/frameGrabs/Ventana/images/2676/01_26_18_27.jpg	36.807438	-122.029625	1676821	1.6	2005-06-14 17:46:36.0	Ventana	34.199	01:26:18:27	8.095	V2676-02
 	transect	Phyllospadix	800.73	2674	 	36.751114	-122.21695	1803465	0.35	2005-06-08 18:53:14.0	Ventana	34.495	01:37:16:17	4.351	V2674-02
 	transect	Mediaster	 	2687	 	 	 	1810404	 	2005-07-13 19:17:03.0	Ventana	 	02:42:47:23	 	V2687-03
 	transect	Sebastes crameri	 	2687	 	 	 	1812369	 	2005-07-13 20:34:43.0	Ventana	 	03:59:40:26	 	V2687-04
 	transect	Phyllospadix	999.9	2669	 	36.732635	-122.25102	1737050	0.4	2005-05-25 20:38:56.0	Ventana	34.51	03:00:24:10	4.07	V2669-03
 	transect	Chionoecetes tanneri	599.67	2680	 	36.778873	-122.22406	1804448	0.36	2005-06-27 18:04:27.0	Ventana	34.381	00:44:33:29	5.596	V2680-01
 	transect	Ceriantharia sp. 1	602.08	2680	 	36.79063	-122.23279	1806796	0.35	2005-06-27 20:21:45.0	Ventana	34.379	03:00:22:03	5.589	V2680-03
 	transect	Neptunea amianta	800.04	2674	 	36.75249	-122.20327	1799304	0.34	2005-06-08 17:45:05.0	Ventana	34.48	00:29:38:25	4.389	V2674-01
 	transect	Umbellula lindahli	598.0	2680	 	36.78111	-122.22605	1804877	0.36	2005-06-27 18:31:50.0	Ventana	34.379	01:10:56:20	5.6	V2680-02
 	transect	Calycophorae	300.42	2681	 	36.696102	-122.05174	2492568	1.24	2005-07-07 17:28:03.0	Ventana	34.233	00:59:10:24	7.427	V2681-01HD
 	cruise	Pleuronectiformes	479.9	2688	 	36.80198	-122.018295	1677573	0.8	2005-07-14 17:27:26.0	Ventana	34.289	01:13:10:21	6.681	V2688-02
 	transect	Sebastolobus altivelis	801.48	2674	 	36.752224	-122.20767	1800088	0.39	2005-06-08 18:08:06.0	Ventana	34.493	00:52:38:05	4.336	V2674-01
 	transect	Mesomyaria	999.79	2669	 	36.731415	-122.23717	1687460	0.44	2005-05-25 19:07:58.0	Ventana	34.52	01:29:57:20	3.942	V2669-02
 	ascend	Lobata	1068.54	2683	 	36.70759	-122.04914	1757806	0.56	2005-07-11 20:46:07.0	Ventana	34.541	04:20:27:24	3.727	V2683-04
 	transect	Calliostoma platinum	 	2687	 	 	 	1810773	 	2005-07-13 19:33:29.0	Ventana	 	02:59:12:16	 	V2687-03
 	ascend	Copepoda	796.04	2681	 	36.699078	-122.056526	1717429	0.33	2005-07-07 20:02:11.767	Ventana	34.466	03:31:14:06	4.609	V2681-04
 	transect	molt	100.52	2681	 	36.69983	-122.05429	2489620	2.13	2005-07-07 16:46:24.0	Ventana	34.068	00:17:33:29	9.144	V2681-01HD
 	transect	Mesomyaria	999.85	2669	 	36.731743	-122.244064	1734102	0.4	2005-05-25 19:50:39.0	Ventana	34.51	02:12:11:00	4.072	V2669-03
 	descend	Appendicularia	467.29	2683	 	36.701546	-122.049355	1756763	0.77	2005-07-11 17:14:36.0	Ventana	34.287	01:02:14:27	6.652	V2683-01
 	ascend	sinker	1094.14	2682	 	36.69806	-122.05753	1722633	0.57	2005-07-08 19:58:59.0	Ventana	34.551	03:51:34:11	3.61	V2682-04
 	endtransect	object	194.85	2696	 	36.802654	-122.12169	1813029	1.54	2005-08-01 16:56:58.0	Ventana	34.2	00:25:17:08	8.6	V2696-01
 	transect	Aegina	500.61	2681	 	36.69622	-122.05175	2493611	0.44	2005-07-07 18:02:21.0	Ventana	34.347	01:32:44:23	6.013	V2681-02HD
 	cruise	Glyptocephalus zachirus	439.26	2676	 	36.803238	-122.02924	1676360	0.63	2005-06-14 16:39:48.0	Ventana	34.327	00:23:56:11	6.38	V2676-01
 	transect	Mediaster	 	2687	 	 	 	1812692	 	2005-07-13 20:52:30.0	Ventana	 	04:17:01:03	 	V2687-05
 	transect	Psolus squamatus	 	2687	 	 	 	1810081	 	2005-07-13 18:55:00.0	Ventana	 	02:20:45:01	 	V2687-03
 	ascend	Appendicularia	604.36	2682	 	36.698627	-122.06162	1723523	0.34	2005-07-08 20:57:07.0	Ventana	34.375	04:49:14:04	5.634	V2682-05
 	transect	Rathbunaster californicus	204.08	2696	 	36.805935	-122.12941	1813721	1.49	2005-08-01 18:20:27.0	Ventana	34.211	01:48:18:05	8.631	V2696-02
 	cruise	Rathbunaster californicus	100.63	2688	 	36.81634	-122.01438	1679308	1.98	2005-07-14 19:49:05.0	Ventana	34.086	03:33:51:22	8.908	V2688-04
 	ascend	Aegina	711.45	2682	 	36.698837	-122.05933	1723325	0.28	2005-07-08 20:31:27.0	Ventana	34.427	04:23:35:29	5.0	V2682-05
 	transect	Phyllospadix	800.27	2674	 	36.75176	-122.21194	1801163	0.35	2005-06-08 18:27:53.0	Ventana	34.488	01:11:58:02	4.343	V2674-02
 	transect	Mediaster	 	2687	 	 	 	1812309	 	2005-07-13 20:31:52.0	Ventana	 	03:56:50:18	 	V2687-04
 	transect	Ophiuroidea	997.62	2669	 	36.730614	-122.228134	1649339	0.45	2005-05-25 18:01:24.0	Ventana	34.521	00:23:52:26	3.907	V2669-01
 	transect	Ceriantharia sp. 1	599.38	2680	 	36.779408	-122.22448	1804508	0.36	2005-06-27 18:09:29.0	Ventana	34.378	00:49:34:23	5.598	V2680-01
 	transect	Mesomyaria	999.26	2669	 	36.731373	-122.23601	1684512	0.44	2005-05-25 18:57:41.0	Ventana	34.52	01:19:41:07	3.938	V2669-02
 	transect	Mesomyaria	1000.18	2669	 	36.731796	-122.244675	1734425	0.4	2005-05-25 19:54:30.0	Ventana	34.508	02:16:01:13	4.09	V2669-03
 	transect	Phyllospadix	801.5	2674	 	36.75196	-122.20934	1800900	0.36	2005-06-08 18:16:16.0	Ventana	34.491	01:00:47:05	4.321	V2674-01
 	transect	Dosidicus gigas	400.81	2681	 	36.695774	-122.05116	2492891	0.79	2005-07-07 17:40:47.0	Ventana	34.277	01:11:10:12	6.67	V2681-02HD
 	ascend	Appendicularia	770.05	2681	 	36.69864	-122.056206	1717489	0.28	2005-07-07 20:09:26.083	Ventana	34.452	03:38:28:02	4.763	V2681-04
 	ascend	Nanomia	258.17	2681	 	36.697838	-122.05522	1719362	 	2005-07-07 21:29:59.0	Ventana	 	05:02:34:29	 	V2681-05
 	transect	Psolus squamatus	399.91	2687	 	36.788143	-122.12182	1809361	1.13	2005-07-13 17:40:03.0	Ventana	34.252	01:06:25:10	7.29	V2687-02
 	transect	Ophiuroidea	999.96	2669	 	36.73097	-122.23305	1683852	0.45	2005-05-25 18:37:04.0	Ventana	34.522	00:59:30:10	3.911	V2669-01
 	transect	Sebastolobus	999.44	2669	 	36.73133	-122.23592	1684452	0.44	2005-05-25 18:57:06.0	Ventana	34.52	01:19:05:22	3.936	V2669-02
 	transect	Mesomyaria	1000.28	2669	 	36.73123	-122.241	1689365	0.41	2005-05-25 19:34:02.0	Ventana	34.511	01:55:59:20	4.054	V2669-02
 	descend	Sergestes similis	304.65	2683	 	36.701096	-122.05015	1756500	1.26	2005-07-11 16:53:58.0	Ventana	34.243	00:41:38:16	7.663	V2683-01
 	descend	Calycophorae	1125.38	2683	 	36.705116	-122.048904	1757483	0.61	2005-07-11 19:31:29.0	Ventana	34.548	03:11:49:11	3.624	V2683-03
 	cruise	mud	205.16	2688	 	36.81034	-122.02106	1677956	1.73	2005-07-14 18:34:24.0	Ventana	34.161	02:19:39:16	8.683	V2688-03
 	transect	Gastropoda sp.2	1000.3	2669	 	36.730927	-122.233574	1694629	0.45	2005-05-25 18:39:35.0	Ventana	34.521	01:01:36:15	3.913	V2669-02
 	descend	Crustacea	593.48	2681	 	36.695686	-122.05108	1715634	0.32	2005-07-07 18:07:35.2	Ventana	34.379	01:37:56:20	5.551	V2681-02
 	descend	Sergestes similis	440.82	2681	 	36.698082	-122.05385	1715325	0.58	2005-07-07 17:51:54.0	Ventana	34.31	01:22:16:13	6.259	V2681-02
 	transect	Psolus squamatus	 	2687	 	 	 	1811419	 	2005-07-13 20:12:02.0	Ventana	 	03:37:01:16	 	V2687-04
 	transect	Mesomyaria	800.99	2674	 	36.75256	-122.201324	1774188	0.34	2005-06-08 17:35:10.0	Ventana	34.482	00:19:44:01	4.38	V2674-01
 	transect	Mediaster	 	2687	 	 	 	1809804	 	2005-07-13 18:42:55.0	Ventana	 	02:08:41:21	 	V2687-03
 	transect	Psolus squamatus	 	2687	 	 	 	1811156	 	2005-07-13 19:57:30.0	Ventana	 	03:22:30:02	 	V2687-04
 	transect	Lycenchelys camchatica	799.96	2674	 	36.75131	-122.21557	1803359	0.35	2005-06-08 18:46:38.0	Ventana	34.491	01:30:41:10	4.341	V2674-02
 	ascend	Pasiphaeidae	498.08	2694	 	36.78464	-122.20064	1676761	0.51	2005-07-27 20:58:27.0	Ventana	34.335	03:29:48:00	5.995	V2694-04
 	ascend	Appendicularia	636.5	2682	 	36.69887	-122.059715	1723385	0.3	2005-07-08 20:36:35.0	Ventana	34.389	04:28:43:25	5.407	V2682-05
 	transect	Psolus squamatus	 	2687	 	 	 	1812752	 	2005-07-13 20:56:02.0	Ventana	 	04:20:32:00	 	V2687-05
 	transect	Appendicularia	400.72	2681	 	36.697914	-122.05363	2493228	0.79	2005-07-07 17:50:05.0	Ventana	34.279	01:20:29:20	6.66	V2681-02HD
 	transect	Calycophorae	1001.12	2681	 	36.69468	-122.050446	2498524	0.47	2005-07-07 19:20:47.0	Ventana	34.531	02:50:27:04	3.868	V2681-03HD
 	transect	Ophiuroidea	999.83	2669	 	36.731426	-122.2367	1684821	0.44	2005-05-25 19:03:40.0	Ventana	34.52	01:25:39:09	3.938	V2669-02
 	transect	Brisaster	999.84	2669	 	36.731102	-122.23907	1689102	0.43	2005-05-25 19:21:47.0	Ventana	34.516	01:43:45:21	3.967	V2669-02
 	ascend	Appendicularia	1168.63	2683	 	36.70772	-122.04885	1757746	0.7	2005-07-11 20:31:57.0	Ventana	34.57	04:06:18:13	3.398	V2683-04
 	transect	molt	100.48	2681	 	36.699825	-122.05429	2489680	2.13	2005-07-07 16:47:45.0	Ventana	34.068	00:18:53:23	9.149	V2681-01HD
 	transect	Nanomia bijuga	400.81	2681	 	36.696148	-122.051605	2492965	0.79	2005-07-07 17:42:37.0	Ventana	34.277	01:13:00:16	6.661	V2681-02HD
 	transect	Phyllospadix	799.95	2674	 	36.752506	-122.20362	1799364	0.35	2005-06-08 17:47:12.0	Ventana	34.488	00:31:45:08	4.379	V2674-01
 	ascend	Appendicularia	289.4	2693	 	36.691444	-122.06216	1759079	1.37	2005-07-25 21:19:57.0	Ventana	34.237	03:44:28:18	8.106	V2693-04
 	transect	Nanomia bijuga	200.39	2681	 	36.69832	-122.05343	2491295	1.66	2005-07-07 17:13:26.0	Ventana	34.2	00:44:34:25	8.34	V2681-01HD
 	transect	Mesomyaria	999.97	2669	 	36.7326	-122.25044	1736990	0.41	2005-05-25 20:36:18.0	Ventana	34.509	02:57:46:16	4.07	V2669-03
 	ascend	surface water	 	2693	 	 	 	1759282	 	2005-07-25 14:42:24.0	Ventana	 	04:06:54:26	 	V2693-04
 	transect	Ceriantharia sp. 1	599.87	2680	 	36.778355	-122.22352	1804388	0.36	2005-06-27 17:57:19.0	Ventana	34.377	00:37:25:27	5.595	V2680-01
 	transect	Chionoecetes tanneri	602.04	2680	 	36.791534	-122.232956	1806856	0.35	2005-06-27 20:28:44.0	Ventana	34.38	03:07:20:12	5.586	V2680-03
 	transect	Rathbunaster californicus	201.23	2696	 	36.805256	-122.12819	1813615	1.5	2005-08-01 18:06:10.0	Ventana	34.21	01:34:02:05	8.67	V2696-02
 	transect	Phyllospadix	196.35	2696	 	36.803047	-122.1226	1813089	1.56	2005-08-01 17:06:05.0	Ventana	34.199	00:34:24:07	8.617	V2696-01
 	transect	Chionoecetes tanneri	799.44	2674	 	36.751686	-122.21287	1801237	0.35	2005-06-08 18:31:15.0	Ventana	34.489	01:15:19:27	4.335	V2674-02
 	descend	Appendicularia	517.11	2683	 	36.701454	-122.04916	1756883	0.62	2005-07-11 17:41:00.0	Ventana	34.312	01:25:05:23	6.358	V2683-02
 	transect	Sebastolobus altivelis	805.26	2674	 	36.75065	-122.22132	1803728	0.33	2005-06-08 19:13:49.0	Ventana	34.479	01:57:50:14	4.419	V2674-02
 	transect	Salpida	600.59	2681	 	36.69627	-122.051865	2493717	0.3	2005-07-07 18:21:15.0	Ventana	34.387	01:51:36:00	5.489	V2681-02HD
 	cruise	Asteroidea	423.1	2676	http://search.mbari.org/ARCHIVE/frameGrabs/Ventana/images/2676/00_26_33_06.jpg	36.80363	-122.02922	1676420	0.68	2005-06-14 16:42:26.0	Ventana	34.311	00:26:33:06	6.496	V2676-01
 	transect	Nanomia bijuga	200.44	2681	 	36.69828	-122.0533	2490769	1.73	2005-07-07 17:08:43.0	Ventana	34.193	00:39:50:19	8.321	V2681-01HD
 	transect	Gastropoda sp.2	998.67	2669	 	36.73097	-122.23013	1695058	0.45	2005-05-25 18:15:26.0	Ventana	34.521	00:37:53:08	3.913	V2669-01
 	transect	Ceriantharia sp. 2	1000.21	2669	 	36.73168	-122.24345	1733839	0.41	2005-05-25 19:47:12.0	Ventana	34.511	02:08:42:24	4.069	V2669-03
 	transect	Lycodes cortezianus	 	2687	 	 	 	1810464	 	2005-07-13 19:18:54.0	Ventana	 	02:44:38:05	 	V2687-03
 	descend	Chaetognatha	447.19	2683	 	36.701572	-122.049385	1756703	0.81	2005-07-11 17:08:46.0	Ventana	34.278	00:56:25:21	6.718	V2683-01
 	transect	molt	100.56	2681	 	36.69983	-122.05429	2489560	2.13	2005-07-07 16:44:52.0	Ventana	34.068	00:16:01:27	9.145	V2681-01HD
 	ascend	Nanomia	376.28	2693	 	36.69612	-122.06057	1758756	1.2	2005-07-25 20:49:21.0	Ventana	34.232	03:13:54:14	7.158	V2693-04
 	transect	Psolus squamatus	 	2687	http://search.mbari.org/ARCHIVE/frameGrabs/Ventana/images/2687/03_14_09_17.jpg	 	 	1811036	 	2005-07-13 19:49:08.0	Ventana	 	03:14:09:17	 	V2687-04
 	transect	Ophiuroidea	998.56	2669	 	36.731106	-122.23071	1683409	0.45	2005-05-25 18:20:08.0	Ventana	34.522	00:42:34:13	3.913	V2669-01
 	cruise	Sebastolobus	999.88	2669	http://search.mbari.org/ARCHIVE/frameGrabs/Ventana/images/2669/00_56_12_29.jpg	36.731007	-122.23251	20003782	0.45	2005-05-25 18:33:47.0	Ventana	34.521	00:56:12:29	3.915	V2669-01
 	transect	Mesomyaria	801.38	2674	 	36.75229	-122.20717	1800028	0.36	2005-06-08 18:05:35.0	Ventana	34.487	00:50:06:24	4.367	V2674-01
 	transect	Sebastolobus	999.75	2669	 	36.73182	-122.244514	1734365	0.4	2005-05-25 19:53:21.0	Ventana	34.51	02:14:51:05	4.076	V2669-03
 	transect	Ceriantharia sp. 1	598.52	2680	 	36.782356	-122.2275	1805140	0.35	2005-06-27 18:49:00.0	Ventana	34.378	01:28:05:07	5.583	V2680-02
 	transect	phialidium	500.59	2681	 	36.69762	-122.05339	2493348	0.44	2005-07-07 17:56:17.0	Ventana	34.347	01:26:40:01	6.017	V2681-02HD
 	stationary	Appendicularia	504.19	2695	 	36.784664	-122.2005	1824484	0.67	2005-07-28 19:01:31.0	Ventana	34.296	04:07:46:20	6.297	V2695-02
 	transect	molt	100.47	2681	 	36.699814	-122.05428	2489740	2.13	2005-07-07 16:49:17.0	Ventana	34.067	00:20:25:14	9.155	V2681-01HD
 	transect	Ophiuroidea	998.48	2669	 	36.7311	-122.230675	1651364	0.45	2005-05-25 18:19:28.0	Ventana	34.522	00:41:55:05	3.912	V2669-01
 	transect	molt	100.48	2681	 	36.69887	-122.05367	2489883	2.13	2005-07-07 16:52:16.0	Ventana	34.045	00:23:25:22	9.142	V2681-01HD
 	transect	Porifera	 	2687	 	 	 	1807133	 	2005-07-13 17:01:25.0	Ventana	 	00:28:19:07	 	V2687-01
 	transect	Lycenchelys crotalinus	1000.33	2669	 	36.731514	-122.24246	1694509	0.41	2005-05-25 19:41:46.6	Ventana	34.509	02:03:43:27	4.065	V2669-02
 	descend	Appendicularia	814.98	2682	 	36.698357	-122.05953	1721710	0.31	2005-07-08 18:42:35.0	Ventana	34.476	02:35:38:17	4.504	V2682-03
 	descend	Copepoda	179.66	2683	 	36.701042	-122.05117	1756334	1.6	2005-07-11 16:41:52.0	Ventana	34.196	00:29:33:18	8.718	V2683-01
 	transect	Poeobius meseres	1001.04	2681	 	36.69519	-122.051125	2498584	0.48	2005-07-07 19:23:31.0	Ventana	34.533	02:53:12:21	3.836	V2681-03HD
 	transect	Mesomyaria	800.32	2674	 	36.75209	-122.208595	1800780	0.36	2005-06-08 18:12:24.0	Ventana	34.49	00:56:56:01	4.319	V2674-01
 	descend	Merluccius productus	303.8	2685	 	36.79317	-121.88196	1669772	1.27	2005-07-12 20:18:55.0	Ventana	34.211	00:16:30:16	7.6	V2685-01
 	transect	Sebastes diploproa	399.85	2687	 	36.788033	-122.12147	1809052	1.14	2005-07-13 17:35:27.0	Ventana	34.24	01:01:49:27	7.282	V2687-02
 	transect	Appendicularia	400.76	2681	 	36.69754	-122.05323	2493168	0.79	2005-07-07 17:48:33.0	Ventana	34.277	01:18:56:23	6.66	V2681-02HD
 	stationary	mud	208.41	2686	 	36.79371	-121.88108	1669915	1.7	2005-07-12 21:58:35.0	Ventana	34.127	01:05:45:08	8.418	V2686-01
 	transect	Mysidae	700.65	2681	 	36.697323	-122.0532	2497652	0.29	2005-07-07 18:38:24.0	Ventana	34.435	02:08:07:21	4.944	V2681-03HD
 	ascend	Appendicularia	616.92	2681	 	36.69893	-122.05424	1717687	0.3	2005-07-07 20:29:02.5	Ventana	34.384	03:58:03:08	5.478	V2681-04
 	descend	Dosidicus gigas	504.54	2682	 	36.698597	-122.05978	1720838	0.44	2005-07-08 18:00:04.0	Ventana	34.349	01:53:33:19	6.018	V2682-02
 	transect	Psolus squamatus	 	2687	 	 	 	1808872	 	2005-07-13 17:30:54.0	Ventana	 	00:57:46:04	 	V2687-01
 	transect	Lycenchelys camchatica	800.94	2674	 	36.752506	-122.202774	1799244	0.35	2005-06-08 17:42:23.0	Ventana	34.486	00:26:56:23	4.384	V2674-01
 	transect	Nanomia bijuga	400.75	2681	 	36.696583	-122.052124	2493025	0.79	2005-07-07 17:44:32.0	Ventana	34.277	01:14:55:10	6.648	V2681-02HD
 	transect	Porifera sp. 1	 	2687	 	 	 	1806999	 	2005-07-13 16:54:09.0	Ventana	 	00:21:03:14	 	V2687-01
 	transect	cydippida	500.55	2681	 	36.696964	-122.05256	2493551	0.44	2005-07-07 17:59:20.0	Ventana	34.344	01:29:44:03	6.025	V2681-02HD
 	transect	Mesomyaria	1000.27	2669	http://search.mbari.org/ARCHIVE/frameGrabs/Ventana/images/2669/01_58_54_17.jpg	36.73131	-122.24153	1689822	0.4	2005-05-25 19:36:57.0	Ventana	34.507	01:58:54:17	4.091	V2669-02
 	transect	Rathbunaster californicus	203.56	2696	 	36.806564	-122.13015	1813781	1.48	2005-08-01 18:29:33.0	Ventana	34.218	01:57:24:06	8.652	V2696-02
 	transect	Mesomyaria	999.73	2669	 	36.730602	-122.22909	1651041	0.45	2005-05-25 18:07:28.0	Ventana	34.522	00:29:56:17	3.908	V2669-01
 	descend	Calycophorae	350.18	2683	 	36.701298	-122.049934	1756560	1.21	2005-07-11 16:56:32.0	Ventana	34.229	00:44:12:06	7.198	V2683-01
 	ascend	Chuniphyes	551.68	2683	 	36.704525	-122.050644	1757972	0.39	2005-07-11 21:14:10.0	Ventana	34.356	04:47:01:22	5.924	V2683-05
 	transect	Caridea sp.1	602.31	2680	 	36.787632	-122.23187	1805924	0.36	2005-06-27 19:51:22.0	Ventana	34.379	02:30:00:02	5.593	V2680-03
 	transect	Corallimorphus pilatus	 	2687	 	 	 	1810833	 	2005-07-13 19:35:52.0	Ventana	 	03:01:34:25	 	V2687-03
 	descend	Calycophorae	270.03	2681	 	36.69857	-122.053635	1713609	1.4	2005-07-07 17:16:47.167	Ventana	34.222	00:47:55:11	7.77	V2681-01
 	descend	Copepoda	703.99	2683	 	36.7021	-122.048935	1757086	0.31	2005-07-11 17:54:32.0	Ventana	34.422	01:38:37:24	5.071	V2683-02
 	transect	Neptunea amianta	802.36	2674	 	36.752308	-122.205734	1799825	0.36	2005-06-08 17:58:31.0	Ventana	34.489	00:43:03:04	4.333	V2674-01
 	transect	Actiniaria sp. 3	 	2687	 	 	 	1808669	 	2005-07-13 17:26:41.0	Ventana	 	00:53:33:21	 	V2687-01
 	transect	Gastropoda	199.51	2696	 	36.80428	-122.12614	1813412	1.52	2005-08-01 17:44:23.0	Ventana	34.209	01:12:16:24	8.664	V2696-02
 	transect	Mesomyaria	800.56	2674	 	36.751743	-122.21136	1801103	0.35	2005-06-08 18:25:25.0	Ventana	34.488	01:09:30:05	4.35	V2674-02
 	descend	Melanostigma pammelas	1186.24	2682	 	36.698566	-122.05834	1722250	0.68	2005-07-08 19:34:48.0	Ventana	34.57	03:27:25:07	3.382	V2682-04
 	transect	Mysidae	700.63	2681	 	36.696007	-122.05188	2497832	0.29	2005-07-07 18:43:53.0	Ventana	34.436	02:13:36:15	4.934	V2681-03HD
 	ascend	Lobata	1046.57	2682	 	36.69787	-122.05772	1722799	0.48	2005-07-08 20:02:39.0	Ventana	34.533	03:55:13:01	3.847	V2682-04
 	transect	Ceriantharia sp. 1	800.71	2674	 	36.751076	-122.21769	1803525	0.35	2005-06-08 18:56:50.0	Ventana	34.49	01:40:52:25	4.343	V2674-02
 	ascend	Chaetognatha	576.16	2682	 	36.698334	-122.06242	1723583	0.37	2005-07-08 21:06:32.0	Ventana	34.363	04:58:39:13	5.779	V2682-05
 	transect	Psolus squamatus	 	2687	 	 	 	1809947	 	2005-07-13 18:48:31.0	Ventana	 	02:14:17:09	 	V2687-03
 	ascend	Aegina	676.47	2681	 	36.698757	-122.05446	1717632	0.27	2005-07-07 20:23:01.7	Ventana	34.413	03:52:02:25	5.169	V2681-04
 	cruise	Lithodidae	1221.79	2683	 	36.706284	-122.04759	1757603	0.72	2005-07-11 20:05:03.0	Ventana	34.572	03:39:24:24	3.339	V2683-04
 	transect	Mesomyaria	1000.12	2669	 	36.73094	-122.23261	1683792	0.45	2005-05-25 18:34:31.0	Ventana	34.521	00:56:56:26	3.911	V2669-01
 	cruise	Rathbunaster californicus	103.59	2688	 	36.81406	-122.01849	1679511	1.91	2005-07-14 21:23:04.0	Ventana	34.107	05:07:17:00	8.882	V2688-05
 	transect	Euphausia	200.39	2681	 	36.698303	-122.053375	2491152	1.68	2005-07-07 17:12:18.0	Ventana	34.198	00:43:26:09	8.337	V2681-01HD
 	transect	Rathbunaster californicus	197.91	2696	 	36.80357	-122.12413	1813232	1.54	2005-08-01 17:23:49.0	Ventana	34.203	00:52:06:29	8.609	V2696-01
 	transect	Mesomyaria	1000.14	2669	 	36.73186	-122.24534	1735375	0.4	2005-05-25 19:59:26.0	Ventana	34.508	02:20:56:02	4.07	V2669-03
 	cruise	Sebastolobus	611.43	2688	 	36.795628	-122.019424	1677347	0.44	2005-07-14 16:35:58.0	Ventana	34.391	00:22:17:15	5.464	V2688-01
 	descend	Dosidicus gigas	400.21	2681	 	36.69556	-122.05116	1715145	0.8	2005-07-07 17:34:29.467	Ventana	34.279	01:04:53:00	6.678	V2681-02
 	transect	Stomphia	998.75	2669	 	36.73284	-122.251884	1737253	0.4	2005-05-25 20:44:16.0	Ventana	34.509	03:05:05:15	4.075	V2669-04
 	transect	Mesomyaria	800.76	2674	 	36.75256	-122.201706	1799101	0.33	2005-06-08 17:37:18.0	Ventana	34.478	00:21:51:13	4.443	V2674-01
 	transect	Lycenchelys camchatica	801.88	2674	 	36.751785	-122.210754	1801043	0.36	2005-06-08 18:23:09.0	Ventana	34.492	01:07:13:17	4.322	V2674-02
 	transect	Mediaster	 	2687	 	 	 	1810953	 	2005-07-13 19:43:51.0	Ventana	 	03:08:53:00	 	V2687-04
 	ascend	Copepoda	1175.86	2682	 	36.69829	-122.057495	1722453	0.65	2005-07-08 19:53:12.0	Ventana	34.567	03:45:46:24	3.44	V2682-04
 	transect	Mesomyaria	999.82	2669	 	36.73178	-122.244415	1734305	0.4	2005-05-25 19:52:23.0	Ventana	34.508	02:13:55:18	4.08	V2669-03
 	transect	Mesomyaria	999.29	2669	 	36.730995	-122.231735	1683672	0.45	2005-05-25 18:28:41.0	Ventana	34.521	00:51:07:14	3.913	V2669-01
 	ascend	Acanthamunnopsis milleri	258.17	2681	 	36.697838	-122.05522	1719505	 	2005-07-07 21:29:59.0	Ventana	 	05:08:57:07	 	V2681-05
 	ascend	Appendicularia	529.12	2682	 	36.698322	-122.062935	1723643	0.43	2005-07-08 21:11:07.0	Ventana	34.348	05:02:47:25	6.025	V2682-06
 	ascend	Appendicularia	341.58	2681	 	36.699345	-122.055214	1718093	1.11	2005-07-07 20:53:22.8	Ventana	34.247	04:21:44:05	7.256	V2681-05
 	cruise	Chionoecetes tanneri	1215.47	2683	 	36.706474	-122.047615	1757626	0.73	2005-07-11 20:10:04.0	Ventana	34.573	03:44:27:14	3.335	V2683-04
 	ascend	Chaetognatha	366.82	2693	 	36.695263	-122.060905	1758816	1.23	2005-07-25 20:57:32.0	Ventana	34.234	03:22:05:16	7.317	V2693-04
 	cruise	Pennatulacea	997.56	2679	 	36.68986	-122.1656	1824364	0.42	2005-06-16 17:32:40.0	Ventana	34.514	00:04:03:06	4.117	V2679-01
 	transect	Porifera sp. 1	 	2687	 	 	 	1810201	 	2005-07-13 19:08:48.0	Ventana	 	02:34:32:11	 	V2687-03
 	ascend	Appendicularia	510.99	2681	 	36.698956	-122.054245	1717747	0.47	2005-07-07 20:34:05.733	Ventana	34.338	04:03:05:21	6.095	V2681-04
 	descend	Appendicularia	394.57	2682	 	36.698326	-122.05988	1720695	0.88	2005-07-08 17:37:11.0	Ventana	34.26	01:30:41:27	6.732	V2682-02
 	transect	Gastropoda sp.2	1000.14	2669	 	36.732525	-122.25016	1736907	0.41	2005-05-25 20:34:05.0	Ventana	34.51	02:55:33:04	4.067	V2669-03
 	transect	Mesomyaria	999.67	2669	 	36.731094	-122.23539	1684332	0.45	2005-05-25 18:53:15.0	Ventana	34.521	01:15:15:06	3.924	V2669-02
 	transect	Parastichopus leukothele	196.94	2696	http://search.mbari.org/ARCHIVE/frameGrabs/Ventana/images/2696/00_40_21_08.jpg	36.803234	-122.12309	1813149	1.56	2005-08-01 17:12:03.0	Ventana	34.2	00:40:21:08	8.625	V2696-01
 	ascend	Poeobius meseres	995.02	2681	 	36.696735	-122.053116	1716557	0.45	2005-07-07 19:32:51.567	Ventana	34.526	03:02:32:18	3.941	V2681-03
 	cruise	Rathbunaster californicus	433.26	2688	 	36.80516	-122.01891	1677693	0.92	2005-07-14 17:44:49.0	Ventana	34.267	01:30:32:08	6.93	V2688-02
 	transect	Porifera sp. 1	 	2687	 	 	 	1811820	 	2005-07-13 20:26:23.0	Ventana	 	03:51:21:16	 	V2687-04
 	descend	Appendicularia	702.16	2682	 	36.698605	-122.059975	1721447	0.29	2005-07-08 18:15:57.0	Ventana	34.428	02:09:00:12	5.023	V2682-03
 	transect	Allocentrotus fragilis	 	2687	 	 	 	1808789	 	2005-07-13 17:29:31.0	Ventana	 	00:56:23:28	 	V2687-01
 	descend	Nanomia	165.59	2681	 	36.69828	-122.05329	1713526	1.95	2005-07-07 17:02:39.667	Ventana	34.144	00:33:48:07	8.578	V2681-01
 	transect	Mesomyaria	799.44	2674	 	36.75253	-122.20411	1799447	0.35	2005-06-08 17:49:43.0	Ventana	34.483	00:34:16:03	4.38	V2674-01
 	transect	Diogenidae	601.1	2680	 	36.7857	-122.23072	1805841	0.36	2005-06-27 19:30:30.0	Ventana	34.378	02:09:10:08	5.605	V2680-03
 	descend	Tuscaroridae	388.72	2683	 	36.701473	-122.04976	1756620	0.99	2005-07-11 16:58:41.0	Ventana	34.256	00:46:21:05	6.992	V2683-01
 	transect	chuniphyes	901.06	2681	 	36.69614	-122.05214	2498321	0.39	2005-07-07 19:10:23.0	Ventana	34.505	02:40:04:25	4.173	V2681-03HD
 	ascend	Chaetognatha	261.29	2681	 	36.699444	-122.05457	1718499	1.41	2005-07-07 21:10:40.577	Ventana	34.23	04:38:59:26	7.934	V2681-05
 	transect	Psolus squamatus	 	2687	 	 	 	1809887	 	2005-07-13 18:47:26.0	Ventana	 	02:13:12:20	 	V2687-03
 	transect	Solmissus	300.42	2681	 	36.696957	-122.05248	2492425	1.23	2005-07-07 17:25:04.0	Ventana	34.234	00:56:11:14	7.395	V2681-01HD
 	transect	Psolus squamatus	399.88	2687	 	36.788094	-122.121605	1809195	1.13	2005-07-13 17:37:02.0	Ventana	34.241	01:03:24:05	7.262	V2687-02
 	ascend	Bathocyroe	628.75	2683	 	36.70495	-122.0503	1757949	0.3	2005-07-11 21:10:35.0	Ventana	34.396	04:43:27:11	5.414	V2683-05
 	descend	Copepoda	335.22	2682	 	36.69879	-122.0606	1720174	1.05	2005-07-08 17:11:25.0	Ventana	34.249	01:04:57:05	7.161	V2682-02
 	ascend	Euphausiacea	206.77	2693	 	36.691036	-122.062614	1759162	1.78	2005-07-25 21:25:02.0	Ventana	34.2	03:49:33:09	8.745	V2693-04
 	transect	Mesomyaria	999.52	2669	 	36.73102	-122.23387	1683986	0.45	2005-05-25 18:41:03.0	Ventana	34.522	01:03:03:21	3.913	V2669-02
 	transect	Corallimorphus pilatus	 	2687	 	 	 	1812572	 	2005-07-13 20:45:53.0	Ventana	 	04:10:24:09	 	V2687-05
 	transect	Phyllospadix	802.46	2674	 	36.752296	-122.206024	1799885	0.36	2005-06-08 18:00:04.0	Ventana	34.491	00:44:36:24	4.337	V2674-01
 	transect	Mediaster	 	2687	 	 	 	1811737	 	2005-07-13 20:23:13.0	Ventana	 	03:48:11:23	 	V2687-04
 	transect	Mesomyaria	997.64	2669	 	36.730637	-122.22696	1649076	0.45	2005-05-25 17:53:32.0	Ventana	34.521	00:16:00:21	3.909	V2669-01
 	descend	Dosidicus gigas	607.22	2681	 	36.695766	-122.05098	1715814	0.3	2005-07-07 18:14:54.133	Ventana	34.385	01:45:15:05	5.47	V2681-02
 	transect	Psolus squamatus	 	2687	 	 	 	1807659	 	2005-07-13 17:21:21.0	Ventana	 	00:48:13:22	 	V2687-01
 	ascend	Calycophorae	470.29	2682	 	36.69834	-122.063126	1723703	0.58	2005-07-08 21:17:05.0	Ventana	34.309	05:08:45:23	6.297	V2682-06
 	transect	Mediaster	 	2687	 	 	 	1810607	 	2005-07-13 19:24:04.0	Ventana	 	02:49:47:18	 	V2687-03
 	transect	molt	50.38	2681	 	36.69983	-122.05429	2485717	3.03	2005-07-07 16:38:40.0	Ventana	33.906	00:09:49:06	9.644	V2681-01HD
 	transect	Mediaster	 	2687	 	 	 	1811474	 	2005-07-13 20:13:59.0	Ventana	 	03:38:58:23	 	V2687-04
 	transect	Ophiuroidea	 	2669	 	 	 	1737659	 	2005-05-25 13:55:11.0	Ventana	 	03:15:59:08	 	V2669-04
 	ascend	Nanomia	429.92	2683	 	36.704166	-122.05058	1758032	0.83	2005-07-11 21:19:03.0	Ventana	34.276	04:51:56:00	6.791	V2683-05
 	transect	Laminariales	399.68	2687	 	36.789352	-122.12489	1809624	1.15	2005-07-13 18:26:23.0	Ventana	34.239	01:52:42:00	7.315	V2687-02
 	transect	Mesomyaria	798.51	2674	 	36.751644	-122.21366	1801297	0.35	2005-06-08 18:36:14.0	Ventana	34.486	01:20:17:29	4.344	V2674-02
 	transect	Ceriantharia sp. 1	599.35	2680	 	36.783215	-122.22859	1805343	0.36	2005-06-27 19:05:00.0	Ventana	34.38	01:44:04:14	5.595	V2680-02
 	transect	Mesomyaria	998.71	2669	 	36.73289	-122.252045	1737313	0.4	2005-05-25 20:45:20.0	Ventana	34.509	03:06:08:06	4.074	V2669-04
 	cruise	shell hash	108.75	2676	http://search.mbari.org/ARCHIVE/frameGrabs/Ventana/images/2676/02_17_41_12.jpg	36.80901	-122.03527	1677024	1.92	2005-06-14 18:38:57.0	Ventana	34.152	02:17:41:12	8.453	V2676-03
 	descend	Euphausiacea	157.84	2682	 	36.699867	-122.060745	1719911	2.19	2005-07-08 16:18:59.0	Ventana	34.097	00:13:03:26	8.434	V2682-01
 	stationary	Merluccius productus	502.36	2694	 	36.784615	-122.20045	1676678	0.59	2005-07-27 20:44:38.0	Ventana	34.319	03:16:45:03	6.16	V2694-03
 	transect	Mesomyaria	999.57	2669	 	36.731056	-122.235054	1684249	0.45	2005-05-25 18:50:32.0	Ventana	34.522	01:12:32:17	3.924	V2669-02
 	transect	Porifera sp. 1	 	2687	 	 	 	1810893	 	2005-07-13 19:41:27.0	Ventana	 	03:06:28:22	 	V2687-04
 	transect	Mediaster	 	2687	 	 	 	1812226	 	2005-07-13 20:29:34.0	Ventana	 	03:54:32:00	 	V2687-04
 	ascend	Aegina	937.4	2681	 	36.69759	-122.054054	1716963	0.41	2005-07-07 19:43:05.567	Ventana	34.514	03:12:09:05	4.074	V2681-04
 	descend	Appendicularia	911.05	2683	 	36.703526	-122.04848	1757280	0.38	2005-07-11 18:53:17.0	Ventana	34.499	02:33:40:06	4.206	V2683-03
 	transect	Rathbunaster californicus	200.2	2696	 	36.805042	-122.127815	1813555	1.51	2005-08-01 17:59:25.0	Ventana	34.211	01:27:18:01	8.675	V2696-02
 	cruise	Rathbunaster californicus	106.93	2688	 	36.81297	-122.01965	1678090	1.97	2005-07-14 19:21:06.0	Ventana	34.097	03:06:19:09	8.931	V2688-03
 	transect	Neptunea amianta	801.19	2674	 	36.75216	-122.208084	1800697	0.35	2005-06-08 18:10:02.0	Ventana	34.489	00:54:33:16	4.332	V2674-01
 	transect	Porifera sp. 1	 	2687	 	 	 	1810141	 	2005-07-13 18:59:27.0	Ventana	 	02:25:12:09	 	V2687-03
 	transect	Mesomyaria	1000.18	2669	 	36.731205	-122.2406	1689282	0.41	2005-05-25 19:31:25.0	Ventana	34.511	01:53:22:27	4.055	V2669-02
 	descend	Chaetognatha	1108.63	2682	 	36.69821	-122.05919	1722107	0.56	2005-07-08 19:11:05.0	Ventana	34.552	03:03:42:21	3.629	V2682-04
 	transect	Gastropoda sp.2	1000.46	2669	 	36.73223	-122.24879	1736247	0.41	2005-05-25 20:24:56.0	Ventana	34.51	02:46:24:24	4.069	V2669-03
 	cruise	mud	382.14	2690	 	36.79006	-121.88748	1670261	0.94	2005-07-18 19:53:20.0	Ventana	34.269	01:08:27:17	6.952	V2690-01
 	transect	Gastropoda sp.2	999.65	2669	 	36.731365	-122.23777	1694712	0.44	2005-05-25 19:12:42.0	Ventana	34.52	01:34:40:19	3.95	V2669-02
 	cruise	Ceriantharia sp. 1	111.71	2688	 	36.813213	-122.0232	1678039	1.95	2005-07-14 18:54:25.0	Ventana	34.092	02:39:39:04	8.896	V2688-03
 	descend	Poeobius meseres	438.38	2683	 	36.701485	-122.049484	1756680	0.84	2005-07-11 17:07:22.0	Ventana	34.275	00:55:01:11	6.757	V2683-01
 	ascend	Cydippida	381.15	2681	 	36.69935	-122.05467	1718010	0.94	2005-07-07 20:49:34.533	Ventana	34.27	04:17:55:19	6.98	V2681-05
 	descend	Appendicularia	928.51	2682	 	36.698257	-122.05939	1721793	0.35	2005-07-08 18:52:56.0	Ventana	34.497	02:45:59:00	4.268	V2682-03
 	transect	Lycenchelys camchatica	801.82	2674	 	36.750904	-122.21972	1803645	0.34	2005-06-08 19:05:28.0	Ventana	34.485	01:49:30:04	4.388	V2674-02
 	descend	Nanomia	192.7	2693	 	36.69605	-122.05814	1758295	1.79	2005-07-25 18:16:37.0	Ventana	34.189	00:57:07:05	8.912	V2693-01
 	cruise	Merluccius productus	505.12	2694	 	36.784023	-122.20079	1676157	0.75	2005-07-27 17:07:44.0	Ventana	34.288	00:00:52:17	6.475	V2694-01
 	transect	Mediaster	 	2687	 	 	 	1812489	 	2005-07-13 20:41:28.0	Ventana	 	04:06:25:24	 	V2687-04
 	descend	Prayidae	559.69	2683	 	36.701786	-122.04914	1756966	0.44	2005-07-11 17:45:19.0	Ventana	34.34	01:29:26:00	6.06	V2683-02
 	transect	Phyllospadix	802.85	2674	 	36.751823	-122.21009	1800983	0.36	2005-06-08 18:20:19.0	Ventana	34.49	01:04:24:16	4.32	V2674-02
 	descend	Chaetognatha	348.52	2682	 	36.698627	-122.06041	1720317	1.02	2005-07-08 17:20:08.0	Ventana	34.251	01:13:39:18	7.115	V2682-02
 	descend	Bathocyroe	1145.75	2682	 	36.6982	-122.05922	1722167	0.6	2005-07-08 19:13:04.0	Ventana	34.558	03:05:41:22	3.536	V2682-04
 	transect	Ceriantharia sp. 1	602.11	2680	 	36.791763	-122.23299	1806879	0.36	2005-06-27 20:30:32.0	Ventana	34.378	03:09:07:24	5.591	V2680-03
 	descend	Aegina	674.76	2681	 	36.697926	-122.05385	1715957	0.28	2005-07-07 18:31:08.733	Ventana	34.414	02:01:28:23	5.126	V2681-02
 	transect	Mesomyaria	997.48	2669	 	36.73065	-122.227776	1649219	0.45	2005-05-25 17:59:06.0	Ventana	34.522	00:21:34:10	3.907	V2669-01
 	transect	Mediaster	 	2687	 	 	 	1812429	 	2005-07-13 20:38:31.0	Ventana	 	04:03:28:14	 	V2687-04
 	cruise	LRJ Complex	415.39	2676	 	36.803806	-122.02921	1676443	0.68	2005-06-14 16:43:09.0	Ventana	34.309	00:27:17:28	6.499	V2676-01
 	ascend	Copepoda	897.95	2681	 	36.698032	-122.05485	1717166	0.37	2005-07-07 19:49:10.033	Ventana	34.505	03:18:13:08	4.207	V2681-04
 	ascend	Cydippida	258.17	2681	 	36.697838	-122.05522	1719565	 	2005-07-07 21:29:59.0	Ventana	 	05:14:22:08	 	V2681-05
 	cruise	Metridium farcimen	92.78	2688	 	36.815956	-122.01689	1679391	1.95	2005-07-14 20:18:28.0	Ventana	34.093	04:03:13:08	8.935	V2688-04
 	transect	Allocentrotus fragilis	399.88	2687	 	36.78811	-122.121704	1809278	1.13	2005-07-13 17:38:06.0	Ventana	34.243	01:04:28:18	7.254	V2687-02
 	transect	Mysidae 2	800.86	2681	 	36.696667	-122.05271	2498261	0.31	2005-07-07 19:01:19.0	Ventana	34.474	02:31:01:16	4.503	V2681-03HD
 	descend	Caecosagitta macrocephala	960.24	2683	 	36.703926	-122.048546	1757340	0.42	2005-07-11 19:11:37.0	Ventana	34.517	02:51:59:27	4.044	V2683-03
 	transect	Mediaster	 	2687	 	 	 	1811880	 	2005-07-13 20:28:27.0	Ventana	 	03:53:25:02	 	V2687-04
 	transect	Rathbunaster californicus	203.58	2696	 	36.807476	-122.131134	1813841	1.46	2005-08-01 18:42:10.0	Ventana	34.22	02:09:14:28	8.622	V2696-03
 	transect	Phyllospadix	800.21	2674	 	36.75263	-122.20034	1774105	0.31	2005-06-08 17:29:57.0	Ventana	34.484	00:14:31:04	4.576	V2674-01
 	transect	Ophiuroidea	999.09	2669	 	36.7314	-122.2361	1684595	0.44	2005-05-25 18:58:23.0	Ventana	34.521	01:20:23:16	3.943	V2669-02
 	transect	Psolus squamatus	 	2687	 	 	 	1808729	 	2005-07-13 17:27:55.0	Ventana	 	00:54:48:01	 	V2687-01
 	cruise	Alepocephalus tenebrosus	622.44	2688	http://search.mbari.org/ARCHIVE/frameGrabs/Ventana/images/2688/00_14_24_13.jpg	36.79402	-122.01955	1677287	0.41	2005-07-14 16:28:06.0	Ventana	34.416	00:14:24:13	5.208	V2688-01
 	cruise	Sebastolobus	546.14	2688	 	36.79782	-122.01986	1677430	0.6	2005-07-14 16:59:37.0	Ventana	34.333	00:45:55:04	6.211	V2688-01
 	transect	Mysidae	700.64	2681	 	36.69677	-122.05266	2497712	0.29	2005-07-07 18:40:41.0	Ventana	34.436	02:10:23:20	4.931	V2681-03HD
 	descend	Appendicularia	635.0	2682	 	36.698624	-122.059875	1721304	0.28	2005-07-08 18:09:12.0	Ventana	34.399	02:02:18:09	5.347	V2682-03
 	transect	Psolus squamatus	 	2687	 	 	 	1808932	 	2005-07-13 17:32:18.0	Ventana	 	00:59:10:19	 	V2687-01
 	transect	Nanomia bijuga	200.39	2681	 	36.698296	-122.05335	2491092	1.69	2005-07-07 17:11:44.0	Ventana	34.198	00:42:51:25	8.335	V2681-01HD
 	descend	Appendicularia	329.85	2681	 	36.695633	-122.05124	1713669	1.13	2005-07-07 17:30:51.457	Ventana	34.243	01:01:57:23	7.254	V2681-01
 	descend	Hormiphora	229.63	2682	 	36.699886	-122.060715	1719971	1.44	2005-07-08 16:21:54.0	Ventana	34.224	00:15:59:16	8.007	V2682-01
 	descend	Copepoda	291.56	2682	 	36.699337	-122.060646	1720114	1.22	2005-07-08 16:53:24.0	Ventana	34.236	00:47:27:10	7.448	V2682-01
 	descend	Appendicularia	437.86	2682	 	36.698288	-122.05969	1720755	0.64	2005-07-08 17:47:04.0	Ventana	34.3	01:40:33:08	6.425	V2682-02
 	cruise	Poralia rufescens	1232.27	2683	 	36.70579	-122.04792	1757543	0.72	2005-07-11 19:51:39.0	Ventana	34.574	03:26:02:06	3.343	V2683-04
 	cruise	rock outcrop	250.0	2676	http://search.mbari.org/ARCHIVE/frameGrabs/Ventana/images/2676/01_17_03_09.jpg	36.805683	-122.02948	1676738	1.55	2005-06-14 17:37:20.0	Ventana	34.202	01:17:03:09	8.024	V2676-02
 	transect	Neptunea amianta	799.5	2674	 	36.752457	-122.205086	1799710	0.35	2005-06-08 17:55:07.0	Ventana	34.487	00:39:40:01	4.361	V2674-01
 	transect	Mesomyaria	999.53	2669	 	36.730995	-122.23233	1683732	0.45	2005-05-25 18:31:52.0	Ventana	34.52	00:54:18:06	3.918	V2669-01
 	descend	Appendicularia	283.57	2683	 	36.701015	-122.05021	1756477	1.32	2005-07-11 16:52:41.0	Ventana	34.237	00:40:21:23	7.789	V2683-01
 	ascend	Polychaeta	592.41	2682	 	36.698788	-122.06078	1723468	0.4	2005-07-08 20:47:52.0	Ventana	34.37	04:40:00:12	5.67	V2682-05
 	ascend	Appendicularia	262.33	2683	 	36.703106	-122.05066	1758092	1.46	2005-07-11 21:26:17.0	Ventana	34.217	04:59:07:21	7.992	V2683-05
 	transect	Ceriantharia sp. 1	801.46	2674	 	36.75097	-122.218506	1803585	0.35	2005-06-08 19:00:26.0	Ventana	34.487	01:44:28:22	4.359	V2674-02
 	cruise	Lycenchelys	323.72	2688	 	36.80835	-122.02023	1677836	1.28	2005-07-14 18:10:50.0	Ventana	34.222	01:56:31:19	7.661	V2688-02
 	transect	Phyllospadix	800.52	2674	 	36.75257	-122.20213	1799161	0.33	2005-06-08 17:39:24.0	Ventana	34.476	00:23:58:04	4.446	V2674-01
 	cruise	Pleuronectiformes	154.05	2688	 	36.810966	-122.02197	1677979	1.95	2005-07-14 18:38:20.0	Ventana	34.098	02:23:35:23	8.918	V2688-03
 	ascend	water	 	2687	 	 	 	1812835	 	2005-07-13 21:17:33.0	Ventana	 	04:42:01:03	 	V2687-05
 	ascend	Appendicularia	722.24	2681	 	36.6987	-122.05523	1717572	0.29	2005-07-07 20:18:29.867	Ventana	34.44	03:47:30:24	4.936	V2681-04
 	transect	Rathbunaster californicus	200.01	2696	 	36.804646	-122.12698	1813495	1.51	2005-08-01 17:52:46.0	Ventana	34.211	01:20:39:17	8.67	V2696-02
 	transect	Mesomyaria	999.84	2669	 	36.731937	-122.24624	1735638	0.41	2005-05-25 20:06:00.0	Ventana	34.51	02:27:29:20	4.063	V2669-03
 	transect	Ceriantharia sp. 1	602.54	2680	 	36.789894	-122.23261	1806736	0.35	2005-06-27 20:14:52.0	Ventana	34.379	02:53:29:03	5.587	V2680-03
 	transect	Psolus squamatus	 	2687	 	 	 	1808586	 	2005-07-13 17:24:25.0	Ventana	 	00:51:18:14	 	V2687-01
 	transect	lobata	200.45	2681	 	36.698414	-122.05349	2491438	1.68	2005-07-07 17:14:13.0	Ventana	34.2	00:45:20:19	8.341	V2681-01HD
 	cruise	Pannychia moseleyi	460.03	2676	 	36.802765	-122.02933	1676300	0.59	2005-06-14 16:35:35.0	Ventana	34.33	00:19:43:16	6.264	V2676-01
 	descend	Appendicularia	612.01	2683	 	36.701973	-122.04901	1757026	0.35	2005-07-11 17:49:50.0	Ventana	34.372	01:33:57:16	5.747	V2683-02
 	transect	Poeobius meseres	600.52	2681	 	36.697514	-122.05334	2493837	0.3	2005-07-07 18:26:48.0	Ventana	34.388	01:57:09:27	5.471	V2681-02HD
 	transect	Ceriantharia sp. 2	997.52	2669	 	36.7306	-122.227036	1683326	0.45	2005-05-25 17:54:23.0	Ventana	34.521	00:16:51:19	3.911	V2669-01
 	ascend	Nanomia	421.55	2681	 	36.699203	-122.05425	1717950	0.79	2005-07-07 20:45:07.767	Ventana	34.278	04:13:44:20	6.642	V2681-05
 	descend	Hormiphora	173.96	2693	 	36.69613	-122.058044	1758235	1.95	2005-07-25 18:03:33.0	Ventana	34.139	00:44:04:14	8.906	V2693-01
 	cruise	rubble	106.11	2688	 	36.81435	-122.016975	1679248	1.98	2005-07-14 19:36:22.0	Ventana	34.092	03:21:09:27	8.913	V2688-04
 	transect	Psolus squamatus	399.88	2687	 	36.788048	-122.12153	1809135	1.13	2005-07-13 17:36:02.0	Ventana	34.244	01:02:24:05	7.27	V2687-02
 	transect	Bathylagus	901.01	2681	 	36.695343	-122.05106	2498464	0.39	2005-07-07 19:14:31.0	Ventana	34.505	02:44:12:19	4.171	V2681-03HD
 	transect	Ceriantharia sp. 1	603.3	2680	 	36.78902	-122.23249	1805984	0.36	2005-06-27 20:06:07.0	Ventana	34.38	02:44:44:28	5.588	V2680-03
 	transect	Mediaster	 	2687	 	 	 	1810547	 	2005-07-13 19:22:05.0	Ventana	 	02:47:49:14	 	V2687-03
 	transect	Nanomia bijuga	200.46	2681	 	36.69828	-122.05329	2490686	1.72	2005-07-07 17:08:15.0	Ventana	34.194	00:39:23:07	8.323	V2681-01HD
 	transect	Phyllospadix	798.77	2674	 	36.751495	-122.21447	1801357	0.35	2005-06-08 18:41:53.0	Ventana	34.49	01:25:56:23	4.333	V2674-02
 	cruise	Lycodapus	1206.41	2683	 	36.707077	-122.04763	1757686	0.72	2005-07-11 20:19:21.0	Ventana	34.573	03:53:44:00	3.352	V2683-04
 	transect	Caridea sp.1	600.8	2680	 	36.784622	-122.229996	1805638	0.35	2005-06-27 19:19:56.0	Ventana	34.379	01:58:59:05	5.591	V2680-02
 	transect	Mediaster	 	2687	 	 	 	1811096	 	2005-07-13 19:52:44.0	Ventana	 	03:17:45:01	 	V2687-04
 	transect	Ophiuroidea	998.69	2669	 	36.731056	-122.23048	1651304	0.45	2005-05-25 18:18:07.0	Ventana	34.522	00:40:33:28	3.91	V2669-01
 	transect	Nanomia bijuga	200.43	2681	 	36.69828	-122.05329	2490137	1.7	2005-07-07 17:05:06.0	Ventana	34.197	00:36:15:01	8.358	V2681-01HD
 	transect	Appendicularia	200.46	2681	 	36.69828	-122.05329	2490340	1.7	2005-07-07 17:07:04.0	Ventana	34.198	00:38:12:07	8.347	V2681-01HD
 	transect	Stomphia	999.32	2669	 	36.730717	-122.229485	1651101	0.45	2005-05-25 18:10:19.0	Ventana	34.521	00:32:47:00	3.908	V2669-01
 	transect	Psolus squamatus	 	2687	 	 	 	1811534	 	2005-07-13 20:15:12.0	Ventana	 	03:40:11:13	 	V2687-04
 	transect	Phyllospadix	204.08	2696	 	36.805294	-122.12826	1813698	1.48	2005-08-01 18:15:54.0	Ventana	34.212	01:43:45:23	8.631	V2696-02
 	transect	Mesomyaria	1000.61	2669	 	36.73214	-122.24809	1736187	0.41	2005-05-25 20:19:41.0	Ventana	34.51	02:41:09:04	4.062	V2669-03
 	ascend	Bathylagus milleri	965.52	2681	 	36.697216	-122.053635	1716820	0.43	2005-07-07 19:38:58.6	Ventana	34.519	03:08:02:14	4.018	V2681-04
 	transect	Osmeridae	599.55	2680	 	36.77775	-122.222755	1804305	0.36	2005-06-27 17:49:51.0	Ventana	34.378	00:29:58:18	5.586	V2680-01
 	descend	Medusae	903.3	2683	http://search.mbari.org/ARCHIVE/frameGrabs/Ventana/images/2683/02_17_06_23.jpg	36.703384	-122.04833	20004940	0.38	2005-07-11 18:36:42.0	Ventana	34.5	02:17:06:23	4.223	V2683-03
 	transect	Poeobius meseres	400.73	2681	 	36.697033	-122.05265	2493085	0.79	2005-07-07 17:46:26.0	Ventana	34.278	01:16:49:16	6.659	V2681-02HD
 	descend	Calycophorae	400.23	2681	 	36.69557	-122.0511	1715205	0.79	2005-07-07 17:35:32.433	Ventana	34.278	01:05:55:27	6.677	V2681-02
 	ascend	Nanomia	190.23	2693	 	36.690605	-122.06288	1759222	1.84	2005-07-25 21:29:07.0	Ventana	34.168	03:53:38:25	8.849	V2693-04
 	transect	Calliostoma platinum	 	2687	 	 	 	1812632	 	2005-07-13 20:48:51.0	Ventana	 	04:13:21:20	 	V2687-05
 	transect	Psolus squamatus	 	2687	 	 	 	1809998	 	2005-07-13 18:49:59.0	Ventana	 	02:15:45:03	 	V2687-03
 	ascend	Appendicularia	798.08	2682	 	36.698654	-122.058876	1723265	0.31	2005-07-08 20:24:47.0	Ventana	34.461	04:16:55:14	4.62	V2682-05
 	transect	Allocentrotus fragilis	 	2687	 	 	 	1811299	 	2005-07-13 20:05:39.0	Ventana	 	03:30:38:28	 	V2687-04
 	ascend	Aegina	684.29	2683	 	36.705643	-122.04929	1757889	0.31	2005-07-11 21:06:54.0	Ventana	34.434	04:39:46:15	4.981	V2683-05
 	cruise	Remote Instrument Node	124.28	2672	http://search.mbari.org/ARCHIVE/frameGrabs/Ventana/images/2672/00_25_24_22.jpg	36.803097	-121.805595	20003842	2.63	2005-06-03 15:06:03.0	Ventana	33.959	00:25:24:22	9.31	V2672-01
 	ascend	Cydippida	321.24	2681	 	36.69969	-122.05527	1718153	1.22	2005-07-07 20:57:10.197	Ventana	34.238	04:25:30:09	7.391	V2681-05
 	descend	Arctapodema	502.68	2683	 	36.70145	-122.049164	1756823	0.68	2005-07-11 17:35:24.0	Ventana	34.306	01:19:30:16	6.465	V2683-02
 	transect	Mysidae 2	1000.99	2681	 	36.696106	-122.05232	2498667	0.47	2005-07-07 19:28:17.0	Ventana	34.532	02:57:56:25	3.867	V2681-03HD
 	ascend	sinker	856.26	2681	 	36.698536	-122.055695	1717369	0.34	2005-07-07 19:54:27.543	Ventana	34.493	03:23:29:29	4.348	V2681-04
 	transect	Chionoecetes tanneri	800.34	2674	 	36.752045	-122.208954	1800840	0.35	2005-06-08 18:14:20.0	Ventana	34.49	00:58:51:12	4.329	V2674-01
 	transect	molt	100.5	2681	 	36.699265	-122.05393	2489823	2.14	2005-07-07 16:51:20.0	Ventana	34.067	00:22:28:16	9.15	V2681-01HD
 	descend	Chaetognatha	288.14	2693	 	36.697872	-122.0613	1758438	1.39	2005-07-25 19:37:00.0	Ventana	34.234	02:16:34:28	7.926	V2693-03
 	cruise	Zoarcidae	449.12	2688	 	36.80351	-122.01808	1677633	0.9	2005-07-14 17:37:13.0	Ventana	34.273	01:22:56:20	6.891	V2688-02
 	descend	Euphausiacea	750.77	2682	 	36.698437	-122.05966	1721650	0.29	2005-07-08 18:30:33.0	Ventana	34.449	02:23:37:12	4.771	V2682-03
 	cruise	Corallimorphus	285.61	2688	http://search.mbari.org/ARCHIVE/frameGrabs/Ventana/images/2688/02_01_26_20.jpg	36.808952	-122.02034	20005175	1.4	2005-07-14 18:15:45.0	Ventana	34.212	02:01:26:20	7.94	V2688-02
 	stationary	sinker	504.13	2695	 	36.78455	-122.20048	1824475	0.67	2005-07-28 18:33:39.0	Ventana	34.295	01:21:55:19	6.284	V2695-02
 	ascend	Nanomia	258.17	2681	 	36.697838	-122.05522	1719371	 	2005-07-07 21:29:59.0	Ventana	 	05:02:56:22	 	V2681-05
 	stationary	Brisaster	601.74	2680	 	36.776634	-122.22198	1804102	0.36	2005-06-27 17:36:10.0	Ventana	34.38	00:16:17:28	5.566	V2680-01
 	transect	Phyllospadix	199.59	2696	 	36.80431	-122.12618	1813421	1.52	2005-08-01 17:44:53.0	Ventana	34.209	01:12:46:16	8.662	V2696-02
 	transect	Chaetognatha	300.42	2681	 	36.69766	-122.05309	2492176	1.23	2005-07-07 17:22:41.0	Ventana	34.234	00:53:47:20	7.403	V2681-01HD
 	transect	Psolus squamatus	 	2687	 	 	 	1807142	 	2005-07-13 17:01:25.0	Ventana	 	00:28:19:07	 	V2687-01
 	transect	chuniphyes	700.64	2681	 	36.696236	-122.052155	2497749	0.28	2005-07-07 18:42:51.0	Ventana	34.434	02:12:33:19	4.955	V2681-03HD
 	ascend	Solmissus	282.22	2681	 	36.69975	-122.05516	1718250	1.36	2005-07-07 21:01:04.333	Ventana	34.231	04:29:24:07	7.734	V2681-05
 	ascend	Chaetognatha	335.15	2693	 	36.69273	-122.06189	1758996	1.26	2005-07-25 21:14:11.0	Ventana	34.237	03:38:44:03	7.468	V2693-04
 	transect	Mediaster	399.8	2687	 	36.78937	-122.12532	1809675	1.15	2005-07-13 18:33:50.0	Ventana	34.242	02:00:08:09	7.306	V2687-02
 	descend	Bathocyroe	690.92	2683	 	36.702045	-122.048935	1757077	0.31	2005-07-11 17:53:39.0	Ventana	34.422	01:37:46:06	5.086	V2683-02
 	transect	Mediaster	 	2687	 	 	 	1811594	 	2005-07-13 20:17:00.0	Ventana	 	03:41:59:07	 	V2687-04
 	transect	Mediaster	 	2687	 	 	 	1807050	 	2005-07-13 16:56:37.0	Ventana	 	00:23:31:15	 	V2687-01
 	transect	Porifera sp. 1	 	2687	 	 	 	1812623	 	2005-07-13 20:48:34.0	Ventana	 	04:13:04:21	 	V2687-05
 	transect	Psolus squamatus	 	2687	 	 	 	1808969	 	2005-07-13 17:32:46.0	Ventana	 	00:59:38:09	 	V2687-01
 	descend	Poeobius meseres	1182.0	2682	 	36.698303	-122.05805	1722319	0.66	2005-07-08 19:39:34.0	Ventana	34.569	03:32:10:19	3.416	V2682-04
 	transect	Ceriantharia sp. 1	800.37	2674	 	36.751766	-122.2119	1801154	0.35	2005-06-08 18:27:35.0	Ventana	34.489	01:11:39:24	4.341	V2674-02
 	transect	Poeobius meseres	900.99	2681	 	36.695427	-122.05123	2498455	0.39	2005-07-07 19:13:50.0	Ventana	34.505	02:43:31:25	4.171	V2681-03HD
 	descend	Appendicularia	583.53	2681	 	36.695694	-122.05106	1715625	0.33	2005-07-07 18:07:16.067	Ventana	34.38	01:37:37:02	5.584	V2681-02
 	ascend	Copepoda	782.59	2681	 	36.69886	-122.05642	1717452	0.28	2005-07-07 20:04:38.2	Ventana	34.458	03:33:39:29	4.712	V2681-04
 	ascend	Poeobius meseres	706.09	2683	 	36.705837	-122.04897	1757875	0.27	2005-07-11 21:05:45.0	Ventana	34.45	04:38:37:10	4.774	V2683-05
 	transect	Glyptocephalus zachirus	 	2687	 	 	 	1810796	 	2005-07-13 19:35:01.0	Ventana	 	03:00:44:02	 	V2687-03
 	transect	molt	100.57	2681	 	36.69983	-122.05429	2489551	2.13	2005-07-07 16:44:40.0	Ventana	34.068	00:15:50:06	9.145	V2681-01HD
 	descend	Dosidicus gigas	404.2	2681	 	36.698025	-122.05376	1715302	0.79	2005-07-07 17:50:42.5	Ventana	34.275	01:21:05:15	6.638	V2681-02
 	descend	Appendicularia	538.11	2682	 	36.698612	-122.05978	1720875	0.37	2005-07-08 18:03:47.0	Ventana	34.366	01:57:15:10	5.764	V2682-02
 	transect	Poeobius meseres	600.62	2681	 	36.69587	-122.051414	2493680	0.3	2005-07-07 18:19:28.0	Ventana	34.388	01:49:50:13	5.495	V2681-02HD
 	cruise	bacterial mat	1015.89	2689	 	36.771526	-122.08295	1669721	0.57	2005-07-18 17:07:00.0	Ventana	34.547	00:30:03:13	3.668	V2689-01
 	descend	Mysidae	1142.08	2683	 	36.705116	-122.048904	1757492	0.64	2005-07-11 19:33:07.0	Ventana	34.555	03:13:27:18	3.557	V2683-03
 	transect	Mediaster	 	2687	 	 	 	1808646	 	2005-07-13 17:26:03.0	Ventana	 	00:52:55:23	 	V2687-01
 	transect	Ophiuroidea	999.63	2669	 	36.73137	-122.23774	1687529	0.44	2005-05-25 19:12:33.0	Ventana	34.52	01:34:31:20	3.947	V2669-02
 	transect	Phyllospadix	602.62	2680	 	36.78978	-122.23258	1806727	0.36	2005-06-27 20:13:45.0	Ventana	34.378	02:52:22:19	5.586	V2680-03
 	transect	zoarcidae	500.59	2681	 	36.697784	-122.05355	2493297	0.44	2005-07-07 17:55:37.0	Ventana	34.347	01:25:59:29	6.02	V2681-02HD
 	transect	Mesomyaria	1000.27	2669	 	36.731285	-122.24095	1689356	0.41	2005-05-25 19:33:42.0	Ventana	34.51	01:55:39:10	4.055	V2669-02
 	transect	Sebastes diploproa	 	2687	 	 	 	1811179	 	2005-07-13 19:59:44.0	Ventana	 	03:24:44:09	 	V2687-04
 	starttransect	color bars	100.4	2681	 	36.69983	-122.05429	1713475	2.13	2005-07-07 16:42:49.72	Ventana	34.069	00:13:59:21	9.146	V2681-01
 	transect	Calycophorae	800.98	2681	 	36.695156	-122.05091	2498072	0.31	2005-07-07 18:54:15.0	Ventana	34.475	02:23:56:15	4.485	V2681-03HD
 	transect	Brisaster	1000.08	2669	 	36.73177	-122.244965	1734494	0.4	2005-05-25 19:56:08.0	Ventana	34.508	02:17:39:26	4.081	V2669-03
 	descend	Nanomia	195.14	2683	 	36.70107	-122.05099	1756371	1.68	2005-07-11 16:46:09.0	Ventana	34.198	00:33:49:12	8.427	V2683-01
 	transect	Mesomyaria	1000.47	2669	 	36.73154	-122.24283	1694546	0.4	2005-05-25 19:43:35.0	Ventana	34.51	02:05:32:19	4.087	V2669-02
 	descend	Nanomia	156.9	2693	 	36.696285	-122.05774	1758198	1.97	2005-07-25 17:57:18.0	Ventana	34.117	00:37:49:14	8.964	V2693-01
 	transect	Psolus squamatus	399.88	2687	http://search.mbari.org/ARCHIVE/frameGrabs/Ventana/images/2687/01_06_16_14.jpg	36.788166	-122.121796	1809352	1.13	2005-07-13 17:39:54.0	Ventana	34.252	01:06:16:14	7.29	V2687-02
 	ascend	Copepoda	950.82	2682	 	36.697704	-122.05847	1723025	0.43	2005-07-08 20:08:52.0	Ventana	34.517	04:01:02:16	4.027	V2682-05
 	transect	Mediaster	 	2687	 	 	 	1812300	 	2005-07-13 20:31:28.0	Ventana	 	03:56:26:24	 	V2687-04
 	descend	Crustacea	304.85	2682	 	36.699566	-122.06073	1720077	1.17	2005-07-08 16:39:09.0	Ventana	34.235	00:33:13:05	7.332	V2682-01
 	transect	Henricia sanguinolenta	 	2687	 	 	 	1810473	 	2005-07-13 19:19:23.0	Ventana	 	02:45:07:02	 	V2687-03
 	transect	Nanomia bijuga	200.36	2681	 	36.69829	-122.05333	2491055	1.69	2005-07-07 17:11:14.0	Ventana	34.196	00:42:21:23	8.332	V2681-01HD
 	transect	Mediaster	 	2687	 	 	 	1807525	 	2005-07-13 17:14:07.0	Ventana	 	00:41:00:04	 	V2687-01
 	transect	Mesomyaria	999.94	2669	 	36.73097	-122.232574	1683783	0.45	2005-05-25 18:34:17.0	Ventana	34.521	00:56:43:08	3.912	V2669-01
 	ascend	Chuniphyes	905.21	2681	 	36.69794	-122.054665	1717129	0.37	2005-07-07 19:48:07.233	Ventana	34.505	03:17:10:01	4.202	V2681-04
 	transect	Phyllospadix	800.54	2674	 	36.752586	-122.20113	1774179	0.34	2005-06-08 17:34:27.0	Ventana	34.485	00:19:00:22	4.397	V2674-01
 	descend	Bolinopsis	359.35	2682	 	36.698494	-122.060104	1720460	1.0	2005-07-08 17:33:06.0	Ventana	34.258	01:26:36:08	7.075	V2682-02
 	transect	Phyllospadix	800.26	2674	 	36.752068	-122.2089	1800831	0.35	2005-06-08 18:14:00.0	Ventana	34.489	00:58:31:09	4.325	V2674-01
 	transect	Appendicularia	500.62	2681	 	36.69612	-122.05164	2493620	0.43	2005-07-07 18:02:49.0	Ventana	34.347	01:33:11:28	6.009	V2681-02HD
 	descend	Copepoda	400.38	2681	 	36.695663	-122.05104	1715242	0.79	2005-07-07 17:38:59.1	Ventana	34.277	01:09:22:10	6.675	V2681-02
 	transect	chuniphyes	500.6	2681	 	36.697586	-122.053345	2493357	0.44	2005-07-07 17:56:27.0	Ventana	34.347	01:26:50:11	6.018	V2681-02HD
 	transect	Mesomyaria	999.39	2669	 	36.731018	-122.232285	1683723	0.45	2005-05-25 18:31:15.0	Ventana	34.522	00:53:40:25	3.919	V2669-01
 	transect	Ophiuroidea	999.07	2669	 	36.73139	-122.23609	1684581	0.44	2005-05-25 18:58:18.0	Ventana	34.522	01:20:17:22	3.94	V2669-02
 	transect	Appendicularia	300.41	2681	 	36.69666	-122.05224	2492499	1.23	2005-07-07 17:26:04.0	Ventana	34.234	00:57:11:24	7.397	V2681-01HD
 	ascend	Appendicularia	299.04	2681	 	36.699715	-122.055244	1718190	1.33	2005-07-07 20:59:26.067	Ventana	34.226	04:27:46:16	7.648	V2681-05
 	ascend	Appendicularia	617.05	2682	 	36.698868	-122.05986	1723408	0.39	2005-07-08 20:37:59.0	Ventana	34.385	04:30:06:22	5.489	V2682-05
 	transect	Phyllospadix	801.46	2674	 	36.752224	-122.20745	1800065	0.37	2005-06-08 18:07:01.0	Ventana	34.488	00:51:33:12	4.35	V2674-01
 	transect	Sebastolobus	998.64	2669	 	36.731155	-122.230835	1683460	0.45	2005-05-25 18:21:23.0	Ventana	34.522	00:43:50:08	3.909	V2669-01
 	cruise	Sebastolobus altivelis	804.69	2674	http://search.mbari.org/ARCHIVE/frameGrabs/Ventana/images/2674/01_54_17_16.jpg	36.750698	-122.22081	1803719	0.34	2005-06-08 19:10:15.0	Ventana	34.485	01:54:17:16	4.414	V2674-02
 	transect	Neptunea amianta	1000.85	2669	 	36.732273	-122.24934	1736381	0.41	2005-05-25 20:28:09.0	Ventana	34.509	02:49:36:25	4.075	V2669-03
 	transect	Phyllospadix	399.7	2687	 	36.78935	-122.12487	1809615	1.16	2005-07-13 18:25:53.0	Ventana	34.239	01:52:12:14	7.325	V2687-02
 	transect	Glyptocephalus zachirus	203.94	2696	 	36.80624	-122.129814	1813744	1.49	2005-08-01 18:24:36.0	Ventana	34.211	01:52:27:15	8.63	V2696-02
 	descend	Dosidicus gigas	600.41	2683	 	36.701935	-122.04906	1757017	0.35	2005-07-11 17:49:14.0	Ventana	34.369	01:33:20:25	5.773	V2683-02
 	transect	Mesomyaria	799.34	2674	 	36.75166	-122.21299	1801246	0.35	2005-06-08 18:31:43.0	Ventana	34.489	01:15:47:19	4.336	V2674-02
 	transect	Ophiuroidea	1000.0	2669	 	36.731667	-122.24352	1733848	0.4	2005-05-25 19:47:30.0	Ventana	34.509	02:09:01:09	4.071	V2669-03
 	transect	Phyllospadix	800.55	2674	 	36.75209	-122.20851	1800771	0.35	2005-06-08 18:12:07.0	Ventana	34.491	00:56:38:21	4.326	V2674-01
 	cruise	Actiniaria	498.91	2695	 	36.784054	-122.19981	1824415	0.89	2005-07-28 17:02:38.0	Ventana	34.265	00:09:00:28	6.716	V2695-01
 	transect	Corallimorphus pilatus	 	2687	http://search.mbari.org/ARCHIVE/frameGrabs/Ventana/images/2687/03_37_41_08.jpg	 	 	1811442	 	2005-07-13 20:12:42.0	Ventana	 	03:37:41:08	 	V2687-04
 	transect	Parastichopus leukothele	200.06	2696	 	36.804596	-122.12688	1813481	1.51	2005-08-01 17:51:44.0	Ventana	34.212	01:19:37:11	8.668	V2696-02
 	descend	Chuniphyes	848.33	2683	 	36.70288	-122.04838	1757229	0.34	2005-07-11 18:25:25.0	Ventana	34.484	02:09:29:21	4.385	V2683-02
 	transect	Nanomia bijuga	200.41	2681	 	36.6983	-122.05336	2491115	1.69	2005-07-07 17:12:00.0	Ventana	34.198	00:43:08:13	8.337	V2681-01HD
 	transect	Calycophorae	901.03	2681	 	36.69578	-122.05171	2498395	0.39	2005-07-07 19:12:08.0	Ventana	34.505	02:41:48:18	4.174	V2681-03HD
 	ascend	Copepoda	762.82	2681	 	36.69868	-122.05601	1717512	0.29	2005-07-07 20:11:18.867	Ventana	34.45	03:40:20:07	4.797	V2681-04
 	descend	Lensia	266.35	2682	 	36.699795	-122.06082	1720017	1.35	2005-07-08 16:27:04.0	Ventana	34.227	00:21:08:13	7.781	V2682-01
 	ascend	Cydippida	 	2683	 	 	 	1758138	 	2005-07-11 14:31:21.0	Ventana	 	05:04:12:09	 	V2683-05
 	transect	Rathbunaster californicus	196.24	2696	 	36.802666	-122.12169	1813038	1.55	2005-08-01 16:58:48.0	Ventana	34.199	00:27:07:18	8.6	V2696-01
 	transect	Phyllospadix	1000.31	2669	 	36.73134	-122.24165	1689831	0.4	2005-05-25 19:37:33.0	Ventana	34.509	01:59:30:03	4.082	V2669-02
 	transect	Psolus squamatus	 	2687	 	 	 	1808706	 	2005-07-13 17:27:30.0	Ventana	 	00:54:22:14	 	V2687-01
 	descend	Aegina	650.24	2681	 	36.69795	-122.05387	1715948	0.29	2005-07-07 18:30:20.443	Ventana	34.402	02:00:41:01	5.252	V2681-02
 	descend	Appendicularia	1066.32	2683	 	36.705082	-122.04896	1757432	0.5	2005-07-11 19:26:35.0	Ventana	34.535	03:06:57:08	3.825	V2683-03
 	transect	Mesomyaria	798.33	2674	 	36.751614	-122.2138	1801306	0.35	2005-06-08 18:37:00.0	Ventana	34.488	01:21:04:11	4.344	V2674-02
 	transect	Stomphia	 	2687	 	 	 	1809938	 	2005-07-13 18:48:28.0	Ventana	 	02:14:13:25	 	V2687-03
 	transect	Poeobius meseres	600.57	2681	 	36.696438	-122.05206	2493740	0.3	2005-07-07 18:22:05.0	Ventana	34.388	01:52:27:10	5.48	V2681-02HD
 	ascend	Nanomia	150.86	2693	 	36.69073	-122.06298	1759259	1.92	2005-07-25 21:31:26.0	Ventana	34.114	03:55:58:08	9.069	V2693-04
 	transect	Ceriantharia sp. 1	599.83	2680	 	36.77894	-122.22412	1804457	0.36	2005-06-27 18:05:00.0	Ventana	34.377	00:45:06:09	5.602	V2680-01
 	transect	Ophiuroidea	1000.56	2669	 	36.732338	-122.24946	1736441	0.41	2005-05-25 20:29:21.0	Ventana	34.51	02:50:50:13	4.072	V2669-03
 	transect	Halipteris californica	598.29	2680	 	36.781292	-122.22627	1804960	0.36	2005-06-27 18:34:27.0	Ventana	34.378	01:13:32:20	5.597	V2680-02
 	transect	molt	100.48	2681	 	36.69983	-122.05429	2489491	2.13	2005-07-07 16:42:55.0	Ventana	34.068	00:14:05:05	9.152	V2681-01HD
 	transect	Ceriantharia sp. 2	1000.36	2669	 	36.73194	-122.24662	1735735	0.41	2005-05-25 20:09:30.0	Ventana	34.51	02:31:00:15	4.067	V2669-03
 	transect	Mediaster	 	2687	 	 	 	1812360	 	2005-07-13 20:34:21.0	Ventana	 	03:59:19:15	 	V2687-04
 	transect	Mediaster	 	2687	 	 	 	1807585	 	2005-07-13 17:16:08.0	Ventana	 	00:43:01:09	 	V2687-01
 	transect	Coryphaenoides acrolepis	999.72	2669	http://search.mbari.org/ARCHIVE/frameGrabs/Ventana/images/2669/03_00_46_26.jpg	36.732655	-122.25107	1737059	0.41	2005-05-25 20:39:18.0	Ventana	34.509	03:00:46:26	4.069	V2669-03
 	transect	Lycenchelys crotalinus	1000.33	2669	http://search.mbari.org/ARCHIVE/frameGrabs/Ventana/images/2669/02_02_51_15.jpg	36.73148	-122.24229	1694486	0.41	2005-05-25 19:40:54.0	Ventana	34.509	02:02:51:15	4.063	V2669-02
 	transect	Phyllospadix	802.68	2674	 	36.750862	-122.21997	1803659	0.34	2005-06-08 19:06:32.0	Ventana	34.487	01:50:34:03	4.371	V2674-02
 	transect	Psolus squamatus	399.88	2687	 	36.788116	-122.121605	1809232	1.13	2005-07-13 17:37:25.0	Ventana	34.243	01:03:47:07	7.255	V2687-02
 	descend	Nanomia	158.86	2683	 	36.700806	-122.051384	1756311	1.69	2005-07-11 16:35:34.0	Ventana	34.177	00:23:16:13	8.781	V2683-01
 	transect	Appendicularia	400.74	2681	 	36.696648	-122.0522	2493034	0.79	2005-07-07 17:44:48.0	Ventana	34.277	01:15:12:26	6.652	V2681-02HD
 	transect	Ceriantharia sp. 2	 	2669	 	 	 	1737562	 	2005-05-25 13:51:30.0	Ventana	 	03:12:18:00	 	V2669-04
 	transect	Phyllospadix	799.93	2674	 	36.752544	-122.20378	1799387	0.35	2005-06-08 17:47:48.0	Ventana	34.487	00:32:21:21	4.359	V2674-01
 	transect	Glyptocephalus zachirus	 	2687	 	 	 	1811239	 	2005-07-13 20:05:26.0	Ventana	 	03:30:25:20	 	V2687-04
 	transect	Neptunea amianta	800.91	2674	 	36.752533	-122.20026	1774059	0.3	2005-06-08 17:28:25.0	Ventana	34.454	00:12:59:21	4.605	V2674-01
 	transect	Phyllospadix	801.06	2674	 	36.75214	-122.20813	1800711	0.35	2005-06-08 18:10:18.0	Ventana	34.491	00:54:50:07	4.331	V2674-01
 	transect	molt	100.51	2681	 	36.69983	-122.05429	2489671	2.13	2005-07-07 16:47:27.0	Ventana	34.068	00:18:36:01	9.148	V2681-01HD
 	ascend	Calycophorae	258.17	2681	 	36.697838	-122.05522	1719311	 	2005-07-07 21:29:59.0	Ventana	 	05:00:12:27	 	V2681-05
 	cruise	Chionoecetes tanneri	1220.91	2683	 	36.706284	-122.047516	1757612	0.72	2005-07-11 20:08:00.0	Ventana	34.574	03:42:22:11	3.343	V2683-04
 	transect	Mesomyaria	997.94	2669	 	36.73117	-122.23445	1684138	0.45	2005-05-25 18:45:11.0	Ventana	34.522	01:07:11:19	3.917	V2669-02
 	transect	Gastropoda sp.2	998.72	2669	 	36.73108	-122.23491	1694666	0.45	2005-05-25 18:48:50.0	Ventana	34.522	01:10:50:23	3.918	V2669-02
 	transect	Mesomyaria	800.81	2674	 	36.75112	-122.21691	1803456	0.35	2005-06-08 18:52:52.0	Ventana	34.485	01:36:55:15	4.353	V2674-02
 	ascend	Aegina	593.89	2682	 	36.698486	-122.062164	1723560	0.38	2005-07-08 21:04:35.0	Ventana	34.369	04:56:41:23	5.698	V2682-05
 	transect	Mediaster	 	2687	 	 	 	1806990	 	2005-07-13 16:53:19.0	Ventana	 	00:20:14:04	 	V2687-01
 	transect	Psolus squamatus	 	2687	 	 	 	1811059	 	2005-07-13 19:49:59.0	Ventana	 	03:15:00:11	 	V2687-04
 	ascend	Nanomia	258.17	2681	 	36.697838	-122.05522	1719491	 	2005-07-07 21:29:59.0	Ventana	 	05:07:49:07	 	V2681-05
 	transect	Mesomyaria	1000.25	2669	 	36.732517	-122.25014	1736856	0.41	2005-05-25 20:33:51.0	Ventana	34.509	02:55:18:28	4.067	V2669-03
 	transect	Mesomyaria	801.22	2674	 	36.75239	-122.20556	1799802	0.36	2005-06-08 17:57:31.0	Ventana	34.486	00:42:03:18	4.35	V2674-01
 	ascend	Lensia	370.89	2693	 	36.696842	-122.06034	1758733	1.2	2005-07-25 20:32:18.0	Ventana	34.234	03:11:50:02	7.184	V2693-03
 	transect	Sebastolobus	999.75	2669	 	36.73107	-122.23895	1689093	0.43	2005-05-25 19:21:07.0	Ventana	34.518	01:43:05:06	3.96	V2669-02
 	transect	phialidium	500.56	2681	 	36.696938	-122.052536	2493560	0.44	2005-07-07 17:59:26.0	Ventana	34.346	01:29:48:22	6.023	V2681-02HD
 	ascend	Leuroglossus stilbius	237.86	2693	 	36.69129	-122.06243	1759116	1.5	2005-07-25 21:22:49.0	Ventana	34.235	03:47:21:26	8.487	V2693-04
 	transect	molt	100.5	2681	 	36.698933	-122.05371	2489874	2.12	2005-07-07 16:52:06.0	Ventana	34.07	00:23:14:06	9.148	V2681-01HD
 	descend	Appendicularia	484.3	2682	 	36.69858	-122.05975	1720815	0.5	2005-07-08 17:58:05.0	Ventana	34.335	01:51:35:17	6.148	V2682-02
 	descend	Chuniphyes	923.29	2683	 	36.70354	-122.04851	1757289	0.38	2005-07-11 18:54:30.0	Ventana	34.501	02:34:52:07	4.201	V2683-03
 	transect	Phyllospadix	203.34	2696	 	36.80671	-122.130295	1813804	1.47	2005-08-01 18:33:35.0	Ventana	34.215	02:01:25:27	8.616	V2696-02
 	cruise	Mysidae	359.58	2676	 	36.80467	-122.028984	1676586	1.15	2005-06-14 16:57:28.0	Ventana	34.245	00:41:36:00	7.384	V2676-01
 	transect	Phyllospadix	800.57	2674	 	36.752514	-122.20297	1799267	0.35	2005-06-08 17:43:25.0	Ventana	34.489	00:27:58:02	4.386	V2674-01
 	ascend	Chuniphyes	653.17	2681	 	36.698826	-122.05421	1717664	0.29	2005-07-07 20:27:02.333	Ventana	34.4	03:56:03:07	5.294	V2681-04
 	descend	Lensia	328.96	2693	 	36.697426	-122.06055	1758521	1.29	2005-07-25 19:47:37.0	Ventana	34.236	02:27:11:02	7.575	V2693-03
 	transect	Psolus squamatus	 	2687	 	 	 	1810150	 	2005-07-13 19:00:40.0	Ventana	 	02:26:25:10	 	V2687-03
 	transect	Glyptocephalus zachirus	399.7	2687	 	36.789154	-122.12429	1809555	1.18	2005-07-13 18:16:57.0	Ventana	34.238	01:43:16:22	7.364	V2687-02
 	transect	Embassichthys bathybius	997.35	2669	http://search.mbari.org/ARCHIVE/frameGrabs/Ventana/images/2669/00_19_05_23.jpg	36.730587	-122.22735	1649145	0.45	2005-05-25 17:56:37.0	Ventana	34.521	00:19:05:23	3.908	V2669-01
 	cruise	Chionoecetes tanneri	999.78	2669	http://search.mbari.org/ARCHIVE/frameGrabs/Ventana/images/2669/01_30_50_21.jpg	36.731384	-122.23728	20003791	0.44	2005-05-25 19:08:51.0	Ventana	34.519	01:30:50:21	3.947	V2669-02
 	transect	Sebastes diploproa	 	2687	 	 	 	1812503	 	2005-07-13 20:42:08.0	Ventana	 	04:07:05:05	 	V2687-04
 	ascend	Leuroglossus stilbius	1020.63	2683	 	36.707474	-122.04916	1757815	0.46	2005-07-11 20:50:17.0	Ventana	34.528	04:23:10:02	3.948	V2683-05
 	transect	Mesomyaria	800.87	2674	 	36.751755	-122.21119	1801094	0.35	2005-06-08 18:24:51.0	Ventana	34.489	01:08:56:02	4.342	V2674-02
 	transect	lobata	700.65	2681	 	36.697693	-122.05355	2497629	0.29	2005-07-07 18:36:49.0	Ventana	34.435	02:06:33:10	4.975	V2681-03HD
 	cruise	Rathbunaster californicus	98.95	2688	 	36.812958	-122.020874	1679534	1.93	2005-07-14 21:29:37.0	Ventana	34.11	05:13:49:25	8.872	V2688-05
 	cruise	Sebastolobus	429.97	2688	 	36.80543	-122.01905	1677707	0.92	2005-07-14 17:46:28.0	Ventana	34.271	01:32:11:14	6.931	V2688-02
 	ascend	Phialidium	682.39	2682	 	36.69889	-122.0595	1723348	0.28	2005-07-08 20:33:24.0	Ventana	34.41	04:25:32:21	5.168	V2682-05
 	transect	Mediaster	 	2687	 	 	 	1809029	 	2005-07-13 17:34:00.0	Ventana	 	01:00:52:08	 	V2687-01
 	descend	Nanomia	445.09	2683	 	36.70154	-122.0494	1756694	0.82	2005-07-11 17:08:30.0	Ventana	34.276	00:56:09:01	6.735	V2683-01
 	transect	Psolus squamatus	 	2687	 	 	 	1807202	 	2005-07-13 17:03:20.0	Ventana	 	00:30:14:22	 	V2687-01
 	transect	Mesomyaria	1000.25	2669	 	36.731815	-122.245155	1735352	0.4	2005-05-25 19:57:54.0	Ventana	34.505	02:19:24:21	4.099	V2669-03
 	transect	Lycenchelys camchatica	800.85	2674	 	36.752525	-122.20157	1799064	0.34	2005-06-08 17:36:24.0	Ventana	34.487	00:20:58:01	4.415	V2674-01
 	transect	Phyllospadix	998.27	2669	 	36.732964	-122.25217	1737382	0.41	2005-05-25 20:46:23.0	Ventana	34.508	03:07:11:06	4.075	V2669-04
 	transect	Solmissus	300.46	2681	 	36.697887	-122.053276	2492116	1.23	2005-07-07 17:21:55.0	Ventana	34.233	00:53:02:05	7.4	V2681-01HD
 	descend	Appendicularia	513.06	2683	 	36.70144	-122.049164	1756874	0.66	2005-07-11 17:40:29.0	Ventana	34.304	01:24:37:00	6.424	V2683-02
 	transect	Phyllospadix	801.43	2674	 	36.751953	-122.20933	1800891	0.36	2005-06-08 18:16:00.0	Ventana	34.49	01:00:31:23	4.317	V2674-01
 	transect	Mediaster	 	2687	 	 	 	1811797	 	2005-07-13 20:25:28.0	Ventana	 	03:50:26:22	 	V2687-04
 	transect	Ophiuroidea	997.36	2669	 	36.7306	-122.22817	1649348	0.45	2005-05-25 18:01:41.0	Ventana	34.522	00:24:09:12	3.907	V2669-01
 	cruise	Sebastolobus	516.52	2688	 	36.800346	-122.019066	1677504	0.67	2005-07-14 17:13:11.0	Ventana	34.312	00:59:27:29	6.391	V2688-01
 	ascend	Euphausiacea	205.81	2682	 	36.69655	-122.06078	1723763	1.97	2005-07-08 21:31:01.0	Ventana	34.172	05:22:41:14	8.049	V2682-06
 	ascend	Nanomia	481.39	2683	 	36.704338	-122.05057	1757995	0.69	2005-07-11 21:17:03.0	Ventana	34.303	04:49:54:18	6.52	V2683-05
 	transect	Mesomyaria	801.93	2674	 	36.752247	-122.20697	1800005	0.37	2005-06-08 18:04:31.0	Ventana	34.49	00:49:03:15	4.341	V2674-01
 	transect	Lycenchelys camchatica	1000.22	2669	 	36.731785	-122.244705	1734434	0.4	2005-05-25 19:54:36.95	Ventana	34.508	02:16:07:18	4.09	V2669-03
 	transect	Psolus squamatus	 	2687	 	 	 	1812683	 	2005-07-13 20:52:05.0	Ventana	 	04:16:35:12	 	V2687-05
 	transect	Brisaster	1000.39	2669	 	36.731186	-122.24068	1689296	0.41	2005-05-25 19:31:56.0	Ventana	34.511	01:53:54:05	4.055	V2669-02
 	transect	Corallimorphus pilatus	 	2687	 	 	 	1810676	 	2005-07-13 19:27:31.0	Ventana	 	02:53:15:06	 	V2687-03
 	transect	Mesomyaria	999.68	2669	 	36.731415	-122.2372	1687469	0.44	2005-05-25 19:08:17.0	Ventana	34.52	01:30:16:07	3.945	V2669-02
 	ascend	Appendicularia	345.23	2693	 	36.69335	-122.06136	1758936	1.25	2005-07-25 21:10:14.0	Ventana	34.239	03:34:45:16	7.408	V2693-04
 	transect	Psolus squamatus	 	2687	 	 	 	1808849	 	2005-07-13 17:30:24.0	Ventana	 	00:57:16:17	 	V2687-01
 	transect	Mesomyaria	999.02	2669	 	36.73092	-122.229836	1651175	0.45	2005-05-25 18:13:11.0	Ventana	34.522	00:35:38:19	3.907	V2669-01
 	descend	Dosidicus gigas	809.42	2682	 	36.698338	-122.0596	1721701	0.31	2005-07-08 18:40:06.0	Ventana	34.471	02:33:09:14	4.534	V2682-03
 	transect	Rathbunaster californicus	201.57	2696	 	36.805256	-122.12819	1813624	1.5	2005-08-01 18:06:59.0	Ventana	34.21	01:34:50:27	8.669	V2696-02
 	transect	Mesomyaria	1000.63	2669	 	36.732285	-122.248985	1736261	0.41	2005-05-25 20:26:02.0	Ventana	34.51	02:47:30:16	4.067	V2669-03
 	transect	Umbellula lindahli	601.24	2680	 	36.787006	-122.23144	1805901	0.36	2005-06-27 19:44:41.0	Ventana	34.378	02:23:19:17	5.598	V2680-03
 	transect	Mesomyaria	998.46	2669	 	36.732906	-122.252075	1737322	0.4	2005-05-25 20:45:38.0	Ventana	34.509	03:06:26:15	4.083	V2669-04
 	transect	Phyllospadix	 	2687	 	 	 	1810270	 	2005-07-13 19:13:49.0	Ventana	 	02:39:33:01	 	V2687-03
 	stationary	mud	208.03	2686	 	36.79371	-121.88108	1669924	1.67	2005-07-12 22:02:44.933	Ventana	34.139	01:09:54:20	8.352	V2686-01
 	transect	Phyllospadix	800.74	2674	 	36.7526	-122.2019	1799124	0.34	2005-06-08 17:38:06.0	Ventana	34.479	00:22:40:01	4.403	V2674-01
 	transect	Phyllospadix	802.35	2674	 	36.751873	-122.209984	1800974	0.36	2005-06-08 18:19:54.0	Ventana	34.492	01:03:58:20	4.32	V2674-02
 	ascend	Copepoda	943.1	2681	 	36.697487	-122.05394	1716926	0.41	2005-07-07 19:42:07.467	Ventana	34.514	03:11:11:04	4.068	V2681-04
 	transect	molt	100.47	2681	 	36.6998	-122.054276	2489754	2.12	2005-07-07 16:49:37.0	Ventana	34.067	00:20:47:19	9.156	V2681-01HD
 	transect	Ophiuroidea	999.3	2669	 	36.731422	-122.23626	1684701	0.44	2005-05-25 18:59:25.0	Ventana	34.52	01:21:25:09	3.941	V2669-02
 	transect	Ophiuroidea	1000.21	2669	 	36.73105	-122.23945	1689153	0.41	2005-05-25 19:23:52.0	Ventana	34.517	01:45:50:19	4.046	V2669-02
 	ascend	Copepoda	1193.01	2683	 	36.707294	-122.04766	1757695	0.72	2005-07-11 20:22:00.0	Ventana	34.573	03:56:22:07	3.365	V2683-04
 	transect	Sebastolobus	 	2687	 	 	 	1812826	 	2005-07-13 20:59:42.0	Ventana	 	04:24:12:10	 	V2687-05
 	cruise	Sebastes	435.9	2676	http://search.mbari.org/ARCHIVE/frameGrabs/Ventana/images/2676/00_24_56_20.jpg	36.803356	-122.02924	20003911	0.63	2005-06-14 16:40:48.0	Ventana	34.316	00:24:56:20	6.372	V2676-01
 	transect	Lycenchelys camchatica	801.19	2674	 	36.75099	-122.218376	1803576	0.35	2005-06-08 18:59:50.0	Ventana	34.491	01:43:53:01	4.343	V2674-02
 	descend	Copepoda	831.68	2682	 	36.69835	-122.05956	1721724	0.33	2005-07-08 18:44:15.0	Ventana	34.482	02:37:17:21	4.454	V2682-03
 	transect	Mesomyaria	1000.26	2669	 	36.73213	-122.24803	1736178	0.41	2005-05-25 20:19:10.4	Ventana	34.51	02:40:40:16	4.064	V2669-03
 	transect	Mysidae 2	800.88	2681	 	36.69644	-122.05245	2498252	0.31	2005-07-07 19:00:24.0	Ventana	34.474	02:30:06:10	4.503	V2681-03HD
 	stationary	Appendicularia	502.12	2694	 	36.78462	-122.20051	1676180	0.75	2005-07-27 17:23:04.0	Ventana	34.287	00:16:11:12	6.466	V2694-01
 	descend	Dosidicus gigas	662.77	2682	 	36.698647	-122.059944	1721378	0.28	2005-07-08 18:11:09.0	Ventana	34.411	02:04:15:00	5.201	V2682-03
 	transect	Mesomyaria	802.66	2674	 	36.75223	-122.20634	1799922	0.36	2005-06-08 18:01:24.0	Ventana	34.489	00:45:56:24	4.339	V2674-01
 	descend	Appendicularia	339.31	2683	 	36.701252	-122.049995	1756551	1.26	2005-07-11 16:55:56.0	Ventana	34.22	00:43:37:04	7.279	V2683-01
 	descend	Chuniphyes	717.68	2681	 	36.694954	-122.05061	1716220	0.28	2005-07-07 18:49:17.6	Ventana	34.436	02:19:01:10	4.892	V2681-03
 	transect	Psolus squamatus	399.87	2687	 	36.788074	-122.12156	1809172	1.13	2005-07-13 17:36:32.0	Ventana	34.242	01:02:54:05	7.267	V2687-02
 	descend	Hormiphora	245.3	2681	 	36.69857	-122.05355	1713595	1.47	2005-07-07 17:15:57.567	Ventana	34.213	00:47:05:09	8.026	V2681-01
 	descend	Appendicularia	972.32	2683	 	36.704052	-122.048615	1757349	0.42	2005-07-11 19:13:25.0	Ventana	34.516	02:53:47:13	4.036	V2683-03
 	transect	Ceriantharia sp. 2	1000.58	2669	 	36.73094	-122.23364	1683926	0.45	2005-05-25 18:39:48.0	Ventana	34.522	01:01:48:17	3.914	V2669-02
 	transect	Pseudosagitta maxima	1001.0	2681	 	36.69594	-122.05213	2498658	0.47	2005-07-07 19:27:37.0	Ventana	34.53	02:57:17:15	3.868	V2681-03HD
 	transect	Mesomyaria	999.55	2669	 	36.731033	-122.23388	1683995	0.45	2005-05-25 18:41:08.0	Ventana	34.523	01:03:09:03	3.912	V2669-02
 	transect	Mediaster	 	2687	 	 	 	1810616	 	2005-07-13 19:25:01.0	Ventana	 	02:50:44:27	 	V2687-03
 	transect	Mediaster	 	2687	 	 	 	1811322	 	2005-07-13 20:07:16.0	Ventana	 	03:32:15:15	 	V2687-04
 	transect	Lycenchelys camchatica	 	2669	 	 	 	1737622	 	2005-05-25 13:53:29.0	Ventana	 	03:14:17:10	 	V2669-04
 	transect	Neptunea amianta	602.1	2680	 	36.7917	-122.23298	1806870	0.36	2005-06-27 20:29:59.0	Ventana	34.379	03:08:35:13	5.59	V2680-03
 	transect	Phyllospadix	799.03	2674	 	36.751457	-122.21462	1801366	0.35	2005-06-08 18:42:33.0	Ventana	34.49	01:26:37:04	4.334	V2674-02
 	transect	Psolus squamatus	 	2687	 	 	 	1808766	 	2005-07-13 17:29:02.0	Ventana	 	00:55:55:01	 	V2687-01
 	transect	Appendicularia	400.77	2681	 	36.697445	-122.053116	2493154	0.79	2005-07-07 17:48:09.0	Ventana	34.277	01:18:33:10	6.662	V2681-02HD
 	transect	Ceriantharia sp. 2	999.9	2669	 	36.731422	-122.236755	1686874	0.44	2005-05-25 19:03:58.0	Ventana	34.52	01:25:58:05	3.943	V2669-02
 	ascend	Poeobius meseres	404.93	2683	 	36.70408	-122.0506	1758055	0.97	2005-07-11 21:20:10.0	Ventana	34.256	04:53:01:25	6.91	V2683-05
 	descend	ink	988.69	2681	 	36.69464	-122.050385	1716543	0.46	2005-07-07 19:19:50.867	Ventana	34.524	02:49:32:21	3.926	V2681-03
 	transect	Psolus squamatus	 	2687	 	 	 	1807668	 	2005-07-13 17:21:54.0	Ventana	 	00:48:47:00	 	V2687-01
 	ascend	ink	351.93	2681	 	36.69934	-122.055084	1718070	1.06	2005-07-07 20:52:25.22	Ventana	34.252	04:20:46:04	7.17	V2681-05
 	ascend	Haliscera bigelowi	1012.48	2682	 	36.697723	-122.05815	1722882	0.46	2005-07-08 20:05:01.0	Ventana	34.528	03:57:36:24	3.899	V2682-04
 	transect	Chaetognatha	200.39	2681	 	36.698307	-122.05339	2491198	1.68	2005-07-07 17:12:42.0	Ventana	34.2	00:43:49:29	8.337	V2681-01HD
 	ascend	Appendicularia	257.44	2681	 	36.698734	-122.056786	1719099	1.44	2005-07-07 21:22:40.3	Ventana	34.226	04:50:59:10	7.957	V2681-05
 	transect	Ceriantharia sp. 1	598.63	2680	 	36.781548	-122.22668	1805020	0.36	2005-06-27 18:38:05.0	Ventana	34.377	01:17:10:12	5.6	V2680-02
 	descend	sinker	1055.99	2682	 	36.698334	-122.059135	1722047	0.48	2005-07-08 19:04:01.0	Ventana	34.532	02:57:02:25	3.84	V2682-03
 	transect	Hormiphora	200.46	2681	 	36.69828	-122.05329	2490206	1.7	2005-07-07 17:05:46.0	Ventana	34.198	00:36:53:21	8.361	V2681-01HD
 	descend	ink	840.28	2683	 	36.702843	-122.04845	1757220	0.33	2005-07-11 18:24:09.0	Ventana	34.482	02:08:12:27	4.418	V2683-02
 	ascend	Appendicularia	879.93	2681	 	36.698277	-122.05522	1717332	0.36	2005-07-07 19:51:28.033	Ventana	34.507	03:20:30:19	4.266	V2681-04
 	transect	Phyllospadix	802.21	2674	 	36.752323	-122.20589	1799862	0.36	2005-06-08 17:59:37.0	Ventana	34.49	00:44:09:07	4.332	V2674-01
 	transect	Lyopsetta exilis	200.37	2696	http://search.mbari.org/ARCHIVE/frameGrabs/Ventana/images/2696/01_27_54_02.jpg	36.805107	-122.12792	1813564	1.5	2005-08-01 18:00:01.0	Ventana	34.212	01:27:54:02	8.672	V2696-02
 	cruise	Pennatulacea	999.2	2679	 	36.68986	-122.1656	1824355	0.42	2005-06-16 17:31:50.0	Ventana	34.514	00:03:12:17	4.114	V2679-01
 	cruise	Sebastes rubrivinctus	92.59	2688	 	36.8146	-122.01883	1679474	1.95	2005-07-14 21:10:59.0	Ventana	34.097	04:55:13:01	8.926	V2688-05
 	transect	doliolenetta	901.06	2681	 	36.696266	-122.05231	2498312	0.39	2005-07-07 19:09:51.0	Ventana	34.505	02:39:33:15	4.172	V2681-03HD
 	cruise	Sebastolobus	610.87	2688	 	36.795856	-122.01987	1677361	0.45	2005-07-14 16:37:27.0	Ventana	34.384	00:23:47:14	5.531	V2688-01
 	ascend	Nanomia	264.03	2681	 	36.699524	-122.0545	1718430	1.41	2005-07-07 21:08:50.4	Ventana	34.23	04:37:10:09	7.91	V2681-05
 	transect	Brisaster	999.98	2669	 	36.73172	-122.24393	1734028	0.41	2005-05-25 19:49:41.0	Ventana	34.513	02:11:12:01	4.081	V2669-03
 	transect	Calycophorae	1001.02	2681	 	36.69531	-122.051254	2498598	0.48	2005-07-07 19:24:06.0	Ventana	34.535	02:53:45:17	3.84	V2681-03HD
 	transect	Stomphia	999.74	2669	 	36.73179	-122.24445	1734314	0.4	2005-05-25 19:52:32.0	Ventana	34.508	02:14:02:23	4.08	V2669-03
 	transect	Mesomyaria	1000.11	2669	 	36.732597	-122.25037	1736976	0.41	2005-05-25 20:35:51.0	Ventana	34.51	02:57:20:06	4.068	V2669-03
 	transect	Phyllospadix	198.91	2696	 	36.80376	-122.1249	1813301	1.53	2005-08-01 17:31:56.0	Ventana	34.207	01:00:13:13	8.628	V2696-01
 	transect	Calycophorae	400.73	2681	 	36.697105	-122.05273	2493094	0.79	2005-07-07 17:46:44.0	Ventana	34.278	01:17:08:09	6.661	V2681-02HD
 	transect	Mesomyaria	800.76	2674	 	36.751072	-122.217636	1803516	0.35	2005-06-08 18:56:29.0	Ventana	34.488	01:40:31:20	4.338	V2674-02
 	transect	Hydrolagus colliei	 	2687	http://search.mbari.org/ARCHIVE/frameGrabs/Ventana/images/2687/02_42_01_07.jpg	 	 	1810353	 	2005-07-13 19:16:17.0	Ventana	 	02:42:01:07	 	V2687-03
 	transect	Mesomyaria	998.63	2669	 	36.731064	-122.230354	1651295	0.45	2005-05-25 18:17:24.0	Ventana	34.521	00:39:51:11	3.908	V2669-01
 	transect	Ophiuroidea	999.44	2669	 	36.731213	-122.23584	1684401	0.44	2005-05-25 18:56:05.0	Ventana	34.521	01:18:04:23	3.935	V2669-02
 	transect	Gastropoda sp.2	999.0	2669	 	36.730854	-122.22964	1695049	0.45	2005-05-25 18:11:50.0	Ventana	34.522	00:34:17:09	3.906	V2669-01
 	transect	Ophiuroidea	998.86	2669	 	36.731403	-122.23618	1684664	0.44	2005-05-25 18:58:50.0	Ventana	34.521	01:20:50:05	3.944	V2669-02
 	transect	Mesomyaria	800.29	2674	 	36.75257	-122.20233	1799184	0.34	2005-06-08 17:40:20.0	Ventana	34.481	00:24:53:07	4.424	V2674-01
 	transect	Poeobius meseres	600.58	2681	 	36.69695	-122.05268	2493800	0.3	2005-07-07 18:24:26.0	Ventana	34.388	01:54:48:14	5.477	V2681-02HD
 	ascend	Euphausiacea	258.17	2681	 	36.697838	-122.05522	1719574	 	2005-07-07 21:29:59.0	Ventana	 	05:15:18:25	 	V2681-05
 	transect	Mesomyaria	999.83	2669	 	36.731335	-122.23798	1688318	0.43	2005-05-25 19:14:43.0	Ventana	34.518	01:36:42:10	3.959	V2669-02
 	transect	Poeobius meseres	700.57	2681	 	36.695263	-122.051025	2497952	0.28	2005-07-07 18:47:19.0	Ventana	34.431	02:17:00:18	5.0	V2681-03HD
 	transect	Phyllospadix	999.96	2669	 	36.731922	-122.245674	1735412	0.41	2005-05-25 20:01:27.0	Ventana	34.508	02:22:57:15	4.065	V2669-03
 	transect	Rathbunaster californicus	197.71	2696	 	36.80346	-122.12392	1813218	1.54	2005-08-01 17:21:18.0	Ventana	34.201	00:49:35:25	8.611	V2696-01
 	ascend	Appendicularia	547.02	2682	 	36.69831	-122.06275	1723620	0.4	2005-07-08 21:09:27.0	Ventana	34.352	05:01:07:21	5.926	V2682-06
 	transect	Porifera sp. 1	 	2687	 	 	 	1810976	 	2005-07-13 19:45:39.0	Ventana	 	03:10:40:14	 	V2687-04
 	cruise	Zoarcidae	471.56	2676	 	36.802338	-122.02936	1676263	0.56	2005-06-14 16:32:57.0	Ventana	34.339	00:17:05:21	6.142	V2676-01
 	transect	Mesomyaria	 	2669	http://search.mbari.org/ARCHIVE/frameGrabs/Ventana/images/2669/03_17_38_09.jpg	 	 	1737682	 	2005-05-25 13:56:50.0	Ventana	 	03:17:38:09	 	V2669-04
 	ascend	Calycophorae	547.98	2681	 	36.698948	-122.05425	1717724	0.38	2005-07-07 20:32:21.667	Ventana	34.361	04:01:22:07	5.877	V2681-04
 	transect	Phyllospadix	999.92	2669	 	36.730568	-122.22902	1651032	0.45	2005-05-25 18:06:48.0	Ventana	34.521	00:29:15:21	3.907	V2669-01
 	cruise	Porifera	322.74	2676	 	36.804935	-122.02899	1676655	1.32	2005-06-14 17:20:33.0	Ventana	34.226	01:04:39:02	7.715	V2676-01
 	transect	Ceriantharia sp. 1	599.84	2680	 	36.77824	-122.22344	1804374	0.36	2005-06-27 17:56:02.0	Ventana	34.381	00:36:09:17	5.586	V2680-01
 	descend	Copepoda	379.38	2682	 	36.69844	-122.05995	1720672	0.93	2005-07-08 17:35:12.0	Ventana	34.259	01:28:42:24	6.973	V2682-02
 	transect	Mesomyaria	802.03	2674	 	36.751797	-122.21068	1801034	0.35	2005-06-08 18:22:52.0	Ventana	34.489	01:06:56:28	4.322	V2674-02
 	descend	Copepoda	1036.72	2683	 	36.704834	-122.04931	1757409	0.46	2005-07-11 19:24:17.0	Ventana	34.528	03:04:38:26	3.89	V2683-03
 	transect	Allocentrotus fragilis	 	2687	 	 	 	1811262	 	2005-07-13 20:05:30.0	Ventana	 	03:30:29:27	 	V2687-04
 	transect	Mesomyaria	999.44	2669	 	36.73133	-122.23592	1684461	0.44	2005-05-25 18:57:06.0	Ventana	34.52	01:19:05:22	3.936	V2669-02
 	transect	Phyllospadix	203.6	2696	 	36.805256	-122.12819	1813661	1.48	2005-08-01 18:12:32.0	Ventana	34.212	01:40:23:20	8.609	V2696-02
 	descend	Appendicularia	502.78	2683	 	36.701553	-122.04936	1756814	0.68	2005-07-11 17:27:50.0	Ventana	34.305	01:11:57:10	6.466	V2683-02
 	transect	Mediaster	 	2687	 	 	 	1811857	 	2005-07-13 20:27:15.0	Ventana	 	03:52:13:27	 	V2687-04
 	transect	Psolus squamatus	 	2687	 	 	 	1810556	 	2005-07-13 19:22:19.0	Ventana	 	02:48:03:00	 	V2687-03
 	cruise	Pleuronectiformes	392.02	2676	 	36.804237	-122.02919	1676466	0.86	2005-06-14 16:44:40.0	Ventana	34.281	00:28:48:06	6.902	V2676-01
 	ascend	Chuniphyes	430.88	2681	 	36.69908	-122.05421	1717784	0.71	2005-07-07 20:37:53.4	Ventana	34.284	04:06:53:04	6.59	V2681-04
 	transect	Mesomyaria	999.49	2669	 	36.7307	-122.229454	1651092	0.45	2005-05-25 18:10:01.0	Ventana	34.521	00:32:29:01	3.912	V2669-01
 	transect	Porifera sp. 1	 	2687	 	 	 	1807608	 	2005-07-13 17:17:25.0	Ventana	 	00:44:18:06	 	V2687-01
 	transect	Mediaster	 	2687	 	 	 	1812563	 	2005-07-13 20:45:40.0	Ventana	 	04:10:10:28	 	V2687-05
 	ascend	Copepoda	597.6	2682	 	36.698746	-122.06099	1723491	0.35	2005-07-08 20:50:07.0	Ventana	34.374	04:42:14:09	5.646	V2682-05
 	ascend	Aegina	210.21	2683	 	36.70278	-122.05075	1758115	1.63	2005-07-11 21:28:36.0	Ventana	34.205	05:01:26:22	8.409	V2683-05
 	transect	Psolus squamatus	 	2687	 	 	 	1807059	 	2005-07-13 16:56:50.0	Ventana	 	00:23:44:11	 	V2687-01
 	transect	Mesomyaria	999.46	2669	 	36.730965	-122.23163	1683663	0.45	2005-05-25 18:28:14.0	Ventana	34.522	00:50:40:25	3.913	V2669-01
 	transect	Phyllospadix	1000.13	2669	 	36.73113	-122.24006	1689213	0.41	2005-05-25 19:27:49.0	Ventana	34.51	01:49:46:26	4.063	V2669-02
 	descend	Hastigerinella digitata	294.6	2693	 	36.697777	-122.06112	1758461	1.33	2005-07-25 19:38:16.0	Ventana	34.235	02:17:51:15	7.78	V2693-03
 	transect	Rathbunaster californicus	200.26	2696	 	36.80471	-122.12717	1813504	1.51	2005-08-01 17:54:35.0	Ventana	34.211	01:22:27:23	8.668	V2696-02
 	transect	Psolus squamatus	 	2687	 	 	 	1810007	 	2005-07-13 18:50:21.0	Ventana	 	02:16:07:06	 	V2687-03
 	transect	Mesomyaria	997.53	2669	 	36.73063	-122.227005	1649085	0.45	2005-05-25 17:54:06.0	Ventana	34.521	00:16:34:02	3.909	V2669-01
 	cruise	Osteichthyes	484.23	2688	 	36.80185	-122.01837	1677564	0.78	2005-07-14 17:26:33.0	Ventana	34.29	01:12:17:27	6.643	V2688-02
 	transect	Mediaster	 	2687	 	 	 	1810210	 	2005-07-13 19:09:23.0	Ventana	 	02:35:07:12	 	V2687-03
 	transect	molt	100.49	2681	 	36.699326	-122.05397	2489814	2.14	2005-07-07 16:51:12.0	Ventana	34.067	00:22:19:29	9.15	V2681-01HD
 	cruise	Pleuronectiformes	603.35	2688	 	36.793488	-122.018776	1677264	0.49	2005-07-14 16:23:56.0	Ventana	34.365	00:10:17:13	5.717	V2688-01
 	ascend	Appendicularia	261.6	2681	 	36.699123	-122.05498	1718693	1.43	2005-07-07 21:15:55.167	Ventana	34.231	04:44:14:19	7.965	V2681-05
 	transect	Rathbunaster californicus	204.12	2696	 	36.807602	-122.13123	1813864	1.47	2005-08-01 18:43:55.0	Ventana	34.224	02:10:59:23	8.655	V2696-03
 	transect	Phyllospadix	998.72	2669	 	36.732857	-122.25196	1737262	0.4	2005-05-25 20:44:42.0	Ventana	34.509	03:05:31:02	4.076	V2669-04
 	ascend	Copepoda	838.63	2681	 	36.69867	-122.05604	1717392	0.31	2005-07-07 19:56:34.1	Ventana	34.485	03:25:36:26	4.418	V2681-04
 	transect	Psolus squamatus	 	2687	 	 	 	1808909	 	2005-07-13 17:31:43.0	Ventana	 	00:58:35:18	 	V2687-01
 	cruise	Pleuronectiformes	145.33	2676	 	36.80876	-122.030754	1676858	1.71	2005-06-14 17:54:52.0	Ventana	34.176	01:34:35:25	8.303	V2676-02
 	transect	Chionoecetes tanneri	602.83	2680	 	36.7886	-122.232346	1805961	0.36	2005-06-27 20:01:23.0	Ventana	34.379	02:40:01:10	5.604	V2680-03
 	ascend	Chuniphyes	747.65	2681	 	36.698742	-122.055756	1717535	0.27	2005-07-07 20:14:22.567	Ventana	34.447	03:43:23:22	4.815	V2681-04
 	descend	Appendicularia	418.4	2682	 	36.698208	-122.05979	1720732	0.73	2005-07-08 17:39:54.0	Ventana	34.285	01:33:23:16	6.544	V2682-02
 	ascend	LRJ Complex	764.12	2682	 	36.698742	-122.05902	1723288	0.3	2005-07-08 20:27:06.0	Ventana	34.443	04:19:16:03	4.805	V2682-05
 	ascend	Siphonophora	503.46	2682	 	36.69835	-122.06322	1723680	0.49	2005-07-08 21:13:40.0	Ventana	34.334	05:05:22:02	6.15	V2682-06
 	transect	Porifera sp. 1	 	2687	 	 	 	1810916	 	2005-07-13 19:42:38.0	Ventana	 	03:07:39:27	 	V2687-04
 	transect	Mesomyaria	1000.15	2669	 	36.731075	-122.23872	1689056	0.43	2005-05-25 19:19:30.0	Ventana	34.514	01:41:28:21	3.969	V2669-02
 	transect	Ophiuroidea	999.73	2669	 	36.73052	-122.22893	1650935	0.45	2005-05-25 18:06:01.0	Ventana	34.522	00:28:28:29	3.906	V2669-01
 	transect	Hormiphora	200.39	2681	 	36.69828	-122.05331	2490912	1.7	2005-07-07 17:09:43.0	Ventana	34.189	00:40:51:23	8.321	V2681-01HD
 	transect	Ophiuroidea	999.04	2669	 	36.73139	-122.23639	1684761	0.44	2005-05-25 19:00:25.0	Ventana	34.518	01:22:24:16	3.944	V2669-02
 	ascend	Chuniphyes	963.86	2681	 	36.69723	-122.05365	1716829	0.43	2005-07-07 19:39:09.133	Ventana	34.519	03:08:12:29	4.022	V2681-04
 	ascend	sinker	1159.5	2683	 	36.707886	-122.0488	1757755	0.7	2005-07-11 20:34:00.0	Ventana	34.569	04:08:21:15	3.405	V2683-04
 	descend	Nanomia	173.7	2682	 	36.699886	-122.06075	1719934	2.18	2005-07-08 16:19:46.0	Ventana	34.13	00:13:51:09	8.289	V2682-01
 	transect	Ophiuroidea	998.93	2669	 	36.731403	-122.23613	1684604	0.44	2005-05-25 18:58:30.0	Ventana	34.521	01:20:30:01	3.943	V2669-02
 	descend	Aegina	552.6	2683	 	36.701717	-122.04916	1756957	0.45	2005-07-11 17:44:41.0	Ventana	34.339	01:28:47:22	6.065	V2683-02
 	cruise	Chionoecetes tanneri	1231.93	2683	 	36.705788	-122.04786	1757552	0.75	2005-07-11 19:52:43.0	Ventana	34.577	03:27:07:04	3.289	V2683-04
 	transect	chuniphyes	600.54	2681	 	36.697796	-122.0537	2493860	0.3	2005-07-07 18:28:11.0	Ventana	34.387	01:58:32:18	5.478	V2681-02HD
 	transect	Mesomyaria	999.7	2669	 	36.731895	-122.24604	1735615	0.41	2005-05-25 20:03:50.0	Ventana	34.51	02:25:19:21	4.06	V2669-03
 	ascend	Nanomia	367.44	2693	 	36.694607	-122.06102	1758853	1.24	2005-07-25 21:00:27.0	Ventana	34.234	03:24:59:05	7.344	V2693-04
 	transect	Mesomyaria	1000.13	2669	 	36.73253	-122.25019	1736916	0.41	2005-05-25 20:34:18.0	Ventana	34.51	02:55:47:05	4.068	V2669-03
 	transect	Neptunea amianta	599.35	2680	 	36.77778	-122.22281	1804314	0.36	2005-06-27 17:50:21.0	Ventana	34.379	00:30:28:05	5.584	V2680-01
 	cruise	Pannychia moseleyi	452.01	2676	 	36.802914	-122.02928	1676323	0.62	2005-06-14 16:36:38.0	Ventana	34.321	00:20:46:17	6.337	V2676-01
 	transect	Mediaster	 	2687	 	 	 	1811714	 	2005-07-13 20:22:16.0	Ventana	 	03:47:14:17	 	V2687-04
 	transect	molt	100.51	2681	 	36.69983	-122.05429	2489611	2.13	2005-07-07 16:46:10.0	Ventana	34.068	00:17:19:29	9.146	V2681-01HD
 	descend	Nanomia	178.9	2693	 	36.6961	-122.05816	1758258	1.92	2005-07-25 18:09:51.0	Ventana	34.155	00:50:21:10	8.859	V2693-01
 	transect	Psolus squamatus	399.84	2687	http://search.mbari.org/ARCHIVE/frameGrabs/Ventana/images/2687/01_02_17_21.jpg	36.788036	-122.12153	1809112	1.13	2005-07-13 17:35:55.0	Ventana	34.244	01:02:17:21	7.27	V2687-02
 	transect	Mediaster	 	2687	 	 	 	1810413	 	2005-07-13 19:17:28.0	Ventana	 	02:43:12:10	 	V2687-03
 	cruise	Rathbunaster californicus	104.17	2688	 	36.8151	-122.01585	1679271	1.97	2005-07-14 19:40:39.0	Ventana	34.088	03:25:26:02	8.9	V2688-04
 	ascend	Appendicularia	333.19	2681	 	36.699608	-122.055214	1718130	1.17	2005-07-07 20:55:25.8	Ventana	34.241	04:23:46:16	7.313	V2681-05
 	descend	sinker	261.79	2683	 	36.70091	-122.050446	1756454	1.51	2005-07-11 16:51:21.0	Ventana	34.218	00:39:01:04	7.971	V2683-01
 	transect	Mediaster	 	2687	 	 	 	1812766	 	2005-07-13 20:56:37.0	Ventana	 	04:21:07:12	 	V2687-05
 	cruise	Sebastolobus	558.3	2688	 	36.797363	-122.01998	1677421	0.52	2005-07-14 16:57:39.0	Ventana	34.358	00:43:58:01	5.94	V2688-01
 	transect	Mediaster	 	2687	 	 	 	1812217	 	2005-07-13 20:29:21.0	Ventana	 	03:54:19:11	 	V2687-04
 	transect	Phyllospadix	799.29	2674	 	36.752514	-122.20426	1799530	0.35	2005-06-08 17:50:38.0	Ventana	34.484	00:35:10:28	4.386	V2674-01
 	descend	Praya	143.79	2683	 	36.700577	-122.05155	1756251	1.71	2005-07-11 16:20:01.0	Ventana	34.158	00:07:44:08	8.956	V2683-01
 	transect	Porifera sp. 1	399.85	2687	 	36.788124	-122.12167	1809269	1.13	2005-07-13 17:37:56.0	Ventana	34.243	01:04:18:01	7.254	V2687-02
 	transect	Phyllospadix	 	2687	 	 	 	1812420	 	2005-07-13 20:37:45.0	Ventana	 	04:02:42:27	 	V2687-04
 	cruise	rock outcrop	353.01	2688	http://search.mbari.org/ARCHIVE/frameGrabs/Ventana/images/2688/01_42_21_10.jpg	36.807636	-122.01975	20005152	1.17	2005-07-14 17:56:36.0	Ventana	34.236	01:42:21:10	7.433	V2688-02
 	ascend	Bathochordaeus	197.87	2693	 	36.690735	-122.06275	1759199	1.8	2005-07-25 21:26:12.0	Ventana	34.184	03:50:44:06	8.893	V2693-04
 	descend	Chuniphyes	807.73	2683	 	36.702667	-122.04875	1757160	0.36	2005-07-11 18:01:50.0	Ventana	34.466	01:45:54:19	4.552	V2683-02
 	transect	Mesomyaria	999.58	2669	 	36.731056	-122.23507	1684258	0.45	2005-05-25 18:50:47.0	Ventana	34.521	01:12:47:16	3.922	V2669-02
 	transect	Hormiphora	200.37	2681	 	36.698315	-122.05341	2491258	1.66	2005-07-07 17:13:12.0	Ventana	34.2	00:44:19:14	8.341	V2681-01HD
 	descend	Appendicularia	304.28	2682	 	36.699184	-122.060555	1720137	1.17	2005-07-08 16:55:58.0	Ventana	34.236	00:50:00:12	7.317	V2682-01
 	descend	Appendicularia	383.41	2683	 	36.701458	-122.04979	1756611	1.02	2005-07-11 16:58:23.0	Ventana	34.253	00:46:03:10	6.983	V2683-01
 	transect	Rathbunaster californicus	199.47	2696	 	36.80403	-122.12567	1813361	1.52	2005-08-01 17:39:30.0	Ventana	34.21	01:07:24:08	8.664	V2696-02
 	ascend	Cydippida	258.17	2681	 	36.697838	-122.05522	1719431	 	2005-07-07 21:29:59.0	Ventana	 	05:04:36:25	 	V2681-05
 	transect	Phyllospadix	800.36	2674	 	36.752533	-122.203415	1799327	0.35	2005-06-08 17:45:53.0	Ventana	34.483	00:30:26:04	4.371	V2674-01
 	transect	Mesomyaria	1000.07	2669	 	36.731243	-122.23833	1688853	0.43	2005-05-25 19:17:21.0	Ventana	34.519	01:39:19:29	3.975	V2669-02
 	transect	Psolus squamatus	 	2687	 	 	 	1811119	 	2005-07-13 19:54:03.0	Ventana	 	03:19:03:28	 	V2687-04
 	descend	Appendicularia	858.83	2681	 	36.69696	-122.0532	1716483	0.33	2005-07-07 19:04:45.967	Ventana	34.49	02:34:28:07	4.323	V2681-03
 	transect	Mesomyaria	799.98	2674	 	36.75175	-122.21208	1801177	0.35	2005-06-08 18:28:31.0	Ventana	34.49	01:12:35:26	4.337	V2674-02
 	transect	Calliostoma platinum	 	2687	http://search.mbari.org/ARCHIVE/frameGrabs/Ventana/images/2687/03_40_03_15.jpg	 	 	1811511	 	2005-07-13 20:15:04.0	Ventana	 	03:40:03:15	 	V2687-04
 	descend	Appendicularia	715.16	2683	 	36.70218	-122.048935	1757100	0.3	2005-07-11 17:55:24.0	Ventana	34.428	01:39:28:26	4.974	V2683-02
 	cruise	Parastichopus	147.82	2688	http://search.mbari.org/ARCHIVE/frameGrabs/Ventana/images/2688/02_23_56_18.jpg	36.811028	-122.022064	20005212	1.95	2005-07-14 18:38:42.0	Ventana	34.098	02:23:56:18	8.919	V2688-03
 	ascend	Chaetognatha	336.85	2693	 	36.692814	-122.06154	1758973	1.26	2005-07-25 21:12:56.0	Ventana	34.236	03:37:30:02	7.459	V2693-04
 	transect	Phyllospadix	199.43	2696	 	36.80422	-122.126	1813398	1.53	2005-08-01 17:42:52.0	Ventana	34.205	01:10:46:05	8.659	V2696-02
 	descend	Appendicularia	602.18	2681	 	36.69565	-122.051125	1715648	0.3	2005-07-07 18:09:00.233	Ventana	34.39	01:39:22:04	5.473	V2681-02
 	ascend	Nanomia	258.17	2681	 	36.697838	-122.05522	1719348	 	2005-07-07 21:29:59.0	Ventana	 	05:01:47:09	 	V2681-05
 	stationary	Appendicularia	504.21	2695	 	36.784626	-122.2005	1824498	0.68	2005-07-28 19:11:35.0	Ventana	34.293	04:17:49:03	6.312	V2695-02
 	transect	Pennatulacea sp.1	600.76	2680	 	36.776924	-122.222176	1804171	0.36	2005-06-27 17:39:55.0	Ventana	34.379	00:20:03:02	5.578	V2680-01
 	transect	Phyllospadix	801.04	2674	 	36.75251	-122.1994	1773773	0.29	2005-06-08 17:23:06.0	Ventana	34.46	00:07:40:23	4.658	V2674-01
 	transect	Mediaster	 	2687	 	 	 	1807119	 	2005-07-13 17:00:26.0	Ventana	 	00:27:20:08	 	V2687-01
 	transect	Hormiphora	200.43	2681	 	36.69828	-122.05329	2490326	1.7	2005-07-07 17:06:56.0	Ventana	34.198	00:38:04:17	8.347	V2681-01HD
 	cruise	Glyptocephalus zachirus	310.27	2688	 	36.808605	-122.02029	1677850	1.34	2005-07-14 18:12:30.0	Ventana	34.218	01:58:12:04	7.79	V2688-02
 	transect	Mesomyaria	998.46	2669	 	36.73113	-122.23072	1683423	0.45	2005-05-25 18:20:27.0	Ventana	34.523	00:42:54:06	3.914	V2669-01
 	descend	Nanomia	170.27	2693	 	36.696247	-122.05781	1758221	1.96	2005-07-25 17:58:46.0	Ventana	34.138	00:39:16:15	8.912	V2693-01
 	descend	Euphausiacea	186.88	2683	 	36.70104	-122.0511	1756348	1.69	2005-07-11 16:42:28.0	Ventana	34.168	00:30:09:08	8.531	V2683-01
 	ascend	Appendicularia	285.74	2681	 	36.699745	-122.05518	1718227	1.36	2005-07-07 21:00:40.867	Ventana	34.232	04:29:00:23	7.731	V2681-05
 	descend	Copepoda	284.95	2682	 	36.699387	-122.060684	1720100	1.25	2005-07-08 16:49:45.0	Ventana	34.233	00:43:48:07	7.53	V2682-01
 	transect	Mesomyaria	800.24	2674	 	36.751263	-122.21591	1803373	0.35	2005-06-08 18:48:55.0	Ventana	34.489	01:32:58:21	4.36	V2674-02
 	transect	Phyllospadix	1000.35	2669	 	36.731544	-122.24271	1694523	0.4	2005-05-25 19:42:56.0	Ventana	34.507	02:04:53:18	4.093	V2669-02
 	transect	Chaetognatha	400.81	2681	 	36.69603	-122.05147	2492951	0.79	2005-07-07 17:42:05.0	Ventana	34.277	01:12:29:20	6.661	V2681-02HD
 	transect	Mediaster	 	2687	 	 	 	1810450	 	2005-07-13 19:18:24.0	Ventana	 	02:44:08:05	 	V2687-03
 	transect	Mesomyaria	998.84	2669	 	36.730953	-122.229996	1651198	0.45	2005-05-25 18:14:04.0	Ventana	34.521	00:36:31:20	3.909	V2669-01
 	transect	Mediaster	 	2687	 	 	 	1812323	 	2005-07-13 20:32:07.0	Ventana	 	03:57:05:08	 	V2687-04
 	transect	Solmissus	200.38	2681	 	36.69829	-122.053345	2491078	1.7	2005-07-07 17:11:34.0	Ventana	34.196	00:42:42:16	8.332	V2681-01HD
 	ascend	Apolemia	221.13	2694	 	36.784687	-122.20043	1676775	1.47	2005-07-27 21:10:34.0	Ventana	34.239	03:41:54:04	8.995	V2694-04
 	transect	lobata	600.6	2681	 	36.696117	-122.05169	2493703	0.3	2005-07-07 18:20:37.0	Ventana	34.388	01:50:58:18	5.49	V2681-02HD
 	transect	Phyllospadix	800.07	2674	 	36.752106	-122.20868	1800794	0.35	2005-06-08 18:12:53.0	Ventana	34.49	00:57:24:11	4.329	V2674-01
 	transect	Mediaster	 	2687	 	 	 	1808623	 	2005-07-13 17:25:37.0	Ventana	 	00:52:29:28	 	V2687-01
 	ascend	Appendicularia	261.09	2681	 	36.698853	-122.057	1718979	1.42	2005-07-07 21:20:22.1	Ventana	34.231	04:48:40:23	7.955	V2681-05
 	transect	Sebastolobus altivelis	798.81	2674	 	36.75174	-122.21269	1801223	0.35	2005-06-08 18:30:26.0	Ventana	34.488	01:14:30:23	4.333	V2674-02
 	transect	Mesomyaria	1000.35	2669	 	36.731216	-122.24112	1689379	0.41	2005-05-25 19:34:22.0	Ventana	34.512	01:56:20:00	4.058	V2669-02
 	descend	ink	485.56	2683	 	36.70152	-122.04935	1756777	0.72	2005-07-11 17:23:16.0	Ventana	34.297	01:07:24:05	6.546	V2683-02
 	transect	Calycophorae	500.59	2681	 	36.697914	-122.05366	2493274	0.44	2005-07-07 17:55:09.0	Ventana	34.346	01:25:31:14	6.021	V2681-02HD
 	descend	Poeobius meseres	1105.99	2683	 	36.705116	-122.048904	1757469	0.58	2005-07-11 19:30:00.0	Ventana	34.543	03:10:21:26	3.671	V2683-03
 	transect	Mediaster	 	2687	 	 	 	1811202	 	2005-07-13 20:01:36.0	Ventana	 	03:26:36:12	 	V2687-04
 	transect	Phyllospadix	799.36	2674	 	36.75271	-122.20074	1774142	0.29	2005-06-08 17:32:27.0	Ventana	34.454	00:17:01:18	4.638	V2674-01
 	transect	Mesomyaria	801.56	2674	 	36.75217	-122.20782	1800102	0.35	2005-06-08 18:08:34.0	Ventana	34.489	00:53:06:03	4.326	V2674-01
 	transect	Nanomia bijuga	200.44	2681	 	36.69828	-122.05329	2490649	1.73	2005-07-07 17:08:01.0	Ventana	34.193	00:39:08:08	8.328	V2681-01HD
 	transect	Microstomus pacificus	 	2687	 	 	 	1808946	 	2005-07-13 17:32:30.0	Ventana	 	00:59:22:15	 	V2687-01
 	ascend	Leuroglossus stilbius	601.07	2682	 	36.698853	-122.06005	1723431	0.34	2005-07-08 20:39:50.0	Ventana	34.379	04:31:58:08	5.573	V2682-05
 	transect	Ceriantharia sp. 2	998.93	2669	 	36.73112	-122.23476	1684175	0.45	2005-05-25 18:47:44.0	Ventana	34.522	01:09:44:13	3.916	V2669-02
 	descend	Appendicularia	738.44	2682	 	36.698444	-122.059654	1721604	0.29	2005-07-08 18:29:08.0	Ventana	34.447	02:22:13:11	4.846	V2682-03
 	transect	Chaetognatha	901.0	2681	 	36.695007	-122.05066	2498478	0.39	2005-07-07 19:16:05.0	Ventana	34.506	02:45:45:21	4.162	V2681-03HD
 	transect	Sebastolobus altivelis	599.31	2680	 	36.779713	-122.22489	1804554	0.36	2005-06-27 18:14:41.0	Ventana	34.375	00:54:47:05	5.619	V2680-01
 	transect	Mesomyaria	800.38	2674	 	36.752037	-122.209	1800854	0.35	2005-06-08 18:14:37.0	Ventana	34.49	00:59:08:17	4.341	V2674-01
 	cruise	shell hash	104.79	2688	 	36.815712	-122.01493	1679294	1.98	2005-07-14 19:45:18.78	Ventana	34.087	03:30:05:25	8.898	V2688-04
 	transect	Mesomyaria	999.6	2669	 	36.731	-122.232445	1683746	0.45	2005-05-25 18:33:07.0	Ventana	34.522	00:55:33:10	3.91	V2669-01
 	cruise	Pannychia moseleyi	442.76	2676	 	36.80316	-122.02924	1676346	0.64	2005-06-14 16:39:10.0	Ventana	34.318	00:23:18:22	6.4	V2676-01
 	transect	Sebastolobus altivelis	800.37	2674	 	36.751743	-122.21151	1801117	0.35	2005-06-08 18:26:03.0	Ventana	34.483	01:10:08:01	4.358	V2674-02
 	transect	Ophiuroidea	998.97	2669	 	36.731377	-122.23608	1684558	0.44	2005-05-25 18:58:08.0	Ventana	34.522	01:20:07:20	3.94	V2669-02
 	transect	Nanomia bijuga	500.61	2681	 	36.69647	-122.05204	2493597	0.43	2005-07-07 18:01:15.0	Ventana	34.348	01:31:36:28	6.01	V2681-02HD
 	transect	Stomphia	1000.28	2669	 	36.731747	-122.24489	1734471	0.4	2005-05-25 19:55:39.0	Ventana	34.508	02:17:09:01	4.072	V2669-03
 	transect	Parastichopus leukothele	197.44	2696	 	36.802654	-122.12169	1813015	1.53	2005-08-01 16:53:40.0	Ventana	34.205	00:21:59:20	8.568	V2696-01
 	transect	Mesomyaria	1000.22	2669	 	36.73091	-122.232704	1683806	0.45	2005-05-25 18:35:04.0	Ventana	34.52	00:57:30:03	3.911	V2669-01
 	cruise	Pleuronectiformes	526.5	2688	 	36.79913	-122.01926	1677467	0.64	2005-07-14 17:04:19.0	Ventana	34.319	00:50:37:09	6.338	V2688-01
 	transect	Mediaster	 	2687	 	 	 	1807502	 	2005-07-13 17:12:48.0	Ventana	 	00:39:41:08	 	V2687-01
 	ascend	Doliolenetta	900.99	2681	 	36.698	-122.05477	1717152	0.37	2005-07-07 19:48:44.267	Ventana	34.503	03:17:47:01	4.202	V2681-04
 	descend	Appendicularia	513.86	2682	 	36.69859	-122.05978	1720852	0.4	2005-07-08 18:01:00.0	Ventana	34.354	01:54:29:03	5.909	V2682-02
 	transect	Phyllospadix	203.58	2696	 	36.806473	-122.13004	1813767	1.48	2005-08-01 18:28:22.0	Ventana	34.213	01:56:13:05	8.628	V2696-02
 	ascend	Nanomia	258.17	2681	 	36.697838	-122.05522	1719288	 	2005-07-07 21:29:59.0	Ventana	 	04:59:07:16	 	V2681-05
 	stationary	Appendicularia	501.7	2695	 	36.784573	-122.200455	1824438	0.87	2005-07-28 17:25:07.0	Ventana	34.266	00:31:28:05	6.676	V2695-01
 	transect	Chionoecetes tanneri	999.64	2669	 	36.73139	-122.23753	1687506	0.44	2005-05-25 19:11:10.0	Ventana	34.52	01:33:09:04	3.942	V2669-02
 	transect	Stomphia	 	2687	 	 	 	1808886	 	2005-07-13 17:31:17.0	Ventana	 	00:58:09:17	 	V2687-01
 	transect	Ophiuroidea	998.76	2669	 	36.73119	-122.234344	1684115	0.45	2005-05-25 18:44:13.0	Ventana	34.521	01:06:13:18	3.917	V2669-02
 	transect	Neptunea amianta	602.5	2680	 	36.78788	-122.23203	1805938	0.36	2005-06-27 19:54:20.0	Ventana	34.378	02:32:58:14	5.59	V2680-03
 	transect	Pennatulacea sp.1	602.46	2680	 	36.7902	-122.23268	1806750	0.35	2005-06-27 20:17:21.0	Ventana	34.38	02:55:57:28	5.586	V2680-03
 	transect	Phyllospadix	801.55	2674	 	36.752266	-122.20724	1800042	0.37	2005-06-08 18:06:03.0	Ventana	34.495	00:50:35:05	4.36	V2674-01
 	transect	Brisaster	 	2687	 	 	 	1810713	 	2005-07-13 19:29:11.0	Ventana	 	02:54:54:09	 	V2687-03
 	ascend	Appendicularia	312.0	2681	 	36.69966	-122.05527	1718167	1.26	2005-07-07 20:58:09.333	Ventana	34.235	04:26:29:27	7.513	V2681-05
 	transect	Sergestes similis	300.43	2681	 	36.696575	-122.05217	2492522	1.23	2005-07-07 17:26:22.0	Ventana	34.233	00:57:28:28	7.398	V2681-01HD
 	transect	Mediaster	 	2687	 	 	 	1812646	 	2005-07-13 20:49:36.0	Ventana	 	04:14:06:19	 	V2687-05
 	transect	molt	100.56	2681	 	36.69983	-122.05429	2489574	2.13	2005-07-07 16:45:16.0	Ventana	34.068	00:16:26:09	9.15	V2681-01HD
 	transect	Caridea sp.1	598.57	2680	 	36.780804	-122.22579	1804817	0.35	2005-06-27 18:27:39.0	Ventana	34.381	01:06:45:25	5.571	V2680-02
 	transect	Mediaster	 	2687	 	 	 	1810819	 	2005-07-13 19:35:27.0	Ventana	 	03:01:10:15	 	V2687-03
 	ascend	Aegina	1049.3	2682	 	36.69797	-122.05762	1722785	0.49	2005-07-08 20:02:08.0	Ventana	34.536	03:54:44:12	3.824	V2682-04
 	ascend	Appendicularia	732.82	2683	 	36.706112	-122.04861	1757852	0.31	2005-07-11 21:04:17.0	Ventana	34.455	04:37:10:03	4.722	V2683-05
 	transect	Nanomia bijuga	200.45	2681	 	36.69828	-122.05329	2490063	1.7	2005-07-07 17:04:28.0	Ventana	34.197	00:35:36:08	8.362	V2681-01HD
 	transect	Sebastolobus altivelis	798.38	2674	 	36.75166	-122.2135	1801283	0.35	2005-06-08 18:35:05.0	Ventana	34.487	01:19:09:21	4.353	V2674-02
 	cruise	Macrouridae	1015.86	2689	http://search.mbari.org/ARCHIVE/frameGrabs/Ventana/images/2689/00_11_01_22.jpg	36.771572	-122.08293	1669638	0.5	2005-07-18 16:47:59.0	Ventana	34.532	00:11:01:22	3.851	V2689-01
 	descend	Aegina	1193.44	2682	 	36.698418	-122.05837	1722236	0.68	2005-07-08 19:32:01.0	Ventana	34.573	03:24:38:28	3.375	V2682-04
 	transect	Mesomyaria	1000.18	2669	 	36.731693	-122.24374	1733885	0.41	2005-05-25 19:48:27.0	Ventana	34.507	02:09:57:23	4.068	V2669-03
 	transect	Caridea sp.1	598.25	2680	 	36.781387	-122.22643	1804983	0.36	2005-06-27 18:35:52.0	Ventana	34.377	01:14:58:11	5.601	V2680-02
 	transect	Chionoecetes tanneri	999.97	2669	 	36.732594	-122.250824	1737036	0.4	2005-05-25 20:38:02.0	Ventana	34.51	02:59:29:12	4.076	V2669-03
 	transect	Mediaster	 	2687	 	 	 	1807562	 	2005-07-13 17:15:31.0	Ventana	 	00:42:23:25	 	V2687-01
 	transect	cydippida	100.57	2681	 	36.69983	-122.05429	2489514	2.12	2005-07-07 16:43:25.0	Ventana	34.068	00:14:35:20	9.147	V2681-01HD
 	transect	ink	800.88	2681	 	36.695923	-122.051865	2498215	0.31	2005-07-07 18:58:04.0	Ventana	34.476	02:27:45:12	4.495	V2681-03HD
 	ascend	Bathocyroe	604.89	2682	 	36.69862	-122.06173	1723537	0.33	2005-07-08 20:57:47.0	Ventana	34.377	04:49:53:27	5.617	V2682-05
 	transect	Ophiuroidea	1000.88	2669	 	36.732285	-122.249245	1736284	0.4	2005-05-25 20:27:27.0	Ventana	34.508	02:48:55:16	4.077	V2669-03
 	ascend	Lobata	 	2683	 	 	 	1758161	 	2005-07-11 14:36:46.0	Ventana	 	05:09:37:12	 	V2683-05
 	transect	Euphausia	200.48	2681	 	36.69828	-122.05329	2490589	1.72	2005-07-07 17:07:43.0	Ventana	34.195	00:38:50:02	8.334	V2681-01HD
 	transect	Mesomyaria	802.19	2674	 	36.752254	-122.20682	1799982	0.37	2005-06-08 18:03:56.0	Ventana	34.49	00:48:28:16	4.326	V2674-01
 	transect	Ceriantharia sp. 1	602.13	2680	 	36.790813	-122.23284	1806810	0.36	2005-06-27 20:23:07.0	Ventana	34.379	03:01:43:18	5.587	V2680-03
 	transect	Psolus squamatus	 	2687	 	 	 	1808683	 	2005-07-13 17:27:04.0	Ventana	 	00:53:57:04	 	V2687-01
 	cruise	benthos	97.83	2675	http://search.mbari.org/ARCHIVE/frameGrabs/Ventana/images/2675/02_07_17_06.jpg	36.750988	-122.22278	1803862	1.81	2005-06-08 22:16:59.0	Ventana	34.104	02:07:17:06	8.453	V2675-01
 	starttransect	object	197.96	2696	 	36.80266	-122.12169	1812909	1.54	2005-08-01 16:47:15.0	Ventana	34.204	00:15:35:08	8.57	V2696-01
 	transect	Phyllospadix	801.02	2674	 	36.752514	-122.20266	1799230	0.35	2005-06-08 17:41:59.0	Ventana	34.487	00:26:32:17	4.377	V2674-01
 	transect	Phyllospadix	800.72	2674	 	36.75256	-122.20169	1799087	0.34	2005-06-08 17:36:56.0	Ventana	34.479	00:21:29:21	4.445	V2674-01
 	ascend	Hastigerinella digitata	342.99	2693	 	36.69369	-122.06122	1758913	1.25	2005-07-25 21:07:25.0	Ventana	34.237	03:31:57:05	7.404	V2693-04
 	transect	Phyllospadix	199.96	2696	 	36.80452	-122.12666	1813458	1.51	2005-08-01 17:49:40.0	Ventana	34.212	01:17:32:29	8.667	V2696-02
 	transect	Mesomyaria	999.83	2669	 	36.73174	-122.24399	1734088	0.4	2005-05-25 19:50:18.2	Ventana	34.509	02:11:49:06	4.069	V2669-03
 	transect	Mesomyaria	800.78	2674	 	36.751133	-122.21721	1803479	0.35	2005-06-08 18:54:38.0	Ventana	34.491	01:38:41:04	4.331	V2674-02
 	transect	Allocentrotus fragilis	399.88	2687	 	36.78811	-122.12161	1809209	1.13	2005-07-13 17:37:17.0	Ventana	34.243	01:03:39:03	7.262	V2687-02
 	descend	Appendicularia	272.67	2682	 	36.69977	-122.06078	1720040	1.34	2005-07-08 16:33:32.0	Ventana	34.227	00:27:36:08	7.714	V2682-01
 	descend	Hastigerinella digitata	315.14	2683	 	36.701134	-122.05013	1756514	1.23	2005-07-11 16:54:32.0	Ventana	34.244	00:42:11:09	7.58	V2683-01
 	transect	Mediaster	 	2687	 	 	 	1810879	 	2005-07-13 19:38:53.0	Ventana	 	03:04:35:23	 	V2687-03
 	transect	Sergestes similis	400.78	2681	 	36.696465	-122.05197	2493011	0.79	2005-07-07 17:43:57.0	Ventana	34.277	01:14:21:16	6.641	V2681-02HD
 	transect	Phyllospadix	801.21	2674	 	36.75251	-122.200134	1774036	0.29	2005-06-08 17:27:36.0	Ventana	34.466	00:12:10:22	4.639	V2674-01
 	transect	Phyllospadix	198.49	2696	 	36.80369	-122.124664	1813278	1.53	2005-08-01 17:29:54.0	Ventana	34.201	00:58:11:10	8.625	V2696-01
 	transect	Stomphia	 	2669	 	 	 	1737585	 	2005-05-25 13:52:22.0	Ventana	 	03:13:10:10	 	V2669-04
 	transect	Poeobius meseres	700.63	2681	 	36.696053	-122.05193	2497786	0.29	2005-07-07 18:43:41.0	Ventana	34.435	02:13:23:17	4.945	V2681-03HD
 	descend	Solmissus	217.49	2693	 	36.69613	-122.0582	1758341	1.69	2005-07-25 18:27:49.0	Ventana	34.196	01:07:53:20	8.607	V2693-02
 	transect	Euplexaura	 	2687	 	 	 	1810330	 	2005-07-13 19:15:49.0	Ventana	 	02:41:33:12	 	V2687-03
 	transect	molt	50.46	2681	 	36.699684	-122.0542	2485445	 	2005-07-07 16:32:42.0	Ventana	 	00:03:53:01	 	V2681-01HD
 	transect	Sebastes aleutianus	203.4	2696	http://search.mbari.org/ARCHIVE/frameGrabs/Ventana/images/2696/02_08_06_21.jpg	36.807377	-122.13104	1813827	1.47	2005-08-01 18:41:01.0	Ventana	34.219	02:08:06:21	8.625	V2696-03
 	transect	molt	100.49	2681	 	36.69875	-122.0536	2489897	2.14	2005-07-07 16:52:38.0	Ventana	34.067	00:23:46:28	9.142	V2681-01HD
 	stationary	sediment	 	2687	http://search.mbari.org/ARCHIVE/frameGrabs/Ventana/images/2687/00_11_36_24.jpg	 	 	20005046	 	2005-07-13 16:44:43.0	Ventana	 	00:11:36:24	 	V2687-01
 	transect	Mesomyaria	1000.26	2669	 	36.73141	-122.24179	1689868	0.4	2005-05-25 19:38:25.0	Ventana	34.509	02:00:22:20	4.076	V2669-02
 	descend	Appendicularia	902.47	2683	 	36.703304	-122.04833	1757266	0.37	2005-07-11 18:32:35.0	Ventana	34.494	02:13:00:14	4.239	V2683-03
 	transect	Porifera sp. 1	 	2687	 	 	 	1810127	 	2005-07-13 18:58:42.0	Ventana	 	02:24:27:21	 	V2687-03
 	descend	Nanomia bijuga	221.87	2685	 	36.793556	-121.88297	1669758	1.66	2005-07-12 20:14:39.0	Ventana	34.148	00:12:14:09	8.322	V2685-01
 	descend	Myctophidae	649.16	2682	 	36.698643	-122.05992	1721341	0.28	2005-07-08 18:10:09.0	Ventana	34.408	02:03:14:17	5.244	V2682-03
 	transect	Psolus squamatus	 	2687	 	 	 	1807705	 	2005-07-13 17:23:38.0	Ventana	 	00:50:30:29	 	V2687-01
 	transect	Mediaster	 	2687	 	 	 	1812526	 	2005-07-13 20:44:01.0	Ventana	 	04:08:31:20	 	V2687-05
 	cruise	Pleuronectiformes	103.51	2676	 	36.806606	-122.041176	1677158	1.92	2005-06-14 19:15:15.0	Ventana	34.158	02:53:59:27	8.425	V2676-03
 	ascend	Mysidae	1100.46	2683	 	36.707836	-122.049065	1757792	0.58	2005-07-11 20:43:22.0	Ventana	34.547	04:17:43:01	3.665	V2683-04
 	ascend	Chaetognatha	261.95	2693	 	36.691383	-122.06231	1759093	1.45	2005-07-25 21:21:19.0	Ventana	34.246	03:45:51:16	8.37	V2693-04
 	transect	Euplexaura	399.67	2687	 	36.789246	-122.12455	1809578	1.17	2005-07-13 18:20:50.0	Ventana	34.239	01:47:09:19	7.344	V2687-02
 	transect	Mediaster	 	2687	 	 	 	1812706	 	2005-07-13 20:53:33.0	Ventana	 	04:18:03:07	 	V2687-05
 	ascend	Nanomia	334.56	2682	 	36.69734	-122.06169	1723740	1.09	2005-07-08 21:25:17.0	Ventana	34.248	05:16:58:23	7.24	V2682-06
 	transect	Ophiuroidea	999.96	2669	 	36.7311	-122.23919	1689116	0.43	2005-05-25 19:22:23.0	Ventana	34.517	01:44:21:22	3.976	V2669-02
 	ascend	Leuroglossus stilbius	449.15	2683	 	36.704243	-122.050575	1758018	0.76	2005-07-11 21:18:17.0	Ventana	34.287	04:51:08:20	6.648	V2683-05
 	transect	Mediaster	 	2687	 	 	 	1810653	 	2005-07-13 19:27:07.0	Ventana	 	02:52:50:23	 	V2687-03
 	transect	Psolus squamatus	399.89	2687	 	36.788155	-122.12188	1809375	1.16	2005-07-13 17:40:30.0	Ventana	34.239	01:06:52:04	7.323	V2687-02
 	transect	Chionoecetes tanneri	999.74	2669	 	36.731403	-122.237045	1687446	0.44	2005-05-25 19:07:00.0	Ventana	34.52	01:28:59:14	3.943	V2669-02
 	transect	Lycenchelys camchatica	801.02	2674	 	36.752533	-122.20141	1774202	0.35	2005-06-08 17:35:36.0	Ventana	34.485	00:20:09:24	4.379	V2674-01
 	transect	Psolus squamatus	 	2687	 	 	 	1808826	 	2005-07-13 17:30:15.0	Ventana	 	00:57:08:00	 	V2687-01
 	transect	Lycenchelys camchatica	800.53	2674	 	36.75197	-122.20951	1800914	0.36	2005-06-08 18:17:25.0	Ventana	34.49	01:01:30:10	4.325	V2674-02
 	descend	Appendicularia	522.62	2683	 	36.70146	-122.04914	1756897	0.59	2005-07-11 17:41:30.0	Ventana	34.324	01:25:37:03	6.308	V2683-02
 	transect	Mediaster	 	2687	 	 	 	1811774	 	2005-07-13 20:25:04.0	Ventana	 	03:50:02:24	 	V2687-04
 	transect	molt	100.51	2681	 	36.699825	-122.05429	2489694	2.13	2005-07-07 16:48:07.0	Ventana	34.067	00:19:16:00	9.15	V2681-01HD
 	transect	Mesomyaria	999.76	2669	 	36.73099	-122.23385	1683972	0.45	2005-05-25 18:40:45.0	Ventana	34.522	01:02:45:27	3.913	V2669-02
 	transect	molt	300.46	2681	 	36.697956	-122.05333	2492093	1.24	2005-07-07 17:21:41.0	Ventana	34.234	00:52:49:05	7.402	V2681-01HD
 	ascend	Appendicularia	658.24	2682	 	36.698906	-122.0596	1723371	0.29	2005-07-08 20:35:22.0	Ventana	34.403	04:27:31:07	5.28	V2682-05
 	ascend	Copepoda	374.22	2681	 	36.699356	-122.05481	1718024	0.95	2005-07-07 20:50:21.253	Ventana	34.27	04:18:41:24	7.021	V2681-05
 	transect	Euphausia	200.42	2681	 	36.69828	-122.0533	2490815	1.72	2005-07-07 17:09:03.0	Ventana	34.193	00:40:10:07	8.323	V2681-01HD
 	transect	Rathbunaster californicus	196.33	2696	 	36.803013	-122.12254	1813075	1.55	2005-08-01 17:05:21.0	Ventana	34.201	00:33:40:03	8.611	V2696-01
 	transect	Psolus squamatus	 	2687	 	 	 	1809006	 	2005-07-13 17:33:27.0	Ventana	 	01:00:19:24	 	V2687-01
 	transect	Phyllospadix	1000.32	2669	 	36.73145	-122.2421	1694463	0.4	2005-05-25 19:40:03.0	Ventana	34.509	02:02:00:05	4.076	V2669-02
 	transect	Lycenchelys camchatica	801.05	2674	 	36.75247	-122.204575	1799613	0.35	2005-06-08 17:52:38.0	Ventana	34.481	00:37:10:17	4.367	V2674-01
 	transect	Caridea sp.1	803.09	2674	 	36.750835	-122.220184	1803682	0.34	2005-06-08 19:07:32.0	Ventana	34.49	01:51:34:03	4.397	V2674-02
 	transect	Diogenidae	600.49	2680	http://search.mbari.org/ARCHIVE/frameGrabs/Ventana/images/2680/00_21_58_00.jpg	36.777126	-122.222275	1804231	0.36	2005-06-27 17:41:50.0	Ventana	34.379	00:21:58:00	5.576	V2680-01
 	transect	Mediaster	 	2687	 	 	 	1811405	 	2005-07-13 20:11:36.0	Ventana	 	03:36:35:10	 	V2687-04
 	transect	Beroe	400.73	2681	 	36.697826	-122.05353	2493214	0.79	2005-07-07 17:49:41.0	Ventana	34.278	01:20:05:12	6.66	V2681-02HD
 	ascend	Copepoda	773.8	2681	 	36.698723	-122.05633	1717475	0.28	2005-07-07 20:07:22.35	Ventana	34.454	03:36:24:05	4.757	V2681-04
 	descend	Nanomia	459.91	2683	 	36.701664	-122.04932	1756717	0.78	2005-07-11 17:09:44.0	Ventana	34.283	00:57:23:14	6.672	V2683-01
 	stationary	Merluccius productus	501.8	2694	 	36.78455	-122.200485	1676406	0.74	2005-07-27 18:03:34.0	Ventana	34.285	00:56:39:10	6.48	V2694-01
 	transect	Phyllospadix	800.8	2674	 	36.75258	-122.202	1799147	0.34	2005-06-08 17:38:52.0	Ventana	34.477	00:23:26:06	4.4	V2674-01
 	transect	Mesomyaria	802.77	2674	 	36.75178	-122.21024	1800997	0.36	2005-06-08 18:20:54.0	Ventana	34.49	01:04:59:02	4.324	V2674-02
 	ascend	Appendicularia	1150.04	2682	 	36.69823	-122.05748	1722499	0.62	2005-07-08 19:54:48.0	Ventana	34.56	03:47:23:23	3.512	V2682-04
 	transect	Calycophorae	500.58	2681	 	36.69726	-122.05295	2493477	0.44	2005-07-07 17:58:02.0	Ventana	34.346	01:28:24:19	6.025	V2681-02HD
 	ascend	Appendicularia	940.18	2681	 	36.697533	-122.05399	1716949	0.41	2005-07-07 19:42:34.433	Ventana	34.515	03:11:38:02	4.069	V2681-04
 	transect	Mediaster	 	2687	 	 	 	1810247	 	2005-07-13 19:12:07.0	Ventana	 	02:37:51:06	 	V2687-03
 	transect	molt	100.5	2681	 	36.69971	-122.054214	2489777	2.13	2005-07-07 16:50:17.0	Ventana	34.067	00:21:27:09	9.159	V2681-01HD
 	transect	Brisaster	998.75	2669	 	36.73287	-122.252	1737299	0.4	2005-05-25 20:44:57.0	Ventana	34.509	03:05:45:23	4.073	V2669-04
 	cruise	Chionoecetes tanneri	1208.5	2683	 	36.70704	-122.04766	1757672	0.72	2005-07-11 20:16:12.0	Ventana	34.574	03:50:34:22	3.355	V2683-04
 	descend	Dosidicus gigas	395.22	2681	 	36.695553	-122.05119	1715099	0.82	2005-07-07 17:33:10.767	Ventana	34.275	01:03:34:26	6.694	V2681-02
 	descend	Nanomia	380.55	2681	 	36.695557	-122.05121	1715076	0.93	2005-07-07 17:32:40.033	Ventana	34.261	01:03:04:05	6.893	V2681-02
 	cruise	benthos	197.3	2696	http://search.mbari.org/ARCHIVE/frameGrabs/Ventana/images/2696/00_01_48_02.jpg	36.80237	-122.12136	1812849	1.61	2005-08-01 16:33:27.0	Ventana	34.187	00:01:48:02	8.663	V2696-01
 	transect	Allocentrotus fragilis	 	2687	 	 	 	1807299	 	2005-07-13 17:05:08.0	Ventana	 	00:32:02:18	 	V2687-01
 	transect	Liponema brevicornis	 	2687	 	 	 	1810999	 	2005-07-13 19:47:14.0	Ventana	 	03:12:16:00	 	V2687-04
 	transect	Nanomia bijuga	200.42	2681	 	36.69828	-122.0533	2490875	1.7	2005-07-07 17:09:23.0	Ventana	34.197	00:40:31:21	8.33	V2681-01HD
 	ascend	sinker	364.34	2681	 	36.699368	-122.05493	1718047	1.0	2005-07-07 20:51:20.0	Ventana	34.263	04:19:41:00	7.11	V2681-05
 	ascend	Appendicularia	559.07	2682	 	36.698265	-122.06258	1723597	0.38	2005-07-08 21:07:46.0	Ventana	34.359	04:59:52:05	5.841	V2682-05
 	transect	Mesomyaria	1000.09	2669	 	36.73104	-122.239624	1689176	0.41	2005-05-25 19:25:05.55	Ventana	34.509	01:47:04:17	4.064	V2669-02
 	descend	Appendicularia	279.83	2693	 	36.697994	-122.061356	1758424	1.41	2005-07-25 19:35:07.0	Ventana	34.239	02:14:43:19	8.017	V2693-03
 	ascend	sinker	597.29	2681	 	36.698936	-122.05425	1717701	0.32	2005-07-07 20:30:03.5	Ventana	34.38	03:59:04:06	5.58	V2681-04
 	transect	Nanomia bijuga	200.48	2681	 	36.69828	-122.05329	2490529	1.71	2005-07-07 17:07:18.0	Ventana	34.197	00:38:26:28	8.341	V2681-01HD
 	transect	Psolus squamatus	 	2687	 	 	 	1807645	 	2005-07-13 17:20:10.0	Ventana	 	00:47:03:05	 	V2687-01
 	transect	Gastropoda sp.2	998.39	2669	 	36.73112	-122.23106	1695072	0.45	2005-05-25 18:22:54.0	Ventana	34.521	00:45:20:19	3.922	V2669-01
 	ascend	Chuniphyes	830.32	2682	 	36.69866	-122.058624	1723251	0.34	2005-07-08 20:21:32.0	Ventana	34.479	04:13:41:29	4.436	V2682-05
 	transect	Gastropoda sp.2	1000.19	2669	 	36.731117	-122.23866	1694726	0.42	2005-05-25 19:19:13.0	Ventana	34.51	01:41:11:20	3.988	V2669-02
 	transect	Rathbunaster californicus	200.84	2696	 	36.805252	-122.12818	1813601	1.5	2005-08-01 18:03:23.0	Ventana	34.21	01:31:15:04	8.668	V2696-02
 	descend	Appendicularia	945.96	2683	 	36.7038	-122.04857	1757326	0.41	2005-07-11 19:09:20.0	Ventana	34.509	02:49:43:19	4.109	V2683-03
 	ascend	Acanthamunnopsis milleri	202.51	2693	 	36.690895	-122.062675	1759176	1.76	2005-07-25 21:25:30.0	Ventana	34.225	03:50:02:02	8.907	V2693-04
 	transect	Porifera	 	2687	 	 	 	1809901	 	2005-07-13 18:47:47.0	Ventana	 	02:13:33:19	 	V2687-03
 	transect	Poeobius meseres	600.54	2681	 	36.69727	-122.053055	2493823	0.3	2005-07-07 18:25:52.0	Ventana	34.388	01:56:13:16	5.469	V2681-02HD
 	transect	Appendicularia	400.78	2681	 	36.697323	-122.05298	2493131	0.79	2005-07-07 17:47:37.0	Ventana	34.278	01:17:59:17	6.663	V2681-02HD
 	transect	Mesomyaria	798.99	2674	 	36.751553	-122.21417	1801343	0.35	2005-06-08 18:39:30.0	Ventana	34.488	01:23:33:28	4.338	V2674-02
 	ascend	sinker	1027.46	2682	 	36.697742	-122.05792	1722845	0.47	2005-07-08 20:03:57.0	Ventana	34.529	03:56:31:19	3.883	V2682-04
 	descend	Appendicularia	865.05	2682	 	36.698315	-122.05944	1721747	0.32	2005-07-08 18:48:56.0	Ventana	34.488	02:41:59:04	4.368	V2682-03
 	transect	Umbellula lindahli	1000.57	2669	http://search.mbari.org/ARCHIVE/frameGrabs/Ventana/images/2669/02_42_17_23.jpg	36.73215	-122.248245	1736201	0.41	2005-05-25 20:20:48.0	Ventana	34.511	02:42:17:23	4.062	V2669-03
 	transect	Phyllospadix	801.47	2674	 	36.750954	-122.2187	1803599	0.34	2005-06-08 19:01:06.0	Ventana	34.485	01:45:08:06	4.379	V2674-02
 	transect	Poeobius meseres	700.58	2681	 	36.695568	-122.0514	2497929	0.28	2005-07-07 18:46:18.0	Ventana	34.436	02:16:00:06	4.957	V2681-03HD
 	descend	Nanomia	248.83	2676	 	36.80511	-122.0318	1676203	1.52	2005-06-14 16:17:09.0	Ventana	34.208	00:01:19:21	7.964	V2676-01
 	descend	Appendicularia	606.97	2681	 	36.695705	-122.05101	1715851	0.3	2005-07-07 18:15:59.833	Ventana	34.385	01:46:21:09	5.486	V2681-02
 	transect	Mesomyaria	1000.18	2669	 	36.731663	-122.24378	1733945	0.41	2005-05-25 19:48:48.0	Ventana	34.509	02:10:20:15	4.064	V2669-03
 	transect	chuniphyes	1000.99	2681	 	36.695538	-122.051575	2498621	0.48	2005-07-07 19:25:22.0	Ventana	34.533	02:55:01:05	3.859	V2681-03HD
 	descend	sinker	529.98	2683	 	36.701504	-122.04914	1756920	0.55	2005-07-11 17:42:34.0	Ventana	34.32	01:26:39:26	6.24	V2683-02
 	transect	Psolus squamatus	 	2687	 	 	 	1808803	 	2005-07-13 17:29:44.0	Ventana	 	00:56:36:29	 	V2687-01
 	transect	Mediaster	 	2687	 	 	 	1812443	 	2005-07-13 20:38:58.0	Ventana	 	04:03:55:23	 	V2687-04
 	cruise	Pleuronectiformes	131.81	2676	 	36.808475	-122.03112	1676895	1.71	2005-06-14 18:01:47.0	Ventana	34.179	01:41:30:01	8.305	V2676-02
 	ascend	Aegina	863.77	2681	 	36.698475	-122.05556	1717355	0.34	2005-07-07 19:53:31.3	Ventana	34.498	03:22:34:08	4.316	V2681-04
 	descend	Appendicularia	307.57	2681	 	36.69566	-122.0513	1713655	1.23	2005-07-07 17:30:06.433	Ventana	34.229	01:01:13:24	7.376	V2681-01
 	transect	Umbellula lindahli	599.83	2680	 	36.777534	-122.22257	1804291	0.36	2005-06-27 17:47:26.0	Ventana	34.378	00:27:33:22	5.587	V2680-01
 	transect	Ceriantharia sp. 2	1000.58	2669	 	36.732063	-122.24769	1736141	0.4	2005-05-25 20:16:32.0	Ventana	34.51	02:38:01:15	4.081	V2669-03
 	descend	Copepoda	297.4	2683	 	36.70107	-122.050156	1756491	1.26	2005-07-11 16:53:33.0	Ventana	34.243	00:41:13:06	7.723	V2683-01
 	descend	Appendicularia	935.17	2681	 	36.69467	-122.0504	1716520	0.42	2005-07-07 19:18:02.867	Ventana	34.515	02:47:44:09	4.042	V2681-03
 	transect	Euphausia	200.4	2681	 	36.698284	-122.05331	2490935	1.71	2005-07-07 17:09:59.0	Ventana	34.195	00:41:08:04	8.323	V2681-01HD
 	transect	Funiculina	999.76	2669	http://search.mbari.org/ARCHIVE/frameGrabs/Ventana/images/2669/00_30_23_21.jpg	36.730614	-122.22913	1651055	0.45	2005-05-25 18:07:56.0	Ventana	34.522	00:30:23:21	3.905	V2669-01
 	stationary	Liponema brevicornis	502.24	2694	 	36.78463	-122.20044	1676632	0.84	2005-07-27 20:00:49.0	Ventana	34.272	02:32:58:19	6.664	V2694-03
 	transect	Mesomyaria	798.91	2674	 	36.75137	-122.21512	1801403	0.35	2005-06-08 18:44:28.0	Ventana	34.489	01:28:31:27	4.339	V2674-02
 	transect	lobata	200.36	2681	 	36.69831	-122.0534	2491221	1.68	2005-07-07 17:12:52.0	Ventana	34.2	00:43:59:28	8.337	V2681-01HD
 	transect	Umbellula lindahli	599.87	2680	 	36.77807	-122.22322	1804351	0.36	2005-06-27 17:53:42.0	Ventana	34.377	00:33:49:10	5.591	V2680-01
 	cruise	Ceriantharia sp. 1	102.92	2688	 	36.814014	-122.017586	1679234	1.97	2005-07-14 19:34:11.0	Ventana	34.091	03:18:58:26	8.912	V2688-04
 	descend	Appendicularia	1190.17	2682	 	36.698433	-122.05761	1722416	0.67	2005-07-08 19:51:01.0	Ventana	34.567	03:43:36:20	3.398	V2682-04
 	transect	Lycenchelys camchatica	801.59	2674	 	36.751766	-122.2109	1801057	0.35	2005-06-08 18:23:41.0	Ventana	34.49	01:07:46:02	4.328	V2674-02
 	transect	Mesomyaria	999.71	2669	 	36.7312	-122.23575	1684378	0.44	2005-05-25 18:55:33.0	Ventana	34.519	01:17:33:09	3.934	V2669-02
 	transect	Mesomyaria	1000.08	2669	 	36.731903	-122.24552	1735389	0.41	2005-05-25 20:00:29.0	Ventana	34.509	02:21:59:10	4.064	V2669-03
 	transect	cydippida	100.49	2681	 	36.69916	-122.05386	2489837	2.13	2005-07-07 16:51:34.0	Ventana	34.068	00:22:43:14	9.141	V2681-01HD
 	transect	Caridea sp.1	1000.02	2669	 	36.73258	-122.25024	1736953	0.41	2005-05-25 20:34:59.0	Ventana	34.509	02:56:27:28	4.067	V2669-03
 	transect	Nanomia bijuga	200.43	2681	 	36.69828	-122.05329	2490123	1.7	2005-07-07 17:05:00.0	Ventana	34.197	00:36:07:14	8.358	V2681-01HD
 	transect	Mysidae 2	1000.97	2681	 	36.696297	-122.05255	2498681	0.47	2005-07-07 19:29:09.0	Ventana	34.531	02:58:50:02	3.874	V2681-03HD
 	transect	Ophiuroidea	998.52	2669	 	36.73107	-122.23056	1651318	0.45	2005-05-25 18:18:43.0	Ventana	34.522	00:41:10:10	3.911	V2669-01
 	cruise	LRJ Complex	596.73	2688	 	36.796413	-122.020195	1677384	0.47	2005-07-14 16:40:08.0	Ventana	34.379	00:26:27:20	5.626	V2688-01
 	transect	Stomphia	801.04	2674	 	36.75254	-122.20249	1799207	0.35	2005-06-08 17:41:15.0	Ventana	34.486	00:25:48:06	4.374	V2674-01
 	cruise	Chionoecetes tanneri	1222.51	2683	 	36.706177	-122.04771	1757589	0.73	2005-07-11 20:01:04.0	Ventana	34.577	03:35:27:12	3.334	V2683-04
 	transect	Phyllospadix	197.17	2696	 	36.803402	-122.12367	1813195	1.56	2005-08-01 17:18:42.0	Ventana	34.197	00:46:59:23	8.631	V2696-01
 	cruise	Pleuronectiformes	440.97	2688	 	36.80379	-122.01813	1677647	0.9	2005-07-14 17:38:56.0	Ventana	34.269	01:24:40:04	6.893	V2688-02
 	ascend	Appendicularia	262.6	2681	 	36.699028	-122.055725	1718716	1.43	2005-07-07 21:16:48.6	Ventana	34.231	04:45:07:15	7.967	V2681-05
 	ascend	Euphausiacea	258.17	2681	 	36.697838	-122.05522	1719551	 	2005-07-07 21:29:59.0	Ventana	 	05:12:55:27	 	V2681-05
 	transect	Prayidae	300.44	2681	 	36.698284	-122.05352	2491973	1.24	2005-07-07 17:20:28.0	Ventana	34.231	00:51:36:10	7.426	V2681-01HD
 	descend	Chuniphyes	773.2	2682	 	36.698387	-122.05976	1721664	0.29	2005-07-08 18:32:27.0	Ventana	34.457	02:25:32:04	4.698	V2682-03
 	ascend	Appendicularia	603.35	2682	 	36.69864	-122.06155	1723514	0.34	2005-07-08 20:56:35.0	Ventana	34.374	04:48:42:21	5.635	V2682-05
 	transect	Psolus squamatus	399.84	2687	 	36.788048	-122.121544	1809149	1.13	2005-07-13 17:36:10.0	Ventana	34.242	01:02:32:10	7.271	V2687-02
 	cruise	Rathbunaster californicus	96.48	2688	 	36.81402	-122.01845	1679497	1.93	2005-07-14 21:18:30.0	Ventana	34.103	05:02:42:26	8.901	V2688-05
 	transect	Phyllospadix	999.03	2669	 	36.73105	-122.23116	1683543	0.45	2005-05-25 18:23:56.0	Ventana	34.521	00:46:22:18	3.914	V2669-01
 	transect	Funiculina	997.34	2669	 	36.730618	-122.22767	1649205	0.45	2005-05-25 17:58:33.0	Ventana	34.521	00:21:02:00	3.908	V2669-01
 	ascend	Appendicularia	686.96	2681	 	36.698734	-122.05462	1717618	0.28	2005-07-07 20:22:05.8	Ventana	34.417	03:51:07:00	5.143	V2681-04
 	transect	lobata	400.74	2681	 	36.696945	-122.05256	2493071	0.79	2005-07-07 17:46:04.0	Ventana	34.277	01:16:27:17	6.659	V2681-02HD
 	transect	Pennatula phosphorea californica	999.96	2669	http://search.mbari.org/ARCHIVE/frameGrabs/Ventana/images/2669/02_13_40_22.jpg	36.73176	-122.24438	1734291	0.4	2005-05-25 19:52:09.0	Ventana	34.507	02:13:40:22	4.082	V2669-03
 	descend	Appendicularia	357.14	2683	 	36.701332	-122.04988	1756574	1.14	2005-07-11 16:56:56.0	Ventana	34.237	00:44:36:17	7.148	V2683-01
 	transect	Mesomyaria	800.6	2674	 	36.75105	-122.21794	1803539	0.34	2005-06-08 18:57:57.0	Ventana	34.486	01:42:00:00	4.37	V2674-02
 	ascend	Appendicularia	370.96	2693	 	36.696476	-122.06065	1758687	1.2	2005-07-25 20:28:25.0	Ventana	34.233	03:07:58:27	7.17	V2693-03
 	transect	Phyllospadix	999.72	2669	 	36.731304	-122.23592	1684438	0.44	2005-05-25 18:56:52.0	Ventana	34.521	01:18:52:16	3.933	V2669-02
 	descend	Myctophidae	557.02	2682	 	36.69863	-122.05979	1720912	0.34	2005-07-08 18:06:00.0	Ventana	34.37	01:59:29:18	5.654	V2682-02
 	ascend	Nanomia	182.21	2693	 	36.690617	-122.06293	1759236	1.93	2005-07-25 21:29:35.0	Ventana	34.138	03:54:06:28	8.863	V2693-04
 	descend	Prayidae	503.59	2683	 	36.70148	-122.049164	1756837	0.68	2005-07-11 17:37:29.0	Ventana	34.305	01:21:34:17	6.464	V2683-02
 	transect	Phyllospadix	 	2687	 	 	 	1811834	 	2005-07-13 20:26:43.0	Ventana	 	03:51:42:02	 	V2687-04
 	transect	Mesomyaria	1000.2	2669	 	36.73097	-122.233246	1683889	0.45	2005-05-25 18:38:05.0	Ventana	34.522	01:00:31:07	3.91	V2669-01
 	transect	Mediaster	 	2687	 	 	 	1812383	 	2005-07-13 20:35:53.0	Ventana	 	04:00:50:27	 	V2687-04
 	cruise	Parastichopus	368.23	2676	 	36.8045	-122.02909	1676489	0.95	2005-06-14 16:46:00.067	Ventana	34.27	00:30:07:27	7.042	V2676-01
 	descend	Aegina	603.27	2681	 	36.695667	-122.05105	1715911	0.3	2005-07-07 18:17:32.233	Ventana	34.387	01:47:53:03	5.486	V2681-02
 	transect	Sebastes saxicola	203.74	2696	 	36.805264	-122.128204	1813684	1.48	2005-08-01 18:14:53.0	Ventana	34.213	01:42:45:08	8.63	V2696-02
 	cruise	Pleuronectiformes	465.49	2676	 	36.802612	-122.02938	1676286	0.57	2005-06-14 16:34:49.0	Ventana	34.336	00:18:58:13	6.183	V2676-01
 	ascend	Aegina	733.78	2682	 	36.698795	-122.059235	1723311	0.28	2005-07-08 20:29:47.0	Ventana	34.437	04:21:55:11	4.902	V2682-05
 	ascend	Appendicularia	638.63	2683	 	36.705067	-122.05013	1757935	0.31	2005-07-11 21:09:58.0	Ventana	34.408	04:42:51:10	5.322	V2683-05
 	descend	Calycophorae	823.14	2681	 	36.69698	-122.05321	1716460	0.32	2005-07-07 19:03:39.7	Ventana	34.482	02:33:22:16	4.419	V2681-03
 	transect	Mesomyaria	999.45	2669	 	36.730495	-122.22862	1650912	0.45	2005-05-25 18:04:30.0	Ventana	34.522	00:26:57:26	3.906	V2669-01
 	descend	Chaetognatha	327.08	2682	 	36.69888	-122.06068	1720160	1.11	2005-07-08 17:08:16.0	Ventana	34.244	01:01:48:15	7.24	V2682-02
 	descend	Appendicularia	1010.71	2683	 	36.704166	-122.050224	1757386	0.44	2005-07-11 19:20:26.0	Ventana	34.522	03:00:47:12	3.983	V2683-03
 	transect	Allocentrotus fragilis	 	2687	 	 	 	1811285	 	2005-07-13 20:05:34.0	Ventana	 	03:30:33:21	 	V2687-04
 	descend	Appendicularia	813.59	2683	 	36.702755	-122.04859	1757183	0.36	2005-07-11 18:11:07.0	Ventana	34.472	01:55:11:23	4.524	V2683-02
 	ascend	Copepoda	329.2	2693	 	36.692005	-122.06191	1759033	1.29	2005-07-25 21:16:28.0	Ventana	34.237	03:40:59:20	7.555	V2693-04
 	ascend	Chuniphyes	917.41	2681	 	36.69776	-122.05443	1717009	0.38	2005-07-07 19:46:01.233	Ventana	34.503	03:15:04:20	4.191	V2681-04
 	ascend	Calycophorae	952.58	2681	 	36.697384	-122.053764	1716866	0.42	2005-07-07 19:40:39.15	Ventana	34.516	03:09:43:01	4.055	V2681-04
 	transect	Microstomus pacificus	 	2687	 	 	 	1810187	 	2005-07-13 19:06:28.0	Ventana	 	02:32:13:08	 	V2687-03
 	ascend	sinker	732.91	2681	 	36.698715	-122.05542	1717558	0.26	2005-07-07 20:17:04.833	Ventana	34.441	03:46:06:10	4.863	V2681-04
 	ascend	Appendicularia	824.44	2681	 	36.698856	-122.0564	1717415	0.31	2005-07-07 19:58:29.433	Ventana	34.481	03:27:31:18	4.443	V2681-04
 	transect	Mediaster	 	2687	 	 	 	1810736	 	2005-07-13 19:30:50.0	Ventana	 	02:56:33:16	 	V2687-03
 	descend	Appendicularia	984.28	2682	 	36.69833	-122.059235	1722010	0.43	2005-07-08 18:57:41.0	Ventana	34.519	02:50:43:07	4.002	V2682-03
 	descend	Appendicularia	398.32	2683	 	36.70148	-122.04964	1756634	0.97	2005-07-11 17:01:08.0	Ventana	34.259	00:48:46:22	6.996	V2683-01
 	transect	Ceriantharia sp. 2	996.98	2669	 	36.73065	-122.22762	1683340	0.45	2005-05-25 17:58:20.0	Ventana	34.522	00:20:48:18	3.909	V2669-01
 	ascend	Vitreosalpa gemini	413.03	2681	 	36.69923	-122.054344	1717964	0.8	2005-07-07 20:46:21.333	Ventana	34.276	04:14:42:29	6.674	V2681-05
 	transect	physical object	399.86	2687	http://search.mbari.org/ARCHIVE/frameGrabs/Ventana/images/2687/01_02_12_24.jpg	36.788044	-122.12152	1809089	1.14	2005-07-13 17:35:50.0	Ventana	34.237	01:02:12:24	7.276	V2687-02
 	transect	Mediaster	 	2687	 	 	 	1812586	 	2005-07-13 20:46:12.0	Ventana	 	04:10:43:02	 	V2687-05
 	transect	Sebastolobus	997.41	2669	 	36.731148	-122.23096	1683483	0.45	2005-05-25 18:22:08.0	Ventana	34.52	00:44:34:16	3.924	V2669-01
 	transect	Ophiuroidea	1000.17	2669	 	36.73114	-122.24026	1689236	0.41	2005-05-25 19:29:05.0	Ventana	34.511	01:51:02:28	4.059	V2669-02
 	ascend	Appendicularia	336.66	2681	 	36.699406	-122.05527	1718107	1.14	2005-07-07 20:54:02.77	Ventana	34.245	04:22:23:03	7.285	V2681-05
 	cruise	Pleuronectiformes	538.79	2688	 	36.798355	-122.0196	1677444	0.62	2005-07-14 17:01:37.0	Ventana	34.325	00:47:55:23	6.251	V2688-01
 	transect	Laminariales	399.53	2687	 	36.789402	-122.124916	1809638	1.16	2005-07-13 18:27:36.0	Ventana	34.24	01:53:53:23	7.326	V2687-02
 	ascend	Appendicularia	259.97	2681	 	36.69923	-122.05433	1718656	1.43	2005-07-07 21:14:51.4	Ventana	34.23	04:43:10:28	7.97	V2681-05
 	transect	Phyllospadix	196.5	2696	 	36.80317	-122.12291	1813135	1.56	2005-08-01 17:09:33.0	Ventana	34.196	00:37:51:25	8.626	V2696-01
 	transect	Sebastolobus	998.31	2669	 	36.733	-122.252396	1737442	0.4	2005-05-25 20:47:44.0	Ventana	34.509	03:08:33:12	4.076	V2669-04
 	cruise	Sebastolobus	469.98	2688	 	36.802326	-122.01822	1677587	0.83	2005-07-14 17:30:01.0	Ventana	34.279	01:15:44:29	6.756	V2688-02
 	transect	Phyllospadix	200.19	2696	 	36.80489	-122.12753	1813541	1.51	2005-08-01 17:58:06.0	Ventana	34.211	01:25:58:15	8.671	V2696-02
 	transect	Mesomyaria	998.79	2669	 	36.730984	-122.23019	1651258	0.45	2005-05-25 18:15:51.0	Ventana	34.52	00:38:17:29	3.911	V2669-01
 	transect	Nanomia bijuga	200.45	2681	 	36.69828	-122.05329	2490183	1.7	2005-07-07 17:05:34.0	Ventana	34.197	00:36:41:17	8.358	V2681-01HD
 	transect	Mediaster	 	2687	 	 	 	1812240	 	2005-07-13 20:29:43.0	Ventana	 	03:54:41:20	 	V2687-04
 	transect	molt	100.52	2681	 	36.69983	-122.05429	2489634	2.13	2005-07-07 16:46:44.0	Ventana	34.068	00:17:53:10	9.144	V2681-01HD
 	descend	Copepoda	571.46	2683	 	36.701866	-122.04912	1756980	0.4	2005-07-11 17:46:43.0	Ventana	34.355	01:30:48:26	5.943	V2683-02
 	ascend	Appendicularia	518.67	2682	 	36.698288	-122.063	1723657	0.46	2005-07-08 21:11:43.0	Ventana	34.34	05:03:24:18	6.1	V2682-06
 	descend	Appendicularia	189.39	2693	 	36.69607	-122.05817	1758281	1.82	2005-07-25 18:14:15.0	Ventana	34.182	00:54:44:27	8.885	V2693-01
 	transect	Mesomyaria	999.86	2669	 	36.731297	-122.23819	1688830	0.43	2005-05-25 19:16:10.0	Ventana	34.518	01:38:09:02	3.954	V2669-02
 	ascend	Appendicularia	588.85	2682	 	36.698807	-122.0606	1723454	0.4	2005-07-08 20:46:20.0	Ventana	34.372	04:38:26:16	5.671	V2682-05
 	transect	Psolus squamatus	 	2687	http://search.mbari.org/ARCHIVE/frameGrabs/Ventana/images/2687/03_08_25_05.jpg	 	 	1810939	 	2005-07-13 19:43:23.0	Ventana	 	03:08:25:05	 	V2687-04
 	transect	Psolus squamatus	 	2687	 	 	 	1811142	 	2005-07-13 19:56:29.0	Ventana	 	03:21:29:11	 	V2687-04
 	ascend	Chaetognatha	310.98	2683	 	36.703384	-122.05063	1758078	1.28	2005-07-11 21:24:09.0	Ventana	34.233	04:56:59:10	7.418	V2683-05
 	transect	Calliostoma platinum	 	2687	 	 	 	1810593	 	2005-07-13 19:23:21.0	Ventana	 	02:49:04:21	 	V2687-03
 	transect	Stomphia	1000.44	2669	 	36.73194	-122.247	1735795	0.41	2005-05-25 20:11:53.0	Ventana	34.51	02:33:24:01	4.063	V2669-03
 	transect	Psolus squamatus	 	2687	 	 	 	1811488	 	2005-07-13 20:14:25.0	Ventana	 	03:39:24:20	 	V2687-04
 	cruise	Appendicularia	1237.36	2683	 	36.705666	-122.048065	1757529	0.74	2005-07-11 19:48:36.0	Ventana	34.58	03:22:59:23	3.333	V2683-04
 	ascend	Appendicularia	1168.96	2683	 	36.707146	-122.04834	1757732	0.7	2005-07-11 20:29:06.0	Ventana	34.569	04:03:28:12	3.406	V2683-04
 	descend	Nanomia	207.7	2682	 	36.69989	-122.060715	1719957	1.87	2005-07-08 16:21:04.0	Ventana	34.17	00:15:07:22	7.985	V2682-01
 	descend	Appendicularia	401.43	2682	 	36.698284	-122.05987	1720709	0.82	2005-07-08 17:37:53.0	Ventana	34.256	01:31:23:27	6.598	V2682-02
 	transect	Gastropoda sp.2	997.5	2669	 	36.73063	-122.227806	1694929	0.45	2005-05-25 17:59:16.0	Ventana	34.522	00:21:43:23	3.907	V2669-01
 	transect	Umbellula lindahli	599.37	2680	 	36.77927	-122.22435	1804494	0.36	2005-06-27 18:07:44.0	Ventana	34.377	00:47:50:01	5.601	V2680-01
 	ascend	Euphotic zone	9.5	2696	 	36.80788	-122.13066	1813887	6.67	2005-08-01 18:58:21.0	Ventana	33.715	02:25:23:24	13.393	V2696-03
 	transect	Psolus squamatus	 	2687	 	 	 	1808743	 	2005-07-13 17:28:19.0	Ventana	 	00:55:11:28	 	V2687-01
 	cruise	Coryphaenoides acrolepis	 	2673	 	 	 	1668397	 	 	Ventana	 	00:24:21:23	 	V2673-01
 	transect	Ophiuroidea	998.96	2669	 	36.731384	-122.23645	1684784	0.44	2005-05-25 19:01:20.0	Ventana	34.52	01:23:19:12	3.941	V2669-02
 	transect	Neptunea amianta	799.98	2674	 	36.752644	-122.200455	1774119	0.29	2005-06-08 17:30:45.0	Ventana	34.459	00:15:19:01	4.657	V2674-01
 	cruise	Parastichopus	286.48	2676	 	36.805195	-122.0292	1676692	1.5	2005-06-14 17:28:25.0	Ventana	34.21	01:08:09:22	7.949	V2676-02
 	transect	Mesomyaria	1000.66	2669	 	36.732372	-122.24954	1736547	0.41	2005-05-25 20:30:03.0	Ventana	34.51	02:51:31:24	4.07	V2669-03
 	transect	Phyllospadix	199.58	2696	 	36.80394	-122.12546	1813338	1.51	2005-08-01 17:37:11.0	Ventana	34.21	01:05:04:22	8.652	V2696-02
 	transect	Mediaster	 	2687	 	 	 	1812789	 	2005-07-13 20:57:30.0	Ventana	 	04:21:59:25	 	V2687-05
 	transect	Sebastes diploproa	399.9	2687	 	36.78813	-122.12171	1809292	1.14	2005-07-13 17:38:33.0	Ventana	34.24	01:04:54:25	7.292	V2687-02
 	ascend	sinker	481.84	2681	 	36.69896	-122.05422	1717761	0.55	2005-07-07 20:35:26.867	Ventana	34.32	04:04:27:07	6.24	V2681-04
 	transect	bolinopsis	400.8	2681	 	36.695923	-122.05134	2492928	0.79	2005-07-07 17:41:33.0	Ventana	34.276	01:11:57:20	6.665	V2681-02HD
 	cruise	Allocentrotus fragilis	349.99	2688	 	36.80768	-122.01976	1677790	1.2	2005-07-14 17:56:56.167	Ventana	34.232	01:42:39:00	7.475	V2688-02
 	descend	Nanomia	237.29	2683	 	36.70097	-122.050644	1756431	1.71	2005-07-11 16:49:44.0	Ventana	34.188	00:37:24:24	8.1	V2683-01
 	transect	beroe	800.85	2681	 	36.69695	-122.0531	2498275	0.31	2005-07-07 19:02:45.0	Ventana	34.473	02:32:27:06	4.51	V2681-03HD
 	descend	Appendicularia	615.57	2682	 	36.698627	-122.05981	1721258	0.3	2005-07-08 18:08:10.0	Ventana	34.395	02:01:14:16	5.382	V2682-03
 	transect	Mesomyaria	800.26	2674	 	36.751247	-122.21611	1803396	0.35	2005-06-08 18:49:49.0	Ventana	34.489	01:33:52:08	4.34	V2674-02
 	descend	Sergestes similis	562.65	2688	 	36.793423	-122.01827	1677241	0.61	2005-07-14 16:18:01.0	Ventana	34.33	00:04:22:11	6.174	V2688-01
 	ascend	Euphausiacea	278.14	2681	 	36.699722	-122.05499	1718310	1.37	2005-07-07 21:03:22.7	Ventana	34.231	04:31:43:13	7.81	V2681-05
 	transect	Mesomyaria	999.19	2669	 	36.731068	-122.23185	1683686	0.45	2005-05-25 18:29:17.0	Ventana	34.521	00:51:43:17	3.915	V2669-01
